<?xml version="1.0" encoding="UTF-8"?>
<gpx xmlns="http://www.topografix.com/GPX/1/1" version="1.1" creator="Nokia Sports Tracker" xmlns:xsi="http://www.w3.org/2001/XMLSchema-instance" xsi:schemaLocation="http://www.topografix.com/GPX/1/1 http://www.topografix.com/GPX/1/1/gpx.xsd">
<metadata>
<name>13.06.2010 05:43</name>
<desc>Radfahren</desc>
<author><name>Günther Semmler</name></author>
<time>2010-06-13T06:01:05.37</time>
</metadata>
<trk>
<name>13.06.2010 05:43</name>
<trkseg>
<trkpt lat="49.154913" lon="11.750767">
<ele>522.4</ele>
<speed>0.4</speed>
<course>12.6</course>
<desc>Speed 0.4 km/h Distance 0.00 km</desc>
<time>2010-06-13T06:01:05.85</time>
<name>1</name>
</trkpt>
<trkpt lat="49.154915" lon="11.750767">
<ele>522.6</ele>
<speed>0.4</speed>
<course>90.0</course>
<desc>Speed 0.4 km/h Distance 0.00 km</desc>
<time>2010-06-13T06:01:06.37</time>
<name>2</name>
</trkpt>
<trkpt lat="49.154915" lon="11.750768">
<ele>522.7</ele>
<speed>0.5</speed>
<course>90.0</course>
<desc>Speed 0.5 km/h Distance 0.00 km</desc>
<time>2010-06-13T06:01:07.37</time>
<name>3</name>
</trkpt>
<trkpt lat="49.154915" lon="11.750768">
<ele>522.7</ele>
<speed>0.2</speed>
<course>90.0</course>
<desc>Speed 0.2 km/h Distance 0.00 km</desc>
<time>2010-06-13T06:01:08.37</time>
<name>4</name>
</trkpt>
<trkpt lat="49.154915" lon="11.750770">
<ele>522.7</ele>
<speed>0.2</speed>
<course>12.6</course>
<desc>Speed 0.2 km/h Distance 0.00 km</desc>
<time>2010-06-13T06:01:09.42</time>
<name>5</name>
</trkpt>
<trkpt lat="49.154917" lon="11.750770">
<ele>522.7</ele>
<speed>0.3</speed>
<course>12.6</course>
<desc>Speed 0.3 km/h Distance 0.00 km</desc>
<time>2010-06-13T06:01:10.37</time>
<name>6</name>
</trkpt>
<trkpt lat="49.154917" lon="11.750770">
<ele>522.8</ele>
<speed>0.1</speed>
<course>90.0</course>
<desc>Speed 0.1 km/h Distance 0.00 km</desc>
<time>2010-06-13T06:01:11.37</time>
<name>7</name>
</trkpt>
<trkpt lat="49.154917" lon="11.750772">
<ele>522.9</ele>
<speed>0.3</speed>
<course>12.6</course>
<desc>Speed 0.3 km/h Distance 0.00 km</desc>
<time>2010-06-13T06:01:12.37</time>
<name>8</name>
</trkpt>
<trkpt lat="49.154918" lon="11.750772">
<ele>522.9</ele>
<speed>0.3</speed>
<course>12.6</course>
<desc>Speed 0.3 km/h Distance 0.00 km</desc>
<time>2010-06-13T06:01:13.37</time>
<name>9</name>
</trkpt>
<trkpt lat="49.154918" lon="11.750772">
<ele>523.0</ele>
<speed>0.3</speed>
<course>90.0</course>
<desc>Speed 0.3 km/h Distance 0.00 km</desc>
<time>2010-06-13T06:01:14.37</time>
<name>10</name>
</trkpt>
<trkpt lat="49.154918" lon="11.750773">
<ele>522.9</ele>
<speed>0.1</speed>
<course>90.0</course>
<desc>Speed 0.1 km/h Distance 0.00 km</desc>
<time>2010-06-13T06:01:15.50</time>
<name>11</name>
</trkpt>
<trkpt lat="49.154918" lon="11.750773">
<ele>522.9</ele>
<speed>0.4</speed>
<course>231.9</course>
<desc>Speed 0.4 km/h Distance 0.00 km</desc>
<time>2010-06-13T06:01:16.37</time>
<name>12</name>
</trkpt>
<trkpt lat="49.154917" lon="11.750770">
<ele>522.8</ele>
<speed>0.2</speed>
<course>231.9</course>
<desc>Speed 0.2 km/h Distance 0.00 km</desc>
<time>2010-06-13T06:01:17.97</time>
<name>13</name>
</trkpt>
<trkpt lat="49.154917" lon="11.750770">
<ele>522.8</ele>
<speed>0.2</speed>
<course>90.0</course>
<desc>Speed 0.2 km/h Distance 0.00 km</desc>
<time>2010-06-13T06:01:18.39</time>
<name>14</name>
</trkpt>
<trkpt lat="49.154917" lon="11.750772">
<ele>522.8</ele>
<speed>0.1</speed>
<course>90.0</course>
<desc>Speed 0.1 km/h Distance 0.00 km</desc>
<time>2010-06-13T06:01:19.89</time>
<name>15</name>
</trkpt>
<trkpt lat="49.154917" lon="11.750772">
<ele>522.8</ele>
<speed>0.1</speed>
<course>90.0</course>
<desc>Speed 0.1 km/h Distance 0.00 km</desc>
<time>2010-06-13T06:01:20.39</time>
<name>16</name>
</trkpt>
<trkpt lat="49.154917" lon="11.750772">
<ele>522.7</ele>
<speed>0.1</speed>
<course>90.0</course>
<desc>Speed 0.1 km/h Distance 0.00 km</desc>
<time>2010-06-13T06:01:21.50</time>
<name>17</name>
</trkpt>
<trkpt lat="49.154917" lon="11.750772">
<ele>522.7</ele>
<speed>0.1</speed>
<course>90.0</course>
<desc>Speed 0.1 km/h Distance 0.00 km</desc>
<time>2010-06-13T06:01:22.39</time>
<name>18</name>
</trkpt>
<trkpt lat="49.154917" lon="11.750773">
<ele>522.7</ele>
<speed>0.6</speed>
<course>29.2</course>
<desc>Speed 0.6 km/h Distance 0.00 km</desc>
<time>2010-06-13T06:01:23.39</time>
<name>19</name>
</trkpt>
<trkpt lat="49.154918" lon="11.750775">
<ele>522.6</ele>
<speed>0.3</speed>
<course>29.2</course>
<desc>Speed 0.3 km/h Distance 0.00 km</desc>
<time>2010-06-13T06:01:24.89</time>
<name>20</name>
</trkpt>
<trkpt lat="49.154918" lon="11.750775">
<ele>522.6</ele>
<speed>0.3</speed>
<course>90.0</course>
<desc>Speed 0.3 km/h Distance 0.00 km</desc>
<time>2010-06-13T06:01:25.39</time>
<name>21</name>
</trkpt>
<trkpt lat="49.154918" lon="11.750777">
<ele>522.7</ele>
<speed>0.6</speed>
<course>90.0</course>
<desc>Speed 0.6 km/h Distance 0.00 km</desc>
<time>2010-06-13T06:01:26.46</time>
<name>22</name>
</trkpt>
<trkpt lat="49.154918" lon="11.750778">
<ele>522.7</ele>
<speed>1.2</speed>
<course>69.1</course>
<desc>Speed 1.2 km/h Distance 0.00 km</desc>
<time>2010-06-13T06:01:27.39</time>
<name>23</name>
</trkpt>
<trkpt lat="49.154920" lon="11.750785">
<ele>522.7</ele>
<speed>0.8</speed>
<course>69.1</course>
<desc>Speed 0.8 km/h Distance 0.00 km</desc>
<time>2010-06-13T06:01:28.96</time>
<name>24</name>
</trkpt>
<trkpt lat="49.154920" lon="11.750785">
<ele>522.7</ele>
<speed>0.8</speed>
<course>12.6</course>
<desc>Speed 0.8 km/h Distance 0.00 km</desc>
<time>2010-06-13T06:01:29.39</time>
<name>25</name>
</trkpt>
<trkpt lat="49.154923" lon="11.750787">
<ele>522.7</ele>
<speed>0.2</speed>
<course>0.0</course>
<desc>Speed 0.2 km/h Distance 0.00 km</desc>
<time>2010-06-13T06:01:30.39</time>
<name>26</name>
</trkpt>
<trkpt lat="49.154927" lon="11.750787">
<ele>522.9</ele>
<speed>0.5</speed>
<course>287.0</course>
<desc>Speed 0.5 km/h Distance 0.00 km</desc>
<time>2010-06-13T06:01:31.39</time>
<name>27</name>
</trkpt>
<trkpt lat="49.154930" lon="11.750770">
<ele>522.6</ele>
<speed>3.6</speed>
<course>297.0</course>
<desc>Speed 3.6 km/h Distance 0.00 km</desc>
<time>2010-06-13T06:01:32.88</time>
<name>28</name>
</trkpt>
<trkpt lat="49.154935" lon="11.750755">
<ele>522.3</ele>
<speed>4.8</speed>
<course>294.6</course>
<desc>Speed 4.8 km/h Distance 0.01 km</desc>
<time>2010-06-13T06:01:33.88</time>
<name>29</name>
</trkpt>
<trkpt lat="49.154940" lon="11.750738">
<ele>522.1</ele>
<speed>5.6</speed>
<course>275.8</course>
<desc>Speed 5.6 km/h Distance 0.01 km</desc>
<time>2010-06-13T06:01:34.88</time>
<name>30</name>
</trkpt>
<trkpt lat="49.154942" lon="11.750713">
<ele>522.2</ele>
<speed>8.0</speed>
<course>260.4</course>
<desc>Speed 8.0 km/h Distance 0.01 km</desc>
<time>2010-06-13T06:01:36.01</time>
<name>31</name>
</trkpt>
<trkpt lat="49.154938" lon="11.750683">
<ele>522.3</ele>
<speed>7.8</speed>
<course>264.7</course>
<desc>Speed 7.8 km/h Distance 0.01 km</desc>
<time>2010-06-13T06:01:37.39</time>
<name>32</name>
</trkpt>
<trkpt lat="49.154935" lon="11.750628">
<ele>523.0</ele>
<speed>6.9</speed>
<course>263.3</course>
<desc>Speed 6.9 km/h Distance 0.02 km</desc>
<time>2010-06-13T06:01:38.89</time>
<name>33</name>
</trkpt>
<trkpt lat="49.154933" lon="11.750607">
<ele>523.2</ele>
<speed>6.1</speed>
<course>270.0</course>
<desc>Speed 6.1 km/h Distance 0.02 km</desc>
<time>2010-06-13T06:01:39.89</time>
<name>34</name>
</trkpt>
<trkpt lat="49.154933" lon="11.750585">
<ele>523.4</ele>
<speed>5.3</speed>
<course>256.8</course>
<desc>Speed 5.3 km/h Distance 0.02 km</desc>
<time>2010-06-13T06:01:40.88</time>
<name>35</name>
</trkpt>
<trkpt lat="49.154930" lon="11.750563">
<ele>523.1</ele>
<speed>6.8</speed>
<course>244.4</course>
<desc>Speed 6.8 km/h Distance 0.02 km</desc>
<time>2010-06-13T06:01:41.88</time>
<name>36</name>
</trkpt>
<trkpt lat="49.154922" lon="11.750537">
<ele>522.8</ele>
<speed>7.0</speed>
<course>234.2</course>
<desc>Speed 7.0 km/h Distance 0.02 km</desc>
<time>2010-06-13T06:01:42.88</time>
<name>37</name>
</trkpt>
<trkpt lat="49.154908" lon="11.750508">
<ele>522.3</ele>
<speed>7.2</speed>
<course>237.8</course>
<desc>Speed 7.2 km/h Distance 0.02 km</desc>
<time>2010-06-13T06:01:43.89</time>
<name>38</name>
</trkpt>
<trkpt lat="49.154897" lon="11.750480">
<ele>521.8</ele>
<speed>7.0</speed>
<course>240.4</course>
<desc>Speed 7.0 km/h Distance 0.03 km</desc>
<time>2010-06-13T06:01:45.39</time>
<name>39</name>
</trkpt>
<trkpt lat="49.154875" lon="11.750422">
<ele>521.1</ele>
<speed>7.7</speed>
<course>264.2</course>
<desc>Speed 7.7 km/h Distance 0.03 km</desc>
<time>2010-06-13T06:01:46.88</time>
<name>40</name>
</trkpt>
<trkpt lat="49.154873" lon="11.750397">
<ele>521.3</ele>
<speed>6.8</speed>
<course>259.8</course>
<desc>Speed 6.8 km/h Distance 0.03 km</desc>
<time>2010-06-13T06:01:47.89</time>
<name>41</name>
</trkpt>
<trkpt lat="49.154870" lon="11.750368">
<ele>521.5</ele>
<speed>7.8</speed>
<course>247.6</course>
<desc>Speed 7.8 km/h Distance 0.04 km</desc>
<time>2010-06-13T06:01:49.39</time>
<name>42</name>
</trkpt>
<trkpt lat="49.154853" lon="11.750307">
<ele>520.3</ele>
<speed>10.4</speed>
<course>248.4</course>
<desc>Speed 10.4 km/h Distance 0.04 km</desc>
<time>2010-06-13T06:01:50.87</time>
<name>43</name>
</trkpt>
<trkpt lat="49.154842" lon="11.750262">
<ele>520.6</ele>
<speed>11.7</speed>
<course>256.4</course>
<desc>Speed 11.7 km/h Distance 0.04 km</desc>
<time>2010-06-13T06:01:51.88</time>
<name>44</name>
</trkpt>
<trkpt lat="49.154837" lon="11.750230">
<ele>519.9</ele>
<speed>12.1</speed>
<course>243.0</course>
<desc>Speed 12.1 km/h Distance 0.05 km</desc>
<time>2010-06-13T06:01:52.89</time>
<name>45</name>
</trkpt>
<trkpt lat="49.154813" lon="11.750160">
<ele>517.9</ele>
<speed>12.1</speed>
<course>248.4</course>
<desc>Speed 12.1 km/h Distance 0.05 km</desc>
<time>2010-06-13T06:01:54.88</time>
<name>46</name>
</trkpt>
<trkpt lat="49.154802" lon="11.750115">
<ele>517.3</ele>
<speed>12.6</speed>
<course>248.4</course>
<desc>Speed 12.6 km/h Distance 0.06 km</desc>
<time>2010-06-13T06:01:55.89</time>
<name>47</name>
</trkpt>
<trkpt lat="49.154790" lon="11.750070">
<ele>516.9</ele>
<speed>13.1</speed>
<course>247.7</course>
<desc>Speed 13.1 km/h Distance 0.06 km</desc>
<time>2010-06-13T06:01:56.89</time>
<name>48</name>
</trkpt>
<trkpt lat="49.154760" lon="11.749958">
<ele>517.2</ele>
<speed>13.1</speed>
<course>258.8</course>
<desc>Speed 13.1 km/h Distance 0.07 km</desc>
<time>2010-06-13T06:01:58.89</time>
<name>49</name>
</trkpt>
<trkpt lat="49.154753" lon="11.749907">
<ele>516.2</ele>
<speed>11.4</speed>
<course>259.2</course>
<desc>Speed 11.4 km/h Distance 0.07 km</desc>
<time>2010-06-13T06:02:00.39</time>
<name>50</name>
</trkpt>
<trkpt lat="49.154745" lon="11.749840">
<ele>516.3</ele>
<speed>8.2</speed>
<course>260.9</course>
<desc>Speed 8.2 km/h Distance 0.08 km</desc>
<time>2010-06-13T06:02:01.89</time>
<name>51</name>
</trkpt>
<trkpt lat="49.154742" lon="11.749808">
<ele>516.5</ele>
<speed>7.6</speed>
<course>265.1</course>
<desc>Speed 7.6 km/h Distance 0.08 km</desc>
<time>2010-06-13T06:02:03.39</time>
<name>52</name>
</trkpt>
<trkpt lat="49.154737" lon="11.749718">
<ele>516.5</ele>
<speed>10.9</speed>
<course>258.1</course>
<desc>Speed 10.9 km/h Distance 0.09 km</desc>
<time>2010-06-13T06:02:04.89</time>
<name>53</name>
</trkpt>
<trkpt lat="49.154730" lon="11.749670">
<ele>516.4</ele>
<speed>13.6</speed>
<course>252.0</course>
<desc>Speed 13.6 km/h Distance 0.09 km</desc>
<time>2010-06-13T06:02:05.88</time>
<name>54</name>
</trkpt>
<trkpt lat="49.154718" lon="11.749615">
<ele>516.5</ele>
<speed>14.9</speed>
<course>234.5</course>
<desc>Speed 14.9 km/h Distance 0.09 km</desc>
<time>2010-06-13T06:02:06.88</time>
<name>55</name>
</trkpt>
<trkpt lat="49.154695" lon="11.749565">
<ele>516.3</ele>
<speed>14.1</speed>
<course>221.8</course>
<desc>Speed 14.1 km/h Distance 0.10 km</desc>
<time>2010-06-13T06:02:07.90</time>
<name>56</name>
</trkpt>
<trkpt lat="49.154663" lon="11.749522">
<ele>516.1</ele>
<speed>16.2</speed>
<course>212.3</course>
<desc>Speed 16.2 km/h Distance 0.10 km</desc>
<time>2010-06-13T06:02:09.39</time>
<name>57</name>
</trkpt>
<trkpt lat="49.154615" lon="11.749475">
<ele>517.0</ele>
<speed>18.5</speed>
<course>199.7</course>
<desc>Speed 18.5 km/h Distance 0.11 km</desc>
<time>2010-06-13T06:02:10.39</time>
<name>58</name>
</trkpt>
<trkpt lat="49.154563" lon="11.749447">
<ele>518.1</ele>
<speed>19.3</speed>
<course>180.6</course>
<desc>Speed 19.3 km/h Distance 0.12 km</desc>
<time>2010-06-13T06:02:11.39</time>
<name>59</name>
</trkpt>
<trkpt lat="49.154467" lon="11.749445">
<ele>518.3</ele>
<speed>18.1</speed>
<course>181.5</course>
<desc>Speed 18.1 km/h Distance 0.13 km</desc>
<time>2010-06-13T06:02:12.88</time>
<name>60</name>
</trkpt>
<trkpt lat="49.154417" lon="11.749443">
<ele>517.7</ele>
<speed>18.4</speed>
<course>178.9</course>
<desc>Speed 18.4 km/h Distance 0.13 km</desc>
<time>2010-06-13T06:02:13.88</time>
<name>61</name>
</trkpt>
<trkpt lat="49.154368" lon="11.749445">
<ele>517.5</ele>
<speed>19.2</speed>
<course>167.7</course>
<desc>Speed 19.2 km/h Distance 0.14 km</desc>
<time>2010-06-13T06:02:14.89</time>
<name>62</name>
</trkpt>
<trkpt lat="49.154273" lon="11.749477">
<ele>517.9</ele>
<speed>18.9</speed>
<course>165.1</course>
<desc>Speed 18.9 km/h Distance 0.15 km</desc>
<time>2010-06-13T06:02:16.88</time>
<name>63</name>
</trkpt>
<trkpt lat="49.154228" lon="11.749495">
<ele>518.7</ele>
<speed>19.4</speed>
<course>174.6</course>
<desc>Speed 19.4 km/h Distance 0.15 km</desc>
<time>2010-06-13T06:02:17.87</time>
<name>64</name>
</trkpt>
<trkpt lat="49.154182" lon="11.749502">
<ele>518.7</ele>
<speed>19.2</speed>
<course>180.5</course>
<desc>Speed 19.2 km/h Distance 0.16 km</desc>
<time>2010-06-13T06:02:18.88</time>
<name>65</name>
</trkpt>
<trkpt lat="49.154132" lon="11.749500">
<ele>517.8</ele>
<speed>19.4</speed>
<course>175.1</course>
<desc>Speed 19.4 km/h Distance 0.16 km</desc>
<time>2010-06-13T06:02:19.88</time>
<name>66</name>
</trkpt>
<trkpt lat="49.154082" lon="11.749507">
<ele>517.5</ele>
<speed>19.7</speed>
<course>170.7</course>
<desc>Speed 19.7 km/h Distance 0.17 km</desc>
<time>2010-06-13T06:02:20.90</time>
<name>67</name>
</trkpt>
<trkpt lat="49.153988" lon="11.749530">
<ele>517.3</ele>
<speed>19.3</speed>
<course>177.4</course>
<desc>Speed 19.3 km/h Distance 0.18 km</desc>
<time>2010-06-13T06:02:22.88</time>
<name>68</name>
</trkpt>
<trkpt lat="49.153938" lon="11.749533">
<ele>516.9</ele>
<speed>20.0</speed>
<course>177.7</course>
<desc>Speed 20.0 km/h Distance 0.19 km</desc>
<time>2010-06-13T06:02:23.87</time>
<name>69</name>
</trkpt>
<trkpt lat="49.153888" lon="11.749537">
<ele>516.8</ele>
<speed>19.8</speed>
<course>180.0</course>
<desc>Speed 19.8 km/h Distance 0.19 km</desc>
<time>2010-06-13T06:02:24.88</time>
<name>70</name>
</trkpt>
<trkpt lat="49.153837" lon="11.749537">
<ele>516.5</ele>
<speed>19.5</speed>
<course>182.8</course>
<desc>Speed 19.5 km/h Distance 0.20 km</desc>
<time>2010-06-13T06:02:25.89</time>
<name>71</name>
</trkpt>
<trkpt lat="49.153728" lon="11.749528">
<ele>516.8</ele>
<speed>20.5</speed>
<course>180.0</course>
<desc>Speed 20.5 km/h Distance 0.21 km</desc>
<time>2010-06-13T06:02:27.88</time>
<name>72</name>
</trkpt>
<trkpt lat="49.153672" lon="11.749528">
<ele>516.5</ele>
<speed>20.7</speed>
<course>186.1</course>
<desc>Speed 20.7 km/h Distance 0.22 km</desc>
<time>2010-06-13T06:02:28.89</time>
<name>73</name>
</trkpt>
<trkpt lat="49.153560" lon="11.749510">
<ele>516.9</ele>
<speed>21.6</speed>
<course>186.4</course>
<desc>Speed 21.6 km/h Distance 0.23 km</desc>
<time>2010-06-13T06:02:30.89</time>
<name>74</name>
</trkpt>
<trkpt lat="49.153443" lon="11.749490">
<ele>517.8</ele>
<speed>22.1</speed>
<course>189.4</course>
<desc>Speed 22.1 km/h Distance 0.24 km</desc>
<time>2010-06-13T06:02:32.89</time>
<name>75</name>
</trkpt>
<trkpt lat="49.153325" lon="11.749460">
<ele>519.8</ele>
<speed>21.6</speed>
<course>184.9</course>
<desc>Speed 21.6 km/h Distance 0.25 km</desc>
<time>2010-06-13T06:02:34.89</time>
<name>76</name>
</trkpt>
<trkpt lat="49.153210" lon="11.749445">
<ele>520.7</ele>
<speed>21.7</speed>
<course>191.3</course>
<desc>Speed 21.7 km/h Distance 0.27 km</desc>
<time>2010-06-13T06:02:36.89</time>
<name>77</name>
</trkpt>
<trkpt lat="49.153095" lon="11.749410">
<ele>521.9</ele>
<speed>20.1</speed>
<course>188.8</course>
<desc>Speed 20.1 km/h Distance 0.28 km</desc>
<time>2010-06-13T06:02:38.90</time>
<name>78</name>
</trkpt>
<trkpt lat="49.153038" lon="11.749397">
<ele>521.3</ele>
<speed>18.5</speed>
<course>197.4</course>
<desc>Speed 18.5 km/h Distance 0.29 km</desc>
<time>2010-06-13T06:02:40.39</time>
<name>79</name>
</trkpt>
<trkpt lat="49.152955" lon="11.749357">
<ele>522.6</ele>
<speed>16.5</speed>
<course>207.1</course>
<desc>Speed 16.5 km/h Distance 0.30 km</desc>
<time>2010-06-13T06:02:41.88</time>
<name>80</name>
</trkpt>
<trkpt lat="49.152917" lon="11.749327">
<ele>524.0</ele>
<speed>15.8</speed>
<course>195.5</course>
<desc>Speed 15.8 km/h Distance 0.30 km</desc>
<time>2010-06-13T06:02:42.88</time>
<name>81</name>
</trkpt>
<trkpt lat="49.152873" lon="11.749308">
<ele>523.8</ele>
<speed>15.7</speed>
<course>198.1</course>
<desc>Speed 15.7 km/h Distance 0.31 km</desc>
<time>2010-06-13T06:02:43.88</time>
<name>82</name>
</trkpt>
<trkpt lat="49.152833" lon="11.749288">
<ele>523.2</ele>
<speed>16.2</speed>
<course>203.1</course>
<desc>Speed 16.2 km/h Distance 0.31 km</desc>
<time>2010-06-13T06:02:44.88</time>
<name>83</name>
</trkpt>
<trkpt lat="49.152795" lon="11.749263">
<ele>523.0</ele>
<speed>16.2</speed>
<course>200.8</course>
<desc>Speed 16.2 km/h Distance 0.32 km</desc>
<time>2010-06-13T06:02:45.89</time>
<name>84</name>
</trkpt>
<trkpt lat="49.152755" lon="11.749240">
<ele>522.4</ele>
<speed>16.2</speed>
<course>208.4</course>
<desc>Speed 16.2 km/h Distance 0.32 km</desc>
<time>2010-06-13T06:02:47.39</time>
<name>85</name>
</trkpt>
<trkpt lat="49.152678" lon="11.749177">
<ele>522.0</ele>
<speed>16.3</speed>
<course>218.1</course>
<desc>Speed 16.3 km/h Distance 0.33 km</desc>
<time>2010-06-13T06:02:48.88</time>
<name>86</name>
</trkpt>
<trkpt lat="49.152645" lon="11.749137">
<ele>522.1</ele>
<speed>16.3</speed>
<course>210.7</course>
<desc>Speed 16.3 km/h Distance 0.33 km</desc>
<time>2010-06-13T06:02:49.87</time>
<name>87</name>
</trkpt>
<trkpt lat="49.152608" lon="11.749103">
<ele>522.0</ele>
<speed>16.6</speed>
<course>211.9</course>
<desc>Speed 16.6 km/h Distance 0.34 km</desc>
<time>2010-06-13T06:02:50.88</time>
<name>88</name>
</trkpt>
<trkpt lat="49.152573" lon="11.749070">
<ele>521.9</ele>
<speed>16.3</speed>
<course>225.1</course>
<desc>Speed 16.3 km/h Distance 0.34 km</desc>
<time>2010-06-13T06:02:51.88</time>
<name>89</name>
</trkpt>
<trkpt lat="49.152527" lon="11.748998">
<ele>523.8</ele>
<speed>17.6</speed>
<course>218.5</course>
<desc>Speed 17.6 km/h Distance 0.35 km</desc>
<time>2010-06-13T06:02:53.39</time>
<name>90</name>
</trkpt>
<trkpt lat="49.152450" lon="11.748905">
<ele>524.7</ele>
<speed>16.8</speed>
<course>220.8</course>
<desc>Speed 16.8 km/h Distance 0.36 km</desc>
<time>2010-06-13T06:02:54.87</time>
<name>91</name>
</trkpt>
<trkpt lat="49.152413" lon="11.748857">
<ele>525.4</ele>
<speed>16.6</speed>
<course>222.7</course>
<desc>Speed 16.6 km/h Distance 0.37 km</desc>
<time>2010-06-13T06:02:55.87</time>
<name>92</name>
</trkpt>
<trkpt lat="49.152377" lon="11.748805">
<ele>526.4</ele>
<speed>16.8</speed>
<course>225.3</course>
<desc>Speed 16.8 km/h Distance 0.37 km</desc>
<time>2010-06-13T06:02:56.88</time>
<name>93</name>
</trkpt>
<trkpt lat="49.152340" lon="11.748748">
<ele>527.7</ele>
<speed>17.5</speed>
<course>224.5</course>
<desc>Speed 17.5 km/h Distance 0.38 km</desc>
<time>2010-06-13T06:02:57.89</time>
<name>94</name>
</trkpt>
<trkpt lat="49.152270" lon="11.748643">
<ele>529.9</ele>
<speed>17.1</speed>
<course>221.1</course>
<desc>Speed 17.1 km/h Distance 0.39 km</desc>
<time>2010-06-13T06:02:59.87</time>
<name>95</name>
</trkpt>
<trkpt lat="49.152240" lon="11.748603">
<ele>530.1</ele>
<speed>16.3</speed>
<course>218.1</course>
<desc>Speed 16.3 km/h Distance 0.39 km</desc>
<time>2010-06-13T06:03:00.88</time>
<name>96</name>
</trkpt>
<trkpt lat="49.152207" lon="11.748563">
<ele>530.6</ele>
<speed>15.7</speed>
<course>218.4</course>
<desc>Speed 15.7 km/h Distance 0.40 km</desc>
<time>2010-06-13T06:03:01.88</time>
<name>97</name>
</trkpt>
<trkpt lat="49.152175" lon="11.748525">
<ele>531.1</ele>
<speed>15.4</speed>
<course>213.2</course>
<desc>Speed 15.4 km/h Distance 0.40 km</desc>
<time>2010-06-13T06:03:02.87</time>
<name>98</name>
</trkpt>
<trkpt lat="49.152145" lon="11.748495">
<ele>531.1</ele>
<speed>15.8</speed>
<course>217.1</course>
<desc>Speed 15.8 km/h Distance 0.41 km</desc>
<time>2010-06-13T06:03:03.88</time>
<name>99</name>
</trkpt>
<trkpt lat="49.152113" lon="11.748458">
<ele>531.3</ele>
<speed>15.6</speed>
<course>214.6</course>
<desc>Speed 15.6 km/h Distance 0.41 km</desc>
<time>2010-06-13T06:03:04.87</time>
<name>100</name>
</trkpt>
<trkpt lat="49.152082" lon="11.748425">
<ele>531.3</ele>
<speed>15.5</speed>
<course>211.8</course>
<desc>Speed 15.5 km/h Distance 0.42 km</desc>
<time>2010-06-13T06:03:05.88</time>
<name>101</name>
</trkpt>
<trkpt lat="49.152048" lon="11.748393">
<ele>531.3</ele>
<speed>15.6</speed>
<course>213.2</course>
<desc>Speed 15.6 km/h Distance 0.42 km</desc>
<time>2010-06-13T06:03:06.88</time>
<name>102</name>
</trkpt>
<trkpt lat="49.152017" lon="11.748362">
<ele>531.2</ele>
<speed>15.9</speed>
<course>211.8</course>
<desc>Speed 15.9 km/h Distance 0.42 km</desc>
<time>2010-06-13T06:03:07.88</time>
<name>103</name>
</trkpt>
<trkpt lat="49.151985" lon="11.748332">
<ele>530.9</ele>
<speed>15.2</speed>
<course>210.2</course>
<desc>Speed 15.2 km/h Distance 0.43 km</desc>
<time>2010-06-13T06:03:08.88</time>
<name>104</name>
</trkpt>
<trkpt lat="49.151955" lon="11.748305">
<ele>530.5</ele>
<speed>14.9</speed>
<course>213.2</course>
<desc>Speed 14.9 km/h Distance 0.43 km</desc>
<time>2010-06-13T06:03:09.89</time>
<name>105</name>
</trkpt>
<trkpt lat="49.151893" lon="11.748243">
<ele>530.3</ele>
<speed>14.3</speed>
<course>211.7</course>
<desc>Speed 14.3 km/h Distance 0.44 km</desc>
<time>2010-06-13T06:03:11.88</time>
<name>106</name>
</trkpt>
<trkpt lat="49.151863" lon="11.748215">
<ele>530.4</ele>
<speed>13.6</speed>
<course>203.2</course>
<desc>Speed 13.6 km/h Distance 0.44 km</desc>
<time>2010-06-13T06:03:12.89</time>
<name>107</name>
</trkpt>
<trkpt lat="49.151810" lon="11.748180">
<ele>529.4</ele>
<speed>13.4</speed>
<course>204.9</course>
<desc>Speed 13.4 km/h Distance 0.45 km</desc>
<time>2010-06-13T06:03:14.89</time>
<name>108</name>
</trkpt>
<trkpt lat="49.151747" lon="11.748135">
<ele>529.7</ele>
<speed>12.9</speed>
<course>201.0</course>
<desc>Speed 12.9 km/h Distance 0.46 km</desc>
<time>2010-06-13T06:03:16.90</time>
<name>109</name>
</trkpt>
<trkpt lat="49.151690" lon="11.748102">
<ele>529.9</ele>
<speed>11.0</speed>
<course>197.1</course>
<desc>Speed 11.0 km/h Distance 0.47 km</desc>
<time>2010-06-13T06:03:18.88</time>
<name>110</name>
</trkpt>
<trkpt lat="49.151662" lon="11.748088">
<ele>530.4</ele>
<speed>12.1</speed>
<course>195.6</course>
<desc>Speed 12.1 km/h Distance 0.47 km</desc>
<time>2010-06-13T06:03:19.88</time>
<name>111</name>
</trkpt>
<trkpt lat="49.151638" lon="11.748078">
<ele>530.5</ele>
<speed>11.4</speed>
<course>193.0</course>
<desc>Speed 11.4 km/h Distance 0.47 km</desc>
<time>2010-06-13T06:03:20.88</time>
<name>112</name>
</trkpt>
<trkpt lat="49.151610" lon="11.748068">
<ele>530.8</ele>
<speed>11.2</speed>
<course>186.6</course>
<desc>Speed 11.2 km/h Distance 0.48 km</desc>
<time>2010-06-13T06:03:21.88</time>
<name>113</name>
</trkpt>
<trkpt lat="49.151582" lon="11.748063">
<ele>531.1</ele>
<speed>11.3</speed>
<course>190.4</course>
<desc>Speed 11.3 km/h Distance 0.48 km</desc>
<time>2010-06-13T06:03:22.88</time>
<name>114</name>
</trkpt>
<trkpt lat="49.151552" lon="11.748055">
<ele>531.4</ele>
<speed>12.3</speed>
<course>196.3</course>
<desc>Speed 12.3 km/h Distance 0.48 km</desc>
<time>2010-06-13T06:03:23.87</time>
<name>115</name>
</trkpt>
<trkpt lat="49.151522" lon="11.748042">
<ele>531.7</ele>
<speed>12.5</speed>
<course>200.1</course>
<desc>Speed 12.5 km/h Distance 0.49 km</desc>
<time>2010-06-13T06:03:24.89</time>
<name>116</name>
</trkpt>
<trkpt lat="49.151465" lon="11.748010">
<ele>531.7</ele>
<speed>12.3</speed>
<course>208.3</course>
<desc>Speed 12.3 km/h Distance 0.49 km</desc>
<time>2010-06-13T06:03:26.88</time>
<name>117</name>
</trkpt>
<trkpt lat="49.151437" lon="11.747987">
<ele>532.2</ele>
<speed>12.2</speed>
<course>213.2</course>
<desc>Speed 12.2 km/h Distance 0.50 km</desc>
<time>2010-06-13T06:03:27.88</time>
<name>118</name>
</trkpt>
<trkpt lat="49.151412" lon="11.747962">
<ele>532.2</ele>
<speed>12.0</speed>
<course>203.6</course>
<desc>Speed 12.0 km/h Distance 0.50 km</desc>
<time>2010-06-13T06:03:28.89</time>
<name>119</name>
</trkpt>
<trkpt lat="49.151382" lon="11.747942">
<ele>532.3</ele>
<speed>11.4</speed>
<course>224.5</course>
<desc>Speed 11.4 km/h Distance 0.50 km</desc>
<time>2010-06-13T06:03:29.88</time>
<name>120</name>
</trkpt>
<trkpt lat="49.151362" lon="11.747912">
<ele>532.1</ele>
<speed>10.8</speed>
<course>237.2</course>
<desc>Speed 10.8 km/h Distance 0.51 km</desc>
<time>2010-06-13T06:03:30.89</time>
<name>121</name>
</trkpt>
<trkpt lat="49.151335" lon="11.747848">
<ele>533.0</ele>
<speed>10.1</speed>
<course>264.0</course>
<desc>Speed 10.1 km/h Distance 0.51 km</desc>
<time>2010-06-13T06:03:32.88</time>
<name>122</name>
</trkpt>
<trkpt lat="49.151332" lon="11.747800">
<ele>533.7</ele>
<speed>10.3</speed>
<course>266.2</course>
<desc>Speed 10.3 km/h Distance 0.51 km</desc>
<time>2010-06-13T06:03:33.88</time>
<name>123</name>
</trkpt>
<trkpt lat="49.151330" lon="11.747762">
<ele>534.2</ele>
<speed>11.1</speed>
<course>262.4</course>
<desc>Speed 11.1 km/h Distance 0.52 km</desc>
<time>2010-06-13T06:03:34.88</time>
<name>124</name>
</trkpt>
<trkpt lat="49.151327" lon="11.747723">
<ele>535.0</ele>
<speed>11.4</speed>
<course>259.2</course>
<desc>Speed 11.4 km/h Distance 0.52 km</desc>
<time>2010-06-13T06:03:35.87</time>
<name>125</name>
</trkpt>
<trkpt lat="49.151322" lon="11.747683">
<ele>535.5</ele>
<speed>10.9</speed>
<course>270.0</course>
<desc>Speed 10.9 km/h Distance 0.52 km</desc>
<time>2010-06-13T06:03:36.87</time>
<name>126</name>
</trkpt>
<trkpt lat="49.151322" lon="11.747638">
<ele>536.2</ele>
<speed>12.0</speed>
<course>280.2</course>
<desc>Speed 12.0 km/h Distance 0.53 km</desc>
<time>2010-06-13T06:03:37.89</time>
<name>127</name>
</trkpt>
<trkpt lat="49.151328" lon="11.747582">
<ele>536.1</ele>
<speed>12.3</speed>
<course>282.3</course>
<desc>Speed 12.3 km/h Distance 0.53 km</desc>
<time>2010-06-13T06:03:39.39</time>
<name>128</name>
</trkpt>
<trkpt lat="49.151343" lon="11.747477">
<ele>536.0</ele>
<speed>12.1</speed>
<course>280.0</course>
<desc>Speed 12.1 km/h Distance 0.54 km</desc>
<time>2010-06-13T06:03:40.88</time>
<name>129</name>
</trkpt>
<trkpt lat="49.151348" lon="11.747433">
<ele>535.9</ele>
<speed>12.6</speed>
<course>270.0</course>
<desc>Speed 12.6 km/h Distance 0.54 km</desc>
<time>2010-06-13T06:03:41.88</time>
<name>130</name>
</trkpt>
<trkpt lat="49.151348" lon="11.747380">
<ele>536.5</ele>
<speed>12.5</speed>
<course>278.6</course>
<desc>Speed 12.5 km/h Distance 0.55 km</desc>
<time>2010-06-13T06:03:42.90</time>
<name>131</name>
</trkpt>
<trkpt lat="49.151360" lon="11.747262">
<ele>535.6</ele>
<speed>12.7</speed>
<course>281.9</course>
<desc>Speed 12.7 km/h Distance 0.55 km</desc>
<time>2010-06-13T06:03:44.88</time>
<name>132</name>
</trkpt>
<trkpt lat="49.151367" lon="11.747213">
<ele>536.1</ele>
<speed>13.4</speed>
<course>284.8</course>
<desc>Speed 13.4 km/h Distance 0.56 km</desc>
<time>2010-06-13T06:03:45.88</time>
<name>133</name>
</trkpt>
<trkpt lat="49.151375" lon="11.747165">
<ele>536.4</ele>
<speed>12.6</speed>
<course>272.5</course>
<desc>Speed 12.6 km/h Distance 0.56 km</desc>
<time>2010-06-13T06:03:46.88</time>
<name>134</name>
</trkpt>
<trkpt lat="49.151377" lon="11.747107">
<ele>536.4</ele>
<speed>12.6</speed>
<course>278.7</course>
<desc>Speed 12.6 km/h Distance 0.57 km</desc>
<time>2010-06-13T06:03:47.89</time>
<name>135</name>
</trkpt>
<trkpt lat="49.151383" lon="11.747040">
<ele>535.5</ele>
<speed>12.5</speed>
<course>275.6</course>
<desc>Speed 12.5 km/h Distance 0.57 km</desc>
<time>2010-06-13T06:03:49.39</time>
<name>136</name>
</trkpt>
<trkpt lat="49.151387" lon="11.746988">
<ele>535.2</ele>
<speed>12.4</speed>
<course>289.2</course>
<desc>Speed 12.4 km/h Distance 0.57 km</desc>
<time>2010-06-13T06:03:50.39</time>
<name>137</name>
</trkpt>
<trkpt lat="49.151395" lon="11.746952">
<ele>535.0</ele>
<speed>11.7</speed>
<course>295.5</course>
<desc>Speed 11.7 km/h Distance 0.58 km</desc>
<time>2010-06-13T06:03:51.39</time>
<name>138</name>
</trkpt>
<trkpt lat="49.151412" lon="11.746898">
<ele>534.1</ele>
<speed>12.6</speed>
<course>317.1</course>
<desc>Speed 12.6 km/h Distance 0.58 km</desc>
<time>2010-06-13T06:03:52.39</time>
<name>139</name>
</trkpt>
<trkpt lat="49.151463" lon="11.746825">
<ele>533.6</ele>
<speed>11.6</speed>
<course>324.5</course>
<desc>Speed 11.6 km/h Distance 0.59 km</desc>
<time>2010-06-13T06:03:53.89</time>
<name>140</name>
</trkpt>
<trkpt lat="49.151482" lon="11.746805">
<ele>533.0</ele>
<speed>9.4</speed>
<course>324.7</course>
<desc>Speed 9.4 km/h Distance 0.59 km</desc>
<time>2010-06-13T06:03:54.87</time>
<name>141</name>
</trkpt>
<trkpt lat="49.151502" lon="11.746783">
<ele>532.3</ele>
<speed>8.5</speed>
<course>320.1</course>
<desc>Speed 8.5 km/h Distance 0.59 km</desc>
<time>2010-06-13T06:03:55.89</time>
<name>142</name>
</trkpt>
<trkpt lat="49.151532" lon="11.746745">
<ele>532.2</ele>
<speed>6.9</speed>
<course>279.0</course>
<desc>Speed 6.9 km/h Distance 0.60 km</desc>
<time>2010-06-13T06:03:57.89</time>
<name>143</name>
</trkpt>
<trkpt lat="49.151537" lon="11.746697">
<ele>532.4</ele>
<speed>7.8</speed>
<course>276.7</course>
<desc>Speed 7.8 km/h Distance 0.60 km</desc>
<time>2010-06-13T06:03:59.89</time>
<name>144</name>
</trkpt>
<trkpt lat="49.151538" lon="11.746675">
<ele>533.5</ele>
<speed>7.8</speed>
<course>256.8</course>
<desc>Speed 7.8 km/h Distance 0.60 km</desc>
<time>2010-06-13T06:04:00.88</time>
<name>145</name>
</trkpt>
<trkpt lat="49.151535" lon="11.746653">
<ele>534.1</ele>
<speed>7.1</speed>
<course>270.0</course>
<desc>Speed 7.1 km/h Distance 0.61 km</desc>
<time>2010-06-13T06:04:01.87</time>
<name>146</name>
</trkpt>
<trkpt lat="49.151535" lon="11.746620">
<ele>534.1</ele>
<speed>6.1</speed>
<course>283.2</course>
<desc>Speed 6.1 km/h Distance 0.61 km</desc>
<time>2010-06-13T06:04:02.88</time>
<name>147</name>
</trkpt>
<trkpt lat="49.151538" lon="11.746598">
<ele>534.5</ele>
<speed>4.5</speed>
<course>270.0</course>
<desc>Speed 4.5 km/h Distance 0.61 km</desc>
<time>2010-06-13T06:04:03.89</time>
<name>148</name>
</trkpt>
<trkpt lat="49.151538" lon="11.746578">
<ele>535.3</ele>
<speed>3.7</speed>
<course>259.2</course>
<desc>Speed 3.7 km/h Distance 0.61 km</desc>
<time>2010-06-13T06:04:04.88</time>
<name>149</name>
</trkpt>
<trkpt lat="49.151537" lon="11.746565">
<ele>536.9</ele>
<speed>4.3</speed>
<course>275.8</course>
<desc>Speed 4.3 km/h Distance 0.61 km</desc>
<time>2010-06-13T06:04:05.88</time>
<name>150</name>
</trkpt>
<trkpt lat="49.151538" lon="11.746540">
<ele>537.8</ele>
<speed>5.0</speed>
<course>281.2</course>
<desc>Speed 5.0 km/h Distance 0.61 km</desc>
<time>2010-06-13T06:04:06.90</time>
<name>151</name>
</trkpt>
<trkpt lat="49.151545" lon="11.746488">
<ele>539.6</ele>
<speed>6.2</speed>
<course>303.3</course>
<desc>Speed 6.2 km/h Distance 0.62 km</desc>
<time>2010-06-13T06:04:08.87</time>
<name>152</name>
</trkpt>
<trkpt lat="49.151550" lon="11.746477">
<ele>539.5</ele>
<speed>5.2</speed>
<course>287.0</course>
<desc>Speed 5.2 km/h Distance 0.62 km</desc>
<time>2010-06-13T06:04:09.87</time>
<name>153</name>
</trkpt>
<trkpt lat="49.151557" lon="11.746443">
<ele>539.3</ele>
<speed>4.9</speed>
<course>289.4</course>
<desc>Speed 4.9 km/h Distance 0.62 km</desc>
<time>2010-06-13T06:04:10.89</time>
<name>154</name>
</trkpt>
<trkpt lat="49.151562" lon="11.746422">
<ele>539.1</ele>
<speed>4.6</speed>
<course>300.5</course>
<desc>Speed 4.6 km/h Distance 0.62 km</desc>
<time>2010-06-13T06:04:11.89</time>
<name>155</name>
</trkpt>
<trkpt lat="49.151578" lon="11.746378">
<ele>539.3</ele>
<speed>4.2</speed>
<course>297.0</course>
<desc>Speed 4.2 km/h Distance 0.63 km</desc>
<time>2010-06-13T06:04:13.88</time>
<name>156</name>
</trkpt>
<trkpt lat="49.151588" lon="11.746348">
<ele>538.9</ele>
<speed>4.6</speed>
<course>301.4</course>
<desc>Speed 4.6 km/h Distance 0.63 km</desc>
<time>2010-06-13T06:04:14.88</time>
<name>157</name>
</trkpt>
<trkpt lat="49.151598" lon="11.746323">
<ele>538.2</ele>
<speed>4.7</speed>
<course>323.6</course>
<desc>Speed 4.7 km/h Distance 0.63 km</desc>
<time>2010-06-13T06:04:15.88</time>
<name>158</name>
</trkpt>
<trkpt lat="49.151612" lon="11.746308">
<ele>537.1</ele>
<speed>5.7</speed>
<course>334.5</course>
<desc>Speed 5.7 km/h Distance 0.63 km</desc>
<time>2010-06-13T06:04:16.87</time>
<name>159</name>
</trkpt>
<trkpt lat="49.151630" lon="11.746295">
<ele>536.0</ele>
<speed>4.8</speed>
<course>307.4</course>
<desc>Speed 4.8 km/h Distance 0.64 km</desc>
<time>2010-06-13T06:04:17.89</time>
<name>160</name>
</trkpt>
<trkpt lat="49.151648" lon="11.746258">
<ele>535.6</ele>
<speed>4.8</speed>
<course>346.8</course>
<desc>Speed 4.8 km/h Distance 0.64 km</desc>
<time>2010-06-13T06:04:19.89</time>
<name>161</name>
</trkpt>
<trkpt lat="49.151672" lon="11.746250">
<ele>538.3</ele>
<speed>3.5</speed>
<course>346.8</course>
<desc>Speed 3.5 km/h Distance 0.64 km</desc>
<time>2010-06-13T06:04:21.89</time>
<name>162</name>
</trkpt>
<trkpt lat="49.151672" lon="11.746250">
<ele>538.3</ele>
<speed>3.5</speed>
<course>342.3</course>
<desc>Speed 3.5 km/h Distance 0.64 km</desc>
<time>2010-06-13T06:04:22.39</time>
<name>163</name>
</trkpt>
<trkpt lat="49.151688" lon="11.746242">
<ele>540.1</ele>
<speed>4.4</speed>
<course>351.0</course>
<desc>Speed 4.4 km/h Distance 0.64 km</desc>
<time>2010-06-13T06:04:23.88</time>
<name>164</name>
</trkpt>
<trkpt lat="49.151702" lon="11.746238">
<ele>540.5</ele>
<speed>4.8</speed>
<course>318.8</course>
<desc>Speed 4.8 km/h Distance 0.64 km</desc>
<time>2010-06-13T06:04:24.89</time>
<name>165</name>
</trkpt>
<trkpt lat="49.151712" lon="11.746225">
<ele>540.9</ele>
<speed>3.7</speed>
<course>312.6</course>
<desc>Speed 3.7 km/h Distance 0.65 km</desc>
<time>2010-06-13T06:04:25.87</time>
<name>166</name>
</trkpt>
<trkpt lat="49.151722" lon="11.746208">
<ele>540.6</ele>
<speed>3.6</speed>
<course>353.5</course>
<desc>Speed 3.6 km/h Distance 0.65 km</desc>
<time>2010-06-13T06:04:26.88</time>
<name>167</name>
</trkpt>
<trkpt lat="49.151740" lon="11.746205">
<ele>541.5</ele>
<speed>4.4</speed>
<course>351.0</course>
<desc>Speed 4.4 km/h Distance 0.65 km</desc>
<time>2010-06-13T06:04:27.89</time>
<name>168</name>
</trkpt>
<trkpt lat="49.151753" lon="11.746202">
<ele>542.5</ele>
<speed>6.3</speed>
<course>334.5</course>
<desc>Speed 6.3 km/h Distance 0.65 km</desc>
<time>2010-06-13T06:04:28.89</time>
<name>169</name>
</trkpt>
<trkpt lat="49.151772" lon="11.746188">
<ele>542.7</ele>
<speed>5.7</speed>
<course>326.9</course>
<desc>Speed 5.7 km/h Distance 0.65 km</desc>
<time>2010-06-13T06:04:29.88</time>
<name>170</name>
</trkpt>
<trkpt lat="49.151787" lon="11.746173">
<ele>542.5</ele>
<speed>4.8</speed>
<course>330.2</course>
<desc>Speed 4.8 km/h Distance 0.66 km</desc>
<time>2010-06-13T06:04:30.87</time>
<name>171</name>
</trkpt>
<trkpt lat="49.151800" lon="11.746162">
<ele>542.2</ele>
<speed>4.3</speed>
<course>0.8</course>
<desc>Speed 4.3 km/h Distance 0.66 km</desc>
<time>2010-06-13T06:04:31.89</time>
<name>172</name>
</trkpt>
<trkpt lat="49.151862" lon="11.746163">
<ele>549.3</ele>
<speed>5.4</speed>
<course>354.7</course>
<desc>Speed 5.4 km/h Distance 0.66 km</desc>
<time>2010-06-13T06:04:33.88</time>
<name>173</name>
</trkpt>
<trkpt lat="49.151875" lon="11.746162">
<ele>551.4</ele>
<speed>3.4</speed>
<course>18.1</course>
<desc>Speed 3.4 km/h Distance 0.67 km</desc>
<time>2010-06-13T06:04:34.89</time>
<name>174</name>
</trkpt>
<trkpt lat="49.151888" lon="11.746168">
<ele>553.1</ele>
<speed>3.7</speed>
<course>10.6</course>
<desc>Speed 3.7 km/h Distance 0.67 km</desc>
<time>2010-06-13T06:04:35.88</time>
<name>175</name>
</trkpt>
<trkpt lat="49.151898" lon="11.746172">
<ele>553.5</ele>
<speed>2.7</speed>
<course>29.8</course>
<desc>Speed 2.7 km/h Distance 0.67 km</desc>
<time>2010-06-13T06:04:36.88</time>
<name>176</name>
</trkpt>
<trkpt lat="49.151938" lon="11.746207">
<ele>557.7</ele>
<speed>1.5</speed>
<course>33.4</course>
<desc>Speed 1.5 km/h Distance 0.67 km</desc>
<time>2010-06-13T06:04:38.88</time>
<name>177</name>
</trkpt>
<trkpt lat="49.151950" lon="11.746218">
<ele>559.1</ele>
<speed>0.3</speed>
<course>44.5</course>
<desc>Speed 0.3 km/h Distance 0.68 km</desc>
<time>2010-06-13T06:04:39.88</time>
<name>178</name>
</trkpt>
<trkpt lat="49.151953" lon="11.746223">
<ele>560.5</ele>
<speed>1.4</speed>
<course>4.4</course>
<desc>Speed 1.4 km/h Distance 0.68 km</desc>
<time>2010-06-13T06:04:40.89</time>
<name>179</name>
</trkpt>
<trkpt lat="49.151963" lon="11.746223">
<ele>561.6</ele>
<speed>2.6</speed>
<course>354.7</course>
<desc>Speed 2.6 km/h Distance 0.68 km</desc>
<time>2010-06-13T06:04:41.88</time>
<name>180</name>
</trkpt>
<trkpt lat="49.151977" lon="11.746222">
<ele>562.9</ele>
<speed>2.8</speed>
<course>344.7</course>
<desc>Speed 2.8 km/h Distance 0.68 km</desc>
<time>2010-06-13T06:04:42.87</time>
<name>181</name>
</trkpt>
<trkpt lat="49.151997" lon="11.746213">
<ele>564.5</ele>
<speed>2.4</speed>
<course>302.5</course>
<desc>Speed 2.4 km/h Distance 0.68 km</desc>
<time>2010-06-13T06:04:43.88</time>
<name>182</name>
</trkpt>
<trkpt lat="49.152005" lon="11.746193">
<ele>564.5</ele>
<speed>1.1</speed>
<course>294.6</course>
<desc>Speed 1.1 km/h Distance 0.68 km</desc>
<time>2010-06-13T06:04:44.87</time>
<name>183</name>
</trkpt>
<trkpt lat="49.152010" lon="11.746177">
<ele>565.3</ele>
<speed>2.8</speed>
<course>240.2</course>
<desc>Speed 2.8 km/h Distance 0.68 km</desc>
<time>2010-06-13T06:04:45.88</time>
<name>184</name>
</trkpt>
<trkpt lat="49.152000" lon="11.746150">
<ele>566.0</ele>
<speed>4.4</speed>
<course>302.5</course>
<desc>Speed 4.4 km/h Distance 0.69 km</desc>
<time>2010-06-13T06:04:46.88</time>
<name>185</name>
</trkpt>
<trkpt lat="49.152008" lon="11.746130">
<ele>565.5</ele>
<speed>4.3</speed>
<course>5.0</course>
<desc>Speed 4.3 km/h Distance 0.69 km</desc>
<time>2010-06-13T06:04:47.87</time>
<name>186</name>
</trkpt>
<trkpt lat="49.152017" lon="11.746130">
<ele>567.0</ele>
<speed>2.9</speed>
<course>288.7</course>
<desc>Speed 2.9 km/h Distance 0.69 km</desc>
<time>2010-06-13T06:04:48.88</time>
<name>187</name>
</trkpt>
<trkpt lat="49.152020" lon="11.746115">
<ele>568.2</ele>
<speed>4.2</speed>
<course>270.0</course>
<desc>Speed 4.2 km/h Distance 0.69 km</desc>
<time>2010-06-13T06:04:49.88</time>
<name>188</name>
</trkpt>
<trkpt lat="49.152020" lon="11.746077">
<ele>567.5</ele>
<speed>5.2</speed>
<course>259.2</course>
<desc>Speed 5.2 km/h Distance 0.69 km</desc>
<time>2010-06-13T06:04:50.89</time>
<name>189</name>
</trkpt>
<trkpt lat="49.152013" lon="11.746023">
<ele>567.7</ele>
<speed>3.3</speed>
<course>270.0</course>
<desc>Speed 3.3 km/h Distance 0.70 km</desc>
<time>2010-06-13T06:04:52.88</time>
<name>190</name>
</trkpt>
<trkpt lat="49.152013" lon="11.746005">
<ele>567.8</ele>
<speed>3.7</speed>
<course>250.2</course>
<desc>Speed 3.7 km/h Distance 0.70 km</desc>
<time>2010-06-13T06:04:53.87</time>
<name>191</name>
</trkpt>
<trkpt lat="49.152007" lon="11.745977">
<ele>567.8</ele>
<speed>4.2</speed>
<course>270.0</course>
<desc>Speed 4.2 km/h Distance 0.70 km</desc>
<time>2010-06-13T06:04:54.89</time>
<name>192</name>
</trkpt>
<trkpt lat="49.152007" lon="11.745912">
<ele>568.4</ele>
<speed>3.6</speed>
<course>286.0</course>
<desc>Speed 3.6 km/h Distance 0.70 km</desc>
<time>2010-06-13T06:04:56.89</time>
<name>193</name>
</trkpt>
<trkpt lat="49.152012" lon="11.745885">
<ele>569.4</ele>
<speed>3.7</speed>
<course>285.5</course>
<desc>Speed 3.7 km/h Distance 0.71 km</desc>
<time>2010-06-13T06:04:57.89</time>
<name>194</name>
</trkpt>
<trkpt lat="49.152022" lon="11.745830">
<ele>568.6</ele>
<speed>2.9</speed>
<course>264.2</course>
<desc>Speed 2.9 km/h Distance 0.71 km</desc>
<time>2010-06-13T06:04:59.88</time>
<name>195</name>
</trkpt>
<trkpt lat="49.152020" lon="11.745805">
<ele>568.8</ele>
<speed>3.2</speed>
<course>280.0</course>
<desc>Speed 3.2 km/h Distance 0.71 km</desc>
<time>2010-06-13T06:05:00.87</time>
<name>196</name>
</trkpt>
<trkpt lat="49.152030" lon="11.745718">
<ele>566.8</ele>
<speed>6.1</speed>
<course>303.3</course>
<desc>Speed 6.1 km/h Distance 0.72 km</desc>
<time>2010-06-13T06:05:02.87</time>
<name>197</name>
</trkpt>
<trkpt lat="49.152040" lon="11.745695">
<ele>565.7</ele>
<speed>4.9</speed>
<course>264.2</course>
<desc>Speed 4.9 km/h Distance 0.72 km</desc>
<time>2010-06-13T06:05:03.87</time>
<name>198</name>
</trkpt>
<trkpt lat="49.152038" lon="11.745670">
<ele>564.5</ele>
<speed>2.8</speed>
<course>300.7</course>
<desc>Speed 2.8 km/h Distance 0.72 km</desc>
<time>2010-06-13T06:05:04.87</time>
<name>199</name>
</trkpt>
<trkpt lat="49.152050" lon="11.745640">
<ele>563.3</ele>
<speed>3.1</speed>
<course>292.2</course>
<desc>Speed 3.1 km/h Distance 0.73 km</desc>
<time>2010-06-13T06:05:05.87</time>
<name>200</name>
</trkpt>
<trkpt lat="49.152057" lon="11.745615">
<ele>563.5</ele>
<speed>2.8</speed>
<course>291.9</course>
<desc>Speed 2.8 km/h Distance 0.73 km</desc>
<time>2010-06-13T06:05:06.88</time>
<name>201</name>
</trkpt>
<trkpt lat="49.152065" lon="11.745583">
<ele>562.3</ele>
<speed>2.9</speed>
<course>285.6</course>
<desc>Speed 2.9 km/h Distance 0.73 km</desc>
<time>2010-06-13T06:05:07.87</time>
<name>202</name>
</trkpt>
<trkpt lat="49.152068" lon="11.745565">
<ele>561.9</ele>
<speed>2.9</speed>
<course>298.6</course>
<desc>Speed 2.9 km/h Distance 0.73 km</desc>
<time>2010-06-13T06:05:08.89</time>
<name>203</name>
</trkpt>
<trkpt lat="49.152077" lon="11.745542">
<ele>563.1</ele>
<speed>3.5</speed>
<course>294.2</course>
<desc>Speed 3.5 km/h Distance 0.73 km</desc>
<time>2010-06-13T06:05:09.88</time>
<name>204</name>
</trkpt>
<trkpt lat="49.152085" lon="11.745513">
<ele>562.9</ele>
<speed>4.2</speed>
<course>270.0</course>
<desc>Speed 4.2 km/h Distance 0.74 km</desc>
<time>2010-06-13T06:05:10.87</time>
<name>205</name>
</trkpt>
<trkpt lat="49.152085" lon="11.745482">
<ele>563.2</ele>
<speed>5.2</speed>
<course>270.0</course>
<desc>Speed 5.2 km/h Distance 0.74 km</desc>
<time>2010-06-13T06:05:11.87</time>
<name>206</name>
</trkpt>
<trkpt lat="49.152085" lon="11.745450">
<ele>563.8</ele>
<speed>5.5</speed>
<course>270.0</course>
<desc>Speed 5.5 km/h Distance 0.74 km</desc>
<time>2010-06-13T06:05:12.88</time>
<name>207</name>
</trkpt>
<trkpt lat="49.152085" lon="11.745417">
<ele>564.1</ele>
<speed>5.1</speed>
<course>294.0</course>
<desc>Speed 5.1 km/h Distance 0.74 km</desc>
<time>2010-06-13T06:05:13.88</time>
<name>208</name>
</trkpt>
<trkpt lat="49.152097" lon="11.745377">
<ele>562.6</ele>
<speed>6.7</speed>
<course>299.4</course>
<desc>Speed 6.7 km/h Distance 0.75 km</desc>
<time>2010-06-13T06:05:14.87</time>
<name>209</name>
</trkpt>
<trkpt lat="49.152108" lon="11.745345">
<ele>563.4</ele>
<speed>7.1</speed>
<course>298.8</course>
<desc>Speed 7.1 km/h Distance 0.75 km</desc>
<time>2010-06-13T06:05:15.88</time>
<name>210</name>
</trkpt>
<trkpt lat="49.152123" lon="11.745303">
<ele>562.5</ele>
<speed>7.8</speed>
<course>276.7</course>
<desc>Speed 7.8 km/h Distance 0.75 km</desc>
<time>2010-06-13T06:05:16.89</time>
<name>211</name>
</trkpt>
<trkpt lat="49.152128" lon="11.745238">
<ele>563.4</ele>
<speed>7.2</speed>
<course>289.4</course>
<desc>Speed 7.2 km/h Distance 0.76 km</desc>
<time>2010-06-13T06:05:18.87</time>
<name>212</name>
</trkpt>
<trkpt lat="49.152138" lon="11.745195">
<ele>562.7</ele>
<speed>6.0</speed>
<course>257.7</course>
<desc>Speed 6.0 km/h Distance 0.76 km</desc>
<time>2010-06-13T06:05:19.87</time>
<name>213</name>
</trkpt>
<trkpt lat="49.152133" lon="11.745160">
<ele>562.3</ele>
<speed>5.3</speed>
<course>264.2</course>
<desc>Speed 5.3 km/h Distance 0.76 km</desc>
<time>2010-06-13T06:05:20.89</time>
<name>214</name>
</trkpt>
<trkpt lat="49.152128" lon="11.745085">
<ele>561.2</ele>
<speed>5.4</speed>
<course>280.4</course>
<desc>Speed 5.4 km/h Distance 0.77 km</desc>
<time>2010-06-13T06:05:22.88</time>
<name>215</name>
</trkpt>
<trkpt lat="49.152133" lon="11.745043">
<ele>560.4</ele>
<speed>4.9</speed>
<course>279.6</course>
<desc>Speed 4.9 km/h Distance 0.77 km</desc>
<time>2010-06-13T06:05:23.88</time>
<name>216</name>
</trkpt>
<trkpt lat="49.152137" lon="11.745013">
<ele>560.7</ele>
<speed>4.9</speed>
<course>270.0</course>
<desc>Speed 4.9 km/h Distance 0.77 km</desc>
<time>2010-06-13T06:05:24.87</time>
<name>217</name>
</trkpt>
<trkpt lat="49.152137" lon="11.744992">
<ele>561.0</ele>
<speed>4.7</speed>
<course>266.2</course>
<desc>Speed 4.7 km/h Distance 0.78 km</desc>
<time>2010-06-13T06:05:25.87</time>
<name>218</name>
</trkpt>
<trkpt lat="49.152135" lon="11.744953">
<ele>560.6</ele>
<speed>4.1</speed>
<course>245.8</course>
<desc>Speed 4.1 km/h Distance 0.78 km</desc>
<time>2010-06-13T06:05:26.88</time>
<name>219</name>
</trkpt>
<trkpt lat="49.152127" lon="11.744925">
<ele>561.1</ele>
<speed>4.1</speed>
<course>262.4</course>
<desc>Speed 4.1 km/h Distance 0.78 km</desc>
<time>2010-06-13T06:05:27.88</time>
<name>220</name>
</trkpt>
<trkpt lat="49.152123" lon="11.744887">
<ele>560.3</ele>
<speed>6.0</speed>
<course>279.3</course>
<desc>Speed 6.0 km/h Distance 0.78 km</desc>
<time>2010-06-13T06:05:28.89</time>
<name>221</name>
</trkpt>
<trkpt lat="49.152128" lon="11.744840">
<ele>559.0</ele>
<speed>7.7</speed>
<course>277.1</course>
<desc>Speed 7.7 km/h Distance 0.79 km</desc>
<time>2010-06-13T06:05:30.39</time>
<name>222</name>
</trkpt>
<trkpt lat="49.152143" lon="11.744655">
<ele>559.3</ele>
<speed>11.7</speed>
<course>273.6</course>
<desc>Speed 11.7 km/h Distance 0.80 km</desc>
<time>2010-06-13T06:05:32.89</time>
<name>223</name>
</trkpt>
<trkpt lat="49.152145" lon="11.744615">
<ele>561.0</ele>
<speed>8.7</speed>
<course>282.3</course>
<desc>Speed 8.7 km/h Distance 0.80 km</desc>
<time>2010-06-13T06:05:33.88</time>
<name>224</name>
</trkpt>
<trkpt lat="49.152163" lon="11.744487">
<ele>559.5</ele>
<speed>12.6</speed>
<course>278.5</course>
<desc>Speed 12.6 km/h Distance 0.81 km</desc>
<time>2010-06-13T06:05:35.89</time>
<name>225</name>
</trkpt>
<trkpt lat="49.152175" lon="11.744367">
<ele>558.3</ele>
<speed>10.9</speed>
<course>270.0</course>
<desc>Speed 10.9 km/h Distance 0.82 km</desc>
<time>2010-06-13T06:05:37.88</time>
<name>226</name>
</trkpt>
<trkpt lat="49.152175" lon="11.744318">
<ele>559.5</ele>
<speed>10.8</speed>
<course>253.0</course>
<desc>Speed 10.8 km/h Distance 0.82 km</desc>
<time>2010-06-13T06:05:38.88</time>
<name>227</name>
</trkpt>
<trkpt lat="49.152168" lon="11.744285">
<ele>560.1</ele>
<speed>9.2</speed>
<course>272.6</course>
<desc>Speed 9.2 km/h Distance 0.83 km</desc>
<time>2010-06-13T06:05:39.87</time>
<name>228</name>
</trkpt>
<trkpt lat="49.152170" lon="11.744228">
<ele>560.7</ele>
<speed>12.7</speed>
<course>279.9</course>
<desc>Speed 12.7 km/h Distance 0.83 km</desc>
<time>2010-06-13T06:05:40.88</time>
<name>229</name>
</trkpt>
<trkpt lat="49.152187" lon="11.744082">
<ele>561.3</ele>
<speed>12.6</speed>
<course>285.9</course>
<desc>Speed 12.6 km/h Distance 0.84 km</desc>
<time>2010-06-13T06:05:42.87</time>
<name>230</name>
</trkpt>
<trkpt lat="49.152200" lon="11.744010">
<ele>561.9</ele>
<speed>13.8</speed>
<course>280.1</course>
<desc>Speed 13.8 km/h Distance 0.85 km</desc>
<time>2010-06-13T06:05:43.87</time>
<name>231</name>
</trkpt>
<trkpt lat="49.152220" lon="11.743838">
<ele>561.2</ele>
<speed>14.8</speed>
<course>270.0</course>
<desc>Speed 14.8 km/h Distance 0.86 km</desc>
<time>2010-06-13T06:05:45.88</time>
<name>232</name>
</trkpt>
<trkpt lat="49.152220" lon="11.743765">
<ele>562.2</ele>
<speed>13.5</speed>
<course>281.4</course>
<desc>Speed 13.5 km/h Distance 0.87 km</desc>
<time>2010-06-13T06:05:46.88</time>
<name>233</name>
</trkpt>
<trkpt lat="49.152228" lon="11.743702">
<ele>562.2</ele>
<speed>10.7</speed>
<course>290.9</course>
<desc>Speed 10.7 km/h Distance 0.87 km</desc>
<time>2010-06-13T06:05:47.88</time>
<name>234</name>
</trkpt>
<trkpt lat="49.152242" lon="11.743648">
<ele>561.6</ele>
<speed>9.6</speed>
<course>296.3</course>
<desc>Speed 9.6 km/h Distance 0.87 km</desc>
<time>2010-06-13T06:05:48.86</time>
<name>235</name>
</trkpt>
<trkpt lat="49.152260" lon="11.743592">
<ele>560.2</ele>
<speed>10.8</speed>
<course>305.0</course>
<desc>Speed 10.8 km/h Distance 0.88 km</desc>
<time>2010-06-13T06:05:49.86</time>
<name>236</name>
</trkpt>
<trkpt lat="49.152278" lon="11.743552">
<ele>559.0</ele>
<speed>9.4</speed>
<course>292.4</course>
<desc>Speed 9.4 km/h Distance 0.88 km</desc>
<time>2010-06-13T06:05:50.89</time>
<name>237</name>
</trkpt>
<trkpt lat="49.152290" lon="11.743508">
<ele>558.3</ele>
<speed>9.3</speed>
<course>302.5</course>
<desc>Speed 9.3 km/h Distance 0.89 km</desc>
<time>2010-06-13T06:05:51.87</time>
<name>238</name>
</trkpt>
<trkpt lat="49.152307" lon="11.743468">
<ele>557.6</ele>
<speed>9.5</speed>
<course>308.6</course>
<desc>Speed 9.5 km/h Distance 0.89 km</desc>
<time>2010-06-13T06:05:52.87</time>
<name>239</name>
</trkpt>
<trkpt lat="49.152327" lon="11.743430">
<ele>557.3</ele>
<speed>9.8</speed>
<course>316.4</course>
<desc>Speed 9.8 km/h Distance 0.89 km</desc>
<time>2010-06-13T06:05:53.88</time>
<name>240</name>
</trkpt>
<trkpt lat="49.152345" lon="11.743403">
<ele>556.9</ele>
<speed>9.7</speed>
<course>289.6</course>
<desc>Speed 9.7 km/h Distance 0.90 km</desc>
<time>2010-06-13T06:05:54.87</time>
<name>241</name>
</trkpt>
<trkpt lat="49.152357" lon="11.743353">
<ele>556.6</ele>
<speed>9.3</speed>
<course>289.0</course>
<desc>Speed 9.3 km/h Distance 0.90 km</desc>
<time>2010-06-13T06:05:55.88</time>
<name>242</name>
</trkpt>
<trkpt lat="49.152368" lon="11.743302">
<ele>556.2</ele>
<speed>11.2</speed>
<course>306.4</course>
<desc>Speed 11.2 km/h Distance 0.90 km</desc>
<time>2010-06-13T06:05:56.88</time>
<name>243</name>
</trkpt>
<trkpt lat="49.152390" lon="11.743257">
<ele>555.8</ele>
<speed>12.6</speed>
<course>331.0</course>
<desc>Speed 12.6 km/h Distance 0.91 km</desc>
<time>2010-06-13T06:05:57.87</time>
<name>244</name>
</trkpt>
<trkpt lat="49.152467" lon="11.743192">
<ele>555.6</ele>
<speed>12.5</speed>
<course>312.5</course>
<desc>Speed 12.5 km/h Distance 0.92 km</desc>
<time>2010-06-13T06:05:59.88</time>
<name>245</name>
</trkpt>
<trkpt lat="49.152482" lon="11.743167">
<ele>554.8</ele>
<speed>10.7</speed>
<course>290.2</course>
<desc>Speed 10.7 km/h Distance 0.92 km</desc>
<time>2010-06-13T06:06:00.87</time>
<name>246</name>
</trkpt>
<trkpt lat="49.152492" lon="11.743125">
<ele>553.9</ele>
<speed>9.7</speed>
<course>318.4</course>
<desc>Speed 9.7 km/h Distance 0.92 km</desc>
<time>2010-06-13T06:06:01.88</time>
<name>247</name>
</trkpt>
<trkpt lat="49.152515" lon="11.743093">
<ele>552.1</ele>
<speed>8.9</speed>
<course>309.0</course>
<desc>Speed 8.9 km/h Distance 0.93 km</desc>
<time>2010-06-13T06:06:02.88</time>
<name>248</name>
</trkpt>
<trkpt lat="49.152530" lon="11.743065">
<ele>551.9</ele>
<speed>7.5</speed>
<course>300.4</course>
<desc>Speed 7.5 km/h Distance 0.93 km</desc>
<time>2010-06-13T06:06:03.86</time>
<name>249</name>
</trkpt>
<trkpt lat="49.152538" lon="11.743043">
<ele>552.5</ele>
<speed>7.6</speed>
<course>324.7</course>
<desc>Speed 7.6 km/h Distance 0.93 km</desc>
<time>2010-06-13T06:06:04.87</time>
<name>250</name>
</trkpt>
<trkpt lat="49.152558" lon="11.743022">
<ele>552.4</ele>
<speed>5.8</speed>
<course>331.1</course>
<desc>Speed 5.8 km/h Distance 0.93 km</desc>
<time>2010-06-13T06:06:05.87</time>
<name>251</name>
</trkpt>
<trkpt lat="49.152580" lon="11.743003">
<ele>551.7</ele>
<speed>7.3</speed>
<course>342.7</course>
<desc>Speed 7.3 km/h Distance 0.94 km</desc>
<time>2010-06-13T06:06:06.87</time>
<name>252</name>
</trkpt>
<trkpt lat="49.152647" lon="11.742972">
<ele>554.5</ele>
<speed>9.9</speed>
<course>289.6</course>
<desc>Speed 9.9 km/h Distance 0.94 km</desc>
<time>2010-06-13T06:06:08.86</time>
<name>253</name>
</trkpt>
<trkpt lat="49.152658" lon="11.742922">
<ele>555.5</ele>
<speed>9.0</speed>
<course>331.9</course>
<desc>Speed 9.0 km/h Distance 0.95 km</desc>
<time>2010-06-13T06:06:09.87</time>
<name>254</name>
</trkpt>
<trkpt lat="49.152677" lon="11.742907">
<ele>556.3</ele>
<speed>8.7</speed>
<course>20.0</course>
<desc>Speed 8.7 km/h Distance 0.95 km</desc>
<time>2010-06-13T06:06:10.87</time>
<name>255</name>
</trkpt>
<trkpt lat="49.152707" lon="11.742923">
<ele>555.4</ele>
<speed>6.8</speed>
<course>357.1</course>
<desc>Speed 6.8 km/h Distance 0.95 km</desc>
<time>2010-06-13T06:06:11.87</time>
<name>256</name>
</trkpt>
<trkpt lat="49.152793" lon="11.742917">
<ele>558.1</ele>
<speed>9.5</speed>
<course>326.2</course>
<desc>Speed 9.5 km/h Distance 0.96 km</desc>
<time>2010-06-13T06:06:13.87</time>
<name>257</name>
</trkpt>
<trkpt lat="49.152863" lon="11.742845">
<ele>562.6</ele>
<speed>10.9</speed>
<course>281.9</course>
<desc>Speed 10.9 km/h Distance 0.97 km</desc>
<time>2010-06-13T06:06:15.87</time>
<name>258</name>
</trkpt>
<trkpt lat="49.152870" lon="11.742797">
<ele>564.9</ele>
<speed>9.3</speed>
<course>270.0</course>
<desc>Speed 9.3 km/h Distance 0.98 km</desc>
<time>2010-06-13T06:06:16.87</time>
<name>259</name>
</trkpt>
<trkpt lat="49.152870" lon="11.742740">
<ele>565.7</ele>
<speed>10.2</speed>
<course>288.8</course>
<desc>Speed 10.2 km/h Distance 0.98 km</desc>
<time>2010-06-13T06:06:17.86</time>
<name>260</name>
</trkpt>
<trkpt lat="49.152883" lon="11.742680">
<ele>565.6</ele>
<speed>11.0</speed>
<course>283.0</course>
<desc>Speed 11.0 km/h Distance 0.99 km</desc>
<time>2010-06-13T06:06:18.87</time>
<name>261</name>
</trkpt>
<trkpt lat="49.152892" lon="11.742625">
<ele>566.2</ele>
<speed>11.3</speed>
<course>290.2</course>
<desc>Speed 11.3 km/h Distance 0.99 km</desc>
<time>2010-06-13T06:06:19.86</time>
<name>262</name>
</trkpt>
<trkpt lat="49.152902" lon="11.742583">
<ele>567.5</ele>
<speed>9.3</speed>
<course>289.1</course>
<desc>Speed 9.3 km/h Distance 0.99 km</desc>
<time>2010-06-13T06:06:20.87</time>
<name>263</name>
</trkpt>
<trkpt lat="49.152910" lon="11.742547">
<ele>567.6</ele>
<speed>9.9</speed>
<course>295.6</course>
<desc>Speed 9.9 km/h Distance 1.00 km</desc>
<time>2010-06-13T06:06:21.86</time>
<name>264</name>
</trkpt>
<trkpt lat="49.152918" lon="11.742520">
<ele>568.8</ele>
<speed>8.8</speed>
<course>348.5</course>
<desc>Speed 8.8 km/h Distance 1.00 km</desc>
<time>2010-06-13T06:06:22.87</time>
<name>265</name>
</trkpt>
<trkpt lat="49.152945" lon="11.742512">
<ele>569.7</ele>
<speed>9.2</speed>
<course>307.4</course>
<desc>Speed 9.2 km/h Distance 1.00 km</desc>
<time>2010-06-13T06:06:23.87</time>
<name>266</name>
</trkpt>
<trkpt lat="49.152963" lon="11.742475">
<ele>572.0</ele>
<speed>10.0</speed>
<course>1.7</course>
<desc>Speed 10.0 km/h Distance 1.00 km</desc>
<time>2010-06-13T06:06:24.86</time>
<name>267</name>
</trkpt>
<trkpt lat="49.153042" lon="11.742478">
<ele>568.2</ele>
<speed>11.1</speed>
<course>328.2</course>
<desc>Speed 11.1 km/h Distance 1.01 km</desc>
<time>2010-06-13T06:06:26.88</time>
<name>268</name>
</trkpt>
<trkpt lat="49.153073" lon="11.742448">
<ele>567.7</ele>
<speed>12.1</speed>
<course>330.2</course>
<desc>Speed 12.1 km/h Distance 1.02 km</desc>
<time>2010-06-13T06:06:27.86</time>
<name>269</name>
</trkpt>
<trkpt lat="49.153100" lon="11.742425">
<ele>566.3</ele>
<speed>10.9</speed>
<course>30.5</course>
<desc>Speed 10.9 km/h Distance 1.02 km</desc>
<time>2010-06-13T06:06:28.86</time>
<name>270</name>
</trkpt>
<trkpt lat="49.153133" lon="11.742455">
<ele>564.1</ele>
<speed>8.4</speed>
<course>357.9</course>
<desc>Speed 8.4 km/h Distance 1.03 km</desc>
<time>2010-06-13T06:06:29.87</time>
<name>271</name>
</trkpt>
<trkpt lat="49.153222" lon="11.742450">
<ele>557.8</ele>
<speed>13.8</speed>
<course>320.4</course>
<desc>Speed 13.8 km/h Distance 1.03 km</desc>
<time>2010-06-13T06:06:31.86</time>
<name>272</name>
</trkpt>
<trkpt lat="49.153253" lon="11.742410">
<ele>555.0</ele>
<speed>14.6</speed>
<course>330.7</course>
<desc>Speed 14.6 km/h Distance 1.04 km</desc>
<time>2010-06-13T06:06:32.85</time>
<name>273</name>
</trkpt>
<trkpt lat="49.153288" lon="11.742380">
<ele>553.1</ele>
<speed>15.1</speed>
<course>319.2</course>
<desc>Speed 15.1 km/h Distance 1.04 km</desc>
<time>2010-06-13T06:06:33.86</time>
<name>274</name>
</trkpt>
<trkpt lat="49.153325" lon="11.742332">
<ele>552.2</ele>
<speed>16.0</speed>
<course>317.5</course>
<desc>Speed 16.0 km/h Distance 1.05 km</desc>
<time>2010-06-13T06:06:34.88</time>
<name>275</name>
</trkpt>
<trkpt lat="49.153358" lon="11.742285">
<ele>551.9</ele>
<speed>16.6</speed>
<course>296.3</course>
<desc>Speed 16.6 km/h Distance 1.05 km</desc>
<time>2010-06-13T06:06:35.86</time>
<name>276</name>
</trkpt>
<trkpt lat="49.153375" lon="11.742233">
<ele>551.4</ele>
<speed>14.7</speed>
<course>277.7</course>
<desc>Speed 14.7 km/h Distance 1.06 km</desc>
<time>2010-06-13T06:06:36.87</time>
<name>277</name>
</trkpt>
<trkpt lat="49.153380" lon="11.742177">
<ele>550.9</ele>
<speed>14.3</speed>
<course>261.3</course>
<desc>Speed 14.3 km/h Distance 1.06 km</desc>
<time>2010-06-13T06:06:37.86</time>
<name>278</name>
</trkpt>
<trkpt lat="49.153373" lon="11.742110">
<ele>550.4</ele>
<speed>15.6</speed>
<course>272.3</course>
<desc>Speed 15.6 km/h Distance 1.07 km</desc>
<time>2010-06-13T06:06:38.86</time>
<name>279</name>
</trkpt>
<trkpt lat="49.153375" lon="11.742047">
<ele>550.0</ele>
<speed>15.2</speed>
<course>267.5</course>
<desc>Speed 15.2 km/h Distance 1.07 km</desc>
<time>2010-06-13T06:06:39.87</time>
<name>280</name>
</trkpt>
<trkpt lat="49.153373" lon="11.741988">
<ele>548.7</ele>
<speed>13.9</speed>
<course>270.0</course>
<desc>Speed 13.9 km/h Distance 1.08 km</desc>
<time>2010-06-13T06:06:40.85</time>
<name>281</name>
</trkpt>
<trkpt lat="49.153373" lon="11.741938">
<ele>547.7</ele>
<speed>12.3</speed>
<course>279.6</course>
<desc>Speed 12.3 km/h Distance 1.08 km</desc>
<time>2010-06-13T06:06:41.87</time>
<name>282</name>
</trkpt>
<trkpt lat="49.153378" lon="11.741893">
<ele>547.0</ele>
<speed>11.2</speed>
<course>278.3</course>
<desc>Speed 11.2 km/h Distance 1.08 km</desc>
<time>2010-06-13T06:06:42.87</time>
<name>283</name>
</trkpt>
<trkpt lat="49.153382" lon="11.741858">
<ele>545.6</ele>
<speed>9.9</speed>
<course>323.0</course>
<desc>Speed 9.9 km/h Distance 1.09 km</desc>
<time>2010-06-13T06:06:43.86</time>
<name>284</name>
</trkpt>
<trkpt lat="49.153403" lon="11.741833">
<ele>545.3</ele>
<speed>9.8</speed>
<course>354.2</course>
<desc>Speed 9.8 km/h Distance 1.09 km</desc>
<time>2010-06-13T06:06:44.87</time>
<name>285</name>
</trkpt>
<trkpt lat="49.153435" lon="11.741828">
<ele>545.1</ele>
<speed>11.7</speed>
<course>2.3</course>
<desc>Speed 11.7 km/h Distance 1.09 km</desc>
<time>2010-06-13T06:06:45.86</time>
<name>286</name>
</trkpt>
<trkpt lat="49.153467" lon="11.741830">
<ele>543.9</ele>
<speed>14.1</speed>
<course>1.7</course>
<desc>Speed 14.1 km/h Distance 1.10 km</desc>
<time>2010-06-13T06:06:46.87</time>
<name>287</name>
</trkpt>
<trkpt lat="49.153502" lon="11.741830">
<ele>543.3</ele>
<speed>15.5</speed>
<course>0.0</course>
<desc>Speed 15.5 km/h Distance 1.10 km</desc>
<time>2010-06-13T06:06:47.87</time>
<name>288</name>
</trkpt>
<trkpt lat="49.153550" lon="11.741830">
<ele>543.1</ele>
<speed>17.9</speed>
<course>357.3</course>
<desc>Speed 17.9 km/h Distance 1.11 km</desc>
<time>2010-06-13T06:06:48.86</time>
<name>289</name>
</trkpt>
<trkpt lat="49.153598" lon="11.741827">
<ele>541.9</ele>
<speed>19.3</speed>
<course>354.0</course>
<desc>Speed 19.3 km/h Distance 1.11 km</desc>
<time>2010-06-13T06:06:49.87</time>
<name>290</name>
</trkpt>
<trkpt lat="49.153650" lon="11.741818">
<ele>540.6</ele>
<speed>19.3</speed>
<course>354.3</course>
<desc>Speed 19.3 km/h Distance 1.12 km</desc>
<time>2010-06-13T06:06:50.86</time>
<name>291</name>
</trkpt>
<trkpt lat="49.153705" lon="11.741810">
<ele>539.6</ele>
<speed>20.8</speed>
<course>356.1</course>
<desc>Speed 20.8 km/h Distance 1.12 km</desc>
<time>2010-06-13T06:06:51.86</time>
<name>292</name>
</trkpt>
<trkpt lat="49.153753" lon="11.741805">
<ele>538.5</ele>
<speed>21.5</speed>
<course>354.2</course>
<desc>Speed 21.5 km/h Distance 1.13 km</desc>
<time>2010-06-13T06:06:52.87</time>
<name>293</name>
</trkpt>
<trkpt lat="49.153807" lon="11.741797">
<ele>537.5</ele>
<speed>21.0</speed>
<course>355.1</course>
<desc>Speed 21.0 km/h Distance 1.13 km</desc>
<time>2010-06-13T06:06:53.87</time>
<name>294</name>
</trkpt>
<trkpt lat="49.153857" lon="11.741790">
<ele>536.8</ele>
<speed>21.5</speed>
<course>354.4</course>
<desc>Speed 21.5 km/h Distance 1.14 km</desc>
<time>2010-06-13T06:06:54.86</time>
<name>295</name>
</trkpt>
<trkpt lat="49.153912" lon="11.741782">
<ele>535.9</ele>
<speed>23.3</speed>
<course>356.7</course>
<desc>Speed 23.3 km/h Distance 1.15 km</desc>
<time>2010-06-13T06:06:55.87</time>
<name>296</name>
</trkpt>
<trkpt lat="49.153970" lon="11.741777">
<ele>535.3</ele>
<speed>24.4</speed>
<course>354.1</course>
<desc>Speed 24.4 km/h Distance 1.15 km</desc>
<time>2010-06-13T06:06:56.88</time>
<name>297</name>
</trkpt>
<trkpt lat="49.154033" lon="11.741767">
<ele>534.3</ele>
<speed>24.8</speed>
<course>353.7</course>
<desc>Speed 24.8 km/h Distance 1.16 km</desc>
<time>2010-06-13T06:06:57.87</time>
<name>298</name>
</trkpt>
<trkpt lat="49.154093" lon="11.741757">
<ele>533.6</ele>
<speed>25.3</speed>
<course>355.5</course>
<desc>Speed 25.3 km/h Distance 1.17 km</desc>
<time>2010-06-13T06:06:58.87</time>
<name>299</name>
</trkpt>
<trkpt lat="49.154163" lon="11.741748">
<ele>533.7</ele>
<speed>26.2</speed>
<course>356.2</course>
<desc>Speed 26.2 km/h Distance 1.17 km</desc>
<time>2010-06-13T06:06:59.87</time>
<name>300</name>
</trkpt>
<trkpt lat="49.154230" lon="11.741742">
<ele>533.9</ele>
<speed>24.3</speed>
<course>353.4</course>
<desc>Speed 24.3 km/h Distance 1.18 km</desc>
<time>2010-06-13T06:07:00.87</time>
<name>301</name>
</trkpt>
<trkpt lat="49.154287" lon="11.741732">
<ele>533.3</ele>
<speed>23.5</speed>
<course>359.2</course>
<desc>Speed 23.5 km/h Distance 1.19 km</desc>
<time>2010-06-13T06:07:01.87</time>
<name>302</name>
</trkpt>
<trkpt lat="49.154343" lon="11.741730">
<ele>532.7</ele>
<speed>25.0</speed>
<course>357.2</course>
<desc>Speed 25.0 km/h Distance 1.19 km</desc>
<time>2010-06-13T06:07:02.87</time>
<name>303</name>
</trkpt>
<trkpt lat="49.154408" lon="11.741725">
<ele>531.8</ele>
<speed>24.9</speed>
<course>356.3</course>
<desc>Speed 24.9 km/h Distance 1.20 km</desc>
<time>2010-06-13T06:07:03.86</time>
<name>304</name>
</trkpt>
<trkpt lat="49.154473" lon="11.741718">
<ele>530.6</ele>
<speed>25.7</speed>
<course>355.6</course>
<desc>Speed 25.7 km/h Distance 1.21 km</desc>
<time>2010-06-13T06:07:04.86</time>
<name>305</name>
</trkpt>
<trkpt lat="49.154543" lon="11.741710">
<ele>529.5</ele>
<speed>27.6</speed>
<course>355.1</course>
<desc>Speed 27.6 km/h Distance 1.22 km</desc>
<time>2010-06-13T06:07:05.88</time>
<name>306</name>
</trkpt>
<trkpt lat="49.154620" lon="11.741700">
<ele>528.8</ele>
<speed>28.8</speed>
<course>358.2</course>
<desc>Speed 28.8 km/h Distance 1.23 km</desc>
<time>2010-06-13T06:07:06.86</time>
<name>307</name>
</trkpt>
<trkpt lat="49.154698" lon="11.741697">
<ele>527.9</ele>
<speed>29.3</speed>
<course>357.6</course>
<desc>Speed 29.3 km/h Distance 1.23 km</desc>
<time>2010-06-13T06:07:07.87</time>
<name>308</name>
</trkpt>
<trkpt lat="49.154777" lon="11.741692">
<ele>526.0</ele>
<speed>30.5</speed>
<course>0.7</course>
<desc>Speed 30.5 km/h Distance 1.24 km</desc>
<time>2010-06-13T06:07:08.88</time>
<name>309</name>
</trkpt>
<trkpt lat="49.154852" lon="11.741693">
<ele>525.2</ele>
<speed>29.6</speed>
<course>1.7</course>
<desc>Speed 29.6 km/h Distance 1.25 km</desc>
<time>2010-06-13T06:07:09.86</time>
<name>310</name>
</trkpt>
<trkpt lat="49.154930" lon="11.741697">
<ele>523.9</ele>
<speed>29.6</speed>
<course>356.8</course>
<desc>Speed 29.6 km/h Distance 1.26 km</desc>
<time>2010-06-13T06:07:10.86</time>
<name>311</name>
</trkpt>
<trkpt lat="49.155008" lon="11.741690">
<ele>523.3</ele>
<speed>29.1</speed>
<course>359.2</course>
<desc>Speed 29.1 km/h Distance 1.27 km</desc>
<time>2010-06-13T06:07:11.86</time>
<name>312</name>
</trkpt>
<trkpt lat="49.155085" lon="11.741688">
<ele>521.9</ele>
<speed>27.6</speed>
<course>359.0</course>
<desc>Speed 27.6 km/h Distance 1.28 km</desc>
<time>2010-06-13T06:07:12.86</time>
<name>313</name>
</trkpt>
<trkpt lat="49.155160" lon="11.741687">
<ele>522.0</ele>
<speed>27.8</speed>
<course>359.3</course>
<desc>Speed 27.8 km/h Distance 1.29 km</desc>
<time>2010-06-13T06:07:13.88</time>
<name>314</name>
</trkpt>
<trkpt lat="49.155247" lon="11.741685">
<ele>523.2</ele>
<speed>28.9</speed>
<course>356.9</course>
<desc>Speed 28.9 km/h Distance 1.29 km</desc>
<time>2010-06-13T06:07:14.88</time>
<name>315</name>
</trkpt>
<trkpt lat="49.155328" lon="11.741678">
<ele>524.2</ele>
<speed>30.0</speed>
<course>1.8</course>
<desc>Speed 30.0 km/h Distance 1.30 km</desc>
<time>2010-06-13T06:07:15.86</time>
<name>316</name>
</trkpt>
<trkpt lat="49.155403" lon="11.741682">
<ele>524.5</ele>
<speed>28.5</speed>
<course>0.4</course>
<desc>Speed 28.5 km/h Distance 1.31 km</desc>
<time>2010-06-13T06:07:16.88</time>
<name>317</name>
</trkpt>
<trkpt lat="49.155480" lon="11.741682">
<ele>524.8</ele>
<speed>29.2</speed>
<course>3.3</course>
<desc>Speed 29.2 km/h Distance 1.32 km</desc>
<time>2010-06-13T06:07:17.88</time>
<name>318</name>
</trkpt>
<trkpt lat="49.155555" lon="11.741688">
<ele>524.8</ele>
<speed>30.0</speed>
<course>357.5</course>
<desc>Speed 30.0 km/h Distance 1.33 km</desc>
<time>2010-06-13T06:07:18.87</time>
<name>319</name>
</trkpt>
<trkpt lat="49.155628" lon="11.741683">
<ele>524.6</ele>
<speed>28.5</speed>
<course>1.0</course>
<desc>Speed 28.5 km/h Distance 1.34 km</desc>
<time>2010-06-13T06:07:19.86</time>
<name>320</name>
</trkpt>
<trkpt lat="49.155693" lon="11.741685">
<ele>524.4</ele>
<speed>26.9</speed>
<course>0.9</course>
<desc>Speed 26.9 km/h Distance 1.34 km</desc>
<time>2010-06-13T06:07:20.88</time>
<name>321</name>
</trkpt>
<trkpt lat="49.155765" lon="11.741687">
<ele>524.9</ele>
<speed>26.7</speed>
<course>359.1</course>
<desc>Speed 26.7 km/h Distance 1.35 km</desc>
<time>2010-06-13T06:07:21.87</time>
<name>322</name>
</trkpt>
<trkpt lat="49.155835" lon="11.741685">
<ele>525.1</ele>
<speed>26.8</speed>
<course>5.4</course>
<desc>Speed 26.8 km/h Distance 1.36 km</desc>
<time>2010-06-13T06:07:22.87</time>
<name>323</name>
</trkpt>
<trkpt lat="49.155903" lon="11.741695">
<ele>524.6</ele>
<speed>26.4</speed>
<course>1.7</course>
<desc>Speed 26.4 km/h Distance 1.37 km</desc>
<time>2010-06-13T06:07:23.86</time>
<name>324</name>
</trkpt>
<trkpt lat="49.155973" lon="11.741698">
<ele>523.7</ele>
<speed>27.3</speed>
<course>3.1</course>
<desc>Speed 27.3 km/h Distance 1.38 km</desc>
<time>2010-06-13T06:07:24.87</time>
<name>325</name>
</trkpt>
<trkpt lat="49.156035" lon="11.741703">
<ele>523.6</ele>
<speed>26.6</speed>
<course>1.7</course>
<desc>Speed 26.6 km/h Distance 1.38 km</desc>
<time>2010-06-13T06:07:25.87</time>
<name>326</name>
</trkpt>
<trkpt lat="49.156108" lon="11.741707">
<ele>525.0</ele>
<speed>25.8</speed>
<course>1.0</course>
<desc>Speed 25.8 km/h Distance 1.39 km</desc>
<time>2010-06-13T06:07:26.86</time>
<name>327</name>
</trkpt>
<trkpt lat="49.156177" lon="11.741708">
<ele>525.0</ele>
<speed>24.7</speed>
<course>2.8</course>
<desc>Speed 24.7 km/h Distance 1.40 km</desc>
<time>2010-06-13T06:07:27.86</time>
<name>328</name>
</trkpt>
<trkpt lat="49.156242" lon="11.741713">
<ele>525.2</ele>
<speed>25.0</speed>
<course>0.0</course>
<desc>Speed 25.0 km/h Distance 1.41 km</desc>
<time>2010-06-13T06:07:28.87</time>
<name>329</name>
</trkpt>
<trkpt lat="49.156305" lon="11.741713">
<ele>525.6</ele>
<speed>24.5</speed>
<course>357.2</course>
<desc>Speed 24.5 km/h Distance 1.41 km</desc>
<time>2010-06-13T06:07:29.87</time>
<name>330</name>
</trkpt>
<trkpt lat="49.156368" lon="11.741708">
<ele>525.2</ele>
<speed>23.5</speed>
<course>359.1</course>
<desc>Speed 23.5 km/h Distance 1.42 km</desc>
<time>2010-06-13T06:07:30.87</time>
<name>331</name>
</trkpt>
<trkpt lat="49.156432" lon="11.741707">
<ele>525.5</ele>
<speed>24.4</speed>
<course>6.1</course>
<desc>Speed 24.4 km/h Distance 1.43 km</desc>
<time>2010-06-13T06:07:31.87</time>
<name>332</name>
</trkpt>
<trkpt lat="49.156493" lon="11.741717">
<ele>525.4</ele>
<speed>24.3</speed>
<course>357.9</course>
<desc>Speed 24.3 km/h Distance 1.43 km</desc>
<time>2010-06-13T06:07:32.87</time>
<name>333</name>
</trkpt>
<trkpt lat="49.156557" lon="11.741713">
<ele>525.2</ele>
<speed>24.9</speed>
<course>2.8</course>
<desc>Speed 24.9 km/h Distance 1.44 km</desc>
<time>2010-06-13T06:07:33.87</time>
<name>334</name>
</trkpt>
<trkpt lat="49.156623" lon="11.741718">
<ele>524.2</ele>
<speed>24.0</speed>
<course>6.2</course>
<desc>Speed 24.0 km/h Distance 1.45 km</desc>
<time>2010-06-13T06:07:34.87</time>
<name>335</name>
</trkpt>
<trkpt lat="49.156683" lon="11.741728">
<ele>524.0</ele>
<speed>23.4</speed>
<course>4.5</course>
<desc>Speed 23.4 km/h Distance 1.45 km</desc>
<time>2010-06-13T06:07:35.86</time>
<name>336</name>
</trkpt>
<trkpt lat="49.156738" lon="11.741735">
<ele>524.5</ele>
<speed>23.0</speed>
<course>3.1</course>
<desc>Speed 23.0 km/h Distance 1.46 km</desc>
<time>2010-06-13T06:07:36.86</time>
<name>337</name>
</trkpt>
<trkpt lat="49.156798" lon="11.741740">
<ele>524.3</ele>
<speed>23.0</speed>
<course>354.5</course>
<desc>Speed 23.0 km/h Distance 1.47 km</desc>
<time>2010-06-13T06:07:37.86</time>
<name>338</name>
</trkpt>
<trkpt lat="49.156855" lon="11.741732">
<ele>524.5</ele>
<speed>23.1</speed>
<course>358.2</course>
<desc>Speed 23.1 km/h Distance 1.47 km</desc>
<time>2010-06-13T06:07:38.86</time>
<name>339</name>
</trkpt>
<trkpt lat="49.156920" lon="11.741728">
<ele>523.2</ele>
<speed>24.1</speed>
<course>1.8</course>
<desc>Speed 24.1 km/h Distance 1.48 km</desc>
<time>2010-06-13T06:07:39.88</time>
<name>340</name>
</trkpt>
<trkpt lat="49.156985" lon="11.741732">
<ele>522.0</ele>
<speed>24.4</speed>
<course>5.9</course>
<desc>Speed 24.4 km/h Distance 1.49 km</desc>
<time>2010-06-13T06:07:40.87</time>
<name>341</name>
</trkpt>
<trkpt lat="49.157048" lon="11.741742">
<ele>521.8</ele>
<speed>22.6</speed>
<course>2.4</course>
<desc>Speed 22.6 km/h Distance 1.50 km</desc>
<time>2010-06-13T06:07:41.86</time>
<name>342</name>
</trkpt>
<trkpt lat="49.157102" lon="11.741745">
<ele>521.7</ele>
<speed>20.4</speed>
<course>0.0</course>
<desc>Speed 20.4 km/h Distance 1.50 km</desc>
<time>2010-06-13T06:07:42.88</time>
<name>343</name>
</trkpt>
<trkpt lat="49.157142" lon="11.741745">
<ele>522.6</ele>
<speed>17.1</speed>
<course>357.5</course>
<desc>Speed 17.1 km/h Distance 1.51 km</desc>
<time>2010-06-13T06:07:43.86</time>
<name>344</name>
</trkpt>
<trkpt lat="49.157192" lon="11.741742">
<ele>522.5</ele>
<speed>16.4</speed>
<course>349.3</course>
<desc>Speed 16.4 km/h Distance 1.51 km</desc>
<time>2010-06-13T06:07:44.86</time>
<name>345</name>
</trkpt>
<trkpt lat="49.157232" lon="11.741730">
<ele>522.1</ele>
<speed>14.4</speed>
<course>356.5</course>
<desc>Speed 14.4 km/h Distance 1.52 km</desc>
<time>2010-06-13T06:07:45.86</time>
<name>346</name>
</trkpt>
<trkpt lat="49.157267" lon="11.741727">
<ele>522.3</ele>
<speed>12.3</speed>
<course>4.5</course>
<desc>Speed 12.3 km/h Distance 1.52 km</desc>
<time>2010-06-13T06:07:46.87</time>
<name>347</name>
</trkpt>
<trkpt lat="49.157295" lon="11.741730">
<ele>522.9</ele>
<speed>11.7</speed>
<course>0.6</course>
<desc>Speed 11.7 km/h Distance 1.52 km</desc>
<time>2010-06-13T06:07:47.87</time>
<name>348</name>
</trkpt>
<trkpt lat="49.157318" lon="11.741730">
<ele>522.8</ele>
<speed>12.1</speed>
<course>2.9</course>
<desc>Speed 12.1 km/h Distance 1.53 km</desc>
<time>2010-06-13T06:07:48.86</time>
<name>349</name>
</trkpt>
<trkpt lat="49.157345" lon="11.741732">
<ele>523.1</ele>
<speed>12.9</speed>
<course>1.4</course>
<desc>Speed 12.9 km/h Distance 1.53 km</desc>
<time>2010-06-13T06:07:49.87</time>
<name>350</name>
</trkpt>
<trkpt lat="49.157373" lon="11.741732">
<ele>523.4</ele>
<speed>13.2</speed>
<course>4.6</course>
<desc>Speed 13.2 km/h Distance 1.53 km</desc>
<time>2010-06-13T06:07:50.88</time>
<name>351</name>
</trkpt>
<trkpt lat="49.157400" lon="11.741735">
<ele>524.2</ele>
<speed>11.3</speed>
<course>350.6</course>
<desc>Speed 11.3 km/h Distance 1.53 km</desc>
<time>2010-06-13T06:07:51.87</time>
<name>352</name>
</trkpt>
<trkpt lat="49.157433" lon="11.741727">
<ele>524.2</ele>
<speed>12.4</speed>
<course>354.4</course>
<desc>Speed 12.4 km/h Distance 1.54 km</desc>
<time>2010-06-13T06:07:52.87</time>
<name>353</name>
</trkpt>
<trkpt lat="49.157457" lon="11.741723">
<ele>523.7</ele>
<speed>11.8</speed>
<course>337.1</course>
<desc>Speed 11.8 km/h Distance 1.54 km</desc>
<time>2010-06-13T06:07:53.86</time>
<name>354</name>
</trkpt>
<trkpt lat="49.157480" lon="11.741708">
<ele>522.5</ele>
<speed>11.5</speed>
<course>335.8</course>
<desc>Speed 11.5 km/h Distance 1.54 km</desc>
<time>2010-06-13T06:07:54.85</time>
<name>355</name>
</trkpt>
<trkpt lat="49.157507" lon="11.741690">
<ele>522.9</ele>
<speed>12.8</speed>
<course>348.3</course>
<desc>Speed 12.8 km/h Distance 1.55 km</desc>
<time>2010-06-13T06:07:55.86</time>
<name>356</name>
</trkpt>
<trkpt lat="49.157612" lon="11.741657">
<ele>521.9</ele>
<speed>18.9</speed>
<course>357.0</course>
<desc>Speed 18.9 km/h Distance 1.56 km</desc>
<time>2010-06-13T06:07:57.86</time>
<name>357</name>
</trkpt>
<trkpt lat="49.157672" lon="11.741652">
<ele>522.0</ele>
<speed>20.4</speed>
<course>359.4</course>
<desc>Speed 20.4 km/h Distance 1.57 km</desc>
<time>2010-06-13T06:07:58.87</time>
<name>358</name>
</trkpt>
<trkpt lat="49.157738" lon="11.741650">
<ele>521.2</ele>
<speed>22.1</speed>
<course>4.2</course>
<desc>Speed 22.1 km/h Distance 1.57 km</desc>
<time>2010-06-13T06:07:59.86</time>
<name>359</name>
</trkpt>
<trkpt lat="49.157798" lon="11.741657">
<ele>521.1</ele>
<speed>21.7</speed>
<course>358.7</course>
<desc>Speed 21.7 km/h Distance 1.58 km</desc>
<time>2010-06-13T06:08:00.87</time>
<name>360</name>
</trkpt>
<trkpt lat="49.157853" lon="11.741655">
<ele>520.8</ele>
<speed>21.3</speed>
<course>356.1</course>
<desc>Speed 21.3 km/h Distance 1.59 km</desc>
<time>2010-06-13T06:08:01.86</time>
<name>361</name>
</trkpt>
<trkpt lat="49.157902" lon="11.741650">
<ele>521.6</ele>
<speed>20.3</speed>
<course>3.5</course>
<desc>Speed 20.3 km/h Distance 1.59 km</desc>
<time>2010-06-13T06:08:02.87</time>
<name>362</name>
</trkpt>
<trkpt lat="49.157953" lon="11.741655">
<ele>521.5</ele>
<speed>20.2</speed>
<course>5.0</course>
<desc>Speed 20.2 km/h Distance 1.60 km</desc>
<time>2010-06-13T06:08:03.86</time>
<name>363</name>
</trkpt>
<trkpt lat="49.158003" lon="11.741662">
<ele>521.9</ele>
<speed>19.7</speed>
<course>3.7</course>
<desc>Speed 19.7 km/h Distance 1.60 km</desc>
<time>2010-06-13T06:08:04.88</time>
<name>364</name>
</trkpt>
<trkpt lat="49.158053" lon="11.741667">
<ele>522.7</ele>
<speed>19.6</speed>
<course>6.0</course>
<desc>Speed 19.6 km/h Distance 1.61 km</desc>
<time>2010-06-13T06:08:05.87</time>
<name>365</name>
</trkpt>
<trkpt lat="49.158105" lon="11.741675">
<ele>523.3</ele>
<speed>19.5</speed>
<course>357.5</course>
<desc>Speed 19.5 km/h Distance 1.61 km</desc>
<time>2010-06-13T06:08:06.87</time>
<name>366</name>
</trkpt>
<trkpt lat="49.158155" lon="11.741672">
<ele>522.4</ele>
<speed>20.0</speed>
<course>6.6</course>
<desc>Speed 20.0 km/h Distance 1.62 km</desc>
<time>2010-06-13T06:08:07.86</time>
<name>367</name>
</trkpt>
<trkpt lat="49.158212" lon="11.741682">
<ele>522.2</ele>
<speed>21.9</speed>
<course>2.2</course>
<desc>Speed 21.9 km/h Distance 1.63 km</desc>
<time>2010-06-13T06:08:08.86</time>
<name>368</name>
</trkpt>
<trkpt lat="49.158265" lon="11.741685">
<ele>522.3</ele>
<speed>21.5</speed>
<course>351.0</course>
<desc>Speed 21.5 km/h Distance 1.63 km</desc>
<time>2010-06-13T06:08:09.86</time>
<name>369</name>
</trkpt>
<trkpt lat="49.158320" lon="11.741672">
<ele>522.5</ele>
<speed>22.1</speed>
<course>352.3</course>
<desc>Speed 22.1 km/h Distance 1.64 km</desc>
<time>2010-06-13T06:08:10.88</time>
<name>370</name>
</trkpt>
<trkpt lat="49.158368" lon="11.741662">
<ele>523.8</ele>
<speed>20.8</speed>
<course>2.5</course>
<desc>Speed 20.8 km/h Distance 1.64 km</desc>
<time>2010-06-13T06:08:11.88</time>
<name>371</name>
</trkpt>
<trkpt lat="49.158420" lon="11.741665">
<ele>523.6</ele>
<speed>19.6</speed>
<course>4.8</course>
<desc>Speed 19.6 km/h Distance 1.65 km</desc>
<time>2010-06-13T06:08:12.86</time>
<name>372</name>
</trkpt>
<trkpt lat="49.158470" lon="11.741672">
<ele>523.3</ele>
<speed>18.5</speed>
<course>3.2</course>
<desc>Speed 18.5 km/h Distance 1.66 km</desc>
<time>2010-06-13T06:08:13.87</time>
<name>373</name>
</trkpt>
<trkpt lat="49.158527" lon="11.741677">
<ele>521.9</ele>
<speed>19.2</speed>
<course>8.6</course>
<desc>Speed 19.2 km/h Distance 1.66 km</desc>
<time>2010-06-13T06:08:14.86</time>
<name>374</name>
</trkpt>
<trkpt lat="49.158577" lon="11.741688">
<ele>521.8</ele>
<speed>18.4</speed>
<course>358.9</course>
<desc>Speed 18.4 km/h Distance 1.67 km</desc>
<time>2010-06-13T06:08:15.86</time>
<name>375</name>
</trkpt>
<trkpt lat="49.158625" lon="11.741687">
<ele>522.0</ele>
<speed>18.5</speed>
<course>1.5</course>
<desc>Speed 18.5 km/h Distance 1.67 km</desc>
<time>2010-06-13T06:08:16.86</time>
<name>376</name>
</trkpt>
<trkpt lat="49.158670" lon="11.741688">
<ele>523.9</ele>
<speed>19.0</speed>
<course>344.1</course>
<desc>Speed 19.0 km/h Distance 1.68 km</desc>
<time>2010-06-13T06:08:17.87</time>
<name>377</name>
</trkpt>
<trkpt lat="49.158708" lon="11.741672">
<ele>524.5</ele>
<speed>16.1</speed>
<course>347.1</course>
<desc>Speed 16.1 km/h Distance 1.68 km</desc>
<time>2010-06-13T06:08:18.86</time>
<name>378</name>
</trkpt>
<trkpt lat="49.158742" lon="11.741660">
<ele>524.8</ele>
<speed>14.3</speed>
<course>354.4</course>
<desc>Speed 14.3 km/h Distance 1.69 km</desc>
<time>2010-06-13T06:08:19.87</time>
<name>379</name>
</trkpt>
<trkpt lat="49.158775" lon="11.741655">
<ele>525.6</ele>
<speed>12.6</speed>
<course>357.2</course>
<desc>Speed 12.6 km/h Distance 1.69 km</desc>
<time>2010-06-13T06:08:20.86</time>
<name>380</name>
</trkpt>
<trkpt lat="49.158803" lon="11.741653">
<ele>526.0</ele>
<speed>11.7</speed>
<course>346.4</course>
<desc>Speed 11.7 km/h Distance 1.69 km</desc>
<time>2010-06-13T06:08:21.86</time>
<name>381</name>
</trkpt>
<trkpt lat="49.158835" lon="11.741642">
<ele>525.0</ele>
<speed>12.0</speed>
<course>345.0</course>
<desc>Speed 12.0 km/h Distance 1.70 km</desc>
<time>2010-06-13T06:08:22.86</time>
<name>382</name>
</trkpt>
<trkpt lat="49.158872" lon="11.741627">
<ele>522.6</ele>
<speed>11.1</speed>
<course>353.4</course>
<desc>Speed 11.1 km/h Distance 1.70 km</desc>
<time>2010-06-13T06:08:23.87</time>
<name>383</name>
</trkpt>
<trkpt lat="49.158900" lon="11.741622">
<ele>522.6</ele>
<speed>9.1</speed>
<course>2.7</course>
<desc>Speed 9.1 km/h Distance 1.70 km</desc>
<time>2010-06-13T06:08:24.87</time>
<name>384</name>
</trkpt>
<trkpt lat="49.158920" lon="11.741623">
<ele>523.1</ele>
<speed>8.4</speed>
<course>0.0</course>
<desc>Speed 8.4 km/h Distance 1.71 km</desc>
<time>2010-06-13T06:08:25.87</time>
<name>385</name>
</trkpt>
<trkpt lat="49.158937" lon="11.741623">
<ele>523.6</ele>
<speed>8.1</speed>
<course>19.5</course>
<desc>Speed 8.1 km/h Distance 1.71 km</desc>
<time>2010-06-13T06:08:26.86</time>
<name>386</name>
</trkpt>
<trkpt lat="49.158955" lon="11.741633">
<ele>524.2</ele>
<speed>8.0</speed>
<course>7.7</course>
<desc>Speed 8.0 km/h Distance 1.71 km</desc>
<time>2010-06-13T06:08:27.87</time>
<name>387</name>
</trkpt>
<trkpt lat="49.158972" lon="11.741637">
<ele>524.6</ele>
<speed>8.7</speed>
<course>33.2</course>
<desc>Speed 8.7 km/h Distance 1.71 km</desc>
<time>2010-06-13T06:08:28.88</time>
<name>388</name>
</trkpt>
<trkpt lat="49.158985" lon="11.741650">
<ele>525.8</ele>
<speed>8.9</speed>
<course>33.1</course>
<desc>Speed 8.9 km/h Distance 1.71 km</desc>
<time>2010-06-13T06:08:29.85</time>
<name>389</name>
</trkpt>
<trkpt lat="49.158997" lon="11.741662">
<ele>527.5</ele>
<speed>8.7</speed>
<course>30.9</course>
<desc>Speed 8.7 km/h Distance 1.72 km</desc>
<time>2010-06-13T06:08:30.85</time>
<name>390</name>
</trkpt>
<trkpt lat="49.159017" lon="11.741680">
<ele>528.8</ele>
<speed>9.5</speed>
<course>4.5</course>
<desc>Speed 9.5 km/h Distance 1.72 km</desc>
<time>2010-06-13T06:08:31.87</time>
<name>391</name>
</trkpt>
<trkpt lat="49.159045" lon="11.741683">
<ele>529.4</ele>
<speed>10.2</speed>
<course>9.8</course>
<desc>Speed 10.2 km/h Distance 1.72 km</desc>
<time>2010-06-13T06:08:32.86</time>
<name>392</name>
</trkpt>
<trkpt lat="49.159063" lon="11.741688">
<ele>529.6</ele>
<speed>9.3</speed>
<course>0.0</course>
<desc>Speed 9.3 km/h Distance 1.72 km</desc>
<time>2010-06-13T06:08:33.88</time>
<name>393</name>
</trkpt>
<trkpt lat="49.159080" lon="11.741688">
<ele>528.7</ele>
<speed>10.3</speed>
<course>351.6</course>
<desc>Speed 10.3 km/h Distance 1.72 km</desc>
<time>2010-06-13T06:08:34.87</time>
<name>394</name>
</trkpt>
<trkpt lat="49.159102" lon="11.741683">
<ele>528.3</ele>
<speed>10.8</speed>
<course>6.9</course>
<desc>Speed 10.8 km/h Distance 1.73 km</desc>
<time>2010-06-13T06:08:35.87</time>
<name>395</name>
</trkpt>
<trkpt lat="49.159128" lon="11.741688">
<ele>528.9</ele>
<speed>11.2</speed>
<course>350.0</course>
<desc>Speed 11.2 km/h Distance 1.73 km</desc>
<time>2010-06-13T06:08:36.88</time>
<name>396</name>
</trkpt>
<trkpt lat="49.159153" lon="11.741682">
<ele>528.7</ele>
<speed>10.0</speed>
<course>0.0</course>
<desc>Speed 10.0 km/h Distance 1.73 km</desc>
<time>2010-06-13T06:08:37.87</time>
<name>397</name>
</trkpt>
<trkpt lat="49.159178" lon="11.741682">
<ele>529.7</ele>
<speed>9.4</speed>
<course>4.1</course>
<desc>Speed 9.4 km/h Distance 1.74 km</desc>
<time>2010-06-13T06:08:38.89</time>
<name>398</name>
</trkpt>
<trkpt lat="49.159208" lon="11.741685">
<ele>531.1</ele>
<speed>9.8</speed>
<course>352.6</course>
<desc>Speed 9.8 km/h Distance 1.74 km</desc>
<time>2010-06-13T06:08:39.86</time>
<name>399</name>
</trkpt>
<trkpt lat="49.159233" lon="11.741680">
<ele>530.6</ele>
<speed>10.6</speed>
<course>0.0</course>
<desc>Speed 10.6 km/h Distance 1.74 km</desc>
<time>2010-06-13T06:08:40.87</time>
<name>400</name>
</trkpt>
<trkpt lat="49.159268" lon="11.741680">
<ele>532.5</ele>
<speed>11.3</speed>
<course>7.9</course>
<desc>Speed 11.3 km/h Distance 1.75 km</desc>
<time>2010-06-13T06:08:41.86</time>
<name>401</name>
</trkpt>
<trkpt lat="49.159300" lon="11.741687">
<ele>534.1</ele>
<speed>11.3</speed>
<course>358.8</course>
<desc>Speed 11.3 km/h Distance 1.75 km</desc>
<time>2010-06-13T06:08:42.87</time>
<name>402</name>
</trkpt>
<trkpt lat="49.159333" lon="11.741685">
<ele>535.0</ele>
<speed>9.9</speed>
<course>2.2</course>
<desc>Speed 9.9 km/h Distance 1.75 km</desc>
<time>2010-06-13T06:08:43.86</time>
<name>403</name>
</trkpt>
<trkpt lat="49.159357" lon="11.741687">
<ele>536.4</ele>
<speed>12.5</speed>
<course>16.3</course>
<desc>Speed 12.5 km/h Distance 1.76 km</desc>
<time>2010-06-13T06:08:44.86</time>
<name>404</name>
</trkpt>
<trkpt lat="49.159387" lon="11.741700">
<ele>537.8</ele>
<speed>13.1</speed>
<course>8.8</course>
<desc>Speed 13.1 km/h Distance 1.76 km</desc>
<time>2010-06-13T06:08:45.88</time>
<name>405</name>
</trkpt>
<trkpt lat="49.159422" lon="11.741708">
<ele>538.4</ele>
<speed>13.4</speed>
<course>355.6</course>
<desc>Speed 13.4 km/h Distance 1.76 km</desc>
<time>2010-06-13T06:08:46.87</time>
<name>406</name>
</trkpt>
<trkpt lat="49.159463" lon="11.741703">
<ele>538.1</ele>
<speed>13.8</speed>
<course>343.9</course>
<desc>Speed 13.8 km/h Distance 1.77 km</desc>
<time>2010-06-13T06:08:47.87</time>
<name>407</name>
</trkpt>
<trkpt lat="49.159505" lon="11.741685">
<ele>536.8</ele>
<speed>13.1</speed>
<course>350.3</course>
<desc>Speed 13.1 km/h Distance 1.77 km</desc>
<time>2010-06-13T06:08:48.87</time>
<name>408</name>
</trkpt>
<trkpt lat="49.159537" lon="11.741677">
<ele>536.2</ele>
<speed>12.0</speed>
<course>358.3</course>
<desc>Speed 12.0 km/h Distance 1.78 km</desc>
<time>2010-06-13T06:08:49.86</time>
<name>409</name>
</trkpt>
<trkpt lat="49.159573" lon="11.741675">
<ele>536.6</ele>
<speed>13.6</speed>
<course>356.3</course>
<desc>Speed 13.6 km/h Distance 1.78 km</desc>
<time>2010-06-13T06:08:50.87</time>
<name>410</name>
</trkpt>
<trkpt lat="49.159610" lon="11.741672">
<ele>536.4</ele>
<speed>14.1</speed>
<course>355.4</course>
<desc>Speed 14.1 km/h Distance 1.78 km</desc>
<time>2010-06-13T06:08:51.87</time>
<name>411</name>
</trkpt>
<trkpt lat="49.159652" lon="11.741667">
<ele>535.8</ele>
<speed>13.4</speed>
<course>351.1</course>
<desc>Speed 13.4 km/h Distance 1.79 km</desc>
<time>2010-06-13T06:08:52.86</time>
<name>412</name>
</trkpt>
<trkpt lat="49.159687" lon="11.741658">
<ele>535.0</ele>
<speed>12.6</speed>
<course>15.3</course>
<desc>Speed 12.6 km/h Distance 1.79 km</desc>
<time>2010-06-13T06:08:53.87</time>
<name>413</name>
</trkpt>
<trkpt lat="49.159707" lon="11.741667">
<ele>535.2</ele>
<speed>10.5</speed>
<course>340.0</course>
<desc>Speed 10.5 km/h Distance 1.80 km</desc>
<time>2010-06-13T06:08:54.86</time>
<name>414</name>
</trkpt>
<trkpt lat="49.159737" lon="11.741650">
<ele>534.1</ele>
<speed>11.8</speed>
<course>337.8</course>
<desc>Speed 11.8 km/h Distance 1.80 km</desc>
<time>2010-06-13T06:08:55.88</time>
<name>415</name>
</trkpt>
<trkpt lat="49.159763" lon="11.741633">
<ele>532.8</ele>
<speed>10.0</speed>
<course>347.7</course>
<desc>Speed 10.0 km/h Distance 1.80 km</desc>
<time>2010-06-13T06:08:56.86</time>
<name>416</name>
</trkpt>
<trkpt lat="49.159788" lon="11.741625">
<ele>532.6</ele>
<speed>10.0</speed>
<course>347.6</course>
<desc>Speed 10.0 km/h Distance 1.80 km</desc>
<time>2010-06-13T06:08:57.87</time>
<name>417</name>
</trkpt>
<trkpt lat="49.159818" lon="11.741615">
<ele>531.4</ele>
<speed>10.9</speed>
<course>342.9</course>
<desc>Speed 10.9 km/h Distance 1.81 km</desc>
<time>2010-06-13T06:08:58.87</time>
<name>418</name>
</trkpt>
<trkpt lat="49.159847" lon="11.741602">
<ele>530.8</ele>
<speed>11.8</speed>
<course>352.0</course>
<desc>Speed 11.8 km/h Distance 1.81 km</desc>
<time>2010-06-13T06:08:59.87</time>
<name>419</name>
</trkpt>
<trkpt lat="49.159885" lon="11.741593">
<ele>529.6</ele>
<speed>14.1</speed>
<course>358.8</course>
<desc>Speed 14.1 km/h Distance 1.82 km</desc>
<time>2010-06-13T06:09:00.86</time>
<name>420</name>
</trkpt>
<trkpt lat="49.159925" lon="11.741592">
<ele>529.1</ele>
<speed>16.0</speed>
<course>356.8</course>
<desc>Speed 16.0 km/h Distance 1.82 km</desc>
<time>2010-06-13T06:09:01.87</time>
<name>421</name>
</trkpt>
<trkpt lat="49.159965" lon="11.741588">
<ele>529.0</ele>
<speed>17.2</speed>
<course>351.9</course>
<desc>Speed 17.2 km/h Distance 1.82 km</desc>
<time>2010-06-13T06:09:02.86</time>
<name>422</name>
</trkpt>
<trkpt lat="49.160003" lon="11.741580">
<ele>528.7</ele>
<speed>16.5</speed>
<course>358.5</course>
<desc>Speed 16.5 km/h Distance 1.83 km</desc>
<time>2010-06-13T06:09:03.87</time>
<name>423</name>
</trkpt>
<trkpt lat="49.160048" lon="11.741578">
<ele>528.2</ele>
<speed>18.1</speed>
<course>346.6</course>
<desc>Speed 18.1 km/h Distance 1.83 km</desc>
<time>2010-06-13T06:09:04.88</time>
<name>424</name>
</trkpt>
<trkpt lat="49.160085" lon="11.741565">
<ele>527.0</ele>
<speed>17.2</speed>
<course>359.2</course>
<desc>Speed 17.2 km/h Distance 1.84 km</desc>
<time>2010-06-13T06:09:05.87</time>
<name>425</name>
</trkpt>
<trkpt lat="49.160138" lon="11.741563">
<ele>527.7</ele>
<speed>17.4</speed>
<course>359.4</course>
<desc>Speed 17.4 km/h Distance 1.84 km</desc>
<time>2010-06-13T06:09:06.88</time>
<name>426</name>
</trkpt>
<trkpt lat="49.160185" lon="11.741562">
<ele>527.6</ele>
<speed>16.5</speed>
<course>5.5</course>
<desc>Speed 16.5 km/h Distance 1.85 km</desc>
<time>2010-06-13T06:09:07.86</time>
<name>427</name>
</trkpt>
<trkpt lat="49.160230" lon="11.741568">
<ele>527.5</ele>
<speed>17.1</speed>
<course>358.8</course>
<desc>Speed 17.1 km/h Distance 1.85 km</desc>
<time>2010-06-13T06:09:08.86</time>
<name>428</name>
</trkpt>
<trkpt lat="49.160277" lon="11.741567">
<ele>526.4</ele>
<speed>16.6</speed>
<course>350.0</course>
<desc>Speed 16.6 km/h Distance 1.86 km</desc>
<time>2010-06-13T06:09:09.87</time>
<name>429</name>
</trkpt>
<trkpt lat="49.160320" lon="11.741555">
<ele>525.9</ele>
<speed>16.1</speed>
<course>355.4</course>
<desc>Speed 16.1 km/h Distance 1.86 km</desc>
<time>2010-06-13T06:09:10.87</time>
<name>430</name>
</trkpt>
<trkpt lat="49.160360" lon="11.741550">
<ele>526.0</ele>
<speed>14.9</speed>
<course>352.2</course>
<desc>Speed 14.9 km/h Distance 1.87 km</desc>
<time>2010-06-13T06:09:11.87</time>
<name>431</name>
</trkpt>
<trkpt lat="49.160400" lon="11.741542">
<ele>526.6</ele>
<speed>14.7</speed>
<course>354.7</course>
<desc>Speed 14.7 km/h Distance 1.87 km</desc>
<time>2010-06-13T06:09:12.86</time>
<name>432</name>
</trkpt>
<trkpt lat="49.160435" lon="11.741537">
<ele>527.0</ele>
<speed>12.1</speed>
<course>355.2</course>
<desc>Speed 12.1 km/h Distance 1.88 km</desc>
<time>2010-06-13T06:09:13.87</time>
<name>433</name>
</trkpt>
<trkpt lat="49.160473" lon="11.741532">
<ele>527.4</ele>
<speed>13.4</speed>
<course>3.9</course>
<desc>Speed 13.4 km/h Distance 1.88 km</desc>
<time>2010-06-13T06:09:14.86</time>
<name>434</name>
</trkpt>
<trkpt lat="49.160505" lon="11.741535">
<ele>528.1</ele>
<speed>12.0</speed>
<course>0.0</course>
<desc>Speed 12.0 km/h Distance 1.89 km</desc>
<time>2010-06-13T06:09:15.87</time>
<name>435</name>
</trkpt>
<trkpt lat="49.160545" lon="11.741535">
<ele>528.9</ele>
<speed>13.2</speed>
<course>4.4</course>
<desc>Speed 13.2 km/h Distance 1.89 km</desc>
<time>2010-06-13T06:09:16.87</time>
<name>436</name>
</trkpt>
<trkpt lat="49.160587" lon="11.741540">
<ele>529.7</ele>
<speed>13.4</speed>
<course>359.6</course>
<desc>Speed 13.4 km/h Distance 1.89 km</desc>
<time>2010-06-13T06:09:17.86</time>
<name>437</name>
</trkpt>
<trkpt lat="49.160625" lon="11.741538">
<ele>529.9</ele>
<speed>13.9</speed>
<course>3.5</course>
<desc>Speed 13.9 km/h Distance 1.90 km</desc>
<time>2010-06-13T06:09:18.88</time>
<name>438</name>
</trkpt>
<trkpt lat="49.160658" lon="11.741542">
<ele>530.6</ele>
<speed>13.8</speed>
<course>352.8</course>
<desc>Speed 13.8 km/h Distance 1.90 km</desc>
<time>2010-06-13T06:09:19.86</time>
<name>439</name>
</trkpt>
<trkpt lat="49.160693" lon="11.741535">
<ele>531.0</ele>
<speed>12.7</speed>
<course>358.1</course>
<desc>Speed 12.7 km/h Distance 1.91 km</desc>
<time>2010-06-13T06:09:20.85</time>
<name>440</name>
</trkpt>
<trkpt lat="49.160732" lon="11.741533">
<ele>531.4</ele>
<speed>13.0</speed>
<course>352.3</course>
<desc>Speed 13.0 km/h Distance 1.91 km</desc>
<time>2010-06-13T06:09:21.85</time>
<name>441</name>
</trkpt>
<trkpt lat="49.160763" lon="11.741527">
<ele>531.6</ele>
<speed>13.4</speed>
<course>352.6</course>
<desc>Speed 13.4 km/h Distance 1.91 km</desc>
<time>2010-06-13T06:09:22.87</time>
<name>442</name>
</trkpt>
<trkpt lat="49.160805" lon="11.741518">
<ele>531.8</ele>
<speed>14.1</speed>
<course>0.6</course>
<desc>Speed 14.1 km/h Distance 1.92 km</desc>
<time>2010-06-13T06:09:23.86</time>
<name>443</name>
</trkpt>
<trkpt lat="49.160847" lon="11.741518">
<ele>533.4</ele>
<speed>15.6</speed>
<course>7.3</course>
<desc>Speed 15.6 km/h Distance 1.92 km</desc>
<time>2010-06-13T06:09:24.85</time>
<name>444</name>
</trkpt>
<trkpt lat="49.160898" lon="11.741528">
<ele>533.8</ele>
<speed>16.8</speed>
<course>7.7</course>
<desc>Speed 16.8 km/h Distance 1.93 km</desc>
<time>2010-06-13T06:09:25.85</time>
<name>445</name>
</trkpt>
<trkpt lat="49.160947" lon="11.741538">
<ele>533.4</ele>
<speed>16.2</speed>
<course>355.5</course>
<desc>Speed 16.2 km/h Distance 1.93 km</desc>
<time>2010-06-13T06:09:26.86</time>
<name>446</name>
</trkpt>
<trkpt lat="49.161002" lon="11.741532">
<ele>533.1</ele>
<speed>16.6</speed>
<course>352.8</course>
<desc>Speed 16.6 km/h Distance 1.94 km</desc>
<time>2010-06-13T06:09:27.88</time>
<name>447</name>
</trkpt>
<trkpt lat="49.161045" lon="11.741523">
<ele>533.6</ele>
<speed>16.5</speed>
<course>351.0</course>
<desc>Speed 16.5 km/h Distance 1.95 km</desc>
<time>2010-06-13T06:09:28.86</time>
<name>448</name>
</trkpt>
<trkpt lat="49.161087" lon="11.741513">
<ele>533.8</ele>
<speed>15.8</speed>
<course>10.3</course>
<desc>Speed 15.8 km/h Distance 1.95 km</desc>
<time>2010-06-13T06:09:29.86</time>
<name>449</name>
</trkpt>
<trkpt lat="49.161135" lon="11.741527">
<ele>535.3</ele>
<speed>17.7</speed>
<course>358.5</course>
<desc>Speed 17.7 km/h Distance 1.96 km</desc>
<time>2010-06-13T06:09:30.86</time>
<name>450</name>
</trkpt>
<trkpt lat="49.161183" lon="11.741525">
<ele>535.7</ele>
<speed>17.2</speed>
<course>0.9</course>
<desc>Speed 17.2 km/h Distance 1.96 km</desc>
<time>2010-06-13T06:09:31.87</time>
<name>451</name>
</trkpt>
<trkpt lat="49.161235" lon="11.741527">
<ele>535.2</ele>
<speed>17.2</speed>
<course>350.7</course>
<desc>Speed 17.2 km/h Distance 1.97 km</desc>
<time>2010-06-13T06:09:32.85</time>
<name>452</name>
</trkpt>
<trkpt lat="49.161288" lon="11.741513">
<ele>534.2</ele>
<speed>19.3</speed>
<course>357.7</course>
<desc>Speed 19.3 km/h Distance 1.97 km</desc>
<time>2010-06-13T06:09:33.85</time>
<name>453</name>
</trkpt>
<trkpt lat="49.161337" lon="11.741510">
<ele>534.7</ele>
<speed>19.3</speed>
<course>356.9</course>
<desc>Speed 19.3 km/h Distance 1.98 km</desc>
<time>2010-06-13T06:09:34.86</time>
<name>454</name>
</trkpt>
<trkpt lat="49.161395" lon="11.741505">
<ele>533.8</ele>
<speed>19.4</speed>
<course>354.7</course>
<desc>Speed 19.4 km/h Distance 1.98 km</desc>
<time>2010-06-13T06:09:35.87</time>
<name>455</name>
</trkpt>
<trkpt lat="49.161453" lon="11.741497">
<ele>533.6</ele>
<speed>21.1</speed>
<course>352.3</course>
<desc>Speed 21.1 km/h Distance 1.99 km</desc>
<time>2010-06-13T06:09:36.84</time>
<name>456</name>
</trkpt>
<trkpt lat="49.161518" lon="11.741483">
<ele>533.4</ele>
<speed>21.5</speed>
<course>0.8</course>
<desc>Speed 21.5 km/h Distance 2.00 km</desc>
<time>2010-06-13T06:09:37.86</time>
<name>457</name>
</trkpt>
<trkpt lat="49.161580" lon="11.741483">
<ele>532.9</ele>
<speed>21.9</speed>
<course>1.8</course>
<desc>Speed 21.9 km/h Distance 2.01 km</desc>
<time>2010-06-13T06:09:38.86</time>
<name>458</name>
</trkpt>
<trkpt lat="49.161645" lon="11.741487">
<ele>532.3</ele>
<speed>24.0</speed>
<course>353.1</course>
<desc>Speed 24.0 km/h Distance 2.01 km</desc>
<time>2010-06-13T06:09:39.87</time>
<name>459</name>
</trkpt>
<trkpt lat="49.161700" lon="11.741477">
<ele>531.7</ele>
<speed>22.8</speed>
<course>354.8</course>
<desc>Speed 22.8 km/h Distance 2.02 km</desc>
<time>2010-06-13T06:09:40.85</time>
<name>460</name>
</trkpt>
<trkpt lat="49.161760" lon="11.741468">
<ele>531.4</ele>
<speed>24.5</speed>
<course>351.4</course>
<desc>Speed 24.5 km/h Distance 2.03 km</desc>
<time>2010-06-13T06:09:41.86</time>
<name>461</name>
</trkpt>
<trkpt lat="49.161825" lon="11.741453">
<ele>531.7</ele>
<speed>25.8</speed>
<course>355.0</course>
<desc>Speed 25.8 km/h Distance 2.03 km</desc>
<time>2010-06-13T06:09:42.88</time>
<name>462</name>
</trkpt>
<trkpt lat="49.161900" lon="11.741443">
<ele>531.4</ele>
<speed>26.9</speed>
<course>358.5</course>
<desc>Speed 26.9 km/h Distance 2.04 km</desc>
<time>2010-06-13T06:09:43.87</time>
<name>463</name>
</trkpt>
<trkpt lat="49.161978" lon="11.741440">
<ele>530.9</ele>
<speed>29.2</speed>
<course>357.6</course>
<desc>Speed 29.2 km/h Distance 2.05 km</desc>
<time>2010-06-13T06:09:44.86</time>
<name>464</name>
</trkpt>
<trkpt lat="49.162055" lon="11.741435">
<ele>530.3</ele>
<speed>29.7</speed>
<course>356.2</course>
<desc>Speed 29.7 km/h Distance 2.06 km</desc>
<time>2010-06-13T06:09:45.86</time>
<name>465</name>
</trkpt>
<trkpt lat="49.162137" lon="11.741427">
<ele>530.0</ele>
<speed>31.3</speed>
<course>353.4</course>
<desc>Speed 31.3 km/h Distance 2.07 km</desc>
<time>2010-06-13T06:09:46.85</time>
<name>466</name>
</trkpt>
<trkpt lat="49.162222" lon="11.741412">
<ele>528.8</ele>
<speed>32.7</speed>
<course>355.1</course>
<desc>Speed 32.7 km/h Distance 2.08 km</desc>
<time>2010-06-13T06:09:47.86</time>
<name>467</name>
</trkpt>
<trkpt lat="49.162312" lon="11.741400">
<ele>528.7</ele>
<speed>35.3</speed>
<course>353.1</course>
<desc>Speed 35.3 km/h Distance 2.09 km</desc>
<time>2010-06-13T06:09:48.86</time>
<name>468</name>
</trkpt>
<trkpt lat="49.162402" lon="11.741383">
<ele>529.2</ele>
<speed>34.8</speed>
<course>356.6</course>
<desc>Speed 34.8 km/h Distance 2.10 km</desc>
<time>2010-06-13T06:09:49.85</time>
<name>469</name>
</trkpt>
<trkpt lat="49.162493" lon="11.741375">
<ele>529.2</ele>
<speed>35.5</speed>
<course>359.3</course>
<desc>Speed 35.5 km/h Distance 2.11 km</desc>
<time>2010-06-13T06:09:50.85</time>
<name>470</name>
</trkpt>
<trkpt lat="49.162595" lon="11.741373">
<ele>528.6</ele>
<speed>37.6</speed>
<course>0.6</course>
<desc>Speed 37.6 km/h Distance 2.12 km</desc>
<time>2010-06-13T06:09:51.86</time>
<name>471</name>
</trkpt>
<trkpt lat="49.162692" lon="11.741375">
<ele>528.6</ele>
<speed>37.5</speed>
<course>3.2</course>
<desc>Speed 37.5 km/h Distance 2.13 km</desc>
<time>2010-06-13T06:09:52.85</time>
<name>472</name>
</trkpt>
<trkpt lat="49.162790" lon="11.741383">
<ele>527.0</ele>
<speed>37.2</speed>
<course>359.3</course>
<desc>Speed 37.2 km/h Distance 2.14 km</desc>
<time>2010-06-13T06:09:53.86</time>
<name>473</name>
</trkpt>
<trkpt lat="49.162895" lon="11.741382">
<ele>526.6</ele>
<speed>36.4</speed>
<course>359.5</course>
<desc>Speed 36.4 km/h Distance 2.15 km</desc>
<time>2010-06-13T06:09:54.88</time>
<name>474</name>
</trkpt>
<trkpt lat="49.162985" lon="11.741380">
<ele>526.2</ele>
<speed>33.7</speed>
<course>0.1</course>
<desc>Speed 33.7 km/h Distance 2.16 km</desc>
<time>2010-06-13T06:09:55.86</time>
<name>475</name>
</trkpt>
<trkpt lat="49.163063" lon="11.741380">
<ele>525.5</ele>
<speed>31.6</speed>
<course>358.4</course>
<desc>Speed 31.6 km/h Distance 2.17 km</desc>
<time>2010-06-13T06:09:56.85</time>
<name>476</name>
</trkpt>
<trkpt lat="49.163150" lon="11.741377">
<ele>524.8</ele>
<speed>33.2</speed>
<course>357.2</course>
<desc>Speed 33.2 km/h Distance 2.18 km</desc>
<time>2010-06-13T06:09:57.88</time>
<name>477</name>
</trkpt>
<trkpt lat="49.163240" lon="11.741370">
<ele>524.0</ele>
<speed>32.7</speed>
<course>355.6</course>
<desc>Speed 32.7 km/h Distance 2.19 km</desc>
<time>2010-06-13T06:09:58.87</time>
<name>478</name>
</trkpt>
<trkpt lat="49.163325" lon="11.741360">
<ele>522.0</ele>
<speed>30.8</speed>
<course>356.2</course>
<desc>Speed 30.8 km/h Distance 2.20 km</desc>
<time>2010-06-13T06:09:59.85</time>
<name>479</name>
</trkpt>
<trkpt lat="49.163407" lon="11.741352">
<ele>520.8</ele>
<speed>29.8</speed>
<course>356.7</course>
<desc>Speed 29.8 km/h Distance 2.21 km</desc>
<time>2010-06-13T06:10:00.86</time>
<name>480</name>
</trkpt>
<trkpt lat="49.163482" lon="11.741345">
<ele>519.9</ele>
<speed>28.6</speed>
<course>1.0</course>
<desc>Speed 28.6 km/h Distance 2.22 km</desc>
<time>2010-06-13T06:10:01.85</time>
<name>481</name>
</trkpt>
<trkpt lat="49.163555" lon="11.741347">
<ele>519.8</ele>
<speed>27.4</speed>
<course>3.1</course>
<desc>Speed 27.4 km/h Distance 2.23 km</desc>
<time>2010-06-13T06:10:02.86</time>
<name>482</name>
</trkpt>
<trkpt lat="49.163617" lon="11.741352">
<ele>519.6</ele>
<speed>24.2</speed>
<course>2.2</course>
<desc>Speed 24.2 km/h Distance 2.23 km</desc>
<time>2010-06-13T06:10:03.86</time>
<name>483</name>
</trkpt>
<trkpt lat="49.163672" lon="11.741355">
<ele>519.4</ele>
<speed>21.7</speed>
<course>0.0</course>
<desc>Speed 21.7 km/h Distance 2.24 km</desc>
<time>2010-06-13T06:10:04.86</time>
<name>484</name>
</trkpt>
<trkpt lat="49.163717" lon="11.741355">
<ele>519.0</ele>
<speed>19.3</speed>
<course>0.0</course>
<desc>Speed 19.3 km/h Distance 2.24 km</desc>
<time>2010-06-13T06:10:05.86</time>
<name>485</name>
</trkpt>
<trkpt lat="49.163760" lon="11.741355">
<ele>518.7</ele>
<speed>17.4</speed>
<course>1.2</course>
<desc>Speed 17.4 km/h Distance 2.25 km</desc>
<time>2010-06-13T06:10:06.87</time>
<name>486</name>
</trkpt>
<trkpt lat="49.163800" lon="11.741357">
<ele>518.4</ele>
<speed>16.6</speed>
<course>8.0</course>
<desc>Speed 16.6 km/h Distance 2.25 km</desc>
<time>2010-06-13T06:10:07.86</time>
<name>487</name>
</trkpt>
<trkpt lat="49.163838" lon="11.741365">
<ele>518.1</ele>
<speed>16.5</speed>
<course>17.3</course>
<desc>Speed 16.5 km/h Distance 2.26 km</desc>
<time>2010-06-13T06:10:08.85</time>
<name>488</name>
</trkpt>
<trkpt lat="49.163873" lon="11.741382">
<ele>517.9</ele>
<speed>16.6</speed>
<course>16.2</course>
<desc>Speed 16.6 km/h Distance 2.26 km</desc>
<time>2010-06-13T06:10:09.85</time>
<name>489</name>
</trkpt>
<trkpt lat="49.163918" lon="11.741402">
<ele>517.2</ele>
<speed>17.0</speed>
<course>20.4</course>
<desc>Speed 17.0 km/h Distance 2.27 km</desc>
<time>2010-06-13T06:10:10.86</time>
<name>490</name>
</trkpt>
<trkpt lat="49.163953" lon="11.741422">
<ele>516.2</ele>
<speed>17.8</speed>
<course>22.6</course>
<desc>Speed 17.8 km/h Distance 2.27 km</desc>
<time>2010-06-13T06:10:11.85</time>
<name>491</name>
</trkpt>
<trkpt lat="49.163990" lon="11.741445">
<ele>515.6</ele>
<speed>18.9</speed>
<course>24.7</course>
<desc>Speed 18.9 km/h Distance 2.28 km</desc>
<time>2010-06-13T06:10:12.86</time>
<name>492</name>
</trkpt>
<trkpt lat="49.164035" lon="11.741477">
<ele>515.9</ele>
<speed>19.8</speed>
<course>23.6</course>
<desc>Speed 19.8 km/h Distance 2.28 km</desc>
<time>2010-06-13T06:10:13.86</time>
<name>493</name>
</trkpt>
<trkpt lat="49.164080" lon="11.741507">
<ele>514.6</ele>
<speed>21.1</speed>
<course>22.4</course>
<desc>Speed 21.1 km/h Distance 2.29 km</desc>
<time>2010-06-13T06:10:14.88</time>
<name>494</name>
</trkpt>
<trkpt lat="49.164125" lon="11.741535">
<ele>512.8</ele>
<speed>21.7</speed>
<course>23.9</course>
<desc>Speed 21.7 km/h Distance 2.29 km</desc>
<time>2010-06-13T06:10:15.85</time>
<name>495</name>
</trkpt>
<trkpt lat="49.164177" lon="11.741570">
<ele>511.7</ele>
<speed>22.2</speed>
<course>25.9</course>
<desc>Speed 22.2 km/h Distance 2.30 km</desc>
<time>2010-06-13T06:10:16.87</time>
<name>496</name>
</trkpt>
<trkpt lat="49.164228" lon="11.741608">
<ele>512.0</ele>
<speed>22.4</speed>
<course>28.2</course>
<desc>Speed 22.4 km/h Distance 2.30 km</desc>
<time>2010-06-13T06:10:17.86</time>
<name>497</name>
</trkpt>
<trkpt lat="49.164275" lon="11.741647">
<ele>512.0</ele>
<speed>21.7</speed>
<course>24.3</course>
<desc>Speed 21.7 km/h Distance 2.31 km</desc>
<time>2010-06-13T06:10:18.87</time>
<name>498</name>
</trkpt>
<trkpt lat="49.164323" lon="11.741680">
<ele>511.3</ele>
<speed>21.1</speed>
<course>21.6</course>
<desc>Speed 21.1 km/h Distance 2.32 km</desc>
<time>2010-06-13T06:10:19.85</time>
<name>499</name>
</trkpt>
<trkpt lat="49.164378" lon="11.741713">
<ele>510.4</ele>
<speed>22.2</speed>
<course>24.9</course>
<desc>Speed 22.2 km/h Distance 2.32 km</desc>
<time>2010-06-13T06:10:20.87</time>
<name>500</name>
</trkpt>
<trkpt lat="49.164430" lon="11.741750">
<ele>509.4</ele>
<speed>22.0</speed>
<course>26.4</course>
<desc>Speed 22.0 km/h Distance 2.33 km</desc>
<time>2010-06-13T06:10:21.87</time>
<name>501</name>
</trkpt>
<trkpt lat="49.164478" lon="11.741787">
<ele>509.1</ele>
<speed>21.4</speed>
<course>29.1</course>
<desc>Speed 21.4 km/h Distance 2.34 km</desc>
<time>2010-06-13T06:10:22.85</time>
<name>502</name>
</trkpt>
<trkpt lat="49.164523" lon="11.741825">
<ele>509.1</ele>
<speed>20.3</speed>
<course>32.1</course>
<desc>Speed 20.3 km/h Distance 2.34 km</desc>
<time>2010-06-13T06:10:23.86</time>
<name>503</name>
</trkpt>
<trkpt lat="49.164565" lon="11.741865">
<ele>510.1</ele>
<speed>20.1</speed>
<course>27.4</course>
<desc>Speed 20.1 km/h Distance 2.35 km</desc>
<time>2010-06-13T06:10:24.85</time>
<name>504</name>
</trkpt>
<trkpt lat="49.164613" lon="11.741903">
<ele>510.9</ele>
<speed>19.9</speed>
<course>28.9</course>
<desc>Speed 19.9 km/h Distance 2.35 km</desc>
<time>2010-06-13T06:10:25.86</time>
<name>505</name>
</trkpt>
<trkpt lat="49.164657" lon="11.741940">
<ele>511.6</ele>
<speed>18.7</speed>
<course>50.3</course>
<desc>Speed 18.7 km/h Distance 2.36 km</desc>
<time>2010-06-13T06:10:26.86</time>
<name>506</name>
</trkpt>
<trkpt lat="49.164688" lon="11.741998">
<ele>514.0</ele>
<speed>17.7</speed>
<course>21.9</course>
<desc>Speed 17.7 km/h Distance 2.36 km</desc>
<time>2010-06-13T06:10:27.86</time>
<name>507</name>
</trkpt>
<trkpt lat="49.164732" lon="11.742025">
<ele>514.2</ele>
<speed>17.1</speed>
<course>37.1</course>
<desc>Speed 17.1 km/h Distance 2.37 km</desc>
<time>2010-06-13T06:10:28.86</time>
<name>508</name>
</trkpt>
<trkpt lat="49.164763" lon="11.742062">
<ele>515.0</ele>
<speed>15.2</speed>
<course>33.2</course>
<desc>Speed 15.2 km/h Distance 2.37 km</desc>
<time>2010-06-13T06:10:29.86</time>
<name>509</name>
</trkpt>
<trkpt lat="49.164792" lon="11.742090">
<ele>515.7</ele>
<speed>14.9</speed>
<course>33.2</course>
<desc>Speed 14.9 km/h Distance 2.38 km</desc>
<time>2010-06-13T06:10:30.86</time>
<name>510</name>
</trkpt>
<trkpt lat="49.164823" lon="11.742122">
<ele>516.5</ele>
<speed>13.8</speed>
<course>30.0</course>
<desc>Speed 13.8 km/h Distance 2.38 km</desc>
<time>2010-06-13T06:10:31.86</time>
<name>511</name>
</trkpt>
<trkpt lat="49.164852" lon="11.742147">
<ele>516.9</ele>
<speed>12.8</speed>
<course>33.2</course>
<desc>Speed 12.8 km/h Distance 2.38 km</desc>
<time>2010-06-13T06:10:32.86</time>
<name>512</name>
</trkpt>
<trkpt lat="49.164878" lon="11.742173">
<ele>517.3</ele>
<speed>13.0</speed>
<course>16.4</course>
<desc>Speed 13.0 km/h Distance 2.39 km</desc>
<time>2010-06-13T06:10:33.86</time>
<name>513</name>
</trkpt>
<trkpt lat="49.164912" lon="11.742188">
<ele>516.9</ele>
<speed>13.7</speed>
<course>37.0</course>
<desc>Speed 13.7 km/h Distance 2.39 km</desc>
<time>2010-06-13T06:10:34.86</time>
<name>514</name>
</trkpt>
<trkpt lat="49.164933" lon="11.742213">
<ele>518.2</ele>
<speed>12.1</speed>
<course>40.5</course>
<desc>Speed 12.1 km/h Distance 2.40 km</desc>
<time>2010-06-13T06:10:35.86</time>
<name>515</name>
</trkpt>
<trkpt lat="49.164955" lon="11.742242">
<ele>519.1</ele>
<speed>11.4</speed>
<course>37.0</course>
<desc>Speed 11.4 km/h Distance 2.40 km</desc>
<time>2010-06-13T06:10:36.85</time>
<name>516</name>
</trkpt>
<trkpt lat="49.164977" lon="11.742267">
<ele>520.0</ele>
<speed>9.7</speed>
<course>10.6</course>
<desc>Speed 9.7 km/h Distance 2.40 km</desc>
<time>2010-06-13T06:10:37.86</time>
<name>517</name>
</trkpt>
<trkpt lat="49.165000" lon="11.742273">
<ele>519.4</ele>
<speed>8.7</speed>
<course>29.8</course>
<desc>Speed 8.7 km/h Distance 2.40 km</desc>
<time>2010-06-13T06:10:38.85</time>
<name>518</name>
</trkpt>
<trkpt lat="49.165013" lon="11.742285">
<ele>519.4</ele>
<speed>7.7</speed>
<course>33.2</course>
<desc>Speed 7.7 km/h Distance 2.41 km</desc>
<time>2010-06-13T06:10:39.86</time>
<name>519</name>
</trkpt>
<trkpt lat="49.165033" lon="11.742305">
<ele>520.8</ele>
<speed>9.1</speed>
<course>28.6</course>
<desc>Speed 9.1 km/h Distance 2.41 km</desc>
<time>2010-06-13T06:10:40.84</time>
<name>520</name>
</trkpt>
<trkpt lat="49.165053" lon="11.742322">
<ele>521.2</ele>
<speed>8.6</speed>
<course>35.7</course>
<desc>Speed 8.6 km/h Distance 2.41 km</desc>
<time>2010-06-13T06:10:41.85</time>
<name>521</name>
</trkpt>
<trkpt lat="49.165070" lon="11.742340">
<ele>521.6</ele>
<speed>8.2</speed>
<course>45.8</course>
<desc>Speed 8.2 km/h Distance 2.41 km</desc>
<time>2010-06-13T06:10:42.85</time>
<name>522</name>
</trkpt>
<trkpt lat="49.165082" lon="11.742358">
<ele>522.2</ele>
<speed>7.6</speed>
<course>45.8</course>
<desc>Speed 7.6 km/h Distance 2.42 km</desc>
<time>2010-06-13T06:10:43.85</time>
<name>523</name>
</trkpt>
<trkpt lat="49.165093" lon="11.742377">
<ele>523.1</ele>
<speed>8.3</speed>
<course>23.5</course>
<desc>Speed 8.3 km/h Distance 2.42 km</desc>
<time>2010-06-13T06:10:44.86</time>
<name>524</name>
</trkpt>
<trkpt lat="49.165108" lon="11.742387">
<ele>523.6</ele>
<speed>7.3</speed>
<course>18.1</course>
<desc>Speed 7.3 km/h Distance 2.42 km</desc>
<time>2010-06-13T06:10:45.87</time>
<name>525</name>
</trkpt>
<trkpt lat="49.165125" lon="11.742395">
<ele>523.8</ele>
<speed>8.3</speed>
<course>20.6</course>
<desc>Speed 8.3 km/h Distance 2.42 km</desc>
<time>2010-06-13T06:10:46.85</time>
<name>526</name>
</trkpt>
<trkpt lat="49.165148" lon="11.742408">
<ele>524.8</ele>
<speed>8.1</speed>
<course>24.5</course>
<desc>Speed 8.1 km/h Distance 2.42 km</desc>
<time>2010-06-13T06:10:47.85</time>
<name>527</name>
</trkpt>
<trkpt lat="49.165165" lon="11.742420">
<ele>526.3</ele>
<speed>6.2</speed>
<course>11.4</course>
<desc>Speed 6.2 km/h Distance 2.43 km</desc>
<time>2010-06-13T06:10:48.86</time>
<name>528</name>
</trkpt>
<trkpt lat="49.165187" lon="11.742427">
<ele>526.9</ele>
<speed>7.1</speed>
<course>338.5</course>
<desc>Speed 7.1 km/h Distance 2.43 km</desc>
<time>2010-06-13T06:10:49.85</time>
<name>529</name>
</trkpt>
<trkpt lat="49.165203" lon="11.742417">
<ele>527.6</ele>
<speed>6.6</speed>
<course>336.6</course>
<desc>Speed 6.6 km/h Distance 2.43 km</desc>
<time>2010-06-13T06:10:50.86</time>
<name>530</name>
</trkpt>
<trkpt lat="49.165213" lon="11.742410">
<ele>528.7</ele>
<speed>4.4</speed>
<course>0.0</course>
<desc>Speed 4.4 km/h Distance 2.43 km</desc>
<time>2010-06-13T06:10:51.85</time>
<name>531</name>
</trkpt>
<trkpt lat="49.165235" lon="11.742410">
<ele>528.8</ele>
<speed>5.6</speed>
<course>355.6</course>
<desc>Speed 5.6 km/h Distance 2.43 km</desc>
<time>2010-06-13T06:10:52.85</time>
<name>532</name>
</trkpt>
<trkpt lat="49.165245" lon="11.742408">
<ele>529.0</ele>
<speed>2.7</speed>
<course>0.0</course>
<desc>Speed 2.7 km/h Distance 2.43 km</desc>
<time>2010-06-13T06:10:53.86</time>
<name>533</name>
</trkpt>
<trkpt lat="49.165253" lon="11.742408">
<ele>528.1</ele>
<speed>0.6</speed>
<course>29.0</course>
<desc>Speed 0.6 km/h Distance 2.44 km</desc>
<time>2010-06-13T06:10:54.85</time>
<name>534</name>
</trkpt>
<trkpt lat="49.165265" lon="11.742418">
<ele>528.5</ele>
<speed>1.1</speed>
<course>68.7</course>
<desc>Speed 1.1 km/h Distance 2.44 km</desc>
<time>2010-06-13T06:10:55.85</time>
<name>535</name>
</trkpt>
<trkpt lat="49.165267" lon="11.742425">
<ele>528.1</ele>
<speed>1.9</speed>
<course>90.0</course>
<desc>Speed 1.9 km/h Distance 2.44 km</desc>
<time>2010-06-13T06:10:56.86</time>
<name>536</name>
</trkpt>
<trkpt lat="49.165267" lon="11.742435">
<ele>528.4</ele>
<speed>1.5</speed>
<course>330.8</course>
<desc>Speed 1.5 km/h Distance 2.44 km</desc>
<time>2010-06-13T06:10:57.85</time>
<name>537</name>
</trkpt>
<trkpt lat="49.165270" lon="11.742432">
<ele>529.0</ele>
<speed>0.6</speed>
<course>62.6</course>
<desc>Speed 0.6 km/h Distance 2.44 km</desc>
<time>2010-06-13T06:10:58.87</time>
<name>538</name>
</trkpt>
<trkpt lat="49.165272" lon="11.742437">
<ele>529.8</ele>
<speed>1.1</speed>
<course>167.4</course>
<desc>Speed 1.1 km/h Distance 2.44 km</desc>
<time>2010-06-13T06:10:59.85</time>
<name>539</name>
</trkpt>
<trkpt lat="49.165270" lon="11.742437">
<ele>530.0</ele>
<speed>1.0</speed>
<course>222.5</course>
<desc>Speed 1.0 km/h Distance 2.44 km</desc>
<time>2010-06-13T06:11:00.86</time>
<name>540</name>
</trkpt>
<trkpt lat="49.165267" lon="11.742432">
<ele>530.2</ele>
<speed>1.2</speed>
<course>231.9</course>
<desc>Speed 1.2 km/h Distance 2.44 km</desc>
<time>2010-06-13T06:11:01.84</time>
<name>541</name>
</trkpt>
<trkpt lat="49.165265" lon="11.742428">
<ele>530.5</ele>
<speed>1.3</speed>
<course>231.9</course>
<desc>Speed 1.3 km/h Distance 2.44 km</desc>
<time>2010-06-13T06:11:02.92</time>
<name>542</name>
</trkpt>
<trkpt lat="49.165265" lon="11.742428">
<ele>530.5</ele>
<speed>1.3</speed>
<course>198.8</course>
<desc>Speed 1.3 km/h Distance 2.44 km</desc>
<time>2010-06-13T06:11:03.39</time>
<name>543</name>
</trkpt>
<trkpt lat="49.165258" lon="11.742425">
<ele>530.3</ele>
<speed>1.5</speed>
<course>175.6</course>
<desc>Speed 1.5 km/h Distance 2.44 km</desc>
<time>2010-06-13T06:11:04.39</time>
<name>544</name>
</trkpt>
<trkpt lat="49.165248" lon="11.742425">
<ele>530.5</ele>
<speed>2.2</speed>
<course>175.6</course>
<desc>Speed 2.2 km/h Distance 2.44 km</desc>
<time>2010-06-13T06:11:05.98</time>
<name>545</name>
</trkpt>
<trkpt lat="49.165248" lon="11.742425">
<ele>530.5</ele>
<speed>2.2</speed>
<course>231.9</course>
<desc>Speed 2.2 km/h Distance 2.44 km</desc>
<time>2010-06-13T06:11:06.39</time>
<name>546</name>
</trkpt>
<trkpt lat="49.165247" lon="11.742422">
<ele>529.9</ele>
<speed>0.9</speed>
<course>231.9</course>
<desc>Speed 0.9 km/h Distance 2.44 km</desc>
<time>2010-06-13T06:11:08.06</time>
<name>547</name>
</trkpt>
<trkpt lat="49.165247" lon="11.742422">
<ele>529.9</ele>
<speed>0.9</speed>
<course>319.8</course>
<desc>Speed 0.9 km/h Distance 2.44 km</desc>
<time>2010-06-13T06:11:08.39</time>
<name>548</name>
</trkpt>
<trkpt lat="49.165258" lon="11.742407">
<ele>529.0</ele>
<speed>0.8</speed>
<course>37.2</course>
<desc>Speed 0.8 km/h Distance 2.44 km</desc>
<time>2010-06-13T06:11:09.39</time>
<name>549</name>
</trkpt>
<trkpt lat="49.165260" lon="11.742408">
<ele>528.6</ele>
<speed>0.1</speed>
<course>37.2</course>
<desc>Speed 0.1 km/h Distance 2.44 km</desc>
<time>2010-06-13T06:11:10.84</time>
<name>550</name>
</trkpt>
<trkpt lat="49.165260" lon="11.742410">
<ele>528.4</ele>
<speed>0.2</speed>
<course>12.6</course>
<desc>Speed 0.2 km/h Distance 2.44 km</desc>
<time>2010-06-13T06:11:11.85</time>
<name>551</name>
</trkpt>
<trkpt lat="49.165262" lon="11.742410">
<ele>528.3</ele>
<speed>1.0</speed>
<course>12.6</course>
<desc>Speed 1.0 km/h Distance 2.44 km</desc>
<time>2010-06-13T06:11:12.90</time>
<name>552</name>
</trkpt>
<trkpt lat="49.165262" lon="11.742410">
<ele>528.3</ele>
<speed>1.0</speed>
<course>347.4</course>
<desc>Speed 1.0 km/h Distance 2.44 km</desc>
<time>2010-06-13T06:11:13.40</time>
<name>553</name>
</trkpt>
<trkpt lat="49.165267" lon="11.742408">
<ele>527.9</ele>
<speed>1.8</speed>
<course>347.4</course>
<desc>Speed 1.8 km/h Distance 2.45 km</desc>
<time>2010-06-13T06:11:14.85</time>
<name>554</name>
</trkpt>
<trkpt lat="49.165270" lon="11.742407">
<ele>527.8</ele>
<speed>1.2</speed>
<course>12.6</course>
<desc>Speed 1.2 km/h Distance 2.45 km</desc>
<time>2010-06-13T06:11:15.84</time>
<name>555</name>
</trkpt>
<trkpt lat="49.165272" lon="11.742407">
<ele>527.6</ele>
<speed>0.1</speed>
<course>128.1</course>
<desc>Speed 0.1 km/h Distance 2.45 km</desc>
<time>2010-06-13T06:11:16.83</time>
<name>556</name>
</trkpt>
<trkpt lat="49.165270" lon="11.742410">
<ele>527.5</ele>
<speed>0.6</speed>
<course>167.4</course>
<desc>Speed 0.6 km/h Distance 2.45 km</desc>
<time>2010-06-13T06:11:17.90</time>
<name>557</name>
</trkpt>
<trkpt lat="49.165267" lon="11.742412">
<ele>527.4</ele>
<speed>0.3</speed>
<course>167.4</course>
<desc>Speed 0.3 km/h Distance 2.45 km</desc>
<time>2010-06-13T06:11:18.83</time>
<name>558</name>
</trkpt>
<trkpt lat="49.165267" lon="11.742413">
<ele>527.3</ele>
<speed>0.1</speed>
<course>90.0</course>
<desc>Speed 0.1 km/h Distance 2.45 km</desc>
<time>2010-06-13T06:11:19.82</time>
<name>559</name>
</trkpt>
<trkpt lat="49.165267" lon="11.742417">
<ele>527.1</ele>
<speed>0.5</speed>
<course>90.0</course>
<desc>Speed 0.5 km/h Distance 2.45 km</desc>
<time>2010-06-13T06:11:20.84</time>
<name>560</name>
</trkpt>
<trkpt lat="49.165267" lon="11.742417">
<ele>527.0</ele>
<speed>0.5</speed>
<course>146.3</course>
<desc>Speed 0.5 km/h Distance 2.45 km</desc>
<time>2010-06-13T06:11:21.89</time>
<name>561</name>
</trkpt>
<trkpt lat="49.165263" lon="11.742420">
<ele>526.9</ele>
<speed>0.9</speed>
<course>126.1</course>
<desc>Speed 0.9 km/h Distance 2.45 km</desc>
<time>2010-06-13T06:11:22.88</time>
<name>562</name>
</trkpt>
<trkpt lat="49.165262" lon="11.742423">
<ele>526.9</ele>
<speed>0.9</speed>
<course>128.1</course>
<desc>Speed 0.9 km/h Distance 2.45 km</desc>
<time>2010-06-13T06:11:23.86</time>
<name>563</name>
</trkpt>
<trkpt lat="49.165260" lon="11.742427">
<ele>526.9</ele>
<speed>0.1</speed>
<course>318.4</course>
<desc>Speed 0.1 km/h Distance 2.45 km</desc>
<time>2010-06-13T06:11:24.85</time>
<name>564</name>
</trkpt>
<trkpt lat="49.165283" lon="11.742395">
<ele>524.3</ele>
<speed>1.8</speed>
<course>136.4</course>
<desc>Speed 1.8 km/h Distance 2.45 km</desc>
<time>2010-06-13T06:11:26.83</time>
<name>565</name>
</trkpt>
<trkpt lat="49.165247" lon="11.742448">
<ele>528.1</ele>
<speed>0.6</speed>
<course>347.4</course>
<desc>Speed 0.6 km/h Distance 2.46 km</desc>
<time>2010-06-13T06:11:28.86</time>
<name>566</name>
</trkpt>
<trkpt lat="49.165250" lon="11.742447">
<ele>528.1</ele>
<speed>1.1</speed>
<course>347.4</course>
<desc>Speed 1.1 km/h Distance 2.46 km</desc>
<time>2010-06-13T06:11:29.91</time>
<name>567</name>
</trkpt>
<trkpt lat="49.165250" lon="11.742447">
<ele>528.1</ele>
<speed>1.1</speed>
<course>319.1</course>
<desc>Speed 1.1 km/h Distance 2.46 km</desc>
<time>2010-06-13T06:11:30.40</time>
<name>568</name>
</trkpt>
<trkpt lat="49.165255" lon="11.742440">
<ele>528.1</ele>
<speed>0.8</speed>
<course>319.1</course>
<desc>Speed 0.8 km/h Distance 2.46 km</desc>
<time>2010-06-13T06:11:31.91</time>
<name>569</name>
</trkpt>
<trkpt lat="49.165255" lon="11.742440">
<ele>528.1</ele>
<speed>0.8</speed>
<course>136.7</course>
<desc>Speed 0.8 km/h Distance 2.46 km</desc>
<time>2010-06-13T06:11:32.40</time>
<name>570</name>
</trkpt>
<trkpt lat="49.165213" lon="11.742500">
<ele>532.4</ele>
<speed>0.6</speed>
<course>136.7</course>
<desc>Speed 0.6 km/h Distance 2.46 km</desc>
<time>2010-06-13T06:11:35.00</time>
<name>571</name>
</trkpt>
<trkpt lat="49.165213" lon="11.742500">
<ele>532.4</ele>
<speed>0.6</speed>
<course>320.6</course>
<desc>Speed 0.6 km/h Distance 2.46 km</desc>
<time>2010-06-13T06:11:35.40</time>
<name>572</name>
</trkpt>
<trkpt lat="49.165220" lon="11.742492">
<ele>531.8</ele>
<speed>0.2</speed>
<course>144.9</course>
<desc>Speed 0.2 km/h Distance 2.47 km</desc>
<time>2010-06-13T06:11:36.40</time>
<name>573</name>
</trkpt>
<trkpt lat="49.165198" lon="11.742515">
<ele>535.4</ele>
<speed>1.5</speed>
<course>144.9</course>
<desc>Speed 1.5 km/h Distance 2.47 km</desc>
<time>2010-06-13T06:11:37.90</time>
<name>574</name>
</trkpt>
<trkpt lat="49.165198" lon="11.742515">
<ele>535.4</ele>
<speed>0.6</speed>
<course>327.0</course>
<desc>Speed 0.6 km/h Distance 2.47 km</desc>
<time>2010-06-13T06:11:38.85</time>
<name>575</name>
</trkpt>
<trkpt lat="49.165208" lon="11.742505">
<ele>533.7</ele>
<speed>0.9</speed>
<course>327.0</course>
<desc>Speed 0.9 km/h Distance 2.47 km</desc>
<time>2010-06-13T06:11:40.06</time>
<name>576</name>
</trkpt>
<trkpt lat="49.165208" lon="11.742505">
<ele>533.7</ele>
<speed>0.9</speed>
<course>332.1</course>
<desc>Speed 0.9 km/h Distance 2.47 km</desc>
<time>2010-06-13T06:11:40.40</time>
<name>577</name>
</trkpt>
<trkpt lat="49.165217" lon="11.742498">
<ele>532.5</ele>
<speed>0.5</speed>
<course>128.1</course>
<desc>Speed 0.5 km/h Distance 2.47 km</desc>
<time>2010-06-13T06:11:41.85</time>
<name>578</name>
</trkpt>
<trkpt lat="49.165215" lon="11.742502">
<ele>532.6</ele>
<speed>0.6</speed>
<course>128.1</course>
<desc>Speed 0.6 km/h Distance 2.47 km</desc>
<time>2010-06-13T06:11:42.94</time>
<name>579</name>
</trkpt>
<trkpt lat="49.165215" lon="11.742502">
<ele>532.6</ele>
<speed>0.6</speed>
<course>131.2</course>
<desc>Speed 0.6 km/h Distance 2.47 km</desc>
<time>2010-06-13T06:11:43.40</time>
<name>580</name>
</trkpt>
<trkpt lat="49.165202" lon="11.742525">
<ele>534.2</ele>
<speed>0.2</speed>
<course>326.8</course>
<desc>Speed 0.2 km/h Distance 2.47 km</desc>
<time>2010-06-13T06:11:44.85</time>
<name>581</name>
</trkpt>
<trkpt lat="49.165228" lon="11.742498">
<ele>530.5</ele>
<speed>0.9</speed>
<course>326.8</course>
<desc>Speed 0.9 km/h Distance 2.48 km</desc>
<time>2010-06-13T06:11:47.01</time>
<name>582</name>
</trkpt>
<trkpt lat="49.165228" lon="11.742498">
<ele>530.5</ele>
<speed>0.9</speed>
<course>320.6</course>
<desc>Speed 0.9 km/h Distance 2.48 km</desc>
<time>2010-06-13T06:11:47.40</time>
<name>583</name>
</trkpt>
<trkpt lat="49.165235" lon="11.742490">
<ele>529.9</ele>
<speed>1.1</speed>
<course>325.3</course>
<desc>Speed 1.1 km/h Distance 2.48 km</desc>
<time>2010-06-13T06:11:48.88</time>
<name>584</name>
</trkpt>
<trkpt lat="49.165290" lon="11.742432">
<ele>522.7</ele>
<speed>2.5</speed>
<course>148.4</course>
<desc>Speed 2.5 km/h Distance 2.49 km</desc>
<time>2010-06-13T06:11:50.83</time>
<name>585</name>
</trkpt>
<trkpt lat="49.165287" lon="11.742435">
<ele>522.8</ele>
<speed>2.4</speed>
<course>148.4</course>
<desc>Speed 2.4 km/h Distance 2.49 km</desc>
<time>2010-06-13T06:11:52.00</time>
<name>586</name>
</trkpt>
<trkpt lat="49.165287" lon="11.742435">
<ele>522.8</ele>
<speed>2.4</speed>
<course>131.3</course>
<desc>Speed 2.4 km/h Distance 2.49 km</desc>
<time>2010-06-13T06:11:52.40</time>
<name>587</name>
</trkpt>
<trkpt lat="49.165280" lon="11.742447">
<ele>523.4</ele>
<speed>1.3</speed>
<course>139.1</course>
<desc>Speed 1.3 km/h Distance 2.49 km</desc>
<time>2010-06-13T06:11:53.85</time>
<name>588</name>
</trkpt>
<trkpt lat="49.165270" lon="11.742460">
<ele>524.4</ele>
<speed>0.2</speed>
<course>150.8</course>
<desc>Speed 0.2 km/h Distance 2.49 km</desc>
<time>2010-06-13T06:11:54.85</time>
<name>589</name>
</trkpt>
<trkpt lat="49.165267" lon="11.742463">
<ele>524.0</ele>
<speed>0.1</speed>
<course>326.8</course>
<desc>Speed 0.1 km/h Distance 2.49 km</desc>
<time>2010-06-13T06:11:55.87</time>
<name>590</name>
</trkpt>
<trkpt lat="49.165280" lon="11.742450">
<ele>523.0</ele>
<speed>1.1</speed>
<course>316.0</course>
<desc>Speed 1.1 km/h Distance 2.49 km</desc>
<time>2010-06-13T06:11:56.83</time>
<name>591</name>
</trkpt>
<trkpt lat="49.165287" lon="11.742440">
<ele>522.1</ele>
<speed>1.2</speed>
<course>227.1</course>
<desc>Speed 1.2 km/h Distance 2.49 km</desc>
<time>2010-06-13T06:11:57.85</time>
<name>592</name>
</trkpt>
<trkpt lat="49.165282" lon="11.742432">
<ele>524.1</ele>
<speed>3.3</speed>
<course>290.9</course>
<desc>Speed 3.3 km/h Distance 2.49 km</desc>
<time>2010-06-13T06:11:58.85</time>
<name>593</name>
</trkpt>
<trkpt lat="49.165285" lon="11.742418">
<ele>524.7</ele>
<speed>3.5</speed>
<course>183.2</course>
<desc>Speed 3.5 km/h Distance 2.49 km</desc>
<time>2010-06-13T06:11:59.85</time>
<name>594</name>
</trkpt>
<trkpt lat="49.165263" lon="11.742417">
<ele>526.3</ele>
<speed>4.8</speed>
<course>244.8</course>
<desc>Speed 4.8 km/h Distance 2.50 km</desc>
<time>2010-06-13T06:12:00.85</time>
<name>595</name>
</trkpt>
<trkpt lat="49.165257" lon="11.742395">
<ele>524.9</ele>
<speed>2.7</speed>
<course>196.0</course>
<desc>Speed 2.7 km/h Distance 2.50 km</desc>
<time>2010-06-13T06:12:01.84</time>
<name>596</name>
</trkpt>
<trkpt lat="49.165250" lon="11.742392">
<ele>525.2</ele>
<speed>1.1</speed>
<course>191.2</course>
<desc>Speed 1.1 km/h Distance 2.50 km</desc>
<time>2010-06-13T06:12:02.85</time>
<name>597</name>
</trkpt>
<trkpt lat="49.165233" lon="11.742387">
<ele>526.7</ele>
<speed>3.3</speed>
<course>234.8</course>
<desc>Speed 3.3 km/h Distance 2.50 km</desc>
<time>2010-06-13T06:12:03.86</time>
<name>598</name>
</trkpt>
<trkpt lat="49.165223" lon="11.742365">
<ele>528.5</ele>
<speed>5.5</speed>
<course>293.6</course>
<desc>Speed 5.5 km/h Distance 2.50 km</desc>
<time>2010-06-13T06:12:04.85</time>
<name>599</name>
</trkpt>
<trkpt lat="49.165230" lon="11.742342">
<ele>528.8</ele>
<speed>6.1</speed>
<course>289.2</course>
<desc>Speed 6.1 km/h Distance 2.50 km</desc>
<time>2010-06-13T06:12:05.84</time>
<name>600</name>
</trkpt>
<trkpt lat="49.165238" lon="11.742305">
<ele>529.4</ele>
<speed>9.5</speed>
<course>302.5</course>
<desc>Speed 9.5 km/h Distance 2.51 km</desc>
<time>2010-06-13T06:12:06.85</time>
<name>601</name>
</trkpt>
<trkpt lat="49.165255" lon="11.742265">
<ele>528.8</ele>
<speed>10.2</speed>
<course>254.5</course>
<desc>Speed 10.2 km/h Distance 2.51 km</desc>
<time>2010-06-13T06:12:07.86</time>
<name>602</name>
</trkpt>
<trkpt lat="49.165245" lon="11.742210">
<ele>530.2</ele>
<speed>10.9</speed>
<course>260.4</course>
<desc>Speed 10.9 km/h Distance 2.51 km</desc>
<time>2010-06-13T06:12:08.86</time>
<name>603</name>
</trkpt>
<trkpt lat="49.165238" lon="11.742150">
<ele>531.6</ele>
<speed>12.3</speed>
<course>262.3</course>
<desc>Speed 12.3 km/h Distance 2.52 km</desc>
<time>2010-06-13T06:12:09.84</time>
<name>604</name>
</trkpt>
<trkpt lat="49.165233" lon="11.742093">
<ele>532.2</ele>
<speed>12.1</speed>
<course>272.4</course>
<desc>Speed 12.1 km/h Distance 2.52 km</desc>
<time>2010-06-13T06:12:10.84</time>
<name>605</name>
</trkpt>
<trkpt lat="49.165235" lon="11.742032">
<ele>533.0</ele>
<speed>13.9</speed>
<course>280.3</course>
<desc>Speed 13.9 km/h Distance 2.53 km</desc>
<time>2010-06-13T06:12:11.85</time>
<name>606</name>
</trkpt>
<trkpt lat="49.165243" lon="11.741962">
<ele>533.2</ele>
<speed>15.5</speed>
<course>282.0</course>
<desc>Speed 15.5 km/h Distance 2.53 km</desc>
<time>2010-06-13T06:12:12.85</time>
<name>607</name>
</trkpt>
<trkpt lat="49.165252" lon="11.741902">
<ele>532.7</ele>
<speed>15.0</speed>
<course>267.8</course>
<desc>Speed 15.0 km/h Distance 2.54 km</desc>
<time>2010-06-13T06:12:13.85</time>
<name>608</name>
</trkpt>
<trkpt lat="49.165250" lon="11.741835">
<ele>534.3</ele>
<speed>15.7</speed>
<course>280.2</course>
<desc>Speed 15.7 km/h Distance 2.54 km</desc>
<time>2010-06-13T06:12:14.84</time>
<name>609</name>
</trkpt>
<trkpt lat="49.165257" lon="11.741778">
<ele>534.5</ele>
<speed>15.5</speed>
<course>274.5</course>
<desc>Speed 15.5 km/h Distance 2.55 km</desc>
<time>2010-06-13T06:12:15.86</time>
<name>610</name>
</trkpt>
<trkpt lat="49.165260" lon="11.741713">
<ele>533.3</ele>
<speed>15.1</speed>
<course>279.6</course>
<desc>Speed 15.1 km/h Distance 2.55 km</desc>
<time>2010-06-13T06:12:16.85</time>
<name>611</name>
</trkpt>
<trkpt lat="49.165267" lon="11.741653">
<ele>532.8</ele>
<speed>15.9</speed>
<course>290.9</course>
<desc>Speed 15.9 km/h Distance 2.56 km</desc>
<time>2010-06-13T06:12:17.84</time>
<name>612</name>
</trkpt>
<trkpt lat="49.165280" lon="11.741600">
<ele>532.3</ele>
<speed>16.9</speed>
<course>272.4</course>
<desc>Speed 16.9 km/h Distance 2.56 km</desc>
<time>2010-06-13T06:12:18.85</time>
<name>613</name>
</trkpt>
<trkpt lat="49.165282" lon="11.741538">
<ele>531.6</ele>
<speed>17.1</speed>
<course>270.0</course>
<desc>Speed 17.1 km/h Distance 2.56 km</desc>
<time>2010-06-13T06:12:19.85</time>
<name>614</name>
</trkpt>
<trkpt lat="49.165282" lon="11.741477">
<ele>531.9</ele>
<speed>16.2</speed>
<course>265.0</course>
<desc>Speed 16.2 km/h Distance 2.57 km</desc>
<time>2010-06-13T06:12:20.85</time>
<name>615</name>
</trkpt>
<trkpt lat="49.165278" lon="11.741418">
<ele>531.9</ele>
<speed>16.2</speed>
<course>278.7</course>
<desc>Speed 16.2 km/h Distance 2.57 km</desc>
<time>2010-06-13T06:12:21.85</time>
<name>616</name>
</trkpt>
<trkpt lat="49.165285" lon="11.741352">
<ele>530.8</ele>
<speed>17.4</speed>
<course>278.3</course>
<desc>Speed 17.4 km/h Distance 2.58 km</desc>
<time>2010-06-13T06:12:22.85</time>
<name>617</name>
</trkpt>
<trkpt lat="49.165292" lon="11.741282">
<ele>530.1</ele>
<speed>18.6</speed>
<course>280.6</course>
<desc>Speed 18.6 km/h Distance 2.58 km</desc>
<time>2010-06-13T06:12:23.86</time>
<name>618</name>
</trkpt>
<trkpt lat="49.165300" lon="11.741213">
<ele>529.8</ele>
<speed>18.4</speed>
<course>278.5</course>
<desc>Speed 18.4 km/h Distance 2.59 km</desc>
<time>2010-06-13T06:12:24.87</time>
<name>619</name>
</trkpt>
<trkpt lat="49.165307" lon="11.741145">
<ele>529.9</ele>
<speed>18.5</speed>
<course>280.1</course>
<desc>Speed 18.5 km/h Distance 2.59 km</desc>
<time>2010-06-13T06:12:25.85</time>
<name>620</name>
</trkpt>
<trkpt lat="49.165315" lon="11.741073">
<ele>529.1</ele>
<speed>18.6</speed>
<course>279.6</course>
<desc>Speed 18.6 km/h Distance 2.60 km</desc>
<time>2010-06-13T06:12:26.86</time>
<name>621</name>
</trkpt>
<trkpt lat="49.165323" lon="11.740998">
<ele>528.3</ele>
<speed>19.1</speed>
<course>281.3</course>
<desc>Speed 19.1 km/h Distance 2.60 km</desc>
<time>2010-06-13T06:12:27.85</time>
<name>622</name>
</trkpt>
<trkpt lat="49.165333" lon="11.740922">
<ele>527.8</ele>
<speed>19.2</speed>
<course>274.1</course>
<desc>Speed 19.2 km/h Distance 2.61 km</desc>
<time>2010-06-13T06:12:28.85</time>
<name>623</name>
</trkpt>
<trkpt lat="49.165337" lon="11.740850">
<ele>527.4</ele>
<speed>19.1</speed>
<course>278.5</course>
<desc>Speed 19.1 km/h Distance 2.61 km</desc>
<time>2010-06-13T06:12:29.85</time>
<name>624</name>
</trkpt>
<trkpt lat="49.165343" lon="11.740782">
<ele>527.5</ele>
<speed>18.2</speed>
<course>280.3</course>
<desc>Speed 18.2 km/h Distance 2.62 km</desc>
<time>2010-06-13T06:12:30.85</time>
<name>625</name>
</trkpt>
<trkpt lat="49.165352" lon="11.740712">
<ele>526.8</ele>
<speed>17.6</speed>
<course>286.2</course>
<desc>Speed 17.6 km/h Distance 2.63 km</desc>
<time>2010-06-13T06:12:31.84</time>
<name>626</name>
</trkpt>
<trkpt lat="49.165365" lon="11.740642">
<ele>526.6</ele>
<speed>17.7</speed>
<course>288.6</course>
<desc>Speed 17.7 km/h Distance 2.63 km</desc>
<time>2010-06-13T06:12:32.85</time>
<name>627</name>
</trkpt>
<trkpt lat="49.165380" lon="11.740573">
<ele>526.7</ele>
<speed>17.6</speed>
<course>282.6</course>
<desc>Speed 17.6 km/h Distance 2.64 km</desc>
<time>2010-06-13T06:12:33.85</time>
<name>628</name>
</trkpt>
<trkpt lat="49.165390" lon="11.740505">
<ele>527.0</ele>
<speed>17.2</speed>
<course>278.7</course>
<desc>Speed 17.2 km/h Distance 2.64 km</desc>
<time>2010-06-13T06:12:34.86</time>
<name>629</name>
</trkpt>
<trkpt lat="49.165397" lon="11.740438">
<ele>527.7</ele>
<speed>18.6</speed>
<course>275.6</course>
<desc>Speed 18.6 km/h Distance 2.65 km</desc>
<time>2010-06-13T06:12:35.84</time>
<name>630</name>
</trkpt>
<trkpt lat="49.165402" lon="11.740360">
<ele>528.1</ele>
<speed>20.5</speed>
<course>274.3</course>
<desc>Speed 20.5 km/h Distance 2.65 km</desc>
<time>2010-06-13T06:12:36.85</time>
<name>631</name>
</trkpt>
<trkpt lat="49.165405" lon="11.740292">
<ele>528.0</ele>
<speed>19.0</speed>
<course>271.9</course>
<desc>Speed 19.0 km/h Distance 2.66 km</desc>
<time>2010-06-13T06:12:37.84</time>
<name>632</name>
</trkpt>
<trkpt lat="49.165407" lon="11.740217">
<ele>528.2</ele>
<speed>19.8</speed>
<course>277.3</course>
<desc>Speed 19.8 km/h Distance 2.66 km</desc>
<time>2010-06-13T06:12:38.86</time>
<name>633</name>
</trkpt>
<trkpt lat="49.165413" lon="11.740137">
<ele>528.2</ele>
<speed>19.9</speed>
<course>275.8</course>
<desc>Speed 19.9 km/h Distance 2.67 km</desc>
<time>2010-06-13T06:12:39.86</time>
<name>634</name>
</trkpt>
<trkpt lat="49.165418" lon="11.740062">
<ele>528.3</ele>
<speed>19.0</speed>
<course>279.6</course>
<desc>Speed 19.0 km/h Distance 2.67 km</desc>
<time>2010-06-13T06:12:40.86</time>
<name>635</name>
</trkpt>
<trkpt lat="49.165427" lon="11.739987">
<ele>528.4</ele>
<speed>18.6</speed>
<course>294.3</course>
<desc>Speed 18.6 km/h Distance 2.68 km</desc>
<time>2010-06-13T06:12:41.85</time>
<name>636</name>
</trkpt>
<trkpt lat="49.165448" lon="11.739913">
<ele>528.3</ele>
<speed>18.8</speed>
<course>299.4</course>
<desc>Speed 18.8 km/h Distance 2.68 km</desc>
<time>2010-06-13T06:12:42.87</time>
<name>637</name>
</trkpt>
<trkpt lat="49.165472" lon="11.739850">
<ele>528.0</ele>
<speed>19.7</speed>
<course>300.2</course>
<desc>Speed 19.7 km/h Distance 2.69 km</desc>
<time>2010-06-13T06:12:43.85</time>
<name>638</name>
</trkpt>
<trkpt lat="49.165498" lon="11.739780">
<ele>527.9</ele>
<speed>21.3</speed>
<course>298.0</course>
<desc>Speed 21.3 km/h Distance 2.70 km</desc>
<time>2010-06-13T06:12:44.85</time>
<name>639</name>
</trkpt>
<trkpt lat="49.165527" lon="11.739698">
<ele>527.1</ele>
<speed>20.7</speed>
<course>299.5</course>
<desc>Speed 20.7 km/h Distance 2.70 km</desc>
<time>2010-06-13T06:12:45.84</time>
<name>640</name>
</trkpt>
<trkpt lat="49.165555" lon="11.739622">
<ele>526.7</ele>
<speed>21.0</speed>
<course>300.9</course>
<desc>Speed 21.0 km/h Distance 2.71 km</desc>
<time>2010-06-13T06:12:46.84</time>
<name>641</name>
</trkpt>
<trkpt lat="49.165585" lon="11.739545">
<ele>526.3</ele>
<speed>21.0</speed>
<course>302.6</course>
<desc>Speed 21.0 km/h Distance 2.72 km</desc>
<time>2010-06-13T06:12:47.86</time>
<name>642</name>
</trkpt>
<trkpt lat="49.165615" lon="11.739473">
<ele>526.0</ele>
<speed>20.2</speed>
<course>298.5</course>
<desc>Speed 20.2 km/h Distance 2.72 km</desc>
<time>2010-06-13T06:12:48.86</time>
<name>643</name>
</trkpt>
<trkpt lat="49.165642" lon="11.739398">
<ele>526.0</ele>
<speed>20.1</speed>
<course>298.6</course>
<desc>Speed 20.1 km/h Distance 2.73 km</desc>
<time>2010-06-13T06:12:49.84</time>
<name>644</name>
</trkpt>
<trkpt lat="49.165667" lon="11.739328">
<ele>526.1</ele>
<speed>19.8</speed>
<course>298.6</course>
<desc>Speed 19.8 km/h Distance 2.73 km</desc>
<time>2010-06-13T06:12:50.85</time>
<name>645</name>
</trkpt>
<trkpt lat="49.165692" lon="11.739258">
<ele>526.2</ele>
<speed>19.8</speed>
<course>299.2</course>
<desc>Speed 19.8 km/h Distance 2.74 km</desc>
<time>2010-06-13T06:12:51.85</time>
<name>646</name>
</trkpt>
<trkpt lat="49.165717" lon="11.739190">
<ele>526.2</ele>
<speed>19.6</speed>
<course>300.1</course>
<desc>Speed 19.6 km/h Distance 2.75 km</desc>
<time>2010-06-13T06:12:52.84</time>
<name>647</name>
</trkpt>
<trkpt lat="49.165740" lon="11.739128">
<ele>526.2</ele>
<speed>18.8</speed>
<course>300.7</course>
<desc>Speed 18.8 km/h Distance 2.75 km</desc>
<time>2010-06-13T06:12:53.84</time>
<name>648</name>
</trkpt>
<trkpt lat="49.165763" lon="11.739068">
<ele>525.9</ele>
<speed>17.6</speed>
<course>301.1</course>
<desc>Speed 17.6 km/h Distance 2.76 km</desc>
<time>2010-06-13T06:12:54.84</time>
<name>649</name>
</trkpt>
<trkpt lat="49.165785" lon="11.739013">
<ele>526.0</ele>
<speed>17.2</speed>
<course>301.9</course>
<desc>Speed 17.2 km/h Distance 2.76 km</desc>
<time>2010-06-13T06:12:55.86</time>
<name>650</name>
</trkpt>
<trkpt lat="49.165807" lon="11.738960">
<ele>526.0</ele>
<speed>16.1</speed>
<course>300.1</course>
<desc>Speed 16.1 km/h Distance 2.76 km</desc>
<time>2010-06-13T06:12:56.84</time>
<name>651</name>
</trkpt>
<trkpt lat="49.165825" lon="11.738912">
<ele>526.2</ele>
<speed>15.1</speed>
<course>302.7</course>
<desc>Speed 15.1 km/h Distance 2.77 km</desc>
<time>2010-06-13T06:12:57.85</time>
<name>652</name>
</trkpt>
<trkpt lat="49.165847" lon="11.738860">
<ele>525.9</ele>
<speed>15.0</speed>
<course>306.5</course>
<desc>Speed 15.0 km/h Distance 2.77 km</desc>
<time>2010-06-13T06:12:58.85</time>
<name>653</name>
</trkpt>
<trkpt lat="49.165870" lon="11.738812">
<ele>525.7</ele>
<speed>15.2</speed>
<course>303.2</course>
<desc>Speed 15.2 km/h Distance 2.78 km</desc>
<time>2010-06-13T06:12:59.86</time>
<name>654</name>
</trkpt>
<trkpt lat="49.165890" lon="11.738765">
<ele>526.1</ele>
<speed>14.8</speed>
<course>304.4</course>
<desc>Speed 14.8 km/h Distance 2.78 km</desc>
<time>2010-06-13T06:13:00.85</time>
<name>655</name>
</trkpt>
<trkpt lat="49.165912" lon="11.738717">
<ele>526.1</ele>
<speed>15.0</speed>
<course>293.6</course>
<desc>Speed 15.0 km/h Distance 2.79 km</desc>
<time>2010-06-13T06:13:01.84</time>
<name>656</name>
</trkpt>
<trkpt lat="49.165925" lon="11.738670">
<ele>526.4</ele>
<speed>13.9</speed>
<course>291.6</course>
<desc>Speed 13.9 km/h Distance 2.79 km</desc>
<time>2010-06-13T06:13:02.84</time>
<name>657</name>
</trkpt>
<trkpt lat="49.165937" lon="11.738625">
<ele>526.3</ele>
<speed>12.3</speed>
<course>295.2</course>
<desc>Speed 12.3 km/h Distance 2.79 km</desc>
<time>2010-06-13T06:13:03.84</time>
<name>658</name>
</trkpt>
<trkpt lat="49.165950" lon="11.738582">
<ele>526.2</ele>
<speed>12.6</speed>
<course>293.2</course>
<desc>Speed 12.6 km/h Distance 2.80 km</desc>
<time>2010-06-13T06:13:04.85</time>
<name>659</name>
</trkpt>
<trkpt lat="49.165962" lon="11.738540">
<ele>526.3</ele>
<speed>12.5</speed>
<course>294.0</course>
<desc>Speed 12.5 km/h Distance 2.80 km</desc>
<time>2010-06-13T06:13:05.85</time>
<name>660</name>
</trkpt>
<trkpt lat="49.165973" lon="11.738500">
<ele>526.4</ele>
<speed>12.6</speed>
<course>296.1</course>
<desc>Speed 12.6 km/h Distance 2.80 km</desc>
<time>2010-06-13T06:13:06.85</time>
<name>661</name>
</trkpt>
<trkpt lat="49.165987" lon="11.738458">
<ele>526.3</ele>
<speed>12.4</speed>
<course>284.3</course>
<desc>Speed 12.4 km/h Distance 2.81 km</desc>
<time>2010-06-13T06:13:07.84</time>
<name>662</name>
</trkpt>
<trkpt lat="49.165993" lon="11.738418">
<ele>526.4</ele>
<speed>12.0</speed>
<course>293.2</course>
<desc>Speed 12.0 km/h Distance 2.81 km</desc>
<time>2010-06-13T06:13:08.86</time>
<name>663</name>
</trkpt>
<trkpt lat="49.166005" lon="11.738377">
<ele>526.2</ele>
<speed>11.5</speed>
<course>287.7</course>
<desc>Speed 11.5 km/h Distance 2.81 km</desc>
<time>2010-06-13T06:13:09.85</time>
<name>664</name>
</trkpt>
<trkpt lat="49.166013" lon="11.738337">
<ele>526.3</ele>
<speed>11.4</speed>
<course>285.5</course>
<desc>Speed 11.4 km/h Distance 2.82 km</desc>
<time>2010-06-13T06:13:10.84</time>
<name>665</name>
</trkpt>
<trkpt lat="49.166020" lon="11.738300">
<ele>526.1</ele>
<speed>11.6</speed>
<course>289.2</course>
<desc>Speed 11.6 km/h Distance 2.82 km</desc>
<time>2010-06-13T06:13:11.84</time>
<name>666</name>
</trkpt>
<trkpt lat="49.166028" lon="11.738263">
<ele>526.1</ele>
<speed>11.5</speed>
<course>300.9</course>
<desc>Speed 11.5 km/h Distance 2.82 km</desc>
<time>2010-06-13T06:13:12.84</time>
<name>667</name>
</trkpt>
<trkpt lat="49.166043" lon="11.738225">
<ele>526.2</ele>
<speed>12.1</speed>
<course>284.9</course>
<desc>Speed 12.1 km/h Distance 2.82 km</desc>
<time>2010-06-13T06:13:13.85</time>
<name>668</name>
</trkpt>
<trkpt lat="49.166050" lon="11.738187">
<ele>526.4</ele>
<speed>12.3</speed>
<course>300.9</course>
<desc>Speed 12.3 km/h Distance 2.83 km</desc>
<time>2010-06-13T06:13:14.85</time>
<name>669</name>
</trkpt>
<trkpt lat="49.166065" lon="11.738148">
<ele>526.6</ele>
<speed>11.9</speed>
<course>305.0</course>
<desc>Speed 11.9 km/h Distance 2.83 km</desc>
<time>2010-06-13T06:13:15.84</time>
<name>670</name>
</trkpt>
<trkpt lat="49.166083" lon="11.738108">
<ele>527.0</ele>
<speed>11.6</speed>
<course>299.1</course>
<desc>Speed 11.6 km/h Distance 2.83 km</desc>
<time>2010-06-13T06:13:16.85</time>
<name>671</name>
</trkpt>
<trkpt lat="49.166097" lon="11.738072">
<ele>527.3</ele>
<speed>11.9</speed>
<course>304.8</course>
<desc>Speed 11.9 km/h Distance 2.84 km</desc>
<time>2010-06-13T06:13:17.84</time>
<name>672</name>
</trkpt>
<trkpt lat="49.166113" lon="11.738035">
<ele>527.6</ele>
<speed>12.2</speed>
<course>290.0</course>
<desc>Speed 12.2 km/h Distance 2.84 km</desc>
<time>2010-06-13T06:13:18.84</time>
<name>673</name>
</trkpt>
<trkpt lat="49.166122" lon="11.738000">
<ele>527.7</ele>
<speed>11.2</speed>
<course>278.3</course>
<desc>Speed 11.2 km/h Distance 2.84 km</desc>
<time>2010-06-13T06:13:19.86</time>
<name>674</name>
</trkpt>
<trkpt lat="49.166125" lon="11.737965">
<ele>527.6</ele>
<speed>9.9</speed>
<course>294.7</course>
<desc>Speed 9.9 km/h Distance 2.85 km</desc>
<time>2010-06-13T06:13:20.84</time>
<name>675</name>
</trkpt>
<trkpt lat="49.166135" lon="11.737932">
<ele>527.3</ele>
<speed>9.5</speed>
<course>301.5</course>
<desc>Speed 9.5 km/h Distance 2.85 km</desc>
<time>2010-06-13T06:13:21.84</time>
<name>676</name>
</trkpt>
<trkpt lat="49.166148" lon="11.737898">
<ele>527.2</ele>
<speed>10.4</speed>
<course>304.8</course>
<desc>Speed 10.4 km/h Distance 2.85 km</desc>
<time>2010-06-13T06:13:22.85</time>
<name>677</name>
</trkpt>
<trkpt lat="49.166165" lon="11.737862">
<ele>527.6</ele>
<speed>11.1</speed>
<course>303.2</course>
<desc>Speed 11.1 km/h Distance 2.85 km</desc>
<time>2010-06-13T06:13:23.84</time>
<name>678</name>
</trkpt>
<trkpt lat="49.166180" lon="11.737827">
<ele>527.2</ele>
<speed>10.3</speed>
<course>310.0</course>
<desc>Speed 10.3 km/h Distance 2.86 km</desc>
<time>2010-06-13T06:13:24.85</time>
<name>679</name>
</trkpt>
<trkpt lat="49.166198" lon="11.737793">
<ele>527.3</ele>
<speed>10.5</speed>
<course>299.1</course>
<desc>Speed 10.5 km/h Distance 2.86 km</desc>
<time>2010-06-13T06:13:25.85</time>
<name>680</name>
</trkpt>
<trkpt lat="49.166212" lon="11.737757">
<ele>527.4</ele>
<speed>10.6</speed>
<course>290.0</course>
<desc>Speed 10.6 km/h Distance 2.86 km</desc>
<time>2010-06-13T06:13:26.85</time>
<name>681</name>
</trkpt>
<trkpt lat="49.166220" lon="11.737722">
<ele>527.6</ele>
<speed>10.3</speed>
<course>300.7</course>
<desc>Speed 10.3 km/h Distance 2.87 km</desc>
<time>2010-06-13T06:13:27.86</time>
<name>682</name>
</trkpt>
<trkpt lat="49.166232" lon="11.737692">
<ele>527.3</ele>
<speed>9.5</speed>
<course>284.3</course>
<desc>Speed 9.5 km/h Distance 2.87 km</desc>
<time>2010-06-13T06:13:28.84</time>
<name>683</name>
</trkpt>
<trkpt lat="49.166237" lon="11.737662">
<ele>527.0</ele>
<speed>9.8</speed>
<course>286.2</course>
<desc>Speed 9.8 km/h Distance 2.87 km</desc>
<time>2010-06-13T06:13:29.85</time>
<name>684</name>
</trkpt>
<trkpt lat="49.166243" lon="11.737627">
<ele>526.8</ele>
<speed>10.1</speed>
<course>295.9</course>
<desc>Speed 10.1 km/h Distance 2.87 km</desc>
<time>2010-06-13T06:13:30.84</time>
<name>685</name>
</trkpt>
<trkpt lat="49.166255" lon="11.737590">
<ele>526.4</ele>
<speed>10.4</speed>
<course>305.0</course>
<desc>Speed 10.4 km/h Distance 2.88 km</desc>
<time>2010-06-13T06:13:31.85</time>
<name>686</name>
</trkpt>
<trkpt lat="49.166273" lon="11.737550">
<ele>526.5</ele>
<speed>10.9</speed>
<course>284.3</course>
<desc>Speed 10.9 km/h Distance 2.88 km</desc>
<time>2010-06-13T06:13:32.85</time>
<name>687</name>
</trkpt>
<trkpt lat="49.166280" lon="11.737510">
<ele>526.8</ele>
<speed>10.9</speed>
<course>298.0</course>
<desc>Speed 10.9 km/h Distance 2.88 km</desc>
<time>2010-06-13T06:13:33.85</time>
<name>688</name>
</trkpt>
<trkpt lat="49.166293" lon="11.737472">
<ele>527.0</ele>
<speed>11.1</speed>
<course>312.9</course>
<desc>Speed 11.1 km/h Distance 2.89 km</desc>
<time>2010-06-13T06:13:34.84</time>
<name>689</name>
</trkpt>
<trkpt lat="49.166317" lon="11.737433">
<ele>527.3</ele>
<speed>12.2</speed>
<course>318.0</course>
<desc>Speed 12.2 km/h Distance 2.89 km</desc>
<time>2010-06-13T06:13:35.86</time>
<name>690</name>
</trkpt>
<trkpt lat="49.166343" lon="11.737397">
<ele>527.7</ele>
<speed>12.4</speed>
<course>309.8</course>
<desc>Speed 12.4 km/h Distance 2.89 km</desc>
<time>2010-06-13T06:13:36.85</time>
<name>691</name>
</trkpt>
<trkpt lat="49.166363" lon="11.737360">
<ele>528.2</ele>
<speed>12.6</speed>
<course>306.2</course>
<desc>Speed 12.6 km/h Distance 2.90 km</desc>
<time>2010-06-13T06:13:37.83</time>
<name>692</name>
</trkpt>
<trkpt lat="49.166382" lon="11.737322">
<ele>528.3</ele>
<speed>12.4</speed>
<course>299.1</course>
<desc>Speed 12.4 km/h Distance 2.90 km</desc>
<time>2010-06-13T06:13:38.84</time>
<name>693</name>
</trkpt>
<trkpt lat="49.166395" lon="11.737285">
<ele>528.6</ele>
<speed>12.5</speed>
<course>310.8</course>
<desc>Speed 12.5 km/h Distance 2.90 km</desc>
<time>2010-06-13T06:13:39.84</time>
<name>694</name>
</trkpt>
<trkpt lat="49.166417" lon="11.737247">
<ele>528.7</ele>
<speed>12.2</speed>
<course>305.0</course>
<desc>Speed 12.2 km/h Distance 2.91 km</desc>
<time>2010-06-13T06:13:40.84</time>
<name>695</name>
</trkpt>
<trkpt lat="49.166435" lon="11.737207">
<ele>528.8</ele>
<speed>12.0</speed>
<course>297.0</course>
<desc>Speed 12.0 km/h Distance 2.91 km</desc>
<time>2010-06-13T06:13:41.84</time>
<name>696</name>
</trkpt>
<trkpt lat="49.166448" lon="11.737167">
<ele>528.9</ele>
<speed>11.6</speed>
<course>297.9</course>
<desc>Speed 11.6 km/h Distance 2.92 km</desc>
<time>2010-06-13T06:13:42.85</time>
<name>697</name>
</trkpt>
<trkpt lat="49.166463" lon="11.737123">
<ele>529.0</ele>
<speed>12.4</speed>
<course>304.2</course>
<desc>Speed 12.4 km/h Distance 2.92 km</desc>
<time>2010-06-13T06:13:43.84</time>
<name>698</name>
</trkpt>
<trkpt lat="49.166483" lon="11.737078">
<ele>528.7</ele>
<speed>12.7</speed>
<course>304.4</course>
<desc>Speed 12.7 km/h Distance 2.92 km</desc>
<time>2010-06-13T06:13:44.85</time>
<name>699</name>
</trkpt>
<trkpt lat="49.166505" lon="11.737030">
<ele>528.1</ele>
<speed>13.3</speed>
<course>321.5</course>
<desc>Speed 13.3 km/h Distance 2.93 km</desc>
<time>2010-06-13T06:13:45.86</time>
<name>700</name>
</trkpt>
<trkpt lat="49.166543" lon="11.736983">
<ele>528.6</ele>
<speed>14.2</speed>
<course>305.5</course>
<desc>Speed 14.2 km/h Distance 2.93 km</desc>
<time>2010-06-13T06:13:46.83</time>
<name>701</name>
</trkpt>
<trkpt lat="49.166567" lon="11.736933">
<ele>528.1</ele>
<speed>13.5</speed>
<course>300.1</course>
<desc>Speed 13.5 km/h Distance 2.94 km</desc>
<time>2010-06-13T06:13:47.84</time>
<name>702</name>
</trkpt>
<trkpt lat="49.166585" lon="11.736885">
<ele>527.9</ele>
<speed>13.3</speed>
<course>291.6</course>
<desc>Speed 13.3 km/h Distance 2.94 km</desc>
<time>2010-06-13T06:13:48.84</time>
<name>703</name>
</trkpt>
<trkpt lat="49.166597" lon="11.736840">
<ele>527.8</ele>
<speed>12.7</speed>
<course>313.9</course>
<desc>Speed 12.7 km/h Distance 2.94 km</desc>
<time>2010-06-13T06:13:49.85</time>
<name>704</name>
</trkpt>
<trkpt lat="49.166625" lon="11.736795">
<ele>529.0</ele>
<speed>12.8</speed>
<course>279.0</course>
<desc>Speed 12.8 km/h Distance 2.95 km</desc>
<time>2010-06-13T06:13:50.85</time>
<name>705</name>
</trkpt>
<trkpt lat="49.166630" lon="11.736747">
<ele>529.1</ele>
<speed>13.0</speed>
<course>266.2</course>
<desc>Speed 13.0 km/h Distance 2.95 km</desc>
<time>2010-06-13T06:13:51.84</time>
<name>706</name>
</trkpt>
<trkpt lat="49.166628" lon="11.736708">
<ele>530.1</ele>
<speed>12.9</speed>
<course>287.0</course>
<desc>Speed 12.9 km/h Distance 2.96 km</desc>
<time>2010-06-13T06:13:52.84</time>
<name>707</name>
</trkpt>
<trkpt lat="49.166637" lon="11.736667">
<ele>531.3</ele>
<speed>12.9</speed>
<course>294.9</course>
<desc>Speed 12.9 km/h Distance 2.96 km</desc>
<time>2010-06-13T06:13:53.83</time>
<name>708</name>
</trkpt>
<trkpt lat="49.166653" lon="11.736612">
<ele>531.0</ele>
<speed>13.6</speed>
<course>293.6</course>
<desc>Speed 13.6 km/h Distance 2.96 km</desc>
<time>2010-06-13T06:13:54.84</time>
<name>709</name>
</trkpt>
<trkpt lat="49.166670" lon="11.736553">
<ele>530.5</ele>
<speed>14.6</speed>
<course>313.9</course>
<desc>Speed 14.6 km/h Distance 2.97 km</desc>
<time>2010-06-13T06:13:55.83</time>
<name>710</name>
</trkpt>
<trkpt lat="49.166707" lon="11.736495">
<ele>531.8</ele>
<speed>15.1</speed>
<course>288.8</course>
<desc>Speed 15.1 km/h Distance 2.97 km</desc>
<time>2010-06-13T06:13:56.84</time>
<name>711</name>
</trkpt>
<trkpt lat="49.166720" lon="11.736435">
<ele>532.6</ele>
<speed>16.2</speed>
<course>267.9</course>
<desc>Speed 16.2 km/h Distance 2.98 km</desc>
<time>2010-06-13T06:13:57.84</time>
<name>712</name>
</trkpt>
<trkpt lat="49.166718" lon="11.736367">
<ele>532.6</ele>
<speed>15.9</speed>
<course>255.7</course>
<desc>Speed 15.9 km/h Distance 2.98 km</desc>
<time>2010-06-13T06:13:58.83</time>
<name>713</name>
</trkpt>
<trkpt lat="49.166708" lon="11.736307">
<ele>534.0</ele>
<speed>16.2</speed>
<course>254.3</course>
<desc>Speed 16.2 km/h Distance 2.99 km</desc>
<time>2010-06-13T06:13:59.82</time>
<name>714</name>
</trkpt>
<trkpt lat="49.166697" lon="11.736243">
<ele>534.8</ele>
<speed>16.3</speed>
<course>261.3</course>
<desc>Speed 16.3 km/h Distance 2.99 km</desc>
<time>2010-06-13T06:14:00.82</time>
<name>715</name>
</trkpt>
<trkpt lat="49.166690" lon="11.736177">
<ele>536.0</ele>
<speed>16.8</speed>
<course>245.8</course>
<desc>Speed 16.8 km/h Distance 3.00 km</desc>
<time>2010-06-13T06:14:01.84</time>
<name>716</name>
</trkpt>
<trkpt lat="49.166673" lon="11.736120">
<ele>536.8</ele>
<speed>17.1</speed>
<course>255.7</course>
<desc>Speed 17.1 km/h Distance 3.00 km</desc>
<time>2010-06-13T06:14:02.83</time>
<name>717</name>
</trkpt>
<trkpt lat="49.166663" lon="11.736060">
<ele>537.6</ele>
<speed>17.5</speed>
<course>258.0</course>
<desc>Speed 17.5 km/h Distance 3.01 km</desc>
<time>2010-06-13T06:14:03.85</time>
<name>718</name>
</trkpt>
<trkpt lat="49.166655" lon="11.736000">
<ele>537.4</ele>
<speed>17.9</speed>
<course>256.9</course>
<desc>Speed 17.9 km/h Distance 3.01 km</desc>
<time>2010-06-13T06:14:04.83</time>
<name>719</name>
</trkpt>
<trkpt lat="49.166643" lon="11.735923">
<ele>538.4</ele>
<speed>17.6</speed>
<course>255.7</course>
<desc>Speed 17.6 km/h Distance 3.02 km</desc>
<time>2010-06-13T06:14:05.84</time>
<name>720</name>
</trkpt>
<trkpt lat="49.166632" lon="11.735853">
<ele>539.1</ele>
<speed>16.9</speed>
<course>252.6</course>
<desc>Speed 16.9 km/h Distance 3.02 km</desc>
<time>2010-06-13T06:14:06.84</time>
<name>721</name>
</trkpt>
<trkpt lat="49.166618" lon="11.735788">
<ele>539.0</ele>
<speed>16.9</speed>
<course>251.9</course>
<desc>Speed 16.9 km/h Distance 3.03 km</desc>
<time>2010-06-13T06:14:07.83</time>
<name>722</name>
</trkpt>
<trkpt lat="49.166603" lon="11.735718">
<ele>539.7</ele>
<speed>17.6</speed>
<course>258.6</course>
<desc>Speed 17.6 km/h Distance 3.03 km</desc>
<time>2010-06-13T06:14:08.84</time>
<name>723</name>
</trkpt>
<trkpt lat="49.166595" lon="11.735655">
<ele>539.9</ele>
<speed>17.3</speed>
<course>255.7</course>
<desc>Speed 17.3 km/h Distance 3.04 km</desc>
<time>2010-06-13T06:14:09.84</time>
<name>724</name>
</trkpt>
<trkpt lat="49.166585" lon="11.735595">
<ele>540.0</ele>
<speed>16.6</speed>
<course>258.1</course>
<desc>Speed 16.6 km/h Distance 3.04 km</desc>
<time>2010-06-13T06:14:10.83</time>
<name>725</name>
</trkpt>
<trkpt lat="49.166578" lon="11.735547">
<ele>539.4</ele>
<speed>16.2</speed>
<course>258.1</course>
<desc>Speed 16.2 km/h Distance 3.04 km</desc>
<time>2010-06-13T06:14:11.85</time>
<name>726</name>
</trkpt>
<trkpt lat="49.166572" lon="11.735498">
<ele>538.9</ele>
<speed>14.7</speed>
<course>255.7</course>
<desc>Speed 14.7 km/h Distance 3.05 km</desc>
<time>2010-06-13T06:14:12.84</time>
<name>727</name>
</trkpt>
<trkpt lat="49.166563" lon="11.735448">
<ele>538.9</ele>
<speed>14.9</speed>
<course>254.9</course>
<desc>Speed 14.9 km/h Distance 3.05 km</desc>
<time>2010-06-13T06:14:13.84</time>
<name>728</name>
</trkpt>
<trkpt lat="49.166553" lon="11.735392">
<ele>538.9</ele>
<speed>14.6</speed>
<course>251.9</course>
<desc>Speed 14.6 km/h Distance 3.06 km</desc>
<time>2010-06-13T06:14:14.84</time>
<name>729</name>
</trkpt>
<trkpt lat="49.166543" lon="11.735345">
<ele>538.7</ele>
<speed>14.0</speed>
<course>254.7</course>
<desc>Speed 14.0 km/h Distance 3.06 km</desc>
<time>2010-06-13T06:14:15.85</time>
<name>730</name>
</trkpt>
<trkpt lat="49.166535" lon="11.735298">
<ele>537.5</ele>
<speed>13.5</speed>
<course>267.3</course>
<desc>Speed 13.5 km/h Distance 3.06 km</desc>
<time>2010-06-13T06:14:16.85</time>
<name>731</name>
</trkpt>
<trkpt lat="49.166533" lon="11.735243">
<ele>536.5</ele>
<speed>12.2</speed>
<course>266.8</course>
<desc>Speed 12.2 km/h Distance 3.07 km</desc>
<time>2010-06-13T06:14:17.83</time>
<name>732</name>
</trkpt>
<trkpt lat="49.166532" lon="11.735198">
<ele>536.2</ele>
<speed>11.3</speed>
<course>275.6</course>
<desc>Speed 11.3 km/h Distance 3.07 km</desc>
<time>2010-06-13T06:14:18.84</time>
<name>733</name>
</trkpt>
<trkpt lat="49.166535" lon="11.735147">
<ele>534.8</ele>
<speed>11.7</speed>
<course>290.3</course>
<desc>Speed 11.7 km/h Distance 3.07 km</desc>
<time>2010-06-13T06:14:19.84</time>
<name>734</name>
</trkpt>
<trkpt lat="49.166547" lon="11.735098">
<ele>534.1</ele>
<speed>14.3</speed>
<course>291.4</course>
<desc>Speed 14.3 km/h Distance 3.08 km</desc>
<time>2010-06-13T06:14:20.85</time>
<name>735</name>
</trkpt>
<trkpt lat="49.166565" lon="11.735027">
<ele>533.1</ele>
<speed>18.2</speed>
<course>307.7</course>
<desc>Speed 18.2 km/h Distance 3.08 km</desc>
<time>2010-06-13T06:14:21.85</time>
<name>736</name>
</trkpt>
<trkpt lat="49.166640" lon="11.734878">
<ele>532.3</ele>
<speed>20.4</speed>
<course>286.6</course>
<desc>Speed 20.4 km/h Distance 3.10 km</desc>
<time>2010-06-13T06:14:23.84</time>
<name>737</name>
</trkpt>
<trkpt lat="49.166652" lon="11.734818">
<ele>531.8</ele>
<speed>19.2</speed>
<course>281.8</course>
<desc>Speed 19.2 km/h Distance 3.10 km</desc>
<time>2010-06-13T06:14:24.83</time>
<name>738</name>
</trkpt>
<trkpt lat="49.166662" lon="11.734745">
<ele>530.6</ele>
<speed>18.7</speed>
<course>282.3</course>
<desc>Speed 18.7 km/h Distance 3.11 km</desc>
<time>2010-06-13T06:14:25.84</time>
<name>739</name>
</trkpt>
<trkpt lat="49.166672" lon="11.734675">
<ele>529.4</ele>
<speed>16.9</speed>
<course>290.9</course>
<desc>Speed 16.9 km/h Distance 3.11 km</desc>
<time>2010-06-13T06:14:26.84</time>
<name>740</name>
</trkpt>
<trkpt lat="49.166687" lon="11.734615">
<ele>529.7</ele>
<speed>15.8</speed>
<course>279.1</course>
<desc>Speed 15.8 km/h Distance 3.12 km</desc>
<time>2010-06-13T06:14:27.85</time>
<name>741</name>
</trkpt>
<trkpt lat="49.166693" lon="11.734552">
<ele>529.0</ele>
<speed>14.5</speed>
<course>283.9</course>
<desc>Speed 14.5 km/h Distance 3.12 km</desc>
<time>2010-06-13T06:14:28.84</time>
<name>742</name>
</trkpt>
<trkpt lat="49.166702" lon="11.734500">
<ele>528.9</ele>
<speed>13.5</speed>
<course>250.6</course>
<desc>Speed 13.5 km/h Distance 3.13 km</desc>
<time>2010-06-13T06:14:29.84</time>
<name>743</name>
</trkpt>
<trkpt lat="49.166692" lon="11.734457">
<ele>528.9</ele>
<speed>13.3</speed>
<course>267.7</course>
<desc>Speed 13.3 km/h Distance 3.13 km</desc>
<time>2010-06-13T06:14:30.84</time>
<name>744</name>
</trkpt>
<trkpt lat="49.166690" lon="11.734393">
<ele>529.1</ele>
<speed>13.4</speed>
<course>253.0</course>
<desc>Speed 13.4 km/h Distance 3.13 km</desc>
<time>2010-06-13T06:14:31.84</time>
<name>745</name>
</trkpt>
<trkpt lat="49.166678" lon="11.734335">
<ele>528.1</ele>
<speed>13.8</speed>
<course>246.7</course>
<desc>Speed 13.8 km/h Distance 3.14 km</desc>
<time>2010-06-13T06:14:32.85</time>
<name>746</name>
</trkpt>
<trkpt lat="49.166663" lon="11.734282">
<ele>525.8</ele>
<speed>12.7</speed>
<course>279.0</course>
<desc>Speed 12.7 km/h Distance 3.14 km</desc>
<time>2010-06-13T06:14:33.83</time>
<name>747</name>
</trkpt>
<trkpt lat="49.166668" lon="11.734233">
<ele>526.9</ele>
<speed>10.9</speed>
<course>278.4</course>
<desc>Speed 10.9 km/h Distance 3.15 km</desc>
<time>2010-06-13T06:14:34.84</time>
<name>748</name>
</trkpt>
<trkpt lat="49.166673" lon="11.734182">
<ele>527.3</ele>
<speed>12.0</speed>
<course>280.8</course>
<desc>Speed 12.0 km/h Distance 3.15 km</desc>
<time>2010-06-13T06:14:35.83</time>
<name>749</name>
</trkpt>
<trkpt lat="49.166682" lon="11.734115">
<ele>527.0</ele>
<speed>12.2</speed>
<course>285.9</course>
<desc>Speed 12.2 km/h Distance 3.16 km</desc>
<time>2010-06-13T06:14:36.86</time>
<name>750</name>
</trkpt>
<trkpt lat="49.166705" lon="11.733990">
<ele>526.4</ele>
<speed>12.0</speed>
<course>295.1</course>
<desc>Speed 12.0 km/h Distance 3.16 km</desc>
<time>2010-06-13T06:14:38.84</time>
<name>751</name>
</trkpt>
<trkpt lat="49.166723" lon="11.733930">
<ele>525.5</ele>
<speed>12.7</speed>
<course>300.1</course>
<desc>Speed 12.7 km/h Distance 3.17 km</desc>
<time>2010-06-13T06:14:39.83</time>
<name>752</name>
</trkpt>
<trkpt lat="49.166747" lon="11.733868">
<ele>524.5</ele>
<speed>13.6</speed>
<course>323.2</course>
<desc>Speed 13.6 km/h Distance 3.17 km</desc>
<time>2010-06-13T06:14:40.84</time>
<name>753</name>
</trkpt>
<trkpt lat="49.166828" lon="11.733775">
<ele>525.3</ele>
<speed>14.8</speed>
<course>324.8</course>
<desc>Speed 14.8 km/h Distance 3.19 km</desc>
<time>2010-06-13T06:14:42.83</time>
<name>754</name>
</trkpt>
<trkpt lat="49.166872" lon="11.733728">
<ele>525.1</ele>
<speed>15.3</speed>
<course>325.9</course>
<desc>Speed 15.3 km/h Distance 3.19 km</desc>
<time>2010-06-13T06:14:43.84</time>
<name>755</name>
</trkpt>
<trkpt lat="49.166917" lon="11.733682">
<ele>524.4</ele>
<speed>18.8</speed>
<course>322.8</course>
<desc>Speed 18.8 km/h Distance 3.20 km</desc>
<time>2010-06-13T06:14:44.83</time>
<name>756</name>
</trkpt>
<trkpt lat="49.166958" lon="11.733633">
<ele>523.5</ele>
<speed>18.8</speed>
<course>329.6</course>
<desc>Speed 18.8 km/h Distance 3.20 km</desc>
<time>2010-06-13T06:14:45.84</time>
<name>757</name>
</trkpt>
<trkpt lat="49.167007" lon="11.733590">
<ele>522.6</ele>
<speed>19.7</speed>
<course>328.9</course>
<desc>Speed 19.7 km/h Distance 3.21 km</desc>
<time>2010-06-13T06:14:46.83</time>
<name>758</name>
</trkpt>
<trkpt lat="49.167050" lon="11.733550">
<ele>521.9</ele>
<speed>19.1</speed>
<course>325.7</course>
<desc>Speed 19.1 km/h Distance 3.22 km</desc>
<time>2010-06-13T06:14:47.84</time>
<name>759</name>
</trkpt>
<trkpt lat="49.167090" lon="11.733508">
<ele>520.3</ele>
<speed>19.6</speed>
<course>324.8</course>
<desc>Speed 19.6 km/h Distance 3.22 km</desc>
<time>2010-06-13T06:14:48.83</time>
<name>760</name>
</trkpt>
<trkpt lat="49.167132" lon="11.733463">
<ele>519.2</ele>
<speed>20.8</speed>
<course>322.1</course>
<desc>Speed 20.8 km/h Distance 3.23 km</desc>
<time>2010-06-13T06:14:49.85</time>
<name>761</name>
</trkpt>
<trkpt lat="49.167175" lon="11.733412">
<ele>518.3</ele>
<speed>21.5</speed>
<course>318.4</course>
<desc>Speed 21.5 km/h Distance 3.23 km</desc>
<time>2010-06-13T06:14:50.82</time>
<name>762</name>
</trkpt>
<trkpt lat="49.167217" lon="11.733355">
<ele>517.2</ele>
<speed>22.2</speed>
<course>314.0</course>
<desc>Speed 22.2 km/h Distance 3.24 km</desc>
<time>2010-06-13T06:14:51.83</time>
<name>763</name>
</trkpt>
<trkpt lat="49.167257" lon="11.733292">
<ele>516.1</ele>
<speed>22.8</speed>
<course>311.8</course>
<desc>Speed 22.8 km/h Distance 3.25 km</desc>
<time>2010-06-13T06:14:52.83</time>
<name>764</name>
</trkpt>
<trkpt lat="49.167297" lon="11.733223">
<ele>515.0</ele>
<speed>24.0</speed>
<course>302.9</course>
<desc>Speed 24.0 km/h Distance 3.25 km</desc>
<time>2010-06-13T06:14:53.84</time>
<name>765</name>
</trkpt>
<trkpt lat="49.167328" lon="11.733148">
<ele>513.3</ele>
<speed>23.5</speed>
<course>275.1</course>
<desc>Speed 23.5 km/h Distance 3.26 km</desc>
<time>2010-06-13T06:14:54.85</time>
<name>766</name>
</trkpt>
<trkpt lat="49.167333" lon="11.733063">
<ele>509.5</ele>
<speed>24.3</speed>
<course>294.6</course>
<desc>Speed 24.3 km/h Distance 3.26 km</desc>
<time>2010-06-13T06:14:55.84</time>
<name>767</name>
</trkpt>
<trkpt lat="49.167358" lon="11.732980">
<ele>508.5</ele>
<speed>26.4</speed>
<course>306.9</course>
<desc>Speed 26.4 km/h Distance 3.27 km</desc>
<time>2010-06-13T06:14:56.84</time>
<name>768</name>
</trkpt>
<trkpt lat="49.167403" lon="11.732888">
<ele>508.1</ele>
<speed>28.8</speed>
<course>305.0</course>
<desc>Speed 28.8 km/h Distance 3.28 km</desc>
<time>2010-06-13T06:14:57.84</time>
<name>769</name>
</trkpt>
<trkpt lat="49.167448" lon="11.732790">
<ele>507.5</ele>
<speed>29.2</speed>
<course>307.4</course>
<desc>Speed 29.2 km/h Distance 3.29 km</desc>
<time>2010-06-13T06:14:58.84</time>
<name>770</name>
</trkpt>
<trkpt lat="49.167497" lon="11.732693">
<ele>506.9</ele>
<speed>28.8</speed>
<course>292.9</course>
<desc>Speed 28.8 km/h Distance 3.30 km</desc>
<time>2010-06-13T06:14:59.83</time>
<name>771</name>
</trkpt>
<trkpt lat="49.167523" lon="11.732597">
<ele>506.4</ele>
<speed>28.0</speed>
<course>292.3</course>
<desc>Speed 28.0 km/h Distance 3.30 km</desc>
<time>2010-06-13T06:15:00.84</time>
<name>772</name>
</trkpt>
<trkpt lat="49.167548" lon="11.732503">
<ele>505.1</ele>
<speed>27.1</speed>
<course>284.1</course>
<desc>Speed 27.1 km/h Distance 3.31 km</desc>
<time>2010-06-13T06:15:01.83</time>
<name>773</name>
</trkpt>
<trkpt lat="49.167563" lon="11.732412">
<ele>504.0</ele>
<speed>26.5</speed>
<course>288.8</course>
<desc>Speed 26.5 km/h Distance 3.32 km</desc>
<time>2010-06-13T06:15:02.83</time>
<name>774</name>
</trkpt>
<trkpt lat="49.167583" lon="11.732322">
<ele>503.2</ele>
<speed>25.2</speed>
<course>308.0</course>
<desc>Speed 25.2 km/h Distance 3.33 km</desc>
<time>2010-06-13T06:15:03.84</time>
<name>775</name>
</trkpt>
<trkpt lat="49.167622" lon="11.732247">
<ele>505.2</ele>
<speed>22.8</speed>
<course>309.4</course>
<desc>Speed 22.8 km/h Distance 3.33 km</desc>
<time>2010-06-13T06:15:04.83</time>
<name>776</name>
</trkpt>
<trkpt lat="49.167658" lon="11.732178">
<ele>506.7</ele>
<speed>20.9</speed>
<course>303.5</course>
<desc>Speed 20.9 km/h Distance 3.34 km</desc>
<time>2010-06-13T06:15:05.84</time>
<name>777</name>
</trkpt>
<trkpt lat="49.167685" lon="11.732117">
<ele>506.8</ele>
<speed>20.4</speed>
<course>300.5</course>
<desc>Speed 20.4 km/h Distance 3.34 km</desc>
<time>2010-06-13T06:15:06.83</time>
<name>778</name>
</trkpt>
<trkpt lat="49.167710" lon="11.732052">
<ele>507.0</ele>
<speed>21.4</speed>
<course>288.6</course>
<desc>Speed 21.4 km/h Distance 3.35 km</desc>
<time>2010-06-13T06:15:07.84</time>
<name>779</name>
</trkpt>
<trkpt lat="49.167728" lon="11.731968">
<ele>507.1</ele>
<speed>23.2</speed>
<course>286.4</course>
<desc>Speed 23.2 km/h Distance 3.36 km</desc>
<time>2010-06-13T06:15:08.85</time>
<name>780</name>
</trkpt>
<trkpt lat="49.167747" lon="11.731873">
<ele>506.8</ele>
<speed>26.1</speed>
<course>292.1</course>
<desc>Speed 26.1 km/h Distance 3.36 km</desc>
<time>2010-06-13T06:15:09.83</time>
<name>781</name>
</trkpt>
<trkpt lat="49.167775" lon="11.731767">
<ele>507.3</ele>
<speed>28.0</speed>
<course>293.9</course>
<desc>Speed 28.0 km/h Distance 3.37 km</desc>
<time>2010-06-13T06:15:10.85</time>
<name>782</name>
</trkpt>
<trkpt lat="49.167805" lon="11.731663">
<ele>507.0</ele>
<speed>26.8</speed>
<course>306.9</course>
<desc>Speed 26.8 km/h Distance 3.38 km</desc>
<time>2010-06-13T06:15:11.83</time>
<name>783</name>
</trkpt>
<trkpt lat="49.167848" lon="11.731575">
<ele>507.7</ele>
<speed>26.2</speed>
<course>309.6</course>
<desc>Speed 26.2 km/h Distance 3.39 km</desc>
<time>2010-06-13T06:15:12.84</time>
<name>784</name>
</trkpt>
<trkpt lat="49.167892" lon="11.731495">
<ele>507.8</ele>
<speed>25.5</speed>
<course>326.1</course>
<desc>Speed 25.5 km/h Distance 3.40 km</desc>
<time>2010-06-13T06:15:13.84</time>
<name>785</name>
</trkpt>
<trkpt lat="49.167952" lon="11.731433">
<ele>508.6</ele>
<speed>25.5</speed>
<course>328.3</course>
<desc>Speed 25.5 km/h Distance 3.40 km</desc>
<time>2010-06-13T06:15:14.84</time>
<name>786</name>
</trkpt>
<trkpt lat="49.168010" lon="11.731378">
<ele>508.7</ele>
<speed>26.5</speed>
<course>340.0</course>
<desc>Speed 26.5 km/h Distance 3.41 km</desc>
<time>2010-06-13T06:15:15.83</time>
<name>787</name>
</trkpt>
<trkpt lat="49.168085" lon="11.731337">
<ele>510.4</ele>
<speed>26.9</speed>
<course>340.0</course>
<desc>Speed 26.9 km/h Distance 3.42 km</desc>
<time>2010-06-13T06:15:16.85</time>
<name>788</name>
</trkpt>
<trkpt lat="49.168157" lon="11.731297">
<ele>511.6</ele>
<speed>26.9</speed>
<course>341.5</course>
<desc>Speed 26.9 km/h Distance 3.43 km</desc>
<time>2010-06-13T06:15:17.84</time>
<name>789</name>
</trkpt>
<trkpt lat="49.168228" lon="11.731260">
<ele>512.9</ele>
<speed>27.1</speed>
<course>341.9</course>
<desc>Speed 27.1 km/h Distance 3.44 km</desc>
<time>2010-06-13T06:15:18.84</time>
<name>790</name>
</trkpt>
<trkpt lat="49.168295" lon="11.731227">
<ele>513.4</ele>
<speed>26.9</speed>
<course>344.1</course>
<desc>Speed 26.9 km/h Distance 3.45 km</desc>
<time>2010-06-13T06:15:19.83</time>
<name>791</name>
</trkpt>
<trkpt lat="49.168360" lon="11.731198">
<ele>514.2</ele>
<speed>25.5</speed>
<course>338.8</course>
<desc>Speed 25.5 km/h Distance 3.45 km</desc>
<time>2010-06-13T06:15:20.83</time>
<name>792</name>
</trkpt>
<trkpt lat="49.168413" lon="11.731167">
<ele>513.9</ele>
<speed>24.6</speed>
<course>339.8</course>
<desc>Speed 24.6 km/h Distance 3.46 km</desc>
<time>2010-06-13T06:15:21.84</time>
<name>793</name>
</trkpt>
<trkpt lat="49.168467" lon="11.731137">
<ele>513.8</ele>
<speed>23.8</speed>
<course>346.1</course>
<desc>Speed 23.8 km/h Distance 3.47 km</desc>
<time>2010-06-13T06:15:22.84</time>
<name>794</name>
</trkpt>
<trkpt lat="49.168528" lon="11.731113">
<ele>514.7</ele>
<speed>22.6</speed>
<course>344.9</course>
<desc>Speed 22.6 km/h Distance 3.47 km</desc>
<time>2010-06-13T06:15:23.84</time>
<name>795</name>
</trkpt>
<trkpt lat="49.168585" lon="11.731090">
<ele>515.1</ele>
<speed>21.0</speed>
<course>344.7</course>
<desc>Speed 21.0 km/h Distance 3.48 km</desc>
<time>2010-06-13T06:15:24.84</time>
<name>796</name>
</trkpt>
<trkpt lat="49.168637" lon="11.731068">
<ele>515.0</ele>
<speed>21.3</speed>
<course>340.8</course>
<desc>Speed 21.3 km/h Distance 3.49 km</desc>
<time>2010-06-13T06:15:25.84</time>
<name>797</name>
</trkpt>
<trkpt lat="49.168690" lon="11.731040">
<ele>515.1</ele>
<speed>22.1</speed>
<course>333.1</course>
<desc>Speed 22.1 km/h Distance 3.49 km</desc>
<time>2010-06-13T06:15:26.84</time>
<name>798</name>
</trkpt>
<trkpt lat="49.168742" lon="11.731000">
<ele>515.2</ele>
<speed>24.5</speed>
<course>326.0</course>
<desc>Speed 24.5 km/h Distance 3.50 km</desc>
<time>2010-06-13T06:15:27.84</time>
<name>799</name>
</trkpt>
<trkpt lat="49.168793" lon="11.730947">
<ele>515.9</ele>
<speed>25.5</speed>
<course>315.6</course>
<desc>Speed 25.5 km/h Distance 3.50 km</desc>
<time>2010-06-13T06:15:28.83</time>
<name>800</name>
</trkpt>
<trkpt lat="49.168840" lon="11.730877">
<ele>515.7</ele>
<speed>25.9</speed>
<course>308.0</course>
<desc>Speed 25.9 km/h Distance 3.51 km</desc>
<time>2010-06-13T06:15:29.83</time>
<name>801</name>
</trkpt>
<trkpt lat="49.168880" lon="11.730798">
<ele>515.6</ele>
<speed>26.4</speed>
<course>307.9</course>
<desc>Speed 26.4 km/h Distance 3.52 km</desc>
<time>2010-06-13T06:15:30.86</time>
<name>802</name>
</trkpt>
<trkpt lat="49.168923" lon="11.730713">
<ele>515.5</ele>
<speed>27.0</speed>
<course>297.9</course>
<desc>Speed 27.0 km/h Distance 3.53 km</desc>
<time>2010-06-13T06:15:31.85</time>
<name>803</name>
</trkpt>
<trkpt lat="49.168953" lon="11.730627">
<ele>515.3</ele>
<speed>26.3</speed>
<course>306.3</course>
<desc>Speed 26.3 km/h Distance 3.53 km</desc>
<time>2010-06-13T06:15:32.83</time>
<name>804</name>
</trkpt>
<trkpt lat="49.168995" lon="11.730540">
<ele>514.9</ele>
<speed>26.5</speed>
<course>294.9</course>
<desc>Speed 26.5 km/h Distance 3.54 km</desc>
<time>2010-06-13T06:15:33.84</time>
<name>805</name>
</trkpt>
<trkpt lat="49.169023" lon="11.730447">
<ele>514.7</ele>
<speed>27.0</speed>
<course>292.9</course>
<desc>Speed 27.0 km/h Distance 3.55 km</desc>
<time>2010-06-13T06:15:34.84</time>
<name>806</name>
</trkpt>
<trkpt lat="49.169050" lon="11.730350">
<ele>514.4</ele>
<speed>27.3</speed>
<course>295.0</course>
<desc>Speed 27.3 km/h Distance 3.56 km</desc>
<time>2010-06-13T06:15:35.83</time>
<name>807</name>
</trkpt>
<trkpt lat="49.169080" lon="11.730252">
<ele>514.1</ele>
<speed>28.0</speed>
<course>298.2</course>
<desc>Speed 28.0 km/h Distance 3.57 km</desc>
<time>2010-06-13T06:15:36.83</time>
<name>808</name>
</trkpt>
<trkpt lat="49.169113" lon="11.730157">
<ele>513.8</ele>
<speed>28.4</speed>
<course>298.9</course>
<desc>Speed 28.4 km/h Distance 3.57 km</desc>
<time>2010-06-13T06:15:37.84</time>
<name>809</name>
</trkpt>
<trkpt lat="49.169150" lon="11.730055">
<ele>513.0</ele>
<speed>27.9</speed>
<course>291.6</course>
<desc>Speed 27.9 km/h Distance 3.58 km</desc>
<time>2010-06-13T06:15:38.84</time>
<name>810</name>
</trkpt>
<trkpt lat="49.169173" lon="11.729965">
<ele>512.8</ele>
<speed>26.6</speed>
<course>303.9</course>
<desc>Speed 26.6 km/h Distance 3.59 km</desc>
<time>2010-06-13T06:15:39.83</time>
<name>811</name>
</trkpt>
<trkpt lat="49.169210" lon="11.729882">
<ele>512.4</ele>
<speed>26.0</speed>
<course>305.4</course>
<desc>Speed 26.0 km/h Distance 3.60 km</desc>
<time>2010-06-13T06:15:40.84</time>
<name>812</name>
</trkpt>
<trkpt lat="49.169253" lon="11.729788">
<ele>511.2</ele>
<speed>27.1</speed>
<course>299.5</course>
<desc>Speed 27.1 km/h Distance 3.60 km</desc>
<time>2010-06-13T06:15:41.83</time>
<name>813</name>
</trkpt>
<trkpt lat="49.169287" lon="11.729698">
<ele>510.2</ele>
<speed>26.4</speed>
<course>309.5</course>
<desc>Speed 26.4 km/h Distance 3.61 km</desc>
<time>2010-06-13T06:15:42.83</time>
<name>814</name>
</trkpt>
<trkpt lat="49.169333" lon="11.729612">
<ele>509.6</ele>
<speed>28.2</speed>
<course>295.0</course>
<desc>Speed 28.2 km/h Distance 3.62 km</desc>
<time>2010-06-13T06:15:43.84</time>
<name>815</name>
</trkpt>
<trkpt lat="49.169363" lon="11.729513">
<ele>508.1</ele>
<speed>28.0</speed>
<course>295.8</course>
<desc>Speed 28.0 km/h Distance 3.63 km</desc>
<time>2010-06-13T06:15:44.83</time>
<name>816</name>
</trkpt>
<trkpt lat="49.169395" lon="11.729413">
<ele>506.9</ele>
<speed>29.0</speed>
<course>277.0</course>
<desc>Speed 29.0 km/h Distance 3.64 km</desc>
<time>2010-06-13T06:15:45.82</time>
<name>817</name>
</trkpt>
<trkpt lat="49.169403" lon="11.729310">
<ele>505.7</ele>
<speed>28.8</speed>
<course>309.7</course>
<desc>Speed 28.8 km/h Distance 3.64 km</desc>
<time>2010-06-13T06:15:46.83</time>
<name>818</name>
</trkpt>
<trkpt lat="49.169457" lon="11.729212">
<ele>505.6</ele>
<speed>31.3</speed>
<course>303.2</course>
<desc>Speed 31.3 km/h Distance 3.65 km</desc>
<time>2010-06-13T06:15:47.82</time>
<name>819</name>
</trkpt>
<trkpt lat="49.169502" lon="11.729107">
<ele>505.2</ele>
<speed>32.8</speed>
<course>295.3</course>
<desc>Speed 32.8 km/h Distance 3.66 km</desc>
<time>2010-06-13T06:15:48.84</time>
<name>820</name>
</trkpt>
<trkpt lat="49.169537" lon="11.728993">
<ele>504.8</ele>
<speed>32.3</speed>
<course>297.0</course>
<desc>Speed 32.3 km/h Distance 3.67 km</desc>
<time>2010-06-13T06:15:49.82</time>
<name>821</name>
</trkpt>
<trkpt lat="49.169572" lon="11.728888">
<ele>504.5</ele>
<speed>30.7</speed>
<course>295.5</course>
<desc>Speed 30.7 km/h Distance 3.68 km</desc>
<time>2010-06-13T06:15:50.84</time>
<name>822</name>
</trkpt>
<trkpt lat="49.169605" lon="11.728782">
<ele>504.1</ele>
<speed>30.5</speed>
<course>296.7</course>
<desc>Speed 30.5 km/h Distance 3.69 km</desc>
<time>2010-06-13T06:15:51.84</time>
<name>823</name>
</trkpt>
<trkpt lat="49.169640" lon="11.728675">
<ele>503.5</ele>
<speed>31.6</speed>
<course>302.0</course>
<desc>Speed 31.6 km/h Distance 3.70 km</desc>
<time>2010-06-13T06:15:52.83</time>
<name>824</name>
</trkpt>
<trkpt lat="49.169685" lon="11.728565">
<ele>502.5</ele>
<speed>33.6</speed>
<course>297.3</course>
<desc>Speed 33.6 km/h Distance 3.71 km</desc>
<time>2010-06-13T06:15:53.84</time>
<name>825</name>
</trkpt>
<trkpt lat="49.169725" lon="11.728447">
<ele>501.9</ele>
<speed>35.4</speed>
<course>296.7</course>
<desc>Speed 35.4 km/h Distance 3.72 km</desc>
<time>2010-06-13T06:15:54.84</time>
<name>826</name>
</trkpt>
<trkpt lat="49.169765" lon="11.728325">
<ele>500.9</ele>
<speed>36.2</speed>
<course>303.4</course>
<desc>Speed 36.2 km/h Distance 3.73 km</desc>
<time>2010-06-13T06:15:55.83</time>
<name>827</name>
</trkpt>
<trkpt lat="49.169817" lon="11.728205">
<ele>500.6</ele>
<speed>36.3</speed>
<course>297.3</course>
<desc>Speed 36.3 km/h Distance 3.74 km</desc>
<time>2010-06-13T06:15:56.84</time>
<name>828</name>
</trkpt>
<trkpt lat="49.169858" lon="11.728082">
<ele>500.1</ele>
<speed>36.2</speed>
<course>297.0</course>
<desc>Speed 36.2 km/h Distance 3.75 km</desc>
<time>2010-06-13T06:15:57.84</time>
<name>829</name>
</trkpt>
<trkpt lat="49.169897" lon="11.727967">
<ele>499.8</ele>
<speed>33.7</speed>
<course>295.7</course>
<desc>Speed 33.7 km/h Distance 3.76 km</desc>
<time>2010-06-13T06:15:58.83</time>
<name>830</name>
</trkpt>
<trkpt lat="49.169933" lon="11.727850">
<ele>499.8</ele>
<speed>33.2</speed>
<course>278.4</course>
<desc>Speed 33.2 km/h Distance 3.77 km</desc>
<time>2010-06-13T06:15:59.84</time>
<name>831</name>
</trkpt>
<trkpt lat="49.169943" lon="11.727747">
<ele>498.8</ele>
<speed>29.8</speed>
<course>285.3</course>
<desc>Speed 29.8 km/h Distance 3.77 km</desc>
<time>2010-06-13T06:16:00.84</time>
<name>832</name>
</trkpt>
<trkpt lat="49.169963" lon="11.727635">
<ele>499.0</ele>
<speed>28.5</speed>
<course>284.1</course>
<desc>Speed 28.5 km/h Distance 3.78 km</desc>
<time>2010-06-13T06:16:01.83</time>
<name>833</name>
</trkpt>
<trkpt lat="49.169980" lon="11.727533">
<ele>500.2</ele>
<speed>25.6</speed>
<course>283.8</course>
<desc>Speed 25.6 km/h Distance 3.79 km</desc>
<time>2010-06-13T06:16:02.83</time>
<name>834</name>
</trkpt>
<trkpt lat="49.169993" lon="11.727450">
<ele>501.2</ele>
<speed>23.4</speed>
<course>280.6</course>
<desc>Speed 23.4 km/h Distance 3.80 km</desc>
<time>2010-06-13T06:16:03.82</time>
<name>835</name>
</trkpt>
<trkpt lat="49.170003" lon="11.727368">
<ele>500.4</ele>
<speed>23.3</speed>
<course>256.0</course>
<desc>Speed 23.3 km/h Distance 3.80 km</desc>
<time>2010-06-13T06:16:04.83</time>
<name>836</name>
</trkpt>
<trkpt lat="49.169992" lon="11.727297">
<ele>499.0</ele>
<speed>22.0</speed>
<course>262.6</course>
<desc>Speed 22.0 km/h Distance 3.81 km</desc>
<time>2010-06-13T06:16:05.84</time>
<name>837</name>
</trkpt>
<trkpt lat="49.169985" lon="11.727218">
<ele>497.5</ele>
<speed>20.7</speed>
<course>288.9</course>
<desc>Speed 20.7 km/h Distance 3.81 km</desc>
<time>2010-06-13T06:16:06.82</time>
<name>838</name>
</trkpt>
<trkpt lat="49.170003" lon="11.727137">
<ele>497.3</ele>
<speed>22.5</speed>
<course>274.9</course>
<desc>Speed 22.5 km/h Distance 3.82 km</desc>
<time>2010-06-13T06:16:07.83</time>
<name>839</name>
</trkpt>
<trkpt lat="49.170008" lon="11.727047">
<ele>496.4</ele>
<speed>22.4</speed>
<course>294.0</course>
<desc>Speed 22.4 km/h Distance 3.83 km</desc>
<time>2010-06-13T06:16:08.83</time>
<name>840</name>
</trkpt>
<trkpt lat="49.170032" lon="11.726967">
<ele>495.9</ele>
<speed>21.0</speed>
<course>293.4</course>
<desc>Speed 21.0 km/h Distance 3.83 km</desc>
<time>2010-06-13T06:16:09.83</time>
<name>841</name>
</trkpt>
<trkpt lat="49.170053" lon="11.726890">
<ele>495.8</ele>
<speed>19.5</speed>
<course>300.8</course>
<desc>Speed 19.5 km/h Distance 3.84 km</desc>
<time>2010-06-13T06:16:10.83</time>
<name>842</name>
</trkpt>
<trkpt lat="49.170080" lon="11.726822">
<ele>495.2</ele>
<speed>19.2</speed>
<course>282.6</course>
<desc>Speed 19.2 km/h Distance 3.84 km</desc>
<time>2010-06-13T06:16:11.82</time>
<name>843</name>
</trkpt>
<trkpt lat="49.170090" lon="11.726753">
<ele>493.7</ele>
<speed>19.0</speed>
<course>309.3</course>
<desc>Speed 19.0 km/h Distance 3.85 km</desc>
<time>2010-06-13T06:16:12.84</time>
<name>844</name>
</trkpt>
<trkpt lat="49.170128" lon="11.726682">
<ele>494.2</ele>
<speed>20.4</speed>
<course>306.1</course>
<desc>Speed 20.4 km/h Distance 3.86 km</desc>
<time>2010-06-13T06:16:13.83</time>
<name>845</name>
</trkpt>
<trkpt lat="49.170163" lon="11.726608">
<ele>494.2</ele>
<speed>21.4</speed>
<course>289.3</course>
<desc>Speed 21.4 km/h Distance 3.86 km</desc>
<time>2010-06-13T06:16:14.83</time>
<name>846</name>
</trkpt>
<trkpt lat="49.170182" lon="11.726528">
<ele>493.5</ele>
<speed>21.8</speed>
<course>287.0</course>
<desc>Speed 21.8 km/h Distance 3.87 km</desc>
<time>2010-06-13T06:16:15.82</time>
<name>847</name>
</trkpt>
<trkpt lat="49.170198" lon="11.726445">
<ele>493.6</ele>
<speed>21.7</speed>
<course>279.9</course>
<desc>Speed 21.7 km/h Distance 3.87 km</desc>
<time>2010-06-13T06:16:16.83</time>
<name>848</name>
</trkpt>
<trkpt lat="49.170207" lon="11.726372">
<ele>492.6</ele>
<speed>19.2</speed>
<course>289.3</course>
<desc>Speed 19.2 km/h Distance 3.88 km</desc>
<time>2010-06-13T06:16:17.84</time>
<name>849</name>
</trkpt>
<trkpt lat="49.170220" lon="11.726313">
<ele>491.3</ele>
<speed>16.4</speed>
<course>312.9</course>
<desc>Speed 16.4 km/h Distance 3.88 km</desc>
<time>2010-06-13T06:16:18.83</time>
<name>850</name>
</trkpt>
<trkpt lat="49.170248" lon="11.726267">
<ele>491.0</ele>
<speed>13.7</speed>
<course>327.9</course>
<desc>Speed 13.7 km/h Distance 3.89 km</desc>
<time>2010-06-13T06:16:19.82</time>
<name>851</name>
</trkpt>
<trkpt lat="49.170288" lon="11.726228">
<ele>491.5</ele>
<speed>12.7</speed>
<course>321.4</course>
<desc>Speed 12.7 km/h Distance 3.89 km</desc>
<time>2010-06-13T06:16:20.83</time>
<name>852</name>
</trkpt>
<trkpt lat="49.170318" lon="11.726192">
<ele>491.8</ele>
<speed>12.5</speed>
<course>331.2</course>
<desc>Speed 12.5 km/h Distance 3.90 km</desc>
<time>2010-06-13T06:16:21.83</time>
<name>853</name>
</trkpt>
<trkpt lat="49.170360" lon="11.726157">
<ele>492.3</ele>
<speed>12.6</speed>
<course>316.3</course>
<desc>Speed 12.6 km/h Distance 3.90 km</desc>
<time>2010-06-13T06:16:22.83</time>
<name>854</name>
</trkpt>
<trkpt lat="49.170382" lon="11.726125">
<ele>492.2</ele>
<speed>11.8</speed>
<course>331.2</course>
<desc>Speed 11.8 km/h Distance 3.91 km</desc>
<time>2010-06-13T06:16:23.82</time>
<name>855</name>
</trkpt>
<trkpt lat="49.170413" lon="11.726098">
<ele>492.4</ele>
<speed>10.6</speed>
<course>322.7</course>
<desc>Speed 10.6 km/h Distance 3.91 km</desc>
<time>2010-06-13T06:16:24.83</time>
<name>856</name>
</trkpt>
<trkpt lat="49.170433" lon="11.726075">
<ele>492.3</ele>
<speed>9.8</speed>
<course>316.5</course>
<desc>Speed 9.8 km/h Distance 3.91 km</desc>
<time>2010-06-13T06:16:25.85</time>
<name>857</name>
</trkpt>
<trkpt lat="49.170452" lon="11.726048">
<ele>492.2</ele>
<speed>10.7</speed>
<course>302.0</course>
<desc>Speed 10.7 km/h Distance 3.92 km</desc>
<time>2010-06-13T06:16:26.83</time>
<name>858</name>
</trkpt>
<trkpt lat="49.170467" lon="11.726012">
<ele>492.1</ele>
<speed>11.6</speed>
<course>249.1</course>
<desc>Speed 11.6 km/h Distance 3.92 km</desc>
<time>2010-06-13T06:16:27.83</time>
<name>859</name>
</trkpt>
<trkpt lat="49.170457" lon="11.725972">
<ele>492.3</ele>
<speed>12.5</speed>
<course>247.1</course>
<desc>Speed 12.5 km/h Distance 3.92 km</desc>
<time>2010-06-13T06:16:28.84</time>
<name>860</name>
</trkpt>
<trkpt lat="49.170443" lon="11.725923">
<ele>492.3</ele>
<speed>12.7</speed>
<course>235.8</course>
<desc>Speed 12.7 km/h Distance 3.93 km</desc>
<time>2010-06-13T06:16:29.83</time>
<name>861</name>
</trkpt>
<trkpt lat="49.170423" lon="11.725878">
<ele>492.5</ele>
<speed>12.0</speed>
<course>243.8</course>
<desc>Speed 12.0 km/h Distance 3.93 km</desc>
<time>2010-06-13T06:16:30.83</time>
<name>862</name>
</trkpt>
<trkpt lat="49.170408" lon="11.725832">
<ele>493.1</ele>
<speed>11.2</speed>
<course>231.4</course>
<desc>Speed 11.2 km/h Distance 3.93 km</desc>
<time>2010-06-13T06:16:31.83</time>
<name>863</name>
</trkpt>
<trkpt lat="49.170388" lon="11.725793">
<ele>493.6</ele>
<speed>10.6</speed>
<course>231.3</course>
<desc>Speed 10.6 km/h Distance 3.94 km</desc>
<time>2010-06-13T06:16:32.83</time>
<name>864</name>
</trkpt>
<trkpt lat="49.170370" lon="11.725758">
<ele>494.1</ele>
<speed>9.8</speed>
<course>247.4</course>
<desc>Speed 9.8 km/h Distance 3.94 km</desc>
<time>2010-06-13T06:16:33.82</time>
<name>865</name>
</trkpt>
<trkpt lat="49.170360" lon="11.725722">
<ele>495.4</ele>
<speed>8.4</speed>
<course>236.8</course>
<desc>Speed 8.4 km/h Distance 3.94 km</desc>
<time>2010-06-13T06:16:34.83</time>
<name>866</name>
</trkpt>
<trkpt lat="49.170350" lon="11.725698">
<ele>496.0</ele>
<speed>8.3</speed>
<course>217.3</course>
<desc>Speed 8.3 km/h Distance 3.95 km</desc>
<time>2010-06-13T06:16:35.83</time>
<name>867</name>
</trkpt>
<trkpt lat="49.170330" lon="11.725675">
<ele>496.1</ele>
<speed>9.2</speed>
<course>220.3</course>
<desc>Speed 9.2 km/h Distance 3.95 km</desc>
<time>2010-06-13T06:16:36.85</time>
<name>868</name>
</trkpt>
<trkpt lat="49.170313" lon="11.725653">
<ele>496.4</ele>
<speed>9.5</speed>
<course>223.6</course>
<desc>Speed 9.5 km/h Distance 3.95 km</desc>
<time>2010-06-13T06:16:37.83</time>
<name>869</name>
</trkpt>
<trkpt lat="49.170295" lon="11.725627">
<ele>496.9</ele>
<speed>10.0</speed>
<course>221.6</course>
<desc>Speed 10.0 km/h Distance 3.95 km</desc>
<time>2010-06-13T06:16:38.83</time>
<name>870</name>
</trkpt>
<trkpt lat="49.170272" lon="11.725595">
<ele>497.1</ele>
<speed>10.0</speed>
<course>220.6</course>
<desc>Speed 10.0 km/h Distance 3.96 km</desc>
<time>2010-06-13T06:16:39.84</time>
<name>871</name>
</trkpt>
<trkpt lat="49.170245" lon="11.725560">
<ele>497.6</ele>
<speed>11.8</speed>
<course>229.4</course>
<desc>Speed 11.8 km/h Distance 3.96 km</desc>
<time>2010-06-13T06:16:40.82</time>
<name>872</name>
</trkpt>
<trkpt lat="49.170222" lon="11.725518">
<ele>498.4</ele>
<speed>13.1</speed>
<course>228.6</course>
<desc>Speed 13.1 km/h Distance 3.97 km</desc>
<time>2010-06-13T06:16:41.83</time>
<name>873</name>
</trkpt>
<trkpt lat="49.170197" lon="11.725475">
<ele>497.5</ele>
<speed>12.6</speed>
<course>232.6</course>
<desc>Speed 12.6 km/h Distance 3.97 km</desc>
<time>2010-06-13T06:16:42.83</time>
<name>874</name>
</trkpt>
<trkpt lat="49.170173" lon="11.725428">
<ele>496.9</ele>
<speed>13.2</speed>
<course>233.6</course>
<desc>Speed 13.2 km/h Distance 3.97 km</desc>
<time>2010-06-13T06:16:43.83</time>
<name>875</name>
</trkpt>
<trkpt lat="49.170152" lon="11.725383">
<ele>496.9</ele>
<speed>13.4</speed>
<course>231.4</course>
<desc>Speed 13.4 km/h Distance 3.98 km</desc>
<time>2010-06-13T06:16:44.83</time>
<name>876</name>
</trkpt>
<trkpt lat="49.170132" lon="11.725345">
<ele>497.0</ele>
<speed>12.0</speed>
<course>229.9</course>
<desc>Speed 12.0 km/h Distance 3.98 km</desc>
<time>2010-06-13T06:16:45.82</time>
<name>877</name>
</trkpt>
<trkpt lat="49.170113" lon="11.725312">
<ele>496.5</ele>
<speed>10.4</speed>
<course>229.7</course>
<desc>Speed 10.4 km/h Distance 3.99 km</desc>
<time>2010-06-13T06:16:46.82</time>
<name>878</name>
</trkpt>
<trkpt lat="49.170097" lon="11.725282">
<ele>496.1</ele>
<speed>10.6</speed>
<course>217.3</course>
<desc>Speed 10.6 km/h Distance 3.99 km</desc>
<time>2010-06-13T06:16:47.83</time>
<name>879</name>
</trkpt>
<trkpt lat="49.170077" lon="11.725258">
<ele>496.5</ele>
<speed>11.7</speed>
<course>229.9</course>
<desc>Speed 11.7 km/h Distance 3.99 km</desc>
<time>2010-06-13T06:16:48.83</time>
<name>880</name>
</trkpt>
<trkpt lat="49.170058" lon="11.725225">
<ele>496.1</ele>
<speed>11.1</speed>
<course>227.9</course>
<desc>Speed 11.1 km/h Distance 3.99 km</desc>
<time>2010-06-13T06:16:49.83</time>
<name>881</name>
</trkpt>
<trkpt lat="49.170037" lon="11.725188">
<ele>495.2</ele>
<speed>10.7</speed>
<course>228.2</course>
<desc>Speed 10.7 km/h Distance 4.00 km</desc>
<time>2010-06-13T06:16:50.82</time>
<name>882</name>
</trkpt>
<trkpt lat="49.170013" lon="11.725148">
<ele>495.0</ele>
<speed>10.9</speed>
<course>231.5</course>
<desc>Speed 10.9 km/h Distance 4.00 km</desc>
<time>2010-06-13T06:16:51.82</time>
<name>883</name>
</trkpt>
<trkpt lat="49.169992" lon="11.725107">
<ele>494.9</ele>
<speed>11.8</speed>
<course>229.2</course>
<desc>Speed 11.8 km/h Distance 4.01 km</desc>
<time>2010-06-13T06:16:52.82</time>
<name>884</name>
</trkpt>
<trkpt lat="49.169970" lon="11.725068">
<ele>494.9</ele>
<speed>11.6</speed>
<course>227.9</course>
<desc>Speed 11.6 km/h Distance 4.01 km</desc>
<time>2010-06-13T06:16:53.82</time>
<name>885</name>
</trkpt>
<trkpt lat="49.169948" lon="11.725032">
<ele>495.1</ele>
<speed>12.7</speed>
<course>211.4</course>
<desc>Speed 12.7 km/h Distance 4.01 km</desc>
<time>2010-06-13T06:16:54.83</time>
<name>886</name>
</trkpt>
<trkpt lat="49.169923" lon="11.725008">
<ele>495.9</ele>
<speed>13.3</speed>
<course>235.0</course>
<desc>Speed 13.3 km/h Distance 4.02 km</desc>
<time>2010-06-13T06:16:55.84</time>
<name>887</name>
</trkpt>
<trkpt lat="49.169905" lon="11.724968">
<ele>496.3</ele>
<speed>13.8</speed>
<course>247.1</course>
<desc>Speed 13.8 km/h Distance 4.02 km</desc>
<time>2010-06-13T06:16:56.83</time>
<name>888</name>
</trkpt>
<trkpt lat="49.169892" lon="11.724920">
<ele>497.5</ele>
<speed>14.2</speed>
<course>246.4</course>
<desc>Speed 14.2 km/h Distance 4.02 km</desc>
<time>2010-06-13T06:16:57.82</time>
<name>889</name>
</trkpt>
<trkpt lat="49.169875" lon="11.724862">
<ele>497.4</ele>
<speed>13.4</speed>
<course>240.2</course>
<desc>Speed 13.4 km/h Distance 4.03 km</desc>
<time>2010-06-13T06:16:58.82</time>
<name>890</name>
</trkpt>
<trkpt lat="49.169850" lon="11.724795">
<ele>497.1</ele>
<speed>15.6</speed>
<course>217.8</course>
<desc>Speed 15.6 km/h Distance 4.03 km</desc>
<time>2010-06-13T06:16:59.83</time>
<name>891</name>
</trkpt>
<trkpt lat="49.169823" lon="11.724763">
<ele>497.3</ele>
<speed>14.2</speed>
<course>222.2</course>
<desc>Speed 14.2 km/h Distance 4.04 km</desc>
<time>2010-06-13T06:17:00.82</time>
<name>892</name>
</trkpt>
<trkpt lat="49.169793" lon="11.724722">
<ele>495.8</ele>
<speed>12.5</speed>
<course>231.4</course>
<desc>Speed 12.5 km/h Distance 4.04 km</desc>
<time>2010-06-13T06:17:01.82</time>
<name>893</name>
</trkpt>
<trkpt lat="49.169773" lon="11.724683">
<ele>495.5</ele>
<speed>13.2</speed>
<course>261.3</course>
<desc>Speed 13.2 km/h Distance 4.05 km</desc>
<time>2010-06-13T06:17:02.82</time>
<name>894</name>
</trkpt>
<trkpt lat="49.169770" lon="11.724650">
<ele>498.1</ele>
<speed>12.9</speed>
<course>243.0</course>
<desc>Speed 12.9 km/h Distance 4.05 km</desc>
<time>2010-06-13T06:17:03.83</time>
<name>895</name>
</trkpt>
<trkpt lat="49.169753" lon="11.724600">
<ele>498.0</ele>
<speed>13.5</speed>
<course>226.7</course>
<desc>Speed 13.5 km/h Distance 4.05 km</desc>
<time>2010-06-13T06:17:04.83</time>
<name>896</name>
</trkpt>
<trkpt lat="49.169727" lon="11.724557">
<ele>497.0</ele>
<speed>13.1</speed>
<course>242.2</course>
<desc>Speed 13.1 km/h Distance 4.06 km</desc>
<time>2010-06-13T06:17:05.83</time>
<name>897</name>
</trkpt>
<trkpt lat="49.169710" lon="11.724508">
<ele>496.9</ele>
<speed>13.9</speed>
<course>254.9</course>
<desc>Speed 13.9 km/h Distance 4.06 km</desc>
<time>2010-06-13T06:17:06.83</time>
<name>898</name>
</trkpt>
<trkpt lat="49.169700" lon="11.724452">
<ele>497.9</ele>
<speed>14.2</speed>
<course>261.0</course>
<desc>Speed 14.2 km/h Distance 4.06 km</desc>
<time>2010-06-13T06:17:07.82</time>
<name>899</name>
</trkpt>
<trkpt lat="49.169695" lon="11.724403">
<ele>499.1</ele>
<speed>13.2</speed>
<course>249.1</course>
<desc>Speed 13.2 km/h Distance 4.07 km</desc>
<time>2010-06-13T06:17:08.82</time>
<name>900</name>
</trkpt>
<trkpt lat="49.169683" lon="11.724357">
<ele>500.1</ele>
<speed>12.2</speed>
<course>255.2</course>
<desc>Speed 12.2 km/h Distance 4.07 km</desc>
<time>2010-06-13T06:17:09.83</time>
<name>901</name>
</trkpt>
<trkpt lat="49.169675" lon="11.724308">
<ele>500.9</ele>
<speed>11.8</speed>
<course>286.0</course>
<desc>Speed 11.8 km/h Distance 4.08 km</desc>
<time>2010-06-13T06:17:10.84</time>
<name>902</name>
</trkpt>
<trkpt lat="49.169685" lon="11.724255">
<ele>503.0</ele>
<speed>11.8</speed>
<course>304.5</course>
<desc>Speed 11.8 km/h Distance 4.08 km</desc>
<time>2010-06-13T06:17:11.82</time>
<name>903</name>
</trkpt>
<trkpt lat="49.169700" lon="11.724222">
<ele>506.0</ele>
<speed>9.8</speed>
<course>301.4</course>
<desc>Speed 9.8 km/h Distance 4.08 km</desc>
<time>2010-06-13T06:17:12.83</time>
<name>904</name>
</trkpt>
<trkpt lat="49.169713" lon="11.724188">
<ele>509.6</ele>
<speed>7.3</speed>
<course>253.0</course>
<desc>Speed 7.3 km/h Distance 4.09 km</desc>
<time>2010-06-13T06:17:13.83</time>
<name>905</name>
</trkpt>
<trkpt lat="49.169710" lon="11.724172">
<ele>510.7</ele>
<speed>6.0</speed>
<course>246.5</course>
<desc>Speed 6.0 km/h Distance 4.09 km</desc>
<time>2010-06-13T06:17:14.84</time>
<name>906</name>
</trkpt>
<trkpt lat="49.169707" lon="11.724160">
<ele>511.0</ele>
<speed>6.2</speed>
<course>274.2</course>
<desc>Speed 6.2 km/h Distance 4.09 km</desc>
<time>2010-06-13T06:17:15.82</time>
<name>907</name>
</trkpt>
<trkpt lat="49.169708" lon="11.724125">
<ele>513.1</ele>
<speed>8.5</speed>
<course>227.5</course>
<desc>Speed 8.5 km/h Distance 4.09 km</desc>
<time>2010-06-13T06:17:16.84</time>
<name>908</name>
</trkpt>
<trkpt lat="49.169693" lon="11.724100">
<ele>514.3</ele>
<speed>9.8</speed>
<course>240.6</course>
<desc>Speed 9.8 km/h Distance 4.09 km</desc>
<time>2010-06-13T06:17:17.84</time>
<name>909</name>
</trkpt>
<trkpt lat="49.169682" lon="11.724068">
<ele>515.4</ele>
<speed>10.0</speed>
<course>267.1</course>
<desc>Speed 10.0 km/h Distance 4.09 km</desc>
<time>2010-06-13T06:17:18.83</time>
<name>910</name>
</trkpt>
<trkpt lat="49.169680" lon="11.724018">
<ele>516.8</ele>
<speed>10.3</speed>
<course>245.0</course>
<desc>Speed 10.3 km/h Distance 4.10 km</desc>
<time>2010-06-13T06:17:19.82</time>
<name>911</name>
</trkpt>
<trkpt lat="49.169668" lon="11.723980">
<ele>517.0</ele>
<speed>10.4</speed>
<course>236.8</course>
<desc>Speed 10.4 km/h Distance 4.10 km</desc>
<time>2010-06-13T06:17:20.82</time>
<name>912</name>
</trkpt>
<trkpt lat="49.169653" lon="11.723945">
<ele>517.6</ele>
<speed>9.0</speed>
<course>216.0</course>
<desc>Speed 9.0 km/h Distance 4.10 km</desc>
<time>2010-06-13T06:17:21.82</time>
<name>913</name>
</trkpt>
<trkpt lat="49.169638" lon="11.723928">
<ele>517.3</ele>
<speed>8.3</speed>
<course>230.8</course>
<desc>Speed 8.3 km/h Distance 4.11 km</desc>
<time>2010-06-13T06:17:22.84</time>
<name>914</name>
</trkpt>
<trkpt lat="49.169625" lon="11.723903">
<ele>517.1</ele>
<speed>9.5</speed>
<course>233.9</course>
<desc>Speed 9.5 km/h Distance 4.11 km</desc>
<time>2010-06-13T06:17:23.83</time>
<name>915</name>
</trkpt>
<trkpt lat="49.169608" lon="11.723868">
<ele>517.8</ele>
<speed>9.8</speed>
<course>246.8</course>
<desc>Speed 9.8 km/h Distance 4.11 km</desc>
<time>2010-06-13T06:17:24.84</time>
<name>916</name>
</trkpt>
<trkpt lat="49.169597" lon="11.723827">
<ele>518.0</ele>
<speed>9.1</speed>
<course>244.1</course>
<desc>Speed 9.1 km/h Distance 4.12 km</desc>
<time>2010-06-13T06:17:25.84</time>
<name>917</name>
</trkpt>
<trkpt lat="49.169585" lon="11.723790">
<ele>518.1</ele>
<speed>10.4</speed>
<course>241.8</course>
<desc>Speed 10.4 km/h Distance 4.12 km</desc>
<time>2010-06-13T06:17:26.84</time>
<name>918</name>
</trkpt>
<trkpt lat="49.169573" lon="11.723757">
<ele>518.0</ele>
<speed>9.3</speed>
<course>238.0</course>
<desc>Speed 9.3 km/h Distance 4.12 km</desc>
<time>2010-06-13T06:17:27.83</time>
<name>919</name>
</trkpt>
<trkpt lat="49.169558" lon="11.723720">
<ele>518.1</ele>
<speed>10.0</speed>
<course>243.0</course>
<desc>Speed 10.0 km/h Distance 4.12 km</desc>
<time>2010-06-13T06:17:28.84</time>
<name>920</name>
</trkpt>
<trkpt lat="49.169545" lon="11.723680">
<ele>518.7</ele>
<speed>9.3</speed>
<course>239.2</course>
<desc>Speed 9.3 km/h Distance 4.13 km</desc>
<time>2010-06-13T06:17:29.84</time>
<name>921</name>
</trkpt>
<trkpt lat="49.169533" lon="11.723650">
<ele>518.8</ele>
<speed>8.6</speed>
<course>234.5</course>
<desc>Speed 8.6 km/h Distance 4.13 km</desc>
<time>2010-06-13T06:17:30.83</time>
<name>922</name>
</trkpt>
<trkpt lat="49.169522" lon="11.723625">
<ele>518.2</ele>
<speed>8.0</speed>
<course>234.3</course>
<desc>Speed 8.0 km/h Distance 4.13 km</desc>
<time>2010-06-13T06:17:31.84</time>
<name>923</name>
</trkpt>
<trkpt lat="49.169508" lon="11.723597">
<ele>518.3</ele>
<speed>8.5</speed>
<course>232.6</course>
<desc>Speed 8.5 km/h Distance 4.14 km</desc>
<time>2010-06-13T06:17:32.83</time>
<name>924</name>
</trkpt>
<trkpt lat="49.169495" lon="11.723570">
<ele>517.9</ele>
<speed>9.6</speed>
<course>238.0</course>
<desc>Speed 9.6 km/h Distance 4.14 km</desc>
<time>2010-06-13T06:17:33.83</time>
<name>925</name>
</trkpt>
<trkpt lat="49.169480" lon="11.723533">
<ele>518.2</ele>
<speed>9.5</speed>
<course>237.2</course>
<desc>Speed 9.5 km/h Distance 4.14 km</desc>
<time>2010-06-13T06:17:34.82</time>
<name>926</name>
</trkpt>
<trkpt lat="49.169467" lon="11.723502">
<ele>518.3</ele>
<speed>10.3</speed>
<course>241.2</course>
<desc>Speed 10.3 km/h Distance 4.14 km</desc>
<time>2010-06-13T06:17:35.83</time>
<name>927</name>
</trkpt>
<trkpt lat="49.169452" lon="11.723460">
<ele>518.7</ele>
<speed>10.0</speed>
<course>224.5</course>
<desc>Speed 10.0 km/h Distance 4.15 km</desc>
<time>2010-06-13T06:17:36.84</time>
<name>928</name>
</trkpt>
<trkpt lat="49.169432" lon="11.723430">
<ele>519.1</ele>
<speed>9.5</speed>
<course>231.2</course>
<desc>Speed 9.5 km/h Distance 4.15 km</desc>
<time>2010-06-13T06:17:37.83</time>
<name>929</name>
</trkpt>
<trkpt lat="49.169415" lon="11.723398">
<ele>519.5</ele>
<speed>9.9</speed>
<course>245.0</course>
<desc>Speed 9.9 km/h Distance 4.15 km</desc>
<time>2010-06-13T06:17:38.84</time>
<name>930</name>
</trkpt>
<trkpt lat="49.169403" lon="11.723360">
<ele>519.0</ele>
<speed>9.3</speed>
<course>226.0</course>
<desc>Speed 9.3 km/h Distance 4.16 km</desc>
<time>2010-06-13T06:17:39.82</time>
<name>931</name>
</trkpt>
<trkpt lat="49.169383" lon="11.723328">
<ele>520.2</ele>
<speed>9.1</speed>
<course>234.1</course>
<desc>Speed 9.1 km/h Distance 4.16 km</desc>
<time>2010-06-13T06:17:40.82</time>
<name>932</name>
</trkpt>
<trkpt lat="49.169368" lon="11.723297">
<ele>520.4</ele>
<speed>9.8</speed>
<course>236.2</course>
<desc>Speed 9.8 km/h Distance 4.16 km</desc>
<time>2010-06-13T06:17:41.83</time>
<name>933</name>
</trkpt>
<trkpt lat="49.169357" lon="11.723270">
<ele>520.0</ele>
<speed>8.6</speed>
<course>231.0</course>
<desc>Speed 8.6 km/h Distance 4.16 km</desc>
<time>2010-06-13T06:17:42.84</time>
<name>934</name>
</trkpt>
<trkpt lat="49.169342" lon="11.723242">
<ele>519.9</ele>
<speed>9.4</speed>
<course>219.3</course>
<desc>Speed 9.4 km/h Distance 4.17 km</desc>
<time>2010-06-13T06:17:43.82</time>
<name>935</name>
</trkpt>
<trkpt lat="49.169322" lon="11.723217">
<ele>520.6</ele>
<speed>9.1</speed>
<course>228.5</course>
<desc>Speed 9.1 km/h Distance 4.17 km</desc>
<time>2010-06-13T06:17:44.84</time>
<name>936</name>
</trkpt>
<trkpt lat="49.169303" lon="11.723185">
<ele>521.6</ele>
<speed>8.3</speed>
<course>233.9</course>
<desc>Speed 8.3 km/h Distance 4.17 km</desc>
<time>2010-06-13T06:17:45.81</time>
<name>937</name>
</trkpt>
<trkpt lat="49.169287" lon="11.723150">
<ele>522.5</ele>
<speed>8.3</speed>
<course>234.2</course>
<desc>Speed 8.3 km/h Distance 4.18 km</desc>
<time>2010-06-13T06:17:46.82</time>
<name>938</name>
</trkpt>
<trkpt lat="49.169273" lon="11.723122">
<ele>522.7</ele>
<speed>9.4</speed>
<course>240.6</course>
<desc>Speed 9.4 km/h Distance 4.18 km</desc>
<time>2010-06-13T06:17:47.82</time>
<name>939</name>
</trkpt>
<trkpt lat="49.169262" lon="11.723090">
<ele>522.5</ele>
<speed>9.5</speed>
<course>234.1</course>
<desc>Speed 9.5 km/h Distance 4.18 km</desc>
<time>2010-06-13T06:17:48.83</time>
<name>940</name>
</trkpt>
<trkpt lat="49.169247" lon="11.723058">
<ele>523.0</ele>
<speed>9.5</speed>
<course>234.1</course>
<desc>Speed 9.5 km/h Distance 4.18 km</desc>
<time>2010-06-13T06:17:49.82</time>
<name>941</name>
</trkpt>
<trkpt lat="49.169232" lon="11.723027">
<ele>523.3</ele>
<speed>8.8</speed>
<course>227.5</course>
<desc>Speed 8.8 km/h Distance 4.19 km</desc>
<time>2010-06-13T06:17:50.82</time>
<name>942</name>
</trkpt>
<trkpt lat="49.169217" lon="11.723002">
<ele>523.2</ele>
<speed>8.7</speed>
<course>229.9</course>
<desc>Speed 8.7 km/h Distance 4.19 km</desc>
<time>2010-06-13T06:17:51.83</time>
<name>943</name>
</trkpt>
<trkpt lat="49.169198" lon="11.722968">
<ele>523.6</ele>
<speed>8.3</speed>
<course>231.2</course>
<desc>Speed 8.3 km/h Distance 4.19 km</desc>
<time>2010-06-13T06:17:52.81</time>
<name>944</name>
</trkpt>
<trkpt lat="49.169182" lon="11.722937">
<ele>523.8</ele>
<speed>9.3</speed>
<course>231.3</course>
<desc>Speed 9.3 km/h Distance 4.20 km</desc>
<time>2010-06-13T06:17:53.82</time>
<name>945</name>
</trkpt>
<trkpt lat="49.169163" lon="11.722902">
<ele>524.0</ele>
<speed>8.7</speed>
<course>231.1</course>
<desc>Speed 8.7 km/h Distance 4.20 km</desc>
<time>2010-06-13T06:17:54.82</time>
<name>946</name>
</trkpt>
<trkpt lat="49.169147" lon="11.722870">
<ele>524.1</ele>
<speed>9.3</speed>
<course>232.6</course>
<desc>Speed 9.3 km/h Distance 4.20 km</desc>
<time>2010-06-13T06:17:55.83</time>
<name>947</name>
</trkpt>
<trkpt lat="49.169132" lon="11.722840">
<ele>524.0</ele>
<speed>9.0</speed>
<course>239.3</course>
<desc>Speed 9.0 km/h Distance 4.20 km</desc>
<time>2010-06-13T06:17:56.83</time>
<name>948</name>
</trkpt>
<trkpt lat="49.169120" lon="11.722810">
<ele>522.9</ele>
<speed>9.5</speed>
<course>224.5</course>
<desc>Speed 9.5 km/h Distance 4.21 km</desc>
<time>2010-06-13T06:17:57.83</time>
<name>949</name>
</trkpt>
<trkpt lat="49.169103" lon="11.722785">
<ele>523.2</ele>
<speed>8.9</speed>
<course>234.3</course>
<desc>Speed 8.9 km/h Distance 4.21 km</desc>
<time>2010-06-13T06:17:58.83</time>
<name>950</name>
</trkpt>
<trkpt lat="49.169090" lon="11.722757">
<ele>523.2</ele>
<speed>8.0</speed>
<course>232.6</course>
<desc>Speed 8.0 km/h Distance 4.21 km</desc>
<time>2010-06-13T06:17:59.83</time>
<name>951</name>
</trkpt>
<trkpt lat="49.169078" lon="11.722733">
<ele>522.4</ele>
<speed>8.9</speed>
<course>238.6</course>
<desc>Speed 8.9 km/h Distance 4.21 km</desc>
<time>2010-06-13T06:18:00.83</time>
<name>952</name>
</trkpt>
<trkpt lat="49.169065" lon="11.722700">
<ele>522.5</ele>
<speed>9.1</speed>
<course>232.6</course>
<desc>Speed 9.1 km/h Distance 4.22 km</desc>
<time>2010-06-13T06:18:01.82</time>
<name>953</name>
</trkpt>
<trkpt lat="49.169048" lon="11.722667">
<ele>523.0</ele>
<speed>9.8</speed>
<course>239.8</course>
<desc>Speed 9.8 km/h Distance 4.22 km</desc>
<time>2010-06-13T06:18:02.82</time>
<name>954</name>
</trkpt>
<trkpt lat="49.169035" lon="11.722632">
<ele>522.9</ele>
<speed>9.3</speed>
<course>246.8</course>
<desc>Speed 9.3 km/h Distance 4.22 km</desc>
<time>2010-06-13T06:18:03.82</time>
<name>955</name>
</trkpt>
<trkpt lat="49.169023" lon="11.722590">
<ele>522.8</ele>
<speed>9.9</speed>
<course>239.2</course>
<desc>Speed 9.9 km/h Distance 4.23 km</desc>
<time>2010-06-13T06:18:04.83</time>
<name>956</name>
</trkpt>
<trkpt lat="49.169012" lon="11.722560">
<ele>522.1</ele>
<speed>8.9</speed>
<course>228.8</course>
<desc>Speed 8.9 km/h Distance 4.23 km</desc>
<time>2010-06-13T06:18:05.82</time>
<name>957</name>
</trkpt>
<trkpt lat="49.168998" lon="11.722537">
<ele>521.6</ele>
<speed>8.3</speed>
<course>225.5</course>
<desc>Speed 8.3 km/h Distance 4.23 km</desc>
<time>2010-06-13T06:18:06.82</time>
<name>958</name>
</trkpt>
<trkpt lat="49.168983" lon="11.722513">
<ele>521.3</ele>
<speed>8.9</speed>
<course>231.3</course>
<desc>Speed 8.9 km/h Distance 4.23 km</desc>
<time>2010-06-13T06:18:07.83</time>
<name>959</name>
</trkpt>
<trkpt lat="49.168965" lon="11.722478">
<ele>521.9</ele>
<speed>9.5</speed>
<course>239.1</course>
<desc>Speed 9.5 km/h Distance 4.24 km</desc>
<time>2010-06-13T06:18:08.82</time>
<name>960</name>
</trkpt>
<trkpt lat="49.168950" lon="11.722440">
<ele>522.4</ele>
<speed>8.7</speed>
<course>235.5</course>
<desc>Speed 8.7 km/h Distance 4.24 km</desc>
<time>2010-06-13T06:18:09.83</time>
<name>961</name>
</trkpt>
<trkpt lat="49.168935" lon="11.722407">
<ele>522.8</ele>
<speed>8.4</speed>
<course>232.6</course>
<desc>Speed 8.4 km/h Distance 4.24 km</desc>
<time>2010-06-13T06:18:10.82</time>
<name>962</name>
</trkpt>
<trkpt lat="49.168922" lon="11.722380">
<ele>522.6</ele>
<speed>8.4</speed>
<course>220.3</course>
<desc>Speed 8.4 km/h Distance 4.25 km</desc>
<time>2010-06-13T06:18:11.82</time>
<name>963</name>
</trkpt>
<trkpt lat="49.168905" lon="11.722358">
<ele>522.7</ele>
<speed>8.5</speed>
<course>239.8</course>
<desc>Speed 8.5 km/h Distance 4.25 km</desc>
<time>2010-06-13T06:18:12.83</time>
<name>964</name>
</trkpt>
<trkpt lat="49.168892" lon="11.722323">
<ele>522.7</ele>
<speed>9.5</speed>
<course>211.3</course>
<desc>Speed 9.5 km/h Distance 4.25 km</desc>
<time>2010-06-13T06:18:13.82</time>
<name>965</name>
</trkpt>
<trkpt lat="49.168868" lon="11.722302">
<ele>523.7</ele>
<speed>8.6</speed>
<course>228.8</course>
<desc>Speed 8.6 km/h Distance 4.25 km</desc>
<time>2010-06-13T06:18:14.84</time>
<name>966</name>
</trkpt>
<trkpt lat="49.168855" lon="11.722278">
<ele>523.8</ele>
<speed>9.3</speed>
<course>225.3</course>
<desc>Speed 9.3 km/h Distance 4.26 km</desc>
<time>2010-06-13T06:18:15.82</time>
<name>967</name>
</trkpt>
<trkpt lat="49.168837" lon="11.722250">
<ele>524.3</ele>
<speed>9.4</speed>
<course>225.3</course>
<desc>Speed 9.4 km/h Distance 4.26 km</desc>
<time>2010-06-13T06:18:16.81</time>
<name>968</name>
</trkpt>
<trkpt lat="49.168818" lon="11.722222">
<ele>524.8</ele>
<speed>10.0</speed>
<course>208.6</course>
<desc>Speed 10.0 km/h Distance 4.26 km</desc>
<time>2010-06-13T06:18:17.83</time>
<name>969</name>
</trkpt>
<trkpt lat="49.168798" lon="11.722205">
<ele>525.3</ele>
<speed>9.0</speed>
<course>232.6</course>
<desc>Speed 9.0 km/h Distance 4.26 km</desc>
<time>2010-06-13T06:18:18.83</time>
<name>970</name>
</trkpt>
<trkpt lat="49.168785" lon="11.722178">
<ele>525.1</ele>
<speed>9.9</speed>
<course>229.3</course>
<desc>Speed 9.9 km/h Distance 4.27 km</desc>
<time>2010-06-13T06:18:19.81</time>
<name>971</name>
</trkpt>
<trkpt lat="49.168770" lon="11.722152">
<ele>525.1</ele>
<speed>10.3</speed>
<course>226.8</course>
<desc>Speed 10.3 km/h Distance 4.27 km</desc>
<time>2010-06-13T06:18:20.82</time>
<name>972</name>
</trkpt>
<trkpt lat="49.168757" lon="11.722130">
<ele>524.4</ele>
<speed>9.1</speed>
<course>221.1</course>
<desc>Speed 9.1 km/h Distance 4.27 km</desc>
<time>2010-06-13T06:18:21.83</time>
<name>973</name>
</trkpt>
<trkpt lat="49.168742" lon="11.722110">
<ele>524.0</ele>
<speed>8.6</speed>
<course>227.4</course>
<desc>Speed 8.6 km/h Distance 4.27 km</desc>
<time>2010-06-13T06:18:22.82</time>
<name>974</name>
</trkpt>
<trkpt lat="49.168727" lon="11.722085">
<ele>524.0</ele>
<speed>9.1</speed>
<course>228.9</course>
<desc>Speed 9.1 km/h Distance 4.28 km</desc>
<time>2010-06-13T06:18:23.82</time>
<name>975</name>
</trkpt>
<trkpt lat="49.168707" lon="11.722050">
<ele>525.0</ele>
<speed>9.7</speed>
<course>226.9</course>
<desc>Speed 9.7 km/h Distance 4.28 km</desc>
<time>2010-06-13T06:18:24.82</time>
<name>976</name>
</trkpt>
<trkpt lat="49.168688" lon="11.722020">
<ele>525.5</ele>
<speed>10.3</speed>
<course>226.3</course>
<desc>Speed 10.3 km/h Distance 4.28 km</desc>
<time>2010-06-13T06:18:25.83</time>
<name>977</name>
</trkpt>
<trkpt lat="49.168672" lon="11.721993">
<ele>525.4</ele>
<speed>9.3</speed>
<course>226.8</course>
<desc>Speed 9.3 km/h Distance 4.29 km</desc>
<time>2010-06-13T06:18:26.81</time>
<name>978</name>
</trkpt>
<trkpt lat="49.168658" lon="11.721972">
<ele>525.1</ele>
<speed>9.5</speed>
<course>222.5</course>
<desc>Speed 9.5 km/h Distance 4.29 km</desc>
<time>2010-06-13T06:18:27.83</time>
<name>979</name>
</trkpt>
<trkpt lat="49.168642" lon="11.721948">
<ele>525.0</ele>
<speed>9.6</speed>
<course>226.9</course>
<desc>Speed 9.6 km/h Distance 4.29 km</desc>
<time>2010-06-13T06:18:28.83</time>
<name>980</name>
</trkpt>
<trkpt lat="49.168623" lon="11.721918">
<ele>525.3</ele>
<speed>10.4</speed>
<course>221.7</course>
<desc>Speed 10.4 km/h Distance 4.29 km</desc>
<time>2010-06-13T06:18:29.81</time>
<name>981</name>
</trkpt>
<trkpt lat="49.168605" lon="11.721893">
<ele>525.6</ele>
<speed>9.6</speed>
<course>217.6</course>
<desc>Speed 9.6 km/h Distance 4.30 km</desc>
<time>2010-06-13T06:18:30.82</time>
<name>982</name>
</trkpt>
<trkpt lat="49.168587" lon="11.721872">
<ele>525.5</ele>
<speed>9.7</speed>
<course>194.5</course>
<desc>Speed 9.7 km/h Distance 4.30 km</desc>
<time>2010-06-13T06:18:31.81</time>
<name>983</name>
</trkpt>
<trkpt lat="49.168562" lon="11.721862">
<ele>526.0</ele>
<speed>9.6</speed>
<course>210.7</course>
<desc>Speed 9.6 km/h Distance 4.30 km</desc>
<time>2010-06-13T06:18:32.83</time>
<name>984</name>
</trkpt>
<trkpt lat="49.168543" lon="11.721845">
<ele>526.0</ele>
<speed>9.1</speed>
<course>213.2</course>
<desc>Speed 9.1 km/h Distance 4.30 km</desc>
<time>2010-06-13T06:18:33.82</time>
<name>985</name>
</trkpt>
<trkpt lat="49.168522" lon="11.721823">
<ele>526.5</ele>
<speed>9.0</speed>
<course>213.1</course>
<desc>Speed 9.0 km/h Distance 4.31 km</desc>
<time>2010-06-13T06:18:34.82</time>
<name>986</name>
</trkpt>
<trkpt lat="49.168502" lon="11.721803">
<ele>526.8</ele>
<speed>9.1</speed>
<course>213.2</course>
<desc>Speed 9.1 km/h Distance 4.31 km</desc>
<time>2010-06-13T06:18:35.81</time>
<name>987</name>
</trkpt>
<trkpt lat="49.168483" lon="11.721785">
<ele>526.9</ele>
<speed>9.5</speed>
<course>185.6</course>
<desc>Speed 9.5 km/h Distance 4.31 km</desc>
<time>2010-06-13T06:18:36.83</time>
<name>988</name>
</trkpt>
<trkpt lat="49.168450" lon="11.721780">
<ele>528.5</ele>
<speed>10.4</speed>
<course>253.0</course>
<desc>Speed 10.4 km/h Distance 4.32 km</desc>
<time>2010-06-13T06:18:37.82</time>
<name>989</name>
</trkpt>
<trkpt lat="49.168440" lon="11.721730">
<ele>528.1</ele>
<speed>10.5</speed>
<course>233.9</course>
<desc>Speed 10.5 km/h Distance 4.32 km</desc>
<time>2010-06-13T06:18:38.82</time>
<name>990</name>
</trkpt>
<trkpt lat="49.168423" lon="11.721695">
<ele>528.1</ele>
<speed>10.1</speed>
<course>230.1</course>
<desc>Speed 10.1 km/h Distance 4.32 km</desc>
<time>2010-06-13T06:18:39.83</time>
<name>991</name>
</trkpt>
<trkpt lat="49.168403" lon="11.721658">
<ele>528.7</ele>
<speed>9.8</speed>
<course>225.3</course>
<desc>Speed 9.8 km/h Distance 4.33 km</desc>
<time>2010-06-13T06:18:40.82</time>
<name>992</name>
</trkpt>
<trkpt lat="49.168385" lon="11.721630">
<ele>529.0</ele>
<speed>9.7</speed>
<course>220.5</course>
<desc>Speed 9.7 km/h Distance 4.33 km</desc>
<time>2010-06-13T06:18:41.81</time>
<name>993</name>
</trkpt>
<trkpt lat="49.168363" lon="11.721602">
<ele>529.5</ele>
<speed>9.5</speed>
<course>225.8</course>
<desc>Speed 9.5 km/h Distance 4.33 km</desc>
<time>2010-06-13T06:18:42.82</time>
<name>994</name>
</trkpt>
<trkpt lat="49.168340" lon="11.721565">
<ele>530.7</ele>
<speed>10.6</speed>
<course>222.8</course>
<desc>Speed 10.6 km/h Distance 4.34 km</desc>
<time>2010-06-13T06:18:43.83</time>
<name>995</name>
</trkpt>
<trkpt lat="49.168320" lon="11.721537">
<ele>531.1</ele>
<speed>10.4</speed>
<course>221.6</course>
<desc>Speed 10.4 km/h Distance 4.34 km</desc>
<time>2010-06-13T06:18:44.82</time>
<name>996</name>
</trkpt>
<trkpt lat="49.168297" lon="11.721505">
<ele>531.8</ele>
<speed>10.4</speed>
<course>222.2</course>
<desc>Speed 10.4 km/h Distance 4.34 km</desc>
<time>2010-06-13T06:18:45.82</time>
<name>997</name>
</trkpt>
<trkpt lat="49.168275" lon="11.721475">
<ele>532.5</ele>
<speed>10.2</speed>
<course>218.9</course>
<desc>Speed 10.2 km/h Distance 4.35 km</desc>
<time>2010-06-13T06:18:46.83</time>
<name>998</name>
</trkpt>
<trkpt lat="49.168253" lon="11.721448">
<ele>533.0</ele>
<speed>10.1</speed>
<course>220.1</course>
<desc>Speed 10.1 km/h Distance 4.35 km</desc>
<time>2010-06-13T06:18:47.82</time>
<name>999</name>
</trkpt>
<trkpt lat="49.168230" lon="11.721418">
<ele>533.7</ele>
<speed>10.4</speed>
<course>215.2</course>
<desc>Speed 10.4 km/h Distance 4.35 km</desc>
<time>2010-06-13T06:18:48.81</time>
<name>1000</name>
</trkpt>
<trkpt lat="49.168208" lon="11.721395">
<ele>534.0</ele>
<speed>10.4</speed>
<course>217.0</course>
<desc>Speed 10.4 km/h Distance 4.35 km</desc>
<time>2010-06-13T06:18:49.82</time>
<name>1001</name>
</trkpt>
<trkpt lat="49.168187" lon="11.721370">
<ele>534.2</ele>
<speed>10.0</speed>
<course>221.7</course>
<desc>Speed 10.0 km/h Distance 4.36 km</desc>
<time>2010-06-13T06:18:50.82</time>
<name>1002</name>
</trkpt>
<trkpt lat="49.168168" lon="11.721345">
<ele>534.3</ele>
<speed>10.3</speed>
<course>218.1</course>
<desc>Speed 10.3 km/h Distance 4.36 km</desc>
<time>2010-06-13T06:18:51.82</time>
<name>1003</name>
</trkpt>
<trkpt lat="49.168152" lon="11.721325">
<ele>533.6</ele>
<speed>10.1</speed>
<course>227.0</course>
<desc>Speed 10.1 km/h Distance 4.36 km</desc>
<time>2010-06-13T06:18:52.83</time>
<name>1004</name>
</trkpt>
<trkpt lat="49.168133" lon="11.721295">
<ele>533.7</ele>
<speed>10.8</speed>
<course>228.5</course>
<desc>Speed 10.8 km/h Distance 4.37 km</desc>
<time>2010-06-13T06:18:53.83</time>
<name>1005</name>
</trkpt>
<trkpt lat="49.168115" lon="11.721263">
<ele>533.7</ele>
<speed>11.4</speed>
<course>224.5</course>
<desc>Speed 11.4 km/h Distance 4.37 km</desc>
<time>2010-06-13T06:18:54.83</time>
<name>1006</name>
</trkpt>
<trkpt lat="49.168092" lon="11.721228">
<ele>534.3</ele>
<speed>11.2</speed>
<course>213.2</course>
<desc>Speed 11.2 km/h Distance 4.37 km</desc>
<time>2010-06-13T06:18:55.82</time>
<name>1007</name>
</trkpt>
<trkpt lat="49.168070" lon="11.721207">
<ele>533.8</ele>
<speed>10.9</speed>
<course>213.2</course>
<desc>Speed 10.9 km/h Distance 4.38 km</desc>
<time>2010-06-13T06:18:56.81</time>
<name>1008</name>
</trkpt>
<trkpt lat="49.168047" lon="11.721183">
<ele>533.8</ele>
<speed>11.4</speed>
<course>205.6</course>
<desc>Speed 11.4 km/h Distance 4.38 km</desc>
<time>2010-06-13T06:18:57.82</time>
<name>1009</name>
</trkpt>
<trkpt lat="49.168022" lon="11.721165">
<ele>533.4</ele>
<speed>11.5</speed>
<course>204.8</course>
<desc>Speed 11.5 km/h Distance 4.38 km</desc>
<time>2010-06-13T06:18:58.83</time>
<name>1010</name>
</trkpt>
<trkpt lat="49.167993" lon="11.721145">
<ele>533.4</ele>
<speed>12.1</speed>
<course>197.1</course>
<desc>Speed 12.1 km/h Distance 4.39 km</desc>
<time>2010-06-13T06:18:59.83</time>
<name>1011</name>
</trkpt>
<trkpt lat="49.167965" lon="11.721132">
<ele>533.3</ele>
<speed>11.8</speed>
<course>195.1</course>
<desc>Speed 11.8 km/h Distance 4.39 km</desc>
<time>2010-06-13T06:19:00.83</time>
<name>1012</name>
</trkpt>
<trkpt lat="49.167937" lon="11.721120">
<ele>533.1</ele>
<speed>11.8</speed>
<course>189.8</course>
<desc>Speed 11.8 km/h Distance 4.39 km</desc>
<time>2010-06-13T06:19:01.83</time>
<name>1013</name>
</trkpt>
<trkpt lat="49.167912" lon="11.721113">
<ele>532.1</ele>
<speed>11.7</speed>
<course>195.0</course>
<desc>Speed 11.7 km/h Distance 4.39 km</desc>
<time>2010-06-13T06:19:02.82</time>
<name>1014</name>
</trkpt>
<trkpt lat="49.167883" lon="11.721102">
<ele>531.8</ele>
<speed>11.7</speed>
<course>196.0</course>
<desc>Speed 11.7 km/h Distance 4.40 km</desc>
<time>2010-06-13T06:19:03.84</time>
<name>1015</name>
</trkpt>
<trkpt lat="49.167857" lon="11.721090">
<ele>531.6</ele>
<speed>11.6</speed>
<course>194.0</course>
<desc>Speed 11.6 km/h Distance 4.40 km</desc>
<time>2010-06-13T06:19:04.82</time>
<name>1016</name>
</trkpt>
<trkpt lat="49.167830" lon="11.721080">
<ele>531.1</ele>
<speed>12.1</speed>
<course>211.8</course>
<desc>Speed 12.1 km/h Distance 4.40 km</desc>
<time>2010-06-13T06:19:05.83</time>
<name>1017</name>
</trkpt>
<trkpt lat="49.167798" lon="11.721050">
<ele>532.3</ele>
<speed>12.2</speed>
<course>203.5</course>
<desc>Speed 12.2 km/h Distance 4.41 km</desc>
<time>2010-06-13T06:19:06.83</time>
<name>1018</name>
</trkpt>
<trkpt lat="49.167768" lon="11.721030">
<ele>532.9</ele>
<speed>11.6</speed>
<course>201.0</course>
<desc>Speed 11.6 km/h Distance 4.41 km</desc>
<time>2010-06-13T06:19:07.83</time>
<name>1019</name>
</trkpt>
<trkpt lat="49.167740" lon="11.721013">
<ele>533.1</ele>
<speed>11.1</speed>
<course>200.0</course>
<desc>Speed 11.1 km/h Distance 4.42 km</desc>
<time>2010-06-13T06:19:08.83</time>
<name>1020</name>
</trkpt>
<trkpt lat="49.167710" lon="11.720997">
<ele>533.5</ele>
<speed>11.5</speed>
<course>193.0</course>
<desc>Speed 11.5 km/h Distance 4.42 km</desc>
<time>2010-06-13T06:19:09.83</time>
<name>1021</name>
</trkpt>
<trkpt lat="49.167682" lon="11.720987">
<ele>533.3</ele>
<speed>12.3</speed>
<course>196.3</course>
<desc>Speed 12.3 km/h Distance 4.42 km</desc>
<time>2010-06-13T06:19:10.83</time>
<name>1022</name>
</trkpt>
<trkpt lat="49.167652" lon="11.720973">
<ele>533.4</ele>
<speed>12.7</speed>
<course>196.3</course>
<desc>Speed 12.7 km/h Distance 4.43 km</desc>
<time>2010-06-13T06:19:11.83</time>
<name>1023</name>
</trkpt>
<trkpt lat="49.167622" lon="11.720960">
<ele>533.4</ele>
<speed>12.0</speed>
<course>197.1</course>
<desc>Speed 12.0 km/h Distance 4.43 km</desc>
<time>2010-06-13T06:19:12.83</time>
<name>1024</name>
</trkpt>
<trkpt lat="49.167593" lon="11.720947">
<ele>533.4</ele>
<speed>11.5</speed>
<course>198.1</course>
<desc>Speed 11.5 km/h Distance 4.43 km</desc>
<time>2010-06-13T06:19:13.82</time>
<name>1025</name>
</trkpt>
<trkpt lat="49.167567" lon="11.720933">
<ele>533.4</ele>
<speed>10.7</speed>
<course>193.0</course>
<desc>Speed 10.7 km/h Distance 4.44 km</desc>
<time>2010-06-13T06:19:14.82</time>
<name>1026</name>
</trkpt>
<trkpt lat="49.167538" lon="11.720923">
<ele>533.5</ele>
<speed>10.9</speed>
<course>185.8</course>
<desc>Speed 10.9 km/h Distance 4.44 km</desc>
<time>2010-06-13T06:19:15.83</time>
<name>1027</name>
</trkpt>
<trkpt lat="49.167507" lon="11.720918">
<ele>533.7</ele>
<speed>11.3</speed>
<course>175.8</course>
<desc>Speed 11.3 km/h Distance 4.44 km</desc>
<time>2010-06-13T06:19:16.82</time>
<name>1028</name>
</trkpt>
<trkpt lat="49.167475" lon="11.720922">
<ele>533.9</ele>
<speed>11.4</speed>
<course>187.4</course>
<desc>Speed 11.4 km/h Distance 4.45 km</desc>
<time>2010-06-13T06:19:17.82</time>
<name>1029</name>
</trkpt>
<trkpt lat="49.167450" lon="11.720917">
<ele>533.9</ele>
<speed>10.4</speed>
<course>186.9</course>
<desc>Speed 10.4 km/h Distance 4.45 km</desc>
<time>2010-06-13T06:19:18.81</time>
<name>1030</name>
</trkpt>
<trkpt lat="49.167423" lon="11.720912">
<ele>533.5</ele>
<speed>11.2</speed>
<course>198.1</course>
<desc>Speed 11.2 km/h Distance 4.45 km</desc>
<time>2010-06-13T06:19:19.81</time>
<name>1031</name>
</trkpt>
<trkpt lat="49.167397" lon="11.720898">
<ele>533.2</ele>
<speed>11.7</speed>
<course>198.1</course>
<desc>Speed 11.7 km/h Distance 4.45 km</desc>
<time>2010-06-13T06:19:20.83</time>
<name>1032</name>
</trkpt>
<trkpt lat="49.167367" lon="11.720883">
<ele>532.9</ele>
<speed>12.3</speed>
<course>195.4</course>
<desc>Speed 12.3 km/h Distance 4.46 km</desc>
<time>2010-06-13T06:19:21.82</time>
<name>1033</name>
</trkpt>
<trkpt lat="49.167335" lon="11.720870">
<ele>532.6</ele>
<speed>12.7</speed>
<course>206.6</course>
<desc>Speed 12.7 km/h Distance 4.46 km</desc>
<time>2010-06-13T06:19:22.82</time>
<name>1034</name>
</trkpt>
<trkpt lat="49.167307" lon="11.720848">
<ele>533.1</ele>
<speed>12.9</speed>
<course>205.1</course>
<desc>Speed 12.9 km/h Distance 4.47 km</desc>
<time>2010-06-13T06:19:23.82</time>
<name>1035</name>
</trkpt>
<trkpt lat="49.167272" lon="11.720823">
<ele>534.5</ele>
<speed>13.1</speed>
<course>198.2</course>
<desc>Speed 13.1 km/h Distance 4.47 km</desc>
<time>2010-06-13T06:19:24.81</time>
<name>1036</name>
</trkpt>
<trkpt lat="49.167242" lon="11.720808">
<ele>535.0</ele>
<speed>13.1</speed>
<course>192.9</course>
<desc>Speed 13.1 km/h Distance 4.47 km</desc>
<time>2010-06-13T06:19:25.81</time>
<name>1037</name>
</trkpt>
<trkpt lat="49.167208" lon="11.720797">
<ele>536.1</ele>
<speed>11.9</speed>
<course>202.9</course>
<desc>Speed 11.9 km/h Distance 4.48 km</desc>
<time>2010-06-13T06:19:26.82</time>
<name>1038</name>
</trkpt>
<trkpt lat="49.167180" lon="11.720778">
<ele>536.9</ele>
<speed>11.2</speed>
<course>197.2</course>
<desc>Speed 11.2 km/h Distance 4.48 km</desc>
<time>2010-06-13T06:19:27.81</time>
<name>1039</name>
</trkpt>
<trkpt lat="49.167148" lon="11.720763">
<ele>536.5</ele>
<speed>11.4</speed>
<course>194.6</course>
<desc>Speed 11.4 km/h Distance 4.48 km</desc>
<time>2010-06-13T06:19:28.84</time>
<name>1040</name>
</trkpt>
<trkpt lat="49.167123" lon="11.720753">
<ele>535.7</ele>
<speed>10.4</speed>
<course>178.5</course>
<desc>Speed 10.4 km/h Distance 4.49 km</desc>
<time>2010-06-13T06:19:29.82</time>
<name>1041</name>
</trkpt>
<trkpt lat="49.167098" lon="11.720753">
<ele>535.7</ele>
<speed>10.4</speed>
<course>181.9</course>
<desc>Speed 10.4 km/h Distance 4.49 km</desc>
<time>2010-06-13T06:19:30.82</time>
<name>1042</name>
</trkpt>
<trkpt lat="49.167068" lon="11.720752">
<ele>535.3</ele>
<speed>10.6</speed>
<course>191.5</course>
<desc>Speed 10.6 km/h Distance 4.49 km</desc>
<time>2010-06-13T06:19:31.81</time>
<name>1043</name>
</trkpt>
<trkpt lat="49.167042" lon="11.720743">
<ele>534.8</ele>
<speed>11.7</speed>
<course>175.0</course>
<desc>Speed 11.7 km/h Distance 4.50 km</desc>
<time>2010-06-13T06:19:32.82</time>
<name>1044</name>
</trkpt>
<trkpt lat="49.167017" lon="11.720747">
<ele>535.0</ele>
<speed>11.7</speed>
<course>167.7</course>
<desc>Speed 11.7 km/h Distance 4.50 km</desc>
<time>2010-06-13T06:19:33.81</time>
<name>1045</name>
</trkpt>
<trkpt lat="49.166992" lon="11.720755">
<ele>535.2</ele>
<speed>10.8</speed>
<course>180.0</course>
<desc>Speed 10.8 km/h Distance 4.50 km</desc>
<time>2010-06-13T06:19:34.83</time>
<name>1046</name>
</trkpt>
<trkpt lat="49.166968" lon="11.720755">
<ele>535.3</ele>
<speed>10.5</speed>
<course>186.1</course>
<desc>Speed 10.5 km/h Distance 4.50 km</desc>
<time>2010-06-13T06:19:35.83</time>
<name>1047</name>
</trkpt>
<trkpt lat="49.166940" lon="11.720750">
<ele>535.3</ele>
<speed>11.3</speed>
<course>181.5</course>
<desc>Speed 11.3 km/h Distance 4.51 km</desc>
<time>2010-06-13T06:19:36.82</time>
<name>1048</name>
</trkpt>
<trkpt lat="49.166915" lon="11.720748">
<ele>535.6</ele>
<speed>10.0</speed>
<course>184.7</course>
<desc>Speed 10.0 km/h Distance 4.51 km</desc>
<time>2010-06-13T06:19:37.82</time>
<name>1049</name>
</trkpt>
<trkpt lat="49.166892" lon="11.720745">
<ele>536.5</ele>
<speed>9.9</speed>
<course>166.0</course>
<desc>Speed 9.9 km/h Distance 4.51 km</desc>
<time>2010-06-13T06:19:38.83</time>
<name>1050</name>
</trkpt>
<trkpt lat="49.166870" lon="11.720753">
<ele>536.5</ele>
<speed>10.5</speed>
<course>192.9</course>
<desc>Speed 10.5 km/h Distance 4.52 km</desc>
<time>2010-06-13T06:19:39.82</time>
<name>1051</name>
</trkpt>
<trkpt lat="49.166842" lon="11.720743">
<ele>537.2</ele>
<speed>11.8</speed>
<course>190.1</course>
<desc>Speed 11.8 km/h Distance 4.52 km</desc>
<time>2010-06-13T06:19:40.83</time>
<name>1052</name>
</trkpt>
<trkpt lat="49.166805" lon="11.720733">
<ele>536.5</ele>
<speed>12.0</speed>
<course>192.9</course>
<desc>Speed 12.0 km/h Distance 4.52 km</desc>
<time>2010-06-13T06:19:41.83</time>
<name>1053</name>
</trkpt>
<trkpt lat="49.166772" lon="11.720722">
<ele>536.6</ele>
<speed>13.0</speed>
<course>191.2</course>
<desc>Speed 13.0 km/h Distance 4.53 km</desc>
<time>2010-06-13T06:19:42.82</time>
<name>1054</name>
</trkpt>
<trkpt lat="49.166738" lon="11.720712">
<ele>536.8</ele>
<speed>12.1</speed>
<course>198.1</course>
<desc>Speed 12.1 km/h Distance 4.53 km</desc>
<time>2010-06-13T06:19:43.82</time>
<name>1055</name>
</trkpt>
<trkpt lat="49.166708" lon="11.720697">
<ele>537.4</ele>
<speed>11.3</speed>
<course>192.4</course>
<desc>Speed 11.3 km/h Distance 4.53 km</desc>
<time>2010-06-13T06:19:44.82</time>
<name>1056</name>
</trkpt>
<trkpt lat="49.166678" lon="11.720687">
<ele>537.4</ele>
<speed>11.2</speed>
<course>197.1</course>
<desc>Speed 11.2 km/h Distance 4.54 km</desc>
<time>2010-06-13T06:19:45.81</time>
<name>1057</name>
</trkpt>
<trkpt lat="49.166650" lon="11.720673">
<ele>538.2</ele>
<speed>11.2</speed>
<course>197.2</course>
<desc>Speed 11.2 km/h Distance 4.54 km</desc>
<time>2010-06-13T06:19:46.82</time>
<name>1058</name>
</trkpt>
<trkpt lat="49.166618" lon="11.720658">
<ele>539.1</ele>
<speed>11.8</speed>
<course>192.3</course>
<desc>Speed 11.8 km/h Distance 4.54 km</desc>
<time>2010-06-13T06:19:47.82</time>
<name>1059</name>
</trkpt>
<trkpt lat="49.166583" lon="11.720647">
<ele>538.9</ele>
<speed>11.9</speed>
<course>189.7</course>
<desc>Speed 11.9 km/h Distance 4.55 km</desc>
<time>2010-06-13T06:19:48.82</time>
<name>1060</name>
</trkpt>
<trkpt lat="49.166552" lon="11.720638">
<ele>538.7</ele>
<speed>11.4</speed>
<course>185.6</course>
<desc>Speed 11.4 km/h Distance 4.55 km</desc>
<time>2010-06-13T06:19:49.83</time>
<name>1061</name>
</trkpt>
<trkpt lat="49.166528" lon="11.720635">
<ele>539.2</ele>
<speed>10.6</speed>
<course>200.6</course>
<desc>Speed 10.6 km/h Distance 4.55 km</desc>
<time>2010-06-13T06:19:50.82</time>
<name>1062</name>
</trkpt>
<trkpt lat="49.166505" lon="11.720622">
<ele>540.6</ele>
<speed>9.6</speed>
<course>208.9</course>
<desc>Speed 9.6 km/h Distance 4.56 km</desc>
<time>2010-06-13T06:19:51.83</time>
<name>1063</name>
</trkpt>
<trkpt lat="49.166483" lon="11.720603">
<ele>541.5</ele>
<speed>8.9</speed>
<course>209.0</course>
<desc>Speed 8.9 km/h Distance 4.56 km</desc>
<time>2010-06-13T06:19:52.82</time>
<name>1064</name>
</trkpt>
<trkpt lat="49.166462" lon="11.720585">
<ele>542.2</ele>
<speed>8.3</speed>
<course>218.1</course>
<desc>Speed 8.3 km/h Distance 4.56 km</desc>
<time>2010-06-13T06:19:53.83</time>
<name>1065</name>
</trkpt>
<trkpt lat="49.166445" lon="11.720565">
<ele>543.2</ele>
<speed>7.8</speed>
<course>218.6</course>
<desc>Speed 7.8 km/h Distance 4.57 km</desc>
<time>2010-06-13T06:19:54.83</time>
<name>1066</name>
</trkpt>
<trkpt lat="49.166430" lon="11.720547">
<ele>543.7</ele>
<speed>7.0</speed>
<course>220.0</course>
<desc>Speed 7.0 km/h Distance 4.57 km</desc>
<time>2010-06-13T06:19:55.82</time>
<name>1067</name>
</trkpt>
<trkpt lat="49.166418" lon="11.720532">
<ele>544.3</ele>
<speed>6.2</speed>
<course>220.9</course>
<desc>Speed 6.2 km/h Distance 4.57 km</desc>
<time>2010-06-13T06:19:56.83</time>
<name>1068</name>
</trkpt>
<trkpt lat="49.166413" lon="11.720525">
<ele>544.6</ele>
<speed>2.7</speed>
<course>270.0</course>
<desc>Speed 2.7 km/h Distance 4.57 km</desc>
<time>2010-06-13T06:19:57.82</time>
<name>1069</name>
</trkpt>
<trkpt lat="49.166413" lon="11.720518">
<ele>545.3</ele>
<speed>0.4</speed>
<course>322.8</course>
<desc>Speed 0.4 km/h Distance 4.57 km</desc>
<time>2010-06-13T06:19:58.82</time>
<name>1070</name>
</trkpt>
<trkpt lat="49.166415" lon="11.720517">
<ele>545.8</ele>
<speed>0.6</speed>
<course>37.2</course>
<desc>Speed 0.6 km/h Distance 4.57 km</desc>
<time>2010-06-13T06:19:59.82</time>
<name>1071</name>
</trkpt>
<trkpt lat="49.166417" lon="11.720518">
<ele>546.1</ele>
<speed>0.2</speed>
<course>51.9</course>
<desc>Speed 0.2 km/h Distance 4.57 km</desc>
<time>2010-06-13T06:20:00.82</time>
<name>1072</name>
</trkpt>
<trkpt lat="49.166418" lon="11.720522">
<ele>546.3</ele>
<speed>0.3</speed>
<course>270.0</course>
<desc>Speed 0.3 km/h Distance 4.57 km</desc>
<time>2010-06-13T06:20:01.83</time>
<name>1073</name>
</trkpt>
<trkpt lat="49.166418" lon="11.720515">
<ele>547.1</ele>
<speed>0.4</speed>
<course>297.4</course>
<desc>Speed 0.4 km/h Distance 4.57 km</desc>
<time>2010-06-13T06:20:02.82</time>
<name>1074</name>
</trkpt>
<trkpt lat="49.166420" lon="11.720510">
<ele>547.7</ele>
<speed>0.6</speed>
<course>297.4</course>
<desc>Speed 0.6 km/h Distance 4.57 km</desc>
<time>2010-06-13T06:20:03.82</time>
<name>1075</name>
</trkpt>
<trkpt lat="49.166420" lon="11.720510">
<ele>548.0</ele>
<speed>0.8</speed>
<course>270.0</course>
<desc>Speed 0.8 km/h Distance 4.57 km</desc>
<time>2010-06-13T06:20:04.83</time>
<name>1076</name>
</trkpt>
<trkpt lat="49.166420" lon="11.720507">
<ele>548.5</ele>
<speed>0.8</speed>
<course>270.0</course>
<desc>Speed 0.8 km/h Distance 4.57 km</desc>
<time>2010-06-13T06:20:05.81</time>
<name>1077</name>
</trkpt>
<trkpt lat="49.166420" lon="11.720500">
<ele>549.2</ele>
<speed>0.6</speed>
<course>18.8</course>
<desc>Speed 0.6 km/h Distance 4.57 km</desc>
<time>2010-06-13T06:20:06.81</time>
<name>1078</name>
</trkpt>
<trkpt lat="49.166423" lon="11.720502">
<ele>549.3</ele>
<speed>0.8</speed>
<course>69.1</course>
<desc>Speed 0.8 km/h Distance 4.57 km</desc>
<time>2010-06-13T06:20:07.83</time>
<name>1079</name>
</trkpt>
<trkpt lat="49.166425" lon="11.720508">
<ele>548.5</ele>
<speed>0.9</speed>
<course>51.9</course>
<desc>Speed 0.9 km/h Distance 4.57 km</desc>
<time>2010-06-13T06:20:08.82</time>
<name>1080</name>
</trkpt>
<trkpt lat="49.166427" lon="11.720512">
<ele>548.0</ele>
<speed>1.5</speed>
<course>72.7</course>
<desc>Speed 1.5 km/h Distance 4.57 km</desc>
<time>2010-06-13T06:20:09.83</time>
<name>1081</name>
</trkpt>
<trkpt lat="49.166428" lon="11.720520">
<ele>547.4</ele>
<speed>1.2</speed>
<course>72.7</course>
<desc>Speed 1.2 km/h Distance 4.57 km</desc>
<time>2010-06-13T06:20:10.83</time>
<name>1082</name>
</trkpt>
<trkpt lat="49.166428" lon="11.720522">
<ele>547.2</ele>
<speed>0.4</speed>
<course>51.9</course>
<desc>Speed 0.4 km/h Distance 4.57 km</desc>
<time>2010-06-13T06:20:11.82</time>
<name>1083</name>
</trkpt>
<trkpt lat="49.166430" lon="11.720525">
<ele>546.7</ele>
<speed>0.4</speed>
<course>90.0</course>
<desc>Speed 0.4 km/h Distance 4.57 km</desc>
<time>2010-06-13T06:20:12.82</time>
<name>1084</name>
</trkpt>
<trkpt lat="49.166430" lon="11.720528">
<ele>546.0</ele>
<speed>0.6</speed>
<course>69.1</course>
<desc>Speed 0.6 km/h Distance 4.58 km</desc>
<time>2010-06-13T06:20:13.82</time>
<name>1085</name>
</trkpt>
<trkpt lat="49.166433" lon="11.720542">
<ele>544.5</ele>
<speed>0.7</speed>
<course>42.5</course>
<desc>Speed 0.7 km/h Distance 4.58 km</desc>
<time>2010-06-13T06:20:14.82</time>
<name>1086</name>
</trkpt>
<trkpt lat="49.166437" lon="11.720547">
<ele>544.4</ele>
<speed>0.5</speed>
<course>122.1</course>
<desc>Speed 0.5 km/h Distance 4.58 km</desc>
<time>2010-06-13T06:20:15.83</time>
<name>1087</name>
</trkpt>
<trkpt lat="49.166433" lon="11.720555">
<ele>544.7</ele>
<speed>3.0</speed>
<course>166.5</course>
<desc>Speed 3.0 km/h Distance 4.58 km</desc>
<time>2010-06-13T06:20:16.83</time>
<name>1088</name>
</trkpt>
<trkpt lat="49.166420" lon="11.720560">
<ele>543.7</ele>
<speed>4.9</speed>
<course>165.1</course>
<desc>Speed 4.9 km/h Distance 4.58 km</desc>
<time>2010-06-13T06:20:17.83</time>
<name>1089</name>
</trkpt>
<trkpt lat="49.166412" lon="11.720563">
<ele>544.1</ele>
<speed>6.1</speed>
<course>195.2</course>
<desc>Speed 6.1 km/h Distance 4.58 km</desc>
<time>2010-06-13T06:20:18.82</time>
<name>1090</name>
</trkpt>
<trkpt lat="49.166392" lon="11.720555">
<ele>543.6</ele>
<speed>5.7</speed>
<course>210.1</course>
<desc>Speed 5.7 km/h Distance 4.58 km</desc>
<time>2010-06-13T06:20:19.84</time>
<name>1091</name>
</trkpt>
<trkpt lat="49.166377" lon="11.720542">
<ele>543.1</ele>
<speed>5.8</speed>
<course>180.0</course>
<desc>Speed 5.8 km/h Distance 4.58 km</desc>
<time>2010-06-13T06:20:20.83</time>
<name>1092</name>
</trkpt>
<trkpt lat="49.166360" lon="11.720542">
<ele>542.4</ele>
<speed>6.0</speed>
<course>114.6</course>
<desc>Speed 6.0 km/h Distance 4.59 km</desc>
<time>2010-06-13T06:20:21.82</time>
<name>1093</name>
</trkpt>
<trkpt lat="49.166350" lon="11.720575">
<ele>541.8</ele>
<speed>7.5</speed>
<course>75.7</course>
<desc>Speed 7.5 km/h Distance 4.59 km</desc>
<time>2010-06-13T06:20:22.83</time>
<name>1094</name>
</trkpt>
<trkpt lat="49.166355" lon="11.720605">
<ele>540.4</ele>
<speed>4.0</speed>
<course>33.1</course>
<desc>Speed 4.0 km/h Distance 4.59 km</desc>
<time>2010-06-13T06:20:23.83</time>
<name>1095</name>
</trkpt>
<trkpt lat="49.166370" lon="11.720620">
<ele>538.8</ele>
<speed>6.6</speed>
<course>2.2</course>
<desc>Speed 6.6 km/h Distance 4.59 km</desc>
<time>2010-06-13T06:20:24.82</time>
<name>1096</name>
</trkpt>
<trkpt lat="49.166397" lon="11.720622">
<ele>536.7</ele>
<speed>10.3</speed>
<course>1.7</course>
<desc>Speed 10.3 km/h Distance 4.60 km</desc>
<time>2010-06-13T06:20:25.81</time>
<name>1097</name>
</trkpt>
<trkpt lat="49.166432" lon="11.720623">
<ele>534.9</ele>
<speed>12.9</speed>
<course>14.6</course>
<desc>Speed 12.9 km/h Distance 4.60 km</desc>
<time>2010-06-13T06:20:26.82</time>
<name>1098</name>
</trkpt>
<trkpt lat="49.166465" lon="11.720637">
<ele>533.7</ele>
<speed>14.8</speed>
<course>21.1</course>
<desc>Speed 14.8 km/h Distance 4.60 km</desc>
<time>2010-06-13T06:20:27.81</time>
<name>1099</name>
</trkpt>
<trkpt lat="49.166502" lon="11.720658">
<ele>533.0</ele>
<speed>16.7</speed>
<course>15.5</course>
<desc>Speed 16.7 km/h Distance 4.61 km</desc>
<time>2010-06-13T06:20:28.82</time>
<name>1100</name>
</trkpt>
<trkpt lat="49.166545" lon="11.720677">
<ele>532.2</ele>
<speed>17.9</speed>
<course>15.5</course>
<desc>Speed 17.9 km/h Distance 4.61 km</desc>
<time>2010-06-13T06:20:29.82</time>
<name>1101</name>
</trkpt>
<trkpt lat="49.166588" lon="11.720695">
<ele>531.1</ele>
<speed>17.9</speed>
<course>15.5</course>
<desc>Speed 17.9 km/h Distance 4.62 km</desc>
<time>2010-06-13T06:20:30.83</time>
<name>1102</name>
</trkpt>
<trkpt lat="49.166632" lon="11.720713">
<ele>530.2</ele>
<speed>18.5</speed>
<course>3.9</course>
<desc>Speed 18.5 km/h Distance 4.62 km</desc>
<time>2010-06-13T06:20:31.82</time>
<name>1103</name>
</trkpt>
<trkpt lat="49.166680" lon="11.720718">
<ele>528.4</ele>
<speed>18.0</speed>
<course>2.5</course>
<desc>Speed 18.0 km/h Distance 4.63 km</desc>
<time>2010-06-13T06:20:32.82</time>
<name>1104</name>
</trkpt>
<trkpt lat="49.166728" lon="11.720722">
<ele>527.4</ele>
<speed>18.3</speed>
<course>3.5</course>
<desc>Speed 18.3 km/h Distance 4.63 km</desc>
<time>2010-06-13T06:20:33.81</time>
<name>1105</name>
</trkpt>
<trkpt lat="49.166780" lon="11.720727">
<ele>525.9</ele>
<speed>19.0</speed>
<course>3.6</course>
<desc>Speed 19.0 km/h Distance 4.64 km</desc>
<time>2010-06-13T06:20:34.83</time>
<name>1106</name>
</trkpt>
<trkpt lat="49.166832" lon="11.720732">
<ele>525.3</ele>
<speed>19.3</speed>
<course>5.5</course>
<desc>Speed 19.3 km/h Distance 4.65 km</desc>
<time>2010-06-13T06:20:35.83</time>
<name>1107</name>
</trkpt>
<trkpt lat="49.166888" lon="11.720740">
<ele>524.6</ele>
<speed>21.1</speed>
<course>5.6</course>
<desc>Speed 21.1 km/h Distance 4.65 km</desc>
<time>2010-06-13T06:20:36.82</time>
<name>1108</name>
</trkpt>
<trkpt lat="49.166943" lon="11.720748">
<ele>524.3</ele>
<speed>21.2</speed>
<course>9.3</course>
<desc>Speed 21.2 km/h Distance 4.66 km</desc>
<time>2010-06-13T06:20:37.82</time>
<name>1109</name>
</trkpt>
<trkpt lat="49.166997" lon="11.720762">
<ele>523.8</ele>
<speed>21.3</speed>
<course>10.1</course>
<desc>Speed 21.3 km/h Distance 4.66 km</desc>
<time>2010-06-13T06:20:38.83</time>
<name>1110</name>
</trkpt>
<trkpt lat="49.167052" lon="11.720777">
<ele>523.1</ele>
<speed>21.7</speed>
<course>10.9</course>
<desc>Speed 21.7 km/h Distance 4.67 km</desc>
<time>2010-06-13T06:20:39.82</time>
<name>1111</name>
</trkpt>
<trkpt lat="49.167108" lon="11.720793">
<ele>522.3</ele>
<speed>21.5</speed>
<course>12.7</course>
<desc>Speed 21.5 km/h Distance 4.68 km</desc>
<time>2010-06-13T06:20:40.82</time>
<name>1112</name>
</trkpt>
<trkpt lat="49.167162" lon="11.720812">
<ele>520.8</ele>
<speed>21.5</speed>
<course>13.4</course>
<desc>Speed 21.5 km/h Distance 4.68 km</desc>
<time>2010-06-13T06:20:41.82</time>
<name>1113</name>
</trkpt>
<trkpt lat="49.167217" lon="11.720832">
<ele>519.5</ele>
<speed>22.2</speed>
<course>9.5</course>
<desc>Speed 22.2 km/h Distance 4.69 km</desc>
<time>2010-06-13T06:20:42.82</time>
<name>1114</name>
</trkpt>
<trkpt lat="49.167275" lon="11.720847">
<ele>519.4</ele>
<speed>23.6</speed>
<course>12.6</course>
<desc>Speed 23.6 km/h Distance 4.70 km</desc>
<time>2010-06-13T06:20:43.83</time>
<name>1115</name>
</trkpt>
<trkpt lat="49.167333" lon="11.720867">
<ele>519.4</ele>
<speed>22.8</speed>
<course>11.6</course>
<desc>Speed 22.8 km/h Distance 4.70 km</desc>
<time>2010-06-13T06:20:44.81</time>
<name>1116</name>
</trkpt>
<trkpt lat="49.167392" lon="11.720885">
<ele>519.7</ele>
<speed>23.4</speed>
<course>12.3</course>
<desc>Speed 23.4 km/h Distance 4.71 km</desc>
<time>2010-06-13T06:20:45.82</time>
<name>1117</name>
</trkpt>
<trkpt lat="49.167452" lon="11.720905">
<ele>519.5</ele>
<speed>23.8</speed>
<course>15.6</course>
<desc>Speed 23.8 km/h Distance 4.72 km</desc>
<time>2010-06-13T06:20:46.81</time>
<name>1118</name>
</trkpt>
<trkpt lat="49.167510" lon="11.720930">
<ele>519.1</ele>
<speed>23.4</speed>
<course>20.0</course>
<desc>Speed 23.4 km/h Distance 4.72 km</desc>
<time>2010-06-13T06:20:47.83</time>
<name>1119</name>
</trkpt>
<trkpt lat="49.167570" lon="11.720963">
<ele>518.8</ele>
<speed>24.4</speed>
<course>20.0</course>
<desc>Speed 24.4 km/h Distance 4.73 km</desc>
<time>2010-06-13T06:20:48.82</time>
<name>1120</name>
</trkpt>
<trkpt lat="49.167630" lon="11.720997">
<ele>518.9</ele>
<speed>24.6</speed>
<course>23.0</course>
<desc>Speed 24.6 km/h Distance 4.74 km</desc>
<time>2010-06-13T06:20:49.82</time>
<name>1121</name>
</trkpt>
<trkpt lat="49.167697" lon="11.721040">
<ele>520.2</ele>
<speed>24.8</speed>
<course>24.8</course>
<desc>Speed 24.8 km/h Distance 4.74 km</desc>
<time>2010-06-13T06:20:50.82</time>
<name>1122</name>
</trkpt>
<trkpt lat="49.167753" lon="11.721080">
<ele>520.8</ele>
<speed>25.3</speed>
<course>19.2</course>
<desc>Speed 25.3 km/h Distance 4.75 km</desc>
<time>2010-06-13T06:20:51.81</time>
<name>1123</name>
</trkpt>
<trkpt lat="49.167828" lon="11.721120">
<ele>522.0</ele>
<speed>24.8</speed>
<course>17.3</course>
<desc>Speed 24.8 km/h Distance 4.76 km</desc>
<time>2010-06-13T06:20:52.82</time>
<name>1124</name>
</trkpt>
<trkpt lat="49.167895" lon="11.721152">
<ele>522.7</ele>
<speed>24.0</speed>
<course>18.6</course>
<desc>Speed 24.0 km/h Distance 4.77 km</desc>
<time>2010-06-13T06:20:53.83</time>
<name>1125</name>
</trkpt>
<trkpt lat="49.167950" lon="11.721180">
<ele>522.1</ele>
<speed>23.4</speed>
<course>20.7</course>
<desc>Speed 23.4 km/h Distance 4.77 km</desc>
<time>2010-06-13T06:20:54.82</time>
<name>1126</name>
</trkpt>
<trkpt lat="49.168013" lon="11.721217">
<ele>522.7</ele>
<speed>24.7</speed>
<course>34.9</course>
<desc>Speed 24.7 km/h Distance 4.78 km</desc>
<time>2010-06-13T06:20:55.82</time>
<name>1127</name>
</trkpt>
<trkpt lat="49.168063" lon="11.721270">
<ele>523.8</ele>
<speed>24.7</speed>
<course>33.9</course>
<desc>Speed 24.7 km/h Distance 4.79 km</desc>
<time>2010-06-13T06:20:56.81</time>
<name>1128</name>
</trkpt>
<trkpt lat="49.168127" lon="11.721335">
<ele>525.9</ele>
<speed>25.1</speed>
<course>43.7</course>
<desc>Speed 25.1 km/h Distance 4.80 km</desc>
<time>2010-06-13T06:20:57.82</time>
<name>1129</name>
</trkpt>
<trkpt lat="49.168170" lon="11.721398">
<ele>525.3</ele>
<speed>25.2</speed>
<course>38.9</course>
<desc>Speed 25.2 km/h Distance 4.80 km</desc>
<time>2010-06-13T06:20:58.82</time>
<name>1130</name>
</trkpt>
<trkpt lat="49.168220" lon="11.721460">
<ele>524.4</ele>
<speed>26.6</speed>
<course>32.4</course>
<desc>Speed 26.6 km/h Distance 4.81 km</desc>
<time>2010-06-13T06:20:59.81</time>
<name>1131</name>
</trkpt>
<trkpt lat="49.168278" lon="11.721517">
<ele>523.5</ele>
<speed>26.4</speed>
<course>28.3</course>
<desc>Speed 26.4 km/h Distance 4.82 km</desc>
<time>2010-06-13T06:21:00.82</time>
<name>1132</name>
</trkpt>
<trkpt lat="49.168345" lon="11.721572">
<ele>523.2</ele>
<speed>26.7</speed>
<course>42.0</course>
<desc>Speed 26.7 km/h Distance 4.83 km</desc>
<time>2010-06-13T06:21:01.82</time>
<name>1133</name>
</trkpt>
<trkpt lat="49.168398" lon="11.721645">
<ele>522.5</ele>
<speed>27.4</speed>
<course>44.1</course>
<desc>Speed 27.4 km/h Distance 4.84 km</desc>
<time>2010-06-13T06:21:02.83</time>
<name>1134</name>
</trkpt>
<trkpt lat="49.168450" lon="11.721722">
<ele>523.1</ele>
<speed>28.2</speed>
<course>45.4</course>
<desc>Speed 28.2 km/h Distance 4.84 km</desc>
<time>2010-06-13T06:21:03.83</time>
<name>1135</name>
</trkpt>
<trkpt lat="49.168498" lon="11.721797">
<ele>522.3</ele>
<speed>28.3</speed>
<course>40.2</course>
<desc>Speed 28.3 km/h Distance 4.85 km</desc>
<time>2010-06-13T06:21:04.83</time>
<name>1136</name>
</trkpt>
<trkpt lat="49.168555" lon="11.721870">
<ele>523.3</ele>
<speed>28.2</speed>
<course>41.5</course>
<desc>Speed 28.2 km/h Distance 4.86 km</desc>
<time>2010-06-13T06:21:05.82</time>
<name>1137</name>
</trkpt>
<trkpt lat="49.168607" lon="11.721940">
<ele>523.8</ele>
<speed>28.8</speed>
<course>43.6</course>
<desc>Speed 28.8 km/h Distance 4.87 km</desc>
<time>2010-06-13T06:21:06.82</time>
<name>1138</name>
</trkpt>
<trkpt lat="49.168662" lon="11.722020">
<ele>524.3</ele>
<speed>30.1</speed>
<course>53.1</course>
<desc>Speed 30.1 km/h Distance 4.88 km</desc>
<time>2010-06-13T06:21:07.82</time>
<name>1139</name>
</trkpt>
<trkpt lat="49.168710" lon="11.722118">
<ele>525.1</ele>
<speed>30.5</speed>
<course>51.3</course>
<desc>Speed 30.5 km/h Distance 4.88 km</desc>
<time>2010-06-13T06:21:08.82</time>
<name>1140</name>
</trkpt>
<trkpt lat="49.168763" lon="11.722220">
<ele>525.9</ele>
<speed>31.3</speed>
<course>51.2</course>
<desc>Speed 31.3 km/h Distance 4.89 km</desc>
<time>2010-06-13T06:21:09.82</time>
<name>1141</name>
</trkpt>
<trkpt lat="49.168815" lon="11.722318">
<ele>526.7</ele>
<speed>31.8</speed>
<course>44.4</course>
<desc>Speed 31.8 km/h Distance 4.90 km</desc>
<time>2010-06-13T06:21:10.83</time>
<name>1142</name>
</trkpt>
<trkpt lat="49.168872" lon="11.722403">
<ele>526.8</ele>
<speed>32.3</speed>
<course>49.4</course>
<desc>Speed 32.3 km/h Distance 4.91 km</desc>
<time>2010-06-13T06:21:11.81</time>
<name>1143</name>
</trkpt>
<trkpt lat="49.168925" lon="11.722498">
<ele>526.8</ele>
<speed>33.1</speed>
<course>44.2</course>
<desc>Speed 33.1 km/h Distance 4.92 km</desc>
<time>2010-06-13T06:21:12.82</time>
<name>1144</name>
</trkpt>
<trkpt lat="49.168983" lon="11.722585">
<ele>526.2</ele>
<speed>33.4</speed>
<course>46.8</course>
<desc>Speed 33.4 km/h Distance 4.93 km</desc>
<time>2010-06-13T06:21:13.83</time>
<name>1145</name>
</trkpt>
<trkpt lat="49.169042" lon="11.722680">
<ele>525.7</ele>
<speed>32.3</speed>
<course>54.1</course>
<desc>Speed 32.3 km/h Distance 4.94 km</desc>
<time>2010-06-13T06:21:14.83</time>
<name>1146</name>
</trkpt>
<trkpt lat="49.169087" lon="11.722775">
<ele>526.9</ele>
<speed>32.7</speed>
<course>49.0</course>
<desc>Speed 32.7 km/h Distance 4.95 km</desc>
<time>2010-06-13T06:21:15.81</time>
<name>1147</name>
</trkpt>
<trkpt lat="49.169142" lon="11.722872">
<ele>526.6</ele>
<speed>32.6</speed>
<course>52.6</course>
<desc>Speed 32.6 km/h Distance 4.96 km</desc>
<time>2010-06-13T06:21:16.81</time>
<name>1148</name>
</trkpt>
<trkpt lat="49.169192" lon="11.722972">
<ele>526.4</ele>
<speed>31.9</speed>
<course>63.0</course>
<desc>Speed 31.9 km/h Distance 4.97 km</desc>
<time>2010-06-13T06:21:17.82</time>
<name>1149</name>
</trkpt>
<trkpt lat="49.169232" lon="11.723092">
<ele>526.7</ele>
<speed>31.8</speed>
<course>51.7</course>
<desc>Speed 31.8 km/h Distance 4.98 km</desc>
<time>2010-06-13T06:21:18.81</time>
<name>1150</name>
</trkpt>
<trkpt lat="49.169285" lon="11.723195">
<ele>525.6</ele>
<speed>33.5</speed>
<course>61.8</course>
<desc>Speed 33.5 km/h Distance 4.99 km</desc>
<time>2010-06-13T06:21:19.83</time>
<name>1151</name>
</trkpt>
<trkpt lat="49.169330" lon="11.723323">
<ele>525.2</ele>
<speed>35.0</speed>
<course>59.5</course>
<desc>Speed 35.0 km/h Distance 5.00 km</desc>
<time>2010-06-13T06:21:20.83</time>
<name>1152</name>
</trkpt>
<trkpt lat="49.169375" lon="11.723440">
<ele>525.8</ele>
<speed>35.0</speed>
<course>51.7</course>
<desc>Speed 35.0 km/h Distance 5.01 km</desc>
<time>2010-06-13T06:21:21.80</time>
<name>1153</name>
</trkpt>
<trkpt lat="49.169428" lon="11.723543">
<ele>525.8</ele>
<speed>34.3</speed>
<course>48.9</course>
<desc>Speed 34.3 km/h Distance 5.02 km</desc>
<time>2010-06-13T06:21:22.82</time>
<name>1154</name>
</trkpt>
<trkpt lat="49.169482" lon="11.723637">
<ele>526.2</ele>
<speed>33.2</speed>
<course>65.5</course>
<desc>Speed 33.2 km/h Distance 5.02 km</desc>
<time>2010-06-13T06:21:23.82</time>
<name>1155</name>
</trkpt>
<trkpt lat="49.169518" lon="11.723760">
<ele>526.8</ele>
<speed>31.9</speed>
<course>59.0</course>
<desc>Speed 31.9 km/h Distance 5.03 km</desc>
<time>2010-06-13T06:21:24.81</time>
<name>1156</name>
</trkpt>
<trkpt lat="49.169558" lon="11.723862">
<ele>526.0</ele>
<speed>30.5</speed>
<course>63.7</course>
<desc>Speed 30.5 km/h Distance 5.04 km</desc>
<time>2010-06-13T06:21:25.82</time>
<name>1157</name>
</trkpt>
<trkpt lat="49.169592" lon="11.723965">
<ele>526.2</ele>
<speed>28.3</speed>
<course>55.1</course>
<desc>Speed 28.3 km/h Distance 5.05 km</desc>
<time>2010-06-13T06:21:26.82</time>
<name>1158</name>
</trkpt>
<trkpt lat="49.169627" lon="11.724042">
<ele>526.3</ele>
<speed>25.2</speed>
<course>64.9</course>
<desc>Speed 25.2 km/h Distance 5.06 km</desc>
<time>2010-06-13T06:21:27.81</time>
<name>1159</name>
</trkpt>
<trkpt lat="49.169652" lon="11.724123">
<ele>527.0</ele>
<speed>24.0</speed>
<course>62.6</course>
<desc>Speed 24.0 km/h Distance 5.07 km</desc>
<time>2010-06-13T06:21:28.83</time>
<name>1160</name>
</trkpt>
<trkpt lat="49.169682" lon="11.724212">
<ele>525.8</ele>
<speed>24.2</speed>
<course>57.4</course>
<desc>Speed 24.2 km/h Distance 5.07 km</desc>
<time>2010-06-13T06:21:29.82</time>
<name>1161</name>
</trkpt>
<trkpt lat="49.169712" lon="11.724283">
<ele>525.7</ele>
<speed>23.1</speed>
<course>63.5</course>
<desc>Speed 23.1 km/h Distance 5.08 km</desc>
<time>2010-06-13T06:21:30.82</time>
<name>1162</name>
</trkpt>
<trkpt lat="49.169738" lon="11.724365">
<ele>526.0</ele>
<speed>24.8</speed>
<course>62.1</course>
<desc>Speed 24.8 km/h Distance 5.09 km</desc>
<time>2010-06-13T06:21:31.83</time>
<name>1163</name>
</trkpt>
<trkpt lat="49.169768" lon="11.724452">
<ele>525.8</ele>
<speed>25.8</speed>
<course>66.0</course>
<desc>Speed 25.8 km/h Distance 5.09 km</desc>
<time>2010-06-13T06:21:32.81</time>
<name>1164</name>
</trkpt>
<trkpt lat="49.169795" lon="11.724543">
<ele>525.9</ele>
<speed>25.4</speed>
<course>62.5</course>
<desc>Speed 25.4 km/h Distance 5.10 km</desc>
<time>2010-06-13T06:21:33.81</time>
<name>1165</name>
</trkpt>
<trkpt lat="49.169823" lon="11.724627">
<ele>525.3</ele>
<speed>25.2</speed>
<course>68.4</course>
<desc>Speed 25.2 km/h Distance 5.11 km</desc>
<time>2010-06-13T06:21:34.81</time>
<name>1166</name>
</trkpt>
<trkpt lat="49.169847" lon="11.724717">
<ele>525.2</ele>
<speed>24.2</speed>
<course>53.2</course>
<desc>Speed 24.2 km/h Distance 5.11 km</desc>
<time>2010-06-13T06:21:35.81</time>
<name>1167</name>
</trkpt>
<trkpt lat="49.169887" lon="11.724798">
<ele>525.4</ele>
<speed>25.6</speed>
<course>55.8</course>
<desc>Speed 25.6 km/h Distance 5.12 km</desc>
<time>2010-06-13T06:21:36.81</time>
<name>1168</name>
</trkpt>
<trkpt lat="49.169920" lon="11.724873">
<ele>525.3</ele>
<speed>24.4</speed>
<course>48.4</course>
<desc>Speed 24.4 km/h Distance 5.13 km</desc>
<time>2010-06-13T06:21:37.82</time>
<name>1169</name>
</trkpt>
<trkpt lat="49.169962" lon="11.724945">
<ele>525.6</ele>
<speed>24.0</speed>
<course>51.7</course>
<desc>Speed 24.0 km/h Distance 5.13 km</desc>
<time>2010-06-13T06:21:38.81</time>
<name>1170</name>
</trkpt>
<trkpt lat="49.170065" lon="11.725145">
<ele>519.7</ele>
<speed>24.4</speed>
<course>56.3</course>
<desc>Speed 24.4 km/h Distance 5.15 km</desc>
<time>2010-06-13T06:21:40.81</time>
<name>1171</name>
</trkpt>
<trkpt lat="49.170105" lon="11.725237">
<ele>518.6</ele>
<speed>22.5</speed>
<course>62.2</course>
<desc>Speed 22.5 km/h Distance 5.16 km</desc>
<time>2010-06-13T06:21:41.82</time>
<name>1172</name>
</trkpt>
<trkpt lat="49.170138" lon="11.725333">
<ele>517.7</ele>
<speed>23.7</speed>
<course>65.4</course>
<desc>Speed 23.7 km/h Distance 5.17 km</desc>
<time>2010-06-13T06:21:42.82</time>
<name>1173</name>
</trkpt>
<trkpt lat="49.170188" lon="11.725500">
<ele>514.7</ele>
<speed>18.1</speed>
<course>59.4</course>
<desc>Speed 18.1 km/h Distance 5.18 km</desc>
<time>2010-06-13T06:21:44.83</time>
<name>1174</name>
</trkpt>
<trkpt lat="49.170208" lon="11.725552">
<ele>514.1</ele>
<speed>14.7</speed>
<course>57.1</course>
<desc>Speed 14.7 km/h Distance 5.19 km</desc>
<time>2010-06-13T06:21:45.80</time>
<name>1175</name>
</trkpt>
<trkpt lat="49.170227" lon="11.725595">
<ele>513.4</ele>
<speed>11.4</speed>
<course>58.6</course>
<desc>Speed 11.4 km/h Distance 5.19 km</desc>
<time>2010-06-13T06:21:46.81</time>
<name>1176</name>
</trkpt>
<trkpt lat="49.170237" lon="11.725620">
<ele>511.8</ele>
<speed>9.3</speed>
<course>39.8</course>
<desc>Speed 9.3 km/h Distance 5.19 km</desc>
<time>2010-06-13T06:21:47.82</time>
<name>1177</name>
</trkpt>
<trkpt lat="49.170255" lon="11.725643">
<ele>511.1</ele>
<speed>8.7</speed>
<course>30.2</course>
<desc>Speed 8.7 km/h Distance 5.20 km</desc>
<time>2010-06-13T06:21:48.82</time>
<name>1178</name>
</trkpt>
<trkpt lat="49.170270" lon="11.725657">
<ele>511.7</ele>
<speed>8.1</speed>
<course>28.5</course>
<desc>Speed 8.1 km/h Distance 5.20 km</desc>
<time>2010-06-13T06:21:49.82</time>
<name>1179</name>
</trkpt>
<trkpt lat="49.170290" lon="11.725673">
<ele>510.9</ele>
<speed>8.7</speed>
<course>16.0</course>
<desc>Speed 8.7 km/h Distance 5.20 km</desc>
<time>2010-06-13T06:21:50.81</time>
<name>1180</name>
</trkpt>
<trkpt lat="49.170317" lon="11.725685">
<ele>508.8</ele>
<speed>10.4</speed>
<course>351.2</course>
<desc>Speed 10.4 km/h Distance 5.20 km</desc>
<time>2010-06-13T06:21:51.82</time>
<name>1181</name>
</trkpt>
<trkpt lat="49.170345" lon="11.725678">
<ele>506.2</ele>
<speed>9.5</speed>
<course>307.8</course>
<desc>Speed 9.5 km/h Distance 5.21 km</desc>
<time>2010-06-13T06:21:52.82</time>
<name>1182</name>
</trkpt>
<trkpt lat="49.170408" lon="11.725553">
<ele>501.9</ele>
<speed>19.2</speed>
<course>303.1</course>
<desc>Speed 19.2 km/h Distance 5.22 km</desc>
<time>2010-06-13T06:21:54.83</time>
<name>1183</name>
</trkpt>
<trkpt lat="49.170480" lon="11.725385">
<ele>498.9</ele>
<speed>22.6</speed>
<course>308.0</course>
<desc>Speed 22.6 km/h Distance 5.23 km</desc>
<time>2010-06-13T06:21:56.83</time>
<name>1184</name>
</trkpt>
<trkpt lat="49.170518" lon="11.725310">
<ele>496.2</ele>
<speed>23.5</speed>
<course>302.7</course>
<desc>Speed 23.5 km/h Distance 5.24 km</desc>
<time>2010-06-13T06:21:57.83</time>
<name>1185</name>
</trkpt>
<trkpt lat="49.170553" lon="11.725227">
<ele>494.6</ele>
<speed>22.3</speed>
<course>317.3</course>
<desc>Speed 22.3 km/h Distance 5.25 km</desc>
<time>2010-06-13T06:21:58.82</time>
<name>1186</name>
</trkpt>
<trkpt lat="49.170602" lon="11.725158">
<ele>495.3</ele>
<speed>20.2</speed>
<course>314.0</course>
<desc>Speed 20.2 km/h Distance 5.25 km</desc>
<time>2010-06-13T06:21:59.81</time>
<name>1187</name>
</trkpt>
<trkpt lat="49.170642" lon="11.725095">
<ele>495.0</ele>
<speed>20.2</speed>
<course>318.6</course>
<desc>Speed 20.2 km/h Distance 5.26 km</desc>
<time>2010-06-13T06:22:00.81</time>
<name>1188</name>
</trkpt>
<trkpt lat="49.170685" lon="11.725037">
<ele>493.5</ele>
<speed>20.9</speed>
<course>320.5</course>
<desc>Speed 20.9 km/h Distance 5.27 km</desc>
<time>2010-06-13T06:22:01.82</time>
<name>1189</name>
</trkpt>
<trkpt lat="49.170730" lon="11.724980">
<ele>492.0</ele>
<speed>22.0</speed>
<course>317.7</course>
<desc>Speed 22.0 km/h Distance 5.27 km</desc>
<time>2010-06-13T06:22:02.82</time>
<name>1190</name>
</trkpt>
<trkpt lat="49.170777" lon="11.724915">
<ele>490.5</ele>
<speed>24.6</speed>
<course>309.7</course>
<desc>Speed 24.6 km/h Distance 5.28 km</desc>
<time>2010-06-13T06:22:03.82</time>
<name>1191</name>
</trkpt>
<trkpt lat="49.170818" lon="11.724838">
<ele>489.5</ele>
<speed>27.3</speed>
<course>304.2</course>
<desc>Speed 27.3 km/h Distance 5.29 km</desc>
<time>2010-06-13T06:22:04.82</time>
<name>1192</name>
</trkpt>
<trkpt lat="49.170858" lon="11.724748">
<ele>488.7</ele>
<speed>28.2</speed>
<course>306.9</course>
<desc>Speed 28.2 km/h Distance 5.30 km</desc>
<time>2010-06-13T06:22:05.81</time>
<name>1193</name>
</trkpt>
<trkpt lat="49.170903" lon="11.724657">
<ele>488.9</ele>
<speed>27.0</speed>
<course>297.0</course>
<desc>Speed 27.0 km/h Distance 5.30 km</desc>
<time>2010-06-13T06:22:06.82</time>
<name>1194</name>
</trkpt>
<trkpt lat="49.170935" lon="11.724562">
<ele>487.7</ele>
<speed>26.3</speed>
<course>294.0</course>
<desc>Speed 26.3 km/h Distance 5.31 km</desc>
<time>2010-06-13T06:22:07.82</time>
<name>1195</name>
</trkpt>
<trkpt lat="49.170962" lon="11.724470">
<ele>486.4</ele>
<speed>27.1</speed>
<course>290.6</course>
<desc>Speed 27.1 km/h Distance 5.32 km</desc>
<time>2010-06-13T06:22:08.80</time>
<name>1196</name>
</trkpt>
<trkpt lat="49.170985" lon="11.724375">
<ele>485.3</ele>
<speed>26.6</speed>
<course>296.2</course>
<desc>Speed 26.6 km/h Distance 5.33 km</desc>
<time>2010-06-13T06:22:09.82</time>
<name>1197</name>
</trkpt>
<trkpt lat="49.171015" lon="11.724282">
<ele>484.6</ele>
<speed>27.1</speed>
<course>304.8</course>
<desc>Speed 27.1 km/h Distance 5.33 km</desc>
<time>2010-06-13T06:22:10.81</time>
<name>1198</name>
</trkpt>
<trkpt lat="49.171057" lon="11.724190">
<ele>484.1</ele>
<speed>26.5</speed>
<course>309.5</course>
<desc>Speed 26.5 km/h Distance 5.34 km</desc>
<time>2010-06-13T06:22:11.82</time>
<name>1199</name>
</trkpt>
<trkpt lat="49.171103" lon="11.724103">
<ele>484.6</ele>
<speed>26.5</speed>
<course>291.5</course>
<desc>Speed 26.5 km/h Distance 5.35 km</desc>
<time>2010-06-13T06:22:12.80</time>
<name>1200</name>
</trkpt>
<trkpt lat="49.171130" lon="11.724000">
<ele>483.1</ele>
<speed>27.3</speed>
<course>290.3</course>
<desc>Speed 27.3 km/h Distance 5.36 km</desc>
<time>2010-06-13T06:22:13.84</time>
<name>1201</name>
</trkpt>
<trkpt lat="49.171153" lon="11.723903">
<ele>482.9</ele>
<speed>26.5</speed>
<course>290.2</course>
<desc>Speed 26.5 km/h Distance 5.37 km</desc>
<time>2010-06-13T06:22:14.81</time>
<name>1202</name>
</trkpt>
<trkpt lat="49.171175" lon="11.723813">
<ele>482.2</ele>
<speed>25.2</speed>
<course>292.9</course>
<desc>Speed 25.2 km/h Distance 5.37 km</desc>
<time>2010-06-13T06:22:15.83</time>
<name>1203</name>
</trkpt>
<trkpt lat="49.171197" lon="11.723735">
<ele>482.3</ele>
<speed>23.2</speed>
<course>291.8</course>
<desc>Speed 23.2 km/h Distance 5.38 km</desc>
<time>2010-06-13T06:22:16.82</time>
<name>1204</name>
</trkpt>
<trkpt lat="49.171215" lon="11.723665">
<ele>482.7</ele>
<speed>22.0</speed>
<course>302.2</course>
<desc>Speed 22.0 km/h Distance 5.38 km</desc>
<time>2010-06-13T06:22:17.82</time>
<name>1205</name>
</trkpt>
<trkpt lat="49.171250" lon="11.723580">
<ele>483.0</ele>
<speed>23.4</speed>
<course>293.8</course>
<desc>Speed 23.4 km/h Distance 5.39 km</desc>
<time>2010-06-13T06:22:18.82</time>
<name>1206</name>
</trkpt>
<trkpt lat="49.171275" lon="11.723493">
<ele>483.7</ele>
<speed>21.8</speed>
<course>295.2</course>
<desc>Speed 21.8 km/h Distance 5.40 km</desc>
<time>2010-06-13T06:22:19.83</time>
<name>1207</name>
</trkpt>
<trkpt lat="49.171302" lon="11.723407">
<ele>484.9</ele>
<speed>21.0</speed>
<course>298.8</course>
<desc>Speed 21.0 km/h Distance 5.41 km</desc>
<time>2010-06-13T06:22:20.82</time>
<name>1208</name>
</trkpt>
<trkpt lat="49.171332" lon="11.723323">
<ele>485.5</ele>
<speed>21.2</speed>
<course>304.0</course>
<desc>Speed 21.2 km/h Distance 5.41 km</desc>
<time>2010-06-13T06:22:21.82</time>
<name>1209</name>
</trkpt>
<trkpt lat="49.171407" lon="11.723153">
<ele>487.6</ele>
<speed>23.6</speed>
<course>292.2</course>
<desc>Speed 23.6 km/h Distance 5.43 km</desc>
<time>2010-06-13T06:22:23.82</time>
<name>1210</name>
</trkpt>
<trkpt lat="49.171427" lon="11.723078">
<ele>489.3</ele>
<speed>21.6</speed>
<course>295.7</course>
<desc>Speed 21.6 km/h Distance 5.43 km</desc>
<time>2010-06-13T06:22:24.81</time>
<name>1211</name>
</trkpt>
<trkpt lat="49.171455" lon="11.722988">
<ele>489.9</ele>
<speed>20.0</speed>
<course>292.4</course>
<desc>Speed 20.0 km/h Distance 5.44 km</desc>
<time>2010-06-13T06:22:25.81</time>
<name>1212</name>
</trkpt>
<trkpt lat="49.171478" lon="11.722902">
<ele>489.8</ele>
<speed>21.0</speed>
<course>288.9</course>
<desc>Speed 21.0 km/h Distance 5.45 km</desc>
<time>2010-06-13T06:22:26.82</time>
<name>1213</name>
</trkpt>
<trkpt lat="49.171500" lon="11.722805">
<ele>490.0</ele>
<speed>23.2</speed>
<course>298.1</course>
<desc>Speed 23.2 km/h Distance 5.45 km</desc>
<time>2010-06-13T06:22:27.81</time>
<name>1214</name>
</trkpt>
<trkpt lat="49.171573" lon="11.722595">
<ele>490.9</ele>
<speed>27.9</speed>
<course>293.8</course>
<desc>Speed 27.9 km/h Distance 5.47 km</desc>
<time>2010-06-13T06:22:29.82</time>
<name>1215</name>
</trkpt>
<trkpt lat="49.171605" lon="11.722485">
<ele>491.0</ele>
<speed>27.4</speed>
<course>290.0</course>
<desc>Speed 27.4 km/h Distance 5.48 km</desc>
<time>2010-06-13T06:22:30.82</time>
<name>1216</name>
</trkpt>
<trkpt lat="49.171630" lon="11.722380">
<ele>489.5</ele>
<speed>26.4</speed>
<course>283.4</course>
<desc>Speed 26.4 km/h Distance 5.49 km</desc>
<time>2010-06-13T06:22:31.81</time>
<name>1217</name>
</trkpt>
<trkpt lat="49.171647" lon="11.722273">
<ele>488.9</ele>
<speed>27.8</speed>
<course>280.7</course>
<desc>Speed 27.8 km/h Distance 5.50 km</desc>
<time>2010-06-13T06:22:32.80</time>
<name>1218</name>
</trkpt>
<trkpt lat="49.171660" lon="11.722165">
<ele>487.8</ele>
<speed>27.1</speed>
<course>285.0</course>
<desc>Speed 27.1 km/h Distance 5.50 km</desc>
<time>2010-06-13T06:22:33.81</time>
<name>1219</name>
</trkpt>
<trkpt lat="49.171678" lon="11.722060">
<ele>486.6</ele>
<speed>25.9</speed>
<course>294.2</course>
<desc>Speed 25.9 km/h Distance 5.51 km</desc>
<time>2010-06-13T06:22:34.81</time>
<name>1220</name>
</trkpt>
<trkpt lat="49.171712" lon="11.721947">
<ele>484.7</ele>
<speed>27.0</speed>
<course>300.3</course>
<desc>Speed 27.0 km/h Distance 5.52 km</desc>
<time>2010-06-13T06:22:35.80</time>
<name>1221</name>
</trkpt>
<trkpt lat="49.171747" lon="11.721855">
<ele>483.4</ele>
<speed>26.2</speed>
<course>290.3</course>
<desc>Speed 26.2 km/h Distance 5.53 km</desc>
<time>2010-06-13T06:22:36.82</time>
<name>1222</name>
</trkpt>
<trkpt lat="49.171770" lon="11.721758">
<ele>483.1</ele>
<speed>26.5</speed>
<course>304.9</course>
<desc>Speed 26.5 km/h Distance 5.54 km</desc>
<time>2010-06-13T06:22:37.81</time>
<name>1223</name>
</trkpt>
<trkpt lat="49.171813" lon="11.721663">
<ele>483.9</ele>
<speed>27.0</speed>
<course>307.4</course>
<desc>Speed 27.0 km/h Distance 5.55 km</desc>
<time>2010-06-13T06:22:38.81</time>
<name>1224</name>
</trkpt>
<trkpt lat="49.171862" lon="11.721567">
<ele>485.2</ele>
<speed>27.3</speed>
<course>309.5</course>
<desc>Speed 27.3 km/h Distance 5.55 km</desc>
<time>2010-06-13T06:22:39.81</time>
<name>1225</name>
</trkpt>
<trkpt lat="49.171908" lon="11.721480">
<ele>485.2</ele>
<speed>27.2</speed>
<course>304.1</course>
<desc>Speed 27.2 km/h Distance 5.56 km</desc>
<time>2010-06-13T06:22:40.82</time>
<name>1226</name>
</trkpt>
<trkpt lat="49.171947" lon="11.721393">
<ele>484.4</ele>
<speed>27.0</speed>
<course>305.7</course>
<desc>Speed 27.0 km/h Distance 5.57 km</desc>
<time>2010-06-13T06:22:41.82</time>
<name>1227</name>
</trkpt>
<trkpt lat="49.171987" lon="11.721308">
<ele>483.7</ele>
<speed>26.7</speed>
<course>299.1</course>
<desc>Speed 26.7 km/h Distance 5.58 km</desc>
<time>2010-06-13T06:22:42.79</time>
<name>1228</name>
</trkpt>
<trkpt lat="49.172020" lon="11.721217">
<ele>483.3</ele>
<speed>27.2</speed>
<course>310.8</course>
<desc>Speed 27.2 km/h Distance 5.59 km</desc>
<time>2010-06-13T06:22:43.81</time>
<name>1229</name>
</trkpt>
<trkpt lat="49.172072" lon="11.721125">
<ele>483.4</ele>
<speed>27.3</speed>
<course>312.0</course>
<desc>Speed 27.3 km/h Distance 5.59 km</desc>
<time>2010-06-13T06:22:44.81</time>
<name>1230</name>
</trkpt>
<trkpt lat="49.172127" lon="11.721032">
<ele>484.3</ele>
<speed>28.2</speed>
<course>303.2</course>
<desc>Speed 28.2 km/h Distance 5.60 km</desc>
<time>2010-06-13T06:22:45.79</time>
<name>1231</name>
</trkpt>
<trkpt lat="49.172167" lon="11.720938">
<ele>484.4</ele>
<speed>27.3</speed>
<course>295.7</course>
<desc>Speed 27.3 km/h Distance 5.61 km</desc>
<time>2010-06-13T06:22:46.82</time>
<name>1232</name>
</trkpt>
<trkpt lat="49.172195" lon="11.720848">
<ele>483.8</ele>
<speed>26.8</speed>
<course>302.9</course>
<desc>Speed 26.8 km/h Distance 5.62 km</desc>
<time>2010-06-13T06:22:47.81</time>
<name>1233</name>
</trkpt>
<trkpt lat="49.172232" lon="11.720762">
<ele>483.3</ele>
<speed>26.4</speed>
<course>310.0</course>
<desc>Speed 26.4 km/h Distance 5.63 km</desc>
<time>2010-06-13T06:22:48.80</time>
<name>1234</name>
</trkpt>
<trkpt lat="49.172278" lon="11.720677">
<ele>483.1</ele>
<speed>26.5</speed>
<course>309.9</course>
<desc>Speed 26.5 km/h Distance 5.63 km</desc>
<time>2010-06-13T06:22:49.82</time>
<name>1235</name>
</trkpt>
<trkpt lat="49.172327" lon="11.720588">
<ele>483.7</ele>
<speed>27.4</speed>
<course>314.5</course>
<desc>Speed 27.4 km/h Distance 5.64 km</desc>
<time>2010-06-13T06:22:50.82</time>
<name>1236</name>
</trkpt>
<trkpt lat="49.172383" lon="11.720500">
<ele>484.8</ele>
<speed>27.3</speed>
<course>312.5</course>
<desc>Speed 27.3 km/h Distance 5.65 km</desc>
<time>2010-06-13T06:22:51.81</time>
<name>1237</name>
</trkpt>
<trkpt lat="49.172433" lon="11.720417">
<ele>484.9</ele>
<speed>26.8</speed>
<course>312.7</course>
<desc>Speed 26.8 km/h Distance 5.66 km</desc>
<time>2010-06-13T06:22:52.80</time>
<name>1238</name>
</trkpt>
<trkpt lat="49.172482" lon="11.720337">
<ele>485.0</ele>
<speed>26.7</speed>
<course>294.4</course>
<desc>Speed 26.7 km/h Distance 5.67 km</desc>
<time>2010-06-13T06:22:53.81</time>
<name>1239</name>
</trkpt>
<trkpt lat="49.172508" lon="11.720247">
<ele>483.7</ele>
<speed>26.9</speed>
<course>286.2</course>
<desc>Speed 26.9 km/h Distance 5.67 km</desc>
<time>2010-06-13T06:22:54.80</time>
<name>1240</name>
</trkpt>
<trkpt lat="49.172527" lon="11.720150">
<ele>482.7</ele>
<speed>26.9</speed>
<course>285.4</course>
<desc>Speed 26.9 km/h Distance 5.68 km</desc>
<time>2010-06-13T06:22:55.82</time>
<name>1241</name>
</trkpt>
<trkpt lat="49.172545" lon="11.720048">
<ele>481.2</ele>
<speed>26.6</speed>
<course>302.6</course>
<desc>Speed 26.6 km/h Distance 5.69 km</desc>
<time>2010-06-13T06:22:56.80</time>
<name>1242</name>
</trkpt>
<trkpt lat="49.172583" lon="11.719957">
<ele>481.2</ele>
<speed>27.4</speed>
<course>288.9</course>
<desc>Speed 27.4 km/h Distance 5.70 km</desc>
<time>2010-06-13T06:22:57.81</time>
<name>1243</name>
</trkpt>
<trkpt lat="49.172605" lon="11.719860">
<ele>480.1</ele>
<speed>25.7</speed>
<course>286.2</course>
<desc>Speed 25.7 km/h Distance 5.71 km</desc>
<time>2010-06-13T06:22:58.81</time>
<name>1244</name>
</trkpt>
<trkpt lat="49.172623" lon="11.719763">
<ele>479.9</ele>
<speed>26.2</speed>
<course>273.6</course>
<desc>Speed 26.2 km/h Distance 5.71 km</desc>
<time>2010-06-13T06:22:59.81</time>
<name>1245</name>
</trkpt>
<trkpt lat="49.172627" lon="11.719683">
<ele>479.6</ele>
<speed>21.5</speed>
<course>266.3</course>
<desc>Speed 21.5 km/h Distance 5.72 km</desc>
<time>2010-06-13T06:23:00.81</time>
<name>1246</name>
</trkpt>
<trkpt lat="49.172623" lon="11.719605">
<ele>481.0</ele>
<speed>13.2</speed>
<course>265.8</course>
<desc>Speed 13.2 km/h Distance 5.72 km</desc>
<time>2010-06-13T06:23:02.81</time>
<name>1247</name>
</trkpt>
<trkpt lat="49.172620" lon="11.719535">
<ele>480.6</ele>
<speed>14.8</speed>
<course>293.1</course>
<desc>Speed 14.8 km/h Distance 5.73 km</desc>
<time>2010-06-13T06:23:03.81</time>
<name>1248</name>
</trkpt>
<trkpt lat="49.172640" lon="11.719463">
<ele>481.3</ele>
<speed>15.2</speed>
<course>279.6</course>
<desc>Speed 15.2 km/h Distance 5.73 km</desc>
<time>2010-06-13T06:23:04.81</time>
<name>1249</name>
</trkpt>
<trkpt lat="49.172647" lon="11.719403">
<ele>481.2</ele>
<speed>15.6</speed>
<course>272.4</course>
<desc>Speed 15.6 km/h Distance 5.74 km</desc>
<time>2010-06-13T06:23:05.82</time>
<name>1250</name>
</trkpt>
<trkpt lat="49.172648" lon="11.719343">
<ele>479.1</ele>
<speed>15.9</speed>
<course>288.5</course>
<desc>Speed 15.9 km/h Distance 5.74 km</desc>
<time>2010-06-13T06:23:06.81</time>
<name>1251</name>
</trkpt>
<trkpt lat="49.172660" lon="11.719290">
<ele>477.8</ele>
<speed>16.0</speed>
<course>298.4</course>
<desc>Speed 16.0 km/h Distance 5.75 km</desc>
<time>2010-06-13T06:23:07.82</time>
<name>1252</name>
</trkpt>
<trkpt lat="49.172680" lon="11.719233">
<ele>477.8</ele>
<speed>16.7</speed>
<course>309.8</course>
<desc>Speed 16.7 km/h Distance 5.75 km</desc>
<time>2010-06-13T06:23:08.81</time>
<name>1253</name>
</trkpt>
<trkpt lat="49.172710" lon="11.719178">
<ele>475.3</ele>
<speed>17.9</speed>
<course>308.2</course>
<desc>Speed 17.9 km/h Distance 5.76 km</desc>
<time>2010-06-13T06:23:09.80</time>
<name>1254</name>
</trkpt>
<trkpt lat="49.172738" lon="11.719123">
<ele>475.3</ele>
<speed>17.6</speed>
<course>318.2</course>
<desc>Speed 17.6 km/h Distance 5.76 km</desc>
<time>2010-06-13T06:23:10.81</time>
<name>1255</name>
</trkpt>
<trkpt lat="49.172770" lon="11.719080">
<ele>476.9</ele>
<speed>16.1</speed>
<course>309.8</course>
<desc>Speed 16.1 km/h Distance 5.77 km</desc>
<time>2010-06-13T06:23:11.82</time>
<name>1256</name>
</trkpt>
<trkpt lat="49.172800" lon="11.719025">
<ele>476.6</ele>
<speed>16.2</speed>
<course>312.0</course>
<desc>Speed 16.2 km/h Distance 5.77 km</desc>
<time>2010-06-13T06:23:12.80</time>
<name>1257</name>
</trkpt>
<trkpt lat="49.172833" lon="11.718968">
<ele>476.6</ele>
<speed>17.2</speed>
<course>304.2</course>
<desc>Speed 17.2 km/h Distance 5.78 km</desc>
<time>2010-06-13T06:23:13.81</time>
<name>1258</name>
</trkpt>
<trkpt lat="49.172860" lon="11.718908">
<ele>476.6</ele>
<speed>18.4</speed>
<course>308.0</course>
<desc>Speed 18.4 km/h Distance 5.78 km</desc>
<time>2010-06-13T06:23:14.81</time>
<name>1259</name>
</trkpt>
<trkpt lat="49.172897" lon="11.718837">
<ele>476.6</ele>
<speed>19.2</speed>
<course>297.7</course>
<desc>Speed 19.2 km/h Distance 5.79 km</desc>
<time>2010-06-13T06:23:15.79</time>
<name>1260</name>
</trkpt>
<trkpt lat="49.172917" lon="11.718778">
<ele>476.6</ele>
<speed>17.5</speed>
<course>300.6</course>
<desc>Speed 17.5 km/h Distance 5.80 km</desc>
<time>2010-06-13T06:23:16.81</time>
<name>1261</name>
</trkpt>
<trkpt lat="49.172945" lon="11.718705">
<ele>476.6</ele>
<speed>18.6</speed>
<course>298.2</course>
<desc>Speed 18.6 km/h Distance 5.80 km</desc>
<time>2010-06-13T06:23:17.81</time>
<name>1262</name>
</trkpt>
<trkpt lat="49.172967" lon="11.718643">
<ele>476.6</ele>
<speed>17.1</speed>
<course>306.1</course>
<desc>Speed 17.1 km/h Distance 5.81 km</desc>
<time>2010-06-13T06:23:18.80</time>
<name>1263</name>
</trkpt>
<trkpt lat="49.173000" lon="11.718573">
<ele>476.6</ele>
<speed>17.0</speed>
<course>315.6</course>
<desc>Speed 17.0 km/h Distance 5.81 km</desc>
<time>2010-06-13T06:23:19.80</time>
<name>1264</name>
</trkpt>
<trkpt lat="49.173033" lon="11.718523">
<ele>476.6</ele>
<speed>16.6</speed>
<course>349.8</course>
<desc>Speed 16.6 km/h Distance 5.82 km</desc>
<time>2010-06-13T06:23:20.80</time>
<name>1265</name>
</trkpt>
<trkpt lat="49.173088" lon="11.718508">
<ele>477.5</ele>
<speed>16.0</speed>
<course>329.3</course>
<desc>Speed 16.0 km/h Distance 5.82 km</desc>
<time>2010-06-13T06:23:21.79</time>
<name>1266</name>
</trkpt>
<trkpt lat="49.173125" lon="11.718475">
<ele>478.0</ele>
<speed>14.6</speed>
<course>318.0</course>
<desc>Speed 14.6 km/h Distance 5.83 km</desc>
<time>2010-06-13T06:23:22.81</time>
<name>1267</name>
</trkpt>
<trkpt lat="49.173152" lon="11.718438">
<ele>478.0</ele>
<speed>13.3</speed>
<course>346.9</course>
<desc>Speed 13.3 km/h Distance 5.83 km</desc>
<time>2010-06-13T06:23:23.80</time>
<name>1268</name>
</trkpt>
<trkpt lat="49.173198" lon="11.718422">
<ele>479.1</ele>
<speed>12.0</speed>
<course>357.5</course>
<desc>Speed 12.0 km/h Distance 5.84 km</desc>
<time>2010-06-13T06:23:24.79</time>
<name>1269</name>
</trkpt>
<trkpt lat="49.173223" lon="11.718420">
<ele>480.0</ele>
<speed>9.8</speed>
<course>341.9</course>
<desc>Speed 9.8 km/h Distance 5.84 km</desc>
<time>2010-06-13T06:23:25.81</time>
<name>1270</name>
</trkpt>
<trkpt lat="49.173250" lon="11.718407">
<ele>480.3</ele>
<speed>9.6</speed>
<course>342.9</course>
<desc>Speed 9.6 km/h Distance 5.84 km</desc>
<time>2010-06-13T06:23:26.82</time>
<name>1271</name>
</trkpt>
<trkpt lat="49.173278" lon="11.718393">
<ele>480.6</ele>
<speed>10.7</speed>
<course>335.0</course>
<desc>Speed 10.7 km/h Distance 5.85 km</desc>
<time>2010-06-13T06:23:27.81</time>
<name>1272</name>
</trkpt>
<trkpt lat="49.173313" lon="11.718368">
<ele>480.5</ele>
<speed>11.2</speed>
<course>336.4</course>
<desc>Speed 11.2 km/h Distance 5.85 km</desc>
<time>2010-06-13T06:23:28.81</time>
<name>1273</name>
</trkpt>
<trkpt lat="49.173348" lon="11.718345">
<ele>479.9</ele>
<speed>11.2</speed>
<course>347.2</course>
<desc>Speed 11.2 km/h Distance 5.86 km</desc>
<time>2010-06-13T06:23:29.80</time>
<name>1274</name>
</trkpt>
<trkpt lat="49.173387" lon="11.718332">
<ele>480.2</ele>
<speed>11.0</speed>
<course>340.4</course>
<desc>Speed 11.0 km/h Distance 5.86 km</desc>
<time>2010-06-13T06:23:30.80</time>
<name>1275</name>
</trkpt>
<trkpt lat="49.173423" lon="11.718312">
<ele>480.2</ele>
<speed>14.4</speed>
<course>4.0</course>
<desc>Speed 14.4 km/h Distance 5.86 km</desc>
<time>2010-06-13T06:23:31.80</time>
<name>1276</name>
</trkpt>
<trkpt lat="49.173547" lon="11.718325">
<ele>483.6</ele>
<speed>19.0</speed>
<course>359.1</course>
<desc>Speed 19.0 km/h Distance 5.88 km</desc>
<time>2010-06-13T06:23:33.82</time>
<name>1277</name>
</trkpt>
<trkpt lat="49.173695" lon="11.718322">
<ele>485.4</ele>
<speed>22.9</speed>
<course>347.1</course>
<desc>Speed 22.9 km/h Distance 5.89 km</desc>
<time>2010-06-13T06:23:35.80</time>
<name>1278</name>
</trkpt>
<trkpt lat="49.173762" lon="11.718298">
<ele>485.8</ele>
<speed>22.7</speed>
<course>346.3</course>
<desc>Speed 22.7 km/h Distance 5.90 km</desc>
<time>2010-06-13T06:23:36.80</time>
<name>1279</name>
</trkpt>
<trkpt lat="49.173927" lon="11.718237">
<ele>485.9</ele>
<speed>26.6</speed>
<course>343.5</course>
<desc>Speed 26.6 km/h Distance 5.92 km</desc>
<time>2010-06-13T06:23:38.82</time>
<name>1280</name>
</trkpt>
<trkpt lat="49.174000" lon="11.718203">
<ele>486.2</ele>
<speed>26.0</speed>
<course>344.3</course>
<desc>Speed 26.0 km/h Distance 5.93 km</desc>
<time>2010-06-13T06:23:39.81</time>
<name>1281</name>
</trkpt>
<trkpt lat="49.174070" lon="11.718173">
<ele>486.1</ele>
<speed>25.3</speed>
<course>345.0</course>
<desc>Speed 25.3 km/h Distance 5.94 km</desc>
<time>2010-06-13T06:23:40.80</time>
<name>1282</name>
</trkpt>
<trkpt lat="49.174225" lon="11.718110">
<ele>487.0</ele>
<speed>24.6</speed>
<course>345.7</course>
<desc>Speed 24.6 km/h Distance 5.96 km</desc>
<time>2010-06-13T06:23:42.80</time>
<name>1283</name>
</trkpt>
<trkpt lat="49.174293" lon="11.718083">
<ele>488.2</ele>
<speed>24.1</speed>
<course>341.0</course>
<desc>Speed 24.1 km/h Distance 5.96 km</desc>
<time>2010-06-13T06:23:43.81</time>
<name>1284</name>
</trkpt>
<trkpt lat="49.174357" lon="11.718050">
<ele>488.2</ele>
<speed>23.5</speed>
<course>340.4</course>
<desc>Speed 23.5 km/h Distance 5.97 km</desc>
<time>2010-06-13T06:23:44.82</time>
<name>1285</name>
</trkpt>
<trkpt lat="49.174412" lon="11.718020">
<ele>488.2</ele>
<speed>21.7</speed>
<course>339.8</course>
<desc>Speed 21.7 km/h Distance 5.98 km</desc>
<time>2010-06-13T06:23:45.81</time>
<name>1286</name>
</trkpt>
<trkpt lat="49.174465" lon="11.717990">
<ele>487.6</ele>
<speed>22.0</speed>
<course>337.4</course>
<desc>Speed 22.0 km/h Distance 5.98 km</desc>
<time>2010-06-13T06:23:46.82</time>
<name>1287</name>
</trkpt>
<trkpt lat="49.174520" lon="11.717955">
<ele>487.5</ele>
<speed>21.4</speed>
<course>331.4</course>
<desc>Speed 21.4 km/h Distance 5.99 km</desc>
<time>2010-06-13T06:23:47.81</time>
<name>1288</name>
</trkpt>
<trkpt lat="49.174560" lon="11.717922">
<ele>487.1</ele>
<speed>21.7</speed>
<course>343.0</course>
<desc>Speed 21.7 km/h Distance 6.00 km</desc>
<time>2010-06-13T06:23:48.81</time>
<name>1289</name>
</trkpt>
<trkpt lat="49.174688" lon="11.717862">
<ele>488.8</ele>
<speed>23.4</speed>
<course>336.8</course>
<desc>Speed 23.4 km/h Distance 6.01 km</desc>
<time>2010-06-13T06:23:50.80</time>
<name>1290</name>
</trkpt>
<trkpt lat="49.174742" lon="11.717827">
<ele>488.8</ele>
<speed>23.8</speed>
<course>343.2</course>
<desc>Speed 23.8 km/h Distance 6.02 km</desc>
<time>2010-06-13T06:23:51.81</time>
<name>1291</name>
</trkpt>
<trkpt lat="49.174807" lon="11.717797">
<ele>489.8</ele>
<speed>23.5</speed>
<course>337.0</course>
<desc>Speed 23.5 km/h Distance 6.02 km</desc>
<time>2010-06-13T06:23:52.81</time>
<name>1292</name>
</trkpt>
<trkpt lat="49.174868" lon="11.717757">
<ele>489.1</ele>
<speed>23.5</speed>
<course>334.3</course>
<desc>Speed 23.5 km/h Distance 6.03 km</desc>
<time>2010-06-13T06:23:53.82</time>
<name>1293</name>
</trkpt>
<trkpt lat="49.174925" lon="11.717715">
<ele>488.6</ele>
<speed>23.3</speed>
<course>337.3</course>
<desc>Speed 23.3 km/h Distance 6.04 km</desc>
<time>2010-06-13T06:23:54.81</time>
<name>1294</name>
</trkpt>
<trkpt lat="49.174985" lon="11.717677">
<ele>488.3</ele>
<speed>24.0</speed>
<course>343.1</course>
<desc>Speed 24.0 km/h Distance 6.05 km</desc>
<time>2010-06-13T06:23:55.82</time>
<name>1295</name>
</trkpt>
<trkpt lat="49.175053" lon="11.717645">
<ele>489.5</ele>
<speed>23.9</speed>
<course>335.0</course>
<desc>Speed 23.9 km/h Distance 6.05 km</desc>
<time>2010-06-13T06:23:56.81</time>
<name>1296</name>
</trkpt>
<trkpt lat="49.175112" lon="11.717603">
<ele>489.2</ele>
<speed>23.9</speed>
<course>333.9</course>
<desc>Speed 23.9 km/h Distance 6.06 km</desc>
<time>2010-06-13T06:23:57.81</time>
<name>1297</name>
</trkpt>
<trkpt lat="49.175165" lon="11.717563">
<ele>488.9</ele>
<speed>23.7</speed>
<course>334.8</course>
<desc>Speed 23.7 km/h Distance 6.07 km</desc>
<time>2010-06-13T06:23:58.81</time>
<name>1298</name>
</trkpt>
<trkpt lat="49.175218" lon="11.717525">
<ele>488.5</ele>
<speed>22.6</speed>
<course>338.9</course>
<desc>Speed 22.6 km/h Distance 6.07 km</desc>
<time>2010-06-13T06:23:59.81</time>
<name>1299</name>
</trkpt>
<trkpt lat="49.175283" lon="11.717487">
<ele>488.1</ele>
<speed>25.3</speed>
<course>339.0</course>
<desc>Speed 25.3 km/h Distance 6.08 km</desc>
<time>2010-06-13T06:24:00.82</time>
<name>1300</name>
</trkpt>
<trkpt lat="49.175340" lon="11.717453">
<ele>487.7</ele>
<speed>24.5</speed>
<course>338.2</course>
<desc>Speed 24.5 km/h Distance 6.09 km</desc>
<time>2010-06-13T06:24:01.82</time>
<name>1301</name>
</trkpt>
<trkpt lat="49.175400" lon="11.717417">
<ele>487.5</ele>
<speed>23.1</speed>
<course>335.4</course>
<desc>Speed 23.1 km/h Distance 6.10 km</desc>
<time>2010-06-13T06:24:02.81</time>
<name>1302</name>
</trkpt>
<trkpt lat="49.175450" lon="11.717382">
<ele>487.2</ele>
<speed>21.7</speed>
<course>337.8</course>
<desc>Speed 21.7 km/h Distance 6.10 km</desc>
<time>2010-06-13T06:24:03.81</time>
<name>1303</name>
</trkpt>
<trkpt lat="49.175503" lon="11.717348">
<ele>487.6</ele>
<speed>20.8</speed>
<course>338.3</course>
<desc>Speed 20.8 km/h Distance 6.11 km</desc>
<time>2010-06-13T06:24:04.82</time>
<name>1304</name>
</trkpt>
<trkpt lat="49.175542" lon="11.717325">
<ele>487.4</ele>
<speed>15.8</speed>
<course>352.2</course>
<desc>Speed 15.8 km/h Distance 6.11 km</desc>
<time>2010-06-13T06:24:05.80</time>
<name>1305</name>
</trkpt>
<trkpt lat="49.175582" lon="11.717317">
<ele>487.2</ele>
<speed>15.2</speed>
<course>0.0</course>
<desc>Speed 15.2 km/h Distance 6.12 km</desc>
<time>2010-06-13T06:24:06.81</time>
<name>1306</name>
</trkpt>
<trkpt lat="49.175618" lon="11.717317">
<ele>486.8</ele>
<speed>15.9</speed>
<course>23.6</course>
<desc>Speed 15.9 km/h Distance 6.12 km</desc>
<time>2010-06-13T06:24:07.80</time>
<name>1307</name>
</trkpt>
<trkpt lat="49.175653" lon="11.717340">
<ele>487.3</ele>
<speed>15.7</speed>
<course>23.6</course>
<desc>Speed 15.7 km/h Distance 6.13 km</desc>
<time>2010-06-13T06:24:08.79</time>
<name>1308</name>
</trkpt>
<trkpt lat="49.175688" lon="11.717363">
<ele>487.5</ele>
<speed>14.5</speed>
<course>22.5</course>
<desc>Speed 14.5 km/h Distance 6.13 km</desc>
<time>2010-06-13T06:24:09.81</time>
<name>1309</name>
</trkpt>
<trkpt lat="49.175720" lon="11.717383">
<ele>487.6</ele>
<speed>16.0</speed>
<course>29.8</course>
<desc>Speed 16.0 km/h Distance 6.13 km</desc>
<time>2010-06-13T06:24:10.80</time>
<name>1310</name>
</trkpt>
<trkpt lat="49.175760" lon="11.717418">
<ele>488.2</ele>
<speed>17.5</speed>
<course>75.4</course>
<desc>Speed 17.5 km/h Distance 6.14 km</desc>
<time>2010-06-13T06:24:11.79</time>
<name>1311</name>
</trkpt>
<trkpt lat="49.175775" lon="11.717507">
<ele>491.0</ele>
<speed>17.0</speed>
<course>34.2</course>
<desc>Speed 17.0 km/h Distance 6.15 km</desc>
<time>2010-06-13T06:24:12.81</time>
<name>1312</name>
</trkpt>
<trkpt lat="49.175817" lon="11.717550">
<ele>491.5</ele>
<speed>17.1</speed>
<course>41.7</course>
<desc>Speed 17.1 km/h Distance 6.15 km</desc>
<time>2010-06-13T06:24:13.80</time>
<name>1313</name>
</trkpt>
<trkpt lat="49.175853" lon="11.717600">
<ele>492.3</ele>
<speed>16.8</speed>
<course>40.4</course>
<desc>Speed 16.8 km/h Distance 6.16 km</desc>
<time>2010-06-13T06:24:14.80</time>
<name>1314</name>
</trkpt>
<trkpt lat="49.175887" lon="11.717643">
<ele>492.9</ele>
<speed>15.6</speed>
<course>27.3</course>
<desc>Speed 15.6 km/h Distance 6.16 km</desc>
<time>2010-06-13T06:24:15.81</time>
<name>1315</name>
</trkpt>
<trkpt lat="49.175918" lon="11.717668">
<ele>494.1</ele>
<speed>14.4</speed>
<course>338.2</course>
<desc>Speed 14.4 km/h Distance 6.17 km</desc>
<time>2010-06-13T06:24:16.81</time>
<name>1316</name>
</trkpt>
<trkpt lat="49.176030" lon="11.717600">
<ele>492.9</ele>
<speed>17.0</speed>
<course>341.4</course>
<desc>Speed 17.0 km/h Distance 6.18 km</desc>
<time>2010-06-13T06:24:18.80</time>
<name>1317</name>
</trkpt>
<trkpt lat="49.176085" lon="11.717572">
<ele>493.1</ele>
<speed>17.6</speed>
<course>340.3</course>
<desc>Speed 17.6 km/h Distance 6.19 km</desc>
<time>2010-06-13T06:24:19.81</time>
<name>1318</name>
</trkpt>
<trkpt lat="49.176137" lon="11.717543">
<ele>493.0</ele>
<speed>18.4</speed>
<course>340.7</course>
<desc>Speed 18.4 km/h Distance 6.19 km</desc>
<time>2010-06-13T06:24:20.80</time>
<name>1319</name>
</trkpt>
<trkpt lat="49.176183" lon="11.717518">
<ele>493.2</ele>
<speed>17.5</speed>
<course>340.1</course>
<desc>Speed 17.5 km/h Distance 6.20 km</desc>
<time>2010-06-13T06:24:21.82</time>
<name>1320</name>
</trkpt>
<trkpt lat="49.176228" lon="11.717493">
<ele>493.6</ele>
<speed>18.6</speed>
<course>343.0</course>
<desc>Speed 18.6 km/h Distance 6.20 km</desc>
<time>2010-06-13T06:24:22.81</time>
<name>1321</name>
</trkpt>
<trkpt lat="49.176282" lon="11.717468">
<ele>493.6</ele>
<speed>17.8</speed>
<course>346.7</course>
<desc>Speed 17.8 km/h Distance 6.21 km</desc>
<time>2010-06-13T06:24:23.79</time>
<name>1322</name>
</trkpt>
<trkpt lat="49.176323" lon="11.717453">
<ele>494.0</ele>
<speed>16.5</speed>
<course>349.3</course>
<desc>Speed 16.5 km/h Distance 6.21 km</desc>
<time>2010-06-13T06:24:24.80</time>
<name>1323</name>
</trkpt>
<trkpt lat="49.176358" lon="11.717443">
<ele>494.2</ele>
<speed>15.3</speed>
<course>355.5</course>
<desc>Speed 15.3 km/h Distance 6.22 km</desc>
<time>2010-06-13T06:24:25.80</time>
<name>1324</name>
</trkpt>
<trkpt lat="49.176387" lon="11.717440">
<ele>493.7</ele>
<speed>14.3</speed>
<course>33.2</course>
<desc>Speed 14.3 km/h Distance 6.22 km</desc>
<time>2010-06-13T06:24:26.81</time>
<name>1325</name>
</trkpt>
<trkpt lat="49.176408" lon="11.717462">
<ele>495.1</ele>
<speed>12.3</speed>
<course>27.7</course>
<desc>Speed 12.3 km/h Distance 6.22 km</desc>
<time>2010-06-13T06:24:27.80</time>
<name>1326</name>
</trkpt>
<trkpt lat="49.176425" lon="11.717475">
<ele>496.7</ele>
<speed>9.2</speed>
<course>6.1</course>
<desc>Speed 9.2 km/h Distance 6.23 km</desc>
<time>2010-06-13T06:24:28.81</time>
<name>1327</name>
</trkpt>
<trkpt lat="49.176445" lon="11.717478">
<ele>496.9</ele>
<speed>8.3</speed>
<course>4.6</course>
<desc>Speed 8.3 km/h Distance 6.23 km</desc>
<time>2010-06-13T06:24:29.79</time>
<name>1328</name>
</trkpt>
<trkpt lat="49.176472" lon="11.717482">
<ele>498.4</ele>
<speed>7.7</speed>
<course>26.9</course>
<desc>Speed 7.7 km/h Distance 6.23 km</desc>
<time>2010-06-13T06:24:30.79</time>
<name>1329</name>
</trkpt>
<trkpt lat="49.176487" lon="11.717493">
<ele>501.9</ele>
<speed>6.1</speed>
<course>349.6</course>
<desc>Speed 6.1 km/h Distance 6.23 km</desc>
<time>2010-06-13T06:24:31.79</time>
<name>1330</name>
</trkpt>
<trkpt lat="49.176510" lon="11.717487">
<ele>503.2</ele>
<speed>5.6</speed>
<course>347.1</course>
<desc>Speed 5.6 km/h Distance 6.24 km</desc>
<time>2010-06-13T06:24:32.81</time>
<name>1331</name>
</trkpt>
<trkpt lat="49.176572" lon="11.717465">
<ele>504.9</ele>
<speed>7.1</speed>
<course>346.4</course>
<desc>Speed 7.1 km/h Distance 6.24 km</desc>
<time>2010-06-13T06:24:34.80</time>
<name>1332</name>
</trkpt>
<trkpt lat="49.176603" lon="11.717453">
<ele>505.6</ele>
<speed>6.0</speed>
<course>350.3</course>
<desc>Speed 6.0 km/h Distance 6.25 km</desc>
<time>2010-06-13T06:24:35.79</time>
<name>1333</name>
</trkpt>
<trkpt lat="49.176617" lon="11.717450">
<ele>505.3</ele>
<speed>5.0</speed>
<course>339.4</course>
<desc>Speed 5.0 km/h Distance 6.25 km</desc>
<time>2010-06-13T06:24:36.80</time>
<name>1334</name>
</trkpt>
<trkpt lat="49.176628" lon="11.717443">
<ele>504.5</ele>
<speed>4.6</speed>
<course>40.9</course>
<desc>Speed 4.6 km/h Distance 6.25 km</desc>
<time>2010-06-13T06:24:37.81</time>
<name>1335</name>
</trkpt>
<trkpt lat="49.176633" lon="11.717450">
<ele>506.4</ele>
<speed>5.0</speed>
<course>352.3</course>
<desc>Speed 5.0 km/h Distance 6.25 km</desc>
<time>2010-06-13T06:24:38.80</time>
<name>1336</name>
</trkpt>
<trkpt lat="49.176642" lon="11.717448">
<ele>506.6</ele>
<speed>6.1</speed>
<course>345.1</course>
<desc>Speed 6.1 km/h Distance 6.25 km</desc>
<time>2010-06-13T06:24:39.81</time>
<name>1337</name>
</trkpt>
<trkpt lat="49.176658" lon="11.717442">
<ele>504.6</ele>
<speed>5.7</speed>
<course>10.2</course>
<desc>Speed 5.7 km/h Distance 6.25 km</desc>
<time>2010-06-13T06:24:40.80</time>
<name>1338</name>
</trkpt>
<trkpt lat="49.176677" lon="11.717447">
<ele>505.6</ele>
<speed>6.6</speed>
<course>15.5</course>
<desc>Speed 6.6 km/h Distance 6.25 km</desc>
<time>2010-06-13T06:24:41.79</time>
<name>1339</name>
</trkpt>
<trkpt lat="49.176688" lon="11.717452">
<ele>507.3</ele>
<speed>7.5</speed>
<course>5.0</course>
<desc>Speed 7.5 km/h Distance 6.26 km</desc>
<time>2010-06-13T06:24:42.81</time>
<name>1340</name>
</trkpt>
<trkpt lat="49.176703" lon="11.717453">
<ele>506.6</ele>
<speed>7.2</speed>
<course>2.8</course>
<desc>Speed 7.2 km/h Distance 6.26 km</desc>
<time>2010-06-13T06:24:43.80</time>
<name>1341</name>
</trkpt>
<trkpt lat="49.176720" lon="11.717453">
<ele>506.3</ele>
<speed>7.6</speed>
<course>3.8</course>
<desc>Speed 7.6 km/h Distance 6.26 km</desc>
<time>2010-06-13T06:24:44.79</time>
<name>1342</name>
</trkpt>
<trkpt lat="49.176735" lon="11.717455">
<ele>506.3</ele>
<speed>6.2</speed>
<course>9.0</course>
<desc>Speed 6.2 km/h Distance 6.26 km</desc>
<time>2010-06-13T06:24:45.81</time>
<name>1343</name>
</trkpt>
<trkpt lat="49.176748" lon="11.717458">
<ele>506.2</ele>
<speed>5.3</speed>
<course>6.5</course>
<desc>Speed 5.3 km/h Distance 6.26 km</desc>
<time>2010-06-13T06:24:46.79</time>
<name>1344</name>
</trkpt>
<trkpt lat="49.176765" lon="11.717462">
<ele>506.8</ele>
<speed>6.2</speed>
<course>23.0</course>
<desc>Speed 6.2 km/h Distance 6.26 km</desc>
<time>2010-06-13T06:24:47.79</time>
<name>1345</name>
</trkpt>
<trkpt lat="49.176775" lon="11.717468">
<ele>506.6</ele>
<speed>5.6</speed>
<course>12.1</course>
<desc>Speed 5.6 km/h Distance 6.27 km</desc>
<time>2010-06-13T06:24:48.80</time>
<name>1346</name>
</trkpt>
<trkpt lat="49.176795" lon="11.717475">
<ele>507.0</ele>
<speed>6.7</speed>
<course>8.4</course>
<desc>Speed 6.7 km/h Distance 6.27 km</desc>
<time>2010-06-13T06:24:49.80</time>
<name>1347</name>
</trkpt>
<trkpt lat="49.176817" lon="11.717480">
<ele>508.5</ele>
<speed>7.3</speed>
<course>5.0</course>
<desc>Speed 7.3 km/h Distance 6.27 km</desc>
<time>2010-06-13T06:24:50.79</time>
<name>1348</name>
</trkpt>
<trkpt lat="49.176842" lon="11.717483">
<ele>509.4</ele>
<speed>6.8</speed>
<course>9.5</course>
<desc>Speed 6.8 km/h Distance 6.27 km</desc>
<time>2010-06-13T06:24:51.81</time>
<name>1349</name>
</trkpt>
<trkpt lat="49.176862" lon="11.717488">
<ele>509.6</ele>
<speed>5.9</speed>
<course>10.2</course>
<desc>Speed 5.9 km/h Distance 6.28 km</desc>
<time>2010-06-13T06:24:52.80</time>
<name>1350</name>
</trkpt>
<trkpt lat="49.176880" lon="11.717493">
<ele>509.9</ele>
<speed>5.8</speed>
<course>33.1</course>
<desc>Speed 5.8 km/h Distance 6.28 km</desc>
<time>2010-06-13T06:24:53.80</time>
<name>1351</name>
</trkpt>
<trkpt lat="49.176892" lon="11.717505">
<ele>511.8</ele>
<speed>6.3</speed>
<course>23.4</course>
<desc>Speed 6.3 km/h Distance 6.28 km</desc>
<time>2010-06-13T06:24:54.80</time>
<name>1352</name>
</trkpt>
<trkpt lat="49.176912" lon="11.717518">
<ele>510.8</ele>
<speed>4.2</speed>
<course>52.6</course>
<desc>Speed 4.2 km/h Distance 6.28 km</desc>
<time>2010-06-13T06:24:55.79</time>
<name>1353</name>
</trkpt>
<trkpt lat="49.176952" lon="11.717598">
<ele>504.3</ele>
<speed>5.2</speed>
<course>52.4</course>
<desc>Speed 5.2 km/h Distance 6.29 km</desc>
<time>2010-06-13T06:24:57.80</time>
<name>1354</name>
</trkpt>
<trkpt lat="49.176955" lon="11.717605">
<ele>504.5</ele>
<speed>4.2</speed>
<course>69.1</course>
<desc>Speed 4.2 km/h Distance 6.29 km</desc>
<time>2010-06-13T06:24:58.80</time>
<name>1355</name>
</trkpt>
<trkpt lat="49.176958" lon="11.717618">
<ele>505.4</ele>
<speed>5.0</speed>
<course>161.2</course>
<desc>Speed 5.0 km/h Distance 6.29 km</desc>
<time>2010-06-13T06:24:59.80</time>
<name>1356</name>
</trkpt>
<trkpt lat="49.176955" lon="11.717620">
<ele>506.8</ele>
<speed>5.3</speed>
<course>69.1</course>
<desc>Speed 5.3 km/h Distance 6.29 km</desc>
<time>2010-06-13T06:25:00.80</time>
<name>1357</name>
</trkpt>
<trkpt lat="49.176958" lon="11.717633">
<ele>507.6</ele>
<speed>3.5</speed>
<course>26.4</course>
<desc>Speed 3.5 km/h Distance 6.29 km</desc>
<time>2010-06-13T06:25:01.80</time>
<name>1358</name>
</trkpt>
<trkpt lat="49.176972" lon="11.717643">
<ele>505.8</ele>
<speed>2.8</speed>
<course>317.4</course>
<desc>Speed 2.8 km/h Distance 6.29 km</desc>
<time>2010-06-13T06:25:02.81</time>
<name>1359</name>
</trkpt>
<trkpt lat="49.176980" lon="11.717632">
<ele>504.9</ele>
<speed>3.1</speed>
<course>305.2</course>
<desc>Speed 3.1 km/h Distance 6.30 km</desc>
<time>2010-06-13T06:25:03.81</time>
<name>1360</name>
</trkpt>
<trkpt lat="49.176990" lon="11.717610">
<ele>504.0</ele>
<speed>4.6</speed>
<course>288.2</course>
<desc>Speed 4.6 km/h Distance 6.30 km</desc>
<time>2010-06-13T06:25:04.81</time>
<name>1361</name>
</trkpt>
<trkpt lat="49.176995" lon="11.717587">
<ele>504.1</ele>
<speed>6.8</speed>
<course>307.4</course>
<desc>Speed 6.8 km/h Distance 6.30 km</desc>
<time>2010-06-13T06:25:05.82</time>
<name>1362</name>
</trkpt>
<trkpt lat="49.177010" lon="11.717557">
<ele>503.5</ele>
<speed>9.8</speed>
<course>298.6</course>
<desc>Speed 9.8 km/h Distance 6.30 km</desc>
<time>2010-06-13T06:25:06.80</time>
<name>1363</name>
</trkpt>
<trkpt lat="49.177027" lon="11.717510">
<ele>503.1</ele>
<speed>13.8</speed>
<course>288.0</course>
<desc>Speed 13.8 km/h Distance 6.31 km</desc>
<time>2010-06-13T06:25:07.80</time>
<name>1364</name>
</trkpt>
<trkpt lat="49.177038" lon="11.717455">
<ele>501.7</ele>
<speed>15.7</speed>
<course>303.7</course>
<desc>Speed 15.7 km/h Distance 6.31 km</desc>
<time>2010-06-13T06:25:08.79</time>
<name>1365</name>
</trkpt>
<trkpt lat="49.177067" lon="11.717390">
<ele>501.0</ele>
<speed>18.0</speed>
<course>282.8</course>
<desc>Speed 18.0 km/h Distance 6.32 km</desc>
<time>2010-06-13T06:25:09.80</time>
<name>1366</name>
</trkpt>
<trkpt lat="49.177080" lon="11.717300">
<ele>499.9</ele>
<speed>19.5</speed>
<course>297.9</course>
<desc>Speed 19.5 km/h Distance 6.32 km</desc>
<time>2010-06-13T06:25:10.80</time>
<name>1367</name>
</trkpt>
<trkpt lat="49.177110" lon="11.717213">
<ele>499.4</ele>
<speed>21.5</speed>
<course>291.7</course>
<desc>Speed 21.5 km/h Distance 6.33 km</desc>
<time>2010-06-13T06:25:11.79</time>
<name>1368</name>
</trkpt>
<trkpt lat="49.177132" lon="11.717130">
<ele>497.7</ele>
<speed>22.3</speed>
<course>277.8</course>
<desc>Speed 22.3 km/h Distance 6.34 km</desc>
<time>2010-06-13T06:25:12.81</time>
<name>1369</name>
</trkpt>
<trkpt lat="49.177140" lon="11.717037">
<ele>496.7</ele>
<speed>23.0</speed>
<course>288.1</course>
<desc>Speed 23.0 km/h Distance 6.34 km</desc>
<time>2010-06-13T06:25:13.79</time>
<name>1370</name>
</trkpt>
<trkpt lat="49.177160" lon="11.716943">
<ele>494.9</ele>
<speed>23.0</speed>
<course>284.3</course>
<desc>Speed 23.0 km/h Distance 6.35 km</desc>
<time>2010-06-13T06:25:14.81</time>
<name>1371</name>
</trkpt>
<trkpt lat="49.177175" lon="11.716853">
<ele>494.2</ele>
<speed>23.7</speed>
<course>280.0</course>
<desc>Speed 23.7 km/h Distance 6.36 km</desc>
<time>2010-06-13T06:25:15.80</time>
<name>1372</name>
</trkpt>
<trkpt lat="49.177185" lon="11.716767">
<ele>491.8</ele>
<speed>23.5</speed>
<course>294.0</course>
<desc>Speed 23.5 km/h Distance 6.36 km</desc>
<time>2010-06-13T06:25:16.80</time>
<name>1373</name>
</trkpt>
<trkpt lat="49.177208" lon="11.716687">
<ele>489.5</ele>
<speed>22.2</speed>
<course>301.5</course>
<desc>Speed 22.2 km/h Distance 6.37 km</desc>
<time>2010-06-13T06:25:17.81</time>
<name>1374</name>
</trkpt>
<trkpt lat="49.177238" lon="11.716612">
<ele>487.1</ele>
<speed>21.5</speed>
<course>295.1</course>
<desc>Speed 21.5 km/h Distance 6.38 km</desc>
<time>2010-06-13T06:25:18.81</time>
<name>1375</name>
</trkpt>
<trkpt lat="49.177263" lon="11.716530">
<ele>486.2</ele>
<speed>21.9</speed>
<course>278.8</course>
<desc>Speed 21.9 km/h Distance 6.38 km</desc>
<time>2010-06-13T06:25:19.79</time>
<name>1376</name>
</trkpt>
<trkpt lat="49.177273" lon="11.716432">
<ele>484.6</ele>
<speed>23.6</speed>
<course>279.6</course>
<desc>Speed 23.6 km/h Distance 6.39 km</desc>
<time>2010-06-13T06:25:20.81</time>
<name>1377</name>
</trkpt>
<trkpt lat="49.177283" lon="11.716342">
<ele>481.3</ele>
<speed>22.7</speed>
<course>289.8</course>
<desc>Speed 22.7 km/h Distance 6.40 km</desc>
<time>2010-06-13T06:25:21.81</time>
<name>1378</name>
</trkpt>
<trkpt lat="49.177303" lon="11.716257">
<ele>479.8</ele>
<speed>24.0</speed>
<course>287.3</course>
<desc>Speed 24.0 km/h Distance 6.40 km</desc>
<time>2010-06-13T06:25:22.80</time>
<name>1379</name>
</trkpt>
<trkpt lat="49.177320" lon="11.716175">
<ele>477.8</ele>
<speed>24.2</speed>
<course>299.0</course>
<desc>Speed 24.2 km/h Distance 6.41 km</desc>
<time>2010-06-13T06:25:23.80</time>
<name>1380</name>
</trkpt>
<trkpt lat="49.177348" lon="11.716097">
<ele>476.7</ele>
<speed>24.0</speed>
<course>289.1</course>
<desc>Speed 24.0 km/h Distance 6.42 km</desc>
<time>2010-06-13T06:25:24.79</time>
<name>1381</name>
</trkpt>
<trkpt lat="49.177368" lon="11.716008">
<ele>475.5</ele>
<speed>23.5</speed>
<course>289.6</course>
<desc>Speed 23.5 km/h Distance 6.42 km</desc>
<time>2010-06-13T06:25:25.80</time>
<name>1382</name>
</trkpt>
<trkpt lat="49.177390" lon="11.715915">
<ele>474.7</ele>
<speed>23.8</speed>
<course>284.8</course>
<desc>Speed 23.8 km/h Distance 6.43 km</desc>
<time>2010-06-13T06:25:26.81</time>
<name>1383</name>
</trkpt>
<trkpt lat="49.177407" lon="11.715818">
<ele>474.7</ele>
<speed>24.4</speed>
<course>287.5</course>
<desc>Speed 24.4 km/h Distance 6.44 km</desc>
<time>2010-06-13T06:25:27.80</time>
<name>1384</name>
</trkpt>
<trkpt lat="49.177428" lon="11.715713">
<ele>474.4</ele>
<speed>25.3</speed>
<course>284.3</course>
<desc>Speed 25.3 km/h Distance 6.44 km</desc>
<time>2010-06-13T06:25:28.79</time>
<name>1385</name>
</trkpt>
<trkpt lat="49.177445" lon="11.715613">
<ele>473.2</ele>
<speed>26.8</speed>
<course>299.7</course>
<desc>Speed 26.8 km/h Distance 6.45 km</desc>
<time>2010-06-13T06:25:29.79</time>
<name>1386</name>
</trkpt>
<trkpt lat="49.177482" lon="11.715515">
<ele>474.1</ele>
<speed>27.2</speed>
<course>284.1</course>
<desc>Speed 27.2 km/h Distance 6.46 km</desc>
<time>2010-06-13T06:25:30.80</time>
<name>1387</name>
</trkpt>
<trkpt lat="49.177502" lon="11.715393">
<ele>475.9</ele>
<speed>27.5</speed>
<course>278.0</course>
<desc>Speed 27.5 km/h Distance 6.47 km</desc>
<time>2010-06-13T06:25:31.80</time>
<name>1388</name>
</trkpt>
<trkpt lat="49.177513" lon="11.715267">
<ele>478.8</ele>
<speed>26.9</speed>
<course>275.2</course>
<desc>Speed 26.9 km/h Distance 6.48 km</desc>
<time>2010-06-13T06:25:32.81</time>
<name>1389</name>
</trkpt>
<trkpt lat="49.177520" lon="11.715155">
<ele>480.6</ele>
<speed>25.5</speed>
<course>268.5</course>
<desc>Speed 25.5 km/h Distance 6.49 km</desc>
<time>2010-06-13T06:25:33.80</time>
<name>1390</name>
</trkpt>
<trkpt lat="49.177518" lon="11.715057">
<ele>481.5</ele>
<speed>24.6</speed>
<course>262.1</course>
<desc>Speed 24.6 km/h Distance 6.49 km</desc>
<time>2010-06-13T06:25:34.80</time>
<name>1391</name>
</trkpt>
<trkpt lat="49.177508" lon="11.714947">
<ele>482.3</ele>
<speed>25.8</speed>
<course>270.0</course>
<desc>Speed 25.8 km/h Distance 6.50 km</desc>
<time>2010-06-13T06:25:35.82</time>
<name>1392</name>
</trkpt>
<trkpt lat="49.177508" lon="11.714845">
<ele>483.3</ele>
<speed>26.1</speed>
<course>279.4</course>
<desc>Speed 26.1 km/h Distance 6.51 km</desc>
<time>2010-06-13T06:25:36.79</time>
<name>1393</name>
</trkpt>
<trkpt lat="49.177517" lon="11.714768">
<ele>481.9</ele>
<speed>25.3</speed>
<course>270.0</course>
<desc>Speed 25.3 km/h Distance 6.52 km</desc>
<time>2010-06-13T06:25:37.82</time>
<name>1394</name>
</trkpt>
<trkpt lat="49.177517" lon="11.714672">
<ele>480.2</ele>
<speed>25.5</speed>
<course>272.8</course>
<desc>Speed 25.5 km/h Distance 6.52 km</desc>
<time>2010-06-13T06:25:38.78</time>
<name>1395</name>
</trkpt>
<trkpt lat="49.177520" lon="11.714568">
<ele>480.2</ele>
<speed>24.7</speed>
<course>273.0</course>
<desc>Speed 24.7 km/h Distance 6.53 km</desc>
<time>2010-06-13T06:25:39.79</time>
<name>1396</name>
</trkpt>
<trkpt lat="49.177523" lon="11.714472">
<ele>480.7</ele>
<speed>25.0</speed>
<course>264.2</course>
<desc>Speed 25.0 km/h Distance 6.54 km</desc>
<time>2010-06-13T06:25:40.80</time>
<name>1397</name>
</trkpt>
<trkpt lat="49.177517" lon="11.714372">
<ele>482.4</ele>
<speed>24.8</speed>
<course>268.5</course>
<desc>Speed 24.8 km/h Distance 6.54 km</desc>
<time>2010-06-13T06:25:41.79</time>
<name>1398</name>
</trkpt>
<trkpt lat="49.177515" lon="11.714272">
<ele>484.0</ele>
<speed>24.7</speed>
<course>270.0</course>
<desc>Speed 24.7 km/h Distance 6.55 km</desc>
<time>2010-06-13T06:25:42.80</time>
<name>1399</name>
</trkpt>
<trkpt lat="49.177515" lon="11.714182">
<ele>485.7</ele>
<speed>23.6</speed>
<course>270.0</course>
<desc>Speed 23.6 km/h Distance 6.56 km</desc>
<time>2010-06-13T06:25:43.81</time>
<name>1400</name>
</trkpt>
<trkpt lat="49.177515" lon="11.714082">
<ele>487.3</ele>
<speed>24.2</speed>
<course>276.3</course>
<desc>Speed 24.2 km/h Distance 6.57 km</desc>
<time>2010-06-13T06:25:44.80</time>
<name>1401</name>
</trkpt>
<trkpt lat="49.177522" lon="11.713990">
<ele>487.4</ele>
<speed>23.6</speed>
<course>268.4</course>
<desc>Speed 23.6 km/h Distance 6.57 km</desc>
<time>2010-06-13T06:25:45.79</time>
<name>1402</name>
</trkpt>
<trkpt lat="49.177520" lon="11.713900">
<ele>488.7</ele>
<speed>23.3</speed>
<course>266.9</course>
<desc>Speed 23.3 km/h Distance 6.58 km</desc>
<time>2010-06-13T06:25:46.79</time>
<name>1403</name>
</trkpt>
<trkpt lat="49.177517" lon="11.713807">
<ele>490.1</ele>
<speed>23.3</speed>
<course>281.4</course>
<desc>Speed 23.3 km/h Distance 6.59 km</desc>
<time>2010-06-13T06:25:47.80</time>
<name>1404</name>
</trkpt>
<trkpt lat="49.177528" lon="11.713718">
<ele>489.7</ele>
<speed>23.5</speed>
<course>279.2</course>
<desc>Speed 23.5 km/h Distance 6.59 km</desc>
<time>2010-06-13T06:25:48.80</time>
<name>1405</name>
</trkpt>
<trkpt lat="49.177537" lon="11.713640">
<ele>489.6</ele>
<speed>23.2</speed>
<course>287.9</course>
<desc>Speed 23.2 km/h Distance 6.60 km</desc>
<time>2010-06-13T06:25:49.81</time>
<name>1406</name>
</trkpt>
<trkpt lat="49.177555" lon="11.713553">
<ele>488.8</ele>
<speed>23.0</speed>
<course>271.7</course>
<desc>Speed 23.0 km/h Distance 6.60 km</desc>
<time>2010-06-13T06:25:50.80</time>
<name>1407</name>
</trkpt>
<trkpt lat="49.177557" lon="11.713465">
<ele>488.7</ele>
<speed>24.6</speed>
<course>274.7</course>
<desc>Speed 24.6 km/h Distance 6.61 km</desc>
<time>2010-06-13T06:25:51.79</time>
<name>1408</name>
</trkpt>
<trkpt lat="49.177562" lon="11.713372">
<ele>490.1</ele>
<speed>24.9</speed>
<course>276.0</course>
<desc>Speed 24.9 km/h Distance 6.62 km</desc>
<time>2010-06-13T06:25:52.80</time>
<name>1409</name>
</trkpt>
<trkpt lat="49.177568" lon="11.713275">
<ele>490.6</ele>
<speed>24.2</speed>
<course>274.9</course>
<desc>Speed 24.2 km/h Distance 6.62 km</desc>
<time>2010-06-13T06:25:53.79</time>
<name>1410</name>
</trkpt>
<trkpt lat="49.177573" lon="11.713185">
<ele>490.6</ele>
<speed>23.5</speed>
<course>271.5</course>
<desc>Speed 23.5 km/h Distance 6.63 km</desc>
<time>2010-06-13T06:25:54.80</time>
<name>1411</name>
</trkpt>
<trkpt lat="49.177575" lon="11.713088">
<ele>489.6</ele>
<speed>22.9</speed>
<course>273.1</course>
<desc>Speed 22.9 km/h Distance 6.64 km</desc>
<time>2010-06-13T06:25:55.81</time>
<name>1412</name>
</trkpt>
<trkpt lat="49.177578" lon="11.712993">
<ele>489.2</ele>
<speed>23.9</speed>
<course>274.5</course>
<desc>Speed 23.9 km/h Distance 6.65 km</desc>
<time>2010-06-13T06:25:56.80</time>
<name>1413</name>
</trkpt>
<trkpt lat="49.177583" lon="11.712897">
<ele>489.2</ele>
<speed>23.6</speed>
<course>271.6</course>
<desc>Speed 23.6 km/h Distance 6.65 km</desc>
<time>2010-06-13T06:25:57.79</time>
<name>1414</name>
</trkpt>
<trkpt lat="49.177585" lon="11.712807">
<ele>490.3</ele>
<speed>22.8</speed>
<course>270.0</course>
<desc>Speed 22.8 km/h Distance 6.66 km</desc>
<time>2010-06-13T06:25:58.81</time>
<name>1415</name>
</trkpt>
<trkpt lat="49.177585" lon="11.712712">
<ele>491.6</ele>
<speed>22.2</speed>
<course>270.0</course>
<desc>Speed 22.2 km/h Distance 6.67 km</desc>
<time>2010-06-13T06:25:59.80</time>
<name>1416</name>
</trkpt>
<trkpt lat="49.177585" lon="11.712623">
<ele>492.4</ele>
<speed>21.9</speed>
<course>273.2</course>
<desc>Speed 21.9 km/h Distance 6.67 km</desc>
<time>2010-06-13T06:26:00.80</time>
<name>1417</name>
</trkpt>
<trkpt lat="49.177588" lon="11.712533">
<ele>492.0</ele>
<speed>22.0</speed>
<course>264.9</course>
<desc>Speed 22.0 km/h Distance 6.68 km</desc>
<time>2010-06-13T06:26:01.80</time>
<name>1418</name>
</trkpt>
<trkpt lat="49.177583" lon="11.712448">
<ele>492.8</ele>
<speed>21.1</speed>
<course>262.1</course>
<desc>Speed 21.1 km/h Distance 6.69 km</desc>
<time>2010-06-13T06:26:02.79</time>
<name>1419</name>
</trkpt>
<trkpt lat="49.177577" lon="11.712375">
<ele>493.5</ele>
<speed>20.6</speed>
<course>272.1</course>
<desc>Speed 20.6 km/h Distance 6.69 km</desc>
<time>2010-06-13T06:26:03.79</time>
<name>1420</name>
</trkpt>
<trkpt lat="49.177578" lon="11.712305">
<ele>492.8</ele>
<speed>19.5</speed>
<course>272.2</course>
<desc>Speed 19.5 km/h Distance 6.70 km</desc>
<time>2010-06-13T06:26:04.80</time>
<name>1421</name>
</trkpt>
<trkpt lat="49.177580" lon="11.712240">
<ele>491.9</ele>
<speed>18.7</speed>
<course>264.0</course>
<desc>Speed 18.7 km/h Distance 6.70 km</desc>
<time>2010-06-13T06:26:05.80</time>
<name>1422</name>
</trkpt>
<trkpt lat="49.177575" lon="11.712167">
<ele>492.1</ele>
<speed>18.8</speed>
<course>263.2</course>
<desc>Speed 18.8 km/h Distance 6.71 km</desc>
<time>2010-06-13T06:26:06.80</time>
<name>1423</name>
</trkpt>
<trkpt lat="49.177568" lon="11.712082">
<ele>491.8</ele>
<speed>18.5</speed>
<course>256.9</course>
<desc>Speed 18.5 km/h Distance 6.71 km</desc>
<time>2010-06-13T06:26:07.80</time>
<name>1424</name>
</trkpt>
<trkpt lat="49.177557" lon="11.712005">
<ele>493.2</ele>
<speed>18.4</speed>
<course>244.2</course>
<desc>Speed 18.4 km/h Distance 6.72 km</desc>
<time>2010-06-13T06:26:08.81</time>
<name>1425</name>
</trkpt>
<trkpt lat="49.177537" lon="11.711942">
<ele>494.0</ele>
<speed>18.5</speed>
<course>249.9</course>
<desc>Speed 18.5 km/h Distance 6.72 km</desc>
<time>2010-06-13T06:26:09.79</time>
<name>1426</name>
</trkpt>
<trkpt lat="49.177518" lon="11.711865">
<ele>494.5</ele>
<speed>19.5</speed>
<course>239.8</course>
<desc>Speed 19.5 km/h Distance 6.73 km</desc>
<time>2010-06-13T06:26:10.80</time>
<name>1427</name>
</trkpt>
<trkpt lat="49.177492" lon="11.711795">
<ele>495.8</ele>
<speed>20.6</speed>
<course>251.6</course>
<desc>Speed 20.6 km/h Distance 6.73 km</desc>
<time>2010-06-13T06:26:11.80</time>
<name>1428</name>
</trkpt>
<trkpt lat="49.177475" lon="11.711718">
<ele>496.8</ele>
<speed>20.7</speed>
<course>252.3</course>
<desc>Speed 20.7 km/h Distance 6.74 km</desc>
<time>2010-06-13T06:26:12.79</time>
<name>1429</name>
</trkpt>
<trkpt lat="49.177458" lon="11.711638">
<ele>496.3</ele>
<speed>20.9</speed>
<course>247.1</course>
<desc>Speed 20.9 km/h Distance 6.75 km</desc>
<time>2010-06-13T06:26:13.79</time>
<name>1430</name>
</trkpt>
<trkpt lat="49.177437" lon="11.711560">
<ele>496.8</ele>
<speed>21.3</speed>
<course>244.8</course>
<desc>Speed 21.3 km/h Distance 6.75 km</desc>
<time>2010-06-13T06:26:14.79</time>
<name>1431</name>
</trkpt>
<trkpt lat="49.177410" lon="11.711473">
<ele>496.8</ele>
<speed>22.9</speed>
<course>244.9</course>
<desc>Speed 22.9 km/h Distance 6.76 km</desc>
<time>2010-06-13T06:26:15.80</time>
<name>1432</name>
</trkpt>
<trkpt lat="49.177385" lon="11.711392">
<ele>497.2</ele>
<speed>22.4</speed>
<course>242.6</course>
<desc>Speed 22.4 km/h Distance 6.77 km</desc>
<time>2010-06-13T06:26:16.79</time>
<name>1433</name>
</trkpt>
<trkpt lat="49.177353" lon="11.711298">
<ele>497.4</ele>
<speed>23.5</speed>
<course>241.6</course>
<desc>Speed 23.5 km/h Distance 6.77 km</desc>
<time>2010-06-13T06:26:17.79</time>
<name>1434</name>
</trkpt>
<trkpt lat="49.177325" lon="11.711218">
<ele>497.6</ele>
<speed>24.2</speed>
<course>242.5</course>
<desc>Speed 24.2 km/h Distance 6.78 km</desc>
<time>2010-06-13T06:26:18.80</time>
<name>1435</name>
</trkpt>
<trkpt lat="49.177297" lon="11.711135">
<ele>498.0</ele>
<speed>23.8</speed>
<course>243.4</course>
<desc>Speed 23.8 km/h Distance 6.79 km</desc>
<time>2010-06-13T06:26:19.79</time>
<name>1436</name>
</trkpt>
<trkpt lat="49.177268" lon="11.711048">
<ele>497.9</ele>
<speed>23.5</speed>
<course>242.6</course>
<desc>Speed 23.5 km/h Distance 6.79 km</desc>
<time>2010-06-13T06:26:20.79</time>
<name>1437</name>
</trkpt>
<trkpt lat="49.177237" lon="11.710955">
<ele>497.3</ele>
<speed>23.9</speed>
<course>245.5</course>
<desc>Speed 23.9 km/h Distance 6.80 km</desc>
<time>2010-06-13T06:26:21.79</time>
<name>1438</name>
</trkpt>
<trkpt lat="49.177208" lon="11.710860">
<ele>498.3</ele>
<speed>25.7</speed>
<course>244.3</course>
<desc>Speed 25.7 km/h Distance 6.81 km</desc>
<time>2010-06-13T06:26:22.80</time>
<name>1439</name>
</trkpt>
<trkpt lat="49.177180" lon="11.710770">
<ele>498.7</ele>
<speed>25.1</speed>
<course>246.8</course>
<desc>Speed 25.1 km/h Distance 6.82 km</desc>
<time>2010-06-13T06:26:23.80</time>
<name>1440</name>
</trkpt>
<trkpt lat="49.177157" lon="11.710687">
<ele>497.3</ele>
<speed>23.8</speed>
<course>246.0</course>
<desc>Speed 23.8 km/h Distance 6.82 km</desc>
<time>2010-06-13T06:26:24.80</time>
<name>1441</name>
</trkpt>
<trkpt lat="49.177133" lon="11.710607">
<ele>497.3</ele>
<speed>23.4</speed>
<course>249.4</course>
<desc>Speed 23.4 km/h Distance 6.83 km</desc>
<time>2010-06-13T06:26:25.80</time>
<name>1442</name>
</trkpt>
<trkpt lat="49.177110" lon="11.710512">
<ele>497.5</ele>
<speed>25.5</speed>
<course>248.5</course>
<desc>Speed 25.5 km/h Distance 6.84 km</desc>
<time>2010-06-13T06:26:26.79</time>
<name>1443</name>
</trkpt>
<trkpt lat="49.177083" lon="11.710408">
<ele>497.8</ele>
<speed>26.9</speed>
<course>246.0</course>
<desc>Speed 26.9 km/h Distance 6.85 km</desc>
<time>2010-06-13T06:26:27.79</time>
<name>1444</name>
</trkpt>
<trkpt lat="49.177057" lon="11.710317">
<ele>498.4</ele>
<speed>27.4</speed>
<course>247.5</course>
<desc>Speed 27.4 km/h Distance 6.85 km</desc>
<time>2010-06-13T06:26:28.81</time>
<name>1445</name>
</trkpt>
<trkpt lat="49.177030" lon="11.710218">
<ele>499.0</ele>
<speed>27.0</speed>
<course>248.7</course>
<desc>Speed 27.0 km/h Distance 6.86 km</desc>
<time>2010-06-13T06:26:29.79</time>
<name>1446</name>
</trkpt>
<trkpt lat="49.177005" lon="11.710120">
<ele>499.7</ele>
<speed>26.6</speed>
<course>251.4</course>
<desc>Speed 26.6 km/h Distance 6.87 km</desc>
<time>2010-06-13T06:26:30.79</time>
<name>1447</name>
</trkpt>
<trkpt lat="49.176983" lon="11.710022">
<ele>500.1</ele>
<speed>26.1</speed>
<course>246.4</course>
<desc>Speed 26.1 km/h Distance 6.88 km</desc>
<time>2010-06-13T06:26:31.79</time>
<name>1448</name>
</trkpt>
<trkpt lat="49.176957" lon="11.709928">
<ele>500.9</ele>
<speed>27.3</speed>
<course>250.3</course>
<desc>Speed 27.3 km/h Distance 6.88 km</desc>
<time>2010-06-13T06:26:32.80</time>
<name>1449</name>
</trkpt>
<trkpt lat="49.176932" lon="11.709822">
<ele>501.3</ele>
<speed>27.5</speed>
<course>257.3</course>
<desc>Speed 27.5 km/h Distance 6.89 km</desc>
<time>2010-06-13T06:26:33.79</time>
<name>1450</name>
</trkpt>
<trkpt lat="49.176915" lon="11.709708">
<ele>501.5</ele>
<speed>26.6</speed>
<course>260.8</course>
<desc>Speed 26.6 km/h Distance 6.90 km</desc>
<time>2010-06-13T06:26:34.80</time>
<name>1451</name>
</trkpt>
<trkpt lat="49.176903" lon="11.709598">
<ele>501.2</ele>
<speed>27.5</speed>
<course>255.9</course>
<desc>Speed 27.5 km/h Distance 6.91 km</desc>
<time>2010-06-13T06:26:35.80</time>
<name>1452</name>
</trkpt>
<trkpt lat="49.176885" lon="11.709487">
<ele>499.8</ele>
<speed>27.2</speed>
<course>247.5</course>
<desc>Speed 27.2 km/h Distance 6.92 km</desc>
<time>2010-06-13T06:26:36.80</time>
<name>1453</name>
</trkpt>
<trkpt lat="49.176858" lon="11.709388">
<ele>500.6</ele>
<speed>28.3</speed>
<course>251.4</course>
<desc>Speed 28.3 km/h Distance 6.92 km</desc>
<time>2010-06-13T06:26:37.80</time>
<name>1454</name>
</trkpt>
<trkpt lat="49.176833" lon="11.709275">
<ele>499.4</ele>
<speed>28.6</speed>
<course>250.6</course>
<desc>Speed 28.6 km/h Distance 6.93 km</desc>
<time>2010-06-13T06:26:38.80</time>
<name>1455</name>
</trkpt>
<trkpt lat="49.176808" lon="11.709167">
<ele>499.1</ele>
<speed>29.1</speed>
<course>257.9</course>
<desc>Speed 29.1 km/h Distance 6.94 km</desc>
<time>2010-06-13T06:26:39.80</time>
<name>1456</name>
</trkpt>
<trkpt lat="49.176793" lon="11.709060">
<ele>499.0</ele>
<speed>27.8</speed>
<course>262.7</course>
<desc>Speed 27.8 km/h Distance 6.95 km</desc>
<time>2010-06-13T06:26:40.80</time>
<name>1457</name>
</trkpt>
<trkpt lat="49.176787" lon="11.708980">
<ele>500.4</ele>
<speed>24.7</speed>
<course>266.0</course>
<desc>Speed 24.7 km/h Distance 6.95 km</desc>
<time>2010-06-13T06:26:41.80</time>
<name>1458</name>
</trkpt>
<trkpt lat="49.176783" lon="11.708907">
<ele>500.1</ele>
<speed>22.9</speed>
<course>271.5</course>
<desc>Speed 22.9 km/h Distance 6.96 km</desc>
<time>2010-06-13T06:26:42.80</time>
<name>1459</name>
</trkpt>
<trkpt lat="49.176785" lon="11.708810">
<ele>499.2</ele>
<speed>23.1</speed>
<course>276.7</course>
<desc>Speed 23.1 km/h Distance 6.97 km</desc>
<time>2010-06-13T06:26:43.80</time>
<name>1460</name>
</trkpt>
<trkpt lat="49.176792" lon="11.708723">
<ele>497.8</ele>
<speed>22.5</speed>
<course>272.9</course>
<desc>Speed 22.5 km/h Distance 6.97 km</desc>
<time>2010-06-13T06:26:44.79</time>
<name>1461</name>
</trkpt>
<trkpt lat="49.176795" lon="11.708623">
<ele>497.3</ele>
<speed>23.6</speed>
<course>277.3</course>
<desc>Speed 23.6 km/h Distance 6.98 km</desc>
<time>2010-06-13T06:26:45.79</time>
<name>1462</name>
</trkpt>
<trkpt lat="49.176803" lon="11.708523">
<ele>495.9</ele>
<speed>24.8</speed>
<course>270.0</course>
<desc>Speed 24.8 km/h Distance 6.99 km</desc>
<time>2010-06-13T06:26:46.78</time>
<name>1463</name>
</trkpt>
<trkpt lat="49.176803" lon="11.708407">
<ele>495.9</ele>
<speed>26.2</speed>
<course>274.3</course>
<desc>Speed 26.2 km/h Distance 7.00 km</desc>
<time>2010-06-13T06:26:47.79</time>
<name>1464</name>
</trkpt>
<trkpt lat="49.176808" lon="11.708305">
<ele>496.1</ele>
<speed>25.6</speed>
<course>270.0</course>
<desc>Speed 25.6 km/h Distance 7.00 km</desc>
<time>2010-06-13T06:26:48.79</time>
<name>1465</name>
</trkpt>
<trkpt lat="49.176808" lon="11.708202">
<ele>496.9</ele>
<speed>25.7</speed>
<course>274.0</course>
<desc>Speed 25.7 km/h Distance 7.01 km</desc>
<time>2010-06-13T06:26:49.79</time>
<name>1466</name>
</trkpt>
<trkpt lat="49.176813" lon="11.708093">
<ele>496.7</ele>
<speed>25.2</speed>
<course>276.0</course>
<desc>Speed 25.2 km/h Distance 7.02 km</desc>
<time>2010-06-13T06:26:50.80</time>
<name>1467</name>
</trkpt>
<trkpt lat="49.176820" lon="11.707997">
<ele>496.4</ele>
<speed>24.4</speed>
<course>288.3</course>
<desc>Speed 24.4 km/h Distance 7.03 km</desc>
<time>2010-06-13T06:26:51.79</time>
<name>1468</name>
</trkpt>
<trkpt lat="49.176838" lon="11.707912">
<ele>495.0</ele>
<speed>23.7</speed>
<course>283.6</course>
<desc>Speed 23.7 km/h Distance 7.03 km</desc>
<time>2010-06-13T06:26:52.80</time>
<name>1469</name>
</trkpt>
<trkpt lat="49.176853" lon="11.707817">
<ele>494.2</ele>
<speed>24.6</speed>
<course>296.6</course>
<desc>Speed 24.6 km/h Distance 7.04 km</desc>
<time>2010-06-13T06:26:53.79</time>
<name>1470</name>
</trkpt>
<trkpt lat="49.176882" lon="11.707730">
<ele>493.3</ele>
<speed>24.5</speed>
<course>294.9</course>
<desc>Speed 24.5 km/h Distance 7.05 km</desc>
<time>2010-06-13T06:26:54.79</time>
<name>1471</name>
</trkpt>
<trkpt lat="49.176910" lon="11.707637">
<ele>493.9</ele>
<speed>24.0</speed>
<course>290.2</course>
<desc>Speed 24.0 km/h Distance 7.05 km</desc>
<time>2010-06-13T06:26:55.79</time>
<name>1472</name>
</trkpt>
<trkpt lat="49.176932" lon="11.707547">
<ele>494.5</ele>
<speed>24.2</speed>
<course>295.7</course>
<desc>Speed 24.2 km/h Distance 7.06 km</desc>
<time>2010-06-13T06:26:56.79</time>
<name>1473</name>
</trkpt>
<trkpt lat="49.176960" lon="11.707457">
<ele>493.5</ele>
<speed>24.3</speed>
<course>298.0</course>
<desc>Speed 24.3 km/h Distance 7.07 km</desc>
<time>2010-06-13T06:26:57.80</time>
<name>1474</name>
</trkpt>
<trkpt lat="49.176988" lon="11.707375">
<ele>493.2</ele>
<speed>23.8</speed>
<course>292.1</course>
<desc>Speed 23.8 km/h Distance 7.08 km</desc>
<time>2010-06-13T06:26:58.79</time>
<name>1475</name>
</trkpt>
<trkpt lat="49.177010" lon="11.707293">
<ele>493.5</ele>
<speed>23.0</speed>
<course>306.8</course>
<desc>Speed 23.0 km/h Distance 7.08 km</desc>
<time>2010-06-13T06:26:59.80</time>
<name>1476</name>
</trkpt>
<trkpt lat="49.177045" lon="11.707222">
<ele>492.3</ele>
<speed>23.2</speed>
<course>295.1</course>
<desc>Speed 23.2 km/h Distance 7.09 km</desc>
<time>2010-06-13T06:27:00.80</time>
<name>1477</name>
</trkpt>
<trkpt lat="49.177070" lon="11.707140">
<ele>492.9</ele>
<speed>23.2</speed>
<course>291.7</course>
<desc>Speed 23.2 km/h Distance 7.10 km</desc>
<time>2010-06-13T06:27:01.79</time>
<name>1478</name>
</trkpt>
<trkpt lat="49.177092" lon="11.707057">
<ele>494.0</ele>
<speed>23.9</speed>
<course>296.5</course>
<desc>Speed 23.9 km/h Distance 7.10 km</desc>
<time>2010-06-13T06:27:02.81</time>
<name>1479</name>
</trkpt>
<trkpt lat="49.177118" lon="11.706975">
<ele>495.4</ele>
<speed>23.0</speed>
<course>294.8</course>
<desc>Speed 23.0 km/h Distance 7.11 km</desc>
<time>2010-06-13T06:27:03.78</time>
<name>1480</name>
</trkpt>
<trkpt lat="49.177145" lon="11.706887">
<ele>496.1</ele>
<speed>22.6</speed>
<course>307.4</course>
<desc>Speed 22.6 km/h Distance 7.12 km</desc>
<time>2010-06-13T06:27:04.79</time>
<name>1481</name>
</trkpt>
<trkpt lat="49.177183" lon="11.706810">
<ele>496.4</ele>
<speed>23.5</speed>
<course>293.6</course>
<desc>Speed 23.5 km/h Distance 7.12 km</desc>
<time>2010-06-13T06:27:05.78</time>
<name>1482</name>
</trkpt>
<trkpt lat="49.177207" lon="11.706728">
<ele>495.8</ele>
<speed>23.8</speed>
<course>304.7</course>
<desc>Speed 23.8 km/h Distance 7.13 km</desc>
<time>2010-06-13T06:27:06.80</time>
<name>1483</name>
</trkpt>
<trkpt lat="49.177238" lon="11.706658">
<ele>496.4</ele>
<speed>21.8</speed>
<course>317.4</course>
<desc>Speed 21.8 km/h Distance 7.14 km</desc>
<time>2010-06-13T06:27:07.79</time>
<name>1484</name>
</trkpt>
<trkpt lat="49.177275" lon="11.706607">
<ele>496.6</ele>
<speed>19.7</speed>
<course>318.2</course>
<desc>Speed 19.7 km/h Distance 7.14 km</desc>
<time>2010-06-13T06:27:08.81</time>
<name>1485</name>
</trkpt>
<trkpt lat="49.177307" lon="11.706563">
<ele>496.5</ele>
<speed>16.4</speed>
<course>335.6</course>
<desc>Speed 16.4 km/h Distance 7.15 km</desc>
<time>2010-06-13T06:27:09.79</time>
<name>1486</name>
</trkpt>
<trkpt lat="49.177328" lon="11.706548">
<ele>496.7</ele>
<speed>13.7</speed>
<course>22.8</course>
<desc>Speed 13.7 km/h Distance 7.15 km</desc>
<time>2010-06-13T06:27:10.79</time>
<name>1487</name>
</trkpt>
<trkpt lat="49.177352" lon="11.706563">
<ele>496.2</ele>
<speed>12.5</speed>
<course>28.1</course>
<desc>Speed 12.5 km/h Distance 7.15 km</desc>
<time>2010-06-13T06:27:11.80</time>
<name>1488</name>
</trkpt>
<trkpt lat="49.177370" lon="11.706578">
<ele>496.2</ele>
<speed>11.5</speed>
<course>37.5</course>
<desc>Speed 11.5 km/h Distance 7.15 km</desc>
<time>2010-06-13T06:27:12.79</time>
<name>1489</name>
</trkpt>
<trkpt lat="49.177398" lon="11.706612">
<ele>497.4</ele>
<speed>13.4</speed>
<course>38.1</course>
<desc>Speed 13.4 km/h Distance 7.16 km</desc>
<time>2010-06-13T06:27:13.79</time>
<name>1490</name>
</trkpt>
<trkpt lat="49.177432" lon="11.706652">
<ele>499.3</ele>
<speed>14.7</speed>
<course>13.6</course>
<desc>Speed 14.7 km/h Distance 7.16 km</desc>
<time>2010-06-13T06:27:14.79</time>
<name>1491</name>
</trkpt>
<trkpt lat="49.177477" lon="11.706668">
<ele>500.0</ele>
<speed>15.0</speed>
<course>31.7</course>
<desc>Speed 15.0 km/h Distance 7.17 km</desc>
<time>2010-06-13T06:27:15.79</time>
<name>1492</name>
</trkpt>
<trkpt lat="49.177507" lon="11.706697">
<ele>500.5</ele>
<speed>15.7</speed>
<course>15.5</course>
<desc>Speed 15.7 km/h Distance 7.17 km</desc>
<time>2010-06-13T06:27:16.80</time>
<name>1493</name>
</trkpt>
<trkpt lat="49.177550" lon="11.706715">
<ele>501.1</ele>
<speed>16.5</speed>
<course>15.5</course>
<desc>Speed 16.5 km/h Distance 7.18 km</desc>
<time>2010-06-13T06:27:17.79</time>
<name>1494</name>
</trkpt>
<trkpt lat="49.177582" lon="11.706728">
<ele>500.4</ele>
<speed>15.3</speed>
<course>14.7</course>
<desc>Speed 15.3 km/h Distance 7.18 km</desc>
<time>2010-06-13T06:27:18.78</time>
<name>1495</name>
</trkpt>
<trkpt lat="49.177615" lon="11.706742">
<ele>500.1</ele>
<speed>14.5</speed>
<course>7.8</course>
<desc>Speed 14.5 km/h Distance 7.18 km</desc>
<time>2010-06-13T06:27:19.79</time>
<name>1496</name>
</trkpt>
<trkpt lat="49.177655" lon="11.706750">
<ele>499.8</ele>
<speed>14.4</speed>
<course>3.2</course>
<desc>Speed 14.4 km/h Distance 7.19 km</desc>
<time>2010-06-13T06:27:20.79</time>
<name>1497</name>
</trkpt>
<trkpt lat="49.177695" lon="11.706753">
<ele>498.9</ele>
<speed>14.9</speed>
<course>0.4</course>
<desc>Speed 14.9 km/h Distance 7.19 km</desc>
<time>2010-06-13T06:27:21.80</time>
<name>1498</name>
</trkpt>
<trkpt lat="49.177733" lon="11.706753">
<ele>497.6</ele>
<speed>14.8</speed>
<course>0.0</course>
<desc>Speed 14.8 km/h Distance 7.20 km</desc>
<time>2010-06-13T06:27:22.78</time>
<name>1499</name>
</trkpt>
<trkpt lat="49.177780" lon="11.706753">
<ele>497.7</ele>
<speed>15.4</speed>
<course>356.2</course>
<desc>Speed 15.4 km/h Distance 7.20 km</desc>
<time>2010-06-13T06:27:23.79</time>
<name>1500</name>
</trkpt>
<trkpt lat="49.177828" lon="11.706748">
<ele>497.7</ele>
<speed>16.7</speed>
<course>355.5</course>
<desc>Speed 16.7 km/h Distance 7.21 km</desc>
<time>2010-06-13T06:27:24.79</time>
<name>1501</name>
</trkpt>
<trkpt lat="49.177883" lon="11.706742">
<ele>497.8</ele>
<speed>17.1</speed>
<course>0.0</course>
<desc>Speed 17.1 km/h Distance 7.21 km</desc>
<time>2010-06-13T06:27:25.79</time>
<name>1502</name>
</trkpt>
<trkpt lat="49.177935" lon="11.706742">
<ele>498.5</ele>
<speed>17.0</speed>
<course>5.8</course>
<desc>Speed 17.0 km/h Distance 7.22 km</desc>
<time>2010-06-13T06:27:26.79</time>
<name>1503</name>
</trkpt>
<trkpt lat="49.177967" lon="11.706747">
<ele>498.5</ele>
<speed>15.4</speed>
<course>4.6</course>
<desc>Speed 15.4 km/h Distance 7.22 km</desc>
<time>2010-06-13T06:27:27.78</time>
<name>1504</name>
</trkpt>
<trkpt lat="49.178007" lon="11.706752">
<ele>498.6</ele>
<speed>16.5</speed>
<course>5.4</course>
<desc>Speed 16.5 km/h Distance 7.23 km</desc>
<time>2010-06-13T06:27:28.80</time>
<name>1505</name>
</trkpt>
<trkpt lat="49.178053" lon="11.706758">
<ele>498.9</ele>
<speed>16.3</speed>
<course>13.7</course>
<desc>Speed 16.3 km/h Distance 7.23 km</desc>
<time>2010-06-13T06:27:29.78</time>
<name>1506</name>
</trkpt>
<trkpt lat="49.178093" lon="11.706773">
<ele>499.2</ele>
<speed>16.7</speed>
<course>11.7</course>
<desc>Speed 16.7 km/h Distance 7.24 km</desc>
<time>2010-06-13T06:27:30.78</time>
<name>1507</name>
</trkpt>
<trkpt lat="49.178130" lon="11.706785">
<ele>498.8</ele>
<speed>15.3</speed>
<course>11.7</course>
<desc>Speed 15.3 km/h Distance 7.24 km</desc>
<time>2010-06-13T06:27:31.80</time>
<name>1508</name>
</trkpt>
<trkpt lat="49.178167" lon="11.706797">
<ele>498.9</ele>
<speed>14.1</speed>
<course>15.4</course>
<desc>Speed 14.1 km/h Distance 7.25 km</desc>
<time>2010-06-13T06:27:32.80</time>
<name>1509</name>
</trkpt>
<trkpt lat="49.178198" lon="11.706810">
<ele>498.8</ele>
<speed>13.4</speed>
<course>4.8</course>
<desc>Speed 13.4 km/h Distance 7.25 km</desc>
<time>2010-06-13T06:27:33.80</time>
<name>1510</name>
</trkpt>
<trkpt lat="49.178237" lon="11.706815">
<ele>498.5</ele>
<speed>13.4</speed>
<course>1.2</course>
<desc>Speed 13.4 km/h Distance 7.25 km</desc>
<time>2010-06-13T06:27:34.79</time>
<name>1511</name>
</trkpt>
<trkpt lat="49.178277" lon="11.706817">
<ele>497.3</ele>
<speed>13.0</speed>
<course>8.5</course>
<desc>Speed 13.0 km/h Distance 7.26 km</desc>
<time>2010-06-13T06:27:35.79</time>
<name>1512</name>
</trkpt>
<trkpt lat="49.178313" lon="11.706825">
<ele>498.8</ele>
<speed>12.9</speed>
<course>6.0</course>
<desc>Speed 12.9 km/h Distance 7.26 km</desc>
<time>2010-06-13T06:27:36.79</time>
<name>1513</name>
</trkpt>
<trkpt lat="49.178355" lon="11.706832">
<ele>500.4</ele>
<speed>14.5</speed>
<course>6.7</course>
<desc>Speed 14.5 km/h Distance 7.27 km</desc>
<time>2010-06-13T06:27:37.78</time>
<name>1514</name>
</trkpt>
<trkpt lat="49.178392" lon="11.706838">
<ele>500.6</ele>
<speed>14.3</speed>
<course>16.3</course>
<desc>Speed 14.3 km/h Distance 7.27 km</desc>
<time>2010-06-13T06:27:38.78</time>
<name>1515</name>
</trkpt>
<trkpt lat="49.178440" lon="11.706860">
<ele>500.1</ele>
<speed>14.5</speed>
<course>0.0</course>
<desc>Speed 14.5 km/h Distance 7.28 km</desc>
<time>2010-06-13T06:27:39.80</time>
<name>1516</name>
</trkpt>
<trkpt lat="49.178477" lon="11.706860">
<ele>499.4</ele>
<speed>13.6</speed>
<course>348.4</course>
<desc>Speed 13.6 km/h Distance 7.28 km</desc>
<time>2010-06-13T06:27:40.79</time>
<name>1517</name>
</trkpt>
<trkpt lat="49.178503" lon="11.706852">
<ele>499.5</ele>
<speed>13.2</speed>
<course>14.7</course>
<desc>Speed 13.2 km/h Distance 7.28 km</desc>
<time>2010-06-13T06:27:41.79</time>
<name>1518</name>
</trkpt>
<trkpt lat="49.178537" lon="11.706865">
<ele>497.5</ele>
<speed>12.5</speed>
<course>357.1</course>
<desc>Speed 12.5 km/h Distance 7.29 km</desc>
<time>2010-06-13T06:27:42.79</time>
<name>1519</name>
</trkpt>
<trkpt lat="49.178578" lon="11.706862">
<ele>496.8</ele>
<speed>12.6</speed>
<course>355.3</course>
<desc>Speed 12.6 km/h Distance 7.29 km</desc>
<time>2010-06-13T06:27:43.80</time>
<name>1520</name>
</trkpt>
<trkpt lat="49.178618" lon="11.706857">
<ele>497.2</ele>
<speed>13.5</speed>
<course>345.4</course>
<desc>Speed 13.5 km/h Distance 7.30 km</desc>
<time>2010-06-13T06:27:44.79</time>
<name>1521</name>
</trkpt>
<trkpt lat="49.178660" lon="11.706840">
<ele>498.9</ele>
<speed>13.6</speed>
<course>338.3</course>
<desc>Speed 13.6 km/h Distance 7.30 km</desc>
<time>2010-06-13T06:27:45.80</time>
<name>1522</name>
</trkpt>
<trkpt lat="49.178698" lon="11.706817">
<ele>500.2</ele>
<speed>13.9</speed>
<course>335.9</course>
<desc>Speed 13.9 km/h Distance 7.31 km</desc>
<time>2010-06-13T06:27:46.78</time>
<name>1523</name>
</trkpt>
<trkpt lat="49.178730" lon="11.706795">
<ele>501.1</ele>
<speed>13.3</speed>
<course>329.7</course>
<desc>Speed 13.3 km/h Distance 7.31 km</desc>
<time>2010-06-13T06:27:47.80</time>
<name>1524</name>
</trkpt>
<trkpt lat="49.178762" lon="11.706767">
<ele>502.6</ele>
<speed>14.3</speed>
<course>326.8</course>
<desc>Speed 14.3 km/h Distance 7.31 km</desc>
<time>2010-06-13T06:27:48.79</time>
<name>1525</name>
</trkpt>
<trkpt lat="49.178795" lon="11.706733">
<ele>505.5</ele>
<speed>16.3</speed>
<course>335.0</course>
<desc>Speed 16.3 km/h Distance 7.32 km</desc>
<time>2010-06-13T06:27:49.79</time>
<name>1526</name>
</trkpt>
<trkpt lat="49.178830" lon="11.706708">
<ele>506.9</ele>
<speed>14.9</speed>
<course>335.2</course>
<desc>Speed 14.9 km/h Distance 7.32 km</desc>
<time>2010-06-13T06:27:50.79</time>
<name>1527</name>
</trkpt>
<trkpt lat="49.178870" lon="11.706680">
<ele>507.8</ele>
<speed>15.5</speed>
<course>336.4</course>
<desc>Speed 15.5 km/h Distance 7.33 km</desc>
<time>2010-06-13T06:27:51.78</time>
<name>1528</name>
</trkpt>
<trkpt lat="49.178910" lon="11.706653">
<ele>508.7</ele>
<speed>15.5</speed>
<course>330.6</course>
<desc>Speed 15.5 km/h Distance 7.33 km</desc>
<time>2010-06-13T06:27:52.79</time>
<name>1529</name>
</trkpt>
<trkpt lat="49.178947" lon="11.706622">
<ele>508.9</ele>
<speed>15.5</speed>
<course>329.6</course>
<desc>Speed 15.5 km/h Distance 7.34 km</desc>
<time>2010-06-13T06:27:53.78</time>
<name>1530</name>
</trkpt>
<trkpt lat="49.178980" lon="11.706592">
<ele>509.5</ele>
<speed>15.6</speed>
<course>329.5</course>
<desc>Speed 15.6 km/h Distance 7.34 km</desc>
<time>2010-06-13T06:27:54.79</time>
<name>1531</name>
</trkpt>
<trkpt lat="49.179013" lon="11.706562">
<ele>510.4</ele>
<speed>15.5</speed>
<course>332.7</course>
<desc>Speed 15.5 km/h Distance 7.35 km</desc>
<time>2010-06-13T06:27:55.78</time>
<name>1532</name>
</trkpt>
<trkpt lat="49.179053" lon="11.706530">
<ele>511.1</ele>
<speed>15.9</speed>
<course>325.6</course>
<desc>Speed 15.9 km/h Distance 7.35 km</desc>
<time>2010-06-13T06:27:56.78</time>
<name>1533</name>
</trkpt>
<trkpt lat="49.179088" lon="11.706493">
<ele>511.1</ele>
<speed>16.4</speed>
<course>325.5</course>
<desc>Speed 16.4 km/h Distance 7.36 km</desc>
<time>2010-06-13T06:27:57.78</time>
<name>1534</name>
</trkpt>
<trkpt lat="49.179122" lon="11.706458">
<ele>511.3</ele>
<speed>16.5</speed>
<course>328.0</course>
<desc>Speed 16.5 km/h Distance 7.36 km</desc>
<time>2010-06-13T06:27:58.80</time>
<name>1535</name>
</trkpt>
<trkpt lat="49.179158" lon="11.706423">
<ele>512.2</ele>
<speed>17.0</speed>
<course>327.9</course>
<desc>Speed 17.0 km/h Distance 7.36 km</desc>
<time>2010-06-13T06:27:59.79</time>
<name>1536</name>
</trkpt>
<trkpt lat="49.179198" lon="11.706385">
<ele>512.1</ele>
<speed>17.0</speed>
<course>8.4</course>
<desc>Speed 17.0 km/h Distance 7.37 km</desc>
<time>2010-06-13T06:28:00.79</time>
<name>1537</name>
</trkpt>
<trkpt lat="49.179250" lon="11.706397">
<ele>505.8</ele>
<speed>17.9</speed>
<course>339.9</course>
<desc>Speed 17.9 km/h Distance 7.38 km</desc>
<time>2010-06-13T06:28:01.80</time>
<name>1538</name>
</trkpt>
<trkpt lat="49.179292" lon="11.706373">
<ele>503.0</ele>
<speed>18.4</speed>
<course>310.0</course>
<desc>Speed 18.4 km/h Distance 7.38 km</desc>
<time>2010-06-13T06:28:02.79</time>
<name>1539</name>
</trkpt>
<trkpt lat="49.179320" lon="11.706322">
<ele>504.1</ele>
<speed>18.3</speed>
<course>320.0</course>
<desc>Speed 18.3 km/h Distance 7.39 km</desc>
<time>2010-06-13T06:28:03.78</time>
<name>1540</name>
</trkpt>
<trkpt lat="49.179355" lon="11.706277">
<ele>504.7</ele>
<speed>18.3</speed>
<course>321.7</course>
<desc>Speed 18.3 km/h Distance 7.39 km</desc>
<time>2010-06-13T06:28:04.79</time>
<name>1541</name>
</trkpt>
<trkpt lat="49.179395" lon="11.706228">
<ele>505.5</ele>
<speed>20.4</speed>
<course>321.3</course>
<desc>Speed 20.4 km/h Distance 7.40 km</desc>
<time>2010-06-13T06:28:05.80</time>
<name>1542</name>
</trkpt>
<trkpt lat="49.179432" lon="11.706183">
<ele>503.4</ele>
<speed>20.1</speed>
<course>317.7</course>
<desc>Speed 20.1 km/h Distance 7.40 km</desc>
<time>2010-06-13T06:28:06.78</time>
<name>1543</name>
</trkpt>
<trkpt lat="49.179470" lon="11.706130">
<ele>503.6</ele>
<speed>19.2</speed>
<course>333.2</course>
<desc>Speed 19.2 km/h Distance 7.41 km</desc>
<time>2010-06-13T06:28:07.79</time>
<name>1544</name>
</trkpt>
<trkpt lat="49.179522" lon="11.706090">
<ele>502.7</ele>
<speed>21.3</speed>
<course>319.7</course>
<desc>Speed 21.3 km/h Distance 7.41 km</desc>
<time>2010-06-13T06:28:08.79</time>
<name>1545</name>
</trkpt>
<trkpt lat="49.179567" lon="11.706032">
<ele>503.2</ele>
<speed>22.7</speed>
<course>321.7</course>
<desc>Speed 22.7 km/h Distance 7.42 km</desc>
<time>2010-06-13T06:28:09.78</time>
<name>1546</name>
</trkpt>
<trkpt lat="49.179615" lon="11.705973">
<ele>503.8</ele>
<speed>22.4</speed>
<course>325.2</course>
<desc>Speed 22.4 km/h Distance 7.43 km</desc>
<time>2010-06-13T06:28:10.80</time>
<name>1547</name>
</trkpt>
<trkpt lat="49.179667" lon="11.705918">
<ele>503.4</ele>
<speed>22.7</speed>
<course>311.5</course>
<desc>Speed 22.7 km/h Distance 7.43 km</desc>
<time>2010-06-13T06:28:11.80</time>
<name>1548</name>
</trkpt>
<trkpt lat="49.179703" lon="11.705855">
<ele>503.7</ele>
<speed>21.5</speed>
<course>319.7</course>
<desc>Speed 21.5 km/h Distance 7.44 km</desc>
<time>2010-06-13T06:28:12.79</time>
<name>1549</name>
</trkpt>
<trkpt lat="49.179748" lon="11.705797">
<ele>503.3</ele>
<speed>22.8</speed>
<course>314.0</course>
<desc>Speed 22.8 km/h Distance 7.45 km</desc>
<time>2010-06-13T06:28:13.79</time>
<name>1550</name>
</trkpt>
<trkpt lat="49.179788" lon="11.705733">
<ele>502.8</ele>
<speed>22.6</speed>
<course>310.2</course>
<desc>Speed 22.6 km/h Distance 7.45 km</desc>
<time>2010-06-13T06:28:14.80</time>
<name>1551</name>
</trkpt>
<trkpt lat="49.179823" lon="11.705670">
<ele>502.0</ele>
<speed>22.1</speed>
<course>311.0</course>
<desc>Speed 22.1 km/h Distance 7.46 km</desc>
<time>2010-06-13T06:28:15.80</time>
<name>1552</name>
</trkpt>
<trkpt lat="49.179858" lon="11.705608">
<ele>501.8</ele>
<speed>22.1</speed>
<course>305.1</course>
<desc>Speed 22.1 km/h Distance 7.47 km</desc>
<time>2010-06-13T06:28:16.78</time>
<name>1553</name>
</trkpt>
<trkpt lat="49.179887" lon="11.705547">
<ele>501.9</ele>
<speed>21.3</speed>
<course>291.9</course>
<desc>Speed 21.3 km/h Distance 7.47 km</desc>
<time>2010-06-13T06:28:17.80</time>
<name>1554</name>
</trkpt>
<trkpt lat="49.179903" lon="11.705483">
<ele>501.3</ele>
<speed>19.9</speed>
<course>311.5</course>
<desc>Speed 19.9 km/h Distance 7.48 km</desc>
<time>2010-06-13T06:28:18.79</time>
<name>1555</name>
</trkpt>
<trkpt lat="49.179940" lon="11.705420">
<ele>500.1</ele>
<speed>20.9</speed>
<course>313.3</course>
<desc>Speed 20.9 km/h Distance 7.48 km</desc>
<time>2010-06-13T06:28:19.80</time>
<name>1556</name>
</trkpt>
<trkpt lat="49.179980" lon="11.705355">
<ele>499.5</ele>
<speed>22.1</speed>
<course>318.0</course>
<desc>Speed 22.1 km/h Distance 7.49 km</desc>
<time>2010-06-13T06:28:20.79</time>
<name>1557</name>
</trkpt>
<trkpt lat="49.180028" lon="11.705288">
<ele>498.8</ele>
<speed>23.0</speed>
<course>307.4</course>
<desc>Speed 23.0 km/h Distance 7.50 km</desc>
<time>2010-06-13T06:28:21.79</time>
<name>1558</name>
</trkpt>
<trkpt lat="49.180063" lon="11.705218">
<ele>498.6</ele>
<speed>23.0</speed>
<course>303.6</course>
<desc>Speed 23.0 km/h Distance 7.50 km</desc>
<time>2010-06-13T06:28:22.78</time>
<name>1559</name>
</trkpt>
<trkpt lat="49.180097" lon="11.705142">
<ele>497.3</ele>
<speed>22.8</speed>
<course>300.9</course>
<desc>Speed 22.8 km/h Distance 7.51 km</desc>
<time>2010-06-13T06:28:23.79</time>
<name>1560</name>
</trkpt>
<trkpt lat="49.180127" lon="11.705065">
<ele>497.2</ele>
<speed>22.0</speed>
<course>302.0</course>
<desc>Speed 22.0 km/h Distance 7.52 km</desc>
<time>2010-06-13T06:28:24.78</time>
<name>1561</name>
</trkpt>
<trkpt lat="49.180157" lon="11.704992">
<ele>497.6</ele>
<speed>22.4</speed>
<course>305.4</course>
<desc>Speed 22.4 km/h Distance 7.52 km</desc>
<time>2010-06-13T06:28:25.77</time>
<name>1562</name>
</trkpt>
<trkpt lat="49.180190" lon="11.704920">
<ele>497.6</ele>
<speed>22.7</speed>
<course>319.2</course>
<desc>Speed 22.7 km/h Distance 7.53 km</desc>
<time>2010-06-13T06:28:26.79</time>
<name>1563</name>
</trkpt>
<trkpt lat="49.180232" lon="11.704865">
<ele>497.6</ele>
<speed>21.8</speed>
<course>318.7</course>
<desc>Speed 21.8 km/h Distance 7.53 km</desc>
<time>2010-06-13T06:28:27.77</time>
<name>1564</name>
</trkpt>
<trkpt lat="49.180415" lon="11.704618">
<ele>497.6</ele>
<speed>19.7</speed>
<course>334.5</course>
<desc>Speed 19.7 km/h Distance 7.56 km</desc>
<time>2010-06-13T06:28:32.88</time>
<name>1565</name>
</trkpt>
<trkpt lat="49.180612" lon="11.704475">
<ele>494.3</ele>
<speed>21.0</speed>
<course>59.6</course>
<desc>Speed 21.0 km/h Distance 7.59 km</desc>
<time>2010-06-13T06:28:35.77</time>
<name>1566</name>
</trkpt>
<trkpt lat="49.180642" lon="11.704553">
<ele>494.0</ele>
<speed>21.1</speed>
<course>54.4</course>
<desc>Speed 21.1 km/h Distance 7.59 km</desc>
<time>2010-06-13T06:28:36.79</time>
<name>1567</name>
</trkpt>
<trkpt lat="49.180667" lon="11.704607">
<ele>494.8</ele>
<speed>19.8</speed>
<course>39.2</course>
<desc>Speed 19.8 km/h Distance 7.60 km</desc>
<time>2010-06-13T06:28:37.78</time>
<name>1568</name>
</trkpt>
<trkpt lat="49.180707" lon="11.704657">
<ele>495.0</ele>
<speed>20.1</speed>
<course>19.1</course>
<desc>Speed 20.1 km/h Distance 7.60 km</desc>
<time>2010-06-13T06:28:38.78</time>
<name>1569</name>
</trkpt>
<trkpt lat="49.180760" lon="11.704685">
<ele>495.3</ele>
<speed>20.3</speed>
<course>11.2</course>
<desc>Speed 20.3 km/h Distance 7.61 km</desc>
<time>2010-06-13T06:28:39.80</time>
<name>1570</name>
</trkpt>
<trkpt lat="49.180815" lon="11.704702">
<ele>495.6</ele>
<speed>19.9</speed>
<course>6.1</course>
<desc>Speed 19.9 km/h Distance 7.62 km</desc>
<time>2010-06-13T06:28:40.79</time>
<name>1571</name>
</trkpt>
<trkpt lat="49.180947" lon="11.704723">
<ele>497.5</ele>
<speed>18.9</speed>
<course>19.7</course>
<desc>Speed 18.9 km/h Distance 7.63 km</desc>
<time>2010-06-13T06:28:42.79</time>
<name>1572</name>
</trkpt>
<trkpt lat="49.180998" lon="11.704752">
<ele>494.2</ele>
<speed>18.7</speed>
<course>25.3</course>
<desc>Speed 18.7 km/h Distance 7.64 km</desc>
<time>2010-06-13T06:28:43.78</time>
<name>1573</name>
</trkpt>
<trkpt lat="49.181047" lon="11.704787">
<ele>491.6</ele>
<speed>18.0</speed>
<course>13.4</course>
<desc>Speed 18.0 km/h Distance 7.64 km</desc>
<time>2010-06-13T06:28:44.79</time>
<name>1574</name>
</trkpt>
<trkpt lat="49.181102" lon="11.704807">
<ele>494.4</ele>
<speed>18.4</speed>
<course>25.7</course>
<desc>Speed 18.4 km/h Distance 7.65 km</desc>
<time>2010-06-13T06:28:45.79</time>
<name>1575</name>
</trkpt>
<trkpt lat="49.181133" lon="11.704830">
<ele>495.8</ele>
<speed>17.3</speed>
<course>13.6</course>
<desc>Speed 17.3 km/h Distance 7.65 km</desc>
<time>2010-06-13T06:28:46.79</time>
<name>1576</name>
</trkpt>
<trkpt lat="49.181178" lon="11.704847">
<ele>498.8</ele>
<speed>17.6</speed>
<course>44.9</course>
<desc>Speed 17.6 km/h Distance 7.66 km</desc>
<time>2010-06-13T06:28:47.79</time>
<name>1577</name>
</trkpt>
<trkpt lat="49.181213" lon="11.704900">
<ele>500.2</ele>
<speed>18.0</speed>
<course>34.3</course>
<desc>Speed 18.0 km/h Distance 7.66 km</desc>
<time>2010-06-13T06:28:48.78</time>
<name>1578</name>
</trkpt>
<trkpt lat="49.181252" lon="11.704940">
<ele>500.0</ele>
<speed>17.5</speed>
<course>28.4</course>
<desc>Speed 17.5 km/h Distance 7.67 km</desc>
<time>2010-06-13T06:28:49.79</time>
<name>1579</name>
</trkpt>
<trkpt lat="49.181300" lon="11.704980">
<ele>498.2</ele>
<speed>18.7</speed>
<course>29.3</course>
<desc>Speed 18.7 km/h Distance 7.67 km</desc>
<time>2010-06-13T06:28:50.78</time>
<name>1580</name>
</trkpt>
<trkpt lat="49.181347" lon="11.705020">
<ele>497.9</ele>
<speed>19.8</speed>
<course>10.2</course>
<desc>Speed 19.8 km/h Distance 7.68 km</desc>
<time>2010-06-13T06:28:51.79</time>
<name>1581</name>
</trkpt>
<trkpt lat="49.181402" lon="11.705035">
<ele>498.0</ele>
<speed>18.9</speed>
<course>39.2</course>
<desc>Speed 18.9 km/h Distance 7.69 km</desc>
<time>2010-06-13T06:28:52.79</time>
<name>1582</name>
</trkpt>
<trkpt lat="49.181442" lon="11.705085">
<ele>494.5</ele>
<speed>17.7</speed>
<course>39.2</course>
<desc>Speed 17.7 km/h Distance 7.69 km</desc>
<time>2010-06-13T06:28:53.79</time>
<name>1583</name>
</trkpt>
<trkpt lat="49.181537" lon="11.705203">
<ele>487.1</ele>
<speed>17.2</speed>
<course>6.4</course>
<desc>Speed 17.2 km/h Distance 7.71 km</desc>
<time>2010-06-13T06:28:55.78</time>
<name>1584</name>
</trkpt>
<trkpt lat="49.181567" lon="11.705208">
<ele>490.7</ele>
<speed>17.1</speed>
<course>17.1</course>
<desc>Speed 17.1 km/h Distance 7.71 km</desc>
<time>2010-06-13T06:28:56.78</time>
<name>1585</name>
</trkpt>
<trkpt lat="49.181595" lon="11.705222">
<ele>493.4</ele>
<speed>16.8</speed>
<course>4.7</course>
<desc>Speed 16.8 km/h Distance 7.71 km</desc>
<time>2010-06-13T06:28:57.79</time>
<name>1586</name>
</trkpt>
<trkpt lat="49.181635" lon="11.705227">
<ele>493.2</ele>
<speed>16.8</speed>
<course>352.6</course>
<desc>Speed 16.8 km/h Distance 7.72 km</desc>
<time>2010-06-13T06:28:58.79</time>
<name>1587</name>
</trkpt>
<trkpt lat="49.181677" lon="11.705218">
<ele>492.6</ele>
<speed>18.1</speed>
<course>326.8</course>
<desc>Speed 18.1 km/h Distance 7.72 km</desc>
<time>2010-06-13T06:28:59.78</time>
<name>1588</name>
</trkpt>
<trkpt lat="49.181717" lon="11.705178">
<ele>493.4</ele>
<speed>18.3</speed>
<course>314.2</course>
<desc>Speed 18.3 km/h Distance 7.73 km</desc>
<time>2010-06-13T06:29:00.79</time>
<name>1589</name>
</trkpt>
<trkpt lat="49.181752" lon="11.705123">
<ele>492.3</ele>
<speed>18.8</speed>
<course>308.9</course>
<desc>Speed 18.8 km/h Distance 7.73 km</desc>
<time>2010-06-13T06:29:01.80</time>
<name>1590</name>
</trkpt>
<trkpt lat="49.181783" lon="11.705063">
<ele>492.1</ele>
<speed>19.2</speed>
<course>312.5</course>
<desc>Speed 19.2 km/h Distance 7.74 km</desc>
<time>2010-06-13T06:29:02.78</time>
<name>1591</name>
</trkpt>
<trkpt lat="49.181818" lon="11.705005">
<ele>491.7</ele>
<speed>19.8</speed>
<course>317.5</course>
<desc>Speed 19.8 km/h Distance 7.74 km</desc>
<time>2010-06-13T06:29:03.79</time>
<name>1592</name>
</trkpt>
<trkpt lat="49.181860" lon="11.704947">
<ele>491.5</ele>
<speed>20.3</speed>
<course>311.4</course>
<desc>Speed 20.3 km/h Distance 7.75 km</desc>
<time>2010-06-13T06:29:04.80</time>
<name>1593</name>
</trkpt>
<trkpt lat="49.181892" lon="11.704892">
<ele>491.8</ele>
<speed>19.3</speed>
<course>299.1</course>
<desc>Speed 19.3 km/h Distance 7.76 km</desc>
<time>2010-06-13T06:29:05.77</time>
<name>1594</name>
</trkpt>
<trkpt lat="49.181918" lon="11.704818">
<ele>491.9</ele>
<speed>18.1</speed>
<course>320.8</course>
<desc>Speed 18.1 km/h Distance 7.76 km</desc>
<time>2010-06-13T06:29:06.79</time>
<name>1595</name>
</trkpt>
<trkpt lat="49.181958" lon="11.704768">
<ele>492.1</ele>
<speed>19.3</speed>
<course>323.6</course>
<desc>Speed 19.3 km/h Distance 7.77 km</desc>
<time>2010-06-13T06:29:07.78</time>
<name>1596</name>
</trkpt>
<trkpt lat="49.182010" lon="11.704710">
<ele>492.3</ele>
<speed>20.2</speed>
<course>325.1</course>
<desc>Speed 20.2 km/h Distance 7.77 km</desc>
<time>2010-06-13T06:29:08.78</time>
<name>1597</name>
</trkpt>
<trkpt lat="49.182060" lon="11.704657">
<ele>492.1</ele>
<speed>19.8</speed>
<course>317.3</course>
<desc>Speed 19.8 km/h Distance 7.78 km</desc>
<time>2010-06-13T06:29:09.79</time>
<name>1598</name>
</trkpt>
<trkpt lat="49.182097" lon="11.704605">
<ele>492.5</ele>
<speed>18.3</speed>
<course>302.5</course>
<desc>Speed 18.3 km/h Distance 7.79 km</desc>
<time>2010-06-13T06:29:10.78</time>
<name>1599</name>
</trkpt>
<trkpt lat="49.182122" lon="11.704545">
<ele>492.9</ele>
<speed>19.4</speed>
<course>287.0</course>
<desc>Speed 19.4 km/h Distance 7.79 km</desc>
<time>2010-06-13T06:29:11.79</time>
<name>1600</name>
</trkpt>
<trkpt lat="49.182138" lon="11.704462">
<ele>494.3</ele>
<speed>21.1</speed>
<course>307.4</course>
<desc>Speed 21.1 km/h Distance 7.80 km</desc>
<time>2010-06-13T06:29:12.78</time>
<name>1601</name>
</trkpt>
<trkpt lat="49.182170" lon="11.704398">
<ele>494.3</ele>
<speed>23.0</speed>
<course>310.0</course>
<desc>Speed 23.0 km/h Distance 7.80 km</desc>
<time>2010-06-13T06:29:13.78</time>
<name>1602</name>
</trkpt>
<trkpt lat="49.182208" lon="11.704328">
<ele>494.4</ele>
<speed>23.7</speed>
<course>317.8</course>
<desc>Speed 23.7 km/h Distance 7.81 km</desc>
<time>2010-06-13T06:29:14.78</time>
<name>1603</name>
</trkpt>
<trkpt lat="49.182252" lon="11.704268">
<ele>494.8</ele>
<speed>22.6</speed>
<course>340.8</course>
<desc>Speed 22.6 km/h Distance 7.82 km</desc>
<time>2010-06-13T06:29:15.78</time>
<name>1604</name>
</trkpt>
<trkpt lat="49.182302" lon="11.704242">
<ele>493.8</ele>
<speed>21.0</speed>
<course>320.8</course>
<desc>Speed 21.0 km/h Distance 7.82 km</desc>
<time>2010-06-13T06:29:16.78</time>
<name>1605</name>
</trkpt>
<trkpt lat="49.182342" lon="11.704192">
<ele>494.3</ele>
<speed>21.5</speed>
<course>318.9</course>
<desc>Speed 21.5 km/h Distance 7.83 km</desc>
<time>2010-06-13T06:29:17.77</time>
<name>1606</name>
</trkpt>
<trkpt lat="49.182387" lon="11.704132">
<ele>495.1</ele>
<speed>22.0</speed>
<course>313.4</course>
<desc>Speed 22.0 km/h Distance 7.84 km</desc>
<time>2010-06-13T06:29:18.79</time>
<name>1607</name>
</trkpt>
<trkpt lat="49.182430" lon="11.704062">
<ele>496.3</ele>
<speed>22.0</speed>
<course>330.3</course>
<desc>Speed 22.0 km/h Distance 7.84 km</desc>
<time>2010-06-13T06:29:19.78</time>
<name>1608</name>
</trkpt>
<trkpt lat="49.182482" lon="11.704017">
<ele>496.3</ele>
<speed>21.9</speed>
<course>331.7</course>
<desc>Speed 21.9 km/h Distance 7.85 km</desc>
<time>2010-06-13T06:29:20.79</time>
<name>1609</name>
</trkpt>
<trkpt lat="49.182538" lon="11.703970">
<ele>496.9</ele>
<speed>23.7</speed>
<course>335.0</course>
<desc>Speed 23.7 km/h Distance 7.86 km</desc>
<time>2010-06-13T06:29:21.77</time>
<name>1610</name>
</trkpt>
<trkpt lat="49.182597" lon="11.703928">
<ele>498.1</ele>
<speed>23.8</speed>
<course>336.2</course>
<desc>Speed 23.8 km/h Distance 7.86 km</desc>
<time>2010-06-13T06:29:22.78</time>
<name>1611</name>
</trkpt>
<trkpt lat="49.182658" lon="11.703887">
<ele>498.4</ele>
<speed>24.5</speed>
<course>340.7</course>
<desc>Speed 24.5 km/h Distance 7.87 km</desc>
<time>2010-06-13T06:29:23.79</time>
<name>1612</name>
</trkpt>
<trkpt lat="49.182727" lon="11.703850">
<ele>498.2</ele>
<speed>24.3</speed>
<course>319.2</course>
<desc>Speed 24.3 km/h Distance 7.88 km</desc>
<time>2010-06-13T06:29:24.78</time>
<name>1613</name>
</trkpt>
<trkpt lat="49.182768" lon="11.703795">
<ele>499.0</ele>
<speed>22.9</speed>
<course>318.9</course>
<desc>Speed 22.9 km/h Distance 7.89 km</desc>
<time>2010-06-13T06:29:25.77</time>
<name>1614</name>
</trkpt>
<trkpt lat="49.182813" lon="11.703735">
<ele>499.1</ele>
<speed>23.4</speed>
<course>315.6</course>
<desc>Speed 23.4 km/h Distance 7.89 km</desc>
<time>2010-06-13T06:29:26.78</time>
<name>1615</name>
</trkpt>
<trkpt lat="49.182850" lon="11.703680">
<ele>499.4</ele>
<speed>21.7</speed>
<course>322.2</course>
<desc>Speed 21.7 km/h Distance 7.90 km</desc>
<time>2010-06-13T06:29:27.77</time>
<name>1616</name>
</trkpt>
<trkpt lat="49.182895" lon="11.703627">
<ele>498.3</ele>
<speed>22.0</speed>
<course>318.7</course>
<desc>Speed 22.0 km/h Distance 7.90 km</desc>
<time>2010-06-13T06:29:28.77</time>
<name>1617</name>
</trkpt>
<trkpt lat="49.182938" lon="11.703568">
<ele>496.1</ele>
<speed>22.4</speed>
<course>329.4</course>
<desc>Speed 22.4 km/h Distance 7.91 km</desc>
<time>2010-06-13T06:29:29.78</time>
<name>1618</name>
</trkpt>
<trkpt lat="49.182992" lon="11.703520">
<ele>493.8</ele>
<speed>23.2</speed>
<course>325.1</course>
<desc>Speed 23.2 km/h Distance 7.92 km</desc>
<time>2010-06-13T06:29:30.78</time>
<name>1619</name>
</trkpt>
<trkpt lat="49.183042" lon="11.703467">
<ele>493.9</ele>
<speed>22.8</speed>
<course>324.3</course>
<desc>Speed 22.8 km/h Distance 7.92 km</desc>
<time>2010-06-13T06:29:31.78</time>
<name>1620</name>
</trkpt>
<trkpt lat="49.183092" lon="11.703412">
<ele>493.5</ele>
<speed>22.4</speed>
<course>322.2</course>
<desc>Speed 22.4 km/h Distance 7.93 km</desc>
<time>2010-06-13T06:29:32.78</time>
<name>1621</name>
</trkpt>
<trkpt lat="49.183137" lon="11.703358">
<ele>493.6</ele>
<speed>23.0</speed>
<course>315.9</course>
<desc>Speed 23.0 km/h Distance 7.94 km</desc>
<time>2010-06-13T06:29:33.79</time>
<name>1622</name>
</trkpt>
<trkpt lat="49.183182" lon="11.703292">
<ele>492.9</ele>
<speed>22.8</speed>
<course>318.4</course>
<desc>Speed 22.8 km/h Distance 7.94 km</desc>
<time>2010-06-13T06:29:34.78</time>
<name>1623</name>
</trkpt>
<trkpt lat="49.183228" lon="11.703228">
<ele>492.6</ele>
<speed>23.5</speed>
<course>315.6</course>
<desc>Speed 23.5 km/h Distance 7.95 km</desc>
<time>2010-06-13T06:29:35.79</time>
<name>1624</name>
</trkpt>
<trkpt lat="49.183268" lon="11.703168">
<ele>491.8</ele>
<speed>23.5</speed>
<course>299.8</course>
<desc>Speed 23.5 km/h Distance 7.96 km</desc>
<time>2010-06-13T06:29:36.78</time>
<name>1625</name>
</trkpt>
<trkpt lat="49.183298" lon="11.703088">
<ele>493.3</ele>
<speed>22.1</speed>
<course>310.6</course>
<desc>Speed 22.1 km/h Distance 7.96 km</desc>
<time>2010-06-13T06:29:37.79</time>
<name>1626</name>
</trkpt>
<trkpt lat="49.183337" lon="11.703020">
<ele>494.1</ele>
<speed>22.4</speed>
<course>318.0</course>
<desc>Speed 22.4 km/h Distance 7.97 km</desc>
<time>2010-06-13T06:29:38.78</time>
<name>1627</name>
</trkpt>
<trkpt lat="49.183385" lon="11.702953">
<ele>494.6</ele>
<speed>22.9</speed>
<course>315.2</course>
<desc>Speed 22.9 km/h Distance 7.98 km</desc>
<time>2010-06-13T06:29:39.78</time>
<name>1628</name>
</trkpt>
<trkpt lat="49.183430" lon="11.702885">
<ele>494.4</ele>
<speed>21.7</speed>
<course>306.8</course>
<desc>Speed 21.7 km/h Distance 7.98 km</desc>
<time>2010-06-13T06:29:40.77</time>
<name>1629</name>
</trkpt>
<trkpt lat="49.183465" lon="11.702813">
<ele>494.4</ele>
<speed>19.7</speed>
<course>320.2</course>
<desc>Speed 19.7 km/h Distance 7.99 km</desc>
<time>2010-06-13T06:29:41.79</time>
<name>1630</name>
</trkpt>
<trkpt lat="49.183502" lon="11.702767">
<ele>493.9</ele>
<speed>18.5</speed>
<course>310.4</course>
<desc>Speed 18.5 km/h Distance 8.00 km</desc>
<time>2010-06-13T06:29:42.79</time>
<name>1631</name>
</trkpt>
<trkpt lat="49.183535" lon="11.702707">
<ele>496.5</ele>
<speed>20.2</speed>
<course>320.8</course>
<desc>Speed 20.2 km/h Distance 8.00 km</desc>
<time>2010-06-13T06:29:43.79</time>
<name>1632</name>
</trkpt>
<trkpt lat="49.183582" lon="11.702648">
<ele>498.6</ele>
<speed>21.6</speed>
<course>312.0</course>
<desc>Speed 21.6 km/h Distance 8.01 km</desc>
<time>2010-06-13T06:29:44.77</time>
<name>1633</name>
</trkpt>
<trkpt lat="49.183615" lon="11.702592">
<ele>499.9</ele>
<speed>19.7</speed>
<course>316.0</course>
<desc>Speed 19.7 km/h Distance 8.01 km</desc>
<time>2010-06-13T06:29:45.78</time>
<name>1634</name>
</trkpt>
<trkpt lat="49.183650" lon="11.702540">
<ele>500.9</ele>
<speed>19.0</speed>
<course>320.7</course>
<desc>Speed 19.0 km/h Distance 8.02 km</desc>
<time>2010-06-13T06:29:46.79</time>
<name>1635</name>
</trkpt>
<trkpt lat="49.183690" lon="11.702490">
<ele>502.6</ele>
<speed>19.8</speed>
<course>321.7</course>
<desc>Speed 19.8 km/h Distance 8.03 km</desc>
<time>2010-06-13T06:29:47.78</time>
<name>1636</name>
</trkpt>
<trkpt lat="49.183738" lon="11.702432">
<ele>502.7</ele>
<speed>21.6</speed>
<course>322.4</course>
<desc>Speed 21.6 km/h Distance 8.03 km</desc>
<time>2010-06-13T06:29:48.78</time>
<name>1637</name>
</trkpt>
<trkpt lat="49.183785" lon="11.702377">
<ele>503.2</ele>
<speed>22.0</speed>
<course>311.0</course>
<desc>Speed 22.0 km/h Distance 8.04 km</desc>
<time>2010-06-13T06:29:49.79</time>
<name>1638</name>
</trkpt>
<trkpt lat="49.183820" lon="11.702315">
<ele>502.5</ele>
<speed>21.4</speed>
<course>296.5</course>
<desc>Speed 21.4 km/h Distance 8.05 km</desc>
<time>2010-06-13T06:29:50.79</time>
<name>1639</name>
</trkpt>
<trkpt lat="49.183845" lon="11.702238">
<ele>504.1</ele>
<speed>21.5</speed>
<course>317.4</course>
<desc>Speed 21.5 km/h Distance 8.05 km</desc>
<time>2010-06-13T06:29:51.79</time>
<name>1640</name>
</trkpt>
<trkpt lat="49.183890" lon="11.702175">
<ele>505.5</ele>
<speed>20.7</speed>
<course>318.1</course>
<desc>Speed 20.7 km/h Distance 8.06 km</desc>
<time>2010-06-13T06:29:52.78</time>
<name>1641</name>
</trkpt>
<trkpt lat="49.183930" lon="11.702120">
<ele>506.4</ele>
<speed>19.7</speed>
<course>324.1</course>
<desc>Speed 19.7 km/h Distance 8.06 km</desc>
<time>2010-06-13T06:29:53.78</time>
<name>1642</name>
</trkpt>
<trkpt lat="49.183977" lon="11.702068">
<ele>507.5</ele>
<speed>20.4</speed>
<course>325.0</course>
<desc>Speed 20.4 km/h Distance 8.07 km</desc>
<time>2010-06-13T06:29:54.78</time>
<name>1643</name>
</trkpt>
<trkpt lat="49.184023" lon="11.702018">
<ele>507.2</ele>
<speed>20.0</speed>
<course>316.4</course>
<desc>Speed 20.0 km/h Distance 8.08 km</desc>
<time>2010-06-13T06:29:55.79</time>
<name>1644</name>
</trkpt>
<trkpt lat="49.184060" lon="11.701965">
<ele>507.4</ele>
<speed>20.2</speed>
<course>317.9</course>
<desc>Speed 20.2 km/h Distance 8.08 km</desc>
<time>2010-06-13T06:29:56.78</time>
<name>1645</name>
</trkpt>
<trkpt lat="49.184095" lon="11.701917">
<ele>505.5</ele>
<speed>20.7</speed>
<course>321.7</course>
<desc>Speed 20.7 km/h Distance 8.09 km</desc>
<time>2010-06-13T06:29:57.79</time>
<name>1646</name>
</trkpt>
<trkpt lat="49.184135" lon="11.701868">
<ele>505.1</ele>
<speed>20.1</speed>
<course>313.7</course>
<desc>Speed 20.1 km/h Distance 8.09 km</desc>
<time>2010-06-13T06:29:58.80</time>
<name>1647</name>
</trkpt>
<trkpt lat="49.184168" lon="11.701815">
<ele>504.9</ele>
<speed>19.2</speed>
<course>311.6</course>
<desc>Speed 19.2 km/h Distance 8.10 km</desc>
<time>2010-06-13T06:29:59.77</time>
<name>1648</name>
</trkpt>
<trkpt lat="49.184198" lon="11.701763">
<ele>504.3</ele>
<speed>19.5</speed>
<course>308.2</course>
<desc>Speed 19.5 km/h Distance 8.10 km</desc>
<time>2010-06-13T06:30:00.78</time>
<name>1649</name>
</trkpt>
<trkpt lat="49.184227" lon="11.701708">
<ele>503.5</ele>
<speed>19.8</speed>
<course>317.0</course>
<desc>Speed 19.8 km/h Distance 8.11 km</desc>
<time>2010-06-13T06:30:01.79</time>
<name>1650</name>
</trkpt>
<trkpt lat="49.184262" lon="11.701658">
<ele>502.6</ele>
<speed>18.7</speed>
<course>316.0</course>
<desc>Speed 18.7 km/h Distance 8.11 km</desc>
<time>2010-06-13T06:30:02.77</time>
<name>1651</name>
</trkpt>
<trkpt lat="49.184297" lon="11.701607">
<ele>501.8</ele>
<speed>19.3</speed>
<course>302.5</course>
<desc>Speed 19.3 km/h Distance 8.12 km</desc>
<time>2010-06-13T06:30:03.81</time>
<name>1652</name>
</trkpt>
<trkpt lat="49.184322" lon="11.701547">
<ele>501.6</ele>
<speed>20.4</speed>
<course>306.7</course>
<desc>Speed 20.4 km/h Distance 8.12 km</desc>
<time>2010-06-13T06:30:04.78</time>
<name>1653</name>
</trkpt>
<trkpt lat="49.184352" lon="11.701485">
<ele>501.5</ele>
<speed>20.1</speed>
<course>309.7</course>
<desc>Speed 20.1 km/h Distance 8.13 km</desc>
<time>2010-06-13T06:30:05.78</time>
<name>1654</name>
</trkpt>
<trkpt lat="49.184383" lon="11.701427">
<ele>501.4</ele>
<speed>19.2</speed>
<course>313.9</course>
<desc>Speed 19.2 km/h Distance 8.14 km</desc>
<time>2010-06-13T06:30:06.79</time>
<name>1655</name>
</trkpt>
<trkpt lat="49.184420" lon="11.701368">
<ele>500.7</ele>
<speed>18.8</speed>
<course>321.7</course>
<desc>Speed 18.8 km/h Distance 8.14 km</desc>
<time>2010-06-13T06:30:07.78</time>
<name>1656</name>
</trkpt>
<trkpt lat="49.184460" lon="11.701320">
<ele>500.8</ele>
<speed>19.0</speed>
<course>328.8</course>
<desc>Speed 19.0 km/h Distance 8.15 km</desc>
<time>2010-06-13T06:30:08.78</time>
<name>1657</name>
</trkpt>
<trkpt lat="49.184505" lon="11.701278">
<ele>500.8</ele>
<speed>18.6</speed>
<course>320.7</course>
<desc>Speed 18.6 km/h Distance 8.15 km</desc>
<time>2010-06-13T06:30:09.77</time>
<name>1658</name>
</trkpt>
<trkpt lat="49.184538" lon="11.701237">
<ele>500.5</ele>
<speed>18.1</speed>
<course>330.9</course>
<desc>Speed 18.1 km/h Distance 8.16 km</desc>
<time>2010-06-13T06:30:10.78</time>
<name>1659</name>
</trkpt>
<trkpt lat="49.184583" lon="11.701198">
<ele>500.6</ele>
<speed>17.9</speed>
<course>337.5</course>
<desc>Speed 17.9 km/h Distance 8.16 km</desc>
<time>2010-06-13T06:30:11.78</time>
<name>1660</name>
</trkpt>
<trkpt lat="49.184633" lon="11.701167">
<ele>500.9</ele>
<speed>19.3</speed>
<course>338.6</course>
<desc>Speed 19.3 km/h Distance 8.17 km</desc>
<time>2010-06-13T06:30:12.78</time>
<name>1661</name>
</trkpt>
<trkpt lat="49.184683" lon="11.701137">
<ele>501.6</ele>
<speed>18.2</speed>
<course>338.4</course>
<desc>Speed 18.2 km/h Distance 8.18 km</desc>
<time>2010-06-13T06:30:13.78</time>
<name>1662</name>
</trkpt>
<trkpt lat="49.184730" lon="11.701108">
<ele>502.7</ele>
<speed>16.7</speed>
<course>336.4</course>
<desc>Speed 16.7 km/h Distance 8.18 km</desc>
<time>2010-06-13T06:30:14.78</time>
<name>1663</name>
</trkpt>
<trkpt lat="49.184765" lon="11.701085">
<ele>503.0</ele>
<speed>14.8</speed>
<course>333.4</course>
<desc>Speed 14.8 km/h Distance 8.19 km</desc>
<time>2010-06-13T06:30:15.78</time>
<name>1664</name>
</trkpt>
<trkpt lat="49.184787" lon="11.701068">
<ele>503.7</ele>
<speed>11.5</speed>
<course>340.9</course>
<desc>Speed 11.5 km/h Distance 8.19 km</desc>
<time>2010-06-13T06:30:16.78</time>
<name>1665</name>
</trkpt>
<trkpt lat="49.184812" lon="11.701055">
<ele>503.6</ele>
<speed>10.2</speed>
<course>333.9</course>
<desc>Speed 10.2 km/h Distance 8.19 km</desc>
<time>2010-06-13T06:30:17.78</time>
<name>1666</name>
</trkpt>
<trkpt lat="49.184832" lon="11.701040">
<ele>504.2</ele>
<speed>10.5</speed>
<course>320.0</course>
<desc>Speed 10.5 km/h Distance 8.19 km</desc>
<time>2010-06-13T06:30:18.78</time>
<name>1667</name>
</trkpt>
<trkpt lat="49.184843" lon="11.701025">
<ele>504.9</ele>
<speed>9.2</speed>
<course>317.5</course>
<desc>Speed 9.2 km/h Distance 8.20 km</desc>
<time>2010-06-13T06:30:19.78</time>
<name>1668</name>
</trkpt>
<trkpt lat="49.184860" lon="11.701002">
<ele>505.2</ele>
<speed>9.4</speed>
<course>326.8</course>
<desc>Speed 9.4 km/h Distance 8.20 km</desc>
<time>2010-06-13T06:30:20.78</time>
<name>1669</name>
</trkpt>
<trkpt lat="49.184882" lon="11.700980">
<ele>505.7</ele>
<speed>11.1</speed>
<course>335.4</course>
<desc>Speed 11.1 km/h Distance 8.20 km</desc>
<time>2010-06-13T06:30:21.79</time>
<name>1670</name>
</trkpt>
<trkpt lat="49.184915" lon="11.700957">
<ele>505.9</ele>
<speed>13.6</speed>
<course>340.3</course>
<desc>Speed 13.6 km/h Distance 8.21 km</desc>
<time>2010-06-13T06:30:22.79</time>
<name>1671</name>
</trkpt>
<trkpt lat="49.184948" lon="11.700938">
<ele>505.9</ele>
<speed>13.4</speed>
<course>335.0</course>
<desc>Speed 13.4 km/h Distance 8.21 km</desc>
<time>2010-06-13T06:30:23.79</time>
<name>1672</name>
</trkpt>
<trkpt lat="49.184972" lon="11.700922">
<ele>505.3</ele>
<speed>11.5</speed>
<course>338.9</course>
<desc>Speed 11.5 km/h Distance 8.21 km</desc>
<time>2010-06-13T06:30:24.80</time>
<name>1673</name>
</trkpt>
<trkpt lat="49.185000" lon="11.700905">
<ele>504.9</ele>
<speed>10.8</speed>
<course>331.7</course>
<desc>Speed 10.8 km/h Distance 8.22 km</desc>
<time>2010-06-13T06:30:25.80</time>
<name>1674</name>
</trkpt>
<trkpt lat="49.185028" lon="11.700882">
<ele>505.0</ele>
<speed>10.8</speed>
<course>315.6</course>
<desc>Speed 10.8 km/h Distance 8.22 km</desc>
<time>2010-06-13T06:30:26.77</time>
<name>1675</name>
</trkpt>
<trkpt lat="49.185045" lon="11.700857">
<ele>504.1</ele>
<speed>11.7</speed>
<course>326.8</course>
<desc>Speed 11.7 km/h Distance 8.22 km</desc>
<time>2010-06-13T06:30:27.78</time>
<name>1676</name>
</trkpt>
<trkpt lat="49.185068" lon="11.700833">
<ele>504.2</ele>
<speed>12.4</speed>
<course>323.0</course>
<desc>Speed 12.4 km/h Distance 8.22 km</desc>
<time>2010-06-13T06:30:28.78</time>
<name>1677</name>
</trkpt>
<trkpt lat="49.185090" lon="11.700808">
<ele>505.1</ele>
<speed>12.8</speed>
<course>326.9</course>
<desc>Speed 12.8 km/h Distance 8.23 km</desc>
<time>2010-06-13T06:30:29.77</time>
<name>1678</name>
</trkpt>
<trkpt lat="49.185115" lon="11.700783">
<ele>506.1</ele>
<speed>12.9</speed>
<course>325.1</course>
<desc>Speed 12.9 km/h Distance 8.23 km</desc>
<time>2010-06-13T06:30:30.79</time>
<name>1679</name>
</trkpt>
<trkpt lat="49.185140" lon="11.700757">
<ele>507.0</ele>
<speed>11.8</speed>
<course>330.3</course>
<desc>Speed 11.8 km/h Distance 8.23 km</desc>
<time>2010-06-13T06:30:31.77</time>
<name>1680</name>
</trkpt>
<trkpt lat="49.185167" lon="11.700733">
<ele>507.2</ele>
<speed>13.2</speed>
<course>332.4</course>
<desc>Speed 13.2 km/h Distance 8.24 km</desc>
<time>2010-06-13T06:30:32.79</time>
<name>1681</name>
</trkpt>
<trkpt lat="49.185192" lon="11.700713">
<ele>507.3</ele>
<speed>11.3</speed>
<course>343.6</course>
<desc>Speed 11.3 km/h Distance 8.24 km</desc>
<time>2010-06-13T06:30:33.79</time>
<name>1682</name>
</trkpt>
<trkpt lat="49.185225" lon="11.700698">
<ele>506.6</ele>
<speed>11.8</speed>
<course>342.0</course>
<desc>Speed 11.8 km/h Distance 8.24 km</desc>
<time>2010-06-13T06:30:34.78</time>
<name>1683</name>
</trkpt>
<trkpt lat="49.185258" lon="11.700682">
<ele>506.2</ele>
<speed>13.6</speed>
<course>341.0</course>
<desc>Speed 13.6 km/h Distance 8.25 km</desc>
<time>2010-06-13T06:30:35.78</time>
<name>1684</name>
</trkpt>
<trkpt lat="49.185290" lon="11.700665">
<ele>507.2</ele>
<speed>14.1</speed>
<course>347.2</course>
<desc>Speed 14.1 km/h Distance 8.25 km</desc>
<time>2010-06-13T06:30:36.77</time>
<name>1685</name>
</trkpt>
<trkpt lat="49.185333" lon="11.700650">
<ele>507.1</ele>
<speed>14.4</speed>
<course>331.7</course>
<desc>Speed 14.4 km/h Distance 8.26 km</desc>
<time>2010-06-13T06:30:37.78</time>
<name>1686</name>
</trkpt>
<trkpt lat="49.185362" lon="11.700627">
<ele>506.6</ele>
<speed>13.2</speed>
<course>325.4</course>
<desc>Speed 13.2 km/h Distance 8.26 km</desc>
<time>2010-06-13T06:30:38.77</time>
<name>1687</name>
</trkpt>
<trkpt lat="49.185392" lon="11.700595">
<ele>506.7</ele>
<speed>13.5</speed>
<course>328.2</course>
<desc>Speed 13.5 km/h Distance 8.26 km</desc>
<time>2010-06-13T06:30:39.79</time>
<name>1688</name>
</trkpt>
<trkpt lat="49.185423" lon="11.700565">
<ele>506.8</ele>
<speed>13.2</speed>
<course>303.9</course>
<desc>Speed 13.2 km/h Distance 8.27 km</desc>
<time>2010-06-13T06:30:40.77</time>
<name>1689</name>
</trkpt>
<trkpt lat="49.185442" lon="11.700523">
<ele>506.7</ele>
<speed>13.0</speed>
<course>294.4</course>
<desc>Speed 13.0 km/h Distance 8.27 km</desc>
<time>2010-06-13T06:30:41.77</time>
<name>1690</name>
</trkpt>
<trkpt lat="49.185455" lon="11.700478">
<ele>506.3</ele>
<speed>12.6</speed>
<course>309.7</course>
<desc>Speed 12.6 km/h Distance 8.28 km</desc>
<time>2010-06-13T06:30:42.78</time>
<name>1691</name>
</trkpt>
<trkpt lat="49.185477" lon="11.700438">
<ele>507.6</ele>
<speed>12.6</speed>
<course>316.8</course>
<desc>Speed 12.6 km/h Distance 8.28 km</desc>
<time>2010-06-13T06:30:43.78</time>
<name>1692</name>
</trkpt>
<trkpt lat="49.185503" lon="11.700400">
<ele>509.6</ele>
<speed>13.6</speed>
<course>312.9</course>
<desc>Speed 13.6 km/h Distance 8.28 km</desc>
<time>2010-06-13T06:30:44.78</time>
<name>1693</name>
</trkpt>
<trkpt lat="49.185532" lon="11.700353">
<ele>510.8</ele>
<speed>14.5</speed>
<course>313.2</course>
<desc>Speed 14.5 km/h Distance 8.29 km</desc>
<time>2010-06-13T06:30:45.78</time>
<name>1694</name>
</trkpt>
<trkpt lat="49.185563" lon="11.700302">
<ele>511.1</ele>
<speed>14.7</speed>
<course>324.2</course>
<desc>Speed 14.7 km/h Distance 8.29 km</desc>
<time>2010-06-13T06:30:46.77</time>
<name>1695</name>
</trkpt>
<trkpt lat="49.185595" lon="11.700267">
<ele>512.1</ele>
<speed>14.9</speed>
<course>326.8</course>
<desc>Speed 14.9 km/h Distance 8.30 km</desc>
<time>2010-06-13T06:30:47.78</time>
<name>1696</name>
</trkpt>
<trkpt lat="49.185630" lon="11.700232">
<ele>512.4</ele>
<speed>14.5</speed>
<course>324.8</course>
<desc>Speed 14.5 km/h Distance 8.30 km</desc>
<time>2010-06-13T06:30:48.77</time>
<name>1697</name>
</trkpt>
<trkpt lat="49.185652" lon="11.700208">
<ele>512.4</ele>
<speed>11.9</speed>
<course>340.0</course>
<desc>Speed 11.9 km/h Distance 8.31 km</desc>
<time>2010-06-13T06:30:49.77</time>
<name>1698</name>
</trkpt>
<trkpt lat="49.185682" lon="11.700192">
<ele>512.2</ele>
<speed>11.6</speed>
<course>323.0</course>
<desc>Speed 11.6 km/h Distance 8.31 km</desc>
<time>2010-06-13T06:30:50.77</time>
<name>1699</name>
</trkpt>
<trkpt lat="49.185703" lon="11.700167">
<ele>512.5</ele>
<speed>9.2</speed>
<course>351.2</course>
<desc>Speed 9.2 km/h Distance 8.31 km</desc>
<time>2010-06-13T06:30:51.77</time>
<name>1700</name>
</trkpt>
<trkpt lat="49.185732" lon="11.700160">
<ele>512.8</ele>
<speed>7.8</speed>
<course>354.7</course>
<desc>Speed 7.8 km/h Distance 8.32 km</desc>
<time>2010-06-13T06:30:52.78</time>
<name>1701</name>
</trkpt>
<trkpt lat="49.185767" lon="11.700155">
<ele>513.6</ele>
<speed>8.9</speed>
<course>8.1</course>
<desc>Speed 8.9 km/h Distance 8.32 km</desc>
<time>2010-06-13T06:30:53.78</time>
<name>1702</name>
</trkpt>
<trkpt lat="49.185790" lon="11.700160">
<ele>513.5</ele>
<speed>7.7</speed>
<course>7.7</course>
<desc>Speed 7.7 km/h Distance 8.32 km</desc>
<time>2010-06-13T06:30:54.78</time>
<name>1703</name>
</trkpt>
<trkpt lat="49.185807" lon="11.700163">
<ele>514.2</ele>
<speed>7.7</speed>
<course>347.7</course>
<desc>Speed 7.7 km/h Distance 8.32 km</desc>
<time>2010-06-13T06:30:55.79</time>
<name>1704</name>
</trkpt>
<trkpt lat="49.185832" lon="11.700155">
<ele>515.5</ele>
<speed>9.1</speed>
<course>284.3</course>
<desc>Speed 9.1 km/h Distance 8.33 km</desc>
<time>2010-06-13T06:30:56.78</time>
<name>1705</name>
</trkpt>
<trkpt lat="49.185837" lon="11.700125">
<ele>516.2</ele>
<speed>7.9</speed>
<course>345.1</course>
<desc>Speed 7.9 km/h Distance 8.33 km</desc>
<time>2010-06-13T06:30:57.77</time>
<name>1706</name>
</trkpt>
<trkpt lat="49.185845" lon="11.700122">
<ele>517.9</ele>
<speed>5.7</speed>
<course>345.4</course>
<desc>Speed 5.7 km/h Distance 8.33 km</desc>
<time>2010-06-13T06:30:58.77</time>
<name>1707</name>
</trkpt>
<trkpt lat="49.185870" lon="11.700112">
<ele>518.0</ele>
<speed>7.6</speed>
<course>10.0</course>
<desc>Speed 7.6 km/h Distance 8.33 km</desc>
<time>2010-06-13T06:30:59.78</time>
<name>1708</name>
</trkpt>
<trkpt lat="49.185895" lon="11.700118">
<ele>518.6</ele>
<speed>6.0</speed>
<course>287.0</course>
<desc>Speed 6.0 km/h Distance 8.34 km</desc>
<time>2010-06-13T06:31:00.78</time>
<name>1709</name>
</trkpt>
<trkpt lat="49.185898" lon="11.700102">
<ele>519.9</ele>
<speed>4.5</speed>
<course>294.2</course>
<desc>Speed 4.5 km/h Distance 8.34 km</desc>
<time>2010-06-13T06:31:01.79</time>
<name>1710</name>
</trkpt>
<trkpt lat="49.185923" lon="11.700017">
<ele>524.9</ele>
<speed>7.3</speed>
<course>305.1</course>
<desc>Speed 7.3 km/h Distance 8.34 km</desc>
<time>2010-06-13T06:31:03.78</time>
<name>1711</name>
</trkpt>
<trkpt lat="49.185933" lon="11.699995">
<ele>527.1</ele>
<speed>5.4</speed>
<course>326.8</course>
<desc>Speed 5.4 km/h Distance 8.35 km</desc>
<time>2010-06-13T06:31:04.77</time>
<name>1712</name>
</trkpt>
<trkpt lat="49.186003" lon="11.699925">
<ele>527.3</ele>
<speed>11.9</speed>
<course>325.2</course>
<desc>Speed 11.9 km/h Distance 8.36 km</desc>
<time>2010-06-13T06:31:06.78</time>
<name>1713</name>
</trkpt>
<trkpt lat="49.186030" lon="11.699897">
<ele>525.1</ele>
<speed>13.2</speed>
<course>354.3</course>
<desc>Speed 13.2 km/h Distance 8.36 km</desc>
<time>2010-06-13T06:31:07.79</time>
<name>1714</name>
</trkpt>
<trkpt lat="49.186073" lon="11.699890">
<ele>523.1</ele>
<speed>10.9</speed>
<course>329.7</course>
<desc>Speed 10.9 km/h Distance 8.36 km</desc>
<time>2010-06-13T06:31:08.77</time>
<name>1715</name>
</trkpt>
<trkpt lat="49.186105" lon="11.699862">
<ele>521.9</ele>
<speed>9.9</speed>
<course>295.2</course>
<desc>Speed 9.9 km/h Distance 8.37 km</desc>
<time>2010-06-13T06:31:09.77</time>
<name>1716</name>
</trkpt>
<trkpt lat="49.186118" lon="11.699818">
<ele>522.1</ele>
<speed>8.6</speed>
<course>338.0</course>
<desc>Speed 8.6 km/h Distance 8.37 km</desc>
<time>2010-06-13T06:31:10.77</time>
<name>1717</name>
</trkpt>
<trkpt lat="49.186210" lon="11.699762">
<ele>523.5</ele>
<speed>14.0</speed>
<course>340.6</course>
<desc>Speed 14.0 km/h Distance 8.38 km</desc>
<time>2010-06-13T06:31:12.77</time>
<name>1718</name>
</trkpt>
<trkpt lat="49.186318" lon="11.699703">
<ele>521.8</ele>
<speed>13.6</speed>
<course>349.9</course>
<desc>Speed 13.6 km/h Distance 8.39 km</desc>
<time>2010-06-13T06:31:14.78</time>
<name>1719</name>
</trkpt>
<trkpt lat="49.186348" lon="11.699695">
<ele>520.2</ele>
<speed>10.2</speed>
<course>339.3</course>
<desc>Speed 10.2 km/h Distance 8.40 km</desc>
<time>2010-06-13T06:31:15.79</time>
<name>1720</name>
</trkpt>
<trkpt lat="49.186380" lon="11.699677">
<ele>519.3</ele>
<speed>8.5</speed>
<course>348.6</course>
<desc>Speed 8.5 km/h Distance 8.40 km</desc>
<time>2010-06-13T06:31:16.78</time>
<name>1721</name>
</trkpt>
<trkpt lat="49.186467" lon="11.699650">
<ele>516.6</ele>
<speed>11.8</speed>
<course>293.6</course>
<desc>Speed 11.8 km/h Distance 8.41 km</desc>
<time>2010-06-13T06:31:18.78</time>
<name>1722</name>
</trkpt>
<trkpt lat="49.186483" lon="11.699592">
<ele>515.4</ele>
<speed>12.9</speed>
<course>312.8</course>
<desc>Speed 12.9 km/h Distance 8.42 km</desc>
<time>2010-06-13T06:31:19.78</time>
<name>1723</name>
</trkpt>
<trkpt lat="49.186550" lon="11.699482">
<ele>513.9</ele>
<speed>11.6</speed>
<course>301.9</course>
<desc>Speed 11.6 km/h Distance 8.43 km</desc>
<time>2010-06-13T06:31:21.78</time>
<name>1724</name>
</trkpt>
<trkpt lat="49.186572" lon="11.699428">
<ele>515.0</ele>
<speed>11.2</speed>
<course>280.2</course>
<desc>Speed 11.2 km/h Distance 8.43 km</desc>
<time>2010-06-13T06:31:22.78</time>
<name>1725</name>
</trkpt>
<trkpt lat="49.186578" lon="11.699372">
<ele>514.8</ele>
<speed>11.6</speed>
<course>325.1</course>
<desc>Speed 11.6 km/h Distance 8.44 km</desc>
<time>2010-06-13T06:31:23.77</time>
<name>1726</name>
</trkpt>
<trkpt lat="49.186603" lon="11.699345">
<ele>515.8</ele>
<speed>11.0</speed>
<course>323.6</course>
<desc>Speed 11.0 km/h Distance 8.44 km</desc>
<time>2010-06-13T06:31:24.78</time>
<name>1727</name>
</trkpt>
<trkpt lat="49.186617" lon="11.699330">
<ele>517.6</ele>
<speed>8.4</speed>
<course>326.9</course>
<desc>Speed 8.4 km/h Distance 8.44 km</desc>
<time>2010-06-13T06:31:25.78</time>
<name>1728</name>
</trkpt>
<trkpt lat="49.186632" lon="11.699315">
<ele>518.7</ele>
<speed>6.5</speed>
<course>288.8</course>
<desc>Speed 6.5 km/h Distance 8.44 km</desc>
<time>2010-06-13T06:31:26.77</time>
<name>1729</name>
</trkpt>
<trkpt lat="49.186642" lon="11.699270">
<ele>519.9</ele>
<speed>8.2</speed>
<course>330.1</course>
<desc>Speed 8.2 km/h Distance 8.45 km</desc>
<time>2010-06-13T06:31:27.78</time>
<name>1730</name>
</trkpt>
<trkpt lat="49.186670" lon="11.699245">
<ele>519.0</ele>
<speed>7.6</speed>
<course>344.4</course>
<desc>Speed 7.6 km/h Distance 8.45 km</desc>
<time>2010-06-13T06:31:28.77</time>
<name>1731</name>
</trkpt>
<trkpt lat="49.186705" lon="11.699230">
<ele>517.7</ele>
<speed>9.0</speed>
<course>345.4</course>
<desc>Speed 9.0 km/h Distance 8.45 km</desc>
<time>2010-06-13T06:31:29.79</time>
<name>1732</name>
</trkpt>
<trkpt lat="49.186722" lon="11.699223">
<ele>517.5</ele>
<speed>7.7</speed>
<course>339.2</course>
<desc>Speed 7.7 km/h Distance 8.46 km</desc>
<time>2010-06-13T06:31:30.78</time>
<name>1733</name>
</trkpt>
<trkpt lat="49.186742" lon="11.699212">
<ele>517.9</ele>
<speed>7.4</speed>
<course>341.9</course>
<desc>Speed 7.4 km/h Distance 8.46 km</desc>
<time>2010-06-13T06:31:31.78</time>
<name>1734</name>
</trkpt>
<trkpt lat="49.186768" lon="11.699198">
<ele>518.4</ele>
<speed>7.9</speed>
<course>2.7</course>
<desc>Speed 7.9 km/h Distance 8.46 km</desc>
<time>2010-06-13T06:31:32.77</time>
<name>1735</name>
</trkpt>
<trkpt lat="49.186788" lon="11.699200">
<ele>518.4</ele>
<speed>7.2</speed>
<course>317.5</course>
<desc>Speed 7.2 km/h Distance 8.46 km</desc>
<time>2010-06-13T06:31:33.78</time>
<name>1736</name>
</trkpt>
<trkpt lat="49.186805" lon="11.699177">
<ele>517.3</ele>
<speed>7.0</speed>
<course>328.9</course>
<desc>Speed 7.0 km/h Distance 8.47 km</desc>
<time>2010-06-13T06:31:34.77</time>
<name>1737</name>
</trkpt>
<trkpt lat="49.186827" lon="11.699157">
<ele>520.0</ele>
<speed>6.5</speed>
<course>342.8</course>
<desc>Speed 6.5 km/h Distance 8.47 km</desc>
<time>2010-06-13T06:31:35.78</time>
<name>1738</name>
</trkpt>
<trkpt lat="49.186858" lon="11.699142">
<ele>521.4</ele>
<speed>6.8</speed>
<course>4.9</course>
<desc>Speed 6.8 km/h Distance 8.47 km</desc>
<time>2010-06-13T06:31:36.77</time>
<name>1739</name>
</trkpt>
<trkpt lat="49.186922" lon="11.699150">
<ele>520.9</ele>
<speed>7.0</speed>
<course>320.4</course>
<desc>Speed 7.0 km/h Distance 8.48 km</desc>
<time>2010-06-13T06:31:38.77</time>
<name>1740</name>
</trkpt>
<trkpt lat="49.186947" lon="11.699118">
<ele>520.9</ele>
<speed>8.0</speed>
<course>316.2</course>
<desc>Speed 8.0 km/h Distance 8.48 km</desc>
<time>2010-06-13T06:31:39.78</time>
<name>1741</name>
</trkpt>
<trkpt lat="49.186972" lon="11.699082">
<ele>521.0</ele>
<speed>8.1</speed>
<course>286.5</course>
<desc>Speed 8.1 km/h Distance 8.49 km</desc>
<time>2010-06-13T06:31:40.78</time>
<name>1742</name>
</trkpt>
<trkpt lat="49.186982" lon="11.699030">
<ele>523.7</ele>
<speed>5.4</speed>
<course>322.3</course>
<desc>Speed 5.4 km/h Distance 8.49 km</desc>
<time>2010-06-13T06:31:41.78</time>
<name>1743</name>
</trkpt>
<trkpt lat="49.187000" lon="11.699008">
<ele>523.9</ele>
<speed>3.4</speed>
<course>324.5</course>
<desc>Speed 3.4 km/h Distance 8.49 km</desc>
<time>2010-06-13T06:31:42.78</time>
<name>1744</name>
</trkpt>
<trkpt lat="49.187018" lon="11.698988">
<ele>524.4</ele>
<speed>5.2</speed>
<course>41.1</course>
<desc>Speed 5.2 km/h Distance 8.50 km</desc>
<time>2010-06-13T06:31:43.78</time>
<name>1745</name>
</trkpt>
<trkpt lat="49.187038" lon="11.699015">
<ele>525.0</ele>
<speed>3.7</speed>
<course>22.7</course>
<desc>Speed 3.7 km/h Distance 8.50 km</desc>
<time>2010-06-13T06:31:44.79</time>
<name>1746</name>
</trkpt>
<trkpt lat="49.187057" lon="11.699027">
<ele>528.2</ele>
<speed>5.4</speed>
<course>4.7</course>
<desc>Speed 5.4 km/h Distance 8.50 km</desc>
<time>2010-06-13T06:31:45.77</time>
<name>1747</name>
</trkpt>
<trkpt lat="49.187068" lon="11.699028">
<ele>531.4</ele>
<speed>3.3</speed>
<course>97.9</course>
<desc>Speed 3.3 km/h Distance 8.50 km</desc>
<time>2010-06-13T06:31:46.77</time>
<name>1748</name>
</trkpt>
<trkpt lat="49.187067" lon="11.699047">
<ele>531.7</ele>
<speed>2.8</speed>
<course>111.1</course>
<desc>Speed 2.8 km/h Distance 8.50 km</desc>
<time>2010-06-13T06:31:47.77</time>
<name>1749</name>
</trkpt>
<trkpt lat="49.187063" lon="11.699060">
<ele>533.8</ele>
<speed>2.7</speed>
<course>76.4</course>
<desc>Speed 2.7 km/h Distance 8.51 km</desc>
<time>2010-06-13T06:31:48.77</time>
<name>1750</name>
</trkpt>
<trkpt lat="49.187068" lon="11.699092">
<ele>533.5</ele>
<speed>2.7</speed>
<course>79.8</course>
<desc>Speed 2.7 km/h Distance 8.51 km</desc>
<time>2010-06-13T06:31:49.77</time>
<name>1751</name>
</trkpt>
<trkpt lat="49.187072" lon="11.699120">
<ele>533.2</ele>
<speed>2.6</speed>
<course>210.5</course>
<desc>Speed 2.6 km/h Distance 8.51 km</desc>
<time>2010-06-13T06:31:50.78</time>
<name>1752</name>
</trkpt>
<trkpt lat="49.187055" lon="11.699105">
<ele>535.4</ele>
<speed>1.1</speed>
<course>227.4</course>
<desc>Speed 1.1 km/h Distance 8.51 km</desc>
<time>2010-06-13T06:31:51.78</time>
<name>1753</name>
</trkpt>
<trkpt lat="49.187045" lon="11.699088">
<ele>537.8</ele>
<speed>2.0</speed>
<course>262.1</course>
<desc>Speed 2.0 km/h Distance 8.51 km</desc>
<time>2010-06-13T06:31:52.76</time>
<name>1754</name>
</trkpt>
<trkpt lat="49.187043" lon="11.699070">
<ele>538.7</ele>
<speed>1.4</speed>
<course>0.0</course>
<desc>Speed 1.4 km/h Distance 8.52 km</desc>
<time>2010-06-13T06:31:53.77</time>
<name>1755</name>
</trkpt>
<trkpt lat="49.187052" lon="11.699070">
<ele>539.0</ele>
<speed>0.5</speed>
<course>333.0</course>
<desc>Speed 0.5 km/h Distance 8.52 km</desc>
<time>2010-06-13T06:31:54.77</time>
<name>1756</name>
</trkpt>
<trkpt lat="49.187060" lon="11.699063">
<ele>539.3</ele>
<speed>2.2</speed>
<course>200.8</course>
<desc>Speed 2.2 km/h Distance 8.52 km</desc>
<time>2010-06-13T06:31:55.78</time>
<name>1757</name>
</trkpt>
<trkpt lat="49.187052" lon="11.699058">
<ele>539.9</ele>
<speed>2.1</speed>
<course>224.5</course>
<desc>Speed 2.1 km/h Distance 8.52 km</desc>
<time>2010-06-13T06:31:56.76</time>
<name>1758</name>
</trkpt>
<trkpt lat="49.187048" lon="11.699053">
<ele>541.6</ele>
<speed>0.6</speed>
<course>194.6</course>
<desc>Speed 0.6 km/h Distance 8.52 km</desc>
<time>2010-06-13T06:31:57.78</time>
<name>1759</name>
</trkpt>
<trkpt lat="49.187023" lon="11.699043">
<ele>546.4</ele>
<speed>3.1</speed>
<course>143.1</course>
<desc>Speed 3.1 km/h Distance 8.52 km</desc>
<time>2010-06-13T06:31:59.78</time>
<name>1760</name>
</trkpt>
<trkpt lat="49.186978" lon="11.699095">
<ele>544.7</ele>
<speed>7.0</speed>
<course>209.8</course>
<desc>Speed 7.0 km/h Distance 8.53 km</desc>
<time>2010-06-13T06:32:01.77</time>
<name>1761</name>
</trkpt>
<trkpt lat="49.186965" lon="11.699083">
<ele>540.7</ele>
<speed>7.1</speed>
<course>90.0</course>
<desc>Speed 7.1 km/h Distance 8.53 km</desc>
<time>2010-06-13T06:32:02.78</time>
<name>1762</name>
</trkpt>
<trkpt lat="49.186965" lon="11.699103">
<ele>540.7</ele>
<speed>5.8</speed>
<course>115.8</course>
<desc>Speed 5.8 km/h Distance 8.53 km</desc>
<time>2010-06-13T06:32:03.76</time>
<name>1763</name>
</trkpt>
<trkpt lat="49.186945" lon="11.699167">
<ele>530.9</ele>
<speed>6.1</speed>
<course>50.1</course>
<desc>Speed 6.1 km/h Distance 8.54 km</desc>
<time>2010-06-13T06:32:06.77</time>
<name>1764</name>
</trkpt>
<trkpt lat="49.186955" lon="11.699185">
<ele>529.7</ele>
<speed>6.0</speed>
<course>168.8</course>
<desc>Speed 6.0 km/h Distance 8.54 km</desc>
<time>2010-06-13T06:32:07.76</time>
<name>1765</name>
</trkpt>
<trkpt lat="49.186943" lon="11.699188">
<ele>528.1</ele>
<speed>6.0</speed>
<course>300.9</course>
<desc>Speed 6.0 km/h Distance 8.54 km</desc>
<time>2010-06-13T06:32:08.77</time>
<name>1766</name>
</trkpt>
<trkpt lat="49.186958" lon="11.699150">
<ele>527.9</ele>
<speed>2.6</speed>
<course>10.4</course>
<desc>Speed 2.6 km/h Distance 8.54 km</desc>
<time>2010-06-13T06:32:09.78</time>
<name>1767</name>
</trkpt>
<trkpt lat="49.186970" lon="11.699153">
<ele>528.1</ele>
<speed>1.2</speed>
<course>6.6</course>
<desc>Speed 1.2 km/h Distance 8.54 km</desc>
<time>2010-06-13T06:32:10.77</time>
<name>1768</name>
</trkpt>
<trkpt lat="49.187017" lon="11.699162">
<ele>530.5</ele>
<speed>3.4</speed>
<course>0.0</course>
<desc>Speed 3.4 km/h Distance 8.55 km</desc>
<time>2010-06-13T06:32:12.76</time>
<name>1769</name>
</trkpt>
<trkpt lat="49.187042" lon="11.699162">
<ele>531.5</ele>
<speed>4.4</speed>
<course>2.3</course>
<desc>Speed 4.4 km/h Distance 8.55 km</desc>
<time>2010-06-13T06:32:13.76</time>
<name>1770</name>
</trkpt>
<trkpt lat="49.187093" lon="11.699165">
<ele>530.4</ele>
<speed>5.5</speed>
<course>31.4</course>
<desc>Speed 5.5 km/h Distance 8.56 km</desc>
<time>2010-06-13T06:32:15.77</time>
<name>1771</name>
</trkpt>
<trkpt lat="49.187118" lon="11.699188">
<ele>528.7</ele>
<speed>6.0</speed>
<course>11.7</course>
<desc>Speed 6.0 km/h Distance 8.56 km</desc>
<time>2010-06-13T06:32:16.77</time>
<name>1772</name>
</trkpt>
<trkpt lat="49.187133" lon="11.699193">
<ele>530.5</ele>
<speed>4.7</speed>
<course>342.0</course>
<desc>Speed 4.7 km/h Distance 8.56 km</desc>
<time>2010-06-13T06:32:17.77</time>
<name>1773</name>
</trkpt>
<trkpt lat="49.187157" lon="11.699182">
<ele>532.7</ele>
<speed>4.2</speed>
<course>63.0</course>
<desc>Speed 4.2 km/h Distance 8.57 km</desc>
<time>2010-06-13T06:32:18.77</time>
<name>1774</name>
</trkpt>
<trkpt lat="49.187160" lon="11.699192">
<ele>532.9</ele>
<speed>4.4</speed>
<course>12.3</course>
<desc>Speed 4.4 km/h Distance 8.57 km</desc>
<time>2010-06-13T06:32:19.77</time>
<name>1775</name>
</trkpt>
<trkpt lat="49.187185" lon="11.699200">
<ele>533.1</ele>
<speed>5.7</speed>
<course>3.8</course>
<desc>Speed 5.7 km/h Distance 8.57 km</desc>
<time>2010-06-13T06:32:20.78</time>
<name>1776</name>
</trkpt>
<trkpt lat="49.187200" lon="11.699202">
<ele>535.9</ele>
<speed>4.8</speed>
<course>312.6</course>
<desc>Speed 4.8 km/h Distance 8.57 km</desc>
<time>2010-06-13T06:32:21.76</time>
<name>1777</name>
</trkpt>
<trkpt lat="49.187205" lon="11.699193">
<ele>535.4</ele>
<speed>4.6</speed>
<course>0.0</course>
<desc>Speed 4.6 km/h Distance 8.57 km</desc>
<time>2010-06-13T06:32:22.77</time>
<name>1778</name>
</trkpt>
<trkpt lat="49.187213" lon="11.699193">
<ele>533.6</ele>
<speed>4.3</speed>
<course>237.2</course>
<desc>Speed 4.3 km/h Distance 8.57 km</desc>
<time>2010-06-13T06:32:23.76</time>
<name>1779</name>
</trkpt>
<trkpt lat="49.187200" lon="11.699162">
<ele>537.5</ele>
<speed>1.7</speed>
<course>53.2</course>
<desc>Speed 1.7 km/h Distance 8.58 km</desc>
<time>2010-06-13T06:32:24.78</time>
<name>1780</name>
</trkpt>
<trkpt lat="49.187235" lon="11.699233">
<ele>534.8</ele>
<speed>3.7</speed>
<course>3.5</course>
<desc>Speed 3.7 km/h Distance 8.58 km</desc>
<time>2010-06-13T06:32:26.76</time>
<name>1781</name>
</trkpt>
<trkpt lat="49.187287" lon="11.699238">
<ele>532.4</ele>
<speed>5.8</speed>
<course>354.8</course>
<desc>Speed 5.8 km/h Distance 8.59 km</desc>
<time>2010-06-13T06:32:28.78</time>
<name>1782</name>
</trkpt>
<trkpt lat="49.187310" lon="11.699235">
<ele>531.5</ele>
<speed>5.7</speed>
<course>292.7</course>
<desc>Speed 5.7 km/h Distance 8.59 km</desc>
<time>2010-06-13T06:32:29.79</time>
<name>1783</name>
</trkpt>
<trkpt lat="49.187320" lon="11.699198">
<ele>532.2</ele>
<speed>6.4</speed>
<course>337.4</course>
<desc>Speed 6.4 km/h Distance 8.59 km</desc>
<time>2010-06-13T06:32:30.76</time>
<name>1784</name>
</trkpt>
<trkpt lat="49.187338" lon="11.699187">
<ele>532.7</ele>
<speed>5.7</speed>
<course>16.3</course>
<desc>Speed 5.7 km/h Distance 8.60 km</desc>
<time>2010-06-13T06:32:31.77</time>
<name>1785</name>
</trkpt>
<trkpt lat="49.187353" lon="11.699193">
<ele>533.3</ele>
<speed>5.5</speed>
<course>301.4</course>
<desc>Speed 5.5 km/h Distance 8.60 km</desc>
<time>2010-06-13T06:32:32.77</time>
<name>1786</name>
</trkpt>
<trkpt lat="49.187357" lon="11.699185">
<ele>538.8</ele>
<speed>5.1</speed>
<course>90.0</course>
<desc>Speed 5.1 km/h Distance 8.60 km</desc>
<time>2010-06-13T06:32:33.77</time>
<name>1787</name>
</trkpt>
<trkpt lat="49.187357" lon="11.699200">
<ele>537.1</ele>
<speed>3.3</speed>
<course>77.7</course>
<desc>Speed 3.3 km/h Distance 8.60 km</desc>
<time>2010-06-13T06:32:34.77</time>
<name>1788</name>
</trkpt>
<trkpt lat="49.187370" lon="11.699293">
<ele>530.6</ele>
<speed>4.0</speed>
<course>192.2</course>
<desc>Speed 4.0 km/h Distance 8.61 km</desc>
<time>2010-06-13T06:32:36.78</time>
<name>1789</name>
</trkpt>
<trkpt lat="49.187355" lon="11.699288">
<ele>527.2</ele>
<speed>1.8</speed>
<course>236.2</course>
<desc>Speed 1.8 km/h Distance 8.61 km</desc>
<time>2010-06-13T06:32:37.77</time>
<name>1790</name>
</trkpt>
<trkpt lat="49.187343" lon="11.699262">
<ele>528.7</ele>
<speed>0.6</speed>
<course>227.1</course>
<desc>Speed 0.6 km/h Distance 8.61 km</desc>
<time>2010-06-13T06:32:38.77</time>
<name>1791</name>
</trkpt>
<trkpt lat="49.187320" lon="11.699223">
<ele>534.4</ele>
<speed>0.4</speed>
<course>79.2</course>
<desc>Speed 0.4 km/h Distance 8.61 km</desc>
<time>2010-06-13T06:32:40.77</time>
<name>1792</name>
</trkpt>
<trkpt lat="49.187323" lon="11.699250">
<ele>531.4</ele>
<speed>1.9</speed>
<course>90.0</course>
<desc>Speed 1.9 km/h Distance 8.62 km</desc>
<time>2010-06-13T06:32:41.77</time>
<name>1793</name>
</trkpt>
<trkpt lat="49.187323" lon="11.699257">
<ele>533.7</ele>
<speed>2.5</speed>
<course>184.4</course>
<desc>Speed 2.5 km/h Distance 8.62 km</desc>
<time>2010-06-13T06:32:42.78</time>
<name>1794</name>
</trkpt>
<trkpt lat="49.187313" lon="11.699255">
<ele>535.7</ele>
<speed>1.7</speed>
<course>270.0</course>
<desc>Speed 1.7 km/h Distance 8.62 km</desc>
<time>2010-06-13T06:32:43.76</time>
<name>1795</name>
</trkpt>
<trkpt lat="49.187313" lon="11.699243">
<ele>538.5</ele>
<speed>2.1</speed>
<course>33.2</course>
<desc>Speed 2.1 km/h Distance 8.62 km</desc>
<time>2010-06-13T06:32:44.77</time>
<name>1796</name>
</trkpt>
<trkpt lat="49.187327" lon="11.699257">
<ele>538.5</ele>
<speed>2.9</speed>
<course>83.8</course>
<desc>Speed 2.9 km/h Distance 8.62 km</desc>
<time>2010-06-13T06:32:45.77</time>
<name>1797</name>
</trkpt>
<trkpt lat="49.187328" lon="11.699280">
<ele>539.8</ele>
<speed>3.0</speed>
<course>46.7</course>
<desc>Speed 3.0 km/h Distance 8.62 km</desc>
<time>2010-06-13T06:32:46.76</time>
<name>1798</name>
</trkpt>
<trkpt lat="49.187342" lon="11.699302">
<ele>539.9</ele>
<speed>3.2</speed>
<course>56.7</course>
<desc>Speed 3.2 km/h Distance 8.62 km</desc>
<time>2010-06-13T06:32:47.76</time>
<name>1799</name>
</trkpt>
<trkpt lat="49.187352" lon="11.699325">
<ele>537.4</ele>
<speed>4.2</speed>
<course>32.6</course>
<desc>Speed 4.2 km/h Distance 8.63 km</desc>
<time>2010-06-13T06:32:48.76</time>
<name>1800</name>
</trkpt>
<trkpt lat="49.187358" lon="11.699332">
<ele>537.4</ele>
<speed>4.1</speed>
<course>75.7</course>
<desc>Speed 4.1 km/h Distance 8.63 km</desc>
<time>2010-06-13T06:32:49.78</time>
<name>1801</name>
</trkpt>
<trkpt lat="49.187362" lon="11.699352">
<ele>537.2</ele>
<speed>3.3</speed>
<course>90.0</course>
<desc>Speed 3.3 km/h Distance 8.63 km</desc>
<time>2010-06-13T06:32:50.77</time>
<name>1802</name>
</trkpt>
<trkpt lat="49.187362" lon="11.699365">
<ele>538.8</ele>
<speed>2.4</speed>
<course>90.0</course>
<desc>Speed 2.4 km/h Distance 8.63 km</desc>
<time>2010-06-13T06:32:51.77</time>
<name>1803</name>
</trkpt>
<trkpt lat="49.187362" lon="11.699380">
<ele>540.4</ele>
<speed>1.5</speed>
<course>8.1</course>
<desc>Speed 1.5 km/h Distance 8.63 km</desc>
<time>2010-06-13T06:32:52.77</time>
<name>1804</name>
</trkpt>
<trkpt lat="49.187377" lon="11.699383">
<ele>541.7</ele>
<speed>2.8</speed>
<course>319.1</course>
<desc>Speed 2.8 km/h Distance 8.63 km</desc>
<time>2010-06-13T06:32:53.78</time>
<name>1805</name>
</trkpt>
<trkpt lat="49.187382" lon="11.699377">
<ele>542.2</ele>
<speed>1.5</speed>
<course>15.5</course>
<desc>Speed 1.5 km/h Distance 8.63 km</desc>
<time>2010-06-13T06:32:54.78</time>
<name>1806</name>
</trkpt>
<trkpt lat="49.187393" lon="11.699382">
<ele>543.6</ele>
<speed>2.3</speed>
<course>249.1</course>
<desc>Speed 2.3 km/h Distance 8.63 km</desc>
<time>2010-06-13T06:32:55.77</time>
<name>1807</name>
</trkpt>
<trkpt lat="49.187392" lon="11.699375">
<ele>545.1</ele>
<speed>1.2</speed>
<course>162.5</course>
<desc>Speed 1.2 km/h Distance 8.63 km</desc>
<time>2010-06-13T06:32:56.77</time>
<name>1808</name>
</trkpt>
<trkpt lat="49.187385" lon="11.699378">
<ele>546.5</ele>
<speed>1.0</speed>
<course>108.9</course>
<desc>Speed 1.0 km/h Distance 8.64 km</desc>
<time>2010-06-13T06:32:57.77</time>
<name>1809</name>
</trkpt>
<trkpt lat="49.187382" lon="11.699393">
<ele>548.3</ele>
<speed>1.3</speed>
<course>68.9</course>
<desc>Speed 1.3 km/h Distance 8.64 km</desc>
<time>2010-06-13T06:32:58.77</time>
<name>1810</name>
</trkpt>
<trkpt lat="49.187385" lon="11.699407">
<ele>551.9</ele>
<speed>0.9</speed>
<course>348.3</course>
<desc>Speed 0.9 km/h Distance 8.64 km</desc>
<time>2010-06-13T06:32:59.77</time>
<name>1811</name>
</trkpt>
<trkpt lat="49.187400" lon="11.699402">
<ele>552.7</ele>
<speed>0.9</speed>
<course>102.3</course>
<desc>Speed 0.9 km/h Distance 8.64 km</desc>
<time>2010-06-13T06:33:00.77</time>
<name>1812</name>
</trkpt>
<trkpt lat="49.187398" lon="11.699413">
<ele>554.6</ele>
<speed>1.0</speed>
<course>161.2</course>
<desc>Speed 1.0 km/h Distance 8.64 km</desc>
<time>2010-06-13T06:33:01.77</time>
<name>1813</name>
</trkpt>
<trkpt lat="49.187395" lon="11.699415">
<ele>555.3</ele>
<speed>0.6</speed>
<course>154.6</course>
<desc>Speed 0.6 km/h Distance 8.64 km</desc>
<time>2010-06-13T06:33:02.78</time>
<name>1814</name>
</trkpt>
<trkpt lat="49.187390" lon="11.699418">
<ele>556.8</ele>
<speed>0.5</speed>
<course>134.2</course>
<desc>Speed 0.5 km/h Distance 8.64 km</desc>
<time>2010-06-13T06:33:03.78</time>
<name>1815</name>
</trkpt>
<trkpt lat="49.187378" lon="11.699437">
<ele>559.0</ele>
<speed>0.5</speed>
<course>121.1</course>
<desc>Speed 0.5 km/h Distance 8.64 km</desc>
<time>2010-06-13T06:33:04.76</time>
<name>1816</name>
</trkpt>
<trkpt lat="49.187375" lon="11.699445">
<ele>562.2</ele>
<speed>0.3</speed>
<course>327.4</course>
<desc>Speed 0.3 km/h Distance 8.64 km</desc>
<time>2010-06-13T06:33:05.77</time>
<name>1817</name>
</trkpt>
<trkpt lat="49.187382" lon="11.699438">
<ele>562.2</ele>
<speed>2.1</speed>
<course>314.2</course>
<desc>Speed 2.1 km/h Distance 8.64 km</desc>
<time>2010-06-13T06:33:06.77</time>
<name>1818</name>
</trkpt>
<trkpt lat="49.187393" lon="11.699420">
<ele>562.2</ele>
<speed>3.5</speed>
<course>249.1</course>
<desc>Speed 3.5 km/h Distance 8.65 km</desc>
<time>2010-06-13T06:33:07.77</time>
<name>1819</name>
</trkpt>
<trkpt lat="49.187392" lon="11.699413">
<ele>561.1</ele>
<speed>1.9</speed>
<course>232.4</course>
<desc>Speed 1.9 km/h Distance 8.65 km</desc>
<time>2010-06-13T06:33:08.77</time>
<name>1820</name>
</trkpt>
<trkpt lat="49.187387" lon="11.699403">
<ele>560.4</ele>
<speed>1.1</speed>
<course>270.0</course>
<desc>Speed 1.1 km/h Distance 8.65 km</desc>
<time>2010-06-13T06:33:09.76</time>
<name>1821</name>
</trkpt>
<trkpt lat="49.187387" lon="11.699393">
<ele>559.5</ele>
<speed>2.0</speed>
<course>0.0</course>
<desc>Speed 2.0 km/h Distance 8.65 km</desc>
<time>2010-06-13T06:33:10.77</time>
<name>1822</name>
</trkpt>
<trkpt lat="49.187400" lon="11.699393">
<ele>559.8</ele>
<speed>0.7</speed>
<course>36.5</course>
<desc>Speed 0.7 km/h Distance 8.65 km</desc>
<time>2010-06-13T06:33:11.77</time>
<name>1823</name>
</trkpt>
<trkpt lat="49.187425" lon="11.699422">
<ele>560.8</ele>
<speed>1.5</speed>
<course>66.4</course>
<desc>Speed 1.5 km/h Distance 8.65 km</desc>
<time>2010-06-13T06:33:13.76</time>
<name>1824</name>
</trkpt>
<trkpt lat="49.187432" lon="11.699445">
<ele>560.6</ele>
<speed>2.3</speed>
<course>80.4</course>
<desc>Speed 2.3 km/h Distance 8.66 km</desc>
<time>2010-06-13T06:33:14.76</time>
<name>1825</name>
</trkpt>
<trkpt lat="49.187433" lon="11.699460">
<ele>562.4</ele>
<speed>3.8</speed>
<course>50.8</course>
<desc>Speed 3.8 km/h Distance 8.66 km</desc>
<time>2010-06-13T06:33:15.78</time>
<name>1826</name>
</trkpt>
<trkpt lat="49.187447" lon="11.699485">
<ele>560.7</ele>
<speed>3.1</speed>
<course>63.0</course>
<desc>Speed 3.1 km/h Distance 8.66 km</desc>
<time>2010-06-13T06:33:16.77</time>
<name>1827</name>
</trkpt>
<trkpt lat="49.187457" lon="11.699515">
<ele>557.7</ele>
<speed>3.5</speed>
<course>9.5</course>
<desc>Speed 3.5 km/h Distance 8.66 km</desc>
<time>2010-06-13T06:33:17.77</time>
<name>1828</name>
</trkpt>
<trkpt lat="49.187477" lon="11.699520">
<ele>557.7</ele>
<speed>3.5</speed>
<course>52.6</course>
<desc>Speed 3.5 km/h Distance 8.66 km</desc>
<time>2010-06-13T06:33:18.77</time>
<name>1829</name>
</trkpt>
<trkpt lat="49.187517" lon="11.699600">
<ele>552.9</ele>
<speed>3.9</speed>
<course>135.5</course>
<desc>Speed 3.9 km/h Distance 8.67 km</desc>
<time>2010-06-13T06:33:20.76</time>
<name>1830</name>
</trkpt>
<trkpt lat="49.187513" lon="11.699605">
<ele>552.0</ele>
<speed>3.4</speed>
<course>307.6</course>
<desc>Speed 3.4 km/h Distance 8.67 km</desc>
<time>2010-06-13T06:33:21.76</time>
<name>1831</name>
</trkpt>
<trkpt lat="49.187520" lon="11.699592">
<ele>550.9</ele>
<speed>2.3</speed>
<course>38.1</course>
<desc>Speed 2.3 km/h Distance 8.67 km</desc>
<time>2010-06-13T06:33:22.77</time>
<name>1832</name>
</trkpt>
<trkpt lat="49.187528" lon="11.699602">
<ele>551.3</ele>
<speed>2.4</speed>
<course>319.9</course>
<desc>Speed 2.4 km/h Distance 8.67 km</desc>
<time>2010-06-13T06:33:23.77</time>
<name>1833</name>
</trkpt>
<trkpt lat="49.187540" lon="11.699587">
<ele>551.8</ele>
<speed>3.0</speed>
<course>52.6</course>
<desc>Speed 3.0 km/h Distance 8.68 km</desc>
<time>2010-06-13T06:33:24.77</time>
<name>1834</name>
</trkpt>
<trkpt lat="49.187547" lon="11.699600">
<ele>550.7</ele>
<speed>3.8</speed>
<course>25.5</course>
<desc>Speed 3.8 km/h Distance 8.68 km</desc>
<time>2010-06-13T06:33:25.76</time>
<name>1835</name>
</trkpt>
<trkpt lat="49.187565" lon="11.699613">
<ele>550.2</ele>
<speed>4.5</speed>
<course>14.0</course>
<desc>Speed 4.5 km/h Distance 8.68 km</desc>
<time>2010-06-13T06:33:26.78</time>
<name>1836</name>
</trkpt>
<trkpt lat="49.187578" lon="11.699618">
<ele>550.2</ele>
<speed>3.6</speed>
<course>346.8</course>
<desc>Speed 3.6 km/h Distance 8.68 km</desc>
<time>2010-06-13T06:33:27.76</time>
<name>1837</name>
</trkpt>
<trkpt lat="49.187602" lon="11.699610">
<ele>550.0</ele>
<speed>5.0</speed>
<course>7.4</course>
<desc>Speed 5.0 km/h Distance 8.68 km</desc>
<time>2010-06-13T06:33:28.76</time>
<name>1838</name>
</trkpt>
<trkpt lat="49.187608" lon="11.699610">
<ele>552.8</ele>
<speed>2.8</speed>
<course>79.2</course>
<desc>Speed 2.8 km/h Distance 8.68 km</desc>
<time>2010-06-13T06:33:29.77</time>
<name>1839</name>
</trkpt>
<trkpt lat="49.187612" lon="11.699637">
<ele>550.9</ele>
<speed>2.8</speed>
<course>144.0</course>
<desc>Speed 2.8 km/h Distance 8.69 km</desc>
<time>2010-06-13T06:33:30.78</time>
<name>1840</name>
</trkpt>
<trkpt lat="49.187597" lon="11.699653">
<ele>551.1</ele>
<speed>3.4</speed>
<course>63.0</course>
<desc>Speed 3.4 km/h Distance 8.69 km</desc>
<time>2010-06-13T06:33:31.76</time>
<name>1841</name>
</trkpt>
<trkpt lat="49.187607" lon="11.699683">
<ele>547.8</ele>
<speed>3.4</speed>
<course>52.6</course>
<desc>Speed 3.4 km/h Distance 8.69 km</desc>
<time>2010-06-13T06:33:32.77</time>
<name>1842</name>
</trkpt>
<trkpt lat="49.187615" lon="11.699700">
<ele>547.6</ele>
<speed>2.7</speed>
<course>65.8</course>
<desc>Speed 2.7 km/h Distance 8.69 km</desc>
<time>2010-06-13T06:33:33.76</time>
<name>1843</name>
</trkpt>
<trkpt lat="49.187623" lon="11.699728">
<ele>545.3</ele>
<speed>1.8</speed>
<course>9.7</course>
<desc>Speed 1.8 km/h Distance 8.69 km</desc>
<time>2010-06-13T06:33:34.76</time>
<name>1844</name>
</trkpt>
<trkpt lat="49.187637" lon="11.699732">
<ele>541.7</ele>
<speed>1.0</speed>
<course>346.8</course>
<desc>Speed 1.0 km/h Distance 8.70 km</desc>
<time>2010-06-13T06:33:35.78</time>
<name>1845</name>
</trkpt>
<trkpt lat="49.187660" lon="11.699723">
<ele>541.2</ele>
<speed>2.2</speed>
<course>311.8</course>
<desc>Speed 2.2 km/h Distance 8.70 km</desc>
<time>2010-06-13T06:33:37.76</time>
<name>1846</name>
</trkpt>
<trkpt lat="49.187672" lon="11.699703">
<ele>543.4</ele>
<speed>4.6</speed>
<course>349.6</course>
<desc>Speed 4.6 km/h Distance 8.70 km</desc>
<time>2010-06-13T06:33:38.77</time>
<name>1847</name>
</trkpt>
<trkpt lat="49.187695" lon="11.699697">
<ele>543.8</ele>
<speed>5.3</speed>
<course>321.4</course>
<desc>Speed 5.3 km/h Distance 8.70 km</desc>
<time>2010-06-13T06:33:39.78</time>
<name>1848</name>
</trkpt>
<trkpt lat="49.187710" lon="11.699678">
<ele>543.8</ele>
<speed>4.9</speed>
<course>338.1</course>
<desc>Speed 4.9 km/h Distance 8.70 km</desc>
<time>2010-06-13T06:33:40.77</time>
<name>1849</name>
</trkpt>
<trkpt lat="49.187732" lon="11.699665">
<ele>544.1</ele>
<speed>4.1</speed>
<course>278.3</course>
<desc>Speed 4.1 km/h Distance 8.71 km</desc>
<time>2010-06-13T06:33:41.77</time>
<name>1850</name>
</trkpt>
<trkpt lat="49.187735" lon="11.699630">
<ele>546.9</ele>
<speed>6.0</speed>
<course>307.4</course>
<desc>Speed 6.0 km/h Distance 8.71 km</desc>
<time>2010-06-13T06:33:42.77</time>
<name>1851</name>
</trkpt>
<trkpt lat="49.187743" lon="11.699613">
<ele>547.1</ele>
<speed>5.5</speed>
<course>322.3</course>
<desc>Speed 5.5 km/h Distance 8.71 km</desc>
<time>2010-06-13T06:33:43.78</time>
<name>1852</name>
</trkpt>
<trkpt lat="49.187762" lon="11.699592">
<ele>546.3</ele>
<speed>5.2</speed>
<course>347.4</course>
<desc>Speed 5.2 km/h Distance 8.71 km</desc>
<time>2010-06-13T06:33:44.76</time>
<name>1853</name>
</trkpt>
<trkpt lat="49.187782" lon="11.699585">
<ele>543.7</ele>
<speed>4.6</speed>
<course>340.5</course>
<desc>Speed 4.6 km/h Distance 8.72 km</desc>
<time>2010-06-13T06:33:45.76</time>
<name>1854</name>
</trkpt>
<trkpt lat="49.187803" lon="11.699573">
<ele>545.5</ele>
<speed>5.7</speed>
<course>342.0</course>
<desc>Speed 5.7 km/h Distance 8.72 km</desc>
<time>2010-06-13T06:33:46.76</time>
<name>1855</name>
</trkpt>
<trkpt lat="49.187823" lon="11.699563">
<ele>545.1</ele>
<speed>6.2</speed>
<course>333.0</course>
<desc>Speed 6.2 km/h Distance 8.72 km</desc>
<time>2010-06-13T06:33:47.76</time>
<name>1856</name>
</trkpt>
<trkpt lat="49.187892" lon="11.699510">
<ele>544.6</ele>
<speed>8.1</speed>
<course>316.6</course>
<desc>Speed 8.1 km/h Distance 8.73 km</desc>
<time>2010-06-13T06:33:49.77</time>
<name>1857</name>
</trkpt>
<trkpt lat="49.187907" lon="11.699488">
<ele>545.3</ele>
<speed>6.1</speed>
<course>311.1</course>
<desc>Speed 6.1 km/h Distance 8.73 km</desc>
<time>2010-06-13T06:33:50.78</time>
<name>1858</name>
</trkpt>
<trkpt lat="49.187920" lon="11.699465">
<ele>545.7</ele>
<speed>6.2</speed>
<course>309.3</course>
<desc>Speed 6.2 km/h Distance 8.73 km</desc>
<time>2010-06-13T06:33:51.77</time>
<name>1859</name>
</trkpt>
<trkpt lat="49.187933" lon="11.699440">
<ele>544.8</ele>
<speed>5.4</speed>
<course>315.6</course>
<desc>Speed 5.4 km/h Distance 8.74 km</desc>
<time>2010-06-13T06:33:52.76</time>
<name>1860</name>
</trkpt>
<trkpt lat="49.187947" lon="11.699420">
<ele>545.5</ele>
<speed>4.9</speed>
<course>5.0</course>
<desc>Speed 4.9 km/h Distance 8.74 km</desc>
<time>2010-06-13T06:33:53.78</time>
<name>1861</name>
</trkpt>
<trkpt lat="49.187962" lon="11.699422">
<ele>546.8</ele>
<speed>3.9</speed>
<course>314.2</course>
<desc>Speed 3.9 km/h Distance 8.74 km</desc>
<time>2010-06-13T06:33:54.77</time>
<name>1862</name>
</trkpt>
<trkpt lat="49.187973" lon="11.699403">
<ele>548.3</ele>
<speed>4.0</speed>
<course>14.9</course>
<desc>Speed 4.0 km/h Distance 8.74 km</desc>
<time>2010-06-13T06:33:55.77</time>
<name>1863</name>
</trkpt>
<trkpt lat="49.187982" lon="11.699407">
<ele>550.6</ele>
<speed>3.2</speed>
<course>279.1</course>
<desc>Speed 3.2 km/h Distance 8.74 km</desc>
<time>2010-06-13T06:33:56.77</time>
<name>1864</name>
</trkpt>
<trkpt lat="49.187985" lon="11.699375">
<ele>554.8</ele>
<speed>5.0</speed>
<course>286.5</course>
<desc>Speed 5.0 km/h Distance 8.75 km</desc>
<time>2010-06-13T06:33:57.76</time>
<name>1865</name>
</trkpt>
<trkpt lat="49.188005" lon="11.699272">
<ele>555.9</ele>
<speed>9.4</speed>
<course>310.1</course>
<desc>Speed 9.4 km/h Distance 8.75 km</desc>
<time>2010-06-13T06:33:59.77</time>
<name>1866</name>
</trkpt>
<trkpt lat="49.188023" lon="11.699238">
<ele>555.9</ele>
<speed>8.9</speed>
<course>293.9</course>
<desc>Speed 8.9 km/h Distance 8.76 km</desc>
<time>2010-06-13T06:34:00.76</time>
<name>1867</name>
</trkpt>
<trkpt lat="49.188038" lon="11.699187">
<ele>552.1</ele>
<speed>10.9</speed>
<course>303.9</course>
<desc>Speed 10.9 km/h Distance 8.76 km</desc>
<time>2010-06-13T06:34:01.77</time>
<name>1868</name>
</trkpt>
<trkpt lat="49.188087" lon="11.699077">
<ele>552.9</ele>
<speed>11.3</speed>
<course>314.2</course>
<desc>Speed 11.3 km/h Distance 8.77 km</desc>
<time>2010-06-13T06:34:03.76</time>
<name>1869</name>
</trkpt>
<trkpt lat="49.188110" lon="11.699040">
<ele>553.1</ele>
<speed>9.7</speed>
<course>304.5</course>
<desc>Speed 9.7 km/h Distance 8.77 km</desc>
<time>2010-06-13T06:34:04.77</time>
<name>1870</name>
</trkpt>
<trkpt lat="49.188155" lon="11.698940">
<ele>553.2</ele>
<speed>8.2</speed>
<course>319.4</course>
<desc>Speed 8.2 km/h Distance 8.78 km</desc>
<time>2010-06-13T06:34:06.76</time>
<name>1871</name>
</trkpt>
<trkpt lat="49.188182" lon="11.698905">
<ele>552.9</ele>
<speed>8.6</speed>
<course>318.1</course>
<desc>Speed 8.6 km/h Distance 8.79 km</desc>
<time>2010-06-13T06:34:07.77</time>
<name>1872</name>
</trkpt>
<trkpt lat="49.188253" lon="11.698807">
<ele>552.9</ele>
<speed>14.2</speed>
<course>290.4</course>
<desc>Speed 14.2 km/h Distance 8.80 km</desc>
<time>2010-06-13T06:34:09.76</time>
<name>1873</name>
</trkpt>
<trkpt lat="49.188267" lon="11.698752">
<ele>552.9</ele>
<speed>11.1</speed>
<course>312.6</course>
<desc>Speed 11.1 km/h Distance 8.80 km</desc>
<time>2010-06-13T06:34:10.76</time>
<name>1874</name>
</trkpt>
<trkpt lat="49.188287" lon="11.698718">
<ele>552.9</ele>
<speed>8.9</speed>
<course>337.9</course>
<desc>Speed 8.9 km/h Distance 8.81 km</desc>
<time>2010-06-13T06:34:11.77</time>
<name>1875</name>
</trkpt>
<trkpt lat="49.188348" lon="11.698680">
<ele>545.0</ele>
<speed>7.6</speed>
<course>337.7</course>
<desc>Speed 7.6 km/h Distance 8.81 km</desc>
<time>2010-06-13T06:34:13.76</time>
<name>1876</name>
</trkpt>
<trkpt lat="49.188420" lon="11.698635">
<ele>543.6</ele>
<speed>6.9</speed>
<course>342.8</course>
<desc>Speed 6.9 km/h Distance 8.82 km</desc>
<time>2010-06-13T06:34:15.76</time>
<name>1877</name>
</trkpt>
<trkpt lat="49.188452" lon="11.698620">
<ele>540.7</ele>
<speed>6.9</speed>
<course>351.7</course>
<desc>Speed 6.9 km/h Distance 8.82 km</desc>
<time>2010-06-13T06:34:16.77</time>
<name>1878</name>
</trkpt>
<trkpt lat="49.188482" lon="11.698613">
<ele>539.5</ele>
<speed>5.9</speed>
<course>349.8</course>
<desc>Speed 5.9 km/h Distance 8.83 km</desc>
<time>2010-06-13T06:34:17.78</time>
<name>1879</name>
</trkpt>
<trkpt lat="49.188512" lon="11.698605">
<ele>538.8</ele>
<speed>4.7</speed>
<course>358.4</course>
<desc>Speed 4.7 km/h Distance 8.83 km</desc>
<time>2010-06-13T06:34:18.76</time>
<name>1880</name>
</trkpt>
<trkpt lat="49.188595" lon="11.698602">
<ele>538.3</ele>
<speed>5.6</speed>
<course>21.5</course>
<desc>Speed 5.6 km/h Distance 8.84 km</desc>
<time>2010-06-13T06:34:20.76</time>
<name>1881</name>
</trkpt>
<trkpt lat="49.188620" lon="11.698617">
<ele>535.9</ele>
<speed>1.8</speed>
<course>20.3</course>
<desc>Speed 1.8 km/h Distance 8.84 km</desc>
<time>2010-06-13T06:34:21.76</time>
<name>1882</name>
</trkpt>
<trkpt lat="49.188670" lon="11.698645">
<ele>530.6</ele>
<speed>1.2</speed>
<course>4.7</course>
<desc>Speed 1.2 km/h Distance 8.85 km</desc>
<time>2010-06-13T06:34:23.77</time>
<name>1883</name>
</trkpt>
<trkpt lat="49.188682" lon="11.698647">
<ele>530.0</ele>
<speed>1.8</speed>
<course>270.0</course>
<desc>Speed 1.8 km/h Distance 8.85 km</desc>
<time>2010-06-13T06:34:24.76</time>
<name>1884</name>
</trkpt>
<trkpt lat="49.188682" lon="11.698645">
<ele>528.5</ele>
<speed>2.6</speed>
<course>7.4</course>
<desc>Speed 2.6 km/h Distance 8.85 km</desc>
<time>2010-06-13T06:34:25.76</time>
<name>1885</name>
</trkpt>
<trkpt lat="49.188688" lon="11.698647">
<ele>527.3</ele>
<speed>2.2</speed>
<course>0.0</course>
<desc>Speed 2.2 km/h Distance 8.85 km</desc>
<time>2010-06-13T06:34:26.78</time>
<name>1886</name>
</trkpt>
<trkpt lat="49.188693" lon="11.698647">
<ele>525.7</ele>
<speed>1.5</speed>
<course>131.2</course>
<desc>Speed 1.5 km/h Distance 8.85 km</desc>
<time>2010-06-13T06:34:27.77</time>
<name>1887</name>
</trkpt>
<trkpt lat="49.188680" lon="11.698670">
<ele>525.1</ele>
<speed>2.5</speed>
<course>182.8</course>
<desc>Speed 2.5 km/h Distance 8.85 km</desc>
<time>2010-06-13T06:34:28.78</time>
<name>1888</name>
</trkpt>
<trkpt lat="49.188663" lon="11.698668">
<ele>526.4</ele>
<speed>2.6</speed>
<course>183.9</course>
<desc>Speed 2.6 km/h Distance 8.86 km</desc>
<time>2010-06-13T06:34:29.78</time>
<name>1889</name>
</trkpt>
<trkpt lat="49.188650" lon="11.698667">
<ele>529.4</ele>
<speed>2.3</speed>
<course>146.8</course>
<desc>Speed 2.3 km/h Distance 8.86 km</desc>
<time>2010-06-13T06:34:30.77</time>
<name>1890</name>
</trkpt>
<trkpt lat="49.188642" lon="11.698675">
<ele>529.0</ele>
<speed>3.7</speed>
<course>140.6</course>
<desc>Speed 3.7 km/h Distance 8.86 km</desc>
<time>2010-06-13T06:34:31.77</time>
<name>1891</name>
</trkpt>
<trkpt lat="49.188635" lon="11.698683">
<ele>528.7</ele>
<speed>3.5</speed>
<course>131.3</course>
<desc>Speed 3.5 km/h Distance 8.86 km</desc>
<time>2010-06-13T06:34:32.77</time>
<name>1892</name>
</trkpt>
<trkpt lat="49.188628" lon="11.698695">
<ele>528.5</ele>
<speed>4.5</speed>
<course>120.0</course>
<desc>Speed 4.5 km/h Distance 8.86 km</desc>
<time>2010-06-13T06:34:33.77</time>
<name>1893</name>
</trkpt>
<trkpt lat="49.188623" lon="11.698708">
<ele>528.5</ele>
<speed>4.6</speed>
<course>90.0</course>
<desc>Speed 4.6 km/h Distance 8.86 km</desc>
<time>2010-06-13T06:34:34.76</time>
<name>1894</name>
</trkpt>
<trkpt lat="49.188623" lon="11.698725">
<ele>528.7</ele>
<speed>4.5</speed>
<course>147.7</course>
<desc>Speed 4.5 km/h Distance 8.86 km</desc>
<time>2010-06-13T06:34:35.76</time>
<name>1895</name>
</trkpt>
<trkpt lat="49.188618" lon="11.698730">
<ele>530.5</ele>
<speed>4.4</speed>
<course>127.0</course>
<desc>Speed 4.4 km/h Distance 8.86 km</desc>
<time>2010-06-13T06:34:36.76</time>
<name>1896</name>
</trkpt>
<trkpt lat="49.188615" lon="11.698737">
<ele>532.2</ele>
<speed>4.1</speed>
<course>156.3</course>
<desc>Speed 4.1 km/h Distance 8.87 km</desc>
<time>2010-06-13T06:34:37.76</time>
<name>1897</name>
</trkpt>
<trkpt lat="49.188600" lon="11.698747">
<ele>531.6</ele>
<speed>5.3</speed>
<course>163.3</course>
<desc>Speed 5.3 km/h Distance 8.87 km</desc>
<time>2010-06-13T06:34:38.76</time>
<name>1898</name>
</trkpt>
<trkpt lat="49.188578" lon="11.698757">
<ele>530.7</ele>
<speed>5.2</speed>
<course>162.1</course>
<desc>Speed 5.2 km/h Distance 8.87 km</desc>
<time>2010-06-13T06:34:39.77</time>
<name>1899</name>
</trkpt>
<trkpt lat="49.188562" lon="11.698765">
<ele>529.6</ele>
<speed>4.6</speed>
<course>137.5</course>
<desc>Speed 4.6 km/h Distance 8.87 km</desc>
<time>2010-06-13T06:34:40.78</time>
<name>1900</name>
</trkpt>
<trkpt lat="49.188553" lon="11.698777">
<ele>529.7</ele>
<speed>4.2</speed>
<course>210.3</course>
<desc>Speed 4.2 km/h Distance 8.87 km</desc>
<time>2010-06-13T06:34:41.76</time>
<name>1901</name>
</trkpt>
<trkpt lat="49.188538" lon="11.698763">
<ele>534.3</ele>
<speed>4.9</speed>
<course>194.8</course>
<desc>Speed 4.9 km/h Distance 8.87 km</desc>
<time>2010-06-13T06:34:42.77</time>
<name>1902</name>
</trkpt>
<trkpt lat="49.188513" lon="11.698753">
<ele>537.1</ele>
<speed>6.3</speed>
<course>173.4</course>
<desc>Speed 6.3 km/h Distance 8.88 km</desc>
<time>2010-06-13T06:34:43.76</time>
<name>1903</name>
</trkpt>
<trkpt lat="49.188503" lon="11.698755">
<ele>539.4</ele>
<speed>5.3</speed>
<course>112.7</course>
<desc>Speed 5.3 km/h Distance 8.88 km</desc>
<time>2010-06-13T06:34:44.76</time>
<name>1904</name>
</trkpt>
<trkpt lat="49.188498" lon="11.698773">
<ele>539.0</ele>
<speed>5.0</speed>
<course>121.5</course>
<desc>Speed 5.0 km/h Distance 8.88 km</desc>
<time>2010-06-13T06:34:45.76</time>
<name>1905</name>
</trkpt>
<trkpt lat="49.188492" lon="11.698790">
<ele>539.0</ele>
<speed>5.4</speed>
<course>101.5</course>
<desc>Speed 5.4 km/h Distance 8.88 km</desc>
<time>2010-06-13T06:34:46.77</time>
<name>1906</name>
</trkpt>
<trkpt lat="49.188488" lon="11.698815">
<ele>538.5</ele>
<speed>6.3</speed>
<course>98.7</course>
<desc>Speed 6.3 km/h Distance 8.88 km</desc>
<time>2010-06-13T06:34:47.77</time>
<name>1907</name>
</trkpt>
<trkpt lat="49.188487" lon="11.698832">
<ele>538.0</ele>
<speed>3.4</speed>
<course>40.9</course>
<desc>Speed 3.4 km/h Distance 8.88 km</desc>
<time>2010-06-13T06:34:48.77</time>
<name>1908</name>
</trkpt>
<trkpt lat="49.188492" lon="11.698838">
<ele>538.4</ele>
<speed>3.1</speed>
<course>51.9</course>
<desc>Speed 3.1 km/h Distance 8.89 km</desc>
<time>2010-06-13T06:34:49.76</time>
<name>1909</name>
</trkpt>
<trkpt lat="49.188493" lon="11.698842">
<ele>539.2</ele>
<speed>3.5</speed>
<course>82.1</course>
<desc>Speed 3.5 km/h Distance 8.89 km</desc>
<time>2010-06-13T06:34:50.77</time>
<name>1910</name>
</trkpt>
<trkpt lat="49.188495" lon="11.698860">
<ele>539.7</ele>
<speed>3.6</speed>
<course>78.5</course>
<desc>Speed 3.6 km/h Distance 8.89 km</desc>
<time>2010-06-13T06:34:51.77</time>
<name>1911</name>
</trkpt>
<trkpt lat="49.188498" lon="11.698885">
<ele>540.1</ele>
<speed>4.8</speed>
<course>90.0</course>
<desc>Speed 4.8 km/h Distance 8.89 km</desc>
<time>2010-06-13T06:34:52.76</time>
<name>1912</name>
</trkpt>
<trkpt lat="49.188498" lon="11.698913">
<ele>540.0</ele>
<speed>4.0</speed>
<course>32.3</course>
<desc>Speed 4.0 km/h Distance 8.89 km</desc>
<time>2010-06-13T06:34:53.77</time>
<name>1913</name>
</trkpt>
<trkpt lat="49.188503" lon="11.698918">
<ele>542.2</ele>
<speed>3.9</speed>
<course>90.0</course>
<desc>Speed 3.9 km/h Distance 8.89 km</desc>
<time>2010-06-13T06:34:54.76</time>
<name>1914</name>
</trkpt>
<trkpt lat="49.188503" lon="11.698932">
<ele>543.3</ele>
<speed>4.0</speed>
<course>48.9</course>
<desc>Speed 4.0 km/h Distance 8.89 km</desc>
<time>2010-06-13T06:34:55.78</time>
<name>1915</name>
</trkpt>
<trkpt lat="49.188510" lon="11.698943">
<ele>544.3</ele>
<speed>3.5</speed>
<course>217.2</course>
<desc>Speed 3.5 km/h Distance 8.89 km</desc>
<time>2010-06-13T06:34:56.77</time>
<name>1916</name>
</trkpt>
<trkpt lat="49.188508" lon="11.698942">
<ele>544.6</ele>
<speed>2.4</speed>
<course>104.2</course>
<desc>Speed 2.4 km/h Distance 8.89 km</desc>
<time>2010-06-13T06:34:57.76</time>
<name>1917</name>
</trkpt>
<trkpt lat="49.188507" lon="11.698952">
<ele>547.1</ele>
<speed>2.6</speed>
<course>66.5</course>
<desc>Speed 2.6 km/h Distance 8.89 km</desc>
<time>2010-06-13T06:34:58.78</time>
<name>1918</name>
</trkpt>
<trkpt lat="49.188510" lon="11.698963">
<ele>548.3</ele>
<speed>3.7</speed>
<course>98.7</course>
<desc>Speed 3.7 km/h Distance 8.90 km</desc>
<time>2010-06-13T06:34:59.75</time>
<name>1919</name>
</trkpt>
<trkpt lat="49.188508" lon="11.698980">
<ele>550.6</ele>
<speed>3.0</speed>
<course>126.1</course>
<desc>Speed 3.0 km/h Distance 8.90 km</desc>
<time>2010-06-13T06:35:00.76</time>
<name>1920</name>
</trkpt>
<trkpt lat="49.188507" lon="11.698983">
<ele>553.5</ele>
<speed>2.1</speed>
<course>127.0</course>
<desc>Speed 2.1 km/h Distance 8.90 km</desc>
<time>2010-06-13T06:35:01.77</time>
<name>1921</name>
</trkpt>
<trkpt lat="49.188503" lon="11.698990">
<ele>557.2</ele>
<speed>2.2</speed>
<course>39.4</course>
<desc>Speed 2.2 km/h Distance 8.90 km</desc>
<time>2010-06-13T06:35:02.76</time>
<name>1922</name>
</trkpt>
<trkpt lat="49.188510" lon="11.698998">
<ele>560.5</ele>
<speed>2.7</speed>
<course>348.8</course>
<desc>Speed 2.7 km/h Distance 8.90 km</desc>
<time>2010-06-13T06:35:03.76</time>
<name>1923</name>
</trkpt>
<trkpt lat="49.188522" lon="11.698995">
<ele>562.8</ele>
<speed>2.6</speed>
<course>310.3</course>
<desc>Speed 2.6 km/h Distance 8.90 km</desc>
<time>2010-06-13T06:35:04.76</time>
<name>1924</name>
</trkpt>
<trkpt lat="49.188530" lon="11.698980">
<ele>564.5</ele>
<speed>3.2</speed>
<course>293.6</course>
<desc>Speed 3.2 km/h Distance 8.90 km</desc>
<time>2010-06-13T06:35:05.76</time>
<name>1925</name>
</trkpt>
<trkpt lat="49.188533" lon="11.698968">
<ele>565.0</ele>
<speed>1.7</speed>
<course>64.7</course>
<desc>Speed 1.7 km/h Distance 8.90 km</desc>
<time>2010-06-13T06:35:06.78</time>
<name>1926</name>
</trkpt>
<trkpt lat="49.188540" lon="11.698990">
<ele>566.2</ele>
<speed>2.6</speed>
<course>82.1</course>
<desc>Speed 2.6 km/h Distance 8.90 km</desc>
<time>2010-06-13T06:35:07.76</time>
<name>1927</name>
</trkpt>
<trkpt lat="49.188542" lon="11.699008">
<ele>567.6</ele>
<speed>3.1</speed>
<course>58.2</course>
<desc>Speed 3.1 km/h Distance 8.91 km</desc>
<time>2010-06-13T06:35:08.77</time>
<name>1928</name>
</trkpt>
<trkpt lat="49.188545" lon="11.699017">
<ele>567.8</ele>
<speed>2.8</speed>
<course>96.2</course>
<desc>Speed 2.8 km/h Distance 8.91 km</desc>
<time>2010-06-13T06:35:09.76</time>
<name>1929</name>
</trkpt>
<trkpt lat="49.188543" lon="11.699040">
<ele>569.3</ele>
<speed>3.9</speed>
<course>82.1</course>
<desc>Speed 3.9 km/h Distance 8.91 km</desc>
<time>2010-06-13T06:35:10.76</time>
<name>1930</name>
</trkpt>
<trkpt lat="49.188545" lon="11.699058">
<ele>569.7</ele>
<speed>3.5</speed>
<course>56.7</course>
<desc>Speed 3.5 km/h Distance 8.91 km</desc>
<time>2010-06-13T06:35:11.78</time>
<name>1931</name>
</trkpt>
<trkpt lat="49.188550" lon="11.699070">
<ele>569.3</ele>
<speed>2.5</speed>
<course>69.0</course>
<desc>Speed 2.5 km/h Distance 8.91 km</desc>
<time>2010-06-13T06:35:12.78</time>
<name>1932</name>
</trkpt>
<trkpt lat="49.188555" lon="11.699090">
<ele>571.4</ele>
<speed>1.9</speed>
<course>56.2</course>
<desc>Speed 1.9 km/h Distance 8.91 km</desc>
<time>2010-06-13T06:35:13.76</time>
<name>1933</name>
</trkpt>
<trkpt lat="49.188567" lon="11.699117">
<ele>573.1</ele>
<speed>1.8</speed>
<course>60.9</course>
<desc>Speed 1.8 km/h Distance 8.91 km</desc>
<time>2010-06-13T06:35:14.77</time>
<name>1934</name>
</trkpt>
<trkpt lat="49.188573" lon="11.699135">
<ele>574.5</ele>
<speed>1.9</speed>
<course>76.7</course>
<desc>Speed 1.9 km/h Distance 8.92 km</desc>
<time>2010-06-13T06:35:15.77</time>
<name>1935</name>
</trkpt>
<trkpt lat="49.188577" lon="11.699157">
<ele>573.7</ele>
<speed>3.0</speed>
<course>84.5</course>
<desc>Speed 3.0 km/h Distance 8.92 km</desc>
<time>2010-06-13T06:35:16.75</time>
<name>1936</name>
</trkpt>
<trkpt lat="49.188578" lon="11.699183">
<ele>572.5</ele>
<speed>3.7</speed>
<course>60.1</course>
<desc>Speed 3.7 km/h Distance 8.92 km</desc>
<time>2010-06-13T06:35:17.76</time>
<name>1937</name>
</trkpt>
<trkpt lat="49.188583" lon="11.699197">
<ele>571.9</ele>
<speed>3.3</speed>
<course>82.7</course>
<desc>Speed 3.3 km/h Distance 8.92 km</desc>
<time>2010-06-13T06:35:18.77</time>
<name>1938</name>
</trkpt>
<trkpt lat="49.188585" lon="11.699217">
<ele>571.5</ele>
<speed>3.3</speed>
<course>65.8</course>
<desc>Speed 3.3 km/h Distance 8.92 km</desc>
<time>2010-06-13T06:35:19.75</time>
<name>1939</name>
</trkpt>
<trkpt lat="49.188593" lon="11.699245">
<ele>568.7</ele>
<speed>4.0</speed>
<course>79.2</course>
<desc>Speed 4.0 km/h Distance 8.92 km</desc>
<time>2010-06-13T06:35:20.76</time>
<name>1940</name>
</trkpt>
<trkpt lat="49.188597" lon="11.699272">
<ele>566.9</ele>
<speed>5.0</speed>
<course>71.2</course>
<desc>Speed 5.0 km/h Distance 8.93 km</desc>
<time>2010-06-13T06:35:21.76</time>
<name>1941</name>
</trkpt>
<trkpt lat="49.188603" lon="11.699302">
<ele>566.2</ele>
<speed>5.7</speed>
<course>97.9</course>
<desc>Speed 5.7 km/h Distance 8.93 km</desc>
<time>2010-06-13T06:35:22.76</time>
<name>1942</name>
</trkpt>
<trkpt lat="49.188602" lon="11.699320">
<ele>565.5</ele>
<speed>4.0</speed>
<course>67.8</course>
<desc>Speed 4.0 km/h Distance 8.93 km</desc>
<time>2010-06-13T06:35:23.76</time>
<name>1943</name>
</trkpt>
<trkpt lat="49.188608" lon="11.699345">
<ele>566.3</ele>
<speed>5.5</speed>
<course>48.2</course>
<desc>Speed 5.5 km/h Distance 8.93 km</desc>
<time>2010-06-13T06:35:24.78</time>
<name>1944</name>
</trkpt>
<trkpt lat="49.188620" lon="11.699365">
<ele>566.7</ele>
<speed>5.6</speed>
<course>50.2</course>
<desc>Speed 5.6 km/h Distance 8.93 km</desc>
<time>2010-06-13T06:35:25.77</time>
<name>1945</name>
</trkpt>
<trkpt lat="49.188630" lon="11.699383">
<ele>566.4</ele>
<speed>5.1</speed>
<course>75.7</course>
<desc>Speed 5.1 km/h Distance 8.94 km</desc>
<time>2010-06-13T06:35:26.75</time>
<name>1946</name>
</trkpt>
<trkpt lat="49.188635" lon="11.699413">
<ele>567.0</ele>
<speed>4.5</speed>
<course>90.0</course>
<desc>Speed 4.5 km/h Distance 8.94 km</desc>
<time>2010-06-13T06:35:27.77</time>
<name>1947</name>
</trkpt>
<trkpt lat="49.188635" lon="11.699440">
<ele>567.4</ele>
<speed>3.9</speed>
<course>27.2</course>
<desc>Speed 3.9 km/h Distance 8.94 km</desc>
<time>2010-06-13T06:35:28.76</time>
<name>1948</name>
</trkpt>
<trkpt lat="49.188650" lon="11.699452">
<ele>567.0</ele>
<speed>3.6</speed>
<course>82.7</course>
<desc>Speed 3.6 km/h Distance 8.94 km</desc>
<time>2010-06-13T06:35:29.75</time>
<name>1949</name>
</trkpt>
<trkpt lat="49.188652" lon="11.699472">
<ele>566.3</ele>
<speed>4.1</speed>
<course>27.5</course>
<desc>Speed 4.1 km/h Distance 8.94 km</desc>
<time>2010-06-13T06:35:30.77</time>
<name>1950</name>
</trkpt>
<trkpt lat="49.188660" lon="11.699478">
<ele>565.1</ele>
<speed>2.9</speed>
<course>33.1</course>
<desc>Speed 2.9 km/h Distance 8.94 km</desc>
<time>2010-06-13T06:35:31.78</time>
<name>1951</name>
</trkpt>
<trkpt lat="49.188672" lon="11.699490">
<ele>563.8</ele>
<speed>3.0</speed>
<course>63.0</course>
<desc>Speed 3.0 km/h Distance 8.95 km</desc>
<time>2010-06-13T06:35:32.76</time>
<name>1952</name>
</trkpt>
<trkpt lat="49.188677" lon="11.699505">
<ele>562.4</ele>
<speed>2.6</speed>
<course>90.0</course>
<desc>Speed 2.6 km/h Distance 8.95 km</desc>
<time>2010-06-13T06:35:33.76</time>
<name>1953</name>
</trkpt>
<trkpt lat="49.188677" lon="11.699533">
<ele>561.8</ele>
<speed>3.6</speed>
<course>95.1</course>
<desc>Speed 3.6 km/h Distance 8.95 km</desc>
<time>2010-06-13T06:35:34.77</time>
<name>1954</name>
</trkpt>
<trkpt lat="49.188675" lon="11.699562">
<ele>561.3</ele>
<speed>4.0</speed>
<course>85.1</course>
<desc>Speed 4.0 km/h Distance 8.95 km</desc>
<time>2010-06-13T06:35:35.76</time>
<name>1955</name>
</trkpt>
<trkpt lat="49.188677" lon="11.699592">
<ele>560.7</ele>
<speed>4.4</speed>
<course>94.6</course>
<desc>Speed 4.4 km/h Distance 8.95 km</desc>
<time>2010-06-13T06:35:36.77</time>
<name>1956</name>
</trkpt>
<trkpt lat="49.188675" lon="11.699623">
<ele>560.2</ele>
<speed>4.8</speed>
<course>74.5</course>
<desc>Speed 4.8 km/h Distance 8.96 km</desc>
<time>2010-06-13T06:35:37.76</time>
<name>1957</name>
</trkpt>
<trkpt lat="49.188678" lon="11.699642">
<ele>558.9</ele>
<speed>4.6</speed>
<course>213.2</course>
<desc>Speed 4.6 km/h Distance 8.96 km</desc>
<time>2010-06-13T06:35:38.77</time>
<name>1958</name>
</trkpt>
<trkpt lat="49.188673" lon="11.699637">
<ele>558.5</ele>
<speed>3.5</speed>
<course>139.1</course>
<desc>Speed 3.5 km/h Distance 8.96 km</desc>
<time>2010-06-13T06:35:39.76</time>
<name>1959</name>
</trkpt>
<trkpt lat="49.188663" lon="11.699650">
<ele>559.4</ele>
<speed>3.2</speed>
<course>0.0</course>
<desc>Speed 3.2 km/h Distance 8.96 km</desc>
<time>2010-06-13T06:35:40.77</time>
<name>1960</name>
</trkpt>
<trkpt lat="49.188667" lon="11.699652">
<ele>558.0</ele>
<speed>3.1</speed>
<course>33.2</course>
<desc>Speed 3.1 km/h Distance 8.96 km</desc>
<time>2010-06-13T06:35:41.77</time>
<name>1961</name>
</trkpt>
<trkpt lat="49.188680" lon="11.699665">
<ele>554.6</ele>
<speed>3.5</speed>
<course>61.3</course>
<desc>Speed 3.5 km/h Distance 8.96 km</desc>
<time>2010-06-13T06:35:42.76</time>
<name>1962</name>
</trkpt>
<trkpt lat="49.188688" lon="11.699688">
<ele>551.9</ele>
<speed>3.9</speed>
<course>69.0</course>
<desc>Speed 3.9 km/h Distance 8.96 km</desc>
<time>2010-06-13T06:35:43.77</time>
<name>1963</name>
</trkpt>
<trkpt lat="49.188693" lon="11.699708">
<ele>549.4</ele>
<speed>3.9</speed>
<course>83.3</course>
<desc>Speed 3.9 km/h Distance 8.96 km</desc>
<time>2010-06-13T06:35:44.77</time>
<name>1964</name>
</trkpt>
<trkpt lat="49.188695" lon="11.699730">
<ele>547.5</ele>
<speed>3.7</speed>
<course>74.4</course>
<desc>Speed 3.7 km/h Distance 8.97 km</desc>
<time>2010-06-13T06:35:45.76</time>
<name>1965</name>
</trkpt>
<trkpt lat="49.188698" lon="11.699748">
<ele>545.6</ele>
<speed>4.4</speed>
<course>118.6</course>
<desc>Speed 4.4 km/h Distance 8.97 km</desc>
<time>2010-06-13T06:35:46.75</time>
<name>1966</name>
</trkpt>
<trkpt lat="49.188690" lon="11.699772">
<ele>545.8</ele>
<speed>5.8</speed>
<course>94.2</course>
<desc>Speed 5.8 km/h Distance 8.97 km</desc>
<time>2010-06-13T06:35:47.77</time>
<name>1967</name>
</trkpt>
<trkpt lat="49.188688" lon="11.699807">
<ele>545.1</ele>
<speed>6.9</speed>
<course>90.0</course>
<desc>Speed 6.9 km/h Distance 8.97 km</desc>
<time>2010-06-13T06:35:48.76</time>
<name>1968</name>
</trkpt>
<trkpt lat="49.188688" lon="11.699838">
<ele>544.2</ele>
<speed>6.9</speed>
<course>72.2</course>
<desc>Speed 6.9 km/h Distance 8.97 km</desc>
<time>2010-06-13T06:35:49.76</time>
<name>1969</name>
</trkpt>
<trkpt lat="49.188695" lon="11.699870">
<ele>542.2</ele>
<speed>6.1</speed>
<course>61.3</course>
<desc>Speed 6.1 km/h Distance 8.98 km</desc>
<time>2010-06-13T06:35:50.76</time>
<name>1970</name>
</trkpt>
<trkpt lat="49.188703" lon="11.699893">
<ele>540.5</ele>
<speed>5.6</speed>
<course>85.6</course>
<desc>Speed 5.6 km/h Distance 8.98 km</desc>
<time>2010-06-13T06:35:51.76</time>
<name>1971</name>
</trkpt>
<trkpt lat="49.188705" lon="11.699927">
<ele>540.0</ele>
<speed>5.5</speed>
<course>97.6</course>
<desc>Speed 5.5 km/h Distance 8.98 km</desc>
<time>2010-06-13T06:35:52.75</time>
<name>1972</name>
</trkpt>
<trkpt lat="49.188702" lon="11.699965">
<ele>538.1</ele>
<speed>5.4</speed>
<course>137.4</course>
<desc>Speed 5.4 km/h Distance 8.98 km</desc>
<time>2010-06-13T06:35:53.75</time>
<name>1973</name>
</trkpt>
<trkpt lat="49.188693" lon="11.699977">
<ele>541.4</ele>
<speed>4.8</speed>
<course>175.3</course>
<desc>Speed 4.8 km/h Distance 8.98 km</desc>
<time>2010-06-13T06:35:54.76</time>
<name>1974</name>
</trkpt>
<trkpt lat="49.188682" lon="11.699978">
<ele>543.3</ele>
<speed>3.1</speed>
<course>90.0</course>
<desc>Speed 3.1 km/h Distance 8.99 km</desc>
<time>2010-06-13T06:35:55.75</time>
<name>1975</name>
</trkpt>
<trkpt lat="49.188682" lon="11.699988">
<ele>543.1</ele>
<speed>3.6</speed>
<course>73.7</course>
<desc>Speed 3.6 km/h Distance 8.99 km</desc>
<time>2010-06-13T06:35:56.76</time>
<name>1976</name>
</trkpt>
<trkpt lat="49.188688" lon="11.700023">
<ele>542.0</ele>
<speed>4.9</speed>
<course>107.1</course>
<desc>Speed 4.9 km/h Distance 8.99 km</desc>
<time>2010-06-13T06:35:57.76</time>
<name>1977</name>
</trkpt>
<trkpt lat="49.188687" lon="11.700032">
<ele>542.8</ele>
<speed>3.2</speed>
<course>55.8</course>
<desc>Speed 3.2 km/h Distance 8.99 km</desc>
<time>2010-06-13T06:35:58.75</time>
<name>1978</name>
</trkpt>
<trkpt lat="49.188693" lon="11.700047">
<ele>542.8</ele>
<speed>3.4</speed>
<course>90.0</course>
<desc>Speed 3.4 km/h Distance 8.99 km</desc>
<time>2010-06-13T06:35:59.77</time>
<name>1979</name>
</trkpt>
<trkpt lat="49.188693" lon="11.700083">
<ele>541.3</ele>
<speed>3.3</speed>
<course>110.9</course>
<desc>Speed 3.3 km/h Distance 8.99 km</desc>
<time>2010-06-13T06:36:00.77</time>
<name>1980</name>
</trkpt>
<trkpt lat="49.188690" lon="11.700097">
<ele>540.5</ele>
<speed>0.8</speed>
<course>107.1</course>
<desc>Speed 0.8 km/h Distance 9.00 km</desc>
<time>2010-06-13T06:36:01.77</time>
<name>1981</name>
</trkpt>
<trkpt lat="49.188688" lon="11.700105">
<ele>542.3</ele>
<speed>0.5</speed>
<course>188.8</course>
<desc>Speed 0.5 km/h Distance 9.00 km</desc>
<time>2010-06-13T06:36:02.77</time>
<name>1982</name>
</trkpt>
<trkpt lat="49.188673" lon="11.700102">
<ele>547.3</ele>
<speed>1.9</speed>
<course>263.8</course>
<desc>Speed 1.9 km/h Distance 9.00 km</desc>
<time>2010-06-13T06:36:03.76</time>
<name>1983</name>
</trkpt>
<trkpt lat="49.188672" lon="11.700078">
<ele>551.1</ele>
<speed>0.5</speed>
<course>7.7</course>
<desc>Speed 0.5 km/h Distance 9.00 km</desc>
<time>2010-06-13T06:36:04.75</time>
<name>1984</name>
</trkpt>
<trkpt lat="49.188680" lon="11.700080">
<ele>550.1</ele>
<speed>1.7</speed>
<course>70.4</course>
<desc>Speed 1.7 km/h Distance 9.00 km</desc>
<time>2010-06-13T06:36:05.76</time>
<name>1985</name>
</trkpt>
<trkpt lat="49.188692" lon="11.700130">
<ele>548.8</ele>
<speed>3.5</speed>
<course>12.2</course>
<desc>Speed 3.5 km/h Distance 9.00 km</desc>
<time>2010-06-13T06:36:07.78</time>
<name>1986</name>
</trkpt>
<trkpt lat="49.188707" lon="11.700135">
<ele>549.3</ele>
<speed>3.9</speed>
<course>259.2</course>
<desc>Speed 3.9 km/h Distance 9.01 km</desc>
<time>2010-06-13T06:36:08.76</time>
<name>1987</name>
</trkpt>
<trkpt lat="49.188705" lon="11.700122">
<ele>553.1</ele>
<speed>3.6</speed>
<course>45.8</course>
<desc>Speed 3.6 km/h Distance 9.01 km</desc>
<time>2010-06-13T06:36:09.76</time>
<name>1988</name>
</trkpt>
<trkpt lat="49.188717" lon="11.700140">
<ele>553.3</ele>
<speed>4.2</speed>
<course>341.2</course>
<desc>Speed 4.2 km/h Distance 9.01 km</desc>
<time>2010-06-13T06:36:10.77</time>
<name>1989</name>
</trkpt>
<trkpt lat="49.188723" lon="11.700137">
<ele>553.6</ele>
<speed>3.1</speed>
<course>29.8</course>
<desc>Speed 3.1 km/h Distance 9.01 km</desc>
<time>2010-06-13T06:36:11.75</time>
<name>1990</name>
</trkpt>
<trkpt lat="49.188763" lon="11.700172">
<ele>555.1</ele>
<speed>5.4</speed>
<course>59.3</course>
<desc>Speed 5.4 km/h Distance 9.01 km</desc>
<time>2010-06-13T06:36:13.77</time>
<name>1991</name>
</trkpt>
<trkpt lat="49.188775" lon="11.700202">
<ele>555.7</ele>
<speed>5.6</speed>
<course>76.8</course>
<desc>Speed 5.6 km/h Distance 9.02 km</desc>
<time>2010-06-13T06:36:14.75</time>
<name>1992</name>
</trkpt>
<trkpt lat="49.188778" lon="11.700223">
<ele>556.6</ele>
<speed>4.6</speed>
<course>57.8</course>
<desc>Speed 4.6 km/h Distance 9.02 km</desc>
<time>2010-06-13T06:36:15.77</time>
<name>1993</name>
</trkpt>
<trkpt lat="49.188790" lon="11.700252">
<ele>559.2</ele>
<speed>7.0</speed>
<course>15.9</course>
<desc>Speed 7.0 km/h Distance 9.02 km</desc>
<time>2010-06-13T06:36:16.77</time>
<name>1994</name>
</trkpt>
<trkpt lat="49.188817" lon="11.700263">
<ele>560.3</ele>
<speed>9.0</speed>
<course>12.3</course>
<desc>Speed 9.0 km/h Distance 9.02 km</desc>
<time>2010-06-13T06:36:17.76</time>
<name>1995</name>
</trkpt>
<trkpt lat="49.188847" lon="11.700273">
<ele>561.7</ele>
<speed>10.0</speed>
<course>8.3</course>
<desc>Speed 10.0 km/h Distance 9.03 km</desc>
<time>2010-06-13T06:36:18.76</time>
<name>1996</name>
</trkpt>
<trkpt lat="49.188877" lon="11.700280">
<ele>562.3</ele>
<speed>8.5</speed>
<course>28.3</course>
<desc>Speed 8.5 km/h Distance 9.03 km</desc>
<time>2010-06-13T06:36:19.75</time>
<name>1997</name>
</trkpt>
<trkpt lat="49.188887" lon="11.700288">
<ele>562.3</ele>
<speed>5.3</speed>
<course>13.1</course>
<desc>Speed 5.3 km/h Distance 9.03 km</desc>
<time>2010-06-13T06:36:20.76</time>
<name>1998</name>
</trkpt>
<trkpt lat="49.188905" lon="11.700295">
<ele>563.6</ele>
<speed>5.5</speed>
<course>346.2</course>
<desc>Speed 5.5 km/h Distance 9.03 km</desc>
<time>2010-06-13T06:36:21.76</time>
<name>1999</name>
</trkpt>
<trkpt lat="49.188932" lon="11.700285">
<ele>563.9</ele>
<speed>6.6</speed>
<course>329.1</course>
<desc>Speed 6.6 km/h Distance 9.04 km</desc>
<time>2010-06-13T06:36:22.77</time>
<name>2000</name>
</trkpt>
<trkpt lat="49.188952" lon="11.700267">
<ele>562.4</ele>
<speed>4.9</speed>
<course>275.1</course>
<desc>Speed 4.9 km/h Distance 9.04 km</desc>
<time>2010-06-13T06:36:23.78</time>
<name>2001</name>
</trkpt>
<trkpt lat="49.188953" lon="11.700238">
<ele>561.1</ele>
<speed>5.2</speed>
<course>285.1</course>
<desc>Speed 5.2 km/h Distance 9.04 km</desc>
<time>2010-06-13T06:36:24.75</time>
<name>2002</name>
</trkpt>
<trkpt lat="49.188958" lon="11.700210">
<ele>563.0</ele>
<speed>5.5</speed>
<course>336.4</course>
<desc>Speed 5.5 km/h Distance 9.04 km</desc>
<time>2010-06-13T06:36:25.76</time>
<name>2003</name>
</trkpt>
<trkpt lat="49.188983" lon="11.700193">
<ele>562.7</ele>
<speed>6.5</speed>
<course>4.6</course>
<desc>Speed 6.5 km/h Distance 9.05 km</desc>
<time>2010-06-13T06:36:26.75</time>
<name>2004</name>
</trkpt>
<trkpt lat="49.189010" lon="11.700197">
<ele>564.7</ele>
<speed>5.7</speed>
<course>1.4</course>
<desc>Speed 5.7 km/h Distance 9.05 km</desc>
<time>2010-06-13T06:36:27.77</time>
<name>2005</name>
</trkpt>
<trkpt lat="49.189038" lon="11.700197">
<ele>565.5</ele>
<speed>6.3</speed>
<course>20.1</course>
<desc>Speed 6.3 km/h Distance 9.05 km</desc>
<time>2010-06-13T06:36:28.76</time>
<name>2006</name>
</trkpt>
<trkpt lat="49.189053" lon="11.700205">
<ele>566.9</ele>
<speed>6.3</speed>
<course>2.2</course>
<desc>Speed 6.3 km/h Distance 9.06 km</desc>
<time>2010-06-13T06:36:29.75</time>
<name>2007</name>
</trkpt>
<trkpt lat="49.189075" lon="11.700207">
<ele>566.4</ele>
<speed>5.5</speed>
<course>14.5</course>
<desc>Speed 5.5 km/h Distance 9.06 km</desc>
<time>2010-06-13T06:36:30.77</time>
<name>2008</name>
</trkpt>
<trkpt lat="49.189100" lon="11.700217">
<ele>568.0</ele>
<speed>4.1</speed>
<course>21.3</course>
<desc>Speed 4.1 km/h Distance 9.06 km</desc>
<time>2010-06-13T06:36:31.77</time>
<name>2009</name>
</trkpt>
<trkpt lat="49.189117" lon="11.700227">
<ele>567.0</ele>
<speed>5.2</speed>
<course>18.1</course>
<desc>Speed 5.2 km/h Distance 9.06 km</desc>
<time>2010-06-13T06:36:32.77</time>
<name>2010</name>
</trkpt>
<trkpt lat="49.189173" lon="11.700255">
<ele>568.4</ele>
<speed>6.2</speed>
<course>33.2</course>
<desc>Speed 6.2 km/h Distance 9.07 km</desc>
<time>2010-06-13T06:36:34.76</time>
<name>2011</name>
</trkpt>
<trkpt lat="49.189202" lon="11.700283">
<ele>568.9</ele>
<speed>7.4</speed>
<course>8.5</course>
<desc>Speed 7.4 km/h Distance 9.07 km</desc>
<time>2010-06-13T06:36:35.77</time>
<name>2012</name>
</trkpt>
<trkpt lat="49.189230" lon="11.700290">
<ele>569.6</ele>
<speed>6.6</speed>
<course>8.7</course>
<desc>Speed 6.6 km/h Distance 9.08 km</desc>
<time>2010-06-13T06:36:36.76</time>
<name>2013</name>
</trkpt>
<trkpt lat="49.189287" lon="11.700303">
<ele>570.0</ele>
<speed>6.1</speed>
<course>65.3</course>
<desc>Speed 6.1 km/h Distance 9.08 km</desc>
<time>2010-06-13T06:36:38.76</time>
<name>2014</name>
</trkpt>
<trkpt lat="49.189297" lon="11.700337">
<ele>569.6</ele>
<speed>4.7</speed>
<course>99.6</course>
<desc>Speed 4.7 km/h Distance 9.09 km</desc>
<time>2010-06-13T06:36:39.77</time>
<name>2015</name>
</trkpt>
<trkpt lat="49.189295" lon="11.700352">
<ele>567.6</ele>
<speed>3.7</speed>
<course>74.9</course>
<desc>Speed 3.7 km/h Distance 9.09 km</desc>
<time>2010-06-13T06:36:40.76</time>
<name>2016</name>
</trkpt>
<trkpt lat="49.189300" lon="11.700380">
<ele>568.3</ele>
<speed>4.0</speed>
<course>67.4</course>
<desc>Speed 4.0 km/h Distance 9.09 km</desc>
<time>2010-06-13T06:36:41.77</time>
<name>2017</name>
</trkpt>
<trkpt lat="49.189310" lon="11.700417">
<ele>568.3</ele>
<speed>3.6</speed>
<course>60.7</course>
<desc>Speed 3.6 km/h Distance 9.09 km</desc>
<time>2010-06-13T06:36:42.77</time>
<name>2018</name>
</trkpt>
<trkpt lat="49.189340" lon="11.700498">
<ele>566.9</ele>
<speed>4.5</speed>
<course>113.6</course>
<desc>Speed 4.5 km/h Distance 9.10 km</desc>
<time>2010-06-13T06:36:44.76</time>
<name>2019</name>
</trkpt>
<trkpt lat="49.189337" lon="11.700510">
<ele>569.9</ele>
<speed>3.0</speed>
<course>90.0</course>
<desc>Speed 3.0 km/h Distance 9.10 km</desc>
<time>2010-06-13T06:36:45.76</time>
<name>2020</name>
</trkpt>
<trkpt lat="49.189337" lon="11.700518">
<ele>570.9</ele>
<speed>3.0</speed>
<course>40.1</course>
<desc>Speed 3.0 km/h Distance 9.10 km</desc>
<time>2010-06-13T06:36:46.75</time>
<name>2021</name>
</trkpt>
<trkpt lat="49.189348" lon="11.700533">
<ele>570.1</ele>
<speed>2.5</speed>
<course>26.1</course>
<desc>Speed 2.5 km/h Distance 9.10 km</desc>
<time>2010-06-13T06:36:47.77</time>
<name>2022</name>
</trkpt>
<trkpt lat="49.189382" lon="11.700558">
<ele>570.8</ele>
<speed>3.7</speed>
<course>74.4</course>
<desc>Speed 3.7 km/h Distance 9.11 km</desc>
<time>2010-06-13T06:36:49.75</time>
<name>2023</name>
</trkpt>
<trkpt lat="49.189385" lon="11.700577">
<ele>571.8</ele>
<speed>3.6</speed>
<course>198.1</course>
<desc>Speed 3.6 km/h Distance 9.11 km</desc>
<time>2010-06-13T06:36:50.75</time>
<name>2024</name>
</trkpt>
<trkpt lat="49.189372" lon="11.700570">
<ele>574.4</ele>
<speed>2.3</speed>
<course>194.9</course>
<desc>Speed 2.3 km/h Distance 9.11 km</desc>
<time>2010-06-13T06:36:51.75</time>
<name>2025</name>
</trkpt>
<trkpt lat="49.189363" lon="11.700567">
<ele>575.8</ele>
<speed>1.7</speed>
<course>48.9</course>
<desc>Speed 1.7 km/h Distance 9.11 km</desc>
<time>2010-06-13T06:36:52.77</time>
<name>2026</name>
</trkpt>
<trkpt lat="49.189370" lon="11.700578">
<ele>575.9</ele>
<speed>2.8</speed>
<course>29.8</course>
<desc>Speed 2.8 km/h Distance 9.11 km</desc>
<time>2010-06-13T06:36:53.75</time>
<name>2027</name>
</trkpt>
<trkpt lat="49.189383" lon="11.700590">
<ele>573.5</ele>
<speed>2.0</speed>
<course>72.1</course>
<desc>Speed 2.0 km/h Distance 9.11 km</desc>
<time>2010-06-13T06:36:54.75</time>
<name>2028</name>
</trkpt>
<trkpt lat="49.189390" lon="11.700622">
<ele>572.8</ele>
<speed>3.8</speed>
<course>110.9</course>
<desc>Speed 3.8 km/h Distance 9.11 km</desc>
<time>2010-06-13T06:36:55.77</time>
<name>2029</name>
</trkpt>
<trkpt lat="49.189383" lon="11.700648">
<ele>572.4</ele>
<speed>2.3</speed>
<course>75.7</course>
<desc>Speed 2.3 km/h Distance 9.12 km</desc>
<time>2010-06-13T06:36:56.75</time>
<name>2030</name>
</trkpt>
<trkpt lat="49.189388" lon="11.700678">
<ele>572.4</ele>
<speed>2.2</speed>
<course>105.5</course>
<desc>Speed 2.2 km/h Distance 9.12 km</desc>
<time>2010-06-13T06:36:57.74</time>
<name>2031</name>
</trkpt>
<trkpt lat="49.189382" lon="11.700715">
<ele>578.5</ele>
<speed>5.8</speed>
<course>170.4</course>
<desc>Speed 5.8 km/h Distance 9.12 km</desc>
<time>2010-06-13T06:37:00.76</time>
<name>2032</name>
</trkpt>
<trkpt lat="49.189373" lon="11.700717">
<ele>580.6</ele>
<speed>2.8</speed>
<course>311.1</course>
<desc>Speed 2.8 km/h Distance 9.12 km</desc>
<time>2010-06-13T06:37:01.75</time>
<name>2033</name>
</trkpt>
<trkpt lat="49.189380" lon="11.700705">
<ele>581.6</ele>
<speed>1.5</speed>
<course>305.2</course>
<desc>Speed 1.5 km/h Distance 9.12 km</desc>
<time>2010-06-13T06:37:02.76</time>
<name>2034</name>
</trkpt>
<trkpt lat="49.189390" lon="11.700683">
<ele>583.7</ele>
<speed>3.6</speed>
<course>343.0</course>
<desc>Speed 3.6 km/h Distance 9.13 km</desc>
<time>2010-06-13T06:37:03.75</time>
<name>2035</name>
</trkpt>
<trkpt lat="49.189443" lon="11.700658">
<ele>580.4</ele>
<speed>5.0</speed>
<course>24.9</course>
<desc>Speed 5.0 km/h Distance 9.13 km</desc>
<time>2010-06-13T06:37:05.75</time>
<name>2036</name>
</trkpt>
<trkpt lat="49.189455" lon="11.700667">
<ele>577.0</ele>
<speed>5.1</speed>
<course>14.3</course>
<desc>Speed 5.1 km/h Distance 9.13 km</desc>
<time>2010-06-13T06:37:06.75</time>
<name>2037</name>
</trkpt>
<trkpt lat="49.189515" lon="11.700690">
<ele>569.9</ele>
<speed>7.0</speed>
<course>0.4</course>
<desc>Speed 7.0 km/h Distance 9.14 km</desc>
<time>2010-06-13T06:37:08.75</time>
<name>2038</name>
</trkpt>
<trkpt lat="49.189578" lon="11.700690">
<ele>567.5</ele>
<speed>7.0</speed>
<course>33.2</course>
<desc>Speed 7.0 km/h Distance 9.15 km</desc>
<time>2010-06-13T06:37:10.76</time>
<name>2039</name>
</trkpt>
<trkpt lat="49.189605" lon="11.700717">
<ele>562.7</ele>
<speed>5.8</speed>
<course>8.1</course>
<desc>Speed 5.8 km/h Distance 9.15 km</desc>
<time>2010-06-13T06:37:11.76</time>
<name>2040</name>
</trkpt>
<trkpt lat="49.189667" lon="11.700730">
<ele>558.9</ele>
<speed>7.0</speed>
<course>25.7</course>
<desc>Speed 7.0 km/h Distance 9.16 km</desc>
<time>2010-06-13T06:37:13.76</time>
<name>2041</name>
</trkpt>
<trkpt lat="49.189698" lon="11.700753">
<ele>558.2</ele>
<speed>6.2</speed>
<course>25.2</course>
<desc>Speed 6.2 km/h Distance 9.16 km</desc>
<time>2010-06-13T06:37:14.75</time>
<name>2042</name>
</trkpt>
<trkpt lat="49.189728" lon="11.700775">
<ele>559.6</ele>
<speed>7.8</speed>
<course>39.8</course>
<desc>Speed 7.8 km/h Distance 9.17 km</desc>
<time>2010-06-13T06:37:15.76</time>
<name>2043</name>
</trkpt>
<trkpt lat="49.189807" lon="11.700875">
<ele>560.6</ele>
<speed>9.8</speed>
<course>28.2</course>
<desc>Speed 9.8 km/h Distance 9.18 km</desc>
<time>2010-06-13T06:37:17.75</time>
<name>2044</name>
</trkpt>
<trkpt lat="49.189825" lon="11.700890">
<ele>561.4</ele>
<speed>6.8</speed>
<course>352.6</course>
<desc>Speed 6.8 km/h Distance 9.18 km</desc>
<time>2010-06-13T06:37:18.75</time>
<name>2045</name>
</trkpt>
<trkpt lat="49.189850" lon="11.700885">
<ele>561.2</ele>
<speed>5.1</speed>
<course>28.6</course>
<desc>Speed 5.1 km/h Distance 9.18 km</desc>
<time>2010-06-13T06:37:19.77</time>
<name>2046</name>
</trkpt>
<trkpt lat="49.189870" lon="11.700902">
<ele>564.4</ele>
<speed>7.4</speed>
<course>52.6</course>
<desc>Speed 7.4 km/h Distance 9.18 km</desc>
<time>2010-06-13T06:37:20.75</time>
<name>2047</name>
</trkpt>
<trkpt lat="49.189910" lon="11.700982">
<ele>565.8</ele>
<speed>4.9</speed>
<course>14.9</course>
<desc>Speed 4.9 km/h Distance 9.19 km</desc>
<time>2010-06-13T06:37:22.76</time>
<name>2048</name>
</trkpt>
<trkpt lat="49.189918" lon="11.700985">
<ele>570.1</ele>
<speed>4.3</speed>
<course>349.8</course>
<desc>Speed 4.3 km/h Distance 9.19 km</desc>
<time>2010-06-13T06:37:23.77</time>
<name>2049</name>
</trkpt>
<trkpt lat="49.189937" lon="11.700980">
<ele>571.6</ele>
<speed>5.0</speed>
<course>323.0</course>
<desc>Speed 5.0 km/h Distance 9.19 km</desc>
<time>2010-06-13T06:37:24.76</time>
<name>2050</name>
</trkpt>
<trkpt lat="49.189958" lon="11.700955">
<ele>572.0</ele>
<speed>6.6</speed>
<course>4.3</course>
<desc>Speed 6.6 km/h Distance 9.20 km</desc>
<time>2010-06-13T06:37:25.76</time>
<name>2051</name>
</trkpt>
<trkpt lat="49.190017" lon="11.700962">
<ele>570.5</ele>
<speed>4.6</speed>
<course>43.1</course>
<desc>Speed 4.6 km/h Distance 9.20 km</desc>
<time>2010-06-13T06:37:27.75</time>
<name>2052</name>
</trkpt>
<trkpt lat="49.190028" lon="11.700978">
<ele>569.4</ele>
<speed>3.3</speed>
<course>1.5</course>
<desc>Speed 3.3 km/h Distance 9.21 km</desc>
<time>2010-06-13T06:37:28.76</time>
<name>2053</name>
</trkpt>
<trkpt lat="49.190053" lon="11.700978">
<ele>570.0</ele>
<speed>2.7</speed>
<course>345.7</course>
<desc>Speed 2.7 km/h Distance 9.21 km</desc>
<time>2010-06-13T06:37:29.75</time>
<name>2054</name>
</trkpt>
<trkpt lat="49.190113" lon="11.700955">
<ele>571.2</ele>
<speed>6.0</speed>
<course>308.9</course>
<desc>Speed 6.0 km/h Distance 9.22 km</desc>
<time>2010-06-13T06:37:31.75</time>
<name>2055</name>
</trkpt>
<trkpt lat="49.190130" lon="11.700923">
<ele>574.2</ele>
<speed>5.5</speed>
<course>336.5</course>
<desc>Speed 5.5 km/h Distance 9.22 km</desc>
<time>2010-06-13T06:37:32.76</time>
<name>2056</name>
</trkpt>
<trkpt lat="49.190155" lon="11.700907">
<ele>574.0</ele>
<speed>4.2</speed>
<course>348.2</course>
<desc>Speed 4.2 km/h Distance 9.22 km</desc>
<time>2010-06-13T06:37:33.75</time>
<name>2057</name>
</trkpt>
<trkpt lat="49.190197" lon="11.700893">
<ele>574.1</ele>
<speed>4.1</speed>
<course>326.9</course>
<desc>Speed 4.1 km/h Distance 9.23 km</desc>
<time>2010-06-13T06:37:35.75</time>
<name>2058</name>
</trkpt>
<trkpt lat="49.190212" lon="11.700878">
<ele>574.4</ele>
<speed>4.0</speed>
<course>275.8</course>
<desc>Speed 4.0 km/h Distance 9.23 km</desc>
<time>2010-06-13T06:37:36.76</time>
<name>2059</name>
</trkpt>
<trkpt lat="49.190213" lon="11.700853">
<ele>576.4</ele>
<speed>3.5</speed>
<course>0.0</course>
<desc>Speed 3.5 km/h Distance 9.23 km</desc>
<time>2010-06-13T06:37:37.76</time>
<name>2060</name>
</trkpt>
<trkpt lat="49.190223" lon="11.700853">
<ele>575.6</ele>
<speed>4.0</speed>
<course>36.3</course>
<desc>Speed 4.0 km/h Distance 9.23 km</desc>
<time>2010-06-13T06:37:38.75</time>
<name>2061</name>
</trkpt>
<trkpt lat="49.190277" lon="11.700913">
<ele>571.4</ele>
<speed>3.3</speed>
<course>48.0</course>
<desc>Speed 3.3 km/h Distance 9.24 km</desc>
<time>2010-06-13T06:37:40.75</time>
<name>2062</name>
</trkpt>
<trkpt lat="49.190310" lon="11.700970">
<ele>569.7</ele>
<speed>3.4</speed>
<course>42.6</course>
<desc>Speed 3.4 km/h Distance 9.24 km</desc>
<time>2010-06-13T06:37:42.75</time>
<name>2063</name>
</trkpt>
<trkpt lat="49.190355" lon="11.701033">
<ele>567.3</ele>
<speed>6.5</speed>
<course>44.1</course>
<desc>Speed 6.5 km/h Distance 9.25 km</desc>
<time>2010-06-13T06:37:44.75</time>
<name>2064</name>
</trkpt>
<trkpt lat="49.190407" lon="11.701110">
<ele>570.6</ele>
<speed>8.4</speed>
<course>21.4</course>
<desc>Speed 8.4 km/h Distance 9.26 km</desc>
<time>2010-06-13T06:37:46.75</time>
<name>2065</name>
</trkpt>
<trkpt lat="49.190432" lon="11.701125">
<ele>572.0</ele>
<speed>8.2</speed>
<course>22.6</course>
<desc>Speed 8.2 km/h Distance 9.26 km</desc>
<time>2010-06-13T06:37:47.76</time>
<name>2066</name>
</trkpt>
<trkpt lat="49.190450" lon="11.701137">
<ele>572.0</ele>
<speed>6.9</speed>
<course>343.4</course>
<desc>Speed 6.9 km/h Distance 9.26 km</desc>
<time>2010-06-13T06:37:48.76</time>
<name>2067</name>
</trkpt>
<trkpt lat="49.190468" lon="11.701128">
<ele>573.9</ele>
<speed>6.0</speed>
<course>13.8</course>
<desc>Speed 6.0 km/h Distance 9.27 km</desc>
<time>2010-06-13T06:37:49.75</time>
<name>2068</name>
</trkpt>
<trkpt lat="49.190535" lon="11.701153">
<ele>577.7</ele>
<speed>8.7</speed>
<course>2.5</course>
<desc>Speed 8.7 km/h Distance 9.27 km</desc>
<time>2010-06-13T06:37:51.76</time>
<name>2069</name>
</trkpt>
<trkpt lat="49.190553" lon="11.701153">
<ele>577.5</ele>
<speed>6.6</speed>
<course>0.0</course>
<desc>Speed 6.6 km/h Distance 9.28 km</desc>
<time>2010-06-13T06:37:52.75</time>
<name>2070</name>
</trkpt>
<trkpt lat="49.190572" lon="11.701153">
<ele>577.5</ele>
<speed>5.9</speed>
<course>350.3</course>
<desc>Speed 5.9 km/h Distance 9.28 km</desc>
<time>2010-06-13T06:37:53.74</time>
<name>2071</name>
</trkpt>
<trkpt lat="49.190603" lon="11.701145">
<ele>576.2</ele>
<speed>6.3</speed>
<course>22.9</course>
<desc>Speed 6.3 km/h Distance 9.28 km</desc>
<time>2010-06-13T06:37:54.74</time>
<name>2072</name>
</trkpt>
<trkpt lat="49.190632" lon="11.701163">
<ele>575.1</ele>
<speed>5.6</speed>
<course>350.0</course>
<desc>Speed 5.6 km/h Distance 9.29 km</desc>
<time>2010-06-13T06:37:55.74</time>
<name>2073</name>
</trkpt>
<trkpt lat="49.190657" lon="11.701157">
<ele>576.0</ele>
<speed>5.0</speed>
<course>35.6</course>
<desc>Speed 5.0 km/h Distance 9.29 km</desc>
<time>2010-06-13T06:37:56.77</time>
<name>2074</name>
</trkpt>
<trkpt lat="49.190710" lon="11.701215">
<ele>577.7</ele>
<speed>4.4</speed>
<course>90.0</course>
<desc>Speed 4.4 km/h Distance 9.30 km</desc>
<time>2010-06-13T06:37:58.75</time>
<name>2075</name>
</trkpt>
<trkpt lat="49.190710" lon="11.701225">
<ele>576.7</ele>
<speed>2.0</speed>
<course>58.4</course>
<desc>Speed 2.0 km/h Distance 9.30 km</desc>
<time>2010-06-13T06:37:59.76</time>
<name>2076</name>
</trkpt>
<trkpt lat="49.190717" lon="11.701242">
<ele>578.7</ele>
<speed>1.4</speed>
<course>315.5</course>
<desc>Speed 1.4 km/h Distance 9.30 km</desc>
<time>2010-06-13T06:38:00.74</time>
<name>2077</name>
</trkpt>
<trkpt lat="49.190720" lon="11.701237">
<ele>577.7</ele>
<speed>2.1</speed>
<course>18.2</course>
<desc>Speed 2.1 km/h Distance 9.30 km</desc>
<time>2010-06-13T06:38:01.75</time>
<name>2078</name>
</trkpt>
<trkpt lat="49.190730" lon="11.701242">
<ele>577.7</ele>
<speed>2.7</speed>
<course>279.6</course>
<desc>Speed 2.7 km/h Distance 9.30 km</desc>
<time>2010-06-13T06:38:02.75</time>
<name>2079</name>
</trkpt>
<trkpt lat="49.190732" lon="11.701227">
<ele>577.7</ele>
<speed>0.5</speed>
<course>10.2</course>
<desc>Speed 0.5 km/h Distance 9.30 km</desc>
<time>2010-06-13T06:38:03.75</time>
<name>2080</name>
</trkpt>
<trkpt lat="49.190750" lon="11.701232">
<ele>575.4</ele>
<speed>1.4</speed>
<course>348.8</course>
<desc>Speed 1.4 km/h Distance 9.30 km</desc>
<time>2010-06-13T06:38:04.74</time>
<name>2081</name>
</trkpt>
<trkpt lat="49.190767" lon="11.701227">
<ele>573.8</ele>
<speed>2.6</speed>
<course>33.2</course>
<desc>Speed 2.6 km/h Distance 9.30 km</desc>
<time>2010-06-13T06:38:05.75</time>
<name>2082</name>
</trkpt>
<trkpt lat="49.190787" lon="11.701247">
<ele>573.8</ele>
<speed>5.0</speed>
<course>15.2</course>
<desc>Speed 5.0 km/h Distance 9.31 km</desc>
<time>2010-06-13T06:38:06.76</time>
<name>2083</name>
</trkpt>
<trkpt lat="49.190807" lon="11.701255">
<ele>571.9</ele>
<speed>5.4</speed>
<course>5.5</course>
<desc>Speed 5.4 km/h Distance 9.31 km</desc>
<time>2010-06-13T06:38:07.75</time>
<name>2084</name>
</trkpt>
<trkpt lat="49.190828" lon="11.701258">
<ele>574.5</ele>
<speed>5.0</speed>
<course>11.5</course>
<desc>Speed 5.0 km/h Distance 9.31 km</desc>
<time>2010-06-13T06:38:08.75</time>
<name>2085</name>
</trkpt>
<trkpt lat="49.190855" lon="11.701267">
<ele>573.1</ele>
<speed>4.3</speed>
<course>27.7</course>
<desc>Speed 4.3 km/h Distance 9.31 km</desc>
<time>2010-06-13T06:38:09.74</time>
<name>2086</name>
</trkpt>
<trkpt lat="49.190872" lon="11.701280">
<ele>573.1</ele>
<speed>4.4</speed>
<course>16.1</course>
<desc>Speed 4.4 km/h Distance 9.32 km</desc>
<time>2010-06-13T06:38:10.75</time>
<name>2087</name>
</trkpt>
<trkpt lat="49.190928" lon="11.701305">
<ele>569.9</ele>
<speed>3.3</speed>
<course>37.7</course>
<desc>Speed 3.3 km/h Distance 9.32 km</desc>
<time>2010-06-13T06:38:12.76</time>
<name>2088</name>
</trkpt>
<trkpt lat="49.190947" lon="11.701327">
<ele>566.6</ele>
<speed>2.0</speed>
<course>28.7</course>
<desc>Speed 2.0 km/h Distance 9.33 km</desc>
<time>2010-06-13T06:38:13.74</time>
<name>2089</name>
</trkpt>
<trkpt lat="49.190998" lon="11.701370">
<ele>555.1</ele>
<speed>3.2</speed>
<course>24.4</course>
<desc>Speed 3.2 km/h Distance 9.33 km</desc>
<time>2010-06-13T06:38:15.75</time>
<name>2090</name>
</trkpt>
<trkpt lat="49.191020" lon="11.701385">
<ele>552.4</ele>
<speed>6.4</speed>
<course>23.5</course>
<desc>Speed 6.4 km/h Distance 9.34 km</desc>
<time>2010-06-13T06:38:16.76</time>
<name>2091</name>
</trkpt>
<trkpt lat="49.191045" lon="11.701402">
<ele>549.6</ele>
<speed>7.8</speed>
<course>6.6</course>
<desc>Speed 7.8 km/h Distance 9.34 km</desc>
<time>2010-06-13T06:38:17.76</time>
<name>2092</name>
</trkpt>
<trkpt lat="49.191073" lon="11.701407">
<ele>548.2</ele>
<speed>8.0</speed>
<course>5.0</course>
<desc>Speed 8.0 km/h Distance 9.34 km</desc>
<time>2010-06-13T06:38:18.73</time>
<name>2093</name>
</trkpt>
<trkpt lat="49.191148" lon="11.701417">
<ele>547.1</ele>
<speed>10.0</speed>
<course>323.2</course>
<desc>Speed 10.0 km/h Distance 9.35 km</desc>
<time>2010-06-13T06:38:20.76</time>
<name>2094</name>
</trkpt>
<trkpt lat="49.191172" lon="11.701390">
<ele>548.2</ele>
<speed>7.2</speed>
<course>30.0</course>
<desc>Speed 7.2 km/h Distance 9.35 km</desc>
<time>2010-06-13T06:38:21.75</time>
<name>2095</name>
</trkpt>
<trkpt lat="49.191200" lon="11.701415">
<ele>546.3</ele>
<speed>7.6</speed>
<course>41.1</course>
<desc>Speed 7.6 km/h Distance 9.36 km</desc>
<time>2010-06-13T06:38:22.74</time>
<name>2096</name>
</trkpt>
<trkpt lat="49.191225" lon="11.701448">
<ele>543.5</ele>
<speed>6.7</speed>
<course>33.2</course>
<desc>Speed 6.7 km/h Distance 9.36 km</desc>
<time>2010-06-13T06:38:23.76</time>
<name>2097</name>
</trkpt>
<trkpt lat="49.191252" lon="11.701475">
<ele>541.3</ele>
<speed>7.0</speed>
<course>30.0</course>
<desc>Speed 7.0 km/h Distance 9.36 km</desc>
<time>2010-06-13T06:38:24.75</time>
<name>2098</name>
</trkpt>
<trkpt lat="49.191280" lon="11.701500">
<ele>539.8</ele>
<speed>7.9</speed>
<course>39.3</course>
<desc>Speed 7.9 km/h Distance 9.37 km</desc>
<time>2010-06-13T06:38:25.75</time>
<name>2099</name>
</trkpt>
<trkpt lat="49.191307" lon="11.701533">
<ele>538.3</ele>
<speed>8.7</speed>
<course>13.2</course>
<desc>Speed 8.7 km/h Distance 9.37 km</desc>
<time>2010-06-13T06:38:26.76</time>
<name>2100</name>
</trkpt>
<trkpt lat="49.191330" lon="11.701542">
<ele>538.8</ele>
<speed>7.1</speed>
<course>14.6</course>
<desc>Speed 7.1 km/h Distance 9.37 km</desc>
<time>2010-06-13T06:38:27.76</time>
<name>2101</name>
</trkpt>
<trkpt lat="49.191363" lon="11.701555">
<ele>539.3</ele>
<speed>10.0</speed>
<course>7.8</course>
<desc>Speed 10.0 km/h Distance 9.38 km</desc>
<time>2010-06-13T06:38:28.75</time>
<name>2102</name>
</trkpt>
<trkpt lat="49.191443" lon="11.701572">
<ele>539.6</ele>
<speed>8.8</speed>
<course>8.4</course>
<desc>Speed 8.8 km/h Distance 9.39 km</desc>
<time>2010-06-13T06:38:30.74</time>
<name>2103</name>
</trkpt>
<trkpt lat="49.191480" lon="11.701580">
<ele>539.4</ele>
<speed>9.4</speed>
<course>0.0</course>
<desc>Speed 9.4 km/h Distance 9.39 km</desc>
<time>2010-06-13T06:38:31.74</time>
<name>2104</name>
</trkpt>
<trkpt lat="49.191513" lon="11.701580">
<ele>541.3</ele>
<speed>9.6</speed>
<course>18.0</course>
<desc>Speed 9.6 km/h Distance 9.39 km</desc>
<time>2010-06-13T06:38:32.76</time>
<name>2105</name>
</trkpt>
<trkpt lat="49.191550" lon="11.701598">
<ele>541.6</ele>
<speed>10.4</speed>
<course>16.1</course>
<desc>Speed 10.4 km/h Distance 9.40 km</desc>
<time>2010-06-13T06:38:33.76</time>
<name>2106</name>
</trkpt>
<trkpt lat="49.191648" lon="11.701642">
<ele>540.5</ele>
<speed>12.7</speed>
<course>1.2</course>
<desc>Speed 12.7 km/h Distance 9.41 km</desc>
<time>2010-06-13T06:38:35.77</time>
<name>2107</name>
</trkpt>
<trkpt lat="49.191688" lon="11.701643">
<ele>540.6</ele>
<speed>11.6</speed>
<course>10.4</course>
<desc>Speed 11.6 km/h Distance 9.41 km</desc>
<time>2010-06-13T06:38:36.76</time>
<name>2108</name>
</trkpt>
<trkpt lat="49.191730" lon="11.701655">
<ele>540.6</ele>
<speed>10.5</speed>
<course>26.8</course>
<desc>Speed 10.5 km/h Distance 9.42 km</desc>
<time>2010-06-13T06:38:37.76</time>
<name>2109</name>
</trkpt>
<trkpt lat="49.191803" lon="11.701712">
<ele>541.5</ele>
<speed>9.9</speed>
<course>30.2</course>
<desc>Speed 9.9 km/h Distance 9.43 km</desc>
<time>2010-06-13T06:38:39.75</time>
<name>2110</name>
</trkpt>
<trkpt lat="49.191880" lon="11.701780">
<ele>542.1</ele>
<speed>12.1</speed>
<course>8.9</course>
<desc>Speed 12.1 km/h Distance 9.44 km</desc>
<time>2010-06-13T06:38:41.76</time>
<name>2111</name>
</trkpt>
<trkpt lat="49.191998" lon="11.701808">
<ele>549.7</ele>
<speed>14.4</speed>
<course>15.5</course>
<desc>Speed 14.4 km/h Distance 9.45 km</desc>
<time>2010-06-13T06:38:43.75</time>
<name>2112</name>
</trkpt>
<trkpt lat="49.192042" lon="11.701827">
<ele>550.4</ele>
<speed>11.9</speed>
<course>17.0</course>
<desc>Speed 11.9 km/h Distance 9.46 km</desc>
<time>2010-06-13T06:38:44.76</time>
<name>2113</name>
</trkpt>
<trkpt lat="49.192227" lon="11.701913">
<ele>550.5</ele>
<speed>15.0</speed>
<course>30.6</course>
<desc>Speed 15.0 km/h Distance 9.48 km</desc>
<time>2010-06-13T06:38:47.74</time>
<name>2114</name>
</trkpt>
<trkpt lat="49.192383" lon="11.702055">
<ele>553.4</ele>
<speed>14.6</speed>
<course>331.9</course>
<desc>Speed 14.6 km/h Distance 9.50 km</desc>
<time>2010-06-13T06:38:50.75</time>
<name>2115</name>
</trkpt>
<trkpt lat="49.192402" lon="11.702040">
<ele>555.4</ele>
<speed>9.6</speed>
<course>344.9</course>
<desc>Speed 9.6 km/h Distance 9.50 km</desc>
<time>2010-06-13T06:38:51.76</time>
<name>2116</name>
</trkpt>
<trkpt lat="49.192430" lon="11.702028">
<ele>555.7</ele>
<speed>12.7</speed>
<course>349.8</course>
<desc>Speed 12.7 km/h Distance 9.50 km</desc>
<time>2010-06-13T06:38:52.76</time>
<name>2117</name>
</trkpt>
<trkpt lat="49.192467" lon="11.702018">
<ele>555.2</ele>
<speed>12.9</speed>
<course>0.4</course>
<desc>Speed 12.9 km/h Distance 9.51 km</desc>
<time>2010-06-13T06:38:53.76</time>
<name>2118</name>
</trkpt>
<trkpt lat="49.192582" lon="11.702018">
<ele>556.1</ele>
<speed>13.0</speed>
<course>11.5</course>
<desc>Speed 13.0 km/h Distance 9.52 km</desc>
<time>2010-06-13T06:38:55.76</time>
<name>2119</name>
</trkpt>
<trkpt lat="49.192630" lon="11.702033">
<ele>557.2</ele>
<speed>13.3</speed>
<course>15.1</course>
<desc>Speed 13.3 km/h Distance 9.53 km</desc>
<time>2010-06-13T06:38:56.75</time>
<name>2120</name>
</trkpt>
<trkpt lat="49.192678" lon="11.702053">
<ele>557.7</ele>
<speed>13.1</speed>
<course>47.9</course>
<desc>Speed 13.1 km/h Distance 9.53 km</desc>
<time>2010-06-13T06:38:57.74</time>
<name>2121</name>
</trkpt>
<trkpt lat="49.192700" lon="11.702090">
<ele>558.8</ele>
<speed>12.0</speed>
<course>58.5</course>
<desc>Speed 12.0 km/h Distance 9.54 km</desc>
<time>2010-06-13T06:38:58.74</time>
<name>2122</name>
</trkpt>
<trkpt lat="49.192713" lon="11.702123">
<ele>558.8</ele>
<speed>10.0</speed>
<course>75.1</course>
<desc>Speed 10.0 km/h Distance 9.54 km</desc>
<time>2010-06-13T06:38:59.75</time>
<name>2123</name>
</trkpt>
<trkpt lat="49.192720" lon="11.702162">
<ele>560.0</ele>
<speed>8.9</speed>
<course>90.0</course>
<desc>Speed 8.9 km/h Distance 9.54 km</desc>
<time>2010-06-13T06:39:00.75</time>
<name>2124</name>
</trkpt>
<trkpt lat="49.192720" lon="11.702193">
<ele>560.2</ele>
<speed>7.1</speed>
<course>81.3</course>
<desc>Speed 7.1 km/h Distance 9.54 km</desc>
<time>2010-06-13T06:39:01.75</time>
<name>2125</name>
</trkpt>
<trkpt lat="49.192723" lon="11.702227">
<ele>560.2</ele>
<speed>6.5</speed>
<course>90.0</course>
<desc>Speed 6.5 km/h Distance 9.55 km</desc>
<time>2010-06-13T06:39:02.75</time>
<name>2126</name>
</trkpt>
<trkpt lat="49.192723" lon="11.702258">
<ele>562.5</ele>
<speed>7.0</speed>
<course>117.0</course>
<desc>Speed 7.0 km/h Distance 9.55 km</desc>
<time>2010-06-13T06:39:03.76</time>
<name>2127</name>
</trkpt>
<trkpt lat="49.192715" lon="11.702283">
<ele>562.5</ele>
<speed>6.1</speed>
<course>74.9</course>
<desc>Speed 6.1 km/h Distance 9.55 km</desc>
<time>2010-06-13T06:39:04.74</time>
<name>2128</name>
</trkpt>
<trkpt lat="49.192720" lon="11.702312">
<ele>561.3</ele>
<speed>5.3</speed>
<course>94.9</course>
<desc>Speed 5.3 km/h Distance 9.55 km</desc>
<time>2010-06-13T06:39:05.75</time>
<name>2129</name>
</trkpt>
<trkpt lat="49.192718" lon="11.702342">
<ele>564.0</ele>
<speed>4.9</speed>
<course>37.7</course>
<desc>Speed 4.9 km/h Distance 9.55 km</desc>
<time>2010-06-13T06:39:06.75</time>
<name>2130</name>
</trkpt>
<trkpt lat="49.192737" lon="11.702363">
<ele>564.6</ele>
<speed>4.9</speed>
<course>62.6</course>
<desc>Speed 4.9 km/h Distance 9.56 km</desc>
<time>2010-06-13T06:39:07.75</time>
<name>2131</name>
</trkpt>
<trkpt lat="49.192738" lon="11.702368">
<ele>567.4</ele>
<speed>4.8</speed>
<course>27.9</course>
<desc>Speed 4.8 km/h Distance 9.56 km</desc>
<time>2010-06-13T06:39:08.74</time>
<name>2132</name>
</trkpt>
<trkpt lat="49.192747" lon="11.702375">
<ele>570.0</ele>
<speed>5.4</speed>
<course>45.2</course>
<desc>Speed 5.4 km/h Distance 9.56 km</desc>
<time>2010-06-13T06:39:09.74</time>
<name>2133</name>
</trkpt>
<trkpt lat="49.192768" lon="11.702408">
<ele>569.9</ele>
<speed>6.0</speed>
<course>33.2</course>
<desc>Speed 6.0 km/h Distance 9.56 km</desc>
<time>2010-06-13T06:39:10.76</time>
<name>2134</name>
</trkpt>
<trkpt lat="49.192788" lon="11.702428">
<ele>570.9</ele>
<speed>4.7</speed>
<course>35.2</course>
<desc>Speed 4.7 km/h Distance 9.57 km</desc>
<time>2010-06-13T06:39:11.75</time>
<name>2135</name>
</trkpt>
<trkpt lat="49.192830" lon="11.702473">
<ele>572.1</ele>
<speed>7.5</speed>
<course>14.7</course>
<desc>Speed 7.5 km/h Distance 9.57 km</desc>
<time>2010-06-13T06:39:13.74</time>
<name>2136</name>
</trkpt>
<trkpt lat="49.192863" lon="11.702487">
<ele>569.3</ele>
<speed>7.9</speed>
<course>14.2</course>
<desc>Speed 7.9 km/h Distance 9.57 km</desc>
<time>2010-06-13T06:39:14.75</time>
<name>2137</name>
</trkpt>
<trkpt lat="49.192885" lon="11.702495">
<ele>568.2</ele>
<speed>8.1</speed>
<course>27.6</course>
<desc>Speed 8.1 km/h Distance 9.58 km</desc>
<time>2010-06-13T06:39:15.74</time>
<name>2138</name>
</trkpt>
<trkpt lat="49.192902" lon="11.702508">
<ele>569.2</ele>
<speed>8.7</speed>
<course>30.9</course>
<desc>Speed 8.7 km/h Distance 9.58 km</desc>
<time>2010-06-13T06:39:16.75</time>
<name>2139</name>
</trkpt>
<trkpt lat="49.192922" lon="11.702527">
<ele>568.1</ele>
<speed>6.3</speed>
<course>45.5</course>
<desc>Speed 6.3 km/h Distance 9.58 km</desc>
<time>2010-06-13T06:39:17.74</time>
<name>2140</name>
</trkpt>
<trkpt lat="49.192937" lon="11.702550">
<ele>567.4</ele>
<speed>4.9</speed>
<course>32.5</course>
<desc>Speed 4.9 km/h Distance 9.58 km</desc>
<time>2010-06-13T06:39:18.74</time>
<name>2141</name>
</trkpt>
<trkpt lat="49.193005" lon="11.702617">
<ele>562.2</ele>
<speed>8.5</speed>
<course>51.5</course>
<desc>Speed 8.5 km/h Distance 9.59 km</desc>
<time>2010-06-13T06:39:20.75</time>
<name>2142</name>
</trkpt>
<trkpt lat="49.193048" lon="11.702700">
<ele>559.3</ele>
<speed>7.8</speed>
<course>9.3</course>
<desc>Speed 7.8 km/h Distance 9.60 km</desc>
<time>2010-06-13T06:39:22.74</time>
<name>2143</name>
</trkpt>
<trkpt lat="49.193075" lon="11.702707">
<ele>560.6</ele>
<speed>6.3</speed>
<course>356.2</course>
<desc>Speed 6.3 km/h Distance 9.60 km</desc>
<time>2010-06-13T06:39:23.75</time>
<name>2144</name>
</trkpt>
<trkpt lat="49.193090" lon="11.702705">
<ele>563.9</ele>
<speed>6.3</speed>
<course>30.0</course>
<desc>Speed 6.3 km/h Distance 9.61 km</desc>
<time>2010-06-13T06:39:24.74</time>
<name>2145</name>
</trkpt>
<trkpt lat="49.193147" lon="11.702755">
<ele>563.8</ele>
<speed>7.9</speed>
<course>42.5</course>
<desc>Speed 7.9 km/h Distance 9.61 km</desc>
<time>2010-06-13T06:39:26.75</time>
<name>2146</name>
</trkpt>
<trkpt lat="49.193163" lon="11.702778">
<ele>563.8</ele>
<speed>6.8</speed>
<course>351.2</course>
<desc>Speed 6.8 km/h Distance 9.62 km</desc>
<time>2010-06-13T06:39:27.76</time>
<name>2147</name>
</trkpt>
<trkpt lat="49.193178" lon="11.702775">
<ele>567.4</ele>
<speed>7.0</speed>
<course>52.6</course>
<desc>Speed 7.0 km/h Distance 9.62 km</desc>
<time>2010-06-13T06:39:28.74</time>
<name>2148</name>
</trkpt>
<trkpt lat="49.193192" lon="11.702802">
<ele>567.5</ele>
<speed>7.1</speed>
<course>54.8</course>
<desc>Speed 7.1 km/h Distance 9.62 km</desc>
<time>2010-06-13T06:39:29.74</time>
<name>2149</name>
</trkpt>
<trkpt lat="49.193202" lon="11.702823">
<ele>569.2</ele>
<speed>7.3</speed>
<course>56.3</course>
<desc>Speed 7.3 km/h Distance 9.62 km</desc>
<time>2010-06-13T06:39:30.74</time>
<name>2150</name>
</trkpt>
<trkpt lat="49.193247" lon="11.702927">
<ele>570.1</ele>
<speed>8.5</speed>
<course>27.7</course>
<desc>Speed 8.5 km/h Distance 9.63 km</desc>
<time>2010-06-13T06:39:32.75</time>
<name>2151</name>
</trkpt>
<trkpt lat="49.193315" lon="11.702982">
<ele>565.8</ele>
<speed>7.1</speed>
<course>345.4</course>
<desc>Speed 7.1 km/h Distance 9.64 km</desc>
<time>2010-06-13T06:39:34.76</time>
<name>2152</name>
</trkpt>
<trkpt lat="49.193340" lon="11.702972">
<ele>564.9</ele>
<speed>8.6</speed>
<course>356.1</course>
<desc>Speed 8.6 km/h Distance 9.64 km</desc>
<time>2010-06-13T06:39:35.75</time>
<name>2153</name>
</trkpt>
<trkpt lat="49.193372" lon="11.702968">
<ele>567.0</ele>
<speed>9.6</speed>
<course>19.4</course>
<desc>Speed 9.6 km/h Distance 9.65 km</desc>
<time>2010-06-13T06:39:36.75</time>
<name>2154</name>
</trkpt>
<trkpt lat="49.193393" lon="11.702980">
<ele>566.4</ele>
<speed>7.6</speed>
<course>16.3</course>
<desc>Speed 7.6 km/h Distance 9.65 km</desc>
<time>2010-06-13T06:39:37.75</time>
<name>2155</name>
</trkpt>
<trkpt lat="49.193423" lon="11.702993">
<ele>567.1</ele>
<speed>7.1</speed>
<course>39.7</course>
<desc>Speed 7.1 km/h Distance 9.65 km</desc>
<time>2010-06-13T06:39:38.75</time>
<name>2156</name>
</trkpt>
<trkpt lat="49.193442" lon="11.703017">
<ele>568.4</ele>
<speed>6.9</speed>
<course>35.7</course>
<desc>Speed 6.9 km/h Distance 9.65 km</desc>
<time>2010-06-13T06:39:39.74</time>
<name>2157</name>
</trkpt>
<trkpt lat="49.193458" lon="11.703035">
<ele>569.6</ele>
<speed>7.4</speed>
<course>62.2</course>
<desc>Speed 7.4 km/h Distance 9.66 km</desc>
<time>2010-06-13T06:39:40.75</time>
<name>2158</name>
</trkpt>
<trkpt lat="49.193475" lon="11.703083">
<ele>570.6</ele>
<speed>8.7</speed>
<course>61.2</course>
<desc>Speed 8.7 km/h Distance 9.66 km</desc>
<time>2010-06-13T06:39:41.74</time>
<name>2159</name>
</trkpt>
<trkpt lat="49.193490" lon="11.703125">
<ele>573.3</ele>
<speed>10.2</speed>
<course>54.3</course>
<desc>Speed 10.2 km/h Distance 9.66 km</desc>
<time>2010-06-13T06:39:42.75</time>
<name>2160</name>
</trkpt>
<trkpt lat="49.193515" lon="11.703178">
<ele>573.3</ele>
<speed>11.5</speed>
<course>46.5</course>
<desc>Speed 11.5 km/h Distance 9.67 km</desc>
<time>2010-06-13T06:39:43.77</time>
<name>2161</name>
</trkpt>
<trkpt lat="49.193545" lon="11.703227">
<ele>573.7</ele>
<speed>10.6</speed>
<course>76.8</course>
<desc>Speed 10.6 km/h Distance 9.67 km</desc>
<time>2010-06-13T06:39:44.76</time>
<name>2162</name>
</trkpt>
<trkpt lat="49.193555" lon="11.703292">
<ele>574.6</ele>
<speed>10.0</speed>
<course>41.1</course>
<desc>Speed 10.0 km/h Distance 9.68 km</desc>
<time>2010-06-13T06:39:45.76</time>
<name>2163</name>
</trkpt>
<trkpt lat="49.193570" lon="11.703312">
<ele>574.4</ele>
<speed>7.4</speed>
<course>39.2</course>
<desc>Speed 7.4 km/h Distance 9.68 km</desc>
<time>2010-06-13T06:39:46.76</time>
<name>2164</name>
</trkpt>
<trkpt lat="49.193610" lon="11.703362">
<ele>573.9</ele>
<speed>5.8</speed>
<course>11.2</course>
<desc>Speed 5.8 km/h Distance 9.69 km</desc>
<time>2010-06-13T06:39:48.75</time>
<name>2165</name>
</trkpt>
<trkpt lat="49.193627" lon="11.703367">
<ele>572.3</ele>
<speed>5.0</speed>
<course>16.6</course>
<desc>Speed 5.0 km/h Distance 9.69 km</desc>
<time>2010-06-13T06:39:49.76</time>
<name>2166</name>
</trkpt>
<trkpt lat="49.193645" lon="11.703375">
<ele>572.8</ele>
<speed>5.5</speed>
<course>27.6</course>
<desc>Speed 5.5 km/h Distance 9.69 km</desc>
<time>2010-06-13T06:39:50.76</time>
<name>2167</name>
</trkpt>
<trkpt lat="49.193670" lon="11.703395">
<ele>570.6</ele>
<speed>7.3</speed>
<course>8.3</course>
<desc>Speed 7.3 km/h Distance 9.69 km</desc>
<time>2010-06-13T06:39:51.75</time>
<name>2168</name>
</trkpt>
<trkpt lat="49.193700" lon="11.703402">
<ele>569.1</ele>
<speed>7.8</speed>
<course>18.1</course>
<desc>Speed 7.8 km/h Distance 9.70 km</desc>
<time>2010-06-13T06:39:52.75</time>
<name>2169</name>
</trkpt>
<trkpt lat="49.193727" lon="11.703415">
<ele>566.7</ele>
<speed>8.2</speed>
<course>38.4</course>
<desc>Speed 8.2 km/h Distance 9.70 km</desc>
<time>2010-06-13T06:39:53.76</time>
<name>2170</name>
</trkpt>
<trkpt lat="49.193750" lon="11.703443">
<ele>564.4</ele>
<speed>8.1</speed>
<course>39.7</course>
<desc>Speed 8.1 km/h Distance 9.70 km</desc>
<time>2010-06-13T06:39:54.76</time>
<name>2171</name>
</trkpt>
<trkpt lat="49.193768" lon="11.703467">
<ele>563.6</ele>
<speed>7.0</speed>
<course>40.5</course>
<desc>Speed 7.0 km/h Distance 9.71 km</desc>
<time>2010-06-13T06:39:55.75</time>
<name>2172</name>
</trkpt>
<trkpt lat="49.193790" lon="11.703495">
<ele>561.8</ele>
<speed>6.9</speed>
<course>13.6</course>
<desc>Speed 6.9 km/h Distance 9.71 km</desc>
<time>2010-06-13T06:39:56.75</time>
<name>2173</name>
</trkpt>
<trkpt lat="49.193808" lon="11.703502">
<ele>563.8</ele>
<speed>6.9</speed>
<course>30.6</course>
<desc>Speed 6.9 km/h Distance 9.71 km</desc>
<time>2010-06-13T06:39:57.74</time>
<name>2174</name>
</trkpt>
<trkpt lat="49.193825" lon="11.703517">
<ele>568.2</ele>
<speed>6.9</speed>
<course>44.5</course>
<desc>Speed 6.9 km/h Distance 9.71 km</desc>
<time>2010-06-13T06:39:58.76</time>
<name>2175</name>
</trkpt>
<trkpt lat="49.193835" lon="11.703532">
<ele>573.6</ele>
<speed>6.2</speed>
<course>82.4</course>
<desc>Speed 6.2 km/h Distance 9.71 km</desc>
<time>2010-06-13T06:39:59.76</time>
<name>2176</name>
</trkpt>
<trkpt lat="49.193838" lon="11.703570">
<ele>571.6</ele>
<speed>4.6</speed>
<course>27.5</course>
<desc>Speed 4.6 km/h Distance 9.72 km</desc>
<time>2010-06-13T06:40:00.74</time>
<name>2177</name>
</trkpt>
<trkpt lat="49.193847" lon="11.703577">
<ele>570.5</ele>
<speed>1.9</speed>
<course>351.0</course>
<desc>Speed 1.9 km/h Distance 9.72 km</desc>
<time>2010-06-13T06:40:01.76</time>
<name>2178</name>
</trkpt>
<trkpt lat="49.193860" lon="11.703573">
<ele>570.2</ele>
<speed>3.2</speed>
<course>30.8</course>
<desc>Speed 3.2 km/h Distance 9.72 km</desc>
<time>2010-06-13T06:40:02.75</time>
<name>2179</name>
</trkpt>
<trkpt lat="49.193898" lon="11.703608">
<ele>563.3</ele>
<speed>2.8</speed>
<course>96.7</course>
<desc>Speed 2.8 km/h Distance 9.73 km</desc>
<time>2010-06-13T06:40:04.75</time>
<name>2180</name>
</trkpt>
<trkpt lat="49.193897" lon="11.703630">
<ele>565.8</ele>
<speed>3.3</speed>
<course>52.4</course>
<desc>Speed 3.3 km/h Distance 9.73 km</desc>
<time>2010-06-13T06:40:05.76</time>
<name>2181</name>
</trkpt>
<trkpt lat="49.193902" lon="11.703640">
<ele>568.3</ele>
<speed>4.4</speed>
<course>2.2</course>
<desc>Speed 4.4 km/h Distance 9.73 km</desc>
<time>2010-06-13T06:40:06.76</time>
<name>2182</name>
</trkpt>
<trkpt lat="49.193913" lon="11.703640">
<ele>572.9</ele>
<speed>5.8</speed>
<course>33.2</course>
<desc>Speed 5.8 km/h Distance 9.73 km</desc>
<time>2010-06-13T06:40:07.74</time>
<name>2183</name>
</trkpt>
<trkpt lat="49.193923" lon="11.703650">
<ele>575.9</ele>
<speed>6.0</speed>
<course>37.7</course>
<desc>Speed 6.0 km/h Distance 9.73 km</desc>
<time>2010-06-13T06:40:08.76</time>
<name>2184</name>
</trkpt>
<trkpt lat="49.193942" lon="11.703672">
<ele>577.8</ele>
<speed>5.4</speed>
<course>63.4</course>
<desc>Speed 5.4 km/h Distance 9.73 km</desc>
<time>2010-06-13T06:40:09.76</time>
<name>2185</name>
</trkpt>
<trkpt lat="49.193970" lon="11.703758">
<ele>576.2</ele>
<speed>4.7</speed>
<course>56.2</course>
<desc>Speed 4.7 km/h Distance 9.74 km</desc>
<time>2010-06-13T06:40:11.76</time>
<name>2186</name>
</trkpt>
<trkpt lat="49.193982" lon="11.703785">
<ele>574.1</ele>
<speed>3.7</speed>
<course>52.4</course>
<desc>Speed 3.7 km/h Distance 9.74 km</desc>
<time>2010-06-13T06:40:12.74</time>
<name>2187</name>
</trkpt>
<trkpt lat="49.193985" lon="11.703792">
<ele>574.1</ele>
<speed>3.4</speed>
<course>46.5</course>
<desc>Speed 3.4 km/h Distance 9.74 km</desc>
<time>2010-06-13T06:40:13.75</time>
<name>2188</name>
</trkpt>
<trkpt lat="49.194015" lon="11.703840">
<ele>574.4</ele>
<speed>6.2</speed>
<course>0.0</course>
<desc>Speed 6.2 km/h Distance 9.75 km</desc>
<time>2010-06-13T06:40:15.74</time>
<name>2189</name>
</trkpt>
<trkpt lat="49.194028" lon="11.703840">
<ele>577.9</ele>
<speed>5.8</speed>
<course>15.3</course>
<desc>Speed 5.8 km/h Distance 9.75 km</desc>
<time>2010-06-13T06:40:16.75</time>
<name>2190</name>
</trkpt>
<trkpt lat="49.194048" lon="11.703848">
<ele>580.5</ele>
<speed>6.3</speed>
<course>354.4</course>
<desc>Speed 6.3 km/h Distance 9.75 km</desc>
<time>2010-06-13T06:40:17.75</time>
<name>2191</name>
</trkpt>
<trkpt lat="49.194068" lon="11.703845">
<ele>582.8</ele>
<speed>6.9</speed>
<course>11.2</course>
<desc>Speed 6.9 km/h Distance 9.75 km</desc>
<time>2010-06-13T06:40:18.75</time>
<name>2192</name>
</trkpt>
<trkpt lat="49.194085" lon="11.703850">
<ele>582.4</ele>
<speed>5.5</speed>
<course>13.2</course>
<desc>Speed 5.5 km/h Distance 9.76 km</desc>
<time>2010-06-13T06:40:19.74</time>
<name>2193</name>
</trkpt>
<trkpt lat="49.194108" lon="11.703858">
<ele>584.0</ele>
<speed>7.2</speed>
<course>80.3</course>
<desc>Speed 7.2 km/h Distance 9.76 km</desc>
<time>2010-06-13T06:40:20.75</time>
<name>2194</name>
</trkpt>
<trkpt lat="49.194113" lon="11.703903">
<ele>582.0</ele>
<speed>4.6</speed>
<course>54.2</course>
<desc>Speed 4.6 km/h Distance 9.76 km</desc>
<time>2010-06-13T06:40:21.75</time>
<name>2195</name>
</trkpt>
<trkpt lat="49.194127" lon="11.703932">
<ele>582.6</ele>
<speed>4.3</speed>
<course>60.2</course>
<desc>Speed 4.3 km/h Distance 9.76 km</desc>
<time>2010-06-13T06:40:22.76</time>
<name>2196</name>
</trkpt>
<trkpt lat="49.194162" lon="11.704025">
<ele>581.6</ele>
<speed>4.9</speed>
<course>14.6</course>
<desc>Speed 4.9 km/h Distance 9.77 km</desc>
<time>2010-06-13T06:40:24.74</time>
<name>2197</name>
</trkpt>
<trkpt lat="49.194187" lon="11.704035">
<ele>581.8</ele>
<speed>4.2</speed>
<course>21.4</course>
<desc>Speed 4.2 km/h Distance 9.78 km</desc>
<time>2010-06-13T06:40:25.75</time>
<name>2198</name>
</trkpt>
<trkpt lat="49.194212" lon="11.704050">
<ele>584.3</ele>
<speed>6.3</speed>
<course>8.9</course>
<desc>Speed 6.3 km/h Distance 9.78 km</desc>
<time>2010-06-13T06:40:26.74</time>
<name>2199</name>
</trkpt>
<trkpt lat="49.194295" lon="11.704070">
<ele>580.4</ele>
<speed>6.3</speed>
<course>8.7</course>
<desc>Speed 6.3 km/h Distance 9.79 km</desc>
<time>2010-06-13T06:40:28.77</time>
<name>2200</name>
</trkpt>
<trkpt lat="49.194373" lon="11.704088">
<ele>577.4</ele>
<speed>7.6</speed>
<course>26.1</course>
<desc>Speed 7.6 km/h Distance 9.80 km</desc>
<time>2010-06-13T06:40:30.74</time>
<name>2201</name>
</trkpt>
<trkpt lat="49.194513" lon="11.704193">
<ele>565.4</ele>
<speed>11.6</speed>
<course>31.7</course>
<desc>Speed 11.6 km/h Distance 9.81 km</desc>
<time>2010-06-13T06:40:33.74</time>
<name>2202</name>
</trkpt>
<trkpt lat="49.194543" lon="11.704222">
<ele>564.4</ele>
<speed>12.3</speed>
<course>30.7</course>
<desc>Speed 12.3 km/h Distance 9.82 km</desc>
<time>2010-06-13T06:40:34.75</time>
<name>2203</name>
</trkpt>
<trkpt lat="49.194580" lon="11.704255">
<ele>565.8</ele>
<speed>13.4</speed>
<course>26.5</course>
<desc>Speed 13.4 km/h Distance 9.82 km</desc>
<time>2010-06-13T06:40:35.75</time>
<name>2204</name>
</trkpt>
<trkpt lat="49.194615" lon="11.704282">
<ele>566.3</ele>
<speed>13.2</speed>
<course>38.6</course>
<desc>Speed 13.2 km/h Distance 9.83 km</desc>
<time>2010-06-13T06:40:36.74</time>
<name>2205</name>
</trkpt>
<trkpt lat="49.194645" lon="11.704318">
<ele>565.1</ele>
<speed>10.8</speed>
<course>51.6</course>
<desc>Speed 10.8 km/h Distance 9.83 km</desc>
<time>2010-06-13T06:40:37.75</time>
<name>2206</name>
</trkpt>
<trkpt lat="49.194670" lon="11.704367">
<ele>569.1</ele>
<speed>8.7</speed>
<course>10.8</course>
<desc>Speed 8.7 km/h Distance 9.84 km</desc>
<time>2010-06-13T06:40:39.75</time>
<name>2207</name>
</trkpt>
<trkpt lat="49.194687" lon="11.704372">
<ele>569.5</ele>
<speed>6.5</speed>
<course>31.4</course>
<desc>Speed 6.5 km/h Distance 9.84 km</desc>
<time>2010-06-13T06:40:40.74</time>
<name>2208</name>
</trkpt>
<trkpt lat="49.194712" lon="11.704395">
<ele>569.9</ele>
<speed>5.9</speed>
<course>26.9</course>
<desc>Speed 5.9 km/h Distance 9.84 km</desc>
<time>2010-06-13T06:40:41.75</time>
<name>2209</name>
</trkpt>
<trkpt lat="49.194727" lon="11.704407">
<ele>571.1</ele>
<speed>5.4</speed>
<course>8.1</course>
<desc>Speed 5.4 km/h Distance 9.84 km</desc>
<time>2010-06-13T06:40:42.75</time>
<name>2210</name>
</trkpt>
<trkpt lat="49.194750" lon="11.704412">
<ele>571.2</ele>
<speed>5.4</speed>
<course>34.9</course>
<desc>Speed 5.4 km/h Distance 9.85 km</desc>
<time>2010-06-13T06:40:43.76</time>
<name>2211</name>
</trkpt>
<trkpt lat="49.194775" lon="11.704438">
<ele>568.6</ele>
<speed>6.8</speed>
<course>45.8</course>
<desc>Speed 6.8 km/h Distance 9.85 km</desc>
<time>2010-06-13T06:40:44.74</time>
<name>2212</name>
</trkpt>
<trkpt lat="49.194798" lon="11.704475">
<ele>567.3</ele>
<speed>7.7</speed>
<course>52.6</course>
<desc>Speed 7.7 km/h Distance 9.85 km</desc>
<time>2010-06-13T06:40:45.75</time>
<name>2213</name>
</trkpt>
<trkpt lat="49.194810" lon="11.704498">
<ele>568.5</ele>
<speed>7.5</speed>
<course>42.1</course>
<desc>Speed 7.5 km/h Distance 9.85 km</desc>
<time>2010-06-13T06:40:46.75</time>
<name>2214</name>
</trkpt>
<trkpt lat="49.194832" lon="11.704528">
<ele>569.4</ele>
<speed>7.2</speed>
<course>54.4</course>
<desc>Speed 7.2 km/h Distance 9.86 km</desc>
<time>2010-06-13T06:40:47.76</time>
<name>2215</name>
</trkpt>
<trkpt lat="49.194843" lon="11.704553">
<ele>571.0</ele>
<speed>6.0</speed>
<course>52.6</course>
<desc>Speed 6.0 km/h Distance 9.86 km</desc>
<time>2010-06-13T06:40:48.75</time>
<name>2216</name>
</trkpt>
<trkpt lat="49.194853" lon="11.704573">
<ele>573.1</ele>
<speed>6.0</speed>
<course>55.8</course>
<desc>Speed 6.0 km/h Distance 9.86 km</desc>
<time>2010-06-13T06:40:49.73</time>
<name>2217</name>
</trkpt>
<trkpt lat="49.194867" lon="11.704603">
<ele>573.4</ele>
<speed>6.3</speed>
<course>52.6</course>
<desc>Speed 6.3 km/h Distance 9.86 km</desc>
<time>2010-06-13T06:40:50.76</time>
<name>2218</name>
</trkpt>
<trkpt lat="49.194883" lon="11.704637">
<ele>572.3</ele>
<speed>7.5</speed>
<course>35.1</course>
<desc>Speed 7.5 km/h Distance 9.87 km</desc>
<time>2010-06-13T06:40:51.73</time>
<name>2219</name>
</trkpt>
<trkpt lat="49.194905" lon="11.704660">
<ele>572.0</ele>
<speed>7.8</speed>
<course>58.2</course>
<desc>Speed 7.8 km/h Distance 9.87 km</desc>
<time>2010-06-13T06:40:52.75</time>
<name>2220</name>
</trkpt>
<trkpt lat="49.194908" lon="11.704668">
<ele>576.2</ele>
<speed>8.0</speed>
<course>5.9</course>
<desc>Speed 8.0 km/h Distance 9.87 km</desc>
<time>2010-06-13T06:40:53.76</time>
<name>2221</name>
</trkpt>
<trkpt lat="49.194930" lon="11.704672">
<ele>580.7</ele>
<speed>7.9</speed>
<course>10.2</course>
<desc>Speed 7.9 km/h Distance 9.87 km</desc>
<time>2010-06-13T06:40:54.74</time>
<name>2222</name>
</trkpt>
<trkpt lat="49.194948" lon="11.704677">
<ele>584.3</ele>
<speed>7.7</speed>
<course>2.5</course>
<desc>Speed 7.7 km/h Distance 9.88 km</desc>
<time>2010-06-13T06:40:55.74</time>
<name>2223</name>
</trkpt>
<trkpt lat="49.194967" lon="11.704677">
<ele>587.5</ele>
<speed>6.7</speed>
<course>19.7</course>
<desc>Speed 6.7 km/h Distance 9.88 km</desc>
<time>2010-06-13T06:40:56.75</time>
<name>2224</name>
</trkpt>
<trkpt lat="49.194985" lon="11.704687">
<ele>590.1</ele>
<speed>6.7</speed>
<course>18.1</course>
<desc>Speed 6.7 km/h Distance 9.88 km</desc>
<time>2010-06-13T06:40:57.75</time>
<name>2225</name>
</trkpt>
<trkpt lat="49.195012" lon="11.704700">
<ele>589.5</ele>
<speed>6.0</speed>
<course>27.2</course>
<desc>Speed 6.0 km/h Distance 9.88 km</desc>
<time>2010-06-13T06:40:58.75</time>
<name>2226</name>
</trkpt>
<trkpt lat="49.195067" lon="11.704743">
<ele>588.4</ele>
<speed>6.4</speed>
<course>9.7</course>
<desc>Speed 6.4 km/h Distance 9.89 km</desc>
<time>2010-06-13T06:41:00.74</time>
<name>2227</name>
</trkpt>
<trkpt lat="49.195098" lon="11.704752">
<ele>591.0</ele>
<speed>9.1</speed>
<course>40.2</course>
<desc>Speed 9.1 km/h Distance 9.89 km</desc>
<time>2010-06-13T06:41:01.74</time>
<name>2228</name>
</trkpt>
<trkpt lat="49.195110" lon="11.704767">
<ele>594.0</ele>
<speed>6.3</speed>
<course>39.3</course>
<desc>Speed 6.3 km/h Distance 9.89 km</desc>
<time>2010-06-13T06:41:02.74</time>
<name>2229</name>
</trkpt>
<trkpt lat="49.195137" lon="11.704800">
<ele>593.6</ele>
<speed>6.7</speed>
<course>47.5</course>
<desc>Speed 6.7 km/h Distance 9.90 km</desc>
<time>2010-06-13T06:41:03.75</time>
<name>2230</name>
</trkpt>
<trkpt lat="49.195152" lon="11.704825">
<ele>595.3</ele>
<speed>6.1</speed>
<course>32.4</course>
<desc>Speed 6.1 km/h Distance 9.90 km</desc>
<time>2010-06-13T06:41:04.74</time>
<name>2231</name>
</trkpt>
<trkpt lat="49.195210" lon="11.704882">
<ele>595.3</ele>
<speed>7.7</speed>
<course>8.8</course>
<desc>Speed 7.7 km/h Distance 9.91 km</desc>
<time>2010-06-13T06:41:06.75</time>
<name>2232</name>
</trkpt>
<trkpt lat="49.195238" lon="11.704888">
<ele>595.3</ele>
<speed>8.2</speed>
<course>20.7</course>
<desc>Speed 8.2 km/h Distance 9.91 km</desc>
<time>2010-06-13T06:41:07.73</time>
<name>2233</name>
</trkpt>
<trkpt lat="49.195270" lon="11.704907">
<ele>588.2</ele>
<speed>7.4</speed>
<course>4.0</course>
<desc>Speed 7.4 km/h Distance 9.92 km</desc>
<time>2010-06-13T06:41:08.75</time>
<name>2234</name>
</trkpt>
<trkpt lat="49.195333" lon="11.704913">
<ele>586.2</ele>
<speed>5.9</speed>
<course>29.3</course>
<desc>Speed 5.9 km/h Distance 9.92 km</desc>
<time>2010-06-13T06:41:10.75</time>
<name>2235</name>
</trkpt>
<trkpt lat="49.195357" lon="11.704933">
<ele>583.0</ele>
<speed>7.1</speed>
<course>10.9</course>
<desc>Speed 7.1 km/h Distance 9.93 km</desc>
<time>2010-06-13T06:41:11.73</time>
<name>2236</name>
</trkpt>
<trkpt lat="49.195442" lon="11.704958">
<ele>578.8</ele>
<speed>8.4</speed>
<course>18.9</course>
<desc>Speed 8.4 km/h Distance 9.94 km</desc>
<time>2010-06-13T06:41:13.73</time>
<name>2237</name>
</trkpt>
<trkpt lat="49.195477" lon="11.704977">
<ele>577.8</ele>
<speed>7.0</speed>
<course>20.8</course>
<desc>Speed 7.0 km/h Distance 9.94 km</desc>
<time>2010-06-13T06:41:14.74</time>
<name>2238</name>
</trkpt>
<trkpt lat="49.195548" lon="11.705018">
<ele>576.7</ele>
<speed>9.6</speed>
<course>17.3</course>
<desc>Speed 9.6 km/h Distance 9.95 km</desc>
<time>2010-06-13T06:41:16.75</time>
<name>2239</name>
</trkpt>
<trkpt lat="49.195580" lon="11.705033">
<ele>578.5</ele>
<speed>8.7</speed>
<course>339.4</course>
<desc>Speed 8.7 km/h Distance 9.95 km</desc>
<time>2010-06-13T06:41:17.75</time>
<name>2240</name>
</trkpt>
<trkpt lat="49.195603" lon="11.705020">
<ele>582.3</ele>
<speed>6.5</speed>
<course>22.7</course>
<desc>Speed 6.5 km/h Distance 9.95 km</desc>
<time>2010-06-13T06:41:18.73</time>
<name>2241</name>
</trkpt>
<trkpt lat="49.195622" lon="11.705032">
<ele>583.1</ele>
<speed>6.8</speed>
<course>35.2</course>
<desc>Speed 6.8 km/h Distance 9.96 km</desc>
<time>2010-06-13T06:41:19.75</time>
<name>2242</name>
</trkpt>
<trkpt lat="49.195685" lon="11.705100">
<ele>574.7</ele>
<speed>9.8</speed>
<course>30.1</course>
<desc>Speed 9.8 km/h Distance 9.97 km</desc>
<time>2010-06-13T06:41:21.74</time>
<name>2243</name>
</trkpt>
<trkpt lat="49.195715" lon="11.705127">
<ele>574.9</ele>
<speed>10.4</speed>
<course>5.9</course>
<desc>Speed 10.4 km/h Distance 9.97 km</desc>
<time>2010-06-13T06:41:22.74</time>
<name>2244</name>
</trkpt>
<trkpt lat="49.195745" lon="11.705132">
<ele>573.9</ele>
<speed>8.5</speed>
<course>34.7</course>
<desc>Speed 8.5 km/h Distance 9.97 km</desc>
<time>2010-06-13T06:41:23.74</time>
<name>2245</name>
</trkpt>
<trkpt lat="49.195773" lon="11.705162">
<ele>574.0</ele>
<speed>7.3</speed>
<course>356.8</course>
<desc>Speed 7.3 km/h Distance 9.98 km</desc>
<time>2010-06-13T06:41:24.74</time>
<name>2246</name>
</trkpt>
<trkpt lat="49.195795" lon="11.705160">
<ele>574.5</ele>
<speed>7.2</speed>
<course>319.1</course>
<desc>Speed 7.2 km/h Distance 9.98 km</desc>
<time>2010-06-13T06:41:25.76</time>
<name>2247</name>
</trkpt>
<trkpt lat="49.195800" lon="11.705153">
<ele>572.9</ele>
<speed>6.0</speed>
<course>20.8</course>
<desc>Speed 6.0 km/h Distance 9.98 km</desc>
<time>2010-06-13T06:41:26.76</time>
<name>2248</name>
</trkpt>
<trkpt lat="49.195872" lon="11.705195">
<ele>560.3</ele>
<speed>7.4</speed>
<course>4.5</course>
<desc>Speed 7.4 km/h Distance 9.99 km</desc>
<time>2010-06-13T06:41:28.74</time>
<name>2249</name>
</trkpt>
<trkpt lat="49.195900" lon="11.705198">
<ele>557.3</ele>
<speed>8.3</speed>
<course>10.0</course>
<desc>Speed 8.3 km/h Distance 9.99 km</desc>
<time>2010-06-13T06:41:29.75</time>
<name>2250</name>
</trkpt>
<trkpt lat="49.195937" lon="11.705208">
<ele>557.9</ele>
<speed>8.8</speed>
<course>31.7</course>
<desc>Speed 8.8 km/h Distance 10.00 km</desc>
<time>2010-06-13T06:41:30.75</time>
<name>2251</name>
</trkpt>
<trkpt lat="49.195968" lon="11.705238">
<ele>558.5</ele>
<speed>9.8</speed>
<course>29.2</course>
<desc>Speed 9.8 km/h Distance 10.00 km</desc>
<time>2010-06-13T06:41:31.75</time>
<name>2252</name>
</trkpt>
<trkpt lat="49.195992" lon="11.705258">
<ele>559.7</ele>
<speed>9.2</speed>
<course>25.0</course>
<desc>Speed 9.2 km/h Distance 10.00 km</desc>
<time>2010-06-13T06:41:32.75</time>
<name>2253</name>
</trkpt>
<trkpt lat="49.196015" lon="11.705275">
<ele>559.5</ele>
<speed>8.2</speed>
<course>34.7</course>
<desc>Speed 8.2 km/h Distance 10.01 km</desc>
<time>2010-06-13T06:41:33.75</time>
<name>2254</name>
</trkpt>
<trkpt lat="49.196043" lon="11.705305">
<ele>561.1</ele>
<speed>7.6</speed>
<course>24.5</course>
<desc>Speed 7.6 km/h Distance 10.01 km</desc>
<time>2010-06-13T06:41:34.75</time>
<name>2255</name>
</trkpt>
<trkpt lat="49.196115" lon="11.705355">
<ele>556.8</ele>
<speed>9.2</speed>
<course>27.6</course>
<desc>Speed 9.2 km/h Distance 10.02 km</desc>
<time>2010-06-13T06:41:36.75</time>
<name>2256</name>
</trkpt>
<trkpt lat="49.196148" lon="11.705382">
<ele>556.7</ele>
<speed>10.3</speed>
<course>26.3</course>
<desc>Speed 10.3 km/h Distance 10.02 km</desc>
<time>2010-06-13T06:41:37.73</time>
<name>2257</name>
</trkpt>
<trkpt lat="49.196223" lon="11.705438">
<ele>557.5</ele>
<speed>10.5</speed>
<course>24.1</course>
<desc>Speed 10.5 km/h Distance 10.03 km</desc>
<time>2010-06-13T06:41:39.75</time>
<name>2258</name>
</trkpt>
<trkpt lat="49.196260" lon="11.705463">
<ele>557.5</ele>
<speed>11.2</speed>
<course>22.6</course>
<desc>Speed 11.2 km/h Distance 10.04 km</desc>
<time>2010-06-13T06:41:40.74</time>
<name>2259</name>
</trkpt>
<trkpt lat="49.196297" lon="11.705487">
<ele>560.2</ele>
<speed>9.5</speed>
<course>31.4</course>
<desc>Speed 9.5 km/h Distance 10.04 km</desc>
<time>2010-06-13T06:41:41.74</time>
<name>2260</name>
</trkpt>
<trkpt lat="49.196322" lon="11.705510">
<ele>559.7</ele>
<speed>9.4</speed>
<course>0.0</course>
<desc>Speed 9.4 km/h Distance 10.04 km</desc>
<time>2010-06-13T06:41:42.75</time>
<name>2261</name>
</trkpt>
<trkpt lat="49.196340" lon="11.705510">
<ele>561.8</ele>
<speed>8.5</speed>
<course>18.2</course>
<desc>Speed 8.5 km/h Distance 10.05 km</desc>
<time>2010-06-13T06:41:43.75</time>
<name>2262</name>
</trkpt>
<trkpt lat="49.196360" lon="11.705520">
<ele>565.1</ele>
<speed>7.3</speed>
<course>18.9</course>
<desc>Speed 7.3 km/h Distance 10.05 km</desc>
<time>2010-06-13T06:41:44.74</time>
<name>2263</name>
</trkpt>
<trkpt lat="49.196433" lon="11.705558">
<ele>567.3</ele>
<speed>8.4</speed>
<course>18.1</course>
<desc>Speed 8.4 km/h Distance 10.06 km</desc>
<time>2010-06-13T06:41:46.75</time>
<name>2264</name>
</trkpt>
<trkpt lat="49.196467" lon="11.705575">
<ele>568.5</ele>
<speed>8.5</speed>
<course>12.3</course>
<desc>Speed 8.5 km/h Distance 10.06 km</desc>
<time>2010-06-13T06:41:47.74</time>
<name>2265</name>
</trkpt>
<trkpt lat="49.196502" lon="11.705587">
<ele>569.5</ele>
<speed>9.3</speed>
<course>8.3</course>
<desc>Speed 9.3 km/h Distance 10.06 km</desc>
<time>2010-06-13T06:41:48.74</time>
<name>2266</name>
</trkpt>
<trkpt lat="49.196583" lon="11.705605">
<ele>570.4</ele>
<speed>8.9</speed>
<course>6.6</course>
<desc>Speed 8.9 km/h Distance 10.07 km</desc>
<time>2010-06-13T06:41:50.74</time>
<name>2267</name>
</trkpt>
<trkpt lat="49.196658" lon="11.705618">
<ele>572.2</ele>
<speed>7.2</speed>
<course>8.1</course>
<desc>Speed 7.2 km/h Distance 10.08 km</desc>
<time>2010-06-13T06:41:52.74</time>
<name>2268</name>
</trkpt>
<trkpt lat="49.196735" lon="11.705635">
<ele>579.8</ele>
<speed>7.0</speed>
<course>9.5</course>
<desc>Speed 7.0 km/h Distance 10.09 km</desc>
<time>2010-06-13T06:41:54.74</time>
<name>2269</name>
</trkpt>
<trkpt lat="49.196807" lon="11.705653">
<ele>580.1</ele>
<speed>7.1</speed>
<course>345.1</course>
<desc>Speed 7.1 km/h Distance 10.10 km</desc>
<time>2010-06-13T06:41:56.75</time>
<name>2270</name>
</trkpt>
<trkpt lat="49.196815" lon="11.705650">
<ele>584.7</ele>
<speed>6.6</speed>
<course>13.6</course>
<desc>Speed 6.6 km/h Distance 10.10 km</desc>
<time>2010-06-13T06:41:57.74</time>
<name>2271</name>
</trkpt>
<trkpt lat="49.196833" lon="11.705657">
<ele>587.4</ele>
<speed>5.7</speed>
<course>16.7</course>
<desc>Speed 5.7 km/h Distance 10.10 km</desc>
<time>2010-06-13T06:41:58.75</time>
<name>2272</name>
</trkpt>
<trkpt lat="49.196855" lon="11.705667">
<ele>590.0</ele>
<speed>3.9</speed>
<course>42.7</course>
<desc>Speed 3.9 km/h Distance 10.10 km</desc>
<time>2010-06-13T06:41:59.74</time>
<name>2273</name>
</trkpt>
<trkpt lat="49.196903" lon="11.705735">
<ele>591.4</ele>
<speed>5.0</speed>
<course>49.9</course>
<desc>Speed 5.0 km/h Distance 10.11 km</desc>
<time>2010-06-13T06:42:01.73</time>
<name>2274</name>
</trkpt>
<trkpt lat="49.196922" lon="11.705768">
<ele>592.3</ele>
<speed>5.7</speed>
<course>37.8</course>
<desc>Speed 5.7 km/h Distance 10.12 km</desc>
<time>2010-06-13T06:42:02.74</time>
<name>2275</name>
</trkpt>
<trkpt lat="49.196975" lon="11.705832">
<ele>593.9</ele>
<speed>8.3</speed>
<course>23.4</course>
<desc>Speed 8.3 km/h Distance 10.12 km</desc>
<time>2010-06-13T06:42:04.74</time>
<name>2276</name>
</trkpt>
<trkpt lat="49.196995" lon="11.705845">
<ele>594.0</ele>
<speed>6.3</speed>
<course>7.7</course>
<desc>Speed 6.3 km/h Distance 10.13 km</desc>
<time>2010-06-13T06:42:05.73</time>
<name>2277</name>
</trkpt>
<trkpt lat="49.197003" lon="11.705847">
<ele>596.1</ele>
<speed>5.4</speed>
<course>42.6</course>
<desc>Speed 5.4 km/h Distance 10.13 km</desc>
<time>2010-06-13T06:42:06.75</time>
<name>2278</name>
</trkpt>
<trkpt lat="49.197012" lon="11.705858">
<ele>597.2</ele>
<speed>4.8</speed>
<course>41.1</course>
<desc>Speed 4.8 km/h Distance 10.13 km</desc>
<time>2010-06-13T06:42:07.75</time>
<name>2279</name>
</trkpt>
<trkpt lat="49.197047" lon="11.705905">
<ele>602.1</ele>
<speed>4.2</speed>
<course>12.1</course>
<desc>Speed 4.2 km/h Distance 10.13 km</desc>
<time>2010-06-13T06:42:09.73</time>
<name>2280</name>
</trkpt>
<trkpt lat="49.197067" lon="11.705912">
<ele>600.9</ele>
<speed>5.4</speed>
<course>352.6</course>
<desc>Speed 5.4 km/h Distance 10.13 km</desc>
<time>2010-06-13T06:42:10.74</time>
<name>2281</name>
</trkpt>
<trkpt lat="49.197092" lon="11.705907">
<ele>600.9</ele>
<speed>5.3</speed>
<course>43.0</course>
<desc>Speed 5.3 km/h Distance 10.14 km</desc>
<time>2010-06-13T06:42:11.75</time>
<name>2282</name>
</trkpt>
<trkpt lat="49.197103" lon="11.705923">
<ele>600.0</ele>
<speed>5.4</speed>
<course>70.2</course>
<desc>Speed 5.4 km/h Distance 10.14 km</desc>
<time>2010-06-13T06:42:12.74</time>
<name>2283</name>
</trkpt>
<trkpt lat="49.197110" lon="11.705952">
<ele>596.3</ele>
<speed>5.3</speed>
<course>45.4</course>
<desc>Speed 5.3 km/h Distance 10.14 km</desc>
<time>2010-06-13T06:42:13.74</time>
<name>2284</name>
</trkpt>
<trkpt lat="49.197125" lon="11.705975">
<ele>593.3</ele>
<speed>5.0</speed>
<course>22.8</course>
<desc>Speed 5.0 km/h Distance 10.14 km</desc>
<time>2010-06-13T06:42:14.74</time>
<name>2285</name>
</trkpt>
<trkpt lat="49.197148" lon="11.705990">
<ele>589.9</ele>
<speed>5.2</speed>
<course>21.5</course>
<desc>Speed 5.2 km/h Distance 10.15 km</desc>
<time>2010-06-13T06:42:15.74</time>
<name>2286</name>
</trkpt>
<trkpt lat="49.197173" lon="11.706005">
<ele>587.4</ele>
<speed>5.1</speed>
<course>42.5</course>
<desc>Speed 5.1 km/h Distance 10.15 km</desc>
<time>2010-06-13T06:42:16.73</time>
<name>2287</name>
</trkpt>
<trkpt lat="49.197190" lon="11.706028">
<ele>586.4</ele>
<speed>4.3</speed>
<course>52.5</course>
<desc>Speed 4.3 km/h Distance 10.15 km</desc>
<time>2010-06-13T06:42:17.73</time>
<name>2288</name>
</trkpt>
<trkpt lat="49.197200" lon="11.706048">
<ele>585.1</ele>
<speed>4.0</speed>
<course>59.5</course>
<desc>Speed 4.0 km/h Distance 10.15 km</desc>
<time>2010-06-13T06:42:18.74</time>
<name>2289</name>
</trkpt>
<trkpt lat="49.197208" lon="11.706070">
<ele>583.4</ele>
<speed>4.7</speed>
<course>40.0</course>
<desc>Speed 4.7 km/h Distance 10.16 km</desc>
<time>2010-06-13T06:42:19.73</time>
<name>2290</name>
</trkpt>
<trkpt lat="49.197220" lon="11.706085">
<ele>582.2</ele>
<speed>3.8</speed>
<course>39.2</course>
<desc>Speed 3.8 km/h Distance 10.16 km</desc>
<time>2010-06-13T06:42:20.72</time>
<name>2291</name>
</trkpt>
<trkpt lat="49.197240" lon="11.706110">
<ele>581.5</ele>
<speed>6.2</speed>
<course>42.5</course>
<desc>Speed 6.2 km/h Distance 10.16 km</desc>
<time>2010-06-13T06:42:21.74</time>
<name>2292</name>
</trkpt>
<trkpt lat="49.197257" lon="11.706133">
<ele>580.6</ele>
<speed>5.5</speed>
<course>57.5</course>
<desc>Speed 5.5 km/h Distance 10.16 km</desc>
<time>2010-06-13T06:42:22.74</time>
<name>2293</name>
</trkpt>
<trkpt lat="49.197265" lon="11.706153">
<ele>579.5</ele>
<speed>5.4</speed>
<course>52.6</course>
<desc>Speed 5.4 km/h Distance 10.16 km</desc>
<time>2010-06-13T06:42:23.74</time>
<name>2294</name>
</trkpt>
<trkpt lat="49.197277" lon="11.706177">
<ele>579.4</ele>
<speed>5.1</speed>
<course>19.3</course>
<desc>Speed 5.1 km/h Distance 10.17 km</desc>
<time>2010-06-13T06:42:24.74</time>
<name>2295</name>
</trkpt>
<trkpt lat="49.197302" lon="11.706190">
<ele>578.2</ele>
<speed>6.7</speed>
<course>41.0</course>
<desc>Speed 6.7 km/h Distance 10.17 km</desc>
<time>2010-06-13T06:42:25.74</time>
<name>2296</name>
</trkpt>
<trkpt lat="49.197317" lon="11.706210">
<ele>578.4</ele>
<speed>7.2</speed>
<course>12.3</course>
<desc>Speed 7.2 km/h Distance 10.17 km</desc>
<time>2010-06-13T06:42:26.74</time>
<name>2297</name>
</trkpt>
<trkpt lat="49.197342" lon="11.706218">
<ele>578.0</ele>
<speed>5.9</speed>
<course>1.4</course>
<desc>Speed 5.9 km/h Distance 10.17 km</desc>
<time>2010-06-13T06:42:27.74</time>
<name>2298</name>
</trkpt>
<trkpt lat="49.197370" lon="11.706218">
<ele>577.1</ele>
<speed>4.2</speed>
<course>33.1</course>
<desc>Speed 4.2 km/h Distance 10.18 km</desc>
<time>2010-06-13T06:42:28.73</time>
<name>2299</name>
</trkpt>
<trkpt lat="49.197382" lon="11.706230">
<ele>577.6</ele>
<speed>3.3</speed>
<course>22.2</course>
<desc>Speed 3.3 km/h Distance 10.18 km</desc>
<time>2010-06-13T06:42:29.74</time>
<name>2300</name>
</trkpt>
<trkpt lat="49.197387" lon="11.706233">
<ele>577.6</ele>
<speed>3.3</speed>
<course>35.5</course>
<desc>Speed 3.3 km/h Distance 10.18 km</desc>
<time>2010-06-13T06:42:30.73</time>
<name>2301</name>
</trkpt>
<trkpt lat="49.197423" lon="11.706273">
<ele>578.3</ele>
<speed>5.5</speed>
<course>198.1</course>
<desc>Speed 5.5 km/h Distance 10.19 km</desc>
<time>2010-06-13T06:42:32.73</time>
<name>2302</name>
</trkpt>
<trkpt lat="49.197407" lon="11.706265">
<ele>579.9</ele>
<speed>2.9</speed>
<course>297.0</course>
<desc>Speed 2.9 km/h Distance 10.19 km</desc>
<time>2010-06-13T06:42:33.73</time>
<name>2303</name>
</trkpt>
<trkpt lat="49.197410" lon="11.706255">
<ele>582.0</ele>
<speed>4.0</speed>
<course>0.0</course>
<desc>Speed 4.0 km/h Distance 10.19 km</desc>
<time>2010-06-13T06:42:34.75</time>
<name>2304</name>
</trkpt>
<trkpt lat="49.197428" lon="11.706255">
<ele>583.6</ele>
<speed>3.7</speed>
<course>20.4</course>
<desc>Speed 3.7 km/h Distance 10.19 km</desc>
<time>2010-06-13T06:42:35.74</time>
<name>2305</name>
</trkpt>
<trkpt lat="49.197452" lon="11.706268">
<ele>583.3</ele>
<speed>5.7</speed>
<course>2.2</course>
<desc>Speed 5.7 km/h Distance 10.19 km</desc>
<time>2010-06-13T06:42:36.74</time>
<name>2306</name>
</trkpt>
<trkpt lat="49.197475" lon="11.706270">
<ele>582.0</ele>
<speed>6.3</speed>
<course>13.2</course>
<desc>Speed 6.3 km/h Distance 10.20 km</desc>
<time>2010-06-13T06:42:37.75</time>
<name>2307</name>
</trkpt>
<trkpt lat="49.197498" lon="11.706278">
<ele>579.9</ele>
<speed>6.0</speed>
<course>32.0</course>
<desc>Speed 6.0 km/h Distance 10.20 km</desc>
<time>2010-06-13T06:42:38.75</time>
<name>2308</name>
</trkpt>
<trkpt lat="49.197572" lon="11.706348">
<ele>577.0</ele>
<speed>10.7</speed>
<course>15.0</course>
<desc>Speed 10.7 km/h Distance 10.21 km</desc>
<time>2010-06-13T06:42:40.74</time>
<name>2309</name>
</trkpt>
<trkpt lat="49.197673" lon="11.706390">
<ele>578.1</ele>
<speed>13.5</speed>
<course>18.9</course>
<desc>Speed 13.5 km/h Distance 10.22 km</desc>
<time>2010-06-13T06:42:42.73</time>
<name>2310</name>
</trkpt>
<trkpt lat="49.197712" lon="11.706410">
<ele>580.7</ele>
<speed>13.8</speed>
<course>23.6</course>
<desc>Speed 13.8 km/h Distance 10.22 km</desc>
<time>2010-06-13T06:42:43.74</time>
<name>2311</name>
</trkpt>
<trkpt lat="49.197747" lon="11.706433">
<ele>581.2</ele>
<speed>12.6</speed>
<course>15.2</course>
<desc>Speed 12.6 km/h Distance 10.23 km</desc>
<time>2010-06-13T06:42:44.73</time>
<name>2312</name>
</trkpt>
<trkpt lat="49.197787" lon="11.706450">
<ele>580.7</ele>
<speed>11.7</speed>
<course>1.2</course>
<desc>Speed 11.7 km/h Distance 10.23 km</desc>
<time>2010-06-13T06:42:45.75</time>
<name>2313</name>
</trkpt>
<trkpt lat="49.197827" lon="11.706452">
<ele>580.1</ele>
<speed>10.5</speed>
<course>12.8</course>
<desc>Speed 10.5 km/h Distance 10.24 km</desc>
<time>2010-06-13T06:42:46.74</time>
<name>2314</name>
</trkpt>
<trkpt lat="49.197870" lon="11.706467">
<ele>577.3</ele>
<speed>10.1</speed>
<course>48.8</course>
<desc>Speed 10.1 km/h Distance 10.24 km</desc>
<time>2010-06-13T06:42:47.76</time>
<name>2315</name>
</trkpt>
<trkpt lat="49.197883" lon="11.706490">
<ele>575.7</ele>
<speed>9.0</speed>
<course>56.0</course>
<desc>Speed 9.0 km/h Distance 10.24 km</desc>
<time>2010-06-13T06:42:48.74</time>
<name>2316</name>
</trkpt>
<trkpt lat="49.197902" lon="11.706532">
<ele>574.1</ele>
<speed>8.6</speed>
<course>39.6</course>
<desc>Speed 8.6 km/h Distance 10.25 km</desc>
<time>2010-06-13T06:42:49.73</time>
<name>2317</name>
</trkpt>
<trkpt lat="49.197927" lon="11.706563">
<ele>573.7</ele>
<speed>10.0</speed>
<course>23.7</course>
<desc>Speed 10.0 km/h Distance 10.25 km</desc>
<time>2010-06-13T06:42:50.74</time>
<name>2318</name>
</trkpt>
<trkpt lat="49.198013" lon="11.706622">
<ele>578.6</ele>
<speed>11.7</speed>
<course>33.2</course>
<desc>Speed 11.7 km/h Distance 10.26 km</desc>
<time>2010-06-13T06:42:52.73</time>
<name>2319</name>
</trkpt>
<trkpt lat="49.198037" lon="11.706645">
<ele>580.0</ele>
<speed>10.8</speed>
<course>2.5</course>
<desc>Speed 10.8 km/h Distance 10.27 km</desc>
<time>2010-06-13T06:42:53.73</time>
<name>2320</name>
</trkpt>
<trkpt lat="49.198062" lon="11.706647">
<ele>580.6</ele>
<speed>10.2</speed>
<course>12.9</course>
<desc>Speed 10.2 km/h Distance 10.27 km</desc>
<time>2010-06-13T06:42:54.74</time>
<name>2321</name>
</trkpt>
<trkpt lat="49.198095" lon="11.706658">
<ele>581.6</ele>
<speed>8.5</speed>
<course>23.5</course>
<desc>Speed 8.5 km/h Distance 10.27 km</desc>
<time>2010-06-13T06:42:55.74</time>
<name>2322</name>
</trkpt>
<trkpt lat="49.198170" lon="11.706708">
<ele>579.2</ele>
<speed>8.3</speed>
<course>17.3</course>
<desc>Speed 8.3 km/h Distance 10.28 km</desc>
<time>2010-06-13T06:42:57.75</time>
<name>2323</name>
</trkpt>
<trkpt lat="49.198205" lon="11.706725">
<ele>579.1</ele>
<speed>12.6</speed>
<course>22.7</course>
<desc>Speed 12.6 km/h Distance 10.28 km</desc>
<time>2010-06-13T06:42:58.74</time>
<name>2324</name>
</trkpt>
<trkpt lat="49.198325" lon="11.706802">
<ele>579.8</ele>
<speed>15.7</speed>
<course>43.6</course>
<desc>Speed 15.7 km/h Distance 10.30 km</desc>
<time>2010-06-13T06:43:00.75</time>
<name>2325</name>
</trkpt>
<trkpt lat="49.198365" lon="11.706860">
<ele>578.1</ele>
<speed>13.8</speed>
<course>37.6</course>
<desc>Speed 13.8 km/h Distance 10.31 km</desc>
<time>2010-06-13T06:43:01.74</time>
<name>2326</name>
</trkpt>
<trkpt lat="49.198450" lon="11.706960">
<ele>571.4</ele>
<speed>11.2</speed>
<course>46.9</course>
<desc>Speed 11.2 km/h Distance 10.32 km</desc>
<time>2010-06-13T06:43:03.74</time>
<name>2327</name>
</trkpt>
<trkpt lat="49.198468" lon="11.706990">
<ele>572.1</ele>
<speed>9.9</speed>
<course>24.6</course>
<desc>Speed 9.9 km/h Distance 10.32 km</desc>
<time>2010-06-13T06:43:04.74</time>
<name>2328</name>
</trkpt>
<trkpt lat="49.198502" lon="11.707013">
<ele>573.3</ele>
<speed>10.8</speed>
<course>355.6</course>
<desc>Speed 10.8 km/h Distance 10.32 km</desc>
<time>2010-06-13T06:43:05.74</time>
<name>2329</name>
</trkpt>
<trkpt lat="49.198532" lon="11.707010">
<ele>576.1</ele>
<speed>9.7</speed>
<course>2.2</course>
<desc>Speed 9.7 km/h Distance 10.33 km</desc>
<time>2010-06-13T06:43:06.75</time>
<name>2330</name>
</trkpt>
<trkpt lat="49.198558" lon="11.707012">
<ele>573.8</ele>
<speed>10.7</speed>
<course>345.4</course>
<desc>Speed 10.7 km/h Distance 10.33 km</desc>
<time>2010-06-13T06:43:07.74</time>
<name>2331</name>
</trkpt>
<trkpt lat="49.198583" lon="11.707002">
<ele>575.1</ele>
<speed>9.4</speed>
<course>2.3</course>
<desc>Speed 9.4 km/h Distance 10.33 km</desc>
<time>2010-06-13T06:43:08.73</time>
<name>2332</name>
</trkpt>
<trkpt lat="49.198665" lon="11.707007">
<ele>575.3</ele>
<speed>8.6</speed>
<course>11.0</course>
<desc>Speed 8.6 km/h Distance 10.34 km</desc>
<time>2010-06-13T06:43:10.76</time>
<name>2333</name>
</trkpt>
<trkpt lat="49.198698" lon="11.707017">
<ele>576.5</ele>
<speed>7.6</speed>
<course>27.9</course>
<desc>Speed 7.6 km/h Distance 10.35 km</desc>
<time>2010-06-13T06:43:11.75</time>
<name>2334</name>
</trkpt>
<trkpt lat="49.198707" lon="11.707023">
<ele>577.5</ele>
<speed>4.5</speed>
<course>336.4</course>
<desc>Speed 4.5 km/h Distance 10.35 km</desc>
<time>2010-06-13T06:43:12.74</time>
<name>2335</name>
</trkpt>
<trkpt lat="49.198742" lon="11.707000">
<ele>577.6</ele>
<speed>3.5</speed>
<course>15.5</course>
<desc>Speed 3.5 km/h Distance 10.35 km</desc>
<time>2010-06-13T06:43:14.75</time>
<name>2336</name>
</trkpt>
<trkpt lat="49.198753" lon="11.707005">
<ele>578.9</ele>
<speed>4.5</speed>
<course>187.0</course>
<desc>Speed 4.5 km/h Distance 10.35 km</desc>
<time>2010-06-13T06:43:15.74</time>
<name>2337</name>
</trkpt>
<trkpt lat="49.198735" lon="11.707002">
<ele>576.9</ele>
<speed>4.1</speed>
<course>270.0</course>
<desc>Speed 4.1 km/h Distance 10.36 km</desc>
<time>2010-06-13T06:43:16.75</time>
<name>2338</name>
</trkpt>
<trkpt lat="49.198735" lon="11.706983">
<ele>577.4</ele>
<speed>4.4</speed>
<course>219.4</course>
<desc>Speed 4.4 km/h Distance 10.36 km</desc>
<time>2010-06-13T06:43:17.75</time>
<name>2339</name>
</trkpt>
<trkpt lat="49.198728" lon="11.706975">
<ele>577.3</ele>
<speed>2.8</speed>
<course>333.6</course>
<desc>Speed 2.8 km/h Distance 10.36 km</desc>
<time>2010-06-13T06:43:18.74</time>
<name>2340</name>
</trkpt>
<trkpt lat="49.198735" lon="11.706970">
<ele>577.3</ele>
<speed>2.4</speed>
<course>253.0</course>
<desc>Speed 2.4 km/h Distance 10.36 km</desc>
<time>2010-06-13T06:43:19.73</time>
<name>2341</name>
</trkpt>
<trkpt lat="49.198732" lon="11.706953">
<ele>578.4</ele>
<speed>3.0</speed>
<course>207.8</course>
<desc>Speed 3.0 km/h Distance 10.36 km</desc>
<time>2010-06-13T06:43:20.75</time>
<name>2342</name>
</trkpt>
<trkpt lat="49.198688" lon="11.706918">
<ele>573.9</ele>
<speed>4.2</speed>
<course>76.1</course>
<desc>Speed 4.2 km/h Distance 10.37 km</desc>
<time>2010-06-13T06:43:25.73</time>
<name>2343</name>
</trkpt>
<trkpt lat="49.198698" lon="11.706980">
<ele>571.9</ele>
<speed>5.9</speed>
<course>80.6</course>
<desc>Speed 5.9 km/h Distance 10.37 km</desc>
<time>2010-06-13T06:43:27.75</time>
<name>2344</name>
</trkpt>
<trkpt lat="49.198713" lon="11.707118">
<ele>570.3</ele>
<speed>11.6</speed>
<course>94.7</course>
<desc>Speed 11.6 km/h Distance 10.38 km</desc>
<time>2010-06-13T06:43:29.74</time>
<name>2345</name>
</trkpt>
<trkpt lat="49.198710" lon="11.707180">
<ele>567.7</ele>
<speed>9.5</speed>
<course>99.7</course>
<desc>Speed 9.5 km/h Distance 10.38 km</desc>
<time>2010-06-13T06:43:30.75</time>
<name>2346</name>
</trkpt>
<trkpt lat="49.198705" lon="11.707225">
<ele>565.8</ele>
<speed>7.8</speed>
<course>36.7</course>
<desc>Speed 7.8 km/h Distance 10.39 km</desc>
<time>2010-06-13T06:43:31.74</time>
<name>2347</name>
</trkpt>
<trkpt lat="49.198728" lon="11.707252">
<ele>570.2</ele>
<speed>8.0</speed>
<course>33.8</course>
<desc>Speed 8.0 km/h Distance 10.39 km</desc>
<time>2010-06-13T06:43:32.76</time>
<name>2348</name>
</trkpt>
<trkpt lat="49.198792" lon="11.707317">
<ele>571.7</ele>
<speed>9.8</speed>
<course>83.1</course>
<desc>Speed 9.8 km/h Distance 10.40 km</desc>
<time>2010-06-13T06:43:34.73</time>
<name>2349</name>
</trkpt>
<trkpt lat="49.198797" lon="11.707380">
<ele>571.1</ele>
<speed>11.4</speed>
<course>78.8</course>
<desc>Speed 11.4 km/h Distance 10.40 km</desc>
<time>2010-06-13T06:43:35.74</time>
<name>2350</name>
</trkpt>
<trkpt lat="49.198803" lon="11.707432">
<ele>569.5</ele>
<speed>10.8</speed>
<course>80.4</course>
<desc>Speed 10.8 km/h Distance 10.41 km</desc>
<time>2010-06-13T06:43:36.74</time>
<name>2351</name>
</trkpt>
<trkpt lat="49.198810" lon="11.707492">
<ele>570.5</ele>
<speed>10.9</speed>
<course>84.7</course>
<desc>Speed 10.9 km/h Distance 10.41 km</desc>
<time>2010-06-13T06:43:37.74</time>
<name>2352</name>
</trkpt>
<trkpt lat="49.198813" lon="11.707547">
<ele>570.4</ele>
<speed>10.7</speed>
<course>58.1</course>
<desc>Speed 10.7 km/h Distance 10.42 km</desc>
<time>2010-06-13T06:43:38.73</time>
<name>2353</name>
</trkpt>
<trkpt lat="49.198835" lon="11.707600">
<ele>571.9</ele>
<speed>10.1</speed>
<course>60.2</course>
<desc>Speed 10.1 km/h Distance 10.42 km</desc>
<time>2010-06-13T06:43:39.74</time>
<name>2354</name>
</trkpt>
<trkpt lat="49.198850" lon="11.707640">
<ele>572.5</ele>
<speed>8.7</speed>
<course>84.9</course>
<desc>Speed 8.7 km/h Distance 10.42 km</desc>
<time>2010-06-13T06:43:40.74</time>
<name>2355</name>
</trkpt>
<trkpt lat="49.198852" lon="11.707668">
<ele>573.8</ele>
<speed>8.3</speed>
<course>98.7</course>
<desc>Speed 8.3 km/h Distance 10.43 km</desc>
<time>2010-06-13T06:43:41.75</time>
<name>2356</name>
</trkpt>
<trkpt lat="49.198847" lon="11.707718">
<ele>574.2</ele>
<speed>7.9</speed>
<course>80.4</course>
<desc>Speed 7.9 km/h Distance 10.43 km</desc>
<time>2010-06-13T06:43:42.74</time>
<name>2357</name>
</trkpt>
<trkpt lat="49.198852" lon="11.707763">
<ele>574.4</ele>
<speed>8.4</speed>
<course>66.9</course>
<desc>Speed 8.4 km/h Distance 10.43 km</desc>
<time>2010-06-13T06:43:43.76</time>
<name>2358</name>
</trkpt>
<trkpt lat="49.198880" lon="11.707865">
<ele>575.7</ele>
<speed>8.4</speed>
<course>56.2</course>
<desc>Speed 8.4 km/h Distance 10.44 km</desc>
<time>2010-06-13T06:43:45.74</time>
<name>2359</name>
</trkpt>
<trkpt lat="49.198892" lon="11.707892">
<ele>576.3</ele>
<speed>7.6</speed>
<course>78.1</course>
<desc>Speed 7.6 km/h Distance 10.44 km</desc>
<time>2010-06-13T06:43:46.73</time>
<name>2360</name>
</trkpt>
<trkpt lat="49.198898" lon="11.707940">
<ele>579.3</ele>
<speed>8.9</speed>
<course>96.7</course>
<desc>Speed 8.9 km/h Distance 10.45 km</desc>
<time>2010-06-13T06:43:47.75</time>
<name>2361</name>
</trkpt>
<trkpt lat="49.198895" lon="11.707983">
<ele>582.5</ele>
<speed>7.5</speed>
<course>68.4</course>
<desc>Speed 7.5 km/h Distance 10.45 km</desc>
<time>2010-06-13T06:43:48.75</time>
<name>2362</name>
</trkpt>
<trkpt lat="49.198907" lon="11.708028">
<ele>583.8</ele>
<speed>8.7</speed>
<course>70.9</course>
<desc>Speed 8.7 km/h Distance 10.45 km</desc>
<time>2010-06-13T06:43:49.74</time>
<name>2363</name>
</trkpt>
<trkpt lat="49.198935" lon="11.708153">
<ele>580.6</ele>
<speed>11.8</speed>
<course>72.8</course>
<desc>Speed 11.8 km/h Distance 10.46 km</desc>
<time>2010-06-13T06:43:51.73</time>
<name>2364</name>
</trkpt>
<trkpt lat="49.198963" lon="11.708293">
<ele>576.6</ele>
<speed>14.0</speed>
<course>76.6</course>
<desc>Speed 14.0 km/h Distance 10.47 km</desc>
<time>2010-06-13T06:43:53.74</time>
<name>2365</name>
</trkpt>
<trkpt lat="49.198975" lon="11.708368">
<ele>576.7</ele>
<speed>13.9</speed>
<course>81.7</course>
<desc>Speed 13.9 km/h Distance 10.48 km</desc>
<time>2010-06-13T06:43:54.74</time>
<name>2366</name>
</trkpt>
<trkpt lat="49.198982" lon="11.708438">
<ele>576.9</ele>
<speed>14.4</speed>
<course>92.6</course>
<desc>Speed 14.4 km/h Distance 10.49 km</desc>
<time>2010-06-13T06:43:55.73</time>
<name>2367</name>
</trkpt>
<trkpt lat="49.198980" lon="11.708495">
<ele>576.9</ele>
<speed>12.5</speed>
<course>62.0</course>
<desc>Speed 12.5 km/h Distance 10.49 km</desc>
<time>2010-06-13T06:43:56.75</time>
<name>2368</name>
</trkpt>
<trkpt lat="49.198993" lon="11.708533">
<ele>576.4</ele>
<speed>10.0</speed>
<course>56.4</course>
<desc>Speed 10.0 km/h Distance 10.49 km</desc>
<time>2010-06-13T06:43:57.74</time>
<name>2369</name>
</trkpt>
<trkpt lat="49.199010" lon="11.708572">
<ele>577.7</ele>
<speed>11.9</speed>
<course>56.7</course>
<desc>Speed 11.9 km/h Distance 10.50 km</desc>
<time>2010-06-13T06:43:58.73</time>
<name>2370</name>
</trkpt>
<trkpt lat="49.199030" lon="11.708618">
<ele>579.4</ele>
<speed>10.2</speed>
<course>76.4</course>
<desc>Speed 10.2 km/h Distance 10.50 km</desc>
<time>2010-06-13T06:43:59.74</time>
<name>2371</name>
</trkpt>
<trkpt lat="49.199035" lon="11.708650">
<ele>581.9</ele>
<speed>7.8</speed>
<course>76.2</course>
<desc>Speed 7.8 km/h Distance 10.50 km</desc>
<time>2010-06-13T06:44:00.75</time>
<name>2372</name>
</trkpt>
<trkpt lat="49.199042" lon="11.708692">
<ele>584.9</ele>
<speed>6.8</speed>
<course>116.0</course>
<desc>Speed 6.8 km/h Distance 10.51 km</desc>
<time>2010-06-13T06:44:01.73</time>
<name>2373</name>
</trkpt>
<trkpt lat="49.199030" lon="11.708728">
<ele>586.0</ele>
<speed>6.0</speed>
<course>90.0</course>
<desc>Speed 6.0 km/h Distance 10.51 km</desc>
<time>2010-06-13T06:44:02.74</time>
<name>2374</name>
</trkpt>
<trkpt lat="49.199030" lon="11.708758">
<ele>587.9</ele>
<speed>4.6</speed>
<course>144.7</course>
<desc>Speed 4.6 km/h Distance 10.51 km</desc>
<time>2010-06-13T06:44:03.74</time>
<name>2375</name>
</trkpt>
<trkpt lat="49.199010" lon="11.708780">
<ele>588.6</ele>
<speed>4.9</speed>
<course>132.6</course>
<desc>Speed 4.9 km/h Distance 10.51 km</desc>
<time>2010-06-13T06:44:04.74</time>
<name>2376</name>
</trkpt>
<trkpt lat="49.199000" lon="11.708797">
<ele>590.9</ele>
<speed>3.8</speed>
<course>90.0</course>
<desc>Speed 3.8 km/h Distance 10.51 km</desc>
<time>2010-06-13T06:44:05.74</time>
<name>2377</name>
</trkpt>
<trkpt lat="49.199000" lon="11.708798">
<ele>590.7</ele>
<speed>2.2</speed>
<course>85.6</course>
<desc>Speed 2.2 km/h Distance 10.52 km</desc>
<time>2010-06-13T06:44:06.73</time>
<name>2378</name>
</trkpt>
<trkpt lat="49.199002" lon="11.708832">
<ele>593.3</ele>
<speed>4.8</speed>
<course>69.1</course>
<desc>Speed 4.8 km/h Distance 10.52 km</desc>
<time>2010-06-13T06:44:07.74</time>
<name>2379</name>
</trkpt>
<trkpt lat="49.199010" lon="11.708865">
<ele>597.9</ele>
<speed>5.4</speed>
<course>71.3</course>
<desc>Speed 5.4 km/h Distance 10.52 km</desc>
<time>2010-06-13T06:44:08.74</time>
<name>2380</name>
</trkpt>
<trkpt lat="49.199013" lon="11.708880">
<ele>602.2</ele>
<speed>3.7</speed>
<course>146.8</course>
<desc>Speed 3.7 km/h Distance 10.52 km</desc>
<time>2010-06-13T06:44:09.75</time>
<name>2381</name>
</trkpt>
<trkpt lat="49.198997" lon="11.708897">
<ele>602.8</ele>
<speed>1.2</speed>
<course>138.6</course>
<desc>Speed 1.2 km/h Distance 10.52 km</desc>
<time>2010-06-13T06:44:10.74</time>
<name>2382</name>
</trkpt>
<trkpt lat="49.198992" lon="11.708903">
<ele>603.6</ele>
<speed>0.4</speed>
<course>36.0</course>
<desc>Speed 0.4 km/h Distance 10.52 km</desc>
<time>2010-06-13T06:44:11.74</time>
<name>2383</name>
</trkpt>
<trkpt lat="49.199007" lon="11.708920">
<ele>606.3</ele>
<speed>2.4</speed>
<course>30.6</course>
<desc>Speed 2.4 km/h Distance 10.53 km</desc>
<time>2010-06-13T06:44:12.74</time>
<name>2384</name>
</trkpt>
<trkpt lat="49.199023" lon="11.708935">
<ele>607.4</ele>
<speed>3.4</speed>
<course>95.5</course>
<desc>Speed 3.4 km/h Distance 10.53 km</desc>
<time>2010-06-13T06:44:13.74</time>
<name>2385</name>
</trkpt>
<trkpt lat="49.199022" lon="11.708962">
<ele>608.8</ele>
<speed>3.6</speed>
<course>140.0</course>
<desc>Speed 3.6 km/h Distance 10.53 km</desc>
<time>2010-06-13T06:44:14.75</time>
<name>2386</name>
</trkpt>
<trkpt lat="49.199010" lon="11.708977">
<ele>608.8</ele>
<speed>2.6</speed>
<course>68.1</course>
<desc>Speed 2.6 km/h Distance 10.53 km</desc>
<time>2010-06-13T06:44:15.74</time>
<name>2387</name>
</trkpt>
<trkpt lat="49.199018" lon="11.709008">
<ele>609.9</ele>
<speed>3.4</speed>
<course>55.6</course>
<desc>Speed 3.4 km/h Distance 10.53 km</desc>
<time>2010-06-13T06:44:16.74</time>
<name>2388</name>
</trkpt>
<trkpt lat="49.199047" lon="11.709072">
<ele>611.6</ele>
<speed>5.5</speed>
<course>118.7</course>
<desc>Speed 5.5 km/h Distance 10.54 km</desc>
<time>2010-06-13T06:44:18.75</time>
<name>2389</name>
</trkpt>
<trkpt lat="49.199038" lon="11.709095">
<ele>611.6</ele>
<speed>4.5</speed>
<course>118.7</course>
<desc>Speed 4.5 km/h Distance 10.54 km</desc>
<time>2010-06-13T06:44:19.74</time>
<name>2390</name>
</trkpt>
<trkpt lat="49.199030" lon="11.709118">
<ele>611.6</ele>
<speed>3.7</speed>
<course>107.9</course>
<desc>Speed 3.7 km/h Distance 10.54 km</desc>
<time>2010-06-13T06:44:20.74</time>
<name>2391</name>
</trkpt>
<trkpt lat="49.199023" lon="11.709150">
<ele>610.5</ele>
<speed>4.6</speed>
<course>74.5</course>
<desc>Speed 4.6 km/h Distance 10.55 km</desc>
<time>2010-06-13T06:44:21.73</time>
<name>2392</name>
</trkpt>
<trkpt lat="49.199043" lon="11.709260">
<ele>601.6</ele>
<speed>4.9</speed>
<course>76.8</course>
<desc>Speed 4.9 km/h Distance 10.55 km</desc>
<time>2010-06-13T06:44:23.74</time>
<name>2393</name>
</trkpt>
<trkpt lat="49.199050" lon="11.709303">
<ele>600.3</ele>
<speed>6.8</speed>
<course>74.2</course>
<desc>Speed 6.8 km/h Distance 10.56 km</desc>
<time>2010-06-13T06:44:24.74</time>
<name>2394</name>
</trkpt>
<trkpt lat="49.199058" lon="11.709348">
<ele>598.6</ele>
<speed>6.2</speed>
<course>79.6</course>
<desc>Speed 6.2 km/h Distance 10.56 km</desc>
<time>2010-06-13T06:44:25.73</time>
<name>2395</name>
</trkpt>
<trkpt lat="49.199063" lon="11.709390">
<ele>596.2</ele>
<speed>6.0</speed>
<course>97.6</course>
<desc>Speed 6.0 km/h Distance 10.56 km</desc>
<time>2010-06-13T06:44:26.75</time>
<name>2396</name>
</trkpt>
<trkpt lat="49.199060" lon="11.709428">
<ele>593.3</ele>
<speed>4.8</speed>
<course>101.8</course>
<desc>Speed 4.8 km/h Distance 10.57 km</desc>
<time>2010-06-13T06:44:27.75</time>
<name>2397</name>
</trkpt>
<trkpt lat="49.199055" lon="11.709465">
<ele>593.2</ele>
<speed>4.7</speed>
<course>99.1</course>
<desc>Speed 4.7 km/h Distance 10.57 km</desc>
<time>2010-06-13T06:44:28.74</time>
<name>2398</name>
</trkpt>
<trkpt lat="49.199052" lon="11.709497">
<ele>593.2</ele>
<speed>5.1</speed>
<course>54.5</course>
<desc>Speed 5.1 km/h Distance 10.57 km</desc>
<time>2010-06-13T06:44:29.73</time>
<name>2399</name>
</trkpt>
<trkpt lat="49.199063" lon="11.709522">
<ele>593.2</ele>
<speed>5.1</speed>
<course>107.3</course>
<desc>Speed 5.1 km/h Distance 10.57 km</desc>
<time>2010-06-13T06:44:30.73</time>
<name>2400</name>
</trkpt>
<trkpt lat="49.199047" lon="11.709603">
<ele>583.0</ele>
<speed>4.8</speed>
<course>135.6</course>
<desc>Speed 4.8 km/h Distance 10.58 km</desc>
<time>2010-06-13T06:44:32.74</time>
<name>2401</name>
</trkpt>
<trkpt lat="49.199027" lon="11.709633">
<ele>582.5</ele>
<speed>5.7</speed>
<course>95.1</course>
<desc>Speed 5.7 km/h Distance 10.58 km</desc>
<time>2010-06-13T06:44:33.74</time>
<name>2402</name>
</trkpt>
<trkpt lat="49.199022" lon="11.709718">
<ele>581.6</ele>
<speed>3.6</speed>
<course>90.0</course>
<desc>Speed 3.6 km/h Distance 10.59 km</desc>
<time>2010-06-13T06:44:35.74</time>
<name>2403</name>
</trkpt>
<trkpt lat="49.199022" lon="11.709783">
<ele>579.3</ele>
<speed>4.0</speed>
<course>29.8</course>
<desc>Speed 4.0 km/h Distance 10.59 km</desc>
<time>2010-06-13T06:44:37.74</time>
<name>2404</name>
</trkpt>
<trkpt lat="49.199035" lon="11.709795">
<ele>579.3</ele>
<speed>3.3</speed>
<course>40.0</course>
<desc>Speed 3.3 km/h Distance 10.60 km</desc>
<time>2010-06-13T06:44:38.73</time>
<name>2405</name>
</trkpt>
<trkpt lat="49.199047" lon="11.709810">
<ele>580.3</ele>
<speed>2.7</speed>
<course>26.1</course>
<desc>Speed 2.7 km/h Distance 10.60 km</desc>
<time>2010-06-13T06:44:39.74</time>
<name>2406</name>
</trkpt>
<trkpt lat="49.199067" lon="11.709825">
<ele>579.1</ele>
<speed>2.4</speed>
<course>52.6</course>
<desc>Speed 2.4 km/h Distance 10.60 km</desc>
<time>2010-06-13T06:44:40.73</time>
<name>2407</name>
</trkpt>
<trkpt lat="49.199078" lon="11.709848">
<ele>580.6</ele>
<speed>4.6</speed>
<course>53.9</course>
<desc>Speed 4.6 km/h Distance 10.60 km</desc>
<time>2010-06-13T06:44:41.75</time>
<name>2408</name>
</trkpt>
<trkpt lat="49.199095" lon="11.709883">
<ele>581.0</ele>
<speed>5.7</speed>
<course>69.1</course>
<desc>Speed 5.7 km/h Distance 10.61 km</desc>
<time>2010-06-13T06:44:42.74</time>
<name>2409</name>
</trkpt>
<trkpt lat="49.199103" lon="11.709917">
<ele>579.9</ele>
<speed>5.9</speed>
<course>52.6</course>
<desc>Speed 5.9 km/h Distance 10.61 km</desc>
<time>2010-06-13T06:44:43.75</time>
<name>2410</name>
</trkpt>
<trkpt lat="49.199120" lon="11.709950">
<ele>579.6</ele>
<speed>6.3</speed>
<course>56.5</course>
<desc>Speed 6.3 km/h Distance 10.61 km</desc>
<time>2010-06-13T06:44:44.73</time>
<name>2411</name>
</trkpt>
<trkpt lat="49.199152" lon="11.710023">
<ele>577.6</ele>
<speed>7.4</speed>
<course>87.2</course>
<desc>Speed 7.4 km/h Distance 10.62 km</desc>
<time>2010-06-13T06:44:46.75</time>
<name>2412</name>
</trkpt>
<trkpt lat="49.199153" lon="11.710075">
<ele>577.6</ele>
<speed>6.8</speed>
<course>73.6</course>
<desc>Speed 6.8 km/h Distance 10.62 km</desc>
<time>2010-06-13T06:44:47.75</time>
<name>2413</name>
</trkpt>
<trkpt lat="49.199162" lon="11.710118">
<ele>578.9</ele>
<speed>6.8</speed>
<course>76.8</course>
<desc>Speed 6.8 km/h Distance 10.63 km</desc>
<time>2010-06-13T06:44:48.74</time>
<name>2414</name>
</trkpt>
<trkpt lat="49.199168" lon="11.710162">
<ele>578.8</ele>
<speed>6.9</speed>
<course>97.3</course>
<desc>Speed 6.9 km/h Distance 10.63 km</desc>
<time>2010-06-13T06:44:49.74</time>
<name>2415</name>
</trkpt>
<trkpt lat="49.199165" lon="11.710202">
<ele>579.9</ele>
<speed>6.2</speed>
<course>73.7</course>
<desc>Speed 6.2 km/h Distance 10.63 km</desc>
<time>2010-06-13T06:44:50.74</time>
<name>2416</name>
</trkpt>
<trkpt lat="49.199172" lon="11.710237">
<ele>580.6</ele>
<speed>6.7</speed>
<course>66.8</course>
<desc>Speed 6.7 km/h Distance 10.63 km</desc>
<time>2010-06-13T06:44:51.74</time>
<name>2417</name>
</trkpt>
<trkpt lat="49.199183" lon="11.710278">
<ele>580.5</ele>
<speed>8.0</speed>
<course>53.7</course>
<desc>Speed 8.0 km/h Distance 10.64 km</desc>
<time>2010-06-13T06:44:52.74</time>
<name>2418</name>
</trkpt>
<trkpt lat="49.199203" lon="11.710320">
<ele>582.0</ele>
<speed>7.5</speed>
<course>84.9</course>
<desc>Speed 7.5 km/h Distance 10.64 km</desc>
<time>2010-06-13T06:44:53.73</time>
<name>2419</name>
</trkpt>
<trkpt lat="49.199207" lon="11.710377">
<ele>583.5</ele>
<speed>7.8</speed>
<course>58.3</course>
<desc>Speed 7.8 km/h Distance 10.65 km</desc>
<time>2010-06-13T06:44:54.74</time>
<name>2420</name>
</trkpt>
<trkpt lat="49.199245" lon="11.710472">
<ele>579.3</ele>
<speed>10.1</speed>
<course>74.0</course>
<desc>Speed 10.1 km/h Distance 10.65 km</desc>
<time>2010-06-13T06:44:56.76</time>
<name>2421</name>
</trkpt>
<trkpt lat="49.199255" lon="11.710525">
<ele>580.6</ele>
<speed>10.4</speed>
<course>83.8</course>
<desc>Speed 10.4 km/h Distance 10.66 km</desc>
<time>2010-06-13T06:44:57.74</time>
<name>2422</name>
</trkpt>
<trkpt lat="49.199258" lon="11.710572">
<ele>581.7</ele>
<speed>8.9</speed>
<course>80.0</course>
<desc>Speed 8.9 km/h Distance 10.66 km</desc>
<time>2010-06-13T06:44:58.73</time>
<name>2423</name>
</trkpt>
<trkpt lat="49.199263" lon="11.710615">
<ele>582.6</ele>
<speed>9.0</speed>
<course>97.9</course>
<desc>Speed 9.0 km/h Distance 10.66 km</desc>
<time>2010-06-13T06:44:59.73</time>
<name>2424</name>
</trkpt>
<trkpt lat="49.199252" lon="11.710743">
<ele>587.2</ele>
<speed>7.5</speed>
<course>73.5</course>
<desc>Speed 7.5 km/h Distance 10.67 km</desc>
<time>2010-06-13T06:45:01.73</time>
<name>2425</name>
</trkpt>
<trkpt lat="49.199270" lon="11.710838">
<ele>584.1</ele>
<speed>6.2</speed>
<course>37.7</course>
<desc>Speed 6.2 km/h Distance 10.68 km</desc>
<time>2010-06-13T06:45:03.72</time>
<name>2426</name>
</trkpt>
<trkpt lat="49.199288" lon="11.710860">
<ele>584.7</ele>
<speed>6.9</speed>
<course>61.6</course>
<desc>Speed 6.9 km/h Distance 10.68 km</desc>
<time>2010-06-13T06:45:04.73</time>
<name>2427</name>
</trkpt>
<trkpt lat="49.199298" lon="11.710888">
<ele>585.7</ele>
<speed>7.4</speed>
<course>90.0</course>
<desc>Speed 7.4 km/h Distance 10.69 km</desc>
<time>2010-06-13T06:45:05.73</time>
<name>2428</name>
</trkpt>
<trkpt lat="49.199298" lon="11.710920">
<ele>586.6</ele>
<speed>8.2</speed>
<course>49.1</course>
<desc>Speed 8.2 km/h Distance 10.69 km</desc>
<time>2010-06-13T06:45:06.72</time>
<name>2429</name>
</trkpt>
<trkpt lat="49.199320" lon="11.710958">
<ele>588.2</ele>
<speed>9.0</speed>
<course>74.4</course>
<desc>Speed 9.0 km/h Distance 10.69 km</desc>
<time>2010-06-13T06:45:07.73</time>
<name>2430</name>
</trkpt>
<trkpt lat="49.199327" lon="11.710995">
<ele>589.5</ele>
<speed>8.3</speed>
<course>33.2</course>
<desc>Speed 8.3 km/h Distance 10.69 km</desc>
<time>2010-06-13T06:45:08.73</time>
<name>2431</name>
</trkpt>
<trkpt lat="49.199352" lon="11.711020">
<ele>589.4</ele>
<speed>8.2</speed>
<course>30.9</course>
<desc>Speed 8.2 km/h Distance 10.70 km</desc>
<time>2010-06-13T06:45:09.73</time>
<name>2432</name>
</trkpt>
<trkpt lat="49.199372" lon="11.711038">
<ele>590.3</ele>
<speed>8.0</speed>
<course>39.7</course>
<desc>Speed 8.0 km/h Distance 10.70 km</desc>
<time>2010-06-13T06:45:10.73</time>
<name>2433</name>
</trkpt>
<trkpt lat="49.199390" lon="11.711062">
<ele>591.6</ele>
<speed>8.4</speed>
<course>47.4</course>
<desc>Speed 8.4 km/h Distance 10.70 km</desc>
<time>2010-06-13T06:45:11.74</time>
<name>2434</name>
</trkpt>
<trkpt lat="49.199415" lon="11.711103">
<ele>591.2</ele>
<speed>8.3</speed>
<course>65.0</course>
<desc>Speed 8.3 km/h Distance 10.71 km</desc>
<time>2010-06-13T06:45:12.73</time>
<name>2435</name>
</trkpt>
<trkpt lat="49.199427" lon="11.711142">
<ele>590.7</ele>
<speed>9.9</speed>
<course>80.0</course>
<desc>Speed 9.9 km/h Distance 10.71 km</desc>
<time>2010-06-13T06:45:13.73</time>
<name>2436</name>
</trkpt>
<trkpt lat="49.199432" lon="11.711185">
<ele>588.5</ele>
<speed>8.2</speed>
<course>55.8</course>
<desc>Speed 8.2 km/h Distance 10.71 km</desc>
<time>2010-06-13T06:45:14.73</time>
<name>2437</name>
</trkpt>
<trkpt lat="49.199445" lon="11.711215">
<ele>584.5</ele>
<speed>8.6</speed>
<course>53.7</course>
<desc>Speed 8.6 km/h Distance 10.72 km</desc>
<time>2010-06-13T06:45:15.74</time>
<name>2438</name>
</trkpt>
<trkpt lat="49.199487" lon="11.711302">
<ele>582.4</ele>
<speed>10.3</speed>
<course>56.7</course>
<desc>Speed 10.3 km/h Distance 10.72 km</desc>
<time>2010-06-13T06:45:17.74</time>
<name>2439</name>
</trkpt>
<trkpt lat="49.199507" lon="11.711348">
<ele>582.1</ele>
<speed>9.9</speed>
<course>69.4</course>
<desc>Speed 9.9 km/h Distance 10.73 km</desc>
<time>2010-06-13T06:45:18.72</time>
<name>2440</name>
</trkpt>
<trkpt lat="49.199533" lon="11.711457">
<ele>583.1</ele>
<speed>7.9</speed>
<course>56.4</course>
<desc>Speed 7.9 km/h Distance 10.74 km</desc>
<time>2010-06-13T06:45:20.72</time>
<name>2441</name>
</trkpt>
<trkpt lat="49.199550" lon="11.711495">
<ele>582.1</ele>
<speed>6.9</speed>
<course>19.0</course>
<desc>Speed 6.9 km/h Distance 10.74 km</desc>
<time>2010-06-13T06:45:21.75</time>
<name>2442</name>
</trkpt>
<trkpt lat="49.199582" lon="11.711512">
<ele>580.1</ele>
<speed>8.7</speed>
<course>37.3</course>
<desc>Speed 8.7 km/h Distance 10.74 km</desc>
<time>2010-06-13T06:45:22.74</time>
<name>2443</name>
</trkpt>
<trkpt lat="49.199602" lon="11.711535">
<ele>578.6</ele>
<speed>8.0</speed>
<course>51.3</course>
<desc>Speed 8.0 km/h Distance 10.75 km</desc>
<time>2010-06-13T06:45:23.73</time>
<name>2444</name>
</trkpt>
<trkpt lat="49.199620" lon="11.711570">
<ele>576.7</ele>
<speed>7.4</speed>
<course>74.4</course>
<desc>Speed 7.4 km/h Distance 10.75 km</desc>
<time>2010-06-13T06:45:24.73</time>
<name>2445</name>
</trkpt>
<trkpt lat="49.199627" lon="11.711607">
<ele>577.0</ele>
<speed>6.5</speed>
<course>70.6</course>
<desc>Speed 6.5 km/h Distance 10.75 km</desc>
<time>2010-06-13T06:45:25.73</time>
<name>2446</name>
</trkpt>
<trkpt lat="49.199637" lon="11.711650">
<ele>575.4</ele>
<speed>8.0</speed>
<course>87.0</course>
<desc>Speed 8.0 km/h Distance 10.76 km</desc>
<time>2010-06-13T06:45:26.75</time>
<name>2447</name>
</trkpt>
<trkpt lat="49.199638" lon="11.711698">
<ele>574.3</ele>
<speed>8.5</speed>
<course>93.9</course>
<desc>Speed 8.5 km/h Distance 10.76 km</desc>
<time>2010-06-13T06:45:27.73</time>
<name>2448</name>
</trkpt>
<trkpt lat="49.199633" lon="11.711810">
<ele>576.5</ele>
<speed>7.6</speed>
<course>82.8</course>
<desc>Speed 7.6 km/h Distance 10.77 km</desc>
<time>2010-06-13T06:45:29.74</time>
<name>2449</name>
</trkpt>
<trkpt lat="49.199643" lon="11.711932">
<ele>572.8</ele>
<speed>10.7</speed>
<course>65.1</course>
<desc>Speed 10.7 km/h Distance 10.78 km</desc>
<time>2010-06-13T06:45:31.73</time>
<name>2450</name>
</trkpt>
<trkpt lat="49.199677" lon="11.712042">
<ele>575.3</ele>
<speed>11.5</speed>
<course>83.5</course>
<desc>Speed 11.5 km/h Distance 10.78 km</desc>
<time>2010-06-13T06:45:33.73</time>
<name>2451</name>
</trkpt>
<trkpt lat="49.199682" lon="11.712108">
<ele>574.5</ele>
<speed>11.6</speed>
<course>63.0</course>
<desc>Speed 11.6 km/h Distance 10.79 km</desc>
<time>2010-06-13T06:45:34.74</time>
<name>2452</name>
</trkpt>
<trkpt lat="49.199702" lon="11.712168">
<ele>574.3</ele>
<speed>11.9</speed>
<course>77.4</course>
<desc>Speed 11.9 km/h Distance 10.79 km</desc>
<time>2010-06-13T06:45:35.74</time>
<name>2453</name>
</trkpt>
<trkpt lat="49.199712" lon="11.712237">
<ele>574.1</ele>
<speed>11.1</speed>
<course>66.7</course>
<desc>Speed 11.1 km/h Distance 10.80 km</desc>
<time>2010-06-13T06:45:36.74</time>
<name>2454</name>
</trkpt>
<trkpt lat="49.199748" lon="11.712367">
<ele>574.4</ele>
<speed>11.2</speed>
<course>66.1</course>
<desc>Speed 11.2 km/h Distance 10.81 km</desc>
<time>2010-06-13T06:45:38.73</time>
<name>2455</name>
</trkpt>
<trkpt lat="49.199767" lon="11.712430">
<ele>574.6</ele>
<speed>10.3</speed>
<course>54.8</course>
<desc>Speed 10.3 km/h Distance 10.81 km</desc>
<time>2010-06-13T06:45:39.75</time>
<name>2456</name>
</trkpt>
<trkpt lat="49.199787" lon="11.712473">
<ele>574.6</ele>
<speed>9.4</speed>
<course>76.4</course>
<desc>Speed 9.4 km/h Distance 10.82 km</desc>
<time>2010-06-13T06:45:40.73</time>
<name>2457</name>
</trkpt>
<trkpt lat="49.199792" lon="11.712505">
<ele>574.9</ele>
<speed>7.5</speed>
<course>63.3</course>
<desc>Speed 7.5 km/h Distance 10.82 km</desc>
<time>2010-06-13T06:45:41.74</time>
<name>2458</name>
</trkpt>
<trkpt lat="49.199828" lon="11.712617">
<ele>571.2</ele>
<speed>7.2</speed>
<course>52.6</course>
<desc>Speed 7.2 km/h Distance 10.83 km</desc>
<time>2010-06-13T06:45:43.74</time>
<name>2459</name>
</trkpt>
<trkpt lat="49.199848" lon="11.712657">
<ele>569.7</ele>
<speed>6.9</speed>
<course>83.4</course>
<desc>Speed 6.9 km/h Distance 10.83 km</desc>
<time>2010-06-13T06:45:44.74</time>
<name>2460</name>
</trkpt>
<trkpt lat="49.199857" lon="11.712767">
<ele>569.4</ele>
<speed>6.6</speed>
<course>63.8</course>
<desc>Speed 6.6 km/h Distance 10.84 km</desc>
<time>2010-06-13T06:45:46.73</time>
<name>2461</name>
</trkpt>
<trkpt lat="49.199872" lon="11.712813">
<ele>568.9</ele>
<speed>5.7</speed>
<course>44.4</course>
<desc>Speed 5.7 km/h Distance 10.85 km</desc>
<time>2010-06-13T06:45:47.75</time>
<name>2462</name>
</trkpt>
<trkpt lat="49.199918" lon="11.712883">
<ele>570.4</ele>
<speed>9.5</speed>
<course>69.1</course>
<desc>Speed 9.5 km/h Distance 10.85 km</desc>
<time>2010-06-13T06:45:49.74</time>
<name>2463</name>
</trkpt>
<trkpt lat="49.199927" lon="11.712917">
<ele>569.6</ele>
<speed>8.5</speed>
<course>41.1</course>
<desc>Speed 8.5 km/h Distance 10.86 km</desc>
<time>2010-06-13T06:45:50.74</time>
<name>2464</name>
</trkpt>
<trkpt lat="49.199947" lon="11.712943">
<ele>567.6</ele>
<speed>8.2</speed>
<course>28.6</course>
<desc>Speed 8.2 km/h Distance 10.86 km</desc>
<time>2010-06-13T06:45:51.73</time>
<name>2465</name>
</trkpt>
<trkpt lat="49.199967" lon="11.712960">
<ele>564.4</ele>
<speed>9.1</speed>
<course>45.3</course>
<desc>Speed 9.1 km/h Distance 10.86 km</desc>
<time>2010-06-13T06:45:52.73</time>
<name>2466</name>
</trkpt>
<trkpt lat="49.199985" lon="11.712988">
<ele>564.0</ele>
<speed>8.3</speed>
<course>11.2</course>
<desc>Speed 8.3 km/h Distance 10.86 km</desc>
<time>2010-06-13T06:45:53.75</time>
<name>2467</name>
</trkpt>
<trkpt lat="49.200002" lon="11.712993">
<ele>562.7</ele>
<speed>10.8</speed>
<course>341.0</course>
<desc>Speed 10.8 km/h Distance 10.87 km</desc>
<time>2010-06-13T06:45:54.73</time>
<name>2468</name>
</trkpt>
<trkpt lat="49.200033" lon="11.712977">
<ele>561.9</ele>
<speed>15.2</speed>
<course>327.9</course>
<desc>Speed 15.2 km/h Distance 10.87 km</desc>
<time>2010-06-13T06:45:55.73</time>
<name>2469</name>
</trkpt>
<trkpt lat="49.200075" lon="11.712937">
<ele>561.1</ele>
<speed>19.0</speed>
<course>320.8</course>
<desc>Speed 19.0 km/h Distance 10.88 km</desc>
<time>2010-06-13T06:45:56.75</time>
<name>2470</name>
</trkpt>
<trkpt lat="49.200122" lon="11.712878">
<ele>560.3</ele>
<speed>20.6</speed>
<course>318.9</course>
<desc>Speed 20.6 km/h Distance 10.88 km</desc>
<time>2010-06-13T06:45:57.72</time>
<name>2471</name>
</trkpt>
<trkpt lat="49.200167" lon="11.712818">
<ele>560.3</ele>
<speed>22.0</speed>
<course>309.5</course>
<desc>Speed 22.0 km/h Distance 10.89 km</desc>
<time>2010-06-13T06:45:58.74</time>
<name>2472</name>
</trkpt>
<trkpt lat="49.200202" lon="11.712753">
<ele>559.7</ele>
<speed>23.7</speed>
<course>321.5</course>
<desc>Speed 23.7 km/h Distance 10.89 km</desc>
<time>2010-06-13T06:45:59.72</time>
<name>2473</name>
</trkpt>
<trkpt lat="49.200255" lon="11.712688">
<ele>559.8</ele>
<speed>24.6</speed>
<course>312.3</course>
<desc>Speed 24.6 km/h Distance 10.90 km</desc>
<time>2010-06-13T06:46:00.73</time>
<name>2474</name>
</trkpt>
<trkpt lat="49.200297" lon="11.712618">
<ele>559.2</ele>
<speed>26.0</speed>
<course>312.1</course>
<desc>Speed 26.0 km/h Distance 10.91 km</desc>
<time>2010-06-13T06:46:01.74</time>
<name>2475</name>
</trkpt>
<trkpt lat="49.200340" lon="11.712545">
<ele>558.7</ele>
<speed>26.5</speed>
<course>310.3</course>
<desc>Speed 26.5 km/h Distance 10.92 km</desc>
<time>2010-06-13T06:46:02.73</time>
<name>2476</name>
</trkpt>
<trkpt lat="49.200383" lon="11.712467">
<ele>558.1</ele>
<speed>27.7</speed>
<course>309.6</course>
<desc>Speed 27.7 km/h Distance 10.92 km</desc>
<time>2010-06-13T06:46:03.73</time>
<name>2477</name>
</trkpt>
<trkpt lat="49.200428" lon="11.712383">
<ele>557.5</ele>
<speed>28.5</speed>
<course>312.6</course>
<desc>Speed 28.5 km/h Distance 10.93 km</desc>
<time>2010-06-13T06:46:04.74</time>
<name>2478</name>
</trkpt>
<trkpt lat="49.200478" lon="11.712300">
<ele>557.1</ele>
<speed>28.8</speed>
<course>312.4</course>
<desc>Speed 28.8 km/h Distance 10.94 km</desc>
<time>2010-06-13T06:46:05.72</time>
<name>2479</name>
</trkpt>
<trkpt lat="49.200530" lon="11.712213">
<ele>556.8</ele>
<speed>29.9</speed>
<course>310.6</course>
<desc>Speed 29.9 km/h Distance 10.95 km</desc>
<time>2010-06-13T06:46:06.73</time>
<name>2480</name>
</trkpt>
<trkpt lat="49.200577" lon="11.712130">
<ele>556.3</ele>
<speed>28.0</speed>
<course>312.6</course>
<desc>Speed 28.0 km/h Distance 10.96 km</desc>
<time>2010-06-13T06:46:07.72</time>
<name>2481</name>
</trkpt>
<trkpt lat="49.200622" lon="11.712055">
<ele>555.9</ele>
<speed>25.4</speed>
<course>311.9</course>
<desc>Speed 25.4 km/h Distance 10.96 km</desc>
<time>2010-06-13T06:46:08.73</time>
<name>2482</name>
</trkpt>
<trkpt lat="49.200662" lon="11.711987">
<ele>555.6</ele>
<speed>22.8</speed>
<course>312.3</course>
<desc>Speed 22.8 km/h Distance 10.97 km</desc>
<time>2010-06-13T06:46:09.73</time>
<name>2483</name>
</trkpt>
<trkpt lat="49.200698" lon="11.711925">
<ele>555.3</ele>
<speed>21.2</speed>
<course>315.2</course>
<desc>Speed 21.2 km/h Distance 10.98 km</desc>
<time>2010-06-13T06:46:10.72</time>
<name>2484</name>
</trkpt>
<trkpt lat="49.200737" lon="11.711867">
<ele>555.0</ele>
<speed>22.0</speed>
<course>321.1</course>
<desc>Speed 22.0 km/h Distance 10.98 km</desc>
<time>2010-06-13T06:46:11.72</time>
<name>2485</name>
</trkpt>
<trkpt lat="49.200787" lon="11.711805">
<ele>554.9</ele>
<speed>23.0</speed>
<course>320.8</course>
<desc>Speed 23.0 km/h Distance 10.99 km</desc>
<time>2010-06-13T06:46:12.73</time>
<name>2486</name>
</trkpt>
<trkpt lat="49.200840" lon="11.711738">
<ele>554.7</ele>
<speed>26.4</speed>
<course>312.4</course>
<desc>Speed 26.4 km/h Distance 11.00 km</desc>
<time>2010-06-13T06:46:13.73</time>
<name>2487</name>
</trkpt>
<trkpt lat="49.200887" lon="11.711660">
<ele>554.3</ele>
<speed>28.5</speed>
<course>301.5</course>
<desc>Speed 28.5 km/h Distance 11.01 km</desc>
<time>2010-06-13T06:46:14.73</time>
<name>2488</name>
</trkpt>
<trkpt lat="49.200923" lon="11.711568">
<ele>553.8</ele>
<speed>30.6</speed>
<course>297.0</course>
<desc>Speed 30.6 km/h Distance 11.01 km</desc>
<time>2010-06-13T06:46:15.73</time>
<name>2489</name>
</trkpt>
<trkpt lat="49.200958" lon="11.711463">
<ele>553.2</ele>
<speed>31.6</speed>
<course>294.1</course>
<desc>Speed 31.6 km/h Distance 11.02 km</desc>
<time>2010-06-13T06:46:16.73</time>
<name>2490</name>
</trkpt>
<trkpt lat="49.200990" lon="11.711355">
<ele>552.7</ele>
<speed>32.7</speed>
<course>297.7</course>
<desc>Speed 32.7 km/h Distance 11.03 km</desc>
<time>2010-06-13T06:46:17.74</time>
<name>2491</name>
</trkpt>
<trkpt lat="49.201028" lon="11.711243">
<ele>552.5</ele>
<speed>32.8</speed>
<course>297.7</course>
<desc>Speed 32.8 km/h Distance 11.04 km</desc>
<time>2010-06-13T06:46:18.73</time>
<name>2492</name>
</trkpt>
<trkpt lat="49.201067" lon="11.711132">
<ele>552.2</ele>
<speed>33.1</speed>
<course>292.1</course>
<desc>Speed 33.1 km/h Distance 11.05 km</desc>
<time>2010-06-13T06:46:19.72</time>
<name>2493</name>
</trkpt>
<trkpt lat="49.201097" lon="11.711018">
<ele>551.7</ele>
<speed>33.5</speed>
<course>297.0</course>
<desc>Speed 33.5 km/h Distance 11.06 km</desc>
<time>2010-06-13T06:46:20.73</time>
<name>2494</name>
</trkpt>
<trkpt lat="49.201135" lon="11.710903">
<ele>551.4</ele>
<speed>34.3</speed>
<course>292.9</course>
<desc>Speed 34.3 km/h Distance 11.07 km</desc>
<time>2010-06-13T06:46:21.73</time>
<name>2495</name>
</trkpt>
<trkpt lat="49.201167" lon="11.710788">
<ele>550.8</ele>
<speed>33.9</speed>
<course>297.0</course>
<desc>Speed 33.9 km/h Distance 11.08 km</desc>
<time>2010-06-13T06:46:22.73</time>
<name>2496</name>
</trkpt>
<trkpt lat="49.201205" lon="11.710673">
<ele>550.6</ele>
<speed>34.2</speed>
<course>300.0</course>
<desc>Speed 34.2 km/h Distance 11.09 km</desc>
<time>2010-06-13T06:46:23.73</time>
<name>2497</name>
</trkpt>
<trkpt lat="49.201248" lon="11.710558">
<ele>550.5</ele>
<speed>34.1</speed>
<course>295.3</course>
<desc>Speed 34.1 km/h Distance 11.09 km</desc>
<time>2010-06-13T06:46:24.74</time>
<name>2498</name>
</trkpt>
<trkpt lat="49.201283" lon="11.710445">
<ele>550.2</ele>
<speed>34.1</speed>
<course>300.0</course>
<desc>Speed 34.1 km/h Distance 11.10 km</desc>
<time>2010-06-13T06:46:25.73</time>
<name>2499</name>
</trkpt>
<trkpt lat="49.201327" lon="11.710330">
<ele>550.1</ele>
<speed>34.2</speed>
<course>300.9</course>
<desc>Speed 34.2 km/h Distance 11.11 km</desc>
<time>2010-06-13T06:46:26.72</time>
<name>2500</name>
</trkpt>
<trkpt lat="49.201372" lon="11.710215">
<ele>550.1</ele>
<speed>34.2</speed>
<course>300.7</course>
<desc>Speed 34.2 km/h Distance 11.12 km</desc>
<time>2010-06-13T06:46:27.74</time>
<name>2501</name>
</trkpt>
<trkpt lat="49.201415" lon="11.710103">
<ele>550.1</ele>
<speed>34.3</speed>
<course>299.4</course>
<desc>Speed 34.3 km/h Distance 11.13 km</desc>
<time>2010-06-13T06:46:28.74</time>
<name>2502</name>
</trkpt>
<trkpt lat="49.201457" lon="11.709990">
<ele>550.0</ele>
<speed>34.0</speed>
<course>299.4</course>
<desc>Speed 34.0 km/h Distance 11.14 km</desc>
<time>2010-06-13T06:46:29.73</time>
<name>2503</name>
</trkpt>
<trkpt lat="49.201498" lon="11.709877">
<ele>550.0</ele>
<speed>34.0</speed>
<course>299.4</course>
<desc>Speed 34.0 km/h Distance 11.15 km</desc>
<time>2010-06-13T06:46:30.74</time>
<name>2504</name>
</trkpt>
<trkpt lat="49.201540" lon="11.709763">
<ele>549.9</ele>
<speed>33.8</speed>
<course>299.4</course>
<desc>Speed 33.8 km/h Distance 11.16 km</desc>
<time>2010-06-13T06:46:31.72</time>
<name>2505</name>
</trkpt>
<trkpt lat="49.201582" lon="11.709650">
<ele>549.9</ele>
<speed>33.8</speed>
<course>299.4</course>
<desc>Speed 33.8 km/h Distance 11.17 km</desc>
<time>2010-06-13T06:46:32.73</time>
<name>2506</name>
</trkpt>
<trkpt lat="49.201623" lon="11.709537">
<ele>549.9</ele>
<speed>33.9</speed>
<course>300.3</course>
<desc>Speed 33.9 km/h Distance 11.18 km</desc>
<time>2010-06-13T06:46:33.73</time>
<name>2507</name>
</trkpt>
<trkpt lat="49.201667" lon="11.709423">
<ele>550.0</ele>
<speed>33.6</speed>
<course>298.1</course>
<desc>Speed 33.6 km/h Distance 11.19 km</desc>
<time>2010-06-13T06:46:34.73</time>
<name>2508</name>
</trkpt>
<trkpt lat="49.201705" lon="11.709313">
<ele>550.0</ele>
<speed>32.7</speed>
<course>298.7</course>
<desc>Speed 32.7 km/h Distance 11.20 km</desc>
<time>2010-06-13T06:46:35.72</time>
<name>2509</name>
</trkpt>
<trkpt lat="49.201745" lon="11.709202">
<ele>550.0</ele>
<speed>32.8</speed>
<course>300.5</course>
<desc>Speed 32.8 km/h Distance 11.21 km</desc>
<time>2010-06-13T06:46:36.72</time>
<name>2510</name>
</trkpt>
<trkpt lat="49.201787" lon="11.709093">
<ele>550.0</ele>
<speed>33.0</speed>
<course>299.5</course>
<desc>Speed 33.0 km/h Distance 11.22 km</desc>
<time>2010-06-13T06:46:37.74</time>
<name>2511</name>
</trkpt>
<trkpt lat="49.201827" lon="11.708985">
<ele>550.1</ele>
<speed>32.5</speed>
<course>300.2</course>
<desc>Speed 32.5 km/h Distance 11.23 km</desc>
<time>2010-06-13T06:46:38.72</time>
<name>2512</name>
</trkpt>
<trkpt lat="49.201867" lon="11.708880">
<ele>550.2</ele>
<speed>31.7</speed>
<course>300.2</course>
<desc>Speed 31.7 km/h Distance 11.23 km</desc>
<time>2010-06-13T06:46:39.72</time>
<name>2513</name>
</trkpt>
<trkpt lat="49.201907" lon="11.708775">
<ele>550.3</ele>
<speed>31.3</speed>
<course>298.1</course>
<desc>Speed 31.3 km/h Distance 11.24 km</desc>
<time>2010-06-13T06:46:40.73</time>
<name>2514</name>
</trkpt>
<trkpt lat="49.201943" lon="11.708670">
<ele>550.4</ele>
<speed>31.2</speed>
<course>299.2</course>
<desc>Speed 31.2 km/h Distance 11.25 km</desc>
<time>2010-06-13T06:46:41.74</time>
<name>2515</name>
</trkpt>
<trkpt lat="49.201982" lon="11.708565">
<ele>550.5</ele>
<speed>31.4</speed>
<course>298.5</course>
<desc>Speed 31.4 km/h Distance 11.26 km</desc>
<time>2010-06-13T06:46:42.72</time>
<name>2516</name>
</trkpt>
<trkpt lat="49.202018" lon="11.708462">
<ele>550.7</ele>
<speed>30.7</speed>
<course>297.4</course>
<desc>Speed 30.7 km/h Distance 11.27 km</desc>
<time>2010-06-13T06:46:43.72</time>
<name>2517</name>
</trkpt>
<trkpt lat="49.202053" lon="11.708358">
<ele>550.9</ele>
<speed>30.2</speed>
<course>293.4</course>
<desc>Speed 30.2 km/h Distance 11.28 km</desc>
<time>2010-06-13T06:46:44.73</time>
<name>2518</name>
</trkpt>
<trkpt lat="49.202082" lon="11.708258">
<ele>550.9</ele>
<speed>29.9</speed>
<course>293.8</course>
<desc>Speed 29.9 km/h Distance 11.29 km</desc>
<time>2010-06-13T06:46:45.73</time>
<name>2519</name>
</trkpt>
<trkpt lat="49.202110" lon="11.708160">
<ele>550.9</ele>
<speed>29.1</speed>
<course>296.2</course>
<desc>Speed 29.1 km/h Distance 11.29 km</desc>
<time>2010-06-13T06:46:46.73</time>
<name>2520</name>
</trkpt>
<trkpt lat="49.202140" lon="11.708067">
<ele>551.1</ele>
<speed>27.6</speed>
<course>294.8</course>
<desc>Speed 27.6 km/h Distance 11.30 km</desc>
<time>2010-06-13T06:46:47.73</time>
<name>2521</name>
</trkpt>
<trkpt lat="49.202167" lon="11.707978">
<ele>551.3</ele>
<speed>26.0</speed>
<course>298.4</course>
<desc>Speed 26.0 km/h Distance 11.31 km</desc>
<time>2010-06-13T06:46:48.73</time>
<name>2522</name>
</trkpt>
<trkpt lat="49.202197" lon="11.707893">
<ele>551.5</ele>
<speed>24.7</speed>
<course>299.5</course>
<desc>Speed 24.7 km/h Distance 11.32 km</desc>
<time>2010-06-13T06:46:49.74</time>
<name>2523</name>
</trkpt>
<trkpt lat="49.202225" lon="11.707817">
<ele>551.8</ele>
<speed>22.5</speed>
<course>303.3</course>
<desc>Speed 22.5 km/h Distance 11.32 km</desc>
<time>2010-06-13T06:46:50.73</time>
<name>2524</name>
</trkpt>
<trkpt lat="49.202255" lon="11.707747">
<ele>552.2</ele>
<speed>21.3</speed>
<course>305.2</course>
<desc>Speed 21.3 km/h Distance 11.33 km</desc>
<time>2010-06-13T06:46:51.72</time>
<name>2525</name>
</trkpt>
<trkpt lat="49.202285" lon="11.707682">
<ele>552.6</ele>
<speed>19.4</speed>
<course>302.5</course>
<desc>Speed 19.4 km/h Distance 11.33 km</desc>
<time>2010-06-13T06:46:52.72</time>
<name>2526</name>
</trkpt>
<trkpt lat="49.202310" lon="11.707622">
<ele>552.9</ele>
<speed>18.5</speed>
<course>316.0</course>
<desc>Speed 18.5 km/h Distance 11.34 km</desc>
<time>2010-06-13T06:46:53.73</time>
<name>2527</name>
</trkpt>
<trkpt lat="49.202345" lon="11.707570">
<ele>553.5</ele>
<speed>17.5</speed>
<course>326.8</course>
<desc>Speed 17.5 km/h Distance 11.34 km</desc>
<time>2010-06-13T06:46:54.73</time>
<name>2528</name>
</trkpt>
<trkpt lat="49.202385" lon="11.707530">
<ele>554.0</ele>
<speed>15.6</speed>
<course>340.7</course>
<desc>Speed 15.6 km/h Distance 11.35 km</desc>
<time>2010-06-13T06:46:55.74</time>
<name>2529</name>
</trkpt>
<trkpt lat="49.202432" lon="11.707505">
<ele>554.8</ele>
<speed>15.2</speed>
<course>348.9</course>
<desc>Speed 15.2 km/h Distance 11.36 km</desc>
<time>2010-06-13T06:46:56.73</time>
<name>2530</name>
</trkpt>
<trkpt lat="49.202465" lon="11.707495">
<ele>554.6</ele>
<speed>13.6</speed>
<course>6.7</course>
<desc>Speed 13.6 km/h Distance 11.36 km</desc>
<time>2010-06-13T06:46:57.71</time>
<name>2531</name>
</trkpt>
<trkpt lat="49.202502" lon="11.707502">
<ele>554.6</ele>
<speed>13.2</speed>
<course>33.1</course>
<desc>Speed 13.2 km/h Distance 11.36 km</desc>
<time>2010-06-13T06:46:58.73</time>
<name>2532</name>
</trkpt>
<trkpt lat="49.202527" lon="11.707527">
<ele>554.7</ele>
<speed>12.0</speed>
<course>20.4</course>
<desc>Speed 12.0 km/h Distance 11.37 km</desc>
<time>2010-06-13T06:46:59.72</time>
<name>2533</name>
</trkpt>
<trkpt lat="49.202562" lon="11.707547">
<ele>554.2</ele>
<speed>12.3</speed>
<course>43.6</course>
<desc>Speed 12.3 km/h Distance 11.37 km</desc>
<time>2010-06-13T06:47:00.72</time>
<name>2534</name>
</trkpt>
<trkpt lat="49.202583" lon="11.707578">
<ele>554.2</ele>
<speed>12.2</speed>
<course>47.0</course>
<desc>Speed 12.2 km/h Distance 11.37 km</desc>
<time>2010-06-13T06:47:01.72</time>
<name>2535</name>
</trkpt>
<trkpt lat="49.202607" lon="11.707617">
<ele>554.8</ele>
<speed>12.8</speed>
<course>59.5</course>
<desc>Speed 12.8 km/h Distance 11.38 km</desc>
<time>2010-06-13T06:47:02.74</time>
<name>2536</name>
</trkpt>
<trkpt lat="49.202623" lon="11.707660">
<ele>555.5</ele>
<speed>11.8</speed>
<course>45.2</course>
<desc>Speed 11.8 km/h Distance 11.38 km</desc>
<time>2010-06-13T06:47:03.73</time>
<name>2537</name>
</trkpt>
<trkpt lat="49.202645" lon="11.707693">
<ele>555.8</ele>
<speed>11.3</speed>
<course>43.0</course>
<desc>Speed 11.3 km/h Distance 11.38 km</desc>
<time>2010-06-13T06:47:04.73</time>
<name>2538</name>
</trkpt>
<trkpt lat="49.202668" lon="11.707727">
<ele>556.5</ele>
<speed>11.1</speed>
<course>46.6</course>
<desc>Speed 11.1 km/h Distance 11.39 km</desc>
<time>2010-06-13T06:47:05.72</time>
<name>2539</name>
</trkpt>
<trkpt lat="49.202690" lon="11.707762">
<ele>557.4</ele>
<speed>10.9</speed>
<course>57.2</course>
<desc>Speed 10.9 km/h Distance 11.39 km</desc>
<time>2010-06-13T06:47:06.73</time>
<name>2540</name>
</trkpt>
<trkpt lat="49.202703" lon="11.707793">
<ele>557.6</ele>
<speed>11.1</speed>
<course>90.0</course>
<desc>Speed 11.1 km/h Distance 11.39 km</desc>
<time>2010-06-13T06:47:07.73</time>
<name>2541</name>
</trkpt>
<trkpt lat="49.202703" lon="11.707852">
<ele>559.8</ele>
<speed>10.6</speed>
<course>54.2</course>
<desc>Speed 10.6 km/h Distance 11.40 km</desc>
<time>2010-06-13T06:47:08.72</time>
<name>2542</name>
</trkpt>
<trkpt lat="49.202717" lon="11.707880">
<ele>560.2</ele>
<speed>9.8</speed>
<course>17.1</course>
<desc>Speed 9.8 km/h Distance 11.40 km</desc>
<time>2010-06-13T06:47:09.72</time>
<name>2543</name>
</trkpt>
<trkpt lat="49.202745" lon="11.707893">
<ele>560.6</ele>
<speed>9.1</speed>
<course>38.1</course>
<desc>Speed 9.1 km/h Distance 11.40 km</desc>
<time>2010-06-13T06:47:10.73</time>
<name>2544</name>
</trkpt>
<trkpt lat="49.202762" lon="11.707913">
<ele>562.1</ele>
<speed>8.1</speed>
<course>345.0</course>
<desc>Speed 8.1 km/h Distance 11.41 km</desc>
<time>2010-06-13T06:47:11.73</time>
<name>2545</name>
</trkpt>
<trkpt lat="49.202835" lon="11.707883">
<ele>560.8</ele>
<speed>8.4</speed>
<course>322.7</course>
<desc>Speed 8.4 km/h Distance 11.42 km</desc>
<time>2010-06-13T06:47:13.73</time>
<name>2546</name>
</trkpt>
<trkpt lat="49.202855" lon="11.707860">
<ele>560.6</ele>
<speed>7.9</speed>
<course>314.0</course>
<desc>Speed 7.9 km/h Distance 11.42 km</desc>
<time>2010-06-13T06:47:14.74</time>
<name>2547</name>
</trkpt>
<trkpt lat="49.202875" lon="11.707828">
<ele>560.1</ele>
<speed>8.8</speed>
<course>313.1</course>
<desc>Speed 8.8 km/h Distance 11.42 km</desc>
<time>2010-06-13T06:47:15.73</time>
<name>2548</name>
</trkpt>
<trkpt lat="49.202893" lon="11.707798">
<ele>560.0</ele>
<speed>8.4</speed>
<course>311.2</course>
<desc>Speed 8.4 km/h Distance 11.42 km</desc>
<time>2010-06-13T06:47:16.72</time>
<name>2549</name>
</trkpt>
<trkpt lat="49.202907" lon="11.707775">
<ele>560.0</ele>
<speed>7.4</speed>
<course>279.2</course>
<desc>Speed 7.4 km/h Distance 11.43 km</desc>
<time>2010-06-13T06:47:17.74</time>
<name>2550</name>
</trkpt>
<trkpt lat="49.202910" lon="11.707743">
<ele>559.3</ele>
<speed>7.2</speed>
<course>282.3</course>
<desc>Speed 7.2 km/h Distance 11.43 km</desc>
<time>2010-06-13T06:47:18.73</time>
<name>2551</name>
</trkpt>
<trkpt lat="49.202913" lon="11.707720">
<ele>559.5</ele>
<speed>7.8</speed>
<course>289.5</course>
<desc>Speed 7.8 km/h Distance 11.43 km</desc>
<time>2010-06-13T06:47:19.72</time>
<name>2552</name>
</trkpt>
<trkpt lat="49.202918" lon="11.707698">
<ele>559.6</ele>
<speed>8.1</speed>
<course>277.6</course>
<desc>Speed 8.1 km/h Distance 11.43 km</desc>
<time>2010-06-13T06:47:20.74</time>
<name>2553</name>
</trkpt>
<trkpt lat="49.202922" lon="11.707660">
<ele>558.8</ele>
<speed>9.4</speed>
<course>293.6</course>
<desc>Speed 9.4 km/h Distance 11.44 km</desc>
<time>2010-06-13T06:47:21.73</time>
<name>2554</name>
</trkpt>
<trkpt lat="49.202928" lon="11.707637">
<ele>558.7</ele>
<speed>8.0</speed>
<course>266.5</course>
<desc>Speed 8.0 km/h Distance 11.44 km</desc>
<time>2010-06-13T06:47:22.72</time>
<name>2555</name>
</trkpt>
<trkpt lat="49.202927" lon="11.707595">
<ele>558.1</ele>
<speed>8.4</speed>
<course>260.7</course>
<desc>Speed 8.4 km/h Distance 11.44 km</desc>
<time>2010-06-13T06:47:23.73</time>
<name>2556</name>
</trkpt>
<trkpt lat="49.202922" lon="11.707548">
<ele>558.2</ele>
<speed>8.5</speed>
<course>262.7</course>
<desc>Speed 8.5 km/h Distance 11.44 km</desc>
<time>2010-06-13T06:47:24.73</time>
<name>2557</name>
</trkpt>
<trkpt lat="49.202918" lon="11.707508">
<ele>558.1</ele>
<speed>8.2</speed>
<course>255.2</course>
<desc>Speed 8.2 km/h Distance 11.45 km</desc>
<time>2010-06-13T06:47:25.73</time>
<name>2558</name>
</trkpt>
<trkpt lat="49.202910" lon="11.707460">
<ele>558.4</ele>
<speed>8.2</speed>
<course>248.2</course>
<desc>Speed 8.2 km/h Distance 11.45 km</desc>
<time>2010-06-13T06:47:26.73</time>
<name>2559</name>
</trkpt>
<trkpt lat="49.202900" lon="11.707422">
<ele>559.3</ele>
<speed>8.8</speed>
<course>245.9</course>
<desc>Speed 8.8 km/h Distance 11.45 km</desc>
<time>2010-06-13T06:47:27.73</time>
<name>2560</name>
</trkpt>
<trkpt lat="49.202888" lon="11.707382">
<ele>560.2</ele>
<speed>8.7</speed>
<course>265.8</course>
<desc>Speed 8.7 km/h Distance 11.46 km</desc>
<time>2010-06-13T06:47:28.72</time>
<name>2561</name>
</trkpt>
<trkpt lat="49.202887" lon="11.707347">
<ele>561.0</ele>
<speed>9.0</speed>
<course>263.3</course>
<desc>Speed 9.0 km/h Distance 11.46 km</desc>
<time>2010-06-13T06:47:29.72</time>
<name>2562</name>
</trkpt>
<trkpt lat="49.202883" lon="11.707303">
<ele>562.6</ele>
<speed>8.5</speed>
<course>265.8</course>
<desc>Speed 8.5 km/h Distance 11.46 km</desc>
<time>2010-06-13T06:47:30.72</time>
<name>2563</name>
</trkpt>
<trkpt lat="49.202882" lon="11.707268">
<ele>564.1</ele>
<speed>8.6</speed>
<course>238.5</course>
<desc>Speed 8.6 km/h Distance 11.46 km</desc>
<time>2010-06-13T06:47:31.73</time>
<name>2564</name>
</trkpt>
<trkpt lat="49.202872" lon="11.707243">
<ele>566.3</ele>
<speed>7.0</speed>
<course>333.6</course>
<desc>Speed 7.0 km/h Distance 11.47 km</desc>
<time>2010-06-13T06:47:32.73</time>
<name>2565</name>
</trkpt>
<trkpt lat="49.202878" lon="11.707238">
<ele>567.1</ele>
<speed>6.6</speed>
<course>277.6</course>
<desc>Speed 6.6 km/h Distance 11.47 km</desc>
<time>2010-06-13T06:47:33.74</time>
<name>2566</name>
</trkpt>
<trkpt lat="49.202882" lon="11.707200">
<ele>567.6</ele>
<speed>8.9</speed>
<course>284.9</course>
<desc>Speed 8.9 km/h Distance 11.47 km</desc>
<time>2010-06-13T06:47:34.72</time>
<name>2567</name>
</trkpt>
<trkpt lat="49.202888" lon="11.707162">
<ele>568.5</ele>
<speed>10.3</speed>
<course>284.8</course>
<desc>Speed 10.3 km/h Distance 11.47 km</desc>
<time>2010-06-13T06:47:35.72</time>
<name>2568</name>
</trkpt>
<trkpt lat="49.202897" lon="11.707113">
<ele>568.8</ele>
<speed>10.7</speed>
<course>291.9</course>
<desc>Speed 10.7 km/h Distance 11.48 km</desc>
<time>2010-06-13T06:47:36.72</time>
<name>2569</name>
</trkpt>
<trkpt lat="49.202905" lon="11.707082">
<ele>568.5</ele>
<speed>9.7</speed>
<course>301.5</course>
<desc>Speed 9.7 km/h Distance 11.48 km</desc>
<time>2010-06-13T06:47:37.72</time>
<name>2570</name>
</trkpt>
<trkpt lat="49.202915" lon="11.707057">
<ele>567.9</ele>
<speed>8.5</speed>
<course>275.3</course>
<desc>Speed 8.5 km/h Distance 11.48 km</desc>
<time>2010-06-13T06:47:38.72</time>
<name>2571</name>
</trkpt>
<trkpt lat="49.202918" lon="11.707002">
<ele>567.8</ele>
<speed>9.6</speed>
<course>258.8</course>
<desc>Speed 9.6 km/h Distance 11.49 km</desc>
<time>2010-06-13T06:47:39.71</time>
<name>2572</name>
</trkpt>
<trkpt lat="49.202912" lon="11.706950">
<ele>570.2</ele>
<speed>8.2</speed>
<course>261.9</course>
<desc>Speed 8.2 km/h Distance 11.49 km</desc>
<time>2010-06-13T06:47:40.73</time>
<name>2573</name>
</trkpt>
<trkpt lat="49.202903" lon="11.706860">
<ele>574.0</ele>
<speed>8.2</speed>
<course>324.8</course>
<desc>Speed 8.2 km/h Distance 11.50 km</desc>
<time>2010-06-13T06:47:42.71</time>
<name>2574</name>
</trkpt>
<trkpt lat="49.202925" lon="11.706837">
<ele>573.5</ele>
<speed>8.3</speed>
<course>295.6</course>
<desc>Speed 8.3 km/h Distance 11.50 km</desc>
<time>2010-06-13T06:47:43.72</time>
<name>2575</name>
</trkpt>
<trkpt lat="49.202933" lon="11.706810">
<ele>574.2</ele>
<speed>7.2</speed>
<course>260.3</course>
<desc>Speed 7.2 km/h Distance 11.50 km</desc>
<time>2010-06-13T06:47:44.73</time>
<name>2576</name>
</trkpt>
<trkpt lat="49.202930" lon="11.706780">
<ele>576.1</ele>
<speed>6.2</speed>
<course>296.0</course>
<desc>Speed 6.2 km/h Distance 11.50 km</desc>
<time>2010-06-13T06:47:45.73</time>
<name>2577</name>
</trkpt>
<trkpt lat="49.202942" lon="11.706743">
<ele>574.7</ele>
<speed>7.3</speed>
<course>314.2</course>
<desc>Speed 7.3 km/h Distance 11.51 km</desc>
<time>2010-06-13T06:47:46.73</time>
<name>2578</name>
</trkpt>
<trkpt lat="49.202953" lon="11.706725">
<ele>573.8</ele>
<speed>7.1</speed>
<course>310.5</course>
<desc>Speed 7.1 km/h Distance 11.51 km</desc>
<time>2010-06-13T06:47:47.73</time>
<name>2579</name>
</trkpt>
<trkpt lat="49.202962" lon="11.706710">
<ele>573.9</ele>
<speed>7.0</speed>
<course>260.8</course>
<desc>Speed 7.0 km/h Distance 11.51 km</desc>
<time>2010-06-13T06:47:48.72</time>
<name>2580</name>
</trkpt>
<trkpt lat="49.202958" lon="11.706678">
<ele>576.1</ele>
<speed>5.9</speed>
<course>295.8</course>
<desc>Speed 5.9 km/h Distance 11.51 km</desc>
<time>2010-06-13T06:47:49.72</time>
<name>2581</name>
</trkpt>
<trkpt lat="49.202968" lon="11.706647">
<ele>575.3</ele>
<speed>7.4</speed>
<course>278.3</course>
<desc>Speed 7.4 km/h Distance 11.51 km</desc>
<time>2010-06-13T06:47:50.73</time>
<name>2582</name>
</trkpt>
<trkpt lat="49.202972" lon="11.706612">
<ele>574.9</ele>
<speed>7.3</speed>
<course>298.4</course>
<desc>Speed 7.3 km/h Distance 11.52 km</desc>
<time>2010-06-13T06:47:51.73</time>
<name>2583</name>
</trkpt>
<trkpt lat="49.202982" lon="11.706583">
<ele>573.8</ele>
<speed>7.8</speed>
<course>320.3</course>
<desc>Speed 7.8 km/h Distance 11.52 km</desc>
<time>2010-06-13T06:47:52.73</time>
<name>2584</name>
</trkpt>
<trkpt lat="49.203000" lon="11.706560">
<ele>572.6</ele>
<speed>7.5</speed>
<course>339.8</course>
<desc>Speed 7.5 km/h Distance 11.52 km</desc>
<time>2010-06-13T06:47:53.74</time>
<name>2585</name>
</trkpt>
<trkpt lat="49.203012" lon="11.706553">
<ele>571.3</ele>
<speed>5.5</speed>
<course>294.2</course>
<desc>Speed 5.5 km/h Distance 11.52 km</desc>
<time>2010-06-13T06:47:54.73</time>
<name>2586</name>
</trkpt>
<trkpt lat="49.203020" lon="11.706525">
<ele>572.4</ele>
<speed>5.7</speed>
<course>309.2</course>
<desc>Speed 5.7 km/h Distance 11.53 km</desc>
<time>2010-06-13T06:47:55.72</time>
<name>2587</name>
</trkpt>
<trkpt lat="49.203033" lon="11.706500">
<ele>573.1</ele>
<speed>5.3</speed>
<course>320.8</course>
<desc>Speed 5.3 km/h Distance 11.53 km</desc>
<time>2010-06-13T06:47:56.73</time>
<name>2588</name>
</trkpt>
<trkpt lat="49.203053" lon="11.706475">
<ele>573.1</ele>
<speed>6.7</speed>
<course>302.2</course>
<desc>Speed 6.7 km/h Distance 11.53 km</desc>
<time>2010-06-13T06:47:57.72</time>
<name>2589</name>
</trkpt>
<trkpt lat="49.203065" lon="11.706447">
<ele>573.7</ele>
<speed>8.5</speed>
<course>282.9</course>
<desc>Speed 8.5 km/h Distance 11.53 km</desc>
<time>2010-06-13T06:47:58.73</time>
<name>2590</name>
</trkpt>
<trkpt lat="49.203070" lon="11.706413">
<ele>574.2</ele>
<speed>8.2</speed>
<course>12.6</course>
<desc>Speed 8.2 km/h Distance 11.54 km</desc>
<time>2010-06-13T06:47:59.73</time>
<name>2591</name>
</trkpt>
<trkpt lat="49.203073" lon="11.706415">
<ele>575.3</ele>
<speed>5.0</speed>
<course>295.3</course>
<desc>Speed 5.0 km/h Distance 11.54 km</desc>
<time>2010-06-13T06:48:00.72</time>
<name>2592</name>
</trkpt>
<trkpt lat="49.203080" lon="11.706393">
<ele>576.1</ele>
<speed>6.0</speed>
<course>309.0</course>
<desc>Speed 6.0 km/h Distance 11.54 km</desc>
<time>2010-06-13T06:48:01.73</time>
<name>2593</name>
</trkpt>
<trkpt lat="49.203095" lon="11.706365">
<ele>578.9</ele>
<speed>7.2</speed>
<course>299.8</course>
<desc>Speed 7.2 km/h Distance 11.54 km</desc>
<time>2010-06-13T06:48:02.71</time>
<name>2594</name>
</trkpt>
<trkpt lat="49.203105" lon="11.706338">
<ele>579.1</ele>
<speed>6.6</speed>
<course>305.8</course>
<desc>Speed 6.6 km/h Distance 11.54 km</desc>
<time>2010-06-13T06:48:03.71</time>
<name>2595</name>
</trkpt>
<trkpt lat="49.203118" lon="11.706310">
<ele>579.9</ele>
<speed>6.7</speed>
<course>270.0</course>
<desc>Speed 6.7 km/h Distance 11.55 km</desc>
<time>2010-06-13T06:48:04.72</time>
<name>2596</name>
</trkpt>
<trkpt lat="49.203118" lon="11.706293">
<ele>580.7</ele>
<speed>5.7</speed>
<course>288.8</course>
<desc>Speed 5.7 km/h Distance 11.55 km</desc>
<time>2010-06-13T06:48:05.73</time>
<name>2597</name>
</trkpt>
<trkpt lat="49.203125" lon="11.706263">
<ele>580.6</ele>
<speed>6.9</speed>
<course>264.2</course>
<desc>Speed 6.9 km/h Distance 11.55 km</desc>
<time>2010-06-13T06:48:06.72</time>
<name>2598</name>
</trkpt>
<trkpt lat="49.203123" lon="11.706238">
<ele>581.1</ele>
<speed>7.1</speed>
<course>254.0</course>
<desc>Speed 7.1 km/h Distance 11.55 km</desc>
<time>2010-06-13T06:48:07.71</time>
<name>2599</name>
</trkpt>
<trkpt lat="49.203118" lon="11.706212">
<ele>581.5</ele>
<speed>6.2</speed>
<course>297.0</course>
<desc>Speed 6.2 km/h Distance 11.55 km</desc>
<time>2010-06-13T06:48:08.71</time>
<name>2600</name>
</trkpt>
<trkpt lat="49.203127" lon="11.706187">
<ele>581.5</ele>
<speed>5.7</speed>
<course>325.0</course>
<desc>Speed 5.7 km/h Distance 11.55 km</desc>
<time>2010-06-13T06:48:09.72</time>
<name>2601</name>
</trkpt>
<trkpt lat="49.203150" lon="11.706162">
<ele>583.3</ele>
<speed>6.3</speed>
<course>307.4</course>
<desc>Speed 6.3 km/h Distance 11.56 km</desc>
<time>2010-06-13T06:48:10.71</time>
<name>2602</name>
</trkpt>
<trkpt lat="49.203202" lon="11.706058">
<ele>580.4</ele>
<speed>6.4</speed>
<course>297.0</course>
<desc>Speed 6.4 km/h Distance 11.57 km</desc>
<time>2010-06-13T06:48:12.74</time>
<name>2603</name>
</trkpt>
<trkpt lat="49.203212" lon="11.706028">
<ele>579.8</ele>
<speed>5.2</speed>
<course>301.5</course>
<desc>Speed 5.2 km/h Distance 11.57 km</desc>
<time>2010-06-13T06:48:13.72</time>
<name>2604</name>
</trkpt>
<trkpt lat="49.203218" lon="11.706012">
<ele>580.3</ele>
<speed>4.9</speed>
<course>326.7</course>
<desc>Speed 4.9 km/h Distance 11.57 km</desc>
<time>2010-06-13T06:48:14.73</time>
<name>2605</name>
</trkpt>
<trkpt lat="49.203230" lon="11.706000">
<ele>582.0</ele>
<speed>4.6</speed>
<course>297.0</course>
<desc>Speed 4.6 km/h Distance 11.57 km</desc>
<time>2010-06-13T06:48:15.72</time>
<name>2606</name>
</trkpt>
<trkpt lat="49.203237" lon="11.705980">
<ele>581.9</ele>
<speed>5.3</speed>
<course>295.6</course>
<desc>Speed 5.3 km/h Distance 11.57 km</desc>
<time>2010-06-13T06:48:16.72</time>
<name>2607</name>
</trkpt>
<trkpt lat="49.203245" lon="11.705953">
<ele>580.6</ele>
<speed>6.5</speed>
<course>319.2</course>
<desc>Speed 6.5 km/h Distance 11.58 km</desc>
<time>2010-06-13T06:48:17.74</time>
<name>2608</name>
</trkpt>
<trkpt lat="49.203297" lon="11.705885">
<ele>577.7</ele>
<speed>8.0</speed>
<course>303.3</course>
<desc>Speed 8.0 km/h Distance 11.58 km</desc>
<time>2010-06-13T06:48:19.72</time>
<name>2609</name>
</trkpt>
<trkpt lat="49.203302" lon="11.705873">
<ele>579.5</ele>
<speed>6.7</speed>
<course>309.2</course>
<desc>Speed 6.7 km/h Distance 11.59 km</desc>
<time>2010-06-13T06:48:20.73</time>
<name>2610</name>
</trkpt>
<trkpt lat="49.203315" lon="11.705848">
<ele>580.0</ele>
<speed>5.9</speed>
<course>286.0</course>
<desc>Speed 5.9 km/h Distance 11.59 km</desc>
<time>2010-06-13T06:48:21.74</time>
<name>2611</name>
</trkpt>
<trkpt lat="49.203320" lon="11.705822">
<ele>579.4</ele>
<speed>6.0</speed>
<course>298.0</course>
<desc>Speed 6.0 km/h Distance 11.59 km</desc>
<time>2010-06-13T06:48:22.72</time>
<name>2612</name>
</trkpt>
<trkpt lat="49.203333" lon="11.705783">
<ele>580.5</ele>
<speed>6.6</speed>
<course>308.7</course>
<desc>Speed 6.6 km/h Distance 11.59 km</desc>
<time>2010-06-13T06:48:23.73</time>
<name>2613</name>
</trkpt>
<trkpt lat="49.203352" lon="11.705748">
<ele>578.6</ele>
<speed>7.2</speed>
<course>307.4</course>
<desc>Speed 7.2 km/h Distance 11.60 km</desc>
<time>2010-06-13T06:48:24.73</time>
<name>2614</name>
</trkpt>
<trkpt lat="49.203368" lon="11.705715">
<ele>579.3</ele>
<speed>7.8</speed>
<course>313.4</course>
<desc>Speed 7.8 km/h Distance 11.60 km</desc>
<time>2010-06-13T06:48:25.73</time>
<name>2615</name>
</trkpt>
<trkpt lat="49.203417" lon="11.705637">
<ele>576.0</ele>
<speed>9.1</speed>
<course>36.6</course>
<desc>Speed 9.1 km/h Distance 11.61 km</desc>
<time>2010-06-13T06:48:27.71</time>
<name>2616</name>
</trkpt>
<trkpt lat="49.203428" lon="11.705650">
<ele>577.5</ele>
<speed>7.6</speed>
<course>317.5</course>
<desc>Speed 7.6 km/h Distance 11.61 km</desc>
<time>2010-06-13T06:48:28.73</time>
<name>2617</name>
</trkpt>
<trkpt lat="49.203437" lon="11.705638">
<ele>577.8</ele>
<speed>6.6</speed>
<course>344.7</course>
<desc>Speed 6.6 km/h Distance 11.61 km</desc>
<time>2010-06-13T06:48:29.73</time>
<name>2618</name>
</trkpt>
<trkpt lat="49.203457" lon="11.705630">
<ele>578.7</ele>
<speed>7.5</speed>
<course>320.1</course>
<desc>Speed 7.5 km/h Distance 11.61 km</desc>
<time>2010-06-13T06:48:30.72</time>
<name>2619</name>
</trkpt>
<trkpt lat="49.203498" lon="11.705577">
<ele>578.0</ele>
<speed>7.5</speed>
<course>326.8</course>
<desc>Speed 7.5 km/h Distance 11.62 km</desc>
<time>2010-06-13T06:48:32.72</time>
<name>2620</name>
</trkpt>
<trkpt lat="49.203522" lon="11.705553">
<ele>577.1</ele>
<speed>6.9</speed>
<course>335.0</course>
<desc>Speed 6.9 km/h Distance 11.62 km</desc>
<time>2010-06-13T06:48:33.74</time>
<name>2621</name>
</trkpt>
<trkpt lat="49.203545" lon="11.705537">
<ele>575.3</ele>
<speed>6.1</speed>
<course>301.4</course>
<desc>Speed 6.1 km/h Distance 11.62 km</desc>
<time>2010-06-13T06:48:34.72</time>
<name>2622</name>
</trkpt>
<trkpt lat="49.203552" lon="11.705520">
<ele>575.1</ele>
<speed>5.9</speed>
<course>310.7</course>
<desc>Speed 5.9 km/h Distance 11.63 km</desc>
<time>2010-06-13T06:48:35.71</time>
<name>2623</name>
</trkpt>
<trkpt lat="49.203567" lon="11.705493">
<ele>574.2</ele>
<speed>6.3</speed>
<course>319.8</course>
<desc>Speed 6.3 km/h Distance 11.63 km</desc>
<time>2010-06-13T06:48:36.71</time>
<name>2624</name>
</trkpt>
<trkpt lat="49.203607" lon="11.705442">
<ele>571.1</ele>
<speed>7.5</speed>
<course>315.6</course>
<desc>Speed 7.5 km/h Distance 11.63 km</desc>
<time>2010-06-13T06:48:38.73</time>
<name>2625</name>
</trkpt>
<trkpt lat="49.203623" lon="11.705417">
<ele>570.2</ele>
<speed>6.9</speed>
<course>306.2</course>
<desc>Speed 6.9 km/h Distance 11.64 km</desc>
<time>2010-06-13T06:48:39.71</time>
<name>2626</name>
</trkpt>
<trkpt lat="49.203642" lon="11.705378">
<ele>569.4</ele>
<speed>6.6</speed>
<course>332.0</course>
<desc>Speed 6.6 km/h Distance 11.64 km</desc>
<time>2010-06-13T06:48:40.73</time>
<name>2627</name>
</trkpt>
<trkpt lat="49.203668" lon="11.705357">
<ele>569.8</ele>
<speed>6.2</speed>
<course>334.5</course>
<desc>Speed 6.2 km/h Distance 11.64 km</desc>
<time>2010-06-13T06:48:41.73</time>
<name>2628</name>
</trkpt>
<trkpt lat="49.203687" lon="11.705343">
<ele>569.1</ele>
<speed>5.1</speed>
<course>310.9</course>
<desc>Speed 5.1 km/h Distance 11.65 km</desc>
<time>2010-06-13T06:48:42.71</time>
<name>2629</name>
</trkpt>
<trkpt lat="49.203693" lon="11.705332">
<ele>569.1</ele>
<speed>5.7</speed>
<course>309.9</course>
<desc>Speed 5.7 km/h Distance 11.65 km</desc>
<time>2010-06-13T06:48:43.72</time>
<name>2630</name>
</trkpt>
<trkpt lat="49.203703" lon="11.705313">
<ele>568.2</ele>
<speed>6.7</speed>
<course>315.6</course>
<desc>Speed 6.7 km/h Distance 11.65 km</desc>
<time>2010-06-13T06:48:44.73</time>
<name>2631</name>
</trkpt>
<trkpt lat="49.203713" lon="11.705298">
<ele>566.0</ele>
<speed>4.4</speed>
<course>330.6</course>
<desc>Speed 4.4 km/h Distance 11.65 km</desc>
<time>2010-06-13T06:48:45.74</time>
<name>2632</name>
</trkpt>
<trkpt lat="49.203725" lon="11.705288">
<ele>563.3</ele>
<speed>3.2</speed>
<course>309.9</course>
<desc>Speed 3.2 km/h Distance 11.65 km</desc>
<time>2010-06-13T06:48:46.72</time>
<name>2633</name>
</trkpt>
<trkpt lat="49.203735" lon="11.705270">
<ele>563.6</ele>
<speed>3.3</speed>
<course>284.4</course>
<desc>Speed 3.3 km/h Distance 11.65 km</desc>
<time>2010-06-13T06:48:47.72</time>
<name>2634</name>
</trkpt>
<trkpt lat="49.203737" lon="11.705260">
<ele>565.0</ele>
<speed>2.7</speed>
<course>349.7</course>
<desc>Speed 2.7 km/h Distance 11.65 km</desc>
<time>2010-06-13T06:48:48.71</time>
<name>2635</name>
</trkpt>
<trkpt lat="49.203743" lon="11.705258">
<ele>565.1</ele>
<speed>1.2</speed>
<course>294.6</course>
<desc>Speed 1.2 km/h Distance 11.65 km</desc>
<time>2010-06-13T06:48:49.73</time>
<name>2636</name>
</trkpt>
<trkpt lat="49.203748" lon="11.705242">
<ele>567.0</ele>
<speed>1.5</speed>
<course>337.3</course>
<desc>Speed 1.5 km/h Distance 11.66 km</desc>
<time>2010-06-13T06:48:50.71</time>
<name>2637</name>
</trkpt>
<trkpt lat="49.203767" lon="11.705230">
<ele>566.7</ele>
<speed>2.8</speed>
<course>351.6</course>
<desc>Speed 2.8 km/h Distance 11.66 km</desc>
<time>2010-06-13T06:48:51.72</time>
<name>2638</name>
</trkpt>
<trkpt lat="49.203788" lon="11.705225">
<ele>567.2</ele>
<speed>4.1</speed>
<course>337.4</course>
<desc>Speed 4.1 km/h Distance 11.66 km</desc>
<time>2010-06-13T06:48:52.72</time>
<name>2639</name>
</trkpt>
<trkpt lat="49.203807" lon="11.705213">
<ele>569.3</ele>
<speed>6.3</speed>
<course>329.4</course>
<desc>Speed 6.3 km/h Distance 11.66 km</desc>
<time>2010-06-13T06:48:53.73</time>
<name>2640</name>
</trkpt>
<trkpt lat="49.203823" lon="11.705198">
<ele>570.9</ele>
<speed>6.4</speed>
<course>326.6</course>
<desc>Speed 6.4 km/h Distance 11.67 km</desc>
<time>2010-06-13T06:48:54.72</time>
<name>2641</name>
</trkpt>
<trkpt lat="49.203835" lon="11.705187">
<ele>572.2</ele>
<speed>6.4</speed>
<course>290.9</course>
<desc>Speed 6.4 km/h Distance 11.67 km</desc>
<time>2010-06-13T06:48:55.72</time>
<name>2642</name>
</trkpt>
<trkpt lat="49.203837" lon="11.705180">
<ele>573.0</ele>
<speed>6.4</speed>
<course>305.9</course>
<desc>Speed 6.4 km/h Distance 11.67 km</desc>
<time>2010-06-13T06:48:56.71</time>
<name>2643</name>
</trkpt>
<trkpt lat="49.203852" lon="11.705148">
<ele>572.5</ele>
<speed>6.4</speed>
<course>338.1</course>
<desc>Speed 6.4 km/h Distance 11.67 km</desc>
<time>2010-06-13T06:48:57.74</time>
<name>2644</name>
</trkpt>
<trkpt lat="49.203873" lon="11.705135">
<ele>572.4</ele>
<speed>5.3</speed>
<course>349.2</course>
<desc>Speed 5.3 km/h Distance 11.67 km</desc>
<time>2010-06-13T06:48:58.72</time>
<name>2645</name>
</trkpt>
<trkpt lat="49.203890" lon="11.705130">
<ele>576.5</ele>
<speed>6.0</speed>
<course>302.5</course>
<desc>Speed 6.0 km/h Distance 11.67 km</desc>
<time>2010-06-13T06:48:59.72</time>
<name>2646</name>
</trkpt>
<trkpt lat="49.203898" lon="11.705110">
<ele>578.6</ele>
<speed>5.6</speed>
<course>295.6</course>
<desc>Speed 5.6 km/h Distance 11.68 km</desc>
<time>2010-06-13T06:49:00.74</time>
<name>2647</name>
</trkpt>
<trkpt lat="49.203907" lon="11.705083">
<ele>579.5</ele>
<speed>5.9</speed>
<course>309.2</course>
<desc>Speed 5.9 km/h Distance 11.68 km</desc>
<time>2010-06-13T06:49:01.73</time>
<name>2648</name>
</trkpt>
<trkpt lat="49.203920" lon="11.705058">
<ele>581.1</ele>
<speed>5.1</speed>
<course>309.2</course>
<desc>Speed 5.1 km/h Distance 11.68 km</desc>
<time>2010-06-13T06:49:02.71</time>
<name>2649</name>
</trkpt>
<trkpt lat="49.203920" lon="11.705058">
<ele>584.1</ele>
<speed>3.7</speed>
<course>23.8</course>
<desc>Speed 3.7 km/h Distance 11.68 km</desc>
<time>2010-06-13T06:49:03.73</time>
<name>2650</name>
</trkpt>
<trkpt lat="49.203925" lon="11.705062">
<ele>587.8</ele>
<speed>4.7</speed>
<course>306.1</course>
<desc>Speed 4.7 km/h Distance 11.68 km</desc>
<time>2010-06-13T06:49:04.73</time>
<name>2651</name>
</trkpt>
<trkpt lat="49.203927" lon="11.705058">
<ele>588.7</ele>
<speed>2.7</speed>
<course>355.0</course>
<desc>Speed 2.7 km/h Distance 11.68 km</desc>
<time>2010-06-13T06:49:05.72</time>
<name>2652</name>
</trkpt>
<trkpt lat="49.203935" lon="11.705057">
<ele>589.0</ele>
<speed>2.3</speed>
<course>326.8</course>
<desc>Speed 2.3 km/h Distance 11.68 km</desc>
<time>2010-06-13T06:49:06.72</time>
<name>2653</name>
</trkpt>
<trkpt lat="49.203942" lon="11.705050">
<ele>587.9</ele>
<speed>1.4</speed>
<course>327.0</course>
<desc>Speed 1.4 km/h Distance 11.68 km</desc>
<time>2010-06-13T06:49:07.72</time>
<name>2654</name>
</trkpt>
<trkpt lat="49.203955" lon="11.705037">
<ele>586.5</ele>
<speed>3.3</speed>
<course>332.8</course>
<desc>Speed 3.3 km/h Distance 11.69 km</desc>
<time>2010-06-13T06:49:08.72</time>
<name>2655</name>
</trkpt>
<trkpt lat="49.204002" lon="11.705000">
<ele>586.3</ele>
<speed>7.2</speed>
<course>340.8</course>
<desc>Speed 7.2 km/h Distance 11.69 km</desc>
<time>2010-06-13T06:49:10.71</time>
<name>2656</name>
</trkpt>
<trkpt lat="49.204080" lon="11.704958">
<ele>584.5</ele>
<speed>6.9</speed>
<course>90.0</course>
<desc>Speed 6.9 km/h Distance 11.70 km</desc>
<time>2010-06-13T06:49:12.72</time>
<name>2657</name>
</trkpt>
<trkpt lat="49.204080" lon="11.704985">
<ele>588.9</ele>
<speed>5.7</speed>
<course>356.8</course>
<desc>Speed 5.7 km/h Distance 11.70 km</desc>
<time>2010-06-13T06:49:13.72</time>
<name>2658</name>
</trkpt>
<trkpt lat="49.204102" lon="11.704983">
<ele>588.4</ele>
<speed>5.4</speed>
<course>341.2</course>
<desc>Speed 5.4 km/h Distance 11.70 km</desc>
<time>2010-06-13T06:49:14.73</time>
<name>2659</name>
</trkpt>
<trkpt lat="49.204108" lon="11.704980">
<ele>589.1</ele>
<speed>4.0</speed>
<course>335.4</course>
<desc>Speed 4.0 km/h Distance 11.71 km</desc>
<time>2010-06-13T06:49:15.72</time>
<name>2660</name>
</trkpt>
<trkpt lat="49.204125" lon="11.704968">
<ele>590.9</ele>
<speed>4.8</speed>
<course>307.5</course>
<desc>Speed 4.8 km/h Distance 11.71 km</desc>
<time>2010-06-13T06:49:16.72</time>
<name>2661</name>
</trkpt>
<trkpt lat="49.204135" lon="11.704948">
<ele>592.2</ele>
<speed>5.6</speed>
<course>286.9</course>
<desc>Speed 5.6 km/h Distance 11.71 km</desc>
<time>2010-06-13T06:49:17.72</time>
<name>2662</name>
</trkpt>
<trkpt lat="49.204137" lon="11.704940">
<ele>593.3</ele>
<speed>5.4</speed>
<course>299.1</course>
<desc>Speed 5.4 km/h Distance 11.71 km</desc>
<time>2010-06-13T06:49:18.73</time>
<name>2663</name>
</trkpt>
<trkpt lat="49.204143" lon="11.704922">
<ele>592.9</ele>
<speed>6.2</speed>
<course>282.3</course>
<desc>Speed 6.2 km/h Distance 11.71 km</desc>
<time>2010-06-13T06:49:19.73</time>
<name>2664</name>
</trkpt>
<trkpt lat="49.204145" lon="11.704910">
<ele>594.5</ele>
<speed>4.9</speed>
<course>295.2</course>
<desc>Speed 4.9 km/h Distance 11.71 km</desc>
<time>2010-06-13T06:49:20.73</time>
<name>2665</name>
</trkpt>
<trkpt lat="49.204152" lon="11.704888">
<ele>593.5</ele>
<speed>5.1</speed>
<course>321.6</course>
<desc>Speed 5.1 km/h Distance 11.71 km</desc>
<time>2010-06-13T06:49:21.72</time>
<name>2666</name>
</trkpt>
<trkpt lat="49.204175" lon="11.704860">
<ele>592.6</ele>
<speed>6.2</speed>
<course>330.3</course>
<desc>Speed 6.2 km/h Distance 11.72 km</desc>
<time>2010-06-13T06:49:22.72</time>
<name>2667</name>
</trkpt>
<trkpt lat="49.204202" lon="11.704837">
<ele>592.1</ele>
<speed>6.8</speed>
<course>333.3</course>
<desc>Speed 6.8 km/h Distance 11.72 km</desc>
<time>2010-06-13T06:49:23.71</time>
<name>2668</name>
</trkpt>
<trkpt lat="49.204223" lon="11.704820">
<ele>592.6</ele>
<speed>6.3</speed>
<course>331.0</course>
<desc>Speed 6.3 km/h Distance 11.72 km</desc>
<time>2010-06-13T06:49:24.72</time>
<name>2669</name>
</trkpt>
<trkpt lat="49.204245" lon="11.704802">
<ele>593.3</ele>
<speed>6.4</speed>
<course>2.5</course>
<desc>Speed 6.4 km/h Distance 11.73 km</desc>
<time>2010-06-13T06:49:25.72</time>
<name>2670</name>
</trkpt>
<trkpt lat="49.204263" lon="11.704803">
<ele>594.3</ele>
<speed>5.5</speed>
<course>326.8</course>
<desc>Speed 5.5 km/h Distance 11.73 km</desc>
<time>2010-06-13T06:49:26.72</time>
<name>2671</name>
</trkpt>
<trkpt lat="49.204277" lon="11.704790">
<ele>593.0</ele>
<speed>3.2</speed>
<course>344.3</course>
<desc>Speed 3.2 km/h Distance 11.73 km</desc>
<time>2010-06-13T06:49:27.72</time>
<name>2672</name>
</trkpt>
<trkpt lat="49.204300" lon="11.704780">
<ele>591.3</ele>
<speed>4.9</speed>
<course>324.7</course>
<desc>Speed 4.9 km/h Distance 11.73 km</desc>
<time>2010-06-13T06:49:28.73</time>
<name>2673</name>
</trkpt>
<trkpt lat="49.204320" lon="11.704758">
<ele>590.4</ele>
<speed>6.1</speed>
<course>305.5</course>
<desc>Speed 6.1 km/h Distance 11.74 km</desc>
<time>2010-06-13T06:49:29.73</time>
<name>2674</name>
</trkpt>
<trkpt lat="49.204332" lon="11.704733">
<ele>590.8</ele>
<speed>5.7</speed>
<course>318.8</course>
<desc>Speed 5.7 km/h Distance 11.74 km</desc>
<time>2010-06-13T06:49:30.71</time>
<name>2675</name>
</trkpt>
<trkpt lat="49.204342" lon="11.704720">
<ele>590.9</ele>
<speed>5.1</speed>
<course>339.4</course>
<desc>Speed 5.1 km/h Distance 11.74 km</desc>
<time>2010-06-13T06:49:31.72</time>
<name>2676</name>
</trkpt>
<trkpt lat="49.204353" lon="11.704713">
<ele>591.8</ele>
<speed>4.0</speed>
<course>288.8</course>
<desc>Speed 4.0 km/h Distance 11.74 km</desc>
<time>2010-06-13T06:49:32.73</time>
<name>2677</name>
</trkpt>
<trkpt lat="49.204357" lon="11.704698">
<ele>592.8</ele>
<speed>3.9</speed>
<course>317.4</course>
<desc>Speed 3.9 km/h Distance 11.74 km</desc>
<time>2010-06-13T06:49:33.73</time>
<name>2678</name>
</trkpt>
<trkpt lat="49.204365" lon="11.704687">
<ele>591.7</ele>
<speed>3.9</speed>
<course>318.8</course>
<desc>Speed 3.9 km/h Distance 11.74 km</desc>
<time>2010-06-13T06:49:34.71</time>
<name>2679</name>
</trkpt>
<trkpt lat="49.204375" lon="11.704673">
<ele>590.3</ele>
<speed>5.7</speed>
<course>290.9</course>
<desc>Speed 5.7 km/h Distance 11.74 km</desc>
<time>2010-06-13T06:49:35.72</time>
<name>2680</name>
</trkpt>
<trkpt lat="49.204378" lon="11.704660">
<ele>589.3</ele>
<speed>5.1</speed>
<course>9.0</course>
<desc>Speed 5.1 km/h Distance 11.75 km</desc>
<time>2010-06-13T06:49:36.72</time>
<name>2681</name>
</trkpt>
<trkpt lat="49.204392" lon="11.704663">
<ele>588.1</ele>
<speed>4.3</speed>
<course>329.9</course>
<desc>Speed 4.3 km/h Distance 11.75 km</desc>
<time>2010-06-13T06:49:37.72</time>
<name>2682</name>
</trkpt>
<trkpt lat="49.204407" lon="11.704650">
<ele>588.6</ele>
<speed>4.4</speed>
<course>289.4</course>
<desc>Speed 4.4 km/h Distance 11.75 km</desc>
<time>2010-06-13T06:49:38.73</time>
<name>2683</name>
</trkpt>
<trkpt lat="49.204412" lon="11.704628">
<ele>589.0</ele>
<speed>6.2</speed>
<course>318.9</course>
<desc>Speed 6.2 km/h Distance 11.75 km</desc>
<time>2010-06-13T06:49:39.71</time>
<name>2684</name>
</trkpt>
<trkpt lat="49.204432" lon="11.704602">
<ele>588.5</ele>
<speed>7.1</speed>
<course>331.5</course>
<desc>Speed 7.1 km/h Distance 11.75 km</desc>
<time>2010-06-13T06:49:40.72</time>
<name>2685</name>
</trkpt>
<trkpt lat="49.204462" lon="11.704577">
<ele>586.7</ele>
<speed>6.8</speed>
<course>326.8</course>
<desc>Speed 6.8 km/h Distance 11.76 km</desc>
<time>2010-06-13T06:49:41.73</time>
<name>2686</name>
</trkpt>
<trkpt lat="49.204482" lon="11.704557">
<ele>585.6</ele>
<speed>5.3</speed>
<course>318.9</course>
<desc>Speed 5.3 km/h Distance 11.76 km</desc>
<time>2010-06-13T06:49:42.74</time>
<name>2687</name>
</trkpt>
<trkpt lat="49.204497" lon="11.704537">
<ele>584.5</ele>
<speed>5.7</speed>
<course>334.5</course>
<desc>Speed 5.7 km/h Distance 11.76 km</desc>
<time>2010-06-13T06:49:43.71</time>
<name>2688</name>
</trkpt>
<trkpt lat="49.204515" lon="11.704523">
<ele>584.4</ele>
<speed>5.7</speed>
<course>288.7</course>
<desc>Speed 5.7 km/h Distance 11.76 km</desc>
<time>2010-06-13T06:49:44.72</time>
<name>2689</name>
</trkpt>
<trkpt lat="49.204518" lon="11.704508">
<ele>584.5</ele>
<speed>6.1</speed>
<course>329.8</course>
<desc>Speed 6.1 km/h Distance 11.77 km</desc>
<time>2010-06-13T06:49:45.71</time>
<name>2690</name>
</trkpt>
<trkpt lat="49.204533" lon="11.704495">
<ele>584.1</ele>
<speed>6.4</speed>
<course>324.8</course>
<desc>Speed 6.4 km/h Distance 11.77 km</desc>
<time>2010-06-13T06:49:46.71</time>
<name>2691</name>
</trkpt>
<trkpt lat="49.204555" lon="11.704472">
<ele>584.1</ele>
<speed>7.2</speed>
<course>313.7</course>
<desc>Speed 7.2 km/h Distance 11.77 km</desc>
<time>2010-06-13T06:49:47.71</time>
<name>2692</name>
</trkpt>
<trkpt lat="49.204572" lon="11.704445">
<ele>585.3</ele>
<speed>8.1</speed>
<course>303.3</course>
<desc>Speed 8.1 km/h Distance 11.77 km</desc>
<time>2010-06-13T06:49:48.72</time>
<name>2693</name>
</trkpt>
<trkpt lat="49.204582" lon="11.704422">
<ele>586.1</ele>
<speed>6.5</speed>
<course>294.2</course>
<desc>Speed 6.5 km/h Distance 11.78 km</desc>
<time>2010-06-13T06:49:49.72</time>
<name>2694</name>
</trkpt>
<trkpt lat="49.204590" lon="11.704393">
<ele>586.4</ele>
<speed>6.5</speed>
<course>324.0</course>
<desc>Speed 6.5 km/h Distance 11.78 km</desc>
<time>2010-06-13T06:49:50.72</time>
<name>2695</name>
</trkpt>
<trkpt lat="49.204605" lon="11.704377">
<ele>586.5</ele>
<speed>7.0</speed>
<course>347.4</course>
<desc>Speed 7.0 km/h Distance 11.78 km</desc>
<time>2010-06-13T06:49:51.71</time>
<name>2696</name>
</trkpt>
<trkpt lat="49.204625" lon="11.704370">
<ele>587.0</ele>
<speed>6.7</speed>
<course>322.5</course>
<desc>Speed 6.7 km/h Distance 11.78 km</desc>
<time>2010-06-13T06:49:52.73</time>
<name>2697</name>
</trkpt>
<trkpt lat="49.204635" lon="11.704358">
<ele>587.5</ele>
<speed>5.8</speed>
<course>318.0</course>
<desc>Speed 5.8 km/h Distance 11.78 km</desc>
<time>2010-06-13T06:49:53.72</time>
<name>2698</name>
</trkpt>
<trkpt lat="49.204648" lon="11.704340">
<ele>588.8</ele>
<speed>5.8</speed>
<course>338.2</course>
<desc>Speed 5.8 km/h Distance 11.79 km</desc>
<time>2010-06-13T06:49:54.72</time>
<name>2699</name>
</trkpt>
<trkpt lat="49.204678" lon="11.704322">
<ele>588.8</ele>
<speed>6.6</speed>
<course>340.9</course>
<desc>Speed 6.6 km/h Distance 11.79 km</desc>
<time>2010-06-13T06:49:55.73</time>
<name>2700</name>
</trkpt>
<trkpt lat="49.204707" lon="11.704307">
<ele>590.0</ele>
<speed>6.3</speed>
<course>351.3</course>
<desc>Speed 6.3 km/h Distance 11.79 km</desc>
<time>2010-06-13T06:49:56.71</time>
<name>2701</name>
</trkpt>
<trkpt lat="49.204728" lon="11.704302">
<ele>589.5</ele>
<speed>5.9</speed>
<course>347.8</course>
<desc>Speed 5.9 km/h Distance 11.79 km</desc>
<time>2010-06-13T06:49:57.71</time>
<name>2702</name>
</trkpt>
<trkpt lat="49.204743" lon="11.704297">
<ele>589.7</ele>
<speed>7.0</speed>
<course>340.6</course>
<desc>Speed 7.0 km/h Distance 11.80 km</desc>
<time>2010-06-13T06:49:58.73</time>
<name>2703</name>
</trkpt>
<trkpt lat="49.204765" lon="11.704285">
<ele>590.8</ele>
<speed>7.0</speed>
<course>343.4</course>
<desc>Speed 7.0 km/h Distance 11.80 km</desc>
<time>2010-06-13T06:49:59.72</time>
<name>2704</name>
</trkpt>
<trkpt lat="49.204783" lon="11.704277">
<ele>590.6</ele>
<speed>5.6</speed>
<course>332.5</course>
<desc>Speed 5.6 km/h Distance 11.80 km</desc>
<time>2010-06-13T06:50:00.73</time>
<name>2705</name>
</trkpt>
<trkpt lat="49.204800" lon="11.704263">
<ele>591.7</ele>
<speed>7.4</speed>
<course>350.7</course>
<desc>Speed 7.4 km/h Distance 11.80 km</desc>
<time>2010-06-13T06:50:01.72</time>
<name>2706</name>
</trkpt>
<trkpt lat="49.204833" lon="11.704255">
<ele>591.6</ele>
<speed>9.8</speed>
<course>339.0</course>
<desc>Speed 9.8 km/h Distance 11.81 km</desc>
<time>2010-06-13T06:50:02.72</time>
<name>2707</name>
</trkpt>
<trkpt lat="49.204853" lon="11.704243">
<ele>591.6</ele>
<speed>8.5</speed>
<course>344.0</course>
<desc>Speed 8.5 km/h Distance 11.81 km</desc>
<time>2010-06-13T06:50:03.71</time>
<name>2708</name>
</trkpt>
<trkpt lat="49.204880" lon="11.704232">
<ele>592.1</ele>
<speed>7.7</speed>
<course>351.0</course>
<desc>Speed 7.7 km/h Distance 11.81 km</desc>
<time>2010-06-13T06:50:04.73</time>
<name>2709</name>
</trkpt>
<trkpt lat="49.204907" lon="11.704225">
<ele>591.5</ele>
<speed>7.8</speed>
<course>350.0</course>
<desc>Speed 7.8 km/h Distance 11.82 km</desc>
<time>2010-06-13T06:50:05.73</time>
<name>2710</name>
</trkpt>
<trkpt lat="49.204932" lon="11.704218">
<ele>591.2</ele>
<speed>6.7</speed>
<course>336.5</course>
<desc>Speed 6.7 km/h Distance 11.82 km</desc>
<time>2010-06-13T06:50:06.73</time>
<name>2711</name>
</trkpt>
<trkpt lat="49.204947" lon="11.704208">
<ele>591.3</ele>
<speed>6.3</speed>
<course>344.0</course>
<desc>Speed 6.3 km/h Distance 11.82 km</desc>
<time>2010-06-13T06:50:07.72</time>
<name>2712</name>
</trkpt>
<trkpt lat="49.204958" lon="11.704203">
<ele>591.4</ele>
<speed>4.8</speed>
<course>311.1</course>
<desc>Speed 4.8 km/h Distance 11.82 km</desc>
<time>2010-06-13T06:50:08.72</time>
<name>2713</name>
</trkpt>
<trkpt lat="49.204965" lon="11.704192">
<ele>592.1</ele>
<speed>4.6</speed>
<course>329.3</course>
<desc>Speed 4.6 km/h Distance 11.82 km</desc>
<time>2010-06-13T06:50:09.72</time>
<name>2714</name>
</trkpt>
<trkpt lat="49.204983" lon="11.704175">
<ele>593.4</ele>
<speed>5.2</speed>
<course>342.5</course>
<desc>Speed 5.2 km/h Distance 11.83 km</desc>
<time>2010-06-13T06:50:10.72</time>
<name>2715</name>
</trkpt>
<trkpt lat="49.204990" lon="11.704172">
<ele>592.3</ele>
<speed>5.3</speed>
<course>338.9</course>
<desc>Speed 5.3 km/h Distance 11.83 km</desc>
<time>2010-06-13T06:50:11.71</time>
<name>2716</name>
</trkpt>
<trkpt lat="49.205007" lon="11.704162">
<ele>592.0</ele>
<speed>7.2</speed>
<course>337.5</course>
<desc>Speed 7.2 km/h Distance 11.83 km</desc>
<time>2010-06-13T06:50:12.72</time>
<name>2717</name>
</trkpt>
<trkpt lat="49.205025" lon="11.704150">
<ele>592.0</ele>
<speed>8.7</speed>
<course>317.1</course>
<desc>Speed 8.7 km/h Distance 11.83 km</desc>
<time>2010-06-13T06:50:13.73</time>
<name>2718</name>
</trkpt>
<trkpt lat="49.205037" lon="11.704133">
<ele>592.3</ele>
<speed>6.7</speed>
<course>349.6</course>
<desc>Speed 6.7 km/h Distance 11.83 km</desc>
<time>2010-06-13T06:50:14.72</time>
<name>2719</name>
</trkpt>
<trkpt lat="49.205060" lon="11.704127">
<ele>591.4</ele>
<speed>7.1</speed>
<course>350.2</course>
<desc>Speed 7.1 km/h Distance 11.83 km</desc>
<time>2010-06-13T06:50:15.70</time>
<name>2720</name>
</trkpt>
<trkpt lat="49.205092" lon="11.704118">
<ele>591.1</ele>
<speed>7.6</speed>
<course>342.8</course>
<desc>Speed 7.6 km/h Distance 11.84 km</desc>
<time>2010-06-13T06:50:16.72</time>
<name>2721</name>
</trkpt>
<trkpt lat="49.205123" lon="11.704103">
<ele>591.8</ele>
<speed>8.1</speed>
<course>345.4</course>
<desc>Speed 8.1 km/h Distance 11.84 km</desc>
<time>2010-06-13T06:50:17.71</time>
<name>2722</name>
</trkpt>
<trkpt lat="49.205148" lon="11.704093">
<ele>592.0</ele>
<speed>7.2</speed>
<course>318.8</course>
<desc>Speed 7.2 km/h Distance 11.84 km</desc>
<time>2010-06-13T06:50:18.71</time>
<name>2723</name>
</trkpt>
<trkpt lat="49.205158" lon="11.704080">
<ele>591.6</ele>
<speed>5.3</speed>
<course>340.4</course>
<desc>Speed 5.3 km/h Distance 11.85 km</desc>
<time>2010-06-13T06:50:19.71</time>
<name>2724</name>
</trkpt>
<trkpt lat="49.205173" lon="11.704072">
<ele>593.1</ele>
<speed>5.5</speed>
<course>335.5</course>
<desc>Speed 5.5 km/h Distance 11.85 km</desc>
<time>2010-06-13T06:50:20.71</time>
<name>2725</name>
</trkpt>
<trkpt lat="49.205190" lon="11.704060">
<ele>595.4</ele>
<speed>5.3</speed>
<course>326.8</course>
<desc>Speed 5.3 km/h Distance 11.85 km</desc>
<time>2010-06-13T06:50:21.72</time>
<name>2726</name>
</trkpt>
<trkpt lat="49.205208" lon="11.704042">
<ele>597.4</ele>
<speed>6.5</speed>
<course>326.9</course>
<desc>Speed 6.5 km/h Distance 11.85 km</desc>
<time>2010-06-13T06:50:22.73</time>
<name>2727</name>
</trkpt>
<trkpt lat="49.205233" lon="11.704017">
<ele>597.8</ele>
<speed>7.2</speed>
<course>351.3</course>
<desc>Speed 7.2 km/h Distance 11.86 km</desc>
<time>2010-06-13T06:50:23.71</time>
<name>2728</name>
</trkpt>
<trkpt lat="49.205262" lon="11.704010">
<ele>598.9</ele>
<speed>9.2</speed>
<course>348.6</course>
<desc>Speed 9.2 km/h Distance 11.86 km</desc>
<time>2010-06-13T06:50:24.71</time>
<name>2729</name>
</trkpt>
<trkpt lat="49.205288" lon="11.704002">
<ele>600.1</ele>
<speed>8.5</speed>
<course>341.9</course>
<desc>Speed 8.5 km/h Distance 11.86 km</desc>
<time>2010-06-13T06:50:25.72</time>
<name>2730</name>
</trkpt>
<trkpt lat="49.205315" lon="11.703988">
<ele>599.6</ele>
<speed>7.7</speed>
<course>343.9</course>
<desc>Speed 7.7 km/h Distance 11.86 km</desc>
<time>2010-06-13T06:50:26.71</time>
<name>2731</name>
</trkpt>
<trkpt lat="49.205345" lon="11.703975">
<ele>598.8</ele>
<speed>8.1</speed>
<course>340.6</course>
<desc>Speed 8.1 km/h Distance 11.87 km</desc>
<time>2010-06-13T06:50:27.71</time>
<name>2732</name>
</trkpt>
<trkpt lat="49.205367" lon="11.703963">
<ele>598.2</ele>
<speed>7.6</speed>
<course>342.8</course>
<desc>Speed 7.6 km/h Distance 11.87 km</desc>
<time>2010-06-13T06:50:28.71</time>
<name>2733</name>
</trkpt>
<trkpt lat="49.205398" lon="11.703948">
<ele>597.5</ele>
<speed>8.4</speed>
<course>344.3</course>
<desc>Speed 8.4 km/h Distance 11.87 km</desc>
<time>2010-06-13T06:50:29.71</time>
<name>2734</name>
</trkpt>
<trkpt lat="49.205422" lon="11.703938">
<ele>598.9</ele>
<speed>8.6</speed>
<course>353.6</course>
<desc>Speed 8.6 km/h Distance 11.88 km</desc>
<time>2010-06-13T06:50:30.71</time>
<name>2735</name>
</trkpt>
<trkpt lat="49.205452" lon="11.703933">
<ele>599.9</ele>
<speed>9.3</speed>
<course>335.9</course>
<desc>Speed 9.3 km/h Distance 11.88 km</desc>
<time>2010-06-13T06:50:31.71</time>
<name>2736</name>
</trkpt>
<trkpt lat="49.205483" lon="11.703912">
<ele>599.2</ele>
<speed>9.7</speed>
<course>341.9</course>
<desc>Speed 9.7 km/h Distance 11.88 km</desc>
<time>2010-06-13T06:50:32.71</time>
<name>2737</name>
</trkpt>
<trkpt lat="49.205497" lon="11.703905">
<ele>598.6</ele>
<speed>8.3</speed>
<course>0.0</course>
<desc>Speed 8.3 km/h Distance 11.89 km</desc>
<time>2010-06-13T06:50:33.72</time>
<name>2738</name>
</trkpt>
<trkpt lat="49.205512" lon="11.703905">
<ele>599.9</ele>
<speed>8.2</speed>
<course>4.7</course>
<desc>Speed 8.2 km/h Distance 11.89 km</desc>
<time>2010-06-13T06:50:34.71</time>
<name>2739</name>
</trkpt>
<trkpt lat="49.205523" lon="11.703907">
<ele>600.6</ele>
<speed>8.0</speed>
<course>3.7</course>
<desc>Speed 8.0 km/h Distance 11.89 km</desc>
<time>2010-06-13T06:50:35.71</time>
<name>2740</name>
</trkpt>
<trkpt lat="49.205543" lon="11.703908">
<ele>601.8</ele>
<speed>10.0</speed>
<course>351.7</course>
<desc>Speed 10.0 km/h Distance 11.89 km</desc>
<time>2010-06-13T06:50:36.71</time>
<name>2741</name>
</trkpt>
<trkpt lat="49.205573" lon="11.703902">
<ele>602.1</ele>
<speed>10.7</speed>
<course>344.8</course>
<desc>Speed 10.7 km/h Distance 11.89 km</desc>
<time>2010-06-13T06:50:37.71</time>
<name>2742</name>
</trkpt>
<trkpt lat="49.205613" lon="11.703885">
<ele>602.2</ele>
<speed>11.7</speed>
<course>348.2</course>
<desc>Speed 11.7 km/h Distance 11.90 km</desc>
<time>2010-06-13T06:50:38.71</time>
<name>2743</name>
</trkpt>
<trkpt lat="49.205655" lon="11.703872">
<ele>600.4</ele>
<speed>11.4</speed>
<course>342.7</course>
<desc>Speed 11.4 km/h Distance 11.90 km</desc>
<time>2010-06-13T06:50:39.72</time>
<name>2744</name>
</trkpt>
<trkpt lat="49.205690" lon="11.703855">
<ele>599.7</ele>
<speed>11.4</speed>
<course>341.9</course>
<desc>Speed 11.4 km/h Distance 11.91 km</desc>
<time>2010-06-13T06:50:40.72</time>
<name>2745</name>
</trkpt>
<trkpt lat="49.205727" lon="11.703837">
<ele>599.9</ele>
<speed>13.4</speed>
<course>335.2</course>
<desc>Speed 13.4 km/h Distance 11.91 km</desc>
<time>2010-06-13T06:50:41.71</time>
<name>2746</name>
</trkpt>
<trkpt lat="49.205755" lon="11.703817">
<ele>599.9</ele>
<speed>14.4</speed>
<course>343.2</course>
<desc>Speed 14.4 km/h Distance 11.92 km</desc>
<time>2010-06-13T06:50:42.72</time>
<name>2747</name>
</trkpt>
<trkpt lat="49.205798" lon="11.703797">
<ele>600.0</ele>
<speed>14.8</speed>
<course>345.0</course>
<desc>Speed 14.8 km/h Distance 11.92 km</desc>
<time>2010-06-13T06:50:43.71</time>
<name>2748</name>
</trkpt>
<trkpt lat="49.205835" lon="11.703782">
<ele>599.9</ele>
<speed>14.1</speed>
<course>343.6</course>
<desc>Speed 14.1 km/h Distance 11.93 km</desc>
<time>2010-06-13T06:50:44.71</time>
<name>2749</name>
</trkpt>
<trkpt lat="49.205868" lon="11.703767">
<ele>599.8</ele>
<speed>14.2</speed>
<course>346.7</course>
<desc>Speed 14.2 km/h Distance 11.93 km</desc>
<time>2010-06-13T06:50:45.71</time>
<name>2750</name>
</trkpt>
<trkpt lat="49.205910" lon="11.703752">
<ele>599.7</ele>
<speed>13.9</speed>
<course>344.0</course>
<desc>Speed 13.9 km/h Distance 11.93 km</desc>
<time>2010-06-13T06:50:46.72</time>
<name>2751</name>
</trkpt>
<trkpt lat="49.205937" lon="11.703740">
<ele>599.8</ele>
<speed>13.4</speed>
<course>345.0</course>
<desc>Speed 13.4 km/h Distance 11.94 km</desc>
<time>2010-06-13T06:50:47.72</time>
<name>2752</name>
</trkpt>
<trkpt lat="49.205973" lon="11.703725">
<ele>599.8</ele>
<speed>13.4</speed>
<course>342.6</course>
<desc>Speed 13.4 km/h Distance 11.94 km</desc>
<time>2010-06-13T06:50:48.71</time>
<name>2753</name>
</trkpt>
<trkpt lat="49.206012" lon="11.703707">
<ele>599.6</ele>
<speed>15.0</speed>
<course>335.3</course>
<desc>Speed 15.0 km/h Distance 11.95 km</desc>
<time>2010-06-13T06:50:49.71</time>
<name>2754</name>
</trkpt>
<trkpt lat="49.206040" lon="11.703687">
<ele>599.2</ele>
<speed>16.4</speed>
<course>337.0</course>
<desc>Speed 16.4 km/h Distance 11.95 km</desc>
<time>2010-06-13T06:50:50.72</time>
<name>2755</name>
</trkpt>
<trkpt lat="49.206073" lon="11.703665">
<ele>598.9</ele>
<speed>18.0</speed>
<course>341.9</course>
<desc>Speed 18.0 km/h Distance 11.95 km</desc>
<time>2010-06-13T06:50:51.72</time>
<name>2756</name>
</trkpt>
<trkpt lat="49.206123" lon="11.703640">
<ele>598.8</ele>
<speed>18.8</speed>
<course>342.5</course>
<desc>Speed 18.8 km/h Distance 11.96 km</desc>
<time>2010-06-13T06:50:52.71</time>
<name>2757</name>
</trkpt>
<trkpt lat="49.206172" lon="11.703617">
<ele>598.7</ele>
<speed>19.3</speed>
<course>335.1</course>
<desc>Speed 19.3 km/h Distance 11.96 km</desc>
<time>2010-06-13T06:50:53.72</time>
<name>2758</name>
</trkpt>
<trkpt lat="49.206212" lon="11.703588">
<ele>598.5</ele>
<speed>18.8</speed>
<course>334.8</course>
<desc>Speed 18.8 km/h Distance 11.97 km</desc>
<time>2010-06-13T06:50:54.72</time>
<name>2759</name>
</trkpt>
<trkpt lat="49.206253" lon="11.703558">
<ele>598.5</ele>
<speed>18.9</speed>
<course>332.7</course>
<desc>Speed 18.9 km/h Distance 11.97 km</desc>
<time>2010-06-13T06:50:55.72</time>
<name>2760</name>
</trkpt>
<trkpt lat="49.206285" lon="11.703533">
<ele>597.6</ele>
<speed>17.8</speed>
<course>334.6</course>
<desc>Speed 17.8 km/h Distance 11.98 km</desc>
<time>2010-06-13T06:50:56.71</time>
<name>2761</name>
</trkpt>
<trkpt lat="49.206322" lon="11.703507">
<ele>596.9</ele>
<speed>19.0</speed>
<course>328.2</course>
<desc>Speed 19.0 km/h Distance 11.98 km</desc>
<time>2010-06-13T06:50:57.72</time>
<name>2762</name>
</trkpt>
<trkpt lat="49.206355" lon="11.703475">
<ele>597.0</ele>
<speed>18.6</speed>
<course>337.9</course>
<desc>Speed 18.6 km/h Distance 11.99 km</desc>
<time>2010-06-13T06:50:58.71</time>
<name>2763</name>
</trkpt>
<trkpt lat="49.206403" lon="11.703445">
<ele>596.7</ele>
<speed>18.9</speed>
<course>339.7</course>
<desc>Speed 18.9 km/h Distance 11.99 km</desc>
<time>2010-06-13T06:50:59.71</time>
<name>2764</name>
</trkpt>
<trkpt lat="49.206442" lon="11.703423">
<ele>595.7</ele>
<speed>19.3</speed>
<course>340.6</course>
<desc>Speed 19.3 km/h Distance 12.00 km</desc>
<time>2010-06-13T06:51:00.71</time>
<name>2765</name>
</trkpt>
<trkpt lat="49.206485" lon="11.703400">
<ele>595.1</ele>
<speed>19.4</speed>
<course>340.8</course>
<desc>Speed 19.4 km/h Distance 12.00 km</desc>
<time>2010-06-13T06:51:01.72</time>
<name>2766</name>
</trkpt>
<trkpt lat="49.206535" lon="11.703373">
<ele>594.9</ele>
<speed>19.9</speed>
<course>343.1</course>
<desc>Speed 19.9 km/h Distance 12.01 km</desc>
<time>2010-06-13T06:51:02.72</time>
<name>2767</name>
</trkpt>
<trkpt lat="49.206585" lon="11.703350">
<ele>594.9</ele>
<speed>22.1</speed>
<course>349.8</course>
<desc>Speed 22.1 km/h Distance 12.01 km</desc>
<time>2010-06-13T06:51:03.71</time>
<name>2768</name>
</trkpt>
<trkpt lat="49.206652" lon="11.703332">
<ele>596.0</ele>
<speed>24.6</speed>
<course>348.5</course>
<desc>Speed 24.6 km/h Distance 12.02 km</desc>
<time>2010-06-13T06:51:04.72</time>
<name>2769</name>
</trkpt>
<trkpt lat="49.206722" lon="11.703310">
<ele>596.3</ele>
<speed>25.1</speed>
<course>344.0</course>
<desc>Speed 25.1 km/h Distance 12.03 km</desc>
<time>2010-06-13T06:51:05.70</time>
<name>2770</name>
</trkpt>
<trkpt lat="49.206790" lon="11.703280">
<ele>596.2</ele>
<speed>27.1</speed>
<course>345.0</course>
<desc>Speed 27.1 km/h Distance 12.04 km</desc>
<time>2010-06-13T06:51:06.72</time>
<name>2771</name>
</trkpt>
<trkpt lat="49.206855" lon="11.703253">
<ele>595.2</ele>
<speed>27.4</speed>
<course>342.4</course>
<desc>Speed 27.4 km/h Distance 12.05 km</desc>
<time>2010-06-13T06:51:07.70</time>
<name>2772</name>
</trkpt>
<trkpt lat="49.206917" lon="11.703223">
<ele>594.5</ele>
<speed>27.1</speed>
<course>346.1</course>
<desc>Speed 27.1 km/h Distance 12.05 km</desc>
<time>2010-06-13T06:51:08.72</time>
<name>2773</name>
</trkpt>
<trkpt lat="49.206978" lon="11.703200">
<ele>593.9</ele>
<speed>26.8</speed>
<course>343.5</course>
<desc>Speed 26.8 km/h Distance 12.06 km</desc>
<time>2010-06-13T06:51:09.71</time>
<name>2774</name>
</trkpt>
<trkpt lat="49.207048" lon="11.703168">
<ele>593.4</ele>
<speed>29.9</speed>
<course>337.6</course>
<desc>Speed 29.9 km/h Distance 12.07 km</desc>
<time>2010-06-13T06:51:10.72</time>
<name>2775</name>
</trkpt>
<trkpt lat="49.207112" lon="11.703128">
<ele>593.0</ele>
<speed>28.4</speed>
<course>326.1</course>
<desc>Speed 28.4 km/h Distance 12.08 km</desc>
<time>2010-06-13T06:51:11.71</time>
<name>2776</name>
</trkpt>
<trkpt lat="49.207172" lon="11.703067">
<ele>593.7</ele>
<speed>28.4</speed>
<course>325.5</course>
<desc>Speed 28.4 km/h Distance 12.08 km</desc>
<time>2010-06-13T06:51:12.71</time>
<name>2777</name>
</trkpt>
<trkpt lat="49.207237" lon="11.702998">
<ele>594.5</ele>
<speed>28.5</speed>
<course>320.9</course>
<desc>Speed 28.5 km/h Distance 12.09 km</desc>
<time>2010-06-13T06:51:13.70</time>
<name>2778</name>
</trkpt>
<trkpt lat="49.207292" lon="11.702930">
<ele>593.6</ele>
<speed>27.1</speed>
<course>310.9</course>
<desc>Speed 27.1 km/h Distance 12.10 km</desc>
<time>2010-06-13T06:51:14.71</time>
<name>2779</name>
</trkpt>
<trkpt lat="49.207335" lon="11.702853">
<ele>593.0</ele>
<speed>24.5</speed>
<course>299.7</course>
<desc>Speed 24.5 km/h Distance 12.11 km</desc>
<time>2010-06-13T06:51:15.70</time>
<name>2780</name>
</trkpt>
<trkpt lat="49.207362" lon="11.702782">
<ele>592.6</ele>
<speed>21.3</speed>
<course>302.2</course>
<desc>Speed 21.3 km/h Distance 12.11 km</desc>
<time>2010-06-13T06:51:16.72</time>
<name>2781</name>
</trkpt>
<trkpt lat="49.207385" lon="11.702725">
<ele>592.3</ele>
<speed>17.5</speed>
<course>325.5</course>
<desc>Speed 17.5 km/h Distance 12.12 km</desc>
<time>2010-06-13T06:51:17.71</time>
<name>2782</name>
</trkpt>
<trkpt lat="49.207417" lon="11.702692">
<ele>591.5</ele>
<speed>16.3</speed>
<course>346.1</course>
<desc>Speed 16.3 km/h Distance 12.12 km</desc>
<time>2010-06-13T06:51:18.71</time>
<name>2783</name>
</trkpt>
<trkpt lat="49.207465" lon="11.702673">
<ele>592.0</ele>
<speed>16.2</speed>
<course>3.2</course>
<desc>Speed 16.2 km/h Distance 12.13 km</desc>
<time>2010-06-13T06:51:19.71</time>
<name>2784</name>
</trkpt>
<trkpt lat="49.207502" lon="11.702677">
<ele>591.7</ele>
<speed>14.4</speed>
<course>26.8</course>
<desc>Speed 14.4 km/h Distance 12.13 km</desc>
<time>2010-06-13T06:51:20.71</time>
<name>2785</name>
</trkpt>
<trkpt lat="49.207538" lon="11.702705">
<ele>593.0</ele>
<speed>14.3</speed>
<course>45.6</course>
<desc>Speed 14.3 km/h Distance 12.14 km</desc>
<time>2010-06-13T06:51:21.72</time>
<name>2786</name>
</trkpt>
<trkpt lat="49.207565" lon="11.702747">
<ele>592.3</ele>
<speed>12.4</speed>
<course>70.0</course>
<desc>Speed 12.4 km/h Distance 12.14 km</desc>
<time>2010-06-13T06:51:22.71</time>
<name>2787</name>
</trkpt>
<trkpt lat="49.207573" lon="11.702782">
<ele>593.5</ele>
<speed>11.8</speed>
<course>54.3</course>
<desc>Speed 11.8 km/h Distance 12.14 km</desc>
<time>2010-06-13T06:51:23.70</time>
<name>2788</name>
</trkpt>
<trkpt lat="49.207598" lon="11.702835">
<ele>594.0</ele>
<speed>13.4</speed>
<course>43.7</course>
<desc>Speed 13.4 km/h Distance 12.15 km</desc>
<time>2010-06-13T06:51:24.72</time>
<name>2789</name>
</trkpt>
<trkpt lat="49.207620" lon="11.702867">
<ele>593.4</ele>
<speed>13.2</speed>
<course>58.5</course>
<desc>Speed 13.2 km/h Distance 12.15 km</desc>
<time>2010-06-13T06:51:25.72</time>
<name>2790</name>
</trkpt>
<trkpt lat="49.207637" lon="11.702908">
<ele>593.2</ele>
<speed>13.5</speed>
<course>26.5</course>
<desc>Speed 13.5 km/h Distance 12.16 km</desc>
<time>2010-06-13T06:51:26.73</time>
<name>2791</name>
</trkpt>
<trkpt lat="49.207665" lon="11.702930">
<ele>594.7</ele>
<speed>11.3</speed>
<course>38.6</course>
<desc>Speed 11.3 km/h Distance 12.16 km</desc>
<time>2010-06-13T06:51:27.71</time>
<name>2792</name>
</trkpt>
<trkpt lat="49.207695" lon="11.702967">
<ele>598.1</ele>
<speed>12.5</speed>
<course>21.5</course>
<desc>Speed 12.5 km/h Distance 12.16 km</desc>
<time>2010-06-13T06:51:28.71</time>
<name>2793</name>
</trkpt>
<trkpt lat="49.207783" lon="11.703020">
<ele>599.4</ele>
<speed>14.0</speed>
<course>66.4</course>
<desc>Speed 14.0 km/h Distance 12.17 km</desc>
<time>2010-06-13T06:51:30.73</time>
<name>2794</name>
</trkpt>
<trkpt lat="49.207797" lon="11.703067">
<ele>600.5</ele>
<speed>13.6</speed>
<course>79.5</course>
<desc>Speed 13.6 km/h Distance 12.18 km</desc>
<time>2010-06-13T06:51:31.70</time>
<name>2795</name>
</trkpt>
<trkpt lat="49.207803" lon="11.703122">
<ele>602.3</ele>
<speed>13.2</speed>
<course>44.4</course>
<desc>Speed 13.2 km/h Distance 12.18 km</desc>
<time>2010-06-13T06:51:32.71</time>
<name>2796</name>
</trkpt>
<trkpt lat="49.207830" lon="11.703162">
<ele>603.2</ele>
<speed>12.9</speed>
<course>40.0</course>
<desc>Speed 12.9 km/h Distance 12.19 km</desc>
<time>2010-06-13T06:51:33.70</time>
<name>2797</name>
</trkpt>
<trkpt lat="49.207853" lon="11.703192">
<ele>602.8</ele>
<speed>12.3</speed>
<course>69.1</course>
<desc>Speed 12.3 km/h Distance 12.19 km</desc>
<time>2010-06-13T06:51:34.71</time>
<name>2798</name>
</trkpt>
<trkpt lat="49.207863" lon="11.703232">
<ele>603.0</ele>
<speed>11.4</speed>
<course>73.6</course>
<desc>Speed 11.4 km/h Distance 12.19 km</desc>
<time>2010-06-13T06:51:35.72</time>
<name>2799</name>
</trkpt>
<trkpt lat="49.207872" lon="11.703275">
<ele>603.6</ele>
<speed>10.7</speed>
<course>78.8</course>
<desc>Speed 10.7 km/h Distance 12.20 km</desc>
<time>2010-06-13T06:51:36.71</time>
<name>2800</name>
</trkpt>
<trkpt lat="49.207878" lon="11.703327">
<ele>604.8</ele>
<speed>10.8</speed>
<course>42.5</course>
<desc>Speed 10.8 km/h Distance 12.20 km</desc>
<time>2010-06-13T06:51:37.72</time>
<name>2801</name>
</trkpt>
<trkpt lat="49.207895" lon="11.703350">
<ele>603.7</ele>
<speed>10.2</speed>
<course>84.0</course>
<desc>Speed 10.2 km/h Distance 12.20 km</desc>
<time>2010-06-13T06:51:38.70</time>
<name>2802</name>
</trkpt>
<trkpt lat="49.207898" lon="11.703398">
<ele>604.4</ele>
<speed>10.0</speed>
<course>80.3</course>
<desc>Speed 10.0 km/h Distance 12.21 km</desc>
<time>2010-06-13T06:51:39.70</time>
<name>2803</name>
</trkpt>
<trkpt lat="49.207903" lon="11.703443">
<ele>604.8</ele>
<speed>11.2</speed>
<course>76.2</course>
<desc>Speed 11.2 km/h Distance 12.21 km</desc>
<time>2010-06-13T06:51:40.71</time>
<name>2804</name>
</trkpt>
<trkpt lat="49.207910" lon="11.703485">
<ele>605.0</ele>
<speed>10.7</speed>
<course>84.0</course>
<desc>Speed 10.7 km/h Distance 12.21 km</desc>
<time>2010-06-13T06:51:41.71</time>
<name>2805</name>
</trkpt>
<trkpt lat="49.207913" lon="11.703533">
<ele>605.7</ele>
<speed>10.5</speed>
<course>80.0</course>
<desc>Speed 10.5 km/h Distance 12.22 km</desc>
<time>2010-06-13T06:51:42.71</time>
<name>2806</name>
</trkpt>
<trkpt lat="49.207918" lon="11.703577">
<ele>606.0</ele>
<speed>10.0</speed>
<course>86.9</course>
<desc>Speed 10.0 km/h Distance 12.22 km</desc>
<time>2010-06-13T06:51:43.72</time>
<name>2807</name>
</trkpt>
<trkpt lat="49.207920" lon="11.703623">
<ele>606.3</ele>
<speed>11.1</speed>
<course>86.6</course>
<desc>Speed 11.1 km/h Distance 12.22 km</desc>
<time>2010-06-13T06:51:44.72</time>
<name>2808</name>
</trkpt>
<trkpt lat="49.207922" lon="11.703667">
<ele>606.7</ele>
<speed>10.0</speed>
<course>93.2</course>
<desc>Speed 10.0 km/h Distance 12.23 km</desc>
<time>2010-06-13T06:51:45.70</time>
<name>2809</name>
</trkpt>
<trkpt lat="49.207920" lon="11.703712">
<ele>607.4</ele>
<speed>8.9</speed>
<course>86.0</course>
<desc>Speed 8.9 km/h Distance 12.23 km</desc>
<time>2010-06-13T06:51:46.71</time>
<name>2810</name>
</trkpt>
<trkpt lat="49.207922" lon="11.703748">
<ele>607.6</ele>
<speed>9.5</speed>
<course>81.7</course>
<desc>Speed 9.5 km/h Distance 12.23 km</desc>
<time>2010-06-13T06:51:47.70</time>
<name>2811</name>
</trkpt>
<trkpt lat="49.207925" lon="11.703783">
<ele>607.7</ele>
<speed>9.4</speed>
<course>90.0</course>
<desc>Speed 9.4 km/h Distance 12.23 km</desc>
<time>2010-06-13T06:51:48.72</time>
<name>2812</name>
</trkpt>
<trkpt lat="49.207925" lon="11.703823">
<ele>608.2</ele>
<speed>8.6</speed>
<course>63.0</course>
<desc>Speed 8.6 km/h Distance 12.24 km</desc>
<time>2010-06-13T06:51:49.70</time>
<name>2813</name>
</trkpt>
<trkpt lat="49.207933" lon="11.703848">
<ele>607.6</ele>
<speed>8.0</speed>
<course>85.6</course>
<desc>Speed 8.0 km/h Distance 12.24 km</desc>
<time>2010-06-13T06:51:50.70</time>
<name>2814</name>
</trkpt>
<trkpt lat="49.207935" lon="11.703882">
<ele>607.7</ele>
<speed>7.8</speed>
<course>61.3</course>
<desc>Speed 7.8 km/h Distance 12.24 km</desc>
<time>2010-06-13T06:51:51.71</time>
<name>2815</name>
</trkpt>
<trkpt lat="49.207943" lon="11.703905">
<ele>607.2</ele>
<speed>8.3</speed>
<course>85.8</course>
<desc>Speed 8.3 km/h Distance 12.24 km</desc>
<time>2010-06-13T06:51:52.70</time>
<name>2816</name>
</trkpt>
<trkpt lat="49.207945" lon="11.703940">
<ele>607.4</ele>
<speed>8.6</speed>
<course>82.7</course>
<desc>Speed 8.6 km/h Distance 12.25 km</desc>
<time>2010-06-13T06:51:53.72</time>
<name>2817</name>
</trkpt>
<trkpt lat="49.207948" lon="11.703980">
<ele>608.0</ele>
<speed>8.3</speed>
<course>86.3</course>
<desc>Speed 8.3 km/h Distance 12.25 km</desc>
<time>2010-06-13T06:51:54.71</time>
<name>2818</name>
</trkpt>
<trkpt lat="49.207950" lon="11.704020">
<ele>608.8</ele>
<speed>8.6</speed>
<course>61.3</course>
<desc>Speed 8.6 km/h Distance 12.25 km</desc>
<time>2010-06-13T06:51:55.71</time>
<name>2819</name>
</trkpt>
<trkpt lat="49.207958" lon="11.704043">
<ele>608.0</ele>
<speed>8.2</speed>
<course>65.8</course>
<desc>Speed 8.2 km/h Distance 12.25 km</desc>
<time>2010-06-13T06:51:56.70</time>
<name>2820</name>
</trkpt>
<trkpt lat="49.207967" lon="11.704072">
<ele>607.7</ele>
<speed>8.1</speed>
<course>76.4</course>
<desc>Speed 8.1 km/h Distance 12.26 km</desc>
<time>2010-06-13T06:51:57.71</time>
<name>2821</name>
</trkpt>
<trkpt lat="49.207972" lon="11.704103">
<ele>607.8</ele>
<speed>8.4</speed>
<course>77.7</course>
<desc>Speed 8.4 km/h Distance 12.26 km</desc>
<time>2010-06-13T06:51:58.72</time>
<name>2822</name>
</trkpt>
<trkpt lat="49.207977" lon="11.704138">
<ele>608.1</ele>
<speed>8.0</speed>
<course>70.2</course>
<desc>Speed 8.0 km/h Distance 12.26 km</desc>
<time>2010-06-13T06:51:59.70</time>
<name>2823</name>
</trkpt>
<trkpt lat="49.207983" lon="11.704167">
<ele>607.8</ele>
<speed>8.2</speed>
<course>70.2</course>
<desc>Speed 8.2 km/h Distance 12.26 km</desc>
<time>2010-06-13T06:52:00.72</time>
<name>2824</name>
</trkpt>
<trkpt lat="49.207990" lon="11.704195">
<ele>607.7</ele>
<speed>8.6</speed>
<course>72.1</course>
<desc>Speed 8.6 km/h Distance 12.27 km</desc>
<time>2010-06-13T06:52:01.71</time>
<name>2825</name>
</trkpt>
<trkpt lat="49.207997" lon="11.704227">
<ele>607.7</ele>
<speed>9.0</speed>
<course>77.1</course>
<desc>Speed 9.0 km/h Distance 12.27 km</desc>
<time>2010-06-13T06:52:02.71</time>
<name>2826</name>
</trkpt>
<trkpt lat="49.208002" lon="11.704260">
<ele>607.8</ele>
<speed>8.9</speed>
<course>77.1</course>
<desc>Speed 8.9 km/h Distance 12.27 km</desc>
<time>2010-06-13T06:52:03.71</time>
<name>2827</name>
</trkpt>
<trkpt lat="49.208007" lon="11.704293">
<ele>607.9</ele>
<speed>9.3</speed>
<course>67.0</course>
<desc>Speed 9.3 km/h Distance 12.27 km</desc>
<time>2010-06-13T06:52:04.71</time>
<name>2828</name>
</trkpt>
<trkpt lat="49.208015" lon="11.704323">
<ele>607.9</ele>
<speed>8.9</speed>
<course>61.6</course>
<desc>Speed 8.9 km/h Distance 12.27 km</desc>
<time>2010-06-13T06:52:05.72</time>
<name>2829</name>
</trkpt>
<trkpt lat="49.208025" lon="11.704352">
<ele>607.9</ele>
<speed>8.4</speed>
<course>65.8</course>
<desc>Speed 8.4 km/h Distance 12.28 km</desc>
<time>2010-06-13T06:52:06.71</time>
<name>2830</name>
</trkpt>
<trkpt lat="49.208033" lon="11.704380">
<ele>607.8</ele>
<speed>8.1</speed>
<course>70.2</course>
<desc>Speed 8.1 km/h Distance 12.28 km</desc>
<time>2010-06-13T06:52:07.70</time>
<name>2831</name>
</trkpt>
<trkpt lat="49.208040" lon="11.704408">
<ele>607.9</ele>
<speed>8.6</speed>
<course>70.0</course>
<desc>Speed 8.6 km/h Distance 12.28 km</desc>
<time>2010-06-13T06:52:08.71</time>
<name>2832</name>
</trkpt>
<trkpt lat="49.208048" lon="11.704443">
<ele>607.5</ele>
<speed>9.4</speed>
<course>65.8</course>
<desc>Speed 9.4 km/h Distance 12.28 km</desc>
<time>2010-06-13T06:52:09.70</time>
<name>2833</name>
</trkpt>
<trkpt lat="49.208057" lon="11.704472">
<ele>607.8</ele>
<speed>9.1</speed>
<course>69.1</course>
<desc>Speed 9.1 km/h Distance 12.29 km</desc>
<time>2010-06-13T06:52:10.70</time>
<name>2834</name>
</trkpt>
<trkpt lat="49.208063" lon="11.704498">
<ele>608.1</ele>
<speed>8.5</speed>
<course>90.0</course>
<desc>Speed 8.5 km/h Distance 12.29 km</desc>
<time>2010-06-13T06:52:11.71</time>
<name>2835</name>
</trkpt>
<trkpt lat="49.208063" lon="11.704542">
<ele>609.2</ele>
<speed>8.4</speed>
<course>48.3</course>
<desc>Speed 8.4 km/h Distance 12.29 km</desc>
<time>2010-06-13T06:52:12.71</time>
<name>2836</name>
</trkpt>
<trkpt lat="49.208075" lon="11.704562">
<ele>608.7</ele>
<speed>7.7</speed>
<course>56.7</course>
<desc>Speed 7.7 km/h Distance 12.29 km</desc>
<time>2010-06-13T06:52:13.71</time>
<name>2837</name>
</trkpt>
<trkpt lat="49.208085" lon="11.704585">
<ele>609.0</ele>
<speed>7.7</speed>
<course>50.5</course>
<desc>Speed 7.7 km/h Distance 12.30 km</desc>
<time>2010-06-13T06:52:14.71</time>
<name>2838</name>
</trkpt>
<trkpt lat="49.208097" lon="11.704607">
<ele>608.9</ele>
<speed>7.5</speed>
<course>39.3</course>
<desc>Speed 7.5 km/h Distance 12.30 km</desc>
<time>2010-06-13T06:52:15.71</time>
<name>2839</name>
</trkpt>
<trkpt lat="49.208110" lon="11.704623">
<ele>608.8</ele>
<speed>7.1</speed>
<course>43.0</course>
<desc>Speed 7.1 km/h Distance 12.30 km</desc>
<time>2010-06-13T06:52:16.74</time>
<name>2840</name>
</trkpt>
<trkpt lat="49.208122" lon="11.704640">
<ele>608.6</ele>
<speed>6.7</speed>
<course>66.4</course>
<desc>Speed 6.7 km/h Distance 12.30 km</desc>
<time>2010-06-13T06:52:17.72</time>
<name>2841</name>
</trkpt>
<trkpt lat="49.208128" lon="11.704663">
<ele>609.3</ele>
<speed>6.7</speed>
<course>47.4</course>
<desc>Speed 6.7 km/h Distance 12.30 km</desc>
<time>2010-06-13T06:52:18.74</time>
<name>2842</name>
</trkpt>
<trkpt lat="49.208138" lon="11.704680">
<ele>609.5</ele>
<speed>6.1</speed>
<course>54.5</course>
<desc>Speed 6.1 km/h Distance 12.31 km</desc>
<time>2010-06-13T06:52:19.71</time>
<name>2843</name>
</trkpt>
<trkpt lat="49.208150" lon="11.704705">
<ele>609.2</ele>
<speed>6.6</speed>
<course>44.4</course>
<desc>Speed 6.6 km/h Distance 12.31 km</desc>
<time>2010-06-13T06:52:20.70</time>
<name>2844</name>
</trkpt>
<trkpt lat="49.208160" lon="11.704720">
<ele>608.8</ele>
<speed>5.9</speed>
<course>54.2</course>
<desc>Speed 5.9 km/h Distance 12.31 km</desc>
<time>2010-06-13T06:52:21.70</time>
<name>2845</name>
</trkpt>
<trkpt lat="49.208173" lon="11.704748">
<ele>608.1</ele>
<speed>5.5</speed>
<course>98.7</course>
<desc>Speed 5.5 km/h Distance 12.31 km</desc>
<time>2010-06-13T06:52:22.71</time>
<name>2846</name>
</trkpt>
<trkpt lat="49.208170" lon="11.704782">
<ele>608.4</ele>
<speed>5.7</speed>
<course>74.4</course>
<desc>Speed 5.7 km/h Distance 12.31 km</desc>
<time>2010-06-13T06:52:23.71</time>
<name>2847</name>
</trkpt>
<trkpt lat="49.208177" lon="11.704818">
<ele>607.7</ele>
<speed>7.8</speed>
<course>74.9</course>
<desc>Speed 7.8 km/h Distance 12.32 km</desc>
<time>2010-06-13T06:52:24.71</time>
<name>2848</name>
</trkpt>
<trkpt lat="49.208182" lon="11.704847">
<ele>608.8</ele>
<speed>7.2</speed>
<course>75.7</course>
<desc>Speed 7.2 km/h Distance 12.32 km</desc>
<time>2010-06-13T06:52:25.71</time>
<name>2849</name>
</trkpt>
<trkpt lat="49.208187" lon="11.704877">
<ele>609.7</ele>
<speed>7.2</speed>
<course>60.6</course>
<desc>Speed 7.2 km/h Distance 12.32 km</desc>
<time>2010-06-13T06:52:26.71</time>
<name>2850</name>
</trkpt>
<trkpt lat="49.208198" lon="11.704908">
<ele>608.8</ele>
<speed>7.7</speed>
<course>36.6</course>
<desc>Speed 7.7 km/h Distance 12.32 km</desc>
<time>2010-06-13T06:52:27.71</time>
<name>2851</name>
</trkpt>
<trkpt lat="49.208210" lon="11.704922">
<ele>606.8</ele>
<speed>7.1</speed>
<course>40.1</course>
<desc>Speed 7.1 km/h Distance 12.33 km</desc>
<time>2010-06-13T06:52:28.70</time>
<name>2852</name>
</trkpt>
<trkpt lat="49.208222" lon="11.704937">
<ele>605.0</ele>
<speed>6.9</speed>
<course>60.6</course>
<desc>Speed 6.9 km/h Distance 12.33 km</desc>
<time>2010-06-13T06:52:29.70</time>
<name>2853</name>
</trkpt>
<trkpt lat="49.208233" lon="11.704968">
<ele>604.1</ele>
<speed>6.1</speed>
<course>61.8</course>
<desc>Speed 6.1 km/h Distance 12.33 km</desc>
<time>2010-06-13T06:52:30.71</time>
<name>2854</name>
</trkpt>
<trkpt lat="49.208245" lon="11.705002">
<ele>602.9</ele>
<speed>6.9</speed>
<course>93.5</course>
<desc>Speed 6.9 km/h Distance 12.33 km</desc>
<time>2010-06-13T06:52:31.71</time>
<name>2855</name>
</trkpt>
<trkpt lat="49.208243" lon="11.705043">
<ele>603.7</ele>
<speed>8.5</speed>
<course>78.4</course>
<desc>Speed 8.5 km/h Distance 12.34 km</desc>
<time>2010-06-13T06:52:32.70</time>
<name>2856</name>
</trkpt>
<trkpt lat="49.208247" lon="11.705068">
<ele>603.0</ele>
<speed>7.2</speed>
<course>78.7</course>
<desc>Speed 7.2 km/h Distance 12.34 km</desc>
<time>2010-06-13T06:52:33.72</time>
<name>2857</name>
</trkpt>
<trkpt lat="49.208252" lon="11.705107">
<ele>602.3</ele>
<speed>8.6</speed>
<course>63.0</course>
<desc>Speed 8.6 km/h Distance 12.34 km</desc>
<time>2010-06-13T06:52:34.71</time>
<name>2858</name>
</trkpt>
<trkpt lat="49.208263" lon="11.705142">
<ele>601.7</ele>
<speed>8.6</speed>
<course>75.2</course>
<desc>Speed 8.6 km/h Distance 12.34 km</desc>
<time>2010-06-13T06:52:35.70</time>
<name>2859</name>
</trkpt>
<trkpt lat="49.208272" lon="11.705190">
<ele>602.4</ele>
<speed>8.6</speed>
<course>87.0</course>
<desc>Speed 8.6 km/h Distance 12.35 km</desc>
<time>2010-06-13T06:52:36.72</time>
<name>2860</name>
</trkpt>
<trkpt lat="49.208273" lon="11.705238">
<ele>601.6</ele>
<speed>8.5</speed>
<course>80.7</course>
<desc>Speed 8.5 km/h Distance 12.35 km</desc>
<time>2010-06-13T06:52:37.70</time>
<name>2861</name>
</trkpt>
<trkpt lat="49.208278" lon="11.705285">
<ele>602.9</ele>
<speed>8.4</speed>
<course>78.2</course>
<desc>Speed 8.4 km/h Distance 12.35 km</desc>
<time>2010-06-13T06:52:38.71</time>
<name>2862</name>
</trkpt>
<trkpt lat="49.208283" lon="11.705322">
<ele>604.3</ele>
<speed>7.8</speed>
<course>70.0</course>
<desc>Speed 7.8 km/h Distance 12.36 km</desc>
<time>2010-06-13T06:52:39.70</time>
<name>2863</name>
</trkpt>
<trkpt lat="49.208292" lon="11.705357">
<ele>604.6</ele>
<speed>8.0</speed>
<course>60.6</course>
<desc>Speed 8.0 km/h Distance 12.36 km</desc>
<time>2010-06-13T06:52:40.70</time>
<name>2864</name>
</trkpt>
<trkpt lat="49.208303" lon="11.705388">
<ele>606.7</ele>
<speed>7.6</speed>
<course>85.8</course>
<desc>Speed 7.6 km/h Distance 12.36 km</desc>
<time>2010-06-13T06:52:41.71</time>
<name>2865</name>
</trkpt>
<trkpt lat="49.208305" lon="11.705423">
<ele>606.9</ele>
<speed>7.0</speed>
<course>70.2</course>
<desc>Speed 7.0 km/h Distance 12.36 km</desc>
<time>2010-06-13T06:52:42.70</time>
<name>2866</name>
</trkpt>
<trkpt lat="49.208312" lon="11.705452">
<ele>609.0</ele>
<speed>6.8</speed>
<course>99.2</course>
<desc>Speed 6.8 km/h Distance 12.37 km</desc>
<time>2010-06-13T06:52:43.70</time>
<name>2867</name>
</trkpt>
<trkpt lat="49.208308" lon="11.705483">
<ele>610.6</ele>
<speed>6.6</speed>
<course>126.4</course>
<desc>Speed 6.6 km/h Distance 12.37 km</desc>
<time>2010-06-13T06:52:44.71</time>
<name>2868</name>
</trkpt>
<trkpt lat="49.208263" lon="11.705577">
<ele>615.2</ele>
<speed>7.1</speed>
<course>90.0</course>
<desc>Speed 7.1 km/h Distance 12.38 km</desc>
<time>2010-06-13T06:52:46.72</time>
<name>2869</name>
</trkpt>
<trkpt lat="49.208263" lon="11.705607">
<ele>615.8</ele>
<speed>6.6</speed>
<course>90.0</course>
<desc>Speed 6.6 km/h Distance 12.38 km</desc>
<time>2010-06-13T06:52:47.71</time>
<name>2870</name>
</trkpt>
<trkpt lat="49.208263" lon="11.705635">
<ele>615.7</ele>
<speed>5.9</speed>
<course>60.6</course>
<desc>Speed 5.9 km/h Distance 12.38 km</desc>
<time>2010-06-13T06:52:48.70</time>
<name>2871</name>
</trkpt>
<trkpt lat="49.208275" lon="11.705667">
<ele>616.9</ele>
<speed>7.2</speed>
<course>34.8</course>
<desc>Speed 7.2 km/h Distance 12.38 km</desc>
<time>2010-06-13T06:52:49.71</time>
<name>2872</name>
</trkpt>
<trkpt lat="49.208302" lon="11.705695">
<ele>618.0</ele>
<speed>9.8</speed>
<course>43.0</course>
<desc>Speed 9.8 km/h Distance 12.39 km</desc>
<time>2010-06-13T06:52:50.70</time>
<name>2873</name>
</trkpt>
<trkpt lat="49.208325" lon="11.705728">
<ele>618.6</ele>
<speed>12.1</speed>
<course>39.5</course>
<desc>Speed 12.1 km/h Distance 12.39 km</desc>
<time>2010-06-13T06:52:51.71</time>
<name>2874</name>
</trkpt>
<trkpt lat="49.208357" lon="11.705768">
<ele>619.0</ele>
<speed>14.1</speed>
<course>24.6</course>
<desc>Speed 14.1 km/h Distance 12.40 km</desc>
<time>2010-06-13T06:52:52.71</time>
<name>2875</name>
</trkpt>
<trkpt lat="49.208390" lon="11.705792">
<ele>617.9</ele>
<speed>14.3</speed>
<course>16.8</course>
<desc>Speed 14.3 km/h Distance 12.40 km</desc>
<time>2010-06-13T06:52:53.71</time>
<name>2876</name>
</trkpt>
<trkpt lat="49.208433" lon="11.705812">
<ele>617.4</ele>
<speed>12.9</speed>
<course>10.7</course>
<desc>Speed 12.9 km/h Distance 12.40 km</desc>
<time>2010-06-13T06:52:54.70</time>
<name>2877</name>
</trkpt>
<trkpt lat="49.208468" lon="11.705822">
<ele>619.5</ele>
<speed>11.5</speed>
<course>352.5</course>
<desc>Speed 11.5 km/h Distance 12.41 km</desc>
<time>2010-06-13T06:52:55.72</time>
<name>2878</name>
</trkpt>
<trkpt lat="49.208492" lon="11.705817">
<ele>620.6</ele>
<speed>10.4</speed>
<course>0.0</course>
<desc>Speed 10.4 km/h Distance 12.41 km</desc>
<time>2010-06-13T06:52:56.70</time>
<name>2879</name>
</trkpt>
<trkpt lat="49.208522" lon="11.705817">
<ele>621.6</ele>
<speed>11.3</speed>
<course>352.9</course>
<desc>Speed 11.3 km/h Distance 12.41 km</desc>
<time>2010-06-13T06:52:57.71</time>
<name>2880</name>
</trkpt>
<trkpt lat="49.208645" lon="11.705793">
<ele>622.8</ele>
<speed>18.7</speed>
<course>358.1</course>
<desc>Speed 18.7 km/h Distance 12.43 km</desc>
<time>2010-06-13T06:52:59.71</time>
<name>2881</name>
</trkpt>
<trkpt lat="49.208705" lon="11.705790">
<ele>621.4</ele>
<speed>18.5</speed>
<course>24.6</course>
<desc>Speed 18.5 km/h Distance 12.44 km</desc>
<time>2010-06-13T06:53:00.69</time>
<name>2882</name>
</trkpt>
<trkpt lat="49.208738" lon="11.705813">
<ele>620.6</ele>
<speed>16.3</speed>
<course>21.7</course>
<desc>Speed 16.3 km/h Distance 12.44 km</desc>
<time>2010-06-13T06:53:01.70</time>
<name>2883</name>
</trkpt>
<trkpt lat="49.208777" lon="11.705837">
<ele>620.9</ele>
<speed>15.2</speed>
<course>13.5</course>
<desc>Speed 15.2 km/h Distance 12.44 km</desc>
<time>2010-06-13T06:53:02.70</time>
<name>2884</name>
</trkpt>
<trkpt lat="49.208827" lon="11.705855">
<ele>621.3</ele>
<speed>14.3</speed>
<course>23.6</course>
<desc>Speed 14.3 km/h Distance 12.45 km</desc>
<time>2010-06-13T06:53:03.70</time>
<name>2885</name>
</trkpt>
<trkpt lat="49.208867" lon="11.705882">
<ele>622.1</ele>
<speed>14.5</speed>
<course>34.2</course>
<desc>Speed 14.5 km/h Distance 12.45 km</desc>
<time>2010-06-13T06:53:04.71</time>
<name>2886</name>
</trkpt>
<trkpt lat="49.208907" lon="11.705923">
<ele>621.9</ele>
<speed>15.5</speed>
<course>19.4</course>
<desc>Speed 15.5 km/h Distance 12.46 km</desc>
<time>2010-06-13T06:53:05.71</time>
<name>2887</name>
</trkpt>
<trkpt lat="49.208950" lon="11.705947">
<ele>620.2</ele>
<speed>17.4</speed>
<course>47.1</course>
<desc>Speed 17.4 km/h Distance 12.47 km</desc>
<time>2010-06-13T06:53:06.70</time>
<name>2888</name>
</trkpt>
<trkpt lat="49.208978" lon="11.705993">
<ele>617.6</ele>
<speed>16.9</speed>
<course>44.1</course>
<desc>Speed 16.9 km/h Distance 12.47 km</desc>
<time>2010-06-13T06:53:07.71</time>
<name>2889</name>
</trkpt>
<trkpt lat="49.209072" lon="11.706132">
<ele>614.5</ele>
<speed>19.1</speed>
<course>48.3</course>
<desc>Speed 19.1 km/h Distance 12.48 km</desc>
<time>2010-06-13T06:53:09.71</time>
<name>2890</name>
</trkpt>
<trkpt lat="49.209113" lon="11.706203">
<ele>613.8</ele>
<speed>18.0</speed>
<course>55.6</course>
<desc>Speed 18.0 km/h Distance 12.49 km</desc>
<time>2010-06-13T06:53:10.72</time>
<name>2891</name>
</trkpt>
<trkpt lat="49.209142" lon="11.706267">
<ele>612.7</ele>
<speed>16.2</speed>
<course>63.6</course>
<desc>Speed 16.2 km/h Distance 12.50 km</desc>
<time>2010-06-13T06:53:11.71</time>
<name>2892</name>
</trkpt>
<trkpt lat="49.209163" lon="11.706333">
<ele>612.4</ele>
<speed>16.2</speed>
<course>54.6</course>
<desc>Speed 16.2 km/h Distance 12.50 km</desc>
<time>2010-06-13T06:53:12.71</time>
<name>2893</name>
</trkpt>
<trkpt lat="49.209195" lon="11.706402">
<ele>612.0</ele>
<speed>15.8</speed>
<course>52.6</course>
<desc>Speed 15.8 km/h Distance 12.51 km</desc>
<time>2010-06-13T06:53:13.70</time>
<name>2894</name>
</trkpt>
<trkpt lat="49.209228" lon="11.706468">
<ele>610.9</ele>
<speed>16.7</speed>
<course>63.6</course>
<desc>Speed 16.7 km/h Distance 12.51 km</desc>
<time>2010-06-13T06:53:14.71</time>
<name>2895</name>
</trkpt>
<trkpt lat="49.209248" lon="11.706530">
<ele>610.1</ele>
<speed>17.1</speed>
<course>46.5</course>
<desc>Speed 17.1 km/h Distance 12.52 km</desc>
<time>2010-06-13T06:53:15.71</time>
<name>2896</name>
</trkpt>
<trkpt lat="49.209278" lon="11.706578">
<ele>608.7</ele>
<speed>16.5</speed>
<course>42.5</course>
<desc>Speed 16.5 km/h Distance 12.52 km</desc>
<time>2010-06-13T06:53:16.69</time>
<name>2897</name>
</trkpt>
<trkpt lat="49.209303" lon="11.706613">
<ele>606.7</ele>
<speed>15.5</speed>
<course>38.6</course>
<desc>Speed 15.5 km/h Distance 12.53 km</desc>
<time>2010-06-13T06:53:17.72</time>
<name>2898</name>
</trkpt>
<trkpt lat="49.209333" lon="11.706650">
<ele>605.3</ele>
<speed>15.6</speed>
<course>55.3</course>
<desc>Speed 15.6 km/h Distance 12.53 km</desc>
<time>2010-06-13T06:53:18.69</time>
<name>2899</name>
</trkpt>
<trkpt lat="49.209357" lon="11.706702">
<ele>605.0</ele>
<speed>15.4</speed>
<course>62.3</course>
<desc>Speed 15.4 km/h Distance 12.54 km</desc>
<time>2010-06-13T06:53:19.70</time>
<name>2900</name>
</trkpt>
<trkpt lat="49.209377" lon="11.706760">
<ele>605.9</ele>
<speed>15.6</speed>
<course>46.8</course>
<desc>Speed 15.6 km/h Distance 12.54 km</desc>
<time>2010-06-13T06:53:20.71</time>
<name>2901</name>
</trkpt>
<trkpt lat="49.209408" lon="11.706812">
<ele>606.3</ele>
<speed>15.8</speed>
<course>24.6</course>
<desc>Speed 15.8 km/h Distance 12.55 km</desc>
<time>2010-06-13T06:53:21.71</time>
<name>2902</name>
</trkpt>
<trkpt lat="49.209442" lon="11.706835">
<ele>606.0</ele>
<speed>15.2</speed>
<course>12.3</course>
<desc>Speed 15.2 km/h Distance 12.55 km</desc>
<time>2010-06-13T06:53:22.71</time>
<name>2903</name>
</trkpt>
<trkpt lat="49.209477" lon="11.706847">
<ele>605.0</ele>
<speed>14.4</speed>
<course>0.0</course>
<desc>Speed 14.4 km/h Distance 12.55 km</desc>
<time>2010-06-13T06:53:23.69</time>
<name>2904</name>
</trkpt>
<trkpt lat="49.209517" lon="11.706847">
<ele>602.2</ele>
<speed>14.1</speed>
<course>358.2</course>
<desc>Speed 14.1 km/h Distance 12.56 km</desc>
<time>2010-06-13T06:53:24.71</time>
<name>2905</name>
</trkpt>
<trkpt lat="49.209548" lon="11.706845">
<ele>601.3</ele>
<speed>13.8</speed>
<course>19.5</course>
<desc>Speed 13.8 km/h Distance 12.56 km</desc>
<time>2010-06-13T06:53:25.71</time>
<name>2906</name>
</trkpt>
<trkpt lat="49.209588" lon="11.706867">
<ele>603.5</ele>
<speed>15.1</speed>
<course>25.8</course>
<desc>Speed 15.1 km/h Distance 12.57 km</desc>
<time>2010-06-13T06:53:26.71</time>
<name>2907</name>
</trkpt>
<trkpt lat="49.209627" lon="11.706895">
<ele>604.1</ele>
<speed>14.5</speed>
<course>22.2</course>
<desc>Speed 14.5 km/h Distance 12.57 km</desc>
<time>2010-06-13T06:53:27.71</time>
<name>2908</name>
</trkpt>
<trkpt lat="49.209653" lon="11.706912">
<ele>604.6</ele>
<speed>11.7</speed>
<course>42.5</course>
<desc>Speed 11.7 km/h Distance 12.58 km</desc>
<time>2010-06-13T06:53:28.70</time>
<name>2909</name>
</trkpt>
<trkpt lat="49.209662" lon="11.706923">
<ele>605.2</ele>
<speed>8.6</speed>
<course>18.1</course>
<desc>Speed 8.6 km/h Distance 12.58 km</desc>
<time>2010-06-13T06:53:29.71</time>
<name>2910</name>
</trkpt>
<trkpt lat="49.209685" lon="11.706935">
<ele>607.1</ele>
<speed>8.9</speed>
<course>19.4</course>
<desc>Speed 8.9 km/h Distance 12.58 km</desc>
<time>2010-06-13T06:53:30.71</time>
<name>2911</name>
</trkpt>
<trkpt lat="49.209707" lon="11.706947">
<ele>609.6</ele>
<speed>7.5</speed>
<course>25.0</course>
<desc>Speed 7.5 km/h Distance 12.58 km</desc>
<time>2010-06-13T06:53:31.70</time>
<name>2912</name>
</trkpt>
<trkpt lat="49.209730" lon="11.706963">
<ele>611.1</ele>
<speed>6.4</speed>
<course>10.4</course>
<desc>Speed 6.4 km/h Distance 12.58 km</desc>
<time>2010-06-13T06:53:32.70</time>
<name>2913</name>
</trkpt>
<trkpt lat="49.209742" lon="11.706967">
<ele>611.5</ele>
<speed>4.2</speed>
<course>7.7</course>
<desc>Speed 4.2 km/h Distance 12.59 km</desc>
<time>2010-06-13T06:53:33.71</time>
<name>2914</name>
</trkpt>
<trkpt lat="49.209758" lon="11.706970">
<ele>612.7</ele>
<speed>3.6</speed>
<course>318.0</course>
<desc>Speed 3.6 km/h Distance 12.59 km</desc>
<time>2010-06-13T06:53:34.71</time>
<name>2915</name>
</trkpt>
<trkpt lat="49.209772" lon="11.706952">
<ele>612.8</ele>
<speed>4.4</speed>
<course>14.9</course>
<desc>Speed 4.4 km/h Distance 12.59 km</desc>
<time>2010-06-13T06:53:35.70</time>
<name>2916</name>
</trkpt>
<trkpt lat="49.209788" lon="11.706958">
<ele>610.9</ele>
<speed>3.9</speed>
<course>49.7</course>
<desc>Speed 3.9 km/h Distance 12.59 km</desc>
<time>2010-06-13T06:53:36.71</time>
<name>2917</name>
</trkpt>
<trkpt lat="49.209797" lon="11.706973">
<ele>611.0</ele>
<speed>3.3</speed>
<course>36.6</course>
<desc>Speed 3.3 km/h Distance 12.59 km</desc>
<time>2010-06-13T06:53:37.71</time>
<name>2918</name>
</trkpt>
<trkpt lat="49.209808" lon="11.706987">
<ele>613.5</ele>
<speed>4.9</speed>
<course>36.5</course>
<desc>Speed 4.9 km/h Distance 12.60 km</desc>
<time>2010-06-13T06:53:38.71</time>
<name>2919</name>
</trkpt>
<trkpt lat="49.209822" lon="11.707002">
<ele>614.6</ele>
<speed>4.8</speed>
<course>356.2</course>
<desc>Speed 4.8 km/h Distance 12.60 km</desc>
<time>2010-06-13T06:53:39.70</time>
<name>2920</name>
</trkpt>
<trkpt lat="49.209837" lon="11.707000">
<ele>616.2</ele>
<speed>4.4</speed>
<course>357.8</course>
<desc>Speed 4.4 km/h Distance 12.60 km</desc>
<time>2010-06-13T06:53:40.70</time>
<name>2921</name>
</trkpt>
<trkpt lat="49.209863" lon="11.706998">
<ele>615.7</ele>
<speed>4.9</speed>
<course>339.1</course>
<desc>Speed 4.9 km/h Distance 12.60 km</desc>
<time>2010-06-13T06:53:41.73</time>
<name>2922</name>
</trkpt>
<trkpt lat="49.209883" lon="11.706987">
<ele>616.8</ele>
<speed>4.3</speed>
<course>350.8</course>
<desc>Speed 4.3 km/h Distance 12.60 km</desc>
<time>2010-06-13T06:53:42.71</time>
<name>2923</name>
</trkpt>
<trkpt lat="49.209903" lon="11.706982">
<ele>617.5</ele>
<speed>2.3</speed>
<course>339.8</course>
<desc>Speed 2.3 km/h Distance 12.61 km</desc>
<time>2010-06-13T06:53:43.69</time>
<name>2924</name>
</trkpt>
<trkpt lat="49.209915" lon="11.706975">
<ele>617.1</ele>
<speed>2.1</speed>
<course>40.9</course>
<desc>Speed 2.1 km/h Distance 12.61 km</desc>
<time>2010-06-13T06:53:44.72</time>
<name>2925</name>
</trkpt>
<trkpt lat="49.209925" lon="11.706988">
<ele>617.7</ele>
<speed>2.5</speed>
<course>4.7</course>
<desc>Speed 2.5 km/h Distance 12.61 km</desc>
<time>2010-06-13T06:53:45.70</time>
<name>2926</name>
</trkpt>
<trkpt lat="49.209937" lon="11.706990">
<ele>618.4</ele>
<speed>3.6</speed>
<course>13.6</course>
<desc>Speed 3.6 km/h Distance 12.61 km</desc>
<time>2010-06-13T06:53:46.70</time>
<name>2927</name>
</trkpt>
<trkpt lat="49.209955" lon="11.706997">
<ele>618.9</ele>
<speed>4.2</speed>
<course>330.6</course>
<desc>Speed 4.2 km/h Distance 12.61 km</desc>
<time>2010-06-13T06:53:47.71</time>
<name>2928</name>
</trkpt>
<trkpt lat="49.209967" lon="11.706987">
<ele>620.5</ele>
<speed>5.2</speed>
<course>343.0</course>
<desc>Speed 5.2 km/h Distance 12.61 km</desc>
<time>2010-06-13T06:53:48.71</time>
<name>2929</name>
</trkpt>
<trkpt lat="49.209992" lon="11.706975">
<ele>620.5</ele>
<speed>5.0</speed>
<course>357.5</course>
<desc>Speed 5.0 km/h Distance 12.62 km</desc>
<time>2010-06-13T06:53:49.72</time>
<name>2930</name>
</trkpt>
<trkpt lat="49.210010" lon="11.706973">
<ele>620.6</ele>
<speed>5.5</speed>
<course>335.3</course>
<desc>Speed 5.5 km/h Distance 12.62 km</desc>
<time>2010-06-13T06:53:50.71</time>
<name>2931</name>
</trkpt>
<trkpt lat="49.210027" lon="11.706962">
<ele>619.9</ele>
<speed>4.5</speed>
<course>356.2</course>
<desc>Speed 4.5 km/h Distance 12.62 km</desc>
<time>2010-06-13T06:53:51.70</time>
<name>2932</name>
</trkpt>
<trkpt lat="49.210042" lon="11.706960">
<ele>620.5</ele>
<speed>3.8</speed>
<course>14.9</course>
<desc>Speed 3.8 km/h Distance 12.62 km</desc>
<time>2010-06-13T06:53:52.70</time>
<name>2933</name>
</trkpt>
<trkpt lat="49.210053" lon="11.706965">
<ele>621.6</ele>
<speed>3.3</speed>
<course>3.8</course>
<desc>Speed 3.3 km/h Distance 12.62 km</desc>
<time>2010-06-13T06:53:53.72</time>
<name>2934</name>
</trkpt>
<trkpt lat="49.210068" lon="11.706967">
<ele>620.9</ele>
<speed>3.1</speed>
<course>33.2</course>
<desc>Speed 3.1 km/h Distance 12.63 km</desc>
<time>2010-06-13T06:53:54.71</time>
<name>2935</name>
</trkpt>
<trkpt lat="49.210083" lon="11.706982">
<ele>621.3</ele>
<speed>3.7</speed>
<course>48.3</course>
<desc>Speed 3.7 km/h Distance 12.63 km</desc>
<time>2010-06-13T06:53:55.71</time>
<name>2936</name>
</trkpt>
<trkpt lat="49.210095" lon="11.707002">
<ele>621.2</ele>
<speed>3.6</speed>
<course>64.2</course>
<desc>Speed 3.6 km/h Distance 12.63 km</desc>
<time>2010-06-13T06:53:56.70</time>
<name>2937</name>
</trkpt>
<trkpt lat="49.210105" lon="11.707033">
<ele>620.6</ele>
<speed>5.7</speed>
<course>78.2</course>
<desc>Speed 5.7 km/h Distance 12.63 km</desc>
<time>2010-06-13T06:53:57.71</time>
<name>2938</name>
</trkpt>
<trkpt lat="49.210110" lon="11.707070">
<ele>623.6</ele>
<speed>4.3</speed>
<course>80.8</course>
<desc>Speed 4.3 km/h Distance 12.63 km</desc>
<time>2010-06-13T06:53:58.71</time>
<name>2939</name>
</trkpt>
<trkpt lat="49.210113" lon="11.707102">
<ele>624.8</ele>
<speed>5.1</speed>
<course>57.8</course>
<desc>Speed 5.1 km/h Distance 12.64 km</desc>
<time>2010-06-13T06:53:59.71</time>
<name>2940</name>
</trkpt>
<trkpt lat="49.210125" lon="11.707130">
<ele>624.7</ele>
<speed>5.0</speed>
<course>82.7</course>
<desc>Speed 5.0 km/h Distance 12.64 km</desc>
<time>2010-06-13T06:54:00.71</time>
<name>2941</name>
</trkpt>
<trkpt lat="49.210127" lon="11.707150">
<ele>627.4</ele>
<speed>6.6</speed>
<course>114.7</course>
<desc>Speed 6.6 km/h Distance 12.64 km</desc>
<time>2010-06-13T06:54:01.70</time>
<name>2942</name>
</trkpt>
<trkpt lat="49.210117" lon="11.707183">
<ele>627.9</ele>
<speed>6.3</speed>
<course>82.7</course>
<desc>Speed 6.3 km/h Distance 12.64 km</desc>
<time>2010-06-13T06:54:02.70</time>
<name>2943</name>
</trkpt>
<trkpt lat="49.210118" lon="11.707203">
<ele>627.7</ele>
<speed>6.8</speed>
<course>97.3</course>
<desc>Speed 6.8 km/h Distance 12.65 km</desc>
<time>2010-06-13T06:54:03.71</time>
<name>2944</name>
</trkpt>
<trkpt lat="49.210115" lon="11.707243">
<ele>628.4</ele>
<speed>7.3</speed>
<course>76.2</course>
<desc>Speed 7.3 km/h Distance 12.65 km</desc>
<time>2010-06-13T06:54:04.71</time>
<name>2945</name>
</trkpt>
<trkpt lat="49.210122" lon="11.707285">
<ele>629.2</ele>
<speed>8.2</speed>
<course>77.7</course>
<desc>Speed 8.2 km/h Distance 12.65 km</desc>
<time>2010-06-13T06:54:05.70</time>
<name>2946</name>
</trkpt>
<trkpt lat="49.210127" lon="11.707320">
<ele>628.7</ele>
<speed>8.5</speed>
<course>103.1</course>
<desc>Speed 8.5 km/h Distance 12.65 km</desc>
<time>2010-06-13T06:54:06.70</time>
<name>2947</name>
</trkpt>
<trkpt lat="49.210118" lon="11.707375">
<ele>629.6</ele>
<speed>10.8</speed>
<course>103.5</course>
<desc>Speed 10.8 km/h Distance 12.66 km</desc>
<time>2010-06-13T06:54:07.70</time>
<name>2948</name>
</trkpt>
<trkpt lat="49.210110" lon="11.707428">
<ele>629.9</ele>
<speed>11.4</speed>
<course>83.3</course>
<desc>Speed 11.4 km/h Distance 12.66 km</desc>
<time>2010-06-13T06:54:08.69</time>
<name>2949</name>
</trkpt>
<trkpt lat="49.210113" lon="11.707472">
<ele>628.5</ele>
<speed>11.2</speed>
<course>88.9</course>
<desc>Speed 11.2 km/h Distance 12.67 km</desc>
<time>2010-06-13T06:54:09.70</time>
<name>2950</name>
</trkpt>
<trkpt lat="49.210115" lon="11.707603">
<ele>625.8</ele>
<speed>12.6</speed>
<course>100.1</course>
<desc>Speed 12.6 km/h Distance 12.67 km</desc>
<time>2010-06-13T06:54:11.70</time>
<name>2951</name>
</trkpt>
<trkpt lat="49.210107" lon="11.707675">
<ele>624.9</ele>
<speed>13.1</speed>
<course>92.2</course>
<desc>Speed 13.1 km/h Distance 12.68 km</desc>
<time>2010-06-13T06:54:12.72</time>
<name>2952</name>
</trkpt>
<trkpt lat="49.210105" lon="11.707742">
<ele>623.7</ele>
<speed>12.9</speed>
<course>90.0</course>
<desc>Speed 12.9 km/h Distance 12.68 km</desc>
<time>2010-06-13T06:54:13.71</time>
<name>2953</name>
</trkpt>
<trkpt lat="49.210105" lon="11.707797">
<ele>623.6</ele>
<speed>12.1</speed>
<course>77.7</course>
<desc>Speed 12.1 km/h Distance 12.69 km</desc>
<time>2010-06-13T06:54:14.70</time>
<name>2954</name>
</trkpt>
<trkpt lat="49.210112" lon="11.707843">
<ele>624.4</ele>
<speed>12.3</speed>
<course>64.0</course>
<desc>Speed 12.3 km/h Distance 12.69 km</desc>
<time>2010-06-13T06:54:15.70</time>
<name>2955</name>
</trkpt>
<trkpt lat="49.210123" lon="11.707880">
<ele>623.9</ele>
<speed>13.4</speed>
<course>84.4</course>
<desc>Speed 13.4 km/h Distance 12.70 km</desc>
<time>2010-06-13T06:54:16.71</time>
<name>2956</name>
</trkpt>
<trkpt lat="49.210127" lon="11.707932">
<ele>624.5</ele>
<speed>13.2</speed>
<course>84.9</course>
<desc>Speed 13.2 km/h Distance 12.70 km</desc>
<time>2010-06-13T06:54:17.71</time>
<name>2957</name>
</trkpt>
<trkpt lat="49.210130" lon="11.707988">
<ele>624.1</ele>
<speed>13.4</speed>
<course>87.8</course>
<desc>Speed 13.4 km/h Distance 12.70 km</desc>
<time>2010-06-13T06:54:18.69</time>
<name>2958</name>
</trkpt>
<trkpt lat="49.210132" lon="11.708053">
<ele>624.3</ele>
<speed>14.5</speed>
<course>77.7</course>
<desc>Speed 14.5 km/h Distance 12.71 km</desc>
<time>2010-06-13T06:54:19.70</time>
<name>2959</name>
</trkpt>
<trkpt lat="49.210140" lon="11.708112">
<ele>624.0</ele>
<speed>15.3</speed>
<course>78.0</course>
<desc>Speed 15.3 km/h Distance 12.71 km</desc>
<time>2010-06-13T06:54:20.71</time>
<name>2960</name>
</trkpt>
<trkpt lat="49.210148" lon="11.708172">
<ele>622.9</ele>
<speed>15.7</speed>
<course>77.3</course>
<desc>Speed 15.7 km/h Distance 12.72 km</desc>
<time>2010-06-13T06:54:21.69</time>
<name>2961</name>
</trkpt>
<trkpt lat="49.210157" lon="11.708228">
<ele>622.5</ele>
<speed>15.5</speed>
<course>73.5</course>
<desc>Speed 15.5 km/h Distance 12.72 km</desc>
<time>2010-06-13T06:54:22.70</time>
<name>2962</name>
</trkpt>
<trkpt lat="49.210167" lon="11.708280">
<ele>622.2</ele>
<speed>15.1</speed>
<course>85.0</course>
<desc>Speed 15.1 km/h Distance 12.72 km</desc>
<time>2010-06-13T06:54:23.71</time>
<name>2963</name>
</trkpt>
<trkpt lat="49.210175" lon="11.708427">
<ele>623.0</ele>
<speed>15.2</speed>
<course>61.6</course>
<desc>Speed 15.2 km/h Distance 12.74 km</desc>
<time>2010-06-13T06:54:25.70</time>
<name>2964</name>
</trkpt>
<trkpt lat="49.210195" lon="11.708483">
<ele>621.6</ele>
<speed>15.2</speed>
<course>71.7</course>
<desc>Speed 15.2 km/h Distance 12.74 km</desc>
<time>2010-06-13T06:54:26.70</time>
<name>2965</name>
</trkpt>
<trkpt lat="49.210208" lon="11.708545">
<ele>622.3</ele>
<speed>15.8</speed>
<course>67.5</course>
<desc>Speed 15.8 km/h Distance 12.75 km</desc>
<time>2010-06-13T06:54:27.70</time>
<name>2966</name>
</trkpt>
<trkpt lat="49.210225" lon="11.708607">
<ele>621.4</ele>
<speed>16.0</speed>
<course>56.2</course>
<desc>Speed 16.0 km/h Distance 12.75 km</desc>
<time>2010-06-13T06:54:28.70</time>
<name>2967</name>
</trkpt>
<trkpt lat="49.210248" lon="11.708660">
<ele>621.2</ele>
<speed>15.4</speed>
<course>45.8</course>
<desc>Speed 15.4 km/h Distance 12.75 km</desc>
<time>2010-06-13T06:54:29.71</time>
<name>2968</name>
</trkpt>
<trkpt lat="49.210272" lon="11.708697">
<ele>620.3</ele>
<speed>13.9</speed>
<course>66.7</course>
<desc>Speed 13.9 km/h Distance 12.76 km</desc>
<time>2010-06-13T06:54:30.70</time>
<name>2969</name>
</trkpt>
<trkpt lat="49.210287" lon="11.708750">
<ele>620.6</ele>
<speed>14.3</speed>
<course>66.0</course>
<desc>Speed 14.3 km/h Distance 12.76 km</desc>
<time>2010-06-13T06:54:31.69</time>
<name>2970</name>
</trkpt>
<trkpt lat="49.210302" lon="11.708802">
<ele>620.2</ele>
<speed>14.7</speed>
<course>68.6</course>
<desc>Speed 14.7 km/h Distance 12.77 km</desc>
<time>2010-06-13T06:54:32.70</time>
<name>2971</name>
</trkpt>
<trkpt lat="49.210337" lon="11.708938">
<ele>621.9</ele>
<speed>15.5</speed>
<course>59.7</course>
<desc>Speed 15.5 km/h Distance 12.78 km</desc>
<time>2010-06-13T06:54:34.70</time>
<name>2972</name>
</trkpt>
<trkpt lat="49.210358" lon="11.708995">
<ele>621.6</ele>
<speed>15.3</speed>
<course>63.0</course>
<desc>Speed 15.3 km/h Distance 12.78 km</desc>
<time>2010-06-13T06:54:35.70</time>
<name>2973</name>
</trkpt>
<trkpt lat="49.210380" lon="11.709060">
<ele>621.0</ele>
<speed>14.7</speed>
<course>56.7</course>
<desc>Speed 14.7 km/h Distance 12.79 km</desc>
<time>2010-06-13T06:54:36.70</time>
<name>2974</name>
</trkpt>
<trkpt lat="49.210405" lon="11.709118">
<ele>621.5</ele>
<speed>15.4</speed>
<course>77.7</course>
<desc>Speed 15.4 km/h Distance 12.79 km</desc>
<time>2010-06-13T06:54:37.72</time>
<name>2975</name>
</trkpt>
<trkpt lat="49.210430" lon="11.709293">
<ele>623.9</ele>
<speed>15.7</speed>
<course>63.0</course>
<desc>Speed 15.7 km/h Distance 12.81 km</desc>
<time>2010-06-13T06:54:39.70</time>
<name>2976</name>
</trkpt>
<trkpt lat="49.210453" lon="11.709363">
<ele>626.0</ele>
<speed>16.8</speed>
<course>60.4</course>
<desc>Speed 16.8 km/h Distance 12.81 km</desc>
<time>2010-06-13T06:54:40.70</time>
<name>2977</name>
</trkpt>
<trkpt lat="49.210513" lon="11.709525">
<ele>619.7</ele>
<speed>20.1</speed>
<course>65.3</course>
<desc>Speed 20.1 km/h Distance 12.82 km</desc>
<time>2010-06-13T06:54:42.70</time>
<name>2978</name>
</trkpt>
<trkpt lat="49.210538" lon="11.709608">
<ele>618.2</ele>
<speed>21.3</speed>
<course>63.4</course>
<desc>Speed 21.3 km/h Distance 12.83 km</desc>
<time>2010-06-13T06:54:43.70</time>
<name>2979</name>
</trkpt>
<trkpt lat="49.210567" lon="11.709695">
<ele>615.0</ele>
<speed>21.9</speed>
<course>69.8</course>
<desc>Speed 21.9 km/h Distance 12.84 km</desc>
<time>2010-06-13T06:54:44.70</time>
<name>2980</name>
</trkpt>
<trkpt lat="49.210588" lon="11.709785">
<ele>614.4</ele>
<speed>21.6</speed>
<course>85.8</course>
<desc>Speed 21.6 km/h Distance 12.85 km</desc>
<time>2010-06-13T06:54:45.70</time>
<name>2981</name>
</trkpt>
<trkpt lat="49.210600" lon="11.710030">
<ele>615.3</ele>
<speed>24.2</speed>
<course>77.9</course>
<desc>Speed 24.2 km/h Distance 12.86 km</desc>
<time>2010-06-13T06:54:47.70</time>
<name>2982</name>
</trkpt>
<trkpt lat="49.210615" lon="11.710137">
<ele>616.3</ele>
<speed>25.2</speed>
<course>83.1</course>
<desc>Speed 25.2 km/h Distance 12.87 km</desc>
<time>2010-06-13T06:54:48.71</time>
<name>2983</name>
</trkpt>
<trkpt lat="49.210623" lon="11.710242">
<ele>617.1</ele>
<speed>24.8</speed>
<course>82.6</course>
<desc>Speed 24.8 km/h Distance 12.88 km</desc>
<time>2010-06-13T06:54:49.70</time>
<name>2984</name>
</trkpt>
<trkpt lat="49.210632" lon="11.710340">
<ele>615.5</ele>
<speed>25.2</speed>
<course>79.2</course>
<desc>Speed 25.2 km/h Distance 12.89 km</desc>
<time>2010-06-13T06:54:50.71</time>
<name>2985</name>
</trkpt>
<trkpt lat="49.210647" lon="11.710460">
<ele>614.6</ele>
<speed>27.9</speed>
<course>60.4</course>
<desc>Speed 27.9 km/h Distance 12.90 km</desc>
<time>2010-06-13T06:54:51.70</time>
<name>2986</name>
</trkpt>
<trkpt lat="49.210680" lon="11.710550">
<ele>613.4</ele>
<speed>26.6</speed>
<course>45.1</course>
<desc>Speed 26.6 km/h Distance 12.90 km</desc>
<time>2010-06-13T06:54:52.70</time>
<name>2987</name>
</trkpt>
<trkpt lat="49.210727" lon="11.710622">
<ele>612.3</ele>
<speed>25.7</speed>
<course>55.9</course>
<desc>Speed 25.7 km/h Distance 12.91 km</desc>
<time>2010-06-13T06:54:53.70</time>
<name>2988</name>
</trkpt>
<trkpt lat="49.210765" lon="11.710708">
<ele>612.1</ele>
<speed>24.5</speed>
<course>66.0</course>
<desc>Speed 24.5 km/h Distance 12.92 km</desc>
<time>2010-06-13T06:54:54.69</time>
<name>2989</name>
</trkpt>
<trkpt lat="49.210795" lon="11.710812">
<ele>611.6</ele>
<speed>23.7</speed>
<course>55.9</course>
<desc>Speed 23.7 km/h Distance 12.93 km</desc>
<time>2010-06-13T06:54:55.71</time>
<name>2990</name>
</trkpt>
<trkpt lat="49.210827" lon="11.710883">
<ele>610.6</ele>
<speed>21.7</speed>
<course>54.1</course>
<desc>Speed 21.7 km/h Distance 12.93 km</desc>
<time>2010-06-13T06:54:56.71</time>
<name>2991</name>
</trkpt>
<trkpt lat="49.210857" lon="11.710947">
<ele>610.3</ele>
<speed>20.2</speed>
<course>61.3</course>
<desc>Speed 20.2 km/h Distance 12.94 km</desc>
<time>2010-06-13T06:54:57.70</time>
<name>2992</name>
</trkpt>
<trkpt lat="49.210928" lon="11.711147">
<ele>609.6</ele>
<speed>24.1</speed>
<course>55.6</course>
<desc>Speed 24.1 km/h Distance 12.95 km</desc>
<time>2010-06-13T06:54:59.70</time>
<name>2993</name>
</trkpt>
<trkpt lat="49.211022" lon="11.711355">
<ele>605.9</ele>
<speed>25.5</speed>
<course>52.6</course>
<desc>Speed 25.5 km/h Distance 12.97 km</desc>
<time>2010-06-13T06:55:01.71</time>
<name>2994</name>
</trkpt>
<trkpt lat="49.211058" lon="11.711428">
<ele>605.2</ele>
<speed>22.1</speed>
<course>57.3</course>
<desc>Speed 22.1 km/h Distance 12.98 km</desc>
<time>2010-06-13T06:55:02.70</time>
<name>2995</name>
</trkpt>
<trkpt lat="49.211132" lon="11.711603">
<ele>604.1</ele>
<speed>22.4</speed>
<course>46.7</course>
<desc>Speed 22.4 km/h Distance 12.99 km</desc>
<time>2010-06-13T06:55:04.70</time>
<name>2996</name>
</trkpt>
<trkpt lat="49.211158" lon="11.711647">
<ele>608.2</ele>
<speed>22.1</speed>
<course>62.2</course>
<desc>Speed 22.1 km/h Distance 13.00 km</desc>
<time>2010-06-13T06:55:05.70</time>
<name>2997</name>
</trkpt>
<trkpt lat="49.211225" lon="11.711840">
<ele>609.3</ele>
<speed>22.9</speed>
<course>59.2</course>
<desc>Speed 22.9 km/h Distance 13.01 km</desc>
<time>2010-06-13T06:55:07.70</time>
<name>2998</name>
</trkpt>
<trkpt lat="49.211252" lon="11.711908">
<ele>609.1</ele>
<speed>18.4</speed>
<course>62.5</course>
<desc>Speed 18.4 km/h Distance 13.02 km</desc>
<time>2010-06-13T06:55:08.69</time>
<name>2999</name>
</trkpt>
<trkpt lat="49.211280" lon="11.711992">
<ele>608.9</ele>
<speed>17.9</speed>
<course>62.0</course>
<desc>Speed 17.9 km/h Distance 13.03 km</desc>
<time>2010-06-13T06:55:09.71</time>
<name>3000</name>
</trkpt>
<trkpt lat="49.211308" lon="11.712073">
<ele>608.9</ele>
<speed>17.3</speed>
<course>46.6</course>
<desc>Speed 17.3 km/h Distance 13.03 km</desc>
<time>2010-06-13T06:55:10.71</time>
<name>3001</name>
</trkpt>
<trkpt lat="49.211392" lon="11.712208">
<ele>609.5</ele>
<speed>19.9</speed>
<course>56.8</course>
<desc>Speed 19.9 km/h Distance 13.05 km</desc>
<time>2010-06-13T06:55:12.72</time>
<name>3002</name>
</trkpt>
<trkpt lat="49.211475" lon="11.712403">
<ele>610.2</ele>
<speed>25.7</speed>
<course>81.3</course>
<desc>Speed 25.7 km/h Distance 13.06 km</desc>
<time>2010-06-13T06:55:14.69</time>
<name>3003</name>
</trkpt>
<trkpt lat="49.211518" lon="11.712837">
<ele>617.2</ele>
<speed>26.1</speed>
<course>71.4</course>
<desc>Speed 26.1 km/h Distance 13.10 km</desc>
<time>2010-06-13T06:55:17.70</time>
<name>3004</name>
</trkpt>
<trkpt lat="49.211540" lon="11.712935">
<ele>616.2</ele>
<speed>24.1</speed>
<course>77.4</course>
<desc>Speed 24.1 km/h Distance 13.10 km</desc>
<time>2010-06-13T06:55:18.69</time>
<name>3005</name>
</trkpt>
<trkpt lat="49.211552" lon="11.713015">
<ele>614.6</ele>
<speed>20.9</speed>
<course>107.9</course>
<desc>Speed 20.9 km/h Distance 13.11 km</desc>
<time>2010-06-13T06:55:19.70</time>
<name>3006</name>
</trkpt>
<trkpt lat="49.211532" lon="11.713110">
<ele>613.9</ele>
<speed>20.5</speed>
<course>112.0</course>
<desc>Speed 20.5 km/h Distance 13.12 km</desc>
<time>2010-06-13T06:55:20.70</time>
<name>3007</name>
</trkpt>
<trkpt lat="49.211508" lon="11.713198">
<ele>611.8</ele>
<speed>20.6</speed>
<course>101.1</course>
<desc>Speed 20.6 km/h Distance 13.12 km</desc>
<time>2010-06-13T06:55:21.69</time>
<name>3008</name>
</trkpt>
<trkpt lat="49.211498" lon="11.713277">
<ele>611.9</ele>
<speed>20.0</speed>
<course>107.3</course>
<desc>Speed 20.0 km/h Distance 13.13 km</desc>
<time>2010-06-13T06:55:22.70</time>
<name>3009</name>
</trkpt>
<trkpt lat="49.211480" lon="11.713367">
<ele>612.1</ele>
<speed>20.4</speed>
<course>92.4</course>
<desc>Speed 20.4 km/h Distance 13.14 km</desc>
<time>2010-06-13T06:55:23.69</time>
<name>3010</name>
</trkpt>
<trkpt lat="49.211478" lon="11.713427">
<ele>610.4</ele>
<speed>17.7</speed>
<course>100.5</course>
<desc>Speed 17.7 km/h Distance 13.14 km</desc>
<time>2010-06-13T06:55:24.70</time>
<name>3011</name>
</trkpt>
<trkpt lat="49.211472" lon="11.713482">
<ele>608.4</ele>
<speed>15.4</speed>
<course>118.7</course>
<desc>Speed 15.4 km/h Distance 13.15 km</desc>
<time>2010-06-13T06:55:25.70</time>
<name>3012</name>
</trkpt>
<trkpt lat="49.211447" lon="11.713552">
<ele>608.9</ele>
<speed>16.2</speed>
<course>109.2</course>
<desc>Speed 16.2 km/h Distance 13.15 km</desc>
<time>2010-06-13T06:55:26.71</time>
<name>3013</name>
</trkpt>
<trkpt lat="49.211430" lon="11.713625">
<ele>610.2</ele>
<speed>15.4</speed>
<course>117.7</course>
<desc>Speed 15.4 km/h Distance 13.16 km</desc>
<time>2010-06-13T06:55:27.70</time>
<name>3014</name>
</trkpt>
<trkpt lat="49.211370" lon="11.713800">
<ele>612.3</ele>
<speed>16.2</speed>
<course>122.2</course>
<desc>Speed 16.2 km/h Distance 13.17 km</desc>
<time>2010-06-13T06:55:29.71</time>
<name>3015</name>
</trkpt>
<trkpt lat="49.211347" lon="11.713857">
<ele>612.1</ele>
<speed>15.5</speed>
<course>115.0</course>
<desc>Speed 15.5 km/h Distance 13.18 km</desc>
<time>2010-06-13T06:55:30.71</time>
<name>3016</name>
</trkpt>
<trkpt lat="49.211335" lon="11.713895">
<ele>612.0</ele>
<speed>15.0</speed>
<course>118.0</course>
<desc>Speed 15.0 km/h Distance 13.18 km</desc>
<time>2010-06-13T06:55:31.72</time>
<name>3017</name>
</trkpt>
<trkpt lat="49.211322" lon="11.713933">
<ele>613.6</ele>
<speed>13.9</speed>
<course>117.0</course>
<desc>Speed 13.9 km/h Distance 13.18 km</desc>
<time>2010-06-13T06:55:32.69</time>
<name>3018</name>
</trkpt>
<trkpt lat="49.211305" lon="11.713983">
<ele>614.5</ele>
<speed>13.8</speed>
<course>121.1</course>
<desc>Speed 13.8 km/h Distance 13.19 km</desc>
<time>2010-06-13T06:55:33.70</time>
<name>3019</name>
</trkpt>
<trkpt lat="49.211280" lon="11.714047">
<ele>614.4</ele>
<speed>16.2</speed>
<course>125.3</course>
<desc>Speed 16.2 km/h Distance 13.19 km</desc>
<time>2010-06-13T06:55:34.70</time>
<name>3020</name>
</trkpt>
<trkpt lat="49.211248" lon="11.714115">
<ele>614.9</ele>
<speed>17.6</speed>
<course>122.7</course>
<desc>Speed 17.6 km/h Distance 13.20 km</desc>
<time>2010-06-13T06:55:35.71</time>
<name>3021</name>
</trkpt>
<trkpt lat="49.211227" lon="11.714167">
<ele>615.7</ele>
<speed>17.0</speed>
<course>119.3</course>
<desc>Speed 17.0 km/h Distance 13.20 km</desc>
<time>2010-06-13T06:55:36.70</time>
<name>3022</name>
</trkpt>
<trkpt lat="49.211208" lon="11.714217">
<ele>615.6</ele>
<speed>15.0</speed>
<course>112.9</course>
<desc>Speed 15.0 km/h Distance 13.21 km</desc>
<time>2010-06-13T06:55:37.70</time>
<name>3023</name>
</trkpt>
<trkpt lat="49.211195" lon="11.714265">
<ele>615.1</ele>
<speed>13.4</speed>
<course>110.9</course>
<desc>Speed 13.4 km/h Distance 13.21 km</desc>
<time>2010-06-13T06:55:38.71</time>
<name>3024</name>
</trkpt>
<trkpt lat="49.211185" lon="11.714305">
<ele>614.1</ele>
<speed>12.3</speed>
<course>115.8</course>
<desc>Speed 12.3 km/h Distance 13.21 km</desc>
<time>2010-06-13T06:55:39.70</time>
<name>3025</name>
</trkpt>
<trkpt lat="49.211165" lon="11.714368">
<ele>615.0</ele>
<speed>12.1</speed>
<course>107.0</course>
<desc>Speed 12.1 km/h Distance 13.22 km</desc>
<time>2010-06-13T06:55:40.70</time>
<name>3026</name>
</trkpt>
<trkpt lat="49.211157" lon="11.714410">
<ele>615.0</ele>
<speed>10.6</speed>
<course>90.0</course>
<desc>Speed 10.6 km/h Distance 13.22 km</desc>
<time>2010-06-13T06:55:41.70</time>
<name>3027</name>
</trkpt>
<trkpt lat="49.211157" lon="11.714453">
<ele>614.1</ele>
<speed>9.8</speed>
<course>64.4</course>
<desc>Speed 9.8 km/h Distance 13.22 km</desc>
<time>2010-06-13T06:55:42.71</time>
<name>3028</name>
</trkpt>
<trkpt lat="49.211165" lon="11.714480">
<ele>614.0</ele>
<speed>6.3</speed>
<course>52.6</course>
<desc>Speed 6.3 km/h Distance 13.23 km</desc>
<time>2010-06-13T06:55:43.71</time>
<name>3029</name>
</trkpt>
<trkpt lat="49.211173" lon="11.714497">
<ele>614.0</ele>
<speed>6.7</speed>
<course>323.0</course>
<desc>Speed 6.7 km/h Distance 13.23 km</desc>
<time>2010-06-13T06:55:44.70</time>
<name>3030</name>
</trkpt>
<trkpt lat="49.211195" lon="11.714472">
<ele>615.1</ele>
<speed>7.3</speed>
<course>335.3</course>
<desc>Speed 7.3 km/h Distance 13.23 km</desc>
<time>2010-06-13T06:55:45.69</time>
<name>3031</name>
</trkpt>
<trkpt lat="49.211268" lon="11.714420">
<ele>613.3</ele>
<speed>10.5</speed>
<course>334.3</course>
<desc>Speed 10.5 km/h Distance 13.24 km</desc>
<time>2010-06-13T06:55:47.70</time>
<name>3032</name>
</trkpt>
<trkpt lat="49.211300" lon="11.714397">
<ele>612.8</ele>
<speed>11.6</speed>
<course>341.0</course>
<desc>Speed 11.6 km/h Distance 13.24 km</desc>
<time>2010-06-13T06:55:48.71</time>
<name>3033</name>
</trkpt>
<trkpt lat="49.211332" lon="11.714380">
<ele>612.6</ele>
<speed>11.8</speed>
<course>0.0</course>
<desc>Speed 11.8 km/h Distance 13.25 km</desc>
<time>2010-06-13T06:55:49.70</time>
<name>3034</name>
</trkpt>
<trkpt lat="49.211365" lon="11.714380">
<ele>612.4</ele>
<speed>12.0</speed>
<course>343.0</course>
<desc>Speed 12.0 km/h Distance 13.25 km</desc>
<time>2010-06-13T06:55:50.71</time>
<name>3035</name>
</trkpt>
<trkpt lat="49.211390" lon="11.714368">
<ele>613.7</ele>
<speed>11.8</speed>
<course>348.5</course>
<desc>Speed 11.8 km/h Distance 13.25 km</desc>
<time>2010-06-13T06:55:51.70</time>
<name>3036</name>
</trkpt>
<trkpt lat="49.211417" lon="11.714360">
<ele>614.1</ele>
<speed>12.0</speed>
<course>348.5</course>
<desc>Speed 12.0 km/h Distance 13.26 km</desc>
<time>2010-06-13T06:55:52.70</time>
<name>3037</name>
</trkpt>
<trkpt lat="49.211443" lon="11.714352">
<ele>614.4</ele>
<speed>11.4</speed>
<course>0.0</course>
<desc>Speed 11.4 km/h Distance 13.26 km</desc>
<time>2010-06-13T06:55:53.71</time>
<name>3038</name>
</trkpt>
<trkpt lat="49.211472" lon="11.714352">
<ele>614.0</ele>
<speed>12.0</speed>
<course>355.5</course>
<desc>Speed 12.0 km/h Distance 13.26 km</desc>
<time>2010-06-13T06:55:54.70</time>
<name>3039</name>
</trkpt>
<trkpt lat="49.211500" lon="11.714348">
<ele>614.4</ele>
<speed>10.6</speed>
<course>350.5</course>
<desc>Speed 10.6 km/h Distance 13.27 km</desc>
<time>2010-06-13T06:55:55.70</time>
<name>3040</name>
</trkpt>
<trkpt lat="49.211512" lon="11.714345">
<ele>615.3</ele>
<speed>9.6</speed>
<course>22.6</course>
<desc>Speed 9.6 km/h Distance 13.27 km</desc>
<time>2010-06-13T06:55:56.70</time>
<name>3041</name>
</trkpt>
<trkpt lat="49.211530" lon="11.714357">
<ele>617.0</ele>
<speed>9.4</speed>
<course>5.0</course>
<desc>Speed 9.4 km/h Distance 13.27 km</desc>
<time>2010-06-13T06:55:57.71</time>
<name>3042</name>
</trkpt>
<trkpt lat="49.211555" lon="11.714360">
<ele>617.3</ele>
<speed>10.0</speed>
<course>354.5</course>
<desc>Speed 10.0 km/h Distance 13.27 km</desc>
<time>2010-06-13T06:55:58.70</time>
<name>3043</name>
</trkpt>
<trkpt lat="49.211590" lon="11.714355">
<ele>618.2</ele>
<speed>11.9</speed>
<course>358.3</course>
<desc>Speed 11.9 km/h Distance 13.28 km</desc>
<time>2010-06-13T06:55:59.71</time>
<name>3044</name>
</trkpt>
<trkpt lat="49.211625" lon="11.714353">
<ele>619.4</ele>
<speed>10.4</speed>
<course>3.0</course>
<desc>Speed 10.4 km/h Distance 13.28 km</desc>
<time>2010-06-13T06:56:00.69</time>
<name>3045</name>
</trkpt>
<trkpt lat="49.211648" lon="11.714355">
<ele>619.7</ele>
<speed>9.4</speed>
<course>357.8</course>
<desc>Speed 9.4 km/h Distance 13.28 km</desc>
<time>2010-06-13T06:56:01.70</time>
<name>3046</name>
</trkpt>
<trkpt lat="49.211675" lon="11.714353">
<ele>619.7</ele>
<speed>9.5</speed>
<course>354.2</course>
<desc>Speed 9.5 km/h Distance 13.29 km</desc>
<time>2010-06-13T06:56:02.69</time>
<name>3047</name>
</trkpt>
<trkpt lat="49.211707" lon="11.714348">
<ele>620.1</ele>
<speed>9.4</speed>
<course>354.6</course>
<desc>Speed 9.4 km/h Distance 13.29 km</desc>
<time>2010-06-13T06:56:03.70</time>
<name>3048</name>
</trkpt>
<trkpt lat="49.211740" lon="11.714343">
<ele>620.4</ele>
<speed>9.9</speed>
<course>349.0</course>
<desc>Speed 9.9 km/h Distance 13.29 km</desc>
<time>2010-06-13T06:56:04.70</time>
<name>3049</name>
</trkpt>
<trkpt lat="49.211773" lon="11.714333">
<ele>619.6</ele>
<speed>9.9</speed>
<course>4.6</course>
<desc>Speed 9.9 km/h Distance 13.30 km</desc>
<time>2010-06-13T06:56:05.70</time>
<name>3050</name>
</trkpt>
<trkpt lat="49.211800" lon="11.714337">
<ele>619.8</ele>
<speed>8.9</speed>
<course>11.1</course>
<desc>Speed 8.9 km/h Distance 13.30 km</desc>
<time>2010-06-13T06:56:06.71</time>
<name>3051</name>
</trkpt>
<trkpt lat="49.211822" lon="11.714343">
<ele>620.3</ele>
<speed>9.2</speed>
<course>344.4</course>
<desc>Speed 9.2 km/h Distance 13.30 km</desc>
<time>2010-06-13T06:56:07.71</time>
<name>3052</name>
</trkpt>
<trkpt lat="49.211857" lon="11.714328">
<ele>620.0</ele>
<speed>10.1</speed>
<course>355.5</course>
<desc>Speed 10.1 km/h Distance 13.31 km</desc>
<time>2010-06-13T06:56:08.69</time>
<name>3053</name>
</trkpt>
<trkpt lat="49.211885" lon="11.714325">
<ele>620.1</ele>
<speed>10.3</speed>
<course>349.1</course>
<desc>Speed 10.3 km/h Distance 13.31 km</desc>
<time>2010-06-13T06:56:09.69</time>
<name>3054</name>
</trkpt>
<trkpt lat="49.211913" lon="11.714317">
<ele>619.6</ele>
<speed>10.0</speed>
<course>350.0</course>
<desc>Speed 10.0 km/h Distance 13.31 km</desc>
<time>2010-06-13T06:56:10.69</time>
<name>3055</name>
</trkpt>
<trkpt lat="49.211938" lon="11.714310">
<ele>619.1</ele>
<speed>10.0</speed>
<course>349.4</course>
<desc>Speed 10.0 km/h Distance 13.32 km</desc>
<time>2010-06-13T06:56:11.69</time>
<name>3056</name>
</trkpt>
<trkpt lat="49.211962" lon="11.714303">
<ele>618.7</ele>
<speed>9.6</speed>
<course>354.5</course>
<desc>Speed 9.6 km/h Distance 13.32 km</desc>
<time>2010-06-13T06:56:12.70</time>
<name>3057</name>
</trkpt>
<trkpt lat="49.211983" lon="11.714300">
<ele>618.6</ele>
<speed>9.1</speed>
<course>5.6</course>
<desc>Speed 9.1 km/h Distance 13.32 km</desc>
<time>2010-06-13T06:56:13.70</time>
<name>3058</name>
</trkpt>
<trkpt lat="49.212003" lon="11.714303">
<ele>618.5</ele>
<speed>10.2</speed>
<course>4.6</course>
<desc>Speed 10.2 km/h Distance 13.32 km</desc>
<time>2010-06-13T06:56:14.71</time>
<name>3059</name>
</trkpt>
<trkpt lat="49.212030" lon="11.714307">
<ele>619.4</ele>
<speed>9.9</speed>
<course>5.0</course>
<desc>Speed 9.9 km/h Distance 13.33 km</desc>
<time>2010-06-13T06:56:15.69</time>
<name>3060</name>
</trkpt>
<trkpt lat="49.212055" lon="11.714310">
<ele>620.1</ele>
<speed>9.6</speed>
<course>5.6</course>
<desc>Speed 9.6 km/h Distance 13.33 km</desc>
<time>2010-06-13T06:56:16.71</time>
<name>3061</name>
</trkpt>
<trkpt lat="49.212078" lon="11.714313">
<ele>621.0</ele>
<speed>8.9</speed>
<course>1.2</course>
<desc>Speed 8.9 km/h Distance 13.33 km</desc>
<time>2010-06-13T06:56:17.69</time>
<name>3062</name>
</trkpt>
<trkpt lat="49.212105" lon="11.714313">
<ele>621.8</ele>
<speed>8.6</speed>
<course>357.3</course>
<desc>Speed 8.6 km/h Distance 13.34 km</desc>
<time>2010-06-13T06:56:18.70</time>
<name>3063</name>
</trkpt>
<trkpt lat="49.212125" lon="11.714312">
<ele>622.4</ele>
<speed>8.7</speed>
<course>0.0</course>
<desc>Speed 8.7 km/h Distance 13.34 km</desc>
<time>2010-06-13T06:56:19.69</time>
<name>3064</name>
</trkpt>
<trkpt lat="49.212147" lon="11.714312">
<ele>623.2</ele>
<speed>10.0</speed>
<course>354.4</course>
<desc>Speed 10.0 km/h Distance 13.34 km</desc>
<time>2010-06-13T06:56:20.70</time>
<name>3065</name>
</trkpt>
<trkpt lat="49.212180" lon="11.714307">
<ele>622.7</ele>
<speed>10.8</speed>
<course>352.1</course>
<desc>Speed 10.8 km/h Distance 13.34 km</desc>
<time>2010-06-13T06:56:21.69</time>
<name>3066</name>
</trkpt>
<trkpt lat="49.212212" lon="11.714300">
<ele>622.8</ele>
<speed>9.6</speed>
<course>352.2</course>
<desc>Speed 9.6 km/h Distance 13.35 km</desc>
<time>2010-06-13T06:56:22.71</time>
<name>3067</name>
</trkpt>
<trkpt lat="49.212235" lon="11.714295">
<ele>623.1</ele>
<speed>9.7</speed>
<course>357.5</course>
<desc>Speed 9.7 km/h Distance 13.35 km</desc>
<time>2010-06-13T06:56:23.70</time>
<name>3068</name>
</trkpt>
<trkpt lat="49.212260" lon="11.714293">
<ele>623.1</ele>
<speed>9.4</speed>
<course>357.8</course>
<desc>Speed 9.4 km/h Distance 13.35 km</desc>
<time>2010-06-13T06:56:24.70</time>
<name>3069</name>
</trkpt>
<trkpt lat="49.212282" lon="11.714292">
<ele>623.1</ele>
<speed>8.2</speed>
<course>354.5</course>
<desc>Speed 8.2 km/h Distance 13.35 km</desc>
<time>2010-06-13T06:56:25.70</time>
<name>3070</name>
</trkpt>
<trkpt lat="49.212303" lon="11.714288">
<ele>623.0</ele>
<speed>8.5</speed>
<course>352.3</course>
<desc>Speed 8.5 km/h Distance 13.36 km</desc>
<time>2010-06-13T06:56:26.69</time>
<name>3071</name>
</trkpt>
<trkpt lat="49.212320" lon="11.714285">
<ele>622.6</ele>
<speed>8.5</speed>
<course>0.0</course>
<desc>Speed 8.5 km/h Distance 13.36 km</desc>
<time>2010-06-13T06:56:27.70</time>
<name>3072</name>
</trkpt>
<trkpt lat="49.212335" lon="11.714285">
<ele>622.3</ele>
<speed>8.2</speed>
<course>0.0</course>
<desc>Speed 8.2 km/h Distance 13.36 km</desc>
<time>2010-06-13T06:56:28.70</time>
<name>3073</name>
</trkpt>
<trkpt lat="49.212350" lon="11.714285">
<ele>622.3</ele>
<speed>8.2</speed>
<course>0.0</course>
<desc>Speed 8.2 km/h Distance 13.36 km</desc>
<time>2010-06-13T06:56:29.70</time>
<name>3074</name>
</trkpt>
<trkpt lat="49.212372" lon="11.714285">
<ele>622.4</ele>
<speed>8.6</speed>
<course>0.0</course>
<desc>Speed 8.6 km/h Distance 13.36 km</desc>
<time>2010-06-13T06:56:30.70</time>
<name>3075</name>
</trkpt>
<trkpt lat="49.212392" lon="11.714285">
<ele>622.8</ele>
<speed>8.9</speed>
<course>0.0</course>
<desc>Speed 8.9 km/h Distance 13.37 km</desc>
<time>2010-06-13T06:56:31.71</time>
<name>3076</name>
</trkpt>
<trkpt lat="49.212415" lon="11.714285">
<ele>623.3</ele>
<speed>9.1</speed>
<course>0.0</course>
<desc>Speed 9.1 km/h Distance 13.37 km</desc>
<time>2010-06-13T06:56:32.69</time>
<name>3077</name>
</trkpt>
<trkpt lat="49.212433" lon="11.714285">
<ele>623.3</ele>
<speed>7.3</speed>
<course>6.1</course>
<desc>Speed 7.3 km/h Distance 13.37 km</desc>
<time>2010-06-13T06:56:33.70</time>
<name>3078</name>
</trkpt>
<trkpt lat="49.212453" lon="11.714288">
<ele>623.8</ele>
<speed>7.6</speed>
<course>2.7</course>
<desc>Speed 7.6 km/h Distance 13.37 km</desc>
<time>2010-06-13T06:56:34.70</time>
<name>3079</name>
</trkpt>
<trkpt lat="49.212473" lon="11.714290">
<ele>624.0</ele>
<speed>7.3</speed>
<course>346.8</course>
<desc>Speed 7.3 km/h Distance 13.38 km</desc>
<time>2010-06-13T06:56:35.70</time>
<name>3080</name>
</trkpt>
<trkpt lat="49.212497" lon="11.714282">
<ele>623.9</ele>
<speed>8.1</speed>
<course>352.3</course>
<desc>Speed 8.1 km/h Distance 13.38 km</desc>
<time>2010-06-13T06:56:36.72</time>
<name>3081</name>
</trkpt>
<trkpt lat="49.212513" lon="11.714278">
<ele>623.5</ele>
<speed>8.3</speed>
<course>2.8</course>
<desc>Speed 8.3 km/h Distance 13.38 km</desc>
<time>2010-06-13T06:56:37.70</time>
<name>3082</name>
</trkpt>
<trkpt lat="49.212530" lon="11.714280">
<ele>623.5</ele>
<speed>7.7</speed>
<course>10.8</course>
<desc>Speed 7.7 km/h Distance 13.38 km</desc>
<time>2010-06-13T06:56:38.69</time>
<name>3083</name>
</trkpt>
<trkpt lat="49.212547" lon="11.714285">
<ele>623.6</ele>
<speed>7.7</speed>
<course>0.0</course>
<desc>Speed 7.7 km/h Distance 13.38 km</desc>
<time>2010-06-13T06:56:39.71</time>
<name>3084</name>
</trkpt>
<trkpt lat="49.212567" lon="11.714285">
<ele>623.7</ele>
<speed>7.3</speed>
<course>21.5</course>
<desc>Speed 7.3 km/h Distance 13.39 km</desc>
<time>2010-06-13T06:56:40.71</time>
<name>3085</name>
</trkpt>
<trkpt lat="49.212583" lon="11.714295">
<ele>624.0</ele>
<speed>7.2</speed>
<course>1.2</course>
<desc>Speed 7.2 km/h Distance 13.39 km</desc>
<time>2010-06-13T06:56:41.69</time>
<name>3086</name>
</trkpt>
<trkpt lat="49.212597" lon="11.714295">
<ele>623.9</ele>
<speed>7.4</speed>
<course>48.7</course>
<desc>Speed 7.4 km/h Distance 13.39 km</desc>
<time>2010-06-13T06:56:42.69</time>
<name>3087</name>
</trkpt>
<trkpt lat="49.212603" lon="11.714307">
<ele>624.6</ele>
<speed>7.2</speed>
<course>36.4</course>
<desc>Speed 7.2 km/h Distance 13.39 km</desc>
<time>2010-06-13T06:56:43.71</time>
<name>3088</name>
</trkpt>
<trkpt lat="49.212617" lon="11.714322">
<ele>625.6</ele>
<speed>7.2</speed>
<course>2.5</course>
<desc>Speed 7.2 km/h Distance 13.39 km</desc>
<time>2010-06-13T06:56:44.70</time>
<name>3089</name>
</trkpt>
<trkpt lat="49.212635" lon="11.714323">
<ele>625.1</ele>
<speed>7.6</speed>
<course>63.0</course>
<desc>Speed 7.6 km/h Distance 13.40 km</desc>
<time>2010-06-13T06:56:45.71</time>
<name>3090</name>
</trkpt>
<trkpt lat="49.212640" lon="11.714338">
<ele>626.0</ele>
<speed>6.3</speed>
<course>21.5</course>
<desc>Speed 6.3 km/h Distance 13.40 km</desc>
<time>2010-06-13T06:56:46.69</time>
<name>3091</name>
</trkpt>
<trkpt lat="49.212657" lon="11.714348">
<ele>626.5</ele>
<speed>7.2</speed>
<course>35.9</course>
<desc>Speed 7.2 km/h Distance 13.40 km</desc>
<time>2010-06-13T06:56:47.71</time>
<name>3092</name>
</trkpt>
<trkpt lat="49.212672" lon="11.714365">
<ele>627.8</ele>
<speed>8.1</speed>
<course>353.6</course>
<desc>Speed 8.1 km/h Distance 13.40 km</desc>
<time>2010-06-13T06:56:48.70</time>
<name>3093</name>
</trkpt>
<trkpt lat="49.212702" lon="11.714360">
<ele>627.4</ele>
<speed>8.8</speed>
<course>24.9</course>
<desc>Speed 8.8 km/h Distance 13.40 km</desc>
<time>2010-06-13T06:56:49.70</time>
<name>3094</name>
</trkpt>
<trkpt lat="49.212713" lon="11.714368">
<ele>629.1</ele>
<speed>7.6</speed>
<course>22.1</course>
<desc>Speed 7.6 km/h Distance 13.41 km</desc>
<time>2010-06-13T06:56:50.70</time>
<name>3095</name>
</trkpt>
<trkpt lat="49.212727" lon="11.714377">
<ele>629.4</ele>
<speed>6.0</speed>
<course>37.5</course>
<desc>Speed 6.0 km/h Distance 13.41 km</desc>
<time>2010-06-13T06:56:51.69</time>
<name>3096</name>
</trkpt>
<trkpt lat="49.212737" lon="11.714388">
<ele>630.4</ele>
<speed>8.0</speed>
<course>26.9</course>
<desc>Speed 8.0 km/h Distance 13.41 km</desc>
<time>2010-06-13T06:56:52.70</time>
<name>3097</name>
</trkpt>
<trkpt lat="49.212752" lon="11.714400">
<ele>630.4</ele>
<speed>7.5</speed>
<course>2.5</course>
<desc>Speed 7.5 km/h Distance 13.41 km</desc>
<time>2010-06-13T06:56:53.71</time>
<name>3098</name>
</trkpt>
<trkpt lat="49.212770" lon="11.714402">
<ele>629.4</ele>
<speed>6.9</speed>
<course>36.4</course>
<desc>Speed 6.9 km/h Distance 13.41 km</desc>
<time>2010-06-13T06:56:54.70</time>
<name>3099</name>
</trkpt>
<trkpt lat="49.212783" lon="11.714417">
<ele>629.0</ele>
<speed>6.4</speed>
<course>57.5</course>
<desc>Speed 6.4 km/h Distance 13.41 km</desc>
<time>2010-06-13T06:56:55.70</time>
<name>3100</name>
</trkpt>
<trkpt lat="49.212792" lon="11.714437">
<ele>629.3</ele>
<speed>6.9</speed>
<course>9.0</course>
<desc>Speed 6.9 km/h Distance 13.42 km</desc>
<time>2010-06-13T06:56:56.70</time>
<name>3101</name>
</trkpt>
<trkpt lat="49.212805" lon="11.714440">
<ele>629.0</ele>
<speed>7.2</speed>
<course>52.6</course>
<desc>Speed 7.2 km/h Distance 13.42 km</desc>
<time>2010-06-13T06:56:57.70</time>
<name>3102</name>
</trkpt>
<trkpt lat="49.212815" lon="11.714460">
<ele>629.7</ele>
<speed>8.0</speed>
<course>46.7</course>
<desc>Speed 8.0 km/h Distance 13.42 km</desc>
<time>2010-06-13T06:56:58.70</time>
<name>3103</name>
</trkpt>
<trkpt lat="49.212828" lon="11.714482">
<ele>630.5</ele>
<speed>8.0</speed>
<course>25.4</course>
<desc>Speed 8.0 km/h Distance 13.42 km</desc>
<time>2010-06-13T06:56:59.69</time>
<name>3104</name>
</trkpt>
<trkpt lat="49.212847" lon="11.714495">
<ele>630.1</ele>
<speed>7.9</speed>
<course>44.4</course>
<desc>Speed 7.9 km/h Distance 13.42 km</desc>
<time>2010-06-13T06:57:00.71</time>
<name>3105</name>
</trkpt>
<trkpt lat="49.212863" lon="11.714520">
<ele>629.6</ele>
<speed>7.4</speed>
<course>33.0</course>
<desc>Speed 7.4 km/h Distance 13.43 km</desc>
<time>2010-06-13T06:57:01.70</time>
<name>3106</name>
</trkpt>
<trkpt lat="49.212880" lon="11.714537">
<ele>628.6</ele>
<speed>6.9</speed>
<course>2.8</course>
<desc>Speed 6.9 km/h Distance 13.43 km</desc>
<time>2010-06-13T06:57:02.68</time>
<name>3107</name>
</trkpt>
<trkpt lat="49.212897" lon="11.714538">
<ele>628.1</ele>
<speed>6.2</speed>
<course>17.9</course>
<desc>Speed 6.2 km/h Distance 13.43 km</desc>
<time>2010-06-13T06:57:03.69</time>
<name>3108</name>
</trkpt>
<trkpt lat="49.212913" lon="11.714547">
<ele>628.4</ele>
<speed>7.5</speed>
<course>19.7</course>
<desc>Speed 7.5 km/h Distance 13.43 km</desc>
<time>2010-06-13T06:57:04.69</time>
<name>3109</name>
</trkpt>
<trkpt lat="49.212932" lon="11.714557">
<ele>630.9</ele>
<speed>7.5</speed>
<course>2.2</course>
<desc>Speed 7.5 km/h Distance 13.43 km</desc>
<time>2010-06-13T06:57:05.71</time>
<name>3110</name>
</trkpt>
<trkpt lat="49.212955" lon="11.714558">
<ele>632.5</ele>
<speed>7.2</speed>
<course>29.8</course>
<desc>Speed 7.2 km/h Distance 13.44 km</desc>
<time>2010-06-13T06:57:06.69</time>
<name>3111</name>
</trkpt>
<trkpt lat="49.212968" lon="11.714570">
<ele>633.3</ele>
<speed>7.2</speed>
<course>40.0</course>
<desc>Speed 7.2 km/h Distance 13.44 km</desc>
<time>2010-06-13T06:57:07.69</time>
<name>3112</name>
</trkpt>
<trkpt lat="49.212980" lon="11.714585">
<ele>634.0</ele>
<speed>6.0</speed>
<course>29.4</course>
<desc>Speed 6.0 km/h Distance 13.44 km</desc>
<time>2010-06-13T06:57:08.70</time>
<name>3113</name>
</trkpt>
<trkpt lat="49.212992" lon="11.714595">
<ele>634.4</ele>
<speed>5.5</speed>
<course>29.2</course>
<desc>Speed 5.5 km/h Distance 13.44 km</desc>
<time>2010-06-13T06:57:09.69</time>
<name>3114</name>
</trkpt>
<trkpt lat="49.213003" lon="11.714605">
<ele>634.8</ele>
<speed>5.4</speed>
<course>16.8</course>
<desc>Speed 5.4 km/h Distance 13.44 km</desc>
<time>2010-06-13T06:57:10.70</time>
<name>3115</name>
</trkpt>
<trkpt lat="49.213025" lon="11.714615">
<ele>634.8</ele>
<speed>6.0</speed>
<course>45.5</course>
<desc>Speed 6.0 km/h Distance 13.45 km</desc>
<time>2010-06-13T06:57:11.71</time>
<name>3116</name>
</trkpt>
<trkpt lat="49.213040" lon="11.714638">
<ele>636.5</ele>
<speed>6.1</speed>
<course>28.0</course>
<desc>Speed 6.1 km/h Distance 13.45 km</desc>
<time>2010-06-13T06:57:12.69</time>
<name>3117</name>
</trkpt>
<trkpt lat="49.213058" lon="11.714653">
<ele>637.0</ele>
<speed>5.8</speed>
<course>37.3</course>
<desc>Speed 5.8 km/h Distance 13.45 km</desc>
<time>2010-06-13T06:57:13.70</time>
<name>3118</name>
</trkpt>
<trkpt lat="49.213068" lon="11.714665">
<ele>638.0</ele>
<speed>5.8</speed>
<course>45.7</course>
<desc>Speed 5.8 km/h Distance 13.45 km</desc>
<time>2010-06-13T06:57:14.69</time>
<name>3119</name>
</trkpt>
<trkpt lat="49.213080" lon="11.714683">
<ele>639.1</ele>
<speed>5.0</speed>
<course>60.1</course>
<desc>Speed 5.0 km/h Distance 13.45 km</desc>
<time>2010-06-13T06:57:15.69</time>
<name>3120</name>
</trkpt>
<trkpt lat="49.213085" lon="11.714697">
<ele>640.6</ele>
<speed>4.6</speed>
<course>33.2</course>
<desc>Speed 4.6 km/h Distance 13.45 km</desc>
<time>2010-06-13T06:57:16.70</time>
<name>3121</name>
</trkpt>
<trkpt lat="49.213105" lon="11.714717">
<ele>640.7</ele>
<speed>5.5</speed>
<course>50.1</course>
<desc>Speed 5.5 km/h Distance 13.46 km</desc>
<time>2010-06-13T06:57:17.68</time>
<name>3122</name>
</trkpt>
<trkpt lat="49.213115" lon="11.714735">
<ele>641.9</ele>
<speed>6.2</speed>
<course>36.6</course>
<desc>Speed 6.2 km/h Distance 13.46 km</desc>
<time>2010-06-13T06:57:18.69</time>
<name>3123</name>
</trkpt>
<trkpt lat="49.213127" lon="11.714748">
<ele>642.8</ele>
<speed>5.0</speed>
<course>71.3</course>
<desc>Speed 5.0 km/h Distance 13.46 km</desc>
<time>2010-06-13T06:57:19.70</time>
<name>3124</name>
</trkpt>
<trkpt lat="49.213130" lon="11.714763">
<ele>644.4</ele>
<speed>4.3</speed>
<course>60.9</course>
<desc>Speed 4.3 km/h Distance 13.46 km</desc>
<time>2010-06-13T06:57:20.68</time>
<name>3125</name>
</trkpt>
<trkpt lat="49.213137" lon="11.714782">
<ele>646.1</ele>
<speed>4.0</speed>
<course>28.6</course>
<desc>Speed 4.0 km/h Distance 13.46 km</desc>
<time>2010-06-13T06:57:21.70</time>
<name>3126</name>
</trkpt>
<trkpt lat="49.213147" lon="11.714790">
<ele>647.0</ele>
<speed>4.6</speed>
<course>41.9</course>
<desc>Speed 4.6 km/h Distance 13.46 km</desc>
<time>2010-06-13T06:57:22.68</time>
<name>3127</name>
</trkpt>
<trkpt lat="49.213160" lon="11.714808">
<ele>648.6</ele>
<speed>4.3</speed>
<course>33.1</course>
<desc>Speed 4.3 km/h Distance 13.47 km</desc>
<time>2010-06-13T06:57:23.69</time>
<name>3128</name>
</trkpt>
<trkpt lat="49.213180" lon="11.714828">
<ele>649.4</ele>
<speed>5.3</speed>
<course>67.0</course>
<desc>Speed 5.3 km/h Distance 13.47 km</desc>
<time>2010-06-13T06:57:24.69</time>
<name>3129</name>
</trkpt>
<trkpt lat="49.213188" lon="11.714858">
<ele>651.4</ele>
<speed>5.0</speed>
<course>63.0</course>
<desc>Speed 5.0 km/h Distance 13.47 km</desc>
<time>2010-06-13T06:57:25.69</time>
<name>3130</name>
</trkpt>
<trkpt lat="49.213197" lon="11.714883">
<ele>652.0</ele>
<speed>5.6</speed>
<course>45.8</course>
<desc>Speed 5.6 km/h Distance 13.47 km</desc>
<time>2010-06-13T06:57:26.70</time>
<name>3131</name>
</trkpt>
<trkpt lat="49.213208" lon="11.714902">
<ele>651.9</ele>
<speed>5.9</speed>
<course>59.2</course>
<desc>Speed 5.9 km/h Distance 13.48 km</desc>
<time>2010-06-13T06:57:27.68</time>
<name>3132</name>
</trkpt>
<trkpt lat="49.213220" lon="11.714932">
<ele>652.0</ele>
<speed>6.2</speed>
<course>71.2</course>
<desc>Speed 6.2 km/h Distance 13.48 km</desc>
<time>2010-06-13T06:57:28.70</time>
<name>3133</name>
</trkpt>
<trkpt lat="49.213227" lon="11.714962">
<ele>651.5</ele>
<speed>6.5</speed>
<course>64.4</course>
<desc>Speed 6.5 km/h Distance 13.48 km</desc>
<time>2010-06-13T06:57:29.69</time>
<name>3134</name>
</trkpt>
<trkpt lat="49.213235" lon="11.714988">
<ele>650.8</ele>
<speed>6.6</speed>
<course>61.4</course>
<desc>Speed 6.6 km/h Distance 13.48 km</desc>
<time>2010-06-13T06:57:30.69</time>
<name>3135</name>
</trkpt>
<trkpt lat="49.213243" lon="11.715012">
<ele>650.0</ele>
<speed>5.7</speed>
<course>47.4</course>
<desc>Speed 5.7 km/h Distance 13.48 km</desc>
<time>2010-06-13T06:57:31.69</time>
<name>3136</name>
</trkpt>
<trkpt lat="49.213253" lon="11.715028">
<ele>648.6</ele>
<speed>5.4</speed>
<course>25.6</course>
<desc>Speed 5.4 km/h Distance 13.49 km</desc>
<time>2010-06-13T06:57:32.68</time>
<name>3137</name>
</trkpt>
<trkpt lat="49.213260" lon="11.715033">
<ele>650.8</ele>
<speed>5.6</speed>
<course>70.2</course>
<desc>Speed 5.6 km/h Distance 13.49 km</desc>
<time>2010-06-13T06:57:33.69</time>
<name>3138</name>
</trkpt>
<trkpt lat="49.213267" lon="11.715062">
<ele>650.2</ele>
<speed>5.7</speed>
<course>62.9</course>
<desc>Speed 5.7 km/h Distance 13.49 km</desc>
<time>2010-06-13T06:57:34.69</time>
<name>3139</name>
</trkpt>
<trkpt lat="49.213275" lon="11.715087">
<ele>649.4</ele>
<speed>6.3</speed>
<course>72.1</course>
<desc>Speed 6.3 km/h Distance 13.49 km</desc>
<time>2010-06-13T06:57:35.69</time>
<name>3140</name>
</trkpt>
<trkpt lat="49.213282" lon="11.715118">
<ele>649.5</ele>
<speed>5.7</speed>
<course>73.8</course>
<desc>Speed 5.7 km/h Distance 13.49 km</desc>
<time>2010-06-13T06:57:36.69</time>
<name>3141</name>
</trkpt>
<trkpt lat="49.213288" lon="11.715153">
<ele>649.6</ele>
<speed>5.0</speed>
<course>52.6</course>
<desc>Speed 5.0 km/h Distance 13.50 km</desc>
<time>2010-06-13T06:57:37.70</time>
<name>3142</name>
</trkpt>
<trkpt lat="49.213303" lon="11.715183">
<ele>649.2</ele>
<speed>5.7</speed>
<course>72.1</course>
<desc>Speed 5.7 km/h Distance 13.50 km</desc>
<time>2010-06-13T06:57:38.70</time>
<name>3143</name>
</trkpt>
<trkpt lat="49.213310" lon="11.715215">
<ele>650.0</ele>
<speed>5.8</speed>
<course>48.2</course>
<desc>Speed 5.8 km/h Distance 13.50 km</desc>
<time>2010-06-13T06:57:39.69</time>
<name>3144</name>
</trkpt>
<trkpt lat="49.213322" lon="11.715235">
<ele>650.0</ele>
<speed>4.0</speed>
<course>103.3</course>
<desc>Speed 4.0 km/h Distance 13.50 km</desc>
<time>2010-06-13T06:57:40.69</time>
<name>3145</name>
</trkpt>
<trkpt lat="49.213318" lon="11.715257">
<ele>650.5</ele>
<speed>2.6</speed>
<course>74.0</course>
<desc>Speed 2.6 km/h Distance 13.51 km</desc>
<time>2010-06-13T06:57:41.69</time>
<name>3146</name>
</trkpt>
<trkpt lat="49.213323" lon="11.715283">
<ele>651.0</ele>
<speed>4.0</speed>
<course>45.5</course>
<desc>Speed 4.0 km/h Distance 13.51 km</desc>
<time>2010-06-13T06:57:42.68</time>
<name>3147</name>
</trkpt>
<trkpt lat="49.213338" lon="11.715307">
<ele>651.2</ele>
<speed>4.8</speed>
<course>25.9</course>
<desc>Speed 4.8 km/h Distance 13.51 km</desc>
<time>2010-06-13T06:57:43.70</time>
<name>3148</name>
</trkpt>
<trkpt lat="49.213390" lon="11.715345">
<ele>650.8</ele>
<speed>5.9</speed>
<course>12.3</course>
<desc>Speed 5.9 km/h Distance 13.52 km</desc>
<time>2010-06-13T06:57:45.70</time>
<name>3149</name>
</trkpt>
<trkpt lat="49.213415" lon="11.715353">
<ele>650.0</ele>
<speed>4.6</speed>
<course>35.5</course>
<desc>Speed 4.6 km/h Distance 13.52 km</desc>
<time>2010-06-13T06:57:46.70</time>
<name>3150</name>
</trkpt>
<trkpt lat="49.213433" lon="11.715373">
<ele>648.5</ele>
<speed>5.0</speed>
<course>63.0</course>
<desc>Speed 5.0 km/h Distance 13.52 km</desc>
<time>2010-06-13T06:57:47.69</time>
<name>3151</name>
</trkpt>
<trkpt lat="49.213443" lon="11.715403">
<ele>647.4</ele>
<speed>5.3</speed>
<course>37.0</course>
<desc>Speed 5.3 km/h Distance 13.52 km</desc>
<time>2010-06-13T06:57:48.69</time>
<name>3152</name>
</trkpt>
<trkpt lat="49.213465" lon="11.715428">
<ele>645.5</ele>
<speed>5.2</speed>
<course>18.1</course>
<desc>Speed 5.2 km/h Distance 13.53 km</desc>
<time>2010-06-13T06:57:49.69</time>
<name>3153</name>
</trkpt>
<trkpt lat="49.213482" lon="11.715437">
<ele>644.8</ele>
<speed>5.4</speed>
<course>77.7</course>
<desc>Speed 5.4 km/h Distance 13.53 km</desc>
<time>2010-06-13T06:57:50.69</time>
<name>3154</name>
</trkpt>
<trkpt lat="49.213485" lon="11.715460">
<ele>644.9</ele>
<speed>5.1</speed>
<course>62.6</course>
<desc>Speed 5.1 km/h Distance 13.53 km</desc>
<time>2010-06-13T06:57:51.68</time>
<name>3155</name>
</trkpt>
<trkpt lat="49.213487" lon="11.715465">
<ele>647.0</ele>
<speed>3.9</speed>
<course>58.5</course>
<desc>Speed 3.9 km/h Distance 13.53 km</desc>
<time>2010-06-13T06:57:52.69</time>
<name>3156</name>
</trkpt>
<trkpt lat="49.213493" lon="11.715482">
<ele>646.3</ele>
<speed>4.0</speed>
<course>79.8</course>
<desc>Speed 4.0 km/h Distance 13.53 km</desc>
<time>2010-06-13T06:57:53.69</time>
<name>3157</name>
</trkpt>
<trkpt lat="49.213497" lon="11.715510">
<ele>645.3</ele>
<speed>5.3</speed>
<course>36.0</course>
<desc>Speed 5.3 km/h Distance 13.53 km</desc>
<time>2010-06-13T06:57:54.69</time>
<name>3158</name>
</trkpt>
<trkpt lat="49.213512" lon="11.715527">
<ele>643.1</ele>
<speed>4.9</speed>
<course>36.9</course>
<desc>Speed 4.9 km/h Distance 13.54 km</desc>
<time>2010-06-13T06:57:55.70</time>
<name>3159</name>
</trkpt>
<trkpt lat="49.213523" lon="11.715540">
<ele>641.6</ele>
<speed>4.3</speed>
<course>46.7</course>
<desc>Speed 4.3 km/h Distance 13.54 km</desc>
<time>2010-06-13T06:57:56.69</time>
<name>3160</name>
</trkpt>
<trkpt lat="49.213537" lon="11.715562">
<ele>642.3</ele>
<speed>4.5</speed>
<course>67.8</course>
<desc>Speed 4.5 km/h Distance 13.54 km</desc>
<time>2010-06-13T06:57:57.68</time>
<name>3161</name>
</trkpt>
<trkpt lat="49.213543" lon="11.715587">
<ele>643.3</ele>
<speed>4.4</speed>
<course>33.2</course>
<desc>Speed 4.4 km/h Distance 13.54 km</desc>
<time>2010-06-13T06:57:58.70</time>
<name>3162</name>
</trkpt>
<trkpt lat="49.213558" lon="11.715602">
<ele>644.1</ele>
<speed>3.5</speed>
<course>57.2</course>
<desc>Speed 3.5 km/h Distance 13.54 km</desc>
<time>2010-06-13T06:57:59.68</time>
<name>3163</name>
</trkpt>
<trkpt lat="49.213572" lon="11.715633">
<ele>644.3</ele>
<speed>6.7</speed>
<course>44.4</course>
<desc>Speed 6.7 km/h Distance 13.55 km</desc>
<time>2010-06-13T06:58:00.70</time>
<name>3164</name>
</trkpt>
<trkpt lat="49.213588" lon="11.715658">
<ele>645.1</ele>
<speed>6.0</speed>
<course>48.2</course>
<desc>Speed 6.0 km/h Distance 13.55 km</desc>
<time>2010-06-13T06:58:01.69</time>
<name>3165</name>
</trkpt>
<trkpt lat="49.213600" lon="11.715678">
<ele>644.5</ele>
<speed>5.9</speed>
<course>46.9</course>
<desc>Speed 5.9 km/h Distance 13.55 km</desc>
<time>2010-06-13T06:58:02.68</time>
<name>3166</name>
</trkpt>
<trkpt lat="49.213618" lon="11.715708">
<ele>643.4</ele>
<speed>6.0</speed>
<course>64.4</course>
<desc>Speed 6.0 km/h Distance 13.55 km</desc>
<time>2010-06-13T06:58:03.70</time>
<name>3167</name>
</trkpt>
<trkpt lat="49.213627" lon="11.715735">
<ele>642.7</ele>
<speed>3.8</speed>
<course>1.2</course>
<desc>Speed 3.8 km/h Distance 13.56 km</desc>
<time>2010-06-13T06:58:04.68</time>
<name>3168</name>
</trkpt>
<trkpt lat="49.213640" lon="11.715735">
<ele>642.5</ele>
<speed>3.2</speed>
<course>52.6</course>
<desc>Speed 3.2 km/h Distance 13.56 km</desc>
<time>2010-06-13T06:58:05.69</time>
<name>3169</name>
</trkpt>
<trkpt lat="49.213648" lon="11.715752">
<ele>643.1</ele>
<speed>5.5</speed>
<course>58.5</course>
<desc>Speed 5.5 km/h Distance 13.56 km</desc>
<time>2010-06-13T06:58:06.69</time>
<name>3170</name>
</trkpt>
<trkpt lat="49.213658" lon="11.715777">
<ele>642.3</ele>
<speed>5.8</speed>
<course>38.1</course>
<desc>Speed 5.8 km/h Distance 13.56 km</desc>
<time>2010-06-13T06:58:07.69</time>
<name>3171</name>
</trkpt>
<trkpt lat="49.213675" lon="11.715797">
<ele>642.2</ele>
<speed>5.8</speed>
<course>49.7</course>
<desc>Speed 5.8 km/h Distance 13.56 km</desc>
<time>2010-06-13T06:58:08.71</time>
<name>3172</name>
</trkpt>
<trkpt lat="49.213683" lon="11.715812">
<ele>643.6</ele>
<speed>4.3</speed>
<course>44.5</course>
<desc>Speed 4.3 km/h Distance 13.57 km</desc>
<time>2010-06-13T06:58:09.69</time>
<name>3173</name>
</trkpt>
<trkpt lat="49.213697" lon="11.715832">
<ele>643.6</ele>
<speed>5.9</speed>
<course>29.8</course>
<desc>Speed 5.9 km/h Distance 13.57 km</desc>
<time>2010-06-13T06:58:10.69</time>
<name>3174</name>
</trkpt>
<trkpt lat="49.213710" lon="11.715843">
<ele>644.0</ele>
<speed>6.2</speed>
<course>38.6</course>
<desc>Speed 6.2 km/h Distance 13.57 km</desc>
<time>2010-06-13T06:58:11.70</time>
<name>3175</name>
</trkpt>
<trkpt lat="49.213725" lon="11.715862">
<ele>643.7</ele>
<speed>6.7</speed>
<course>52.6</course>
<desc>Speed 6.7 km/h Distance 13.57 km</desc>
<time>2010-06-13T06:58:12.69</time>
<name>3176</name>
</trkpt>
<trkpt lat="49.213738" lon="11.715888">
<ele>644.0</ele>
<speed>6.4</speed>
<course>38.6</course>
<desc>Speed 6.4 km/h Distance 13.57 km</desc>
<time>2010-06-13T06:58:13.69</time>
<name>3177</name>
</trkpt>
<trkpt lat="49.213753" lon="11.715907">
<ele>646.2</ele>
<speed>5.5</speed>
<course>90.0</course>
<desc>Speed 5.5 km/h Distance 13.58 km</desc>
<time>2010-06-13T06:58:14.68</time>
<name>3178</name>
</trkpt>
<trkpt lat="49.213753" lon="11.715935">
<ele>647.7</ele>
<speed>4.9</speed>
<course>67.3</course>
<desc>Speed 4.9 km/h Distance 13.58 km</desc>
<time>2010-06-13T06:58:15.68</time>
<name>3179</name>
</trkpt>
<trkpt lat="49.213763" lon="11.715972">
<ele>648.8</ele>
<speed>5.8</speed>
<course>36.4</course>
<desc>Speed 5.8 km/h Distance 13.58 km</desc>
<time>2010-06-13T06:58:16.69</time>
<name>3180</name>
</trkpt>
<trkpt lat="49.213777" lon="11.715987">
<ele>650.3</ele>
<speed>5.9</speed>
<course>67.3</course>
<desc>Speed 5.9 km/h Distance 13.58 km</desc>
<time>2010-06-13T06:58:17.68</time>
<name>3181</name>
</trkpt>
<trkpt lat="49.213782" lon="11.716005">
<ele>651.8</ele>
<speed>4.9</speed>
<course>54.5</course>
<desc>Speed 4.9 km/h Distance 13.58 km</desc>
<time>2010-06-13T06:58:18.70</time>
<name>3182</name>
</trkpt>
<trkpt lat="49.213793" lon="11.716030">
<ele>651.9</ele>
<speed>6.6</speed>
<course>52.6</course>
<desc>Speed 6.6 km/h Distance 13.59 km</desc>
<time>2010-06-13T06:58:19.68</time>
<name>3183</name>
</trkpt>
<trkpt lat="49.213805" lon="11.716053">
<ele>651.1</ele>
<speed>5.7</speed>
<course>43.1</course>
<desc>Speed 5.7 km/h Distance 13.59 km</desc>
<time>2010-06-13T06:58:20.68</time>
<name>3184</name>
</trkpt>
<trkpt lat="49.213817" lon="11.716070">
<ele>650.7</ele>
<speed>6.0</speed>
<course>59.5</course>
<desc>Speed 6.0 km/h Distance 13.59 km</desc>
<time>2010-06-13T06:58:21.68</time>
<name>3185</name>
</trkpt>
<trkpt lat="49.213825" lon="11.716092">
<ele>650.4</ele>
<speed>7.0</speed>
<course>76.2</course>
<desc>Speed 7.0 km/h Distance 13.59 km</desc>
<time>2010-06-13T06:58:22.69</time>
<name>3186</name>
</trkpt>
<trkpt lat="49.213832" lon="11.716133">
<ele>651.5</ele>
<speed>8.0</speed>
<course>52.6</course>
<desc>Speed 8.0 km/h Distance 13.60 km</desc>
<time>2010-06-13T06:58:23.70</time>
<name>3187</name>
</trkpt>
<trkpt lat="49.213843" lon="11.716157">
<ele>651.3</ele>
<speed>6.2</speed>
<course>48.3</course>
<desc>Speed 6.2 km/h Distance 13.60 km</desc>
<time>2010-06-13T06:58:24.69</time>
<name>3188</name>
</trkpt>
<trkpt lat="49.213855" lon="11.716177">
<ele>651.5</ele>
<speed>6.7</speed>
<course>48.2</course>
<desc>Speed 6.7 km/h Distance 13.60 km</desc>
<time>2010-06-13T06:58:25.69</time>
<name>3189</name>
</trkpt>
<trkpt lat="49.213867" lon="11.716197">
<ele>651.6</ele>
<speed>5.5</speed>
<course>66.4</course>
<desc>Speed 5.5 km/h Distance 13.60 km</desc>
<time>2010-06-13T06:58:26.70</time>
<name>3190</name>
</trkpt>
<trkpt lat="49.213873" lon="11.716220">
<ele>651.7</ele>
<speed>5.0</speed>
<course>29.8</course>
<desc>Speed 5.0 km/h Distance 13.60 km</desc>
<time>2010-06-13T06:58:27.68</time>
<name>3191</name>
</trkpt>
<trkpt lat="49.213887" lon="11.716232">
<ele>653.3</ele>
<speed>4.9</speed>
<course>26.2</course>
<desc>Speed 4.9 km/h Distance 13.61 km</desc>
<time>2010-06-13T06:58:28.69</time>
<name>3192</name>
</trkpt>
<trkpt lat="49.213900" lon="11.716242">
<ele>654.7</ele>
<speed>5.3</speed>
<course>45.5</course>
<desc>Speed 5.3 km/h Distance 13.61 km</desc>
<time>2010-06-13T06:58:29.69</time>
<name>3193</name>
</trkpt>
<trkpt lat="49.213915" lon="11.716265">
<ele>653.9</ele>
<speed>6.6</speed>
<course>43.4</course>
<desc>Speed 6.6 km/h Distance 13.61 km</desc>
<time>2010-06-13T06:58:30.69</time>
<name>3194</name>
</trkpt>
<trkpt lat="49.213930" lon="11.716287">
<ele>653.1</ele>
<speed>6.8</speed>
<course>42.5</course>
<desc>Speed 6.8 km/h Distance 13.61 km</desc>
<time>2010-06-13T06:58:31.69</time>
<name>3195</name>
</trkpt>
<trkpt lat="49.213947" lon="11.716310">
<ele>652.1</ele>
<speed>6.0</speed>
<course>27.2</course>
<desc>Speed 6.0 km/h Distance 13.61 km</desc>
<time>2010-06-13T06:58:32.68</time>
<name>3196</name>
</trkpt>
<trkpt lat="49.213962" lon="11.716322">
<ele>651.9</ele>
<speed>5.8</speed>
<course>29.2</course>
<desc>Speed 5.8 km/h Distance 13.62 km</desc>
<time>2010-06-13T06:58:33.68</time>
<name>3197</name>
</trkpt>
<trkpt lat="49.213973" lon="11.716332">
<ele>652.4</ele>
<speed>6.0</speed>
<course>49.7</course>
<desc>Speed 6.0 km/h Distance 13.62 km</desc>
<time>2010-06-13T06:58:34.69</time>
<name>3198</name>
</trkpt>
<trkpt lat="49.213982" lon="11.716347">
<ele>652.3</ele>
<speed>5.9</speed>
<course>58.6</course>
<desc>Speed 5.9 km/h Distance 13.62 km</desc>
<time>2010-06-13T06:58:35.69</time>
<name>3199</name>
</trkpt>
<trkpt lat="49.213992" lon="11.716372">
<ele>651.4</ele>
<speed>6.2</speed>
<course>82.7</course>
<desc>Speed 6.2 km/h Distance 13.62 km</desc>
<time>2010-06-13T06:58:36.68</time>
<name>3200</name>
</trkpt>
<trkpt lat="49.213993" lon="11.716392">
<ele>651.5</ele>
<speed>5.3</speed>
<course>67.8</course>
<desc>Speed 5.3 km/h Distance 13.62 km</desc>
<time>2010-06-13T06:58:37.68</time>
<name>3201</name>
</trkpt>
<trkpt lat="49.214000" lon="11.716417">
<ele>650.5</ele>
<speed>4.8</speed>
<course>60.9</course>
<desc>Speed 4.8 km/h Distance 13.62 km</desc>
<time>2010-06-13T06:58:38.71</time>
<name>3202</name>
</trkpt>
<trkpt lat="49.214007" lon="11.716435">
<ele>648.8</ele>
<speed>5.7</speed>
<course>80.3</course>
<desc>Speed 5.7 km/h Distance 13.63 km</desc>
<time>2010-06-13T06:58:39.69</time>
<name>3203</name>
</trkpt>
<trkpt lat="49.214010" lon="11.716465">
<ele>647.7</ele>
<speed>6.2</speed>
<course>77.7</course>
<desc>Speed 6.2 km/h Distance 13.63 km</desc>
<time>2010-06-13T06:58:40.68</time>
<name>3204</name>
</trkpt>
<trkpt lat="49.214013" lon="11.716488">
<ele>647.1</ele>
<speed>5.8</speed>
<course>67.8</course>
<desc>Speed 5.8 km/h Distance 13.63 km</desc>
<time>2010-06-13T06:58:41.68</time>
<name>3205</name>
</trkpt>
<trkpt lat="49.214020" lon="11.716513">
<ele>646.6</ele>
<speed>6.0</speed>
<course>109.5</course>
<desc>Speed 6.0 km/h Distance 13.63 km</desc>
<time>2010-06-13T06:58:42.69</time>
<name>3206</name>
</trkpt>
<trkpt lat="49.214010" lon="11.716557">
<ele>647.6</ele>
<speed>5.3</speed>
<course>90.0</course>
<desc>Speed 5.3 km/h Distance 13.64 km</desc>
<time>2010-06-13T06:58:43.69</time>
<name>3207</name>
</trkpt>
<trkpt lat="49.214010" lon="11.716588">
<ele>646.1</ele>
<speed>6.1</speed>
<course>64.4</course>
<desc>Speed 6.1 km/h Distance 13.64 km</desc>
<time>2010-06-13T06:58:44.68</time>
<name>3208</name>
</trkpt>
<trkpt lat="49.214018" lon="11.716615">
<ele>645.4</ele>
<speed>6.4</speed>
<course>77.1</course>
<desc>Speed 6.4 km/h Distance 13.64 km</desc>
<time>2010-06-13T06:58:45.68</time>
<name>3209</name>
</trkpt>
<trkpt lat="49.214023" lon="11.716648">
<ele>644.8</ele>
<speed>6.7</speed>
<course>76.4</course>
<desc>Speed 6.7 km/h Distance 13.64 km</desc>
<time>2010-06-13T06:58:46.69</time>
<name>3210</name>
</trkpt>
<trkpt lat="49.214028" lon="11.716680">
<ele>643.6</ele>
<speed>7.6</speed>
<course>80.9</course>
<desc>Speed 7.6 km/h Distance 13.64 km</desc>
<time>2010-06-13T06:58:47.69</time>
<name>3211</name>
</trkpt>
<trkpt lat="49.214032" lon="11.716712">
<ele>642.8</ele>
<speed>7.6</speed>
<course>75.1</course>
<desc>Speed 7.6 km/h Distance 13.65 km</desc>
<time>2010-06-13T06:58:48.69</time>
<name>3212</name>
</trkpt>
<trkpt lat="49.214038" lon="11.716750">
<ele>641.5</ele>
<speed>9.1</speed>
<course>63.0</course>
<desc>Speed 9.1 km/h Distance 13.65 km</desc>
<time>2010-06-13T06:58:49.68</time>
<name>3213</name>
</trkpt>
<trkpt lat="49.214052" lon="11.716790">
<ele>641.3</ele>
<speed>10.4</speed>
<course>51.3</course>
<desc>Speed 10.4 km/h Distance 13.65 km</desc>
<time>2010-06-13T06:58:50.69</time>
<name>3214</name>
</trkpt>
<trkpt lat="49.214070" lon="11.716825">
<ele>642.7</ele>
<speed>10.3</speed>
<course>60.2</course>
<desc>Speed 10.3 km/h Distance 13.66 km</desc>
<time>2010-06-13T06:58:51.68</time>
<name>3215</name>
</trkpt>
<trkpt lat="49.214085" lon="11.716865">
<ele>643.0</ele>
<speed>10.5</speed>
<course>49.9</course>
<desc>Speed 10.5 km/h Distance 13.66 km</desc>
<time>2010-06-13T06:58:52.69</time>
<name>3216</name>
</trkpt>
<trkpt lat="49.214103" lon="11.716898">
<ele>642.7</ele>
<speed>11.4</speed>
<course>55.5</course>
<desc>Speed 11.4 km/h Distance 13.66 km</desc>
<time>2010-06-13T06:58:53.70</time>
<name>3217</name>
</trkpt>
<trkpt lat="49.214118" lon="11.716932">
<ele>643.9</ele>
<speed>12.0</speed>
<course>54.2</course>
<desc>Speed 12.0 km/h Distance 13.67 km</desc>
<time>2010-06-13T06:58:54.67</time>
<name>3218</name>
</trkpt>
<trkpt lat="49.214132" lon="11.716960">
<ele>645.2</ele>
<speed>10.5</speed>
<course>63.0</course>
<desc>Speed 10.5 km/h Distance 13.67 km</desc>
<time>2010-06-13T06:58:55.68</time>
<name>3219</name>
</trkpt>
<trkpt lat="49.214142" lon="11.716990">
<ele>646.7</ele>
<speed>10.2</speed>
<course>69.1</course>
<desc>Speed 10.2 km/h Distance 13.67 km</desc>
<time>2010-06-13T06:58:56.69</time>
<name>3220</name>
</trkpt>
<trkpt lat="49.214153" lon="11.717037">
<ele>649.0</ele>
<speed>11.3</speed>
<course>47.1</course>
<desc>Speed 11.3 km/h Distance 13.67 km</desc>
<time>2010-06-13T06:58:57.67</time>
<name>3221</name>
</trkpt>
<trkpt lat="49.214182" lon="11.717083">
<ele>648.4</ele>
<speed>12.6</speed>
<course>47.4</course>
<desc>Speed 12.6 km/h Distance 13.68 km</desc>
<time>2010-06-13T06:58:58.69</time>
<name>3222</name>
</trkpt>
<trkpt lat="49.214207" lon="11.717125">
<ele>647.1</ele>
<speed>12.5</speed>
<course>43.8</course>
<desc>Speed 12.5 km/h Distance 13.68 km</desc>
<time>2010-06-13T06:58:59.70</time>
<name>3223</name>
</trkpt>
<trkpt lat="49.214282" lon="11.717235">
<ele>648.9</ele>
<speed>16.2</speed>
<course>32.2</course>
<desc>Speed 16.2 km/h Distance 13.69 km</desc>
<time>2010-06-13T06:59:01.69</time>
<name>3224</name>
</trkpt>
<trkpt lat="49.214330" lon="11.717282">
<ele>649.4</ele>
<speed>16.0</speed>
<course>36.0</course>
<desc>Speed 16.0 km/h Distance 13.70 km</desc>
<time>2010-06-13T06:59:02.68</time>
<name>3225</name>
</trkpt>
<trkpt lat="49.214375" lon="11.717332">
<ele>648.3</ele>
<speed>16.5</speed>
<course>58.0</course>
<desc>Speed 16.5 km/h Distance 13.71 km</desc>
<time>2010-06-13T06:59:03.69</time>
<name>3226</name>
</trkpt>
<trkpt lat="49.214393" lon="11.717377">
<ele>650.2</ele>
<speed>16.1</speed>
<course>40.3</course>
<desc>Speed 16.1 km/h Distance 13.71 km</desc>
<time>2010-06-13T06:59:04.69</time>
<name>3227</name>
</trkpt>
<trkpt lat="49.214427" lon="11.717420">
<ele>653.0</ele>
<speed>14.9</speed>
<course>29.6</course>
<desc>Speed 14.9 km/h Distance 13.72 km</desc>
<time>2010-06-13T06:59:05.68</time>
<name>3228</name>
</trkpt>
<trkpt lat="49.214465" lon="11.717453">
<ele>653.0</ele>
<speed>15.2</speed>
<course>33.2</course>
<desc>Speed 15.2 km/h Distance 13.72 km</desc>
<time>2010-06-13T06:59:06.67</time>
<name>3229</name>
</trkpt>
<trkpt lat="49.214500" lon="11.717488">
<ele>655.4</ele>
<speed>15.3</speed>
<course>19.8</course>
<desc>Speed 15.3 km/h Distance 13.73 km</desc>
<time>2010-06-13T06:59:07.68</time>
<name>3230</name>
</trkpt>
<trkpt lat="49.214548" lon="11.717515">
<ele>657.2</ele>
<speed>17.9</speed>
<course>15.4</course>
<desc>Speed 17.9 km/h Distance 13.73 km</desc>
<time>2010-06-13T06:59:08.70</time>
<name>3231</name>
</trkpt>
<trkpt lat="49.214675" lon="11.717568">
<ele>659.3</ele>
<speed>25.3</speed>
<course>1.0</course>
<desc>Speed 25.3 km/h Distance 13.75 km</desc>
<time>2010-06-13T06:59:10.70</time>
<name>3232</name>
</trkpt>
<trkpt lat="49.214752" lon="11.717570">
<ele>657.8</ele>
<speed>25.2</speed>
<course>350.1</course>
<desc>Speed 25.2 km/h Distance 13.75 km</desc>
<time>2010-06-13T06:59:11.71</time>
<name>3233</name>
</trkpt>
<trkpt lat="49.214920" lon="11.717525">
<ele>655.8</ele>
<speed>30.7</speed>
<course>353.8</course>
<desc>Speed 30.7 km/h Distance 13.77 km</desc>
<time>2010-06-13T06:59:13.68</time>
<name>3234</name>
</trkpt>
<trkpt lat="49.215142" lon="11.717488">
<ele>654.1</ele>
<speed>36.0</speed>
<course>359.8</course>
<desc>Speed 36.0 km/h Distance 13.80 km</desc>
<time>2010-06-13T06:59:15.69</time>
<name>3235</name>
</trkpt>
<trkpt lat="49.215243" lon="11.717487">
<ele>653.8</ele>
<speed>35.5</speed>
<course>17.5</course>
<desc>Speed 35.5 km/h Distance 13.81 km</desc>
<time>2010-06-13T06:59:16.68</time>
<name>3236</name>
</trkpt>
<trkpt lat="49.215337" lon="11.717532">
<ele>653.7</ele>
<speed>34.5</speed>
<course>29.5</course>
<desc>Speed 34.5 km/h Distance 13.82 km</desc>
<time>2010-06-13T06:59:17.67</time>
<name>3237</name>
</trkpt>
<trkpt lat="49.215425" lon="11.717608">
<ele>653.8</ele>
<speed>34.9</speed>
<course>33.2</course>
<desc>Speed 34.9 km/h Distance 13.83 km</desc>
<time>2010-06-13T06:59:18.68</time>
<name>3238</name>
</trkpt>
<trkpt lat="49.215498" lon="11.717682">
<ele>652.8</ele>
<speed>33.0</speed>
<course>28.7</course>
<desc>Speed 33.0 km/h Distance 13.84 km</desc>
<time>2010-06-13T06:59:19.68</time>
<name>3239</name>
</trkpt>
<trkpt lat="49.215582" lon="11.717752">
<ele>653.6</ele>
<speed>32.5</speed>
<course>37.6</course>
<desc>Speed 32.5 km/h Distance 13.85 km</desc>
<time>2010-06-13T06:59:20.68</time>
<name>3240</name>
</trkpt>
<trkpt lat="49.215657" lon="11.717840">
<ele>651.0</ele>
<speed>29.8</speed>
<course>13.8</course>
<desc>Speed 29.8 km/h Distance 13.86 km</desc>
<time>2010-06-13T06:59:21.68</time>
<name>3241</name>
</trkpt>
<trkpt lat="49.215745" lon="11.717873">
<ele>647.0</ele>
<speed>31.7</speed>
<course>12.5</course>
<desc>Speed 31.7 km/h Distance 13.87 km</desc>
<time>2010-06-13T06:59:22.69</time>
<name>3242</name>
</trkpt>
<trkpt lat="49.215833" lon="11.717903">
<ele>640.7</ele>
<speed>31.5</speed>
<course>19.3</course>
<desc>Speed 31.5 km/h Distance 13.88 km</desc>
<time>2010-06-13T06:59:23.69</time>
<name>3243</name>
</trkpt>
<trkpt lat="49.216023" lon="11.718005">
<ele>629.9</ele>
<speed>36.6</speed>
<course>14.9</course>
<desc>Speed 36.6 km/h Distance 13.91 km</desc>
<time>2010-06-13T06:59:25.68</time>
<name>3244</name>
</trkpt>
<trkpt lat="49.216130" lon="11.718048">
<ele>625.3</ele>
<speed>38.8</speed>
<course>8.8</course>
<desc>Speed 38.8 km/h Distance 13.92 km</desc>
<time>2010-06-13T06:59:26.69</time>
<name>3245</name>
</trkpt>
<trkpt lat="49.216377" lon="11.718107">
<ele>617.9</ele>
<speed>44.4</speed>
<course>8.8</course>
<desc>Speed 44.4 km/h Distance 13.95 km</desc>
<time>2010-06-13T06:59:28.68</time>
<name>3246</name>
</trkpt>
<trkpt lat="49.216497" lon="11.718135">
<ele>613.5</ele>
<speed>44.6</speed>
<course>3.6</course>
<desc>Speed 44.6 km/h Distance 13.96 km</desc>
<time>2010-06-13T06:59:29.69</time>
<name>3247</name>
</trkpt>
<trkpt lat="49.216617" lon="11.718147">
<ele>609.3</ele>
<speed>42.6</speed>
<course>6.5</course>
<desc>Speed 42.6 km/h Distance 13.97 km</desc>
<time>2010-06-13T06:59:30.68</time>
<name>3248</name>
</trkpt>
<trkpt lat="49.216732" lon="11.718167">
<ele>607.8</ele>
<speed>39.4</speed>
<course>2.4</course>
<desc>Speed 39.4 km/h Distance 13.98 km</desc>
<time>2010-06-13T06:59:31.68</time>
<name>3249</name>
</trkpt>
<trkpt lat="49.216838" lon="11.718173">
<ele>606.2</ele>
<speed>36.2</speed>
<course>1.7</course>
<desc>Speed 36.2 km/h Distance 14.00 km</desc>
<time>2010-06-13T06:59:32.69</time>
<name>3250</name>
</trkpt>
<trkpt lat="49.217055" lon="11.718183">
<ele>603.5</ele>
<speed>35.9</speed>
<course>5.7</course>
<desc>Speed 35.9 km/h Distance 14.02 km</desc>
<time>2010-06-13T06:59:34.71</time>
<name>3251</name>
</trkpt>
<trkpt lat="49.217153" lon="11.718198">
<ele>602.0</ele>
<speed>35.9</speed>
<course>359.7</course>
<desc>Speed 35.9 km/h Distance 14.03 km</desc>
<time>2010-06-13T06:59:35.69</time>
<name>3252</name>
</trkpt>
<trkpt lat="49.217345" lon="11.718197">
<ele>599.5</ele>
<speed>34.2</speed>
<course>0.0</course>
<desc>Speed 34.2 km/h Distance 14.05 km</desc>
<time>2010-06-13T06:59:37.68</time>
<name>3253</name>
</trkpt>
<trkpt lat="49.217432" lon="11.718197">
<ele>599.4</ele>
<speed>31.0</speed>
<course>358.3</course>
<desc>Speed 31.0 km/h Distance 14.06 km</desc>
<time>2010-06-13T06:59:38.68</time>
<name>3254</name>
</trkpt>
<trkpt lat="49.217510" lon="11.718193">
<ele>599.2</ele>
<speed>28.4</speed>
<course>358.2</course>
<desc>Speed 28.4 km/h Distance 14.07 km</desc>
<time>2010-06-13T06:59:39.68</time>
<name>3255</name>
</trkpt>
<trkpt lat="49.217573" lon="11.718190">
<ele>599.3</ele>
<speed>24.3</speed>
<course>350.7</course>
<desc>Speed 24.3 km/h Distance 14.08 km</desc>
<time>2010-06-13T06:59:40.70</time>
<name>3256</name>
</trkpt>
<trkpt lat="49.217627" lon="11.718177">
<ele>598.6</ele>
<speed>20.0</speed>
<course>355.6</course>
<desc>Speed 20.0 km/h Distance 14.08 km</desc>
<time>2010-06-13T06:59:41.68</time>
<name>3257</name>
</trkpt>
<trkpt lat="49.217668" lon="11.718172">
<ele>598.7</ele>
<speed>15.6</speed>
<course>354.4</course>
<desc>Speed 15.6 km/h Distance 14.09 km</desc>
<time>2010-06-13T06:59:42.68</time>
<name>3258</name>
</trkpt>
<trkpt lat="49.217702" lon="11.718167">
<ele>598.4</ele>
<speed>13.7</speed>
<course>15.1</course>
<desc>Speed 13.7 km/h Distance 14.09 km</desc>
<time>2010-06-13T06:59:43.69</time>
<name>3259</name>
</trkpt>
<trkpt lat="49.217730" lon="11.718178">
<ele>598.6</ele>
<speed>15.3</speed>
<course>21.4</course>
<desc>Speed 15.3 km/h Distance 14.10 km</desc>
<time>2010-06-13T06:59:44.67</time>
<name>3260</name>
</trkpt>
<trkpt lat="49.217772" lon="11.718203">
<ele>598.5</ele>
<speed>17.9</speed>
<course>14.9</course>
<desc>Speed 17.9 km/h Distance 14.10 km</desc>
<time>2010-06-13T06:59:45.68</time>
<name>3261</name>
</trkpt>
<trkpt lat="49.217817" lon="11.718222">
<ele>599.3</ele>
<speed>17.2</speed>
<course>8.9</course>
<desc>Speed 17.2 km/h Distance 14.11 km</desc>
<time>2010-06-13T06:59:46.68</time>
<name>3262</name>
</trkpt>
<trkpt lat="49.217865" lon="11.718233">
<ele>598.4</ele>
<speed>17.1</speed>
<course>10.2</course>
<desc>Speed 17.1 km/h Distance 14.11 km</desc>
<time>2010-06-13T06:59:47.69</time>
<name>3263</name>
</trkpt>
<trkpt lat="49.217902" lon="11.718243">
<ele>598.2</ele>
<speed>17.1</speed>
<course>347.3</course>
<desc>Speed 17.1 km/h Distance 14.12 km</desc>
<time>2010-06-13T06:59:48.68</time>
<name>3264</name>
</trkpt>
<trkpt lat="49.217955" lon="11.718225">
<ele>597.3</ele>
<speed>19.8</speed>
<course>341.0</course>
<desc>Speed 19.8 km/h Distance 14.12 km</desc>
<time>2010-06-13T06:59:49.67</time>
<name>3265</name>
</trkpt>
<trkpt lat="49.218015" lon="11.718193">
<ele>596.7</ele>
<speed>23.2</speed>
<course>331.7</course>
<desc>Speed 23.2 km/h Distance 14.13 km</desc>
<time>2010-06-13T06:59:50.67</time>
<name>3266</name>
</trkpt>
<trkpt lat="49.218158" lon="11.718075">
<ele>595.7</ele>
<speed>28.7</speed>
<course>324.2</course>
<desc>Speed 28.7 km/h Distance 14.15 km</desc>
<time>2010-06-13T06:59:52.68</time>
<name>3267</name>
</trkpt>
<trkpt lat="49.218222" lon="11.718005">
<ele>595.3</ele>
<speed>28.5</speed>
<course>318.3</course>
<desc>Speed 28.5 km/h Distance 14.16 km</desc>
<time>2010-06-13T06:59:53.68</time>
<name>3268</name>
</trkpt>
<trkpt lat="49.218277" lon="11.717930">
<ele>595.1</ele>
<speed>29.2</speed>
<course>312.8</course>
<desc>Speed 29.2 km/h Distance 14.16 km</desc>
<time>2010-06-13T06:59:54.67</time>
<name>3269</name>
</trkpt>
<trkpt lat="49.218325" lon="11.717850">
<ele>594.8</ele>
<speed>28.7</speed>
<course>310.1</course>
<desc>Speed 28.7 km/h Distance 14.17 km</desc>
<time>2010-06-13T06:59:55.67</time>
<name>3270</name>
</trkpt>
<trkpt lat="49.218370" lon="11.717768">
<ele>594.2</ele>
<speed>28.7</speed>
<course>312.8</course>
<desc>Speed 28.7 km/h Distance 14.18 km</desc>
<time>2010-06-13T06:59:56.68</time>
<name>3271</name>
</trkpt>
<trkpt lat="49.218418" lon="11.717688">
<ele>593.7</ele>
<speed>29.1</speed>
<course>315.6</course>
<desc>Speed 29.1 km/h Distance 14.19 km</desc>
<time>2010-06-13T06:59:57.67</time>
<name>3272</name>
</trkpt>
<trkpt lat="49.218472" lon="11.717608">
<ele>593.3</ele>
<speed>29.8</speed>
<course>316.5</course>
<desc>Speed 29.8 km/h Distance 14.20 km</desc>
<time>2010-06-13T06:59:58.67</time>
<name>3273</name>
</trkpt>
<trkpt lat="49.218527" lon="11.717528">
<ele>592.8</ele>
<speed>30.5</speed>
<course>319.2</course>
<desc>Speed 30.5 km/h Distance 14.20 km</desc>
<time>2010-06-13T06:59:59.67</time>
<name>3274</name>
</trkpt>
<trkpt lat="49.218583" lon="11.717453">
<ele>592.5</ele>
<speed>30.7</speed>
<course>324.9</course>
<desc>Speed 30.7 km/h Distance 14.21 km</desc>
<time>2010-06-13T07:00:00.67</time>
<name>3275</name>
</trkpt>
<trkpt lat="49.218648" lon="11.717383">
<ele>592.3</ele>
<speed>31.0</speed>
<course>326.9</course>
<desc>Speed 31.0 km/h Distance 14.22 km</desc>
<time>2010-06-13T07:00:01.67</time>
<name>3276</name>
</trkpt>
<trkpt lat="49.218715" lon="11.717317">
<ele>592.1</ele>
<speed>31.3</speed>
<course>328.1</course>
<desc>Speed 31.3 km/h Distance 14.23 km</desc>
<time>2010-06-13T07:00:02.67</time>
<name>3277</name>
</trkpt>
<trkpt lat="49.218783" lon="11.717252">
<ele>591.8</ele>
<speed>32.5</speed>
<course>328.1</course>
<desc>Speed 32.5 km/h Distance 14.24 km</desc>
<time>2010-06-13T07:00:03.68</time>
<name>3278</name>
</trkpt>
<trkpt lat="49.218855" lon="11.717183">
<ele>591.4</ele>
<speed>33.5</speed>
<course>328.6</course>
<desc>Speed 33.5 km/h Distance 14.25 km</desc>
<time>2010-06-13T07:00:04.67</time>
<name>3279</name>
</trkpt>
<trkpt lat="49.218930" lon="11.717113">
<ele>591.2</ele>
<speed>34.8</speed>
<course>328.6</course>
<desc>Speed 34.8 km/h Distance 14.26 km</desc>
<time>2010-06-13T07:00:05.67</time>
<name>3280</name>
</trkpt>
<trkpt lat="49.219007" lon="11.717042">
<ele>590.7</ele>
<speed>35.5</speed>
<course>326.8</course>
<desc>Speed 35.5 km/h Distance 14.27 km</desc>
<time>2010-06-13T07:00:06.67</time>
<name>3281</name>
</trkpt>
<trkpt lat="49.219082" lon="11.716967">
<ele>590.1</ele>
<speed>35.6</speed>
<course>325.7</course>
<desc>Speed 35.6 km/h Distance 14.28 km</desc>
<time>2010-06-13T07:00:07.67</time>
<name>3282</name>
</trkpt>
<trkpt lat="49.219157" lon="11.716888">
<ele>589.7</ele>
<speed>36.6</speed>
<course>326.8</course>
<desc>Speed 36.6 km/h Distance 14.29 km</desc>
<time>2010-06-13T07:00:08.68</time>
<name>3283</name>
</trkpt>
<trkpt lat="49.219230" lon="11.716815">
<ele>589.6</ele>
<speed>36.4</speed>
<course>324.5</course>
<desc>Speed 36.4 km/h Distance 14.30 km</desc>
<time>2010-06-13T07:00:09.67</time>
<name>3284</name>
</trkpt>
<trkpt lat="49.219302" lon="11.716737">
<ele>590.0</ele>
<speed>36.1</speed>
<course>321.0</course>
<desc>Speed 36.1 km/h Distance 14.31 km</desc>
<time>2010-06-13T07:00:10.68</time>
<name>3285</name>
</trkpt>
<trkpt lat="49.219372" lon="11.716650">
<ele>590.5</ele>
<speed>38.5</speed>
<course>317.3</course>
<desc>Speed 38.5 km/h Distance 14.32 km</desc>
<time>2010-06-13T07:00:11.67</time>
<name>3286</name>
</trkpt>
<trkpt lat="49.219440" lon="11.716553">
<ele>590.8</ele>
<speed>38.0</speed>
<course>312.3</course>
<desc>Speed 38.0 km/h Distance 14.33 km</desc>
<time>2010-06-13T07:00:12.68</time>
<name>3287</name>
</trkpt>
<trkpt lat="49.219498" lon="11.716455">
<ele>590.6</ele>
<speed>35.7</speed>
<course>310.1</course>
<desc>Speed 35.7 km/h Distance 14.34 km</desc>
<time>2010-06-13T07:00:13.68</time>
<name>3288</name>
</trkpt>
<trkpt lat="49.219553" lon="11.716355">
<ele>590.3</ele>
<speed>35.4</speed>
<course>308.3</course>
<desc>Speed 35.4 km/h Distance 14.35 km</desc>
<time>2010-06-13T07:00:14.69</time>
<name>3289</name>
</trkpt>
<trkpt lat="49.219607" lon="11.716252">
<ele>590.0</ele>
<speed>35.2</speed>
<course>308.3</course>
<desc>Speed 35.2 km/h Distance 14.36 km</desc>
<time>2010-06-13T07:00:15.69</time>
<name>3290</name>
</trkpt>
<trkpt lat="49.219660" lon="11.716148">
<ele>589.0</ele>
<speed>35.7</speed>
<course>306.6</course>
<desc>Speed 35.7 km/h Distance 14.37 km</desc>
<time>2010-06-13T07:00:16.70</time>
<name>3291</name>
</trkpt>
<trkpt lat="49.219713" lon="11.716038">
<ele>588.4</ele>
<speed>37.2</speed>
<course>310.4</course>
<desc>Speed 37.2 km/h Distance 14.38 km</desc>
<time>2010-06-13T07:00:17.67</time>
<name>3292</name>
</trkpt>
<trkpt lat="49.219772" lon="11.715933">
<ele>587.3</ele>
<speed>36.4</speed>
<course>310.5</course>
<desc>Speed 36.4 km/h Distance 14.39 km</desc>
<time>2010-06-13T07:00:18.69</time>
<name>3293</name>
</trkpt>
<trkpt lat="49.219828" lon="11.715832">
<ele>586.5</ele>
<speed>35.2</speed>
<course>314.6</course>
<desc>Speed 35.2 km/h Distance 14.40 km</desc>
<time>2010-06-13T07:00:19.68</time>
<name>3294</name>
</trkpt>
<trkpt lat="49.219892" lon="11.715733">
<ele>585.8</ele>
<speed>34.8</speed>
<course>318.0</course>
<desc>Speed 34.8 km/h Distance 14.41 km</desc>
<time>2010-06-13T07:00:20.68</time>
<name>3295</name>
</trkpt>
<trkpt lat="49.219962" lon="11.715637">
<ele>586.4</ele>
<speed>35.2</speed>
<course>322.9</course>
<desc>Speed 35.2 km/h Distance 14.42 km</desc>
<time>2010-06-13T07:00:21.68</time>
<name>3296</name>
</trkpt>
<trkpt lat="49.220025" lon="11.715563">
<ele>585.4</ele>
<speed>33.2</speed>
<course>324.5</course>
<desc>Speed 33.2 km/h Distance 14.43 km</desc>
<time>2010-06-13T07:00:22.67</time>
<name>3297</name>
</trkpt>
<trkpt lat="49.220098" lon="11.715483">
<ele>583.8</ele>
<speed>34.7</speed>
<course>317.9</course>
<desc>Speed 34.7 km/h Distance 14.44 km</desc>
<time>2010-06-13T07:00:23.67</time>
<name>3298</name>
</trkpt>
<trkpt lat="49.220163" lon="11.715393">
<ele>583.1</ele>
<speed>34.2</speed>
<course>313.1</course>
<desc>Speed 34.2 km/h Distance 14.45 km</desc>
<time>2010-06-13T07:00:24.67</time>
<name>3299</name>
</trkpt>
<trkpt lat="49.220213" lon="11.715312">
<ele>582.6</ele>
<speed>30.9</speed>
<course>314.1</course>
<desc>Speed 30.9 km/h Distance 14.45 km</desc>
<time>2010-06-13T07:00:25.68</time>
<name>3300</name>
</trkpt>
<trkpt lat="49.220265" lon="11.715230">
<ele>584.3</ele>
<speed>26.7</speed>
<course>319.8</course>
<desc>Speed 26.7 km/h Distance 14.46 km</desc>
<time>2010-06-13T07:00:26.68</time>
<name>3301</name>
</trkpt>
<trkpt lat="49.220305" lon="11.715178">
<ele>584.3</ele>
<speed>23.8</speed>
<course>335.0</course>
<desc>Speed 23.8 km/h Distance 14.47 km</desc>
<time>2010-06-13T07:00:27.68</time>
<name>3302</name>
</trkpt>
<trkpt lat="49.220363" lon="11.715137">
<ele>584.1</ele>
<speed>23.4</speed>
<course>338.4</course>
<desc>Speed 23.4 km/h Distance 14.48 km</desc>
<time>2010-06-13T07:00:28.69</time>
<name>3303</name>
</trkpt>
<trkpt lat="49.220427" lon="11.715098">
<ele>583.8</ele>
<speed>24.6</speed>
<course>329.9</course>
<desc>Speed 24.6 km/h Distance 14.48 km</desc>
<time>2010-06-13T07:00:29.68</time>
<name>3304</name>
</trkpt>
<trkpt lat="49.220487" lon="11.715045">
<ele>583.5</ele>
<speed>27.9</speed>
<course>326.1</course>
<desc>Speed 27.9 km/h Distance 14.49 km</desc>
<time>2010-06-13T07:00:30.67</time>
<name>3305</name>
</trkpt>
<trkpt lat="49.220548" lon="11.714982">
<ele>581.8</ele>
<speed>28.7</speed>
<course>306.9</course>
<desc>Speed 28.7 km/h Distance 14.50 km</desc>
<time>2010-06-13T07:00:31.68</time>
<name>3306</name>
</trkpt>
<trkpt lat="49.220592" lon="11.714893">
<ele>581.3</ele>
<speed>30.5</speed>
<course>288.0</course>
<desc>Speed 30.5 km/h Distance 14.51 km</desc>
<time>2010-06-13T07:00:32.68</time>
<name>3307</name>
</trkpt>
<trkpt lat="49.220615" lon="11.714783">
<ele>580.5</ele>
<speed>33.0</speed>
<course>252.2</course>
<desc>Speed 33.0 km/h Distance 14.52 km</desc>
<time>2010-06-13T07:00:33.67</time>
<name>3308</name>
</trkpt>
<trkpt lat="49.220593" lon="11.714680">
<ele>577.9</ele>
<speed>30.1</speed>
<course>243.3</course>
<desc>Speed 30.1 km/h Distance 14.52 km</desc>
<time>2010-06-13T07:00:34.68</time>
<name>3309</name>
</trkpt>
<trkpt lat="49.220557" lon="11.714568">
<ele>576.1</ele>
<speed>29.4</speed>
<course>219.2</course>
<desc>Speed 29.4 km/h Distance 14.53 km</desc>
<time>2010-06-13T07:00:35.68</time>
<name>3310</name>
</trkpt>
<trkpt lat="49.220410" lon="11.714385">
<ele>573.5</ele>
<speed>31.4</speed>
<course>202.9</course>
<desc>Speed 31.4 km/h Distance 14.55 km</desc>
<time>2010-06-13T07:00:37.68</time>
<name>3311</name>
</trkpt>
<trkpt lat="49.220325" lon="11.714330">
<ele>574.1</ele>
<speed>31.4</speed>
<course>188.9</course>
<desc>Speed 31.4 km/h Distance 14.56 km</desc>
<time>2010-06-13T07:00:38.68</time>
<name>3312</name>
</trkpt>
<trkpt lat="49.220235" lon="11.714308">
<ele>574.5</ele>
<speed>30.3</speed>
<course>176.6</course>
<desc>Speed 30.3 km/h Distance 14.57 km</desc>
<time>2010-06-13T07:00:39.68</time>
<name>3313</name>
</trkpt>
<trkpt lat="49.220050" lon="11.714325">
<ele>576.5</ele>
<speed>32.2</speed>
<course>172.5</course>
<desc>Speed 32.2 km/h Distance 14.59 km</desc>
<time>2010-06-13T07:00:41.67</time>
<name>3314</name>
</trkpt>
<trkpt lat="49.219868" lon="11.714362">
<ele>577.8</ele>
<speed>31.9</speed>
<course>172.2</course>
<desc>Speed 31.9 km/h Distance 14.61 km</desc>
<time>2010-06-13T07:00:43.67</time>
<name>3315</name>
</trkpt>
<trkpt lat="49.219797" lon="11.714377">
<ele>577.5</ele>
<speed>28.0</speed>
<course>172.8</course>
<desc>Speed 28.0 km/h Distance 14.62 km</desc>
<time>2010-06-13T07:00:44.68</time>
<name>3316</name>
</trkpt>
<trkpt lat="49.219745" lon="11.714387">
<ele>577.4</ele>
<speed>23.3</speed>
<course>185.4</course>
<desc>Speed 23.3 km/h Distance 14.63 km</desc>
<time>2010-06-13T07:00:45.68</time>
<name>3317</name>
</trkpt>
<trkpt lat="49.219698" lon="11.714380">
<ele>578.6</ele>
<speed>21.0</speed>
<course>199.6</course>
<desc>Speed 21.0 km/h Distance 14.63 km</desc>
<time>2010-06-13T07:00:46.67</time>
<name>3318</name>
</trkpt>
<trkpt lat="49.219662" lon="11.714360">
<ele>578.1</ele>
<speed>20.1</speed>
<course>209.4</course>
<desc>Speed 20.1 km/h Distance 14.64 km</desc>
<time>2010-06-13T07:00:47.68</time>
<name>3319</name>
</trkpt>
<trkpt lat="49.219625" lon="11.714328">
<ele>576.8</ele>
<speed>19.7</speed>
<course>241.0</course>
<desc>Speed 19.7 km/h Distance 14.64 km</desc>
<time>2010-06-13T07:00:48.68</time>
<name>3320</name>
</trkpt>
<trkpt lat="49.219597" lon="11.714250">
<ele>574.1</ele>
<speed>20.7</speed>
<course>260.5</course>
<desc>Speed 20.7 km/h Distance 14.65 km</desc>
<time>2010-06-13T07:00:49.68</time>
<name>3321</name>
</trkpt>
<trkpt lat="49.219587" lon="11.714158">
<ele>574.4</ele>
<speed>19.9</speed>
<course>267.1</course>
<desc>Speed 19.9 km/h Distance 14.66 km</desc>
<time>2010-06-13T07:00:50.67</time>
<name>3322</name>
</trkpt>
<trkpt lat="49.219583" lon="11.714057">
<ele>573.4</ele>
<speed>22.2</speed>
<course>262.6</course>
<desc>Speed 22.2 km/h Distance 14.66 km</desc>
<time>2010-06-13T07:00:51.67</time>
<name>3323</name>
</trkpt>
<trkpt lat="49.219577" lon="11.713978">
<ele>570.3</ele>
<speed>19.3</speed>
<course>274.5</course>
<desc>Speed 19.3 km/h Distance 14.67 km</desc>
<time>2010-06-13T07:00:52.69</time>
<name>3324</name>
</trkpt>
<trkpt lat="49.219580" lon="11.713913">
<ele>568.1</ele>
<speed>17.1</speed>
<course>286.2</course>
<desc>Speed 17.1 km/h Distance 14.67 km</desc>
<time>2010-06-13T07:00:53.67</time>
<name>3325</name>
</trkpt>
<trkpt lat="49.219592" lon="11.713852">
<ele>568.4</ele>
<speed>14.2</speed>
<course>334.7</course>
<desc>Speed 14.2 km/h Distance 14.68 km</desc>
<time>2010-06-13T07:00:54.69</time>
<name>3326</name>
</trkpt>
<trkpt lat="49.219712" lon="11.713765">
<ele>576.4</ele>
<speed>18.8</speed>
<course>353.8</course>
<desc>Speed 18.8 km/h Distance 14.69 km</desc>
<time>2010-06-13T07:00:56.68</time>
<name>3327</name>
</trkpt>
<trkpt lat="49.219842" lon="11.713743">
<ele>578.2</ele>
<speed>21.7</speed>
<course>0.0</course>
<desc>Speed 21.7 km/h Distance 14.71 km</desc>
<time>2010-06-13T07:00:58.68</time>
<name>3328</name>
</trkpt>
<trkpt lat="49.219905" lon="11.713743">
<ele>578.5</ele>
<speed>21.8</speed>
<course>3.1</course>
<desc>Speed 21.8 km/h Distance 14.72 km</desc>
<time>2010-06-13T07:00:59.68</time>
<name>3329</name>
</trkpt>
<trkpt lat="49.219963" lon="11.713748">
<ele>579.3</ele>
<speed>24.0</speed>
<course>4.4</course>
<desc>Speed 24.0 km/h Distance 14.72 km</desc>
<time>2010-06-13T07:01:00.69</time>
<name>3330</name>
</trkpt>
<trkpt lat="49.220118" lon="11.713767">
<ele>575.7</ele>
<speed>25.2</speed>
<course>7.9</course>
<desc>Speed 25.2 km/h Distance 14.74 km</desc>
<time>2010-06-13T07:01:02.68</time>
<name>3331</name>
</trkpt>
<trkpt lat="49.220197" lon="11.713783">
<ele>572.7</ele>
<speed>27.0</speed>
<course>351.3</course>
<desc>Speed 27.0 km/h Distance 14.75 km</desc>
<time>2010-06-13T07:01:03.67</time>
<name>3332</name>
</trkpt>
<trkpt lat="49.220275" lon="11.713765">
<ele>571.0</ele>
<speed>26.5</speed>
<course>344.1</course>
<desc>Speed 26.5 km/h Distance 14.76 km</desc>
<time>2010-06-13T07:01:04.67</time>
<name>3333</name>
</trkpt>
<trkpt lat="49.220340" lon="11.713737">
<ele>570.4</ele>
<speed>25.6</speed>
<course>343.5</course>
<desc>Speed 25.6 km/h Distance 14.76 km</desc>
<time>2010-06-13T07:01:05.68</time>
<name>3334</name>
</trkpt>
<trkpt lat="49.220395" lon="11.713712">
<ele>569.9</ele>
<speed>24.5</speed>
<course>347.4</course>
<desc>Speed 24.5 km/h Distance 14.77 km</desc>
<time>2010-06-13T07:01:06.68</time>
<name>3335</name>
</trkpt>
<trkpt lat="49.220448" lon="11.713693">
<ele>569.7</ele>
<speed>23.5</speed>
<course>347.7</course>
<desc>Speed 23.5 km/h Distance 14.78 km</desc>
<time>2010-06-13T07:01:07.69</time>
<name>3336</name>
</trkpt>
<trkpt lat="49.220513" lon="11.713672">
<ele>569.2</ele>
<speed>24.7</speed>
<course>346.5</course>
<desc>Speed 24.7 km/h Distance 14.78 km</desc>
<time>2010-06-13T07:01:08.68</time>
<name>3337</name>
</trkpt>
<trkpt lat="49.220577" lon="11.713648">
<ele>568.7</ele>
<speed>24.4</speed>
<course>353.2</course>
<desc>Speed 24.4 km/h Distance 14.79 km</desc>
<time>2010-06-13T07:01:09.67</time>
<name>3338</name>
</trkpt>
<trkpt lat="49.220632" lon="11.713638">
<ele>568.5</ele>
<speed>23.1</speed>
<course>349.9</course>
<desc>Speed 23.1 km/h Distance 14.80 km</desc>
<time>2010-06-13T07:01:10.69</time>
<name>3339</name>
</trkpt>
<trkpt lat="49.220687" lon="11.713623">
<ele>568.9</ele>
<speed>24.4</speed>
<course>347.4</course>
<desc>Speed 24.4 km/h Distance 14.80 km</desc>
<time>2010-06-13T07:01:11.68</time>
<name>3340</name>
</trkpt>
<trkpt lat="49.220750" lon="11.713602">
<ele>567.7</ele>
<speed>24.6</speed>
<course>351.3</course>
<desc>Speed 24.6 km/h Distance 14.81 km</desc>
<time>2010-06-13T07:01:12.68</time>
<name>3341</name>
</trkpt>
<trkpt lat="49.220807" lon="11.713588">
<ele>566.8</ele>
<speed>25.2</speed>
<course>351.8</course>
<desc>Speed 25.2 km/h Distance 14.82 km</desc>
<time>2010-06-13T07:01:13.67</time>
<name>3342</name>
</trkpt>
<trkpt lat="49.220875" lon="11.713573">
<ele>565.7</ele>
<speed>25.8</speed>
<course>353.8</course>
<desc>Speed 25.8 km/h Distance 14.82 km</desc>
<time>2010-06-13T07:01:14.67</time>
<name>3343</name>
</trkpt>
<trkpt lat="49.220945" lon="11.713562">
<ele>564.7</ele>
<speed>25.0</speed>
<course>358.1</course>
<desc>Speed 25.0 km/h Distance 14.83 km</desc>
<time>2010-06-13T07:01:15.67</time>
<name>3344</name>
</trkpt>
<trkpt lat="49.221008" lon="11.713558">
<ele>564.2</ele>
<speed>24.1</speed>
<course>2.4</course>
<desc>Speed 24.1 km/h Distance 14.84 km</desc>
<time>2010-06-13T07:01:16.67</time>
<name>3345</name>
</trkpt>
<trkpt lat="49.221063" lon="11.713562">
<ele>563.9</ele>
<speed>23.4</speed>
<course>358.9</course>
<desc>Speed 23.4 km/h Distance 14.85 km</desc>
<time>2010-06-13T07:01:17.67</time>
<name>3346</name>
</trkpt>
<trkpt lat="49.221120" lon="11.713560">
<ele>563.7</ele>
<speed>22.2</speed>
<course>359.1</course>
<desc>Speed 22.2 km/h Distance 14.85 km</desc>
<time>2010-06-13T07:01:18.68</time>
<name>3347</name>
</trkpt>
<trkpt lat="49.221172" lon="11.713558">
<ele>564.0</ele>
<speed>21.5</speed>
<course>4.8</course>
<desc>Speed 21.5 km/h Distance 14.86 km</desc>
<time>2010-06-13T07:01:19.68</time>
<name>3348</name>
</trkpt>
<trkpt lat="49.221223" lon="11.713565">
<ele>564.6</ele>
<speed>22.0</speed>
<course>17.5</course>
<desc>Speed 22.0 km/h Distance 14.86 km</desc>
<time>2010-06-13T07:01:20.67</time>
<name>3349</name>
</trkpt>
<trkpt lat="49.221272" lon="11.713588">
<ele>565.2</ele>
<speed>21.1</speed>
<course>35.2</course>
<desc>Speed 21.1 km/h Distance 14.87 km</desc>
<time>2010-06-13T07:01:21.66</time>
<name>3350</name>
</trkpt>
<trkpt lat="49.221313" lon="11.713633">
<ele>565.7</ele>
<speed>21.0</speed>
<course>43.5</course>
<desc>Speed 21.0 km/h Distance 14.88 km</desc>
<time>2010-06-13T07:01:22.68</time>
<name>3351</name>
</trkpt>
<trkpt lat="49.221350" lon="11.713687">
<ele>566.7</ele>
<speed>22.2</speed>
<course>51.1</course>
<desc>Speed 22.2 km/h Distance 14.88 km</desc>
<time>2010-06-13T07:01:23.66</time>
<name>3352</name>
</trkpt>
<trkpt lat="49.221383" lon="11.713750">
<ele>567.5</ele>
<speed>21.5</speed>
<course>50.0</course>
<desc>Speed 21.5 km/h Distance 14.89 km</desc>
<time>2010-06-13T07:01:24.67</time>
<name>3353</name>
</trkpt>
<trkpt lat="49.221412" lon="11.713802">
<ele>567.7</ele>
<speed>20.1</speed>
<course>51.1</course>
<desc>Speed 20.1 km/h Distance 14.89 km</desc>
<time>2010-06-13T07:01:25.68</time>
<name>3354</name>
</trkpt>
<trkpt lat="49.221443" lon="11.713862">
<ele>569.1</ele>
<speed>20.2</speed>
<course>50.1</course>
<desc>Speed 20.2 km/h Distance 14.90 km</desc>
<time>2010-06-13T07:01:26.69</time>
<name>3355</name>
</trkpt>
<trkpt lat="49.221473" lon="11.713917">
<ele>570.0</ele>
<speed>19.5</speed>
<course>49.8</course>
<desc>Speed 19.5 km/h Distance 14.90 km</desc>
<time>2010-06-13T07:01:27.68</time>
<name>3356</name>
</trkpt>
<trkpt lat="49.221500" lon="11.713965">
<ele>571.5</ele>
<speed>19.0</speed>
<course>67.7</course>
<desc>Speed 19.0 km/h Distance 14.91 km</desc>
<time>2010-06-13T07:01:28.68</time>
<name>3357</name>
</trkpt>
<trkpt lat="49.221518" lon="11.714033">
<ele>574.1</ele>
<speed>19.4</speed>
<course>48.4</course>
<desc>Speed 19.4 km/h Distance 14.91 km</desc>
<time>2010-06-13T07:01:29.68</time>
<name>3358</name>
</trkpt>
<trkpt lat="49.221548" lon="11.714085">
<ele>574.9</ele>
<speed>19.5</speed>
<course>47.4</course>
<desc>Speed 19.5 km/h Distance 14.92 km</desc>
<time>2010-06-13T07:01:30.67</time>
<name>3359</name>
</trkpt>
<trkpt lat="49.221578" lon="11.714135">
<ele>574.4</ele>
<speed>19.5</speed>
<course>51.7</course>
<desc>Speed 19.5 km/h Distance 14.92 km</desc>
<time>2010-06-13T07:01:31.67</time>
<name>3360</name>
</trkpt>
<trkpt lat="49.221605" lon="11.714187">
<ele>575.1</ele>
<speed>18.6</speed>
<course>47.7</course>
<desc>Speed 18.6 km/h Distance 14.93 km</desc>
<time>2010-06-13T07:01:32.67</time>
<name>3361</name>
</trkpt>
<trkpt lat="49.221637" lon="11.714240">
<ele>576.6</ele>
<speed>18.8</speed>
<course>47.4</course>
<desc>Speed 18.8 km/h Distance 14.93 km</desc>
<time>2010-06-13T07:01:33.67</time>
<name>3362</name>
</trkpt>
<trkpt lat="49.221672" lon="11.714298">
<ele>577.2</ele>
<speed>18.5</speed>
<course>45.4</course>
<desc>Speed 18.5 km/h Distance 14.94 km</desc>
<time>2010-06-13T07:01:34.67</time>
<name>3363</name>
</trkpt>
<trkpt lat="49.221702" lon="11.714345">
<ele>577.8</ele>
<speed>18.2</speed>
<course>53.4</course>
<desc>Speed 18.2 km/h Distance 14.94 km</desc>
<time>2010-06-13T07:01:35.68</time>
<name>3364</name>
</trkpt>
<trkpt lat="49.221730" lon="11.714403">
<ele>578.7</ele>
<speed>17.9</speed>
<course>57.5</course>
<desc>Speed 17.9 km/h Distance 14.95 km</desc>
<time>2010-06-13T07:01:36.69</time>
<name>3365</name>
</trkpt>
<trkpt lat="49.221755" lon="11.714463">
<ele>579.1</ele>
<speed>18.6</speed>
<course>50.1</course>
<desc>Speed 18.6 km/h Distance 14.95 km</desc>
<time>2010-06-13T07:01:37.68</time>
<name>3366</name>
</trkpt>
<trkpt lat="49.221785" lon="11.714518">
<ele>578.8</ele>
<speed>18.4</speed>
<course>55.2</course>
<desc>Speed 18.4 km/h Distance 14.96 km</desc>
<time>2010-06-13T07:01:38.69</time>
<name>3367</name>
</trkpt>
<trkpt lat="49.221810" lon="11.714573">
<ele>579.2</ele>
<speed>17.3</speed>
<course>47.8</course>
<desc>Speed 17.3 km/h Distance 14.96 km</desc>
<time>2010-06-13T07:01:39.68</time>
<name>3368</name>
</trkpt>
<trkpt lat="49.221837" lon="11.714618">
<ele>579.0</ele>
<speed>15.9</speed>
<course>58.5</course>
<desc>Speed 15.9 km/h Distance 14.97 km</desc>
<time>2010-06-13T07:01:40.67</time>
<name>3369</name>
</trkpt>
<trkpt lat="49.221857" lon="11.714668">
<ele>579.4</ele>
<speed>14.9</speed>
<course>48.5</course>
<desc>Speed 14.9 km/h Distance 14.97 km</desc>
<time>2010-06-13T07:01:41.67</time>
<name>3370</name>
</trkpt>
<trkpt lat="49.221882" lon="11.714712">
<ele>579.8</ele>
<speed>14.5</speed>
<course>55.2</course>
<desc>Speed 14.5 km/h Distance 14.98 km</desc>
<time>2010-06-13T07:01:42.67</time>
<name>3371</name>
</trkpt>
<trkpt lat="49.221898" lon="11.714748">
<ele>582.2</ele>
<speed>12.8</speed>
<course>57.1</course>
<desc>Speed 12.8 km/h Distance 14.98 km</desc>
<time>2010-06-13T07:01:43.68</time>
<name>3372</name>
</trkpt>
<trkpt lat="49.221917" lon="11.714792">
<ele>583.3</ele>
<speed>11.6</speed>
<course>65.6</course>
<desc>Speed 11.6 km/h Distance 14.98 km</desc>
<time>2010-06-13T07:01:44.67</time>
<name>3373</name>
</trkpt>
<trkpt lat="49.221930" lon="11.714837">
<ele>584.1</ele>
<speed>12.2</speed>
<course>51.6</course>
<desc>Speed 12.2 km/h Distance 14.99 km</desc>
<time>2010-06-13T07:01:45.68</time>
<name>3374</name>
</trkpt>
<trkpt lat="49.221953" lon="11.714882">
<ele>584.4</ele>
<speed>13.6</speed>
<course>38.1</course>
<desc>Speed 13.6 km/h Distance 14.99 km</desc>
<time>2010-06-13T07:01:46.67</time>
<name>3375</name>
</trkpt>
<trkpt lat="49.221987" lon="11.714922">
<ele>584.1</ele>
<speed>14.1</speed>
<course>59.0</course>
<desc>Speed 14.1 km/h Distance 15.00 km</desc>
<time>2010-06-13T07:01:47.68</time>
<name>3376</name>
</trkpt>
<trkpt lat="49.222005" lon="11.714968">
<ele>583.7</ele>
<speed>14.1</speed>
<course>53.5</course>
<desc>Speed 14.1 km/h Distance 15.00 km</desc>
<time>2010-06-13T07:01:48.69</time>
<name>3377</name>
</trkpt>
<trkpt lat="49.222030" lon="11.715020">
<ele>584.6</ele>
<speed>15.6</speed>
<course>57.9</course>
<desc>Speed 15.6 km/h Distance 15.00 km</desc>
<time>2010-06-13T07:01:49.67</time>
<name>3378</name>
</trkpt>
<trkpt lat="49.222057" lon="11.715085">
<ele>584.2</ele>
<speed>16.7</speed>
<course>54.1</course>
<desc>Speed 16.7 km/h Distance 15.01 km</desc>
<time>2010-06-13T07:01:50.68</time>
<name>3379</name>
</trkpt>
<trkpt lat="49.222085" lon="11.715145">
<ele>584.9</ele>
<speed>17.3</speed>
<course>45.5</course>
<desc>Speed 17.3 km/h Distance 15.02 km</desc>
<time>2010-06-13T07:01:51.68</time>
<name>3380</name>
</trkpt>
<trkpt lat="49.222115" lon="11.715192">
<ele>585.0</ele>
<speed>16.3</speed>
<course>50.8</course>
<desc>Speed 16.3 km/h Distance 15.02 km</desc>
<time>2010-06-13T07:01:52.67</time>
<name>3381</name>
</trkpt>
<trkpt lat="49.222142" lon="11.715242">
<ele>585.4</ele>
<speed>14.5</speed>
<course>28.6</course>
<desc>Speed 14.5 km/h Distance 15.02 km</desc>
<time>2010-06-13T07:01:53.68</time>
<name>3382</name>
</trkpt>
<trkpt lat="49.222162" lon="11.715258">
<ele>585.0</ele>
<speed>12.1</speed>
<course>16.6</course>
<desc>Speed 12.1 km/h Distance 15.03 km</desc>
<time>2010-06-13T07:01:54.67</time>
<name>3383</name>
</trkpt>
<trkpt lat="49.222180" lon="11.715267">
<ele>584.7</ele>
<speed>9.7</speed>
<course>64.2</course>
<desc>Speed 9.7 km/h Distance 15.03 km</desc>
<time>2010-06-13T07:01:55.67</time>
<name>3384</name>
</trkpt>
<trkpt lat="49.222190" lon="11.715298">
<ele>583.8</ele>
<speed>8.0</speed>
<course>93.0</course>
<desc>Speed 8.0 km/h Distance 15.03 km</desc>
<time>2010-06-13T07:01:56.68</time>
<name>3385</name>
</trkpt>
<trkpt lat="49.222188" lon="11.715347">
<ele>583.8</ele>
<speed>8.4</speed>
<course>39.8</course>
<desc>Speed 8.4 km/h Distance 15.04 km</desc>
<time>2010-06-13T07:01:57.66</time>
<name>3386</name>
</trkpt>
<trkpt lat="49.222218" lon="11.715385">
<ele>583.8</ele>
<speed>12.6</speed>
<course>34.1</course>
<desc>Speed 12.6 km/h Distance 15.04 km</desc>
<time>2010-06-13T07:01:58.67</time>
<name>3387</name>
</trkpt>
<trkpt lat="49.222310" lon="11.715480">
<ele>584.6</ele>
<speed>18.8</speed>
<course>35.0</course>
<desc>Speed 18.8 km/h Distance 15.05 km</desc>
<time>2010-06-13T07:02:00.66</time>
<name>3388</name>
</trkpt>
<trkpt lat="49.222357" lon="11.715530">
<ele>584.6</ele>
<speed>18.9</speed>
<course>33.2</course>
<desc>Speed 18.9 km/h Distance 15.06 km</desc>
<time>2010-06-13T07:02:02.67</time>
<name>3389</name>
</trkpt>
<trkpt lat="49.222450" lon="11.715623">
<ele>584.6</ele>
<speed>15.6</speed>
<course>19.9</course>
<desc>Speed 15.6 km/h Distance 15.07 km</desc>
<time>2010-06-13T07:02:04.68</time>
<name>3390</name>
</trkpt>
<trkpt lat="49.222495" lon="11.715648">
<ele>584.6</ele>
<speed>14.7</speed>
<course>72.1</course>
<desc>Speed 14.7 km/h Distance 15.08 km</desc>
<time>2010-06-13T07:02:05.67</time>
<name>3391</name>
</trkpt>
<trkpt lat="49.222508" lon="11.715712">
<ele>590.0</ele>
<speed>14.2</speed>
<course>28.3</course>
<desc>Speed 14.2 km/h Distance 15.08 km</desc>
<time>2010-06-13T07:02:06.68</time>
<name>3392</name>
</trkpt>
<trkpt lat="49.222537" lon="11.715735">
<ele>593.3</ele>
<speed>14.7</speed>
<course>51.7</course>
<desc>Speed 14.7 km/h Distance 15.08 km</desc>
<time>2010-06-13T07:02:07.68</time>
<name>3393</name>
</trkpt>
<trkpt lat="49.222563" lon="11.715787">
<ele>595.7</ele>
<speed>15.7</speed>
<course>44.4</course>
<desc>Speed 15.7 km/h Distance 15.09 km</desc>
<time>2010-06-13T07:02:08.68</time>
<name>3394</name>
</trkpt>
<trkpt lat="49.222593" lon="11.715832">
<ele>597.7</ele>
<speed>15.5</speed>
<course>33.1</course>
<desc>Speed 15.5 km/h Distance 15.09 km</desc>
<time>2010-06-13T07:02:09.67</time>
<name>3395</name>
</trkpt>
<trkpt lat="49.222638" lon="11.715877">
<ele>600.2</ele>
<speed>16.7</speed>
<course>39.2</course>
<desc>Speed 16.7 km/h Distance 15.10 km</desc>
<time>2010-06-13T07:02:10.68</time>
<name>3396</name>
</trkpt>
<trkpt lat="49.222678" lon="11.715927">
<ele>601.5</ele>
<speed>17.0</speed>
<course>41.7</course>
<desc>Speed 17.0 km/h Distance 15.11 km</desc>
<time>2010-06-13T07:02:11.69</time>
<name>3397</name>
</trkpt>
<trkpt lat="49.222715" lon="11.715977">
<ele>602.5</ele>
<speed>16.8</speed>
<course>52.6</course>
<desc>Speed 16.8 km/h Distance 15.11 km</desc>
<time>2010-06-13T07:02:12.69</time>
<name>3398</name>
</trkpt>
<trkpt lat="49.222743" lon="11.716033">
<ele>603.8</ele>
<speed>16.1</speed>
<course>41.6</course>
<desc>Speed 16.1 km/h Distance 15.12 km</desc>
<time>2010-06-13T07:02:13.68</time>
<name>3399</name>
</trkpt>
<trkpt lat="49.222785" lon="11.716090">
<ele>600.3</ele>
<speed>16.3</speed>
<course>42.9</course>
<desc>Speed 16.3 km/h Distance 15.12 km</desc>
<time>2010-06-13T07:02:14.68</time>
<name>3400</name>
</trkpt>
<trkpt lat="49.222817" lon="11.716135">
<ele>598.2</ele>
<speed>16.1</speed>
<course>41.1</course>
<desc>Speed 16.1 km/h Distance 15.13 km</desc>
<time>2010-06-13T07:02:15.68</time>
<name>3401</name>
</trkpt>
<trkpt lat="49.222857" lon="11.716188">
<ele>595.1</ele>
<speed>15.3</speed>
<course>45.3</course>
<desc>Speed 15.3 km/h Distance 15.13 km</desc>
<time>2010-06-13T07:02:16.67</time>
<name>3402</name>
</trkpt>
<trkpt lat="49.222890" lon="11.716240">
<ele>592.1</ele>
<speed>16.1</speed>
<course>47.1</course>
<desc>Speed 16.1 km/h Distance 15.14 km</desc>
<time>2010-06-13T07:02:17.67</time>
<name>3403</name>
</trkpt>
<trkpt lat="49.222918" lon="11.716287">
<ele>591.7</ele>
<speed>16.6</speed>
<course>41.4</course>
<desc>Speed 16.6 km/h Distance 15.14 km</desc>
<time>2010-06-13T07:02:18.68</time>
<name>3404</name>
</trkpt>
<trkpt lat="49.222952" lon="11.716332">
<ele>591.4</ele>
<speed>16.5</speed>
<course>36.7</course>
<desc>Speed 16.5 km/h Distance 15.15 km</desc>
<time>2010-06-13T07:02:19.67</time>
<name>3405</name>
</trkpt>
<trkpt lat="49.222987" lon="11.716372">
<ele>590.5</ele>
<speed>16.1</speed>
<course>38.3</course>
<desc>Speed 16.1 km/h Distance 15.15 km</desc>
<time>2010-06-13T07:02:20.68</time>
<name>3406</name>
</trkpt>
<trkpt lat="49.223018" lon="11.716410">
<ele>589.9</ele>
<speed>15.0</speed>
<course>40.6</course>
<desc>Speed 15.0 km/h Distance 15.16 km</desc>
<time>2010-06-13T07:02:21.67</time>
<name>3407</name>
</trkpt>
<trkpt lat="49.223045" lon="11.716445">
<ele>589.5</ele>
<speed>14.2</speed>
<course>44.4</course>
<desc>Speed 14.2 km/h Distance 15.16 km</desc>
<time>2010-06-13T07:02:22.67</time>
<name>3408</name>
</trkpt>
<trkpt lat="49.223072" lon="11.716485">
<ele>589.1</ele>
<speed>14.3</speed>
<course>43.2</course>
<desc>Speed 14.3 km/h Distance 15.17 km</desc>
<time>2010-06-13T07:02:23.68</time>
<name>3409</name>
</trkpt>
<trkpt lat="49.223098" lon="11.716523">
<ele>588.3</ele>
<speed>14.1</speed>
<course>31.7</course>
<desc>Speed 14.1 km/h Distance 15.17 km</desc>
<time>2010-06-13T07:02:24.68</time>
<name>3410</name>
</trkpt>
<trkpt lat="49.223128" lon="11.716552">
<ele>587.3</ele>
<speed>13.2</speed>
<course>39.2</course>
<desc>Speed 13.2 km/h Distance 15.17 km</desc>
<time>2010-06-13T07:02:25.66</time>
<name>3411</name>
</trkpt>
<trkpt lat="49.223155" lon="11.716585">
<ele>587.2</ele>
<speed>12.6</speed>
<course>51.6</course>
<desc>Speed 12.6 km/h Distance 15.18 km</desc>
<time>2010-06-13T07:02:26.68</time>
<name>3412</name>
</trkpt>
<trkpt lat="49.223178" lon="11.716630">
<ele>586.3</ele>
<speed>12.2</speed>
<course>39.2</course>
<desc>Speed 12.2 km/h Distance 15.18 km</desc>
<time>2010-06-13T07:02:27.68</time>
<name>3413</name>
</trkpt>
<trkpt lat="49.223212" lon="11.716672">
<ele>585.3</ele>
<speed>12.5</speed>
<course>49.8</course>
<desc>Speed 12.5 km/h Distance 15.19 km</desc>
<time>2010-06-13T07:02:28.68</time>
<name>3414</name>
</trkpt>
<trkpt lat="49.223238" lon="11.716720">
<ele>584.9</ele>
<speed>13.0</speed>
<course>67.3</course>
<desc>Speed 13.0 km/h Distance 15.19 km</desc>
<time>2010-06-13T07:02:29.69</time>
<name>3415</name>
</trkpt>
<trkpt lat="49.223253" lon="11.716775">
<ele>585.6</ele>
<speed>12.8</speed>
<course>42.7</course>
<desc>Speed 12.8 km/h Distance 15.20 km</desc>
<time>2010-06-13T07:02:30.68</time>
<name>3416</name>
</trkpt>
<trkpt lat="49.223282" lon="11.716815">
<ele>585.5</ele>
<speed>13.2</speed>
<course>45.6</course>
<desc>Speed 13.2 km/h Distance 15.20 km</desc>
<time>2010-06-13T07:02:31.67</time>
<name>3417</name>
</trkpt>
<trkpt lat="49.223308" lon="11.716857">
<ele>585.9</ele>
<speed>14.0</speed>
<course>55.8</course>
<desc>Speed 14.0 km/h Distance 15.20 km</desc>
<time>2010-06-13T07:02:32.66</time>
<name>3418</name>
</trkpt>
<trkpt lat="49.223328" lon="11.716902">
<ele>586.7</ele>
<speed>13.4</speed>
<course>49.6</course>
<desc>Speed 13.4 km/h Distance 15.21 km</desc>
<time>2010-06-13T07:02:33.66</time>
<name>3419</name>
</trkpt>
<trkpt lat="49.223353" lon="11.716947">
<ele>587.6</ele>
<speed>13.2</speed>
<course>39.6</course>
<desc>Speed 13.2 km/h Distance 15.21 km</desc>
<time>2010-06-13T07:02:34.67</time>
<name>3420</name>
</trkpt>
<trkpt lat="49.223378" lon="11.716978">
<ele>589.2</ele>
<speed>12.6</speed>
<course>42.4</course>
<desc>Speed 12.6 km/h Distance 15.22 km</desc>
<time>2010-06-13T07:02:35.67</time>
<name>3421</name>
</trkpt>
<trkpt lat="49.223403" lon="11.717013">
<ele>590.0</ele>
<speed>12.3</speed>
<course>45.8</course>
<desc>Speed 12.3 km/h Distance 15.22 km</desc>
<time>2010-06-13T07:02:36.66</time>
<name>3422</name>
</trkpt>
<trkpt lat="49.223427" lon="11.717050">
<ele>590.3</ele>
<speed>12.6</speed>
<course>49.4</course>
<desc>Speed 12.6 km/h Distance 15.22 km</desc>
<time>2010-06-13T07:02:37.68</time>
<name>3423</name>
</trkpt>
<trkpt lat="49.223450" lon="11.717092">
<ele>590.0</ele>
<speed>11.3</speed>
<course>38.4</course>
<desc>Speed 11.3 km/h Distance 15.23 km</desc>
<time>2010-06-13T07:02:38.67</time>
<name>3424</name>
</trkpt>
<trkpt lat="49.223473" lon="11.717120">
<ele>590.8</ele>
<speed>9.3</speed>
<course>23.5</course>
<desc>Speed 9.3 km/h Distance 15.23 km</desc>
<time>2010-06-13T07:02:39.67</time>
<name>3425</name>
</trkpt>
<trkpt lat="49.223498" lon="11.717137">
<ele>591.8</ele>
<speed>10.5</speed>
<course>41.9</course>
<desc>Speed 10.5 km/h Distance 15.23 km</desc>
<time>2010-06-13T07:02:40.67</time>
<name>3426</name>
</trkpt>
<trkpt lat="49.223525" lon="11.717173">
<ele>592.5</ele>
<speed>12.8</speed>
<course>50.8</course>
<desc>Speed 12.8 km/h Distance 15.24 km</desc>
<time>2010-06-13T07:02:41.67</time>
<name>3427</name>
</trkpt>
<trkpt lat="49.223552" lon="11.717223">
<ele>593.2</ele>
<speed>14.7</speed>
<course>39.2</course>
<desc>Speed 14.7 km/h Distance 15.24 km</desc>
<time>2010-06-13T07:02:42.66</time>
<name>3428</name>
</trkpt>
<trkpt lat="49.223578" lon="11.717257">
<ele>593.8</ele>
<speed>14.3</speed>
<course>39.5</course>
<desc>Speed 14.3 km/h Distance 15.25 km</desc>
<time>2010-06-13T07:02:43.68</time>
<name>3429</name>
</trkpt>
<trkpt lat="49.223610" lon="11.717297">
<ele>595.0</ele>
<speed>14.4</speed>
<course>56.7</course>
<desc>Speed 14.4 km/h Distance 15.25 km</desc>
<time>2010-06-13T07:02:44.68</time>
<name>3430</name>
</trkpt>
<trkpt lat="49.223630" lon="11.717343">
<ele>597.0</ele>
<speed>14.0</speed>
<course>51.6</course>
<desc>Speed 14.0 km/h Distance 15.25 km</desc>
<time>2010-06-13T07:02:45.68</time>
<name>3431</name>
</trkpt>
<trkpt lat="49.223655" lon="11.717392">
<ele>598.2</ele>
<speed>15.2</speed>
<course>39.2</course>
<desc>Speed 15.2 km/h Distance 15.26 km</desc>
<time>2010-06-13T07:02:46.67</time>
<name>3432</name>
</trkpt>
<trkpt lat="49.223688" lon="11.717433">
<ele>598.2</ele>
<speed>15.8</speed>
<course>43.4</course>
<desc>Speed 15.8 km/h Distance 15.26 km</desc>
<time>2010-06-13T07:02:47.68</time>
<name>3433</name>
</trkpt>
<trkpt lat="49.223722" lon="11.717482">
<ele>598.7</ele>
<speed>15.5</speed>
<course>44.9</course>
<desc>Speed 15.5 km/h Distance 15.27 km</desc>
<time>2010-06-13T07:02:48.67</time>
<name>3434</name>
</trkpt>
<trkpt lat="49.223753" lon="11.717530">
<ele>599.3</ele>
<speed>15.0</speed>
<course>43.2</course>
<desc>Speed 15.0 km/h Distance 15.27 km</desc>
<time>2010-06-13T07:02:49.68</time>
<name>3435</name>
</trkpt>
<trkpt lat="49.223780" lon="11.717568">
<ele>600.0</ele>
<speed>15.0</speed>
<course>37.3</course>
<desc>Speed 15.0 km/h Distance 15.28 km</desc>
<time>2010-06-13T07:02:50.67</time>
<name>3436</name>
</trkpt>
<trkpt lat="49.223810" lon="11.717603">
<ele>600.0</ele>
<speed>14.7</speed>
<course>36.4</course>
<desc>Speed 14.7 km/h Distance 15.28 km</desc>
<time>2010-06-13T07:02:51.68</time>
<name>3437</name>
</trkpt>
<trkpt lat="49.223848" lon="11.717647">
<ele>596.9</ele>
<speed>15.6</speed>
<course>44.4</course>
<desc>Speed 15.6 km/h Distance 15.29 km</desc>
<time>2010-06-13T07:02:52.67</time>
<name>3438</name>
</trkpt>
<trkpt lat="49.223878" lon="11.717692">
<ele>596.6</ele>
<speed>15.4</speed>
<course>58.1</course>
<desc>Speed 15.4 km/h Distance 15.29 km</desc>
<time>2010-06-13T07:02:53.67</time>
<name>3439</name>
</trkpt>
<trkpt lat="49.223900" lon="11.717745">
<ele>597.4</ele>
<speed>14.8</speed>
<course>35.6</course>
<desc>Speed 14.8 km/h Distance 15.30 km</desc>
<time>2010-06-13T07:02:54.67</time>
<name>3440</name>
</trkpt>
<trkpt lat="49.223935" lon="11.717783">
<ele>594.6</ele>
<speed>14.7</speed>
<course>43.9</course>
<desc>Speed 14.7 km/h Distance 15.30 km</desc>
<time>2010-06-13T07:02:55.68</time>
<name>3441</name>
</trkpt>
<trkpt lat="49.223963" lon="11.717825">
<ele>592.8</ele>
<speed>14.1</speed>
<course>34.6</course>
<desc>Speed 14.1 km/h Distance 15.31 km</desc>
<time>2010-06-13T07:02:56.67</time>
<name>3442</name>
</trkpt>
<trkpt lat="49.223993" lon="11.717857">
<ele>591.1</ele>
<speed>13.2</speed>
<course>17.2</course>
<desc>Speed 13.2 km/h Distance 15.31 km</desc>
<time>2010-06-13T07:02:57.66</time>
<name>3443</name>
</trkpt>
<trkpt lat="49.224028" lon="11.717873">
<ele>590.2</ele>
<speed>14.3</speed>
<course>36.1</course>
<desc>Speed 14.3 km/h Distance 15.31 km</desc>
<time>2010-06-13T07:02:58.67</time>
<name>3444</name>
</trkpt>
<trkpt lat="49.224057" lon="11.717905">
<ele>589.7</ele>
<speed>14.4</speed>
<course>55.8</course>
<desc>Speed 14.4 km/h Distance 15.32 km</desc>
<time>2010-06-13T07:02:59.69</time>
<name>3445</name>
</trkpt>
<trkpt lat="49.224077" lon="11.717950">
<ele>590.3</ele>
<speed>15.2</speed>
<course>42.2</course>
<desc>Speed 15.2 km/h Distance 15.32 km</desc>
<time>2010-06-13T07:03:00.67</time>
<name>3446</name>
</trkpt>
<trkpt lat="49.224107" lon="11.717992">
<ele>589.0</ele>
<speed>15.6</speed>
<course>33.2</course>
<desc>Speed 15.6 km/h Distance 15.33 km</desc>
<time>2010-06-13T07:03:01.69</time>
<name>3447</name>
</trkpt>
<trkpt lat="49.224137" lon="11.718022">
<ele>589.5</ele>
<speed>15.7</speed>
<course>49.1</course>
<desc>Speed 15.7 km/h Distance 15.33 km</desc>
<time>2010-06-13T07:03:02.67</time>
<name>3448</name>
</trkpt>
<trkpt lat="49.224158" lon="11.718060">
<ele>590.5</ele>
<speed>15.6</speed>
<course>50.0</course>
<desc>Speed 15.6 km/h Distance 15.33 km</desc>
<time>2010-06-13T07:03:03.68</time>
<name>3449</name>
</trkpt>
<trkpt lat="49.224187" lon="11.718112">
<ele>589.1</ele>
<speed>15.5</speed>
<course>52.6</course>
<desc>Speed 15.5 km/h Distance 15.34 km</desc>
<time>2010-06-13T07:03:04.67</time>
<name>3450</name>
</trkpt>
<trkpt lat="49.224210" lon="11.718158">
<ele>589.3</ele>
<speed>14.4</speed>
<course>41.4</course>
<desc>Speed 14.4 km/h Distance 15.34 km</desc>
<time>2010-06-13T07:03:05.67</time>
<name>3451</name>
</trkpt>
<trkpt lat="49.224243" lon="11.718203">
<ele>588.4</ele>
<speed>14.3</speed>
<course>46.3</course>
<desc>Speed 14.3 km/h Distance 15.35 km</desc>
<time>2010-06-13T07:03:06.66</time>
<name>3452</name>
</trkpt>
<trkpt lat="49.224268" lon="11.718243">
<ele>588.4</ele>
<speed>13.7</speed>
<course>48.2</course>
<desc>Speed 13.7 km/h Distance 15.35 km</desc>
<time>2010-06-13T07:03:07.68</time>
<name>3453</name>
</trkpt>
<trkpt lat="49.224292" lon="11.718283">
<ele>588.5</ele>
<speed>14.4</speed>
<course>44.4</course>
<desc>Speed 14.4 km/h Distance 15.36 km</desc>
<time>2010-06-13T07:03:08.67</time>
<name>3454</name>
</trkpt>
<trkpt lat="49.224322" lon="11.718328">
<ele>588.1</ele>
<speed>16.4</speed>
<course>56.7</course>
<desc>Speed 16.4 km/h Distance 15.36 km</desc>
<time>2010-06-13T07:03:09.66</time>
<name>3455</name>
</trkpt>
<trkpt lat="49.224347" lon="11.718387">
<ele>588.4</ele>
<speed>16.3</speed>
<course>40.3</course>
<desc>Speed 16.3 km/h Distance 15.37 km</desc>
<time>2010-06-13T07:03:10.66</time>
<name>3456</name>
</trkpt>
<trkpt lat="49.224380" lon="11.718430">
<ele>587.6</ele>
<speed>15.1</speed>
<course>53.6</course>
<desc>Speed 15.1 km/h Distance 15.37 km</desc>
<time>2010-06-13T07:03:11.67</time>
<name>3457</name>
</trkpt>
<trkpt lat="49.224402" lon="11.718475">
<ele>589.3</ele>
<speed>15.2</speed>
<course>39.5</course>
<desc>Speed 15.2 km/h Distance 15.38 km</desc>
<time>2010-06-13T07:03:12.68</time>
<name>3458</name>
</trkpt>
<trkpt lat="49.224433" lon="11.718515">
<ele>587.9</ele>
<speed>16.5</speed>
<course>41.8</course>
<desc>Speed 16.5 km/h Distance 15.38 km</desc>
<time>2010-06-13T07:03:13.67</time>
<name>3459</name>
</trkpt>
<trkpt lat="49.224465" lon="11.718558">
<ele>587.7</ele>
<speed>15.8</speed>
<course>46.0</course>
<desc>Speed 15.8 km/h Distance 15.38 km</desc>
<time>2010-06-13T07:03:14.67</time>
<name>3460</name>
</trkpt>
<trkpt lat="49.224493" lon="11.718603">
<ele>587.7</ele>
<speed>16.3</speed>
<course>54.2</course>
<desc>Speed 16.3 km/h Distance 15.39 km</desc>
<time>2010-06-13T07:03:15.67</time>
<name>3461</name>
</trkpt>
<trkpt lat="49.224520" lon="11.718660">
<ele>588.1</ele>
<speed>17.8</speed>
<course>59.5</course>
<desc>Speed 17.8 km/h Distance 15.39 km</desc>
<time>2010-06-13T07:03:16.67</time>
<name>3462</name>
</trkpt>
<trkpt lat="49.224545" lon="11.718725">
<ele>587.9</ele>
<speed>17.5</speed>
<course>52.6</course>
<desc>Speed 17.5 km/h Distance 15.40 km</desc>
<time>2010-06-13T07:03:17.66</time>
<name>3463</name>
</trkpt>
<trkpt lat="49.224577" lon="11.718788">
<ele>587.2</ele>
<speed>17.4</speed>
<course>44.4</course>
<desc>Speed 17.4 km/h Distance 15.41 km</desc>
<time>2010-06-13T07:03:18.68</time>
<name>3464</name>
</trkpt>
<trkpt lat="49.224610" lon="11.718838">
<ele>587.3</ele>
<speed>17.5</speed>
<course>49.0</course>
<desc>Speed 17.5 km/h Distance 15.41 km</desc>
<time>2010-06-13T07:03:19.68</time>
<name>3465</name>
</trkpt>
<trkpt lat="49.224638" lon="11.718888">
<ele>587.1</ele>
<speed>18.4</speed>
<course>46.8</course>
<desc>Speed 18.4 km/h Distance 15.42 km</desc>
<time>2010-06-13T07:03:20.67</time>
<name>3466</name>
</trkpt>
<trkpt lat="49.224670" lon="11.718940">
<ele>586.5</ele>
<speed>17.8</speed>
<course>46.8</course>
<desc>Speed 17.8 km/h Distance 15.42 km</desc>
<time>2010-06-13T07:03:21.66</time>
<name>3467</name>
</trkpt>
<trkpt lat="49.224702" lon="11.718992">
<ele>586.5</ele>
<speed>18.1</speed>
<course>48.4</course>
<desc>Speed 18.1 km/h Distance 15.43 km</desc>
<time>2010-06-13T07:03:22.67</time>
<name>3468</name>
</trkpt>
<trkpt lat="49.224732" lon="11.719043">
<ele>587.1</ele>
<speed>17.5</speed>
<course>44.9</course>
<desc>Speed 17.5 km/h Distance 15.43 km</desc>
<time>2010-06-13T07:03:23.67</time>
<name>3469</name>
</trkpt>
<trkpt lat="49.224767" lon="11.719097">
<ele>586.7</ele>
<speed>17.4</speed>
<course>51.0</course>
<desc>Speed 17.4 km/h Distance 15.44 km</desc>
<time>2010-06-13T07:03:24.67</time>
<name>3470</name>
</trkpt>
<trkpt lat="49.224797" lon="11.719153">
<ele>587.4</ele>
<speed>17.8</speed>
<course>50.9</course>
<desc>Speed 17.8 km/h Distance 15.44 km</desc>
<time>2010-06-13T07:03:25.66</time>
<name>3471</name>
</trkpt>
<trkpt lat="49.224825" lon="11.719207">
<ele>587.2</ele>
<speed>17.8</speed>
<course>39.2</course>
<desc>Speed 17.8 km/h Distance 15.45 km</desc>
<time>2010-06-13T07:03:26.67</time>
<name>3472</name>
</trkpt>
<trkpt lat="49.224858" lon="11.719248">
<ele>586.3</ele>
<speed>17.1</speed>
<course>33.1</course>
<desc>Speed 17.1 km/h Distance 15.45 km</desc>
<time>2010-06-13T07:03:27.67</time>
<name>3473</name>
</trkpt>
<trkpt lat="49.224895" lon="11.719285">
<ele>585.6</ele>
<speed>16.8</speed>
<course>46.0</course>
<desc>Speed 16.8 km/h Distance 15.46 km</desc>
<time>2010-06-13T07:03:28.67</time>
<name>3474</name>
</trkpt>
<trkpt lat="49.224923" lon="11.719330">
<ele>586.5</ele>
<speed>17.6</speed>
<course>50.4</course>
<desc>Speed 17.6 km/h Distance 15.46 km</desc>
<time>2010-06-13T07:03:29.67</time>
<name>3475</name>
</trkpt>
<trkpt lat="49.224957" lon="11.719392">
<ele>586.6</ele>
<speed>18.2</speed>
<course>43.1</course>
<desc>Speed 18.2 km/h Distance 15.47 km</desc>
<time>2010-06-13T07:03:30.66</time>
<name>3476</name>
</trkpt>
<trkpt lat="49.224995" lon="11.719447">
<ele>585.7</ele>
<speed>18.9</speed>
<course>46.5</course>
<desc>Speed 18.9 km/h Distance 15.47 km</desc>
<time>2010-06-13T07:03:31.67</time>
<name>3477</name>
</trkpt>
<trkpt lat="49.225025" lon="11.719495">
<ele>586.5</ele>
<speed>18.5</speed>
<course>58.8</course>
<desc>Speed 18.5 km/h Distance 15.48 km</desc>
<time>2010-06-13T07:03:32.67</time>
<name>3478</name>
</trkpt>
<trkpt lat="49.225053" lon="11.719567">
<ele>586.6</ele>
<speed>18.6</speed>
<course>43.4</course>
<desc>Speed 18.6 km/h Distance 15.48 km</desc>
<time>2010-06-13T07:03:33.67</time>
<name>3479</name>
</trkpt>
<trkpt lat="49.225087" lon="11.719615">
<ele>586.0</ele>
<speed>18.1</speed>
<course>53.4</course>
<desc>Speed 18.1 km/h Distance 15.49 km</desc>
<time>2010-06-13T07:03:34.67</time>
<name>3480</name>
</trkpt>
<trkpt lat="49.225115" lon="11.719673">
<ele>586.1</ele>
<speed>18.4</speed>
<course>44.4</course>
<desc>Speed 18.4 km/h Distance 15.49 km</desc>
<time>2010-06-13T07:03:35.66</time>
<name>3481</name>
</trkpt>
<trkpt lat="49.225152" lon="11.719728">
<ele>585.0</ele>
<speed>19.2</speed>
<course>52.6</course>
<desc>Speed 19.2 km/h Distance 15.50 km</desc>
<time>2010-06-13T07:03:36.67</time>
<name>3482</name>
</trkpt>
<trkpt lat="49.225182" lon="11.719788">
<ele>585.2</ele>
<speed>18.4</speed>
<course>65.7</course>
<desc>Speed 18.4 km/h Distance 15.50 km</desc>
<time>2010-06-13T07:03:37.67</time>
<name>3483</name>
</trkpt>
<trkpt lat="49.225203" lon="11.719862">
<ele>586.3</ele>
<speed>18.5</speed>
<course>57.5</course>
<desc>Speed 18.5 km/h Distance 15.51 km</desc>
<time>2010-06-13T07:03:38.67</time>
<name>3484</name>
</trkpt>
<trkpt lat="49.225228" lon="11.719922">
<ele>586.7</ele>
<speed>18.7</speed>
<course>55.2</course>
<desc>Speed 18.7 km/h Distance 15.52 km</desc>
<time>2010-06-13T07:03:39.68</time>
<name>3485</name>
</trkpt>
<trkpt lat="49.225253" lon="11.719977">
<ele>586.6</ele>
<speed>18.0</speed>
<course>52.6</course>
<desc>Speed 18.0 km/h Distance 15.52 km</desc>
<time>2010-06-13T07:03:40.69</time>
<name>3486</name>
</trkpt>
<trkpt lat="49.225282" lon="11.720033">
<ele>587.1</ele>
<speed>18.1</speed>
<course>51.0</course>
<desc>Speed 18.1 km/h Distance 15.53 km</desc>
<time>2010-06-13T07:03:41.67</time>
<name>3487</name>
</trkpt>
<trkpt lat="49.225312" lon="11.720090">
<ele>587.2</ele>
<speed>18.1</speed>
<course>54.1</course>
<desc>Speed 18.1 km/h Distance 15.53 km</desc>
<time>2010-06-13T07:03:42.66</time>
<name>3488</name>
</trkpt>
<trkpt lat="49.225340" lon="11.720150">
<ele>587.9</ele>
<speed>17.5</speed>
<course>53.4</course>
<desc>Speed 17.5 km/h Distance 15.54 km</desc>
<time>2010-06-13T07:03:43.67</time>
<name>3489</name>
</trkpt>
<trkpt lat="49.225368" lon="11.720208">
<ele>587.6</ele>
<speed>18.0</speed>
<course>59.2</course>
<desc>Speed 18.0 km/h Distance 15.54 km</desc>
<time>2010-06-13T07:03:44.69</time>
<name>3490</name>
</trkpt>
<trkpt lat="49.225392" lon="11.720268">
<ele>587.9</ele>
<speed>17.4</speed>
<course>67.0</course>
<desc>Speed 17.4 km/h Distance 15.55 km</desc>
<time>2010-06-13T07:03:45.66</time>
<name>3491</name>
</trkpt>
<trkpt lat="49.225408" lon="11.720328">
<ele>588.2</ele>
<speed>17.7</speed>
<course>54.1</course>
<desc>Speed 17.7 km/h Distance 15.55 km</desc>
<time>2010-06-13T07:03:46.66</time>
<name>3492</name>
</trkpt>
<trkpt lat="49.225437" lon="11.720388">
<ele>588.7</ele>
<speed>17.7</speed>
<course>50.0</course>
<desc>Speed 17.7 km/h Distance 15.56 km</desc>
<time>2010-06-13T07:03:47.67</time>
<name>3493</name>
</trkpt>
<trkpt lat="49.225465" lon="11.720440">
<ele>588.5</ele>
<speed>17.7</speed>
<course>50.9</course>
<desc>Speed 17.7 km/h Distance 15.56 km</desc>
<time>2010-06-13T07:03:48.67</time>
<name>3494</name>
</trkpt>
<trkpt lat="49.225493" lon="11.720493">
<ele>588.2</ele>
<speed>17.1</speed>
<course>57.5</course>
<desc>Speed 17.1 km/h Distance 15.57 km</desc>
<time>2010-06-13T07:03:49.68</time>
<name>3495</name>
</trkpt>
<trkpt lat="49.225518" lon="11.720553">
<ele>588.5</ele>
<speed>17.2</speed>
<course>56.2</course>
<desc>Speed 17.2 km/h Distance 15.57 km</desc>
<time>2010-06-13T07:03:50.68</time>
<name>3496</name>
</trkpt>
<trkpt lat="49.225542" lon="11.720607">
<ele>588.0</ele>
<speed>16.3</speed>
<course>46.7</course>
<desc>Speed 16.3 km/h Distance 15.58 km</desc>
<time>2010-06-13T07:03:51.68</time>
<name>3497</name>
</trkpt>
<trkpt lat="49.225568" lon="11.720650">
<ele>587.2</ele>
<speed>16.0</speed>
<course>55.3</course>
<desc>Speed 16.0 km/h Distance 15.58 km</desc>
<time>2010-06-13T07:03:52.67</time>
<name>3498</name>
</trkpt>
<trkpt lat="49.225592" lon="11.720702">
<ele>586.9</ele>
<speed>16.2</speed>
<course>57.8</course>
<desc>Speed 16.2 km/h Distance 15.59 km</desc>
<time>2010-06-13T07:03:53.67</time>
<name>3499</name>
</trkpt>
<trkpt lat="49.225615" lon="11.720758">
<ele>587.3</ele>
<speed>15.9</speed>
<course>51.6</course>
<desc>Speed 15.9 km/h Distance 15.59 km</desc>
<time>2010-06-13T07:03:54.67</time>
<name>3500</name>
</trkpt>
<trkpt lat="49.225640" lon="11.720807">
<ele>587.0</ele>
<speed>15.4</speed>
<course>29.0</course>
<desc>Speed 15.4 km/h Distance 15.60 km</desc>
<time>2010-06-13T07:03:55.67</time>
<name>3501</name>
</trkpt>
<trkpt lat="49.225673" lon="11.720835">
<ele>585.7</ele>
<speed>14.9</speed>
<course>54.5</course>
<desc>Speed 14.9 km/h Distance 15.60 km</desc>
<time>2010-06-13T07:03:56.68</time>
<name>3502</name>
</trkpt>
<trkpt lat="49.225697" lon="11.720885">
<ele>585.8</ele>
<speed>15.2</speed>
<course>59.9</course>
<desc>Speed 15.2 km/h Distance 15.60 km</desc>
<time>2010-06-13T07:03:57.68</time>
<name>3503</name>
</trkpt>
<trkpt lat="49.225715" lon="11.720933">
<ele>585.7</ele>
<speed>15.2</speed>
<course>64.4</course>
<desc>Speed 15.2 km/h Distance 15.61 km</desc>
<time>2010-06-13T07:03:58.67</time>
<name>3504</name>
</trkpt>
<trkpt lat="49.225732" lon="11.720987">
<ele>585.9</ele>
<speed>14.9</speed>
<course>63.6</course>
<desc>Speed 14.9 km/h Distance 15.61 km</desc>
<time>2010-06-13T07:03:59.67</time>
<name>3505</name>
</trkpt>
<trkpt lat="49.225750" lon="11.721043">
<ele>586.4</ele>
<speed>15.6</speed>
<course>53.6</course>
<desc>Speed 15.6 km/h Distance 15.62 km</desc>
<time>2010-06-13T07:04:00.69</time>
<name>3506</name>
</trkpt>
<trkpt lat="49.225772" lon="11.721088">
<ele>585.8</ele>
<speed>15.2</speed>
<course>58.5</course>
<desc>Speed 15.2 km/h Distance 15.62 km</desc>
<time>2010-06-13T07:04:01.67</time>
<name>3507</name>
</trkpt>
<trkpt lat="49.225792" lon="11.721138">
<ele>586.1</ele>
<speed>14.7</speed>
<course>60.1</course>
<desc>Speed 14.7 km/h Distance 15.63 km</desc>
<time>2010-06-13T07:04:02.66</time>
<name>3508</name>
</trkpt>
<trkpt lat="49.225812" lon="11.721192">
<ele>586.7</ele>
<speed>14.9</speed>
<course>59.9</course>
<desc>Speed 14.9 km/h Distance 15.63 km</desc>
<time>2010-06-13T07:04:03.66</time>
<name>3509</name>
</trkpt>
<trkpt lat="49.225830" lon="11.721240">
<ele>587.2</ele>
<speed>14.5</speed>
<course>61.5</course>
<desc>Speed 14.5 km/h Distance 15.63 km</desc>
<time>2010-06-13T07:04:04.66</time>
<name>3510</name>
</trkpt>
<trkpt lat="49.225848" lon="11.721292">
<ele>587.9</ele>
<speed>14.1</speed>
<course>63.0</course>
<desc>Speed 14.1 km/h Distance 15.64 km</desc>
<time>2010-06-13T07:04:05.68</time>
<name>3511</name>
</trkpt>
<trkpt lat="49.225865" lon="11.721342">
<ele>588.6</ele>
<speed>13.8</speed>
<course>52.5</course>
<desc>Speed 13.8 km/h Distance 15.64 km</desc>
<time>2010-06-13T07:04:06.66</time>
<name>3512</name>
</trkpt>
<trkpt lat="49.225883" lon="11.721378">
<ele>587.7</ele>
<speed>13.7</speed>
<course>58.0</course>
<desc>Speed 13.7 km/h Distance 15.65 km</desc>
<time>2010-06-13T07:04:07.66</time>
<name>3513</name>
</trkpt>
<trkpt lat="49.225902" lon="11.721423">
<ele>588.1</ele>
<speed>13.8</speed>
<course>36.3</course>
<desc>Speed 13.8 km/h Distance 15.65 km</desc>
<time>2010-06-13T07:04:08.68</time>
<name>3514</name>
</trkpt>
<trkpt lat="49.225928" lon="11.721453">
<ele>587.6</ele>
<speed>14.0</speed>
<course>36.5</course>
<desc>Speed 14.0 km/h Distance 15.65 km</desc>
<time>2010-06-13T07:04:09.66</time>
<name>3515</name>
</trkpt>
<trkpt lat="49.225953" lon="11.721482">
<ele>587.0</ele>
<speed>12.7</speed>
<course>36.8</course>
<desc>Speed 12.7 km/h Distance 15.66 km</desc>
<time>2010-06-13T07:04:10.67</time>
<name>3516</name>
</trkpt>
<trkpt lat="49.225977" lon="11.721508">
<ele>586.5</ele>
<speed>11.8</speed>
<course>52.5</course>
<desc>Speed 11.8 km/h Distance 15.66 km</desc>
<time>2010-06-13T07:04:11.67</time>
<name>3517</name>
</trkpt>
<trkpt lat="49.225995" lon="11.721545">
<ele>586.7</ele>
<speed>12.0</speed>
<course>51.3</course>
<desc>Speed 12.0 km/h Distance 15.66 km</desc>
<time>2010-06-13T07:04:12.67</time>
<name>3518</name>
</trkpt>
<trkpt lat="49.226013" lon="11.721580">
<ele>586.8</ele>
<speed>11.7</speed>
<course>33.2</course>
<desc>Speed 11.7 km/h Distance 15.67 km</desc>
<time>2010-06-13T07:04:13.67</time>
<name>3519</name>
</trkpt>
<trkpt lat="49.226037" lon="11.721603">
<ele>586.5</ele>
<speed>11.7</speed>
<course>36.8</course>
<desc>Speed 11.7 km/h Distance 15.67 km</desc>
<time>2010-06-13T07:04:14.67</time>
<name>3520</name>
</trkpt>
<trkpt lat="49.226060" lon="11.721630">
<ele>586.0</ele>
<speed>12.2</speed>
<course>41.6</course>
<desc>Speed 12.2 km/h Distance 15.67 km</desc>
<time>2010-06-13T07:04:15.66</time>
<name>3521</name>
</trkpt>
<trkpt lat="49.226083" lon="11.721662">
<ele>585.9</ele>
<speed>11.9</speed>
<course>56.3</course>
<desc>Speed 11.9 km/h Distance 15.68 km</desc>
<time>2010-06-13T07:04:16.68</time>
<name>3522</name>
</trkpt>
<trkpt lat="49.226100" lon="11.721700">
<ele>586.2</ele>
<speed>11.6</speed>
<course>55.2</course>
<desc>Speed 11.6 km/h Distance 15.68 km</desc>
<time>2010-06-13T07:04:17.67</time>
<name>3523</name>
</trkpt>
<trkpt lat="49.226117" lon="11.721737">
<ele>586.8</ele>
<speed>10.5</speed>
<course>63.9</course>
<desc>Speed 10.5 km/h Distance 15.68 km</desc>
<time>2010-06-13T07:04:18.67</time>
<name>3524</name>
</trkpt>
<trkpt lat="49.226130" lon="11.721778">
<ele>587.7</ele>
<speed>10.3</speed>
<course>41.6</course>
<desc>Speed 10.3 km/h Distance 15.69 km</desc>
<time>2010-06-13T07:04:19.66</time>
<name>3525</name>
</trkpt>
<trkpt lat="49.226153" lon="11.721810">
<ele>587.3</ele>
<speed>9.5</speed>
<course>51.0</course>
<desc>Speed 9.5 km/h Distance 15.69 km</desc>
<time>2010-06-13T07:04:20.66</time>
<name>3526</name>
</trkpt>
<trkpt lat="49.226168" lon="11.721838">
<ele>587.7</ele>
<speed>8.8</speed>
<course>54.2</course>
<desc>Speed 8.8 km/h Distance 15.69 km</desc>
<time>2010-06-13T07:04:21.67</time>
<name>3527</name>
</trkpt>
<trkpt lat="49.226182" lon="11.721867">
<ele>588.5</ele>
<speed>8.9</speed>
<course>41.1</course>
<desc>Speed 8.9 km/h Distance 15.69 km</desc>
<time>2010-06-13T07:04:22.67</time>
<name>3528</name>
</trkpt>
<trkpt lat="49.226207" lon="11.721900">
<ele>589.0</ele>
<speed>10.1</speed>
<course>46.9</course>
<desc>Speed 10.1 km/h Distance 15.70 km</desc>
<time>2010-06-13T07:04:23.65</time>
<name>3529</name>
</trkpt>
<trkpt lat="49.226225" lon="11.721930">
<ele>590.6</ele>
<speed>10.6</speed>
<course>63.9</course>
<desc>Speed 10.6 km/h Distance 15.70 km</desc>
<time>2010-06-13T07:04:24.67</time>
<name>3530</name>
</trkpt>
<trkpt lat="49.226238" lon="11.721972">
<ele>591.7</ele>
<speed>10.7</speed>
<course>51.2</course>
<desc>Speed 10.7 km/h Distance 15.70 km</desc>
<time>2010-06-13T07:04:25.67</time>
<name>3531</name>
</trkpt>
<trkpt lat="49.226255" lon="11.722003">
<ele>592.1</ele>
<speed>10.1</speed>
<course>63.0</course>
<desc>Speed 10.1 km/h Distance 15.71 km</desc>
<time>2010-06-13T07:04:26.67</time>
<name>3532</name>
</trkpt>
<trkpt lat="49.226270" lon="11.722048">
<ele>592.6</ele>
<speed>10.7</speed>
<course>52.6</course>
<desc>Speed 10.7 km/h Distance 15.71 km</desc>
<time>2010-06-13T07:04:27.66</time>
<name>3533</name>
</trkpt>
<trkpt lat="49.226288" lon="11.722085">
<ele>593.8</ele>
<speed>10.5</speed>
<course>53.8</course>
<desc>Speed 10.5 km/h Distance 15.71 km</desc>
<time>2010-06-13T07:04:28.67</time>
<name>3534</name>
</trkpt>
<trkpt lat="49.226307" lon="11.722123">
<ele>593.9</ele>
<speed>11.5</speed>
<course>46.0</course>
<desc>Speed 11.5 km/h Distance 15.72 km</desc>
<time>2010-06-13T07:04:29.66</time>
<name>3535</name>
</trkpt>
<trkpt lat="49.226327" lon="11.722155">
<ele>594.1</ele>
<speed>12.0</speed>
<course>46.5</course>
<desc>Speed 12.0 km/h Distance 15.72 km</desc>
<time>2010-06-13T07:04:30.65</time>
<name>3536</name>
</trkpt>
<trkpt lat="49.226348" lon="11.722190">
<ele>594.1</ele>
<speed>12.0</speed>
<course>27.6</course>
<desc>Speed 12.0 km/h Distance 15.72 km</desc>
<time>2010-06-13T07:04:31.67</time>
<name>3537</name>
</trkpt>
<trkpt lat="49.226373" lon="11.722210">
<ele>593.6</ele>
<speed>11.8</speed>
<course>38.1</course>
<desc>Speed 11.8 km/h Distance 15.73 km</desc>
<time>2010-06-13T07:04:32.67</time>
<name>3538</name>
</trkpt>
<trkpt lat="49.226398" lon="11.722240">
<ele>593.3</ele>
<speed>11.7</speed>
<course>24.7</course>
<desc>Speed 11.7 km/h Distance 15.73 km</desc>
<time>2010-06-13T07:04:33.68</time>
<name>3539</name>
</trkpt>
<trkpt lat="49.226427" lon="11.722260">
<ele>592.9</ele>
<speed>11.3</speed>
<course>55.5</course>
<desc>Speed 11.3 km/h Distance 15.74 km</desc>
<time>2010-06-13T07:04:34.66</time>
<name>3540</name>
</trkpt>
<trkpt lat="49.226442" lon="11.722293">
<ele>594.7</ele>
<speed>11.1</speed>
<course>51.1</course>
<desc>Speed 11.1 km/h Distance 15.74 km</desc>
<time>2010-06-13T07:04:35.67</time>
<name>3541</name>
</trkpt>
<trkpt lat="49.226458" lon="11.722325">
<ele>596.0</ele>
<speed>11.5</speed>
<course>41.1</course>
<desc>Speed 11.5 km/h Distance 15.74 km</desc>
<time>2010-06-13T07:04:36.67</time>
<name>3542</name>
</trkpt>
<trkpt lat="49.226483" lon="11.722358">
<ele>595.5</ele>
<speed>11.9</speed>
<course>50.1</course>
<desc>Speed 11.9 km/h Distance 15.74 km</desc>
<time>2010-06-13T07:04:37.66</time>
<name>3543</name>
</trkpt>
<trkpt lat="49.226503" lon="11.722395">
<ele>595.0</ele>
<speed>11.1</speed>
<course>38.8</course>
<desc>Speed 11.1 km/h Distance 15.75 km</desc>
<time>2010-06-13T07:04:38.66</time>
<name>3544</name>
</trkpt>
<trkpt lat="49.226525" lon="11.722422">
<ele>594.5</ele>
<speed>11.0</speed>
<course>35.0</course>
<desc>Speed 11.0 km/h Distance 15.75 km</desc>
<time>2010-06-13T07:04:39.66</time>
<name>3545</name>
</trkpt>
<trkpt lat="49.226548" lon="11.722447">
<ele>594.6</ele>
<speed>11.3</speed>
<course>57.0</course>
<desc>Speed 11.3 km/h Distance 15.75 km</desc>
<time>2010-06-13T07:04:40.66</time>
<name>3546</name>
</trkpt>
<trkpt lat="49.226567" lon="11.722490">
<ele>595.6</ele>
<speed>12.0</speed>
<course>53.7</course>
<desc>Speed 12.0 km/h Distance 15.76 km</desc>
<time>2010-06-13T07:04:41.66</time>
<name>3547</name>
</trkpt>
<trkpt lat="49.226587" lon="11.722532">
<ele>596.3</ele>
<speed>12.6</speed>
<course>51.4</course>
<desc>Speed 12.6 km/h Distance 15.76 km</desc>
<time>2010-06-13T07:04:42.67</time>
<name>3548</name>
</trkpt>
<trkpt lat="49.226607" lon="11.722570">
<ele>597.2</ele>
<speed>11.6</speed>
<course>44.4</course>
<desc>Speed 11.6 km/h Distance 15.77 km</desc>
<time>2010-06-13T07:04:43.66</time>
<name>3549</name>
</trkpt>
<trkpt lat="49.226627" lon="11.722600">
<ele>598.7</ele>
<speed>11.3</speed>
<course>41.6</course>
<desc>Speed 11.3 km/h Distance 15.77 km</desc>
<time>2010-06-13T07:04:44.67</time>
<name>3550</name>
</trkpt>
<trkpt lat="49.226650" lon="11.722632">
<ele>599.0</ele>
<speed>12.6</speed>
<course>58.0</course>
<desc>Speed 12.6 km/h Distance 15.77 km</desc>
<time>2010-06-13T07:04:45.66</time>
<name>3551</name>
</trkpt>
<trkpt lat="49.226668" lon="11.722677">
<ele>600.4</ele>
<speed>12.5</speed>
<course>50.1</course>
<desc>Speed 12.5 km/h Distance 15.78 km</desc>
<time>2010-06-13T07:04:46.66</time>
<name>3552</name>
</trkpt>
<trkpt lat="49.226688" lon="11.722713">
<ele>601.1</ele>
<speed>11.2</speed>
<course>50.3</course>
<desc>Speed 11.2 km/h Distance 15.78 km</desc>
<time>2010-06-13T07:04:47.67</time>
<name>3553</name>
</trkpt>
<trkpt lat="49.226710" lon="11.722753">
<ele>601.8</ele>
<speed>10.9</speed>
<course>43.6</course>
<desc>Speed 10.9 km/h Distance 15.78 km</desc>
<time>2010-06-13T07:04:48.66</time>
<name>3554</name>
</trkpt>
<trkpt lat="49.226732" lon="11.722785">
<ele>602.2</ele>
<speed>10.9</speed>
<course>33.1</course>
<desc>Speed 10.9 km/h Distance 15.79 km</desc>
<time>2010-06-13T07:04:49.68</time>
<name>3555</name>
</trkpt>
<trkpt lat="49.226757" lon="11.722810">
<ele>602.3</ele>
<speed>11.3</speed>
<course>40.4</course>
<desc>Speed 11.3 km/h Distance 15.79 km</desc>
<time>2010-06-13T07:04:50.66</time>
<name>3556</name>
</trkpt>
<trkpt lat="49.226778" lon="11.722838">
<ele>602.6</ele>
<speed>10.6</speed>
<course>57.4</course>
<desc>Speed 10.6 km/h Distance 15.79 km</desc>
<time>2010-06-13T07:04:51.65</time>
<name>3557</name>
</trkpt>
<trkpt lat="49.226795" lon="11.722878">
<ele>603.4</ele>
<speed>11.1</speed>
<course>58.5</course>
<desc>Speed 11.1 km/h Distance 15.80 km</desc>
<time>2010-06-13T07:04:52.66</time>
<name>3558</name>
</trkpt>
<trkpt lat="49.226812" lon="11.722920">
<ele>604.5</ele>
<speed>11.2</speed>
<course>33.1</course>
<desc>Speed 11.2 km/h Distance 15.80 km</desc>
<time>2010-06-13T07:04:53.66</time>
<name>3559</name>
</trkpt>
<trkpt lat="49.226835" lon="11.722943">
<ele>604.5</ele>
<speed>10.0</speed>
<course>46.9</course>
<desc>Speed 10.0 km/h Distance 15.80 km</desc>
<time>2010-06-13T07:04:54.65</time>
<name>3560</name>
</trkpt>
<trkpt lat="49.226853" lon="11.722973">
<ele>605.7</ele>
<speed>11.3</speed>
<course>61.8</course>
<desc>Speed 11.3 km/h Distance 15.81 km</desc>
<time>2010-06-13T07:04:55.66</time>
<name>3561</name>
</trkpt>
<trkpt lat="49.226865" lon="11.723007">
<ele>608.1</ele>
<speed>11.2</speed>
<course>49.6</course>
<desc>Speed 11.2 km/h Distance 15.81 km</desc>
<time>2010-06-13T07:04:56.66</time>
<name>3562</name>
</trkpt>
<trkpt lat="49.226882" lon="11.723037">
<ele>610.3</ele>
<speed>10.1</speed>
<course>46.3</course>
<desc>Speed 10.1 km/h Distance 15.81 km</desc>
<time>2010-06-13T07:04:57.66</time>
<name>3563</name>
</trkpt>
<trkpt lat="49.226898" lon="11.723063">
<ele>612.1</ele>
<speed>10.3</speed>
<course>33.2</course>
<desc>Speed 10.3 km/h Distance 15.81 km</desc>
<time>2010-06-13T07:04:58.66</time>
<name>3564</name>
</trkpt>
<trkpt lat="49.226923" lon="11.723088">
<ele>612.5</ele>
<speed>10.6</speed>
<course>51.5</course>
<desc>Speed 10.6 km/h Distance 15.82 km</desc>
<time>2010-06-13T07:04:59.66</time>
<name>3565</name>
</trkpt>
<trkpt lat="49.226945" lon="11.723130">
<ele>611.5</ele>
<speed>9.5</speed>
<course>43.0</course>
<desc>Speed 9.5 km/h Distance 15.82 km</desc>
<time>2010-06-13T07:05:00.66</time>
<name>3566</name>
</trkpt>
<trkpt lat="49.226968" lon="11.723163">
<ele>611.2</ele>
<speed>10.3</speed>
<course>31.1</course>
<desc>Speed 10.3 km/h Distance 15.83 km</desc>
<time>2010-06-13T07:05:01.67</time>
<name>3567</name>
</trkpt>
<trkpt lat="49.226990" lon="11.723183">
<ele>611.9</ele>
<speed>10.1</speed>
<course>8.1</course>
<desc>Speed 10.1 km/h Distance 15.83 km</desc>
<time>2010-06-13T07:05:02.66</time>
<name>3568</name>
</trkpt>
<trkpt lat="49.227013" lon="11.723188">
<ele>612.3</ele>
<speed>7.9</speed>
<course>314.0</course>
<desc>Speed 7.9 km/h Distance 15.83 km</desc>
<time>2010-06-13T07:05:03.66</time>
<name>3569</name>
</trkpt>
<trkpt lat="49.227033" lon="11.723157">
<ele>613.0</ele>
<speed>7.5</speed>
<course>347.0</course>
<desc>Speed 7.5 km/h Distance 15.83 km</desc>
<time>2010-06-13T07:05:04.67</time>
<name>3570</name>
</trkpt>
<trkpt lat="49.227062" lon="11.723147">
<ele>612.3</ele>
<speed>5.3</speed>
<course>28.3</course>
<desc>Speed 5.3 km/h Distance 15.84 km</desc>
<time>2010-06-13T07:05:05.67</time>
<name>3571</name>
</trkpt>
<trkpt lat="49.227128" lon="11.723202">
<ele>608.3</ele>
<speed>7.9</speed>
<course>43.6</course>
<desc>Speed 7.9 km/h Distance 15.85 km</desc>
<time>2010-06-13T07:05:07.66</time>
<name>3572</name>
</trkpt>
<trkpt lat="49.227205" lon="11.723313">
<ele>607.3</ele>
<speed>10.2</speed>
<course>76.7</course>
<desc>Speed 10.2 km/h Distance 15.86 km</desc>
<time>2010-06-13T07:05:09.66</time>
<name>3573</name>
</trkpt>
<trkpt lat="49.227208" lon="11.723335">
<ele>608.1</ele>
<speed>9.0</speed>
<course>71.2</course>
<desc>Speed 9.0 km/h Distance 15.86 km</desc>
<time>2010-06-13T07:05:10.65</time>
<name>3574</name>
</trkpt>
<trkpt lat="49.227215" lon="11.723365">
<ele>610.2</ele>
<speed>9.8</speed>
<course>27.5</course>
<desc>Speed 9.8 km/h Distance 15.86 km</desc>
<time>2010-06-13T07:05:11.66</time>
<name>3575</name>
</trkpt>
<trkpt lat="49.227223" lon="11.723372">
<ele>613.0</ele>
<speed>7.5</speed>
<course>39.2</course>
<desc>Speed 7.5 km/h Distance 15.86 km</desc>
<time>2010-06-13T07:05:12.66</time>
<name>3576</name>
</trkpt>
<trkpt lat="49.227243" lon="11.723397">
<ele>615.2</ele>
<speed>8.0</speed>
<course>5.0</course>
<desc>Speed 8.0 km/h Distance 15.87 km</desc>
<time>2010-06-13T07:05:13.66</time>
<name>3577</name>
</trkpt>
<trkpt lat="49.227252" lon="11.723397">
<ele>619.2</ele>
<speed>7.2</speed>
<course>4.6</course>
<desc>Speed 7.2 km/h Distance 15.87 km</desc>
<time>2010-06-13T07:05:14.67</time>
<name>3578</name>
</trkpt>
<trkpt lat="49.227277" lon="11.723400">
<ele>622.3</ele>
<speed>7.1</speed>
<course>66.4</course>
<desc>Speed 7.1 km/h Distance 15.87 km</desc>
<time>2010-06-13T07:05:15.66</time>
<name>3579</name>
</trkpt>
<trkpt lat="49.227287" lon="11.723435">
<ele>623.1</ele>
<speed>5.5</speed>
<course>48.0</course>
<desc>Speed 5.5 km/h Distance 15.87 km</desc>
<time>2010-06-13T07:05:16.66</time>
<name>3580</name>
</trkpt>
<trkpt lat="49.227303" lon="11.723463">
<ele>624.6</ele>
<speed>4.8</speed>
<course>64.3</course>
<desc>Speed 4.8 km/h Distance 15.87 km</desc>
<time>2010-06-13T07:05:17.65</time>
<name>3581</name>
</trkpt>
<trkpt lat="49.227322" lon="11.723522">
<ele>626.1</ele>
<speed>3.3</speed>
<course>59.5</course>
<desc>Speed 3.3 km/h Distance 15.88 km</desc>
<time>2010-06-13T07:05:19.67</time>
<name>3582</name>
</trkpt>
<trkpt lat="49.227330" lon="11.723543">
<ele>627.1</ele>
<speed>3.0</speed>
<course>30.9</course>
<desc>Speed 3.0 km/h Distance 15.88 km</desc>
<time>2010-06-13T07:05:20.67</time>
<name>3583</name>
</trkpt>
<trkpt lat="49.227350" lon="11.723562">
<ele>628.6</ele>
<speed>3.3</speed>
<course>59.2</course>
<desc>Speed 3.3 km/h Distance 15.88 km</desc>
<time>2010-06-13T07:05:21.66</time>
<name>3584</name>
</trkpt>
<trkpt lat="49.227362" lon="11.723592">
<ele>628.5</ele>
<speed>5.0</speed>
<course>28.6</course>
<desc>Speed 5.0 km/h Distance 15.89 km</desc>
<time>2010-06-13T07:05:22.67</time>
<name>3585</name>
</trkpt>
<trkpt lat="49.227382" lon="11.723608">
<ele>630.3</ele>
<speed>4.2</speed>
<course>26.7</course>
<desc>Speed 4.2 km/h Distance 15.89 km</desc>
<time>2010-06-13T07:05:23.67</time>
<name>3586</name>
</trkpt>
<trkpt lat="49.227403" lon="11.723625">
<ele>632.1</ele>
<speed>4.5</speed>
<course>57.2</course>
<desc>Speed 4.5 km/h Distance 15.89 km</desc>
<time>2010-06-13T07:05:24.66</time>
<name>3587</name>
</trkpt>
<trkpt lat="49.227417" lon="11.723657">
<ele>631.7</ele>
<speed>5.9</speed>
<course>349.1</course>
<desc>Speed 5.9 km/h Distance 15.89 km</desc>
<time>2010-06-13T07:05:25.67</time>
<name>3588</name>
</trkpt>
<trkpt lat="49.227445" lon="11.723648">
<ele>631.6</ele>
<speed>7.7</speed>
<course>37.3</course>
<desc>Speed 7.7 km/h Distance 15.90 km</desc>
<time>2010-06-13T07:05:26.67</time>
<name>3589</name>
</trkpt>
<trkpt lat="49.227465" lon="11.723672">
<ele>633.5</ele>
<speed>7.6</speed>
<course>49.6</course>
<desc>Speed 7.6 km/h Distance 15.90 km</desc>
<time>2010-06-13T07:05:27.67</time>
<name>3590</name>
</trkpt>
<trkpt lat="49.227482" lon="11.723702">
<ele>636.0</ele>
<speed>8.0</speed>
<course>43.0</course>
<desc>Speed 8.0 km/h Distance 15.90 km</desc>
<time>2010-06-13T07:05:28.67</time>
<name>3591</name>
</trkpt>
<trkpt lat="49.227505" lon="11.723735">
<ele>634.0</ele>
<speed>7.5</speed>
<course>40.1</course>
<desc>Speed 7.5 km/h Distance 15.91 km</desc>
<time>2010-06-13T07:05:29.66</time>
<name>3592</name>
</trkpt>
<trkpt lat="49.227557" lon="11.723802">
<ele>640.0</ele>
<speed>10.1</speed>
<course>46.0</course>
<desc>Speed 10.1 km/h Distance 15.91 km</desc>
<time>2010-06-13T07:05:31.65</time>
<name>3593</name>
</trkpt>
<trkpt lat="49.227585" lon="11.723847">
<ele>640.6</ele>
<speed>10.8</speed>
<course>36.3</course>
<desc>Speed 10.8 km/h Distance 15.92 km</desc>
<time>2010-06-13T07:05:32.67</time>
<name>3594</name>
</trkpt>
<trkpt lat="49.227612" lon="11.723877">
<ele>639.5</ele>
<speed>10.0</speed>
<course>36.3</course>
<desc>Speed 10.0 km/h Distance 15.92 km</desc>
<time>2010-06-13T07:05:33.65</time>
<name>3595</name>
</trkpt>
<trkpt lat="49.227638" lon="11.723907">
<ele>641.8</ele>
<speed>8.3</speed>
<course>27.9</course>
<desc>Speed 8.3 km/h Distance 15.93 km</desc>
<time>2010-06-13T07:05:34.67</time>
<name>3596</name>
</trkpt>
<trkpt lat="49.227665" lon="11.723928">
<ele>645.4</ele>
<speed>7.8</speed>
<course>30.9</course>
<desc>Speed 7.8 km/h Distance 15.93 km</desc>
<time>2010-06-13T07:05:35.65</time>
<name>3597</name>
</trkpt>
<trkpt lat="49.227685" lon="11.723947">
<ele>647.0</ele>
<speed>6.7</speed>
<course>27.2</course>
<desc>Speed 6.7 km/h Distance 15.93 km</desc>
<time>2010-06-13T07:05:36.67</time>
<name>3598</name>
</trkpt>
<trkpt lat="49.227708" lon="11.723965">
<ele>646.7</ele>
<speed>7.1</speed>
<course>41.9</course>
<desc>Speed 7.1 km/h Distance 15.93 km</desc>
<time>2010-06-13T07:05:37.67</time>
<name>3599</name>
</trkpt>
<trkpt lat="49.227722" lon="11.723983">
<ele>647.7</ele>
<speed>7.3</speed>
<course>38.9</course>
<desc>Speed 7.3 km/h Distance 15.94 km</desc>
<time>2010-06-13T07:05:38.66</time>
<name>3600</name>
</trkpt>
<trkpt lat="49.227772" lon="11.724045">
<ele>645.7</ele>
<speed>7.2</speed>
<course>3.5</course>
<desc>Speed 7.2 km/h Distance 15.94 km</desc>
<time>2010-06-13T07:05:40.66</time>
<name>3601</name>
</trkpt>
<trkpt lat="49.227805" lon="11.724048">
<ele>644.9</ele>
<speed>7.3</speed>
<course>28.3</course>
<desc>Speed 7.3 km/h Distance 15.95 km</desc>
<time>2010-06-13T07:05:41.66</time>
<name>3602</name>
</trkpt>
<trkpt lat="49.227833" lon="11.724072">
<ele>642.0</ele>
<speed>8.3</speed>
<course>37.3</course>
<desc>Speed 8.3 km/h Distance 15.95 km</desc>
<time>2010-06-13T07:05:42.66</time>
<name>3603</name>
</trkpt>
<trkpt lat="49.227853" lon="11.724095">
<ele>642.0</ele>
<speed>9.4</speed>
<course>61.3</course>
<desc>Speed 9.4 km/h Distance 15.95 km</desc>
<time>2010-06-13T07:05:43.65</time>
<name>3604</name>
</trkpt>
<trkpt lat="49.227862" lon="11.724118">
<ele>638.7</ele>
<speed>8.6</speed>
<course>60.1</course>
<desc>Speed 8.6 km/h Distance 15.96 km</desc>
<time>2010-06-13T07:05:44.65</time>
<name>3605</name>
</trkpt>
<trkpt lat="49.227867" lon="11.724132">
<ele>639.2</ele>
<speed>6.6</speed>
<course>18.7</course>
<desc>Speed 6.6 km/h Distance 15.96 km</desc>
<time>2010-06-13T07:05:45.65</time>
<name>3606</name>
</trkpt>
<trkpt lat="49.227915" lon="11.724157">
<ele>638.4</ele>
<speed>4.9</speed>
<course>13.0</course>
<desc>Speed 4.9 km/h Distance 15.96 km</desc>
<time>2010-06-13T07:05:47.65</time>
<name>3607</name>
</trkpt>
<trkpt lat="49.227943" lon="11.724167">
<ele>638.0</ele>
<speed>5.1</speed>
<course>22.6</course>
<desc>Speed 5.1 km/h Distance 15.97 km</desc>
<time>2010-06-13T07:05:48.67</time>
<name>3608</name>
</trkpt>
<trkpt lat="49.227962" lon="11.724178">
<ele>639.7</ele>
<speed>5.7</speed>
<course>42.8</course>
<desc>Speed 5.7 km/h Distance 15.97 km</desc>
<time>2010-06-13T07:05:49.66</time>
<name>3609</name>
</trkpt>
<trkpt lat="49.227982" lon="11.724207">
<ele>638.6</ele>
<speed>6.2</speed>
<course>43.7</course>
<desc>Speed 6.2 km/h Distance 15.97 km</desc>
<time>2010-06-13T07:05:50.66</time>
<name>3610</name>
</trkpt>
<trkpt lat="49.228003" lon="11.724238">
<ele>634.8</ele>
<speed>7.0</speed>
<course>37.2</course>
<desc>Speed 7.0 km/h Distance 15.97 km</desc>
<time>2010-06-13T07:05:51.66</time>
<name>3611</name>
</trkpt>
<trkpt lat="49.228005" lon="11.724240">
<ele>638.2</ele>
<speed>5.5</speed>
<course>12.6</course>
<desc>Speed 5.5 km/h Distance 15.97 km</desc>
<time>2010-06-13T07:05:52.66</time>
<name>3612</name>
</trkpt>
<trkpt lat="49.228008" lon="11.724240">
<ele>636.5</ele>
<speed>2.8</speed>
<course>38.1</course>
<desc>Speed 2.8 km/h Distance 15.98 km</desc>
<time>2010-06-13T07:05:53.65</time>
<name>3613</name>
</trkpt>
<trkpt lat="49.228017" lon="11.724250">
<ele>639.7</ele>
<speed>2.5</speed>
<course>27.5</course>
<desc>Speed 2.5 km/h Distance 15.98 km</desc>
<time>2010-06-13T07:05:54.64</time>
<name>3614</name>
</trkpt>
<trkpt lat="49.228025" lon="11.724257">
<ele>641.9</ele>
<speed>2.4</speed>
<course>30.1</course>
<desc>Speed 2.4 km/h Distance 15.98 km</desc>
<time>2010-06-13T07:05:55.67</time>
<name>3615</name>
</trkpt>
<trkpt lat="49.228040" lon="11.724270">
<ele>641.9</ele>
<speed>3.0</speed>
<course>58.6</course>
<desc>Speed 3.0 km/h Distance 15.98 km</desc>
<time>2010-06-13T07:05:56.66</time>
<name>3616</name>
</trkpt>
<trkpt lat="49.228043" lon="11.724278">
<ele>641.9</ele>
<speed>2.7</speed>
<course>32.0</course>
<desc>Speed 2.7 km/h Distance 15.98 km</desc>
<time>2010-06-13T07:05:57.67</time>
<name>3617</name>
</trkpt>
<trkpt lat="49.228080" lon="11.724313">
<ele>646.3</ele>
<speed>4.6</speed>
<course>46.3</course>
<desc>Speed 4.6 km/h Distance 15.98 km</desc>
<time>2010-06-13T07:05:59.65</time>
<name>3618</name>
</trkpt>
<trkpt lat="49.228097" lon="11.724340">
<ele>646.4</ele>
<speed>4.0</speed>
<course>55.8</course>
<desc>Speed 4.0 km/h Distance 15.99 km</desc>
<time>2010-06-13T07:06:00.65</time>
<name>3619</name>
</trkpt>
<trkpt lat="49.228110" lon="11.724370">
<ele>646.6</ele>
<speed>3.4</speed>
<course>80.3</course>
<desc>Speed 3.4 km/h Distance 15.99 km</desc>
<time>2010-06-13T07:06:01.65</time>
<name>3620</name>
</trkpt>
<trkpt lat="49.228113" lon="11.724400">
<ele>646.9</ele>
<speed>2.5</speed>
<course>50.8</course>
<desc>Speed 2.5 km/h Distance 15.99 km</desc>
<time>2010-06-13T07:06:02.67</time>
<name>3621</name>
</trkpt>
<trkpt lat="49.228155" lon="11.724478">
<ele>644.4</ele>
<speed>6.3</speed>
<course>55.4</course>
<desc>Speed 6.3 km/h Distance 16.00 km</desc>
<time>2010-06-13T07:06:04.66</time>
<name>3622</name>
</trkpt>
<trkpt lat="49.228170" lon="11.724512">
<ele>643.0</ele>
<speed>6.4</speed>
<course>46.0</course>
<desc>Speed 6.4 km/h Distance 16.00 km</desc>
<time>2010-06-13T07:06:05.65</time>
<name>3623</name>
</trkpt>
<trkpt lat="49.228190" lon="11.724543">
<ele>643.8</ele>
<speed>5.5</speed>
<course>25.6</course>
<desc>Speed 5.5 km/h Distance 16.01 km</desc>
<time>2010-06-13T07:06:06.66</time>
<name>3624</name>
</trkpt>
<trkpt lat="49.228215" lon="11.724562">
<ele>643.4</ele>
<speed>5.3</speed>
<course>32.3</course>
<desc>Speed 5.3 km/h Distance 16.01 km</desc>
<time>2010-06-13T07:06:07.66</time>
<name>3625</name>
</trkpt>
<trkpt lat="49.228265" lon="11.724610">
<ele>639.9</ele>
<speed>8.1</speed>
<course>19.9</course>
<desc>Speed 8.1 km/h Distance 16.02 km</desc>
<time>2010-06-13T07:06:09.65</time>
<name>3626</name>
</trkpt>
<trkpt lat="49.228295" lon="11.724627">
<ele>637.9</ele>
<speed>8.1</speed>
<course>41.5</course>
<desc>Speed 8.1 km/h Distance 16.02 km</desc>
<time>2010-06-13T07:06:10.66</time>
<name>3627</name>
</trkpt>
<trkpt lat="49.228318" lon="11.724658">
<ele>635.7</ele>
<speed>8.4</speed>
<course>41.7</course>
<desc>Speed 8.4 km/h Distance 16.02 km</desc>
<time>2010-06-13T07:06:11.66</time>
<name>3628</name>
</trkpt>
<trkpt lat="49.228373" lon="11.724733">
<ele>631.1</ele>
<speed>9.1</speed>
<course>63.0</course>
<desc>Speed 9.1 km/h Distance 16.03 km</desc>
<time>2010-06-13T07:06:13.66</time>
<name>3629</name>
</trkpt>
<trkpt lat="49.228387" lon="11.724773">
<ele>630.8</ele>
<speed>7.9</speed>
<course>39.7</course>
<desc>Speed 7.9 km/h Distance 16.03 km</desc>
<time>2010-06-13T07:06:14.65</time>
<name>3630</name>
</trkpt>
<trkpt lat="49.228405" lon="11.724797">
<ele>628.5</ele>
<speed>7.9</speed>
<course>33.2</course>
<desc>Speed 7.9 km/h Distance 16.04 km</desc>
<time>2010-06-13T07:06:15.65</time>
<name>3631</name>
</trkpt>
<trkpt lat="49.228425" lon="11.724817">
<ele>625.4</ele>
<speed>8.2</speed>
<course>52.6</course>
<desc>Speed 8.2 km/h Distance 16.04 km</desc>
<time>2010-06-13T07:06:16.67</time>
<name>3632</name>
</trkpt>
<trkpt lat="49.228440" lon="11.724847">
<ele>623.7</ele>
<speed>8.6</speed>
<course>30.5</course>
<desc>Speed 8.6 km/h Distance 16.04 km</desc>
<time>2010-06-13T07:06:17.65</time>
<name>3633</name>
</trkpt>
<trkpt lat="49.228457" lon="11.724862">
<ele>621.7</ele>
<speed>6.6</speed>
<course>48.0</course>
<desc>Speed 6.6 km/h Distance 16.04 km</desc>
<time>2010-06-13T07:06:18.65</time>
<name>3634</name>
</trkpt>
<trkpt lat="49.228473" lon="11.724890">
<ele>621.1</ele>
<speed>6.1</speed>
<course>58.5</course>
<desc>Speed 6.1 km/h Distance 16.05 km</desc>
<time>2010-06-13T07:06:19.66</time>
<name>3635</name>
</trkpt>
<trkpt lat="49.228487" lon="11.724923">
<ele>622.8</ele>
<speed>7.3</speed>
<course>46.7</course>
<desc>Speed 7.3 km/h Distance 16.05 km</desc>
<time>2010-06-13T07:06:20.65</time>
<name>3636</name>
</trkpt>
<trkpt lat="49.228500" lon="11.724945">
<ele>622.3</ele>
<speed>7.2</speed>
<course>353.7</course>
<desc>Speed 7.2 km/h Distance 16.05 km</desc>
<time>2010-06-13T07:06:21.67</time>
<name>3637</name>
</trkpt>
<trkpt lat="49.228512" lon="11.724943">
<ele>623.0</ele>
<speed>6.0</speed>
<course>7.4</course>
<desc>Speed 6.0 km/h Distance 16.05 km</desc>
<time>2010-06-13T07:06:22.66</time>
<name>3638</name>
</trkpt>
<trkpt lat="49.228537" lon="11.724948">
<ele>620.8</ele>
<speed>6.8</speed>
<course>40.0</course>
<desc>Speed 6.8 km/h Distance 16.06 km</desc>
<time>2010-06-13T07:06:23.65</time>
<name>3639</name>
</trkpt>
<trkpt lat="49.228560" lon="11.724978">
<ele>619.0</ele>
<speed>7.8</speed>
<course>76.4</course>
<desc>Speed 7.8 km/h Distance 16.06 km</desc>
<time>2010-06-13T07:06:24.65</time>
<name>3640</name>
</trkpt>
<trkpt lat="49.228565" lon="11.725010">
<ele>619.6</ele>
<speed>6.9</speed>
<course>78.1</course>
<desc>Speed 6.9 km/h Distance 16.06 km</desc>
<time>2010-06-13T07:06:25.67</time>
<name>3641</name>
</trkpt>
<trkpt lat="49.228572" lon="11.725058">
<ele>617.0</ele>
<speed>6.4</speed>
<course>76.7</course>
<desc>Speed 6.4 km/h Distance 16.07 km</desc>
<time>2010-06-13T07:06:26.65</time>
<name>3642</name>
</trkpt>
<trkpt lat="49.228575" lon="11.725080">
<ele>618.4</ele>
<speed>5.7</speed>
<course>79.1</course>
<desc>Speed 5.7 km/h Distance 16.07 km</desc>
<time>2010-06-13T07:06:27.66</time>
<name>3643</name>
</trkpt>
<trkpt lat="49.228578" lon="11.725107">
<ele>618.8</ele>
<speed>5.0</speed>
<course>73.3</course>
<desc>Speed 5.0 km/h Distance 16.07 km</desc>
<time>2010-06-13T07:06:28.65</time>
<name>3644</name>
</trkpt>
<trkpt lat="49.228595" lon="11.725192">
<ele>617.1</ele>
<speed>8.0</speed>
<course>40.5</course>
<desc>Speed 8.0 km/h Distance 16.08 km</desc>
<time>2010-06-13T07:06:30.66</time>
<name>3645</name>
</trkpt>
<trkpt lat="49.228617" lon="11.725220">
<ele>617.0</ele>
<speed>7.2</speed>
<course>43.7</course>
<desc>Speed 7.2 km/h Distance 16.08 km</desc>
<time>2010-06-13T07:06:31.67</time>
<name>3646</name>
</trkpt>
<trkpt lat="49.228638" lon="11.725252">
<ele>615.1</ele>
<speed>6.7</speed>
<course>42.8</course>
<desc>Speed 6.7 km/h Distance 16.08 km</desc>
<time>2010-06-13T07:06:32.65</time>
<name>3647</name>
</trkpt>
<trkpt lat="49.228658" lon="11.725280">
<ele>613.1</ele>
<speed>6.5</speed>
<course>44.4</course>
<desc>Speed 6.5 km/h Distance 16.08 km</desc>
<time>2010-06-13T07:06:33.65</time>
<name>3648</name>
</trkpt>
<trkpt lat="49.228682" lon="11.725315">
<ele>612.1</ele>
<speed>8.1</speed>
<course>39.6</course>
<desc>Speed 8.1 km/h Distance 16.09 km</desc>
<time>2010-06-13T07:06:34.65</time>
<name>3649</name>
</trkpt>
<trkpt lat="49.228707" lon="11.725347">
<ele>611.4</ele>
<speed>9.5</speed>
<course>45.4</course>
<desc>Speed 9.5 km/h Distance 16.09 km</desc>
<time>2010-06-13T07:06:35.65</time>
<name>3650</name>
</trkpt>
<trkpt lat="49.228722" lon="11.725370">
<ele>612.4</ele>
<speed>8.5</speed>
<course>39.7</course>
<desc>Speed 8.5 km/h Distance 16.09 km</desc>
<time>2010-06-13T07:06:36.65</time>
<name>3651</name>
</trkpt>
<trkpt lat="49.228740" lon="11.725393">
<ele>612.0</ele>
<speed>7.6</speed>
<course>76.4</course>
<desc>Speed 7.6 km/h Distance 16.10 km</desc>
<time>2010-06-13T07:06:37.66</time>
<name>3652</name>
</trkpt>
<trkpt lat="49.228745" lon="11.725425">
<ele>612.8</ele>
<speed>7.7</speed>
<course>129.9</course>
<desc>Speed 7.7 km/h Distance 16.10 km</desc>
<time>2010-06-13T07:06:38.66</time>
<name>3653</name>
</trkpt>
<trkpt lat="49.228735" lon="11.725443">
<ele>614.1</ele>
<speed>6.9</speed>
<course>61.6</course>
<desc>Speed 6.9 km/h Distance 16.10 km</desc>
<time>2010-06-13T07:06:39.66</time>
<name>3654</name>
</trkpt>
<trkpt lat="49.228745" lon="11.725472">
<ele>613.9</ele>
<speed>6.6</speed>
<course>105.1</course>
<desc>Speed 6.6 km/h Distance 16.10 km</desc>
<time>2010-06-13T07:06:40.66</time>
<name>3655</name>
</trkpt>
<trkpt lat="49.228740" lon="11.725500">
<ele>614.2</ele>
<speed>5.6</speed>
<course>51.1</course>
<desc>Speed 5.6 km/h Distance 16.11 km</desc>
<time>2010-06-13T07:06:41.65</time>
<name>3656</name>
</trkpt>
<trkpt lat="49.228757" lon="11.725532">
<ele>612.1</ele>
<speed>6.0</speed>
<course>16.0</course>
<desc>Speed 6.0 km/h Distance 16.11 km</desc>
<time>2010-06-13T07:06:42.66</time>
<name>3657</name>
</trkpt>
<trkpt lat="49.228783" lon="11.725543">
<ele>612.8</ele>
<speed>9.0</speed>
<course>17.0</course>
<desc>Speed 9.0 km/h Distance 16.11 km</desc>
<time>2010-06-13T07:06:43.65</time>
<name>3658</name>
</trkpt>
<trkpt lat="49.228808" lon="11.725555">
<ele>612.2</ele>
<speed>7.7</speed>
<course>48.8</course>
<desc>Speed 7.7 km/h Distance 16.11 km</desc>
<time>2010-06-13T07:06:44.66</time>
<name>3659</name>
</trkpt>
<trkpt lat="49.228828" lon="11.725590">
<ele>612.0</ele>
<speed>6.6</speed>
<course>35.5</course>
<desc>Speed 6.6 km/h Distance 16.12 km</desc>
<time>2010-06-13T07:06:45.66</time>
<name>3660</name>
</trkpt>
<trkpt lat="49.228847" lon="11.725610">
<ele>612.4</ele>
<speed>5.4</speed>
<course>52.6</course>
<desc>Speed 5.4 km/h Distance 16.12 km</desc>
<time>2010-06-13T07:06:46.65</time>
<name>3661</name>
</trkpt>
<trkpt lat="49.228853" lon="11.725623">
<ele>614.2</ele>
<speed>4.1</speed>
<course>30.9</course>
<desc>Speed 4.1 km/h Distance 16.12 km</desc>
<time>2010-06-13T07:06:47.66</time>
<name>3662</name>
</trkpt>
<trkpt lat="49.228873" lon="11.725642">
<ele>613.6</ele>
<speed>4.1</speed>
<course>56.3</course>
<desc>Speed 4.1 km/h Distance 16.12 km</desc>
<time>2010-06-13T07:06:48.66</time>
<name>3663</name>
</trkpt>
<trkpt lat="49.228902" lon="11.725707">
<ele>612.4</ele>
<speed>5.3</speed>
<course>60.1</course>
<desc>Speed 5.3 km/h Distance 16.13 km</desc>
<time>2010-06-13T07:06:50.65</time>
<name>3664</name>
</trkpt>
<trkpt lat="49.228912" lon="11.725733">
<ele>614.2</ele>
<speed>4.2</speed>
<course>54.4</course>
<desc>Speed 4.2 km/h Distance 16.13 km</desc>
<time>2010-06-13T07:06:51.65</time>
<name>3665</name>
</trkpt>
<trkpt lat="49.228923" lon="11.725758">
<ele>614.5</ele>
<speed>6.4</speed>
<course>23.4</course>
<desc>Speed 6.4 km/h Distance 16.13 km</desc>
<time>2010-06-13T07:06:52.67</time>
<name>3666</name>
</trkpt>
<trkpt lat="49.228933" lon="11.725765">
<ele>614.3</ele>
<speed>4.9</speed>
<course>50.7</course>
<desc>Speed 4.9 km/h Distance 16.14 km</desc>
<time>2010-06-13T07:06:53.67</time>
<name>3667</name>
</trkpt>
<trkpt lat="49.228947" lon="11.725790">
<ele>615.9</ele>
<speed>6.2</speed>
<course>107.0</course>
<desc>Speed 6.2 km/h Distance 16.14 km</desc>
<time>2010-06-13T07:06:54.64</time>
<name>3668</name>
</trkpt>
<trkpt lat="49.228940" lon="11.725823">
<ele>616.5</ele>
<speed>4.9</speed>
<course>57.8</course>
<desc>Speed 4.9 km/h Distance 16.14 km</desc>
<time>2010-06-13T07:06:55.65</time>
<name>3669</name>
</trkpt>
<trkpt lat="49.228952" lon="11.725852">
<ele>617.7</ele>
<speed>3.9</speed>
<course>85.8</course>
<desc>Speed 3.9 km/h Distance 16.14 km</desc>
<time>2010-06-13T07:06:56.64</time>
<name>3670</name>
</trkpt>
<trkpt lat="49.228953" lon="11.725887">
<ele>618.0</ele>
<speed>2.8</speed>
<course>84.9</course>
<desc>Speed 2.8 km/h Distance 16.15 km</desc>
<time>2010-06-13T07:06:57.65</time>
<name>3671</name>
</trkpt>
<trkpt lat="49.228955" lon="11.725915">
<ele>618.4</ele>
<speed>2.4</speed>
<course>52.5</course>
<desc>Speed 2.4 km/h Distance 16.15 km</desc>
<time>2010-06-13T07:06:58.64</time>
<name>3672</name>
</trkpt>
<trkpt lat="49.228965" lon="11.725935">
<ele>619.3</ele>
<speed>3.6</speed>
<course>49.6</course>
<desc>Speed 3.6 km/h Distance 16.15 km</desc>
<time>2010-06-13T07:06:59.65</time>
<name>3673</name>
</trkpt>
<trkpt lat="49.228982" lon="11.725965">
<ele>617.1</ele>
<speed>5.5</speed>
<course>65.7</course>
<desc>Speed 5.5 km/h Distance 16.15 km</desc>
<time>2010-06-13T07:07:00.66</time>
<name>3674</name>
</trkpt>
<trkpt lat="49.229003" lon="11.726038">
<ele>616.0</ele>
<speed>5.9</speed>
<course>46.9</course>
<desc>Speed 5.9 km/h Distance 16.16 km</desc>
<time>2010-06-13T07:07:02.66</time>
<name>3675</name>
</trkpt>
<trkpt lat="49.229022" lon="11.726068">
<ele>617.6</ele>
<speed>7.9</speed>
<course>56.7</course>
<desc>Speed 7.9 km/h Distance 16.16 km</desc>
<time>2010-06-13T07:07:03.65</time>
<name>3676</name>
</trkpt>
<trkpt lat="49.229032" lon="11.726092">
<ele>619.4</ele>
<speed>7.2</speed>
<course>19.9</course>
<desc>Speed 7.2 km/h Distance 16.16 km</desc>
<time>2010-06-13T07:07:04.66</time>
<name>3677</name>
</trkpt>
<trkpt lat="49.229062" lon="11.726108">
<ele>619.7</ele>
<speed>8.1</speed>
<course>54.2</course>
<desc>Speed 8.1 km/h Distance 16.17 km</desc>
<time>2010-06-13T07:07:05.66</time>
<name>3678</name>
</trkpt>
<trkpt lat="49.229103" lon="11.726197">
<ele>621.2</ele>
<speed>7.4</speed>
<course>35.3</course>
<desc>Speed 7.4 km/h Distance 16.17 km</desc>
<time>2010-06-13T07:07:07.65</time>
<name>3679</name>
</trkpt>
<trkpt lat="49.229123" lon="11.726218">
<ele>621.7</ele>
<speed>6.3</speed>
<course>79.8</course>
<desc>Speed 6.3 km/h Distance 16.18 km</desc>
<time>2010-06-13T07:07:08.65</time>
<name>3680</name>
</trkpt>
<trkpt lat="49.229127" lon="11.726247">
<ele>622.5</ele>
<speed>5.3</speed>
<course>90.0</course>
<desc>Speed 5.3 km/h Distance 16.18 km</desc>
<time>2010-06-13T07:07:09.65</time>
<name>3681</name>
</trkpt>
<trkpt lat="49.229127" lon="11.726270">
<ele>622.1</ele>
<speed>4.8</speed>
<course>76.7</course>
<desc>Speed 4.8 km/h Distance 16.18 km</desc>
<time>2010-06-13T07:07:10.66</time>
<name>3682</name>
</trkpt>
<trkpt lat="49.229130" lon="11.726292">
<ele>621.0</ele>
<speed>5.1</speed>
<course>112.7</course>
<desc>Speed 5.1 km/h Distance 16.18 km</desc>
<time>2010-06-13T07:07:11.64</time>
<name>3683</name>
</trkpt>
<trkpt lat="49.229125" lon="11.726310">
<ele>620.8</ele>
<speed>5.3</speed>
<course>128.1</course>
<desc>Speed 5.3 km/h Distance 16.18 km</desc>
<time>2010-06-13T07:07:12.66</time>
<name>3684</name>
</trkpt>
<trkpt lat="49.229123" lon="11.726313">
<ele>621.8</ele>
<speed>4.9</speed>
<course>71.8</course>
<desc>Speed 4.9 km/h Distance 16.18 km</desc>
<time>2010-06-13T07:07:13.65</time>
<name>3685</name>
</trkpt>
<trkpt lat="49.229128" lon="11.726337">
<ele>621.6</ele>
<speed>4.9</speed>
<course>120.5</course>
<desc>Speed 4.9 km/h Distance 16.19 km</desc>
<time>2010-06-13T07:07:14.66</time>
<name>3686</name>
</trkpt>
<trkpt lat="49.229120" lon="11.726358">
<ele>620.3</ele>
<speed>4.6</speed>
<course>114.7</course>
<desc>Speed 4.6 km/h Distance 16.19 km</desc>
<time>2010-06-13T07:07:15.66</time>
<name>3687</name>
</trkpt>
<trkpt lat="49.229115" lon="11.726375">
<ele>620.0</ele>
<speed>3.7</speed>
<course>125.8</course>
<desc>Speed 3.7 km/h Distance 16.19 km</desc>
<time>2010-06-13T07:07:16.65</time>
<name>3688</name>
</trkpt>
<trkpt lat="49.229102" lon="11.726403">
<ele>618.1</ele>
<speed>4.2</speed>
<course>95.8</course>
<desc>Speed 4.2 km/h Distance 16.19 km</desc>
<time>2010-06-13T07:07:17.66</time>
<name>3689</name>
</trkpt>
<trkpt lat="49.229100" lon="11.726428">
<ele>618.4</ele>
<speed>4.2</speed>
<course>90.0</course>
<desc>Speed 4.2 km/h Distance 16.19 km</desc>
<time>2010-06-13T07:07:18.66</time>
<name>3690</name>
</trkpt>
<trkpt lat="49.229100" lon="11.726450">
<ele>617.0</ele>
<speed>5.7</speed>
<course>130.8</course>
<desc>Speed 5.7 km/h Distance 16.20 km</desc>
<time>2010-06-13T07:07:19.67</time>
<name>3691</name>
</trkpt>
<trkpt lat="49.229085" lon="11.726477">
<ele>616.6</ele>
<speed>5.0</speed>
<course>62.6</course>
<desc>Speed 5.0 km/h Distance 16.20 km</desc>
<time>2010-06-13T07:07:20.65</time>
<name>3692</name>
</trkpt>
<trkpt lat="49.229087" lon="11.726482">
<ele>618.6</ele>
<speed>2.7</speed>
<course>127.4</course>
<desc>Speed 2.7 km/h Distance 16.20 km</desc>
<time>2010-06-13T07:07:21.66</time>
<name>3693</name>
</trkpt>
<trkpt lat="49.229075" lon="11.726505">
<ele>617.3</ele>
<speed>4.3</speed>
<course>108.7</course>
<desc>Speed 4.3 km/h Distance 16.20 km</desc>
<time>2010-06-13T07:07:22.67</time>
<name>3694</name>
</trkpt>
<trkpt lat="49.229072" lon="11.726520">
<ele>617.2</ele>
<speed>4.4</speed>
<course>111.0</course>
<desc>Speed 4.4 km/h Distance 16.20 km</desc>
<time>2010-06-13T07:07:23.65</time>
<name>3695</name>
</trkpt>
<trkpt lat="49.229067" lon="11.726540">
<ele>618.3</ele>
<speed>4.8</speed>
<course>123.3</course>
<desc>Speed 4.8 km/h Distance 16.20 km</desc>
<time>2010-06-13T07:07:24.66</time>
<name>3696</name>
</trkpt>
<trkpt lat="49.229052" lon="11.726575">
<ele>619.8</ele>
<speed>6.7</speed>
<course>135.6</course>
<desc>Speed 6.7 km/h Distance 16.21 km</desc>
<time>2010-06-13T07:07:25.66</time>
<name>3697</name>
</trkpt>
<trkpt lat="49.229038" lon="11.726595">
<ele>620.7</ele>
<speed>6.1</speed>
<course>140.0</course>
<desc>Speed 6.1 km/h Distance 16.21 km</desc>
<time>2010-06-13T07:07:26.66</time>
<name>3698</name>
</trkpt>
<trkpt lat="49.229027" lon="11.726610">
<ele>620.3</ele>
<speed>4.2</speed>
<course>140.0</course>
<desc>Speed 4.2 km/h Distance 16.21 km</desc>
<time>2010-06-13T07:07:27.66</time>
<name>3699</name>
</trkpt>
<trkpt lat="49.229015" lon="11.726625">
<ele>619.0</ele>
<speed>5.4</speed>
<course>132.6</course>
<desc>Speed 5.4 km/h Distance 16.21 km</desc>
<time>2010-06-13T07:07:28.65</time>
<name>3700</name>
</trkpt>
<trkpt lat="49.228995" lon="11.726658">
<ele>619.1</ele>
<speed>6.5</speed>
<course>127.4</course>
<desc>Speed 6.5 km/h Distance 16.22 km</desc>
<time>2010-06-13T07:07:29.66</time>
<name>3701</name>
</trkpt>
<trkpt lat="49.228982" lon="11.726685">
<ele>618.1</ele>
<speed>6.6</speed>
<course>143.5</course>
<desc>Speed 6.6 km/h Distance 16.22 km</desc>
<time>2010-06-13T07:07:30.65</time>
<name>3702</name>
</trkpt>
<trkpt lat="49.228957" lon="11.726713">
<ele>618.4</ele>
<speed>6.2</speed>
<course>140.4</course>
<desc>Speed 6.2 km/h Distance 16.22 km</desc>
<time>2010-06-13T07:07:31.66</time>
<name>3703</name>
</trkpt>
<trkpt lat="49.228932" lon="11.726745">
<ele>619.4</ele>
<speed>4.8</speed>
<course>159.2</course>
<desc>Speed 4.8 km/h Distance 16.22 km</desc>
<time>2010-06-13T07:07:32.65</time>
<name>3704</name>
</trkpt>
<trkpt lat="49.228923" lon="11.726750">
<ele>620.8</ele>
<speed>2.4</speed>
<course>134.3</course>
<desc>Speed 2.4 km/h Distance 16.23 km</desc>
<time>2010-06-13T07:07:33.66</time>
<name>3705</name>
</trkpt>
<trkpt lat="49.228912" lon="11.726768">
<ele>622.0</ele>
<speed>2.0</speed>
<course>119.9</course>
<desc>Speed 2.0 km/h Distance 16.23 km</desc>
<time>2010-06-13T07:07:34.68</time>
<name>3706</name>
</trkpt>
<trkpt lat="49.228907" lon="11.726782">
<ele>622.3</ele>
<speed>1.9</speed>
<course>111.0</course>
<desc>Speed 1.9 km/h Distance 16.23 km</desc>
<time>2010-06-13T07:07:35.67</time>
<name>3707</name>
</trkpt>
<trkpt lat="49.228902" lon="11.726802">
<ele>623.6</ele>
<speed>3.3</speed>
<course>129.5</course>
<desc>Speed 3.3 km/h Distance 16.23 km</desc>
<time>2010-06-13T07:07:36.66</time>
<name>3708</name>
</trkpt>
<trkpt lat="49.228890" lon="11.726823">
<ele>624.5</ele>
<speed>5.6</speed>
<course>127.4</course>
<desc>Speed 5.6 km/h Distance 16.23 km</desc>
<time>2010-06-13T07:07:37.66</time>
<name>3709</name>
</trkpt>
<trkpt lat="49.228873" lon="11.726857">
<ele>624.2</ele>
<speed>6.0</speed>
<course>108.8</course>
<desc>Speed 6.0 km/h Distance 16.24 km</desc>
<time>2010-06-13T07:07:38.65</time>
<name>3710</name>
</trkpt>
<trkpt lat="49.228867" lon="11.726887">
<ele>624.5</ele>
<speed>4.7</speed>
<course>160.6</course>
<desc>Speed 4.7 km/h Distance 16.24 km</desc>
<time>2010-06-13T07:07:39.67</time>
<name>3711</name>
</trkpt>
<trkpt lat="49.228848" lon="11.726897">
<ele>628.3</ele>
<speed>4.2</speed>
<course>139.0</course>
<desc>Speed 4.2 km/h Distance 16.24 km</desc>
<time>2010-06-13T07:07:40.65</time>
<name>3712</name>
</trkpt>
<trkpt lat="49.228833" lon="11.726917">
<ele>629.6</ele>
<speed>5.4</speed>
<course>113.0</course>
<desc>Speed 5.4 km/h Distance 16.24 km</desc>
<time>2010-06-13T07:07:41.65</time>
<name>3713</name>
</trkpt>
<trkpt lat="49.228825" lon="11.726947">
<ele>630.3</ele>
<speed>5.6</speed>
<course>105.6</course>
<desc>Speed 5.6 km/h Distance 16.24 km</desc>
<time>2010-06-13T07:07:42.67</time>
<name>3714</name>
</trkpt>
<trkpt lat="49.228822" lon="11.726965">
<ele>629.0</ele>
<speed>4.3</speed>
<course>90.0</course>
<desc>Speed 4.3 km/h Distance 16.25 km</desc>
<time>2010-06-13T07:07:43.65</time>
<name>3715</name>
</trkpt>
<trkpt lat="49.228822" lon="11.726978">
<ele>628.9</ele>
<speed>3.6</speed>
<course>105.1</course>
<desc>Speed 3.6 km/h Distance 16.25 km</desc>
<time>2010-06-13T07:07:44.66</time>
<name>3716</name>
</trkpt>
<trkpt lat="49.228817" lon="11.727007">
<ele>628.9</ele>
<speed>4.3</speed>
<course>109.8</course>
<desc>Speed 4.3 km/h Distance 16.25 km</desc>
<time>2010-06-13T07:07:45.65</time>
<name>3717</name>
</trkpt>
<trkpt lat="49.228810" lon="11.727035">
<ele>628.3</ele>
<speed>3.6</speed>
<course>134.6</course>
<desc>Speed 3.6 km/h Distance 16.25 km</desc>
<time>2010-06-13T07:07:46.66</time>
<name>3718</name>
</trkpt>
<trkpt lat="49.228795" lon="11.727058">
<ele>630.9</ele>
<speed>5.0</speed>
<course>117.0</course>
<desc>Speed 5.0 km/h Distance 16.25 km</desc>
<time>2010-06-13T07:07:47.66</time>
<name>3719</name>
</trkpt>
<trkpt lat="49.228788" lon="11.727078">
<ele>632.0</ele>
<speed>4.5</speed>
<course>69.0</course>
<desc>Speed 4.5 km/h Distance 16.26 km</desc>
<time>2010-06-13T07:07:48.65</time>
<name>3720</name>
</trkpt>
<trkpt lat="49.228793" lon="11.727098">
<ele>631.9</ele>
<speed>4.8</speed>
<course>86.6</course>
<desc>Speed 4.8 km/h Distance 16.26 km</desc>
<time>2010-06-13T07:07:49.66</time>
<name>3721</name>
</trkpt>
<trkpt lat="49.228795" lon="11.727142">
<ele>630.6</ele>
<speed>6.7</speed>
<course>105.1</course>
<desc>Speed 6.7 km/h Distance 16.26 km</desc>
<time>2010-06-13T07:07:50.66</time>
<name>3722</name>
</trkpt>
<trkpt lat="49.228790" lon="11.727170">
<ele>630.0</ele>
<speed>4.8</speed>
<course>64.8</course>
<desc>Speed 4.8 km/h Distance 16.26 km</desc>
<time>2010-06-13T07:07:51.66</time>
<name>3723</name>
</trkpt>
<trkpt lat="49.228797" lon="11.727192">
<ele>629.8</ele>
<speed>4.6</speed>
<course>36.9</course>
<desc>Speed 4.6 km/h Distance 16.26 km</desc>
<time>2010-06-13T07:07:52.66</time>
<name>3724</name>
</trkpt>
<trkpt lat="49.228808" lon="11.727205">
<ele>630.6</ele>
<speed>3.6</speed>
<course>60.2</course>
<desc>Speed 3.6 km/h Distance 16.27 km</desc>
<time>2010-06-13T07:07:53.65</time>
<name>3725</name>
</trkpt>
<trkpt lat="49.228813" lon="11.727218">
<ele>630.1</ele>
<speed>3.3</speed>
<course>33.2</course>
<desc>Speed 3.3 km/h Distance 16.27 km</desc>
<time>2010-06-13T07:07:54.67</time>
<name>3726</name>
</trkpt>
<trkpt lat="49.228823" lon="11.727228">
<ele>628.4</ele>
<speed>2.6</speed>
<course>122.7</course>
<desc>Speed 2.6 km/h Distance 16.27 km</desc>
<time>2010-06-13T07:07:55.64</time>
<name>3727</name>
</trkpt>
<trkpt lat="49.228802" lon="11.727280">
<ele>628.9</ele>
<speed>3.1</speed>
<course>120.5</course>
<desc>Speed 3.1 km/h Distance 16.27 km</desc>
<time>2010-06-13T07:07:57.66</time>
<name>3728</name>
</trkpt>
<trkpt lat="49.228793" lon="11.727302">
<ele>628.9</ele>
<speed>3.1</speed>
<course>52.5</course>
<desc>Speed 3.1 km/h Distance 16.27 km</desc>
<time>2010-06-13T07:07:58.66</time>
<name>3729</name>
</trkpt>
<trkpt lat="49.228802" lon="11.727318">
<ele>628.2</ele>
<speed>4.1</speed>
<course>94.4</course>
<desc>Speed 4.1 km/h Distance 16.28 km</desc>
<time>2010-06-13T07:07:59.67</time>
<name>3730</name>
</trkpt>
<trkpt lat="49.228800" lon="11.727352">
<ele>629.5</ele>
<speed>3.7</speed>
<course>52.6</course>
<desc>Speed 3.7 km/h Distance 16.28 km</desc>
<time>2010-06-13T07:08:00.66</time>
<name>3731</name>
</trkpt>
<trkpt lat="49.228808" lon="11.727368">
<ele>630.6</ele>
<speed>4.4</speed>
<course>85.8</course>
<desc>Speed 4.4 km/h Distance 16.28 km</desc>
<time>2010-06-13T07:08:01.66</time>
<name>3732</name>
</trkpt>
<trkpt lat="49.228810" lon="11.727403">
<ele>630.2</ele>
<speed>5.4</speed>
<course>100.0</course>
<desc>Speed 5.4 km/h Distance 16.28 km</desc>
<time>2010-06-13T07:08:02.66</time>
<name>3733</name>
</trkpt>
<trkpt lat="49.228805" lon="11.727447">
<ele>630.1</ele>
<speed>5.1</speed>
<course>42.3</course>
<desc>Speed 5.1 km/h Distance 16.29 km</desc>
<time>2010-06-13T07:08:03.67</time>
<name>3734</name>
</trkpt>
<trkpt lat="49.228813" lon="11.727458">
<ele>630.1</ele>
<speed>4.1</speed>
<course>115.6</course>
<desc>Speed 4.1 km/h Distance 16.29 km</desc>
<time>2010-06-13T07:08:04.64</time>
<name>3735</name>
</trkpt>
<trkpt lat="49.228805" lon="11.727485">
<ele>630.1</ele>
<speed>3.7</speed>
<course>127.5</course>
<desc>Speed 3.7 km/h Distance 16.29 km</desc>
<time>2010-06-13T07:08:05.67</time>
<name>3736</name>
</trkpt>
<trkpt lat="49.228795" lon="11.727505">
<ele>632.2</ele>
<speed>3.1</speed>
<course>101.5</course>
<desc>Speed 3.1 km/h Distance 16.29 km</desc>
<time>2010-06-13T07:08:06.65</time>
<name>3737</name>
</trkpt>
<trkpt lat="49.228792" lon="11.727530">
<ele>634.9</ele>
<speed>3.4</speed>
<course>110.0</course>
<desc>Speed 3.4 km/h Distance 16.29 km</desc>
<time>2010-06-13T07:08:07.65</time>
<name>3738</name>
</trkpt>
<trkpt lat="49.228783" lon="11.727565">
<ele>635.8</ele>
<speed>5.7</speed>
<course>123.3</course>
<desc>Speed 5.7 km/h Distance 16.30 km</desc>
<time>2010-06-13T07:08:08.65</time>
<name>3739</name>
</trkpt>
<trkpt lat="49.228773" lon="11.727588">
<ele>637.8</ele>
<speed>4.7</speed>
<course>111.9</course>
<desc>Speed 4.7 km/h Distance 16.30 km</desc>
<time>2010-06-13T07:08:09.65</time>
<name>3740</name>
</trkpt>
<trkpt lat="49.228765" lon="11.727620">
<ele>638.8</ele>
<speed>4.2</speed>
<course>107.0</course>
<desc>Speed 4.2 km/h Distance 16.30 km</desc>
<time>2010-06-13T07:08:10.66</time>
<name>3741</name>
</trkpt>
<trkpt lat="49.228760" lon="11.727645">
<ele>639.7</ele>
<speed>4.2</speed>
<course>119.4</course>
<desc>Speed 4.2 km/h Distance 16.30 km</desc>
<time>2010-06-13T07:08:11.66</time>
<name>3742</name>
</trkpt>
<trkpt lat="49.228748" lon="11.727677">
<ele>640.4</ele>
<speed>5.8</speed>
<course>105.6</course>
<desc>Speed 5.8 km/h Distance 16.30 km</desc>
<time>2010-06-13T07:08:12.64</time>
<name>3743</name>
</trkpt>
<trkpt lat="49.228745" lon="11.727695">
<ele>639.4</ele>
<speed>4.3</speed>
<course>111.0</course>
<desc>Speed 4.3 km/h Distance 16.31 km</desc>
<time>2010-06-13T07:08:13.66</time>
<name>3744</name>
</trkpt>
<trkpt lat="49.228742" lon="11.727708">
<ele>638.7</ele>
<speed>3.9</speed>
<course>116.9</course>
<desc>Speed 3.9 km/h Distance 16.31 km</desc>
<time>2010-06-13T07:08:14.65</time>
<name>3745</name>
</trkpt>
<trkpt lat="49.228737" lon="11.727723">
<ele>638.6</ele>
<speed>2.8</speed>
<course>122.8</course>
<desc>Speed 2.8 km/h Distance 16.31 km</desc>
<time>2010-06-13T07:08:15.65</time>
<name>3746</name>
</trkpt>
<trkpt lat="49.228723" lon="11.727755">
<ele>638.6</ele>
<speed>2.9</speed>
<course>102.3</course>
<desc>Speed 2.9 km/h Distance 16.31 km</desc>
<time>2010-06-13T07:08:16.66</time>
<name>3747</name>
</trkpt>
<trkpt lat="49.228720" lon="11.727778">
<ele>638.0</ele>
<speed>3.7</speed>
<course>109.8</course>
<desc>Speed 3.7 km/h Distance 16.31 km</desc>
<time>2010-06-13T07:08:17.64</time>
<name>3748</name>
</trkpt>
<trkpt lat="49.228713" lon="11.727807">
<ele>637.2</ele>
<speed>3.6</speed>
<course>109.5</course>
<desc>Speed 3.6 km/h Distance 16.31 km</desc>
<time>2010-06-13T07:08:18.64</time>
<name>3749</name>
</trkpt>
<trkpt lat="49.228708" lon="11.727828">
<ele>636.8</ele>
<speed>4.0</speed>
<course>123.1</course>
<desc>Speed 4.0 km/h Distance 16.32 km</desc>
<time>2010-06-13T07:08:19.64</time>
<name>3750</name>
</trkpt>
<trkpt lat="49.228680" lon="11.727895">
<ele>635.1</ele>
<speed>5.3</speed>
<course>118.0</course>
<desc>Speed 5.3 km/h Distance 16.32 km</desc>
<time>2010-06-13T07:08:21.65</time>
<name>3751</name>
</trkpt>
<trkpt lat="49.228667" lon="11.727933">
<ele>634.2</ele>
<speed>4.7</speed>
<course>122.1</course>
<desc>Speed 4.7 km/h Distance 16.33 km</desc>
<time>2010-06-13T07:08:22.66</time>
<name>3752</name>
</trkpt>
<trkpt lat="49.228637" lon="11.728007">
<ele>631.2</ele>
<speed>6.7</speed>
<course>104.3</course>
<desc>Speed 6.7 km/h Distance 16.33 km</desc>
<time>2010-06-13T07:08:24.65</time>
<name>3753</name>
</trkpt>
<trkpt lat="49.228630" lon="11.728047">
<ele>630.5</ele>
<speed>8.7</speed>
<course>93.1</course>
<desc>Speed 8.7 km/h Distance 16.33 km</desc>
<time>2010-06-13T07:08:25.65</time>
<name>3754</name>
</trkpt>
<trkpt lat="49.228628" lon="11.728093">
<ele>630.3</ele>
<speed>8.0</speed>
<course>106.3</course>
<desc>Speed 8.0 km/h Distance 16.34 km</desc>
<time>2010-06-13T07:08:26.66</time>
<name>3755</name>
</trkpt>
<trkpt lat="49.228622" lon="11.728128">
<ele>629.2</ele>
<speed>6.7</speed>
<course>124.2</course>
<desc>Speed 6.7 km/h Distance 16.34 km</desc>
<time>2010-06-13T07:08:27.65</time>
<name>3756</name>
</trkpt>
<trkpt lat="49.228608" lon="11.728158">
<ele>628.5</ele>
<speed>5.1</speed>
<course>114.7</course>
<desc>Speed 5.1 km/h Distance 16.34 km</desc>
<time>2010-06-13T07:08:28.65</time>
<name>3757</name>
</trkpt>
<trkpt lat="49.228603" lon="11.728175">
<ele>628.0</ele>
<speed>5.6</speed>
<course>52.5</course>
<desc>Speed 5.6 km/h Distance 16.34 km</desc>
<time>2010-06-13T07:08:29.64</time>
<name>3758</name>
</trkpt>
<trkpt lat="49.228613" lon="11.728195">
<ele>628.8</ele>
<speed>6.3</speed>
<course>39.2</course>
<desc>Speed 6.3 km/h Distance 16.35 km</desc>
<time>2010-06-13T07:08:30.67</time>
<name>3759</name>
</trkpt>
<trkpt lat="49.228627" lon="11.728212">
<ele>628.6</ele>
<speed>5.6</speed>
<course>80.8</course>
<desc>Speed 5.6 km/h Distance 16.35 km</desc>
<time>2010-06-13T07:08:31.65</time>
<name>3760</name>
</trkpt>
<trkpt lat="49.228630" lon="11.728243">
<ele>628.2</ele>
<speed>5.7</speed>
<course>90.0</course>
<desc>Speed 5.7 km/h Distance 16.35 km</desc>
<time>2010-06-13T07:08:32.65</time>
<name>3761</name>
</trkpt>
<trkpt lat="49.228630" lon="11.728265">
<ele>629.3</ele>
<speed>7.0</speed>
<course>108.8</course>
<desc>Speed 7.0 km/h Distance 16.35 km</desc>
<time>2010-06-13T07:08:33.67</time>
<name>3762</name>
</trkpt>
<trkpt lat="49.228620" lon="11.728310">
<ele>630.8</ele>
<speed>7.5</speed>
<course>102.9</course>
<desc>Speed 7.5 km/h Distance 16.36 km</desc>
<time>2010-06-13T07:08:34.66</time>
<name>3763</name>
</trkpt>
<trkpt lat="49.228615" lon="11.728343">
<ele>630.4</ele>
<speed>6.1</speed>
<course>100.8</course>
<desc>Speed 6.1 km/h Distance 16.36 km</desc>
<time>2010-06-13T07:08:35.66</time>
<name>3764</name>
</trkpt>
<trkpt lat="49.228612" lon="11.728370">
<ele>629.7</ele>
<speed>6.0</speed>
<course>106.4</course>
<desc>Speed 6.0 km/h Distance 16.36 km</desc>
<time>2010-06-13T07:08:36.66</time>
<name>3765</name>
</trkpt>
<trkpt lat="49.228603" lon="11.728413">
<ele>628.6</ele>
<speed>6.9</speed>
<course>96.7</course>
<desc>Speed 6.9 km/h Distance 16.36 km</desc>
<time>2010-06-13T07:08:37.66</time>
<name>3766</name>
</trkpt>
<trkpt lat="49.228602" lon="11.728435">
<ele>630.4</ele>
<speed>4.7</speed>
<course>114.2</course>
<desc>Speed 4.7 km/h Distance 16.36 km</desc>
<time>2010-06-13T07:08:38.64</time>
<name>3767</name>
</trkpt>
<trkpt lat="49.228593" lon="11.728463">
<ele>630.8</ele>
<speed>6.6</speed>
<course>127.5</course>
<desc>Speed 6.6 km/h Distance 16.37 km</desc>
<time>2010-06-13T07:08:39.65</time>
<name>3768</name>
</trkpt>
<trkpt lat="49.228582" lon="11.728487">
<ele>631.7</ele>
<speed>6.7</speed>
<course>106.0</course>
<desc>Speed 6.7 km/h Distance 16.37 km</desc>
<time>2010-06-13T07:08:40.66</time>
<name>3769</name>
</trkpt>
<trkpt lat="49.228577" lon="11.728513">
<ele>631.1</ele>
<speed>5.5</speed>
<course>102.4</course>
<desc>Speed 5.5 km/h Distance 16.37 km</desc>
<time>2010-06-13T07:08:41.66</time>
<name>3770</name>
</trkpt>
<trkpt lat="49.228575" lon="11.728525">
<ele>630.7</ele>
<speed>4.7</speed>
<course>98.7</course>
<desc>Speed 4.7 km/h Distance 16.37 km</desc>
<time>2010-06-13T07:08:42.66</time>
<name>3771</name>
</trkpt>
<trkpt lat="49.228573" lon="11.728542">
<ele>630.0</ele>
<speed>5.2</speed>
<course>54.2</course>
<desc>Speed 5.2 km/h Distance 16.37 km</desc>
<time>2010-06-13T07:08:43.66</time>
<name>3772</name>
</trkpt>
<trkpt lat="49.228587" lon="11.728570">
<ele>628.5</ele>
<speed>5.7</speed>
<course>68.1</course>
<desc>Speed 5.7 km/h Distance 16.38 km</desc>
<time>2010-06-13T07:08:44.66</time>
<name>3773</name>
</trkpt>
<trkpt lat="49.228595" lon="11.728602">
<ele>629.6</ele>
<speed>6.4</speed>
<course>104.9</course>
<desc>Speed 6.4 km/h Distance 16.38 km</desc>
<time>2010-06-13T07:08:45.64</time>
<name>3774</name>
</trkpt>
<trkpt lat="49.228588" lon="11.728640">
<ele>629.3</ele>
<speed>7.2</speed>
<course>112.2</course>
<desc>Speed 7.2 km/h Distance 16.38 km</desc>
<time>2010-06-13T07:08:46.66</time>
<name>3775</name>
</trkpt>
<trkpt lat="49.228575" lon="11.728690">
<ele>628.0</ele>
<speed>9.1</speed>
<course>106.0</course>
<desc>Speed 9.1 km/h Distance 16.39 km</desc>
<time>2010-06-13T07:08:47.66</time>
<name>3776</name>
</trkpt>
<trkpt lat="49.228565" lon="11.728743">
<ele>627.6</ele>
<speed>13.1</speed>
<course>113.6</course>
<desc>Speed 13.1 km/h Distance 16.39 km</desc>
<time>2010-06-13T07:08:48.65</time>
<name>3777</name>
</trkpt>
<trkpt lat="49.228515" lon="11.728918">
<ele>628.1</ele>
<speed>16.7</speed>
<course>115.1</course>
<desc>Speed 16.7 km/h Distance 16.40 km</desc>
<time>2010-06-13T07:08:50.65</time>
<name>3778</name>
</trkpt>
<trkpt lat="49.228490" lon="11.729000">
<ele>628.2</ele>
<speed>15.9</speed>
<course>110.9</course>
<desc>Speed 15.9 km/h Distance 16.41 km</desc>
<time>2010-06-13T07:08:51.65</time>
<name>3779</name>
</trkpt>
<trkpt lat="49.228475" lon="11.729060">
<ele>629.0</ele>
<speed>16.1</speed>
<course>105.2</course>
<desc>Speed 16.1 km/h Distance 16.41 km</desc>
<time>2010-06-13T07:08:52.64</time>
<name>3780</name>
</trkpt>
<trkpt lat="49.228462" lon="11.729135">
<ele>627.2</ele>
<speed>17.3</speed>
<course>100.3</course>
<desc>Speed 17.3 km/h Distance 16.42 km</desc>
<time>2010-06-13T07:08:53.65</time>
<name>3781</name>
</trkpt>
<trkpt lat="49.228453" lon="11.729205">
<ele>625.2</ele>
<speed>16.5</speed>
<course>107.4</course>
<desc>Speed 16.5 km/h Distance 16.43 km</desc>
<time>2010-06-13T07:08:54.66</time>
<name>3782</name>
</trkpt>
<trkpt lat="49.228440" lon="11.729270">
<ele>624.5</ele>
<speed>16.9</speed>
<course>118.7</course>
<desc>Speed 16.9 km/h Distance 16.43 km</desc>
<time>2010-06-13T07:08:55.64</time>
<name>3783</name>
</trkpt>
<trkpt lat="49.228415" lon="11.729340">
<ele>624.9</ele>
<speed>18.8</speed>
<course>113.4</course>
<desc>Speed 18.8 km/h Distance 16.44 km</desc>
<time>2010-06-13T07:08:56.64</time>
<name>3784</name>
</trkpt>
<trkpt lat="49.228397" lon="11.729405">
<ele>624.8</ele>
<speed>19.1</speed>
<course>124.4</course>
<desc>Speed 19.1 km/h Distance 16.44 km</desc>
<time>2010-06-13T07:08:57.67</time>
<name>3785</name>
</trkpt>
<trkpt lat="49.228368" lon="11.729468">
<ele>625.2</ele>
<speed>18.9</speed>
<course>126.8</course>
<desc>Speed 18.9 km/h Distance 16.45 km</desc>
<time>2010-06-13T07:08:58.64</time>
<name>3786</name>
</trkpt>
<trkpt lat="49.228333" lon="11.729540">
<ele>624.8</ele>
<speed>19.9</speed>
<course>143.9</course>
<desc>Speed 19.9 km/h Distance 16.45 km</desc>
<time>2010-06-13T07:08:59.64</time>
<name>3787</name>
</trkpt>
<trkpt lat="49.228305" lon="11.729572">
<ele>625.5</ele>
<speed>19.9</speed>
<course>133.9</course>
<desc>Speed 19.9 km/h Distance 16.46 km</desc>
<time>2010-06-13T07:09:00.65</time>
<name>3788</name>
</trkpt>
<trkpt lat="49.228268" lon="11.729630">
<ele>625.1</ele>
<speed>20.8</speed>
<course>137.0</course>
<desc>Speed 20.8 km/h Distance 16.46 km</desc>
<time>2010-06-13T07:09:01.65</time>
<name>3789</name>
</trkpt>
<trkpt lat="49.228222" lon="11.729697">
<ele>625.2</ele>
<speed>21.1</speed>
<course>137.9</course>
<desc>Speed 21.1 km/h Distance 16.47 km</desc>
<time>2010-06-13T07:09:02.64</time>
<name>3790</name>
</trkpt>
<trkpt lat="49.228178" lon="11.729757">
<ele>625.1</ele>
<speed>21.4</speed>
<course>136.8</course>
<desc>Speed 21.4 km/h Distance 16.48 km</desc>
<time>2010-06-13T07:09:03.66</time>
<name>3791</name>
</trkpt>
<trkpt lat="49.228137" lon="11.729817">
<ele>624.5</ele>
<speed>22.0</speed>
<course>139.8</course>
<desc>Speed 22.0 km/h Distance 16.48 km</desc>
<time>2010-06-13T07:09:04.65</time>
<name>3792</name>
</trkpt>
<trkpt lat="49.228092" lon="11.729875">
<ele>623.9</ele>
<speed>23.2</speed>
<course>141.0</course>
<desc>Speed 23.2 km/h Distance 16.49 km</desc>
<time>2010-06-13T07:09:05.64</time>
<name>3793</name>
</trkpt>
<trkpt lat="49.228043" lon="11.729935">
<ele>623.2</ele>
<speed>24.6</speed>
<course>144.5</course>
<desc>Speed 24.6 km/h Distance 16.50 km</desc>
<time>2010-06-13T07:09:06.63</time>
<name>3794</name>
</trkpt>
<trkpt lat="49.227988" lon="11.729995">
<ele>622.6</ele>
<speed>26.2</speed>
<course>146.8</course>
<desc>Speed 26.2 km/h Distance 16.50 km</desc>
<time>2010-06-13T07:09:07.66</time>
<name>3795</name>
</trkpt>
<trkpt lat="49.227930" lon="11.730053">
<ele>622.1</ele>
<speed>27.8</speed>
<course>145.5</course>
<desc>Speed 27.8 km/h Distance 16.51 km</desc>
<time>2010-06-13T07:09:08.65</time>
<name>3796</name>
</trkpt>
<trkpt lat="49.227868" lon="11.730118">
<ele>621.6</ele>
<speed>29.4</speed>
<course>138.5</course>
<desc>Speed 29.4 km/h Distance 16.52 km</desc>
<time>2010-06-13T07:09:09.65</time>
<name>3797</name>
</trkpt>
<trkpt lat="49.227812" lon="11.730195">
<ele>619.9</ele>
<speed>29.9</speed>
<course>142.0</course>
<desc>Speed 29.9 km/h Distance 16.53 km</desc>
<time>2010-06-13T07:09:10.63</time>
<name>3798</name>
</trkpt>
<trkpt lat="49.227752" lon="11.730267">
<ele>619.2</ele>
<speed>29.3</speed>
<course>144.8</course>
<desc>Speed 29.3 km/h Distance 16.54 km</desc>
<time>2010-06-13T07:09:11.64</time>
<name>3799</name>
</trkpt>
<trkpt lat="49.227690" lon="11.730333">
<ele>619.0</ele>
<speed>29.6</speed>
<course>136.8</course>
<desc>Speed 29.6 km/h Distance 16.55 km</desc>
<time>2010-06-13T07:09:12.64</time>
<name>3800</name>
</trkpt>
<trkpt lat="49.227637" lon="11.730410">
<ele>618.0</ele>
<speed>29.4</speed>
<course>141.9</course>
<desc>Speed 29.4 km/h Distance 16.55 km</desc>
<time>2010-06-13T07:09:13.64</time>
<name>3801</name>
</trkpt>
<trkpt lat="49.227578" lon="11.730480">
<ele>617.2</ele>
<speed>28.9</speed>
<course>130.1</course>
<desc>Speed 28.9 km/h Distance 16.56 km</desc>
<time>2010-06-13T07:09:14.65</time>
<name>3802</name>
</trkpt>
<trkpt lat="49.227532" lon="11.730565">
<ele>615.5</ele>
<speed>29.4</speed>
<course>132.4</course>
<desc>Speed 29.4 km/h Distance 16.57 km</desc>
<time>2010-06-13T07:09:15.64</time>
<name>3803</name>
</trkpt>
<trkpt lat="49.227480" lon="11.730652">
<ele>615.7</ele>
<speed>30.6</speed>
<course>118.8</course>
<desc>Speed 30.6 km/h Distance 16.58 km</desc>
<time>2010-06-13T07:09:16.64</time>
<name>3804</name>
</trkpt>
<trkpt lat="49.227442" lon="11.730758">
<ele>614.0</ele>
<speed>32.2</speed>
<course>120.1</course>
<desc>Speed 32.2 km/h Distance 16.59 km</desc>
<time>2010-06-13T07:09:17.66</time>
<name>3805</name>
</trkpt>
<trkpt lat="49.227400" lon="11.730868">
<ele>614.1</ele>
<speed>33.5</speed>
<course>112.4</course>
<desc>Speed 33.5 km/h Distance 16.60 km</desc>
<time>2010-06-13T07:09:18.65</time>
<name>3806</name>
</trkpt>
<trkpt lat="49.227365" lon="11.730998">
<ele>613.4</ele>
<speed>34.4</speed>
<course>110.9</course>
<desc>Speed 34.4 km/h Distance 16.61 km</desc>
<time>2010-06-13T07:09:19.65</time>
<name>3807</name>
</trkpt>
<trkpt lat="49.227333" lon="11.731125">
<ele>609.9</ele>
<speed>35.2</speed>
<course>109.4</course>
<desc>Speed 35.2 km/h Distance 16.62 km</desc>
<time>2010-06-13T07:09:20.65</time>
<name>3808</name>
</trkpt>
<trkpt lat="49.227300" lon="11.731270">
<ele>608.3</ele>
<speed>37.0</speed>
<course>112.9</course>
<desc>Speed 37.0 km/h Distance 16.63 km</desc>
<time>2010-06-13T07:09:21.64</time>
<name>3809</name>
</trkpt>
<trkpt lat="49.227265" lon="11.731397">
<ele>608.1</ele>
<speed>36.2</speed>
<course>112.6</course>
<desc>Speed 36.2 km/h Distance 16.64 km</desc>
<time>2010-06-13T07:09:22.64</time>
<name>3810</name>
</trkpt>
<trkpt lat="49.227228" lon="11.731532">
<ele>606.1</ele>
<speed>35.7</speed>
<course>109.2</course>
<desc>Speed 35.7 km/h Distance 16.65 km</desc>
<time>2010-06-13T07:09:23.65</time>
<name>3811</name>
</trkpt>
<trkpt lat="49.227195" lon="11.731678">
<ele>604.8</ele>
<speed>39.3</speed>
<course>109.4</course>
<desc>Speed 39.3 km/h Distance 16.66 km</desc>
<time>2010-06-13T07:09:24.65</time>
<name>3812</name>
</trkpt>
<trkpt lat="49.227157" lon="11.731845">
<ele>605.0</ele>
<speed>40.6</speed>
<course>97.8</course>
<desc>Speed 40.6 km/h Distance 16.67 km</desc>
<time>2010-06-13T07:09:25.67</time>
<name>3813</name>
</trkpt>
<trkpt lat="49.227143" lon="11.731993">
<ele>604.6</ele>
<speed>40.7</speed>
<course>101.7</course>
<desc>Speed 40.7 km/h Distance 16.68 km</desc>
<time>2010-06-13T07:09:26.66</time>
<name>3814</name>
</trkpt>
<trkpt lat="49.227122" lon="11.732153">
<ele>605.1</ele>
<speed>39.6</speed>
<course>106.0</course>
<desc>Speed 39.6 km/h Distance 16.70 km</desc>
<time>2010-06-13T07:09:27.63</time>
<name>3815</name>
</trkpt>
<trkpt lat="49.227092" lon="11.732313">
<ele>605.8</ele>
<speed>39.4</speed>
<course>111.9</course>
<desc>Speed 39.4 km/h Distance 16.71 km</desc>
<time>2010-06-13T07:09:28.65</time>
<name>3816</name>
</trkpt>
<trkpt lat="49.227055" lon="11.732453">
<ele>606.9</ele>
<speed>37.4</speed>
<course>107.4</course>
<desc>Speed 37.4 km/h Distance 16.72 km</desc>
<time>2010-06-13T07:09:29.65</time>
<name>3817</name>
</trkpt>
<trkpt lat="49.227025" lon="11.732600">
<ele>607.1</ele>
<speed>37.0</speed>
<course>107.4</course>
<desc>Speed 37.0 km/h Distance 16.73 km</desc>
<time>2010-06-13T07:09:30.64</time>
<name>3818</name>
</trkpt>
<trkpt lat="49.226997" lon="11.732738">
<ele>607.1</ele>
<speed>35.2</speed>
<course>112.6</course>
<desc>Speed 35.2 km/h Distance 16.74 km</desc>
<time>2010-06-13T07:09:31.64</time>
<name>3819</name>
</trkpt>
<trkpt lat="49.226965" lon="11.732855">
<ele>607.8</ele>
<speed>35.7</speed>
<course>111.5</course>
<desc>Speed 35.7 km/h Distance 16.75 km</desc>
<time>2010-06-13T07:09:32.65</time>
<name>3820</name>
</trkpt>
<trkpt lat="49.226937" lon="11.732965">
<ele>607.8</ele>
<speed>33.0</speed>
<course>93.9</course>
<desc>Speed 33.0 km/h Distance 16.76 km</desc>
<time>2010-06-13T07:09:33.65</time>
<name>3821</name>
</trkpt>
<trkpt lat="49.226928" lon="11.733150">
<ele>603.1</ele>
<speed>14.9</speed>
<course>120.8</course>
<desc>Speed 14.9 km/h Distance 16.77 km</desc>
<time>2010-06-13T07:09:36.65</time>
<name>3822</name>
</trkpt>
<trkpt lat="49.226858" lon="11.733330">
<ele>597.6</ele>
<speed>22.6</speed>
<course>124.0</course>
<desc>Speed 22.6 km/h Distance 16.79 km</desc>
<time>2010-06-13T07:09:38.64</time>
<name>3823</name>
</trkpt>
<trkpt lat="49.226675" lon="11.733747">
<ele>591.7</ele>
<speed>38.6</speed>
<course>123.0</course>
<desc>Speed 38.6 km/h Distance 16.82 km</desc>
<time>2010-06-13T07:09:41.65</time>
<name>3824</name>
</trkpt>
<trkpt lat="49.226545" lon="11.734053">
<ele>590.3</ele>
<speed>39.4</speed>
<course>116.3</course>
<desc>Speed 39.4 km/h Distance 16.85 km</desc>
<time>2010-06-13T07:09:43.64</time>
<name>3825</name>
</trkpt>
<trkpt lat="49.226497" lon="11.734203">
<ele>589.3</ele>
<speed>38.4</speed>
<course>115.5</course>
<desc>Speed 38.4 km/h Distance 16.86 km</desc>
<time>2010-06-13T07:09:44.64</time>
<name>3826</name>
</trkpt>
<trkpt lat="49.226450" lon="11.734353">
<ele>586.6</ele>
<speed>36.8</speed>
<course>117.0</course>
<desc>Speed 36.8 km/h Distance 16.87 km</desc>
<time>2010-06-13T07:09:45.65</time>
<name>3827</name>
</trkpt>
<trkpt lat="49.226403" lon="11.734493">
<ele>586.3</ele>
<speed>36.0</speed>
<course>120.1</course>
<desc>Speed 36.0 km/h Distance 16.89 km</desc>
<time>2010-06-13T07:09:46.64</time>
<name>3828</name>
</trkpt>
<trkpt lat="49.226352" lon="11.734630">
<ele>586.1</ele>
<speed>35.3</speed>
<course>120.3</course>
<desc>Speed 35.3 km/h Distance 16.90 km</desc>
<time>2010-06-13T07:09:47.63</time>
<name>3829</name>
</trkpt>
<trkpt lat="49.226308" lon="11.734743">
<ele>586.4</ele>
<speed>33.8</speed>
<course>119.0</course>
<desc>Speed 33.8 km/h Distance 16.91 km</desc>
<time>2010-06-13T07:09:48.65</time>
<name>3830</name>
</trkpt>
<trkpt lat="49.226273" lon="11.734840">
<ele>586.1</ele>
<speed>30.4</speed>
<course>115.7</course>
<desc>Speed 30.4 km/h Distance 16.91 km</desc>
<time>2010-06-13T07:09:49.64</time>
<name>3831</name>
</trkpt>
<trkpt lat="49.226247" lon="11.734925">
<ele>585.5</ele>
<speed>26.7</speed>
<course>119.1</course>
<desc>Speed 26.7 km/h Distance 16.92 km</desc>
<time>2010-06-13T07:09:50.64</time>
<name>3832</name>
</trkpt>
<trkpt lat="49.226213" lon="11.735017">
<ele>585.7</ele>
<speed>24.4</speed>
<course>119.5</course>
<desc>Speed 24.4 km/h Distance 16.93 km</desc>
<time>2010-06-13T07:09:51.65</time>
<name>3833</name>
</trkpt>
<trkpt lat="49.226185" lon="11.735093">
<ele>585.4</ele>
<speed>21.8</speed>
<course>108.0</course>
<desc>Speed 21.8 km/h Distance 16.94 km</desc>
<time>2010-06-13T07:09:52.65</time>
<name>3834</name>
</trkpt>
<trkpt lat="49.226173" lon="11.735148">
<ele>585.1</ele>
<speed>19.2</speed>
<course>113.9</course>
<desc>Speed 19.2 km/h Distance 16.94 km</desc>
<time>2010-06-13T07:09:53.64</time>
<name>3835</name>
</trkpt>
<trkpt lat="49.226155" lon="11.735212">
<ele>584.9</ele>
<speed>17.6</speed>
<course>105.8</course>
<desc>Speed 17.6 km/h Distance 16.94 km</desc>
<time>2010-06-13T07:09:54.64</time>
<name>3836</name>
</trkpt>
<trkpt lat="49.226147" lon="11.735257">
<ele>584.1</ele>
<speed>14.4</speed>
<course>113.6</course>
<desc>Speed 14.4 km/h Distance 16.95 km</desc>
<time>2010-06-13T07:09:55.65</time>
<name>3837</name>
</trkpt>
<trkpt lat="49.226137" lon="11.735292">
<ele>583.3</ele>
<speed>12.0</speed>
<course>114.7</course>
<desc>Speed 12.0 km/h Distance 16.95 km</desc>
<time>2010-06-13T07:09:56.64</time>
<name>3838</name>
</trkpt>
<trkpt lat="49.226127" lon="11.735325">
<ele>582.8</ele>
<speed>10.8</speed>
<course>113.3</course>
<desc>Speed 10.8 km/h Distance 16.95 km</desc>
<time>2010-06-13T07:09:57.64</time>
<name>3839</name>
</trkpt>
<trkpt lat="49.226112" lon="11.735378">
<ele>583.1</ele>
<speed>11.1</speed>
<course>103.9</course>
<desc>Speed 11.1 km/h Distance 16.96 km</desc>
<time>2010-06-13T07:09:58.63</time>
<name>3840</name>
</trkpt>
<trkpt lat="49.226103" lon="11.735430">
<ele>583.6</ele>
<speed>10.6</speed>
<course>35.9</course>
<desc>Speed 10.6 km/h Distance 16.96 km</desc>
<time>2010-06-13T07:09:59.65</time>
<name>3841</name>
</trkpt>
<trkpt lat="49.226118" lon="11.735447">
<ele>583.4</ele>
<speed>7.5</speed>
<course>2.8</course>
<desc>Speed 7.5 km/h Distance 16.96 km</desc>
<time>2010-06-13T07:10:00.64</time>
<name>3842</name>
</trkpt>
<trkpt lat="49.226135" lon="11.735448">
<ele>583.3</ele>
<speed>6.2</speed>
<course>349.1</course>
<desc>Speed 6.2 km/h Distance 16.97 km</desc>
<time>2010-06-13T07:10:01.63</time>
<name>3843</name>
</trkpt>
<trkpt lat="49.226163" lon="11.735440">
<ele>582.3</ele>
<speed>7.2</speed>
<course>339.0</course>
<desc>Speed 7.2 km/h Distance 16.97 km</desc>
<time>2010-06-13T07:10:02.64</time>
<name>3844</name>
</trkpt>
<trkpt lat="49.226192" lon="11.735423">
<ele>580.8</ele>
<speed>5.8</speed>
<course>310.3</course>
<desc>Speed 5.8 km/h Distance 16.97 km</desc>
<time>2010-06-13T07:10:03.65</time>
<name>3845</name>
</trkpt>
<trkpt lat="49.226200" lon="11.735408">
<ele>582.7</ele>
<speed>5.5</speed>
<course>318.8</course>
<desc>Speed 5.5 km/h Distance 16.97 km</desc>
<time>2010-06-13T07:10:04.65</time>
<name>3846</name>
</trkpt>
<trkpt lat="49.226210" lon="11.735395">
<ele>583.8</ele>
<speed>4.7</speed>
<course>313.6</course>
<desc>Speed 4.7 km/h Distance 16.97 km</desc>
<time>2010-06-13T07:10:05.66</time>
<name>3847</name>
</trkpt>
<trkpt lat="49.226218" lon="11.735382">
<ele>586.2</ele>
<speed>4.1</speed>
<course>205.4</course>
<desc>Speed 4.1 km/h Distance 16.98 km</desc>
<time>2010-06-13T07:10:06.64</time>
<name>3848</name>
</trkpt>
<trkpt lat="49.226213" lon="11.735378">
<ele>589.1</ele>
<speed>2.2</speed>
<course>141.9</course>
<desc>Speed 2.2 km/h Distance 16.98 km</desc>
<time>2010-06-13T07:10:07.63</time>
<name>3849</name>
</trkpt>
<trkpt lat="49.226197" lon="11.735398">
<ele>590.4</ele>
<speed>0.7</speed>
<course>151.4</course>
<desc>Speed 0.7 km/h Distance 16.98 km</desc>
<time>2010-06-13T07:10:08.64</time>
<name>3850</name>
</trkpt>
<trkpt lat="49.226157" lon="11.735432">
<ele>593.5</ele>
<speed>1.7</speed>
<course>252.9</course>
<desc>Speed 1.7 km/h Distance 16.98 km</desc>
<time>2010-06-13T07:10:10.65</time>
<name>3851</name>
</trkpt>
<trkpt lat="49.226155" lon="11.735423">
<ele>592.3</ele>
<speed>0.4</speed>
<course>319.7</course>
<desc>Speed 0.4 km/h Distance 16.98 km</desc>
<time>2010-06-13T07:10:11.64</time>
<name>3852</name>
</trkpt>
<trkpt lat="49.226160" lon="11.735417">
<ele>595.6</ele>
<speed>2.2</speed>
<course>247.8</course>
<desc>Speed 2.2 km/h Distance 16.99 km</desc>
<time>2010-06-13T07:10:12.65</time>
<name>3853</name>
</trkpt>
<trkpt lat="49.226153" lon="11.735392">
<ele>600.4</ele>
<speed>2.5</speed>
<course>192.6</course>
<desc>Speed 2.5 km/h Distance 16.99 km</desc>
<time>2010-06-13T07:10:13.64</time>
<name>3854</name>
</trkpt>
<trkpt lat="49.226148" lon="11.735390">
<ele>602.4</ele>
<speed>2.7</speed>
<course>6.5</course>
<desc>Speed 2.7 km/h Distance 16.99 km</desc>
<time>2010-06-13T07:10:14.64</time>
<name>3855</name>
</trkpt>
<trkpt lat="49.226167" lon="11.735393">
<ele>603.3</ele>
<speed>2.4</speed>
<course>152.1</course>
<desc>Speed 2.4 km/h Distance 16.99 km</desc>
<time>2010-06-13T07:10:15.63</time>
<name>3856</name>
</trkpt>
<trkpt lat="49.226158" lon="11.735400">
<ele>603.7</ele>
<speed>0.3</speed>
<course>207.0</course>
<desc>Speed 0.3 km/h Distance 16.99 km</desc>
<time>2010-06-13T07:10:16.65</time>
<name>3857</name>
</trkpt>
<trkpt lat="49.226143" lon="11.735388">
<ele>603.7</ele>
<speed>2.1</speed>
<course>53.0</course>
<desc>Speed 2.1 km/h Distance 16.99 km</desc>
<time>2010-06-13T07:10:17.65</time>
<name>3858</name>
</trkpt>
<trkpt lat="49.226147" lon="11.735395">
<ele>603.1</ele>
<speed>0.3</speed>
<course>218.4</course>
<desc>Speed 0.3 km/h Distance 16.99 km</desc>
<time>2010-06-13T07:10:18.63</time>
<name>3859</name>
</trkpt>
<trkpt lat="49.226123" lon="11.735367">
<ele>606.2</ele>
<speed>1.5</speed>
<course>90.0</course>
<desc>Speed 1.5 km/h Distance 17.00 km</desc>
<time>2010-06-13T07:10:20.64</time>
<name>3860</name>
</trkpt>
<trkpt lat="49.226123" lon="11.735370">
<ele>606.6</ele>
<speed>0.9</speed>
<course>65.3</course>
<desc>Speed 0.9 km/h Distance 17.00 km</desc>
<time>2010-06-13T07:10:21.65</time>
<name>3861</name>
</trkpt>
<trkpt lat="49.226128" lon="11.735387">
<ele>605.0</ele>
<speed>0.9</speed>
<course>206.4</course>
<desc>Speed 0.9 km/h Distance 17.00 km</desc>
<time>2010-06-13T07:10:22.65</time>
<name>3862</name>
</trkpt>
<trkpt lat="49.226122" lon="11.735382">
<ele>606.3</ele>
<speed>1.4</speed>
<course>196.0</course>
<desc>Speed 1.4 km/h Distance 17.00 km</desc>
<time>2010-06-13T07:10:23.65</time>
<name>3863</name>
</trkpt>
<trkpt lat="49.226110" lon="11.735377">
<ele>607.7</ele>
<speed>0.9</speed>
<course>146.3</course>
<desc>Speed 0.9 km/h Distance 17.00 km</desc>
<time>2010-06-13T07:10:24.65</time>
<name>3864</name>
</trkpt>
<trkpt lat="49.226103" lon="11.735383">
<ele>607.5</ele>
<speed>1.3</speed>
<course>209.8</course>
<desc>Speed 1.3 km/h Distance 17.00 km</desc>
<time>2010-06-13T07:10:25.65</time>
<name>3865</name>
</trkpt>
<trkpt lat="49.226090" lon="11.735372">
<ele>609.0</ele>
<speed>1.9</speed>
<course>217.2</course>
<desc>Speed 1.9 km/h Distance 17.00 km</desc>
<time>2010-06-13T07:10:26.65</time>
<name>3866</name>
</trkpt>
<trkpt lat="49.226080" lon="11.735360">
<ele>611.3</ele>
<speed>1.7</speed>
<course>216.4</course>
<desc>Speed 1.7 km/h Distance 17.00 km</desc>
<time>2010-06-13T07:10:27.64</time>
<name>3867</name>
</trkpt>
<trkpt lat="49.226067" lon="11.735345">
<ele>614.2</ele>
<speed>2.4</speed>
<course>190.3</course>
<desc>Speed 2.4 km/h Distance 17.01 km</desc>
<time>2010-06-13T07:10:28.65</time>
<name>3868</name>
</trkpt>
<trkpt lat="49.226060" lon="11.735343">
<ele>616.5</ele>
<speed>0.8</speed>
<course>33.1</course>
<desc>Speed 0.8 km/h Distance 17.01 km</desc>
<time>2010-06-13T07:10:29.64</time>
<name>3869</name>
</trkpt>
<trkpt lat="49.226077" lon="11.735360">
<ele>619.0</ele>
<speed>0.8</speed>
<course>277.3</course>
<desc>Speed 0.8 km/h Distance 17.01 km</desc>
<time>2010-06-13T07:10:30.65</time>
<name>3870</name>
</trkpt>
<trkpt lat="49.226078" lon="11.735340">
<ele>620.5</ele>
<speed>1.8</speed>
<course>247.3</course>
<desc>Speed 1.8 km/h Distance 17.01 km</desc>
<time>2010-06-13T07:10:31.64</time>
<name>3871</name>
</trkpt>
<trkpt lat="49.226068" lon="11.735303">
<ele>623.1</ele>
<speed>1.2</speed>
<course>167.4</course>
<desc>Speed 1.2 km/h Distance 17.01 km</desc>
<time>2010-06-13T07:10:33.63</time>
<name>3872</name>
</trkpt>
<trkpt lat="49.226067" lon="11.735303">
<ele>628.4</ele>
<speed>0.9</speed>
<course>350.0</course>
<desc>Speed 0.9 km/h Distance 17.01 km</desc>
<time>2010-06-13T07:10:34.64</time>
<name>3873</name>
</trkpt>
<trkpt lat="49.226110" lon="11.735292">
<ele>627.9</ele>
<speed>3.8</speed>
<course>309.0</course>
<desc>Speed 3.8 km/h Distance 17.02 km</desc>
<time>2010-06-13T07:10:36.64</time>
<name>3874</name>
</trkpt>
<trkpt lat="49.226125" lon="11.735263">
<ele>632.5</ele>
<speed>5.1</speed>
<course>340.6</course>
<desc>Speed 5.1 km/h Distance 17.02 km</desc>
<time>2010-06-13T07:10:37.66</time>
<name>3875</name>
</trkpt>
<trkpt lat="49.226147" lon="11.735252">
<ele>634.3</ele>
<speed>5.9</speed>
<course>352.3</course>
<desc>Speed 5.9 km/h Distance 17.02 km</desc>
<time>2010-06-13T07:10:38.65</time>
<name>3876</name>
</trkpt>
<trkpt lat="49.226163" lon="11.735248">
<ele>634.6</ele>
<speed>5.5</speed>
<course>329.4</course>
<desc>Speed 5.5 km/h Distance 17.03 km</desc>
<time>2010-06-13T07:10:39.65</time>
<name>3877</name>
</trkpt>
<trkpt lat="49.226180" lon="11.735233">
<ele>637.0</ele>
<speed>5.0</speed>
<course>338.5</course>
<desc>Speed 5.0 km/h Distance 17.03 km</desc>
<time>2010-06-13T07:10:40.63</time>
<name>3878</name>
</trkpt>
<trkpt lat="49.226188" lon="11.735228">
<ele>637.9</ele>
<speed>3.6</speed>
<course>51.0</course>
<desc>Speed 3.6 km/h Distance 17.03 km</desc>
<time>2010-06-13T07:10:41.65</time>
<name>3879</name>
</trkpt>
<trkpt lat="49.226203" lon="11.735257">
<ele>637.9</ele>
<speed>2.7</speed>
<course>25.4</course>
<desc>Speed 2.7 km/h Distance 17.03 km</desc>
<time>2010-06-13T07:10:42.63</time>
<name>3880</name>
</trkpt>
<trkpt lat="49.226222" lon="11.735270">
<ele>635.9</ele>
<speed>5.2</speed>
<course>28.5</course>
<desc>Speed 5.2 km/h Distance 17.03 km</desc>
<time>2010-06-13T07:10:43.64</time>
<name>3881</name>
</trkpt>
<trkpt lat="49.226242" lon="11.735287">
<ele>633.9</ele>
<speed>4.2</speed>
<course>25.6</course>
<desc>Speed 4.2 km/h Distance 17.04 km</desc>
<time>2010-06-13T07:10:44.65</time>
<name>3882</name>
</trkpt>
<trkpt lat="49.226267" lon="11.735305">
<ele>629.1</ele>
<speed>5.1</speed>
<course>322.8</course>
<desc>Speed 5.1 km/h Distance 17.04 km</desc>
<time>2010-06-13T07:10:45.63</time>
<name>3883</name>
</trkpt>
<trkpt lat="49.226277" lon="11.735293">
<ele>630.7</ele>
<speed>4.0</speed>
<course>324.1</course>
<desc>Speed 4.0 km/h Distance 17.04 km</desc>
<time>2010-06-13T07:10:46.65</time>
<name>3884</name>
</trkpt>
<trkpt lat="49.226292" lon="11.735277">
<ele>628.7</ele>
<speed>4.1</speed>
<course>81.3</course>
<desc>Speed 4.1 km/h Distance 17.04 km</desc>
<time>2010-06-13T07:10:47.63</time>
<name>3885</name>
</trkpt>
<trkpt lat="49.226293" lon="11.735293">
<ele>629.8</ele>
<speed>3.5</speed>
<course>35.3</course>
<desc>Speed 3.5 km/h Distance 17.04 km</desc>
<time>2010-06-13T07:10:48.65</time>
<name>3886</name>
</trkpt>
<trkpt lat="49.226313" lon="11.735315">
<ele>630.6</ele>
<speed>5.2</speed>
<course>76.7</course>
<desc>Speed 5.2 km/h Distance 17.05 km</desc>
<time>2010-06-13T07:10:49.65</time>
<name>3887</name>
</trkpt>
<trkpt lat="49.226317" lon="11.735337">
<ele>630.4</ele>
<speed>4.2</speed>
<course>46.3</course>
<desc>Speed 4.2 km/h Distance 17.05 km</desc>
<time>2010-06-13T07:10:50.64</time>
<name>3888</name>
</trkpt>
<trkpt lat="49.226333" lon="11.735363">
<ele>627.6</ele>
<speed>4.1</speed>
<course>48.9</course>
<desc>Speed 4.1 km/h Distance 17.05 km</desc>
<time>2010-06-13T07:10:51.65</time>
<name>3889</name>
</trkpt>
<trkpt lat="49.226340" lon="11.735375">
<ele>627.5</ele>
<speed>4.9</speed>
<course>33.2</course>
<desc>Speed 4.9 km/h Distance 17.05 km</desc>
<time>2010-06-13T07:10:52.64</time>
<name>3890</name>
</trkpt>
<trkpt lat="49.226353" lon="11.735388">
<ele>626.8</ele>
<speed>4.2</speed>
<course>48.3</course>
<desc>Speed 4.2 km/h Distance 17.05 km</desc>
<time>2010-06-13T07:10:53.65</time>
<name>3891</name>
</trkpt>
<trkpt lat="49.226365" lon="11.735408">
<ele>628.9</ele>
<speed>3.2</speed>
<course>46.7</course>
<desc>Speed 3.2 km/h Distance 17.06 km</desc>
<time>2010-06-13T07:10:54.65</time>
<name>3892</name>
</trkpt>
<trkpt lat="49.226378" lon="11.735430">
<ele>628.2</ele>
<speed>2.8</speed>
<course>26.4</course>
<desc>Speed 2.8 km/h Distance 17.06 km</desc>
<time>2010-06-13T07:10:55.64</time>
<name>3893</name>
</trkpt>
<trkpt lat="49.226385" lon="11.735435">
<ele>628.0</ele>
<speed>3.1</speed>
<course>46.7</course>
<desc>Speed 3.1 km/h Distance 17.06 km</desc>
<time>2010-06-13T07:10:56.65</time>
<name>3894</name>
</trkpt>
<trkpt lat="49.226398" lon="11.735457">
<ele>626.4</ele>
<speed>3.9</speed>
<course>90.0</course>
<desc>Speed 3.9 km/h Distance 17.06 km</desc>
<time>2010-06-13T07:10:57.65</time>
<name>3895</name>
</trkpt>
<trkpt lat="49.226398" lon="11.735473">
<ele>627.5</ele>
<speed>3.7</speed>
<course>90.0</course>
<desc>Speed 3.7 km/h Distance 17.06 km</desc>
<time>2010-06-13T07:10:58.65</time>
<name>3896</name>
</trkpt>
<trkpt lat="49.226398" lon="11.735502">
<ele>630.0</ele>
<speed>3.4</speed>
<course>65.8</course>
<desc>Speed 3.4 km/h Distance 17.06 km</desc>
<time>2010-06-13T07:10:59.64</time>
<name>3897</name>
</trkpt>
<trkpt lat="49.226407" lon="11.735530">
<ele>631.4</ele>
<speed>4.4</speed>
<course>69.1</course>
<desc>Speed 4.4 km/h Distance 17.07 km</desc>
<time>2010-06-13T07:11:00.64</time>
<name>3898</name>
</trkpt>
<trkpt lat="49.226413" lon="11.735557">
<ele>631.3</ele>
<speed>5.4</speed>
<course>31.4</course>
<desc>Speed 5.4 km/h Distance 17.07 km</desc>
<time>2010-06-13T07:11:01.63</time>
<name>3899</name>
</trkpt>
<trkpt lat="49.226438" lon="11.735580">
<ele>628.6</ele>
<speed>4.0</speed>
<course>18.1</course>
<desc>Speed 4.0 km/h Distance 17.07 km</desc>
<time>2010-06-13T07:11:02.65</time>
<name>3900</name>
</trkpt>
<trkpt lat="49.226452" lon="11.735587">
<ele>629.6</ele>
<speed>2.6</speed>
<course>22.2</course>
<desc>Speed 2.6 km/h Distance 17.07 km</desc>
<time>2010-06-13T07:11:03.65</time>
<name>3901</name>
</trkpt>
<trkpt lat="49.226457" lon="11.735590">
<ele>629.4</ele>
<speed>0.8</speed>
<course>320.8</course>
<desc>Speed 0.8 km/h Distance 17.07 km</desc>
<time>2010-06-13T07:11:04.64</time>
<name>3902</name>
</trkpt>
<trkpt lat="49.226470" lon="11.735573">
<ele>628.3</ele>
<speed>2.1</speed>
<course>99.6</course>
<desc>Speed 2.1 km/h Distance 17.08 km</desc>
<time>2010-06-13T07:11:05.64</time>
<name>3903</name>
</trkpt>
<trkpt lat="49.226468" lon="11.735588">
<ele>626.8</ele>
<speed>1.1</speed>
<course>111.0</course>
<desc>Speed 1.1 km/h Distance 17.08 km</desc>
<time>2010-06-13T07:11:06.63</time>
<name>3904</name>
</trkpt>
<trkpt lat="49.226463" lon="11.735608">
<ele>624.5</ele>
<speed>1.8</speed>
<course>108.2</course>
<desc>Speed 1.8 km/h Distance 17.08 km</desc>
<time>2010-06-13T07:11:07.64</time>
<name>3905</name>
</trkpt>
<trkpt lat="49.226458" lon="11.735632">
<ele>624.7</ele>
<speed>3.4</speed>
<course>74.4</course>
<desc>Speed 3.4 km/h Distance 17.08 km</desc>
<time>2010-06-13T07:11:08.64</time>
<name>3906</name>
</trkpt>
<trkpt lat="49.226462" lon="11.735650">
<ele>625.1</ele>
<speed>3.5</speed>
<course>41.2</course>
<desc>Speed 3.5 km/h Distance 17.08 km</desc>
<time>2010-06-13T07:11:09.65</time>
<name>3907</name>
</trkpt>
<trkpt lat="49.226472" lon="11.735663">
<ele>626.7</ele>
<speed>3.3</speed>
<course>77.7</course>
<desc>Speed 3.3 km/h Distance 17.08 km</desc>
<time>2010-06-13T07:11:10.63</time>
<name>3908</name>
</trkpt>
<trkpt lat="49.226473" lon="11.735675">
<ele>625.3</ele>
<speed>3.1</speed>
<course>90.0</course>
<desc>Speed 3.1 km/h Distance 17.08 km</desc>
<time>2010-06-13T07:11:11.63</time>
<name>3909</name>
</trkpt>
<trkpt lat="49.226473" lon="11.735688">
<ele>623.2</ele>
<speed>3.4</speed>
<course>4.7</course>
<desc>Speed 3.4 km/h Distance 17.09 km</desc>
<time>2010-06-13T07:11:12.64</time>
<name>3910</name>
</trkpt>
<trkpt lat="49.226485" lon="11.735690">
<ele>621.8</ele>
<speed>2.8</speed>
<course>43.0</course>
<desc>Speed 2.8 km/h Distance 17.09 km</desc>
<time>2010-06-13T07:11:13.64</time>
<name>3911</name>
</trkpt>
<trkpt lat="49.226497" lon="11.735707">
<ele>621.8</ele>
<speed>4.4</speed>
<course>0.0</course>
<desc>Speed 4.4 km/h Distance 17.09 km</desc>
<time>2010-06-13T07:11:14.65</time>
<name>3912</name>
</trkpt>
<trkpt lat="49.226517" lon="11.735707">
<ele>622.0</ele>
<speed>3.7</speed>
<course>58.5</course>
<desc>Speed 3.7 km/h Distance 17.09 km</desc>
<time>2010-06-13T07:11:15.64</time>
<name>3913</name>
</trkpt>
<trkpt lat="49.226523" lon="11.735723">
<ele>622.1</ele>
<speed>4.2</speed>
<course>0.0</course>
<desc>Speed 4.2 km/h Distance 17.09 km</desc>
<time>2010-06-13T07:11:16.64</time>
<name>3914</name>
</trkpt>
<trkpt lat="49.226540" lon="11.735723">
<ele>621.3</ele>
<speed>3.6</speed>
<course>2.5</course>
<desc>Speed 3.6 km/h Distance 17.09 km</desc>
<time>2010-06-13T07:11:17.63</time>
<name>3915</name>
</trkpt>
<trkpt lat="49.226558" lon="11.735725">
<ele>622.3</ele>
<speed>3.8</speed>
<course>29.2</course>
<desc>Speed 3.8 km/h Distance 17.10 km</desc>
<time>2010-06-13T07:11:18.65</time>
<name>3916</name>
</trkpt>
<trkpt lat="49.226570" lon="11.735735">
<ele>624.6</ele>
<speed>3.8</speed>
<course>83.3</course>
<desc>Speed 3.8 km/h Distance 17.10 km</desc>
<time>2010-06-13T07:11:19.64</time>
<name>3917</name>
</trkpt>
<trkpt lat="49.226572" lon="11.735757">
<ele>626.5</ele>
<speed>3.1</speed>
<course>56.7</course>
<desc>Speed 3.1 km/h Distance 17.10 km</desc>
<time>2010-06-13T07:11:20.66</time>
<name>3918</name>
</trkpt>
<trkpt lat="49.226577" lon="11.735768">
<ele>626.8</ele>
<speed>2.5</speed>
<course>103.3</course>
<desc>Speed 2.5 km/h Distance 17.10 km</desc>
<time>2010-06-13T07:11:21.64</time>
<name>3919</name>
</trkpt>
<trkpt lat="49.226573" lon="11.735790">
<ele>627.8</ele>
<speed>3.3</speed>
<course>82.1</course>
<desc>Speed 3.3 km/h Distance 17.10 km</desc>
<time>2010-06-13T07:11:22.64</time>
<name>3920</name>
</trkpt>
<trkpt lat="49.226575" lon="11.735808">
<ele>628.1</ele>
<speed>3.5</speed>
<course>90.0</course>
<desc>Speed 3.5 km/h Distance 17.10 km</desc>
<time>2010-06-13T07:11:23.64</time>
<name>3921</name>
</trkpt>
<trkpt lat="49.226575" lon="11.735825">
<ele>630.5</ele>
<speed>4.0</speed>
<course>100.2</course>
<desc>Speed 4.0 km/h Distance 17.10 km</desc>
<time>2010-06-13T07:11:24.64</time>
<name>3922</name>
</trkpt>
<trkpt lat="49.226572" lon="11.735853">
<ele>632.2</ele>
<speed>3.4</speed>
<course>106.0</course>
<desc>Speed 3.4 km/h Distance 17.11 km</desc>
<time>2010-06-13T07:11:25.64</time>
<name>3923</name>
</trkpt>
<trkpt lat="49.226567" lon="11.735880">
<ele>632.7</ele>
<speed>4.1</speed>
<course>96.7</course>
<desc>Speed 4.1 km/h Distance 17.11 km</desc>
<time>2010-06-13T07:11:26.63</time>
<name>3924</name>
</trkpt>
<trkpt lat="49.226565" lon="11.735902">
<ele>631.7</ele>
<speed>3.2</speed>
<course>67.8</course>
<desc>Speed 3.2 km/h Distance 17.11 km</desc>
<time>2010-06-13T07:11:27.63</time>
<name>3925</name>
</trkpt>
<trkpt lat="49.226572" lon="11.735927">
<ele>631.9</ele>
<speed>2.6</speed>
<course>98.7</course>
<desc>Speed 2.6 km/h Distance 17.11 km</desc>
<time>2010-06-13T07:11:28.64</time>
<name>3926</name>
</trkpt>
<trkpt lat="49.226570" lon="11.735943">
<ele>633.6</ele>
<speed>2.8</speed>
<course>47.4</course>
<desc>Speed 2.8 km/h Distance 17.11 km</desc>
<time>2010-06-13T07:11:29.63</time>
<name>3927</name>
</trkpt>
<trkpt lat="49.226575" lon="11.735952">
<ele>635.3</ele>
<speed>2.7</speed>
<course>80.3</course>
<desc>Speed 2.7 km/h Distance 17.11 km</desc>
<time>2010-06-13T07:11:30.64</time>
<name>3928</name>
</trkpt>
<trkpt lat="49.226577" lon="11.735967">
<ele>634.5</ele>
<speed>1.9</speed>
<course>127.4</course>
<desc>Speed 1.9 km/h Distance 17.12 km</desc>
<time>2010-06-13T07:11:31.66</time>
<name>3929</name>
</trkpt>
<trkpt lat="49.226570" lon="11.735980">
<ele>635.9</ele>
<speed>2.2</speed>
<course>77.7</course>
<desc>Speed 2.2 km/h Distance 17.12 km</desc>
<time>2010-06-13T07:11:32.64</time>
<name>3930</name>
</trkpt>
<trkpt lat="49.226572" lon="11.735992">
<ele>636.9</ele>
<speed>0.5</speed>
<course>119.9</course>
<desc>Speed 0.5 km/h Distance 17.12 km</desc>
<time>2010-06-13T07:11:33.64</time>
<name>3931</name>
</trkpt>
<trkpt lat="49.226567" lon="11.736005">
<ele>637.5</ele>
<speed>1.0</speed>
<course>69.0</course>
<desc>Speed 1.0 km/h Distance 17.12 km</desc>
<time>2010-06-13T07:11:34.63</time>
<name>3932</name>
</trkpt>
<trkpt lat="49.226570" lon="11.736018">
<ele>638.5</ele>
<speed>3.2</speed>
<course>50.1</course>
<desc>Speed 3.2 km/h Distance 17.12 km</desc>
<time>2010-06-13T07:11:35.64</time>
<name>3933</name>
</trkpt>
<trkpt lat="49.226580" lon="11.736037">
<ele>639.1</ele>
<speed>2.7</speed>
<course>347.4</course>
<desc>Speed 2.7 km/h Distance 17.12 km</desc>
<time>2010-06-13T07:11:36.65</time>
<name>3934</name>
</trkpt>
<trkpt lat="49.226590" lon="11.736033">
<ele>638.5</ele>
<speed>2.9</speed>
<course>21.5</course>
<desc>Speed 2.9 km/h Distance 17.12 km</desc>
<time>2010-06-13T07:11:37.64</time>
<name>3935</name>
</trkpt>
<trkpt lat="49.226598" lon="11.736038">
<ele>638.2</ele>
<speed>3.0</speed>
<course>97.9</course>
<desc>Speed 3.0 km/h Distance 17.12 km</desc>
<time>2010-06-13T07:11:38.64</time>
<name>3936</name>
</trkpt>
<trkpt lat="49.226597" lon="11.736057">
<ele>638.9</ele>
<speed>2.3</speed>
<course>90.0</course>
<desc>Speed 2.3 km/h Distance 17.12 km</desc>
<time>2010-06-13T07:11:39.63</time>
<name>3937</name>
</trkpt>
<trkpt lat="49.226597" lon="11.736060">
<ele>638.9</ele>
<speed>1.8</speed>
<course>121.4</course>
<desc>Speed 1.8 km/h Distance 17.12 km</desc>
<time>2010-06-13T07:11:40.63</time>
<name>3938</name>
</trkpt>
<trkpt lat="49.226593" lon="11.736068">
<ele>640.2</ele>
<speed>1.0</speed>
<course>104.3</course>
<desc>Speed 1.0 km/h Distance 17.13 km</desc>
<time>2010-06-13T07:11:41.64</time>
<name>3939</name>
</trkpt>
<trkpt lat="49.226590" lon="11.736088">
<ele>642.0</ele>
<speed>1.0</speed>
<course>97.9</course>
<desc>Speed 1.0 km/h Distance 17.13 km</desc>
<time>2010-06-13T07:11:42.65</time>
<name>3940</name>
</trkpt>
<trkpt lat="49.226588" lon="11.736107">
<ele>643.2</ele>
<speed>0.8</speed>
<course>22.2</course>
<desc>Speed 0.8 km/h Distance 17.13 km</desc>
<time>2010-06-13T07:11:43.64</time>
<name>3941</name>
</trkpt>
<trkpt lat="49.226593" lon="11.736110">
<ele>644.8</ele>
<speed>1.1</speed>
<course>0.0</course>
<desc>Speed 1.1 km/h Distance 17.13 km</desc>
<time>2010-06-13T07:11:44.63</time>
<name>3942</name>
</trkpt>
<trkpt lat="49.226597" lon="11.736110">
<ele>646.0</ele>
<speed>2.3</speed>
<course>336.6</course>
<desc>Speed 2.3 km/h Distance 17.13 km</desc>
<time>2010-06-13T07:11:45.63</time>
<name>3943</name>
</trkpt>
<trkpt lat="49.226607" lon="11.736103">
<ele>645.0</ele>
<speed>2.1</speed>
<course>33.1</course>
<desc>Speed 2.1 km/h Distance 17.13 km</desc>
<time>2010-06-13T07:11:46.65</time>
<name>3944</name>
</trkpt>
<trkpt lat="49.226618" lon="11.736115">
<ele>643.4</ele>
<speed>1.6</speed>
<course>24.9</course>
<desc>Speed 1.6 km/h Distance 17.13 km</desc>
<time>2010-06-13T07:11:47.64</time>
<name>3945</name>
</trkpt>
<trkpt lat="49.226630" lon="11.736123">
<ele>642.5</ele>
<speed>1.3</speed>
<course>23.8</course>
<desc>Speed 1.3 km/h Distance 17.13 km</desc>
<time>2010-06-13T07:11:48.65</time>
<name>3946</name>
</trkpt>
<trkpt lat="49.226640" lon="11.736130">
<ele>642.1</ele>
<speed>3.0</speed>
<course>352.3</course>
<desc>Speed 3.0 km/h Distance 17.13 km</desc>
<time>2010-06-13T07:11:49.63</time>
<name>3947</name>
</trkpt>
<trkpt lat="49.226657" lon="11.736127">
<ele>640.5</ele>
<speed>3.5</speed>
<course>3.9</course>
<desc>Speed 3.5 km/h Distance 17.14 km</desc>
<time>2010-06-13T07:11:50.63</time>
<name>3948</name>
</trkpt>
<trkpt lat="49.226670" lon="11.736128">
<ele>639.2</ele>
<speed>2.6</speed>
<course>52.6</course>
<desc>Speed 2.6 km/h Distance 17.14 km</desc>
<time>2010-06-13T07:11:51.64</time>
<name>3949</name>
</trkpt>
<trkpt lat="49.226678" lon="11.736145">
<ele>640.6</ele>
<speed>1.8</speed>
<course>57.5</course>
<desc>Speed 1.8 km/h Distance 17.14 km</desc>
<time>2010-06-13T07:11:52.64</time>
<name>3950</name>
</trkpt>
<trkpt lat="49.226687" lon="11.736165">
<ele>639.3</ele>
<speed>1.7</speed>
<course>353.4</course>
<desc>Speed 1.7 km/h Distance 17.14 km</desc>
<time>2010-06-13T07:11:53.65</time>
<name>3951</name>
</trkpt>
<trkpt lat="49.226707" lon="11.736162">
<ele>637.5</ele>
<speed>3.7</speed>
<course>49.1</course>
<desc>Speed 3.7 km/h Distance 17.14 km</desc>
<time>2010-06-13T07:11:54.64</time>
<name>3952</name>
</trkpt>
<trkpt lat="49.226713" lon="11.736173">
<ele>636.5</ele>
<speed>2.6</speed>
<course>69.1</course>
<desc>Speed 2.6 km/h Distance 17.14 km</desc>
<time>2010-06-13T07:11:55.65</time>
<name>3953</name>
</trkpt>
<trkpt lat="49.226717" lon="11.736187">
<ele>635.9</ele>
<speed>2.8</speed>
<course>39.3</course>
<desc>Speed 2.8 km/h Distance 17.15 km</desc>
<time>2010-06-13T07:11:56.63</time>
<name>3954</name>
</trkpt>
<trkpt lat="49.226730" lon="11.736203">
<ele>634.9</ele>
<speed>3.2</speed>
<course>61.3</course>
<desc>Speed 3.2 km/h Distance 17.15 km</desc>
<time>2010-06-13T07:11:57.63</time>
<name>3955</name>
</trkpt>
<trkpt lat="49.226738" lon="11.736227">
<ele>635.3</ele>
<speed>2.2</speed>
<course>9.5</course>
<desc>Speed 2.2 km/h Distance 17.15 km</desc>
<time>2010-06-13T07:11:58.64</time>
<name>3956</name>
</trkpt>
<trkpt lat="49.226758" lon="11.736232">
<ele>634.7</ele>
<speed>2.8</speed>
<course>30.2</course>
<desc>Speed 2.8 km/h Distance 17.15 km</desc>
<time>2010-06-13T07:11:59.64</time>
<name>3957</name>
</trkpt>
<trkpt lat="49.226773" lon="11.736245">
<ele>633.5</ele>
<speed>2.8</speed>
<course>56.7</course>
<desc>Speed 2.8 km/h Distance 17.15 km</desc>
<time>2010-06-13T07:12:00.64</time>
<name>3958</name>
</trkpt>
<trkpt lat="49.226783" lon="11.736268">
<ele>633.3</ele>
<speed>3.3</speed>
<course>103.3</course>
<desc>Speed 3.3 km/h Distance 17.16 km</desc>
<time>2010-06-13T07:12:01.64</time>
<name>3959</name>
</trkpt>
<trkpt lat="49.226780" lon="11.736290">
<ele>633.2</ele>
<speed>2.4</speed>
<course>108.8</course>
<desc>Speed 2.4 km/h Distance 17.16 km</desc>
<time>2010-06-13T07:12:02.63</time>
<name>3960</name>
</trkpt>
<trkpt lat="49.226777" lon="11.736305">
<ele>634.3</ele>
<speed>2.4</speed>
<course>117.0</course>
<desc>Speed 2.4 km/h Distance 17.16 km</desc>
<time>2010-06-13T07:12:03.65</time>
<name>3961</name>
</trkpt>
<trkpt lat="49.226772" lon="11.736320">
<ele>635.5</ele>
<speed>2.6</speed>
<course>75.6</course>
<desc>Speed 2.6 km/h Distance 17.16 km</desc>
<time>2010-06-13T07:12:04.65</time>
<name>3962</name>
</trkpt>
<trkpt lat="49.226775" lon="11.736340">
<ele>634.3</ele>
<speed>2.8</speed>
<course>90.0</course>
<desc>Speed 2.8 km/h Distance 17.16 km</desc>
<time>2010-06-13T07:12:05.64</time>
<name>3963</name>
</trkpt>
<trkpt lat="49.226775" lon="11.736348">
<ele>635.4</ele>
<speed>1.6</speed>
<course>51.9</course>
<desc>Speed 1.6 km/h Distance 17.16 km</desc>
<time>2010-06-13T07:12:06.64</time>
<name>3964</name>
</trkpt>
<trkpt lat="49.226778" lon="11.736355">
<ele>634.6</ele>
<speed>1.8</speed>
<course>33.2</course>
<desc>Speed 1.8 km/h Distance 17.16 km</desc>
<time>2010-06-13T07:12:07.63</time>
<name>3965</name>
</trkpt>
<trkpt lat="49.226787" lon="11.736363">
<ele>631.4</ele>
<speed>2.0</speed>
<course>106.0</course>
<desc>Speed 2.0 km/h Distance 17.16 km</desc>
<time>2010-06-13T07:12:08.64</time>
<name>3966</name>
</trkpt>
<trkpt lat="49.226782" lon="11.736390">
<ele>632.1</ele>
<speed>3.5</speed>
<course>100.2</course>
<desc>Speed 3.5 km/h Distance 17.17 km</desc>
<time>2010-06-13T07:12:09.63</time>
<name>3967</name>
</trkpt>
<trkpt lat="49.226778" lon="11.736418">
<ele>632.2</ele>
<speed>6.4</speed>
<course>114.3</course>
<desc>Speed 6.4 km/h Distance 17.17 km</desc>
<time>2010-06-13T07:12:10.63</time>
<name>3968</name>
</trkpt>
<trkpt lat="49.226770" lon="11.736447">
<ele>632.8</ele>
<speed>4.7</speed>
<course>115.2</course>
<desc>Speed 4.7 km/h Distance 17.17 km</desc>
<time>2010-06-13T07:12:11.64</time>
<name>3969</name>
</trkpt>
<trkpt lat="49.226763" lon="11.736468">
<ele>632.6</ele>
<speed>5.6</speed>
<course>127.4</course>
<desc>Speed 5.6 km/h Distance 17.17 km</desc>
<time>2010-06-13T07:12:12.63</time>
<name>3970</name>
</trkpt>
<trkpt lat="49.226757" lon="11.736482">
<ele>632.8</ele>
<speed>5.4</speed>
<course>117.0</course>
<desc>Speed 5.4 km/h Distance 17.17 km</desc>
<time>2010-06-13T07:12:13.64</time>
<name>3971</name>
</trkpt>
<trkpt lat="49.226743" lon="11.736522">
<ele>634.2</ele>
<speed>6.0</speed>
<course>124.9</course>
<desc>Speed 6.0 km/h Distance 17.18 km</desc>
<time>2010-06-13T07:12:14.63</time>
<name>3972</name>
</trkpt>
<trkpt lat="49.226708" lon="11.736598">
<ele>636.0</ele>
<speed>7.8</speed>
<course>112.4</course>
<desc>Speed 7.8 km/h Distance 17.18 km</desc>
<time>2010-06-13T07:12:16.64</time>
<name>3973</name>
</trkpt>
<trkpt lat="49.226678" lon="11.736710">
<ele>636.1</ele>
<speed>9.6</speed>
<course>83.3</course>
<desc>Speed 9.6 km/h Distance 17.19 km</desc>
<time>2010-06-13T07:12:18.62</time>
<name>3974</name>
</trkpt>
<trkpt lat="49.226682" lon="11.736753">
<ele>635.2</ele>
<speed>10.1</speed>
<course>93.0</course>
<desc>Speed 10.1 km/h Distance 17.20 km</desc>
<time>2010-06-13T07:12:19.64</time>
<name>3975</name>
</trkpt>
<trkpt lat="49.226678" lon="11.736850">
<ele>636.7</ele>
<speed>7.2</speed>
<course>100.8</course>
<desc>Speed 7.2 km/h Distance 17.20 km</desc>
<time>2010-06-13T07:12:21.64</time>
<name>3976</name>
</trkpt>
<trkpt lat="49.226675" lon="11.736877">
<ele>638.7</ele>
<speed>7.5</speed>
<course>92.7</course>
<desc>Speed 7.5 km/h Distance 17.20 km</desc>
<time>2010-06-13T07:12:22.63</time>
<name>3977</name>
</trkpt>
<trkpt lat="49.226673" lon="11.736930">
<ele>640.8</ele>
<speed>10.0</speed>
<course>73.5</course>
<desc>Speed 10.0 km/h Distance 17.21 km</desc>
<time>2010-06-13T07:12:23.63</time>
<name>3978</name>
</trkpt>
<trkpt lat="49.226683" lon="11.736982">
<ele>642.3</ele>
<speed>9.0</speed>
<course>73.0</course>
<desc>Speed 9.0 km/h Distance 17.21 km</desc>
<time>2010-06-13T07:12:24.64</time>
<name>3979</name>
</trkpt>
<trkpt lat="49.226688" lon="11.737007">
<ele>641.9</ele>
<speed>7.3</speed>
<course>90.0</course>
<desc>Speed 7.3 km/h Distance 17.21 km</desc>
<time>2010-06-13T07:12:25.62</time>
<name>3980</name>
</trkpt>
<trkpt lat="49.226688" lon="11.737047">
<ele>642.5</ele>
<speed>7.5</speed>
<course>45.4</course>
<desc>Speed 7.5 km/h Distance 17.22 km</desc>
<time>2010-06-13T07:12:26.64</time>
<name>3981</name>
</trkpt>
<trkpt lat="49.226703" lon="11.737070">
<ele>640.9</ele>
<speed>6.0</speed>
<course>63.0</course>
<desc>Speed 6.0 km/h Distance 17.22 km</desc>
<time>2010-06-13T07:12:27.65</time>
<name>3982</name>
</trkpt>
<trkpt lat="49.226712" lon="11.737095">
<ele>640.2</ele>
<speed>5.6</speed>
<course>93.7</course>
<desc>Speed 5.6 km/h Distance 17.22 km</desc>
<time>2010-06-13T07:12:28.63</time>
<name>3983</name>
</trkpt>
<trkpt lat="49.226710" lon="11.737135">
<ele>640.2</ele>
<speed>6.8</speed>
<course>55.8</course>
<desc>Speed 6.8 km/h Distance 17.22 km</desc>
<time>2010-06-13T07:12:29.64</time>
<name>3984</name>
</trkpt>
<trkpt lat="49.226717" lon="11.737150">
<ele>639.0</ele>
<speed>5.5</speed>
<course>124.2</course>
<desc>Speed 5.5 km/h Distance 17.23 km</desc>
<time>2010-06-13T07:12:30.64</time>
<name>3985</name>
</trkpt>
<trkpt lat="49.226703" lon="11.737180">
<ele>641.2</ele>
<speed>6.0</speed>
<course>72.3</course>
<desc>Speed 6.0 km/h Distance 17.23 km</desc>
<time>2010-06-13T07:12:31.63</time>
<name>3986</name>
</trkpt>
<trkpt lat="49.226712" lon="11.737220">
<ele>642.5</ele>
<speed>5.5</speed>
<course>88.3</course>
<desc>Speed 5.5 km/h Distance 17.23 km</desc>
<time>2010-06-13T07:12:32.64</time>
<name>3987</name>
</trkpt>
<trkpt lat="49.226713" lon="11.737305">
<ele>643.1</ele>
<speed>7.2</speed>
<course>95.5</course>
<desc>Speed 7.2 km/h Distance 17.24 km</desc>
<time>2010-06-13T07:12:34.64</time>
<name>3988</name>
</trkpt>
<trkpt lat="49.226710" lon="11.737358">
<ele>644.0</ele>
<speed>10.4</speed>
<course>94.9</course>
<desc>Speed 10.4 km/h Distance 17.24 km</desc>
<time>2010-06-13T07:12:35.64</time>
<name>3989</name>
</trkpt>
<trkpt lat="49.226708" lon="11.737388">
<ele>643.8</ele>
<speed>8.5</speed>
<course>96.2</course>
<desc>Speed 8.5 km/h Distance 17.24 km</desc>
<time>2010-06-13T07:12:36.64</time>
<name>3990</name>
</trkpt>
<trkpt lat="49.226705" lon="11.737435">
<ele>642.5</ele>
<speed>8.0</speed>
<course>80.7</course>
<desc>Speed 8.0 km/h Distance 17.25 km</desc>
<time>2010-06-13T07:12:37.64</time>
<name>3991</name>
</trkpt>
<trkpt lat="49.226710" lon="11.737482">
<ele>640.7</ele>
<speed>7.3</speed>
<course>69.7</course>
<desc>Speed 7.3 km/h Distance 17.25 km</desc>
<time>2010-06-13T07:12:38.63</time>
<name>3992</name>
</trkpt>
<trkpt lat="49.226722" lon="11.737530">
<ele>639.7</ele>
<speed>6.7</speed>
<course>102.5</course>
<desc>Speed 6.7 km/h Distance 17.25 km</desc>
<time>2010-06-13T07:12:39.64</time>
<name>3993</name>
</trkpt>
<trkpt lat="49.226703" lon="11.737657">
<ele>641.2</ele>
<speed>6.9</speed>
<course>71.8</course>
<desc>Speed 6.9 km/h Distance 17.26 km</desc>
<time>2010-06-13T07:12:41.62</time>
<name>3994</name>
</trkpt>
<trkpt lat="49.226708" lon="11.737680">
<ele>642.1</ele>
<speed>6.2</speed>
<course>46.3</course>
<desc>Speed 6.2 km/h Distance 17.27 km</desc>
<time>2010-06-13T07:12:42.64</time>
<name>3995</name>
</trkpt>
<trkpt lat="49.226725" lon="11.737707">
<ele>639.8</ele>
<speed>6.3</speed>
<course>61.3</course>
<desc>Speed 6.3 km/h Distance 17.27 km</desc>
<time>2010-06-13T07:12:43.62</time>
<name>3996</name>
</trkpt>
<trkpt lat="49.226733" lon="11.737730">
<ele>639.2</ele>
<speed>5.6</speed>
<course>58.6</course>
<desc>Speed 5.6 km/h Distance 17.27 km</desc>
<time>2010-06-13T07:12:44.63</time>
<name>3997</name>
</trkpt>
<trkpt lat="49.226740" lon="11.737747">
<ele>638.3</ele>
<speed>5.1</speed>
<course>41.4</course>
<desc>Speed 5.1 km/h Distance 17.27 km</desc>
<time>2010-06-13T07:12:45.63</time>
<name>3998</name>
</trkpt>
<trkpt lat="49.226745" lon="11.737753">
<ele>638.2</ele>
<speed>5.1</speed>
<course>59.5</course>
<desc>Speed 5.1 km/h Distance 17.27 km</desc>
<time>2010-06-13T07:12:46.64</time>
<name>3999</name>
</trkpt>
<trkpt lat="49.226753" lon="11.737775">
<ele>637.6</ele>
<speed>6.2</speed>
<course>70.0</course>
<desc>Speed 6.2 km/h Distance 17.27 km</desc>
<time>2010-06-13T07:12:47.62</time>
<name>4000</name>
</trkpt>
<trkpt lat="49.226762" lon="11.737810">
<ele>636.7</ele>
<speed>8.2</speed>
<course>104.7</course>
<desc>Speed 8.2 km/h Distance 17.28 km</desc>
<time>2010-06-13T07:12:48.64</time>
<name>4001</name>
</trkpt>
<trkpt lat="49.226738" lon="11.737947">
<ele>634.6</ele>
<speed>13.0</speed>
<course>116.5</course>
<desc>Speed 13.0 km/h Distance 17.29 km</desc>
<time>2010-06-13T07:12:50.64</time>
<name>4002</name>
</trkpt>
<trkpt lat="49.226692" lon="11.738090">
<ele>631.6</ele>
<speed>13.1</speed>
<course>111.9</course>
<desc>Speed 13.1 km/h Distance 17.30 km</desc>
<time>2010-06-13T07:12:52.63</time>
<name>4003</name>
</trkpt>
<trkpt lat="49.226673" lon="11.738160">
<ele>631.4</ele>
<speed>13.3</speed>
<course>117.6</course>
<desc>Speed 13.3 km/h Distance 17.30 km</desc>
<time>2010-06-13T07:12:53.63</time>
<name>4004</name>
</trkpt>
<trkpt lat="49.226650" lon="11.738228">
<ele>630.4</ele>
<speed>15.2</speed>
<course>90.0</course>
<desc>Speed 15.2 km/h Distance 17.31 km</desc>
<time>2010-06-13T07:12:54.65</time>
<name>4005</name>
</trkpt>
<trkpt lat="49.226650" lon="11.738270">
<ele>631.1</ele>
<speed>14.5</speed>
<course>104.3</course>
<desc>Speed 14.5 km/h Distance 17.31 km</desc>
<time>2010-06-13T07:12:55.63</time>
<name>4006</name>
</trkpt>
<trkpt lat="49.226638" lon="11.738340">
<ele>629.9</ele>
<speed>14.3</speed>
<course>111.4</course>
<desc>Speed 14.3 km/h Distance 17.32 km</desc>
<time>2010-06-13T07:12:56.64</time>
<name>4007</name>
</trkpt>
<trkpt lat="49.226622" lon="11.738405">
<ele>632.5</ele>
<speed>13.9</speed>
<course>114.9</course>
<desc>Speed 13.9 km/h Distance 17.32 km</desc>
<time>2010-06-13T07:12:57.65</time>
<name>4008</name>
</trkpt>
<trkpt lat="49.226605" lon="11.738460">
<ele>635.4</ele>
<speed>14.3</speed>
<course>109.9</course>
<desc>Speed 14.3 km/h Distance 17.33 km</desc>
<time>2010-06-13T07:12:58.63</time>
<name>4009</name>
</trkpt>
<trkpt lat="49.226590" lon="11.738523">
<ele>634.3</ele>
<speed>14.3</speed>
<course>92.4</course>
<desc>Speed 14.3 km/h Distance 17.33 km</desc>
<time>2010-06-13T07:12:59.63</time>
<name>4010</name>
</trkpt>
<trkpt lat="49.226588" lon="11.738585">
<ele>635.7</ele>
<speed>13.8</speed>
<course>115.1</course>
<desc>Speed 13.8 km/h Distance 17.34 km</desc>
<time>2010-06-13T07:13:00.62</time>
<name>4011</name>
</trkpt>
<trkpt lat="49.226485" lon="11.738923">
<ele>641.6</ele>
<speed>19.7</speed>
<course>78.5</course>
<desc>Speed 19.7 km/h Distance 17.36 km</desc>
<time>2010-06-13T07:13:03.63</time>
<name>4012</name>
</trkpt>
<trkpt lat="49.226492" lon="11.738973">
<ele>643.8</ele>
<speed>18.5</speed>
<course>101.6</course>
<desc>Speed 18.5 km/h Distance 17.37 km</desc>
<time>2010-06-13T07:13:04.64</time>
<name>4013</name>
</trkpt>
<trkpt lat="49.226462" lon="11.739197">
<ele>643.3</ele>
<speed>24.4</speed>
<course>106.3</course>
<desc>Speed 24.4 km/h Distance 17.38 km</desc>
<time>2010-06-13T07:13:06.63</time>
<name>4014</name>
</trkpt>
<trkpt lat="49.226440" lon="11.739310">
<ele>641.9</ele>
<speed>23.3</speed>
<course>99.3</course>
<desc>Speed 23.3 km/h Distance 17.39 km</desc>
<time>2010-06-13T07:13:07.63</time>
<name>4015</name>
</trkpt>
<trkpt lat="49.226430" lon="11.739403">
<ele>641.2</ele>
<speed>21.7</speed>
<course>83.9</course>
<desc>Speed 21.7 km/h Distance 17.40 km</desc>
<time>2010-06-13T07:13:08.63</time>
<name>4016</name>
</trkpt>
<trkpt lat="49.226435" lon="11.739475">
<ele>639.5</ele>
<speed>21.4</speed>
<course>80.0</course>
<desc>Speed 21.4 km/h Distance 17.40 km</desc>
<time>2010-06-13T07:13:09.64</time>
<name>4017</name>
</trkpt>
<trkpt lat="49.226445" lon="11.739562">
<ele>636.9</ele>
<speed>22.0</speed>
<course>77.7</course>
<desc>Speed 22.0 km/h Distance 17.41 km</desc>
<time>2010-06-13T07:13:10.63</time>
<name>4018</name>
</trkpt>
<trkpt lat="49.226457" lon="11.739643">
<ele>633.4</ele>
<speed>21.6</speed>
<course>80.8</course>
<desc>Speed 21.6 km/h Distance 17.42 km</desc>
<time>2010-06-13T07:13:11.63</time>
<name>4019</name>
</trkpt>
<trkpt lat="49.226463" lon="11.739707">
<ele>632.6</ele>
<speed>20.7</speed>
<course>90.0</course>
<desc>Speed 20.7 km/h Distance 17.42 km</desc>
<time>2010-06-13T07:13:12.63</time>
<name>4020</name>
</trkpt>
<trkpt lat="49.226463" lon="11.739783">
<ele>632.0</ele>
<speed>18.9</speed>
<course>73.8</course>
<desc>Speed 18.9 km/h Distance 17.43 km</desc>
<time>2010-06-13T07:13:13.63</time>
<name>4021</name>
</trkpt>
<trkpt lat="49.226475" lon="11.739845">
<ele>629.9</ele>
<speed>18.4</speed>
<course>91.7</course>
<desc>Speed 18.4 km/h Distance 17.43 km</desc>
<time>2010-06-13T07:13:14.63</time>
<name>4022</name>
</trkpt>
<trkpt lat="49.226473" lon="11.739930">
<ele>629.6</ele>
<speed>17.7</speed>
<course>71.8</course>
<desc>Speed 17.7 km/h Distance 17.44 km</desc>
<time>2010-06-13T07:13:15.64</time>
<name>4023</name>
</trkpt>
<trkpt lat="49.226483" lon="11.739977">
<ele>629.5</ele>
<speed>15.5</speed>
<course>48.1</course>
<desc>Speed 15.5 km/h Distance 17.44 km</desc>
<time>2010-06-13T07:13:16.64</time>
<name>4024</name>
</trkpt>
<trkpt lat="49.226512" lon="11.740025">
<ele>627.0</ele>
<speed>10.0</speed>
<course>109.4</course>
<desc>Speed 10.0 km/h Distance 17.45 km</desc>
<time>2010-06-13T07:13:18.63</time>
<name>4025</name>
</trkpt>
<trkpt lat="49.226478" lon="11.740170">
<ele>622.3</ele>
<speed>14.1</speed>
<course>8.7</course>
<desc>Speed 14.1 km/h Distance 17.46 km</desc>
<time>2010-06-13T07:13:20.63</time>
<name>4026</name>
</trkpt>
<trkpt lat="49.226507" lon="11.740177">
<ele>619.3</ele>
<speed>12.6</speed>
<course>22.0</course>
<desc>Speed 12.6 km/h Distance 17.46 km</desc>
<time>2010-06-13T07:13:21.62</time>
<name>4027</name>
</trkpt>
<trkpt lat="49.226542" lon="11.740198">
<ele>615.6</ele>
<speed>12.3</speed>
<course>37.1</course>
<desc>Speed 12.3 km/h Distance 17.47 km</desc>
<time>2010-06-13T07:13:22.63</time>
<name>4028</name>
</trkpt>
<trkpt lat="49.226573" lon="11.740235">
<ele>613.6</ele>
<speed>13.1</speed>
<course>100.9</course>
<desc>Speed 13.1 km/h Distance 17.47 km</desc>
<time>2010-06-13T07:13:23.64</time>
<name>4029</name>
</trkpt>
<trkpt lat="49.226553" lon="11.740393">
<ele>609.3</ele>
<speed>13.2</speed>
<course>81.7</course>
<desc>Speed 13.2 km/h Distance 17.48 km</desc>
<time>2010-06-13T07:13:25.63</time>
<name>4030</name>
</trkpt>
<trkpt lat="49.226557" lon="11.740428">
<ele>607.3</ele>
<speed>11.0</speed>
<course>119.1</course>
<desc>Speed 11.0 km/h Distance 17.48 km</desc>
<time>2010-06-13T07:13:26.63</time>
<name>4031</name>
</trkpt>
<trkpt lat="49.226537" lon="11.740483">
<ele>606.9</ele>
<speed>10.6</speed>
<course>74.9</course>
<desc>Speed 10.6 km/h Distance 17.49 km</desc>
<time>2010-06-13T07:13:27.63</time>
<name>4032</name>
</trkpt>
<trkpt lat="49.226542" lon="11.740512">
<ele>607.3</ele>
<speed>9.3</speed>
<course>112.4</course>
<desc>Speed 9.3 km/h Distance 17.49 km</desc>
<time>2010-06-13T07:13:28.63</time>
<name>4033</name>
</trkpt>
<trkpt lat="49.226518" lon="11.740598">
<ele>602.9</ele>
<speed>9.7</speed>
<course>85.1</course>
<desc>Speed 9.7 km/h Distance 17.50 km</desc>
<time>2010-06-13T07:13:30.64</time>
<name>4034</name>
</trkpt>
<trkpt lat="49.226520" lon="11.740628">
<ele>601.6</ele>
<speed>8.5</speed>
<course>90.0</course>
<desc>Speed 8.5 km/h Distance 17.50 km</desc>
<time>2010-06-13T07:13:31.63</time>
<name>4035</name>
</trkpt>
<trkpt lat="49.226520" lon="11.740652">
<ele>602.2</ele>
<speed>8.3</speed>
<course>128.0</course>
<desc>Speed 8.3 km/h Distance 17.50 km</desc>
<time>2010-06-13T07:13:32.64</time>
<name>4036</name>
</trkpt>
<trkpt lat="49.226477" lon="11.740737">
<ele>600.4</ele>
<speed>9.7</speed>
<course>125.8</course>
<desc>Speed 9.7 km/h Distance 17.51 km</desc>
<time>2010-06-13T07:13:34.62</time>
<name>4037</name>
</trkpt>
<trkpt lat="49.226463" lon="11.740765">
<ele>597.8</ele>
<speed>9.0</speed>
<course>128.9</course>
<desc>Speed 9.0 km/h Distance 17.51 km</desc>
<time>2010-06-13T07:13:35.63</time>
<name>4038</name>
</trkpt>
<trkpt lat="49.226447" lon="11.740797">
<ele>596.1</ele>
<speed>9.4</speed>
<course>130.1</course>
<desc>Speed 9.4 km/h Distance 17.51 km</desc>
<time>2010-06-13T07:13:36.63</time>
<name>4039</name>
</trkpt>
<trkpt lat="49.226428" lon="11.740830">
<ele>594.6</ele>
<speed>9.8</speed>
<course>306.2</course>
<desc>Speed 9.8 km/h Distance 17.52 km</desc>
<time>2010-06-13T07:13:37.63</time>
<name>4040</name>
</trkpt>
<trkpt lat="49.226447" lon="11.740792">
<ele>590.4</ele>
<speed>7.0</speed>
<course>221.4</course>
<desc>Speed 7.0 km/h Distance 17.52 km</desc>
<time>2010-06-13T07:13:38.63</time>
<name>4041</name>
</trkpt>
<trkpt lat="49.226442" lon="11.740785">
<ele>587.7</ele>
<speed>5.9</speed>
<course>164.7</course>
<desc>Speed 5.9 km/h Distance 17.52 km</desc>
<time>2010-06-13T07:13:39.63</time>
<name>4042</name>
</trkpt>
<trkpt lat="49.226422" lon="11.740793">
<ele>588.2</ele>
<speed>3.8</speed>
<course>140.4</course>
<desc>Speed 3.8 km/h Distance 17.52 km</desc>
<time>2010-06-13T07:13:40.64</time>
<name>4043</name>
</trkpt>
<trkpt lat="49.226095" lon="11.741207">
<ele>591.8</ele>
<speed>21.2</speed>
<course>145.8</course>
<desc>Speed 21.2 km/h Distance 17.57 km</desc>
<time>2010-06-13T07:13:45.64</time>
<name>4044</name>
</trkpt>
<trkpt lat="49.226055" lon="11.741248">
<ele>590.1</ele>
<speed>14.1</speed>
<course>143.6</course>
<desc>Speed 14.1 km/h Distance 17.58 km</desc>
<time>2010-06-13T07:13:47.64</time>
<name>4045</name>
</trkpt>
<trkpt lat="49.225977" lon="11.741337">
<ele>587.3</ele>
<speed>13.6</speed>
<course>155.3</course>
<desc>Speed 13.6 km/h Distance 17.59 km</desc>
<time>2010-06-13T07:13:49.63</time>
<name>4046</name>
</trkpt>
<trkpt lat="49.225932" lon="11.741368">
<ele>587.9</ele>
<speed>14.0</speed>
<course>159.2</course>
<desc>Speed 14.0 km/h Distance 17.59 km</desc>
<time>2010-06-13T07:13:50.64</time>
<name>4047</name>
</trkpt>
<trkpt lat="49.225892" lon="11.741392">
<ele>586.8</ele>
<speed>14.7</speed>
<course>162.7</course>
<desc>Speed 14.7 km/h Distance 17.60 km</desc>
<time>2010-06-13T07:13:51.63</time>
<name>4048</name>
</trkpt>
<trkpt lat="49.225857" lon="11.741408">
<ele>585.0</ele>
<speed>16.2</speed>
<course>161.9</course>
<desc>Speed 16.2 km/h Distance 17.60 km</desc>
<time>2010-06-13T07:13:52.64</time>
<name>4049</name>
</trkpt>
<trkpt lat="49.225813" lon="11.741430">
<ele>584.3</ele>
<speed>17.2</speed>
<course>158.1</course>
<desc>Speed 17.2 km/h Distance 17.61 km</desc>
<time>2010-06-13T07:13:53.65</time>
<name>4050</name>
</trkpt>
<trkpt lat="49.225770" lon="11.741457">
<ele>582.6</ele>
<speed>17.3</speed>
<course>157.7</course>
<desc>Speed 17.3 km/h Distance 17.61 km</desc>
<time>2010-06-13T07:13:54.63</time>
<name>4051</name>
</trkpt>
<trkpt lat="49.225725" lon="11.741485">
<ele>581.4</ele>
<speed>17.8</speed>
<course>156.5</course>
<desc>Speed 17.8 km/h Distance 17.62 km</desc>
<time>2010-06-13T07:13:55.64</time>
<name>4052</name>
</trkpt>
<trkpt lat="49.225680" lon="11.741515">
<ele>580.4</ele>
<speed>18.3</speed>
<course>159.5</course>
<desc>Speed 18.3 km/h Distance 17.62 km</desc>
<time>2010-06-13T07:13:56.64</time>
<name>4053</name>
</trkpt>
<trkpt lat="49.225633" lon="11.741542">
<ele>579.5</ele>
<speed>19.4</speed>
<course>159.1</course>
<desc>Speed 19.4 km/h Distance 17.63 km</desc>
<time>2010-06-13T07:13:57.63</time>
<name>4054</name>
</trkpt>
<trkpt lat="49.225585" lon="11.741570">
<ele>578.3</ele>
<speed>19.7</speed>
<course>161.4</course>
<desc>Speed 19.7 km/h Distance 17.63 km</desc>
<time>2010-06-13T07:13:58.63</time>
<name>4055</name>
</trkpt>
<trkpt lat="49.225533" lon="11.741597">
<ele>577.1</ele>
<speed>20.8</speed>
<course>161.4</course>
<desc>Speed 20.8 km/h Distance 17.64 km</desc>
<time>2010-06-13T07:13:59.63</time>
<name>4056</name>
</trkpt>
<trkpt lat="49.225478" lon="11.741625">
<ele>575.9</ele>
<speed>22.5</speed>
<course>160.9</course>
<desc>Speed 22.5 km/h Distance 17.65 km</desc>
<time>2010-06-13T07:14:00.64</time>
<name>4057</name>
</trkpt>
<trkpt lat="49.225422" lon="11.741655">
<ele>574.9</ele>
<speed>24.6</speed>
<course>164.1</course>
<desc>Speed 24.6 km/h Distance 17.65 km</desc>
<time>2010-06-13T07:14:01.64</time>
<name>4058</name>
</trkpt>
<trkpt lat="49.225357" lon="11.741683">
<ele>574.1</ele>
<speed>26.4</speed>
<course>163.6</course>
<desc>Speed 26.4 km/h Distance 17.66 km</desc>
<time>2010-06-13T07:14:02.64</time>
<name>4059</name>
</trkpt>
<trkpt lat="49.225290" lon="11.741713">
<ele>573.2</ele>
<speed>27.6</speed>
<course>163.9</course>
<desc>Speed 27.6 km/h Distance 17.67 km</desc>
<time>2010-06-13T07:14:03.64</time>
<name>4060</name>
</trkpt>
<trkpt lat="49.225218" lon="11.741745">
<ele>572.5</ele>
<speed>29.6</speed>
<course>162.3</course>
<desc>Speed 29.6 km/h Distance 17.68 km</desc>
<time>2010-06-13T07:14:04.64</time>
<name>4061</name>
</trkpt>
<trkpt lat="49.225143" lon="11.741782">
<ele>570.7</ele>
<speed>30.6</speed>
<course>160.8</course>
<desc>Speed 30.6 km/h Distance 17.69 km</desc>
<time>2010-06-13T07:14:05.62</time>
<name>4062</name>
</trkpt>
<trkpt lat="49.225068" lon="11.741822">
<ele>570.0</ele>
<speed>31.2</speed>
<course>160.8</course>
<desc>Speed 31.2 km/h Distance 17.69 km</desc>
<time>2010-06-13T07:14:06.64</time>
<name>4063</name>
</trkpt>
<trkpt lat="49.224993" lon="11.741862">
<ele>569.8</ele>
<speed>32.2</speed>
<course>159.4</course>
<desc>Speed 32.2 km/h Distance 17.70 km</desc>
<time>2010-06-13T07:14:07.62</time>
<name>4064</name>
</trkpt>
<trkpt lat="49.224915" lon="11.741907">
<ele>569.6</ele>
<speed>33.0</speed>
<course>161.6</course>
<desc>Speed 33.0 km/h Distance 17.71 km</desc>
<time>2010-06-13T07:14:08.64</time>
<name>4065</name>
</trkpt>
<trkpt lat="49.224837" lon="11.741947">
<ele>570.4</ele>
<speed>33.3</speed>
<course>162.9</course>
<desc>Speed 33.3 km/h Distance 17.72 km</desc>
<time>2010-06-13T07:14:09.62</time>
<name>4066</name>
</trkpt>
<trkpt lat="49.224755" lon="11.741985">
<ele>571.0</ele>
<speed>33.7</speed>
<course>163.0</course>
<desc>Speed 33.7 km/h Distance 17.73 km</desc>
<time>2010-06-13T07:14:10.62</time>
<name>4067</name>
</trkpt>
<trkpt lat="49.224673" lon="11.742023">
<ele>571.4</ele>
<speed>34.1</speed>
<course>165.0</course>
<desc>Speed 34.1 km/h Distance 17.74 km</desc>
<time>2010-06-13T07:14:11.64</time>
<name>4068</name>
</trkpt>
<trkpt lat="49.224588" lon="11.742058">
<ele>571.8</ele>
<speed>34.6</speed>
<course>165.2</course>
<desc>Speed 34.6 km/h Distance 17.75 km</desc>
<time>2010-06-13T07:14:12.63</time>
<name>4069</name>
</trkpt>
<trkpt lat="49.224502" lon="11.742093">
<ele>571.2</ele>
<speed>34.9</speed>
<course>158.6</course>
<desc>Speed 34.9 km/h Distance 17.76 km</desc>
<time>2010-06-13T07:14:13.63</time>
<name>4070</name>
</trkpt>
<trkpt lat="49.224427" lon="11.742138">
<ele>567.4</ele>
<speed>35.4</speed>
<course>162.2</course>
<desc>Speed 35.4 km/h Distance 17.77 km</desc>
<time>2010-06-13T07:14:14.64</time>
<name>4071</name>
</trkpt>
<trkpt lat="49.224338" lon="11.742182">
<ele>566.9</ele>
<speed>35.9</speed>
<course>159.9</course>
<desc>Speed 35.9 km/h Distance 17.78 km</desc>
<time>2010-06-13T07:14:15.64</time>
<name>4072</name>
</trkpt>
<trkpt lat="49.224255" lon="11.742228">
<ele>565.1</ele>
<speed>35.7</speed>
<course>162.6</course>
<desc>Speed 35.7 km/h Distance 17.79 km</desc>
<time>2010-06-13T07:14:16.63</time>
<name>4073</name>
</trkpt>
<trkpt lat="49.224168" lon="11.742270">
<ele>564.4</ele>
<speed>35.3</speed>
<course>162.2</course>
<desc>Speed 35.3 km/h Distance 17.80 km</desc>
<time>2010-06-13T07:14:17.63</time>
<name>4074</name>
</trkpt>
<trkpt lat="49.224083" lon="11.742312">
<ele>563.1</ele>
<speed>35.4</speed>
<course>162.2</course>
<desc>Speed 35.4 km/h Distance 17.81 km</desc>
<time>2010-06-13T07:14:18.64</time>
<name>4075</name>
</trkpt>
<trkpt lat="49.223998" lon="11.742353">
<ele>561.6</ele>
<speed>35.5</speed>
<course>162.2</course>
<desc>Speed 35.5 km/h Distance 17.82 km</desc>
<time>2010-06-13T07:14:19.62</time>
<name>4076</name>
</trkpt>
<trkpt lat="49.223913" lon="11.742395">
<ele>560.7</ele>
<speed>35.3</speed>
<course>162.2</course>
<desc>Speed 35.3 km/h Distance 17.83 km</desc>
<time>2010-06-13T07:14:20.64</time>
<name>4077</name>
</trkpt>
<trkpt lat="49.223828" lon="11.742437">
<ele>559.6</ele>
<speed>35.1</speed>
<course>161.9</course>
<desc>Speed 35.1 km/h Distance 17.84 km</desc>
<time>2010-06-13T07:14:21.64</time>
<name>4078</name>
</trkpt>
<trkpt lat="49.223745" lon="11.742478">
<ele>558.5</ele>
<speed>34.5</speed>
<course>161.6</course>
<desc>Speed 34.5 km/h Distance 17.85 km</desc>
<time>2010-06-13T07:14:22.63</time>
<name>4079</name>
</trkpt>
<trkpt lat="49.223663" lon="11.742520">
<ele>557.3</ele>
<speed>34.2</speed>
<course>163.6</course>
<desc>Speed 34.2 km/h Distance 17.86 km</desc>
<time>2010-06-13T07:14:23.63</time>
<name>4080</name>
</trkpt>
<trkpt lat="49.223578" lon="11.742558">
<ele>556.6</ele>
<speed>34.2</speed>
<course>162.3</course>
<desc>Speed 34.2 km/h Distance 17.87 km</desc>
<time>2010-06-13T07:14:24.63</time>
<name>4081</name>
</trkpt>
<trkpt lat="49.223497" lon="11.742598">
<ele>555.9</ele>
<speed>33.9</speed>
<course>161.6</course>
<desc>Speed 33.9 km/h Distance 17.88 km</desc>
<time>2010-06-13T07:14:25.63</time>
<name>4082</name>
</trkpt>
<trkpt lat="49.223415" lon="11.742640">
<ele>555.2</ele>
<speed>33.8</speed>
<course>162.3</course>
<desc>Speed 33.8 km/h Distance 17.89 km</desc>
<time>2010-06-13T07:14:26.63</time>
<name>4083</name>
</trkpt>
<trkpt lat="49.223333" lon="11.742680">
<ele>554.6</ele>
<speed>33.7</speed>
<course>161.9</course>
<desc>Speed 33.7 km/h Distance 17.90 km</desc>
<time>2010-06-13T07:14:27.63</time>
<name>4084</name>
</trkpt>
<trkpt lat="49.223253" lon="11.742720">
<ele>554.0</ele>
<speed>33.2</speed>
<course>162.6</course>
<desc>Speed 33.2 km/h Distance 17.91 km</desc>
<time>2010-06-13T07:14:28.63</time>
<name>4085</name>
</trkpt>
<trkpt lat="49.223173" lon="11.742758">
<ele>553.5</ele>
<speed>32.9</speed>
<course>164.1</course>
<desc>Speed 32.9 km/h Distance 17.92 km</desc>
<time>2010-06-13T07:14:29.64</time>
<name>4086</name>
</trkpt>
<trkpt lat="49.223093" lon="11.742793">
<ele>553.0</ele>
<speed>32.5</speed>
<course>163.7</course>
<desc>Speed 32.5 km/h Distance 17.93 km</desc>
<time>2010-06-13T07:14:30.64</time>
<name>4087</name>
</trkpt>
<trkpt lat="49.223015" lon="11.742828">
<ele>552.5</ele>
<speed>32.5</speed>
<course>163.0</course>
<desc>Speed 32.5 km/h Distance 17.93 km</desc>
<time>2010-06-13T07:14:31.62</time>
<name>4088</name>
</trkpt>
<trkpt lat="49.222937" lon="11.742865">
<ele>552.1</ele>
<speed>32.5</speed>
<course>163.0</course>
<desc>Speed 32.5 km/h Distance 17.94 km</desc>
<time>2010-06-13T07:14:32.63</time>
<name>4089</name>
</trkpt>
<trkpt lat="49.222858" lon="11.742902">
<ele>551.9</ele>
<speed>31.9</speed>
<course>163.5</course>
<desc>Speed 31.9 km/h Distance 17.95 km</desc>
<time>2010-06-13T07:14:33.65</time>
<name>4090</name>
</trkpt>
<trkpt lat="49.222785" lon="11.742935">
<ele>553.3</ele>
<speed>30.3</speed>
<course>164.5</course>
<desc>Speed 30.3 km/h Distance 17.96 km</desc>
<time>2010-06-13T07:14:34.64</time>
<name>4091</name>
</trkpt>
<trkpt lat="49.222718" lon="11.742963">
<ele>554.8</ele>
<speed>26.6</speed>
<course>167.0</course>
<desc>Speed 26.6 km/h Distance 17.97 km</desc>
<time>2010-06-13T07:14:35.63</time>
<name>4092</name>
</trkpt>
<trkpt lat="49.222662" lon="11.742983">
<ele>555.8</ele>
<speed>21.9</speed>
<course>167.3</course>
<desc>Speed 21.9 km/h Distance 17.98 km</desc>
<time>2010-06-13T07:14:36.64</time>
<name>4093</name>
</trkpt>
<trkpt lat="49.222613" lon="11.743000">
<ele>556.6</ele>
<speed>18.8</speed>
<course>164.2</course>
<desc>Speed 18.8 km/h Distance 17.98 km</desc>
<time>2010-06-13T07:14:37.65</time>
<name>4094</name>
</trkpt>
<trkpt lat="49.222575" lon="11.743017">
<ele>557.4</ele>
<speed>15.2</speed>
<course>152.4</course>
<desc>Speed 15.2 km/h Distance 17.99 km</desc>
<time>2010-06-13T07:14:38.64</time>
<name>4095</name>
</trkpt>
<trkpt lat="49.222550" lon="11.743037">
<ele>559.1</ele>
<speed>12.1</speed>
<course>168.5</course>
<desc>Speed 12.1 km/h Distance 17.99 km</desc>
<time>2010-06-13T07:14:39.62</time>
<name>4096</name>
</trkpt>
<trkpt lat="49.222523" lon="11.743045">
<ele>567.1</ele>
<speed>10.4</speed>
<course>125.9</course>
<desc>Speed 10.4 km/h Distance 17.99 km</desc>
<time>2010-06-13T07:14:40.63</time>
<name>4097</name>
</trkpt>
<trkpt lat="49.222508" lon="11.743077">
<ele>572.0</ele>
<speed>11.4</speed>
<course>82.7</course>
<desc>Speed 11.4 km/h Distance 17.99 km</desc>
<time>2010-06-13T07:14:41.64</time>
<name>4098</name>
</trkpt>
<trkpt lat="49.222510" lon="11.743097">
<ele>579.7</ele>
<speed>9.4</speed>
<course>57.8</course>
<desc>Speed 9.4 km/h Distance 18.00 km</desc>
<time>2010-06-13T07:14:42.64</time>
<name>4099</name>
</trkpt>
<trkpt lat="49.222522" lon="11.743125">
<ele>583.1</ele>
<speed>8.4</speed>
<course>40.1</course>
<desc>Speed 8.4 km/h Distance 18.00 km</desc>
<time>2010-06-13T07:14:43.64</time>
<name>4100</name>
</trkpt>
<trkpt lat="49.222533" lon="11.743140">
<ele>584.8</ele>
<speed>7.5</speed>
<course>41.9</course>
<desc>Speed 7.5 km/h Distance 18.00 km</desc>
<time>2010-06-13T07:14:44.62</time>
<name>4101</name>
</trkpt>
<trkpt lat="49.222547" lon="11.743158">
<ele>585.3</ele>
<speed>6.8</speed>
<course>60.2</course>
<desc>Speed 6.8 km/h Distance 18.00 km</desc>
<time>2010-06-13T07:14:45.63</time>
<name>4102</name>
</trkpt>
<trkpt lat="49.222557" lon="11.743185">
<ele>586.1</ele>
<speed>7.4</speed>
<course>47.4</course>
<desc>Speed 7.4 km/h Distance 18.00 km</desc>
<time>2010-06-13T07:14:46.64</time>
<name>4103</name>
</trkpt>
<trkpt lat="49.222567" lon="11.743202">
<ele>587.1</ele>
<speed>7.7</speed>
<course>57.2</course>
<desc>Speed 7.7 km/h Distance 18.01 km</desc>
<time>2010-06-13T07:14:47.62</time>
<name>4104</name>
</trkpt>
<trkpt lat="49.222580" lon="11.743233">
<ele>587.5</ele>
<speed>8.1</speed>
<course>39.7</course>
<desc>Speed 8.1 km/h Distance 18.01 km</desc>
<time>2010-06-13T07:14:48.62</time>
<name>4105</name>
</trkpt>
<trkpt lat="49.222598" lon="11.743257">
<ele>588.9</ele>
<speed>8.7</speed>
<course>71.2</course>
<desc>Speed 8.7 km/h Distance 18.01 km</desc>
<time>2010-06-13T07:14:49.63</time>
<name>4106</name>
</trkpt>
<trkpt lat="49.222608" lon="11.743302">
<ele>589.1</ele>
<speed>9.6</speed>
<course>40.6</course>
<desc>Speed 9.6 km/h Distance 18.02 km</desc>
<time>2010-06-13T07:14:50.62</time>
<name>4107</name>
</trkpt>
<trkpt lat="49.222635" lon="11.743337">
<ele>588.0</ele>
<speed>10.0</speed>
<course>47.9</course>
<desc>Speed 10.0 km/h Distance 18.02 km</desc>
<time>2010-06-13T07:14:51.64</time>
<name>4108</name>
</trkpt>
<trkpt lat="49.222657" lon="11.743373">
<ele>588.0</ele>
<speed>9.0</speed>
<course>45.1</course>
<desc>Speed 9.0 km/h Distance 18.02 km</desc>
<time>2010-06-13T07:14:52.63</time>
<name>4109</name>
</trkpt>
<trkpt lat="49.222682" lon="11.743412">
<ele>586.9</ele>
<speed>9.8</speed>
<course>80.7</course>
<desc>Speed 9.8 km/h Distance 18.03 km</desc>
<time>2010-06-13T07:14:53.64</time>
<name>4110</name>
</trkpt>
<trkpt lat="49.222687" lon="11.743458">
<ele>586.9</ele>
<speed>8.7</speed>
<course>73.0</course>
<desc>Speed 8.7 km/h Distance 18.03 km</desc>
<time>2010-06-13T07:14:54.63</time>
<name>4111</name>
</trkpt>
<trkpt lat="49.222693" lon="11.743492">
<ele>587.4</ele>
<speed>8.4</speed>
<course>54.2</course>
<desc>Speed 8.4 km/h Distance 18.03 km</desc>
<time>2010-06-13T07:14:55.64</time>
<name>4112</name>
</trkpt>
<trkpt lat="49.222707" lon="11.743520">
<ele>588.6</ele>
<speed>8.1</speed>
<course>90.0</course>
<desc>Speed 8.1 km/h Distance 18.04 km</desc>
<time>2010-06-13T07:14:56.63</time>
<name>4113</name>
</trkpt>
<trkpt lat="49.222707" lon="11.743560">
<ele>588.7</ele>
<speed>8.5</speed>
<course>54.2</course>
<desc>Speed 8.5 km/h Distance 18.04 km</desc>
<time>2010-06-13T07:14:57.64</time>
<name>4114</name>
</trkpt>
<trkpt lat="49.222720" lon="11.743588">
<ele>589.4</ele>
<speed>8.5</speed>
<course>77.7</course>
<desc>Speed 8.5 km/h Distance 18.04 km</desc>
<time>2010-06-13T07:14:58.63</time>
<name>4115</name>
</trkpt>
<trkpt lat="49.222725" lon="11.743623">
<ele>589.8</ele>
<speed>7.9</speed>
<course>72.1</course>
<desc>Speed 7.9 km/h Distance 18.04 km</desc>
<time>2010-06-13T07:14:59.64</time>
<name>4116</name>
</trkpt>
<trkpt lat="49.222732" lon="11.743655">
<ele>590.7</ele>
<speed>7.7</speed>
<course>48.2</course>
<desc>Speed 7.7 km/h Distance 18.05 km</desc>
<time>2010-06-13T07:15:00.63</time>
<name>4117</name>
</trkpt>
<trkpt lat="49.222743" lon="11.743675">
<ele>590.5</ele>
<speed>7.7</speed>
<course>60.2</course>
<desc>Speed 7.7 km/h Distance 18.05 km</desc>
<time>2010-06-13T07:15:01.64</time>
<name>4118</name>
</trkpt>
<trkpt lat="49.222753" lon="11.743702">
<ele>590.5</ele>
<speed>8.7</speed>
<course>52.6</course>
<desc>Speed 8.7 km/h Distance 18.05 km</desc>
<time>2010-06-13T07:15:02.63</time>
<name>4119</name>
</trkpt>
<trkpt lat="49.222767" lon="11.743728">
<ele>591.3</ele>
<speed>8.9</speed>
<course>57.2</course>
<desc>Speed 8.9 km/h Distance 18.05 km</desc>
<time>2010-06-13T07:15:03.64</time>
<name>4120</name>
</trkpt>
<trkpt lat="49.222780" lon="11.743760">
<ele>590.5</ele>
<speed>8.7</speed>
<course>82.7</course>
<desc>Speed 8.7 km/h Distance 18.05 km</desc>
<time>2010-06-13T07:15:04.64</time>
<name>4121</name>
</trkpt>
<trkpt lat="49.222783" lon="11.743800">
<ele>590.7</ele>
<speed>7.7</speed>
<course>96.5</course>
<desc>Speed 7.7 km/h Distance 18.06 km</desc>
<time>2010-06-13T07:15:05.63</time>
<name>4122</name>
</trkpt>
<trkpt lat="49.222780" lon="11.743845">
<ele>590.9</ele>
<speed>7.5</speed>
<course>70.0</course>
<desc>Speed 7.5 km/h Distance 18.06 km</desc>
<time>2010-06-13T07:15:06.62</time>
<name>4123</name>
</trkpt>
<trkpt lat="49.222788" lon="11.743880">
<ele>591.8</ele>
<speed>8.1</speed>
<course>70.2</course>
<desc>Speed 8.1 km/h Distance 18.06 km</desc>
<time>2010-06-13T07:15:07.62</time>
<name>4124</name>
</trkpt>
<trkpt lat="49.222795" lon="11.743908">
<ele>593.5</ele>
<speed>7.0</speed>
<course>67.4</course>
<desc>Speed 7.0 km/h Distance 18.07 km</desc>
<time>2010-06-13T07:15:08.64</time>
<name>4125</name>
</trkpt>
<trkpt lat="49.222800" lon="11.743927">
<ele>594.5</ele>
<speed>6.9</speed>
<course>65.4</course>
<desc>Speed 6.9 km/h Distance 18.07 km</desc>
<time>2010-06-13T07:15:09.62</time>
<name>4126</name>
</trkpt>
<trkpt lat="49.222805" lon="11.743943">
<ele>594.8</ele>
<speed>7.2</speed>
<course>40.1</course>
<desc>Speed 7.2 km/h Distance 18.07 km</desc>
<time>2010-06-13T07:15:10.62</time>
<name>4127</name>
</trkpt>
<trkpt lat="49.222817" lon="11.743958">
<ele>594.9</ele>
<speed>6.7</speed>
<course>52.5</course>
<desc>Speed 6.7 km/h Distance 18.07 km</desc>
<time>2010-06-13T07:15:11.63</time>
<name>4128</name>
</trkpt>
<trkpt lat="49.222827" lon="11.743978">
<ele>594.3</ele>
<speed>7.3</speed>
<course>61.3</course>
<desc>Speed 7.3 km/h Distance 18.07 km</desc>
<time>2010-06-13T07:15:12.63</time>
<name>4129</name>
</trkpt>
<trkpt lat="49.222835" lon="11.744002">
<ele>595.4</ele>
<speed>6.9</speed>
<course>57.8</course>
<desc>Speed 6.9 km/h Distance 18.07 km</desc>
<time>2010-06-13T07:15:13.63</time>
<name>4130</name>
</trkpt>
<trkpt lat="49.222847" lon="11.744030">
<ele>596.1</ele>
<speed>7.2</speed>
<course>60.2</course>
<desc>Speed 7.2 km/h Distance 18.08 km</desc>
<time>2010-06-13T07:15:14.63</time>
<name>4131</name>
</trkpt>
<trkpt lat="49.222857" lon="11.744057">
<ele>596.7</ele>
<speed>7.8</speed>
<course>54.5</course>
<desc>Speed 7.8 km/h Distance 18.08 km</desc>
<time>2010-06-13T07:15:15.63</time>
<name>4132</name>
</trkpt>
<trkpt lat="49.222868" lon="11.744082">
<ele>596.3</ele>
<speed>7.6</speed>
<course>56.7</course>
<desc>Speed 7.6 km/h Distance 18.08 km</desc>
<time>2010-06-13T07:15:16.62</time>
<name>4133</name>
</trkpt>
<trkpt lat="49.222878" lon="11.744105">
<ele>596.0</ele>
<speed>7.0</speed>
<course>49.6</course>
<desc>Speed 7.0 km/h Distance 18.08 km</desc>
<time>2010-06-13T07:15:17.63</time>
<name>4134</name>
</trkpt>
<trkpt lat="49.222895" lon="11.744135">
<ele>595.5</ele>
<speed>7.4</speed>
<course>46.3</course>
<desc>Speed 7.4 km/h Distance 18.09 km</desc>
<time>2010-06-13T07:15:18.63</time>
<name>4135</name>
</trkpt>
<trkpt lat="49.222912" lon="11.744162">
<ele>594.4</ele>
<speed>7.0</speed>
<course>52.6</course>
<desc>Speed 7.0 km/h Distance 18.09 km</desc>
<time>2010-06-13T07:15:19.63</time>
<name>4136</name>
</trkpt>
<trkpt lat="49.222925" lon="11.744188">
<ele>593.9</ele>
<speed>7.2</speed>
<course>61.6</course>
<desc>Speed 7.2 km/h Distance 18.09 km</desc>
<time>2010-06-13T07:15:20.62</time>
<name>4137</name>
</trkpt>
<trkpt lat="49.222935" lon="11.744217">
<ele>594.9</ele>
<speed>6.9</speed>
<course>54.8</course>
<desc>Speed 6.9 km/h Distance 18.09 km</desc>
<time>2010-06-13T07:15:21.64</time>
<name>4138</name>
</trkpt>
<trkpt lat="49.222945" lon="11.744238">
<ele>594.9</ele>
<speed>6.8</speed>
<course>55.8</course>
<desc>Speed 6.8 km/h Distance 18.10 km</desc>
<time>2010-06-13T07:15:22.62</time>
<name>4139</name>
</trkpt>
<trkpt lat="49.222958" lon="11.744268">
<ele>594.4</ele>
<speed>7.5</speed>
<course>54.1</course>
<desc>Speed 7.5 km/h Distance 18.10 km</desc>
<time>2010-06-13T07:15:23.63</time>
<name>4140</name>
</trkpt>
<trkpt lat="49.222973" lon="11.744300">
<ele>593.7</ele>
<speed>7.3</speed>
<course>54.7</course>
<desc>Speed 7.3 km/h Distance 18.10 km</desc>
<time>2010-06-13T07:15:24.63</time>
<name>4141</name>
</trkpt>
<trkpt lat="49.222983" lon="11.744322">
<ele>593.6</ele>
<speed>7.8</speed>
<course>63.0</course>
<desc>Speed 7.8 km/h Distance 18.10 km</desc>
<time>2010-06-13T07:15:25.63</time>
<name>4142</name>
</trkpt>
<trkpt lat="49.222993" lon="11.744352">
<ele>594.1</ele>
<speed>8.0</speed>
<course>82.4</course>
<desc>Speed 8.0 km/h Distance 18.11 km</desc>
<time>2010-06-13T07:15:26.62</time>
<name>4143</name>
</trkpt>
<trkpt lat="49.222997" lon="11.744390">
<ele>595.0</ele>
<speed>8.0</speed>
<course>54.5</course>
<desc>Speed 8.0 km/h Distance 18.11 km</desc>
<time>2010-06-13T07:15:27.64</time>
<name>4144</name>
</trkpt>
<trkpt lat="49.223008" lon="11.744415">
<ele>595.6</ele>
<speed>7.6</speed>
<course>56.7</course>
<desc>Speed 7.6 km/h Distance 18.11 km</desc>
<time>2010-06-13T07:15:28.62</time>
<name>4145</name>
</trkpt>
<trkpt lat="49.223018" lon="11.744438">
<ele>595.8</ele>
<speed>7.6</speed>
<course>58.5</course>
<desc>Speed 7.6 km/h Distance 18.11 km</desc>
<time>2010-06-13T07:15:29.62</time>
<name>4146</name>
</trkpt>
<trkpt lat="49.223028" lon="11.744463">
<ele>596.3</ele>
<speed>7.2</speed>
<course>85.6</course>
<desc>Speed 7.2 km/h Distance 18.11 km</desc>
<time>2010-06-13T07:15:30.63</time>
<name>4147</name>
</trkpt>
<trkpt lat="49.223030" lon="11.744497">
<ele>597.1</ele>
<speed>7.2</speed>
<course>39.2</course>
<desc>Speed 7.2 km/h Distance 18.12 km</desc>
<time>2010-06-13T07:15:31.63</time>
<name>4148</name>
</trkpt>
<trkpt lat="49.223043" lon="11.744513">
<ele>597.0</ele>
<speed>6.7</speed>
<course>67.8</course>
<desc>Speed 6.7 km/h Distance 18.12 km</desc>
<time>2010-06-13T07:15:32.63</time>
<name>4149</name>
</trkpt>
<trkpt lat="49.223050" lon="11.744538">
<ele>597.3</ele>
<speed>7.7</speed>
<course>36.0</course>
<desc>Speed 7.7 km/h Distance 18.12 km</desc>
<time>2010-06-13T07:15:33.63</time>
<name>4150</name>
</trkpt>
<trkpt lat="49.223065" lon="11.744555">
<ele>597.6</ele>
<speed>8.1</speed>
<course>35.9</course>
<desc>Speed 8.1 km/h Distance 18.12 km</desc>
<time>2010-06-13T07:15:34.62</time>
<name>4151</name>
</trkpt>
<trkpt lat="49.223080" lon="11.744572">
<ele>597.3</ele>
<speed>7.6</speed>
<course>44.5</course>
<desc>Speed 7.6 km/h Distance 18.13 km</desc>
<time>2010-06-13T07:15:35.62</time>
<name>4152</name>
</trkpt>
<trkpt lat="49.223090" lon="11.744587">
<ele>597.1</ele>
<speed>6.4</speed>
<course>46.7</course>
<desc>Speed 6.4 km/h Distance 18.13 km</desc>
<time>2010-06-13T07:15:36.62</time>
<name>4153</name>
</trkpt>
<trkpt lat="49.223103" lon="11.744608">
<ele>596.5</ele>
<speed>6.2</speed>
<course>33.2</course>
<desc>Speed 6.2 km/h Distance 18.13 km</desc>
<time>2010-06-13T07:15:37.64</time>
<name>4154</name>
</trkpt>
<trkpt lat="49.223117" lon="11.744622">
<ele>598.6</ele>
<speed>6.9</speed>
<course>28.9</course>
<desc>Speed 6.9 km/h Distance 18.13 km</desc>
<time>2010-06-13T07:15:38.64</time>
<name>4155</name>
</trkpt>
<trkpt lat="49.223138" lon="11.744640">
<ele>597.8</ele>
<speed>6.9</speed>
<course>8.1</course>
<desc>Speed 6.9 km/h Distance 18.13 km</desc>
<time>2010-06-13T07:15:39.63</time>
<name>4156</name>
</trkpt>
<trkpt lat="49.223153" lon="11.744643">
<ele>597.9</ele>
<speed>6.4</speed>
<course>351.0</course>
<desc>Speed 6.4 km/h Distance 18.13 km</desc>
<time>2010-06-13T07:15:40.63</time>
<name>4157</name>
</trkpt>
<trkpt lat="49.223167" lon="11.744640">
<ele>597.5</ele>
<speed>6.3</speed>
<course>0.0</course>
<desc>Speed 6.3 km/h Distance 18.14 km</desc>
<time>2010-06-13T07:15:41.63</time>
<name>4158</name>
</trkpt>
<trkpt lat="49.223177" lon="11.744640">
<ele>597.3</ele>
<speed>6.2</speed>
<course>12.6</course>
<desc>Speed 6.2 km/h Distance 18.14 km</desc>
<time>2010-06-13T07:15:42.63</time>
<name>4159</name>
</trkpt>
<trkpt lat="49.223192" lon="11.744645">
<ele>598.9</ele>
<speed>5.7</speed>
<course>20.6</course>
<desc>Speed 5.7 km/h Distance 18.14 km</desc>
<time>2010-06-13T07:15:43.63</time>
<name>4160</name>
</trkpt>
<trkpt lat="49.223203" lon="11.744652">
<ele>599.1</ele>
<speed>3.6</speed>
<course>341.9</course>
<desc>Speed 3.6 km/h Distance 18.14 km</desc>
<time>2010-06-13T07:15:44.63</time>
<name>4161</name>
</trkpt>
<trkpt lat="49.223217" lon="11.744645">
<ele>602.4</ele>
<speed>4.0</speed>
<course>28.6</course>
<desc>Speed 4.0 km/h Distance 18.14 km</desc>
<time>2010-06-13T07:15:45.62</time>
<name>4162</name>
</trkpt>
<trkpt lat="49.223227" lon="11.744653">
<ele>604.0</ele>
<speed>3.5</speed>
<course>25.0</course>
<desc>Speed 3.5 km/h Distance 18.14 km</desc>
<time>2010-06-13T07:15:46.63</time>
<name>4163</name>
</trkpt>
<trkpt lat="49.223250" lon="11.744670">
<ele>603.7</ele>
<speed>6.0</speed>
<course>13.2</course>
<desc>Speed 6.0 km/h Distance 18.15 km</desc>
<time>2010-06-13T07:15:47.62</time>
<name>4164</name>
</trkpt>
<trkpt lat="49.223273" lon="11.744678">
<ele>604.7</ele>
<speed>6.9</speed>
<course>72.3</course>
<desc>Speed 6.9 km/h Distance 18.15 km</desc>
<time>2010-06-13T07:15:48.63</time>
<name>4165</name>
</trkpt>
<trkpt lat="49.223282" lon="11.744718">
<ele>602.2</ele>
<speed>4.9</speed>
<course>19.6</course>
<desc>Speed 4.9 km/h Distance 18.15 km</desc>
<time>2010-06-13T07:15:49.63</time>
<name>4166</name>
</trkpt>
<trkpt lat="49.223297" lon="11.744727">
<ele>601.9</ele>
<speed>4.2</speed>
<course>4.6</course>
<desc>Speed 4.2 km/h Distance 18.15 km</desc>
<time>2010-06-13T07:15:50.62</time>
<name>4167</name>
</trkpt>
<trkpt lat="49.223323" lon="11.744730">
<ele>600.3</ele>
<speed>5.9</speed>
<course>19.1</course>
<desc>Speed 5.9 km/h Distance 18.16 km</desc>
<time>2010-06-13T07:15:51.62</time>
<name>4168</name>
</trkpt>
<trkpt lat="49.223352" lon="11.744745">
<ele>600.7</ele>
<speed>5.6</speed>
<course>18.1</course>
<desc>Speed 5.6 km/h Distance 18.16 km</desc>
<time>2010-06-13T07:15:52.63</time>
<name>4169</name>
</trkpt>
<trkpt lat="49.223368" lon="11.744753">
<ele>601.0</ele>
<speed>5.1</speed>
<course>27.7</course>
<desc>Speed 5.1 km/h Distance 18.16 km</desc>
<time>2010-06-13T07:15:53.62</time>
<name>4170</name>
</trkpt>
<trkpt lat="49.223385" lon="11.744767">
<ele>602.1</ele>
<speed>5.3</speed>
<course>5.0</course>
<desc>Speed 5.3 km/h Distance 18.16 km</desc>
<time>2010-06-13T07:15:54.63</time>
<name>4171</name>
</trkpt>
<trkpt lat="49.223410" lon="11.744770">
<ele>600.8</ele>
<speed>4.8</speed>
<course>41.0</course>
<desc>Speed 4.8 km/h Distance 18.17 km</desc>
<time>2010-06-13T07:15:55.62</time>
<name>4172</name>
</trkpt>
<trkpt lat="49.223430" lon="11.744797">
<ele>597.6</ele>
<speed>4.8</speed>
<course>63.0</course>
<desc>Speed 4.8 km/h Distance 18.17 km</desc>
<time>2010-06-13T07:15:56.62</time>
<name>4173</name>
</trkpt>
<trkpt lat="49.223433" lon="11.744807">
<ele>599.7</ele>
<speed>5.4</speed>
<course>60.2</course>
<desc>Speed 5.4 km/h Distance 18.17 km</desc>
<time>2010-06-13T07:15:57.63</time>
<name>4174</name>
</trkpt>
<trkpt lat="49.223443" lon="11.744833">
<ele>599.9</ele>
<speed>6.9</speed>
<course>33.1</course>
<desc>Speed 6.9 km/h Distance 18.17 km</desc>
<time>2010-06-13T07:15:58.62</time>
<name>4175</name>
</trkpt>
<trkpt lat="49.223455" lon="11.744845">
<ele>601.2</ele>
<speed>5.9</speed>
<course>28.6</course>
<desc>Speed 5.9 km/h Distance 18.17 km</desc>
<time>2010-06-13T07:15:59.63</time>
<name>4176</name>
</trkpt>
<trkpt lat="49.223465" lon="11.744853">
<ele>604.0</ele>
<speed>5.7</speed>
<course>52.6</course>
<desc>Speed 5.7 km/h Distance 18.18 km</desc>
<time>2010-06-13T07:16:00.62</time>
<name>4177</name>
</trkpt>
<trkpt lat="49.223475" lon="11.744873">
<ele>605.7</ele>
<speed>5.7</speed>
<course>56.7</course>
<desc>Speed 5.7 km/h Distance 18.18 km</desc>
<time>2010-06-13T07:16:01.63</time>
<name>4178</name>
</trkpt>
<trkpt lat="49.223480" lon="11.744885">
<ele>606.9</ele>
<speed>5.5</speed>
<course>33.1</course>
<desc>Speed 5.5 km/h Distance 18.18 km</desc>
<time>2010-06-13T07:16:02.63</time>
<name>4179</name>
</trkpt>
<trkpt lat="49.223497" lon="11.744902">
<ele>607.5</ele>
<speed>5.9</speed>
<course>90.0</course>
<desc>Speed 5.9 km/h Distance 18.18 km</desc>
<time>2010-06-13T07:16:03.61</time>
<name>4180</name>
</trkpt>
<trkpt lat="49.223497" lon="11.744905">
<ele>608.9</ele>
<speed>4.0</speed>
<course>63.0</course>
<desc>Speed 4.0 km/h Distance 18.18 km</desc>
<time>2010-06-13T07:16:04.62</time>
<name>4181</name>
</trkpt>
<trkpt lat="49.223500" lon="11.744915">
<ele>610.5</ele>
<speed>4.0</speed>
<course>85.8</course>
<desc>Speed 4.0 km/h Distance 18.18 km</desc>
<time>2010-06-13T07:16:05.62</time>
<name>4182</name>
</trkpt>
<trkpt lat="49.223502" lon="11.744950">
<ele>609.7</ele>
<speed>4.4</speed>
<course>43.1</course>
<desc>Speed 4.4 km/h Distance 18.18 km</desc>
<time>2010-06-13T07:16:06.63</time>
<name>4183</name>
</trkpt>
<trkpt lat="49.223513" lon="11.744967">
<ele>611.5</ele>
<speed>6.5</speed>
<course>348.8</course>
<desc>Speed 6.5 km/h Distance 18.19 km</desc>
<time>2010-06-13T07:16:07.62</time>
<name>4184</name>
</trkpt>
<trkpt lat="49.223530" lon="11.744962">
<ele>615.2</ele>
<speed>6.3</speed>
<course>47.4</course>
<desc>Speed 6.3 km/h Distance 18.19 km</desc>
<time>2010-06-13T07:16:08.62</time>
<name>4185</name>
</trkpt>
<trkpt lat="49.223540" lon="11.744978">
<ele>614.4</ele>
<speed>6.0</speed>
<course>35.4</course>
<desc>Speed 6.0 km/h Distance 18.19 km</desc>
<time>2010-06-13T07:16:09.62</time>
<name>4186</name>
</trkpt>
<trkpt lat="49.223558" lon="11.744998">
<ele>613.8</ele>
<speed>6.1</speed>
<course>36.0</course>
<desc>Speed 6.1 km/h Distance 18.19 km</desc>
<time>2010-06-13T07:16:10.63</time>
<name>4187</name>
</trkpt>
<trkpt lat="49.223603" lon="11.745048">
<ele>612.3</ele>
<speed>6.8</speed>
<course>20.1</course>
<desc>Speed 6.8 km/h Distance 18.20 km</desc>
<time>2010-06-13T07:16:12.62</time>
<name>4188</name>
</trkpt>
<trkpt lat="49.223618" lon="11.745057">
<ele>613.2</ele>
<speed>5.5</speed>
<course>4.7</course>
<desc>Speed 5.5 km/h Distance 18.20 km</desc>
<time>2010-06-13T07:16:13.62</time>
<name>4189</name>
</trkpt>
<trkpt lat="49.223630" lon="11.745058">
<ele>614.4</ele>
<speed>3.8</speed>
<course>32.5</course>
<desc>Speed 3.8 km/h Distance 18.20 km</desc>
<time>2010-06-13T07:16:14.62</time>
<name>4190</name>
</trkpt>
<trkpt lat="49.223638" lon="11.745067">
<ele>615.4</ele>
<speed>3.6</speed>
<course>77.7</course>
<desc>Speed 3.6 km/h Distance 18.20 km</desc>
<time>2010-06-13T07:16:15.63</time>
<name>4191</name>
</trkpt>
<trkpt lat="49.223643" lon="11.745102">
<ele>615.6</ele>
<speed>4.4</speed>
<course>21.5</course>
<desc>Speed 4.4 km/h Distance 18.21 km</desc>
<time>2010-06-13T07:16:16.63</time>
<name>4192</name>
</trkpt>
<trkpt lat="49.223660" lon="11.745112">
<ele>615.2</ele>
<speed>4.2</speed>
<course>29.6</course>
<desc>Speed 4.2 km/h Distance 18.21 km</desc>
<time>2010-06-13T07:16:17.62</time>
<name>4193</name>
</trkpt>
<trkpt lat="49.223698" lon="11.745145">
<ele>613.7</ele>
<speed>3.3</speed>
<course>6.1</course>
<desc>Speed 3.3 km/h Distance 18.21 km</desc>
<time>2010-06-13T07:16:19.62</time>
<name>4194</name>
</trkpt>
<trkpt lat="49.223718" lon="11.745148">
<ele>613.3</ele>
<speed>4.0</speed>
<course>31.2</course>
<desc>Speed 4.0 km/h Distance 18.21 km</desc>
<time>2010-06-13T07:16:20.62</time>
<name>4195</name>
</trkpt>
<trkpt lat="49.223742" lon="11.745170">
<ele>612.1</ele>
<speed>5.0</speed>
<course>14.6</course>
<desc>Speed 5.0 km/h Distance 18.22 km</desc>
<time>2010-06-13T07:16:21.63</time>
<name>4196</name>
</trkpt>
<trkpt lat="49.223767" lon="11.745180">
<ele>610.8</ele>
<speed>5.7</speed>
<course>36.4</course>
<desc>Speed 5.7 km/h Distance 18.22 km</desc>
<time>2010-06-13T07:16:22.63</time>
<name>4197</name>
</trkpt>
<trkpt lat="49.223780" lon="11.745195">
<ele>610.2</ele>
<speed>5.5</speed>
<course>26.1</course>
<desc>Speed 5.5 km/h Distance 18.22 km</desc>
<time>2010-06-13T07:16:23.63</time>
<name>4198</name>
</trkpt>
<trkpt lat="49.223800" lon="11.745210">
<ele>610.2</ele>
<speed>6.0</speed>
<course>33.2</course>
<desc>Speed 6.0 km/h Distance 18.22 km</desc>
<time>2010-06-13T07:16:24.63</time>
<name>4199</name>
</trkpt>
<trkpt lat="49.223817" lon="11.745227">
<ele>610.1</ele>
<speed>5.9</speed>
<course>52.6</course>
<desc>Speed 5.9 km/h Distance 18.23 km</desc>
<time>2010-06-13T07:16:25.62</time>
<name>4200</name>
</trkpt>
<trkpt lat="49.223830" lon="11.745253">
<ele>609.8</ele>
<speed>6.0</speed>
<course>56.7</course>
<desc>Speed 6.0 km/h Distance 18.23 km</desc>
<time>2010-06-13T07:16:26.63</time>
<name>4201</name>
</trkpt>
<trkpt lat="49.223840" lon="11.745277">
<ele>611.3</ele>
<speed>5.6</speed>
<course>23.6</course>
<desc>Speed 5.6 km/h Distance 18.23 km</desc>
<time>2010-06-13T07:16:27.63</time>
<name>4202</name>
</trkpt>
<trkpt lat="49.223860" lon="11.745290">
<ele>611.0</ele>
<speed>5.5</speed>
<course>50.1</course>
<desc>Speed 5.5 km/h Distance 18.23 km</desc>
<time>2010-06-13T07:16:28.61</time>
<name>4203</name>
</trkpt>
<trkpt lat="49.223870" lon="11.745308">
<ele>610.0</ele>
<speed>4.8</speed>
<course>55.9</course>
<desc>Speed 4.8 km/h Distance 18.24 km</desc>
<time>2010-06-13T07:16:29.63</time>
<name>4204</name>
</trkpt>
<trkpt lat="49.223877" lon="11.745323">
<ele>611.7</ele>
<speed>4.6</speed>
<course>27.9</course>
<desc>Speed 4.6 km/h Distance 18.24 km</desc>
<time>2010-06-13T07:16:30.63</time>
<name>4205</name>
</trkpt>
<trkpt lat="49.223885" lon="11.745330">
<ele>612.5</ele>
<speed>4.1</speed>
<course>5.0</course>
<desc>Speed 4.1 km/h Distance 18.24 km</desc>
<time>2010-06-13T07:16:31.63</time>
<name>4206</name>
</trkpt>
<trkpt lat="49.223893" lon="11.745330">
<ele>612.6</ele>
<speed>2.8</speed>
<course>46.4</course>
<desc>Speed 2.8 km/h Distance 18.24 km</desc>
<time>2010-06-13T07:16:32.62</time>
<name>4207</name>
</trkpt>
<trkpt lat="49.223902" lon="11.745343">
<ele>612.3</ele>
<speed>4.5</speed>
<course>69.1</course>
<desc>Speed 4.5 km/h Distance 18.24 km</desc>
<time>2010-06-13T07:16:33.64</time>
<name>4208</name>
</trkpt>
<trkpt lat="49.223907" lon="11.745363">
<ele>610.5</ele>
<speed>3.7</speed>
<course>3.8</course>
<desc>Speed 3.7 km/h Distance 18.24 km</desc>
<time>2010-06-13T07:16:34.64</time>
<name>4209</name>
</trkpt>
<trkpt lat="49.223922" lon="11.745365">
<ele>610.8</ele>
<speed>3.2</speed>
<course>18.1</course>
<desc>Speed 3.2 km/h Distance 18.24 km</desc>
<time>2010-06-13T07:16:35.64</time>
<name>4210</name>
</trkpt>
<trkpt lat="49.223935" lon="11.745372">
<ele>611.6</ele>
<speed>5.0</speed>
<course>18.2</course>
<desc>Speed 5.0 km/h Distance 18.24 km</desc>
<time>2010-06-13T07:16:36.63</time>
<name>4211</name>
</trkpt>
<trkpt lat="49.223955" lon="11.745382">
<ele>613.8</ele>
<speed>6.2</speed>
<course>26.1</course>
<desc>Speed 6.2 km/h Distance 18.25 km</desc>
<time>2010-06-13T07:16:37.63</time>
<name>4212</name>
</trkpt>
<trkpt lat="49.223982" lon="11.745402">
<ele>613.1</ele>
<speed>6.9</speed>
<course>29.7</course>
<desc>Speed 6.9 km/h Distance 18.25 km</desc>
<time>2010-06-13T07:16:38.62</time>
<name>4213</name>
</trkpt>
<trkpt lat="49.224035" lon="11.745448">
<ele>612.8</ele>
<speed>8.0</speed>
<course>54.2</course>
<desc>Speed 8.0 km/h Distance 18.26 km</desc>
<time>2010-06-13T07:16:40.63</time>
<name>4214</name>
</trkpt>
<trkpt lat="49.224048" lon="11.745477">
<ele>612.2</ele>
<speed>6.8</speed>
<course>56.7</course>
<desc>Speed 6.8 km/h Distance 18.26 km</desc>
<time>2010-06-13T07:16:41.62</time>
<name>4215</name>
</trkpt>
<trkpt lat="49.224058" lon="11.745500">
<ele>613.7</ele>
<speed>6.3</speed>
<course>96.7</course>
<desc>Speed 6.3 km/h Distance 18.26 km</desc>
<time>2010-06-13T07:16:42.64</time>
<name>4216</name>
</trkpt>
<trkpt lat="49.224055" lon="11.745543">
<ele>614.5</ele>
<speed>5.8</speed>
<course>86.0</course>
<desc>Speed 5.8 km/h Distance 18.27 km</desc>
<time>2010-06-13T07:16:43.63</time>
<name>4217</name>
</trkpt>
<trkpt lat="49.224057" lon="11.745580">
<ele>614.2</ele>
<speed>5.3</speed>
<course>90.0</course>
<desc>Speed 5.3 km/h Distance 18.27 km</desc>
<time>2010-06-13T07:16:44.63</time>
<name>4218</name>
</trkpt>
<trkpt lat="49.224057" lon="11.745607">
<ele>615.5</ele>
<speed>4.6</speed>
<course>82.1</course>
<desc>Speed 4.6 km/h Distance 18.27 km</desc>
<time>2010-06-13T07:16:45.64</time>
<name>4219</name>
</trkpt>
<trkpt lat="49.224060" lon="11.745643">
<ele>616.7</ele>
<speed>5.0</speed>
<course>64.8</course>
<desc>Speed 5.0 km/h Distance 18.27 km</desc>
<time>2010-06-13T07:16:46.63</time>
<name>4220</name>
</trkpt>
<trkpt lat="49.224067" lon="11.745665">
<ele>620.0</ele>
<speed>4.0</speed>
<course>8.1</course>
<desc>Speed 4.0 km/h Distance 18.27 km</desc>
<time>2010-06-13T07:16:47.62</time>
<name>4221</name>
</trkpt>
<trkpt lat="49.224082" lon="11.745668">
<ele>619.7</ele>
<speed>4.2</speed>
<course>329.1</course>
<desc>Speed 4.2 km/h Distance 18.28 km</desc>
<time>2010-06-13T07:16:48.64</time>
<name>4222</name>
</trkpt>
<trkpt lat="49.224102" lon="11.745650">
<ele>619.3</ele>
<speed>4.8</speed>
<course>353.0</course>
<desc>Speed 4.8 km/h Distance 18.28 km</desc>
<time>2010-06-13T07:16:49.62</time>
<name>4223</name>
</trkpt>
<trkpt lat="49.224120" lon="11.745647">
<ele>619.5</ele>
<speed>5.4</speed>
<course>348.6</course>
<desc>Speed 5.4 km/h Distance 18.28 km</desc>
<time>2010-06-13T07:16:50.62</time>
<name>4224</name>
</trkpt>
<trkpt lat="49.224142" lon="11.745640">
<ele>620.4</ele>
<speed>4.7</speed>
<course>23.5</course>
<desc>Speed 4.7 km/h Distance 18.28 km</desc>
<time>2010-06-13T07:16:51.63</time>
<name>4225</name>
</trkpt>
<trkpt lat="49.224157" lon="11.745650">
<ele>622.1</ele>
<speed>4.4</speed>
<course>9.8</course>
<desc>Speed 4.4 km/h Distance 18.28 km</desc>
<time>2010-06-13T07:16:52.63</time>
<name>4226</name>
</trkpt>
<trkpt lat="49.224182" lon="11.745657">
<ele>622.9</ele>
<speed>5.4</speed>
<course>27.1</course>
<desc>Speed 5.4 km/h Distance 18.29 km</desc>
<time>2010-06-13T07:16:53.61</time>
<name>4227</name>
</trkpt>
<trkpt lat="49.224205" lon="11.745675">
<ele>621.5</ele>
<speed>6.4</speed>
<course>12.8</course>
<desc>Speed 6.4 km/h Distance 18.29 km</desc>
<time>2010-06-13T07:16:54.62</time>
<name>4228</name>
</trkpt>
<trkpt lat="49.224233" lon="11.745685">
<ele>619.2</ele>
<speed>7.6</speed>
<course>0.0</course>
<desc>Speed 7.6 km/h Distance 18.29 km</desc>
<time>2010-06-13T07:16:55.63</time>
<name>4229</name>
</trkpt>
<trkpt lat="49.224258" lon="11.745685">
<ele>621.0</ele>
<speed>8.0</speed>
<course>39.7</course>
<desc>Speed 8.0 km/h Distance 18.30 km</desc>
<time>2010-06-13T07:16:56.63</time>
<name>4230</name>
</trkpt>
<trkpt lat="49.224277" lon="11.745708">
<ele>623.8</ele>
<speed>6.1</speed>
<course>56.2</course>
<desc>Speed 6.1 km/h Distance 18.30 km</desc>
<time>2010-06-13T07:16:57.63</time>
<name>4231</name>
</trkpt>
<trkpt lat="49.224288" lon="11.745735">
<ele>624.4</ele>
<speed>4.7</speed>
<course>65.7</course>
<desc>Speed 4.7 km/h Distance 18.30 km</desc>
<time>2010-06-13T07:16:58.64</time>
<name>4232</name>
</trkpt>
<trkpt lat="49.224297" lon="11.745763">
<ele>625.6</ele>
<speed>5.4</speed>
<course>7.7</course>
<desc>Speed 5.4 km/h Distance 18.30 km</desc>
<time>2010-06-13T07:16:59.63</time>
<name>4233</name>
</trkpt>
<trkpt lat="49.224313" lon="11.745767">
<ele>625.5</ele>
<speed>5.8</speed>
<course>43.5</course>
<desc>Speed 5.8 km/h Distance 18.31 km</desc>
<time>2010-06-13T07:17:00.62</time>
<name>4234</name>
</trkpt>
<trkpt lat="49.224332" lon="11.745793">
<ele>624.2</ele>
<speed>5.1</speed>
<course>67.8</course>
<desc>Speed 5.1 km/h Distance 18.31 km</desc>
<time>2010-06-13T07:17:01.62</time>
<name>4235</name>
</trkpt>
<trkpt lat="49.224338" lon="11.745818">
<ele>624.7</ele>
<speed>4.2</speed>
<course>90.0</course>
<desc>Speed 4.2 km/h Distance 18.31 km</desc>
<time>2010-06-13T07:17:02.62</time>
<name>4236</name>
</trkpt>
<trkpt lat="49.224338" lon="11.745833">
<ele>626.1</ele>
<speed>3.0</speed>
<course>90.0</course>
<desc>Speed 3.0 km/h Distance 18.31 km</desc>
<time>2010-06-13T07:17:03.63</time>
<name>4237</name>
</trkpt>
<trkpt lat="49.224338" lon="11.745858">
<ele>628.1</ele>
<speed>4.3</speed>
<course>27.1</course>
<desc>Speed 4.3 km/h Distance 18.31 km</desc>
<time>2010-06-13T07:17:04.62</time>
<name>4238</name>
</trkpt>
<trkpt lat="49.224362" lon="11.745877">
<ele>627.9</ele>
<speed>4.8</speed>
<course>96.2</course>
<desc>Speed 4.8 km/h Distance 18.32 km</desc>
<time>2010-06-13T07:17:05.62</time>
<name>4239</name>
</trkpt>
<trkpt lat="49.224360" lon="11.745900">
<ele>627.5</ele>
<speed>4.8</speed>
<course>77.1</course>
<desc>Speed 4.8 km/h Distance 18.32 km</desc>
<time>2010-06-13T07:17:06.62</time>
<name>4240</name>
</trkpt>
<trkpt lat="49.224365" lon="11.745933">
<ele>626.7</ele>
<speed>5.5</speed>
<course>86.3</course>
<desc>Speed 5.5 km/h Distance 18.32 km</desc>
<time>2010-06-13T07:17:07.63</time>
<name>4241</name>
</trkpt>
<trkpt lat="49.224367" lon="11.745973">
<ele>625.5</ele>
<speed>5.7</speed>
<course>77.7</course>
<desc>Speed 5.7 km/h Distance 18.32 km</desc>
<time>2010-06-13T07:17:08.62</time>
<name>4242</name>
</trkpt>
<trkpt lat="49.224372" lon="11.746008">
<ele>624.8</ele>
<speed>5.4</speed>
<course>77.7</course>
<desc>Speed 5.4 km/h Distance 18.33 km</desc>
<time>2010-06-13T07:17:09.62</time>
<name>4243</name>
</trkpt>
<trkpt lat="49.224375" lon="11.746032">
<ele>625.8</ele>
<speed>3.0</speed>
<course>96.7</course>
<desc>Speed 3.0 km/h Distance 18.33 km</desc>
<time>2010-06-13T07:17:10.62</time>
<name>4244</name>
</trkpt>
<trkpt lat="49.224373" lon="11.746053">
<ele>626.4</ele>
<speed>2.5</speed>
<course>13.5</course>
<desc>Speed 2.5 km/h Distance 18.33 km</desc>
<time>2010-06-13T07:17:11.63</time>
<name>4245</name>
</trkpt>
<trkpt lat="49.224387" lon="11.746058">
<ele>629.3</ele>
<speed>1.0</speed>
<course>99.6</course>
<desc>Speed 1.0 km/h Distance 18.33 km</desc>
<time>2010-06-13T07:17:12.62</time>
<name>4246</name>
</trkpt>
<trkpt lat="49.224385" lon="11.746073">
<ele>632.8</ele>
<speed>2.4</speed>
<course>37.5</course>
<desc>Speed 2.4 km/h Distance 18.33 km</desc>
<time>2010-06-13T07:17:13.63</time>
<name>4247</name>
</trkpt>
<trkpt lat="49.224395" lon="11.746085">
<ele>633.9</ele>
<speed>3.3</speed>
<course>44.4</course>
<desc>Speed 3.3 km/h Distance 18.33 km</desc>
<time>2010-06-13T07:17:14.62</time>
<name>4248</name>
</trkpt>
<trkpt lat="49.224405" lon="11.746100">
<ele>633.8</ele>
<speed>4.2</speed>
<course>54.7</course>
<desc>Speed 4.2 km/h Distance 18.33 km</desc>
<time>2010-06-13T07:17:15.62</time>
<name>4249</name>
</trkpt>
<trkpt lat="49.224415" lon="11.746122">
<ele>633.5</ele>
<speed>4.9</speed>
<course>74.9</course>
<desc>Speed 4.9 km/h Distance 18.34 km</desc>
<time>2010-06-13T07:17:16.62</time>
<name>4250</name>
</trkpt>
<trkpt lat="49.224420" lon="11.746150">
<ele>633.5</ele>
<speed>4.1</speed>
<course>90.0</course>
<desc>Speed 4.1 km/h Distance 18.34 km</desc>
<time>2010-06-13T07:17:17.62</time>
<name>4251</name>
</trkpt>
<trkpt lat="49.224420" lon="11.746182">
<ele>632.7</ele>
<speed>2.9</speed>
<course>107.0</course>
<desc>Speed 2.9 km/h Distance 18.34 km</desc>
<time>2010-06-13T07:17:18.63</time>
<name>4252</name>
</trkpt>
<trkpt lat="49.224417" lon="11.746198">
<ele>632.5</ele>
<speed>3.2</speed>
<course>26.4</course>
<desc>Speed 3.2 km/h Distance 18.34 km</desc>
<time>2010-06-13T07:17:19.61</time>
<name>4253</name>
</trkpt>
<trkpt lat="49.224423" lon="11.746203">
<ele>632.7</ele>
<speed>3.8</speed>
<course>52.4</course>
<desc>Speed 3.8 km/h Distance 18.34 km</desc>
<time>2010-06-13T07:17:20.63</time>
<name>4254</name>
</trkpt>
<trkpt lat="49.224428" lon="11.746213">
<ele>635.2</ele>
<speed>4.8</speed>
<course>333.8</course>
<desc>Speed 4.8 km/h Distance 18.34 km</desc>
<time>2010-06-13T07:17:21.62</time>
<name>4255</name>
</trkpt>
<trkpt lat="49.224442" lon="11.746203">
<ele>636.2</ele>
<speed>5.0</speed>
<course>33.2</course>
<desc>Speed 5.0 km/h Distance 18.35 km</desc>
<time>2010-06-13T07:17:22.62</time>
<name>4256</name>
</trkpt>
<trkpt lat="49.224448" lon="11.746210">
<ele>639.3</ele>
<speed>3.5</speed>
<course>115.6</course>
<desc>Speed 3.5 km/h Distance 18.35 km</desc>
<time>2010-06-13T07:17:23.62</time>
<name>4257</name>
</trkpt>
<trkpt lat="49.224440" lon="11.746237">
<ele>640.3</ele>
<speed>2.4</speed>
<course>127.4</course>
<desc>Speed 2.4 km/h Distance 18.35 km</desc>
<time>2010-06-13T07:17:24.62</time>
<name>4258</name>
</trkpt>
<trkpt lat="49.224432" lon="11.746253">
<ele>642.6</ele>
<speed>3.8</speed>
<course>45.6</course>
<desc>Speed 3.8 km/h Distance 18.35 km</desc>
<time>2010-06-13T07:17:25.61</time>
<name>4259</name>
</trkpt>
<trkpt lat="49.224443" lon="11.746272">
<ele>642.9</ele>
<speed>5.0</speed>
<course>140.0</course>
<desc>Speed 5.0 km/h Distance 18.35 km</desc>
<time>2010-06-13T07:17:26.62</time>
<name>4260</name>
</trkpt>
<trkpt lat="49.224432" lon="11.746287">
<ele>643.7</ele>
<speed>4.8</speed>
<course>14.9</course>
<desc>Speed 4.8 km/h Distance 18.35 km</desc>
<time>2010-06-13T07:17:27.62</time>
<name>4261</name>
</trkpt>
<trkpt lat="49.224443" lon="11.746292">
<ele>643.2</ele>
<speed>4.2</speed>
<course>66.4</course>
<desc>Speed 4.2 km/h Distance 18.36 km</desc>
<time>2010-06-13T07:17:28.61</time>
<name>4262</name>
</trkpt>
<trkpt lat="49.224450" lon="11.746315">
<ele>641.8</ele>
<speed>3.6</speed>
<course>97.9</course>
<desc>Speed 3.6 km/h Distance 18.36 km</desc>
<time>2010-06-13T07:17:29.62</time>
<name>4263</name>
</trkpt>
<trkpt lat="49.224448" lon="11.746333">
<ele>641.7</ele>
<speed>2.9</speed>
<course>110.9</course>
<desc>Speed 2.9 km/h Distance 18.36 km</desc>
<time>2010-06-13T07:17:30.62</time>
<name>4264</name>
</trkpt>
<trkpt lat="49.224440" lon="11.746367">
<ele>641.5</ele>
<speed>3.7</speed>
<course>75.7</course>
<desc>Speed 3.7 km/h Distance 18.36 km</desc>
<time>2010-06-13T07:17:31.61</time>
<name>4265</name>
</trkpt>
<trkpt lat="49.224443" lon="11.746387">
<ele>641.8</ele>
<speed>4.9</speed>
<course>68.9</course>
<desc>Speed 4.9 km/h Distance 18.36 km</desc>
<time>2010-06-13T07:17:32.63</time>
<name>4266</name>
</trkpt>
<trkpt lat="49.224447" lon="11.746400">
<ele>642.0</ele>
<speed>3.0</speed>
<course>354.7</course>
<desc>Speed 3.0 km/h Distance 18.36 km</desc>
<time>2010-06-13T07:17:33.63</time>
<name>4267</name>
</trkpt>
<trkpt lat="49.224460" lon="11.746398">
<ele>642.1</ele>
<speed>2.8</speed>
<course>121.8</course>
<desc>Speed 2.8 km/h Distance 18.37 km</desc>
<time>2010-06-13T07:17:34.62</time>
<name>4268</name>
</trkpt>
<trkpt lat="49.224457" lon="11.746407">
<ele>643.5</ele>
<speed>3.6</speed>
<course>55.7</course>
<desc>Speed 3.6 km/h Distance 18.37 km</desc>
<time>2010-06-13T07:17:35.61</time>
<name>4269</name>
</trkpt>
<trkpt lat="49.224463" lon="11.746422">
<ele>643.5</ele>
<speed>3.5</speed>
<course>18.2</course>
<desc>Speed 3.5 km/h Distance 18.37 km</desc>
<time>2010-06-13T07:17:36.62</time>
<name>4270</name>
</trkpt>
<trkpt lat="49.224483" lon="11.746432">
<ele>642.9</ele>
<speed>3.5</speed>
<course>27.3</course>
<desc>Speed 3.5 km/h Distance 18.37 km</desc>
<time>2010-06-13T07:17:37.78</time>
<name>4271</name>
</trkpt>
<trkpt lat="49.224515" lon="11.746457">
<ele>643.4</ele>
<speed>5.4</speed>
<course>99.7</course>
<desc>Speed 5.4 km/h Distance 18.37 km</desc>
<time>2010-06-13T07:17:39.62</time>
<name>4272</name>
</trkpt>
<trkpt lat="49.224510" lon="11.746502">
<ele>641.7</ele>
<speed>4.8</speed>
<course>132.6</course>
<desc>Speed 4.8 km/h Distance 18.38 km</desc>
<time>2010-06-13T07:17:40.62</time>
<name>4273</name>
</trkpt>
<trkpt lat="49.224500" lon="11.746518">
<ele>641.9</ele>
<speed>2.8</speed>
<course>122.6</course>
<desc>Speed 2.8 km/h Distance 18.38 km</desc>
<time>2010-06-13T07:17:41.61</time>
<name>4274</name>
</trkpt>
<trkpt lat="49.224492" lon="11.746538">
<ele>643.0</ele>
<speed>4.3</speed>
<course>83.8</course>
<desc>Speed 4.3 km/h Distance 18.38 km</desc>
<time>2010-06-13T07:17:42.62</time>
<name>4275</name>
</trkpt>
<trkpt lat="49.224493" lon="11.746562">
<ele>642.9</ele>
<speed>5.0</speed>
<course>94.6</course>
<desc>Speed 5.0 km/h Distance 18.38 km</desc>
<time>2010-06-13T07:17:43.62</time>
<name>4276</name>
</trkpt>
<trkpt lat="49.224492" lon="11.746593">
<ele>640.3</ele>
<speed>4.8</speed>
<course>101.5</course>
<desc>Speed 4.8 km/h Distance 18.38 km</desc>
<time>2010-06-13T07:17:44.63</time>
<name>4277</name>
</trkpt>
<trkpt lat="49.224488" lon="11.746618">
<ele>640.3</ele>
<speed>4.4</speed>
<course>108.8</course>
<desc>Speed 4.4 km/h Distance 18.39 km</desc>
<time>2010-06-13T07:17:45.61</time>
<name>4278</name>
</trkpt>
<trkpt lat="49.224485" lon="11.746633">
<ele>641.8</ele>
<speed>4.0</speed>
<course>90.0</course>
<desc>Speed 4.0 km/h Distance 18.39 km</desc>
<time>2010-06-13T07:17:46.61</time>
<name>4279</name>
</trkpt>
<trkpt lat="49.224485" lon="11.746667">
<ele>641.8</ele>
<speed>5.3</speed>
<course>127.4</course>
<desc>Speed 5.3 km/h Distance 18.39 km</desc>
<time>2010-06-13T07:17:47.62</time>
<name>4280</name>
</trkpt>
<trkpt lat="49.224478" lon="11.746680">
<ele>644.3</ele>
<speed>3.9</speed>
<course>47.8</course>
<desc>Speed 3.9 km/h Distance 18.39 km</desc>
<time>2010-06-13T07:17:48.63</time>
<name>4281</name>
</trkpt>
<trkpt lat="49.224483" lon="11.746688">
<ele>643.7</ele>
<speed>2.7</speed>
<course>41.4</course>
<desc>Speed 2.7 km/h Distance 18.39 km</desc>
<time>2010-06-13T07:17:49.61</time>
<name>4282</name>
</trkpt>
<trkpt lat="49.224488" lon="11.746695">
<ele>644.0</ele>
<speed>1.9</speed>
<course>141.0</course>
<desc>Speed 1.9 km/h Distance 18.39 km</desc>
<time>2010-06-13T07:17:50.61</time>
<name>4283</name>
</trkpt>
<trkpt lat="49.224482" lon="11.746703">
<ele>645.0</ele>
<speed>2.8</speed>
<course>162.4</course>
<desc>Speed 2.8 km/h Distance 18.39 km</desc>
<time>2010-06-13T07:17:51.62</time>
<name>4284</name>
</trkpt>
<trkpt lat="49.224472" lon="11.746708">
<ele>646.3</ele>
<speed>2.0</speed>
<course>33.7</course>
<desc>Speed 2.0 km/h Distance 18.39 km</desc>
<time>2010-06-13T07:17:52.62</time>
<name>4285</name>
</trkpt>
<trkpt lat="49.224475" lon="11.746712">
<ele>647.0</ele>
<speed>2.7</speed>
<course>71.2</course>
<desc>Speed 2.7 km/h Distance 18.40 km</desc>
<time>2010-06-13T07:17:53.63</time>
<name>4286</name>
</trkpt>
<trkpt lat="49.224478" lon="11.746727">
<ele>646.3</ele>
<speed>1.8</speed>
<course>37.5</course>
<desc>Speed 1.8 km/h Distance 18.40 km</desc>
<time>2010-06-13T07:17:54.62</time>
<name>4287</name>
</trkpt>
<trkpt lat="49.224488" lon="11.746738">
<ele>647.9</ele>
<speed>1.8</speed>
<course>104.6</course>
<desc>Speed 1.8 km/h Distance 18.40 km</desc>
<time>2010-06-13T07:17:55.63</time>
<name>4288</name>
</trkpt>
<trkpt lat="49.224477" lon="11.746807">
<ele>647.6</ele>
<speed>3.6</speed>
<course>101.6</course>
<desc>Speed 3.6 km/h Distance 18.40 km</desc>
<time>2010-06-13T07:17:57.62</time>
<name>4289</name>
</trkpt>
<trkpt lat="49.224473" lon="11.746832">
<ele>648.5</ele>
<speed>2.9</speed>
<course>82.1</course>
<desc>Speed 2.9 km/h Distance 18.40 km</desc>
<time>2010-06-13T07:17:58.61</time>
<name>4290</name>
</trkpt>
<trkpt lat="49.224475" lon="11.746850">
<ele>650.0</ele>
<speed>4.0</speed>
<course>82.7</course>
<desc>Speed 4.0 km/h Distance 18.41 km</desc>
<time>2010-06-13T07:17:59.63</time>
<name>4291</name>
</trkpt>
<trkpt lat="49.224477" lon="11.746870">
<ele>651.0</ele>
<speed>5.0</speed>
<course>77.7</course>
<desc>Speed 5.0 km/h Distance 18.41 km</desc>
<time>2010-06-13T07:18:00.61</time>
<name>4292</name>
</trkpt>
<trkpt lat="49.224478" lon="11.746882">
<ele>651.1</ele>
<speed>4.4</speed>
<course>0.0</course>
<desc>Speed 4.4 km/h Distance 18.41 km</desc>
<time>2010-06-13T07:18:01.63</time>
<name>4293</name>
</trkpt>
<trkpt lat="49.224482" lon="11.746882">
<ele>650.4</ele>
<speed>1.7</speed>
<course>47.1</course>
<desc>Speed 1.7 km/h Distance 18.41 km</desc>
<time>2010-06-13T07:18:02.62</time>
<name>4294</name>
</trkpt>
<trkpt lat="49.224487" lon="11.746890">
<ele>648.6</ele>
<speed>1.4</speed>
<course>55.7</course>
<desc>Speed 1.4 km/h Distance 18.41 km</desc>
<time>2010-06-13T07:18:03.62</time>
<name>4295</name>
</trkpt>
<trkpt lat="49.224493" lon="11.746905">
<ele>647.9</ele>
<speed>2.2</speed>
<course>95.5</course>
<desc>Speed 2.2 km/h Distance 18.41 km</desc>
<time>2010-06-13T07:18:04.61</time>
<name>4296</name>
</trkpt>
<trkpt lat="49.224492" lon="11.746932">
<ele>649.1</ele>
<speed>3.0</speed>
<course>103.6</course>
<desc>Speed 3.0 km/h Distance 18.41 km</desc>
<time>2010-06-13T07:18:05.62</time>
<name>4297</name>
</trkpt>
<trkpt lat="49.224487" lon="11.746963">
<ele>647.6</ele>
<speed>4.1</speed>
<course>117.0</course>
<desc>Speed 4.1 km/h Distance 18.42 km</desc>
<time>2010-06-13T07:18:06.61</time>
<name>4298</name>
</trkpt>
<trkpt lat="49.224475" lon="11.746998">
<ele>646.6</ele>
<speed>4.3</speed>
<course>58.5</course>
<desc>Speed 4.3 km/h Distance 18.42 km</desc>
<time>2010-06-13T07:18:07.62</time>
<name>4299</name>
</trkpt>
<trkpt lat="49.224485" lon="11.747023">
<ele>644.3</ele>
<speed>4.0</speed>
<course>114.7</course>
<desc>Speed 4.0 km/h Distance 18.42 km</desc>
<time>2010-06-13T07:18:08.62</time>
<name>4300</name>
</trkpt>
<trkpt lat="49.224480" lon="11.747040">
<ele>642.6</ele>
<speed>3.2</speed>
<course>105.6</course>
<desc>Speed 3.2 km/h Distance 18.42 km</desc>
<time>2010-06-13T07:18:09.62</time>
<name>4301</name>
</trkpt>
<trkpt lat="49.224473" lon="11.747077">
<ele>642.3</ele>
<speed>3.7</speed>
<course>141.9</course>
<desc>Speed 3.7 km/h Distance 18.42 km</desc>
<time>2010-06-13T07:18:10.61</time>
<name>4302</name>
</trkpt>
<trkpt lat="49.224465" lon="11.747087">
<ele>644.2</ele>
<speed>2.9</speed>
<course>117.0</course>
<desc>Speed 2.9 km/h Distance 18.43 km</desc>
<time>2010-06-13T07:18:11.62</time>
<name>4303</name>
</trkpt>
<trkpt lat="49.224458" lon="11.747107">
<ele>645.4</ele>
<speed>3.4</speed>
<course>99.7</course>
<desc>Speed 3.4 km/h Distance 18.43 km</desc>
<time>2010-06-13T07:18:12.62</time>
<name>4304</name>
</trkpt>
<trkpt lat="49.224457" lon="11.747122">
<ele>643.5</ele>
<speed>3.8</speed>
<course>90.0</course>
<desc>Speed 3.8 km/h Distance 18.43 km</desc>
<time>2010-06-13T07:18:13.63</time>
<name>4305</name>
</trkpt>
<trkpt lat="49.224457" lon="11.747143">
<ele>642.8</ele>
<speed>4.0</speed>
<course>57.4</course>
<desc>Speed 4.0 km/h Distance 18.43 km</desc>
<time>2010-06-13T07:18:14.62</time>
<name>4306</name>
</trkpt>
<trkpt lat="49.224465" lon="11.747163">
<ele>643.4</ele>
<speed>3.9</speed>
<course>55.9</course>
<desc>Speed 3.9 km/h Distance 18.43 km</desc>
<time>2010-06-13T07:18:15.61</time>
<name>4307</name>
</trkpt>
<trkpt lat="49.224472" lon="11.747178">
<ele>643.7</ele>
<speed>3.0</speed>
<course>84.2</course>
<desc>Speed 3.0 km/h Distance 18.43 km</desc>
<time>2010-06-13T07:18:16.61</time>
<name>4308</name>
</trkpt>
<trkpt lat="49.224473" lon="11.747203">
<ele>643.4</ele>
<speed>4.4</speed>
<course>49.5</course>
<desc>Speed 4.4 km/h Distance 18.43 km</desc>
<time>2010-06-13T07:18:17.62</time>
<name>4309</name>
</trkpt>
<trkpt lat="49.224482" lon="11.747218">
<ele>642.9</ele>
<speed>3.6</speed>
<course>83.8</course>
<desc>Speed 3.6 km/h Distance 18.44 km</desc>
<time>2010-06-13T07:18:18.62</time>
<name>4310</name>
</trkpt>
<trkpt lat="49.224483" lon="11.747242">
<ele>642.6</ele>
<speed>3.6</speed>
<course>74.4</course>
<desc>Speed 3.6 km/h Distance 18.44 km</desc>
<time>2010-06-13T07:18:19.62</time>
<name>4311</name>
</trkpt>
<trkpt lat="49.224487" lon="11.747260">
<ele>642.9</ele>
<speed>3.2</speed>
<course>58.5</course>
<desc>Speed 3.2 km/h Distance 18.44 km</desc>
<time>2010-06-13T07:18:20.61</time>
<name>4312</name>
</trkpt>
<trkpt lat="49.224493" lon="11.747277">
<ele>641.9</ele>
<speed>2.9</speed>
<course>108.2</course>
<desc>Speed 2.9 km/h Distance 18.44 km</desc>
<time>2010-06-13T07:18:21.61</time>
<name>4313</name>
</trkpt>
<trkpt lat="49.224488" lon="11.747300">
<ele>642.7</ele>
<speed>1.7</speed>
<course>135.7</course>
<desc>Speed 1.7 km/h Distance 18.44 km</desc>
<time>2010-06-13T07:18:22.61</time>
<name>4314</name>
</trkpt>
<trkpt lat="49.224482" lon="11.747310">
<ele>644.9</ele>
<speed>1.0</speed>
<course>47.1</course>
<desc>Speed 1.0 km/h Distance 18.44 km</desc>
<time>2010-06-13T07:18:23.61</time>
<name>4315</name>
</trkpt>
<trkpt lat="49.224487" lon="11.747318">
<ele>646.3</ele>
<speed>1.4</speed>
<course>112.7</course>
<desc>Speed 1.4 km/h Distance 18.44 km</desc>
<time>2010-06-13T07:18:24.63</time>
<name>4316</name>
</trkpt>
<trkpt lat="49.224482" lon="11.747337">
<ele>647.1</ele>
<speed>2.4</speed>
<course>135.7</course>
<desc>Speed 2.4 km/h Distance 18.45 km</desc>
<time>2010-06-13T07:18:25.62</time>
<name>4317</name>
</trkpt>
<trkpt lat="49.224475" lon="11.747347">
<ele>646.9</ele>
<speed>3.6</speed>
<course>127.5</course>
<desc>Speed 3.6 km/h Distance 18.45 km</desc>
<time>2010-06-13T07:18:26.61</time>
<name>4318</name>
</trkpt>
<trkpt lat="49.224465" lon="11.747367">
<ele>647.1</ele>
<speed>2.9</speed>
<course>41.9</course>
<desc>Speed 2.9 km/h Distance 18.45 km</desc>
<time>2010-06-13T07:18:27.62</time>
<name>4319</name>
</trkpt>
<trkpt lat="49.224478" lon="11.747385">
<ele>647.5</ele>
<speed>3.2</speed>
<course>102.3</course>
<desc>Speed 3.2 km/h Distance 18.45 km</desc>
<time>2010-06-13T07:18:28.62</time>
<name>4320</name>
</trkpt>
<trkpt lat="49.224473" lon="11.747420">
<ele>647.4</ele>
<speed>3.5</speed>
<course>97.9</course>
<desc>Speed 3.5 km/h Distance 18.45 km</desc>
<time>2010-06-13T07:18:29.60</time>
<name>4321</name>
</trkpt>
<trkpt lat="49.224470" lon="11.747457">
<ele>648.0</ele>
<speed>4.1</speed>
<course>112.7</course>
<desc>Speed 4.1 km/h Distance 18.46 km</desc>
<time>2010-06-13T07:18:30.61</time>
<name>4322</name>
</trkpt>
<trkpt lat="49.224460" lon="11.747493">
<ele>648.0</ele>
<speed>6.1</speed>
<course>82.7</course>
<desc>Speed 6.1 km/h Distance 18.46 km</desc>
<time>2010-06-13T07:18:31.60</time>
<name>4323</name>
</trkpt>
<trkpt lat="49.224462" lon="11.747513">
<ele>649.7</ele>
<speed>4.3</speed>
<course>348.4</course>
<desc>Speed 4.3 km/h Distance 18.46 km</desc>
<time>2010-06-13T07:18:32.62</time>
<name>4324</name>
</trkpt>
<trkpt lat="49.224472" lon="11.747510">
<ele>649.7</ele>
<speed>2.4</speed>
<course>97.9</course>
<desc>Speed 2.4 km/h Distance 18.46 km</desc>
<time>2010-06-13T07:18:33.60</time>
<name>4325</name>
</trkpt>
<trkpt lat="49.224470" lon="11.747528">
<ele>650.4</ele>
<speed>2.3</speed>
<course>112.7</course>
<desc>Speed 2.3 km/h Distance 18.46 km</desc>
<time>2010-06-13T07:18:34.61</time>
<name>4326</name>
</trkpt>
<trkpt lat="49.224465" lon="11.747547">
<ele>650.4</ele>
<speed>3.6</speed>
<course>110.0</course>
<desc>Speed 3.6 km/h Distance 18.46 km</desc>
<time>2010-06-13T07:18:35.61</time>
<name>4327</name>
</trkpt>
<trkpt lat="49.224457" lon="11.747582">
<ele>651.5</ele>
<speed>4.0</speed>
<course>118.4</course>
<desc>Speed 4.0 km/h Distance 18.47 km</desc>
<time>2010-06-13T07:18:36.62</time>
<name>4328</name>
</trkpt>
<trkpt lat="49.224447" lon="11.747610">
<ele>651.4</ele>
<speed>3.4</speed>
<course>109.8</course>
<desc>Speed 3.4 km/h Distance 18.47 km</desc>
<time>2010-06-13T07:18:37.62</time>
<name>4329</name>
</trkpt>
<trkpt lat="49.224440" lon="11.747638">
<ele>651.9</ele>
<speed>3.7</speed>
<course>52.7</course>
<desc>Speed 3.7 km/h Distance 18.47 km</desc>
<time>2010-06-13T07:18:38.62</time>
<name>4330</name>
</trkpt>
<trkpt lat="49.224447" lon="11.747652">
<ele>651.6</ele>
<speed>3.3</speed>
<course>108.8</course>
<desc>Speed 3.3 km/h Distance 18.47 km</desc>
<time>2010-06-13T07:18:39.62</time>
<name>4331</name>
</trkpt>
<trkpt lat="49.224440" lon="11.747682">
<ele>652.3</ele>
<speed>3.9</speed>
<course>133.7</course>
<desc>Speed 3.9 km/h Distance 18.47 km</desc>
<time>2010-06-13T07:18:40.62</time>
<name>4332</name>
</trkpt>
<trkpt lat="49.224423" lon="11.747708">
<ele>651.7</ele>
<speed>3.3</speed>
<course>90.0</course>
<desc>Speed 3.3 km/h Distance 18.48 km</desc>
<time>2010-06-13T07:18:41.62</time>
<name>4333</name>
</trkpt>
<trkpt lat="49.224423" lon="11.747720">
<ele>650.6</ele>
<speed>1.3</speed>
<course>104.3</course>
<desc>Speed 1.3 km/h Distance 18.48 km</desc>
<time>2010-06-13T07:18:42.62</time>
<name>4334</name>
</trkpt>
<trkpt lat="49.224420" lon="11.747740">
<ele>650.6</ele>
<speed>1.7</speed>
<course>97.9</course>
<desc>Speed 1.7 km/h Distance 18.48 km</desc>
<time>2010-06-13T07:18:43.61</time>
<name>4335</name>
</trkpt>
<trkpt lat="49.224418" lon="11.747758">
<ele>650.7</ele>
<speed>2.3</speed>
<course>123.5</course>
<desc>Speed 2.3 km/h Distance 18.48 km</desc>
<time>2010-06-13T07:18:44.60</time>
<name>4336</name>
</trkpt>
<trkpt lat="49.224387" lon="11.747832">
<ele>650.5</ele>
<speed>8.2</speed>
<course>103.6</course>
<desc>Speed 8.2 km/h Distance 18.49 km</desc>
<time>2010-06-13T07:18:46.61</time>
<name>4337</name>
</trkpt>
<trkpt lat="49.224382" lon="11.747863">
<ele>647.8</ele>
<speed>7.9</speed>
<course>115.4</course>
<desc>Speed 7.9 km/h Distance 18.49 km</desc>
<time>2010-06-13T07:18:47.61</time>
<name>4338</name>
</trkpt>
<trkpt lat="49.224367" lon="11.747912">
<ele>648.0</ele>
<speed>8.3</speed>
<course>115.0</course>
<desc>Speed 8.3 km/h Distance 18.49 km</desc>
<time>2010-06-13T07:18:48.62</time>
<name>4339</name>
</trkpt>
<trkpt lat="49.224355" lon="11.747950">
<ele>648.1</ele>
<speed>6.6</speed>
<course>0.0</course>
<desc>Speed 6.6 km/h Distance 18.50 km</desc>
<time>2010-06-13T07:18:49.66</time>
<name>4340</name>
</trkpt>
<trkpt lat="49.224360" lon="11.747950">
<ele>647.5</ele>
<speed>2.5</speed>
<course>2.2</course>
<desc>Speed 2.5 km/h Distance 18.50 km</desc>
<time>2010-06-13T07:18:50.61</time>
<name>4341</name>
</trkpt>
<trkpt lat="49.224372" lon="11.747950">
<ele>647.3</ele>
<speed>3.3</speed>
<course>337.9</course>
<desc>Speed 3.3 km/h Distance 18.50 km</desc>
<time>2010-06-13T07:18:51.61</time>
<name>4342</name>
</trkpt>
<trkpt lat="49.224385" lon="11.747942">
<ele>646.8</ele>
<speed>2.1</speed>
<course>0.0</course>
<desc>Speed 2.1 km/h Distance 18.50 km</desc>
<time>2010-06-13T07:18:52.61</time>
<name>4343</name>
</trkpt>
<trkpt lat="49.224403" lon="11.747942">
<ele>646.5</ele>
<speed>2.4</speed>
<course>33.7</course>
<desc>Speed 2.4 km/h Distance 18.50 km</desc>
<time>2010-06-13T07:18:53.63</time>
<name>4344</name>
</trkpt>
<trkpt lat="49.224407" lon="11.747945">
<ele>646.7</ele>
<speed>3.0</speed>
<course>36.4</course>
<desc>Speed 3.0 km/h Distance 18.50 km</desc>
<time>2010-06-13T07:18:54.62</time>
<name>4345</name>
</trkpt>
<trkpt lat="49.224420" lon="11.747960">
<ele>648.6</ele>
<speed>3.9</speed>
<course>99.6</course>
<desc>Speed 3.9 km/h Distance 18.50 km</desc>
<time>2010-06-13T07:18:55.62</time>
<name>4346</name>
</trkpt>
<trkpt lat="49.224418" lon="11.747975">
<ele>648.8</ele>
<speed>3.5</speed>
<course>97.9</course>
<desc>Speed 3.5 km/h Distance 18.51 km</desc>
<time>2010-06-13T07:18:56.62</time>
<name>4347</name>
</trkpt>
<trkpt lat="49.224417" lon="11.747993">
<ele>648.6</ele>
<speed>1.7</speed>
<course>73.8</course>
<desc>Speed 1.7 km/h Distance 18.51 km</desc>
<time>2010-06-13T07:18:57.61</time>
<name>4348</name>
</trkpt>
<trkpt lat="49.224428" lon="11.748055">
<ele>649.8</ele>
<speed>5.0</speed>
<course>109.8</course>
<desc>Speed 5.0 km/h Distance 18.51 km</desc>
<time>2010-06-13T07:18:59.62</time>
<name>4349</name>
</trkpt>
<trkpt lat="49.224422" lon="11.748083">
<ele>650.8</ele>
<speed>4.6</speed>
<course>94.9</course>
<desc>Speed 4.6 km/h Distance 18.51 km</desc>
<time>2010-06-13T07:19:00.62</time>
<name>4350</name>
</trkpt>
<trkpt lat="49.224420" lon="11.748113">
<ele>649.9</ele>
<speed>4.7</speed>
<course>98.1</course>
<desc>Speed 4.7 km/h Distance 18.52 km</desc>
<time>2010-06-13T07:19:01.61</time>
<name>4351</name>
</trkpt>
<trkpt lat="49.224412" lon="11.748203">
<ele>647.8</ele>
<speed>6.8</speed>
<course>104.3</course>
<desc>Speed 6.8 km/h Distance 18.52 km</desc>
<time>2010-06-13T07:19:03.63</time>
<name>4352</name>
</trkpt>
<trkpt lat="49.224403" lon="11.748253">
<ele>645.8</ele>
<speed>7.5</speed>
<course>90.0</course>
<desc>Speed 7.5 km/h Distance 18.53 km</desc>
<time>2010-06-13T07:19:04.62</time>
<name>4353</name>
</trkpt>
<trkpt lat="49.224403" lon="11.748348">
<ele>640.8</ele>
<speed>7.5</speed>
<course>98.7</course>
<desc>Speed 7.5 km/h Distance 18.53 km</desc>
<time>2010-06-13T07:19:06.61</time>
<name>4354</name>
</trkpt>
<trkpt lat="49.224398" lon="11.748398">
<ele>639.8</ele>
<speed>7.4</speed>
<course>97.9</course>
<desc>Speed 7.4 km/h Distance 18.54 km</desc>
<time>2010-06-13T07:19:07.61</time>
<name>4355</name>
</trkpt>
<trkpt lat="49.224395" lon="11.748435">
<ele>639.1</ele>
<speed>6.3</speed>
<course>90.0</course>
<desc>Speed 6.3 km/h Distance 18.54 km</desc>
<time>2010-06-13T07:19:08.61</time>
<name>4356</name>
</trkpt>
<trkpt lat="49.224395" lon="11.748463">
<ele>638.8</ele>
<speed>6.3</speed>
<course>75.7</course>
<desc>Speed 6.3 km/h Distance 18.54 km</desc>
<time>2010-06-13T07:19:09.62</time>
<name>4357</name>
</trkpt>
<trkpt lat="49.224400" lon="11.748493">
<ele>637.3</ele>
<speed>6.0</speed>
<course>83.3</course>
<desc>Speed 6.0 km/h Distance 18.54 km</desc>
<time>2010-06-13T07:19:10.62</time>
<name>4358</name>
</trkpt>
<trkpt lat="49.224403" lon="11.748537">
<ele>636.4</ele>
<speed>7.2</speed>
<course>90.0</course>
<desc>Speed 7.2 km/h Distance 18.55 km</desc>
<time>2010-06-13T07:19:11.64</time>
<name>4359</name>
</trkpt>
<trkpt lat="49.224403" lon="11.748657">
<ele>634.8</ele>
<speed>10.7</speed>
<course>90.0</course>
<desc>Speed 10.7 km/h Distance 18.56 km</desc>
<time>2010-06-13T07:19:13.64</time>
<name>4360</name>
</trkpt>
<trkpt lat="49.224403" lon="11.748712">
<ele>631.7</ele>
<speed>11.2</speed>
<course>102.0</course>
<desc>Speed 11.2 km/h Distance 18.56 km</desc>
<time>2010-06-13T07:19:14.64</time>
<name>4361</name>
</trkpt>
<trkpt lat="49.224395" lon="11.748772">
<ele>632.2</ele>
<speed>10.4</speed>
<course>95.5</course>
<desc>Speed 10.4 km/h Distance 18.56 km</desc>
<time>2010-06-13T07:19:15.64</time>
<name>4362</name>
</trkpt>
<trkpt lat="49.224392" lon="11.748825">
<ele>630.5</ele>
<speed>9.2</speed>
<course>69.6</course>
<desc>Speed 9.2 km/h Distance 18.57 km</desc>
<time>2010-06-13T07:19:16.64</time>
<name>4363</name>
</trkpt>
<trkpt lat="49.224405" lon="11.748880">
<ele>628.3</ele>
<speed>11.7</speed>
<course>92.4</course>
<desc>Speed 11.7 km/h Distance 18.57 km</desc>
<time>2010-06-13T07:19:17.64</time>
<name>4364</name>
</trkpt>
<trkpt lat="49.224403" lon="11.748940">
<ele>627.6</ele>
<speed>14.0</speed>
<course>106.3</course>
<desc>Speed 14.0 km/h Distance 18.58 km</desc>
<time>2010-06-13T07:19:18.64</time>
<name>4365</name>
</trkpt>
<trkpt lat="49.224390" lon="11.749010">
<ele>626.9</ele>
<speed>14.1</speed>
<course>95.9</course>
<desc>Speed 14.1 km/h Distance 18.58 km</desc>
<time>2010-06-13T07:19:19.64</time>
<name>4366</name>
</trkpt>
<trkpt lat="49.224378" lon="11.749183">
<ele>626.4</ele>
<speed>17.5</speed>
<course>106.2</course>
<desc>Speed 17.5 km/h Distance 18.60 km</desc>
<time>2010-06-13T07:19:21.64</time>
<name>4367</name>
</trkpt>
<trkpt lat="49.224337" lon="11.749403">
<ele>622.3</ele>
<speed>19.4</speed>
<course>112.4</course>
<desc>Speed 19.4 km/h Distance 18.61 km</desc>
<time>2010-06-13T07:19:23.64</time>
<name>4368</name>
</trkpt>
<trkpt lat="49.224273" lon="11.749638">
<ele>624.4</ele>
<speed>17.6</speed>
<course>87.5</course>
<desc>Speed 17.6 km/h Distance 18.63 km</desc>
<time>2010-06-13T07:19:25.64</time>
<name>4369</name>
</trkpt>
<trkpt lat="49.224275" lon="11.749697">
<ele>624.0</ele>
<speed>14.4</speed>
<course>102.3</course>
<desc>Speed 14.4 km/h Distance 18.63 km</desc>
<time>2010-06-13T07:19:26.64</time>
<name>4370</name>
</trkpt>
<trkpt lat="49.224265" lon="11.749767">
<ele>624.5</ele>
<speed>14.6</speed>
<course>92.5</course>
<desc>Speed 14.6 km/h Distance 18.64 km</desc>
<time>2010-06-13T07:19:27.64</time>
<name>4371</name>
</trkpt>
<trkpt lat="49.224260" lon="11.749945">
<ele>624.3</ele>
<speed>16.3</speed>
<course>82.3</course>
<desc>Speed 16.3 km/h Distance 18.65 km</desc>
<time>2010-06-13T07:19:29.64</time>
<name>4372</name>
</trkpt>
<trkpt lat="49.224267" lon="11.750020">
<ele>625.0</ele>
<speed>18.4</speed>
<course>73.0</course>
<desc>Speed 18.4 km/h Distance 18.66 km</desc>
<time>2010-06-13T07:19:30.64</time>
<name>4373</name>
</trkpt>
<trkpt lat="49.224282" lon="11.750095">
<ele>625.3</ele>
<speed>16.2</speed>
<course>71.4</course>
<desc>Speed 16.2 km/h Distance 18.66 km</desc>
<time>2010-06-13T07:19:31.64</time>
<name>4374</name>
</trkpt>
<trkpt lat="49.224297" lon="11.750163">
<ele>625.1</ele>
<speed>15.6</speed>
<course>75.7</course>
<desc>Speed 15.6 km/h Distance 18.67 km</desc>
<time>2010-06-13T07:19:32.64</time>
<name>4375</name>
</trkpt>
<trkpt lat="49.224310" lon="11.750243">
<ele>623.7</ele>
<speed>17.3</speed>
<course>80.9</course>
<desc>Speed 17.3 km/h Distance 18.68 km</desc>
<time>2010-06-13T07:19:33.64</time>
<name>4376</name>
</trkpt>
<trkpt lat="49.224318" lon="11.750323">
<ele>623.0</ele>
<speed>16.5</speed>
<course>83.3</course>
<desc>Speed 16.5 km/h Distance 18.68 km</desc>
<time>2010-06-13T07:19:34.64</time>
<name>4377</name>
</trkpt>
<trkpt lat="49.224323" lon="11.750388">
<ele>622.5</ele>
<speed>16.3</speed>
<course>88.1</course>
<desc>Speed 16.3 km/h Distance 18.69 km</desc>
<time>2010-06-13T07:19:35.64</time>
<name>4378</name>
</trkpt>
<trkpt lat="49.224325" lon="11.750465">
<ele>622.8</ele>
<speed>16.2</speed>
<course>100.4</course>
<desc>Speed 16.2 km/h Distance 18.69 km</desc>
<time>2010-06-13T07:19:36.64</time>
<name>4379</name>
</trkpt>
<trkpt lat="49.224302" lon="11.750660">
<ele>624.9</ele>
<speed>18.5</speed>
<course>94.9</course>
<desc>Speed 18.5 km/h Distance 18.71 km</desc>
<time>2010-06-13T07:19:38.64</time>
<name>4380</name>
</trkpt>
<trkpt lat="49.224297" lon="11.750750">
<ele>622.6</ele>
<speed>19.3</speed>
<course>92.0</course>
<desc>Speed 19.3 km/h Distance 18.71 km</desc>
<time>2010-06-13T07:19:39.64</time>
<name>4381</name>
</trkpt>
<trkpt lat="49.224292" lon="11.750967">
<ele>619.3</ele>
<speed>19.4</speed>
<course>90.0</course>
<desc>Speed 19.4 km/h Distance 18.73 km</desc>
<time>2010-06-13T07:19:41.64</time>
<name>4382</name>
</trkpt>
<trkpt lat="49.224292" lon="11.751055">
<ele>617.9</ele>
<speed>17.2</speed>
<course>97.0</course>
<desc>Speed 17.2 km/h Distance 18.73 km</desc>
<time>2010-06-13T07:19:42.64</time>
<name>4383</name>
</trkpt>
<trkpt lat="49.224277" lon="11.751243">
<ele>612.2</ele>
<speed>17.4</speed>
<course>73.0</course>
<desc>Speed 17.4 km/h Distance 18.75 km</desc>
<time>2010-06-13T07:19:44.65</time>
<name>4384</name>
</trkpt>
<trkpt lat="49.224285" lon="11.751285">
<ele>610.0</ele>
<speed>15.2</speed>
<course>105.2</course>
<desc>Speed 15.2 km/h Distance 18.75 km</desc>
<time>2010-06-13T07:19:45.65</time>
<name>4385</name>
</trkpt>
<trkpt lat="49.224272" lon="11.751360">
<ele>609.9</ele>
<speed>14.3</speed>
<course>85.4</course>
<desc>Speed 14.3 km/h Distance 18.76 km</desc>
<time>2010-06-13T07:19:46.65</time>
<name>4386</name>
</trkpt>
<trkpt lat="49.224275" lon="11.751423">
<ele>607.3</ele>
<speed>14.5</speed>
<course>87.8</course>
<desc>Speed 14.5 km/h Distance 18.76 km</desc>
<time>2010-06-13T07:19:47.65</time>
<name>4387</name>
</trkpt>
<trkpt lat="49.224277" lon="11.751490">
<ele>606.9</ele>
<speed>14.9</speed>
<course>63.0</course>
<desc>Speed 14.9 km/h Distance 18.77 km</desc>
<time>2010-06-13T07:19:48.65</time>
<name>4388</name>
</trkpt>
<trkpt lat="49.224297" lon="11.751550">
<ele>605.0</ele>
<speed>16.1</speed>
<course>101.0</course>
<desc>Speed 16.1 km/h Distance 18.77 km</desc>
<time>2010-06-13T07:19:49.65</time>
<name>4389</name>
</trkpt>
<trkpt lat="49.224272" lon="11.751747">
<ele>608.2</ele>
<speed>15.1</speed>
<course>83.6</course>
<desc>Speed 15.1 km/h Distance 18.79 km</desc>
<time>2010-06-13T07:19:51.65</time>
<name>4390</name>
</trkpt>
<trkpt lat="49.224277" lon="11.751815">
<ele>608.7</ele>
<speed>13.3</speed>
<course>48.2</course>
<desc>Speed 13.3 km/h Distance 18.79 km</desc>
<time>2010-06-13T07:19:52.65</time>
<name>4391</name>
</trkpt>
<trkpt lat="49.224300" lon="11.751855">
<ele>607.9</ele>
<speed>11.4</speed>
<course>99.0</course>
<desc>Speed 11.4 km/h Distance 18.79 km</desc>
<time>2010-06-13T07:19:53.65</time>
<name>4392</name>
</trkpt>
<trkpt lat="49.224285" lon="11.752000">
<ele>607.6</ele>
<speed>11.3</speed>
<course>90.0</course>
<desc>Speed 11.3 km/h Distance 18.81 km</desc>
<time>2010-06-13T07:19:55.65</time>
<name>4393</name>
</trkpt>
<trkpt lat="49.224285" lon="11.752050">
<ele>605.5</ele>
<speed>10.3</speed>
<course>79.2</course>
<desc>Speed 10.3 km/h Distance 18.81 km</desc>
<time>2010-06-13T07:19:56.65</time>
<name>4394</name>
</trkpt>
<trkpt lat="49.224290" lon="11.752090">
<ele>604.9</ele>
<speed>10.2</speed>
<course>81.0</course>
<desc>Speed 10.2 km/h Distance 18.81 km</desc>
<time>2010-06-13T07:19:57.65</time>
<name>4395</name>
</trkpt>
<trkpt lat="49.224295" lon="11.752138">
<ele>604.7</ele>
<speed>10.8</speed>
<course>71.2</course>
<desc>Speed 10.8 km/h Distance 18.82 km</desc>
<time>2010-06-13T07:19:58.65</time>
<name>4396</name>
</trkpt>
<trkpt lat="49.224305" lon="11.752183">
<ele>604.4</ele>
<speed>8.7</speed>
<course>82.7</course>
<desc>Speed 8.7 km/h Distance 18.82 km</desc>
<time>2010-06-13T07:19:59.65</time>
<name>4397</name>
</trkpt>
<trkpt lat="49.224308" lon="11.752223">
<ele>604.7</ele>
<speed>9.2</speed>
<course>95.5</course>
<desc>Speed 9.2 km/h Distance 18.82 km</desc>
<time>2010-06-13T07:20:00.65</time>
<name>4398</name>
</trkpt>
<trkpt lat="49.224305" lon="11.752277">
<ele>603.6</ele>
<speed>8.4</speed>
<course>111.7</course>
<desc>Speed 8.4 km/h Distance 18.83 km</desc>
<time>2010-06-13T07:20:01.65</time>
<name>4399</name>
</trkpt>
<trkpt lat="49.224263" lon="11.752437">
<ele>606.8</ele>
<speed>14.4</speed>
<course>111.4</course>
<desc>Speed 14.4 km/h Distance 18.84 km</desc>
<time>2010-06-13T07:20:03.65</time>
<name>4400</name>
</trkpt>
<trkpt lat="49.224223" lon="11.752593">
<ele>610.4</ele>
<speed>16.5</speed>
<course>90.0</course>
<desc>Speed 16.5 km/h Distance 18.85 km</desc>
<time>2010-06-13T07:20:05.65</time>
<name>4401</name>
</trkpt>
<trkpt lat="49.224223" lon="11.752653">
<ele>611.5</ele>
<speed>15.1</speed>
<course>112.4</course>
<desc>Speed 15.1 km/h Distance 18.86 km</desc>
<time>2010-06-13T07:20:06.65</time>
<name>4402</name>
</trkpt>
<trkpt lat="49.224212" lon="11.752697">
<ele>610.7</ele>
<speed>13.7</speed>
<course>125.2</course>
<desc>Speed 13.7 km/h Distance 18.86 km</desc>
<time>2010-06-13T07:20:07.65</time>
<name>4403</name>
</trkpt>
<trkpt lat="49.224192" lon="11.752740">
<ele>610.8</ele>
<speed>13.0</speed>
<course>135.6</course>
<desc>Speed 13.0 km/h Distance 18.86 km</desc>
<time>2010-06-13T07:20:08.65</time>
<name>4404</name>
</trkpt>
<trkpt lat="49.224165" lon="11.752780">
<ele>610.2</ele>
<speed>10.9</speed>
<course>135.6</course>
<desc>Speed 10.9 km/h Distance 18.87 km</desc>
<time>2010-06-13T07:20:09.65</time>
<name>4405</name>
</trkpt>
<trkpt lat="49.224135" lon="11.752825">
<ele>610.3</ele>
<speed>11.8</speed>
<course>133.3</course>
<desc>Speed 11.8 km/h Distance 18.87 km</desc>
<time>2010-06-13T07:20:10.65</time>
<name>4406</name>
</trkpt>
<trkpt lat="49.224108" lon="11.752868">
<ele>611.8</ele>
<speed>12.5</speed>
<course>137.7</course>
<desc>Speed 12.5 km/h Distance 18.88 km</desc>
<time>2010-06-13T07:20:11.65</time>
<name>4407</name>
</trkpt>
<trkpt lat="49.224015" lon="11.752998">
<ele>614.5</ele>
<speed>17.0</speed>
<course>147.9</course>
<desc>Speed 17.0 km/h Distance 18.89 km</desc>
<time>2010-06-13T07:20:13.65</time>
<name>4408</name>
</trkpt>
<trkpt lat="49.223893" lon="11.753115">
<ele>617.2</ele>
<speed>18.9</speed>
<course>143.7</course>
<desc>Speed 18.9 km/h Distance 18.91 km</desc>
<time>2010-06-13T07:20:15.65</time>
<name>4409</name>
</trkpt>
<trkpt lat="49.223853" lon="11.753160">
<ele>616.8</ele>
<speed>17.3</speed>
<course>136.7</course>
<desc>Speed 17.3 km/h Distance 18.91 km</desc>
<time>2010-06-13T07:20:16.65</time>
<name>4410</name>
</trkpt>
<trkpt lat="49.223808" lon="11.753225">
<ele>615.6</ele>
<speed>12.3</speed>
<course>85.1</course>
<desc>Speed 12.3 km/h Distance 18.92 km</desc>
<time>2010-06-13T07:20:18.65</time>
<name>4411</name>
</trkpt>
<trkpt lat="49.223810" lon="11.753255">
<ele>613.2</ele>
<speed>9.1</speed>
<course>106.5</course>
<desc>Speed 9.1 km/h Distance 18.92 km</desc>
<time>2010-06-13T07:20:19.65</time>
<name>4412</name>
</trkpt>
<trkpt lat="49.223800" lon="11.753307">
<ele>612.7</ele>
<speed>8.0</speed>
<course>108.5</course>
<desc>Speed 8.0 km/h Distance 18.92 km</desc>
<time>2010-06-13T07:20:20.65</time>
<name>4413</name>
</trkpt>
<trkpt lat="49.223772" lon="11.753437">
<ele>609.9</ele>
<speed>13.5</speed>
<course>96.9</course>
<desc>Speed 13.5 km/h Distance 18.93 km</desc>
<time>2010-06-13T07:20:22.65</time>
<name>4414</name>
</trkpt>
<trkpt lat="49.223767" lon="11.753500">
<ele>605.6</ele>
<speed>12.2</speed>
<course>86.9</course>
<desc>Speed 12.2 km/h Distance 18.94 km</desc>
<time>2010-06-13T07:20:23.65</time>
<name>4415</name>
</trkpt>
<trkpt lat="49.223768" lon="11.753547">
<ele>600.1</ele>
<speed>11.8</speed>
<course>84.2</course>
<desc>Speed 11.8 km/h Distance 18.94 km</desc>
<time>2010-06-13T07:20:24.65</time>
<name>4416</name>
</trkpt>
<trkpt lat="49.223772" lon="11.753597">
<ele>598.1</ele>
<speed>11.1</speed>
<course>97.3</course>
<desc>Speed 11.1 km/h Distance 18.95 km</desc>
<time>2010-06-13T07:20:25.65</time>
<name>4417</name>
</trkpt>
<trkpt lat="49.223767" lon="11.753657">
<ele>595.8</ele>
<speed>10.0</speed>
<course>98.7</course>
<desc>Speed 10.0 km/h Distance 18.95 km</desc>
<time>2010-06-13T07:20:26.65</time>
<name>4418</name>
</trkpt>
<trkpt lat="49.223762" lon="11.753707">
<ele>595.5</ele>
<speed>7.8</speed>
<course>127.5</course>
<desc>Speed 7.8 km/h Distance 18.95 km</desc>
<time>2010-06-13T07:20:27.65</time>
<name>4419</name>
</trkpt>
<trkpt lat="49.223752" lon="11.753727">
<ele>592.5</ele>
<speed>6.3</speed>
<course>157.6</course>
<desc>Speed 6.3 km/h Distance 18.96 km</desc>
<time>2010-06-13T07:20:28.65</time>
<name>4420</name>
</trkpt>
<trkpt lat="49.223688" lon="11.753767">
<ele>587.1</ele>
<speed>12.3</speed>
<course>159.3</course>
<desc>Speed 12.3 km/h Distance 18.96 km</desc>
<time>2010-06-13T07:20:30.65</time>
<name>4421</name>
</trkpt>
<trkpt lat="49.223645" lon="11.753792">
<ele>587.0</ele>
<speed>12.9</speed>
<course>157.6</course>
<desc>Speed 12.9 km/h Distance 18.97 km</desc>
<time>2010-06-13T07:20:31.65</time>
<name>4422</name>
</trkpt>
<trkpt lat="49.223613" lon="11.753812">
<ele>586.7</ele>
<speed>13.0</speed>
<course>150.6</course>
<desc>Speed 13.0 km/h Distance 18.97 km</desc>
<time>2010-06-13T07:20:32.65</time>
<name>4423</name>
</trkpt>
<trkpt lat="49.223577" lon="11.753843">
<ele>586.6</ele>
<speed>11.8</speed>
<course>161.0</course>
<desc>Speed 11.8 km/h Distance 18.98 km</desc>
<time>2010-06-13T07:20:33.65</time>
<name>4424</name>
</trkpt>
<trkpt lat="49.223545" lon="11.753860">
<ele>584.9</ele>
<speed>10.5</speed>
<course>148.4</course>
<desc>Speed 10.5 km/h Distance 18.98 km</desc>
<time>2010-06-13T07:20:34.65</time>
<name>4425</name>
</trkpt>
<trkpt lat="49.223460" lon="11.753940">
<ele>582.9</ele>
<speed>12.1</speed>
<course>153.6</course>
<desc>Speed 12.1 km/h Distance 18.99 km</desc>
<time>2010-06-13T07:20:36.65</time>
<name>4426</name>
</trkpt>
<trkpt lat="49.223418" lon="11.753972">
<ele>583.9</ele>
<speed>13.2</speed>
<course>162.6</course>
<desc>Speed 13.2 km/h Distance 19.00 km</desc>
<time>2010-06-13T07:20:37.65</time>
<name>4427</name>
</trkpt>
<trkpt lat="49.223377" lon="11.753992">
<ele>584.5</ele>
<speed>15.0</speed>
<course>165.5</course>
<desc>Speed 15.0 km/h Distance 19.00 km</desc>
<time>2010-06-13T07:20:38.65</time>
<name>4428</name>
</trkpt>
<trkpt lat="49.223247" lon="11.754043">
<ele>583.2</ele>
<speed>19.6</speed>
<course>169.6</course>
<desc>Speed 19.6 km/h Distance 19.02 km</desc>
<time>2010-06-13T07:20:40.65</time>
<name>4429</name>
</trkpt>
<trkpt lat="49.223182" lon="11.754062">
<ele>581.7</ele>
<speed>20.5</speed>
<course>174.3</course>
<desc>Speed 20.5 km/h Distance 19.02 km</desc>
<time>2010-06-13T07:20:41.65</time>
<name>4430</name>
</trkpt>
<trkpt lat="49.223117" lon="11.754072">
<ele>581.3</ele>
<speed>19.3</speed>
<course>176.8</course>
<desc>Speed 19.3 km/h Distance 19.03 km</desc>
<time>2010-06-13T07:20:42.65</time>
<name>4431</name>
</trkpt>
<trkpt lat="49.223058" lon="11.754077">
<ele>580.7</ele>
<speed>18.4</speed>
<course>180.0</course>
<desc>Speed 18.4 km/h Distance 19.04 km</desc>
<time>2010-06-13T07:20:43.65</time>
<name>4432</name>
</trkpt>
<trkpt lat="49.223005" lon="11.754077">
<ele>580.0</ele>
<speed>17.6</speed>
<course>182.2</course>
<desc>Speed 17.6 km/h Distance 19.04 km</desc>
<time>2010-06-13T07:20:44.65</time>
<name>4433</name>
</trkpt>
<trkpt lat="49.222952" lon="11.754073">
<ele>579.3</ele>
<speed>17.4</speed>
<course>182.2</course>
<desc>Speed 17.4 km/h Distance 19.05 km</desc>
<time>2010-06-13T07:20:45.65</time>
<name>4434</name>
</trkpt>
<trkpt lat="49.222898" lon="11.754070">
<ele>579.7</ele>
<speed>16.9</speed>
<course>176.8</course>
<desc>Speed 16.9 km/h Distance 19.06 km</desc>
<time>2010-06-13T07:20:46.65</time>
<name>4435</name>
</trkpt>
<trkpt lat="49.222843" lon="11.754075">
<ele>580.2</ele>
<speed>16.9</speed>
<course>188.0</course>
<desc>Speed 16.9 km/h Distance 19.06 km</desc>
<time>2010-06-13T07:20:47.65</time>
<name>4436</name>
</trkpt>
<trkpt lat="49.222797" lon="11.754065">
<ele>579.3</ele>
<speed>17.2</speed>
<course>182.6</course>
<desc>Speed 17.2 km/h Distance 19.07 km</desc>
<time>2010-06-13T07:20:48.65</time>
<name>4437</name>
</trkpt>
<trkpt lat="49.222747" lon="11.754062">
<ele>578.8</ele>
<speed>16.9</speed>
<course>162.4</course>
<desc>Speed 16.9 km/h Distance 19.07 km</desc>
<time>2010-06-13T07:20:49.65</time>
<name>4438</name>
</trkpt>
<trkpt lat="49.222633" lon="11.754117">
<ele>581.6</ele>
<speed>15.9</speed>
<course>157.8</course>
<desc>Speed 15.9 km/h Distance 19.09 km</desc>
<time>2010-06-13T07:20:51.65</time>
<name>4439</name>
</trkpt>
<trkpt lat="49.222593" lon="11.754142">
<ele>581.3</ele>
<speed>13.3</speed>
<course>151.2</course>
<desc>Speed 13.3 km/h Distance 19.09 km</desc>
<time>2010-06-13T07:20:52.65</time>
<name>4440</name>
</trkpt>
<trkpt lat="49.222562" lon="11.754168">
<ele>579.7</ele>
<speed>12.7</speed>
<course>122.8</course>
<desc>Speed 12.7 km/h Distance 19.09 km</desc>
<time>2010-06-13T07:20:53.65</time>
<name>4441</name>
</trkpt>
<trkpt lat="49.222548" lon="11.754200">
<ele>577.9</ele>
<speed>12.4</speed>
<course>117.1</course>
<desc>Speed 12.4 km/h Distance 19.10 km</desc>
<time>2010-06-13T07:20:54.65</time>
<name>4442</name>
</trkpt>
<trkpt lat="49.222533" lon="11.754245">
<ele>576.4</ele>
<speed>15.0</speed>
<course>94.1</course>
<desc>Speed 15.0 km/h Distance 19.10 km</desc>
<time>2010-06-13T07:20:55.65</time>
<name>4443</name>
</trkpt>
<trkpt lat="49.222527" lon="11.754387">
<ele>576.0</ele>
<speed>17.1</speed>
<course>100.3</course>
<desc>Speed 17.1 km/h Distance 19.11 km</desc>
<time>2010-06-13T07:20:57.65</time>
<name>4444</name>
</trkpt>
<trkpt lat="49.222518" lon="11.754457">
<ele>576.2</ele>
<speed>15.8</speed>
<course>92.0</course>
<desc>Speed 15.8 km/h Distance 19.12 km</desc>
<time>2010-06-13T07:20:58.65</time>
<name>4445</name>
</trkpt>
<trkpt lat="49.222517" lon="11.754528">
<ele>574.5</ele>
<speed>17.0</speed>
<course>82.3</course>
<desc>Speed 17.0 km/h Distance 19.12 km</desc>
<time>2010-06-13T07:20:59.65</time>
<name>4446</name>
</trkpt>
<trkpt lat="49.222522" lon="11.754585">
<ele>573.1</ele>
<speed>17.4</speed>
<course>93.8</course>
<desc>Speed 17.4 km/h Distance 19.13 km</desc>
<time>2010-06-13T07:21:00.65</time>
<name>4447</name>
</trkpt>
<trkpt lat="49.222518" lon="11.754662">
<ele>572.7</ele>
<speed>18.4</speed>
<course>66.4</course>
<desc>Speed 18.4 km/h Distance 19.13 km</desc>
<time>2010-06-13T07:21:01.65</time>
<name>4448</name>
</trkpt>
<trkpt lat="49.222532" lon="11.754708">
<ele>572.0</ele>
<speed>17.2</speed>
<course>56.0</course>
<desc>Speed 17.2 km/h Distance 19.14 km</desc>
<time>2010-06-13T07:21:02.65</time>
<name>4449</name>
</trkpt>
<trkpt lat="49.222550" lon="11.754750">
<ele>571.0</ele>
<speed>16.5</speed>
<course>95.0</course>
<desc>Speed 16.5 km/h Distance 19.14 km</desc>
<time>2010-06-13T07:21:03.65</time>
<name>4450</name>
</trkpt>
<trkpt lat="49.222540" lon="11.754923">
<ele>570.9</ele>
<speed>19.2</speed>
<course>102.8</course>
<desc>Speed 19.2 km/h Distance 19.15 km</desc>
<time>2010-06-13T07:21:05.65</time>
<name>4451</name>
</trkpt>
<trkpt lat="49.222527" lon="11.755013">
<ele>570.5</ele>
<speed>19.4</speed>
<course>101.9</course>
<desc>Speed 19.4 km/h Distance 19.16 km</desc>
<time>2010-06-13T07:21:06.65</time>
<name>4452</name>
</trkpt>
<trkpt lat="49.222513" lon="11.755110">
<ele>570.5</ele>
<speed>20.7</speed>
<course>101.0</course>
<desc>Speed 20.7 km/h Distance 19.17 km</desc>
<time>2010-06-13T07:21:07.65</time>
<name>4453</name>
</trkpt>
<trkpt lat="49.222502" lon="11.755202">
<ele>570.9</ele>
<speed>21.2</speed>
<course>101.1</course>
<desc>Speed 21.2 km/h Distance 19.17 km</desc>
<time>2010-06-13T07:21:08.65</time>
<name>4454</name>
</trkpt>
<trkpt lat="49.222473" lon="11.755423">
<ele>574.2</ele>
<speed>23.5</speed>
<course>98.8</course>
<desc>Speed 23.5 km/h Distance 19.19 km</desc>
<time>2010-06-13T07:21:10.65</time>
<name>4455</name>
</trkpt>
<trkpt lat="49.222463" lon="11.755522">
<ele>574.5</ele>
<speed>24.8</speed>
<course>99.7</course>
<desc>Speed 24.8 km/h Distance 19.20 km</desc>
<time>2010-06-13T07:21:11.65</time>
<name>4456</name>
</trkpt>
<trkpt lat="49.222452" lon="11.755627">
<ele>575.7</ele>
<speed>24.5</speed>
<course>90.0</course>
<desc>Speed 24.5 km/h Distance 19.20 km</desc>
<time>2010-06-13T07:21:12.65</time>
<name>4457</name>
</trkpt>
<trkpt lat="49.222452" lon="11.755712">
<ele>575.9</ele>
<speed>23.8</speed>
<course>102.9</course>
<desc>Speed 23.8 km/h Distance 19.21 km</desc>
<time>2010-06-13T07:21:13.65</time>
<name>4458</name>
</trkpt>
<trkpt lat="49.222437" lon="11.755812">
<ele>576.1</ele>
<speed>23.9</speed>
<course>104.6</course>
<desc>Speed 23.9 km/h Distance 19.22 km</desc>
<time>2010-06-13T07:21:14.65</time>
<name>4459</name>
</trkpt>
<trkpt lat="49.222422" lon="11.755900">
<ele>575.3</ele>
<speed>25.5</speed>
<course>108.3</course>
<desc>Speed 25.5 km/h Distance 19.22 km</desc>
<time>2010-06-13T07:21:15.65</time>
<name>4460</name>
</trkpt>
<trkpt lat="49.222365" lon="11.756162">
<ele>578.1</ele>
<speed>29.4</speed>
<course>109.5</course>
<desc>Speed 29.4 km/h Distance 19.24 km</desc>
<time>2010-06-13T07:21:17.65</time>
<name>4461</name>
</trkpt>
<trkpt lat="49.222335" lon="11.756292">
<ele>578.2</ele>
<speed>30.4</speed>
<course>105.9</course>
<desc>Speed 30.4 km/h Distance 19.25 km</desc>
<time>2010-06-13T07:21:18.65</time>
<name>4462</name>
</trkpt>
<trkpt lat="49.222283" lon="11.756570">
<ele>581.0</ele>
<speed>29.7</speed>
<course>101.2</course>
<desc>Speed 29.7 km/h Distance 19.28 km</desc>
<time>2010-06-13T07:21:20.65</time>
<name>4463</name>
</trkpt>
<trkpt lat="49.222270" lon="11.756673">
<ele>582.3</ele>
<speed>29.1</speed>
<course>106.1</course>
<desc>Speed 29.1 km/h Distance 19.28 km</desc>
<time>2010-06-13T07:21:21.65</time>
<name>4464</name>
</trkpt>
<trkpt lat="49.222248" lon="11.756788">
<ele>584.1</ele>
<speed>27.5</speed>
<course>106.0</course>
<desc>Speed 27.5 km/h Distance 19.29 km</desc>
<time>2010-06-13T07:21:22.65</time>
<name>4465</name>
</trkpt>
<trkpt lat="49.222233" lon="11.756868">
<ele>584.5</ele>
<speed>25.8</speed>
<course>108.9</course>
<desc>Speed 25.8 km/h Distance 19.30 km</desc>
<time>2010-06-13T07:21:23.65</time>
<name>4466</name>
</trkpt>
<trkpt lat="49.222212" lon="11.756965">
<ele>585.6</ele>
<speed>25.8</speed>
<course>106.3</course>
<desc>Speed 25.8 km/h Distance 19.30 km</desc>
<time>2010-06-13T07:21:24.65</time>
<name>4467</name>
</trkpt>
<trkpt lat="49.222197" lon="11.757043">
<ele>585.9</ele>
<speed>26.0</speed>
<course>112.1</course>
<desc>Speed 26.0 km/h Distance 19.31 km</desc>
<time>2010-06-13T07:21:25.65</time>
<name>4468</name>
</trkpt>
<trkpt lat="49.222175" lon="11.757125">
<ele>586.2</ele>
<speed>25.6</speed>
<course>109.2</course>
<desc>Speed 25.6 km/h Distance 19.32 km</desc>
<time>2010-06-13T07:21:26.65</time>
<name>4469</name>
</trkpt>
<trkpt lat="49.222153" lon="11.757220">
<ele>586.2</ele>
<speed>26.5</speed>
<course>105.2</course>
<desc>Speed 26.5 km/h Distance 19.32 km</desc>
<time>2010-06-13T07:21:27.65</time>
<name>4470</name>
</trkpt>
<trkpt lat="49.222135" lon="11.757323">
<ele>584.5</ele>
<speed>26.4</speed>
<course>113.8</course>
<desc>Speed 26.4 km/h Distance 19.33 km</desc>
<time>2010-06-13T07:21:28.65</time>
<name>4471</name>
</trkpt>
<trkpt lat="49.222107" lon="11.757422">
<ele>584.5</ele>
<speed>26.6</speed>
<course>114.3</course>
<desc>Speed 26.6 km/h Distance 19.34 km</desc>
<time>2010-06-13T07:21:29.65</time>
<name>4472</name>
</trkpt>
<trkpt lat="49.222077" lon="11.757523">
<ele>585.7</ele>
<speed>27.4</speed>
<course>122.5</course>
<desc>Speed 27.4 km/h Distance 19.35 km</desc>
<time>2010-06-13T07:21:30.65</time>
<name>4473</name>
</trkpt>
<trkpt lat="49.222032" lon="11.757632">
<ele>587.1</ele>
<speed>29.1</speed>
<course>122.3</course>
<desc>Speed 29.1 km/h Distance 19.36 km</desc>
<time>2010-06-13T07:21:31.65</time>
<name>4474</name>
</trkpt>
<trkpt lat="49.221988" lon="11.757737">
<ele>587.6</ele>
<speed>30.0</speed>
<course>124.0</course>
<desc>Speed 30.0 km/h Distance 19.37 km</desc>
<time>2010-06-13T07:21:32.65</time>
<name>4475</name>
</trkpt>
<trkpt lat="49.221938" lon="11.757850">
<ele>589.7</ele>
<speed>31.1</speed>
<course>130.3</course>
<desc>Speed 31.1 km/h Distance 19.38 km</desc>
<time>2010-06-13T07:21:33.65</time>
<name>4476</name>
</trkpt>
<trkpt lat="49.221878" lon="11.757958">
<ele>591.3</ele>
<speed>31.4</speed>
<course>125.5</course>
<desc>Speed 31.4 km/h Distance 19.39 km</desc>
<time>2010-06-13T07:21:34.65</time>
<name>4477</name>
</trkpt>
<trkpt lat="49.221833" lon="11.758055">
<ele>591.3</ele>
<speed>30.9</speed>
<course>128.4</course>
<desc>Speed 30.9 km/h Distance 19.40 km</desc>
<time>2010-06-13T07:21:35.65</time>
<name>4478</name>
</trkpt>
<trkpt lat="49.221785" lon="11.758148">
<ele>591.3</ele>
<speed>30.0</speed>
<course>138.0</course>
<desc>Speed 30.0 km/h Distance 19.40 km</desc>
<time>2010-06-13T07:21:36.65</time>
<name>4479</name>
</trkpt>
<trkpt lat="49.221653" lon="11.758330">
<ele>593.2</ele>
<speed>29.8</speed>
<course>138.9</course>
<desc>Speed 29.8 km/h Distance 19.42 km</desc>
<time>2010-06-13T07:21:38.65</time>
<name>4480</name>
</trkpt>
<trkpt lat="49.221588" lon="11.758417">
<ele>593.1</ele>
<speed>30.3</speed>
<course>130.7</course>
<desc>Speed 30.3 km/h Distance 19.43 km</desc>
<time>2010-06-13T07:21:39.65</time>
<name>4481</name>
</trkpt>
<trkpt lat="49.221543" lon="11.758497">
<ele>593.1</ele>
<speed>29.2</speed>
<course>128.0</course>
<desc>Speed 29.2 km/h Distance 19.44 km</desc>
<time>2010-06-13T07:21:40.65</time>
<name>4482</name>
</trkpt>
<trkpt lat="49.221502" lon="11.758578">
<ele>593.1</ele>
<speed>28.1</speed>
<course>124.4</course>
<desc>Speed 28.1 km/h Distance 19.45 km</desc>
<time>2010-06-13T07:21:41.65</time>
<name>4483</name>
</trkpt>
<trkpt lat="49.221467" lon="11.758657">
<ele>593.1</ele>
<speed>27.1</speed>
<course>117.5</course>
<desc>Speed 27.1 km/h Distance 19.46 km</desc>
<time>2010-06-13T07:21:42.65</time>
<name>4484</name>
</trkpt>
<trkpt lat="49.221440" lon="11.758735">
<ele>593.1</ele>
<speed>26.2</speed>
<course>126.3</course>
<desc>Speed 26.2 km/h Distance 19.46 km</desc>
<time>2010-06-13T07:21:43.65</time>
<name>4485</name>
</trkpt>
<trkpt lat="49.221400" lon="11.758818">
<ele>593.1</ele>
<speed>26.3</speed>
<course>118.0</course>
<desc>Speed 26.3 km/h Distance 19.47 km</desc>
<time>2010-06-13T07:21:44.65</time>
<name>4486</name>
</trkpt>
<trkpt lat="49.221373" lon="11.758895">
<ele>593.1</ele>
<speed>25.3</speed>
<course>126.2</course>
<desc>Speed 25.3 km/h Distance 19.48 km</desc>
<time>2010-06-13T07:21:45.65</time>
<name>4487</name>
</trkpt>
<trkpt lat="49.221337" lon="11.758972">
<ele>593.1</ele>
<speed>25.4</speed>
<course>110.0</course>
<desc>Speed 25.4 km/h Distance 19.48 km</desc>
<time>2010-06-13T07:21:46.65</time>
<name>4488</name>
</trkpt>
<trkpt lat="49.221320" lon="11.759042">
<ele>593.1</ele>
<speed>24.5</speed>
<course>119.7</course>
<desc>Speed 24.5 km/h Distance 19.49 km</desc>
<time>2010-06-13T07:21:47.65</time>
<name>4489</name>
</trkpt>
<trkpt lat="49.221293" lon="11.759113">
<ele>593.1</ele>
<speed>23.8</speed>
<course>118.7</course>
<desc>Speed 23.8 km/h Distance 19.49 km</desc>
<time>2010-06-13T07:21:48.65</time>
<name>4490</name>
</trkpt>
<trkpt lat="49.221268" lon="11.759183">
<ele>593.1</ele>
<speed>22.7</speed>
<course>107.4</course>
<desc>Speed 22.7 km/h Distance 19.50 km</desc>
<time>2010-06-13T07:21:49.65</time>
<name>4491</name>
</trkpt>
<trkpt lat="49.221255" lon="11.759248">
<ele>593.1</ele>
<speed>21.7</speed>
<course>139.3</course>
<desc>Speed 21.7 km/h Distance 19.50 km</desc>
<time>2010-06-13T07:21:50.65</time>
<name>4492</name>
</trkpt>
<trkpt lat="49.221145" lon="11.759393">
<ele>593.1</ele>
<speed>23.4</speed>
<course>135.2</course>
<desc>Speed 23.4 km/h Distance 19.52 km</desc>
<time>2010-06-13T07:21:52.65</time>
<name>4493</name>
</trkpt>
<trkpt lat="49.221100" lon="11.759462">
<ele>593.1</ele>
<speed>24.2</speed>
<course>121.2</course>
<desc>Speed 24.2 km/h Distance 19.53 km</desc>
<time>2010-06-13T07:21:53.65</time>
<name>4494</name>
</trkpt>
<trkpt lat="49.221072" lon="11.759533">
<ele>593.1</ele>
<speed>24.1</speed>
<course>116.5</course>
<desc>Speed 24.1 km/h Distance 19.53 km</desc>
<time>2010-06-13T07:21:54.65</time>
<name>4495</name>
</trkpt>
<trkpt lat="49.221047" lon="11.759610">
<ele>593.1</ele>
<speed>24.4</speed>
<course>129.0</course>
<desc>Speed 24.4 km/h Distance 19.54 km</desc>
<time>2010-06-13T07:21:55.65</time>
<name>4496</name>
</trkpt>
<trkpt lat="49.221000" lon="11.759698">
<ele>593.1</ele>
<speed>26.2</speed>
<course>122.2</course>
<desc>Speed 26.2 km/h Distance 19.55 km</desc>
<time>2010-06-13T07:21:56.65</time>
<name>4497</name>
</trkpt>
<trkpt lat="49.220962" lon="11.759792">
<ele>593.1</ele>
<speed>27.9</speed>
<course>118.6</course>
<desc>Speed 27.9 km/h Distance 19.56 km</desc>
<time>2010-06-13T07:21:57.65</time>
<name>4498</name>
</trkpt>
<trkpt lat="49.220927" lon="11.759890">
<ele>593.1</ele>
<speed>28.4</speed>
<course>138.0</course>
<desc>Speed 28.4 km/h Distance 19.56 km</desc>
<time>2010-06-13T07:21:58.65</time>
<name>4499</name>
</trkpt>
<trkpt lat="49.220857" lon="11.759987">
<ele>579.0</ele>
<speed>29.5</speed>
<course>56.6</course>
<desc>Speed 29.5 km/h Distance 19.58 km</desc>
<time>2010-06-13T07:22:00.65</time>
<name>4500</name>
</trkpt>
<trkpt lat="49.220898" lon="11.760083">
<ele>579.8</ele>
<speed>30.1</speed>
<course>117.2</course>
<desc>Speed 30.1 km/h Distance 19.58 km</desc>
<time>2010-06-13T07:22:01.65</time>
<name>4501</name>
</trkpt>
<trkpt lat="49.220802" lon="11.760372">
<ele>574.0</ele>
<speed>36.8</speed>
<course>110.7</course>
<desc>Speed 36.8 km/h Distance 19.61 km</desc>
<time>2010-06-13T07:22:03.65</time>
<name>4502</name>
</trkpt>
<trkpt lat="49.220768" lon="11.760507">
<ele>570.9</ele>
<speed>37.2</speed>
<course>106.8</course>
<desc>Speed 37.2 km/h Distance 19.62 km</desc>
<time>2010-06-13T07:22:04.65</time>
<name>4503</name>
</trkpt>
<trkpt lat="49.220707" lon="11.760820">
<ele>569.0</ele>
<speed>38.2</speed>
<course>106.8</course>
<desc>Speed 38.2 km/h Distance 19.64 km</desc>
<time>2010-06-13T07:22:06.65</time>
<name>4504</name>
</trkpt>
<trkpt lat="49.220677" lon="11.760972">
<ele>568.1</ele>
<speed>38.9</speed>
<course>105.6</course>
<desc>Speed 38.9 km/h Distance 19.65 km</desc>
<time>2010-06-13T07:22:07.65</time>
<name>4505</name>
</trkpt>
<trkpt lat="49.220648" lon="11.761127">
<ele>567.6</ele>
<speed>38.4</speed>
<course>106.0</course>
<desc>Speed 38.4 km/h Distance 19.66 km</desc>
<time>2010-06-13T07:22:08.65</time>
<name>4506</name>
</trkpt>
<trkpt lat="49.220620" lon="11.761278">
<ele>566.9</ele>
<speed>39.2</speed>
<course>106.3</course>
<desc>Speed 39.2 km/h Distance 19.68 km</desc>
<time>2010-06-13T07:22:09.65</time>
<name>4507</name>
</trkpt>
<trkpt lat="49.220592" lon="11.761427">
<ele>566.0</ele>
<speed>38.4</speed>
<course>105.2</course>
<desc>Speed 38.4 km/h Distance 19.69 km</desc>
<time>2010-06-13T07:22:10.65</time>
<name>4508</name>
</trkpt>
<trkpt lat="49.220565" lon="11.761577">
<ele>565.6</ele>
<speed>39.2</speed>
<course>105.4</course>
<desc>Speed 39.2 km/h Distance 19.70 km</desc>
<time>2010-06-13T07:22:11.65</time>
<name>4509</name>
</trkpt>
<trkpt lat="49.220538" lon="11.761725">
<ele>564.8</ele>
<speed>39.0</speed>
<course>104.8</course>
<desc>Speed 39.0 km/h Distance 19.71 km</desc>
<time>2010-06-13T07:22:12.65</time>
<name>4510</name>
</trkpt>
<trkpt lat="49.220513" lon="11.761870">
<ele>564.0</ele>
<speed>39.2</speed>
<course>104.8</course>
<desc>Speed 39.2 km/h Distance 19.72 km</desc>
<time>2010-06-13T07:22:13.65</time>
<name>4511</name>
</trkpt>
<trkpt lat="49.220488" lon="11.762015">
<ele>563.0</ele>
<speed>38.3</speed>
<course>105.1</course>
<desc>Speed 38.3 km/h Distance 19.73 km</desc>
<time>2010-06-13T07:22:14.65</time>
<name>4512</name>
</trkpt>
<trkpt lat="49.220463" lon="11.762157">
<ele>562.2</ele>
<speed>37.8</speed>
<course>103.3</course>
<desc>Speed 37.8 km/h Distance 19.74 km</desc>
<time>2010-06-13T07:22:15.65</time>
<name>4513</name>
</trkpt>
<trkpt lat="49.220442" lon="11.762297">
<ele>561.6</ele>
<speed>37.7</speed>
<course>104.2</course>
<desc>Speed 37.7 km/h Distance 19.75 km</desc>
<time>2010-06-13T07:22:16.65</time>
<name>4514</name>
</trkpt>
<trkpt lat="49.220418" lon="11.762438">
<ele>560.9</ele>
<speed>37.9</speed>
<course>104.0</course>
<desc>Speed 37.9 km/h Distance 19.76 km</desc>
<time>2010-06-13T07:22:17.65</time>
<name>4515</name>
</trkpt>
<trkpt lat="49.220395" lon="11.762582">
<ele>560.4</ele>
<speed>38.1</speed>
<course>103.3</course>
<desc>Speed 38.1 km/h Distance 19.77 km</desc>
<time>2010-06-13T07:22:18.65</time>
<name>4516</name>
</trkpt>
<trkpt lat="49.220373" lon="11.762722">
<ele>559.9</ele>
<speed>37.3</speed>
<course>104.5</course>
<desc>Speed 37.3 km/h Distance 19.78 km</desc>
<time>2010-06-13T07:22:19.65</time>
<name>4517</name>
</trkpt>
<trkpt lat="49.220350" lon="11.762860">
<ele>559.4</ele>
<speed>37.2</speed>
<course>105.1</course>
<desc>Speed 37.2 km/h Distance 19.80 km</desc>
<time>2010-06-13T07:22:20.65</time>
<name>4518</name>
</trkpt>
<trkpt lat="49.220325" lon="11.763002">
<ele>559.0</ele>
<speed>38.1</speed>
<course>105.5</course>
<desc>Speed 38.1 km/h Distance 19.81 km</desc>
<time>2010-06-13T07:22:21.65</time>
<name>4519</name>
</trkpt>
<trkpt lat="49.220300" lon="11.763140">
<ele>558.6</ele>
<speed>37.1</speed>
<course>104.8</course>
<desc>Speed 37.1 km/h Distance 19.82 km</desc>
<time>2010-06-13T07:22:22.65</time>
<name>4520</name>
</trkpt>
<trkpt lat="49.220277" lon="11.763275">
<ele>558.2</ele>
<speed>36.4</speed>
<course>104.0</course>
<desc>Speed 36.4 km/h Distance 19.83 km</desc>
<time>2010-06-13T07:22:23.65</time>
<name>4521</name>
</trkpt>
<trkpt lat="49.220255" lon="11.763408">
<ele>557.9</ele>
<speed>35.6</speed>
<course>104.1</course>
<desc>Speed 35.6 km/h Distance 19.84 km</desc>
<time>2010-06-13T07:22:24.65</time>
<name>4522</name>
</trkpt>
<trkpt lat="49.220233" lon="11.763540">
<ele>557.6</ele>
<speed>35.0</speed>
<course>104.9</course>
<desc>Speed 35.0 km/h Distance 19.85 km</desc>
<time>2010-06-13T07:22:25.65</time>
<name>4523</name>
</trkpt>
<trkpt lat="49.220212" lon="11.763665">
<ele>557.3</ele>
<speed>33.3</speed>
<course>105.9</course>
<desc>Speed 33.3 km/h Distance 19.86 km</desc>
<time>2010-06-13T07:22:26.65</time>
<name>4524</name>
</trkpt>
<trkpt lat="49.220190" lon="11.763782">
<ele>557.1</ele>
<speed>30.8</speed>
<course>105.8</course>
<desc>Speed 30.8 km/h Distance 19.86 km</desc>
<time>2010-06-13T07:22:27.65</time>
<name>4525</name>
</trkpt>
<trkpt lat="49.220170" lon="11.763890">
<ele>556.9</ele>
<speed>28.5</speed>
<course>106.8</course>
<desc>Speed 28.5 km/h Distance 19.87 km</desc>
<time>2010-06-13T07:22:28.65</time>
<name>4526</name>
</trkpt>
<trkpt lat="49.220150" lon="11.763992">
<ele>556.8</ele>
<speed>27.3</speed>
<course>107.0</course>
<desc>Speed 27.3 km/h Distance 19.88 km</desc>
<time>2010-06-13T07:22:29.65</time>
<name>4527</name>
</trkpt>
<trkpt lat="49.220130" lon="11.764092">
<ele>556.7</ele>
<speed>27.7</speed>
<course>107.8</course>
<desc>Speed 27.7 km/h Distance 19.89 km</desc>
<time>2010-06-13T07:22:30.65</time>
<name>4528</name>
</trkpt>
<trkpt lat="49.220108" lon="11.764195">
<ele>556.6</ele>
<speed>28.2</speed>
<course>105.2</course>
<desc>Speed 28.2 km/h Distance 19.90 km</desc>
<time>2010-06-13T07:22:31.65</time>
<name>4529</name>
</trkpt>
<trkpt lat="49.220090" lon="11.764298">
<ele>556.3</ele>
<speed>28.0</speed>
<course>103.5</course>
<desc>Speed 28.0 km/h Distance 19.90 km</desc>
<time>2010-06-13T07:22:32.65</time>
<name>4530</name>
</trkpt>
<trkpt lat="49.220073" lon="11.764405">
<ele>556.1</ele>
<speed>29.2</speed>
<course>102.7</course>
<desc>Speed 29.2 km/h Distance 19.91 km</desc>
<time>2010-06-13T07:22:33.65</time>
<name>4531</name>
</trkpt>
<trkpt lat="49.220057" lon="11.764518">
<ele>555.9</ele>
<speed>30.2</speed>
<course>101.5</course>
<desc>Speed 30.2 km/h Distance 19.92 km</desc>
<time>2010-06-13T07:22:34.65</time>
<name>4532</name>
</trkpt>
<trkpt lat="49.220042" lon="11.764632">
<ele>555.8</ele>
<speed>30.5</speed>
<course>103.3</course>
<desc>Speed 30.5 km/h Distance 19.93 km</desc>
<time>2010-06-13T07:22:35.65</time>
<name>4533</name>
</trkpt>
<trkpt lat="49.220023" lon="11.764750">
<ele>555.7</ele>
<speed>32.0</speed>
<course>105.1</course>
<desc>Speed 32.0 km/h Distance 19.94 km</desc>
<time>2010-06-13T07:22:36.65</time>
<name>4534</name>
</trkpt>
<trkpt lat="49.220002" lon="11.764873">
<ele>555.6</ele>
<speed>33.0</speed>
<course>105.1</course>
<desc>Speed 33.0 km/h Distance 19.95 km</desc>
<time>2010-06-13T07:22:37.65</time>
<name>4535</name>
</trkpt>
<trkpt lat="49.219980" lon="11.764997">
<ele>555.6</ele>
<speed>33.7</speed>
<course>105.9</course>
<desc>Speed 33.7 km/h Distance 19.96 km</desc>
<time>2010-06-13T07:22:38.65</time>
<name>4536</name>
</trkpt>
<trkpt lat="49.219957" lon="11.765122">
<ele>555.7</ele>
<speed>33.8</speed>
<course>105.3</course>
<desc>Speed 33.8 km/h Distance 19.97 km</desc>
<time>2010-06-13T07:22:39.65</time>
<name>4537</name>
</trkpt>
<trkpt lat="49.219935" lon="11.765243">
<ele>555.7</ele>
<speed>32.7</speed>
<course>105.7</course>
<desc>Speed 32.7 km/h Distance 19.97 km</desc>
<time>2010-06-13T07:22:40.65</time>
<name>4538</name>
</trkpt>
<trkpt lat="49.219913" lon="11.765362">
<ele>555.6</ele>
<speed>31.5</speed>
<course>106.3</course>
<desc>Speed 31.5 km/h Distance 19.98 km</desc>
<time>2010-06-13T07:22:41.65</time>
<name>4539</name>
</trkpt>
<trkpt lat="49.219892" lon="11.765475">
<ele>555.5</ele>
<speed>30.7</speed>
<course>102.9</course>
<desc>Speed 30.7 km/h Distance 19.99 km</desc>
<time>2010-06-13T07:22:42.65</time>
<name>4540</name>
</trkpt>
<trkpt lat="49.219875" lon="11.765587">
<ele>555.4</ele>
<speed>30.1</speed>
<course>104.1</course>
<desc>Speed 30.1 km/h Distance 20.00 km</desc>
<time>2010-06-13T07:22:43.65</time>
<name>4541</name>
</trkpt>
<trkpt lat="49.219857" lon="11.765698">
<ele>555.4</ele>
<speed>29.6</speed>
<course>105.8</course>
<desc>Speed 29.6 km/h Distance 20.01 km</desc>
<time>2010-06-13T07:22:44.65</time>
<name>4542</name>
</trkpt>
<trkpt lat="49.219837" lon="11.765807">
<ele>555.4</ele>
<speed>29.5</speed>
<course>106.0</course>
<desc>Speed 29.5 km/h Distance 20.02 km</desc>
<time>2010-06-13T07:22:45.65</time>
<name>4543</name>
</trkpt>
<trkpt lat="49.219817" lon="11.765913">
<ele>555.5</ele>
<speed>28.5</speed>
<course>103.9</course>
<desc>Speed 28.5 km/h Distance 20.03 km</desc>
<time>2010-06-13T07:22:46.65</time>
<name>4544</name>
</trkpt>
<trkpt lat="49.219800" lon="11.766017">
<ele>555.5</ele>
<speed>27.4</speed>
<course>105.4</course>
<desc>Speed 27.4 km/h Distance 20.03 km</desc>
<time>2010-06-13T07:22:47.65</time>
<name>4545</name>
</trkpt>
<trkpt lat="49.219782" lon="11.766118">
<ele>555.6</ele>
<speed>27.6</speed>
<course>104.5</course>
<desc>Speed 27.6 km/h Distance 20.04 km</desc>
<time>2010-06-13T07:22:48.65</time>
<name>4546</name>
</trkpt>
<trkpt lat="49.219765" lon="11.766217">
<ele>555.7</ele>
<speed>26.0</speed>
<course>105.6</course>
<desc>Speed 26.0 km/h Distance 20.05 km</desc>
<time>2010-06-13T07:22:49.65</time>
<name>4547</name>
</trkpt>
<trkpt lat="49.219748" lon="11.766308">
<ele>555.7</ele>
<speed>24.7</speed>
<course>104.6</course>
<desc>Speed 24.7 km/h Distance 20.05 km</desc>
<time>2010-06-13T07:22:50.65</time>
<name>4548</name>
</trkpt>
<trkpt lat="49.219733" lon="11.766397">
<ele>555.7</ele>
<speed>23.7</speed>
<course>103.5</course>
<desc>Speed 23.7 km/h Distance 20.06 km</desc>
<time>2010-06-13T07:22:51.65</time>
<name>4549</name>
</trkpt>
<trkpt lat="49.219720" lon="11.766482">
<ele>555.7</ele>
<speed>22.9</speed>
<course>104.6</course>
<desc>Speed 22.9 km/h Distance 20.07 km</desc>
<time>2010-06-13T07:22:52.65</time>
<name>4550</name>
</trkpt>
<trkpt lat="49.219705" lon="11.766570">
<ele>555.8</ele>
<speed>24.0</speed>
<course>108.8</course>
<desc>Speed 24.0 km/h Distance 20.07 km</desc>
<time>2010-06-13T07:22:53.65</time>
<name>4551</name>
</trkpt>
<trkpt lat="49.219685" lon="11.766660">
<ele>555.9</ele>
<speed>24.8</speed>
<course>107.6</course>
<desc>Speed 24.8 km/h Distance 20.08 km</desc>
<time>2010-06-13T07:22:54.65</time>
<name>4552</name>
</trkpt>
<trkpt lat="49.219667" lon="11.766748">
<ele>555.9</ele>
<speed>24.0</speed>
<course>99.7</course>
<desc>Speed 24.0 km/h Distance 20.09 km</desc>
<time>2010-06-13T07:22:55.65</time>
<name>4553</name>
</trkpt>
<trkpt lat="49.219657" lon="11.766838">
<ele>555.8</ele>
<speed>24.3</speed>
<course>94.6</course>
<desc>Speed 24.3 km/h Distance 20.09 km</desc>
<time>2010-06-13T07:22:56.65</time>
<name>4554</name>
</trkpt>
<trkpt lat="49.219652" lon="11.766933">
<ele>555.7</ele>
<speed>25.5</speed>
<course>92.9</course>
<desc>Speed 25.5 km/h Distance 20.10 km</desc>
<time>2010-06-13T07:22:57.65</time>
<name>4555</name>
</trkpt>
<trkpt lat="49.219648" lon="11.767035">
<ele>555.7</ele>
<speed>26.6</speed>
<course>91.4</course>
<desc>Speed 26.6 km/h Distance 20.11 km</desc>
<time>2010-06-13T07:22:58.65</time>
<name>4556</name>
</trkpt>
<trkpt lat="49.219647" lon="11.767140">
<ele>555.7</ele>
<speed>27.7</speed>
<course>92.8</course>
<desc>Speed 27.7 km/h Distance 20.12 km</desc>
<time>2010-06-13T07:22:59.65</time>
<name>4557</name>
</trkpt>
<trkpt lat="49.219643" lon="11.767245">
<ele>555.7</ele>
<speed>27.5</speed>
<course>94.0</course>
<desc>Speed 27.5 km/h Distance 20.12 km</desc>
<time>2010-06-13T07:23:00.65</time>
<name>4558</name>
</trkpt>
<trkpt lat="49.219638" lon="11.767353">
<ele>555.6</ele>
<speed>28.2</speed>
<course>92.7</course>
<desc>Speed 28.2 km/h Distance 20.13 km</desc>
<time>2010-06-13T07:23:01.65</time>
<name>4559</name>
</trkpt>
<trkpt lat="49.219635" lon="11.767460">
<ele>555.5</ele>
<speed>28.3</speed>
<course>91.4</course>
<desc>Speed 28.3 km/h Distance 20.14 km</desc>
<time>2010-06-13T07:23:02.65</time>
<name>4560</name>
</trkpt>
<trkpt lat="49.219633" lon="11.767567">
<ele>555.4</ele>
<speed>27.8</speed>
<course>91.3</course>
<desc>Speed 27.8 km/h Distance 20.15 km</desc>
<time>2010-06-13T07:23:03.65</time>
<name>4561</name>
</trkpt>
<trkpt lat="49.219632" lon="11.767678">
<ele>555.3</ele>
<speed>29.2</speed>
<course>93.9</course>
<desc>Speed 29.2 km/h Distance 20.16 km</desc>
<time>2010-06-13T07:23:04.65</time>
<name>4562</name>
</trkpt>
<trkpt lat="49.219627" lon="11.767790">
<ele>555.3</ele>
<speed>29.7</speed>
<course>92.6</course>
<desc>Speed 29.7 km/h Distance 20.16 km</desc>
<time>2010-06-13T07:23:05.65</time>
<name>4563</name>
</trkpt>
<trkpt lat="49.219623" lon="11.767903">
<ele>555.1</ele>
<speed>29.7</speed>
<course>92.6</course>
<desc>Speed 29.7 km/h Distance 20.17 km</desc>
<time>2010-06-13T07:23:06.65</time>
<name>4564</name>
</trkpt>
<trkpt lat="49.219620" lon="11.768015">
<ele>554.9</ele>
<speed>29.3</speed>
<course>91.3</course>
<desc>Speed 29.3 km/h Distance 20.18 km</desc>
<time>2010-06-13T07:23:07.65</time>
<name>4565</name>
</trkpt>
<trkpt lat="49.219618" lon="11.768130">
<ele>554.7</ele>
<speed>30.4</speed>
<course>93.7</course>
<desc>Speed 30.4 km/h Distance 20.19 km</desc>
<time>2010-06-13T07:23:08.65</time>
<name>4566</name>
</trkpt>
<trkpt lat="49.219613" lon="11.768250">
<ele>554.4</ele>
<speed>31.5</speed>
<course>92.4</course>
<desc>Speed 31.5 km/h Distance 20.20 km</desc>
<time>2010-06-13T07:23:09.65</time>
<name>4567</name>
</trkpt>
<trkpt lat="49.219610" lon="11.768370">
<ele>554.2</ele>
<speed>31.7</speed>
<course>91.2</course>
<desc>Speed 31.7 km/h Distance 20.21 km</desc>
<time>2010-06-13T07:23:10.65</time>
<name>4568</name>
</trkpt>
<trkpt lat="49.219608" lon="11.768492">
<ele>553.9</ele>
<speed>31.9</speed>
<course>92.4</course>
<desc>Speed 31.9 km/h Distance 20.22 km</desc>
<time>2010-06-13T07:23:11.65</time>
<name>4569</name>
</trkpt>
<trkpt lat="49.219605" lon="11.768615">
<ele>553.5</ele>
<speed>32.8</speed>
<course>93.4</course>
<desc>Speed 32.8 km/h Distance 20.22 km</desc>
<time>2010-06-13T07:23:12.65</time>
<name>4570</name>
</trkpt>
<trkpt lat="49.219600" lon="11.768743">
<ele>553.1</ele>
<speed>33.6</speed>
<course>93.4</course>
<desc>Speed 33.6 km/h Distance 20.23 km</desc>
<time>2010-06-13T07:23:13.65</time>
<name>4571</name>
</trkpt>
<trkpt lat="49.219595" lon="11.768873">
<ele>552.7</ele>
<speed>34.6</speed>
<course>94.3</course>
<desc>Speed 34.6 km/h Distance 20.24 km</desc>
<time>2010-06-13T07:23:14.65</time>
<name>4572</name>
</trkpt>
<trkpt lat="49.219588" lon="11.769010">
<ele>552.1</ele>
<speed>36.3</speed>
<course>92.1</course>
<desc>Speed 36.3 km/h Distance 20.25 km</desc>
<time>2010-06-13T07:23:15.65</time>
<name>4573</name>
</trkpt>
<trkpt lat="49.219585" lon="11.769150">
<ele>551.5</ele>
<speed>36.5</speed>
<course>92.1</course>
<desc>Speed 36.5 km/h Distance 20.26 km</desc>
<time>2010-06-13T07:23:16.65</time>
<name>4574</name>
</trkpt>
<trkpt lat="49.219582" lon="11.769292">
<ele>551.0</ele>
<speed>37.3</speed>
<course>93.1</course>
<desc>Speed 37.3 km/h Distance 20.27 km</desc>
<time>2010-06-13T07:23:17.65</time>
<name>4575</name>
</trkpt>
<trkpt lat="49.219577" lon="11.769435">
<ele>550.6</ele>
<speed>37.9</speed>
<course>93.1</course>
<desc>Speed 37.9 km/h Distance 20.28 km</desc>
<time>2010-06-13T07:23:18.65</time>
<name>4576</name>
</trkpt>
<trkpt lat="49.219572" lon="11.769575">
<ele>550.4</ele>
<speed>36.0</speed>
<course>94.3</course>
<desc>Speed 36.0 km/h Distance 20.29 km</desc>
<time>2010-06-13T07:23:19.65</time>
<name>4577</name>
</trkpt>
<trkpt lat="49.219565" lon="11.769712">
<ele>550.2</ele>
<speed>35.6</speed>
<course>94.3</course>
<desc>Speed 35.6 km/h Distance 20.30 km</desc>
<time>2010-06-13T07:23:20.65</time>
<name>4578</name>
</trkpt>
<trkpt lat="49.219558" lon="11.769847">
<ele>550.2</ele>
<speed>35.2</speed>
<course>93.4</course>
<desc>Speed 35.2 km/h Distance 20.31 km</desc>
<time>2010-06-13T07:23:21.65</time>
<name>4579</name>
</trkpt>
<trkpt lat="49.219553" lon="11.769975">
<ele>550.2</ele>
<speed>33.3</speed>
<course>93.6</course>
<desc>Speed 33.3 km/h Distance 20.32 km</desc>
<time>2010-06-13T07:23:22.65</time>
<name>4580</name>
</trkpt>
<trkpt lat="49.219548" lon="11.770098">
<ele>550.2</ele>
<speed>31.7</speed>
<course>91.3</course>
<desc>Speed 31.7 km/h Distance 20.33 km</desc>
<time>2010-06-13T07:23:23.65</time>
<name>4581</name>
</trkpt>
<trkpt lat="49.219547" lon="11.770212">
<ele>550.3</ele>
<speed>29.6</speed>
<course>92.7</course>
<desc>Speed 29.6 km/h Distance 20.34 km</desc>
<time>2010-06-13T07:23:24.65</time>
<name>4582</name>
</trkpt>
<trkpt lat="49.219543" lon="11.770318">
<ele>550.5</ele>
<speed>27.3</speed>
<course>90.0</course>
<desc>Speed 27.3 km/h Distance 20.35 km</desc>
<time>2010-06-13T07:23:25.65</time>
<name>4583</name>
</trkpt>
<trkpt lat="49.219543" lon="11.770415">
<ele>550.4</ele>
<speed>25.3</speed>
<course>93.3</course>
<desc>Speed 25.3 km/h Distance 20.36 km</desc>
<time>2010-06-13T07:23:26.65</time>
<name>4584</name>
</trkpt>
<trkpt lat="49.219540" lon="11.770503">
<ele>550.8</ele>
<speed>22.4</speed>
<course>93.8</course>
<desc>Speed 22.4 km/h Distance 20.36 km</desc>
<time>2010-06-13T07:23:27.65</time>
<name>4585</name>
</trkpt>
<trkpt lat="49.219537" lon="11.770580">
<ele>551.8</ele>
<speed>19.9</speed>
<course>94.3</course>
<desc>Speed 19.9 km/h Distance 20.37 km</desc>
<time>2010-06-13T07:23:28.65</time>
<name>4586</name>
</trkpt>
<trkpt lat="49.219533" lon="11.770648">
<ele>552.3</ele>
<speed>17.9</speed>
<course>92.3</course>
<desc>Speed 17.9 km/h Distance 20.37 km</desc>
<time>2010-06-13T07:23:29.65</time>
<name>4587</name>
</trkpt>
<trkpt lat="49.219532" lon="11.770712">
<ele>552.3</ele>
<speed>16.6</speed>
<course>92.6</course>
<desc>Speed 16.6 km/h Distance 20.38 km</desc>
<time>2010-06-13T07:23:30.65</time>
<name>4588</name>
</trkpt>
<trkpt lat="49.219530" lon="11.770768">
<ele>552.7</ele>
<speed>15.1</speed>
<course>90.0</course>
<desc>Speed 15.1 km/h Distance 20.38 km</desc>
<time>2010-06-13T07:23:31.65</time>
<name>4589</name>
</trkpt>
<trkpt lat="49.219530" lon="11.770818">
<ele>553.0</ele>
<speed>13.0</speed>
<course>90.0</course>
<desc>Speed 13.0 km/h Distance 20.38 km</desc>
<time>2010-06-13T07:23:32.65</time>
<name>4590</name>
</trkpt>
<trkpt lat="49.219530" lon="11.770862">
<ele>553.3</ele>
<speed>11.4</speed>
<course>90.0</course>
<desc>Speed 11.4 km/h Distance 20.39 km</desc>
<time>2010-06-13T07:23:33.65</time>
<name>4591</name>
</trkpt>
<trkpt lat="49.219530" lon="11.770898">
<ele>553.4</ele>
<speed>10.2</speed>
<course>97.6</course>
<desc>Speed 10.2 km/h Distance 20.39 km</desc>
<time>2010-06-13T07:23:34.65</time>
<name>4592</name>
</trkpt>
<trkpt lat="49.219527" lon="11.770937">
<ele>553.7</ele>
<speed>10.6</speed>
<course>94.0</course>
<desc>Speed 10.6 km/h Distance 20.39 km</desc>
<time>2010-06-13T07:23:35.65</time>
<name>4593</name>
</trkpt>
<trkpt lat="49.219525" lon="11.770973">
<ele>554.1</ele>
<speed>10.4</speed>
<course>90.0</course>
<desc>Speed 10.4 km/h Distance 20.40 km</desc>
<time>2010-06-13T07:23:36.65</time>
<name>4594</name>
</trkpt>
<trkpt lat="49.219525" lon="11.771008">
<ele>554.4</ele>
<speed>9.4</speed>
<course>85.4</course>
<desc>Speed 9.4 km/h Distance 20.40 km</desc>
<time>2010-06-13T07:23:37.65</time>
<name>4595</name>
</trkpt>
<trkpt lat="49.219527" lon="11.771040">
<ele>554.6</ele>
<speed>8.7</speed>
<course>90.0</course>
<desc>Speed 8.7 km/h Distance 20.40 km</desc>
<time>2010-06-13T07:23:38.65</time>
<name>4596</name>
</trkpt>
<trkpt lat="49.219527" lon="11.771070">
<ele>554.8</ele>
<speed>8.3</speed>
<course>90.0</course>
<desc>Speed 8.3 km/h Distance 20.40 km</desc>
<time>2010-06-13T07:23:39.65</time>
<name>4597</name>
</trkpt>
<trkpt lat="49.219527" lon="11.771102">
<ele>555.0</ele>
<speed>8.2</speed>
<course>90.0</course>
<desc>Speed 8.2 km/h Distance 20.41 km</desc>
<time>2010-06-13T07:23:40.65</time>
<name>4598</name>
</trkpt>
<trkpt lat="49.219527" lon="11.771132">
<ele>555.3</ele>
<speed>8.6</speed>
<course>94.6</course>
<desc>Speed 8.6 km/h Distance 20.41 km</desc>
<time>2010-06-13T07:23:41.65</time>
<name>4599</name>
</trkpt>
<trkpt lat="49.219525" lon="11.771163">
<ele>555.5</ele>
<speed>8.2</speed>
<course>90.0</course>
<desc>Speed 8.2 km/h Distance 20.41 km</desc>
<time>2010-06-13T07:23:42.65</time>
<name>4600</name>
</trkpt>
<trkpt lat="49.219525" lon="11.771193">
<ele>555.7</ele>
<speed>7.8</speed>
<course>90.0</course>
<desc>Speed 7.8 km/h Distance 20.41 km</desc>
<time>2010-06-13T07:23:43.65</time>
<name>4601</name>
</trkpt>
<trkpt lat="49.219525" lon="11.771223">
<ele>556.0</ele>
<speed>7.8</speed>
<course>90.0</course>
<desc>Speed 7.8 km/h Distance 20.41 km</desc>
<time>2010-06-13T07:23:44.65</time>
<name>4602</name>
</trkpt>
<trkpt lat="49.219525" lon="11.771250">
<ele>556.1</ele>
<speed>7.7</speed>
<course>85.4</course>
<desc>Speed 7.7 km/h Distance 20.42 km</desc>
<time>2010-06-13T07:23:45.65</time>
<name>4603</name>
</trkpt>
<trkpt lat="49.219527" lon="11.771282">
<ele>556.5</ele>
<speed>8.4</speed>
<course>80.3</course>
<desc>Speed 8.4 km/h Distance 20.42 km</desc>
<time>2010-06-13T07:23:46.65</time>
<name>4604</name>
</trkpt>
<trkpt lat="49.219530" lon="11.771312">
<ele>556.6</ele>
<speed>7.2</speed>
<course>90.0</course>
<desc>Speed 7.2 km/h Distance 20.42 km</desc>
<time>2010-06-13T07:23:47.65</time>
<name>4605</name>
</trkpt>
<trkpt lat="49.219530" lon="11.771340">
<ele>557.1</ele>
<speed>6.5</speed>
<course>105.1</course>
<desc>Speed 6.5 km/h Distance 20.42 km</desc>
<time>2010-06-13T07:23:48.65</time>
<name>4606</name>
</trkpt>
<trkpt lat="49.219525" lon="11.771368">
<ele>557.1</ele>
<speed>5.7</speed>
<course>82.7</course>
<desc>Speed 5.7 km/h Distance 20.42 km</desc>
<time>2010-06-13T07:23:49.65</time>
<name>4607</name>
</trkpt>
<trkpt lat="49.219527" lon="11.771388">
<ele>557.1</ele>
<speed>5.1</speed>
<course>58.5</course>
<desc>Speed 5.1 km/h Distance 20.43 km</desc>
<time>2010-06-13T07:23:50.65</time>
<name>4608</name>
</trkpt>
<trkpt lat="49.219533" lon="11.771405">
<ele>557.7</ele>
<speed>4.4</speed>
<course>52.4</course>
<desc>Speed 4.4 km/h Distance 20.43 km</desc>
<time>2010-06-13T07:23:51.65</time>
<name>4609</name>
</trkpt>
<trkpt lat="49.219540" lon="11.771418">
<ele>558.1</ele>
<speed>4.9</speed>
<course>44.3</course>
<desc>Speed 4.9 km/h Distance 20.43 km</desc>
<time>2010-06-13T07:23:52.65</time>
<name>4610</name>
</trkpt>
<trkpt lat="49.219550" lon="11.771433">
<ele>558.7</ele>
<speed>5.9</speed>
<course>90.0</course>
<desc>Speed 5.9 km/h Distance 20.43 km</desc>
<time>2010-06-13T07:23:53.65</time>
<name>4611</name>
</trkpt>
<trkpt lat="49.219550" lon="11.771462">
<ele>559.3</ele>
<speed>5.9</speed>
<course>83.3</course>
<desc>Speed 5.9 km/h Distance 20.43 km</desc>
<time>2010-06-13T07:23:54.65</time>
<name>4612</name>
</trkpt>
<trkpt lat="49.219552" lon="11.771483">
<ele>559.4</ele>
<speed>5.2</speed>
<course>107.0</course>
<desc>Speed 5.2 km/h Distance 20.43 km</desc>
<time>2010-06-13T07:23:55.65</time>
<name>4613</name>
</trkpt>
<trkpt lat="49.219547" lon="11.771508">
<ele>559.6</ele>
<speed>5.6</speed>
<course>121.5</course>
<desc>Speed 5.6 km/h Distance 20.44 km</desc>
<time>2010-06-13T07:23:56.65</time>
<name>4614</name>
</trkpt>
<trkpt lat="49.219533" lon="11.771542">
<ele>559.1</ele>
<speed>5.4</speed>
<course>110.6</course>
<desc>Speed 5.4 km/h Distance 20.44 km</desc>
<time>2010-06-13T07:23:57.65</time>
<name>4615</name>
</trkpt>
<trkpt lat="49.219512" lon="11.771630">
<ele>561.3</ele>
<speed>7.8</speed>
<course>93.8</course>
<desc>Speed 7.8 km/h Distance 20.45 km</desc>
<time>2010-06-13T07:23:59.65</time>
<name>4616</name>
</trkpt>
<trkpt lat="49.219510" lon="11.771668">
<ele>562.1</ele>
<speed>7.5</speed>
<course>116.0</course>
<desc>Speed 7.5 km/h Distance 20.45 km</desc>
<time>2010-06-13T07:24:00.65</time>
<name>4617</name>
</trkpt>
<trkpt lat="49.219498" lon="11.771705">
<ele>562.6</ele>
<speed>5.9</speed>
<course>94.9</course>
<desc>Speed 5.9 km/h Distance 20.45 km</desc>
<time>2010-06-13T07:24:01.65</time>
<name>4618</name>
</trkpt>
<trkpt lat="49.219497" lon="11.771735">
<ele>563.2</ele>
<speed>6.9</speed>
<course>100.2</course>
<desc>Speed 6.9 km/h Distance 20.45 km</desc>
<time>2010-06-13T07:24:02.65</time>
<name>4619</name>
</trkpt>
<trkpt lat="49.219493" lon="11.771763">
<ele>563.1</ele>
<speed>7.2</speed>
<course>108.4</course>
<desc>Speed 7.2 km/h Distance 20.46 km</desc>
<time>2010-06-13T07:24:03.65</time>
<name>4620</name>
</trkpt>
<trkpt lat="49.219485" lon="11.771802">
<ele>563.6</ele>
<speed>7.4</speed>
<course>110.9</course>
<desc>Speed 7.4 km/h Distance 20.46 km</desc>
<time>2010-06-13T07:24:04.65</time>
<name>4621</name>
</trkpt>
<trkpt lat="49.219477" lon="11.771835">
<ele>563.6</ele>
<speed>7.0</speed>
<course>109.8</course>
<desc>Speed 7.0 km/h Distance 20.46 km</desc>
<time>2010-06-13T07:24:05.65</time>
<name>4622</name>
</trkpt>
<trkpt lat="49.219470" lon="11.771863">
<ele>563.7</ele>
<speed>6.3</speed>
<course>96.2</course>
<desc>Speed 6.3 km/h Distance 20.46 km</desc>
<time>2010-06-13T07:24:06.65</time>
<name>4623</name>
</trkpt>
<trkpt lat="49.219468" lon="11.771887">
<ele>563.3</ele>
<speed>6.1</speed>
<course>118.0</course>
<desc>Speed 6.1 km/h Distance 20.47 km</desc>
<time>2010-06-13T07:24:07.65</time>
<name>4624</name>
</trkpt>
<trkpt lat="49.219455" lon="11.771925">
<ele>563.4</ele>
<speed>5.0</speed>
<course>114.7</course>
<desc>Speed 5.0 km/h Distance 20.47 km</desc>
<time>2010-06-13T07:24:08.65</time>
<name>4625</name>
</trkpt>
<trkpt lat="49.219445" lon="11.771958">
<ele>563.4</ele>
<speed>6.4</speed>
<course>105.6</course>
<desc>Speed 6.4 km/h Distance 20.47 km</desc>
<time>2010-06-13T07:24:09.65</time>
<name>4626</name>
</trkpt>
<trkpt lat="49.219438" lon="11.771995">
<ele>563.9</ele>
<speed>6.9</speed>
<course>97.6</course>
<desc>Speed 6.9 km/h Distance 20.47 km</desc>
<time>2010-06-13T07:24:10.65</time>
<name>4627</name>
</trkpt>
<trkpt lat="49.219435" lon="11.772033">
<ele>564.6</ele>
<speed>8.1</speed>
<course>111.6</course>
<desc>Speed 8.1 km/h Distance 20.48 km</desc>
<time>2010-06-13T07:24:11.65</time>
<name>4628</name>
</trkpt>
<trkpt lat="49.219423" lon="11.772078">
<ele>565.0</ele>
<speed>8.0</speed>
<course>41.0</course>
<desc>Speed 8.0 km/h Distance 20.48 km</desc>
<time>2010-06-13T07:24:12.65</time>
<name>4629</name>
</trkpt>
<trkpt lat="49.219433" lon="11.772092">
<ele>566.1</ele>
<speed>6.3</speed>
<course>26.0</course>
<desc>Speed 6.3 km/h Distance 20.48 km</desc>
<time>2010-06-13T07:24:13.65</time>
<name>4630</name>
</trkpt>
<trkpt lat="49.219447" lon="11.772102">
<ele>566.5</ele>
<speed>6.2</speed>
<course>90.0</course>
<desc>Speed 6.2 km/h Distance 20.48 km</desc>
<time>2010-06-13T07:24:14.65</time>
<name>4631</name>
</trkpt>
<trkpt lat="49.219447" lon="11.772133">
<ele>566.2</ele>
<speed>7.4</speed>
<course>74.4</course>
<desc>Speed 7.4 km/h Distance 20.49 km</desc>
<time>2010-06-13T07:24:15.65</time>
<name>4632</name>
</trkpt>
<trkpt lat="49.219450" lon="11.772152">
<ele>566.1</ele>
<speed>6.9</speed>
<course>46.1</course>
<desc>Speed 6.9 km/h Distance 20.49 km</desc>
<time>2010-06-13T07:24:16.65</time>
<name>4633</name>
</trkpt>
<trkpt lat="49.219458" lon="11.772165">
<ele>566.5</ele>
<speed>5.6</speed>
<course>79.2</course>
<desc>Speed 5.6 km/h Distance 20.49 km</desc>
<time>2010-06-13T07:24:17.65</time>
<name>4634</name>
</trkpt>
<trkpt lat="49.219462" lon="11.772192">
<ele>567.3</ele>
<speed>4.8</speed>
<course>55.1</course>
<desc>Speed 4.8 km/h Distance 20.49 km</desc>
<time>2010-06-13T07:24:18.65</time>
<name>4635</name>
</trkpt>
<trkpt lat="49.219470" lon="11.772210">
<ele>568.1</ele>
<speed>5.1</speed>
<course>52.5</course>
<desc>Speed 5.1 km/h Distance 20.49 km</desc>
<time>2010-06-13T07:24:19.65</time>
<name>4636</name>
</trkpt>
<trkpt lat="49.219478" lon="11.772227">
<ele>568.2</ele>
<speed>6.4</speed>
<course>85.4</course>
<desc>Speed 6.4 km/h Distance 20.49 km</desc>
<time>2010-06-13T07:24:20.65</time>
<name>4637</name>
</trkpt>
<trkpt lat="49.219480" lon="11.772258">
<ele>569.6</ele>
<speed>6.2</speed>
<course>46.7</course>
<desc>Speed 6.2 km/h Distance 20.50 km</desc>
<time>2010-06-13T07:24:21.65</time>
<name>4638</name>
</trkpt>
<trkpt lat="49.219493" lon="11.772280">
<ele>570.0</ele>
<speed>6.1</speed>
<course>105.6</course>
<desc>Speed 6.1 km/h Distance 20.50 km</desc>
<time>2010-06-13T07:24:22.65</time>
<name>4639</name>
</trkpt>
<trkpt lat="49.219487" lon="11.772317">
<ele>571.7</ele>
<speed>6.7</speed>
<course>117.1</course>
<desc>Speed 6.7 km/h Distance 20.50 km</desc>
<time>2010-06-13T07:24:23.65</time>
<name>4640</name>
</trkpt>
<trkpt lat="49.219478" lon="11.772342">
<ele>571.7</ele>
<speed>5.7</speed>
<course>126.1</course>
<desc>Speed 5.7 km/h Distance 20.50 km</desc>
<time>2010-06-13T07:24:24.65</time>
<name>4641</name>
</trkpt>
<trkpt lat="49.219462" lon="11.772377">
<ele>571.6</ele>
<speed>5.5</speed>
<course>104.3</course>
<desc>Speed 5.5 km/h Distance 20.51 km</desc>
<time>2010-06-13T07:24:25.65</time>
<name>4642</name>
</trkpt>
<trkpt lat="49.219457" lon="11.772407">
<ele>572.3</ele>
<speed>5.4</speed>
<course>103.6</course>
<desc>Speed 5.4 km/h Distance 20.51 km</desc>
<time>2010-06-13T07:24:26.65</time>
<name>4643</name>
</trkpt>
<trkpt lat="49.219452" lon="11.772438">
<ele>572.3</ele>
<speed>4.7</speed>
<course>97.9</course>
<desc>Speed 4.7 km/h Distance 20.51 km</desc>
<time>2010-06-13T07:24:27.65</time>
<name>4644</name>
</trkpt>
<trkpt lat="49.219450" lon="11.772457">
<ele>571.2</ele>
<speed>4.5</speed>
<course>109.2</course>
<desc>Speed 4.5 km/h Distance 20.51 km</desc>
<time>2010-06-13T07:24:28.65</time>
<name>4645</name>
</trkpt>
<trkpt lat="49.219442" lon="11.772493">
<ele>570.5</ele>
<speed>5.1</speed>
<course>113.0</course>
<desc>Speed 5.1 km/h Distance 20.51 km</desc>
<time>2010-06-13T07:24:29.65</time>
<name>4646</name>
</trkpt>
<trkpt lat="49.219433" lon="11.772523">
<ele>569.7</ele>
<speed>5.0</speed>
<course>97.9</course>
<desc>Speed 5.0 km/h Distance 20.52 km</desc>
<time>2010-06-13T07:24:30.65</time>
<name>4647</name>
</trkpt>
<trkpt lat="49.219432" lon="11.772542">
<ele>568.4</ele>
<speed>4.7</speed>
<course>111.8</course>
<desc>Speed 4.7 km/h Distance 20.52 km</desc>
<time>2010-06-13T07:24:31.65</time>
<name>4648</name>
</trkpt>
<trkpt lat="49.219422" lon="11.772580">
<ele>567.6</ele>
<speed>5.9</speed>
<course>58.5</course>
<desc>Speed 5.9 km/h Distance 20.52 km</desc>
<time>2010-06-13T07:24:32.65</time>
<name>4649</name>
</trkpt>
<trkpt lat="49.219428" lon="11.772597">
<ele>568.3</ele>
<speed>5.7</speed>
<course>107.0</course>
<desc>Speed 5.7 km/h Distance 20.52 km</desc>
<time>2010-06-13T07:24:33.65</time>
<name>4650</name>
</trkpt>
<trkpt lat="49.219422" lon="11.772630">
<ele>568.4</ele>
<speed>6.4</speed>
<course>90.0</course>
<desc>Speed 6.4 km/h Distance 20.53 km</desc>
<time>2010-06-13T07:24:34.65</time>
<name>4651</name>
</trkpt>
<trkpt lat="49.219422" lon="11.772647">
<ele>568.9</ele>
<speed>4.9</speed>
<course>60.9</course>
<desc>Speed 4.9 km/h Distance 20.53 km</desc>
<time>2010-06-13T07:24:35.65</time>
<name>4652</name>
</trkpt>
<trkpt lat="49.219428" lon="11.772665">
<ele>568.3</ele>
<speed>4.6</speed>
<course>83.8</course>
<desc>Speed 4.6 km/h Distance 20.53 km</desc>
<time>2010-06-13T07:24:36.65</time>
<name>4653</name>
</trkpt>
<trkpt lat="49.219430" lon="11.772688">
<ele>568.7</ele>
<speed>4.1</speed>
<course>102.9</course>
<desc>Speed 4.1 km/h Distance 20.53 km</desc>
<time>2010-06-13T07:24:37.65</time>
<name>4654</name>
</trkpt>
<trkpt lat="49.219425" lon="11.772722">
<ele>568.5</ele>
<speed>4.2</speed>
<course>75.7</course>
<desc>Speed 4.2 km/h Distance 20.53 km</desc>
<time>2010-06-13T07:24:38.65</time>
<name>4655</name>
</trkpt>
<trkpt lat="49.219428" lon="11.772742">
<ele>568.3</ele>
<speed>3.9</speed>
<course>5.5</course>
<desc>Speed 3.9 km/h Distance 20.53 km</desc>
<time>2010-06-13T07:24:39.65</time>
<name>4656</name>
</trkpt>
<trkpt lat="49.219450" lon="11.772745">
<ele>567.6</ele>
<speed>4.1</speed>
<course>26.0</course>
<desc>Speed 4.1 km/h Distance 20.54 km</desc>
<time>2010-06-13T07:24:40.65</time>
<name>4657</name>
</trkpt>
<trkpt lat="49.219463" lon="11.772755">
<ele>567.5</ele>
<speed>4.4</speed>
<course>60.1</course>
<desc>Speed 4.4 km/h Distance 20.54 km</desc>
<time>2010-06-13T07:24:41.65</time>
<name>4658</name>
</trkpt>
<trkpt lat="49.219468" lon="11.772768">
<ele>567.4</ele>
<speed>4.1</speed>
<course>103.3</course>
<desc>Speed 4.1 km/h Distance 20.54 km</desc>
<time>2010-06-13T07:24:42.65</time>
<name>4659</name>
</trkpt>
<trkpt lat="49.219465" lon="11.772790">
<ele>569.0</ele>
<speed>4.1</speed>
<course>90.0</course>
<desc>Speed 4.1 km/h Distance 20.54 km</desc>
<time>2010-06-13T07:24:43.65</time>
<name>4660</name>
</trkpt>
<trkpt lat="49.219465" lon="11.772810">
<ele>568.9</ele>
<speed>5.3</speed>
<course>14.9</course>
<desc>Speed 5.3 km/h Distance 20.54 km</desc>
<time>2010-06-13T07:24:44.65</time>
<name>4661</name>
</trkpt>
<trkpt lat="49.219477" lon="11.772815">
<ele>567.5</ele>
<speed>4.2</speed>
<course>75.6</course>
<desc>Speed 4.2 km/h Distance 20.54 km</desc>
<time>2010-06-13T07:24:45.65</time>
<name>4662</name>
</trkpt>
<trkpt lat="49.219478" lon="11.772825">
<ele>567.8</ele>
<speed>3.7</speed>
<course>130.5</course>
<desc>Speed 3.7 km/h Distance 20.54 km</desc>
<time>2010-06-13T07:24:46.65</time>
<name>4663</name>
</trkpt>
<trkpt lat="49.219470" lon="11.772840">
<ele>567.4</ele>
<speed>3.6</speed>
<course>57.4</course>
<desc>Speed 3.6 km/h Distance 20.55 km</desc>
<time>2010-06-13T07:24:47.65</time>
<name>4664</name>
</trkpt>
<trkpt lat="49.219478" lon="11.772860">
<ele>567.2</ele>
<speed>5.2</speed>
<course>2.5</course>
<desc>Speed 5.2 km/h Distance 20.55 km</desc>
<time>2010-06-13T07:24:48.65</time>
<name>4665</name>
</trkpt>
<trkpt lat="49.219497" lon="11.772860">
<ele>566.2</ele>
<speed>4.2</speed>
<course>90.0</course>
<desc>Speed 4.2 km/h Distance 20.55 km</desc>
<time>2010-06-13T07:24:49.65</time>
<name>4666</name>
</trkpt>
<trkpt lat="49.219497" lon="11.772875">
<ele>563.9</ele>
<speed>3.1</speed>
<course>41.2</course>
<desc>Speed 3.1 km/h Distance 20.55 km</desc>
<time>2010-06-13T07:24:50.65</time>
<name>4667</name>
</trkpt>
<trkpt lat="49.219507" lon="11.772888">
<ele>563.7</ele>
<speed>3.6</speed>
<course>108.1</course>
<desc>Speed 3.6 km/h Distance 20.55 km</desc>
<time>2010-06-13T07:24:51.65</time>
<name>4668</name>
</trkpt>
<trkpt lat="49.219502" lon="11.772912">
<ele>564.0</ele>
<speed>3.9</speed>
<course>105.6</course>
<desc>Speed 3.9 km/h Distance 20.55 km</desc>
<time>2010-06-13T07:24:52.65</time>
<name>4669</name>
</trkpt>
<trkpt lat="49.219498" lon="11.772930">
<ele>563.6</ele>
<speed>5.0</speed>
<course>95.8</course>
<desc>Speed 5.0 km/h Distance 20.55 km</desc>
<time>2010-06-13T07:24:53.65</time>
<name>4670</name>
</trkpt>
<trkpt lat="49.219497" lon="11.772955">
<ele>562.8</ele>
<speed>6.1</speed>
<course>109.5</course>
<desc>Speed 6.1 km/h Distance 20.56 km</desc>
<time>2010-06-13T07:24:54.65</time>
<name>4671</name>
</trkpt>
<trkpt lat="49.219492" lon="11.772977">
<ele>562.0</ele>
<speed>6.1</speed>
<course>60.8</course>
<desc>Speed 6.1 km/h Distance 20.56 km</desc>
<time>2010-06-13T07:24:55.65</time>
<name>4672</name>
</trkpt>
<trkpt lat="49.219498" lon="11.772995">
<ele>561.8</ele>
<speed>4.9</speed>
<course>70.5</course>
<desc>Speed 4.9 km/h Distance 20.56 km</desc>
<time>2010-06-13T07:24:56.65</time>
<name>4673</name>
</trkpt>
<trkpt lat="49.219503" lon="11.773017">
<ele>561.3</ele>
<speed>5.0</speed>
<course>96.7</course>
<desc>Speed 5.0 km/h Distance 20.56 km</desc>
<time>2010-06-13T07:24:57.65</time>
<name>4674</name>
</trkpt>
<trkpt lat="49.219502" lon="11.773038">
<ele>561.5</ele>
<speed>5.6</speed>
<course>22.1</course>
<desc>Speed 5.6 km/h Distance 20.56 km</desc>
<time>2010-06-13T07:24:58.65</time>
<name>4675</name>
</trkpt>
<trkpt lat="49.219515" lon="11.773047">
<ele>562.5</ele>
<speed>5.4</speed>
<course>28.3</course>
<desc>Speed 5.4 km/h Distance 20.56 km</desc>
<time>2010-06-13T07:24:59.65</time>
<name>4676</name>
</trkpt>
<trkpt lat="49.219525" lon="11.773055">
<ele>562.1</ele>
<speed>5.1</speed>
<course>65.3</course>
<desc>Speed 5.1 km/h Distance 20.57 km</desc>
<time>2010-06-13T07:25:00.65</time>
<name>4677</name>
</trkpt>
<trkpt lat="49.219530" lon="11.773072">
<ele>561.6</ele>
<speed>4.6</speed>
<course>74.4</course>
<desc>Speed 4.6 km/h Distance 20.57 km</desc>
<time>2010-06-13T07:25:01.65</time>
<name>4678</name>
</trkpt>
<trkpt lat="49.219533" lon="11.773090">
<ele>561.4</ele>
<speed>4.3</speed>
<course>0.0</course>
<desc>Speed 4.3 km/h Distance 20.57 km</desc>
<time>2010-06-13T07:25:02.65</time>
<name>4679</name>
</trkpt>
<trkpt lat="49.219540" lon="11.773090">
<ele>561.0</ele>
<speed>3.2</speed>
<course>71.3</course>
<desc>Speed 3.2 km/h Distance 20.57 km</desc>
<time>2010-06-13T07:25:03.65</time>
<name>4680</name>
</trkpt>
<trkpt lat="49.219543" lon="11.773105">
<ele>559.0</ele>
<speed>2.8</speed>
<course>107.0</course>
<desc>Speed 2.8 km/h Distance 20.57 km</desc>
<time>2010-06-13T07:25:04.65</time>
<name>4681</name>
</trkpt>
<trkpt lat="49.219540" lon="11.773122">
<ele>558.2</ele>
<speed>3.0</speed>
<course>90.0</course>
<desc>Speed 3.0 km/h Distance 20.57 km</desc>
<time>2010-06-13T07:25:05.65</time>
<name>4682</name>
</trkpt>
<trkpt lat="49.219540" lon="11.773137">
<ele>557.5</ele>
<speed>3.2</speed>
<course>0.0</course>
<desc>Speed 3.2 km/h Distance 20.57 km</desc>
<time>2010-06-13T07:25:06.65</time>
<name>4683</name>
</trkpt>
<trkpt lat="49.219560" lon="11.773137">
<ele>556.5</ele>
<speed>4.5</speed>
<course>29.4</course>
<desc>Speed 4.5 km/h Distance 20.58 km</desc>
<time>2010-06-13T07:25:07.65</time>
<name>4684</name>
</trkpt>
<trkpt lat="49.219572" lon="11.773147">
<ele>556.2</ele>
<speed>5.1</speed>
<course>9.8</course>
<desc>Speed 5.1 km/h Distance 20.58 km</desc>
<time>2010-06-13T07:25:08.65</time>
<name>4685</name>
</trkpt>
<trkpt lat="49.219597" lon="11.773153">
<ele>555.0</ele>
<speed>6.1</speed>
<course>52.6</course>
<desc>Speed 6.1 km/h Distance 20.58 km</desc>
<time>2010-06-13T07:25:09.65</time>
<name>4686</name>
</trkpt>
<trkpt lat="49.219610" lon="11.773180">
<ele>554.6</ele>
<speed>7.1</speed>
<course>77.1</course>
<desc>Speed 7.1 km/h Distance 20.58 km</desc>
<time>2010-06-13T07:25:10.65</time>
<name>4687</name>
</trkpt>
<trkpt lat="49.219615" lon="11.773213">
<ele>554.9</ele>
<speed>7.5</speed>
<course>56.2</course>
<desc>Speed 7.5 km/h Distance 20.58 km</desc>
<time>2010-06-13T07:25:11.65</time>
<name>4688</name>
</trkpt>
<trkpt lat="49.219627" lon="11.773240">
<ele>555.1</ele>
<speed>7.3</speed>
<course>81.3</course>
<desc>Speed 7.3 km/h Distance 20.59 km</desc>
<time>2010-06-13T07:25:12.65</time>
<name>4689</name>
</trkpt>
<trkpt lat="49.219630" lon="11.773273">
<ele>555.2</ele>
<speed>7.7</speed>
<course>25.5</course>
<desc>Speed 7.7 km/h Distance 20.59 km</desc>
<time>2010-06-13T07:25:13.65</time>
<name>4690</name>
</trkpt>
<trkpt lat="49.219648" lon="11.773287">
<ele>555.5</ele>
<speed>6.6</speed>
<course>57.8</course>
<desc>Speed 6.6 km/h Distance 20.59 km</desc>
<time>2010-06-13T07:25:14.65</time>
<name>4691</name>
</trkpt>
<trkpt lat="49.219660" lon="11.773315">
<ele>555.6</ele>
<speed>7.4</speed>
<course>67.8</course>
<desc>Speed 7.4 km/h Distance 20.59 km</desc>
<time>2010-06-13T07:25:15.65</time>
<name>4692</name>
</trkpt>
<trkpt lat="49.219667" lon="11.773340">
<ele>555.6</ele>
<speed>6.3</speed>
<course>8.8</course>
<desc>Speed 6.3 km/h Distance 20.60 km</desc>
<time>2010-06-13T07:25:16.65</time>
<name>4693</name>
</trkpt>
<trkpt lat="49.219695" lon="11.773347">
<ele>555.3</ele>
<speed>7.7</speed>
<course>10.0</course>
<desc>Speed 7.7 km/h Distance 20.60 km</desc>
<time>2010-06-13T07:25:17.65</time>
<name>4694</name>
</trkpt>
<trkpt lat="49.219720" lon="11.773353">
<ele>555.3</ele>
<speed>8.9</speed>
<course>67.6</course>
<desc>Speed 8.9 km/h Distance 20.60 km</desc>
<time>2010-06-13T07:25:18.65</time>
<name>4695</name>
</trkpt>
<trkpt lat="49.219732" lon="11.773397">
<ele>556.5</ele>
<speed>8.9</speed>
<course>105.8</course>
<desc>Speed 8.9 km/h Distance 20.61 km</desc>
<time>2010-06-13T07:25:19.65</time>
<name>4696</name>
</trkpt>
<trkpt lat="49.219723" lon="11.773442">
<ele>556.5</ele>
<speed>8.5</speed>
<course>46.4</course>
<desc>Speed 8.5 km/h Distance 20.61 km</desc>
<time>2010-06-13T07:25:20.65</time>
<name>4697</name>
</trkpt>
<trkpt lat="49.219732" lon="11.773455">
<ele>552.8</ele>
<speed>7.5</speed>
<course>86.8</course>
<desc>Speed 7.5 km/h Distance 20.61 km</desc>
<time>2010-06-13T07:25:21.65</time>
<name>4698</name>
</trkpt>
<trkpt lat="49.219733" lon="11.773500">
<ele>551.6</ele>
<speed>8.8</speed>
<course>98.4</course>
<desc>Speed 8.8 km/h Distance 20.61 km</desc>
<time>2010-06-13T07:25:22.65</time>
<name>4699</name>
</trkpt>
<trkpt lat="49.219728" lon="11.773552">
<ele>550.0</ele>
<speed>10.0</speed>
<course>87.8</course>
<desc>Speed 10.0 km/h Distance 20.62 km</desc>
<time>2010-06-13T07:25:23.65</time>
<name>4700</name>
</trkpt>
<trkpt lat="49.219730" lon="11.773617">
<ele>549.6</ele>
<speed>10.8</speed>
<course>99.4</course>
<desc>Speed 10.8 km/h Distance 20.62 km</desc>
<time>2010-06-13T07:25:24.65</time>
<name>4701</name>
</trkpt>
<trkpt lat="49.219723" lon="11.773678">
<ele>548.6</ele>
<speed>12.5</speed>
<course>79.8</course>
<desc>Speed 12.5 km/h Distance 20.63 km</desc>
<time>2010-06-13T07:25:25.65</time>
<name>4702</name>
</trkpt>
<trkpt lat="49.219730" lon="11.773735">
<ele>547.5</ele>
<speed>11.8</speed>
<course>61.3</course>
<desc>Speed 11.8 km/h Distance 20.63 km</desc>
<time>2010-06-13T07:25:26.65</time>
<name>4703</name>
</trkpt>
<trkpt lat="49.219747" lon="11.773782">
<ele>546.8</ele>
<speed>10.9</speed>
<course>64.6</course>
<desc>Speed 10.9 km/h Distance 20.63 km</desc>
<time>2010-06-13T07:25:27.65</time>
<name>4704</name>
</trkpt>
<trkpt lat="49.219762" lon="11.773830">
<ele>546.1</ele>
<speed>10.4</speed>
<course>86.9</course>
<desc>Speed 10.4 km/h Distance 20.64 km</desc>
<time>2010-06-13T07:25:28.65</time>
<name>4705</name>
</trkpt>
<trkpt lat="49.219763" lon="11.773877">
<ele>545.2</ele>
<speed>9.7</speed>
<course>80.7</course>
<desc>Speed 9.7 km/h Distance 20.64 km</desc>
<time>2010-06-13T07:25:29.65</time>
<name>4706</name>
</trkpt>
<trkpt lat="49.219768" lon="11.773923">
<ele>544.4</ele>
<speed>9.8</speed>
<course>63.9</course>
<desc>Speed 9.8 km/h Distance 20.65 km</desc>
<time>2010-06-13T07:25:30.65</time>
<name>4707</name>
</trkpt>
<trkpt lat="49.219782" lon="11.773965">
<ele>544.0</ele>
<speed>9.6</speed>
<course>72.3</course>
<desc>Speed 9.6 km/h Distance 20.65 km</desc>
<time>2010-06-13T07:25:31.65</time>
<name>4708</name>
</trkpt>
<trkpt lat="49.219790" lon="11.774005">
<ele>544.3</ele>
<speed>9.4</speed>
<course>65.0</course>
<desc>Speed 9.4 km/h Distance 20.65 km</desc>
<time>2010-06-13T07:25:32.65</time>
<name>4709</name>
</trkpt>
<trkpt lat="49.219802" lon="11.774043">
<ele>544.2</ele>
<speed>9.5</speed>
<course>54.1</course>
<desc>Speed 9.5 km/h Distance 20.65 km</desc>
<time>2010-06-13T07:25:33.65</time>
<name>4710</name>
</trkpt>
<trkpt lat="49.219817" lon="11.774075">
<ele>544.2</ele>
<speed>10.1</speed>
<course>43.2</course>
<desc>Speed 10.1 km/h Distance 20.66 km</desc>
<time>2010-06-13T07:25:34.65</time>
<name>4711</name>
</trkpt>
<trkpt lat="49.219843" lon="11.774113">
<ele>544.2</ele>
<speed>11.2</speed>
<course>37.5</course>
<desc>Speed 11.2 km/h Distance 20.66 km</desc>
<time>2010-06-13T07:25:35.65</time>
<name>4712</name>
</trkpt>
<trkpt lat="49.219872" lon="11.774147">
<ele>544.2</ele>
<speed>11.0</speed>
<course>38.1</course>
<desc>Speed 11.0 km/h Distance 20.67 km</desc>
<time>2010-06-13T07:25:36.65</time>
<name>4713</name>
</trkpt>
<trkpt lat="49.219897" lon="11.774177">
<ele>544.2</ele>
<speed>11.9</speed>
<course>29.4</course>
<desc>Speed 11.9 km/h Distance 20.67 km</desc>
<time>2010-06-13T07:25:37.65</time>
<name>4714</name>
</trkpt>
<trkpt lat="49.219933" lon="11.774208">
<ele>544.2</ele>
<speed>12.6</speed>
<course>35.9</course>
<desc>Speed 12.6 km/h Distance 20.67 km</desc>
<time>2010-06-13T07:25:38.65</time>
<name>4715</name>
</trkpt>
<trkpt lat="49.219963" lon="11.774242">
<ele>544.2</ele>
<speed>11.9</speed>
<course>11.3</course>
<desc>Speed 11.9 km/h Distance 20.68 km</desc>
<time>2010-06-13T07:25:39.65</time>
<name>4716</name>
</trkpt>
<trkpt lat="49.220007" lon="11.774255">
<ele>540.7</ele>
<speed>10.5</speed>
<course>114.1</course>
<desc>Speed 10.5 km/h Distance 20.68 km</desc>
<time>2010-06-13T07:25:40.65</time>
<name>4717</name>
</trkpt>
<trkpt lat="49.219995" lon="11.774295">
<ele>546.7</ele>
<speed>10.3</speed>
<course>45.2</course>
<desc>Speed 10.3 km/h Distance 20.69 km</desc>
<time>2010-06-13T07:25:41.65</time>
<name>4718</name>
</trkpt>
<trkpt lat="49.220013" lon="11.774323">
<ele>546.7</ele>
<speed>11.2</speed>
<course>83.5</course>
<desc>Speed 11.2 km/h Distance 20.69 km</desc>
<time>2010-06-13T07:25:42.65</time>
<name>4719</name>
</trkpt>
<trkpt lat="49.220017" lon="11.774368">
<ele>549.0</ele>
<speed>10.9</speed>
<course>74.2</course>
<desc>Speed 10.9 km/h Distance 20.69 km</desc>
<time>2010-06-13T07:25:43.65</time>
<name>4720</name>
</trkpt>
<trkpt lat="49.220025" lon="11.774413">
<ele>551.0</ele>
<speed>9.9</speed>
<course>102.8</course>
<desc>Speed 9.9 km/h Distance 20.70 km</desc>
<time>2010-06-13T07:25:44.65</time>
<name>4721</name>
</trkpt>
<trkpt lat="49.220018" lon="11.774458">
<ele>552.5</ele>
<speed>9.4</speed>
<course>98.7</course>
<desc>Speed 9.4 km/h Distance 20.70 km</desc>
<time>2010-06-13T07:25:45.65</time>
<name>4722</name>
</trkpt>
<trkpt lat="49.220013" lon="11.774508">
<ele>553.7</ele>
<speed>10.9</speed>
<course>90.0</course>
<desc>Speed 10.9 km/h Distance 20.70 km</desc>
<time>2010-06-13T07:25:46.65</time>
<name>4723</name>
</trkpt>
<trkpt lat="49.220013" lon="11.774558">
<ele>554.5</ele>
<speed>10.7</speed>
<course>61.3</course>
<desc>Speed 10.7 km/h Distance 20.71 km</desc>
<time>2010-06-13T07:25:47.65</time>
<name>4724</name>
</trkpt>
<trkpt lat="49.220030" lon="11.774605">
<ele>555.7</ele>
<speed>10.6</speed>
<course>62.1</course>
<desc>Speed 10.6 km/h Distance 20.71 km</desc>
<time>2010-06-13T07:25:48.65</time>
<name>4725</name>
</trkpt>
<trkpt lat="49.220045" lon="11.774648">
<ele>556.7</ele>
<speed>10.2</speed>
<course>86.8</course>
<desc>Speed 10.2 km/h Distance 20.71 km</desc>
<time>2010-06-13T07:25:49.65</time>
<name>4726</name>
</trkpt>
<trkpt lat="49.220047" lon="11.774693">
<ele>557.2</ele>
<speed>10.0</speed>
<course>71.2</course>
<desc>Speed 10.0 km/h Distance 20.72 km</desc>
<time>2010-06-13T07:25:50.65</time>
<name>4727</name>
</trkpt>
<trkpt lat="49.220057" lon="11.774738">
<ele>558.0</ele>
<speed>11.2</speed>
<course>72.4</course>
<desc>Speed 11.2 km/h Distance 20.72 km</desc>
<time>2010-06-13T07:25:51.65</time>
<name>4728</name>
</trkpt>
<trkpt lat="49.220067" lon="11.774787">
<ele>558.8</ele>
<speed>10.9</speed>
<course>80.7</course>
<desc>Speed 10.9 km/h Distance 20.72 km</desc>
<time>2010-06-13T07:25:52.65</time>
<name>4729</name>
</trkpt>
<trkpt lat="49.220072" lon="11.774833">
<ele>559.1</ele>
<speed>10.9</speed>
<course>61.3</course>
<desc>Speed 10.9 km/h Distance 20.73 km</desc>
<time>2010-06-13T07:25:53.65</time>
<name>4730</name>
</trkpt>
<trkpt lat="49.220088" lon="11.774880">
<ele>560.1</ele>
<speed>11.1</speed>
<course>70.3</course>
<desc>Speed 11.1 km/h Distance 20.73 km</desc>
<time>2010-06-13T07:25:54.65</time>
<name>4731</name>
</trkpt>
<trkpt lat="49.220100" lon="11.774930">
<ele>560.9</ele>
<speed>11.8</speed>
<course>73.5</course>
<desc>Speed 11.8 km/h Distance 20.74 km</desc>
<time>2010-06-13T07:25:55.65</time>
<name>4732</name>
</trkpt>
<trkpt lat="49.220110" lon="11.774982">
<ele>561.7</ele>
<speed>11.8</speed>
<course>76.1</course>
<desc>Speed 11.8 km/h Distance 20.74 km</desc>
<time>2010-06-13T07:25:56.65</time>
<name>4733</name>
</trkpt>
<trkpt lat="49.220118" lon="11.775033">
<ele>562.4</ele>
<speed>11.8</speed>
<course>72.4</course>
<desc>Speed 11.8 km/h Distance 20.74 km</desc>
<time>2010-06-13T07:25:57.65</time>
<name>4734</name>
</trkpt>
<trkpt lat="49.220128" lon="11.775082">
<ele>562.9</ele>
<speed>11.6</speed>
<course>72.4</course>
<desc>Speed 11.6 km/h Distance 20.75 km</desc>
<time>2010-06-13T07:25:58.65</time>
<name>4735</name>
</trkpt>
<trkpt lat="49.220138" lon="11.775130">
<ele>563.4</ele>
<speed>11.3</speed>
<course>81.0</course>
<desc>Speed 11.3 km/h Distance 20.75 km</desc>
<time>2010-06-13T07:25:59.65</time>
<name>4736</name>
</trkpt>
<trkpt lat="49.220143" lon="11.775178">
<ele>563.7</ele>
<speed>12.0</speed>
<course>70.3</course>
<desc>Speed 12.0 km/h Distance 20.75 km</desc>
<time>2010-06-13T07:26:00.65</time>
<name>4737</name>
</trkpt>
<trkpt lat="49.220155" lon="11.775228">
<ele>564.1</ele>
<speed>11.2</speed>
<course>61.3</course>
<desc>Speed 11.2 km/h Distance 20.76 km</desc>
<time>2010-06-13T07:26:01.65</time>
<name>4738</name>
</trkpt>
<trkpt lat="49.220172" lon="11.775275">
<ele>564.9</ele>
<speed>11.7</speed>
<course>80.3</course>
<desc>Speed 11.7 km/h Distance 20.76 km</desc>
<time>2010-06-13T07:26:02.65</time>
<name>4739</name>
</trkpt>
<trkpt lat="49.220177" lon="11.775320">
<ele>564.9</ele>
<speed>10.9</speed>
<course>30.0</course>
<desc>Speed 10.9 km/h Distance 20.77 km</desc>
<time>2010-06-13T07:26:03.65</time>
<name>4740</name>
</trkpt>
<trkpt lat="49.220235" lon="11.775372">
<ele>568.2</ele>
<speed>9.5</speed>
<course>108.5</course>
<desc>Speed 9.5 km/h Distance 20.77 km</desc>
<time>2010-06-13T07:26:05.65</time>
<name>4741</name>
</trkpt>
<trkpt lat="49.220223" lon="11.775425">
<ele>567.7</ele>
<speed>8.9</speed>
<course>90.0</course>
<desc>Speed 8.9 km/h Distance 20.78 km</desc>
<time>2010-06-13T07:26:06.65</time>
<name>4742</name>
</trkpt>
<trkpt lat="49.220223" lon="11.775550">
<ele>571.0</ele>
<speed>8.9</speed>
<course>93.2</course>
<desc>Speed 8.9 km/h Distance 20.79 km</desc>
<time>2010-06-13T07:26:08.65</time>
<name>4743</name>
</trkpt>
<trkpt lat="49.220222" lon="11.775595">
<ele>571.9</ele>
<speed>7.7</speed>
<course>90.0</course>
<desc>Speed 7.7 km/h Distance 20.79 km</desc>
<time>2010-06-13T07:26:09.65</time>
<name>4744</name>
</trkpt>
<trkpt lat="49.220222" lon="11.775647">
<ele>573.2</ele>
<speed>7.5</speed>
<course>79.2</course>
<desc>Speed 7.5 km/h Distance 20.79 km</desc>
<time>2010-06-13T07:26:10.65</time>
<name>4745</name>
</trkpt>
<trkpt lat="49.220225" lon="11.775673">
<ele>571.9</ele>
<speed>7.6</speed>
<course>86.2</course>
<desc>Speed 7.6 km/h Distance 20.79 km</desc>
<time>2010-06-13T07:26:11.65</time>
<name>4746</name>
</trkpt>
<trkpt lat="49.220227" lon="11.775712">
<ele>571.6</ele>
<speed>7.9</speed>
<course>100.2</course>
<desc>Speed 7.9 km/h Distance 20.80 km</desc>
<time>2010-06-13T07:26:12.65</time>
<name>4747</name>
</trkpt>
<trkpt lat="49.220223" lon="11.775740">
<ele>569.6</ele>
<speed>8.8</speed>
<course>100.0</course>
<desc>Speed 8.8 km/h Distance 20.80 km</desc>
<time>2010-06-13T07:26:13.65</time>
<name>4748</name>
</trkpt>
<trkpt lat="49.220218" lon="11.775783">
<ele>568.4</ele>
<speed>9.5</speed>
<course>90.0</course>
<desc>Speed 9.5 km/h Distance 20.80 km</desc>
<time>2010-06-13T07:26:14.65</time>
<name>4749</name>
</trkpt>
<trkpt lat="49.220218" lon="11.775812">
<ele>566.5</ele>
<speed>8.6</speed>
<course>94.2</course>
<desc>Speed 8.6 km/h Distance 20.80 km</desc>
<time>2010-06-13T07:26:15.65</time>
<name>4750</name>
</trkpt>
<trkpt lat="49.220217" lon="11.775847">
<ele>566.2</ele>
<speed>7.1</speed>
<course>27.7</course>
<desc>Speed 7.1 km/h Distance 20.81 km</desc>
<time>2010-06-13T07:26:16.65</time>
<name>4751</name>
</trkpt>
<trkpt lat="49.220233" lon="11.775860">
<ele>566.4</ele>
<speed>4.5</speed>
<course>64.8</course>
<desc>Speed 4.5 km/h Distance 20.81 km</desc>
<time>2010-06-13T07:26:17.65</time>
<name>4752</name>
</trkpt>
<trkpt lat="49.220240" lon="11.775882">
<ele>566.7</ele>
<speed>2.4</speed>
<course>124.2</course>
<desc>Speed 2.4 km/h Distance 20.81 km</desc>
<time>2010-06-13T07:26:18.65</time>
<name>4753</name>
</trkpt>
<trkpt lat="49.220227" lon="11.775912">
<ele>566.9</ele>
<speed>2.3</speed>
<course>125.6</course>
<desc>Speed 2.3 km/h Distance 20.81 km</desc>
<time>2010-06-13T07:26:19.65</time>
<name>4754</name>
</trkpt>
<trkpt lat="49.220215" lon="11.775937">
<ele>567.2</ele>
<speed>3.9</speed>
<course>135.6</course>
<desc>Speed 3.9 km/h Distance 20.82 km</desc>
<time>2010-06-13T07:26:20.65</time>
<name>4755</name>
</trkpt>
<trkpt lat="49.220198" lon="11.775962">
<ele>566.9</ele>
<speed>5.0</speed>
<course>146.8</course>
<desc>Speed 5.0 km/h Distance 20.82 km</desc>
<time>2010-06-13T07:26:21.65</time>
<name>4756</name>
</trkpt>
<trkpt lat="49.220122" lon="11.776038">
<ele>571.3</ele>
<speed>5.7</speed>
<course>144.5</course>
<desc>Speed 5.7 km/h Distance 20.83 km</desc>
<time>2010-06-13T07:26:23.65</time>
<name>4757</name>
</trkpt>
<trkpt lat="49.220103" lon="11.776058">
<ele>571.1</ele>
<speed>5.4</speed>
<course>110.9</course>
<desc>Speed 5.4 km/h Distance 20.83 km</desc>
<time>2010-06-13T07:26:24.65</time>
<name>4758</name>
</trkpt>
<trkpt lat="49.220097" lon="11.776085">
<ele>572.0</ele>
<speed>3.5</speed>
<course>150.7</course>
<desc>Speed 3.5 km/h Distance 20.83 km</desc>
<time>2010-06-13T07:26:25.65</time>
<name>4759</name>
</trkpt>
<trkpt lat="49.220037" lon="11.776137">
<ele>573.6</ele>
<speed>5.4</speed>
<course>143.0</course>
<desc>Speed 5.4 km/h Distance 20.84 km</desc>
<time>2010-06-13T07:26:27.65</time>
<name>4760</name>
</trkpt>
<trkpt lat="49.219993" lon="11.776187">
<ele>580.3</ele>
<speed>4.6</speed>
<course>140.8</course>
<desc>Speed 4.6 km/h Distance 20.85 km</desc>
<time>2010-06-13T07:26:29.65</time>
<name>4761</name>
</trkpt>
<trkpt lat="49.219980" lon="11.776203">
<ele>584.4</ele>
<speed>3.8</speed>
<course>129.5</course>
<desc>Speed 3.8 km/h Distance 20.85 km</desc>
<time>2010-06-13T07:26:30.65</time>
<name>4762</name>
</trkpt>
<trkpt lat="49.219968" lon="11.776225">
<ele>587.0</ele>
<speed>3.3</speed>
<course>140.6</course>
<desc>Speed 3.3 km/h Distance 20.85 km</desc>
<time>2010-06-13T07:26:31.65</time>
<name>4763</name>
</trkpt>
<trkpt lat="49.219962" lon="11.776233">
<ele>588.9</ele>
<speed>4.4</speed>
<course>118.7</course>
<desc>Speed 4.4 km/h Distance 20.85 km</desc>
<time>2010-06-13T07:26:32.65</time>
<name>4764</name>
</trkpt>
<trkpt lat="49.219953" lon="11.776257">
<ele>589.8</ele>
<speed>5.9</speed>
<course>127.4</course>
<desc>Speed 5.9 km/h Distance 20.85 km</desc>
<time>2010-06-13T07:26:33.65</time>
<name>4765</name>
</trkpt>
<trkpt lat="49.219935" lon="11.776293">
<ele>590.7</ele>
<speed>6.6</speed>
<course>119.9</course>
<desc>Speed 6.6 km/h Distance 20.86 km</desc>
<time>2010-06-13T07:26:34.65</time>
<name>4766</name>
</trkpt>
<trkpt lat="49.219920" lon="11.776333">
<ele>591.7</ele>
<speed>7.7</speed>
<course>83.5</course>
<desc>Speed 7.7 km/h Distance 20.86 km</desc>
<time>2010-06-13T07:26:35.65</time>
<name>4767</name>
</trkpt>
<trkpt lat="49.219927" lon="11.776423">
<ele>588.4</ele>
<speed>6.4</speed>
<course>99.6</course>
<desc>Speed 6.4 km/h Distance 20.87 km</desc>
<time>2010-06-13T07:26:37.65</time>
<name>4768</name>
</trkpt>
<trkpt lat="49.219925" lon="11.776438">
<ele>589.6</ele>
<speed>4.2</speed>
<course>136.7</course>
<desc>Speed 4.2 km/h Distance 20.87 km</desc>
<time>2010-06-13T07:26:38.65</time>
<name>4769</name>
</trkpt>
<trkpt lat="49.219910" lon="11.776460">
<ele>591.3</ele>
<speed>2.8</speed>
<course>108.9</course>
<desc>Speed 2.8 km/h Distance 20.87 km</desc>
<time>2010-06-13T07:26:39.65</time>
<name>4770</name>
</trkpt>
<trkpt lat="49.219907" lon="11.776475">
<ele>593.0</ele>
<speed>2.7</speed>
<course>117.2</course>
<desc>Speed 2.7 km/h Distance 20.87 km</desc>
<time>2010-06-13T07:26:40.65</time>
<name>4771</name>
</trkpt>
<trkpt lat="49.219903" lon="11.776485">
<ele>592.7</ele>
<speed>3.7</speed>
<course>90.0</course>
<desc>Speed 3.7 km/h Distance 20.87 km</desc>
<time>2010-06-13T07:26:41.65</time>
<name>4772</name>
</trkpt>
<trkpt lat="49.219903" lon="11.776510">
<ele>592.6</ele>
<speed>5.8</speed>
<course>125.2</course>
<desc>Speed 5.8 km/h Distance 20.87 km</desc>
<time>2010-06-13T07:26:42.65</time>
<name>4773</name>
</trkpt>
<trkpt lat="49.219863" lon="11.776597">
<ele>594.0</ele>
<speed>6.3</speed>
<course>117.0</course>
<desc>Speed 6.3 km/h Distance 20.88 km</desc>
<time>2010-06-13T07:26:44.65</time>
<name>4774</name>
</trkpt>
<trkpt lat="49.219848" lon="11.776642">
<ele>594.2</ele>
<speed>6.6</speed>
<course>114.7</course>
<desc>Speed 6.6 km/h Distance 20.89 km</desc>
<time>2010-06-13T07:26:45.65</time>
<name>4775</name>
</trkpt>
<trkpt lat="49.219838" lon="11.776675">
<ele>594.0</ele>
<speed>6.8</speed>
<course>102.3</course>
<desc>Speed 6.8 km/h Distance 20.89 km</desc>
<time>2010-06-13T07:26:46.65</time>
<name>4776</name>
</trkpt>
<trkpt lat="49.219833" lon="11.776710">
<ele>593.7</ele>
<speed>4.9</speed>
<course>105.6</course>
<desc>Speed 4.9 km/h Distance 20.89 km</desc>
<time>2010-06-13T07:26:47.65</time>
<name>4777</name>
</trkpt>
<trkpt lat="49.219817" lon="11.776802">
<ele>593.1</ele>
<speed>4.5</speed>
<course>117.0</course>
<desc>Speed 4.5 km/h Distance 20.90 km</desc>
<time>2010-06-13T07:26:49.65</time>
<name>4778</name>
</trkpt>
<trkpt lat="49.219810" lon="11.776822">
<ele>594.5</ele>
<speed>3.7</speed>
<course>119.4</course>
<desc>Speed 3.7 km/h Distance 20.90 km</desc>
<time>2010-06-13T07:26:50.65</time>
<name>4779</name>
</trkpt>
<trkpt lat="49.219787" lon="11.776885">
<ele>597.6</ele>
<speed>4.1</speed>
<course>127.4</course>
<desc>Speed 4.1 km/h Distance 20.91 km</desc>
<time>2010-06-13T07:26:52.65</time>
<name>4780</name>
</trkpt>
<trkpt lat="49.219778" lon="11.776902">
<ele>598.9</ele>
<speed>4.4</speed>
<course>114.7</course>
<desc>Speed 4.4 km/h Distance 20.91 km</desc>
<time>2010-06-13T07:26:53.65</time>
<name>4781</name>
</trkpt>
<trkpt lat="49.219753" lon="11.776985">
<ele>601.3</ele>
<speed>5.7</speed>
<course>121.5</course>
<desc>Speed 5.7 km/h Distance 20.91 km</desc>
<time>2010-06-13T07:26:55.65</time>
<name>4782</name>
</trkpt>
<trkpt lat="49.219743" lon="11.777010">
<ele>601.7</ele>
<speed>5.3</speed>
<course>153.0</course>
<desc>Speed 5.3 km/h Distance 20.92 km</desc>
<time>2010-06-13T07:26:56.65</time>
<name>4783</name>
</trkpt>
<trkpt lat="49.219735" lon="11.777017">
<ele>604.3</ele>
<speed>4.1</speed>
<course>127.4</course>
<desc>Speed 4.1 km/h Distance 20.92 km</desc>
<time>2010-06-13T07:26:57.65</time>
<name>4784</name>
</trkpt>
<trkpt lat="49.219700" lon="11.777087">
<ele>602.9</ele>
<speed>4.1</speed>
<course>123.3</course>
<desc>Speed 4.1 km/h Distance 20.92 km</desc>
<time>2010-06-13T07:26:59.65</time>
<name>4785</name>
</trkpt>
<trkpt lat="49.219690" lon="11.777110">
<ele>604.8</ele>
<speed>4.9</speed>
<course>104.4</course>
<desc>Speed 4.9 km/h Distance 20.92 km</desc>
<time>2010-06-13T07:27:00.65</time>
<name>4786</name>
</trkpt>
<trkpt lat="49.219688" lon="11.777120">
<ele>606.2</ele>
<speed>4.1</speed>
<course>80.4</course>
<desc>Speed 4.1 km/h Distance 20.93 km</desc>
<time>2010-06-13T07:27:01.65</time>
<name>4787</name>
</trkpt>
<trkpt lat="49.219690" lon="11.777135">
<ele>605.2</ele>
<speed>4.6</speed>
<course>63.1</course>
<desc>Speed 4.6 km/h Distance 20.93 km</desc>
<time>2010-06-13T07:27:02.65</time>
<name>4788</name>
</trkpt>
<trkpt lat="49.219695" lon="11.777150">
<ele>605.2</ele>
<speed>4.4</speed>
<course>55.9</course>
<desc>Speed 4.4 km/h Distance 20.93 km</desc>
<time>2010-06-13T07:27:03.65</time>
<name>4789</name>
</trkpt>
<trkpt lat="49.219702" lon="11.777165">
<ele>604.6</ele>
<speed>2.8</speed>
<course>52.4</course>
<desc>Speed 2.8 km/h Distance 20.93 km</desc>
<time>2010-06-13T07:27:04.65</time>
<name>4790</name>
</trkpt>
<trkpt lat="49.219707" lon="11.777175">
<ele>603.2</ele>
<speed>2.0</speed>
<course>40.9</course>
<desc>Speed 2.0 km/h Distance 20.93 km</desc>
<time>2010-06-13T07:27:05.65</time>
<name>4791</name>
</trkpt>
<trkpt lat="49.219712" lon="11.777182">
<ele>602.0</ele>
<speed>1.4</speed>
<course>37.9</course>
<desc>Speed 1.4 km/h Distance 20.93 km</desc>
<time>2010-06-13T07:27:06.65</time>
<name>4792</name>
</trkpt>
<trkpt lat="49.219720" lon="11.777192">
<ele>601.8</ele>
<speed>2.2</speed>
<course>72.9</course>
<desc>Speed 2.2 km/h Distance 20.93 km</desc>
<time>2010-06-13T07:27:07.65</time>
<name>4793</name>
</trkpt>
<trkpt lat="49.219722" lon="11.777200">
<ele>599.8</ele>
<speed>1.5</speed>
<course>60.1</course>
<desc>Speed 1.5 km/h Distance 20.93 km</desc>
<time>2010-06-13T07:27:08.65</time>
<name>4794</name>
</trkpt>
<trkpt lat="49.219727" lon="11.777213">
<ele>599.3</ele>
<speed>2.6</speed>
<course>83.3</course>
<desc>Speed 2.6 km/h Distance 20.93 km</desc>
<time>2010-06-13T07:27:09.65</time>
<name>4795</name>
</trkpt>
<trkpt lat="49.219732" lon="11.777278">
<ele>599.9</ele>
<speed>3.3</speed>
<course>116.6</course>
<desc>Speed 3.3 km/h Distance 20.94 km</desc>
<time>2010-06-13T07:27:11.65</time>
<name>4796</name>
</trkpt>
<trkpt lat="49.219730" lon="11.777283">
<ele>598.9</ele>
<speed>2.1</speed>
<course>126.8</course>
<desc>Speed 2.1 km/h Distance 20.94 km</desc>
<time>2010-06-13T07:27:12.65</time>
<name>4797</name>
</trkpt>
<trkpt lat="49.219693" lon="11.777358">
<ele>599.9</ele>
<speed>3.8</speed>
<course>127.4</course>
<desc>Speed 3.8 km/h Distance 20.95 km</desc>
<time>2010-06-13T07:27:14.65</time>
<name>4798</name>
</trkpt>
<trkpt lat="49.219680" lon="11.777385">
<ele>598.9</ele>
<speed>4.2</speed>
<course>90.0</course>
<desc>Speed 4.2 km/h Distance 20.95 km</desc>
<time>2010-06-13T07:27:15.65</time>
<name>4799</name>
</trkpt>
<trkpt lat="49.219680" lon="11.777407">
<ele>598.2</ele>
<speed>4.0</speed>
<course>103.3</course>
<desc>Speed 4.0 km/h Distance 20.95 km</desc>
<time>2010-06-13T07:27:16.65</time>
<name>4800</name>
</trkpt>
<trkpt lat="49.219677" lon="11.777428">
<ele>597.3</ele>
<speed>4.2</speed>
<course>125.2</course>
<desc>Speed 4.2 km/h Distance 20.95 km</desc>
<time>2010-06-13T07:27:17.65</time>
<name>4801</name>
</trkpt>
<trkpt lat="49.219667" lon="11.777450">
<ele>596.4</ele>
<speed>3.5</speed>
<course>108.8</course>
<desc>Speed 3.5 km/h Distance 20.95 km</desc>
<time>2010-06-13T07:27:18.65</time>
<name>4802</name>
</trkpt>
<trkpt lat="49.219663" lon="11.777465">
<ele>595.7</ele>
<speed>2.8</speed>
<course>129.3</course>
<desc>Speed 2.8 km/h Distance 20.95 km</desc>
<time>2010-06-13T07:27:19.65</time>
<name>4803</name>
</trkpt>
<trkpt lat="49.219650" lon="11.777490">
<ele>595.3</ele>
<speed>3.1</speed>
<course>157.0</course>
<desc>Speed 3.1 km/h Distance 20.96 km</desc>
<time>2010-06-13T07:27:20.65</time>
<name>4804</name>
</trkpt>
<trkpt lat="49.219647" lon="11.777492">
<ele>595.1</ele>
<speed>3.0</speed>
<course>116.9</course>
<desc>Speed 3.0 km/h Distance 20.96 km</desc>
<time>2010-06-13T07:27:21.65</time>
<name>4805</name>
</trkpt>
<trkpt lat="49.219642" lon="11.777507">
<ele>594.0</ele>
<speed>3.5</speed>
<course>63.1</course>
<desc>Speed 3.5 km/h Distance 20.96 km</desc>
<time>2010-06-13T07:27:22.65</time>
<name>4806</name>
</trkpt>
<trkpt lat="49.219647" lon="11.777522">
<ele>592.7</ele>
<speed>3.7</speed>
<course>102.9</course>
<desc>Speed 3.7 km/h Distance 20.96 km</desc>
<time>2010-06-13T07:27:23.65</time>
<name>4807</name>
</trkpt>
<trkpt lat="49.219642" lon="11.777555">
<ele>592.8</ele>
<speed>4.4</speed>
<course>138.9</course>
<desc>Speed 4.4 km/h Distance 20.96 km</desc>
<time>2010-06-13T07:27:24.65</time>
<name>4808</name>
</trkpt>
<trkpt lat="49.219627" lon="11.777575">
<ele>592.1</ele>
<speed>5.0</speed>
<course>136.6</course>
<desc>Speed 5.0 km/h Distance 20.96 km</desc>
<time>2010-06-13T07:27:25.65</time>
<name>4809</name>
</trkpt>
<trkpt lat="49.219612" lon="11.777597">
<ele>590.3</ele>
<speed>4.2</speed>
<course>114.2</course>
<desc>Speed 4.2 km/h Distance 20.97 km</desc>
<time>2010-06-13T07:27:26.65</time>
<name>4810</name>
</trkpt>
<trkpt lat="49.219603" lon="11.777625">
<ele>588.2</ele>
<speed>3.5</speed>
<course>117.0</course>
<desc>Speed 3.5 km/h Distance 20.97 km</desc>
<time>2010-06-13T07:27:27.65</time>
<name>4811</name>
</trkpt>
<trkpt lat="49.219597" lon="11.777645">
<ele>586.4</ele>
<speed>2.1</speed>
<course>95.1</course>
<desc>Speed 2.1 km/h Distance 20.97 km</desc>
<time>2010-06-13T07:27:28.65</time>
<name>4812</name>
</trkpt>
<trkpt lat="49.219595" lon="11.777673">
<ele>586.1</ele>
<speed>2.2</speed>
<course>100.2</course>
<desc>Speed 2.2 km/h Distance 20.97 km</desc>
<time>2010-06-13T07:27:29.65</time>
<name>4813</name>
</trkpt>
<trkpt lat="49.219592" lon="11.777702">
<ele>587.1</ele>
<speed>2.6</speed>
<course>96.7</course>
<desc>Speed 2.6 km/h Distance 20.97 km</desc>
<time>2010-06-13T07:27:30.65</time>
<name>4814</name>
</trkpt>
<trkpt lat="49.219590" lon="11.777723">
<ele>586.9</ele>
<speed>2.1</speed>
<course>114.6</course>
<desc>Speed 2.1 km/h Distance 20.98 km</desc>
<time>2010-06-13T07:27:31.65</time>
<name>4815</name>
</trkpt>
<trkpt lat="49.219585" lon="11.777740">
<ele>587.7</ele>
<speed>1.3</speed>
<course>117.0</course>
<desc>Speed 1.3 km/h Distance 20.98 km</desc>
<time>2010-06-13T07:27:32.65</time>
<name>4816</name>
</trkpt>
<trkpt lat="49.219580" lon="11.777755">
<ele>590.0</ele>
<speed>1.2</speed>
<course>161.9</course>
<desc>Speed 1.2 km/h Distance 20.98 km</desc>
<time>2010-06-13T07:27:33.65</time>
<name>4817</name>
</trkpt>
<trkpt lat="49.219567" lon="11.777762">
<ele>592.0</ele>
<speed>2.1</speed>
<course>112.8</course>
<desc>Speed 2.1 km/h Distance 20.98 km</desc>
<time>2010-06-13T07:27:34.65</time>
<name>4818</name>
</trkpt>
<trkpt lat="49.219543" lon="11.777847">
<ele>593.1</ele>
<speed>4.8</speed>
<course>110.2</course>
<desc>Speed 4.8 km/h Distance 20.99 km</desc>
<time>2010-06-13T07:27:36.65</time>
<name>4819</name>
</trkpt>
<trkpt lat="49.219533" lon="11.777888">
<ele>591.9</ele>
<speed>5.3</speed>
<course>124.5</course>
<desc>Speed 5.3 km/h Distance 20.99 km</desc>
<time>2010-06-13T07:27:37.65</time>
<name>4820</name>
</trkpt>
<trkpt lat="49.219497" lon="11.777970">
<ele>589.8</ele>
<speed>6.4</speed>
<course>120.2</course>
<desc>Speed 6.4 km/h Distance 21.00 km</desc>
<time>2010-06-13T07:27:39.65</time>
<name>4821</name>
</trkpt>
<trkpt lat="49.219483" lon="11.778005">
<ele>589.1</ele>
<speed>5.7</speed>
<course>95.8</course>
<desc>Speed 5.7 km/h Distance 21.00 km</desc>
<time>2010-06-13T07:27:40.65</time>
<name>4822</name>
</trkpt>
<trkpt lat="49.219482" lon="11.778030">
<ele>588.4</ele>
<speed>4.2</speed>
<course>104.3</course>
<desc>Speed 4.2 km/h Distance 21.00 km</desc>
<time>2010-06-13T07:27:41.65</time>
<name>4823</name>
</trkpt>
<trkpt lat="49.219477" lon="11.778060">
<ele>586.7</ele>
<speed>3.2</speed>
<course>107.0</course>
<desc>Speed 3.2 km/h Distance 21.00 km</desc>
<time>2010-06-13T07:27:42.65</time>
<name>4824</name>
</trkpt>
<trkpt lat="49.219470" lon="11.778093">
<ele>587.9</ele>
<speed>4.0</speed>
<course>115.7</course>
<desc>Speed 4.0 km/h Distance 21.01 km</desc>
<time>2010-06-13T07:27:43.65</time>
<name>4825</name>
</trkpt>
<trkpt lat="49.219442" lon="11.778183">
<ele>593.4</ele>
<speed>5.4</speed>
<course>117.0</course>
<desc>Speed 5.4 km/h Distance 21.01 km</desc>
<time>2010-06-13T07:27:45.65</time>
<name>4826</name>
</trkpt>
<trkpt lat="49.219432" lon="11.778213">
<ele>595.9</ele>
<speed>6.5</speed>
<course>119.1</course>
<desc>Speed 6.5 km/h Distance 21.02 km</desc>
<time>2010-06-13T07:27:46.65</time>
<name>4827</name>
</trkpt>
<trkpt lat="49.219425" lon="11.778232">
<ele>596.8</ele>
<speed>6.6</speed>
<course>128.7</course>
<desc>Speed 6.6 km/h Distance 21.02 km</desc>
<time>2010-06-13T07:27:47.65</time>
<name>4828</name>
</trkpt>
<trkpt lat="49.219407" lon="11.778267">
<ele>598.8</ele>
<speed>5.0</speed>
<course>82.1</course>
<desc>Speed 5.0 km/h Distance 21.02 km</desc>
<time>2010-06-13T07:27:48.65</time>
<name>4829</name>
</trkpt>
<trkpt lat="49.219408" lon="11.778285">
<ele>600.9</ele>
<speed>3.3</speed>
<course>97.9</course>
<desc>Speed 3.3 km/h Distance 21.02 km</desc>
<time>2010-06-13T07:27:49.65</time>
<name>4830</name>
</trkpt>
<trkpt lat="49.219407" lon="11.778303">
<ele>602.3</ele>
<speed>1.4</speed>
<course>76.7</course>
<desc>Speed 1.4 km/h Distance 21.02 km</desc>
<time>2010-06-13T07:27:50.65</time>
<name>4831</name>
</trkpt>
<trkpt lat="49.219413" lon="11.778347">
<ele>604.3</ele>
<speed>1.8</speed>
<course>16.0</course>
<desc>Speed 1.8 km/h Distance 21.03 km</desc>
<time>2010-06-13T07:27:52.65</time>
<name>4832</name>
</trkpt>
<trkpt lat="49.219420" lon="11.778350">
<ele>605.9</ele>
<speed>2.2</speed>
<course>112.8</course>
<desc>Speed 2.2 km/h Distance 21.03 km</desc>
<time>2010-06-13T07:27:53.65</time>
<name>4833</name>
</trkpt>
<trkpt lat="49.219397" lon="11.778435">
<ele>607.4</ele>
<speed>3.2</speed>
<course>109.5</course>
<desc>Speed 3.2 km/h Distance 21.04 km</desc>
<time>2010-06-13T07:27:55.65</time>
<name>4834</name>
</trkpt>
<trkpt lat="49.219392" lon="11.778457">
<ele>607.4</ele>
<speed>2.3</speed>
<course>338.5</course>
<desc>Speed 2.3 km/h Distance 21.04 km</desc>
<time>2010-06-13T07:27:56.65</time>
<name>4835</name>
</trkpt>
<trkpt lat="49.219400" lon="11.778452">
<ele>606.4</ele>
<speed>0.4</speed>
<course>125.2</course>
<desc>Speed 0.4 km/h Distance 21.04 km</desc>
<time>2010-06-13T07:27:57.65</time>
<name>4836</name>
</trkpt>
<trkpt lat="49.219390" lon="11.778473">
<ele>607.3</ele>
<speed>1.2</speed>
<course>119.5</course>
<desc>Speed 1.2 km/h Distance 21.04 km</desc>
<time>2010-06-13T07:27:58.65</time>
<name>4837</name>
</trkpt>
<trkpt lat="49.219362" lon="11.778550">
<ele>607.2</ele>
<speed>4.0</speed>
<course>77.7</course>
<desc>Speed 4.0 km/h Distance 21.05 km</desc>
<time>2010-06-13T07:28:00.65</time>
<name>4838</name>
</trkpt>
<trkpt lat="49.219365" lon="11.778573">
<ele>606.3</ele>
<speed>4.6</speed>
<course>83.3</course>
<desc>Speed 4.6 km/h Distance 21.05 km</desc>
<time>2010-06-13T07:28:01.65</time>
<name>4839</name>
</trkpt>
<trkpt lat="49.219367" lon="11.778595">
<ele>605.0</ele>
<speed>4.7</speed>
<course>122.8</course>
<desc>Speed 4.7 km/h Distance 21.05 km</desc>
<time>2010-06-13T07:28:02.65</time>
<name>4840</name>
</trkpt>
<trkpt lat="49.219353" lon="11.778627">
<ele>603.9</ele>
<speed>6.9</speed>
<course>103.3</course>
<desc>Speed 6.9 km/h Distance 21.05 km</desc>
<time>2010-06-13T07:28:03.65</time>
<name>4841</name>
</trkpt>
<trkpt lat="49.219350" lon="11.778648">
<ele>605.0</ele>
<speed>5.0</speed>
<course>110.9</course>
<desc>Speed 5.0 km/h Distance 21.05 km</desc>
<time>2010-06-13T07:28:04.65</time>
<name>4842</name>
</trkpt>
<trkpt lat="49.219343" lon="11.778675">
<ele>603.9</ele>
<speed>3.5</speed>
<course>94.0</course>
<desc>Speed 3.5 km/h Distance 21.06 km</desc>
<time>2010-06-13T07:28:05.65</time>
<name>4843</name>
</trkpt>
<trkpt lat="49.219342" lon="11.778712">
<ele>603.0</ele>
<speed>5.4</speed>
<course>74.9</course>
<desc>Speed 5.4 km/h Distance 21.06 km</desc>
<time>2010-06-13T07:28:06.65</time>
<name>4844</name>
</trkpt>
<trkpt lat="49.219347" lon="11.778740">
<ele>602.6</ele>
<speed>4.6</speed>
<course>111.0</course>
<desc>Speed 4.6 km/h Distance 21.06 km</desc>
<time>2010-06-13T07:28:07.65</time>
<name>4845</name>
</trkpt>
<trkpt lat="49.219343" lon="11.778753">
<ele>603.1</ele>
<speed>2.7</speed>
<course>117.1</course>
<desc>Speed 2.7 km/h Distance 21.06 km</desc>
<time>2010-06-13T07:28:08.65</time>
<name>4846</name>
</trkpt>
<trkpt lat="49.219335" lon="11.778778">
<ele>603.5</ele>
<speed>3.9</speed>
<course>86.2</course>
<desc>Speed 3.9 km/h Distance 21.06 km</desc>
<time>2010-06-13T07:28:09.65</time>
<name>4847</name>
</trkpt>
<trkpt lat="49.219337" lon="11.778817">
<ele>605.8</ele>
<speed>4.3</speed>
<course>137.9</course>
<desc>Speed 4.3 km/h Distance 21.07 km</desc>
<time>2010-06-13T07:28:10.65</time>
<name>4848</name>
</trkpt>
<trkpt lat="49.219293" lon="11.778877">
<ele>606.4</ele>
<speed>3.9</speed>
<course>213.7</course>
<desc>Speed 3.9 km/h Distance 21.07 km</desc>
<time>2010-06-13T07:28:13.65</time>
<name>4849</name>
</trkpt>
<trkpt lat="49.219287" lon="11.778870">
<ele>606.4</ele>
<speed>2.6</speed>
<course>90.0</course>
<desc>Speed 2.6 km/h Distance 21.07 km</desc>
<time>2010-06-13T07:28:14.65</time>
<name>4850</name>
</trkpt>
<trkpt lat="49.219287" lon="11.778873">
<ele>606.4</ele>
<speed>2.7</speed>
<course>139.7</course>
<desc>Speed 2.7 km/h Distance 21.07 km</desc>
<time>2010-06-13T07:28:15.65</time>
<name>4851</name>
</trkpt>
<trkpt lat="49.219253" lon="11.778917">
<ele>606.8</ele>
<speed>5.1</speed>
<course>3.8</course>
<desc>Speed 5.1 km/h Distance 21.08 km</desc>
<time>2010-06-13T07:28:17.65</time>
<name>4852</name>
</trkpt>
<trkpt lat="49.219268" lon="11.778918">
<ele>606.8</ele>
<speed>1.6</speed>
<course>347.4</course>
<desc>Speed 1.6 km/h Distance 21.08 km</desc>
<time>2010-06-13T07:28:18.65</time>
<name>4853</name>
</trkpt>
<trkpt lat="49.219273" lon="11.778917">
<ele>606.8</ele>
<speed>1.9</speed>
<course>305.2</course>
<desc>Speed 1.9 km/h Distance 21.08 km</desc>
<time>2010-06-13T07:28:19.65</time>
<name>4854</name>
</trkpt>
<trkpt lat="49.219283" lon="11.778895">
<ele>606.2</ele>
<speed>3.2</speed>
<course>306.0</course>
<desc>Speed 3.2 km/h Distance 21.08 km</desc>
<time>2010-06-13T07:28:20.65</time>
<name>4855</name>
</trkpt>
<trkpt lat="49.219298" lon="11.778863">
<ele>605.6</ele>
<speed>3.4</speed>
<course>332.5</course>
<desc>Speed 3.4 km/h Distance 21.09 km</desc>
<time>2010-06-13T07:28:21.65</time>
<name>4856</name>
</trkpt>
<trkpt lat="49.219307" lon="11.778857">
<ele>605.6</ele>
<speed>4.2</speed>
<course>310.9</course>
<desc>Speed 4.2 km/h Distance 21.09 km</desc>
<time>2010-06-13T07:28:22.65</time>
<name>4857</name>
</trkpt>
<trkpt lat="49.219313" lon="11.778845">
<ele>605.6</ele>
<speed>4.1</speed>
<course>140.2</course>
<desc>Speed 4.1 km/h Distance 21.09 km</desc>
<time>2010-06-13T07:28:23.65</time>
<name>4858</name>
</trkpt>
<trkpt lat="49.219228" lon="11.778953">
<ele>606.1</ele>
<speed>1.2</speed>
<course>59.5</course>
<desc>Speed 1.2 km/h Distance 21.10 km</desc>
<time>2010-06-13T07:28:34.65</time>
<name>4859</name>
</trkpt>
<trkpt lat="49.219237" lon="11.778975">
<ele>606.9</ele>
<speed>1.4</speed>
<course>340.3</course>
<desc>Speed 1.4 km/h Distance 21.10 km</desc>
<time>2010-06-13T07:28:35.65</time>
<name>4860</name>
</trkpt>
<trkpt lat="49.219255" lon="11.778965">
<ele>605.7</ele>
<speed>1.5</speed>
<course>110.0</course>
<desc>Speed 1.5 km/h Distance 21.10 km</desc>
<time>2010-06-13T07:28:36.65</time>
<name>4861</name>
</trkpt>
<trkpt lat="49.219238" lon="11.779035">
<ele>606.9</ele>
<speed>4.1</speed>
<course>117.0</course>
<desc>Speed 4.1 km/h Distance 21.11 km</desc>
<time>2010-06-13T07:28:38.65</time>
<name>4862</name>
</trkpt>
<trkpt lat="49.219227" lon="11.779070">
<ele>607.5</ele>
<speed>3.6</speed>
<course>103.3</course>
<desc>Speed 3.6 km/h Distance 21.11 km</desc>
<time>2010-06-13T07:28:39.65</time>
<name>4863</name>
</trkpt>
<trkpt lat="49.219223" lon="11.779092">
<ele>606.6</ele>
<speed>2.5</speed>
<course>52.6</course>
<desc>Speed 2.5 km/h Distance 21.11 km</desc>
<time>2010-06-13T07:28:40.65</time>
<name>4864</name>
</trkpt>
<trkpt lat="49.219232" lon="11.779108">
<ele>606.6</ele>
<speed>3.7</speed>
<course>66.4</course>
<desc>Speed 3.7 km/h Distance 21.12 km</desc>
<time>2010-06-13T07:28:41.65</time>
<name>4865</name>
</trkpt>
<trkpt lat="49.219238" lon="11.779132">
<ele>606.8</ele>
<speed>4.5</speed>
<course>83.8</course>
<desc>Speed 4.5 km/h Distance 21.12 km</desc>
<time>2010-06-13T07:28:42.65</time>
<name>4866</name>
</trkpt>
<trkpt lat="49.219240" lon="11.779155">
<ele>606.2</ele>
<speed>3.3</speed>
<course>69.0</course>
<desc>Speed 3.3 km/h Distance 21.12 km</desc>
<time>2010-06-13T07:28:43.65</time>
<name>4867</name>
</trkpt>
<trkpt lat="49.219245" lon="11.779175">
<ele>608.9</ele>
<speed>3.7</speed>
<course>95.5</course>
<desc>Speed 3.7 km/h Distance 21.12 km</desc>
<time>2010-06-13T07:28:44.65</time>
<name>4868</name>
</trkpt>
<trkpt lat="49.219243" lon="11.779202">
<ele>609.2</ele>
<speed>4.1</speed>
<course>104.3</course>
<desc>Speed 4.1 km/h Distance 21.12 km</desc>
<time>2010-06-13T07:28:45.65</time>
<name>4869</name>
</trkpt>
<trkpt lat="49.219240" lon="11.779222">
<ele>611.0</ele>
<speed>3.8</speed>
<course>120.5</course>
<desc>Speed 3.8 km/h Distance 21.12 km</desc>
<time>2010-06-13T07:28:46.65</time>
<name>4870</name>
</trkpt>
<trkpt lat="49.219232" lon="11.779243">
<ele>611.7</ele>
<speed>2.8</speed>
<course>79.1</course>
<desc>Speed 2.8 km/h Distance 21.13 km</desc>
<time>2010-06-13T07:28:47.65</time>
<name>4871</name>
</trkpt>
<trkpt lat="49.219233" lon="11.779257">
<ele>612.8</ele>
<speed>3.0</speed>
<course>125.2</course>
<desc>Speed 3.0 km/h Distance 21.13 km</desc>
<time>2010-06-13T07:28:48.65</time>
<name>4872</name>
</trkpt>
<trkpt lat="49.219223" lon="11.779278">
<ele>613.4</ele>
<speed>4.7</speed>
<course>113.6</course>
<desc>Speed 4.7 km/h Distance 21.13 km</desc>
<time>2010-06-13T07:28:49.65</time>
<name>4873</name>
</trkpt>
<trkpt lat="49.219217" lon="11.779302">
<ele>613.1</ele>
<speed>4.5</speed>
<course>121.5</course>
<desc>Speed 4.5 km/h Distance 21.13 km</desc>
<time>2010-06-13T07:28:50.65</time>
<name>4874</name>
</trkpt>
<trkpt lat="49.219203" lon="11.779335">
<ele>613.6</ele>
<speed>5.7</speed>
<course>126.0</course>
<desc>Speed 5.7 km/h Distance 21.13 km</desc>
<time>2010-06-13T07:28:51.65</time>
<name>4875</name>
</trkpt>
<trkpt lat="49.219188" lon="11.779367">
<ele>615.6</ele>
<speed>5.3</speed>
<course>105.1</course>
<desc>Speed 5.3 km/h Distance 21.14 km</desc>
<time>2010-06-13T07:28:52.65</time>
<name>4876</name>
</trkpt>
<trkpt lat="49.219183" lon="11.779395">
<ele>615.8</ele>
<speed>5.0</speed>
<course>111.0</course>
<desc>Speed 5.0 km/h Distance 21.14 km</desc>
<time>2010-06-13T07:28:53.65</time>
<name>4877</name>
</trkpt>
<trkpt lat="49.219178" lon="11.779415">
<ele>618.1</ele>
<speed>4.2</speed>
<course>113.6</course>
<desc>Speed 4.2 km/h Distance 21.14 km</desc>
<time>2010-06-13T07:28:54.65</time>
<name>4878</name>
</trkpt>
<trkpt lat="49.219165" lon="11.779462">
<ele>619.6</ele>
<speed>1.8</speed>
<course>12.6</course>
<desc>Speed 1.8 km/h Distance 21.14 km</desc>
<time>2010-06-13T07:28:56.65</time>
<name>4879</name>
</trkpt>
<trkpt lat="49.219167" lon="11.779462">
<ele>621.6</ele>
<speed>1.4</speed>
<course>90.0</course>
<desc>Speed 1.4 km/h Distance 21.14 km</desc>
<time>2010-06-13T07:28:57.65</time>
<name>4880</name>
</trkpt>
<trkpt lat="49.219167" lon="11.779473">
<ele>621.7</ele>
<speed>1.5</speed>
<course>136.6</course>
<desc>Speed 1.5 km/h Distance 21.15 km</desc>
<time>2010-06-13T07:28:58.65</time>
<name>4881</name>
</trkpt>
<trkpt lat="49.219152" lon="11.779495">
<ele>622.3</ele>
<speed>2.8</speed>
<course>105.6</course>
<desc>Speed 2.8 km/h Distance 21.15 km</desc>
<time>2010-06-13T07:28:59.65</time>
<name>4882</name>
</trkpt>
<trkpt lat="49.219148" lon="11.779513">
<ele>622.4</ele>
<speed>2.0</speed>
<course>131.2</course>
<desc>Speed 2.0 km/h Distance 21.15 km</desc>
<time>2010-06-13T07:29:00.65</time>
<name>4883</name>
</trkpt>
<trkpt lat="49.219135" lon="11.779537">
<ele>620.9</ele>
<speed>2.6</speed>
<course>127.4</course>
<desc>Speed 2.6 km/h Distance 21.15 km</desc>
<time>2010-06-13T07:29:01.65</time>
<name>4884</name>
</trkpt>
<trkpt lat="49.219125" lon="11.779557">
<ele>620.0</ele>
<speed>5.1</speed>
<course>44.5</course>
<desc>Speed 5.1 km/h Distance 21.15 km</desc>
<time>2010-06-13T07:29:02.65</time>
<name>4885</name>
</trkpt>
<trkpt lat="49.219132" lon="11.779567">
<ele>620.2</ele>
<speed>5.4</speed>
<course>113.6</course>
<desc>Speed 5.4 km/h Distance 21.15 km</desc>
<time>2010-06-13T07:29:03.65</time>
<name>4886</name>
</trkpt>
<trkpt lat="49.219125" lon="11.779590">
<ele>622.5</ele>
<speed>5.3</speed>
<course>118.7</course>
<desc>Speed 5.3 km/h Distance 21.16 km</desc>
<time>2010-06-13T07:29:04.65</time>
<name>4887</name>
</trkpt>
<trkpt lat="49.219117" lon="11.779613">
<ele>623.3</ele>
<speed>4.6</speed>
<course>139.6</course>
<desc>Speed 4.6 km/h Distance 21.16 km</desc>
<time>2010-06-13T07:29:05.65</time>
<name>4888</name>
</trkpt>
<trkpt lat="49.219095" lon="11.779642">
<ele>624.1</ele>
<speed>3.5</speed>
<course>124.8</course>
<desc>Speed 3.5 km/h Distance 21.16 km</desc>
<time>2010-06-13T07:29:06.65</time>
<name>4889</name>
</trkpt>
<trkpt lat="49.219087" lon="11.779660">
<ele>624.1</ele>
<speed>2.1</speed>
<course>130.9</course>
<desc>Speed 2.1 km/h Distance 21.16 km</desc>
<time>2010-06-13T07:29:07.65</time>
<name>4890</name>
</trkpt>
<trkpt lat="49.219080" lon="11.779672">
<ele>623.7</ele>
<speed>3.6</speed>
<course>75.6</course>
<desc>Speed 3.6 km/h Distance 21.16 km</desc>
<time>2010-06-13T07:29:08.65</time>
<name>4891</name>
</trkpt>
<trkpt lat="49.219082" lon="11.779682">
<ele>624.2</ele>
<speed>1.2</speed>
<course>9.6</course>
<desc>Speed 1.2 km/h Distance 21.16 km</desc>
<time>2010-06-13T07:29:09.65</time>
<name>4892</name>
</trkpt>
<trkpt lat="49.219090" lon="11.779683">
<ele>624.0</ele>
<speed>1.3</speed>
<course>301.4</course>
<desc>Speed 1.3 km/h Distance 21.17 km</desc>
<time>2010-06-13T07:29:10.65</time>
<name>4893</name>
</trkpt>
<trkpt lat="49.219093" lon="11.779675">
<ele>623.9</ele>
<speed>2.1</speed>
<course>160.4</course>
<desc>Speed 2.1 km/h Distance 21.17 km</desc>
<time>2010-06-13T07:29:11.65</time>
<name>4894</name>
</trkpt>
<trkpt lat="49.219078" lon="11.779683">
<ele>622.2</ele>
<speed>1.4</speed>
<course>154.7</course>
<desc>Speed 1.4 km/h Distance 21.17 km</desc>
<time>2010-06-13T07:29:12.65</time>
<name>4895</name>
</trkpt>
<trkpt lat="49.219060" lon="11.779697">
<ele>622.3</ele>
<speed>3.8</speed>
<course>125.6</course>
<desc>Speed 3.8 km/h Distance 21.17 km</desc>
<time>2010-06-13T07:29:13.65</time>
<name>4896</name>
</trkpt>
<trkpt lat="49.219048" lon="11.779722">
<ele>623.2</ele>
<speed>4.2</speed>
<course>117.0</course>
<desc>Speed 4.2 km/h Distance 21.17 km</desc>
<time>2010-06-13T07:29:14.65</time>
<name>4897</name>
</trkpt>
<trkpt lat="49.219043" lon="11.779737">
<ele>624.3</ele>
<speed>3.3</speed>
<course>347.4</course>
<desc>Speed 3.3 km/h Distance 21.17 km</desc>
<time>2010-06-13T07:29:15.65</time>
<name>4898</name>
</trkpt>
<trkpt lat="49.219048" lon="11.779735">
<ele>622.7</ele>
<speed>1.3</speed>
<course>111.0</course>
<desc>Speed 1.3 km/h Distance 21.17 km</desc>
<time>2010-06-13T07:29:16.65</time>
<name>4899</name>
</trkpt>
<trkpt lat="49.219045" lon="11.779748">
<ele>620.1</ele>
<speed>2.1</speed>
<course>117.0</course>
<desc>Speed 2.1 km/h Distance 21.18 km</desc>
<time>2010-06-13T07:29:17.65</time>
<name>4900</name>
</trkpt>
<trkpt lat="49.219042" lon="11.779758">
<ele>619.0</ele>
<speed>2.1</speed>
<course>122.6</course>
<desc>Speed 2.1 km/h Distance 21.18 km</desc>
<time>2010-06-13T07:29:18.65</time>
<name>4901</name>
</trkpt>
<trkpt lat="49.219033" lon="11.779778">
<ele>618.0</ele>
<speed>3.8</speed>
<course>107.0</course>
<desc>Speed 3.8 km/h Distance 21.18 km</desc>
<time>2010-06-13T07:29:19.65</time>
<name>4902</name>
</trkpt>
<trkpt lat="49.219028" lon="11.779803">
<ele>618.0</ele>
<speed>3.4</speed>
<course>113.5</course>
<desc>Speed 3.4 km/h Distance 21.18 km</desc>
<time>2010-06-13T07:29:20.65</time>
<name>4903</name>
</trkpt>
<trkpt lat="49.219025" lon="11.779815">
<ele>616.8</ele>
<speed>1.4</speed>
<course>129.3</course>
<desc>Speed 1.4 km/h Distance 21.18 km</desc>
<time>2010-06-13T07:29:21.65</time>
<name>4904</name>
</trkpt>
<trkpt lat="49.219012" lon="11.779840">
<ele>615.1</ele>
<speed>2.7</speed>
<course>139.6</course>
<desc>Speed 2.7 km/h Distance 21.18 km</desc>
<time>2010-06-13T07:29:22.65</time>
<name>4905</name>
</trkpt>
<trkpt lat="49.218973" lon="11.779890">
<ele>613.7</ele>
<speed>5.7</speed>
<course>126.1</course>
<desc>Speed 5.7 km/h Distance 21.19 km</desc>
<time>2010-06-13T07:29:24.65</time>
<name>4906</name>
</trkpt>
<trkpt lat="49.218957" lon="11.779925">
<ele>614.2</ele>
<speed>5.4</speed>
<course>143.6</course>
<desc>Speed 5.4 km/h Distance 21.19 km</desc>
<time>2010-06-13T07:29:25.65</time>
<name>4907</name>
</trkpt>
<trkpt lat="49.218943" lon="11.779940">
<ele>610.7</ele>
<speed>4.1</speed>
<course>117.0</course>
<desc>Speed 4.1 km/h Distance 21.19 km</desc>
<time>2010-06-13T07:29:26.65</time>
<name>4908</name>
</trkpt>
<trkpt lat="49.218940" lon="11.779950">
<ele>608.6</ele>
<speed>4.0</speed>
<course>90.0</course>
<desc>Speed 4.0 km/h Distance 21.19 km</desc>
<time>2010-06-13T07:29:27.65</time>
<name>4909</name>
</trkpt>
<trkpt lat="49.218940" lon="11.779960">
<ele>608.6</ele>
<speed>3.5</speed>
<course>123.3</course>
<desc>Speed 3.5 km/h Distance 21.20 km</desc>
<time>2010-06-13T07:29:28.65</time>
<name>4910</name>
</trkpt>
<trkpt lat="49.218935" lon="11.779972">
<ele>607.2</ele>
<speed>3.5</speed>
<course>90.0</course>
<desc>Speed 3.5 km/h Distance 21.20 km</desc>
<time>2010-06-13T07:29:29.65</time>
<name>4911</name>
</trkpt>
<trkpt lat="49.218935" lon="11.779983">
<ele>606.5</ele>
<speed>2.8</speed>
<course>356.2</course>
<desc>Speed 2.8 km/h Distance 21.20 km</desc>
<time>2010-06-13T07:29:30.65</time>
<name>4912</name>
</trkpt>
<trkpt lat="49.218950" lon="11.779982">
<ele>607.9</ele>
<speed>1.9</speed>
<course>121.5</course>
<desc>Speed 1.9 km/h Distance 21.20 km</desc>
<time>2010-06-13T07:29:31.65</time>
<name>4913</name>
</trkpt>
<trkpt lat="49.218943" lon="11.779998">
<ele>608.2</ele>
<speed>2.3</speed>
<course>132.6</course>
<desc>Speed 2.3 km/h Distance 21.20 km</desc>
<time>2010-06-13T07:29:32.65</time>
<name>4914</name>
</trkpt>
<trkpt lat="49.218933" lon="11.780015">
<ele>607.3</ele>
<speed>4.4</speed>
<course>109.5</course>
<desc>Speed 4.4 km/h Distance 21.20 km</desc>
<time>2010-06-13T07:29:33.65</time>
<name>4915</name>
</trkpt>
<trkpt lat="49.218928" lon="11.780037">
<ele>606.1</ele>
<speed>4.9</speed>
<course>146.8</course>
<desc>Speed 4.9 km/h Distance 21.20 km</desc>
<time>2010-06-13T07:29:34.65</time>
<name>4916</name>
</trkpt>
<trkpt lat="49.218912" lon="11.780053">
<ele>604.7</ele>
<speed>5.1</speed>
<course>90.0</course>
<desc>Speed 5.1 km/h Distance 21.21 km</desc>
<time>2010-06-13T07:29:35.65</time>
<name>4917</name>
</trkpt>
<trkpt lat="49.218912" lon="11.780070">
<ele>605.5</ele>
<speed>4.5</speed>
<course>97.9</course>
<desc>Speed 4.5 km/h Distance 21.21 km</desc>
<time>2010-06-13T07:29:36.65</time>
<name>4918</name>
</trkpt>
<trkpt lat="49.218910" lon="11.780088">
<ele>605.5</ele>
<speed>4.2</speed>
<course>125.8</course>
<desc>Speed 4.2 km/h Distance 21.21 km</desc>
<time>2010-06-13T07:29:37.65</time>
<name>4919</name>
</trkpt>
<trkpt lat="49.218897" lon="11.780117">
<ele>605.4</ele>
<speed>5.5</speed>
<course>137.8</course>
<desc>Speed 5.5 km/h Distance 21.21 km</desc>
<time>2010-06-13T07:29:38.65</time>
<name>4920</name>
</trkpt>
<trkpt lat="49.218875" lon="11.780147">
<ele>604.4</ele>
<speed>5.3</speed>
<course>146.8</course>
<desc>Speed 5.3 km/h Distance 21.21 km</desc>
<time>2010-06-13T07:29:39.65</time>
<name>4921</name>
</trkpt>
<trkpt lat="49.218865" lon="11.780157">
<ele>604.5</ele>
<speed>3.8</speed>
<course>149.8</course>
<desc>Speed 3.8 km/h Distance 21.22 km</desc>
<time>2010-06-13T07:29:40.65</time>
<name>4922</name>
</trkpt>
<trkpt lat="49.218850" lon="11.780170">
<ele>602.3</ele>
<speed>2.8</speed>
<course>143.8</course>
<desc>Speed 2.8 km/h Distance 21.22 km</desc>
<time>2010-06-13T07:29:41.65</time>
<name>4923</name>
</trkpt>
<trkpt lat="49.218837" lon="11.780185">
<ele>601.1</ele>
<speed>2.4</speed>
<course>131.3</course>
<desc>Speed 2.4 km/h Distance 21.22 km</desc>
<time>2010-06-13T07:29:42.65</time>
<name>4924</name>
</trkpt>
<trkpt lat="49.218830" lon="11.780197">
<ele>601.2</ele>
<speed>3.4</speed>
<course>99.7</course>
<desc>Speed 3.4 km/h Distance 21.22 km</desc>
<time>2010-06-13T07:29:43.65</time>
<name>4925</name>
</trkpt>
<trkpt lat="49.218828" lon="11.780212">
<ele>602.1</ele>
<speed>2.8</speed>
<course>80.3</course>
<desc>Speed 2.8 km/h Distance 21.22 km</desc>
<time>2010-06-13T07:29:44.65</time>
<name>4926</name>
</trkpt>
<trkpt lat="49.218830" lon="11.780227">
<ele>604.1</ele>
<speed>3.3</speed>
<course>347.4</course>
<desc>Speed 3.3 km/h Distance 21.22 km</desc>
<time>2010-06-13T07:29:45.65</time>
<name>4927</name>
</trkpt>
<trkpt lat="49.218840" lon="11.780223">
<ele>604.1</ele>
<speed>2.3</speed>
<course>0.0</course>
<desc>Speed 2.3 km/h Distance 21.22 km</desc>
<time>2010-06-13T07:29:46.65</time>
<name>4928</name>
</trkpt>
<trkpt lat="49.218845" lon="11.780223">
<ele>604.8</ele>
<speed>2.7</speed>
<course>72.9</course>
<desc>Speed 2.7 km/h Distance 21.22 km</desc>
<time>2010-06-13T07:29:47.65</time>
<name>4929</name>
</trkpt>
<trkpt lat="49.218847" lon="11.780232">
<ele>606.2</ele>
<speed>2.4</speed>
<course>98.7</course>
<desc>Speed 2.4 km/h Distance 21.22 km</desc>
<time>2010-06-13T07:29:48.65</time>
<name>4930</name>
</trkpt>
<trkpt lat="49.218845" lon="11.780248">
<ele>607.4</ele>
<speed>3.5</speed>
<course>90.0</course>
<desc>Speed 3.5 km/h Distance 21.23 km</desc>
<time>2010-06-13T07:29:49.65</time>
<name>4931</name>
</trkpt>
<trkpt lat="49.218845" lon="11.780268">
<ele>608.8</ele>
<speed>2.0</speed>
<course>90.0</course>
<desc>Speed 2.0 km/h Distance 21.23 km</desc>
<time>2010-06-13T07:29:50.65</time>
<name>4932</name>
</trkpt>
<trkpt lat="49.218845" lon="11.780270">
<ele>608.7</ele>
<speed>1.7</speed>
<course>123.3</course>
<desc>Speed 1.7 km/h Distance 21.23 km</desc>
<time>2010-06-13T07:29:51.65</time>
<name>4933</name>
</trkpt>
<trkpt lat="49.218835" lon="11.780293">
<ele>609.5</ele>
<speed>3.3</speed>
<course>115.6</course>
<desc>Speed 3.3 km/h Distance 21.23 km</desc>
<time>2010-06-13T07:29:52.65</time>
<name>4934</name>
</trkpt>
<trkpt lat="49.218827" lon="11.780320">
<ele>610.8</ele>
<speed>4.8</speed>
<course>82.7</course>
<desc>Speed 4.8 km/h Distance 21.23 km</desc>
<time>2010-06-13T07:29:53.65</time>
<name>4935</name>
</trkpt>
<trkpt lat="49.218828" lon="11.780340">
<ele>611.5</ele>
<speed>4.0</speed>
<course>73.0</course>
<desc>Speed 4.0 km/h Distance 21.23 km</desc>
<time>2010-06-13T07:29:54.65</time>
<name>4936</name>
</trkpt>
<trkpt lat="49.218832" lon="11.780357">
<ele>611.8</ele>
<speed>4.4</speed>
<course>108.8</course>
<desc>Speed 4.4 km/h Distance 21.23 km</desc>
<time>2010-06-13T07:29:55.65</time>
<name>4937</name>
</trkpt>
<trkpt lat="49.218825" lon="11.780387">
<ele>612.4</ele>
<speed>6.7</speed>
<course>109.8</course>
<desc>Speed 6.7 km/h Distance 21.24 km</desc>
<time>2010-06-13T07:29:56.65</time>
<name>4938</name>
</trkpt>
<trkpt lat="49.218818" lon="11.780415">
<ele>614.7</ele>
<speed>6.4</speed>
<course>120.3</course>
<desc>Speed 6.4 km/h Distance 21.24 km</desc>
<time>2010-06-13T07:29:57.65</time>
<name>4939</name>
</trkpt>
<trkpt lat="49.218805" lon="11.780450">
<ele>614.4</ele>
<speed>5.9</speed>
<course>119.8</course>
<desc>Speed 5.9 km/h Distance 21.24 km</desc>
<time>2010-06-13T07:29:58.65</time>
<name>4940</name>
</trkpt>
<trkpt lat="49.218795" lon="11.780477">
<ele>614.6</ele>
<speed>5.2</speed>
<course>107.1</course>
<desc>Speed 5.2 km/h Distance 21.24 km</desc>
<time>2010-06-13T07:29:59.65</time>
<name>4941</name>
</trkpt>
<trkpt lat="49.218793" lon="11.780485">
<ele>614.2</ele>
<speed>3.2</speed>
<course>133.3</course>
<desc>Speed 3.2 km/h Distance 21.24 km</desc>
<time>2010-06-13T07:30:00.65</time>
<name>4942</name>
</trkpt>
<trkpt lat="49.218780" lon="11.780507">
<ele>615.5</ele>
<speed>2.8</speed>
<course>90.0</course>
<desc>Speed 2.8 km/h Distance 21.25 km</desc>
<time>2010-06-13T07:30:01.65</time>
<name>4943</name>
</trkpt>
<trkpt lat="49.218780" lon="11.780508">
<ele>616.2</ele>
<speed>2.6</speed>
<course>154.0</course>
<desc>Speed 2.6 km/h Distance 21.25 km</desc>
<time>2010-06-13T07:30:02.65</time>
<name>4944</name>
</trkpt>
<trkpt lat="49.218767" lon="11.780518">
<ele>615.9</ele>
<speed>1.9</speed>
<course>149.6</course>
<desc>Speed 1.9 km/h Distance 21.25 km</desc>
<time>2010-06-13T07:30:03.65</time>
<name>4945</name>
</trkpt>
<trkpt lat="49.218718" lon="11.780562">
<ele>616.3</ele>
<speed>4.8</speed>
<course>108.7</course>
<desc>Speed 4.8 km/h Distance 21.25 km</desc>
<time>2010-06-13T07:30:05.65</time>
<name>4946</name>
</trkpt>
<trkpt lat="49.218715" lon="11.780577">
<ele>613.4</ele>
<speed>2.6</speed>
<course>123.3</course>
<desc>Speed 2.6 km/h Distance 21.26 km</desc>
<time>2010-06-13T07:30:06.65</time>
<name>4947</name>
</trkpt>
<trkpt lat="49.218705" lon="11.780600">
<ele>613.1</ele>
<speed>4.2</speed>
<course>142.7</course>
<desc>Speed 4.2 km/h Distance 21.26 km</desc>
<time>2010-06-13T07:30:07.65</time>
<name>4948</name>
</trkpt>
<trkpt lat="49.218695" lon="11.780612">
<ele>613.8</ele>
<speed>4.6</speed>
<course>133.3</course>
<desc>Speed 4.6 km/h Distance 21.26 km</desc>
<time>2010-06-13T07:30:08.65</time>
<name>4949</name>
</trkpt>
<trkpt lat="49.218682" lon="11.780633">
<ele>614.9</ele>
<speed>3.4</speed>
<course>109.8</course>
<desc>Speed 3.4 km/h Distance 21.26 km</desc>
<time>2010-06-13T07:30:09.65</time>
<name>4950</name>
</trkpt>
<trkpt lat="49.218675" lon="11.780662">
<ele>613.7</ele>
<speed>4.1</speed>
<course>134.6</course>
<desc>Speed 4.1 km/h Distance 21.26 km</desc>
<time>2010-06-13T07:30:10.65</time>
<name>4951</name>
</trkpt>
<trkpt lat="49.218660" lon="11.780685">
<ele>613.9</ele>
<speed>4.3</speed>
<course>143.4</course>
<desc>Speed 4.3 km/h Distance 21.27 km</desc>
<time>2010-06-13T07:30:11.65</time>
<name>4952</name>
</trkpt>
<trkpt lat="49.218648" lon="11.780698">
<ele>613.8</ele>
<speed>4.6</speed>
<course>146.7</course>
<desc>Speed 4.6 km/h Distance 21.27 km</desc>
<time>2010-06-13T07:30:12.65</time>
<name>4953</name>
</trkpt>
<trkpt lat="49.218637" lon="11.780710">
<ele>615.6</ele>
<speed>1.8</speed>
<course>119.9</course>
<desc>Speed 1.8 km/h Distance 21.27 km</desc>
<time>2010-06-13T07:30:13.65</time>
<name>4954</name>
</trkpt>
<trkpt lat="49.218612" lon="11.780777">
<ele>616.4</ele>
<speed>4.0</speed>
<course>113.6</course>
<desc>Speed 4.0 km/h Distance 21.28 km</desc>
<time>2010-06-13T07:30:15.65</time>
<name>4955</name>
</trkpt>
<trkpt lat="49.218605" lon="11.780800">
<ele>615.2</ele>
<speed>4.9</speed>
<course>47.4</course>
<desc>Speed 4.9 km/h Distance 21.28 km</desc>
<time>2010-06-13T07:30:16.65</time>
<name>4956</name>
</trkpt>
<trkpt lat="49.218610" lon="11.780808">
<ele>615.5</ele>
<speed>2.7</speed>
<course>102.3</course>
<desc>Speed 2.7 km/h Distance 21.28 km</desc>
<time>2010-06-13T07:30:17.65</time>
<name>4957</name>
</trkpt>
<trkpt lat="49.218608" lon="11.780820">
<ele>614.0</ele>
<speed>2.7</speed>
<course>124.3</course>
<desc>Speed 2.7 km/h Distance 21.28 km</desc>
<time>2010-06-13T07:30:18.65</time>
<name>4958</name>
</trkpt>
<trkpt lat="49.218602" lon="11.780835">
<ele>612.0</ele>
<speed>2.3</speed>
<course>140.6</course>
<desc>Speed 2.3 km/h Distance 21.28 km</desc>
<time>2010-06-13T07:30:19.65</time>
<name>4959</name>
</trkpt>
<trkpt lat="49.218595" lon="11.780843">
<ele>614.1</ele>
<speed>3.3</speed>
<course>115.6</course>
<desc>Speed 3.3 km/h Distance 21.28 km</desc>
<time>2010-06-13T07:30:20.65</time>
<name>4960</name>
</trkpt>
<trkpt lat="49.218587" lon="11.780870">
<ele>615.3</ele>
<speed>4.6</speed>
<course>121.4</course>
<desc>Speed 4.6 km/h Distance 21.28 km</desc>
<time>2010-06-13T07:30:21.65</time>
<name>4961</name>
</trkpt>
<trkpt lat="49.218577" lon="11.780895">
<ele>615.0</ele>
<speed>4.9</speed>
<course>118.4</course>
<desc>Speed 4.9 km/h Distance 21.29 km</desc>
<time>2010-06-13T07:30:22.65</time>
<name>4962</name>
</trkpt>
<trkpt lat="49.218567" lon="11.780923">
<ele>615.0</ele>
<speed>4.6</speed>
<course>107.0</course>
<desc>Speed 4.6 km/h Distance 21.29 km</desc>
<time>2010-06-13T07:30:23.65</time>
<name>4963</name>
</trkpt>
<trkpt lat="49.218562" lon="11.780948">
<ele>615.1</ele>
<speed>4.4</speed>
<course>103.2</course>
<desc>Speed 4.4 km/h Distance 21.29 km</desc>
<time>2010-06-13T07:30:24.65</time>
<name>4964</name>
</trkpt>
<trkpt lat="49.218558" lon="11.780970">
<ele>614.7</ele>
<speed>4.3</speed>
<course>110.9</course>
<desc>Speed 4.3 km/h Distance 21.29 km</desc>
<time>2010-06-13T07:30:25.65</time>
<name>4965</name>
</trkpt>
<trkpt lat="49.218555" lon="11.780983">
<ele>617.4</ele>
<speed>2.8</speed>
<course>132.9</course>
<desc>Speed 2.8 km/h Distance 21.29 km</desc>
<time>2010-06-13T07:30:26.65</time>
<name>4966</name>
</trkpt>
<trkpt lat="49.218550" lon="11.780992">
<ele>617.6</ele>
<speed>3.1</speed>
<course>146.8</course>
<desc>Speed 3.1 km/h Distance 21.29 km</desc>
<time>2010-06-13T07:30:27.65</time>
<name>4967</name>
</trkpt>
<trkpt lat="49.218542" lon="11.781000">
<ele>617.5</ele>
<speed>3.0</speed>
<course>330.8</course>
<desc>Speed 3.0 km/h Distance 21.29 km</desc>
<time>2010-06-13T07:30:28.65</time>
<name>4968</name>
</trkpt>
<trkpt lat="49.218543" lon="11.780998">
<ele>616.7</ele>
<speed>1.7</speed>
<course>51.9</course>
<desc>Speed 1.7 km/h Distance 21.29 km</desc>
<time>2010-06-13T07:30:29.65</time>
<name>4969</name>
</trkpt>
<trkpt lat="49.218545" lon="11.781002">
<ele>615.0</ele>
<speed>2.9</speed>
<course>97.3</course>
<desc>Speed 2.9 km/h Distance 21.29 km</desc>
<time>2010-06-13T07:30:30.65</time>
<name>4970</name>
</trkpt>
<trkpt lat="49.218543" lon="11.781022">
<ele>615.9</ele>
<speed>3.2</speed>
<course>121.5</course>
<desc>Speed 3.2 km/h Distance 21.30 km</desc>
<time>2010-06-13T07:30:31.65</time>
<name>4971</name>
</trkpt>
<trkpt lat="49.218533" lon="11.781047">
<ele>615.5</ele>
<speed>4.1</speed>
<course>119.1</course>
<desc>Speed 4.1 km/h Distance 21.30 km</desc>
<time>2010-06-13T07:30:32.65</time>
<name>4972</name>
</trkpt>
<trkpt lat="49.218527" lon="11.781065">
<ele>612.1</ele>
<speed>4.6</speed>
<course>135.6</course>
<desc>Speed 4.6 km/h Distance 21.30 km</desc>
<time>2010-06-13T07:30:33.65</time>
<name>4973</name>
</trkpt>
<trkpt lat="49.218513" lon="11.781085">
<ele>609.7</ele>
<speed>6.0</speed>
<course>159.9</course>
<desc>Speed 6.0 km/h Distance 21.30 km</desc>
<time>2010-06-13T07:30:34.65</time>
<name>4974</name>
</trkpt>
<trkpt lat="49.218505" lon="11.781090">
<ele>610.6</ele>
<speed>4.8</speed>
<course>0.0</course>
<desc>Speed 4.8 km/h Distance 21.30 km</desc>
<time>2010-06-13T07:30:35.65</time>
<name>4975</name>
</trkpt>
<trkpt lat="49.218508" lon="11.781090">
<ele>610.7</ele>
<speed>2.4</speed>
<course>157.8</course>
<desc>Speed 2.4 km/h Distance 21.30 km</desc>
<time>2010-06-13T07:30:36.65</time>
<name>4976</name>
</trkpt>
<trkpt lat="49.218503" lon="11.781093">
<ele>611.6</ele>
<speed>0.6</speed>
<course>293.6</course>
<desc>Speed 0.6 km/h Distance 21.30 km</desc>
<time>2010-06-13T07:30:37.65</time>
<name>4977</name>
</trkpt>
<trkpt lat="49.218507" lon="11.781082">
<ele>611.5</ele>
<speed>0.1</speed>
<course>124.2</course>
<desc>Speed 0.1 km/h Distance 21.30 km</desc>
<time>2010-06-13T07:30:38.65</time>
<name>4978</name>
</trkpt>
<trkpt lat="49.218500" lon="11.781097">
<ele>611.0</ele>
<speed>2.2</speed>
<course>133.6</course>
<desc>Speed 2.2 km/h Distance 21.31 km</desc>
<time>2010-06-13T07:30:39.65</time>
<name>4979</name>
</trkpt>
<trkpt lat="49.218492" lon="11.781110">
<ele>611.3</ele>
<speed>2.8</speed>
<course>149.3</course>
<desc>Speed 2.8 km/h Distance 21.31 km</desc>
<time>2010-06-13T07:30:40.65</time>
<name>4980</name>
</trkpt>
<trkpt lat="49.218455" lon="11.781143">
<ele>612.1</ele>
<speed>3.7</speed>
<course>156.3</course>
<desc>Speed 3.7 km/h Distance 21.31 km</desc>
<time>2010-06-13T07:30:42.65</time>
<name>4981</name>
</trkpt>
<trkpt lat="49.218440" lon="11.781153">
<ele>611.7</ele>
<speed>2.6</speed>
<course>152.4</course>
<desc>Speed 2.6 km/h Distance 21.31 km</desc>
<time>2010-06-13T07:30:43.65</time>
<name>4982</name>
</trkpt>
<trkpt lat="49.218407" lon="11.781180">
<ele>612.4</ele>
<speed>3.1</speed>
<course>242.6</course>
<desc>Speed 3.1 km/h Distance 21.32 km</desc>
<time>2010-06-13T07:30:45.65</time>
<name>4983</name>
</trkpt>
<trkpt lat="49.218405" lon="11.781175">
<ele>614.2</ele>
<speed>3.3</speed>
<course>198.8</course>
<desc>Speed 3.3 km/h Distance 21.32 km</desc>
<time>2010-06-13T07:30:46.65</time>
<name>4984</name>
</trkpt>
<trkpt lat="49.218398" lon="11.781172">
<ele>616.4</ele>
<speed>3.3</speed>
<course>192.1</course>
<desc>Speed 3.3 km/h Distance 21.32 km</desc>
<time>2010-06-13T07:30:47.65</time>
<name>4985</name>
</trkpt>
<trkpt lat="49.218378" lon="11.781165">
<ele>617.9</ele>
<speed>4.8</speed>
<course>219.0</course>
<desc>Speed 4.8 km/h Distance 21.32 km</desc>
<time>2010-06-13T07:30:48.65</time>
<name>4986</name>
</trkpt>
<trkpt lat="49.218372" lon="11.781157">
<ele>620.0</ele>
<speed>3.8</speed>
<course>240.2</course>
<desc>Speed 3.8 km/h Distance 21.32 km</desc>
<time>2010-06-13T07:30:49.65</time>
<name>4987</name>
</trkpt>
<trkpt lat="49.218367" lon="11.781143">
<ele>619.8</ele>
<speed>2.9</speed>
<course>289.4</course>
<desc>Speed 2.9 km/h Distance 21.32 km</desc>
<time>2010-06-13T07:30:50.65</time>
<name>4988</name>
</trkpt>
<trkpt lat="49.218372" lon="11.781122">
<ele>620.5</ele>
<speed>3.1</speed>
<course>243.0</course>
<desc>Speed 3.1 km/h Distance 21.33 km</desc>
<time>2010-06-13T07:30:51.65</time>
<name>4989</name>
</trkpt>
<trkpt lat="49.218368" lon="11.781112">
<ele>622.4</ele>
<speed>2.9</speed>
<course>176.2</course>
<desc>Speed 2.9 km/h Distance 21.33 km</desc>
<time>2010-06-13T07:30:52.65</time>
<name>4990</name>
</trkpt>
<trkpt lat="49.218353" lon="11.781113">
<ele>624.0</ele>
<speed>5.8</speed>
<course>185.3</course>
<desc>Speed 5.8 km/h Distance 21.33 km</desc>
<time>2010-06-13T07:30:53.65</time>
<name>4991</name>
</trkpt>
<trkpt lat="49.218340" lon="11.781112">
<ele>625.8</ele>
<speed>3.1</speed>
<course>209.4</course>
<desc>Speed 3.1 km/h Distance 21.33 km</desc>
<time>2010-06-13T07:30:54.65</time>
<name>4992</name>
</trkpt>
<trkpt lat="49.218328" lon="11.781102">
<ele>625.7</ele>
<speed>3.8</speed>
<course>222.5</course>
<desc>Speed 3.8 km/h Distance 21.33 km</desc>
<time>2010-06-13T07:30:55.65</time>
<name>4993</name>
</trkpt>
<trkpt lat="49.218320" lon="11.781090">
<ele>626.1</ele>
<speed>4.6</speed>
<course>224.3</course>
<desc>Speed 4.6 km/h Distance 21.33 km</desc>
<time>2010-06-13T07:30:56.65</time>
<name>4994</name>
</trkpt>
<trkpt lat="49.218310" lon="11.781075">
<ele>626.2</ele>
<speed>3.2</speed>
<course>193.5</course>
<desc>Speed 3.2 km/h Distance 21.33 km</desc>
<time>2010-06-13T07:30:57.65</time>
<name>4995</name>
</trkpt>
<trkpt lat="49.218297" lon="11.781070">
<ele>626.8</ele>
<speed>4.2</speed>
<course>190.8</course>
<desc>Speed 4.2 km/h Distance 21.34 km</desc>
<time>2010-06-13T07:30:58.65</time>
<name>4996</name>
</trkpt>
<trkpt lat="49.218280" lon="11.781065">
<ele>627.0</ele>
<speed>4.8</speed>
<course>203.8</course>
<desc>Speed 4.8 km/h Distance 21.34 km</desc>
<time>2010-06-13T07:30:59.65</time>
<name>4997</name>
</trkpt>
<trkpt lat="49.218270" lon="11.781058">
<ele>627.6</ele>
<speed>4.4</speed>
<course>200.1</course>
<desc>Speed 4.4 km/h Distance 21.34 km</desc>
<time>2010-06-13T07:31:00.65</time>
<name>4998</name>
</trkpt>
<trkpt lat="49.218255" lon="11.781050">
<ele>627.9</ele>
<speed>5.8</speed>
<course>196.6</course>
<desc>Speed 5.8 km/h Distance 21.34 km</desc>
<time>2010-06-13T07:31:01.65</time>
<name>4999</name>
</trkpt>
<trkpt lat="49.218237" lon="11.781042">
<ele>628.9</ele>
<speed>4.1</speed>
<course>222.6</course>
<desc>Speed 4.1 km/h Distance 21.34 km</desc>
<time>2010-06-13T07:31:02.65</time>
<name>5000</name>
</trkpt>
<trkpt lat="49.218228" lon="11.781030">
<ele>629.8</ele>
<speed>3.2</speed>
<course>209.0</course>
<desc>Speed 3.2 km/h Distance 21.34 km</desc>
<time>2010-06-13T07:31:03.65</time>
<name>5001</name>
</trkpt>
<trkpt lat="49.218217" lon="11.781020">
<ele>630.1</ele>
<speed>3.7</speed>
<course>213.2</course>
<desc>Speed 3.7 km/h Distance 21.34 km</desc>
<time>2010-06-13T07:31:04.65</time>
<name>5002</name>
</trkpt>
<trkpt lat="49.218203" lon="11.781007">
<ele>629.5</ele>
<speed>4.0</speed>
<course>227.4</course>
<desc>Speed 4.0 km/h Distance 21.35 km</desc>
<time>2010-06-13T07:31:05.65</time>
<name>5003</name>
</trkpt>
<trkpt lat="49.218193" lon="11.780990">
<ele>628.6</ele>
<speed>4.4</speed>
<course>200.2</course>
<desc>Speed 4.4 km/h Distance 21.35 km</desc>
<time>2010-06-13T07:31:06.65</time>
<name>5004</name>
</trkpt>
<trkpt lat="49.218182" lon="11.780983">
<ele>628.4</ele>
<speed>3.2</speed>
<course>208.6</course>
<desc>Speed 3.2 km/h Distance 21.35 km</desc>
<time>2010-06-13T07:31:07.65</time>
<name>5005</name>
</trkpt>
<trkpt lat="49.218172" lon="11.780975">
<ele>628.5</ele>
<speed>4.8</speed>
<course>216.6</course>
<desc>Speed 4.8 km/h Distance 21.35 km</desc>
<time>2010-06-13T07:31:08.65</time>
<name>5006</name>
</trkpt>
<trkpt lat="49.218160" lon="11.780962">
<ele>628.5</ele>
<speed>4.6</speed>
<course>216.4</course>
<desc>Speed 4.6 km/h Distance 21.35 km</desc>
<time>2010-06-13T07:31:09.65</time>
<name>5007</name>
</trkpt>
<trkpt lat="49.218147" lon="11.780947">
<ele>628.4</ele>
<speed>5.0</speed>
<course>213.2</course>
<desc>Speed 5.0 km/h Distance 21.35 km</desc>
<time>2010-06-13T07:31:10.65</time>
<name>5008</name>
</trkpt>
<trkpt lat="49.218133" lon="11.780933">
<ele>627.5</ele>
<speed>4.1</speed>
<course>226.2</course>
<desc>Speed 4.1 km/h Distance 21.36 km</desc>
<time>2010-06-13T07:31:11.65</time>
<name>5009</name>
</trkpt>
<trkpt lat="49.218125" lon="11.780920">
<ele>627.5</ele>
<speed>4.9</speed>
<course>220.2</course>
<desc>Speed 4.9 km/h Distance 21.36 km</desc>
<time>2010-06-13T07:31:12.65</time>
<name>5010</name>
</trkpt>
<trkpt lat="49.218113" lon="11.780905">
<ele>627.4</ele>
<speed>5.0</speed>
<course>235.2</course>
<desc>Speed 5.0 km/h Distance 21.36 km</desc>
<time>2010-06-13T07:31:13.65</time>
<name>5011</name>
</trkpt>
<trkpt lat="49.218105" lon="11.780887">
<ele>627.5</ele>
<speed>4.2</speed>
<course>260.4</course>
<desc>Speed 4.2 km/h Distance 21.36 km</desc>
<time>2010-06-13T07:31:14.65</time>
<name>5012</name>
</trkpt>
<trkpt lat="49.218103" lon="11.780872">
<ele>627.8</ele>
<speed>3.5</speed>
<course>246.3</course>
<desc>Speed 3.5 km/h Distance 21.36 km</desc>
<time>2010-06-13T07:31:15.65</time>
<name>5013</name>
</trkpt>
<trkpt lat="49.218100" lon="11.780860">
<ele>628.4</ele>
<speed>3.1</speed>
<course>245.3</course>
<desc>Speed 3.1 km/h Distance 21.36 km</desc>
<time>2010-06-13T07:31:16.65</time>
<name>5014</name>
</trkpt>
<trkpt lat="49.218095" lon="11.780843">
<ele>628.6</ele>
<speed>2.3</speed>
<course>262.7</course>
<desc>Speed 2.3 km/h Distance 21.36 km</desc>
<time>2010-06-13T07:31:17.65</time>
<name>5015</name>
</trkpt>
<trkpt lat="49.218093" lon="11.780823">
<ele>625.9</ele>
<speed>2.5</speed>
<course>262.1</course>
<desc>Speed 2.5 km/h Distance 21.37 km</desc>
<time>2010-06-13T07:31:18.65</time>
<name>5016</name>
</trkpt>
<trkpt lat="49.218092" lon="11.780805">
<ele>625.7</ele>
<speed>2.6</speed>
<course>236.7</course>
<desc>Speed 2.6 km/h Distance 21.37 km</desc>
<time>2010-06-13T07:31:19.65</time>
<name>5017</name>
</trkpt>
<trkpt lat="49.218087" lon="11.780793">
<ele>625.9</ele>
<speed>3.0</speed>
<course>224.3</course>
<desc>Speed 3.0 km/h Distance 21.37 km</desc>
<time>2010-06-13T07:31:20.65</time>
<name>5018</name>
</trkpt>
<trkpt lat="49.218080" lon="11.780783">
<ele>626.3</ele>
<speed>2.7</speed>
<course>216.4</course>
<desc>Speed 2.7 km/h Distance 21.37 km</desc>
<time>2010-06-13T07:31:21.65</time>
<name>5019</name>
</trkpt>
<trkpt lat="49.218067" lon="11.780768">
<ele>627.5</ele>
<speed>4.0</speed>
<course>198.1</course>
<desc>Speed 4.0 km/h Distance 21.37 km</desc>
<time>2010-06-13T07:31:22.65</time>
<name>5020</name>
</trkpt>
<trkpt lat="49.218053" lon="11.780762">
<ele>628.6</ele>
<speed>3.1</speed>
<course>204.6</course>
<desc>Speed 3.1 km/h Distance 21.37 km</desc>
<time>2010-06-13T07:31:23.65</time>
<name>5021</name>
</trkpt>
<trkpt lat="49.218042" lon="11.780753">
<ele>629.0</ele>
<speed>4.3</speed>
<course>174.7</course>
<desc>Speed 4.3 km/h Distance 21.37 km</desc>
<time>2010-06-13T07:31:24.65</time>
<name>5022</name>
</trkpt>
<trkpt lat="49.218028" lon="11.780755">
<ele>629.5</ele>
<speed>3.3</speed>
<course>232.4</course>
<desc>Speed 3.3 km/h Distance 21.38 km</desc>
<time>2010-06-13T07:31:25.65</time>
<name>5023</name>
</trkpt>
<trkpt lat="49.218022" lon="11.780742">
<ele>629.8</ele>
<speed>1.6</speed>
<course>236.7</course>
<desc>Speed 1.6 km/h Distance 21.38 km</desc>
<time>2010-06-13T07:31:26.65</time>
<name>5024</name>
</trkpt>
<trkpt lat="49.218017" lon="11.780730">
<ele>629.6</ele>
<speed>2.4</speed>
<course>262.1</course>
<desc>Speed 2.4 km/h Distance 21.38 km</desc>
<time>2010-06-13T07:31:27.65</time>
<name>5025</name>
</trkpt>
<trkpt lat="49.218015" lon="11.780712">
<ele>628.5</ele>
<speed>1.7</speed>
<course>285.6</course>
<desc>Speed 1.7 km/h Distance 21.38 km</desc>
<time>2010-06-13T07:31:28.65</time>
<name>5026</name>
</trkpt>
<trkpt lat="49.218018" lon="11.780693">
<ele>627.8</ele>
<speed>0.9</speed>
<course>293.7</course>
<desc>Speed 0.9 km/h Distance 21.38 km</desc>
<time>2010-06-13T07:31:29.65</time>
<name>5027</name>
</trkpt>
<trkpt lat="49.218022" lon="11.780682">
<ele>627.2</ele>
<speed>0.4</speed>
<course>241.7</course>
<desc>Speed 0.4 km/h Distance 21.38 km</desc>
<time>2010-06-13T07:31:30.65</time>
<name>5028</name>
</trkpt>
<trkpt lat="49.218020" lon="11.780677">
<ele>626.4</ele>
<speed>0.4</speed>
<course>224.5</course>
<desc>Speed 0.4 km/h Distance 21.38 km</desc>
<time>2010-06-13T07:31:31.65</time>
<name>5029</name>
</trkpt>
<trkpt lat="49.218017" lon="11.780672">
<ele>625.1</ele>
<speed>2.4</speed>
<course>242.8</course>
<desc>Speed 2.4 km/h Distance 21.38 km</desc>
<time>2010-06-13T07:31:32.65</time>
<name>5030</name>
</trkpt>
<trkpt lat="49.218013" lon="11.780662">
<ele>623.5</ele>
<speed>0.4</speed>
<course>208.6</course>
<desc>Speed 0.4 km/h Distance 21.38 km</desc>
<time>2010-06-13T07:31:33.65</time>
<name>5031</name>
</trkpt>
<trkpt lat="49.218003" lon="11.780653">
<ele>622.2</ele>
<speed>1.7</speed>
<course>249.1</course>
<desc>Speed 1.7 km/h Distance 21.38 km</desc>
<time>2010-06-13T07:31:34.65</time>
<name>5032</name>
</trkpt>
<trkpt lat="49.218002" lon="11.780647">
<ele>622.4</ele>
<speed>0.9</speed>
<course>185.0</course>
<desc>Speed 0.9 km/h Distance 21.38 km</desc>
<time>2010-06-13T07:31:35.65</time>
<name>5033</name>
</trkpt>
<trkpt lat="49.217993" lon="11.780645">
<ele>622.2</ele>
<speed>3.9</speed>
<course>155.1</course>
<desc>Speed 3.9 km/h Distance 21.39 km</desc>
<time>2010-06-13T07:31:36.65</time>
<name>5034</name>
</trkpt>
<trkpt lat="49.217982" lon="11.780653">
<ele>620.8</ele>
<speed>3.0</speed>
<course>131.1</course>
<desc>Speed 3.0 km/h Distance 21.39 km</desc>
<time>2010-06-13T07:31:37.65</time>
<name>5035</name>
</trkpt>
<trkpt lat="49.217975" lon="11.780665">
<ele>619.9</ele>
<speed>2.1</speed>
<course>152.1</course>
<desc>Speed 2.1 km/h Distance 21.39 km</desc>
<time>2010-06-13T07:31:38.65</time>
<name>5036</name>
</trkpt>
<trkpt lat="49.217967" lon="11.780672">
<ele>619.3</ele>
<speed>2.0</speed>
<course>147.4</course>
<desc>Speed 2.0 km/h Distance 21.39 km</desc>
<time>2010-06-13T07:31:39.65</time>
<name>5037</name>
</trkpt>
<trkpt lat="49.217960" lon="11.780678">
<ele>618.6</ele>
<speed>0.8</speed>
<course>162.4</course>
<desc>Speed 0.8 km/h Distance 21.39 km</desc>
<time>2010-06-13T07:31:40.65</time>
<name>5038</name>
</trkpt>
<trkpt lat="49.217950" lon="11.780683">
<ele>620.3</ele>
<speed>3.3</speed>
<course>97.9</course>
<desc>Speed 3.3 km/h Distance 21.39 km</desc>
<time>2010-06-13T07:31:41.65</time>
<name>5039</name>
</trkpt>
<trkpt lat="49.217948" lon="11.780702">
<ele>619.5</ele>
<speed>4.1</speed>
<course>117.0</course>
<desc>Speed 4.1 km/h Distance 21.39 km</desc>
<time>2010-06-13T07:31:42.65</time>
<name>5040</name>
</trkpt>
<trkpt lat="49.217942" lon="11.780722">
<ele>620.1</ele>
<speed>4.8</speed>
<course>112.2</course>
<desc>Speed 4.8 km/h Distance 21.39 km</desc>
<time>2010-06-13T07:31:43.65</time>
<name>5041</name>
</trkpt>
<trkpt lat="49.217935" lon="11.780747">
<ele>620.8</ele>
<speed>3.7</speed>
<course>118.4</course>
<desc>Speed 3.7 km/h Distance 21.40 km</desc>
<time>2010-06-13T07:31:44.65</time>
<name>5042</name>
</trkpt>
<trkpt lat="49.217925" lon="11.780775">
<ele>621.0</ele>
<speed>4.6</speed>
<course>114.2</course>
<desc>Speed 4.6 km/h Distance 21.40 km</desc>
<time>2010-06-13T07:31:45.65</time>
<name>5043</name>
</trkpt>
<trkpt lat="49.217917" lon="11.780803">
<ele>621.6</ele>
<speed>4.9</speed>
<course>106.0</course>
<desc>Speed 4.9 km/h Distance 21.40 km</desc>
<time>2010-06-13T07:31:46.65</time>
<name>5044</name>
</trkpt>
<trkpt lat="49.217912" lon="11.780830">
<ele>621.9</ele>
<speed>3.6</speed>
<course>109.4</course>
<desc>Speed 3.6 km/h Distance 21.40 km</desc>
<time>2010-06-13T07:31:47.65</time>
<name>5045</name>
</trkpt>
<trkpt lat="49.217907" lon="11.780852">
<ele>622.5</ele>
<speed>3.5</speed>
<course>98.7</course>
<desc>Speed 3.5 km/h Distance 21.40 km</desc>
<time>2010-06-13T07:31:48.65</time>
<name>5046</name>
</trkpt>
<trkpt lat="49.217905" lon="11.780868">
<ele>622.6</ele>
<speed>3.4</speed>
<course>99.6</course>
<desc>Speed 3.4 km/h Distance 21.41 km</desc>
<time>2010-06-13T07:31:49.65</time>
<name>5047</name>
</trkpt>
<trkpt lat="49.217903" lon="11.780883">
<ele>623.1</ele>
<speed>3.2</speed>
<course>90.0</course>
<desc>Speed 3.2 km/h Distance 21.41 km</desc>
<time>2010-06-13T07:31:50.65</time>
<name>5048</name>
</trkpt>
<trkpt lat="49.217903" lon="11.780903">
<ele>623.3</ele>
<speed>3.2</speed>
<course>90.0</course>
<desc>Speed 3.2 km/h Distance 21.41 km</desc>
<time>2010-06-13T07:31:51.65</time>
<name>5049</name>
</trkpt>
<trkpt lat="49.217903" lon="11.780913">
<ele>623.9</ele>
<speed>2.7</speed>
<course>124.8</course>
<desc>Speed 2.7 km/h Distance 21.41 km</desc>
<time>2010-06-13T07:31:52.65</time>
<name>5050</name>
</trkpt>
<trkpt lat="49.217895" lon="11.780932">
<ele>623.3</ele>
<speed>4.6</speed>
<course>123.3</course>
<desc>Speed 4.6 km/h Distance 21.41 km</desc>
<time>2010-06-13T07:31:53.65</time>
<name>5051</name>
</trkpt>
<trkpt lat="49.217890" lon="11.780943">
<ele>623.6</ele>
<speed>4.0</speed>
<course>119.8</course>
<desc>Speed 4.0 km/h Distance 21.41 km</desc>
<time>2010-06-13T07:31:54.65</time>
<name>5052</name>
</trkpt>
<trkpt lat="49.217880" lon="11.780970">
<ele>623.7</ele>
<speed>3.4</speed>
<course>107.0</course>
<desc>Speed 3.4 km/h Distance 21.41 km</desc>
<time>2010-06-13T07:31:55.65</time>
<name>5053</name>
</trkpt>
<trkpt lat="49.217875" lon="11.780995">
<ele>624.5</ele>
<speed>1.9</speed>
<course>120.5</course>
<desc>Speed 1.9 km/h Distance 21.42 km</desc>
<time>2010-06-13T07:31:56.65</time>
<name>5054</name>
</trkpt>
<trkpt lat="49.217867" lon="11.781017">
<ele>624.6</ele>
<speed>3.5</speed>
<course>98.7</course>
<desc>Speed 3.5 km/h Distance 21.42 km</desc>
<time>2010-06-13T07:31:57.65</time>
<name>5055</name>
</trkpt>
<trkpt lat="49.217865" lon="11.781033">
<ele>625.4</ele>
<speed>4.0</speed>
<course>95.5</course>
<desc>Speed 4.0 km/h Distance 21.42 km</desc>
<time>2010-06-13T07:31:58.65</time>
<name>5056</name>
</trkpt>
<trkpt lat="49.217863" lon="11.781060">
<ele>627.0</ele>
<speed>4.1</speed>
<course>117.6</course>
<desc>Speed 4.1 km/h Distance 21.42 km</desc>
<time>2010-06-13T07:31:59.65</time>
<name>5057</name>
</trkpt>
<trkpt lat="49.217838" lon="11.781133">
<ele>629.7</ele>
<speed>6.3</speed>
<course>124.6</course>
<desc>Speed 6.3 km/h Distance 21.43 km</desc>
<time>2010-06-13T07:32:01.65</time>
<name>5058</name>
</trkpt>
<trkpt lat="49.217823" lon="11.781167">
<ele>630.2</ele>
<speed>6.3</speed>
<course>104.3</course>
<desc>Speed 6.3 km/h Distance 21.43 km</desc>
<time>2010-06-13T07:32:02.65</time>
<name>5059</name>
</trkpt>
<trkpt lat="49.217820" lon="11.781187">
<ele>629.8</ele>
<speed>3.8</speed>
<course>96.7</course>
<desc>Speed 3.8 km/h Distance 21.43 km</desc>
<time>2010-06-13T07:32:03.65</time>
<name>5060</name>
</trkpt>
<trkpt lat="49.217818" lon="11.781208">
<ele>629.3</ele>
<speed>3.5</speed>
<course>77.7</course>
<desc>Speed 3.5 km/h Distance 21.43 km</desc>
<time>2010-06-13T07:32:04.65</time>
<name>5061</name>
</trkpt>
<trkpt lat="49.217820" lon="11.781220">
<ele>628.5</ele>
<speed>4.1</speed>
<course>109.5</course>
<desc>Speed 4.1 km/h Distance 21.43 km</desc>
<time>2010-06-13T07:32:05.65</time>
<name>5062</name>
</trkpt>
<trkpt lat="49.217815" lon="11.781242">
<ele>628.1</ele>
<speed>3.3</speed>
<course>107.1</course>
<desc>Speed 3.3 km/h Distance 21.44 km</desc>
<time>2010-06-13T07:32:06.65</time>
<name>5063</name>
</trkpt>
<trkpt lat="49.217812" lon="11.781258">
<ele>627.9</ele>
<speed>2.3</speed>
<course>90.0</course>
<desc>Speed 2.3 km/h Distance 21.44 km</desc>
<time>2010-06-13T07:32:07.65</time>
<name>5064</name>
</trkpt>
<trkpt lat="49.217812" lon="11.781275">
<ele>627.2</ele>
<speed>4.6</speed>
<course>106.0</course>
<desc>Speed 4.6 km/h Distance 21.44 km</desc>
<time>2010-06-13T07:32:08.65</time>
<name>5065</name>
</trkpt>
<trkpt lat="49.217807" lon="11.781302">
<ele>626.9</ele>
<speed>3.7</speed>
<course>120.8</course>
<desc>Speed 3.7 km/h Distance 21.44 km</desc>
<time>2010-06-13T07:32:09.65</time>
<name>5066</name>
</trkpt>
<trkpt lat="49.217795" lon="11.781332">
<ele>627.0</ele>
<speed>5.7</speed>
<course>104.4</course>
<desc>Speed 5.7 km/h Distance 21.44 km</desc>
<time>2010-06-13T07:32:10.65</time>
<name>5067</name>
</trkpt>
<trkpt lat="49.217792" lon="11.781352">
<ele>626.6</ele>
<speed>3.9</speed>
<course>125.6</course>
<desc>Speed 3.9 km/h Distance 21.44 km</desc>
<time>2010-06-13T07:32:11.65</time>
<name>5068</name>
</trkpt>
<trkpt lat="49.217780" lon="11.781377">
<ele>626.9</ele>
<speed>2.8</speed>
<course>117.0</course>
<desc>Speed 2.8 km/h Distance 21.45 km</desc>
<time>2010-06-13T07:32:12.65</time>
<name>5069</name>
</trkpt>
<trkpt lat="49.217775" lon="11.781392">
<ele>626.6</ele>
<speed>4.0</speed>
<course>123.3</course>
<desc>Speed 4.0 km/h Distance 21.45 km</desc>
<time>2010-06-13T07:32:13.65</time>
<name>5070</name>
</trkpt>
<trkpt lat="49.217770" lon="11.781403">
<ele>626.7</ele>
<speed>3.5</speed>
<course>120.5</course>
<desc>Speed 3.5 km/h Distance 21.45 km</desc>
<time>2010-06-13T07:32:14.65</time>
<name>5071</name>
</trkpt>
<trkpt lat="49.217762" lon="11.781425">
<ele>626.7</ele>
<speed>3.9</speed>
<course>77.7</course>
<desc>Speed 3.9 km/h Distance 21.45 km</desc>
<time>2010-06-13T07:32:15.65</time>
<name>5072</name>
</trkpt>
<trkpt lat="49.217763" lon="11.781437">
<ele>627.1</ele>
<speed>3.9</speed>
<course>90.0</course>
<desc>Speed 3.9 km/h Distance 21.45 km</desc>
<time>2010-06-13T07:32:16.65</time>
<name>5073</name>
</trkpt>
<trkpt lat="49.217763" lon="11.781453">
<ele>626.9</ele>
<speed>2.2</speed>
<course>77.7</course>
<desc>Speed 2.2 km/h Distance 21.45 km</desc>
<time>2010-06-13T07:32:17.65</time>
<name>5074</name>
</trkpt>
<trkpt lat="49.217765" lon="11.781465">
<ele>626.9</ele>
<speed>3.0</speed>
<course>135.5</course>
<desc>Speed 3.0 km/h Distance 21.45 km</desc>
<time>2010-06-13T07:32:18.65</time>
<name>5075</name>
</trkpt>
<trkpt lat="49.217758" lon="11.781475">
<ele>626.6</ele>
<speed>3.3</speed>
<course>139.9</course>
<desc>Speed 3.3 km/h Distance 21.45 km</desc>
<time>2010-06-13T07:32:19.65</time>
<name>5076</name>
</trkpt>
<trkpt lat="49.217747" lon="11.781490">
<ele>626.0</ele>
<speed>4.4</speed>
<course>140.7</course>
<desc>Speed 4.4 km/h Distance 21.46 km</desc>
<time>2010-06-13T07:32:20.65</time>
<name>5077</name>
</trkpt>
<trkpt lat="49.217733" lon="11.781507">
<ele>625.6</ele>
<speed>5.4</speed>
<course>133.6</course>
<desc>Speed 5.4 km/h Distance 21.46 km</desc>
<time>2010-06-13T07:32:21.65</time>
<name>5078</name>
</trkpt>
<trkpt lat="49.217725" lon="11.781520">
<ele>625.1</ele>
<speed>3.8</speed>
<course>117.0</course>
<desc>Speed 3.8 km/h Distance 21.46 km</desc>
<time>2010-06-13T07:32:22.65</time>
<name>5079</name>
</trkpt>
<trkpt lat="49.217722" lon="11.781530">
<ele>625.6</ele>
<speed>1.9</speed>
<course>140.6</course>
<desc>Speed 1.9 km/h Distance 21.46 km</desc>
<time>2010-06-13T07:32:23.65</time>
<name>5080</name>
</trkpt>
<trkpt lat="49.217715" lon="11.781538">
<ele>625.9</ele>
<speed>3.4</speed>
<course>124.8</course>
<desc>Speed 3.4 km/h Distance 21.46 km</desc>
<time>2010-06-13T07:32:24.65</time>
<name>5081</name>
</trkpt>
<trkpt lat="49.217707" lon="11.781557">
<ele>625.8</ele>
<speed>5.3</speed>
<course>121.4</course>
<desc>Speed 5.3 km/h Distance 21.46 km</desc>
<time>2010-06-13T07:32:25.65</time>
<name>5082</name>
</trkpt>
<trkpt lat="49.217700" lon="11.781573">
<ele>626.2</ele>
<speed>2.6</speed>
<course>113.5</course>
<desc>Speed 2.6 km/h Distance 21.46 km</desc>
<time>2010-06-13T07:32:26.65</time>
<name>5083</name>
</trkpt>
<trkpt lat="49.217697" lon="11.781585">
<ele>626.5</ele>
<speed>3.2</speed>
<course>121.4</course>
<desc>Speed 3.2 km/h Distance 21.46 km</desc>
<time>2010-06-13T07:32:27.65</time>
<name>5084</name>
</trkpt>
<trkpt lat="49.217693" lon="11.781593">
<ele>626.7</ele>
<speed>2.4</speed>
<course>127.4</course>
<desc>Speed 2.4 km/h Distance 21.47 km</desc>
<time>2010-06-13T07:32:28.65</time>
<name>5085</name>
</trkpt>
<trkpt lat="49.217688" lon="11.781603">
<ele>627.0</ele>
<speed>1.8</speed>
<course>121.4</course>
<desc>Speed 1.8 km/h Distance 21.47 km</desc>
<time>2010-06-13T07:32:29.65</time>
<name>5086</name>
</trkpt>
<trkpt lat="49.217685" lon="11.781612">
<ele>626.6</ele>
<speed>1.1</speed>
<course>161.9</course>
<desc>Speed 1.1 km/h Distance 21.47 km</desc>
<time>2010-06-13T07:32:30.65</time>
<name>5087</name>
</trkpt>
<trkpt lat="49.217668" lon="11.781620">
<ele>627.2</ele>
<speed>1.1</speed>
<course>142.5</course>
<desc>Speed 1.1 km/h Distance 21.47 km</desc>
<time>2010-06-13T07:32:31.65</time>
<name>5088</name>
</trkpt>
<trkpt lat="49.217658" lon="11.781632">
<ele>626.1</ele>
<speed>1.0</speed>
<course>146.8</course>
<desc>Speed 1.0 km/h Distance 21.47 km</desc>
<time>2010-06-13T07:32:32.65</time>
<name>5089</name>
</trkpt>
<trkpt lat="49.217652" lon="11.781638">
<ele>625.3</ele>
<speed>0.3</speed>
<course>139.1</course>
<desc>Speed 0.3 km/h Distance 21.47 km</desc>
<time>2010-06-13T07:32:33.65</time>
<name>5090</name>
</trkpt>
<trkpt lat="49.217647" lon="11.781645">
<ele>624.6</ele>
<speed>0.1</speed>
<course>146.3</course>
<desc>Speed 0.1 km/h Distance 21.47 km</desc>
<time>2010-06-13T07:32:34.65</time>
<name>5091</name>
</trkpt>
<trkpt lat="49.217643" lon="11.781648">
<ele>624.0</ele>
<speed>0.1</speed>
<course>166.2</course>
<desc>Speed 0.1 km/h Distance 21.47 km</desc>
<time>2010-06-13T07:32:35.65</time>
<name>5092</name>
</trkpt>
<trkpt lat="49.217635" lon="11.781652">
<ele>622.1</ele>
<speed>0.1</speed>
<course>128.1</course>
<desc>Speed 0.1 km/h Distance 21.47 km</desc>
<time>2010-06-13T07:32:36.65</time>
<name>5093</name>
</trkpt>
<trkpt lat="49.217633" lon="11.781655">
<ele>621.8</ele>
<speed>0.3</speed>
<course>142.8</course>
<desc>Speed 0.3 km/h Distance 21.47 km</desc>
<time>2010-06-13T07:32:37.65</time>
<name>5094</name>
</trkpt>
<trkpt lat="49.217632" lon="11.781657">
<ele>622.0</ele>
<speed>0.1</speed>
<course>128.1</course>
<desc>Speed 0.1 km/h Distance 21.47 km</desc>
<time>2010-06-13T07:32:38.65</time>
<name>5095</name>
</trkpt>
<trkpt lat="49.217630" lon="11.781660">
<ele>622.5</ele>
<speed>0.3</speed>
<course>121.4</course>
<desc>Speed 0.3 km/h Distance 21.47 km</desc>
<time>2010-06-13T07:32:39.65</time>
<name>5096</name>
</trkpt>
<trkpt lat="49.217627" lon="11.781668">
<ele>622.0</ele>
<speed>0.4</speed>
<course>252.9</course>
<desc>Speed 0.4 km/h Distance 21.48 km</desc>
<time>2010-06-13T07:32:40.65</time>
<name>5097</name>
</trkpt>
<trkpt lat="49.217625" lon="11.781660">
<ele>622.1</ele>
<speed>0.2</speed>
<course>252.9</course>
<desc>Speed 0.2 km/h Distance 21.48 km</desc>
<time>2010-06-13T07:32:41.65</time>
<name>5098</name>
</trkpt>
<trkpt lat="49.217623" lon="11.781652">
<ele>622.9</ele>
<speed>0.6</speed>
<course>270.0</course>
<desc>Speed 0.6 km/h Distance 21.48 km</desc>
<time>2010-06-13T07:32:42.65</time>
<name>5099</name>
</trkpt>
<trkpt lat="49.217623" lon="11.781645">
<ele>624.1</ele>
<speed>0.5</speed>
<course>249.1</course>
<desc>Speed 0.5 km/h Distance 21.48 km</desc>
<time>2010-06-13T07:32:43.65</time>
<name>5100</name>
</trkpt>
<trkpt lat="49.217622" lon="11.781638">
<ele>624.7</ele>
<speed>0.4</speed>
<course>270.0</course>
<desc>Speed 0.4 km/h Distance 21.48 km</desc>
<time>2010-06-13T07:32:44.65</time>
<name>5101</name>
</trkpt>
<trkpt lat="49.217622" lon="11.781633">
<ele>624.9</ele>
<speed>0.6</speed>
<course>293.6</course>
<desc>Speed 0.6 km/h Distance 21.48 km</desc>
<time>2010-06-13T07:32:45.65</time>
<name>5102</name>
</trkpt>
<trkpt lat="49.217625" lon="11.781622">
<ele>625.5</ele>
<speed>1.2</speed>
<course>290.9</course>
<desc>Speed 1.2 km/h Distance 21.48 km</desc>
<time>2010-06-13T07:32:46.65</time>
<name>5103</name>
</trkpt>
<trkpt lat="49.217627" lon="11.781615">
<ele>625.9</ele>
<speed>0.9</speed>
<course>252.9</course>
<desc>Speed 0.9 km/h Distance 21.48 km</desc>
<time>2010-06-13T07:32:47.65</time>
<name>5104</name>
</trkpt>
<trkpt lat="49.217625" lon="11.781607">
<ele>626.3</ele>
<speed>0.8</speed>
<course>243.0</course>
<desc>Speed 0.8 km/h Distance 21.48 km</desc>
<time>2010-06-13T07:32:48.65</time>
<name>5105</name>
</trkpt>
<trkpt lat="49.217622" lon="11.781597">
<ele>627.3</ele>
<speed>0.4</speed>
<course>243.0</course>
<desc>Speed 0.4 km/h Distance 21.48 km</desc>
<time>2010-06-13T07:32:49.65</time>
<name>5106</name>
</trkpt>
<trkpt lat="49.217617" lon="11.781582">
<ele>629.8</ele>
<speed>0.5</speed>
<course>243.0</course>
<desc>Speed 0.5 km/h Distance 21.48 km</desc>
<time>2010-06-13T07:32:50.65</time>
<name>5107</name>
</trkpt>
<trkpt lat="49.217617" lon="11.781582">
<ele>630.1</ele>
<speed>0.6</speed>
<course>150.8</course>
<desc>Speed 0.6 km/h Distance 21.48 km</desc>
<time>2010-06-13T07:32:51.65</time>
<name>5108</name>
</trkpt>
<trkpt lat="49.217615" lon="11.781583">
<ele>630.6</ele>
<speed>1.4</speed>
<course>243.0</course>
<desc>Speed 1.4 km/h Distance 21.48 km</desc>
<time>2010-06-13T07:32:52.65</time>
<name>5109</name>
</trkpt>
<trkpt lat="49.217612" lon="11.781573">
<ele>631.8</ele>
<speed>0.6</speed>
<course>312.3</course>
<desc>Speed 0.6 km/h Distance 21.48 km</desc>
<time>2010-06-13T07:32:53.65</time>
<name>5110</name>
</trkpt>
<trkpt lat="49.217643" lon="11.781520">
<ele>633.2</ele>
<speed>0.1</speed>
<course>315.5</course>
<desc>Speed 0.1 km/h Distance 21.49 km</desc>
<time>2010-06-13T07:32:55.65</time>
<name>5111</name>
</trkpt>
<trkpt lat="49.217647" lon="11.781515">
<ele>632.7</ele>
<speed>1.4</speed>
<course>108.8</course>
<desc>Speed 1.4 km/h Distance 21.49 km</desc>
<time>2010-06-13T07:32:56.65</time>
<name>5112</name>
</trkpt>
<trkpt lat="49.217643" lon="11.781530">
<ele>631.9</ele>
<speed>2.7</speed>
<course>62.6</course>
<desc>Speed 2.7 km/h Distance 21.49 km</desc>
<time>2010-06-13T07:32:57.65</time>
<name>5113</name>
</trkpt>
<trkpt lat="49.217645" lon="11.781535">
<ele>632.9</ele>
<speed>0.9</speed>
<course>126.8</course>
<desc>Speed 0.9 km/h Distance 21.49 km</desc>
<time>2010-06-13T07:32:58.65</time>
<name>5114</name>
</trkpt>
<trkpt lat="49.217608" lon="11.781610">
<ele>633.1</ele>
<speed>2.9</speed>
<course>153.6</course>
<desc>Speed 2.9 km/h Distance 21.50 km</desc>
<time>2010-06-13T07:33:00.65</time>
<name>5115</name>
</trkpt>
<trkpt lat="49.217602" lon="11.781615">
<ele>633.5</ele>
<speed>3.2</speed>
<course>167.4</course>
<desc>Speed 3.2 km/h Distance 21.50 km</desc>
<time>2010-06-13T07:33:01.65</time>
<name>5116</name>
</trkpt>
<trkpt lat="49.217587" lon="11.781620">
<ele>635.0</ele>
<speed>1.4</speed>
<course>166.5</course>
<desc>Speed 1.4 km/h Distance 21.50 km</desc>
<time>2010-06-13T07:33:02.65</time>
<name>5117</name>
</trkpt>
<trkpt lat="49.217573" lon="11.781625">
<ele>637.3</ele>
<speed>1.2</speed>
<course>291.0</course>
<desc>Speed 1.2 km/h Distance 21.50 km</desc>
<time>2010-06-13T07:33:03.65</time>
<name>5118</name>
</trkpt>
<trkpt lat="49.217578" lon="11.781605">
<ele>638.3</ele>
<speed>0.4</speed>
<course>255.6</course>
<desc>Speed 0.4 km/h Distance 21.50 km</desc>
<time>2010-06-13T07:33:04.65</time>
<name>5119</name>
</trkpt>
<trkpt lat="49.217577" lon="11.781595">
<ele>640.5</ele>
<speed>0.4</speed>
<course>288.4</course>
<desc>Speed 0.4 km/h Distance 21.50 km</desc>
<time>2010-06-13T07:33:05.65</time>
<name>5120</name>
</trkpt>
<trkpt lat="49.217585" lon="11.781557">
<ele>641.4</ele>
<speed>0.3</speed>
<course>169.8</course>
<desc>Speed 0.3 km/h Distance 21.51 km</desc>
<time>2010-06-13T07:33:07.65</time>
<name>5121</name>
</trkpt>
<trkpt lat="49.217567" lon="11.781562">
<ele>643.0</ele>
<speed>0.2</speed>
<course>170.4</course>
<desc>Speed 0.2 km/h Distance 21.51 km</desc>
<time>2010-06-13T07:33:08.65</time>
<name>5122</name>
</trkpt>
<trkpt lat="49.217558" lon="11.781563">
<ele>640.6</ele>
<speed>1.0</speed>
<course>187.7</course>
<desc>Speed 1.0 km/h Distance 21.51 km</desc>
<time>2010-06-13T07:33:09.65</time>
<name>5123</name>
</trkpt>
<trkpt lat="49.217550" lon="11.781562">
<ele>640.7</ele>
<speed>0.3</speed>
<course>156.2</course>
<desc>Speed 0.3 km/h Distance 21.51 km</desc>
<time>2010-06-13T07:33:10.65</time>
<name>5124</name>
</trkpt>
<trkpt lat="49.217545" lon="11.781565">
<ele>639.6</ele>
<speed>0.2</speed>
<course>117.0</course>
<desc>Speed 0.2 km/h Distance 21.51 km</desc>
<time>2010-06-13T07:33:11.65</time>
<name>5125</name>
</trkpt>
<trkpt lat="49.217542" lon="11.781575">
<ele>638.7</ele>
<speed>0.3</speed>
<course>127.3</course>
<desc>Speed 0.3 km/h Distance 21.51 km</desc>
<time>2010-06-13T07:33:12.65</time>
<name>5126</name>
</trkpt>
<trkpt lat="49.217535" lon="11.781588">
<ele>638.7</ele>
<speed>0.2</speed>
<course>139.8</course>
<desc>Speed 0.2 km/h Distance 21.51 km</desc>
<time>2010-06-13T07:33:13.65</time>
<name>5127</name>
</trkpt>
<trkpt lat="49.217523" lon="11.781603">
<ele>639.0</ele>
<speed>0.1</speed>
<course>121.4</course>
<desc>Speed 0.1 km/h Distance 21.51 km</desc>
<time>2010-06-13T07:33:14.65</time>
<name>5128</name>
</trkpt>
<trkpt lat="49.217520" lon="11.781612">
<ele>639.7</ele>
<speed>0.1</speed>
<course>332.1</course>
<desc>Speed 0.1 km/h Distance 21.52 km</desc>
<time>2010-06-13T07:33:15.65</time>
<name>5129</name>
</trkpt>
<trkpt lat="49.217528" lon="11.781605">
<ele>640.1</ele>
<speed>0.4</speed>
<course>326.3</course>
<desc>Speed 0.4 km/h Distance 21.52 km</desc>
<time>2010-06-13T07:33:16.65</time>
<name>5130</name>
</trkpt>
<trkpt lat="49.217535" lon="11.781598">
<ele>640.3</ele>
<speed>0.3</speed>
<course>334.8</course>
<desc>Speed 0.3 km/h Distance 21.52 km</desc>
<time>2010-06-13T07:33:17.65</time>
<name>5131</name>
</trkpt>
<trkpt lat="49.217547" lon="11.781590">
<ele>640.6</ele>
<speed>0.3</speed>
<course>326.3</course>
<desc>Speed 0.3 km/h Distance 21.52 km</desc>
<time>2010-06-13T07:33:18.65</time>
<name>5132</name>
</trkpt>
<trkpt lat="49.217550" lon="11.781587">
<ele>640.5</ele>
<speed>0.3</speed>
<course>330.8</course>
<desc>Speed 0.3 km/h Distance 21.52 km</desc>
<time>2010-06-13T07:33:19.65</time>
<name>5133</name>
</trkpt>
<trkpt lat="49.217552" lon="11.781585">
<ele>640.2</ele>
<speed>0.2</speed>
<course>315.5</course>
<desc>Speed 0.2 km/h Distance 21.52 km</desc>
<time>2010-06-13T07:33:20.65</time>
<name>5134</name>
</trkpt>
<trkpt lat="49.217555" lon="11.781580">
<ele>640.1</ele>
<speed>0.2</speed>
<course>347.4</course>
<desc>Speed 0.2 km/h Distance 21.52 km</desc>
<time>2010-06-13T07:33:21.84</time>
<name>5135</name>
</trkpt>
<trkpt lat="49.217558" lon="11.781578">
<ele>639.8</ele>
<speed>0.4</speed>
<course>308.1</course>
<desc>Speed 0.4 km/h Distance 21.52 km</desc>
<time>2010-06-13T07:33:22.65</time>
<name>5136</name>
</trkpt>
<trkpt lat="49.217560" lon="11.781575">
<ele>639.3</ele>
<speed>0.7</speed>
<course>330.8</course>
<desc>Speed 0.7 km/h Distance 21.52 km</desc>
<time>2010-06-13T07:33:23.65</time>
<name>5137</name>
</trkpt>
<trkpt lat="49.217562" lon="11.781573">
<ele>638.8</ele>
<speed>0.8</speed>
<course>326.3</course>
<desc>Speed 0.8 km/h Distance 21.52 km</desc>
<time>2010-06-13T07:33:24.65</time>
<name>5138</name>
</trkpt>
<trkpt lat="49.217565" lon="11.781570">
<ele>638.2</ele>
<speed>0.9</speed>
<course>322.8</course>
<desc>Speed 0.9 km/h Distance 21.52 km</desc>
<time>2010-06-13T07:33:25.65</time>
<name>5139</name>
</trkpt>
<trkpt lat="49.217567" lon="11.781568">
<ele>637.6</ele>
<speed>0.8</speed>
<course>322.8</course>
<desc>Speed 0.8 km/h Distance 21.52 km</desc>
<time>2010-06-13T07:33:26.65</time>
<name>5140</name>
</trkpt>
<trkpt lat="49.217568" lon="11.781567">
<ele>637.0</ele>
<speed>0.8</speed>
<course>347.4</course>
<desc>Speed 0.8 km/h Distance 21.52 km</desc>
<time>2010-06-13T07:33:27.65</time>
<name>5141</name>
</trkpt>
<trkpt lat="49.217570" lon="11.781565">
<ele>636.5</ele>
<speed>0.9</speed>
<course>347.4</course>
<desc>Speed 0.9 km/h Distance 21.52 km</desc>
<time>2010-06-13T07:33:28.65</time>
<name>5142</name>
</trkpt>
<trkpt lat="49.217570" lon="11.781565">
<ele>636.0</ele>
<speed>0.3</speed>
<course>347.4</course>
<desc>Speed 0.3 km/h Distance 21.52 km</desc>
<time>2010-06-13T07:33:29.65</time>
<name>5143</name>
</trkpt>
<trkpt lat="49.217570" lon="11.781565">
<ele>635.5</ele>
<speed>0.5</speed>
<course>327.7</course>
<desc>Speed 0.5 km/h Distance 21.52 km</desc>
<time>2010-06-13T07:33:30.65</time>
<name>5144</name>
</trkpt>
<trkpt lat="49.217575" lon="11.781560">
<ele>635.0</ele>
<speed>0.2</speed>
<course>341.2</course>
<desc>Speed 0.2 km/h Distance 21.52 km</desc>
<time>2010-06-13T07:33:31.65</time>
<name>5145</name>
</trkpt>
<trkpt lat="49.217578" lon="11.781558">
<ele>634.6</ele>
<speed>0.2</speed>
<course>90.0</course>
<desc>Speed 0.2 km/h Distance 21.52 km</desc>
<time>2010-06-13T07:33:32.65</time>
<name>5146</name>
</trkpt>
<trkpt lat="49.217578" lon="11.781560">
<ele>634.2</ele>
<speed>0.2</speed>
<course>12.6</course>
<desc>Speed 0.2 km/h Distance 21.52 km</desc>
<time>2010-06-13T07:33:33.65</time>
<name>5147</name>
</trkpt>
<trkpt lat="49.217580" lon="11.781560">
<ele>633.9</ele>
<speed>0.2</speed>
<course>37.2</course>
<desc>Speed 0.2 km/h Distance 21.52 km</desc>
<time>2010-06-13T07:33:34.65</time>
<name>5148</name>
</trkpt>
<trkpt lat="49.217582" lon="11.781562">
<ele>633.7</ele>
<speed>0.2</speed>
<course>90.0</course>
<desc>Speed 0.2 km/h Distance 21.52 km</desc>
<time>2010-06-13T07:33:35.65</time>
<name>5149</name>
</trkpt>
<trkpt lat="49.217582" lon="11.781563">
<ele>633.4</ele>
<speed>0.2</speed>
<course>29.2</course>
<desc>Speed 0.2 km/h Distance 21.52 km</desc>
<time>2010-06-13T07:33:36.65</time>
<name>5150</name>
</trkpt>
<trkpt lat="49.217583" lon="11.781565">
<ele>633.2</ele>
<speed>0.2</speed>
<course>90.0</course>
<desc>Speed 0.2 km/h Distance 21.52 km</desc>
<time>2010-06-13T07:33:37.65</time>
<name>5151</name>
</trkpt>
<trkpt lat="49.217583" lon="11.781568">
<ele>633.0</ele>
<speed>0.2</speed>
<course>90.0</course>
<desc>Speed 0.2 km/h Distance 21.52 km</desc>
<time>2010-06-13T07:33:38.65</time>
<name>5152</name>
</trkpt>
<trkpt lat="49.217583" lon="11.781570">
<ele>632.9</ele>
<speed>0.2</speed>
<course>90.0</course>
<desc>Speed 0.2 km/h Distance 21.52 km</desc>
<time>2010-06-13T07:33:39.65</time>
<name>5153</name>
</trkpt>
<trkpt lat="49.217583" lon="11.781573">
<ele>632.7</ele>
<speed>0.1</speed>
<course>209.2</course>
<desc>Speed 0.1 km/h Distance 21.52 km</desc>
<time>2010-06-13T07:33:40.65</time>
<name>5154</name>
</trkpt>
<trkpt lat="49.217582" lon="11.781572">
<ele>632.7</ele>
<speed>0.1</speed>
<course>209.2</course>
<desc>Speed 0.1 km/h Distance 21.52 km</desc>
<time>2010-06-13T07:33:41.65</time>
<name>5155</name>
</trkpt>
<trkpt lat="49.217582" lon="11.781572">
<ele>632.7</ele>
<speed>0.1</speed>
<course>270.0</course>
<desc>Speed 0.1 km/h Distance 21.52 km</desc>
<time>2010-06-13T07:33:42.65</time>
<name>5156</name>
</trkpt>
<trkpt lat="49.217582" lon="11.781570">
<ele>632.9</ele>
<speed>0.6</speed>
<course>270.0</course>
<desc>Speed 0.6 km/h Distance 21.52 km</desc>
<time>2010-06-13T07:33:43.65</time>
<name>5157</name>
</trkpt>
<trkpt lat="49.217582" lon="11.781570">
<ele>632.8</ele>
<speed>0.3</speed>
<course>270.0</course>
<desc>Speed 0.3 km/h Distance 21.52 km</desc>
<time>2010-06-13T07:33:44.65</time>
<name>5158</name>
</trkpt>
<trkpt lat="49.217582" lon="11.781570">
<ele>632.9</ele>
<speed>0.4</speed>
<course>121.4</course>
<desc>Speed 0.4 km/h Distance 21.52 km</desc>
<time>2010-06-13T07:33:45.65</time>
<name>5159</name>
</trkpt>
<trkpt lat="49.217578" lon="11.781578">
<ele>633.3</ele>
<speed>0.4</speed>
<course>107.1</course>
<desc>Speed 0.4 km/h Distance 21.53 km</desc>
<time>2010-06-13T07:33:46.65</time>
<name>5160</name>
</trkpt>
<trkpt lat="49.217577" lon="11.781587">
<ele>634.6</ele>
<speed>0.3</speed>
<course>128.1</course>
<desc>Speed 0.3 km/h Distance 21.53 km</desc>
<time>2010-06-13T07:33:47.65</time>
<name>5161</name>
</trkpt>
<trkpt lat="49.217575" lon="11.781590">
<ele>634.7</ele>
<speed>0.4</speed>
<course>270.0</course>
<desc>Speed 0.4 km/h Distance 21.53 km</desc>
<time>2010-06-13T07:33:48.65</time>
<name>5162</name>
</trkpt>
<trkpt lat="49.217575" lon="11.781585">
<ele>636.9</ele>
<speed>0.2</speed>
<course>326.3</course>
<desc>Speed 0.2 km/h Distance 21.53 km</desc>
<time>2010-06-13T07:33:49.65</time>
<name>5163</name>
</trkpt>
<trkpt lat="49.217578" lon="11.781582">
<ele>637.5</ele>
<speed>1.6</speed>
<course>44.5</course>
<desc>Speed 1.6 km/h Distance 21.53 km</desc>
<time>2010-06-13T07:33:50.65</time>
<name>5164</name>
</trkpt>
<trkpt lat="49.217582" lon="11.781587">
<ele>638.3</ele>
<speed>1.3</speed>
<course>270.0</course>
<desc>Speed 1.3 km/h Distance 21.53 km</desc>
<time>2010-06-13T07:33:51.65</time>
<name>5165</name>
</trkpt>
<trkpt lat="49.217582" lon="11.781572">
<ele>640.3</ele>
<speed>1.3</speed>
<course>217.2</course>
<desc>Speed 1.3 km/h Distance 21.53 km</desc>
<time>2010-06-13T07:33:52.65</time>
<name>5166</name>
</trkpt>
<trkpt lat="49.217580" lon="11.781570">
<ele>640.6</ele>
<speed>1.4</speed>
<course>173.7</course>
<desc>Speed 1.4 km/h Distance 21.53 km</desc>
<time>2010-06-13T07:33:53.65</time>
<name>5167</name>
</trkpt>
<trkpt lat="49.217568" lon="11.781572">
<ele>640.4</ele>
<speed>2.0</speed>
<course>192.6</course>
<desc>Speed 2.0 km/h Distance 21.53 km</desc>
<time>2010-06-13T07:33:54.65</time>
<name>5168</name>
</trkpt>
<trkpt lat="49.217558" lon="11.781568">
<ele>640.9</ele>
<speed>1.9</speed>
<course>159.8</course>
<desc>Speed 1.9 km/h Distance 21.53 km</desc>
<time>2010-06-13T07:33:55.65</time>
<name>5169</name>
</trkpt>
<trkpt lat="49.217547" lon="11.781575">
<ele>640.0</ele>
<speed>1.6</speed>
<course>175.6</course>
<desc>Speed 1.6 km/h Distance 21.53 km</desc>
<time>2010-06-13T07:33:56.65</time>
<name>5170</name>
</trkpt>
<trkpt lat="49.217537" lon="11.781575">
<ele>640.1</ele>
<speed>1.5</speed>
<course>270.0</course>
<desc>Speed 1.5 km/h Distance 21.53 km</desc>
<time>2010-06-13T07:33:57.65</time>
<name>5171</name>
</trkpt>
<trkpt lat="49.217537" lon="11.781573">
<ele>640.6</ele>
<speed>0.8</speed>
<course>108.7</course>
<desc>Speed 0.8 km/h Distance 21.53 km</desc>
<time>2010-06-13T07:33:58.65</time>
<name>5172</name>
</trkpt>
<trkpt lat="49.217533" lon="11.781588">
<ele>640.9</ele>
<speed>2.0</speed>
<course>29.8</course>
<desc>Speed 2.0 km/h Distance 21.54 km</desc>
<time>2010-06-13T07:33:59.65</time>
<name>5173</name>
</trkpt>
<trkpt lat="49.217547" lon="11.781600">
<ele>641.9</ele>
<speed>2.3</speed>
<course>142.8</course>
<desc>Speed 2.3 km/h Distance 21.54 km</desc>
<time>2010-06-13T07:34:00.65</time>
<name>5174</name>
</trkpt>
<trkpt lat="49.217545" lon="11.781602">
<ele>641.9</ele>
<speed>1.6</speed>
<course>112.7</course>
<desc>Speed 1.6 km/h Distance 21.54 km</desc>
<time>2010-06-13T07:34:01.65</time>
<name>5175</name>
</trkpt>
<trkpt lat="49.217540" lon="11.781620">
<ele>641.3</ele>
<speed>2.0</speed>
<course>155.3</course>
<desc>Speed 2.0 km/h Distance 21.54 km</desc>
<time>2010-06-13T07:34:03.65</time>
<name>5176</name>
</trkpt>
<trkpt lat="49.217523" lon="11.781632">
<ele>642.9</ele>
<speed>1.7</speed>
<course>227.4</course>
<desc>Speed 1.7 km/h Distance 21.54 km</desc>
<time>2010-06-13T07:34:04.65</time>
<name>5177</name>
</trkpt>
<trkpt lat="49.217518" lon="11.781623">
<ele>641.3</ele>
<speed>2.0</speed>
<course>71.8</course>
<desc>Speed 2.0 km/h Distance 21.54 km</desc>
<time>2010-06-13T07:34:05.65</time>
<name>5178</name>
</trkpt>
<trkpt lat="49.217523" lon="11.781647">
<ele>641.8</ele>
<speed>4.4</speed>
<course>83.3</course>
<desc>Speed 4.4 km/h Distance 21.54 km</desc>
<time>2010-06-13T07:34:06.65</time>
<name>5179</name>
</trkpt>
<trkpt lat="49.217525" lon="11.781668">
<ele>641.9</ele>
<speed>6.8</speed>
<course>104.9</course>
<desc>Speed 6.8 km/h Distance 21.55 km</desc>
<time>2010-06-13T07:34:07.65</time>
<name>5180</name>
</trkpt>
<trkpt lat="49.217518" lon="11.781707">
<ele>640.2</ele>
<speed>5.5</speed>
<course>128.7</course>
<desc>Speed 5.5 km/h Distance 21.55 km</desc>
<time>2010-06-13T07:34:08.65</time>
<name>5181</name>
</trkpt>
<trkpt lat="49.217500" lon="11.781742">
<ele>639.3</ele>
<speed>5.9</speed>
<course>74.9</course>
<desc>Speed 5.9 km/h Distance 21.55 km</desc>
<time>2010-06-13T07:34:09.65</time>
<name>5182</name>
</trkpt>
<trkpt lat="49.217505" lon="11.781770">
<ele>638.2</ele>
<speed>5.6</speed>
<course>50.7</course>
<desc>Speed 5.6 km/h Distance 21.55 km</desc>
<time>2010-06-13T07:34:10.65</time>
<name>5183</name>
</trkpt>
<trkpt lat="49.217518" lon="11.781795">
<ele>637.3</ele>
<speed>5.9</speed>
<course>120.1</course>
<desc>Speed 5.9 km/h Distance 21.56 km</desc>
<time>2010-06-13T07:34:11.65</time>
<name>5184</name>
</trkpt>
<trkpt lat="49.217482" lon="11.781892">
<ele>637.8</ele>
<speed>8.0</speed>
<course>137.2</course>
<desc>Speed 8.0 km/h Distance 21.56 km</desc>
<time>2010-06-13T07:34:13.65</time>
<name>5185</name>
</trkpt>
<trkpt lat="49.217462" lon="11.781920">
<ele>639.1</ele>
<speed>9.6</speed>
<course>131.5</course>
<desc>Speed 9.6 km/h Distance 21.57 km</desc>
<time>2010-06-13T07:34:14.65</time>
<name>5186</name>
</trkpt>
<trkpt lat="49.217437" lon="11.781963">
<ele>637.8</ele>
<speed>9.4</speed>
<course>142.6</course>
<desc>Speed 9.4 km/h Distance 21.57 km</desc>
<time>2010-06-13T07:34:15.65</time>
<name>5187</name>
</trkpt>
<trkpt lat="49.217378" lon="11.782032">
<ele>636.3</ele>
<speed>9.0</speed>
<course>126.3</course>
<desc>Speed 9.0 km/h Distance 21.58 km</desc>
<time>2010-06-13T07:34:17.65</time>
<name>5188</name>
</trkpt>
<trkpt lat="49.217358" lon="11.782073">
<ele>633.4</ele>
<speed>10.9</speed>
<course>113.9</course>
<desc>Speed 10.9 km/h Distance 21.58 km</desc>
<time>2010-06-13T07:34:18.65</time>
<name>5189</name>
</trkpt>
<trkpt lat="49.217340" lon="11.782137">
<ele>631.7</ele>
<speed>10.9</speed>
<course>99.3</course>
<desc>Speed 10.9 km/h Distance 21.59 km</desc>
<time>2010-06-13T07:34:19.65</time>
<name>5190</name>
</trkpt>
<trkpt lat="49.217335" lon="11.782183">
<ele>630.4</ele>
<speed>10.0</speed>
<course>101.8</course>
<desc>Speed 10.0 km/h Distance 21.59 km</desc>
<time>2010-06-13T07:34:20.65</time>
<name>5191</name>
</trkpt>
<trkpt lat="49.217330" lon="11.782220">
<ele>627.9</ele>
<speed>11.5</speed>
<course>128.3</course>
<desc>Speed 11.5 km/h Distance 21.59 km</desc>
<time>2010-06-13T07:34:21.65</time>
<name>5192</name>
</trkpt>
<trkpt lat="49.217303" lon="11.782272">
<ele>626.4</ele>
<speed>13.1</speed>
<course>134.7</course>
<desc>Speed 13.1 km/h Distance 21.60 km</desc>
<time>2010-06-13T07:34:22.65</time>
<name>5193</name>
</trkpt>
<trkpt lat="49.217230" lon="11.782385">
<ele>623.5</ele>
<speed>15.7</speed>
<course>114.9</course>
<desc>Speed 15.7 km/h Distance 21.61 km</desc>
<time>2010-06-13T07:34:24.65</time>
<name>5194</name>
</trkpt>
<trkpt lat="49.217213" lon="11.782440">
<ele>621.9</ele>
<speed>13.6</speed>
<course>106.6</course>
<desc>Speed 13.6 km/h Distance 21.61 km</desc>
<time>2010-06-13T07:34:25.65</time>
<name>5195</name>
</trkpt>
<trkpt lat="49.217200" lon="11.782508">
<ele>619.3</ele>
<speed>15.0</speed>
<course>123.5</course>
<desc>Speed 15.0 km/h Distance 21.62 km</desc>
<time>2010-06-13T07:34:26.65</time>
<name>5196</name>
</trkpt>
<trkpt lat="49.217132" lon="11.782667">
<ele>612.3</ele>
<speed>18.5</speed>
<course>111.6</course>
<desc>Speed 18.5 km/h Distance 21.63 km</desc>
<time>2010-06-13T07:34:28.65</time>
<name>5197</name>
</trkpt>
<trkpt lat="49.217108" lon="11.782757">
<ele>609.0</ele>
<speed>21.3</speed>
<course>123.6</course>
<desc>Speed 21.3 km/h Distance 21.64 km</desc>
<time>2010-06-13T07:34:29.65</time>
<name>5198</name>
</trkpt>
<trkpt lat="49.217070" lon="11.782845">
<ele>607.0</ele>
<speed>20.8</speed>
<course>134.9</course>
<desc>Speed 20.8 km/h Distance 21.65 km</desc>
<time>2010-06-13T07:34:30.65</time>
<name>5199</name>
</trkpt>
<trkpt lat="49.216777" lon="11.783295">
<ele>599.9</ele>
<speed>26.0</speed>
<course>116.7</course>
<desc>Speed 26.0 km/h Distance 21.69 km</desc>
<time>2010-06-13T07:34:34.65</time>
<name>5200</name>
</trkpt>
<trkpt lat="49.216705" lon="11.783513">
<ele>599.7</ele>
<speed>26.7</speed>
<course>109.2</course>
<desc>Speed 26.7 km/h Distance 21.71 km</desc>
<time>2010-06-13T07:34:36.65</time>
<name>5201</name>
</trkpt>
<trkpt lat="49.216683" lon="11.783608">
<ele>598.9</ele>
<speed>24.7</speed>
<course>105.6</course>
<desc>Speed 24.7 km/h Distance 21.72 km</desc>
<time>2010-06-13T07:34:37.65</time>
<name>5202</name>
</trkpt>
<trkpt lat="49.216663" lon="11.783718">
<ele>599.5</ele>
<speed>23.8</speed>
<course>113.0</course>
<desc>Speed 23.8 km/h Distance 21.73 km</desc>
<time>2010-06-13T07:34:38.65</time>
<name>5203</name>
</trkpt>
<trkpt lat="49.216633" lon="11.783827">
<ele>598.8</ele>
<speed>23.0</speed>
<course>96.4</course>
<desc>Speed 23.0 km/h Distance 21.74 km</desc>
<time>2010-06-13T07:34:39.65</time>
<name>5204</name>
</trkpt>
<trkpt lat="49.216627" lon="11.783918">
<ele>596.5</ele>
<speed>22.8</speed>
<course>111.3</course>
<desc>Speed 22.8 km/h Distance 21.74 km</desc>
<time>2010-06-13T07:34:40.65</time>
<name>5205</name>
</trkpt>
<trkpt lat="49.216605" lon="11.784003">
<ele>594.9</ele>
<speed>23.6</speed>
<course>116.2</course>
<desc>Speed 23.6 km/h Distance 21.75 km</desc>
<time>2010-06-13T07:34:41.65</time>
<name>5206</name>
</trkpt>
<trkpt lat="49.216575" lon="11.784097">
<ele>595.0</ele>
<speed>26.3</speed>
<course>117.0</course>
<desc>Speed 26.3 km/h Distance 21.76 km</desc>
<time>2010-06-13T07:34:42.65</time>
<name>5207</name>
</trkpt>
<trkpt lat="49.216543" lon="11.784192">
<ele>596.2</ele>
<speed>28.7</speed>
<course>109.7</course>
<desc>Speed 28.7 km/h Distance 21.77 km</desc>
<time>2010-06-13T07:34:43.65</time>
<name>5208</name>
</trkpt>
<trkpt lat="49.216513" lon="11.784320">
<ele>596.5</ele>
<speed>31.0</speed>
<course>112.9</course>
<desc>Speed 31.0 km/h Distance 21.78 km</desc>
<time>2010-06-13T07:34:44.65</time>
<name>5209</name>
</trkpt>
<trkpt lat="49.216482" lon="11.784435">
<ele>597.6</ele>
<speed>29.2</speed>
<course>111.5</course>
<desc>Speed 29.2 km/h Distance 21.78 km</desc>
<time>2010-06-13T07:34:45.65</time>
<name>5210</name>
</trkpt>
<trkpt lat="49.216453" lon="11.784545">
<ele>599.0</ele>
<speed>26.6</speed>
<course>93.8</course>
<desc>Speed 26.6 km/h Distance 21.79 km</desc>
<time>2010-06-13T07:34:46.65</time>
<name>5211</name>
</trkpt>
<trkpt lat="49.216450" lon="11.784622">
<ele>597.8</ele>
<speed>22.1</speed>
<course>107.8</course>
<desc>Speed 22.1 km/h Distance 21.80 km</desc>
<time>2010-06-13T07:34:47.65</time>
<name>5212</name>
</trkpt>
<trkpt lat="49.216435" lon="11.784693">
<ele>598.1</ele>
<speed>18.7</speed>
<course>122.9</course>
<desc>Speed 18.7 km/h Distance 21.80 km</desc>
<time>2010-06-13T07:34:48.65</time>
<name>5213</name>
</trkpt>
<trkpt lat="49.216403" lon="11.784768">
<ele>598.7</ele>
<speed>17.9</speed>
<course>158.3</course>
<desc>Speed 17.9 km/h Distance 21.81 km</desc>
<time>2010-06-13T07:34:49.65</time>
<name>5214</name>
</trkpt>
<trkpt lat="49.216365" lon="11.784792">
<ele>599.1</ele>
<speed>14.5</speed>
<course>172.0</course>
<desc>Speed 14.5 km/h Distance 21.82 km</desc>
<time>2010-06-13T07:34:50.65</time>
<name>5215</name>
</trkpt>
<trkpt lat="49.216327" lon="11.784800">
<ele>598.7</ele>
<speed>12.5</speed>
<course>208.1</course>
<desc>Speed 12.5 km/h Distance 21.82 km</desc>
<time>2010-06-13T07:34:51.65</time>
<name>5216</name>
</trkpt>
<trkpt lat="49.216290" lon="11.784770">
<ele>598.7</ele>
<speed>12.3</speed>
<course>253.0</course>
<desc>Speed 12.3 km/h Distance 21.82 km</desc>
<time>2010-06-13T07:34:52.65</time>
<name>5217</name>
</trkpt>
<trkpt lat="49.216278" lon="11.784712">
<ele>597.0</ele>
<speed>15.8</speed>
<course>232.6</course>
<desc>Speed 15.8 km/h Distance 21.83 km</desc>
<time>2010-06-13T07:34:53.65</time>
<name>5218</name>
</trkpt>
<trkpt lat="49.216245" lon="11.784645">
<ele>594.5</ele>
<speed>18.9</speed>
<course>230.5</course>
<desc>Speed 18.9 km/h Distance 21.83 km</desc>
<time>2010-06-13T07:34:54.65</time>
<name>5219</name>
</trkpt>
<trkpt lat="49.216210" lon="11.784580">
<ele>592.3</ele>
<speed>19.8</speed>
<course>236.3</course>
<desc>Speed 19.8 km/h Distance 21.84 km</desc>
<time>2010-06-13T07:34:55.65</time>
<name>5220</name>
</trkpt>
<trkpt lat="49.216177" lon="11.784503">
<ele>589.4</ele>
<speed>21.0</speed>
<course>232.6</course>
<desc>Speed 21.0 km/h Distance 21.85 km</desc>
<time>2010-06-13T07:34:56.65</time>
<name>5221</name>
</trkpt>
<trkpt lat="49.216135" lon="11.784420">
<ele>588.0</ele>
<speed>22.7</speed>
<course>238.0</course>
<desc>Speed 22.7 km/h Distance 21.86 km</desc>
<time>2010-06-13T07:34:57.65</time>
<name>5222</name>
</trkpt>
<trkpt lat="49.216098" lon="11.784330">
<ele>587.3</ele>
<speed>22.5</speed>
<course>221.3</course>
<desc>Speed 22.5 km/h Distance 21.86 km</desc>
<time>2010-06-13T07:34:58.65</time>
<name>5223</name>
</trkpt>
<trkpt lat="49.216050" lon="11.784265">
<ele>587.8</ele>
<speed>23.4</speed>
<course>222.1</course>
<desc>Speed 23.4 km/h Distance 21.87 km</desc>
<time>2010-06-13T07:34:59.65</time>
<name>5224</name>
</trkpt>
<trkpt lat="49.216007" lon="11.784205">
<ele>588.3</ele>
<speed>22.6</speed>
<course>219.6</course>
<desc>Speed 22.6 km/h Distance 21.88 km</desc>
<time>2010-06-13T07:35:00.65</time>
<name>5225</name>
</trkpt>
<trkpt lat="49.215957" lon="11.784142">
<ele>588.5</ele>
<speed>23.5</speed>
<course>232.0</course>
<desc>Speed 23.5 km/h Distance 21.88 km</desc>
<time>2010-06-13T07:35:01.65</time>
<name>5226</name>
</trkpt>
<trkpt lat="49.215915" lon="11.784060">
<ele>588.2</ele>
<speed>23.4</speed>
<course>237.8</course>
<desc>Speed 23.4 km/h Distance 21.89 km</desc>
<time>2010-06-13T07:35:02.65</time>
<name>5227</name>
</trkpt>
<trkpt lat="49.215880" lon="11.783975">
<ele>589.3</ele>
<speed>22.9</speed>
<course>227.2</course>
<desc>Speed 22.9 km/h Distance 21.90 km</desc>
<time>2010-06-13T07:35:03.65</time>
<name>5228</name>
</trkpt>
<trkpt lat="49.215837" lon="11.783903">
<ele>589.6</ele>
<speed>23.2</speed>
<course>229.4</course>
<desc>Speed 23.2 km/h Distance 21.91 km</desc>
<time>2010-06-13T07:35:04.65</time>
<name>5229</name>
</trkpt>
<trkpt lat="49.215790" lon="11.783820">
<ele>590.5</ele>
<speed>23.9</speed>
<course>222.2</course>
<desc>Speed 23.9 km/h Distance 21.91 km</desc>
<time>2010-06-13T07:35:05.65</time>
<name>5230</name>
</trkpt>
<trkpt lat="49.215738" lon="11.783748">
<ele>589.2</ele>
<speed>25.5</speed>
<course>232.0</course>
<desc>Speed 25.5 km/h Distance 21.92 km</desc>
<time>2010-06-13T07:35:06.65</time>
<name>5231</name>
</trkpt>
<trkpt lat="49.215698" lon="11.783670">
<ele>588.6</ele>
<speed>24.2</speed>
<course>230.6</course>
<desc>Speed 24.2 km/h Distance 21.93 km</desc>
<time>2010-06-13T07:35:07.65</time>
<name>5232</name>
</trkpt>
<trkpt lat="49.215662" lon="11.783602">
<ele>588.5</ele>
<speed>22.3</speed>
<course>228.6</course>
<desc>Speed 22.3 km/h Distance 21.94 km</desc>
<time>2010-06-13T07:35:08.65</time>
<name>5233</name>
</trkpt>
<trkpt lat="49.215623" lon="11.783535">
<ele>588.3</ele>
<speed>21.9</speed>
<course>219.0</course>
<desc>Speed 21.9 km/h Distance 21.94 km</desc>
<time>2010-06-13T07:35:09.65</time>
<name>5234</name>
</trkpt>
<trkpt lat="49.215575" lon="11.783475">
<ele>588.8</ele>
<speed>24.0</speed>
<course>204.8</course>
<desc>Speed 24.0 km/h Distance 21.95 km</desc>
<time>2010-06-13T07:35:10.65</time>
<name>5235</name>
</trkpt>
<trkpt lat="49.215518" lon="11.783435">
<ele>590.0</ele>
<speed>25.5</speed>
<course>201.9</course>
<desc>Speed 25.5 km/h Distance 21.96 km</desc>
<time>2010-06-13T07:35:11.65</time>
<name>5236</name>
</trkpt>
<trkpt lat="49.215453" lon="11.783395">
<ele>591.7</ele>
<speed>26.8</speed>
<course>198.1</course>
<desc>Speed 26.8 km/h Distance 21.96 km</desc>
<time>2010-06-13T07:35:12.65</time>
<name>5237</name>
</trkpt>
<trkpt lat="49.215383" lon="11.783360">
<ele>592.1</ele>
<speed>29.0</speed>
<course>196.2</course>
<desc>Speed 29.0 km/h Distance 21.97 km</desc>
<time>2010-06-13T07:35:13.65</time>
<name>5238</name>
</trkpt>
<trkpt lat="49.215308" lon="11.783327">
<ele>591.7</ele>
<speed>28.5</speed>
<course>191.0</course>
<desc>Speed 28.5 km/h Distance 21.98 km</desc>
<time>2010-06-13T07:35:14.65</time>
<name>5239</name>
</trkpt>
<trkpt lat="49.215230" lon="11.783303">
<ele>592.7</ele>
<speed>26.8</speed>
<course>194.7</course>
<desc>Speed 26.8 km/h Distance 21.99 km</desc>
<time>2010-06-13T07:35:15.65</time>
<name>5240</name>
</trkpt>
<trkpt lat="49.215163" lon="11.783277">
<ele>592.2</ele>
<speed>24.0</speed>
<course>193.0</course>
<desc>Speed 24.0 km/h Distance 22.00 km</desc>
<time>2010-06-13T07:35:16.65</time>
<name>5241</name>
</trkpt>
<trkpt lat="49.215107" lon="11.783257">
<ele>593.3</ele>
<speed>20.7</speed>
<course>131.5</course>
<desc>Speed 20.7 km/h Distance 22.00 km</desc>
<time>2010-06-13T07:35:17.65</time>
<name>5242</name>
</trkpt>
<trkpt lat="49.215063" lon="11.783332">
<ele>593.0</ele>
<speed>12.7</speed>
<course>114.1</course>
<desc>Speed 12.7 km/h Distance 22.01 km</desc>
<time>2010-06-13T07:35:19.65</time>
<name>5243</name>
</trkpt>
<trkpt lat="49.215052" lon="11.783372">
<ele>592.5</ele>
<speed>14.4</speed>
<course>97.6</course>
<desc>Speed 14.4 km/h Distance 22.01 km</desc>
<time>2010-06-13T07:35:20.65</time>
<name>5244</name>
</trkpt>
<trkpt lat="49.215045" lon="11.783448">
<ele>593.4</ele>
<speed>14.0</speed>
<course>96.7</course>
<desc>Speed 14.0 km/h Distance 22.02 km</desc>
<time>2010-06-13T07:35:21.65</time>
<name>5245</name>
</trkpt>
<trkpt lat="49.215040" lon="11.783513">
<ele>594.5</ele>
<speed>16.5</speed>
<course>86.2</course>
<desc>Speed 16.5 km/h Distance 22.02 km</desc>
<time>2010-06-13T07:35:22.65</time>
<name>5246</name>
</trkpt>
<trkpt lat="49.215043" lon="11.783590">
<ele>594.9</ele>
<speed>17.3</speed>
<course>80.3</course>
<desc>Speed 17.3 km/h Distance 22.03 km</desc>
<time>2010-06-13T07:35:23.65</time>
<name>5247</name>
</trkpt>
<trkpt lat="49.215052" lon="11.783665">
<ele>595.7</ele>
<speed>17.0</speed>
<course>50.1</course>
<desc>Speed 17.0 km/h Distance 22.04 km</desc>
<time>2010-06-13T07:35:24.65</time>
<name>5248</name>
</trkpt>
<trkpt lat="49.215082" lon="11.783720">
<ele>594.6</ele>
<speed>19.0</speed>
<course>52.6</course>
<desc>Speed 19.0 km/h Distance 22.04 km</desc>
<time>2010-06-13T07:35:25.65</time>
<name>5249</name>
</trkpt>
<trkpt lat="49.215117" lon="11.783790">
<ele>593.8</ele>
<speed>20.9</speed>
<course>53.2</course>
<desc>Speed 20.9 km/h Distance 22.05 km</desc>
<time>2010-06-13T07:35:26.65</time>
<name>5250</name>
</trkpt>
<trkpt lat="49.215153" lon="11.783865">
<ele>593.7</ele>
<speed>21.7</speed>
<course>54.5</course>
<desc>Speed 21.7 km/h Distance 22.05 km</desc>
<time>2010-06-13T07:35:27.65</time>
<name>5251</name>
</trkpt>
<trkpt lat="49.215188" lon="11.783940">
<ele>593.7</ele>
<speed>21.9</speed>
<course>44.8</course>
<desc>Speed 21.9 km/h Distance 22.06 km</desc>
<time>2010-06-13T07:35:28.65</time>
<name>5252</name>
</trkpt>
<trkpt lat="49.215230" lon="11.784003">
<ele>594.2</ele>
<speed>21.4</speed>
<course>38.8</course>
<desc>Speed 21.4 km/h Distance 22.07 km</desc>
<time>2010-06-13T07:35:29.65</time>
<name>5253</name>
</trkpt>
<trkpt lat="49.215273" lon="11.784057">
<ele>594.3</ele>
<speed>22.2</speed>
<course>39.7</course>
<desc>Speed 22.2 km/h Distance 22.07 km</desc>
<time>2010-06-13T07:35:30.65</time>
<name>5254</name>
</trkpt>
<trkpt lat="49.215317" lon="11.784112">
<ele>594.8</ele>
<speed>22.1</speed>
<course>47.9</course>
<desc>Speed 22.1 km/h Distance 22.08 km</desc>
<time>2010-06-13T07:35:31.65</time>
<name>5255</name>
</trkpt>
<trkpt lat="49.215355" lon="11.784177">
<ele>595.4</ele>
<speed>21.6</speed>
<course>54.7</course>
<desc>Speed 21.6 km/h Distance 22.09 km</desc>
<time>2010-06-13T07:35:32.65</time>
<name>5256</name>
</trkpt>
<trkpt lat="49.215387" lon="11.784245">
<ele>595.7</ele>
<speed>21.5</speed>
<course>51.9</course>
<desc>Speed 21.5 km/h Distance 22.09 km</desc>
<time>2010-06-13T07:35:33.65</time>
<name>5257</name>
</trkpt>
<trkpt lat="49.215422" lon="11.784313">
<ele>595.8</ele>
<speed>21.5</speed>
<course>42.4</course>
<desc>Speed 21.5 km/h Distance 22.10 km</desc>
<time>2010-06-13T07:35:34.65</time>
<name>5258</name>
</trkpt>
<trkpt lat="49.215463" lon="11.784372">
<ele>596.4</ele>
<speed>21.6</speed>
<course>46.4</course>
<desc>Speed 21.6 km/h Distance 22.10 km</desc>
<time>2010-06-13T07:35:35.65</time>
<name>5259</name>
</trkpt>
<trkpt lat="49.215502" lon="11.784433">
<ele>597.0</ele>
<speed>21.8</speed>
<course>42.1</course>
<desc>Speed 21.8 km/h Distance 22.11 km</desc>
<time>2010-06-13T07:35:36.65</time>
<name>5260</name>
</trkpt>
<trkpt lat="49.215545" lon="11.784493">
<ele>597.1</ele>
<speed>20.4</speed>
<course>34.1</course>
<desc>Speed 20.4 km/h Distance 22.12 km</desc>
<time>2010-06-13T07:35:37.65</time>
<name>5261</name>
</trkpt>
<trkpt lat="49.215592" lon="11.784542">
<ele>597.6</ele>
<speed>20.9</speed>
<course>46.3</course>
<desc>Speed 20.9 km/h Distance 22.12 km</desc>
<time>2010-06-13T07:35:38.65</time>
<name>5262</name>
</trkpt>
<trkpt lat="49.215633" lon="11.784608">
<ele>598.0</ele>
<speed>22.0</speed>
<course>53.9</course>
<desc>Speed 22.0 km/h Distance 22.13 km</desc>
<time>2010-06-13T07:35:39.65</time>
<name>5263</name>
</trkpt>
<trkpt lat="49.215667" lon="11.784678">
<ele>597.4</ele>
<speed>22.1</speed>
<course>53.8</course>
<desc>Speed 22.1 km/h Distance 22.14 km</desc>
<time>2010-06-13T07:35:40.65</time>
<name>5264</name>
</trkpt>
<trkpt lat="49.215703" lon="11.784755">
<ele>597.5</ele>
<speed>21.8</speed>
<course>51.9</course>
<desc>Speed 21.8 km/h Distance 22.14 km</desc>
<time>2010-06-13T07:35:41.65</time>
<name>5265</name>
</trkpt>
<trkpt lat="49.215737" lon="11.784820">
<ele>596.9</ele>
<speed>21.2</speed>
<course>45.3</course>
<desc>Speed 21.2 km/h Distance 22.15 km</desc>
<time>2010-06-13T07:35:42.65</time>
<name>5266</name>
</trkpt>
<trkpt lat="49.215773" lon="11.784877">
<ele>596.8</ele>
<speed>20.4</speed>
<course>41.4</course>
<desc>Speed 20.4 km/h Distance 22.16 km</desc>
<time>2010-06-13T07:35:43.65</time>
<name>5267</name>
</trkpt>
<trkpt lat="49.215812" lon="11.784928">
<ele>597.0</ele>
<speed>20.2</speed>
<course>39.0</course>
<desc>Speed 20.2 km/h Distance 22.16 km</desc>
<time>2010-06-13T07:35:44.65</time>
<name>5268</name>
</trkpt>
<trkpt lat="49.215853" lon="11.784980">
<ele>597.1</ele>
<speed>20.0</speed>
<course>44.9</course>
<desc>Speed 20.0 km/h Distance 22.17 km</desc>
<time>2010-06-13T07:35:45.65</time>
<name>5269</name>
</trkpt>
<trkpt lat="49.215888" lon="11.785033">
<ele>596.7</ele>
<speed>19.5</speed>
<course>60.4</course>
<desc>Speed 19.5 km/h Distance 22.17 km</desc>
<time>2010-06-13T07:35:46.65</time>
<name>5270</name>
</trkpt>
<trkpt lat="49.215910" lon="11.785092">
<ele>595.6</ele>
<speed>18.1</speed>
<course>41.1</course>
<desc>Speed 18.1 km/h Distance 22.18 km</desc>
<time>2010-06-13T07:35:47.65</time>
<name>5271</name>
</trkpt>
<trkpt lat="49.215945" lon="11.785138">
<ele>595.0</ele>
<speed>17.9</speed>
<course>32.1</course>
<desc>Speed 17.9 km/h Distance 22.18 km</desc>
<time>2010-06-13T07:35:48.65</time>
<name>5272</name>
</trkpt>
<trkpt lat="49.215988" lon="11.785180">
<ele>596.2</ele>
<speed>17.6</speed>
<course>42.6</course>
<desc>Speed 17.6 km/h Distance 22.19 km</desc>
<time>2010-06-13T07:35:49.65</time>
<name>5273</name>
</trkpt>
<trkpt lat="49.216025" lon="11.785232">
<ele>596.5</ele>
<speed>17.9</speed>
<course>33.2</course>
<desc>Speed 17.9 km/h Distance 22.19 km</desc>
<time>2010-06-13T07:35:50.65</time>
<name>5274</name>
</trkpt>
<trkpt lat="49.216067" lon="11.785273">
<ele>596.4</ele>
<speed>19.1</speed>
<course>56.3</course>
<desc>Speed 19.1 km/h Distance 22.20 km</desc>
<time>2010-06-13T07:35:51.65</time>
<name>5275</name>
</trkpt>
<trkpt lat="49.216095" lon="11.785338">
<ele>595.0</ele>
<speed>19.8</speed>
<course>39.2</course>
<desc>Speed 19.8 km/h Distance 22.20 km</desc>
<time>2010-06-13T07:35:52.65</time>
<name>5276</name>
</trkpt>
<trkpt lat="49.216135" lon="11.785388">
<ele>595.4</ele>
<speed>20.1</speed>
<course>48.4</course>
<desc>Speed 20.1 km/h Distance 22.21 km</desc>
<time>2010-06-13T07:35:53.65</time>
<name>5277</name>
</trkpt>
<trkpt lat="49.216172" lon="11.785452">
<ele>595.4</ele>
<speed>20.5</speed>
<course>43.6</course>
<desc>Speed 20.5 km/h Distance 22.22 km</desc>
<time>2010-06-13T07:35:54.65</time>
<name>5278</name>
</trkpt>
<trkpt lat="49.216212" lon="11.785510">
<ele>595.0</ele>
<speed>21.0</speed>
<course>36.9</course>
<desc>Speed 21.0 km/h Distance 22.22 km</desc>
<time>2010-06-13T07:35:55.65</time>
<name>5279</name>
</trkpt>
<trkpt lat="49.216257" lon="11.785562">
<ele>595.6</ele>
<speed>20.7</speed>
<course>44.4</course>
<desc>Speed 20.7 km/h Distance 22.23 km</desc>
<time>2010-06-13T07:35:56.65</time>
<name>5280</name>
</trkpt>
<trkpt lat="49.216297" lon="11.785622">
<ele>596.1</ele>
<speed>20.4</speed>
<course>55.6</course>
<desc>Speed 20.4 km/h Distance 22.24 km</desc>
<time>2010-06-13T07:35:57.65</time>
<name>5281</name>
</trkpt>
<trkpt lat="49.216325" lon="11.785685">
<ele>595.9</ele>
<speed>19.7</speed>
<course>71.0</course>
<desc>Speed 19.7 km/h Distance 22.24 km</desc>
<time>2010-06-13T07:35:58.65</time>
<name>5282</name>
</trkpt>
<trkpt lat="49.216340" lon="11.785752">
<ele>595.7</ele>
<speed>17.0</speed>
<course>82.1</course>
<desc>Speed 17.0 km/h Distance 22.25 km</desc>
<time>2010-06-13T07:35:59.65</time>
<name>5283</name>
</trkpt>
<trkpt lat="49.216347" lon="11.785825">
<ele>595.6</ele>
<speed>17.2</speed>
<course>90.0</course>
<desc>Speed 17.2 km/h Distance 22.25 km</desc>
<time>2010-06-13T07:36:00.65</time>
<name>5284</name>
</trkpt>
<trkpt lat="49.216347" lon="11.785895">
<ele>595.1</ele>
<speed>15.2</speed>
<course>74.0</course>
<desc>Speed 15.2 km/h Distance 22.26 km</desc>
<time>2010-06-13T07:36:01.65</time>
<name>5285</name>
</trkpt>
<trkpt lat="49.216357" lon="11.785948">
<ele>595.1</ele>
<speed>14.4</speed>
<course>71.5</course>
<desc>Speed 14.4 km/h Distance 22.26 km</desc>
<time>2010-06-13T07:36:02.65</time>
<name>5286</name>
</trkpt>
<trkpt lat="49.216368" lon="11.786002">
<ele>594.3</ele>
<speed>15.6</speed>
<course>68.2</course>
<desc>Speed 15.6 km/h Distance 22.26 km</desc>
<time>2010-06-13T07:36:03.65</time>
<name>5287</name>
</trkpt>
<trkpt lat="49.216387" lon="11.786072">
<ele>594.6</ele>
<speed>17.4</speed>
<course>88.0</course>
<desc>Speed 17.4 km/h Distance 22.27 km</desc>
<time>2010-06-13T07:36:04.65</time>
<name>5288</name>
</trkpt>
<trkpt lat="49.216388" lon="11.786145">
<ele>593.9</ele>
<speed>16.3</speed>
<course>82.7</course>
<desc>Speed 16.3 km/h Distance 22.28 km</desc>
<time>2010-06-13T07:36:05.65</time>
<name>5289</name>
</trkpt>
<trkpt lat="49.216393" lon="11.786205">
<ele>593.3</ele>
<speed>15.6</speed>
<course>86.4</course>
<desc>Speed 15.6 km/h Distance 22.28 km</desc>
<time>2010-06-13T07:36:06.65</time>
<name>5290</name>
</trkpt>
<trkpt lat="49.216397" lon="11.786287">
<ele>592.5</ele>
<speed>17.5</speed>
<course>84.6</course>
<desc>Speed 17.5 km/h Distance 22.29 km</desc>
<time>2010-06-13T07:36:07.65</time>
<name>5291</name>
</trkpt>
<trkpt lat="49.216402" lon="11.786368">
<ele>591.1</ele>
<speed>16.0</speed>
<course>69.1</course>
<desc>Speed 16.0 km/h Distance 22.29 km</desc>
<time>2010-06-13T07:36:08.65</time>
<name>5292</name>
</trkpt>
<trkpt lat="49.216417" lon="11.786428">
<ele>591.2</ele>
<speed>12.7</speed>
<course>69.1</course>
<desc>Speed 12.7 km/h Distance 22.30 km</desc>
<time>2010-06-13T07:36:09.65</time>
<name>5293</name>
</trkpt>
<trkpt lat="49.216427" lon="11.786468">
<ele>591.0</ele>
<speed>10.1</speed>
<course>102.8</course>
<desc>Speed 10.1 km/h Distance 22.30 km</desc>
<time>2010-06-13T07:36:10.65</time>
<name>5294</name>
</trkpt>
<trkpt lat="49.216420" lon="11.786513">
<ele>591.0</ele>
<speed>10.7</speed>
<course>115.4</course>
<desc>Speed 10.7 km/h Distance 22.30 km</desc>
<time>2010-06-13T07:36:11.65</time>
<name>5295</name>
</trkpt>
<trkpt lat="49.216405" lon="11.786562">
<ele>591.0</ele>
<speed>11.7</speed>
<course>122.9</course>
<desc>Speed 11.7 km/h Distance 22.31 km</desc>
<time>2010-06-13T07:36:12.65</time>
<name>5296</name>
</trkpt>
<trkpt lat="49.216387" lon="11.786605">
<ele>590.3</ele>
<speed>12.2</speed>
<course>103.9</course>
<desc>Speed 12.2 km/h Distance 22.31 km</desc>
<time>2010-06-13T07:36:13.65</time>
<name>5297</name>
</trkpt>
<trkpt lat="49.216378" lon="11.786657">
<ele>590.2</ele>
<speed>12.3</speed>
<course>106.6</course>
<desc>Speed 12.3 km/h Distance 22.31 km</desc>
<time>2010-06-13T07:36:14.65</time>
<name>5298</name>
</trkpt>
<trkpt lat="49.216365" lon="11.786725">
<ele>590.6</ele>
<speed>10.6</speed>
<course>118.5</course>
<desc>Speed 10.6 km/h Distance 22.32 km</desc>
<time>2010-06-13T07:36:15.65</time>
<name>5299</name>
</trkpt>
<trkpt lat="49.216347" lon="11.786777">
<ele>590.7</ele>
<speed>9.5</speed>
<course>133.7</course>
<desc>Speed 9.5 km/h Distance 22.32 km</desc>
<time>2010-06-13T07:36:16.65</time>
<name>5300</name>
</trkpt>
<trkpt lat="49.216322" lon="11.786817">
<ele>591.5</ele>
<speed>8.6</speed>
<course>136.2</course>
<desc>Speed 8.6 km/h Distance 22.33 km</desc>
<time>2010-06-13T07:36:17.65</time>
<name>5301</name>
</trkpt>
<trkpt lat="49.216297" lon="11.786853">
<ele>591.3</ele>
<speed>8.4</speed>
<course>134.9</course>
<desc>Speed 8.4 km/h Distance 22.33 km</desc>
<time>2010-06-13T07:36:18.65</time>
<name>5302</name>
</trkpt>
<trkpt lat="49.216272" lon="11.786892">
<ele>590.8</ele>
<speed>8.3</speed>
<course>145.3</course>
<desc>Speed 8.3 km/h Distance 22.34 km</desc>
<time>2010-06-13T07:36:19.65</time>
<name>5303</name>
</trkpt>
<trkpt lat="49.216243" lon="11.786922">
<ele>590.0</ele>
<speed>7.6</speed>
<course>157.3</course>
<desc>Speed 7.6 km/h Distance 22.34 km</desc>
<time>2010-06-13T07:36:20.65</time>
<name>5304</name>
</trkpt>
<trkpt lat="49.216220" lon="11.786937">
<ele>589.0</ele>
<speed>7.9</speed>
<course>152.6</course>
<desc>Speed 7.9 km/h Distance 22.34 km</desc>
<time>2010-06-13T07:36:21.65</time>
<name>5305</name>
</trkpt>
<trkpt lat="49.216132" lon="11.787007">
<ele>588.7</ele>
<speed>13.3</speed>
<course>149.2</course>
<desc>Speed 13.3 km/h Distance 22.35 km</desc>
<time>2010-06-13T07:36:23.65</time>
<name>5306</name>
</trkpt>
<trkpt lat="49.216093" lon="11.787042">
<ele>586.3</ele>
<speed>11.6</speed>
<course>144.0</course>
<desc>Speed 11.6 km/h Distance 22.36 km</desc>
<time>2010-06-13T07:36:24.65</time>
<name>5307</name>
</trkpt>
<trkpt lat="49.216063" lon="11.787075">
<ele>584.5</ele>
<speed>11.1</speed>
<course>137.8</course>
<desc>Speed 11.1 km/h Distance 22.36 km</desc>
<time>2010-06-13T07:36:25.65</time>
<name>5308</name>
</trkpt>
<trkpt lat="49.216033" lon="11.787117">
<ele>582.5</ele>
<speed>10.4</speed>
<course>141.9</course>
<desc>Speed 10.4 km/h Distance 22.37 km</desc>
<time>2010-06-13T07:36:26.65</time>
<name>5309</name>
</trkpt>
<trkpt lat="49.216008" lon="11.787147">
<ele>582.5</ele>
<speed>11.4</speed>
<course>140.5</course>
<desc>Speed 11.4 km/h Distance 22.37 km</desc>
<time>2010-06-13T07:36:27.65</time>
<name>5310</name>
</trkpt>
<trkpt lat="49.215977" lon="11.787187">
<ele>582.5</ele>
<speed>11.3</speed>
<course>149.4</course>
<desc>Speed 11.3 km/h Distance 22.38 km</desc>
<time>2010-06-13T07:36:28.65</time>
<name>5311</name>
</trkpt>
<trkpt lat="49.215942" lon="11.787218">
<ele>584.4</ele>
<speed>12.8</speed>
<course>144.5</course>
<desc>Speed 12.8 km/h Distance 22.38 km</desc>
<time>2010-06-13T07:36:29.65</time>
<name>5312</name>
</trkpt>
<trkpt lat="49.215905" lon="11.787258">
<ele>586.5</ele>
<speed>13.6</speed>
<course>149.7</course>
<desc>Speed 13.6 km/h Distance 22.38 km</desc>
<time>2010-06-13T07:36:30.65</time>
<name>5313</name>
</trkpt>
<trkpt lat="49.215873" lon="11.787287">
<ele>587.2</ele>
<speed>11.6</speed>
<course>162.9</course>
<desc>Speed 11.6 km/h Distance 22.39 km</desc>
<time>2010-06-13T07:36:31.65</time>
<name>5314</name>
</trkpt>
<trkpt lat="49.215845" lon="11.787300">
<ele>585.3</ele>
<speed>9.8</speed>
<course>141.4</course>
<desc>Speed 9.8 km/h Distance 22.39 km</desc>
<time>2010-06-13T07:36:32.65</time>
<name>5315</name>
</trkpt>
<trkpt lat="49.215815" lon="11.787337">
<ele>587.1</ele>
<speed>10.3</speed>
<course>166.2</course>
<desc>Speed 10.3 km/h Distance 22.40 km</desc>
<time>2010-06-13T07:36:33.65</time>
<name>5316</name>
</trkpt>
<trkpt lat="49.215775" lon="11.787352">
<ele>586.6</ele>
<speed>10.8</speed>
<course>163.3</course>
<desc>Speed 10.8 km/h Distance 22.40 km</desc>
<time>2010-06-13T07:36:34.65</time>
<name>5317</name>
</trkpt>
<trkpt lat="49.215735" lon="11.787370">
<ele>583.8</ele>
<speed>13.4</speed>
<course>157.6</course>
<desc>Speed 13.4 km/h Distance 22.41 km</desc>
<time>2010-06-13T07:36:35.65</time>
<name>5318</name>
</trkpt>
<trkpt lat="49.215703" lon="11.787390">
<ele>583.7</ele>
<speed>13.8</speed>
<course>159.5</course>
<desc>Speed 13.8 km/h Distance 22.41 km</desc>
<time>2010-06-13T07:36:36.65</time>
<name>5319</name>
</trkpt>
<trkpt lat="49.215668" lon="11.787410">
<ele>582.4</ele>
<speed>14.1</speed>
<course>148.4</course>
<desc>Speed 14.1 km/h Distance 22.41 km</desc>
<time>2010-06-13T07:36:37.65</time>
<name>5320</name>
</trkpt>
<trkpt lat="49.215640" lon="11.787437">
<ele>581.8</ele>
<speed>12.3</speed>
<course>125.1</course>
<desc>Speed 12.3 km/h Distance 22.42 km</desc>
<time>2010-06-13T07:36:38.65</time>
<name>5321</name>
</trkpt>
<trkpt lat="49.215585" lon="11.787557">
<ele>578.1</ele>
<speed>13.3</speed>
<course>104.7</course>
<desc>Speed 13.3 km/h Distance 22.43 km</desc>
<time>2010-06-13T07:36:40.65</time>
<name>5322</name>
</trkpt>
<trkpt lat="49.215575" lon="11.787615">
<ele>578.7</ele>
<speed>11.4</speed>
<course>94.9</course>
<desc>Speed 11.4 km/h Distance 22.43 km</desc>
<time>2010-06-13T07:36:41.65</time>
<name>5323</name>
</trkpt>
<trkpt lat="49.215572" lon="11.787675">
<ele>577.1</ele>
<speed>11.2</speed>
<course>82.5</course>
<desc>Speed 11.2 km/h Distance 22.44 km</desc>
<time>2010-06-13T07:36:42.65</time>
<name>5324</name>
</trkpt>
<trkpt lat="49.215577" lon="11.787733">
<ele>574.9</ele>
<speed>12.6</speed>
<course>87.9</course>
<desc>Speed 12.6 km/h Distance 22.44 km</desc>
<time>2010-06-13T07:36:43.65</time>
<name>5325</name>
</trkpt>
<trkpt lat="49.215578" lon="11.787802">
<ele>572.7</ele>
<speed>13.3</speed>
<course>87.2</course>
<desc>Speed 13.3 km/h Distance 22.45 km</desc>
<time>2010-06-13T07:36:44.65</time>
<name>5326</name>
</trkpt>
<trkpt lat="49.215580" lon="11.787853">
<ele>570.8</ele>
<speed>11.3</speed>
<course>96.0</course>
<desc>Speed 11.3 km/h Distance 22.45 km</desc>
<time>2010-06-13T07:36:45.65</time>
<name>5327</name>
</trkpt>
<trkpt lat="49.215577" lon="11.787902">
<ele>569.4</ele>
<speed>11.1</speed>
<course>92.4</course>
<desc>Speed 11.1 km/h Distance 22.45 km</desc>
<time>2010-06-13T07:36:46.65</time>
<name>5328</name>
</trkpt>
<trkpt lat="49.215575" lon="11.787963">
<ele>566.5</ele>
<speed>10.1</speed>
<course>112.1</course>
<desc>Speed 10.1 km/h Distance 22.46 km</desc>
<time>2010-06-13T07:36:47.65</time>
<name>5329</name>
</trkpt>
<trkpt lat="49.215560" lon="11.788020">
<ele>565.0</ele>
<speed>10.0</speed>
<course>129.5</course>
<desc>Speed 10.0 km/h Distance 22.46 km</desc>
<time>2010-06-13T07:36:48.65</time>
<name>5330</name>
</trkpt>
<trkpt lat="49.215537" lon="11.788063">
<ele>562.6</ele>
<speed>9.4</speed>
<course>141.2</course>
<desc>Speed 9.4 km/h Distance 22.47 km</desc>
<time>2010-06-13T07:36:49.65</time>
<name>5331</name>
</trkpt>
<trkpt lat="49.215515" lon="11.788090">
<ele>561.5</ele>
<speed>9.1</speed>
<course>90.0</course>
<desc>Speed 9.1 km/h Distance 22.47 km</desc>
<time>2010-06-13T07:36:50.65</time>
<name>5332</name>
</trkpt>
<trkpt lat="49.215515" lon="11.788123">
<ele>560.3</ele>
<speed>7.8</speed>
<course>137.9</course>
<desc>Speed 7.8 km/h Distance 22.47 km</desc>
<time>2010-06-13T07:36:51.65</time>
<name>5333</name>
</trkpt>
<trkpt lat="49.215493" lon="11.788153">
<ele>558.6</ele>
<speed>8.4</speed>
<course>124.8</course>
<desc>Speed 8.4 km/h Distance 22.47 km</desc>
<time>2010-06-13T07:36:52.65</time>
<name>5334</name>
</trkpt>
<trkpt lat="49.215477" lon="11.788190">
<ele>558.3</ele>
<speed>8.2</speed>
<course>106.0</course>
<desc>Speed 8.2 km/h Distance 22.48 km</desc>
<time>2010-06-13T07:36:53.65</time>
<name>5335</name>
</trkpt>
<trkpt lat="49.215472" lon="11.788217">
<ele>559.3</ele>
<speed>6.6</speed>
<course>102.3</course>
<desc>Speed 6.6 km/h Distance 22.48 km</desc>
<time>2010-06-13T07:36:54.65</time>
<name>5336</name>
</trkpt>
<trkpt lat="49.215465" lon="11.788263">
<ele>556.6</ele>
<speed>8.2</speed>
<course>100.0</course>
<desc>Speed 8.2 km/h Distance 22.48 km</desc>
<time>2010-06-13T07:36:55.65</time>
<name>5337</name>
</trkpt>
<trkpt lat="49.215460" lon="11.788307">
<ele>554.2</ele>
<speed>8.5</speed>
<course>93.4</course>
<desc>Speed 8.5 km/h Distance 22.49 km</desc>
<time>2010-06-13T07:36:56.65</time>
<name>5338</name>
</trkpt>
<trkpt lat="49.215458" lon="11.788350">
<ele>552.8</ele>
<speed>8.2</speed>
<course>93.8</course>
<desc>Speed 8.2 km/h Distance 22.49 km</desc>
<time>2010-06-13T07:36:57.65</time>
<name>5339</name>
</trkpt>
<trkpt lat="49.215457" lon="11.788388">
<ele>551.6</ele>
<speed>8.9</speed>
<course>90.0</course>
<desc>Speed 8.9 km/h Distance 22.49 km</desc>
<time>2010-06-13T07:36:58.65</time>
<name>5340</name>
</trkpt>
<trkpt lat="49.215457" lon="11.788438">
<ele>549.7</ele>
<speed>10.2</speed>
<course>81.3</course>
<desc>Speed 10.2 km/h Distance 22.50 km</desc>
<time>2010-06-13T07:36:59.65</time>
<name>5341</name>
</trkpt>
<trkpt lat="49.215462" lon="11.788488">
<ele>549.1</ele>
<speed>9.3</speed>
<course>84.2</course>
<desc>Speed 9.3 km/h Distance 22.50 km</desc>
<time>2010-06-13T07:37:00.65</time>
<name>5342</name>
</trkpt>
<trkpt lat="49.215465" lon="11.788538">
<ele>547.4</ele>
<speed>9.9</speed>
<course>92.7</course>
<desc>Speed 9.9 km/h Distance 22.50 km</desc>
<time>2010-06-13T07:37:01.65</time>
<name>5343</name>
</trkpt>
<trkpt lat="49.215463" lon="11.788592">
<ele>545.5</ele>
<speed>10.4</speed>
<course>90.0</course>
<desc>Speed 10.4 km/h Distance 22.51 km</desc>
<time>2010-06-13T07:37:02.65</time>
<name>5344</name>
</trkpt>
<trkpt lat="49.215463" lon="11.788650">
<ele>543.6</ele>
<speed>11.3</speed>
<course>95.8</course>
<desc>Speed 11.3 km/h Distance 22.51 km</desc>
<time>2010-06-13T07:37:03.65</time>
<name>5345</name>
</trkpt>
<trkpt lat="49.215460" lon="11.788700">
<ele>539.3</ele>
<speed>9.1</speed>
<course>86.9</course>
<desc>Speed 9.1 km/h Distance 22.52 km</desc>
<time>2010-06-13T07:37:04.65</time>
<name>5346</name>
</trkpt>
<trkpt lat="49.215462" lon="11.788747">
<ele>534.9</ele>
<speed>9.3</speed>
<course>92.9</course>
<desc>Speed 9.3 km/h Distance 22.52 km</desc>
<time>2010-06-13T07:37:05.65</time>
<name>5347</name>
</trkpt>
<trkpt lat="49.215460" lon="11.788797">
<ele>530.8</ele>
<speed>8.3</speed>
<course>90.0</course>
<desc>Speed 8.3 km/h Distance 22.52 km</desc>
<time>2010-06-13T07:37:06.65</time>
<name>5348</name>
</trkpt>
<trkpt lat="49.215460" lon="11.788835">
<ele>529.7</ele>
<speed>7.4</speed>
<course>101.8</course>
<desc>Speed 7.4 km/h Distance 22.53 km</desc>
<time>2010-06-13T07:37:07.65</time>
<name>5349</name>
</trkpt>
<trkpt lat="49.215455" lon="11.788872">
<ele>528.4</ele>
<speed>8.5</speed>
<course>122.5</course>
<desc>Speed 8.5 km/h Distance 22.53 km</desc>
<time>2010-06-13T07:37:08.65</time>
<name>5350</name>
</trkpt>
<trkpt lat="49.215438" lon="11.788912">
<ele>527.0</ele>
<speed>9.8</speed>
<course>116.3</course>
<desc>Speed 9.8 km/h Distance 22.53 km</desc>
<time>2010-06-13T07:37:09.65</time>
<name>5351</name>
</trkpt>
<trkpt lat="49.215422" lon="11.788963">
<ele>523.7</ele>
<speed>11.1</speed>
<course>116.4</course>
<desc>Speed 11.1 km/h Distance 22.54 km</desc>
<time>2010-06-13T07:37:10.65</time>
<name>5352</name>
</trkpt>
<trkpt lat="49.215403" lon="11.789020">
<ele>521.3</ele>
<speed>13.4</speed>
<course>109.2</course>
<desc>Speed 13.4 km/h Distance 22.54 km</desc>
<time>2010-06-13T07:37:11.65</time>
<name>5353</name>
</trkpt>
<trkpt lat="49.215387" lon="11.789093">
<ele>518.1</ele>
<speed>17.0</speed>
<course>113.6</course>
<desc>Speed 17.0 km/h Distance 22.55 km</desc>
<time>2010-06-13T07:37:12.65</time>
<name>5354</name>
</trkpt>
<trkpt lat="49.215367" lon="11.789163">
<ele>516.1</ele>
<speed>17.3</speed>
<course>112.1</course>
<desc>Speed 17.3 km/h Distance 22.55 km</desc>
<time>2010-06-13T07:37:13.65</time>
<name>5355</name>
</trkpt>
<trkpt lat="49.215345" lon="11.789245">
<ele>513.7</ele>
<speed>19.1</speed>
<course>116.5</course>
<desc>Speed 19.1 km/h Distance 22.56 km</desc>
<time>2010-06-13T07:37:14.65</time>
<name>5356</name>
</trkpt>
<trkpt lat="49.215277" lon="11.789455">
<ele>509.9</ele>
<speed>25.6</speed>
<course>116.7</course>
<desc>Speed 25.6 km/h Distance 22.58 km</desc>
<time>2010-06-13T07:37:16.65</time>
<name>5357</name>
</trkpt>
<trkpt lat="49.215242" lon="11.789562">
<ele>508.7</ele>
<speed>24.8</speed>
<course>118.2</course>
<desc>Speed 24.8 km/h Distance 22.58 km</desc>
<time>2010-06-13T07:37:17.65</time>
<name>5358</name>
</trkpt>
<trkpt lat="49.215207" lon="11.789662">
<ele>508.2</ele>
<speed>22.5</speed>
<course>114.9</course>
<desc>Speed 22.5 km/h Distance 22.59 km</desc>
<time>2010-06-13T07:37:18.65</time>
<name>5359</name>
</trkpt>
<trkpt lat="49.215178" lon="11.789755">
<ele>507.5</ele>
<speed>20.4</speed>
<course>117.9</course>
<desc>Speed 20.4 km/h Distance 22.60 km</desc>
<time>2010-06-13T07:37:19.65</time>
<name>5360</name>
</trkpt>
<trkpt lat="49.215147" lon="11.789847">
<ele>507.0</ele>
<speed>21.5</speed>
<course>120.3</course>
<desc>Speed 21.5 km/h Distance 22.61 km</desc>
<time>2010-06-13T07:37:20.65</time>
<name>5361</name>
</trkpt>
<trkpt lat="49.215112" lon="11.789938">
<ele>506.7</ele>
<speed>21.7</speed>
<course>127.2</course>
<desc>Speed 21.7 km/h Distance 22.61 km</desc>
<time>2010-06-13T07:37:21.65</time>
<name>5362</name>
</trkpt>
<trkpt lat="49.215015" lon="11.790133">
<ele>508.9</ele>
<speed>24.3</speed>
<course>125.3</course>
<desc>Speed 24.3 km/h Distance 22.63 km</desc>
<time>2010-06-13T07:37:23.65</time>
<name>5363</name>
</trkpt>
<trkpt lat="49.214922" lon="11.790335">
<ele>510.6</ele>
<speed>25.7</speed>
<course>120.3</course>
<desc>Speed 25.7 km/h Distance 22.65 km</desc>
<time>2010-06-13T07:37:25.65</time>
<name>5364</name>
</trkpt>
<trkpt lat="49.214882" lon="11.790440">
<ele>511.3</ele>
<speed>25.2</speed>
<course>117.0</course>
<desc>Speed 25.2 km/h Distance 22.66 km</desc>
<time>2010-06-13T07:37:26.65</time>
<name>5365</name>
</trkpt>
<trkpt lat="49.214850" lon="11.790535">
<ele>511.7</ele>
<speed>22.3</speed>
<course>120.8</course>
<desc>Speed 22.3 km/h Distance 22.67 km</desc>
<time>2010-06-13T07:37:27.65</time>
<name>5366</name>
</trkpt>
<trkpt lat="49.214815" lon="11.790625">
<ele>512.1</ele>
<speed>21.3</speed>
<course>128.0</course>
<desc>Speed 21.3 km/h Distance 22.67 km</desc>
<time>2010-06-13T07:37:28.65</time>
<name>5367</name>
</trkpt>
<trkpt lat="49.214773" lon="11.790707">
<ele>512.5</ele>
<speed>21.5</speed>
<course>129.7</course>
<desc>Speed 21.5 km/h Distance 22.68 km</desc>
<time>2010-06-13T07:37:29.65</time>
<name>5368</name>
</trkpt>
<trkpt lat="49.214730" lon="11.790787">
<ele>513.3</ele>
<speed>21.5</speed>
<course>131.9</course>
<desc>Speed 21.5 km/h Distance 22.69 km</desc>
<time>2010-06-13T07:37:30.65</time>
<name>5369</name>
</trkpt>
<trkpt lat="49.214542" lon="11.791108">
<ele>514.2</ele>
<speed>22.5</speed>
<course>123.3</course>
<desc>Speed 22.5 km/h Distance 22.72 km</desc>
<time>2010-06-13T07:37:33.65</time>
<name>5370</name>
</trkpt>
<trkpt lat="49.214395" lon="11.791450">
<ele>518.8</ele>
<speed>25.3</speed>
<course>118.7</course>
<desc>Speed 25.3 km/h Distance 22.75 km</desc>
<time>2010-06-13T07:37:36.65</time>
<name>5371</name>
</trkpt>
<trkpt lat="49.214307" lon="11.791697">
<ele>525.0</ele>
<speed>25.7</speed>
<course>113.8</course>
<desc>Speed 25.7 km/h Distance 22.77 km</desc>
<time>2010-06-13T07:37:38.65</time>
<name>5372</name>
</trkpt>
<trkpt lat="49.214278" lon="11.791795">
<ele>526.3</ele>
<speed>24.4</speed>
<course>121.9</course>
<desc>Speed 24.4 km/h Distance 22.78 km</desc>
<time>2010-06-13T07:37:39.65</time>
<name>5373</name>
</trkpt>
<trkpt lat="49.214238" lon="11.791893">
<ele>531.3</ele>
<speed>22.8</speed>
<course>93.2</course>
<desc>Speed 22.8 km/h Distance 22.79 km</desc>
<time>2010-06-13T07:37:40.65</time>
<name>5374</name>
</trkpt>
<trkpt lat="49.214235" lon="11.791983">
<ele>530.3</ele>
<speed>22.8</speed>
<course>102.3</course>
<desc>Speed 22.8 km/h Distance 22.79 km</desc>
<time>2010-06-13T07:37:41.65</time>
<name>5375</name>
</trkpt>
<trkpt lat="49.214222" lon="11.792077">
<ele>532.2</ele>
<speed>22.1</speed>
<course>111.8</course>
<desc>Speed 22.1 km/h Distance 22.80 km</desc>
<time>2010-06-13T07:37:42.65</time>
<name>5376</name>
</trkpt>
<trkpt lat="49.214202" lon="11.792153">
<ele>534.7</ele>
<speed>18.8</speed>
<course>109.9</course>
<desc>Speed 18.8 km/h Distance 22.81 km</desc>
<time>2010-06-13T07:37:43.65</time>
<name>5377</name>
</trkpt>
<trkpt lat="49.214187" lon="11.792217">
<ele>535.9</ele>
<speed>16.2</speed>
<course>122.9</course>
<desc>Speed 16.2 km/h Distance 22.81 km</desc>
<time>2010-06-13T07:37:44.65</time>
<name>5378</name>
</trkpt>
<trkpt lat="49.214168" lon="11.792260">
<ele>536.7</ele>
<speed>12.4</speed>
<course>118.4</course>
<desc>Speed 12.4 km/h Distance 22.82 km</desc>
<time>2010-06-13T07:37:45.65</time>
<name>5379</name>
</trkpt>
<trkpt lat="49.214158" lon="11.792288">
<ele>536.7</ele>
<speed>9.8</speed>
<course>116.1</course>
<desc>Speed 9.8 km/h Distance 22.82 km</desc>
<time>2010-06-13T07:37:46.65</time>
<name>5380</name>
</trkpt>
<trkpt lat="49.214145" lon="11.792330">
<ele>537.0</ele>
<speed>8.7</speed>
<course>113.6</course>
<desc>Speed 8.7 km/h Distance 22.82 km</desc>
<time>2010-06-13T07:37:47.65</time>
<name>5381</name>
</trkpt>
<trkpt lat="49.214135" lon="11.792365">
<ele>537.0</ele>
<speed>7.1</speed>
<course>98.3</course>
<desc>Speed 7.1 km/h Distance 22.82 km</desc>
<time>2010-06-13T07:37:48.65</time>
<name>5382</name>
</trkpt>
<trkpt lat="49.214132" lon="11.792400">
<ele>537.0</ele>
<speed>7.1</speed>
<course>112.7</course>
<desc>Speed 7.1 km/h Distance 22.83 km</desc>
<time>2010-06-13T07:37:49.65</time>
<name>5383</name>
</trkpt>
<trkpt lat="49.214122" lon="11.792437">
<ele>536.7</ele>
<speed>9.8</speed>
<course>124.7</course>
<desc>Speed 9.8 km/h Distance 22.83 km</desc>
<time>2010-06-13T07:37:50.65</time>
<name>5384</name>
</trkpt>
<trkpt lat="49.214098" lon="11.792488">
<ele>537.4</ele>
<speed>12.4</speed>
<course>109.5</course>
<desc>Speed 12.4 km/h Distance 22.83 km</desc>
<time>2010-06-13T07:37:51.65</time>
<name>5385</name>
</trkpt>
<trkpt lat="49.214088" lon="11.792532">
<ele>535.7</ele>
<speed>14.6</speed>
<course>121.5</course>
<desc>Speed 14.6 km/h Distance 22.84 km</desc>
<time>2010-06-13T07:37:52.65</time>
<name>5386</name>
</trkpt>
<trkpt lat="49.214065" lon="11.792590">
<ele>535.7</ele>
<speed>15.6</speed>
<course>123.6</course>
<desc>Speed 15.6 km/h Distance 22.84 km</desc>
<time>2010-06-13T07:37:53.65</time>
<name>5387</name>
</trkpt>
<trkpt lat="49.214043" lon="11.792640">
<ele>535.2</ele>
<speed>16.2</speed>
<course>119.9</course>
<desc>Speed 16.2 km/h Distance 22.85 km</desc>
<time>2010-06-13T07:37:54.65</time>
<name>5388</name>
</trkpt>
<trkpt lat="49.214023" lon="11.792693">
<ele>534.6</ele>
<speed>18.0</speed>
<course>122.5</course>
<desc>Speed 18.0 km/h Distance 22.85 km</desc>
<time>2010-06-13T07:37:55.65</time>
<name>5389</name>
</trkpt>
<trkpt lat="49.213998" lon="11.792753">
<ele>534.2</ele>
<speed>19.4</speed>
<course>118.2</course>
<desc>Speed 19.4 km/h Distance 22.86 km</desc>
<time>2010-06-13T07:37:56.65</time>
<name>5390</name>
</trkpt>
<trkpt lat="49.213975" lon="11.792820">
<ele>533.8</ele>
<speed>20.4</speed>
<course>113.1</course>
<desc>Speed 20.4 km/h Distance 22.86 km</desc>
<time>2010-06-13T07:37:57.65</time>
<name>5391</name>
</trkpt>
<trkpt lat="49.213955" lon="11.792892">
<ele>533.7</ele>
<speed>21.4</speed>
<course>106.7</course>
<desc>Speed 21.4 km/h Distance 22.87 km</desc>
<time>2010-06-13T07:37:58.65</time>
<name>5392</name>
</trkpt>
<trkpt lat="49.213940" lon="11.792968">
<ele>533.2</ele>
<speed>21.6</speed>
<course>95.1</course>
<desc>Speed 21.6 km/h Distance 22.87 km</desc>
<time>2010-06-13T07:37:59.65</time>
<name>5393</name>
</trkpt>
<trkpt lat="49.213935" lon="11.793053">
<ele>532.2</ele>
<speed>22.7</speed>
<course>91.7</course>
<desc>Speed 22.7 km/h Distance 22.88 km</desc>
<time>2010-06-13T07:38:00.65</time>
<name>5394</name>
</trkpt>
<trkpt lat="49.213933" lon="11.793138">
<ele>531.9</ele>
<speed>23.1</speed>
<course>94.5</course>
<desc>Speed 23.1 km/h Distance 22.89 km</desc>
<time>2010-06-13T07:38:01.65</time>
<name>5395</name>
</trkpt>
<trkpt lat="49.213928" lon="11.793237">
<ele>532.5</ele>
<speed>23.2</speed>
<course>91.5</course>
<desc>Speed 23.2 km/h Distance 22.89 km</desc>
<time>2010-06-13T07:38:02.65</time>
<name>5396</name>
</trkpt>
<trkpt lat="49.213927" lon="11.793333">
<ele>533.3</ele>
<speed>22.8</speed>
<course>83.0</course>
<desc>Speed 22.8 km/h Distance 22.90 km</desc>
<time>2010-06-13T07:38:03.65</time>
<name>5397</name>
</trkpt>
<trkpt lat="49.213933" lon="11.793417">
<ele>532.9</ele>
<speed>22.7</speed>
<course>80.3</course>
<desc>Speed 22.7 km/h Distance 22.91 km</desc>
<time>2010-06-13T07:38:04.65</time>
<name>5398</name>
</trkpt>
<trkpt lat="49.213943" lon="11.793507">
<ele>532.3</ele>
<speed>24.3</speed>
<course>80.8</course>
<desc>Speed 24.3 km/h Distance 22.91 km</desc>
<time>2010-06-13T07:38:05.65</time>
<name>5399</name>
</trkpt>
<trkpt lat="49.213953" lon="11.793602">
<ele>531.3</ele>
<speed>25.3</speed>
<course>82.4</course>
<desc>Speed 25.3 km/h Distance 22.92 km</desc>
<time>2010-06-13T07:38:06.65</time>
<name>5400</name>
</trkpt>
<trkpt lat="49.213962" lon="11.793697">
<ele>531.2</ele>
<speed>24.9</speed>
<course>85.4</course>
<desc>Speed 24.9 km/h Distance 22.93 km</desc>
<time>2010-06-13T07:38:07.65</time>
<name>5401</name>
</trkpt>
<trkpt lat="49.213967" lon="11.793792">
<ele>531.5</ele>
<speed>25.2</speed>
<course>82.5</course>
<desc>Speed 25.2 km/h Distance 22.93 km</desc>
<time>2010-06-13T07:38:08.65</time>
<name>5402</name>
</trkpt>
<trkpt lat="49.213975" lon="11.793888">
<ele>531.1</ele>
<speed>26.1</speed>
<course>81.4</course>
<desc>Speed 26.1 km/h Distance 22.94 km</desc>
<time>2010-06-13T07:38:09.65</time>
<name>5403</name>
</trkpt>
<trkpt lat="49.213985" lon="11.793990">
<ele>530.2</ele>
<speed>27.0</speed>
<course>81.4</course>
<desc>Speed 27.0 km/h Distance 22.95 km</desc>
<time>2010-06-13T07:38:10.65</time>
<name>5404</name>
</trkpt>
<trkpt lat="49.213995" lon="11.794092">
<ele>529.4</ele>
<speed>27.4</speed>
<course>84.6</course>
<desc>Speed 27.4 km/h Distance 22.96 km</desc>
<time>2010-06-13T07:38:11.65</time>
<name>5405</name>
</trkpt>
<trkpt lat="49.214002" lon="11.794200">
<ele>529.0</ele>
<speed>28.8</speed>
<course>83.5</course>
<desc>Speed 28.8 km/h Distance 22.96 km</desc>
<time>2010-06-13T07:38:12.65</time>
<name>5406</name>
</trkpt>
<trkpt lat="49.214010" lon="11.794312">
<ele>528.5</ele>
<speed>29.2</speed>
<course>82.1</course>
<desc>Speed 29.2 km/h Distance 22.97 km</desc>
<time>2010-06-13T07:38:13.65</time>
<name>5407</name>
</trkpt>
<trkpt lat="49.214020" lon="11.794422">
<ele>528.0</ele>
<speed>29.3</speed>
<course>83.6</course>
<desc>Speed 29.3 km/h Distance 22.98 km</desc>
<time>2010-06-13T07:38:14.65</time>
<name>5408</name>
</trkpt>
<trkpt lat="49.214028" lon="11.794535">
<ele>527.5</ele>
<speed>29.7</speed>
<course>84.9</course>
<desc>Speed 29.7 km/h Distance 22.99 km</desc>
<time>2010-06-13T07:38:15.65</time>
<name>5409</name>
</trkpt>
<trkpt lat="49.214035" lon="11.794648">
<ele>527.0</ele>
<speed>30.1</speed>
<course>83.5</course>
<desc>Speed 30.1 km/h Distance 23.00 km</desc>
<time>2010-06-13T07:38:16.65</time>
<name>5410</name>
</trkpt>
<trkpt lat="49.214043" lon="11.794760">
<ele>526.6</ele>
<speed>29.2</speed>
<course>84.8</course>
<desc>Speed 29.2 km/h Distance 23.00 km</desc>
<time>2010-06-13T07:38:17.65</time>
<name>5411</name>
</trkpt>
<trkpt lat="49.214050" lon="11.794872">
<ele>526.2</ele>
<speed>29.1</speed>
<course>87.3</course>
<desc>Speed 29.1 km/h Distance 23.01 km</desc>
<time>2010-06-13T07:38:18.65</time>
<name>5412</name>
</trkpt>
<trkpt lat="49.214053" lon="11.794980">
<ele>526.5</ele>
<speed>28.5</speed>
<course>87.3</course>
<desc>Speed 28.5 km/h Distance 23.02 km</desc>
<time>2010-06-13T07:38:19.65</time>
<name>5413</name>
</trkpt>
<trkpt lat="49.214057" lon="11.795088">
<ele>526.3</ele>
<speed>28.7</speed>
<course>91.3</course>
<desc>Speed 28.7 km/h Distance 23.03 km</desc>
<time>2010-06-13T07:38:20.65</time>
<name>5414</name>
</trkpt>
<trkpt lat="49.214055" lon="11.795198">
<ele>526.3</ele>
<speed>28.9</speed>
<course>95.1</course>
<desc>Speed 28.9 km/h Distance 23.04 km</desc>
<time>2010-06-13T07:38:21.65</time>
<name>5415</name>
</trkpt>
<trkpt lat="49.214048" lon="11.795312">
<ele>526.4</ele>
<speed>29.8</speed>
<course>99.0</course>
<desc>Speed 29.8 km/h Distance 23.04 km</desc>
<time>2010-06-13T07:38:22.65</time>
<name>5416</name>
</trkpt>
<trkpt lat="49.214037" lon="11.795425">
<ele>526.4</ele>
<speed>30.8</speed>
<course>98.6</course>
<desc>Speed 30.8 km/h Distance 23.05 km</desc>
<time>2010-06-13T07:38:23.65</time>
<name>5417</name>
</trkpt>
<trkpt lat="49.214025" lon="11.795543">
<ele>526.3</ele>
<speed>30.3</speed>
<course>101.5</course>
<desc>Speed 30.3 km/h Distance 23.06 km</desc>
<time>2010-06-13T07:38:24.65</time>
<name>5418</name>
</trkpt>
<trkpt lat="49.214010" lon="11.795657">
<ele>525.8</ele>
<speed>30.0</speed>
<course>97.8</course>
<desc>Speed 30.0 km/h Distance 23.07 km</desc>
<time>2010-06-13T07:38:25.65</time>
<name>5419</name>
</trkpt>
<trkpt lat="49.214000" lon="11.795768">
<ele>525.3</ele>
<speed>30.0</speed>
<course>99.1</course>
<desc>Speed 30.0 km/h Distance 23.08 km</desc>
<time>2010-06-13T07:38:26.65</time>
<name>5420</name>
</trkpt>
<trkpt lat="49.213988" lon="11.795880">
<ele>524.7</ele>
<speed>29.4</speed>
<course>102.0</course>
<desc>Speed 29.4 km/h Distance 23.09 km</desc>
<time>2010-06-13T07:38:27.65</time>
<name>5421</name>
</trkpt>
<trkpt lat="49.213973" lon="11.795988">
<ele>524.1</ele>
<speed>29.1</speed>
<course>105.8</course>
<desc>Speed 29.1 km/h Distance 23.09 km</desc>
<time>2010-06-13T07:38:28.65</time>
<name>5422</name>
</trkpt>
<trkpt lat="49.213953" lon="11.796097">
<ele>523.7</ele>
<speed>29.0</speed>
<course>109.7</course>
<desc>Speed 29.0 km/h Distance 23.10 km</desc>
<time>2010-06-13T07:38:29.65</time>
<name>5423</name>
</trkpt>
<trkpt lat="49.213928" lon="11.796203">
<ele>523.3</ele>
<speed>28.8</speed>
<course>111.2</course>
<desc>Speed 28.8 km/h Distance 23.11 km</desc>
<time>2010-06-13T07:38:30.65</time>
<name>5424</name>
</trkpt>
<trkpt lat="49.213902" lon="11.796308">
<ele>523.0</ele>
<speed>29.4</speed>
<course>113.6</course>
<desc>Speed 29.4 km/h Distance 23.12 km</desc>
<time>2010-06-13T07:38:31.65</time>
<name>5425</name>
</trkpt>
<trkpt lat="49.213872" lon="11.796413">
<ele>522.5</ele>
<speed>29.7</speed>
<course>110.9</course>
<desc>Speed 29.7 km/h Distance 23.13 km</desc>
<time>2010-06-13T07:38:32.65</time>
<name>5426</name>
</trkpt>
<trkpt lat="49.213845" lon="11.796520">
<ele>521.9</ele>
<speed>29.8</speed>
<course>113.8</course>
<desc>Speed 29.8 km/h Distance 23.14 km</desc>
<time>2010-06-13T07:38:33.65</time>
<name>5427</name>
</trkpt>
<trkpt lat="49.213813" lon="11.796630">
<ele>521.2</ele>
<speed>31.4</speed>
<course>111.8</course>
<desc>Speed 31.4 km/h Distance 23.14 km</desc>
<time>2010-06-13T07:38:34.65</time>
<name>5428</name>
</trkpt>
<trkpt lat="49.213783" lon="11.796745">
<ele>520.7</ele>
<speed>33.3</speed>
<course>112.5</course>
<desc>Speed 33.3 km/h Distance 23.15 km</desc>
<time>2010-06-13T07:38:35.65</time>
<name>5429</name>
</trkpt>
<trkpt lat="49.213750" lon="11.796868">
<ele>520.2</ele>
<speed>34.9</speed>
<course>111.9</course>
<desc>Speed 34.9 km/h Distance 23.16 km</desc>
<time>2010-06-13T07:38:36.65</time>
<name>5430</name>
</trkpt>
<trkpt lat="49.213717" lon="11.796995">
<ele>519.6</ele>
<speed>36.3</speed>
<course>112.1</course>
<desc>Speed 36.3 km/h Distance 23.17 km</desc>
<time>2010-06-13T07:38:37.65</time>
<name>5431</name>
</trkpt>
<trkpt lat="49.213682" lon="11.797127">
<ele>519.2</ele>
<speed>37.1</speed>
<course>110.0</course>
<desc>Speed 37.1 km/h Distance 23.18 km</desc>
<time>2010-06-13T07:38:38.65</time>
<name>5432</name>
</trkpt>
<trkpt lat="49.213650" lon="11.797260">
<ele>518.7</ele>
<speed>37.1</speed>
<course>110.2</course>
<desc>Speed 37.1 km/h Distance 23.19 km</desc>
<time>2010-06-13T07:38:39.65</time>
<name>5433</name>
</trkpt>
<trkpt lat="49.213618" lon="11.797392">
<ele>518.3</ele>
<speed>36.4</speed>
<course>110.7</course>
<desc>Speed 36.4 km/h Distance 23.20 km</desc>
<time>2010-06-13T07:38:40.65</time>
<name>5434</name>
</trkpt>
<trkpt lat="49.213587" lon="11.797520">
<ele>517.8</ele>
<speed>35.4</speed>
<course>111.2</course>
<desc>Speed 35.4 km/h Distance 23.21 km</desc>
<time>2010-06-13T07:38:41.65</time>
<name>5435</name>
</trkpt>
<trkpt lat="49.213555" lon="11.797645">
<ele>517.4</ele>
<speed>34.7</speed>
<course>110.7</course>
<desc>Speed 34.7 km/h Distance 23.22 km</desc>
<time>2010-06-13T07:38:42.65</time>
<name>5436</name>
</trkpt>
<trkpt lat="49.213525" lon="11.797767">
<ele>516.9</ele>
<speed>34.0</speed>
<course>108.8</course>
<desc>Speed 34.0 km/h Distance 23.23 km</desc>
<time>2010-06-13T07:38:43.65</time>
<name>5437</name>
</trkpt>
<trkpt lat="49.213498" lon="11.797887">
<ele>516.4</ele>
<speed>32.9</speed>
<course>108.8</course>
<desc>Speed 32.9 km/h Distance 23.24 km</desc>
<time>2010-06-13T07:38:44.65</time>
<name>5438</name>
</trkpt>
<trkpt lat="49.213472" lon="11.798007">
<ele>516.0</ele>
<speed>33.2</speed>
<course>107.9</course>
<desc>Speed 33.2 km/h Distance 23.25 km</desc>
<time>2010-06-13T07:38:45.65</time>
<name>5439</name>
</trkpt>
<trkpt lat="49.213447" lon="11.798125">
<ele>515.6</ele>
<speed>32.3</speed>
<course>104.7</course>
<desc>Speed 32.3 km/h Distance 23.26 km</desc>
<time>2010-06-13T07:38:46.65</time>
<name>5440</name>
</trkpt>
<trkpt lat="49.213427" lon="11.798242">
<ele>515.3</ele>
<speed>31.6</speed>
<course>99.8</course>
<desc>Speed 31.6 km/h Distance 23.27 km</desc>
<time>2010-06-13T07:38:47.65</time>
<name>5441</name>
</trkpt>
<trkpt lat="49.213413" lon="11.798360">
<ele>514.9</ele>
<speed>31.0</speed>
<course>97.6</course>
<desc>Speed 31.0 km/h Distance 23.28 km</desc>
<time>2010-06-13T07:38:48.65</time>
<name>5442</name>
</trkpt>
<trkpt lat="49.213403" lon="11.798475">
<ele>514.6</ele>
<speed>31.1</speed>
<course>93.6</course>
<desc>Speed 31.1 km/h Distance 23.29 km</desc>
<time>2010-06-13T07:38:49.65</time>
<name>5443</name>
</trkpt>
<trkpt lat="49.213398" lon="11.798595">
<ele>514.3</ele>
<speed>31.2</speed>
<course>88.8</course>
<desc>Speed 31.2 km/h Distance 23.30 km</desc>
<time>2010-06-13T07:38:50.65</time>
<name>5444</name>
</trkpt>
<trkpt lat="49.213400" lon="11.798713">
<ele>513.9</ele>
<speed>31.3</speed>
<course>86.4</course>
<desc>Speed 31.3 km/h Distance 23.30 km</desc>
<time>2010-06-13T07:38:51.65</time>
<name>5445</name>
</trkpt>
<trkpt lat="49.213405" lon="11.798835">
<ele>513.7</ele>
<speed>32.4</speed>
<course>85.3</course>
<desc>Speed 32.4 km/h Distance 23.31 km</desc>
<time>2010-06-13T07:38:52.65</time>
<name>5446</name>
</trkpt>
<trkpt lat="49.213412" lon="11.798960">
<ele>513.5</ele>
<speed>33.0</speed>
<course>87.8</course>
<desc>Speed 33.0 km/h Distance 23.32 km</desc>
<time>2010-06-13T07:38:53.65</time>
<name>5447</name>
</trkpt>
<trkpt lat="49.213415" lon="11.799095">
<ele>514.0</ele>
<speed>33.2</speed>
<course>81.1</course>
<desc>Speed 33.2 km/h Distance 23.33 km</desc>
<time>2010-06-13T07:38:54.65</time>
<name>5448</name>
</trkpt>
<trkpt lat="49.213428" lon="11.799225">
<ele>514.3</ele>
<speed>32.8</speed>
<course>81.1</course>
<desc>Speed 32.8 km/h Distance 23.34 km</desc>
<time>2010-06-13T07:38:55.65</time>
<name>5449</name>
</trkpt>
<trkpt lat="49.213442" lon="11.799355">
<ele>514.5</ele>
<speed>32.5</speed>
<course>75.7</course>
<desc>Speed 32.5 km/h Distance 23.35 km</desc>
<time>2010-06-13T07:38:56.65</time>
<name>5450</name>
</trkpt>
<trkpt lat="49.213462" lon="11.799475">
<ele>514.3</ele>
<speed>32.8</speed>
<course>76.2</course>
<desc>Speed 32.8 km/h Distance 23.36 km</desc>
<time>2010-06-13T07:38:57.65</time>
<name>5451</name>
</trkpt>
<trkpt lat="49.213482" lon="11.799600">
<ele>514.3</ele>
<speed>33.2</speed>
<course>75.5</course>
<desc>Speed 33.2 km/h Distance 23.37 km</desc>
<time>2010-06-13T07:38:58.65</time>
<name>5452</name>
</trkpt>
<trkpt lat="49.213503" lon="11.799728">
<ele>514.6</ele>
<speed>33.6</speed>
<course>71.7</course>
<desc>Speed 33.6 km/h Distance 23.38 km</desc>
<time>2010-06-13T07:38:59.65</time>
<name>5453</name>
</trkpt>
<trkpt lat="49.213530" lon="11.799852">
<ele>514.7</ele>
<speed>32.8</speed>
<course>69.3</course>
<desc>Speed 32.8 km/h Distance 23.39 km</desc>
<time>2010-06-13T07:39:00.65</time>
<name>5454</name>
</trkpt>
<trkpt lat="49.213560" lon="11.799973">
<ele>514.9</ele>
<speed>33.1</speed>
<course>68.3</course>
<desc>Speed 33.1 km/h Distance 23.40 km</desc>
<time>2010-06-13T07:39:01.65</time>
<name>5455</name>
</trkpt>
<trkpt lat="49.213592" lon="11.800095">
<ele>515.1</ele>
<speed>33.0</speed>
<course>67.7</course>
<desc>Speed 33.0 km/h Distance 23.41 km</desc>
<time>2010-06-13T07:39:02.65</time>
<name>5456</name>
</trkpt>
<trkpt lat="49.213623" lon="11.800213">
<ele>515.2</ele>
<speed>33.0</speed>
<course>65.0</course>
<desc>Speed 33.0 km/h Distance 23.42 km</desc>
<time>2010-06-13T07:39:03.65</time>
<name>5457</name>
</trkpt>
<trkpt lat="49.213658" lon="11.800328">
<ele>515.0</ele>
<speed>32.9</speed>
<course>62.0</course>
<desc>Speed 32.9 km/h Distance 23.43 km</desc>
<time>2010-06-13T07:39:04.65</time>
<name>5458</name>
</trkpt>
<trkpt lat="49.213698" lon="11.800443">
<ele>515.0</ele>
<speed>32.8</speed>
<course>59.5</course>
<desc>Speed 32.8 km/h Distance 23.44 km</desc>
<time>2010-06-13T07:39:05.65</time>
<name>5459</name>
</trkpt>
<trkpt lat="49.213740" lon="11.800552">
<ele>514.6</ele>
<speed>33.2</speed>
<course>58.9</course>
<desc>Speed 33.2 km/h Distance 23.44 km</desc>
<time>2010-06-13T07:39:06.65</time>
<name>5460</name>
</trkpt>
<trkpt lat="49.213783" lon="11.800662">
<ele>514.3</ele>
<speed>33.6</speed>
<course>56.3</course>
<desc>Speed 33.6 km/h Distance 23.45 km</desc>
<time>2010-06-13T07:39:07.65</time>
<name>5461</name>
</trkpt>
<trkpt lat="49.213828" lon="11.800765">
<ele>513.6</ele>
<speed>34.2</speed>
<course>59.3</course>
<desc>Speed 34.2 km/h Distance 23.46 km</desc>
<time>2010-06-13T07:39:08.65</time>
<name>5462</name>
</trkpt>
<trkpt lat="49.213872" lon="11.800877">
<ele>513.4</ele>
<speed>34.1</speed>
<course>60.1</course>
<desc>Speed 34.1 km/h Distance 23.47 km</desc>
<time>2010-06-13T07:39:09.65</time>
<name>5463</name>
</trkpt>
<trkpt lat="49.213912" lon="11.800983">
<ele>513.1</ele>
<speed>33.2</speed>
<course>59.5</course>
<desc>Speed 33.2 km/h Distance 23.48 km</desc>
<time>2010-06-13T07:39:10.65</time>
<name>5464</name>
</trkpt>
<trkpt lat="49.213953" lon="11.801092">
<ele>513.0</ele>
<speed>31.5</speed>
<course>56.6</course>
<desc>Speed 31.5 km/h Distance 23.49 km</desc>
<time>2010-06-13T07:39:11.65</time>
<name>5465</name>
</trkpt>
<trkpt lat="49.213995" lon="11.801188">
<ele>512.7</ele>
<speed>30.7</speed>
<course>54.1</course>
<desc>Speed 30.7 km/h Distance 23.50 km</desc>
<time>2010-06-13T07:39:12.65</time>
<name>5466</name>
</trkpt>
<trkpt lat="49.214038" lon="11.801280">
<ele>512.1</ele>
<speed>30.4</speed>
<course>53.6</course>
<desc>Speed 30.4 km/h Distance 23.51 km</desc>
<time>2010-06-13T07:39:13.65</time>
<name>5467</name>
</trkpt>
<trkpt lat="49.214080" lon="11.801367">
<ele>511.4</ele>
<speed>29.8</speed>
<course>65.9</course>
<desc>Speed 29.8 km/h Distance 23.52 km</desc>
<time>2010-06-13T07:39:14.65</time>
<name>5468</name>
</trkpt>
<trkpt lat="49.214112" lon="11.801475">
<ele>511.6</ele>
<speed>29.2</speed>
<course>71.2</course>
<desc>Speed 29.2 km/h Distance 23.52 km</desc>
<time>2010-06-13T07:39:15.65</time>
<name>5469</name>
</trkpt>
<trkpt lat="49.214135" lon="11.801580">
<ele>511.6</ele>
<speed>27.4</speed>
<course>71.7</course>
<desc>Speed 27.4 km/h Distance 23.53 km</desc>
<time>2010-06-13T07:39:16.65</time>
<name>5470</name>
</trkpt>
<trkpt lat="49.214157" lon="11.801680">
<ele>511.5</ele>
<speed>27.3</speed>
<course>78.6</course>
<desc>Speed 27.3 km/h Distance 23.54 km</desc>
<time>2010-06-13T07:39:17.65</time>
<name>5471</name>
</trkpt>
<trkpt lat="49.214170" lon="11.801782">
<ele>511.3</ele>
<speed>27.9</speed>
<course>82.1</course>
<desc>Speed 27.9 km/h Distance 23.55 km</desc>
<time>2010-06-13T07:39:18.65</time>
<name>5472</name>
</trkpt>
<trkpt lat="49.214180" lon="11.801892">
<ele>511.3</ele>
<speed>27.8</speed>
<course>86.0</course>
<desc>Speed 27.8 km/h Distance 23.56 km</desc>
<time>2010-06-13T07:39:19.65</time>
<name>5473</name>
</trkpt>
<trkpt lat="49.214185" lon="11.802002">
<ele>511.3</ele>
<speed>28.3</speed>
<course>88.7</course>
<desc>Speed 28.3 km/h Distance 23.56 km</desc>
<time>2010-06-13T07:39:20.65</time>
<name>5474</name>
</trkpt>
<trkpt lat="49.214187" lon="11.802110">
<ele>511.3</ele>
<speed>27.8</speed>
<course>88.6</course>
<desc>Speed 27.8 km/h Distance 23.57 km</desc>
<time>2010-06-13T07:39:21.65</time>
<name>5475</name>
</trkpt>
<trkpt lat="49.214188" lon="11.802217">
<ele>511.2</ele>
<speed>28.2</speed>
<course>88.6</course>
<desc>Speed 28.2 km/h Distance 23.58 km</desc>
<time>2010-06-13T07:39:22.65</time>
<name>5476</name>
</trkpt>
<trkpt lat="49.214190" lon="11.802320">
<ele>511.2</ele>
<speed>28.0</speed>
<course>84.4</course>
<desc>Speed 28.0 km/h Distance 23.59 km</desc>
<time>2010-06-13T07:39:23.65</time>
<name>5477</name>
</trkpt>
<trkpt lat="49.214197" lon="11.802425">
<ele>511.2</ele>
<speed>28.0</speed>
<course>81.7</course>
<desc>Speed 28.0 km/h Distance 23.59 km</desc>
<time>2010-06-13T07:39:24.65</time>
<name>5478</name>
</trkpt>
<trkpt lat="49.214207" lon="11.802530">
<ele>511.2</ele>
<speed>27.8</speed>
<course>83.1</course>
<desc>Speed 27.8 km/h Distance 23.60 km</desc>
<time>2010-06-13T07:39:25.65</time>
<name>5479</name>
</trkpt>
<trkpt lat="49.214215" lon="11.802635">
<ele>511.4</ele>
<speed>28.0</speed>
<course>80.6</course>
<desc>Speed 28.0 km/h Distance 23.61 km</desc>
<time>2010-06-13T07:39:26.65</time>
<name>5480</name>
</trkpt>
<trkpt lat="49.214227" lon="11.802743">
<ele>510.6</ele>
<speed>27.9</speed>
<course>78.5</course>
<desc>Speed 27.9 km/h Distance 23.62 km</desc>
<time>2010-06-13T07:39:27.65</time>
<name>5481</name>
</trkpt>
<trkpt lat="49.214240" lon="11.802843">
<ele>510.5</ele>
<speed>27.5</speed>
<course>73.8</course>
<desc>Speed 27.5 km/h Distance 23.62 km</desc>
<time>2010-06-13T07:39:28.65</time>
<name>5482</name>
</trkpt>
<trkpt lat="49.214258" lon="11.802940">
<ele>510.9</ele>
<speed>26.2</speed>
<course>76.2</course>
<desc>Speed 26.2 km/h Distance 23.63 km</desc>
<time>2010-06-13T07:39:29.65</time>
<name>5483</name>
</trkpt>
<trkpt lat="49.214273" lon="11.803033">
<ele>510.7</ele>
<speed>27.2</speed>
<course>86.1</course>
<desc>Speed 27.2 km/h Distance 23.64 km</desc>
<time>2010-06-13T07:39:30.65</time>
<name>5484</name>
</trkpt>
<trkpt lat="49.214278" lon="11.803145">
<ele>511.0</ele>
<speed>25.8</speed>
<course>88.7</course>
<desc>Speed 25.8 km/h Distance 23.65 km</desc>
<time>2010-06-13T07:39:31.65</time>
<name>5485</name>
</trkpt>
<trkpt lat="49.214280" lon="11.803258">
<ele>511.4</ele>
<speed>26.0</speed>
<course>84.7</course>
<desc>Speed 26.0 km/h Distance 23.66 km</desc>
<time>2010-06-13T07:39:32.65</time>
<name>5486</name>
</trkpt>
<trkpt lat="49.214287" lon="11.803368">
<ele>512.2</ele>
<speed>25.2</speed>
<course>88.6</course>
<desc>Speed 25.2 km/h Distance 23.66 km</desc>
<time>2010-06-13T07:39:33.65</time>
<name>5487</name>
</trkpt>
<trkpt lat="49.214288" lon="11.803472">
<ele>512.2</ele>
<speed>24.4</speed>
<course>87.0</course>
<desc>Speed 24.4 km/h Distance 23.67 km</desc>
<time>2010-06-13T07:39:34.65</time>
<name>5488</name>
</trkpt>
<trkpt lat="49.214292" lon="11.803568">
<ele>512.9</ele>
<speed>25.1</speed>
<course>83.6</course>
<desc>Speed 25.1 km/h Distance 23.68 km</desc>
<time>2010-06-13T07:39:35.65</time>
<name>5489</name>
</trkpt>
<trkpt lat="49.214298" lon="11.803660">
<ele>514.1</ele>
<speed>24.6</speed>
<course>79.5</course>
<desc>Speed 24.6 km/h Distance 23.68 km</desc>
<time>2010-06-13T07:39:36.65</time>
<name>5490</name>
</trkpt>
<trkpt lat="49.214310" lon="11.803757">
<ele>513.9</ele>
<speed>24.0</speed>
<course>81.6</course>
<desc>Speed 24.0 km/h Distance 23.69 km</desc>
<time>2010-06-13T07:39:37.65</time>
<name>5491</name>
</trkpt>
<trkpt lat="49.214318" lon="11.803843">
<ele>514.4</ele>
<speed>23.6</speed>
<course>80.2</course>
<desc>Speed 23.6 km/h Distance 23.70 km</desc>
<time>2010-06-13T07:39:38.65</time>
<name>5492</name>
</trkpt>
<trkpt lat="49.214328" lon="11.803932">
<ele>515.0</ele>
<speed>23.5</speed>
<course>85.1</course>
<desc>Speed 23.5 km/h Distance 23.70 km</desc>
<time>2010-06-13T07:39:39.65</time>
<name>5493</name>
</trkpt>
<trkpt lat="49.214333" lon="11.804022">
<ele>515.9</ele>
<speed>23.4</speed>
<course>80.0</course>
<desc>Speed 23.4 km/h Distance 23.71 km</desc>
<time>2010-06-13T07:39:40.65</time>
<name>5494</name>
</trkpt>
<trkpt lat="49.214343" lon="11.804108">
<ele>515.7</ele>
<speed>23.8</speed>
<course>86.6</course>
<desc>Speed 23.8 km/h Distance 23.72 km</desc>
<time>2010-06-13T07:39:41.65</time>
<name>5495</name>
</trkpt>
<trkpt lat="49.214347" lon="11.804193">
<ele>516.4</ele>
<speed>24.4</speed>
<course>85.3</course>
<desc>Speed 24.4 km/h Distance 23.72 km</desc>
<time>2010-06-13T07:39:42.65</time>
<name>5496</name>
</trkpt>
<trkpt lat="49.214352" lon="11.804287">
<ele>516.5</ele>
<speed>24.3</speed>
<course>88.3</course>
<desc>Speed 24.3 km/h Distance 23.73 km</desc>
<time>2010-06-13T07:39:43.65</time>
<name>5497</name>
</trkpt>
<trkpt lat="49.214353" lon="11.804373">
<ele>517.2</ele>
<speed>24.5</speed>
<course>83.3</course>
<desc>Speed 24.5 km/h Distance 23.74 km</desc>
<time>2010-06-13T07:39:44.65</time>
<name>5498</name>
</trkpt>
<trkpt lat="49.214360" lon="11.804460">
<ele>516.7</ele>
<speed>24.5</speed>
<course>88.5</course>
<desc>Speed 24.5 km/h Distance 23.74 km</desc>
<time>2010-06-13T07:39:45.65</time>
<name>5499</name>
</trkpt>
<trkpt lat="49.214362" lon="11.804555">
<ele>516.9</ele>
<speed>24.3</speed>
<course>78.8</course>
<desc>Speed 24.3 km/h Distance 23.75 km</desc>
<time>2010-06-13T07:39:46.65</time>
<name>5500</name>
</trkpt>
<trkpt lat="49.214373" lon="11.804645">
<ele>516.2</ele>
<speed>24.6</speed>
<course>83.5</course>
<desc>Speed 24.6 km/h Distance 23.76 km</desc>
<time>2010-06-13T07:39:47.65</time>
<name>5501</name>
</trkpt>
<trkpt lat="49.214380" lon="11.804735">
<ele>516.0</ele>
<speed>24.2</speed>
<course>82.5</course>
<desc>Speed 24.2 km/h Distance 23.76 km</desc>
<time>2010-06-13T07:39:48.65</time>
<name>5502</name>
</trkpt>
<trkpt lat="49.214388" lon="11.804832">
<ele>515.7</ele>
<speed>24.3</speed>
<course>84.2</course>
<desc>Speed 24.3 km/h Distance 23.77 km</desc>
<time>2010-06-13T07:39:49.65</time>
<name>5503</name>
</trkpt>
<trkpt lat="49.214395" lon="11.804932">
<ele>515.8</ele>
<speed>24.7</speed>
<course>86.9</course>
<desc>Speed 24.7 km/h Distance 23.78 km</desc>
<time>2010-06-13T07:39:50.65</time>
<name>5504</name>
</trkpt>
<trkpt lat="49.214398" lon="11.805027">
<ele>516.3</ele>
<speed>24.9</speed>
<course>79.8</course>
<desc>Speed 24.9 km/h Distance 23.79 km</desc>
<time>2010-06-13T07:39:51.65</time>
<name>5505</name>
</trkpt>
<trkpt lat="49.214408" lon="11.805112">
<ele>515.5</ele>
<speed>24.5</speed>
<course>78.3</course>
<desc>Speed 24.5 km/h Distance 23.79 km</desc>
<time>2010-06-13T07:39:52.65</time>
<name>5506</name>
</trkpt>
<trkpt lat="49.214422" lon="11.805210">
<ele>514.6</ele>
<speed>24.9</speed>
<course>78.1</course>
<desc>Speed 24.9 km/h Distance 23.80 km</desc>
<time>2010-06-13T07:39:53.65</time>
<name>5507</name>
</trkpt>
<trkpt lat="49.214433" lon="11.805295">
<ele>514.1</ele>
<speed>23.4</speed>
<course>78.8</course>
<desc>Speed 23.4 km/h Distance 23.80 km</desc>
<time>2010-06-13T07:39:54.65</time>
<name>5508</name>
</trkpt>
<trkpt lat="49.214445" lon="11.805385">
<ele>513.9</ele>
<speed>23.0</speed>
<course>78.1</course>
<desc>Speed 23.0 km/h Distance 23.81 km</desc>
<time>2010-06-13T07:39:55.65</time>
<name>5509</name>
</trkpt>
<trkpt lat="49.214457" lon="11.805470">
<ele>513.6</ele>
<speed>23.4</speed>
<course>80.3</course>
<desc>Speed 23.4 km/h Distance 23.82 km</desc>
<time>2010-06-13T07:39:56.65</time>
<name>5510</name>
</trkpt>
<trkpt lat="49.214467" lon="11.805560">
<ele>513.6</ele>
<speed>23.1</speed>
<course>80.8</course>
<desc>Speed 23.1 km/h Distance 23.82 km</desc>
<time>2010-06-13T07:39:57.65</time>
<name>5511</name>
</trkpt>
<trkpt lat="49.214477" lon="11.805655">
<ele>513.9</ele>
<speed>24.0</speed>
<course>79.7</course>
<desc>Speed 24.0 km/h Distance 23.83 km</desc>
<time>2010-06-13T07:39:58.65</time>
<name>5512</name>
</trkpt>
<trkpt lat="49.214488" lon="11.805753">
<ele>514.4</ele>
<speed>25.0</speed>
<course>79.9</course>
<desc>Speed 25.0 km/h Distance 23.84 km</desc>
<time>2010-06-13T07:39:59.65</time>
<name>5513</name>
</trkpt>
<trkpt lat="49.214500" lon="11.805853">
<ele>514.7</ele>
<speed>25.4</speed>
<course>80.2</course>
<desc>Speed 25.4 km/h Distance 23.85 km</desc>
<time>2010-06-13T07:40:00.65</time>
<name>5514</name>
</trkpt>
<trkpt lat="49.214512" lon="11.805957">
<ele>514.7</ele>
<speed>25.1</speed>
<course>81.7</course>
<desc>Speed 25.1 km/h Distance 23.85 km</desc>
<time>2010-06-13T07:40:01.65</time>
<name>5515</name>
</trkpt>
<trkpt lat="49.214522" lon="11.806062">
<ele>514.9</ele>
<speed>25.9</speed>
<course>76.6</course>
<desc>Speed 25.9 km/h Distance 23.86 km</desc>
<time>2010-06-13T07:40:02.65</time>
<name>5516</name>
</trkpt>
<trkpt lat="49.214537" lon="11.806158">
<ele>514.7</ele>
<speed>25.6</speed>
<course>73.3</course>
<desc>Speed 25.6 km/h Distance 23.87 km</desc>
<time>2010-06-13T07:40:03.65</time>
<name>5517</name>
</trkpt>
<trkpt lat="49.214555" lon="11.806252">
<ele>514.3</ele>
<speed>25.0</speed>
<course>75.0</course>
<desc>Speed 25.0 km/h Distance 23.88 km</desc>
<time>2010-06-13T07:40:04.65</time>
<name>5518</name>
</trkpt>
<trkpt lat="49.214572" lon="11.806347">
<ele>514.1</ele>
<speed>25.7</speed>
<course>75.2</course>
<desc>Speed 25.7 km/h Distance 23.88 km</desc>
<time>2010-06-13T07:40:05.65</time>
<name>5519</name>
</trkpt>
<trkpt lat="49.214587" lon="11.806433">
<ele>513.3</ele>
<speed>25.3</speed>
<course>73.3</course>
<desc>Speed 25.3 km/h Distance 23.89 km</desc>
<time>2010-06-13T07:40:06.65</time>
<name>5520</name>
</trkpt>
<trkpt lat="49.214605" lon="11.806527">
<ele>512.8</ele>
<speed>25.3</speed>
<course>77.3</course>
<desc>Speed 25.3 km/h Distance 23.90 km</desc>
<time>2010-06-13T07:40:07.65</time>
<name>5521</name>
</trkpt>
<trkpt lat="49.214620" lon="11.806628">
<ele>512.8</ele>
<speed>26.2</speed>
<course>74.1</course>
<desc>Speed 26.2 km/h Distance 23.90 km</desc>
<time>2010-06-13T07:40:08.65</time>
<name>5522</name>
</trkpt>
<trkpt lat="49.214638" lon="11.806727">
<ele>512.5</ele>
<speed>26.1</speed>
<course>71.2</course>
<desc>Speed 26.1 km/h Distance 23.91 km</desc>
<time>2010-06-13T07:40:09.65</time>
<name>5523</name>
</trkpt>
<trkpt lat="49.214658" lon="11.806817">
<ele>511.8</ele>
<speed>25.5</speed>
<course>73.3</course>
<desc>Speed 25.5 km/h Distance 23.92 km</desc>
<time>2010-06-13T07:40:10.65</time>
<name>5524</name>
</trkpt>
<trkpt lat="49.214677" lon="11.806910">
<ele>511.4</ele>
<speed>25.8</speed>
<course>74.3</course>
<desc>Speed 25.8 km/h Distance 23.93 km</desc>
<time>2010-06-13T07:40:11.65</time>
<name>5525</name>
</trkpt>
<trkpt lat="49.214695" lon="11.807010">
<ele>511.3</ele>
<speed>27.4</speed>
<course>72.2</course>
<desc>Speed 27.4 km/h Distance 23.93 km</desc>
<time>2010-06-13T07:40:12.65</time>
<name>5526</name>
</trkpt>
<trkpt lat="49.214717" lon="11.807113">
<ele>511.3</ele>
<speed>27.6</speed>
<course>74.0</course>
<desc>Speed 27.6 km/h Distance 23.94 km</desc>
<time>2010-06-13T07:40:13.65</time>
<name>5527</name>
</trkpt>
<trkpt lat="49.214737" lon="11.807220">
<ele>511.4</ele>
<speed>27.3</speed>
<course>73.2</course>
<desc>Speed 27.3 km/h Distance 23.95 km</desc>
<time>2010-06-13T07:40:14.65</time>
<name>5528</name>
</trkpt>
<trkpt lat="49.214757" lon="11.807322">
<ele>511.4</ele>
<speed>27.3</speed>
<course>71.5</course>
<desc>Speed 27.3 km/h Distance 23.96 km</desc>
<time>2010-06-13T07:40:15.65</time>
<name>5529</name>
</trkpt>
<trkpt lat="49.214780" lon="11.807428">
<ele>511.6</ele>
<speed>28.7</speed>
<course>69.1</course>
<desc>Speed 28.7 km/h Distance 23.97 km</desc>
<time>2010-06-13T07:40:16.65</time>
<name>5530</name>
</trkpt>
<trkpt lat="49.214805" lon="11.807528">
<ele>511.5</ele>
<speed>28.0</speed>
<course>70.3</course>
<desc>Speed 28.0 km/h Distance 23.97 km</desc>
<time>2010-06-13T07:40:17.65</time>
<name>5531</name>
</trkpt>
<trkpt lat="49.214828" lon="11.807628">
<ele>511.4</ele>
<speed>26.5</speed>
<course>63.4</course>
<desc>Speed 26.5 km/h Distance 23.98 km</desc>
<time>2010-06-13T07:40:18.65</time>
<name>5532</name>
</trkpt>
<trkpt lat="49.214855" lon="11.807710">
<ele>510.6</ele>
<speed>26.7</speed>
<course>72.2</course>
<desc>Speed 26.7 km/h Distance 23.99 km</desc>
<time>2010-06-13T07:40:19.65</time>
<name>5533</name>
</trkpt>
<trkpt lat="49.214877" lon="11.807813">
<ele>510.7</ele>
<speed>26.9</speed>
<course>64.3</course>
<desc>Speed 26.9 km/h Distance 24.00 km</desc>
<time>2010-06-13T07:40:20.65</time>
<name>5534</name>
</trkpt>
<trkpt lat="49.214903" lon="11.807898">
<ele>509.9</ele>
<speed>26.9</speed>
<course>69.8</course>
<desc>Speed 26.9 km/h Distance 24.00 km</desc>
<time>2010-06-13T07:40:21.65</time>
<name>5535</name>
</trkpt>
<trkpt lat="49.214925" lon="11.807988">
<ele>509.4</ele>
<speed>26.5</speed>
<course>74.2</course>
<desc>Speed 26.5 km/h Distance 24.01 km</desc>
<time>2010-06-13T07:40:22.65</time>
<name>5536</name>
</trkpt>
<trkpt lat="49.214945" lon="11.808097">
<ele>509.7</ele>
<speed>27.0</speed>
<course>71.9</course>
<desc>Speed 27.0 km/h Distance 24.02 km</desc>
<time>2010-06-13T07:40:23.65</time>
<name>5537</name>
</trkpt>
<trkpt lat="49.214967" lon="11.808198">
<ele>509.9</ele>
<speed>27.5</speed>
<course>68.8</course>
<desc>Speed 27.5 km/h Distance 24.02 km</desc>
<time>2010-06-13T07:40:24.65</time>
<name>5538</name>
</trkpt>
<trkpt lat="49.214993" lon="11.808303">
<ele>509.9</ele>
<speed>27.3</speed>
<course>67.7</course>
<desc>Speed 27.3 km/h Distance 24.03 km</desc>
<time>2010-06-13T07:40:25.65</time>
<name>5539</name>
</trkpt>
<trkpt lat="49.215018" lon="11.808397">
<ele>508.9</ele>
<speed>26.3</speed>
<course>63.4</course>
<desc>Speed 26.3 km/h Distance 24.04 km</desc>
<time>2010-06-13T07:40:26.65</time>
<name>5540</name>
</trkpt>
<trkpt lat="49.215048" lon="11.808488">
<ele>508.6</ele>
<speed>25.5</speed>
<course>61.7</course>
<desc>Speed 25.5 km/h Distance 24.05 km</desc>
<time>2010-06-13T07:40:27.65</time>
<name>5541</name>
</trkpt>
<trkpt lat="49.215080" lon="11.808578">
<ele>507.8</ele>
<speed>25.7</speed>
<course>71.4</course>
<desc>Speed 25.7 km/h Distance 24.06 km</desc>
<time>2010-06-13T07:40:28.65</time>
<name>5542</name>
</trkpt>
<trkpt lat="49.215102" lon="11.808677">
<ele>507.7</ele>
<speed>26.9</speed>
<course>72.7</course>
<desc>Speed 26.9 km/h Distance 24.06 km</desc>
<time>2010-06-13T07:40:29.65</time>
<name>5543</name>
</trkpt>
<trkpt lat="49.215122" lon="11.808775">
<ele>507.5</ele>
<speed>26.3</speed>
<course>78.8</course>
<desc>Speed 26.3 km/h Distance 24.07 km</desc>
<time>2010-06-13T07:40:30.65</time>
<name>5544</name>
</trkpt>
<trkpt lat="49.215133" lon="11.808865">
<ele>507.2</ele>
<speed>24.8</speed>
<course>83.8</course>
<desc>Speed 24.8 km/h Distance 24.08 km</desc>
<time>2010-06-13T07:40:31.65</time>
<name>5545</name>
</trkpt>
<trkpt lat="49.215140" lon="11.808958">
<ele>506.7</ele>
<speed>24.8</speed>
<course>85.3</course>
<desc>Speed 24.8 km/h Distance 24.08 km</desc>
<time>2010-06-13T07:40:32.65</time>
<name>5546</name>
</trkpt>
<trkpt lat="49.215145" lon="11.809052">
<ele>506.2</ele>
<speed>24.7</speed>
<course>90.0</course>
<desc>Speed 24.7 km/h Distance 24.09 km</desc>
<time>2010-06-13T07:40:33.65</time>
<name>5547</name>
</trkpt>
<trkpt lat="49.215145" lon="11.809145">
<ele>505.9</ele>
<speed>24.9</speed>
<course>93.1</course>
<desc>Speed 24.9 km/h Distance 24.10 km</desc>
<time>2010-06-13T07:40:34.65</time>
<name>5548</name>
</trkpt>
<trkpt lat="49.215142" lon="11.809238">
<ele>505.8</ele>
<speed>25.0</speed>
<course>98.1</course>
<desc>Speed 25.0 km/h Distance 24.10 km</desc>
<time>2010-06-13T07:40:35.65</time>
<name>5549</name>
</trkpt>
<trkpt lat="49.215133" lon="11.809328">
<ele>506.4</ele>
<speed>24.6</speed>
<course>97.9</course>
<desc>Speed 24.6 km/h Distance 24.11 km</desc>
<time>2010-06-13T07:40:36.65</time>
<name>5550</name>
</trkpt>
<trkpt lat="49.215125" lon="11.809420">
<ele>507.0</ele>
<speed>24.5</speed>
<course>94.9</course>
<desc>Speed 24.5 km/h Distance 24.12 km</desc>
<time>2010-06-13T07:40:37.65</time>
<name>5551</name>
</trkpt>
<trkpt lat="49.215120" lon="11.809510">
<ele>507.4</ele>
<speed>23.7</speed>
<course>91.6</course>
<desc>Speed 23.7 km/h Distance 24.12 km</desc>
<time>2010-06-13T07:40:38.65</time>
<name>5552</name>
</trkpt>
<trkpt lat="49.215118" lon="11.809600">
<ele>507.2</ele>
<speed>23.9</speed>
<course>88.4</course>
<desc>Speed 23.9 km/h Distance 24.13 km</desc>
<time>2010-06-13T07:40:39.65</time>
<name>5553</name>
</trkpt>
<trkpt lat="49.215120" lon="11.809693">
<ele>506.5</ele>
<speed>25.2</speed>
<course>83.3</course>
<desc>Speed 25.2 km/h Distance 24.14 km</desc>
<time>2010-06-13T07:40:40.65</time>
<name>5554</name>
</trkpt>
<trkpt lat="49.215127" lon="11.809780">
<ele>505.8</ele>
<speed>24.4</speed>
<course>91.5</course>
<desc>Speed 24.4 km/h Distance 24.14 km</desc>
<time>2010-06-13T07:40:41.65</time>
<name>5555</name>
</trkpt>
<trkpt lat="49.215125" lon="11.809880">
<ele>506.4</ele>
<speed>24.1</speed>
<course>86.8</course>
<desc>Speed 24.1 km/h Distance 24.15 km</desc>
<time>2010-06-13T07:40:42.65</time>
<name>5556</name>
</trkpt>
<trkpt lat="49.215128" lon="11.809970">
<ele>506.3</ele>
<speed>23.2</speed>
<course>90.0</course>
<desc>Speed 23.2 km/h Distance 24.16 km</desc>
<time>2010-06-13T07:40:43.65</time>
<name>5557</name>
</trkpt>
<trkpt lat="49.215128" lon="11.810058">
<ele>507.0</ele>
<speed>23.7</speed>
<course>88.2</course>
<desc>Speed 23.7 km/h Distance 24.16 km</desc>
<time>2010-06-13T07:40:44.65</time>
<name>5558</name>
</trkpt>
<trkpt lat="49.215130" lon="11.810140">
<ele>508.2</ele>
<speed>22.2</speed>
<course>90.0</course>
<desc>Speed 22.2 km/h Distance 24.17 km</desc>
<time>2010-06-13T07:40:45.65</time>
<name>5559</name>
</trkpt>
<trkpt lat="49.215130" lon="11.810225">
<ele>509.2</ele>
<speed>21.6</speed>
<course>86.7</course>
<desc>Speed 21.6 km/h Distance 24.18 km</desc>
<time>2010-06-13T07:40:46.65</time>
<name>5560</name>
</trkpt>
<trkpt lat="49.215133" lon="11.810313">
<ele>508.4</ele>
<speed>23.7</speed>
<course>79.7</course>
<desc>Speed 23.7 km/h Distance 24.18 km</desc>
<time>2010-06-13T07:40:47.65</time>
<name>5561</name>
</trkpt>
<trkpt lat="49.215145" lon="11.810412">
<ele>507.0</ele>
<speed>23.2</speed>
<course>85.0</course>
<desc>Speed 23.2 km/h Distance 24.19 km</desc>
<time>2010-06-13T07:40:48.65</time>
<name>5562</name>
</trkpt>
<trkpt lat="49.215150" lon="11.810498">
<ele>506.7</ele>
<speed>22.2</speed>
<course>83.5</course>
<desc>Speed 22.2 km/h Distance 24.20 km</desc>
<time>2010-06-13T07:40:49.65</time>
<name>5563</name>
</trkpt>
<trkpt lat="49.215157" lon="11.810588">
<ele>507.3</ele>
<speed>22.7</speed>
<course>85.1</course>
<desc>Speed 22.7 km/h Distance 24.20 km</desc>
<time>2010-06-13T07:40:50.65</time>
<name>5564</name>
</trkpt>
<trkpt lat="49.215162" lon="11.810678">
<ele>507.3</ele>
<speed>23.7</speed>
<course>83.6</course>
<desc>Speed 23.7 km/h Distance 24.21 km</desc>
<time>2010-06-13T07:40:51.65</time>
<name>5565</name>
</trkpt>
<trkpt lat="49.215168" lon="11.810770">
<ele>506.5</ele>
<speed>23.0</speed>
<course>86.8</course>
<desc>Speed 23.0 km/h Distance 24.22 km</desc>
<time>2010-06-13T07:40:52.65</time>
<name>5566</name>
</trkpt>
<trkpt lat="49.215172" lon="11.810862">
<ele>506.4</ele>
<speed>23.4</speed>
<course>88.4</course>
<desc>Speed 23.4 km/h Distance 24.22 km</desc>
<time>2010-06-13T07:40:53.65</time>
<name>5567</name>
</trkpt>
<trkpt lat="49.215173" lon="11.810952">
<ele>506.7</ele>
<speed>22.6</speed>
<course>86.6</course>
<desc>Speed 22.6 km/h Distance 24.23 km</desc>
<time>2010-06-13T07:40:54.65</time>
<name>5568</name>
</trkpt>
<trkpt lat="49.215177" lon="11.811038">
<ele>506.1</ele>
<speed>21.9</speed>
<course>88.4</course>
<desc>Speed 21.9 km/h Distance 24.24 km</desc>
<time>2010-06-13T07:40:55.65</time>
<name>5569</name>
</trkpt>
<trkpt lat="49.215178" lon="11.811128">
<ele>506.3</ele>
<speed>22.1</speed>
<course>90.0</course>
<desc>Speed 22.1 km/h Distance 24.24 km</desc>
<time>2010-06-13T07:40:56.65</time>
<name>5570</name>
</trkpt>
<trkpt lat="49.215178" lon="11.811213">
<ele>506.3</ele>
<speed>22.4</speed>
<course>94.7</course>
<desc>Speed 22.4 km/h Distance 24.25 km</desc>
<time>2010-06-13T07:40:57.65</time>
<name>5571</name>
</trkpt>
<trkpt lat="49.215173" lon="11.811307">
<ele>506.8</ele>
<speed>22.7</speed>
<course>86.6</course>
<desc>Speed 22.7 km/h Distance 24.26 km</desc>
<time>2010-06-13T07:40:58.65</time>
<name>5572</name>
</trkpt>
<trkpt lat="49.215177" lon="11.811392">
<ele>506.5</ele>
<speed>21.5</speed>
<course>88.2</course>
<desc>Speed 21.5 km/h Distance 24.26 km</desc>
<time>2010-06-13T07:40:59.65</time>
<name>5573</name>
</trkpt>
<trkpt lat="49.215178" lon="11.811473">
<ele>506.7</ele>
<speed>21.6</speed>
<course>77.1</course>
<desc>Speed 21.6 km/h Distance 24.27 km</desc>
<time>2010-06-13T07:41:00.65</time>
<name>5574</name>
</trkpt>
<trkpt lat="49.215188" lon="11.811540">
<ele>505.9</ele>
<speed>19.2</speed>
<course>76.4</course>
<desc>Speed 19.2 km/h Distance 24.27 km</desc>
<time>2010-06-13T07:41:01.65</time>
<name>5575</name>
</trkpt>
<trkpt lat="49.215198" lon="11.811603">
<ele>506.8</ele>
<speed>16.9</speed>
<course>78.5</course>
<desc>Speed 16.9 km/h Distance 24.28 km</desc>
<time>2010-06-13T07:41:02.65</time>
<name>5576</name>
</trkpt>
<trkpt lat="49.215205" lon="11.811653">
<ele>507.7</ele>
<speed>13.0</speed>
<course>101.9</course>
<desc>Speed 13.0 km/h Distance 24.28 km</desc>
<time>2010-06-13T07:41:03.65</time>
<name>5577</name>
</trkpt>
<trkpt lat="49.215198" lon="11.811702">
<ele>507.8</ele>
<speed>11.6</speed>
<course>101.5</course>
<desc>Speed 11.6 km/h Distance 24.28 km</desc>
<time>2010-06-13T07:41:04.65</time>
<name>5578</name>
</trkpt>
<trkpt lat="49.215192" lon="11.811752">
<ele>507.7</ele>
<speed>13.9</speed>
<course>85.0</course>
<desc>Speed 13.9 km/h Distance 24.29 km</desc>
<time>2010-06-13T07:41:05.65</time>
<name>5579</name>
</trkpt>
<trkpt lat="49.215195" lon="11.811810">
<ele>507.3</ele>
<speed>15.5</speed>
<course>78.6</course>
<desc>Speed 15.5 km/h Distance 24.29 km</desc>
<time>2010-06-13T07:41:06.65</time>
<name>5580</name>
</trkpt>
<trkpt lat="49.215203" lon="11.811873">
<ele>506.8</ele>
<speed>17.2</speed>
<course>91.8</course>
<desc>Speed 17.2 km/h Distance 24.30 km</desc>
<time>2010-06-13T07:41:07.65</time>
<name>5581</name>
</trkpt>
<trkpt lat="49.215202" lon="11.811955">
<ele>507.2</ele>
<speed>18.4</speed>
<course>103.6</course>
<desc>Speed 18.4 km/h Distance 24.30 km</desc>
<time>2010-06-13T07:41:08.65</time>
<name>5582</name>
</trkpt>
<trkpt lat="49.215175" lon="11.812123">
<ele>508.6</ele>
<speed>18.5</speed>
<course>108.6</course>
<desc>Speed 18.5 km/h Distance 24.32 km</desc>
<time>2010-06-13T07:41:10.65</time>
<name>5583</name>
</trkpt>
<trkpt lat="49.215160" lon="11.812192">
<ele>509.6</ele>
<speed>18.1</speed>
<course>107.4</course>
<desc>Speed 18.1 km/h Distance 24.32 km</desc>
<time>2010-06-13T07:41:11.65</time>
<name>5584</name>
</trkpt>
<trkpt lat="49.215145" lon="11.812265">
<ele>509.7</ele>
<speed>20.5</speed>
<course>100.8</course>
<desc>Speed 20.5 km/h Distance 24.33 km</desc>
<time>2010-06-13T07:41:12.65</time>
<name>5585</name>
</trkpt>
<trkpt lat="49.215135" lon="11.812345">
<ele>510.5</ele>
<speed>22.9</speed>
<course>93.3</course>
<desc>Speed 22.9 km/h Distance 24.33 km</desc>
<time>2010-06-13T07:41:13.65</time>
<name>5586</name>
</trkpt>
<trkpt lat="49.215132" lon="11.812433">
<ele>510.9</ele>
<speed>23.6</speed>
<course>91.5</course>
<desc>Speed 23.6 km/h Distance 24.34 km</desc>
<time>2010-06-13T07:41:14.65</time>
<name>5587</name>
</trkpt>
<trkpt lat="49.215130" lon="11.812528">
<ele>511.2</ele>
<speed>24.8</speed>
<course>88.6</course>
<desc>Speed 24.8 km/h Distance 24.35 km</desc>
<time>2010-06-13T07:41:15.65</time>
<name>5588</name>
</trkpt>
<trkpt lat="49.215132" lon="11.812630">
<ele>511.2</ele>
<speed>26.3</speed>
<course>84.4</course>
<desc>Speed 26.3 km/h Distance 24.35 km</desc>
<time>2010-06-13T07:41:16.65</time>
<name>5589</name>
</trkpt>
<trkpt lat="49.215138" lon="11.812733">
<ele>511.1</ele>
<speed>26.4</speed>
<course>79.7</course>
<desc>Speed 26.4 km/h Distance 24.36 km</desc>
<time>2010-06-13T07:41:17.65</time>
<name>5590</name>
</trkpt>
<trkpt lat="49.215150" lon="11.812832">
<ele>510.7</ele>
<speed>26.3</speed>
<course>84.8</course>
<desc>Speed 26.3 km/h Distance 24.37 km</desc>
<time>2010-06-13T07:41:18.65</time>
<name>5591</name>
</trkpt>
<trkpt lat="49.215157" lon="11.812943">
<ele>511.2</ele>
<speed>26.0</speed>
<course>83.1</course>
<desc>Speed 26.0 km/h Distance 24.38 km</desc>
<time>2010-06-13T07:41:19.65</time>
<name>5592</name>
</trkpt>
<trkpt lat="49.215165" lon="11.813048">
<ele>511.5</ele>
<speed>26.0</speed>
<course>79.4</course>
<desc>Speed 26.0 km/h Distance 24.38 km</desc>
<time>2010-06-13T07:41:20.65</time>
<name>5593</name>
</trkpt>
<trkpt lat="49.215177" lon="11.813143">
<ele>511.0</ele>
<speed>26.1</speed>
<course>92.7</course>
<desc>Speed 26.1 km/h Distance 24.39 km</desc>
<time>2010-06-13T07:41:21.65</time>
<name>5594</name>
</trkpt>
<trkpt lat="49.215173" lon="11.813250">
<ele>511.6</ele>
<speed>25.1</speed>
<course>91.6</course>
<desc>Speed 25.1 km/h Distance 24.40 km</desc>
<time>2010-06-13T07:41:22.65</time>
<name>5595</name>
</trkpt>
<trkpt lat="49.215172" lon="11.813343">
<ele>511.3</ele>
<speed>24.5</speed>
<course>93.0</course>
<desc>Speed 24.5 km/h Distance 24.41 km</desc>
<time>2010-06-13T07:41:23.65</time>
<name>5596</name>
</trkpt>
<trkpt lat="49.215168" lon="11.813440">
<ele>510.8</ele>
<speed>25.8</speed>
<course>93.3</course>
<desc>Speed 25.8 km/h Distance 24.41 km</desc>
<time>2010-06-13T07:41:24.65</time>
<name>5597</name>
</trkpt>
<trkpt lat="49.215165" lon="11.813528">
<ele>511.5</ele>
<speed>23.2</speed>
<course>99.4</course>
<desc>Speed 23.2 km/h Distance 24.42 km</desc>
<time>2010-06-13T07:41:25.65</time>
<name>5598</name>
</trkpt>
<trkpt lat="49.215157" lon="11.813605">
<ele>511.2</ele>
<speed>19.7</speed>
<course>110.0</course>
<desc>Speed 19.7 km/h Distance 24.42 km</desc>
<time>2010-06-13T07:41:26.65</time>
<name>5599</name>
</trkpt>
<trkpt lat="49.215140" lon="11.813675">
<ele>511.5</ele>
<speed>16.5</speed>
<course>110.3</course>
<desc>Speed 16.5 km/h Distance 24.43 km</desc>
<time>2010-06-13T07:41:27.65</time>
<name>5600</name>
</trkpt>
<trkpt lat="49.215128" lon="11.813723">
<ele>511.3</ele>
<speed>11.3</speed>
<course>105.6</course>
<desc>Speed 11.3 km/h Distance 24.43 km</desc>
<time>2010-06-13T07:41:28.65</time>
<name>5601</name>
</trkpt>
<trkpt lat="49.215122" lon="11.813760">
<ele>511.6</ele>
<speed>9.2</speed>
<course>100.2</course>
<desc>Speed 9.2 km/h Distance 24.44 km</desc>
<time>2010-06-13T07:41:29.65</time>
<name>5602</name>
</trkpt>
<trkpt lat="49.215118" lon="11.813788">
<ele>511.7</ele>
<speed>8.4</speed>
<course>81.7</course>
<desc>Speed 8.4 km/h Distance 24.44 km</desc>
<time>2010-06-13T07:41:30.65</time>
<name>5603</name>
</trkpt>
<trkpt lat="49.215122" lon="11.813823">
<ele>510.9</ele>
<speed>9.0</speed>
<course>90.0</course>
<desc>Speed 9.0 km/h Distance 24.44 km</desc>
<time>2010-06-13T07:41:31.65</time>
<name>5604</name>
</trkpt>
<trkpt lat="49.215122" lon="11.813868">
<ele>511.5</ele>
<speed>10.7</speed>
<course>66.8</course>
<desc>Speed 10.7 km/h Distance 24.44 km</desc>
<time>2010-06-13T07:41:32.65</time>
<name>5605</name>
</trkpt>
<trkpt lat="49.215133" lon="11.813910">
<ele>512.2</ele>
<speed>12.9</speed>
<course>54.8</course>
<desc>Speed 12.9 km/h Distance 24.45 km</desc>
<time>2010-06-13T07:41:33.65</time>
<name>5606</name>
</trkpt>
<trkpt lat="49.215153" lon="11.813953">
<ele>512.3</ele>
<speed>13.8</speed>
<course>56.4</course>
<desc>Speed 13.8 km/h Distance 24.45 km</desc>
<time>2010-06-13T07:41:34.65</time>
<name>5607</name>
</trkpt>
<trkpt lat="49.215175" lon="11.814003">
<ele>512.3</ele>
<speed>15.1</speed>
<course>48.6</course>
<desc>Speed 15.1 km/h Distance 24.46 km</desc>
<time>2010-06-13T07:41:35.65</time>
<name>5608</name>
</trkpt>
<trkpt lat="49.215207" lon="11.814058">
<ele>512.1</ele>
<speed>17.6</speed>
<course>47.2</course>
<desc>Speed 17.6 km/h Distance 24.46 km</desc>
<time>2010-06-13T07:41:36.65</time>
<name>5609</name>
</trkpt>
<trkpt lat="49.215240" lon="11.814113">
<ele>511.6</ele>
<speed>17.1</speed>
<course>33.2</course>
<desc>Speed 17.1 km/h Distance 24.47 km</desc>
<time>2010-06-13T07:41:37.65</time>
<name>5610</name>
</trkpt>
<trkpt lat="49.215280" lon="11.814153">
<ele>510.1</ele>
<speed>18.1</speed>
<course>35.2</course>
<desc>Speed 18.1 km/h Distance 24.47 km</desc>
<time>2010-06-13T07:41:38.65</time>
<name>5611</name>
</trkpt>
<trkpt lat="49.215322" lon="11.814198">
<ele>509.1</ele>
<speed>19.0</speed>
<course>45.3</course>
<desc>Speed 19.0 km/h Distance 24.48 km</desc>
<time>2010-06-13T07:41:39.65</time>
<name>5612</name>
</trkpt>
<trkpt lat="49.215358" lon="11.814255">
<ele>509.4</ele>
<speed>19.8</speed>
<course>43.5</course>
<desc>Speed 19.8 km/h Distance 24.48 km</desc>
<time>2010-06-13T07:41:40.65</time>
<name>5613</name>
</trkpt>
<trkpt lat="49.215395" lon="11.814308">
<ele>509.2</ele>
<speed>20.1</speed>
<course>35.5</course>
<desc>Speed 20.1 km/h Distance 24.49 km</desc>
<time>2010-06-13T07:41:41.65</time>
<name>5614</name>
</trkpt>
<trkpt lat="49.215432" lon="11.814348">
<ele>507.5</ele>
<speed>20.0</speed>
<course>41.7</course>
<desc>Speed 20.0 km/h Distance 24.49 km</desc>
<time>2010-06-13T07:41:42.65</time>
<name>5615</name>
</trkpt>
<trkpt lat="49.215468" lon="11.814398">
<ele>506.9</ele>
<speed>19.3</speed>
<course>38.5</course>
<desc>Speed 19.3 km/h Distance 24.50 km</desc>
<time>2010-06-13T07:41:43.65</time>
<name>5616</name>
</trkpt>
<trkpt lat="49.215507" lon="11.814445">
<ele>506.1</ele>
<speed>18.9</speed>
<course>50.3</course>
<desc>Speed 18.9 km/h Distance 24.50 km</desc>
<time>2010-06-13T07:41:44.65</time>
<name>5617</name>
</trkpt>
<trkpt lat="49.215538" lon="11.814503">
<ele>505.6</ele>
<speed>18.5</speed>
<course>42.4</course>
<desc>Speed 18.5 km/h Distance 24.51 km</desc>
<time>2010-06-13T07:41:45.65</time>
<name>5618</name>
</trkpt>
<trkpt lat="49.215572" lon="11.814550">
<ele>505.7</ele>
<speed>17.7</speed>
<course>30.7</course>
<desc>Speed 17.7 km/h Distance 24.52 km</desc>
<time>2010-06-13T07:41:46.65</time>
<name>5619</name>
</trkpt>
<trkpt lat="49.215608" lon="11.814583">
<ele>504.5</ele>
<speed>16.8</speed>
<course>31.7</course>
<desc>Speed 16.8 km/h Distance 24.52 km</desc>
<time>2010-06-13T07:41:47.65</time>
<name>5620</name>
</trkpt>
<trkpt lat="49.215640" lon="11.814613">
<ele>503.7</ele>
<speed>15.5</speed>
<course>46.7</course>
<desc>Speed 15.5 km/h Distance 24.52 km</desc>
<time>2010-06-13T07:41:48.65</time>
<name>5621</name>
</trkpt>
<trkpt lat="49.215667" lon="11.814657">
<ele>503.9</ele>
<speed>14.9</speed>
<course>70.3</course>
<desc>Speed 14.9 km/h Distance 24.53 km</desc>
<time>2010-06-13T07:41:49.65</time>
<name>5622</name>
</trkpt>
<trkpt lat="49.215678" lon="11.814707">
<ele>503.7</ele>
<speed>13.6</speed>
<course>85.1</course>
<desc>Speed 13.6 km/h Distance 24.53 km</desc>
<time>2010-06-13T07:41:50.65</time>
<name>5623</name>
</trkpt>
<trkpt lat="49.215682" lon="11.814767">
<ele>503.6</ele>
<speed>15.1</speed>
<course>99.9</course>
<desc>Speed 15.1 km/h Distance 24.54 km</desc>
<time>2010-06-13T07:41:51.65</time>
<name>5624</name>
</trkpt>
<trkpt lat="49.215673" lon="11.814840">
<ele>503.6</ele>
<speed>18.3</speed>
<course>110.6</course>
<desc>Speed 18.3 km/h Distance 24.54 km</desc>
<time>2010-06-13T07:41:52.65</time>
<name>5625</name>
</trkpt>
<trkpt lat="49.215628" lon="11.815023">
<ele>504.8</ele>
<speed>21.9</speed>
<course>109.8</course>
<desc>Speed 21.9 km/h Distance 24.56 km</desc>
<time>2010-06-13T07:41:54.65</time>
<name>5626</name>
</trkpt>
<trkpt lat="49.215608" lon="11.815108">
<ele>505.0</ele>
<speed>22.1</speed>
<course>105.9</course>
<desc>Speed 22.1 km/h Distance 24.56 km</desc>
<time>2010-06-13T07:41:55.65</time>
<name>5627</name>
</trkpt>
<trkpt lat="49.215595" lon="11.815180">
<ele>504.0</ele>
<speed>22.0</speed>
<course>115.2</course>
<desc>Speed 22.0 km/h Distance 24.57 km</desc>
<time>2010-06-13T07:41:56.65</time>
<name>5628</name>
</trkpt>
<trkpt lat="49.215568" lon="11.815267">
<ele>503.7</ele>
<speed>23.7</speed>
<course>111.8</course>
<desc>Speed 23.7 km/h Distance 24.58 km</desc>
<time>2010-06-13T07:41:57.65</time>
<name>5629</name>
</trkpt>
<trkpt lat="49.215548" lon="11.815343">
<ele>502.7</ele>
<speed>23.3</speed>
<course>118.5</course>
<desc>Speed 23.3 km/h Distance 24.58 km</desc>
<time>2010-06-13T07:41:58.65</time>
<name>5630</name>
</trkpt>
<trkpt lat="49.215520" lon="11.815423">
<ele>502.5</ele>
<speed>23.8</speed>
<course>117.0</course>
<desc>Speed 23.8 km/h Distance 24.59 km</desc>
<time>2010-06-13T07:41:59.65</time>
<name>5631</name>
</trkpt>
<trkpt lat="49.215493" lon="11.815503">
<ele>502.0</ele>
<speed>23.7</speed>
<course>115.7</course>
<desc>Speed 23.7 km/h Distance 24.59 km</desc>
<time>2010-06-13T07:42:00.65</time>
<name>5632</name>
</trkpt>
<trkpt lat="49.215467" lon="11.815588">
<ele>501.3</ele>
<speed>24.2</speed>
<course>119.1</course>
<desc>Speed 24.2 km/h Distance 24.60 km</desc>
<time>2010-06-13T07:42:01.65</time>
<name>5633</name>
</trkpt>
<trkpt lat="49.215440" lon="11.815662">
<ele>500.3</ele>
<speed>22.7</speed>
<course>115.5</course>
<desc>Speed 22.7 km/h Distance 24.61 km</desc>
<time>2010-06-13T07:42:02.65</time>
<name>5634</name>
</trkpt>
<trkpt lat="49.215417" lon="11.815737">
<ele>500.1</ele>
<speed>21.6</speed>
<course>114.3</course>
<desc>Speed 21.6 km/h Distance 24.61 km</desc>
<time>2010-06-13T07:42:03.65</time>
<name>5635</name>
</trkpt>
<trkpt lat="49.215395" lon="11.815810">
<ele>499.9</ele>
<speed>21.8</speed>
<course>118.0</course>
<desc>Speed 21.8 km/h Distance 24.62 km</desc>
<time>2010-06-13T07:42:04.65</time>
<name>5636</name>
</trkpt>
<trkpt lat="49.215368" lon="11.815887">
<ele>499.1</ele>
<speed>22.2</speed>
<course>122.1</course>
<desc>Speed 22.2 km/h Distance 24.63 km</desc>
<time>2010-06-13T07:42:05.65</time>
<name>5637</name>
</trkpt>
<trkpt lat="49.215338" lon="11.815960">
<ele>500.1</ele>
<speed>22.5</speed>
<course>124.1</course>
<desc>Speed 22.5 km/h Distance 24.63 km</desc>
<time>2010-06-13T07:42:06.65</time>
<name>5638</name>
</trkpt>
<trkpt lat="49.215300" lon="11.816047">
<ele>500.9</ele>
<speed>23.5</speed>
<course>127.4</course>
<desc>Speed 23.5 km/h Distance 24.64 km</desc>
<time>2010-06-13T07:42:07.65</time>
<name>5639</name>
</trkpt>
<trkpt lat="49.215263" lon="11.816120">
<ele>501.6</ele>
<speed>24.0</speed>
<course>127.4</course>
<desc>Speed 24.0 km/h Distance 24.65 km</desc>
<time>2010-06-13T07:42:08.65</time>
<name>5640</name>
</trkpt>
<trkpt lat="49.215225" lon="11.816197">
<ele>502.0</ele>
<speed>23.6</speed>
<course>126.2</course>
<desc>Speed 23.6 km/h Distance 24.65 km</desc>
<time>2010-06-13T07:42:09.65</time>
<name>5641</name>
</trkpt>
<trkpt lat="49.215188" lon="11.816273">
<ele>502.1</ele>
<speed>23.0</speed>
<course>124.4</course>
<desc>Speed 23.0 km/h Distance 24.66 km</desc>
<time>2010-06-13T07:42:10.65</time>
<name>5642</name>
</trkpt>
<trkpt lat="49.215153" lon="11.816352">
<ele>502.6</ele>
<speed>23.5</speed>
<course>122.7</course>
<desc>Speed 23.5 km/h Distance 24.67 km</desc>
<time>2010-06-13T07:42:11.65</time>
<name>5643</name>
</trkpt>
<trkpt lat="49.215118" lon="11.816435">
<ele>503.8</ele>
<speed>23.9</speed>
<course>121.5</course>
<desc>Speed 23.9 km/h Distance 24.67 km</desc>
<time>2010-06-13T07:42:12.65</time>
<name>5644</name>
</trkpt>
<trkpt lat="49.215085" lon="11.816518">
<ele>504.8</ele>
<speed>24.6</speed>
<course>122.0</course>
<desc>Speed 24.6 km/h Distance 24.68 km</desc>
<time>2010-06-13T07:42:13.65</time>
<name>5645</name>
</trkpt>
<trkpt lat="49.215052" lon="11.816600">
<ele>504.4</ele>
<speed>25.0</speed>
<course>120.2</course>
<desc>Speed 25.0 km/h Distance 24.69 km</desc>
<time>2010-06-13T07:42:14.65</time>
<name>5646</name>
</trkpt>
<trkpt lat="49.215020" lon="11.816683">
<ele>504.3</ele>
<speed>24.8</speed>
<course>119.2</course>
<desc>Speed 24.8 km/h Distance 24.70 km</desc>
<time>2010-06-13T07:42:15.65</time>
<name>5647</name>
</trkpt>
<trkpt lat="49.214988" lon="11.816770">
<ele>504.0</ele>
<speed>24.4</speed>
<course>119.9</course>
<desc>Speed 24.4 km/h Distance 24.70 km</desc>
<time>2010-06-13T07:42:16.65</time>
<name>5648</name>
</trkpt>
<trkpt lat="49.214958" lon="11.816850">
<ele>503.8</ele>
<speed>22.9</speed>
<course>122.2</course>
<desc>Speed 22.9 km/h Distance 24.71 km</desc>
<time>2010-06-13T07:42:17.65</time>
<name>5649</name>
</trkpt>
<trkpt lat="49.214923" lon="11.816935">
<ele>502.7</ele>
<speed>22.6</speed>
<course>120.8</course>
<desc>Speed 22.6 km/h Distance 24.72 km</desc>
<time>2010-06-13T07:42:18.65</time>
<name>5650</name>
</trkpt>
<trkpt lat="49.214888" lon="11.817025">
<ele>502.3</ele>
<speed>24.3</speed>
<course>106.0</course>
<desc>Speed 24.3 km/h Distance 24.72 km</desc>
<time>2010-06-13T07:42:19.65</time>
<name>5651</name>
</trkpt>
<trkpt lat="49.214873" lon="11.817105">
<ele>502.9</ele>
<speed>22.8</speed>
<course>104.6</course>
<desc>Speed 22.8 km/h Distance 24.73 km</desc>
<time>2010-06-13T07:42:20.65</time>
<name>5652</name>
</trkpt>
<trkpt lat="49.214858" lon="11.817193">
<ele>502.1</ele>
<speed>23.1</speed>
<course>102.7</course>
<desc>Speed 23.1 km/h Distance 24.74 km</desc>
<time>2010-06-13T07:42:21.65</time>
<name>5653</name>
</trkpt>
<trkpt lat="49.214843" lon="11.817295">
<ele>501.8</ele>
<speed>25.1</speed>
<course>104.5</course>
<desc>Speed 25.1 km/h Distance 24.74 km</desc>
<time>2010-06-13T07:42:22.65</time>
<name>5654</name>
</trkpt>
<trkpt lat="49.214827" lon="11.817393">
<ele>501.1</ele>
<speed>25.2</speed>
<course>98.7</course>
<desc>Speed 25.2 km/h Distance 24.75 km</desc>
<time>2010-06-13T07:42:23.65</time>
<name>5655</name>
</trkpt>
<trkpt lat="49.214817" lon="11.817493">
<ele>501.2</ele>
<speed>25.3</speed>
<course>101.5</course>
<desc>Speed 25.3 km/h Distance 24.76 km</desc>
<time>2010-06-13T07:42:24.65</time>
<name>5656</name>
</trkpt>
<trkpt lat="49.214803" lon="11.817593">
<ele>501.4</ele>
<speed>26.1</speed>
<course>94.2</course>
<desc>Speed 26.1 km/h Distance 24.77 km</desc>
<time>2010-06-13T07:42:25.65</time>
<name>5657</name>
</trkpt>
<trkpt lat="49.214798" lon="11.817697">
<ele>500.6</ele>
<speed>27.2</speed>
<course>92.7</course>
<desc>Speed 27.2 km/h Distance 24.77 km</desc>
<time>2010-06-13T07:42:26.65</time>
<name>5658</name>
</trkpt>
<trkpt lat="49.214795" lon="11.817803">
<ele>500.1</ele>
<speed>27.8</speed>
<course>94.0</course>
<desc>Speed 27.8 km/h Distance 24.78 km</desc>
<time>2010-06-13T07:42:27.65</time>
<name>5659</name>
</trkpt>
<trkpt lat="49.214790" lon="11.817912">
<ele>499.7</ele>
<speed>28.3</speed>
<course>97.7</course>
<desc>Speed 28.3 km/h Distance 24.79 km</desc>
<time>2010-06-13T07:42:28.65</time>
<name>5660</name>
</trkpt>
<trkpt lat="49.214780" lon="11.818025">
<ele>499.8</ele>
<speed>29.6</speed>
<course>92.6</course>
<desc>Speed 29.6 km/h Distance 24.80 km</desc>
<time>2010-06-13T07:42:29.65</time>
<name>5661</name>
</trkpt>
<trkpt lat="49.214777" lon="11.818138">
<ele>499.1</ele>
<speed>29.2</speed>
<course>96.4</course>
<desc>Speed 29.2 km/h Distance 24.81 km</desc>
<time>2010-06-13T07:42:30.65</time>
<name>5662</name>
</trkpt>
<trkpt lat="49.214768" lon="11.818252">
<ele>499.4</ele>
<speed>29.5</speed>
<course>93.9</course>
<desc>Speed 29.5 km/h Distance 24.81 km</desc>
<time>2010-06-13T07:42:31.65</time>
<name>5663</name>
</trkpt>
<trkpt lat="49.214763" lon="11.818365">
<ele>499.4</ele>
<speed>30.1</speed>
<course>91.2</course>
<desc>Speed 30.1 km/h Distance 24.82 km</desc>
<time>2010-06-13T07:42:32.65</time>
<name>5664</name>
</trkpt>
<trkpt lat="49.214762" lon="11.818483">
<ele>499.1</ele>
<speed>30.5</speed>
<course>90.0</course>
<desc>Speed 30.5 km/h Distance 24.83 km</desc>
<time>2010-06-13T07:42:33.65</time>
<name>5665</name>
</trkpt>
<trkpt lat="49.214762" lon="11.818603">
<ele>498.7</ele>
<speed>31.3</speed>
<course>88.8</course>
<desc>Speed 31.3 km/h Distance 24.84 km</desc>
<time>2010-06-13T07:42:34.65</time>
<name>5666</name>
</trkpt>
<trkpt lat="49.214763" lon="11.818727">
<ele>498.4</ele>
<speed>32.0</speed>
<course>92.3</course>
<desc>Speed 32.0 km/h Distance 24.85 km</desc>
<time>2010-06-13T07:42:35.65</time>
<name>5667</name>
</trkpt>
<trkpt lat="49.214760" lon="11.818852">
<ele>498.5</ele>
<speed>32.9</speed>
<course>92.3</course>
<desc>Speed 32.9 km/h Distance 24.86 km</desc>
<time>2010-06-13T07:42:36.65</time>
<name>5668</name>
</trkpt>
<trkpt lat="49.214757" lon="11.818978">
<ele>498.7</ele>
<speed>32.5</speed>
<course>88.8</course>
<desc>Speed 32.5 km/h Distance 24.87 km</desc>
<time>2010-06-13T07:42:37.65</time>
<name>5669</name>
</trkpt>
<trkpt lat="49.214758" lon="11.819103">
<ele>498.2</ele>
<speed>32.6</speed>
<course>88.8</course>
<desc>Speed 32.6 km/h Distance 24.88 km</desc>
<time>2010-06-13T07:42:38.65</time>
<name>5670</name>
</trkpt>
<trkpt lat="49.214760" lon="11.819230">
<ele>497.8</ele>
<speed>32.5</speed>
<course>87.7</course>
<desc>Speed 32.5 km/h Distance 24.89 km</desc>
<time>2010-06-13T07:42:39.65</time>
<name>5671</name>
</trkpt>
<trkpt lat="49.214763" lon="11.819355">
<ele>497.5</ele>
<speed>32.7</speed>
<course>88.8</course>
<desc>Speed 32.7 km/h Distance 24.90 km</desc>
<time>2010-06-13T07:42:40.65</time>
<name>5672</name>
</trkpt>
<trkpt lat="49.214765" lon="11.819482">
<ele>497.1</ele>
<speed>32.9</speed>
<course>91.1</course>
<desc>Speed 32.9 km/h Distance 24.90 km</desc>
<time>2010-06-13T07:42:41.65</time>
<name>5673</name>
</trkpt>
<trkpt lat="49.214763" lon="11.819610">
<ele>497.2</ele>
<speed>33.7</speed>
<course>92.2</course>
<desc>Speed 33.7 km/h Distance 24.91 km</desc>
<time>2010-06-13T07:42:42.65</time>
<name>5674</name>
</trkpt>
<trkpt lat="49.214760" lon="11.819740">
<ele>497.2</ele>
<speed>33.7</speed>
<course>92.2</course>
<desc>Speed 33.7 km/h Distance 24.92 km</desc>
<time>2010-06-13T07:42:43.65</time>
<name>5675</name>
</trkpt>
<trkpt lat="49.214757" lon="11.819872">
<ele>497.1</ele>
<speed>34.1</speed>
<course>90.0</course>
<desc>Speed 34.1 km/h Distance 24.93 km</desc>
<time>2010-06-13T07:42:44.65</time>
<name>5676</name>
</trkpt>
<trkpt lat="49.214757" lon="11.820003">
<ele>496.6</ele>
<speed>34.5</speed>
<course>88.9</course>
<desc>Speed 34.5 km/h Distance 24.94 km</desc>
<time>2010-06-13T07:42:45.65</time>
<name>5677</name>
</trkpt>
<trkpt lat="49.214758" lon="11.820137">
<ele>496.1</ele>
<speed>34.8</speed>
<course>91.1</course>
<desc>Speed 34.8 km/h Distance 24.95 km</desc>
<time>2010-06-13T07:42:46.65</time>
<name>5678</name>
</trkpt>
<trkpt lat="49.214757" lon="11.820270">
<ele>496.2</ele>
<speed>34.9</speed>
<course>92.2</course>
<desc>Speed 34.9 km/h Distance 24.96 km</desc>
<time>2010-06-13T07:42:47.65</time>
<name>5679</name>
</trkpt>
<trkpt lat="49.214753" lon="11.820405">
<ele>495.8</ele>
<speed>34.9</speed>
<course>93.3</course>
<desc>Speed 34.9 km/h Distance 24.97 km</desc>
<time>2010-06-13T07:42:48.65</time>
<name>5680</name>
</trkpt>
<trkpt lat="49.214748" lon="11.820538">
<ele>495.6</ele>
<speed>35.0</speed>
<course>94.3</course>
<desc>Speed 35.0 km/h Distance 24.98 km</desc>
<time>2010-06-13T07:42:49.65</time>
<name>5681</name>
</trkpt>
<trkpt lat="49.214742" lon="11.820673">
<ele>494.9</ele>
<speed>35.2</speed>
<course>98.7</course>
<desc>Speed 35.2 km/h Distance 24.99 km</desc>
<time>2010-06-13T07:42:50.65</time>
<name>5682</name>
</trkpt>
<trkpt lat="49.214728" lon="11.820807">
<ele>494.9</ele>
<speed>35.2</speed>
<course>97.4</course>
<desc>Speed 35.2 km/h Distance 25.00 km</desc>
<time>2010-06-13T07:42:51.65</time>
<name>5683</name>
</trkpt>
<trkpt lat="49.214717" lon="11.820943">
<ele>494.4</ele>
<speed>35.9</speed>
<course>98.5</course>
<desc>Speed 35.9 km/h Distance 25.01 km</desc>
<time>2010-06-13T07:42:52.65</time>
<name>5684</name>
</trkpt>
<trkpt lat="49.214703" lon="11.821080">
<ele>494.1</ele>
<speed>36.5</speed>
<course>98.4</course>
<desc>Speed 36.5 km/h Distance 25.02 km</desc>
<time>2010-06-13T07:42:53.65</time>
<name>5685</name>
</trkpt>
<trkpt lat="49.214690" lon="11.821218">
<ele>493.8</ele>
<speed>35.7</speed>
<course>97.4</course>
<desc>Speed 35.7 km/h Distance 25.03 km</desc>
<time>2010-06-13T07:42:54.65</time>
<name>5686</name>
</trkpt>
<trkpt lat="49.214678" lon="11.821355">
<ele>493.5</ele>
<speed>36.0</speed>
<course>96.3</course>
<desc>Speed 36.0 km/h Distance 25.04 km</desc>
<time>2010-06-13T07:42:55.65</time>
<name>5687</name>
</trkpt>
<trkpt lat="49.214668" lon="11.821493">
<ele>493.3</ele>
<speed>36.8</speed>
<course>97.3</course>
<desc>Speed 36.8 km/h Distance 25.05 km</desc>
<time>2010-06-13T07:42:56.65</time>
<name>5688</name>
</trkpt>
<trkpt lat="49.214657" lon="11.821633">
<ele>493.2</ele>
<speed>36.7</speed>
<course>95.3</course>
<desc>Speed 36.7 km/h Distance 25.06 km</desc>
<time>2010-06-13T07:42:57.65</time>
<name>5689</name>
</trkpt>
<trkpt lat="49.214648" lon="11.821772">
<ele>492.9</ele>
<speed>36.2</speed>
<course>94.3</course>
<desc>Speed 36.2 km/h Distance 25.07 km</desc>
<time>2010-06-13T07:42:58.65</time>
<name>5690</name>
</trkpt>
<trkpt lat="49.214642" lon="11.821908">
<ele>492.3</ele>
<speed>35.6</speed>
<course>93.2</course>
<desc>Speed 35.6 km/h Distance 25.08 km</desc>
<time>2010-06-13T07:42:59.65</time>
<name>5691</name>
</trkpt>
<trkpt lat="49.214637" lon="11.822047">
<ele>491.8</ele>
<speed>36.5</speed>
<course>91.0</course>
<desc>Speed 36.5 km/h Distance 25.09 km</desc>
<time>2010-06-13T07:43:00.65</time>
<name>5692</name>
</trkpt>
<trkpt lat="49.214635" lon="11.822187">
<ele>491.4</ele>
<speed>37.2</speed>
<course>89.0</course>
<desc>Speed 37.2 km/h Distance 25.10 km</desc>
<time>2010-06-13T07:43:01.65</time>
<name>5693</name>
</trkpt>
<trkpt lat="49.214637" lon="11.822330">
<ele>491.1</ele>
<speed>37.2</speed>
<course>85.8</course>
<desc>Speed 37.2 km/h Distance 25.11 km</desc>
<time>2010-06-13T07:43:02.65</time>
<name>5694</name>
</trkpt>
<trkpt lat="49.214643" lon="11.822470">
<ele>490.6</ele>
<speed>36.3</speed>
<course>80.3</course>
<desc>Speed 36.3 km/h Distance 25.12 km</desc>
<time>2010-06-13T07:43:03.65</time>
<name>5695</name>
</trkpt>
<trkpt lat="49.214658" lon="11.822605">
<ele>490.2</ele>
<speed>35.7</speed>
<course>72.6</course>
<desc>Speed 35.7 km/h Distance 25.13 km</desc>
<time>2010-06-13T07:43:04.65</time>
<name>5696</name>
</trkpt>
<trkpt lat="49.214685" lon="11.822735">
<ele>489.7</ele>
<speed>35.7</speed>
<course>67.3</course>
<desc>Speed 35.7 km/h Distance 25.14 km</desc>
<time>2010-06-13T07:43:05.65</time>
<name>5697</name>
</trkpt>
<trkpt lat="49.214720" lon="11.822863">
<ele>489.4</ele>
<speed>35.1</speed>
<course>66.2</course>
<desc>Speed 35.1 km/h Distance 25.15 km</desc>
<time>2010-06-13T07:43:06.65</time>
<name>5698</name>
</trkpt>
<trkpt lat="49.214755" lon="11.822985">
<ele>489.0</ele>
<speed>33.9</speed>
<course>71.9</course>
<desc>Speed 33.9 km/h Distance 25.16 km</desc>
<time>2010-06-13T07:43:07.65</time>
<name>5699</name>
</trkpt>
<trkpt lat="49.214782" lon="11.823110">
<ele>488.9</ele>
<speed>33.8</speed>
<course>79.5</course>
<desc>Speed 33.8 km/h Distance 25.17 km</desc>
<time>2010-06-13T07:43:08.65</time>
<name>5700</name>
</trkpt>
<trkpt lat="49.214798" lon="11.823248">
<ele>489.6</ele>
<speed>34.9</speed>
<course>81.9</course>
<desc>Speed 34.9 km/h Distance 25.18 km</desc>
<time>2010-06-13T07:43:09.65</time>
<name>5701</name>
</trkpt>
<trkpt lat="49.214812" lon="11.823392">
<ele>490.1</ele>
<speed>35.6</speed>
<course>79.9</course>
<desc>Speed 35.6 km/h Distance 25.19 km</desc>
<time>2010-06-13T07:43:10.65</time>
<name>5702</name>
</trkpt>
<trkpt lat="49.214828" lon="11.823535">
<ele>489.9</ele>
<speed>35.4</speed>
<course>74.2</course>
<desc>Speed 35.4 km/h Distance 25.20 km</desc>
<time>2010-06-13T07:43:11.65</time>
<name>5703</name>
</trkpt>
<trkpt lat="49.214853" lon="11.823670">
<ele>489.3</ele>
<speed>36.0</speed>
<course>71.0</course>
<desc>Speed 36.0 km/h Distance 25.21 km</desc>
<time>2010-06-13T07:43:12.65</time>
<name>5704</name>
</trkpt>
<trkpt lat="49.214883" lon="11.823803">
<ele>489.3</ele>
<speed>36.3</speed>
<course>71.3</course>
<desc>Speed 36.3 km/h Distance 25.22 km</desc>
<time>2010-06-13T07:43:13.65</time>
<name>5705</name>
</trkpt>
<trkpt lat="49.214912" lon="11.823932">
<ele>488.6</ele>
<speed>35.1</speed>
<course>67.7</course>
<desc>Speed 35.1 km/h Distance 25.23 km</desc>
<time>2010-06-13T07:43:14.65</time>
<name>5706</name>
</trkpt>
<trkpt lat="49.214943" lon="11.824050">
<ele>488.2</ele>
<speed>34.5</speed>
<course>66.1</course>
<desc>Speed 34.5 km/h Distance 25.24 km</desc>
<time>2010-06-13T07:43:15.65</time>
<name>5707</name>
</trkpt>
<trkpt lat="49.214980" lon="11.824177">
<ele>488.6</ele>
<speed>35.2</speed>
<course>60.0</course>
<desc>Speed 35.2 km/h Distance 25.25 km</desc>
<time>2010-06-13T07:43:16.65</time>
<name>5708</name>
</trkpt>
<trkpt lat="49.215023" lon="11.824292">
<ele>488.0</ele>
<speed>33.8</speed>
<course>57.9</course>
<desc>Speed 33.8 km/h Distance 25.26 km</desc>
<time>2010-06-13T07:43:17.65</time>
<name>5709</name>
</trkpt>
<trkpt lat="49.215068" lon="11.824402">
<ele>487.4</ele>
<speed>32.8</speed>
<course>63.3</course>
<desc>Speed 32.8 km/h Distance 25.27 km</desc>
<time>2010-06-13T07:43:18.65</time>
<name>5710</name>
</trkpt>
<trkpt lat="49.215105" lon="11.824513">
<ele>486.2</ele>
<speed>32.5</speed>
<course>64.8</course>
<desc>Speed 32.5 km/h Distance 25.28 km</desc>
<time>2010-06-13T07:43:19.65</time>
<name>5711</name>
</trkpt>
<trkpt lat="49.215145" lon="11.824643">
<ele>484.7</ele>
<speed>35.0</speed>
<course>67.2</course>
<desc>Speed 35.0 km/h Distance 25.29 km</desc>
<time>2010-06-13T07:43:20.65</time>
<name>5712</name>
</trkpt>
<trkpt lat="49.215182" lon="11.824777">
<ele>482.1</ele>
<speed>37.5</speed>
<course>70.7</course>
<desc>Speed 37.5 km/h Distance 25.30 km</desc>
<time>2010-06-13T07:43:21.65</time>
<name>5713</name>
</trkpt>
<trkpt lat="49.215213" lon="11.824915">
<ele>480.3</ele>
<speed>37.8</speed>
<course>64.1</course>
<desc>Speed 37.8 km/h Distance 25.31 km</desc>
<time>2010-06-13T07:43:22.65</time>
<name>5714</name>
</trkpt>
<trkpt lat="49.215257" lon="11.825052">
<ele>477.8</ele>
<speed>38.6</speed>
<course>65.9</course>
<desc>Speed 38.6 km/h Distance 25.32 km</desc>
<time>2010-06-13T07:43:23.65</time>
<name>5715</name>
</trkpt>
<trkpt lat="49.215300" lon="11.825200">
<ele>475.2</ele>
<speed>41.3</speed>
<course>76.0</course>
<desc>Speed 41.3 km/h Distance 25.34 km</desc>
<time>2010-06-13T07:43:24.65</time>
<name>5716</name>
</trkpt>
<trkpt lat="49.215358" lon="11.825558">
<ele>472.9</ele>
<speed>43.7</speed>
<course>79.0</course>
<desc>Speed 43.7 km/h Distance 25.36 km</desc>
<time>2010-06-13T07:43:26.65</time>
<name>5717</name>
</trkpt>
<trkpt lat="49.215380" lon="11.825728">
<ele>472.1</ele>
<speed>43.8</speed>
<course>79.9</course>
<desc>Speed 43.8 km/h Distance 25.37 km</desc>
<time>2010-06-13T07:43:27.65</time>
<name>5718</name>
</trkpt>
<trkpt lat="49.215400" lon="11.825900">
<ele>471.4</ele>
<speed>42.1</speed>
<course>91.0</course>
<desc>Speed 42.1 km/h Distance 25.39 km</desc>
<time>2010-06-13T07:43:28.65</time>
<name>5719</name>
</trkpt>
<trkpt lat="49.215398" lon="11.826053">
<ele>469.9</ele>
<speed>40.2</speed>
<course>82.6</course>
<desc>Speed 40.2 km/h Distance 25.40 km</desc>
<time>2010-06-13T07:43:29.65</time>
<name>5720</name>
</trkpt>
<trkpt lat="49.215412" lon="11.826210">
<ele>469.9</ele>
<speed>39.4</speed>
<course>85.2</course>
<desc>Speed 39.4 km/h Distance 25.41 km</desc>
<time>2010-06-13T07:43:30.65</time>
<name>5721</name>
</trkpt>
<trkpt lat="49.215420" lon="11.826363">
<ele>469.5</ele>
<speed>38.8</speed>
<course>93.0</course>
<desc>Speed 38.8 km/h Distance 25.42 km</desc>
<time>2010-06-13T07:43:31.65</time>
<name>5722</name>
</trkpt>
<trkpt lat="49.215415" lon="11.826508">
<ele>468.8</ele>
<speed>38.1</speed>
<course>90.0</course>
<desc>Speed 38.1 km/h Distance 25.43 km</desc>
<time>2010-06-13T07:43:32.65</time>
<name>5723</name>
</trkpt>
<trkpt lat="49.215415" lon="11.826655">
<ele>469.1</ele>
<speed>38.1</speed>
<course>90.0</course>
<desc>Speed 38.1 km/h Distance 25.44 km</desc>
<time>2010-06-13T07:43:33.65</time>
<name>5724</name>
</trkpt>
<trkpt lat="49.215415" lon="11.826802">
<ele>469.4</ele>
<speed>38.1</speed>
<course>91.0</course>
<desc>Speed 38.1 km/h Distance 25.45 km</desc>
<time>2010-06-13T07:43:34.65</time>
<name>5725</name>
</trkpt>
<trkpt lat="49.215413" lon="11.826948">
<ele>469.1</ele>
<speed>37.7</speed>
<course>97.1</course>
<desc>Speed 37.7 km/h Distance 25.46 km</desc>
<time>2010-06-13T07:43:35.65</time>
<name>5726</name>
</trkpt>
<trkpt lat="49.215402" lon="11.827092">
<ele>468.7</ele>
<speed>37.8</speed>
<course>99.0</course>
<desc>Speed 37.8 km/h Distance 25.47 km</desc>
<time>2010-06-13T07:43:36.65</time>
<name>5727</name>
</trkpt>
<trkpt lat="49.215387" lon="11.827237">
<ele>468.4</ele>
<speed>38.6</speed>
<course>103.8</course>
<desc>Speed 38.6 km/h Distance 25.49 km</desc>
<time>2010-06-13T07:43:37.65</time>
<name>5728</name>
</trkpt>
<trkpt lat="49.215363" lon="11.827382">
<ele>468.3</ele>
<speed>38.6</speed>
<course>117.3</course>
<desc>Speed 38.6 km/h Distance 25.50 km</desc>
<time>2010-06-13T07:43:38.65</time>
<name>5729</name>
</trkpt>
<trkpt lat="49.215322" lon="11.827505">
<ele>467.1</ele>
<speed>34.5</speed>
<course>125.0</course>
<desc>Speed 34.5 km/h Distance 25.51 km</desc>
<time>2010-06-13T07:43:39.65</time>
<name>5730</name>
</trkpt>
<trkpt lat="49.215277" lon="11.827603">
<ele>466.2</ele>
<speed>29.4</speed>
<course>114.1</course>
<desc>Speed 29.4 km/h Distance 25.51 km</desc>
<time>2010-06-13T07:43:40.65</time>
<name>5731</name>
</trkpt>
<trkpt lat="49.215253" lon="11.827683">
<ele>467.1</ele>
<speed>25.2</speed>
<course>112.1</course>
<desc>Speed 25.2 km/h Distance 25.52 km</desc>
<time>2010-06-13T07:43:41.65</time>
<name>5732</name>
</trkpt>
<trkpt lat="49.215232" lon="11.827765">
<ele>468.2</ele>
<speed>24.8</speed>
<course>96.8</course>
<desc>Speed 24.8 km/h Distance 25.53 km</desc>
<time>2010-06-13T07:43:42.65</time>
<name>5733</name>
</trkpt>
<trkpt lat="49.215225" lon="11.827850">
<ele>469.9</ele>
<speed>23.7</speed>
<course>95.5</course>
<desc>Speed 23.7 km/h Distance 25.53 km</desc>
<time>2010-06-13T07:43:43.65</time>
<name>5734</name>
</trkpt>
<trkpt lat="49.215220" lon="11.827930">
<ele>470.0</ele>
<speed>22.2</speed>
<course>103.5</course>
<desc>Speed 22.2 km/h Distance 25.54 km</desc>
<time>2010-06-13T07:43:44.65</time>
<name>5735</name>
</trkpt>
<trkpt lat="49.215207" lon="11.828015">
<ele>469.2</ele>
<speed>24.0</speed>
<course>107.3</course>
<desc>Speed 24.0 km/h Distance 25.55 km</desc>
<time>2010-06-13T07:43:45.65</time>
<name>5736</name>
</trkpt>
<trkpt lat="49.215187" lon="11.828113">
<ele>468.1</ele>
<speed>27.8</speed>
<course>103.1</course>
<desc>Speed 27.8 km/h Distance 25.55 km</desc>
<time>2010-06-13T07:43:46.65</time>
<name>5737</name>
</trkpt>
<trkpt lat="49.215170" lon="11.828223">
<ele>467.6</ele>
<speed>31.1</speed>
<course>103.9</course>
<desc>Speed 31.1 km/h Distance 25.56 km</desc>
<time>2010-06-13T07:43:47.65</time>
<name>5738</name>
</trkpt>
<trkpt lat="49.215150" lon="11.828347">
<ele>466.7</ele>
<speed>33.6</speed>
<course>101.7</course>
<desc>Speed 33.6 km/h Distance 25.57 km</desc>
<time>2010-06-13T07:43:48.65</time>
<name>5739</name>
</trkpt>
<trkpt lat="49.215132" lon="11.828482">
<ele>466.8</ele>
<speed>36.7</speed>
<course>104.8</course>
<desc>Speed 36.7 km/h Distance 25.58 km</desc>
<time>2010-06-13T07:43:49.65</time>
<name>5740</name>
</trkpt>
<trkpt lat="49.215108" lon="11.828617">
<ele>465.9</ele>
<speed>37.5</speed>
<course>109.9</course>
<desc>Speed 37.5 km/h Distance 25.59 km</desc>
<time>2010-06-13T07:43:50.65</time>
<name>5741</name>
</trkpt>
<trkpt lat="49.215073" lon="11.828765">
<ele>465.9</ele>
<speed>38.7</speed>
<course>107.2</course>
<desc>Speed 38.7 km/h Distance 25.60 km</desc>
<time>2010-06-13T07:43:51.65</time>
<name>5742</name>
</trkpt>
<trkpt lat="49.215045" lon="11.828905">
<ele>465.1</ele>
<speed>38.2</speed>
<course>106.8</course>
<desc>Speed 38.2 km/h Distance 25.61 km</desc>
<time>2010-06-13T07:43:52.65</time>
<name>5743</name>
</trkpt>
<trkpt lat="49.215015" lon="11.829057">
<ele>464.9</ele>
<speed>40.0</speed>
<course>105.0</course>
<desc>Speed 40.0 km/h Distance 25.62 km</desc>
<time>2010-06-13T07:43:53.65</time>
<name>5744</name>
</trkpt>
<trkpt lat="49.214987" lon="11.829218">
<ele>464.5</ele>
<speed>42.4</speed>
<course>100.5</course>
<desc>Speed 42.4 km/h Distance 25.64 km</desc>
<time>2010-06-13T07:43:54.65</time>
<name>5745</name>
</trkpt>
<trkpt lat="49.214965" lon="11.829397">
<ele>464.6</ele>
<speed>44.9</speed>
<course>94.2</course>
<desc>Speed 44.9 km/h Distance 25.65 km</desc>
<time>2010-06-13T07:43:55.65</time>
<name>5746</name>
</trkpt>
<trkpt lat="49.214957" lon="11.829572">
<ele>464.9</ele>
<speed>44.6</speed>
<course>90.0</course>
<desc>Speed 44.6 km/h Distance 25.66 km</desc>
<time>2010-06-13T07:43:56.65</time>
<name>5747</name>
</trkpt>
<trkpt lat="49.214957" lon="11.829735">
<ele>465.0</ele>
<speed>41.7</speed>
<course>102.8</course>
<desc>Speed 41.7 km/h Distance 25.67 km</desc>
<time>2010-06-13T07:43:57.65</time>
<name>5748</name>
</trkpt>
<trkpt lat="49.214932" lon="11.829903">
<ele>464.7</ele>
<speed>40.4</speed>
<course>91.0</course>
<desc>Speed 40.4 km/h Distance 25.69 km</desc>
<time>2010-06-13T07:43:58.65</time>
<name>5749</name>
</trkpt>
<trkpt lat="49.214930" lon="11.830043">
<ele>463.5</ele>
<speed>38.2</speed>
<course>96.2</course>
<desc>Speed 38.2 km/h Distance 25.70 km</desc>
<time>2010-06-13T07:43:59.65</time>
<name>5750</name>
</trkpt>
<trkpt lat="49.214920" lon="11.830185">
<ele>463.0</ele>
<speed>37.2</speed>
<course>81.2</course>
<desc>Speed 37.2 km/h Distance 25.71 km</desc>
<time>2010-06-13T07:44:00.65</time>
<name>5751</name>
</trkpt>
<trkpt lat="49.214933" lon="11.830317">
<ele>462.8</ele>
<speed>35.6</speed>
<course>68.0</course>
<desc>Speed 35.6 km/h Distance 25.72 km</desc>
<time>2010-06-13T07:44:01.65</time>
<name>5752</name>
</trkpt>
<trkpt lat="49.214965" lon="11.830437">
<ele>462.4</ele>
<speed>33.3</speed>
<course>82.3</course>
<desc>Speed 33.3 km/h Distance 25.73 km</desc>
<time>2010-06-13T07:44:02.65</time>
<name>5753</name>
</trkpt>
<trkpt lat="49.214977" lon="11.830568">
<ele>462.9</ele>
<speed>32.9</speed>
<course>62.3</course>
<desc>Speed 32.9 km/h Distance 25.74 km</desc>
<time>2010-06-13T07:44:03.65</time>
<name>5754</name>
</trkpt>
<trkpt lat="49.215015" lon="11.830680">
<ele>462.6</ele>
<speed>32.8</speed>
<course>72.3</course>
<desc>Speed 32.8 km/h Distance 25.75 km</desc>
<time>2010-06-13T07:44:04.65</time>
<name>5755</name>
</trkpt>
<trkpt lat="49.215040" lon="11.830800">
<ele>463.9</ele>
<speed>33.0</speed>
<course>82.9</course>
<desc>Speed 33.0 km/h Distance 25.76 km</desc>
<time>2010-06-13T07:44:05.65</time>
<name>5756</name>
</trkpt>
<trkpt lat="49.215050" lon="11.830923">
<ele>463.1</ele>
<speed>32.6</speed>
<course>83.8</course>
<desc>Speed 32.6 km/h Distance 25.76 km</desc>
<time>2010-06-13T07:44:06.65</time>
<name>5757</name>
</trkpt>
<trkpt lat="49.215058" lon="11.831040">
<ele>462.0</ele>
<speed>32.6</speed>
<course>83.1</course>
<desc>Speed 32.6 km/h Distance 25.77 km</desc>
<time>2010-06-13T07:44:07.65</time>
<name>5758</name>
</trkpt>
<trkpt lat="49.215068" lon="11.831167">
<ele>460.9</ele>
<speed>33.1</speed>
<course>92.0</course>
<desc>Speed 33.1 km/h Distance 25.78 km</desc>
<time>2010-06-13T07:44:08.65</time>
<name>5759</name>
</trkpt>
<trkpt lat="49.215065" lon="11.831310">
<ele>461.1</ele>
<speed>34.5</speed>
<course>100.6</course>
<desc>Speed 34.5 km/h Distance 25.79 km</desc>
<time>2010-06-13T07:44:09.65</time>
<name>5760</name>
</trkpt>
<trkpt lat="49.215027" lon="11.831625">
<ele>463.8</ele>
<speed>36.5</speed>
<course>92.1</course>
<desc>Speed 36.5 km/h Distance 25.82 km</desc>
<time>2010-06-13T07:44:11.65</time>
<name>5761</name>
</trkpt>
<trkpt lat="49.215023" lon="11.831763">
<ele>463.4</ele>
<speed>34.8</speed>
<course>87.8</course>
<desc>Speed 34.8 km/h Distance 25.83 km</desc>
<time>2010-06-13T07:44:12.65</time>
<name>5762</name>
</trkpt>
<trkpt lat="49.215027" lon="11.831897">
<ele>463.7</ele>
<speed>35.7</speed>
<course>98.5</course>
<desc>Speed 35.7 km/h Distance 25.84 km</desc>
<time>2010-06-13T07:44:13.65</time>
<name>5763</name>
</trkpt>
<trkpt lat="49.215013" lon="11.832033">
<ele>463.7</ele>
<speed>35.9</speed>
<course>102.7</course>
<desc>Speed 35.9 km/h Distance 25.85 km</desc>
<time>2010-06-13T07:44:14.65</time>
<name>5764</name>
</trkpt>
<trkpt lat="49.214992" lon="11.832180">
<ele>464.5</ele>
<speed>37.4</speed>
<course>108.2</course>
<desc>Speed 37.4 km/h Distance 25.86 km</desc>
<time>2010-06-13T07:44:15.65</time>
<name>5765</name>
</trkpt>
<trkpt lat="49.214962" lon="11.832320">
<ele>464.0</ele>
<speed>36.7</speed>
<course>96.8</course>
<desc>Speed 36.7 km/h Distance 25.87 km</desc>
<time>2010-06-13T07:44:16.65</time>
<name>5766</name>
</trkpt>
<trkpt lat="49.214952" lon="11.832448">
<ele>463.2</ele>
<speed>35.4</speed>
<course>93.2</course>
<desc>Speed 35.4 km/h Distance 25.88 km</desc>
<time>2010-06-13T07:44:17.65</time>
<name>5767</name>
</trkpt>
<trkpt lat="49.214947" lon="11.832587">
<ele>463.1</ele>
<speed>37.0</speed>
<course>103.5</course>
<desc>Speed 37.0 km/h Distance 25.89 km</desc>
<time>2010-06-13T07:44:18.65</time>
<name>5768</name>
</trkpt>
<trkpt lat="49.214923" lon="11.832735">
<ele>464.2</ele>
<speed>38.4</speed>
<course>89.0</course>
<desc>Speed 38.4 km/h Distance 25.90 km</desc>
<time>2010-06-13T07:44:19.65</time>
<name>5769</name>
</trkpt>
<trkpt lat="49.214925" lon="11.832883">
<ele>464.6</ele>
<speed>38.6</speed>
<course>76.5</course>
<desc>Speed 38.6 km/h Distance 25.91 km</desc>
<time>2010-06-13T07:44:20.65</time>
<name>5770</name>
</trkpt>
<trkpt lat="49.214948" lon="11.833032">
<ele>463.9</ele>
<speed>37.4</speed>
<course>93.8</course>
<desc>Speed 37.4 km/h Distance 25.92 km</desc>
<time>2010-06-13T07:44:21.65</time>
<name>5771</name>
</trkpt>
<trkpt lat="49.214942" lon="11.833183">
<ele>461.1</ele>
<speed>37.0</speed>
<course>83.6</course>
<desc>Speed 37.0 km/h Distance 25.93 km</desc>
<time>2010-06-13T07:44:22.65</time>
<name>5772</name>
</trkpt>
<trkpt lat="49.214952" lon="11.833320">
<ele>460.3</ele>
<speed>34.1</speed>
<course>86.5</course>
<desc>Speed 34.1 km/h Distance 25.94 km</desc>
<time>2010-06-13T07:44:23.65</time>
<name>5773</name>
</trkpt>
<trkpt lat="49.214957" lon="11.833445">
<ele>459.0</ele>
<speed>32.5</speed>
<course>91.1</course>
<desc>Speed 32.5 km/h Distance 25.95 km</desc>
<time>2010-06-13T07:44:24.65</time>
<name>5774</name>
</trkpt>
<trkpt lat="49.214955" lon="11.833573">
<ele>457.7</ele>
<speed>31.8</speed>
<course>92.4</course>
<desc>Speed 31.8 km/h Distance 25.96 km</desc>
<time>2010-06-13T07:44:25.65</time>
<name>5775</name>
</trkpt>
<trkpt lat="49.214952" lon="11.833693">
<ele>457.4</ele>
<speed>29.8</speed>
<course>95.9</course>
<desc>Speed 29.8 km/h Distance 25.97 km</desc>
<time>2010-06-13T07:44:26.65</time>
<name>5776</name>
</trkpt>
<trkpt lat="49.214943" lon="11.833817">
<ele>457.6</ele>
<speed>31.1</speed>
<course>97.0</course>
<desc>Speed 31.1 km/h Distance 25.98 km</desc>
<time>2010-06-13T07:44:27.65</time>
<name>5777</name>
</trkpt>
<trkpt lat="49.214933" lon="11.833942">
<ele>456.7</ele>
<speed>32.1</speed>
<course>93.6</course>
<desc>Speed 32.1 km/h Distance 25.99 km</desc>
<time>2010-06-13T07:44:28.65</time>
<name>5778</name>
</trkpt>
<trkpt lat="49.214928" lon="11.834062">
<ele>455.5</ele>
<speed>30.6</speed>
<course>99.0</course>
<desc>Speed 30.6 km/h Distance 25.99 km</desc>
<time>2010-06-13T07:44:29.65</time>
<name>5779</name>
</trkpt>
<trkpt lat="49.214917" lon="11.834175">
<ele>453.9</ele>
<speed>30.5</speed>
<course>104.3</course>
<desc>Speed 30.5 km/h Distance 26.00 km</desc>
<time>2010-06-13T07:44:30.65</time>
<name>5780</name>
</trkpt>
<trkpt lat="49.214897" lon="11.834295">
<ele>454.2</ele>
<speed>30.6</speed>
<course>103.8</course>
<desc>Speed 30.6 km/h Distance 26.01 km</desc>
<time>2010-06-13T07:44:31.65</time>
<name>5781</name>
</trkpt>
<trkpt lat="49.214877" lon="11.834420">
<ele>453.9</ele>
<speed>30.4</speed>
<course>93.9</course>
<desc>Speed 30.4 km/h Distance 26.02 km</desc>
<time>2010-06-13T07:44:32.65</time>
<name>5782</name>
</trkpt>
<trkpt lat="49.214872" lon="11.834533">
<ele>454.0</ele>
<speed>29.0</speed>
<course>95.2</course>
<desc>Speed 29.0 km/h Distance 26.03 km</desc>
<time>2010-06-13T07:44:33.65</time>
<name>5783</name>
</trkpt>
<trkpt lat="49.214865" lon="11.834645">
<ele>453.2</ele>
<speed>29.6</speed>
<course>104.5</course>
<desc>Speed 29.6 km/h Distance 26.04 km</desc>
<time>2010-06-13T07:44:34.65</time>
<name>5784</name>
</trkpt>
<trkpt lat="49.214843" lon="11.834773">
<ele>453.3</ele>
<speed>31.6</speed>
<course>117.0</course>
<desc>Speed 31.6 km/h Distance 26.05 km</desc>
<time>2010-06-13T07:44:35.65</time>
<name>5785</name>
</trkpt>
<trkpt lat="49.214808" lon="11.834878">
<ele>453.7</ele>
<speed>30.6</speed>
<course>116.7</course>
<desc>Speed 30.6 km/h Distance 26.06 km</desc>
<time>2010-06-13T07:44:36.65</time>
<name>5786</name>
</trkpt>
<trkpt lat="49.214773" lon="11.834985">
<ele>452.9</ele>
<speed>30.7</speed>
<course>121.1</course>
<desc>Speed 30.7 km/h Distance 26.06 km</desc>
<time>2010-06-13T07:44:37.65</time>
<name>5787</name>
</trkpt>
<trkpt lat="49.214733" lon="11.835087">
<ele>452.2</ele>
<speed>31.2</speed>
<course>118.1</course>
<desc>Speed 31.2 km/h Distance 26.07 km</desc>
<time>2010-06-13T07:44:38.65</time>
<name>5788</name>
</trkpt>
<trkpt lat="49.214697" lon="11.835192">
<ele>450.3</ele>
<speed>31.2</speed>
<course>117.4</course>
<desc>Speed 31.2 km/h Distance 26.08 km</desc>
<time>2010-06-13T07:44:39.65</time>
<name>5789</name>
</trkpt>
<trkpt lat="49.214660" lon="11.835300">
<ele>448.3</ele>
<speed>29.8</speed>
<course>119.6</course>
<desc>Speed 29.8 km/h Distance 26.09 km</desc>
<time>2010-06-13T07:44:40.65</time>
<name>5790</name>
</trkpt>
<trkpt lat="49.214622" lon="11.835403">
<ele>446.8</ele>
<speed>29.2</speed>
<course>114.4</course>
<desc>Speed 29.2 km/h Distance 26.10 km</desc>
<time>2010-06-13T07:44:41.65</time>
<name>5791</name>
</trkpt>
<trkpt lat="49.214590" lon="11.835510">
<ele>445.6</ele>
<speed>30.0</speed>
<course>106.3</course>
<desc>Speed 30.0 km/h Distance 26.11 km</desc>
<time>2010-06-13T07:44:42.65</time>
<name>5792</name>
</trkpt>
<trkpt lat="49.214568" lon="11.835623">
<ele>445.4</ele>
<speed>30.1</speed>
<course>114.8</course>
<desc>Speed 30.1 km/h Distance 26.12 km</desc>
<time>2010-06-13T07:44:43.65</time>
<name>5793</name>
</trkpt>
<trkpt lat="49.214537" lon="11.835728">
<ele>443.8</ele>
<speed>28.7</speed>
<course>110.0</course>
<desc>Speed 28.7 km/h Distance 26.12 km</desc>
<time>2010-06-13T07:44:44.65</time>
<name>5794</name>
</trkpt>
<trkpt lat="49.214512" lon="11.835833">
<ele>442.4</ele>
<speed>28.0</speed>
<course>104.1</course>
<desc>Speed 28.0 km/h Distance 26.13 km</desc>
<time>2010-06-13T07:44:45.65</time>
<name>5795</name>
</trkpt>
<trkpt lat="49.214493" lon="11.835945">
<ele>439.3</ele>
<speed>27.4</speed>
<course>97.5</course>
<desc>Speed 27.4 km/h Distance 26.14 km</desc>
<time>2010-06-13T07:44:46.65</time>
<name>5796</name>
</trkpt>
<trkpt lat="49.214485" lon="11.836042">
<ele>437.1</ele>
<speed>26.3</speed>
<course>91.5</course>
<desc>Speed 26.3 km/h Distance 26.15 km</desc>
<time>2010-06-13T07:44:47.65</time>
<name>5797</name>
</trkpt>
<trkpt lat="49.214483" lon="11.836142">
<ele>435.9</ele>
<speed>26.1</speed>
<course>88.4</course>
<desc>Speed 26.1 km/h Distance 26.16 km</desc>
<time>2010-06-13T07:44:48.65</time>
<name>5798</name>
</trkpt>
<trkpt lat="49.214485" lon="11.836235">
<ele>434.1</ele>
<speed>27.0</speed>
<course>94.5</course>
<desc>Speed 27.0 km/h Distance 26.16 km</desc>
<time>2010-06-13T07:44:49.65</time>
<name>5799</name>
</trkpt>
<trkpt lat="49.214480" lon="11.836333">
<ele>430.7</ele>
<speed>27.3</speed>
<course>106.8</course>
<desc>Speed 27.3 km/h Distance 26.17 km</desc>
<time>2010-06-13T07:44:50.65</time>
<name>5800</name>
</trkpt>
<trkpt lat="49.214458" lon="11.836443">
<ele>428.2</ele>
<speed>27.8</speed>
<course>90.0</course>
<desc>Speed 27.8 km/h Distance 26.18 km</desc>
<time>2010-06-13T07:44:51.65</time>
<name>5801</name>
</trkpt>
<trkpt lat="49.214458" lon="11.836557">
<ele>428.6</ele>
<speed>28.6</speed>
<course>95.0</course>
<desc>Speed 28.6 km/h Distance 26.19 km</desc>
<time>2010-06-13T07:44:52.65</time>
<name>5802</name>
</trkpt>
<trkpt lat="49.214452" lon="11.836673">
<ele>428.5</ele>
<speed>30.4</speed>
<course>100.3</course>
<desc>Speed 30.4 km/h Distance 26.19 km</desc>
<time>2010-06-13T07:44:53.65</time>
<name>5803</name>
</trkpt>
<trkpt lat="49.214437" lon="11.836800">
<ele>428.2</ele>
<speed>31.9</speed>
<course>97.8</course>
<desc>Speed 31.9 km/h Distance 26.20 km</desc>
<time>2010-06-13T07:44:54.65</time>
<name>5804</name>
</trkpt>
<trkpt lat="49.214425" lon="11.836930">
<ele>427.8</ele>
<speed>33.0</speed>
<course>99.5</course>
<desc>Speed 33.0 km/h Distance 26.21 km</desc>
<time>2010-06-13T07:44:55.65</time>
<name>5805</name>
</trkpt>
<trkpt lat="49.214410" lon="11.837067">
<ele>426.7</ele>
<speed>33.1</speed>
<course>98.1</course>
<desc>Speed 33.1 km/h Distance 26.22 km</desc>
<time>2010-06-13T07:44:56.65</time>
<name>5806</name>
</trkpt>
<trkpt lat="49.214398" lon="11.837192">
<ele>425.3</ele>
<speed>31.6</speed>
<course>93.5</course>
<desc>Speed 31.6 km/h Distance 26.23 km</desc>
<time>2010-06-13T07:44:57.65</time>
<name>5807</name>
</trkpt>
<trkpt lat="49.214393" lon="11.837318">
<ele>425.5</ele>
<speed>32.2</speed>
<course>95.5</course>
<desc>Speed 32.2 km/h Distance 26.24 km</desc>
<time>2010-06-13T07:44:58.65</time>
<name>5808</name>
</trkpt>
<trkpt lat="49.214385" lon="11.837450">
<ele>424.1</ele>
<speed>31.9</speed>
<course>95.8</course>
<desc>Speed 31.9 km/h Distance 26.25 km</desc>
<time>2010-06-13T07:44:59.65</time>
<name>5809</name>
</trkpt>
<trkpt lat="49.214377" lon="11.837577">
<ele>423.9</ele>
<speed>32.0</speed>
<course>93.6</course>
<desc>Speed 32.0 km/h Distance 26.26 km</desc>
<time>2010-06-13T07:45:00.65</time>
<name>5810</name>
</trkpt>
<trkpt lat="49.214372" lon="11.837697">
<ele>423.8</ele>
<speed>30.3</speed>
<course>92.5</course>
<desc>Speed 30.3 km/h Distance 26.27 km</desc>
<time>2010-06-13T07:45:01.65</time>
<name>5811</name>
</trkpt>
<trkpt lat="49.214368" lon="11.837813">
<ele>424.4</ele>
<speed>28.9</speed>
<course>100.4</course>
<desc>Speed 28.9 km/h Distance 26.28 km</desc>
<time>2010-06-13T07:45:02.65</time>
<name>5812</name>
</trkpt>
<trkpt lat="49.214353" lon="11.837938">
<ele>427.2</ele>
<speed>27.9</speed>
<course>95.4</course>
<desc>Speed 27.9 km/h Distance 26.29 km</desc>
<time>2010-06-13T07:45:03.65</time>
<name>5813</name>
</trkpt>
<trkpt lat="49.214347" lon="11.838047">
<ele>426.9</ele>
<speed>26.6</speed>
<course>100.2</course>
<desc>Speed 26.6 km/h Distance 26.30 km</desc>
<time>2010-06-13T07:45:04.65</time>
<name>5814</name>
</trkpt>
<trkpt lat="49.214333" lon="11.838160">
<ele>426.3</ele>
<speed>27.3</speed>
<course>90.0</course>
<desc>Speed 27.3 km/h Distance 26.30 km</desc>
<time>2010-06-13T07:45:05.65</time>
<name>5815</name>
</trkpt>
<trkpt lat="49.214333" lon="11.838272">
<ele>427.5</ele>
<speed>27.9</speed>
<course>92.7</course>
<desc>Speed 27.9 km/h Distance 26.31 km</desc>
<time>2010-06-13T07:45:06.65</time>
<name>5816</name>
</trkpt>
<trkpt lat="49.214330" lon="11.838378">
<ele>428.8</ele>
<speed>27.8</speed>
<course>103.7</course>
<desc>Speed 27.8 km/h Distance 26.32 km</desc>
<time>2010-06-13T07:45:07.65</time>
<name>5817</name>
</trkpt>
<trkpt lat="49.214312" lon="11.838493">
<ele>429.9</ele>
<speed>28.1</speed>
<course>100.4</course>
<desc>Speed 28.1 km/h Distance 26.33 km</desc>
<time>2010-06-13T07:45:08.65</time>
<name>5818</name>
</trkpt>
<trkpt lat="49.214283" lon="11.838730">
<ele>435.2</ele>
<speed>29.0</speed>
<course>102.0</course>
<desc>Speed 29.0 km/h Distance 26.35 km</desc>
<time>2010-06-13T07:45:10.65</time>
<name>5819</name>
</trkpt>
<trkpt lat="49.214267" lon="11.838850">
<ele>436.5</ele>
<speed>31.3</speed>
<course>106.2</course>
<desc>Speed 31.3 km/h Distance 26.35 km</desc>
<time>2010-06-13T07:45:11.65</time>
<name>5820</name>
</trkpt>
<trkpt lat="49.214242" lon="11.838982">
<ele>439.0</ele>
<speed>32.3</speed>
<course>110.2</course>
<desc>Speed 32.3 km/h Distance 26.36 km</desc>
<time>2010-06-13T07:45:12.65</time>
<name>5821</name>
</trkpt>
<trkpt lat="49.214210" lon="11.839113">
<ele>440.9</ele>
<speed>32.8</speed>
<course>108.2</course>
<desc>Speed 32.8 km/h Distance 26.38 km</desc>
<time>2010-06-13T07:45:13.65</time>
<name>5822</name>
</trkpt>
<trkpt lat="49.214182" lon="11.839245">
<ele>441.7</ele>
<speed>31.7</speed>
<course>106.8</course>
<desc>Speed 31.7 km/h Distance 26.39 km</desc>
<time>2010-06-13T07:45:14.65</time>
<name>5823</name>
</trkpt>
<trkpt lat="49.214157" lon="11.839372">
<ele>442.4</ele>
<speed>30.6</speed>
<course>110.1</course>
<desc>Speed 30.6 km/h Distance 26.39 km</desc>
<time>2010-06-13T07:45:15.65</time>
<name>5824</name>
</trkpt>
<trkpt lat="49.214128" lon="11.839490">
<ele>441.9</ele>
<speed>30.9</speed>
<course>110.2</course>
<desc>Speed 30.9 km/h Distance 26.40 km</desc>
<time>2010-06-13T07:45:16.65</time>
<name>5825</name>
</trkpt>
<trkpt lat="49.214098" lon="11.839615">
<ele>440.7</ele>
<speed>31.1</speed>
<course>105.5</course>
<desc>Speed 31.1 km/h Distance 26.41 km</desc>
<time>2010-06-13T07:45:17.65</time>
<name>5826</name>
</trkpt>
<trkpt lat="49.214077" lon="11.839735">
<ele>440.8</ele>
<speed>30.4</speed>
<course>102.7</course>
<desc>Speed 30.4 km/h Distance 26.42 km</desc>
<time>2010-06-13T07:45:18.65</time>
<name>5827</name>
</trkpt>
<trkpt lat="49.214058" lon="11.839860">
<ele>440.8</ele>
<speed>31.0</speed>
<course>112.3</course>
<desc>Speed 31.0 km/h Distance 26.43 km</desc>
<time>2010-06-13T07:45:19.65</time>
<name>5828</name>
</trkpt>
<trkpt lat="49.214027" lon="11.839978">
<ele>441.7</ele>
<speed>30.5</speed>
<course>107.7</course>
<desc>Speed 30.5 km/h Distance 26.44 km</desc>
<time>2010-06-13T07:45:20.65</time>
<name>5829</name>
</trkpt>
<trkpt lat="49.214003" lon="11.840090">
<ele>439.0</ele>
<speed>29.3</speed>
<course>106.6</course>
<desc>Speed 29.3 km/h Distance 26.45 km</desc>
<time>2010-06-13T07:45:21.65</time>
<name>5830</name>
</trkpt>
<trkpt lat="49.213978" lon="11.840218">
<ele>438.6</ele>
<speed>31.0</speed>
<course>105.4</course>
<desc>Speed 31.0 km/h Distance 26.46 km</desc>
<time>2010-06-13T07:45:22.65</time>
<name>5831</name>
</trkpt>
<trkpt lat="49.213955" lon="11.840348">
<ele>439.0</ele>
<speed>31.5</speed>
<course>106.4</course>
<desc>Speed 31.5 km/h Distance 26.47 km</desc>
<time>2010-06-13T07:45:23.65</time>
<name>5832</name>
</trkpt>
<trkpt lat="49.213932" lon="11.840470">
<ele>438.9</ele>
<speed>31.2</speed>
<course>105.1</course>
<desc>Speed 31.2 km/h Distance 26.48 km</desc>
<time>2010-06-13T07:45:24.65</time>
<name>5833</name>
</trkpt>
<trkpt lat="49.213910" lon="11.840593">
<ele>438.9</ele>
<speed>32.3</speed>
<course>109.3</course>
<desc>Speed 32.3 km/h Distance 26.49 km</desc>
<time>2010-06-13T07:45:25.65</time>
<name>5834</name>
</trkpt>
<trkpt lat="49.213883" lon="11.840710">
<ele>437.9</ele>
<speed>31.0</speed>
<course>110.4</course>
<desc>Speed 31.0 km/h Distance 26.50 km</desc>
<time>2010-06-13T07:45:26.65</time>
<name>5835</name>
</trkpt>
<trkpt lat="49.213855" lon="11.840827">
<ele>436.8</ele>
<speed>32.1</speed>
<course>105.7</course>
<desc>Speed 32.1 km/h Distance 26.51 km</desc>
<time>2010-06-13T07:45:27.65</time>
<name>5836</name>
</trkpt>
<trkpt lat="49.213833" lon="11.840945">
<ele>436.4</ele>
<speed>31.0</speed>
<course>105.2</course>
<desc>Speed 31.0 km/h Distance 26.51 km</desc>
<time>2010-06-13T07:45:28.65</time>
<name>5837</name>
</trkpt>
<trkpt lat="49.213812" lon="11.841067">
<ele>436.8</ele>
<speed>30.7</speed>
<course>114.1</course>
<desc>Speed 30.7 km/h Distance 26.52 km</desc>
<time>2010-06-13T07:45:29.65</time>
<name>5838</name>
</trkpt>
<trkpt lat="49.213780" lon="11.841175">
<ele>435.7</ele>
<speed>29.3</speed>
<course>114.4</course>
<desc>Speed 29.3 km/h Distance 26.53 km</desc>
<time>2010-06-13T07:45:30.65</time>
<name>5839</name>
</trkpt>
<trkpt lat="49.213748" lon="11.841282">
<ele>434.2</ele>
<speed>28.2</speed>
<course>115.9</course>
<desc>Speed 28.2 km/h Distance 26.54 km</desc>
<time>2010-06-13T07:45:31.65</time>
<name>5840</name>
</trkpt>
<trkpt lat="49.213715" lon="11.841387">
<ele>432.8</ele>
<speed>27.6</speed>
<course>113.6</course>
<desc>Speed 27.6 km/h Distance 26.55 km</desc>
<time>2010-06-13T07:45:32.65</time>
<name>5841</name>
</trkpt>
<trkpt lat="49.213685" lon="11.841492">
<ele>432.7</ele>
<speed>26.7</speed>
<course>107.5</course>
<desc>Speed 26.7 km/h Distance 26.56 km</desc>
<time>2010-06-13T07:45:33.65</time>
<name>5842</name>
</trkpt>
<trkpt lat="49.213663" lon="11.841597">
<ele>432.9</ele>
<speed>25.6</speed>
<course>110.9</course>
<desc>Speed 25.6 km/h Distance 26.57 km</desc>
<time>2010-06-13T07:45:34.65</time>
<name>5843</name>
</trkpt>
<trkpt lat="49.213638" lon="11.841697">
<ele>433.9</ele>
<speed>26.1</speed>
<course>113.1</course>
<desc>Speed 26.1 km/h Distance 26.57 km</desc>
<time>2010-06-13T07:45:35.65</time>
<name>5844</name>
</trkpt>
<trkpt lat="49.213610" lon="11.841798">
<ele>433.4</ele>
<speed>25.6</speed>
<course>97.3</course>
<desc>Speed 25.6 km/h Distance 26.58 km</desc>
<time>2010-06-13T07:45:36.65</time>
<name>5845</name>
</trkpt>
<trkpt lat="49.213602" lon="11.841898">
<ele>432.3</ele>
<speed>24.7</speed>
<course>102.8</course>
<desc>Speed 24.7 km/h Distance 26.59 km</desc>
<time>2010-06-13T07:45:37.65</time>
<name>5846</name>
</trkpt>
<trkpt lat="49.213588" lon="11.841988">
<ele>432.1</ele>
<speed>23.3</speed>
<course>118.2</course>
<desc>Speed 23.3 km/h Distance 26.60 km</desc>
<time>2010-06-13T07:45:38.65</time>
<name>5847</name>
</trkpt>
<trkpt lat="49.213565" lon="11.842055">
<ele>431.3</ele>
<speed>18.7</speed>
<course>117.7</course>
<desc>Speed 18.7 km/h Distance 26.60 km</desc>
<time>2010-06-13T07:45:39.65</time>
<name>5848</name>
</trkpt>
<trkpt lat="49.213545" lon="11.842113">
<ele>432.7</ele>
<speed>14.5</speed>
<course>148.4</course>
<desc>Speed 14.5 km/h Distance 26.61 km</desc>
<time>2010-06-13T07:45:40.65</time>
<name>5849</name>
</trkpt>
<trkpt lat="49.213347" lon="11.842300">
<ele>444.4</ele>
<speed>19.5</speed>
<course>169.7</course>
<desc>Speed 19.5 km/h Distance 26.63 km</desc>
<time>2010-06-13T07:45:43.65</time>
<name>5850</name>
</trkpt>
<trkpt lat="49.213298" lon="11.842313">
<ele>446.7</ele>
<speed>19.4</speed>
<course>239.5</course>
<desc>Speed 19.4 km/h Distance 26.64 km</desc>
<time>2010-06-13T07:45:44.65</time>
<name>5851</name>
</trkpt>
<trkpt lat="49.213273" lon="11.842248">
<ele>451.8</ele>
<speed>7.6</speed>
<course>271.3</course>
<desc>Speed 7.6 km/h Distance 26.64 km</desc>
<time>2010-06-13T07:45:46.65</time>
<name>5852</name>
</trkpt>
<trkpt lat="49.213275" lon="11.842137">
<ele>452.4</ele>
<speed>6.3</speed>
<course>311.0</course>
<desc>Speed 6.3 km/h Distance 26.65 km</desc>
<time>2010-06-13T07:45:48.65</time>
<name>5853</name>
</trkpt>
<trkpt lat="49.213323" lon="11.842052">
<ele>458.0</ele>
<speed>6.1</speed>
<course>315.6</course>
<desc>Speed 6.1 km/h Distance 26.66 km</desc>
<time>2010-06-13T07:45:50.65</time>
<name>5854</name>
</trkpt>
<trkpt lat="49.213340" lon="11.842027">
<ele>459.9</ele>
<speed>6.8</speed>
<course>310.9</course>
<desc>Speed 6.8 km/h Distance 26.66 km</desc>
<time>2010-06-13T07:45:51.65</time>
<name>5855</name>
</trkpt>
<trkpt lat="49.213362" lon="11.841988">
<ele>461.3</ele>
<speed>9.9</speed>
<course>322.7</course>
<desc>Speed 9.9 km/h Distance 26.67 km</desc>
<time>2010-06-13T07:45:52.65</time>
<name>5856</name>
</trkpt>
<trkpt lat="49.213382" lon="11.841965">
<ele>464.8</ele>
<speed>7.5</speed>
<course>243.0</course>
<desc>Speed 7.5 km/h Distance 26.67 km</desc>
<time>2010-06-13T07:45:53.65</time>
<name>5857</name>
</trkpt>
<trkpt lat="49.213375" lon="11.841945">
<ele>464.2</ele>
<speed>4.7</speed>
<course>236.7</course>
<desc>Speed 4.7 km/h Distance 26.67 km</desc>
<time>2010-06-13T07:45:54.65</time>
<name>5858</name>
</trkpt>
<trkpt lat="49.213365" lon="11.841922">
<ele>463.9</ele>
<speed>2.8</speed>
<course>293.4</course>
<desc>Speed 2.8 km/h Distance 26.67 km</desc>
<time>2010-06-13T07:45:55.65</time>
<name>5859</name>
</trkpt>
<trkpt lat="49.213390" lon="11.841833">
<ele>464.3</ele>
<speed>6.8</speed>
<course>268.4</course>
<desc>Speed 6.8 km/h Distance 26.68 km</desc>
<time>2010-06-13T07:45:57.65</time>
<name>5860</name>
</trkpt>
<trkpt lat="49.213388" lon="11.841742">
<ele>463.5</ele>
<speed>8.1</speed>
<course>270.0</course>
<desc>Speed 8.1 km/h Distance 26.69 km</desc>
<time>2010-06-13T07:45:59.65</time>
<name>5861</name>
</trkpt>
<trkpt lat="49.213388" lon="11.841705">
<ele>461.9</ele>
<speed>6.5</speed>
<course>255.1</course>
<desc>Speed 6.5 km/h Distance 26.69 km</desc>
<time>2010-06-13T07:46:00.65</time>
<name>5862</name>
</trkpt>
<trkpt lat="49.213382" lon="11.841667">
<ele>458.8</ele>
<speed>5.6</speed>
<course>287.9</course>
<desc>Speed 5.6 km/h Distance 26.69 km</desc>
<time>2010-06-13T07:46:01.65</time>
<name>5863</name>
</trkpt>
<trkpt lat="49.213388" lon="11.841635">
<ele>459.4</ele>
<speed>5.7</speed>
<course>314.0</course>
<desc>Speed 5.7 km/h Distance 26.69 km</desc>
<time>2010-06-13T07:46:02.65</time>
<name>5864</name>
</trkpt>
<trkpt lat="49.213408" lon="11.841603">
<ele>459.9</ele>
<speed>4.7</speed>
<course>326.8</course>
<desc>Speed 4.7 km/h Distance 26.70 km</desc>
<time>2010-06-13T07:46:03.65</time>
<name>5865</name>
</trkpt>
<trkpt lat="49.213432" lon="11.841580">
<ele>458.9</ele>
<speed>5.8</speed>
<course>300.2</course>
<desc>Speed 5.8 km/h Distance 26.70 km</desc>
<time>2010-06-13T07:46:04.65</time>
<name>5866</name>
</trkpt>
<trkpt lat="49.213445" lon="11.841545">
<ele>461.4</ele>
<speed>5.0</speed>
<course>298.2</course>
<desc>Speed 5.0 km/h Distance 26.70 km</desc>
<time>2010-06-13T07:46:05.65</time>
<name>5867</name>
</trkpt>
<trkpt lat="49.213457" lon="11.841512">
<ele>463.5</ele>
<speed>4.5</speed>
<course>235.2</course>
<desc>Speed 4.5 km/h Distance 26.71 km</desc>
<time>2010-06-13T07:46:06.65</time>
<name>5868</name>
</trkpt>
<trkpt lat="49.213448" lon="11.841493">
<ele>462.7</ele>
<speed>3.5</speed>
<course>310.9</course>
<desc>Speed 3.5 km/h Distance 26.71 km</desc>
<time>2010-06-13T07:46:07.65</time>
<name>5869</name>
</trkpt>
<trkpt lat="49.213455" lon="11.841482">
<ele>461.5</ele>
<speed>1.9</speed>
<course>275.1</course>
<desc>Speed 1.9 km/h Distance 26.71 km</desc>
<time>2010-06-13T07:46:08.65</time>
<name>5870</name>
</trkpt>
<trkpt lat="49.213457" lon="11.841453">
<ele>459.8</ele>
<speed>2.9</speed>
<course>297.0</course>
<desc>Speed 2.9 km/h Distance 26.71 km</desc>
<time>2010-06-13T07:46:09.65</time>
<name>5871</name>
</trkpt>
<trkpt lat="49.213467" lon="11.841423">
<ele>460.8</ele>
<speed>4.4</speed>
<course>294.2</course>
<desc>Speed 4.4 km/h Distance 26.71 km</desc>
<time>2010-06-13T07:46:10.65</time>
<name>5872</name>
</trkpt>
<trkpt lat="49.213475" lon="11.841395">
<ele>459.9</ele>
<speed>5.5</speed>
<course>297.0</course>
<desc>Speed 5.5 km/h Distance 26.72 km</desc>
<time>2010-06-13T07:46:11.65</time>
<name>5873</name>
</trkpt>
<trkpt lat="49.213498" lon="11.841325">
<ele>460.6</ele>
<speed>4.3</speed>
<course>293.0</course>
<desc>Speed 4.3 km/h Distance 26.72 km</desc>
<time>2010-06-13T07:46:13.65</time>
<name>5874</name>
</trkpt>
<trkpt lat="49.213507" lon="11.841295">
<ele>461.4</ele>
<speed>5.0</speed>
<course>299.4</course>
<desc>Speed 5.0 km/h Distance 26.72 km</desc>
<time>2010-06-13T07:46:14.65</time>
<name>5875</name>
</trkpt>
<trkpt lat="49.213530" lon="11.841232">
<ele>459.1</ele>
<speed>5.3</speed>
<course>250.5</course>
<desc>Speed 5.3 km/h Distance 26.73 km</desc>
<time>2010-06-13T07:46:16.65</time>
<name>5876</name>
</trkpt>
<trkpt lat="49.213520" lon="11.841188">
<ele>458.0</ele>
<speed>7.3</speed>
<course>249.7</course>
<desc>Speed 7.3 km/h Distance 26.73 km</desc>
<time>2010-06-13T07:46:17.65</time>
<name>5877</name>
</trkpt>
<trkpt lat="49.213508" lon="11.841140">
<ele>455.9</ele>
<speed>7.3</speed>
<course>262.7</course>
<desc>Speed 7.3 km/h Distance 26.74 km</desc>
<time>2010-06-13T07:46:18.65</time>
<name>5878</name>
</trkpt>
<trkpt lat="49.213507" lon="11.841120">
<ele>453.9</ele>
<speed>3.8</speed>
<course>319.0</course>
<desc>Speed 3.8 km/h Distance 26.74 km</desc>
<time>2010-06-13T07:46:19.65</time>
<name>5879</name>
</trkpt>
<trkpt lat="49.213517" lon="11.841107">
<ele>454.3</ele>
<speed>2.9</speed>
<course>287.0</course>
<desc>Speed 2.9 km/h Distance 26.74 km</desc>
<time>2010-06-13T07:46:20.65</time>
<name>5880</name>
</trkpt>
<trkpt lat="49.213523" lon="11.841073">
<ele>454.6</ele>
<speed>3.9</speed>
<course>270.0</course>
<desc>Speed 3.9 km/h Distance 26.74 km</desc>
<time>2010-06-13T07:46:21.65</time>
<name>5881</name>
</trkpt>
<trkpt lat="49.213523" lon="11.841045">
<ele>454.9</ele>
<speed>2.2</speed>
<course>294.2</course>
<desc>Speed 2.2 km/h Distance 26.74 km</desc>
<time>2010-06-13T07:46:22.65</time>
<name>5882</name>
</trkpt>
<trkpt lat="49.213532" lon="11.841017">
<ele>459.6</ele>
<speed>1.6</speed>
<course>319.0</course>
<desc>Speed 1.6 km/h Distance 26.75 km</desc>
<time>2010-06-13T07:46:23.65</time>
<name>5883</name>
</trkpt>
<trkpt lat="49.213547" lon="11.840997">
<ele>462.4</ele>
<speed>1.1</speed>
<course>349.3</course>
<desc>Speed 1.1 km/h Distance 26.75 km</desc>
<time>2010-06-13T07:46:24.65</time>
<name>5884</name>
</trkpt>
<trkpt lat="49.213587" lon="11.840985">
<ele>465.2</ele>
<speed>3.1</speed>
<course>349.3</course>
<desc>Speed 3.1 km/h Distance 26.75 km</desc>
<time>2010-06-13T07:46:26.65</time>
<name>5885</name>
</trkpt>
<trkpt lat="49.213615" lon="11.840977">
<ele>469.7</ele>
<speed>0.7</speed>
<course>307.4</course>
<desc>Speed 0.7 km/h Distance 26.76 km</desc>
<time>2010-06-13T07:46:28.65</time>
<name>5886</name>
</trkpt>
<trkpt lat="49.213627" lon="11.840953">
<ele>472.0</ele>
<speed>3.7</speed>
<course>247.3</course>
<desc>Speed 3.7 km/h Distance 26.76 km</desc>
<time>2010-06-13T07:46:29.65</time>
<name>5887</name>
</trkpt>
<trkpt lat="49.213622" lon="11.840935">
<ele>472.0</ele>
<speed>5.4</speed>
<course>282.3</course>
<desc>Speed 5.4 km/h Distance 26.76 km</desc>
<time>2010-06-13T07:46:30.65</time>
<name>5888</name>
</trkpt>
<trkpt lat="49.213628" lon="11.840888">
<ele>471.8</ele>
<speed>5.5</speed>
<course>259.2</course>
<desc>Speed 5.5 km/h Distance 26.76 km</desc>
<time>2010-06-13T07:46:31.65</time>
<name>5889</name>
</trkpt>
<trkpt lat="49.213618" lon="11.840808">
<ele>469.5</ele>
<speed>6.8</speed>
<course>261.1</course>
<desc>Speed 6.8 km/h Distance 26.77 km</desc>
<time>2010-06-13T07:46:33.65</time>
<name>5890</name>
</trkpt>
<trkpt lat="49.213612" lon="11.840743">
<ele>470.4</ele>
<speed>4.3</speed>
<course>169.6</course>
<desc>Speed 4.3 km/h Distance 26.77 km</desc>
<time>2010-06-13T07:46:35.65</time>
<name>5891</name>
</trkpt>
<trkpt lat="49.213600" lon="11.840747">
<ele>470.8</ele>
<speed>1.5</speed>
<course>198.8</course>
<desc>Speed 1.5 km/h Distance 26.77 km</desc>
<time>2010-06-13T07:46:36.65</time>
<name>5892</name>
</trkpt>
<trkpt lat="49.213593" lon="11.840743">
<ele>470.1</ele>
<speed>3.0</speed>
<course>213.2</course>
<desc>Speed 3.0 km/h Distance 26.78 km</desc>
<time>2010-06-13T07:46:37.65</time>
<name>5893</name>
</trkpt>
<trkpt lat="49.213585" lon="11.840735">
<ele>469.1</ele>
<speed>5.0</speed>
<course>227.8</course>
<desc>Speed 5.0 km/h Distance 26.78 km</desc>
<time>2010-06-13T07:46:38.65</time>
<name>5894</name>
</trkpt>
<trkpt lat="49.213558" lon="11.840690">
<ele>465.8</ele>
<speed>4.3</speed>
<course>203.7</course>
<desc>Speed 4.3 km/h Distance 26.78 km</desc>
<time>2010-06-13T07:46:40.65</time>
<name>5895</name>
</trkpt>
<trkpt lat="49.213543" lon="11.840680">
<ele>463.9</ele>
<speed>4.2</speed>
<course>249.0</course>
<desc>Speed 4.2 km/h Distance 26.78 km</desc>
<time>2010-06-13T07:46:41.65</time>
<name>5896</name>
</trkpt>
<trkpt lat="49.213540" lon="11.840667">
<ele>462.0</ele>
<speed>3.3</speed>
<course>270.0</course>
<desc>Speed 3.3 km/h Distance 26.78 km</desc>
<time>2010-06-13T07:46:42.65</time>
<name>5897</name>
</trkpt>
<trkpt lat="49.213540" lon="11.840648">
<ele>461.1</ele>
<speed>3.9</speed>
<course>259.8</course>
<desc>Speed 3.9 km/h Distance 26.79 km</desc>
<time>2010-06-13T07:46:43.65</time>
<name>5898</name>
</trkpt>
<trkpt lat="49.213537" lon="11.840620">
<ele>457.5</ele>
<speed>4.9</speed>
<course>298.4</course>
<desc>Speed 4.9 km/h Distance 26.79 km</desc>
<time>2010-06-13T07:46:44.65</time>
<name>5899</name>
</trkpt>
<trkpt lat="49.213547" lon="11.840592">
<ele>457.1</ele>
<speed>6.1</speed>
<course>242.9</course>
<desc>Speed 6.1 km/h Distance 26.79 km</desc>
<time>2010-06-13T07:46:45.65</time>
<name>5900</name>
</trkpt>
<trkpt lat="49.213540" lon="11.840572">
<ele>456.2</ele>
<speed>5.8</speed>
<course>277.6</course>
<desc>Speed 5.8 km/h Distance 26.79 km</desc>
<time>2010-06-13T07:46:46.65</time>
<name>5901</name>
</trkpt>
<trkpt lat="49.213543" lon="11.840533">
<ele>454.7</ele>
<speed>5.4</speed>
<course>273.2</course>
<desc>Speed 5.4 km/h Distance 26.79 km</desc>
<time>2010-06-13T07:46:47.65</time>
<name>5902</name>
</trkpt>
<trkpt lat="49.213545" lon="11.840488">
<ele>452.3</ele>
<speed>6.0</speed>
<course>251.2</course>
<desc>Speed 6.0 km/h Distance 26.80 km</desc>
<time>2010-06-13T07:46:48.65</time>
<name>5903</name>
</trkpt>
<trkpt lat="49.213538" lon="11.840458">
<ele>450.6</ele>
<speed>6.9</speed>
<course>249.1</course>
<desc>Speed 6.9 km/h Distance 26.80 km</desc>
<time>2010-06-13T07:46:49.65</time>
<name>5904</name>
</trkpt>
<trkpt lat="49.213532" lon="11.840432">
<ele>452.1</ele>
<speed>6.3</speed>
<course>204.6</course>
<desc>Speed 6.3 km/h Distance 26.80 km</desc>
<time>2010-06-13T07:46:50.65</time>
<name>5905</name>
</trkpt>
<trkpt lat="49.213520" lon="11.840423">
<ele>449.9</ele>
<speed>3.8</speed>
<course>204.9</course>
<desc>Speed 3.8 km/h Distance 26.80 km</desc>
<time>2010-06-13T07:46:51.65</time>
<name>5906</name>
</trkpt>
<trkpt lat="49.213508" lon="11.840415">
<ele>448.4</ele>
<speed>3.0</speed>
<course>315.5</course>
<desc>Speed 3.0 km/h Distance 26.80 km</desc>
<time>2010-06-13T07:46:52.65</time>
<name>5907</name>
</trkpt>
<trkpt lat="49.213518" lon="11.840400">
<ele>449.1</ele>
<speed>2.3</speed>
<course>283.3</course>
<desc>Speed 2.3 km/h Distance 26.81 km</desc>
<time>2010-06-13T07:46:53.65</time>
<name>5908</name>
</trkpt>
<trkpt lat="49.213522" lon="11.840378">
<ele>450.7</ele>
<speed>4.2</speed>
<course>292.7</course>
<desc>Speed 4.2 km/h Distance 26.81 km</desc>
<time>2010-06-13T07:46:54.65</time>
<name>5909</name>
</trkpt>
<trkpt lat="49.213527" lon="11.840360">
<ele>450.1</ele>
<speed>4.5</speed>
<course>277.9</course>
<desc>Speed 4.5 km/h Distance 26.81 km</desc>
<time>2010-06-13T07:46:55.65</time>
<name>5910</name>
</trkpt>
<trkpt lat="49.213528" lon="11.840342">
<ele>450.7</ele>
<speed>3.5</speed>
<course>239.5</course>
<desc>Speed 3.5 km/h Distance 26.81 km</desc>
<time>2010-06-13T07:46:56.65</time>
<name>5911</name>
</trkpt>
<trkpt lat="49.213520" lon="11.840320">
<ele>450.2</ele>
<speed>3.3</speed>
<course>301.4</course>
<desc>Speed 3.3 km/h Distance 26.81 km</desc>
<time>2010-06-13T07:46:57.65</time>
<name>5912</name>
</trkpt>
<trkpt lat="49.213523" lon="11.840312">
<ele>451.3</ele>
<speed>2.8</speed>
<course>207.9</course>
<desc>Speed 2.8 km/h Distance 26.81 km</desc>
<time>2010-06-13T07:46:58.65</time>
<name>5913</name>
</trkpt>
<trkpt lat="49.213515" lon="11.840305">
<ele>452.3</ele>
<speed>3.7</speed>
<course>235.2</course>
<desc>Speed 3.7 km/h Distance 26.81 km</desc>
<time>2010-06-13T07:46:59.65</time>
<name>5914</name>
</trkpt>
<trkpt lat="49.213507" lon="11.840287">
<ele>452.2</ele>
<speed>4.2</speed>
<course>238.5</course>
<desc>Speed 4.2 km/h Distance 26.82 km</desc>
<time>2010-06-13T07:47:00.65</time>
<name>5915</name>
</trkpt>
<trkpt lat="49.213500" lon="11.840270">
<ele>451.1</ele>
<speed>4.6</speed>
<course>254.0</course>
<desc>Speed 4.6 km/h Distance 26.82 km</desc>
<time>2010-06-13T07:47:01.65</time>
<name>5916</name>
</trkpt>
<trkpt lat="49.213495" lon="11.840243">
<ele>449.6</ele>
<speed>4.0</speed>
<course>262.7</course>
<desc>Speed 4.0 km/h Distance 26.82 km</desc>
<time>2010-06-13T07:47:02.65</time>
<name>5917</name>
</trkpt>
<trkpt lat="49.213493" lon="11.840223">
<ele>448.5</ele>
<speed>3.3</speed>
<course>262.7</course>
<desc>Speed 3.3 km/h Distance 26.82 km</desc>
<time>2010-06-13T07:47:03.65</time>
<name>5918</name>
</trkpt>
<trkpt lat="49.213492" lon="11.840203">
<ele>446.7</ele>
<speed>3.9</speed>
<course>299.3</course>
<desc>Speed 3.9 km/h Distance 26.82 km</desc>
<time>2010-06-13T07:47:04.65</time>
<name>5919</name>
</trkpt>
<trkpt lat="49.213510" lon="11.840153">
<ele>448.9</ele>
<speed>2.8</speed>
<course>275.5</course>
<desc>Speed 2.8 km/h Distance 26.83 km</desc>
<time>2010-06-13T07:47:06.65</time>
<name>5920</name>
</trkpt>
<trkpt lat="49.213512" lon="11.840127">
<ele>447.5</ele>
<speed>3.1</speed>
<course>297.0</course>
<desc>Speed 3.1 km/h Distance 26.83 km</desc>
<time>2010-06-13T07:47:07.65</time>
<name>5921</name>
</trkpt>
<trkpt lat="49.213517" lon="11.840112">
<ele>446.3</ele>
<speed>4.7</speed>
<course>298.7</course>
<desc>Speed 4.7 km/h Distance 26.83 km</desc>
<time>2010-06-13T07:47:08.65</time>
<name>5922</name>
</trkpt>
<trkpt lat="49.213525" lon="11.840088">
<ele>447.8</ele>
<speed>4.9</speed>
<course>257.1</course>
<desc>Speed 4.9 km/h Distance 26.83 km</desc>
<time>2010-06-13T07:47:09.65</time>
<name>5923</name>
</trkpt>
<trkpt lat="49.213520" lon="11.840055">
<ele>446.0</ele>
<speed>4.9</speed>
<course>235.9</course>
<desc>Speed 4.9 km/h Distance 26.83 km</desc>
<time>2010-06-13T07:47:10.65</time>
<name>5924</name>
</trkpt>
<trkpt lat="49.213513" lon="11.840040">
<ele>446.2</ele>
<speed>3.4</speed>
<course>245.3</course>
<desc>Speed 3.4 km/h Distance 26.84 km</desc>
<time>2010-06-13T07:47:11.65</time>
<name>5925</name>
</trkpt>
<trkpt lat="49.213503" lon="11.840007">
<ele>445.9</ele>
<speed>4.1</speed>
<course>239.2</course>
<desc>Speed 4.1 km/h Distance 26.84 km</desc>
<time>2010-06-13T07:47:12.65</time>
<name>5926</name>
</trkpt>
<trkpt lat="49.213492" lon="11.839977">
<ele>445.5</ele>
<speed>5.5</speed>
<course>230.7</course>
<desc>Speed 5.5 km/h Distance 26.84 km</desc>
<time>2010-06-13T07:47:13.65</time>
<name>5927</name>
</trkpt>
<trkpt lat="49.213478" lon="11.839952">
<ele>442.2</ele>
<speed>5.5</speed>
<course>247.3</course>
<desc>Speed 5.5 km/h Distance 26.84 km</desc>
<time>2010-06-13T07:47:14.65</time>
<name>5928</name>
</trkpt>
<trkpt lat="49.213473" lon="11.839933">
<ele>441.8</ele>
<speed>5.7</speed>
<course>243.0</course>
<desc>Speed 5.7 km/h Distance 26.84 km</desc>
<time>2010-06-13T07:47:15.65</time>
<name>5929</name>
</trkpt>
<trkpt lat="49.213467" lon="11.839913">
<ele>441.9</ele>
<speed>5.4</speed>
<course>230.1</course>
<desc>Speed 5.4 km/h Distance 26.85 km</desc>
<time>2010-06-13T07:47:16.65</time>
<name>5930</name>
</trkpt>
<trkpt lat="49.213457" lon="11.839895">
<ele>441.9</ele>
<speed>5.3</speed>
<course>262.1</course>
<desc>Speed 5.3 km/h Distance 26.85 km</desc>
<time>2010-06-13T07:47:17.65</time>
<name>5931</name>
</trkpt>
<trkpt lat="49.213455" lon="11.839877">
<ele>442.1</ele>
<speed>5.1</speed>
<course>259.2</course>
<desc>Speed 5.1 km/h Distance 26.85 km</desc>
<time>2010-06-13T07:47:18.65</time>
<name>5932</name>
</trkpt>
<trkpt lat="49.213453" lon="11.839863">
<ele>442.6</ele>
<speed>2.9</speed>
<course>319.1</course>
<desc>Speed 2.9 km/h Distance 26.85 km</desc>
<time>2010-06-13T07:47:19.65</time>
<name>5933</name>
</trkpt>
<trkpt lat="49.213458" lon="11.839857">
<ele>442.6</ele>
<speed>1.9</speed>
<course>322.1</course>
<desc>Speed 1.9 km/h Distance 26.85 km</desc>
<time>2010-06-13T07:47:20.65</time>
<name>5934</name>
</trkpt>
<trkpt lat="49.213467" lon="11.839847">
<ele>442.6</ele>
<speed>2.0</speed>
<course>286.0</course>
<desc>Speed 2.0 km/h Distance 26.85 km</desc>
<time>2010-06-13T07:47:21.65</time>
<name>5935</name>
</trkpt>
<trkpt lat="49.213472" lon="11.839820">
<ele>446.9</ele>
<speed>3.9</speed>
<course>262.1</course>
<desc>Speed 3.9 km/h Distance 26.85 km</desc>
<time>2010-06-13T07:47:22.65</time>
<name>5936</name>
</trkpt>
<trkpt lat="49.213470" lon="11.839802">
<ele>446.9</ele>
<speed>3.8</speed>
<course>274.2</course>
<desc>Speed 3.8 km/h Distance 26.86 km</desc>
<time>2010-06-13T07:47:23.65</time>
<name>5937</name>
</trkpt>
<trkpt lat="49.213472" lon="11.839767">
<ele>447.9</ele>
<speed>3.5</speed>
<course>274.4</course>
<desc>Speed 3.5 km/h Distance 26.86 km</desc>
<time>2010-06-13T07:47:24.65</time>
<name>5938</name>
</trkpt>
<trkpt lat="49.213473" lon="11.839733">
<ele>446.9</ele>
<speed>4.8</speed>
<course>259.2</course>
<desc>Speed 4.8 km/h Distance 26.86 km</desc>
<time>2010-06-13T07:47:25.65</time>
<name>5939</name>
</trkpt>
<trkpt lat="49.213472" lon="11.839720">
<ele>446.9</ele>
<speed>5.0</speed>
<course>199.7</course>
<desc>Speed 5.0 km/h Distance 26.86 km</desc>
<time>2010-06-13T07:47:26.65</time>
<name>5940</name>
</trkpt>
<trkpt lat="49.213453" lon="11.839710">
<ele>445.2</ele>
<speed>4.3</speed>
<course>223.1</course>
<desc>Speed 4.3 km/h Distance 26.86 km</desc>
<time>2010-06-13T07:47:27.65</time>
<name>5941</name>
</trkpt>
<trkpt lat="49.213442" lon="11.839693">
<ele>444.9</ele>
<speed>4.4</speed>
<course>240.1</course>
<desc>Speed 4.4 km/h Distance 26.86 km</desc>
<time>2010-06-13T07:47:28.65</time>
<name>5942</name>
</trkpt>
<trkpt lat="49.213437" lon="11.839680">
<ele>443.0</ele>
<speed>2.0</speed>
<course>272.4</course>
<desc>Speed 2.0 km/h Distance 26.87 km</desc>
<time>2010-06-13T07:47:29.65</time>
<name>5943</name>
</trkpt>
<trkpt lat="49.213438" lon="11.839620">
<ele>441.1</ele>
<speed>2.8</speed>
<course>310.3</course>
<desc>Speed 2.8 km/h Distance 26.87 km</desc>
<time>2010-06-13T07:47:31.65</time>
<name>5944</name>
</trkpt>
<trkpt lat="49.213447" lon="11.839605">
<ele>440.6</ele>
<speed>2.8</speed>
<course>265.1</course>
<desc>Speed 2.8 km/h Distance 26.87 km</desc>
<time>2010-06-13T07:47:32.65</time>
<name>5945</name>
</trkpt>
<trkpt lat="49.213443" lon="11.839545">
<ele>437.9</ele>
<speed>4.3</speed>
<course>249.1</course>
<desc>Speed 4.3 km/h Distance 26.88 km</desc>
<time>2010-06-13T07:47:34.65</time>
<name>5946</name>
</trkpt>
<trkpt lat="49.213438" lon="11.839525">
<ele>436.4</ele>
<speed>4.8</speed>
<course>250.6</course>
<desc>Speed 4.8 km/h Distance 26.88 km</desc>
<time>2010-06-13T07:47:35.65</time>
<name>5947</name>
</trkpt>
<trkpt lat="49.213433" lon="11.839503">
<ele>436.0</ele>
<speed>5.3</speed>
<course>285.1</course>
<desc>Speed 5.3 km/h Distance 26.88 km</desc>
<time>2010-06-13T07:47:36.65</time>
<name>5948</name>
</trkpt>
<trkpt lat="49.213438" lon="11.839475">
<ele>438.2</ele>
<speed>4.7</speed>
<course>236.7</course>
<desc>Speed 4.7 km/h Distance 26.88 km</desc>
<time>2010-06-13T07:47:37.65</time>
<name>5949</name>
</trkpt>
<trkpt lat="49.213428" lon="11.839452">
<ele>437.2</ele>
<speed>4.4</speed>
<course>247.8</course>
<desc>Speed 4.4 km/h Distance 26.88 km</desc>
<time>2010-06-13T07:47:38.65</time>
<name>5950</name>
</trkpt>
<trkpt lat="49.213422" lon="11.839427">
<ele>436.0</ele>
<speed>4.9</speed>
<course>274.6</course>
<desc>Speed 4.9 km/h Distance 26.89 km</desc>
<time>2010-06-13T07:47:39.65</time>
<name>5951</name>
</trkpt>
<trkpt lat="49.213423" lon="11.839395">
<ele>436.9</ele>
<speed>6.1</speed>
<course>270.0</course>
<desc>Speed 6.1 km/h Distance 26.89 km</desc>
<time>2010-06-13T07:47:40.65</time>
<name>5952</name>
</trkpt>
<trkpt lat="49.213423" lon="11.839358">
<ele>434.5</ele>
<speed>5.3</speed>
<course>287.7</course>
<desc>Speed 5.3 km/h Distance 26.89 km</desc>
<time>2010-06-13T07:47:41.65</time>
<name>5953</name>
</trkpt>
<trkpt lat="49.213432" lon="11.839318">
<ele>434.5</ele>
<speed>3.2</speed>
<course>298.7</course>
<desc>Speed 3.2 km/h Distance 26.89 km</desc>
<time>2010-06-13T07:47:42.65</time>
<name>5954</name>
</trkpt>
<trkpt lat="49.213440" lon="11.839295">
<ele>437.4</ele>
<speed>1.7</speed>
<course>304.8</course>
<desc>Speed 1.7 km/h Distance 26.90 km</desc>
<time>2010-06-13T07:47:43.65</time>
<name>5955</name>
</trkpt>
<trkpt lat="49.213448" lon="11.839277">
<ele>439.9</ele>
<speed>2.2</speed>
<course>276.2</course>
<desc>Speed 2.2 km/h Distance 26.90 km</desc>
<time>2010-06-13T07:47:44.65</time>
<name>5956</name>
</trkpt>
<trkpt lat="49.213450" lon="11.839253">
<ele>439.9</ele>
<speed>1.9</speed>
<course>294.6</course>
<desc>Speed 1.9 km/h Distance 26.90 km</desc>
<time>2010-06-13T07:47:45.65</time>
<name>5957</name>
</trkpt>
<trkpt lat="49.213455" lon="11.839237">
<ele>439.8</ele>
<speed>2.4</speed>
<course>287.0</course>
<desc>Speed 2.4 km/h Distance 26.90 km</desc>
<time>2010-06-13T07:47:46.65</time>
<name>5958</name>
</trkpt>
<trkpt lat="49.213458" lon="11.839220">
<ele>441.4</ele>
<speed>1.7</speed>
<course>294.7</course>
<desc>Speed 1.7 km/h Distance 26.90 km</desc>
<time>2010-06-13T07:47:47.65</time>
<name>5959</name>
</trkpt>
<trkpt lat="49.213463" lon="11.839203">
<ele>444.0</ele>
<speed>2.8</speed>
<course>308.3</course>
<desc>Speed 2.8 km/h Distance 26.90 km</desc>
<time>2010-06-13T07:47:48.65</time>
<name>5960</name>
</trkpt>
<trkpt lat="49.213542" lon="11.839052">
<ele>450.1</ele>
<speed>7.3</speed>
<course>259.2</course>
<desc>Speed 7.3 km/h Distance 26.92 km</desc>
<time>2010-06-13T07:47:51.65</time>
<name>5961</name>
</trkpt>
<trkpt lat="49.213538" lon="11.839025">
<ele>451.7</ele>
<speed>5.9</speed>
<course>273.5</course>
<desc>Speed 5.9 km/h Distance 26.92 km</desc>
<time>2010-06-13T07:47:52.65</time>
<name>5962</name>
</trkpt>
<trkpt lat="49.213540" lon="11.838983">
<ele>452.2</ele>
<speed>8.0</speed>
<course>277.0</course>
<desc>Speed 8.0 km/h Distance 26.92 km</desc>
<time>2010-06-13T07:47:53.65</time>
<name>5963</name>
</trkpt>
<trkpt lat="49.213543" lon="11.838942">
<ele>453.3</ele>
<speed>8.4</speed>
<course>275.5</course>
<desc>Speed 8.4 km/h Distance 26.92 km</desc>
<time>2010-06-13T07:47:54.65</time>
<name>5964</name>
</trkpt>
<trkpt lat="49.213547" lon="11.838888">
<ele>453.6</ele>
<speed>10.6</speed>
<course>278.4</course>
<desc>Speed 10.6 km/h Distance 26.93 km</desc>
<time>2010-06-13T07:47:55.65</time>
<name>5965</name>
</trkpt>
<trkpt lat="49.213552" lon="11.838837">
<ele>453.9</ele>
<speed>9.3</speed>
<course>276.7</course>
<desc>Speed 9.3 km/h Distance 26.93 km</desc>
<time>2010-06-13T07:47:56.65</time>
<name>5966</name>
</trkpt>
<trkpt lat="49.213555" lon="11.838793">
<ele>453.2</ele>
<speed>8.9</speed>
<course>275.8</course>
<desc>Speed 8.9 km/h Distance 26.94 km</desc>
<time>2010-06-13T07:47:57.65</time>
<name>5967</name>
</trkpt>
<trkpt lat="49.213558" lon="11.838743">
<ele>452.3</ele>
<speed>9.3</speed>
<course>273.2</course>
<desc>Speed 9.3 km/h Distance 26.94 km</desc>
<time>2010-06-13T07:47:58.65</time>
<name>5968</name>
</trkpt>
<trkpt lat="49.213560" lon="11.838698">
<ele>451.4</ele>
<speed>7.7</speed>
<course>293.2</course>
<desc>Speed 7.7 km/h Distance 26.94 km</desc>
<time>2010-06-13T07:47:59.65</time>
<name>5969</name>
</trkpt>
<trkpt lat="49.213572" lon="11.838657">
<ele>451.0</ele>
<speed>8.3</speed>
<course>270.0</course>
<desc>Speed 8.3 km/h Distance 26.95 km</desc>
<time>2010-06-13T07:48:00.65</time>
<name>5970</name>
</trkpt>
<trkpt lat="49.213572" lon="11.838615">
<ele>451.3</ele>
<speed>6.9</speed>
<course>262.7</course>
<desc>Speed 6.9 km/h Distance 26.95 km</desc>
<time>2010-06-13T07:48:01.65</time>
<name>5971</name>
</trkpt>
<trkpt lat="49.213568" lon="11.838575">
<ele>449.1</ele>
<speed>6.8</speed>
<course>300.3</course>
<desc>Speed 6.8 km/h Distance 26.95 km</desc>
<time>2010-06-13T07:48:02.65</time>
<name>5972</name>
</trkpt>
<trkpt lat="49.213582" lon="11.838540">
<ele>449.7</ele>
<speed>7.6</speed>
<course>288.5</course>
<desc>Speed 7.6 km/h Distance 26.95 km</desc>
<time>2010-06-13T07:48:03.65</time>
<name>5973</name>
</trkpt>
<trkpt lat="49.213593" lon="11.838487">
<ele>452.4</ele>
<speed>8.8</speed>
<course>284.3</course>
<desc>Speed 8.8 km/h Distance 26.96 km</desc>
<time>2010-06-13T07:48:04.65</time>
<name>5974</name>
</trkpt>
<trkpt lat="49.213602" lon="11.838437">
<ele>451.8</ele>
<speed>9.1</speed>
<course>292.2</course>
<desc>Speed 9.1 km/h Distance 26.96 km</desc>
<time>2010-06-13T07:48:05.65</time>
<name>5975</name>
</trkpt>
<trkpt lat="49.213615" lon="11.838387">
<ele>452.9</ele>
<speed>8.6</speed>
<course>264.0</course>
<desc>Speed 8.6 km/h Distance 26.97 km</desc>
<time>2010-06-13T07:48:06.65</time>
<name>5976</name>
</trkpt>
<trkpt lat="49.213612" lon="11.838338">
<ele>450.5</ele>
<speed>7.5</speed>
<course>272.8</course>
<desc>Speed 7.5 km/h Distance 26.97 km</desc>
<time>2010-06-13T07:48:07.65</time>
<name>5977</name>
</trkpt>
<trkpt lat="49.213613" lon="11.838287">
<ele>451.7</ele>
<speed>8.4</speed>
<course>250.3</course>
<desc>Speed 8.4 km/h Distance 26.97 km</desc>
<time>2010-06-13T07:48:08.65</time>
<name>5978</name>
</trkpt>
<trkpt lat="49.213602" lon="11.838237">
<ele>449.9</ele>
<speed>9.6</speed>
<course>249.7</course>
<desc>Speed 9.6 km/h Distance 26.98 km</desc>
<time>2010-06-13T07:48:09.65</time>
<name>5979</name>
</trkpt>
<trkpt lat="49.213590" lon="11.838188">
<ele>449.0</ele>
<speed>8.0</speed>
<course>279.0</course>
<desc>Speed 8.0 km/h Distance 26.98 km</desc>
<time>2010-06-13T07:48:10.65</time>
<name>5980</name>
</trkpt>
<trkpt lat="49.213595" lon="11.838140">
<ele>447.5</ele>
<speed>7.3</speed>
<course>270.0</course>
<desc>Speed 7.3 km/h Distance 26.99 km</desc>
<time>2010-06-13T07:48:11.65</time>
<name>5981</name>
</trkpt>
<trkpt lat="49.213595" lon="11.838102">
<ele>447.3</ele>
<speed>6.0</speed>
<course>284.3</course>
<desc>Speed 6.0 km/h Distance 26.99 km</desc>
<time>2010-06-13T07:48:12.65</time>
<name>5982</name>
</trkpt>
<trkpt lat="49.213602" lon="11.838062">
<ele>447.9</ele>
<speed>4.7</speed>
<course>302.4</course>
<desc>Speed 4.7 km/h Distance 26.99 km</desc>
<time>2010-06-13T07:48:13.65</time>
<name>5983</name>
</trkpt>
<trkpt lat="49.213630" lon="11.837993">
<ele>448.1</ele>
<speed>3.9</speed>
<course>290.9</course>
<desc>Speed 3.9 km/h Distance 27.00 km</desc>
<time>2010-06-13T07:48:15.65</time>
<name>5984</name>
</trkpt>
<trkpt lat="49.213653" lon="11.837900">
<ele>446.7</ele>
<speed>6.7</speed>
<course>273.3</course>
<desc>Speed 6.7 km/h Distance 27.00 km</desc>
<time>2010-06-13T07:48:17.65</time>
<name>5985</name>
</trkpt>
<trkpt lat="49.213658" lon="11.837767">
<ele>444.5</ele>
<speed>9.6</speed>
<course>275.8</course>
<desc>Speed 9.6 km/h Distance 27.01 km</desc>
<time>2010-06-13T07:48:19.65</time>
<name>5986</name>
</trkpt>
<trkpt lat="49.213662" lon="11.837717">
<ele>444.7</ele>
<speed>8.7</speed>
<course>293.6</course>
<desc>Speed 8.7 km/h Distance 27.02 km</desc>
<time>2010-06-13T07:48:20.65</time>
<name>5987</name>
</trkpt>
<trkpt lat="49.213675" lon="11.837670">
<ele>445.8</ele>
<speed>7.5</speed>
<course>283.9</course>
<desc>Speed 7.5 km/h Distance 27.02 km</desc>
<time>2010-06-13T07:48:21.65</time>
<name>5988</name>
</trkpt>
<trkpt lat="49.213683" lon="11.837618">
<ele>445.6</ele>
<speed>8.4</speed>
<course>305.4</course>
<desc>Speed 8.4 km/h Distance 27.03 km</desc>
<time>2010-06-13T07:48:22.65</time>
<name>5989</name>
</trkpt>
<trkpt lat="49.213705" lon="11.837572">
<ele>446.6</ele>
<speed>8.7</speed>
<course>287.6</course>
<desc>Speed 8.7 km/h Distance 27.03 km</desc>
<time>2010-06-13T07:48:23.65</time>
<name>5990</name>
</trkpt>
<trkpt lat="49.213715" lon="11.837523">
<ele>444.9</ele>
<speed>8.5</speed>
<course>288.4</course>
<desc>Speed 8.5 km/h Distance 27.03 km</desc>
<time>2010-06-13T07:48:24.65</time>
<name>5991</name>
</trkpt>
<trkpt lat="49.213723" lon="11.837485">
<ele>446.4</ele>
<speed>7.5</speed>
<course>274.2</course>
<desc>Speed 7.5 km/h Distance 27.04 km</desc>
<time>2010-06-13T07:48:25.65</time>
<name>5992</name>
</trkpt>
<trkpt lat="49.213725" lon="11.837450">
<ele>446.4</ele>
<speed>6.2</speed>
<course>255.2</course>
<desc>Speed 6.2 km/h Distance 27.04 km</desc>
<time>2010-06-13T07:48:26.65</time>
<name>5993</name>
</trkpt>
<trkpt lat="49.213717" lon="11.837402">
<ele>445.5</ele>
<speed>8.0</speed>
<course>283.3</course>
<desc>Speed 8.0 km/h Distance 27.04 km</desc>
<time>2010-06-13T07:48:27.66</time>
<name>5994</name>
</trkpt>
<trkpt lat="49.213723" lon="11.837358">
<ele>447.2</ele>
<speed>8.1</speed>
<course>270.0</course>
<desc>Speed 8.1 km/h Distance 27.05 km</desc>
<time>2010-06-13T07:48:28.65</time>
<name>5995</name>
</trkpt>
<trkpt lat="49.213723" lon="11.837313">
<ele>447.2</ele>
<speed>6.5</speed>
<course>289.5</course>
<desc>Speed 6.5 km/h Distance 27.05 km</desc>
<time>2010-06-13T07:48:29.65</time>
<name>5996</name>
</trkpt>
<trkpt lat="49.213728" lon="11.837292">
<ele>445.8</ele>
<speed>4.4</speed>
<course>309.7</course>
<desc>Speed 4.4 km/h Distance 27.05 km</desc>
<time>2010-06-13T07:48:30.65</time>
<name>5997</name>
</trkpt>
<trkpt lat="49.213782" lon="11.837193">
<ele>451.4</ele>
<speed>3.3</speed>
<course>277.6</course>
<desc>Speed 3.3 km/h Distance 27.06 km</desc>
<time>2010-06-13T07:48:32.65</time>
<name>5998</name>
</trkpt>
<trkpt lat="49.213785" lon="11.837155">
<ele>449.8</ele>
<speed>3.9</speed>
<course>290.4</course>
<desc>Speed 3.9 km/h Distance 27.06 km</desc>
<time>2010-06-13T07:48:33.65</time>
<name>5999</name>
</trkpt>
<trkpt lat="49.213813" lon="11.837038">
<ele>451.5</ele>
<speed>5.7</speed>
<course>284.1</course>
<desc>Speed 5.7 km/h Distance 27.07 km</desc>
<time>2010-06-13T07:48:35.65</time>
<name>6000</name>
</trkpt>
<trkpt lat="49.213828" lon="11.836947">
<ele>454.4</ele>
<speed>6.8</speed>
<course>270.0</course>
<desc>Speed 6.8 km/h Distance 27.08 km</desc>
<time>2010-06-13T07:48:37.65</time>
<name>6001</name>
</trkpt>
<trkpt lat="49.213828" lon="11.836897">
<ele>454.6</ele>
<speed>7.9</speed>
<course>261.0</course>
<desc>Speed 7.9 km/h Distance 27.08 km</desc>
<time>2010-06-13T07:48:38.65</time>
<name>6002</name>
</trkpt>
<trkpt lat="49.213823" lon="11.836848">
<ele>454.1</ele>
<speed>6.2</speed>
<course>280.8</course>
<desc>Speed 6.2 km/h Distance 27.09 km</desc>
<time>2010-06-13T07:48:39.65</time>
<name>6003</name>
</trkpt>
<trkpt lat="49.213835" lon="11.836755">
<ele>453.9</ele>
<speed>5.1</speed>
<course>298.3</course>
<desc>Speed 5.1 km/h Distance 27.09 km</desc>
<time>2010-06-13T07:48:41.65</time>
<name>6004</name>
</trkpt>
<trkpt lat="49.213867" lon="11.836665">
<ele>454.3</ele>
<speed>5.4</speed>
<course>284.3</course>
<desc>Speed 5.4 km/h Distance 27.10 km</desc>
<time>2010-06-13T07:48:43.65</time>
<name>6005</name>
</trkpt>
<trkpt lat="49.213873" lon="11.836625">
<ele>455.4</ele>
<speed>5.4</speed>
<course>283.3</course>
<desc>Speed 5.4 km/h Distance 27.10 km</desc>
<time>2010-06-13T07:48:44.65</time>
<name>6006</name>
</trkpt>
<trkpt lat="49.213880" lon="11.836582">
<ele>456.3</ele>
<speed>4.4</speed>
<course>225.6</course>
<desc>Speed 4.4 km/h Distance 27.11 km</desc>
<time>2010-06-13T07:48:45.65</time>
<name>6007</name>
</trkpt>
<trkpt lat="49.213868" lon="11.836563">
<ele>456.3</ele>
<speed>5.5</speed>
<course>227.8</course>
<desc>Speed 5.5 km/h Distance 27.11 km</desc>
<time>2010-06-13T07:48:46.65</time>
<name>6008</name>
</trkpt>
<trkpt lat="49.213820" lon="11.836482">
<ele>454.0</ele>
<speed>5.4</speed>
<course>263.3</course>
<desc>Speed 5.4 km/h Distance 27.12 km</desc>
<time>2010-06-13T07:48:49.65</time>
<name>6009</name>
</trkpt>
<trkpt lat="49.213818" lon="11.836460">
<ele>454.0</ele>
<speed>5.0</speed>
<course>253.0</course>
<desc>Speed 5.0 km/h Distance 27.12 km</desc>
<time>2010-06-13T07:48:50.65</time>
<name>6010</name>
</trkpt>
<trkpt lat="49.213813" lon="11.836435">
<ele>454.0</ele>
<speed>4.6</speed>
<course>293.6</course>
<desc>Speed 4.6 km/h Distance 27.12 km</desc>
<time>2010-06-13T07:48:51.65</time>
<name>6011</name>
</trkpt>
<trkpt lat="49.213820" lon="11.836412">
<ele>453.5</ele>
<speed>5.9</speed>
<course>326.8</course>
<desc>Speed 5.9 km/h Distance 27.12 km</desc>
<time>2010-06-13T07:48:52.65</time>
<name>6012</name>
</trkpt>
<trkpt lat="49.213847" lon="11.836385">
<ele>453.3</ele>
<speed>7.5</speed>
<course>313.1</course>
<desc>Speed 7.5 km/h Distance 27.12 km</desc>
<time>2010-06-13T07:48:53.65</time>
<name>6013</name>
</trkpt>
<trkpt lat="49.213865" lon="11.836355">
<ele>453.3</ele>
<speed>7.6</speed>
<course>311.1</course>
<desc>Speed 7.6 km/h Distance 27.13 km</desc>
<time>2010-06-13T07:48:54.65</time>
<name>6014</name>
</trkpt>
<trkpt lat="49.213878" lon="11.836332">
<ele>453.3</ele>
<speed>5.6</speed>
<course>270.0</course>
<desc>Speed 5.6 km/h Distance 27.13 km</desc>
<time>2010-06-13T07:48:55.65</time>
<name>6015</name>
</trkpt>
<trkpt lat="49.213878" lon="11.836313">
<ele>453.3</ele>
<speed>3.8</speed>
<course>293.5</course>
<desc>Speed 3.8 km/h Distance 27.13 km</desc>
<time>2010-06-13T07:48:56.65</time>
<name>6016</name>
</trkpt>
<trkpt lat="49.213882" lon="11.836302">
<ele>453.3</ele>
<speed>2.7</speed>
<course>199.4</course>
<desc>Speed 2.7 km/h Distance 27.13 km</desc>
<time>2010-06-13T07:48:57.65</time>
<name>6017</name>
</trkpt>
<trkpt lat="49.213860" lon="11.836290">
<ele>453.3</ele>
<speed>3.1</speed>
<course>212.6</course>
<desc>Speed 3.1 km/h Distance 27.13 km</desc>
<time>2010-06-13T07:48:58.65</time>
<name>6018</name>
</trkpt>
<trkpt lat="49.213853" lon="11.836283">
<ele>457.3</ele>
<speed>1.8</speed>
<course>280.8</course>
<desc>Speed 1.8 km/h Distance 27.14 km</desc>
<time>2010-06-13T07:48:59.65</time>
<name>6019</name>
</trkpt>
<trkpt lat="49.213855" lon="11.836270">
<ele>457.3</ele>
<speed>2.2</speed>
<course>230.8</course>
<desc>Speed 2.2 km/h Distance 27.14 km</desc>
<time>2010-06-13T07:49:00.65</time>
<name>6020</name>
</trkpt>
<trkpt lat="49.213842" lon="11.836245">
<ele>454.6</ele>
<speed>2.0</speed>
<course>218.1</course>
<desc>Speed 2.0 km/h Distance 27.14 km</desc>
<time>2010-06-13T07:49:01.65</time>
<name>6021</name>
</trkpt>
<trkpt lat="49.213833" lon="11.836235">
<ele>454.6</ele>
<speed>3.0</speed>
<course>248.9</course>
<desc>Speed 3.0 km/h Distance 27.14 km</desc>
<time>2010-06-13T07:49:02.65</time>
<name>6022</name>
</trkpt>
<trkpt lat="49.213830" lon="11.836222">
<ele>454.6</ele>
<speed>4.0</speed>
<course>321.0</course>
<desc>Speed 4.0 km/h Distance 27.14 km</desc>
<time>2010-06-13T07:49:03.65</time>
<name>6023</name>
</trkpt>
<trkpt lat="49.213837" lon="11.836213">
<ele>454.6</ele>
<speed>1.9</speed>
<course>293.7</course>
<desc>Speed 1.9 km/h Distance 27.14 km</desc>
<time>2010-06-13T07:49:04.65</time>
<name>6024</name>
</trkpt>
<trkpt lat="49.213840" lon="11.836202">
<ele>454.6</ele>
<speed>3.8</speed>
<course>252.3</course>
<desc>Speed 3.8 km/h Distance 27.14 km</desc>
<time>2010-06-13T07:49:05.65</time>
<name>6025</name>
</trkpt>
<trkpt lat="49.213832" lon="11.836162">
<ele>449.7</ele>
<speed>6.7</speed>
<course>253.0</course>
<desc>Speed 6.7 km/h Distance 27.15 km</desc>
<time>2010-06-13T07:49:06.65</time>
<name>6026</name>
</trkpt>
<trkpt lat="49.213827" lon="11.836137">
<ele>449.7</ele>
<speed>6.8</speed>
<course>235.8</course>
<desc>Speed 6.8 km/h Distance 27.15 km</desc>
<time>2010-06-13T07:49:07.65</time>
<name>6027</name>
</trkpt>
<trkpt lat="49.213813" lon="11.836107">
<ele>449.7</ele>
<speed>6.8</speed>
<course>213.2</course>
<desc>Speed 6.8 km/h Distance 27.15 km</desc>
<time>2010-06-13T07:49:08.65</time>
<name>6028</name>
</trkpt>
<trkpt lat="49.213790" lon="11.836083">
<ele>449.7</ele>
<speed>7.8</speed>
<course>204.6</course>
<desc>Speed 7.8 km/h Distance 27.15 km</desc>
<time>2010-06-13T07:49:09.65</time>
<name>6029</name>
</trkpt>
<trkpt lat="49.213757" lon="11.836060">
<ele>449.7</ele>
<speed>8.3</speed>
<course>188.8</course>
<desc>Speed 8.3 km/h Distance 27.16 km</desc>
<time>2010-06-13T07:49:10.65</time>
<name>6030</name>
</trkpt>
<trkpt lat="49.213728" lon="11.836053">
<ele>449.7</ele>
<speed>7.9</speed>
<course>183.7</course>
<desc>Speed 7.9 km/h Distance 27.16 km</desc>
<time>2010-06-13T07:49:11.65</time>
<name>6031</name>
</trkpt>
<trkpt lat="49.213710" lon="11.836052">
<ele>449.7</ele>
<speed>6.1</speed>
<course>184.7</course>
<desc>Speed 6.1 km/h Distance 27.16 km</desc>
<time>2010-06-13T07:49:12.65</time>
<name>6032</name>
</trkpt>
<trkpt lat="49.213698" lon="11.836050">
<ele>449.7</ele>
<speed>3.7</speed>
<course>322.8</course>
<desc>Speed 3.7 km/h Distance 27.16 km</desc>
<time>2010-06-13T07:49:13.65</time>
<name>6033</name>
</trkpt>
<trkpt lat="49.213700" lon="11.836048">
<ele>449.7</ele>
<speed>3.1</speed>
<course>255.7</course>
<desc>Speed 3.1 km/h Distance 27.16 km</desc>
<time>2010-06-13T07:49:14.65</time>
<name>6034</name>
</trkpt>
<trkpt lat="49.213697" lon="11.836028">
<ele>449.7</ele>
<speed>3.8</speed>
<course>301.8</course>
<desc>Speed 3.8 km/h Distance 27.17 km</desc>
<time>2010-06-13T07:49:16.65</time>
<name>6035</name>
</trkpt>
<trkpt lat="49.213728" lon="11.835950">
<ele>453.7</ele>
<speed>4.8</speed>
<course>284.9</course>
<desc>Speed 4.8 km/h Distance 27.17 km</desc>
<time>2010-06-13T07:49:19.65</time>
<name>6036</name>
</trkpt>
<trkpt lat="49.213735" lon="11.835912">
<ele>453.0</ele>
<speed>3.1</speed>
<course>312.6</course>
<desc>Speed 3.1 km/h Distance 27.18 km</desc>
<time>2010-06-13T07:49:20.65</time>
<name>6037</name>
</trkpt>
<trkpt lat="49.213745" lon="11.835895">
<ele>453.0</ele>
<speed>3.4</speed>
<course>232.6</course>
<desc>Speed 3.4 km/h Distance 27.18 km</desc>
<time>2010-06-13T07:49:21.65</time>
<name>6038</name>
</trkpt>
<trkpt lat="49.213737" lon="11.835878">
<ele>453.0</ele>
<speed>4.9</speed>
<course>270.0</course>
<desc>Speed 4.9 km/h Distance 27.18 km</desc>
<time>2010-06-13T07:49:22.65</time>
<name>6039</name>
</trkpt>
<trkpt lat="49.213737" lon="11.835860">
<ele>453.0</ele>
<speed>4.9</speed>
<course>297.0</course>
<desc>Speed 4.9 km/h Distance 27.18 km</desc>
<time>2010-06-13T07:49:23.65</time>
<name>6040</name>
</trkpt>
<trkpt lat="49.213742" lon="11.835845">
<ele>453.0</ele>
<speed>3.2</speed>
<course>315.5</course>
<desc>Speed 3.2 km/h Distance 27.18 km</desc>
<time>2010-06-13T07:49:24.65</time>
<name>6041</name>
</trkpt>
<trkpt lat="49.213748" lon="11.835835">
<ele>453.0</ele>
<speed>3.3</speed>
<course>257.7</course>
<desc>Speed 3.3 km/h Distance 27.18 km</desc>
<time>2010-06-13T07:49:25.65</time>
<name>6042</name>
</trkpt>
<trkpt lat="49.213747" lon="11.835823">
<ele>453.0</ele>
<speed>4.0</speed>
<course>257.7</course>
<desc>Speed 4.0 km/h Distance 27.18 km</desc>
<time>2010-06-13T07:49:26.65</time>
<name>6043</name>
</trkpt>
<trkpt lat="49.213745" lon="11.835812">
<ele>453.0</ele>
<speed>2.8</speed>
<course>249.1</course>
<desc>Speed 2.8 km/h Distance 27.18 km</desc>
<time>2010-06-13T07:49:27.65</time>
<name>6044</name>
</trkpt>
<trkpt lat="49.213743" lon="11.835805">
<ele>453.0</ele>
<speed>3.1</speed>
<course>313.8</course>
<desc>Speed 3.1 km/h Distance 27.18 km</desc>
<time>2010-06-13T07:49:28.65</time>
<name>6045</name>
</trkpt>
<trkpt lat="49.213752" lon="11.835792">
<ele>453.0</ele>
<speed>4.3</speed>
<course>261.3</course>
<desc>Speed 4.3 km/h Distance 27.19 km</desc>
<time>2010-06-13T07:49:29.65</time>
<name>6046</name>
</trkpt>
<trkpt lat="49.213750" lon="11.835775">
<ele>453.0</ele>
<speed>5.9</speed>
<course>311.2</course>
<desc>Speed 5.9 km/h Distance 27.19 km</desc>
<time>2010-06-13T07:49:30.65</time>
<name>6047</name>
</trkpt>
<trkpt lat="49.213763" lon="11.835752">
<ele>453.0</ele>
<speed>7.2</speed>
<course>302.2</course>
<desc>Speed 7.2 km/h Distance 27.19 km</desc>
<time>2010-06-13T07:49:31.65</time>
<name>6048</name>
</trkpt>
<trkpt lat="49.213775" lon="11.835723">
<ele>453.0</ele>
<speed>7.4</speed>
<course>275.5</course>
<desc>Speed 7.4 km/h Distance 27.19 km</desc>
<time>2010-06-13T07:49:32.65</time>
<name>6049</name>
</trkpt>
<trkpt lat="49.213777" lon="11.835697">
<ele>452.2</ele>
<speed>6.4</speed>
<course>261.3</course>
<desc>Speed 6.4 km/h Distance 27.19 km</desc>
<time>2010-06-13T07:49:33.65</time>
<name>6050</name>
</trkpt>
<trkpt lat="49.213773" lon="11.835663">
<ele>451.7</ele>
<speed>6.5</speed>
<course>304.5</course>
<desc>Speed 6.5 km/h Distance 27.20 km</desc>
<time>2010-06-13T07:49:34.65</time>
<name>6051</name>
</trkpt>
<trkpt lat="49.213788" lon="11.835630">
<ele>451.2</ele>
<speed>8.8</speed>
<course>287.7</course>
<desc>Speed 8.8 km/h Distance 27.20 km</desc>
<time>2010-06-13T07:49:35.65</time>
<name>6052</name>
</trkpt>
<trkpt lat="49.213797" lon="11.835590">
<ele>451.6</ele>
<speed>9.0</speed>
<course>296.0</course>
<desc>Speed 9.0 km/h Distance 27.20 km</desc>
<time>2010-06-13T07:49:36.65</time>
<name>6053</name>
</trkpt>
<trkpt lat="49.213808" lon="11.835553">
<ele>451.6</ele>
<speed>7.6</speed>
<course>301.5</course>
<desc>Speed 7.6 km/h Distance 27.21 km</desc>
<time>2010-06-13T07:49:37.65</time>
<name>6054</name>
</trkpt>
<trkpt lat="49.213818" lon="11.835528">
<ele>451.6</ele>
<speed>4.6</speed>
<course>270.0</course>
<desc>Speed 4.6 km/h Distance 27.21 km</desc>
<time>2010-06-13T07:49:38.65</time>
<name>6055</name>
</trkpt>
<trkpt lat="49.213818" lon="11.835493">
<ele>451.6</ele>
<speed>3.1</speed>
<course>234.7</course>
<desc>Speed 3.1 km/h Distance 27.21 km</desc>
<time>2010-06-13T07:49:41.65</time>
<name>6056</name>
</trkpt>
<trkpt lat="49.213727" lon="11.835295">
<ele>451.6</ele>
<speed>3.2</speed>
<course>243.0</course>
<desc>Speed 3.2 km/h Distance 27.23 km</desc>
<time>2010-06-13T07:49:53.65</time>
<name>6057</name>
</trkpt>
<trkpt lat="49.213713" lon="11.835255">
<ele>451.6</ele>
<speed>5.0</speed>
<course>266.3</course>
<desc>Speed 5.0 km/h Distance 27.23 km</desc>
<time>2010-06-13T07:49:55.65</time>
<name>6058</name>
</trkpt>
<trkpt lat="49.213710" lon="11.835177">
<ele>451.6</ele>
<speed>4.8</speed>
<course>261.4</course>
<desc>Speed 4.8 km/h Distance 27.24 km</desc>
<time>2010-06-13T07:49:58.65</time>
<name>6059</name>
</trkpt>
<trkpt lat="49.213700" lon="11.835075">
<ele>451.6</ele>
<speed>5.7</speed>
<course>282.9</course>
<desc>Speed 5.7 km/h Distance 27.24 km</desc>
<time>2010-06-13T07:50:00.65</time>
<name>6060</name>
</trkpt>
<trkpt lat="49.213705" lon="11.835042">
<ele>451.6</ele>
<speed>5.1</speed>
<course>278.7</course>
<desc>Speed 5.1 km/h Distance 27.25 km</desc>
<time>2010-06-13T07:50:01.65</time>
<name>6061</name>
</trkpt>
<trkpt lat="49.213715" lon="11.834942">
<ele>451.6</ele>
<speed>5.9</speed>
<course>259.7</course>
<desc>Speed 5.9 km/h Distance 27.25 km</desc>
<time>2010-06-13T07:50:03.65</time>
<name>6062</name>
</trkpt>
<trkpt lat="49.213707" lon="11.834872">
<ele>451.6</ele>
<speed>6.7</speed>
<course>275.8</course>
<desc>Speed 6.7 km/h Distance 27.26 km</desc>
<time>2010-06-13T07:50:05.65</time>
<name>6063</name>
</trkpt>
<trkpt lat="49.213708" lon="11.834847">
<ele>451.6</ele>
<speed>4.7</speed>
<course>254.9</course>
<desc>Speed 4.7 km/h Distance 27.26 km</desc>
<time>2010-06-13T07:50:06.65</time>
<name>6064</name>
</trkpt>
<trkpt lat="49.213703" lon="11.834818">
<ele>451.6</ele>
<speed>6.0</speed>
<course>229.2</course>
<desc>Speed 6.0 km/h Distance 27.26 km</desc>
<time>2010-06-13T07:50:07.65</time>
<name>6065</name>
</trkpt>
<trkpt lat="49.213473" lon="11.834410">
<ele>441.3</ele>
<speed>3.7</speed>
<course>0.0</course>
<desc>Speed 3.7 km/h Distance 27.30 km</desc>
<time>2010-06-13T07:50:19.65</time>
<name>6066</name>
</trkpt>
<trkpt lat="49.213478" lon="11.834410">
<ele>441.3</ele>
<speed>3.1</speed>
<course>347.4</course>
<desc>Speed 3.1 km/h Distance 27.30 km</desc>
<time>2010-06-13T07:50:20.65</time>
<name>6067</name>
</trkpt>
<trkpt lat="49.213480" lon="11.834408">
<ele>441.3</ele>
<speed>3.8</speed>
<course>180.0</course>
<desc>Speed 3.8 km/h Distance 27.30 km</desc>
<time>2010-06-13T07:50:21.65</time>
<name>6068</name>
</trkpt>
<trkpt lat="49.213478" lon="11.834408">
<ele>441.3</ele>
<speed>4.1</speed>
<course>204.6</course>
<desc>Speed 4.1 km/h Distance 27.30 km</desc>
<time>2010-06-13T07:50:22.65</time>
<name>6069</name>
</trkpt>
<trkpt lat="49.213467" lon="11.834400">
<ele>441.3</ele>
<speed>3.6</speed>
<course>206.9</course>
<desc>Speed 3.6 km/h Distance 27.30 km</desc>
<time>2010-06-13T07:50:23.65</time>
<name>6070</name>
</trkpt>
<trkpt lat="49.213452" lon="11.834388">
<ele>441.3</ele>
<speed>2.0</speed>
<course>196.0</course>
<desc>Speed 2.0 km/h Distance 27.31 km</desc>
<time>2010-06-13T07:50:24.65</time>
<name>6071</name>
</trkpt>
<trkpt lat="49.213445" lon="11.834385">
<ele>441.3</ele>
<speed>2.6</speed>
<course>234.4</course>
<desc>Speed 2.6 km/h Distance 27.31 km</desc>
<time>2010-06-13T07:50:25.65</time>
<name>6072</name>
</trkpt>
<trkpt lat="49.213433" lon="11.834360">
<ele>441.3</ele>
<speed>4.9</speed>
<course>234.2</course>
<desc>Speed 4.9 km/h Distance 27.31 km</desc>
<time>2010-06-13T07:50:26.65</time>
<name>6073</name>
</trkpt>
<trkpt lat="49.213420" lon="11.834332">
<ele>441.3</ele>
<speed>7.1</speed>
<course>246.4</course>
<desc>Speed 7.1 km/h Distance 27.31 km</desc>
<time>2010-06-13T07:50:27.65</time>
<name>6074</name>
</trkpt>
<trkpt lat="49.213413" lon="11.834308">
<ele>441.3</ele>
<speed>4.7</speed>
<course>263.3</course>
<desc>Speed 4.7 km/h Distance 27.31 km</desc>
<time>2010-06-13T07:50:28.65</time>
<name>6075</name>
</trkpt>
<trkpt lat="49.213412" lon="11.834287">
<ele>441.3</ele>
<speed>4.7</speed>
<course>318.6</course>
<desc>Speed 4.7 km/h Distance 27.32 km</desc>
<time>2010-06-13T07:50:29.65</time>
<name>6076</name>
</trkpt>
<trkpt lat="49.213417" lon="11.834280">
<ele>441.3</ele>
<speed>2.9</speed>
<course>308.9</course>
<desc>Speed 2.9 km/h Distance 27.32 km</desc>
<time>2010-06-13T07:50:30.65</time>
<name>6077</name>
</trkpt>
<trkpt lat="49.213433" lon="11.834248">
<ele>447.4</ele>
<speed>2.8</speed>
<course>206.0</course>
<desc>Speed 2.8 km/h Distance 27.32 km</desc>
<time>2010-06-13T07:50:32.65</time>
<name>6078</name>
</trkpt>
<trkpt lat="49.213420" lon="11.834238">
<ele>447.4</ele>
<speed>3.6</speed>
<course>221.0</course>
<desc>Speed 3.6 km/h Distance 27.32 km</desc>
<time>2010-06-13T07:50:33.65</time>
<name>6079</name>
</trkpt>
<trkpt lat="49.213405" lon="11.834218">
<ele>447.4</ele>
<speed>4.6</speed>
<course>229.6</course>
<desc>Speed 4.6 km/h Distance 27.32 km</desc>
<time>2010-06-13T07:50:34.65</time>
<name>6080</name>
</trkpt>
<trkpt lat="49.213388" lon="11.834188">
<ele>447.4</ele>
<speed>7.6</speed>
<course>228.5</course>
<desc>Speed 7.6 km/h Distance 27.33 km</desc>
<time>2010-06-13T07:50:35.65</time>
<name>6081</name>
</trkpt>
<trkpt lat="49.213370" lon="11.834157">
<ele>447.4</ele>
<speed>6.8</speed>
<course>223.4</course>
<desc>Speed 6.8 km/h Distance 27.33 km</desc>
<time>2010-06-13T07:50:36.65</time>
<name>6082</name>
</trkpt>
<trkpt lat="49.213355" lon="11.834135">
<ele>447.4</ele>
<speed>5.2</speed>
<course>210.9</course>
<desc>Speed 5.2 km/h Distance 27.33 km</desc>
<time>2010-06-13T07:50:37.65</time>
<name>6083</name>
</trkpt>
<trkpt lat="49.213335" lon="11.834117">
<ele>447.4</ele>
<speed>3.7</speed>
<course>196.9</course>
<desc>Speed 3.7 km/h Distance 27.33 km</desc>
<time>2010-06-13T07:50:38.65</time>
<name>6084</name>
</trkpt>
<trkpt lat="49.213310" lon="11.834105">
<ele>447.4</ele>
<speed>5.0</speed>
<course>204.5</course>
<desc>Speed 5.0 km/h Distance 27.34 km</desc>
<time>2010-06-13T07:50:39.65</time>
<name>6085</name>
</trkpt>
<trkpt lat="49.213293" lon="11.834093">
<ele>447.4</ele>
<speed>4.8</speed>
<course>201.5</course>
<desc>Speed 4.8 km/h Distance 27.34 km</desc>
<time>2010-06-13T07:50:40.65</time>
<name>6086</name>
</trkpt>
<trkpt lat="49.213285" lon="11.834088">
<ele>447.4</ele>
<speed>4.5</speed>
<course>220.1</course>
<desc>Speed 4.5 km/h Distance 27.34 km</desc>
<time>2010-06-13T07:50:41.65</time>
<name>6087</name>
</trkpt>
<trkpt lat="49.213273" lon="11.834073">
<ele>447.4</ele>
<speed>4.0</speed>
<course>215.6</course>
<desc>Speed 4.0 km/h Distance 27.34 km</desc>
<time>2010-06-13T07:50:42.65</time>
<name>6088</name>
</trkpt>
<trkpt lat="49.213257" lon="11.834055">
<ele>447.4</ele>
<speed>3.3</speed>
<course>206.2</course>
<desc>Speed 3.3 km/h Distance 27.34 km</desc>
<time>2010-06-13T07:50:43.65</time>
<name>6089</name>
</trkpt>
<trkpt lat="49.213243" lon="11.834045">
<ele>447.4</ele>
<speed>3.3</speed>
<course>247.0</course>
<desc>Speed 3.3 km/h Distance 27.35 km</desc>
<time>2010-06-13T07:50:44.65</time>
<name>6090</name>
</trkpt>
<trkpt lat="49.213235" lon="11.834015">
<ele>442.1</ele>
<speed>4.4</speed>
<course>242.0</course>
<desc>Speed 4.4 km/h Distance 27.35 km</desc>
<time>2010-06-13T07:50:45.65</time>
<name>6091</name>
</trkpt>
<trkpt lat="49.213222" lon="11.833977">
<ele>441.1</ele>
<speed>6.9</speed>
<course>270.0</course>
<desc>Speed 6.9 km/h Distance 27.35 km</desc>
<time>2010-06-13T07:50:46.65</time>
<name>6092</name>
</trkpt>
<trkpt lat="49.213222" lon="11.833937">
<ele>440.6</ele>
<speed>5.6</speed>
<course>289.2</course>
<desc>Speed 5.6 km/h Distance 27.35 km</desc>
<time>2010-06-13T07:50:47.65</time>
<name>6093</name>
</trkpt>
<trkpt lat="49.213230" lon="11.833900">
<ele>440.7</ele>
<speed>3.4</speed>
<course>306.0</course>
<desc>Speed 3.4 km/h Distance 27.36 km</desc>
<time>2010-06-13T07:50:48.65</time>
<name>6094</name>
</trkpt>
<trkpt lat="49.213245" lon="11.833868">
<ele>440.0</ele>
<speed>2.6</speed>
<course>307.4</course>
<desc>Speed 2.6 km/h Distance 27.36 km</desc>
<time>2010-06-13T07:50:49.65</time>
<name>6095</name>
</trkpt>
<trkpt lat="49.213258" lon="11.833842">
<ele>439.7</ele>
<speed>2.7</speed>
<course>281.3</course>
<desc>Speed 2.7 km/h Distance 27.36 km</desc>
<time>2010-06-13T07:50:50.65</time>
<name>6096</name>
</trkpt>
<trkpt lat="49.213268" lon="11.833765">
<ele>436.7</ele>
<speed>5.3</speed>
<course>276.7</course>
<desc>Speed 5.3 km/h Distance 27.37 km</desc>
<time>2010-06-13T07:50:52.65</time>
<name>6097</name>
</trkpt>
<trkpt lat="49.213272" lon="11.833722">
<ele>436.9</ele>
<speed>5.8</speed>
<course>285.6</course>
<desc>Speed 5.8 km/h Distance 27.37 km</desc>
<time>2010-06-13T07:50:53.65</time>
<name>6098</name>
</trkpt>
<trkpt lat="49.213278" lon="11.833685">
<ele>437.0</ele>
<speed>6.0</speed>
<course>265.8</course>
<desc>Speed 6.0 km/h Distance 27.37 km</desc>
<time>2010-06-13T07:50:54.65</time>
<name>6099</name>
</trkpt>
<trkpt lat="49.213277" lon="11.833650">
<ele>437.0</ele>
<speed>6.1</speed>
<course>289.8</course>
<desc>Speed 6.1 km/h Distance 27.38 km</desc>
<time>2010-06-13T07:50:55.65</time>
<name>6100</name>
</trkpt>
<trkpt lat="49.213283" lon="11.833622">
<ele>438.6</ele>
<speed>5.7</speed>
<course>290.2</course>
<desc>Speed 5.7 km/h Distance 27.38 km</desc>
<time>2010-06-13T07:50:56.65</time>
<name>6101</name>
</trkpt>
<trkpt lat="49.213293" lon="11.833580">
<ele>439.9</ele>
<speed>6.9</speed>
<course>264.0</course>
<desc>Speed 6.9 km/h Distance 27.38 km</desc>
<time>2010-06-13T07:50:57.65</time>
<name>6102</name>
</trkpt>
<trkpt lat="49.213290" lon="11.833532">
<ele>440.3</ele>
<speed>6.7</speed>
<course>282.2</course>
<desc>Speed 6.7 km/h Distance 27.39 km</desc>
<time>2010-06-13T07:50:58.65</time>
<name>6103</name>
</trkpt>
<trkpt lat="49.213307" lon="11.833413">
<ele>442.5</ele>
<speed>8.1</speed>
<course>285.8</course>
<desc>Speed 8.1 km/h Distance 27.39 km</desc>
<time>2010-06-13T07:51:00.65</time>
<name>6104</name>
</trkpt>
<trkpt lat="49.213315" lon="11.833368">
<ele>444.4</ele>
<speed>5.9</speed>
<course>285.6</course>
<desc>Speed 5.9 km/h Distance 27.40 km</desc>
<time>2010-06-13T07:51:01.65</time>
<name>6105</name>
</trkpt>
<trkpt lat="49.213358" lon="11.833130">
<ele>447.7</ele>
<speed>11.7</speed>
<course>263.5</course>
<desc>Speed 11.7 km/h Distance 27.42 km</desc>
<time>2010-06-13T07:51:04.65</time>
<name>6106</name>
</trkpt>
<trkpt lat="49.213347" lon="11.832973">
<ele>446.8</ele>
<speed>9.6</speed>
<course>273.0</course>
<desc>Speed 9.6 km/h Distance 27.43 km</desc>
<time>2010-06-13T07:51:06.65</time>
<name>6107</name>
</trkpt>
<trkpt lat="49.213348" lon="11.832925">
<ele>446.5</ele>
<speed>6.8</speed>
<course>260.1</course>
<desc>Speed 6.8 km/h Distance 27.43 km</desc>
<time>2010-06-13T07:51:07.65</time>
<name>6108</name>
</trkpt>
<trkpt lat="49.213335" lon="11.832808">
<ele>446.1</ele>
<speed>8.1</speed>
<course>223.2</course>
<desc>Speed 8.1 km/h Distance 27.44 km</desc>
<time>2010-06-13T07:51:09.65</time>
<name>6109</name>
</trkpt>
<trkpt lat="49.213282" lon="11.832732">
<ele>444.2</ele>
<speed>7.5</speed>
<course>223.4</course>
<desc>Speed 7.5 km/h Distance 27.45 km</desc>
<time>2010-06-13T07:51:11.65</time>
<name>6110</name>
</trkpt>
<trkpt lat="49.213267" lon="11.832710">
<ele>444.2</ele>
<speed>5.8</speed>
<course>220.1</course>
<desc>Speed 5.8 km/h Distance 27.45 km</desc>
<time>2010-06-13T07:51:12.65</time>
<name>6111</name>
</trkpt>
<trkpt lat="49.213243" lon="11.832680">
<ele>444.2</ele>
<speed>7.3</speed>
<course>213.2</course>
<desc>Speed 7.3 km/h Distance 27.45 km</desc>
<time>2010-06-13T07:51:13.65</time>
<name>6112</name>
</trkpt>
<trkpt lat="49.213217" lon="11.832653">
<ele>444.2</ele>
<speed>7.3</speed>
<course>203.5</course>
<desc>Speed 7.3 km/h Distance 27.46 km</desc>
<time>2010-06-13T07:51:14.65</time>
<name>6113</name>
</trkpt>
<trkpt lat="49.213192" lon="11.832637">
<ele>444.2</ele>
<speed>8.1</speed>
<course>211.3</course>
<desc>Speed 8.1 km/h Distance 27.46 km</desc>
<time>2010-06-13T07:51:15.65</time>
<name>6114</name>
</trkpt>
<trkpt lat="49.213168" lon="11.832615">
<ele>444.2</ele>
<speed>8.2</speed>
<course>224.4</course>
<desc>Speed 8.2 km/h Distance 27.46 km</desc>
<time>2010-06-13T07:51:16.65</time>
<name>6115</name>
</trkpt>
<trkpt lat="49.213152" lon="11.832590">
<ele>444.2</ele>
<speed>8.8</speed>
<course>222.2</course>
<desc>Speed 8.8 km/h Distance 27.47 km</desc>
<time>2010-06-13T07:51:17.65</time>
<name>6116</name>
</trkpt>
<trkpt lat="49.213130" lon="11.832560">
<ele>444.2</ele>
<speed>8.0</speed>
<course>244.4</course>
<desc>Speed 8.0 km/h Distance 27.47 km</desc>
<time>2010-06-13T07:51:18.65</time>
<name>6117</name>
</trkpt>
<trkpt lat="49.213122" lon="11.832533">
<ele>444.2</ele>
<speed>7.4</speed>
<course>273.0</course>
<desc>Speed 7.4 km/h Distance 27.47 km</desc>
<time>2010-06-13T07:51:19.65</time>
<name>6118</name>
</trkpt>
<trkpt lat="49.213123" lon="11.832485">
<ele>445.4</ele>
<speed>6.6</speed>
<course>248.4</course>
<desc>Speed 6.6 km/h Distance 27.47 km</desc>
<time>2010-06-13T07:51:20.65</time>
<name>6119</name>
</trkpt>
<trkpt lat="49.213112" lon="11.832440">
<ele>445.2</ele>
<speed>8.0</speed>
<course>241.3</course>
<desc>Speed 8.0 km/h Distance 27.48 km</desc>
<time>2010-06-13T07:51:21.65</time>
<name>6120</name>
</trkpt>
<trkpt lat="49.213095" lon="11.832393">
<ele>445.0</ele>
<speed>9.8</speed>
<course>253.5</course>
<desc>Speed 9.8 km/h Distance 27.48 km</desc>
<time>2010-06-13T07:51:22.65</time>
<name>6121</name>
</trkpt>
<trkpt lat="49.213085" lon="11.832342">
<ele>444.8</ele>
<speed>11.0</speed>
<course>257.7</course>
<desc>Speed 11.0 km/h Distance 27.49 km</desc>
<time>2010-06-13T07:51:23.65</time>
<name>6122</name>
</trkpt>
<trkpt lat="49.213078" lon="11.832295">
<ele>443.7</ele>
<speed>10.0</speed>
<course>245.6</course>
<desc>Speed 10.0 km/h Distance 27.49 km</desc>
<time>2010-06-13T07:51:24.65</time>
<name>6123</name>
</trkpt>
<trkpt lat="49.213065" lon="11.832250">
<ele>444.0</ele>
<speed>9.2</speed>
<course>238.5</course>
<desc>Speed 9.2 km/h Distance 27.49 km</desc>
<time>2010-06-13T07:51:25.65</time>
<name>6124</name>
</trkpt>
<trkpt lat="49.213052" lon="11.832217">
<ele>444.6</ele>
<speed>7.5</speed>
<course>204.8</course>
<desc>Speed 7.5 km/h Distance 27.50 km</desc>
<time>2010-06-13T07:51:26.65</time>
<name>6125</name>
</trkpt>
<trkpt lat="49.213023" lon="11.832197">
<ele>444.6</ele>
<speed>5.9</speed>
<course>256.2</course>
<desc>Speed 5.9 km/h Distance 27.50 km</desc>
<time>2010-06-13T07:51:27.65</time>
<name>6126</name>
</trkpt>
<trkpt lat="49.213017" lon="11.832155">
<ele>444.8</ele>
<speed>5.3</speed>
<course>246.8</course>
<desc>Speed 5.3 km/h Distance 27.50 km</desc>
<time>2010-06-13T07:51:28.65</time>
<name>6127</name>
</trkpt>
<trkpt lat="49.213005" lon="11.832113">
<ele>445.2</ele>
<speed>6.2</speed>
<course>257.7</course>
<desc>Speed 6.2 km/h Distance 27.51 km</desc>
<time>2010-06-13T07:51:29.65</time>
<name>6128</name>
</trkpt>
<trkpt lat="49.213000" lon="11.832078">
<ele>445.2</ele>
<speed>6.9</speed>
<course>274.6</course>
<desc>Speed 6.9 km/h Distance 27.51 km</desc>
<time>2010-06-13T07:51:30.65</time>
<name>6129</name>
</trkpt>
<trkpt lat="49.213002" lon="11.832047">
<ele>445.2</ele>
<speed>5.0</speed>
<course>226.8</course>
<desc>Speed 5.0 km/h Distance 27.51 km</desc>
<time>2010-06-13T07:51:31.65</time>
<name>6130</name>
</trkpt>
<trkpt lat="49.212858" lon="11.831813">
<ele>445.7</ele>
<speed>5.5</speed>
<course>254.7</course>
<desc>Speed 5.5 km/h Distance 27.53 km</desc>
<time>2010-06-13T07:51:39.65</time>
<name>6131</name>
</trkpt>
<trkpt lat="49.212850" lon="11.831767">
<ele>444.0</ele>
<speed>6.1</speed>
<course>245.0</course>
<desc>Speed 6.1 km/h Distance 27.54 km</desc>
<time>2010-06-13T07:51:40.65</time>
<name>6132</name>
</trkpt>
<trkpt lat="49.212838" lon="11.831728">
<ele>444.0</ele>
<speed>5.6</speed>
<course>235.9</course>
<desc>Speed 5.6 km/h Distance 27.54 km</desc>
<time>2010-06-13T07:51:41.65</time>
<name>6133</name>
</trkpt>
<trkpt lat="49.212800" lon="11.831642">
<ele>441.0</ele>
<speed>6.8</speed>
<course>293.0</course>
<desc>Speed 6.8 km/h Distance 27.55 km</desc>
<time>2010-06-13T07:51:43.65</time>
<name>6134</name>
</trkpt>
<trkpt lat="49.212808" lon="11.831612">
<ele>441.3</ele>
<speed>5.7</speed>
<course>254.2</course>
<desc>Speed 5.7 km/h Distance 27.55 km</desc>
<time>2010-06-13T07:51:44.65</time>
<name>6135</name>
</trkpt>
<trkpt lat="49.212800" lon="11.831567">
<ele>439.8</ele>
<speed>8.2</speed>
<course>262.6</course>
<desc>Speed 8.2 km/h Distance 27.55 km</desc>
<time>2010-06-13T07:51:45.65</time>
<name>6136</name>
</trkpt>
<trkpt lat="49.212790" lon="11.831448">
<ele>438.2</ele>
<speed>9.4</speed>
<course>284.7</course>
<desc>Speed 9.4 km/h Distance 27.56 km</desc>
<time>2010-06-13T07:51:47.65</time>
<name>6137</name>
</trkpt>
<trkpt lat="49.212800" lon="11.831390">
<ele>437.6</ele>
<speed>10.2</speed>
<course>277.1</course>
<desc>Speed 10.2 km/h Distance 27.57 km</desc>
<time>2010-06-13T07:51:48.65</time>
<name>6138</name>
</trkpt>
<trkpt lat="49.212805" lon="11.831328">
<ele>436.0</ele>
<speed>10.7</speed>
<course>296.8</course>
<desc>Speed 10.7 km/h Distance 27.57 km</desc>
<time>2010-06-13T07:51:49.65</time>
<name>6139</name>
</trkpt>
<trkpt lat="49.212858" lon="11.831167">
<ele>437.8</ele>
<speed>11.8</speed>
<course>284.3</course>
<desc>Speed 11.8 km/h Distance 27.58 km</desc>
<time>2010-06-13T07:51:51.65</time>
<name>6140</name>
</trkpt>
<trkpt lat="49.212890" lon="11.830977">
<ele>435.7</ele>
<speed>14.9</speed>
<course>285.8</course>
<desc>Speed 14.9 km/h Distance 27.60 km</desc>
<time>2010-06-13T07:51:53.65</time>
<name>6141</name>
</trkpt>
<trkpt lat="49.212927" lon="11.830778">
<ele>433.9</ele>
<speed>16.8</speed>
<course>279.0</course>
<desc>Speed 16.8 km/h Distance 27.61 km</desc>
<time>2010-06-13T07:51:55.65</time>
<name>6142</name>
</trkpt>
<trkpt lat="49.212948" lon="11.830568">
<ele>430.5</ele>
<speed>16.6</speed>
<course>273.4</course>
<desc>Speed 16.6 km/h Distance 27.63 km</desc>
<time>2010-06-13T07:51:57.65</time>
<name>6143</name>
</trkpt>
<trkpt lat="49.212955" lon="11.830397">
<ele>433.0</ele>
<speed>14.6</speed>
<course>284.0</course>
<desc>Speed 14.6 km/h Distance 27.64 km</desc>
<time>2010-06-13T07:51:59.65</time>
<name>6144</name>
</trkpt>
<trkpt lat="49.213008" lon="11.830068">
<ele>435.0</ele>
<speed>14.2</speed>
<course>288.3</course>
<desc>Speed 14.2 km/h Distance 27.67 km</desc>
<time>2010-06-13T07:52:02.65</time>
<name>6145</name>
</trkpt>
<trkpt lat="49.213050" lon="11.829875">
<ele>438.5</ele>
<speed>14.1</speed>
<course>283.8</course>
<desc>Speed 14.1 km/h Distance 27.68 km</desc>
<time>2010-06-13T07:52:04.65</time>
<name>6146</name>
</trkpt>
<trkpt lat="49.213082" lon="11.829678">
<ele>439.9</ele>
<speed>13.8</speed>
<course>285.5</course>
<desc>Speed 13.8 km/h Distance 27.70 km</desc>
<time>2010-06-13T07:52:06.65</time>
<name>6147</name>
</trkpt>
<trkpt lat="49.213117" lon="11.829485">
<ele>441.3</ele>
<speed>13.3</speed>
<course>287.8</course>
<desc>Speed 13.3 km/h Distance 27.71 km</desc>
<time>2010-06-13T07:52:08.65</time>
<name>6148</name>
</trkpt>
<trkpt lat="49.213180" lon="11.829183">
<ele>445.1</ele>
<speed>14.9</speed>
<course>281.0</course>
<desc>Speed 14.9 km/h Distance 27.73 km</desc>
<time>2010-06-13T07:52:11.65</time>
<name>6149</name>
</trkpt>
<trkpt lat="49.213207" lon="11.828973">
<ele>445.6</ele>
<speed>14.9</speed>
<course>287.4</course>
<desc>Speed 14.9 km/h Distance 27.75 km</desc>
<time>2010-06-13T07:52:13.65</time>
<name>6150</name>
</trkpt>
<trkpt lat="49.213248" lon="11.828770">
<ele>448.4</ele>
<speed>13.1</speed>
<course>296.2</course>
<desc>Speed 13.1 km/h Distance 27.76 km</desc>
<time>2010-06-13T07:52:15.65</time>
<name>6151</name>
</trkpt>
<trkpt lat="49.213577" lon="11.827748">
<ele>460.6</ele>
<speed>12.6</speed>
<course>302.0</course>
<desc>Speed 12.6 km/h Distance 27.85 km</desc>
<time>2010-06-13T07:52:21.65</time>
<name>6152</name>
</trkpt>
<trkpt lat="49.214062" lon="11.826562">
<ele>472.5</ele>
<speed>13.4</speed>
<course>276.5</course>
<desc>Speed 13.4 km/h Distance 27.95 km</desc>
<time>2010-06-13T07:52:26.65</time>
<name>6153</name>
</trkpt>
<trkpt lat="49.214080" lon="11.826315">
<ele>473.8</ele>
<speed>12.1</speed>
<course>234.6</course>
<desc>Speed 12.1 km/h Distance 27.97 km</desc>
<time>2010-06-13T07:52:29.65</time>
<name>6154</name>
</trkpt>
<trkpt lat="49.214058" lon="11.826268">
<ele>471.8</ele>
<speed>11.7</speed>
<course>239.5</course>
<desc>Speed 11.7 km/h Distance 27.97 km</desc>
<time>2010-06-13T07:52:30.65</time>
<name>6155</name>
</trkpt>
<trkpt lat="49.214042" lon="11.826225">
<ele>470.4</ele>
<speed>11.8</speed>
<course>241.3</course>
<desc>Speed 11.8 km/h Distance 27.97 km</desc>
<time>2010-06-13T07:52:31.65</time>
<name>6156</name>
</trkpt>
<trkpt lat="49.214025" lon="11.826178">
<ele>470.2</ele>
<speed>11.4</speed>
<course>239.5</course>
<desc>Speed 11.4 km/h Distance 27.98 km</desc>
<time>2010-06-13T07:52:32.65</time>
<name>6157</name>
</trkpt>
<trkpt lat="49.214008" lon="11.826135">
<ele>470.1</ele>
<speed>11.2</speed>
<course>253.5</course>
<desc>Speed 11.2 km/h Distance 27.98 km</desc>
<time>2010-06-13T07:52:33.65</time>
<name>6158</name>
</trkpt>
<trkpt lat="49.213998" lon="11.826083">
<ele>472.1</ele>
<speed>10.8</speed>
<course>242.2</course>
<desc>Speed 10.8 km/h Distance 27.99 km</desc>
<time>2010-06-13T07:52:34.65</time>
<name>6159</name>
</trkpt>
<trkpt lat="49.213982" lon="11.826035">
<ele>471.8</ele>
<speed>11.9</speed>
<course>249.1</course>
<desc>Speed 11.9 km/h Distance 27.99 km</desc>
<time>2010-06-13T07:52:35.65</time>
<name>6160</name>
</trkpt>
<trkpt lat="49.213970" lon="11.825988">
<ele>472.5</ele>
<speed>11.3</speed>
<course>235.8</course>
<desc>Speed 11.3 km/h Distance 27.99 km</desc>
<time>2010-06-13T07:52:36.65</time>
<name>6161</name>
</trkpt>
<trkpt lat="49.213950" lon="11.825943">
<ele>473.1</ele>
<speed>11.4</speed>
<course>240.9</course>
<desc>Speed 11.4 km/h Distance 28.00 km</desc>
<time>2010-06-13T07:52:37.65</time>
<name>6162</name>
</trkpt>
<trkpt lat="49.213937" lon="11.825907">
<ele>473.3</ele>
<speed>10.4</speed>
<course>240.9</course>
<desc>Speed 10.4 km/h Distance 28.00 km</desc>
<time>2010-06-13T07:52:38.65</time>
<name>6163</name>
</trkpt>
<trkpt lat="49.213923" lon="11.825870">
<ele>473.3</ele>
<speed>11.5</speed>
<course>243.7</course>
<desc>Speed 11.5 km/h Distance 28.00 km</desc>
<time>2010-06-13T07:52:39.65</time>
<name>6164</name>
</trkpt>
<trkpt lat="49.213907" lon="11.825818">
<ele>474.3</ele>
<speed>11.9</speed>
<course>253.5</course>
<desc>Speed 11.9 km/h Distance 28.01 km</desc>
<time>2010-06-13T07:52:40.65</time>
<name>6165</name>
</trkpt>
<trkpt lat="49.213897" lon="11.825767">
<ele>474.5</ele>
<speed>12.4</speed>
<course>243.0</course>
<desc>Speed 12.4 km/h Distance 28.01 km</desc>
<time>2010-06-13T07:52:41.65</time>
<name>6166</name>
</trkpt>
<trkpt lat="49.213882" lon="11.825722">
<ele>474.1</ele>
<speed>11.3</speed>
<course>232.6</course>
<desc>Speed 11.3 km/h Distance 28.02 km</desc>
<time>2010-06-13T07:52:42.65</time>
<name>6167</name>
</trkpt>
<trkpt lat="49.213860" lon="11.825678">
<ele>473.8</ele>
<speed>11.3</speed>
<course>236.0</course>
<desc>Speed 11.3 km/h Distance 28.02 km</desc>
<time>2010-06-13T07:52:43.65</time>
<name>6168</name>
</trkpt>
<trkpt lat="49.213842" lon="11.825637">
<ele>474.1</ele>
<speed>10.7</speed>
<course>234.2</course>
<desc>Speed 10.7 km/h Distance 28.02 km</desc>
<time>2010-06-13T07:52:44.65</time>
<name>6169</name>
</trkpt>
<trkpt lat="49.213828" lon="11.825608">
<ele>475.2</ele>
<speed>9.8</speed>
<course>242.1</course>
<desc>Speed 9.8 km/h Distance 28.03 km</desc>
<time>2010-06-13T07:52:45.65</time>
<name>6170</name>
</trkpt>
<trkpt lat="49.213813" lon="11.825565">
<ele>475.6</ele>
<speed>11.6</speed>
<course>227.5</course>
<desc>Speed 11.6 km/h Distance 28.03 km</desc>
<time>2010-06-13T07:52:46.65</time>
<name>6171</name>
</trkpt>
<trkpt lat="49.213793" lon="11.825532">
<ele>476.6</ele>
<speed>12.7</speed>
<course>234.5</course>
<desc>Speed 12.7 km/h Distance 28.03 km</desc>
<time>2010-06-13T07:52:47.65</time>
<name>6172</name>
</trkpt>
<trkpt lat="49.213770" lon="11.825482">
<ele>476.9</ele>
<speed>13.2</speed>
<course>235.4</course>
<desc>Speed 13.2 km/h Distance 28.04 km</desc>
<time>2010-06-13T07:52:48.65</time>
<name>6173</name>
</trkpt>
<trkpt lat="49.213755" lon="11.825448">
<ele>475.9</ele>
<speed>13.0</speed>
<course>218.6</course>
<desc>Speed 13.0 km/h Distance 28.04 km</desc>
<time>2010-06-13T07:52:49.65</time>
<name>6174</name>
</trkpt>
<trkpt lat="49.213740" lon="11.825430">
<ele>474.7</ele>
<speed>11.6</speed>
<course>225.8</course>
<desc>Speed 11.6 km/h Distance 28.04 km</desc>
<time>2010-06-13T07:52:50.65</time>
<name>6175</name>
</trkpt>
<trkpt lat="49.213728" lon="11.825412">
<ele>473.1</ele>
<speed>12.6</speed>
<course>232.6</course>
<desc>Speed 12.6 km/h Distance 28.04 km</desc>
<time>2010-06-13T07:52:51.65</time>
<name>6176</name>
</trkpt>
<trkpt lat="49.213708" lon="11.825372">
<ele>472.2</ele>
<speed>13.1</speed>
<course>230.5</course>
<desc>Speed 13.1 km/h Distance 28.05 km</desc>
<time>2010-06-13T07:52:52.65</time>
<name>6177</name>
</trkpt>
<trkpt lat="49.213685" lon="11.825328">
<ele>471.3</ele>
<speed>13.8</speed>
<course>241.6</course>
<desc>Speed 13.8 km/h Distance 28.05 km</desc>
<time>2010-06-13T07:52:53.65</time>
<name>6178</name>
</trkpt>
<trkpt lat="49.213665" lon="11.825272">
<ele>472.2</ele>
<speed>12.8</speed>
<course>218.4</course>
<desc>Speed 12.8 km/h Distance 28.06 km</desc>
<time>2010-06-13T07:52:54.65</time>
<name>6179</name>
</trkpt>
<trkpt lat="49.213642" lon="11.825243">
<ele>471.0</ele>
<speed>12.5</speed>
<course>230.6</course>
<desc>Speed 12.5 km/h Distance 28.06 km</desc>
<time>2010-06-13T07:52:55.65</time>
<name>6180</name>
</trkpt>
<trkpt lat="49.213617" lon="11.825197">
<ele>471.0</ele>
<speed>11.4</speed>
<course>213.2</course>
<desc>Speed 11.4 km/h Distance 28.06 km</desc>
<time>2010-06-13T07:52:56.65</time>
<name>6181</name>
</trkpt>
<trkpt lat="49.213595" lon="11.825175">
<ele>471.3</ele>
<speed>9.8</speed>
<course>220.5</course>
<desc>Speed 9.8 km/h Distance 28.07 km</desc>
<time>2010-06-13T07:52:57.65</time>
<name>6182</name>
</trkpt>
<trkpt lat="49.213573" lon="11.825147">
<ele>471.9</ele>
<speed>8.5</speed>
<course>226.3</course>
<desc>Speed 8.5 km/h Distance 28.07 km</desc>
<time>2010-06-13T07:52:58.65</time>
<name>6183</name>
</trkpt>
<trkpt lat="49.213557" lon="11.825120">
<ele>472.3</ele>
<speed>7.6</speed>
<course>213.2</course>
<desc>Speed 7.6 km/h Distance 28.07 km</desc>
<time>2010-06-13T07:52:59.65</time>
<name>6184</name>
</trkpt>
<trkpt lat="49.213538" lon="11.825102">
<ele>472.7</ele>
<speed>7.8</speed>
<course>207.7</course>
<desc>Speed 7.8 km/h Distance 28.08 km</desc>
<time>2010-06-13T07:53:00.65</time>
<name>6185</name>
</trkpt>
<trkpt lat="49.213522" lon="11.825088">
<ele>472.8</ele>
<speed>7.4</speed>
<course>251.2</course>
<desc>Speed 7.4 km/h Distance 28.08 km</desc>
<time>2010-06-13T07:53:01.65</time>
<name>6186</name>
</trkpt>
<trkpt lat="49.213518" lon="11.825073">
<ele>473.3</ele>
<speed>5.1</speed>
<course>232.4</course>
<desc>Speed 5.1 km/h Distance 28.08 km</desc>
<time>2010-06-13T07:53:02.65</time>
<name>6187</name>
</trkpt>
<trkpt lat="49.213515" lon="11.825067">
<ele>471.7</ele>
<speed>5.4</speed>
<course>196.7</course>
<desc>Speed 5.4 km/h Distance 28.08 km</desc>
<time>2010-06-13T07:53:03.65</time>
<name>6188</name>
</trkpt>
<trkpt lat="49.213493" lon="11.825057">
<ele>470.2</ele>
<speed>6.5</speed>
<course>240.6</course>
<desc>Speed 6.5 km/h Distance 28.08 km</desc>
<time>2010-06-13T07:53:04.65</time>
<name>6189</name>
</trkpt>
<trkpt lat="49.213482" lon="11.825025">
<ele>468.3</ele>
<speed>9.0</speed>
<course>241.6</course>
<desc>Speed 9.0 km/h Distance 28.08 km</desc>
<time>2010-06-13T07:53:05.65</time>
<name>6190</name>
</trkpt>
<trkpt lat="49.213472" lon="11.824997">
<ele>468.0</ele>
<speed>8.9</speed>
<course>250.8</course>
<desc>Speed 8.9 km/h Distance 28.09 km</desc>
<time>2010-06-13T07:53:06.65</time>
<name>6191</name>
</trkpt>
<trkpt lat="49.213463" lon="11.824960">
<ele>469.3</ele>
<speed>8.6</speed>
<course>244.4</course>
<desc>Speed 8.6 km/h Distance 28.09 km</desc>
<time>2010-06-13T07:53:07.65</time>
<name>6192</name>
</trkpt>
<trkpt lat="49.213455" lon="11.824933">
<ele>469.3</ele>
<speed>8.0</speed>
<course>226.3</course>
<desc>Speed 8.0 km/h Distance 28.09 km</desc>
<time>2010-06-13T07:53:08.65</time>
<name>6193</name>
</trkpt>
<trkpt lat="49.213438" lon="11.824907">
<ele>469.3</ele>
<speed>8.3</speed>
<course>218.6</course>
<desc>Speed 8.3 km/h Distance 28.09 km</desc>
<time>2010-06-13T07:53:09.65</time>
<name>6194</name>
</trkpt>
<trkpt lat="49.213423" lon="11.824888">
<ele>466.5</ele>
<speed>8.7</speed>
<course>158.5</course>
<desc>Speed 8.7 km/h Distance 28.10 km</desc>
<time>2010-06-13T07:53:10.65</time>
<name>6195</name>
</trkpt>
<trkpt lat="49.213415" lon="11.824893">
<ele>465.0</ele>
<speed>6.9</speed>
<course>234.2</course>
<desc>Speed 6.9 km/h Distance 28.10 km</desc>
<time>2010-06-13T07:53:11.65</time>
<name>6196</name>
</trkpt>
<trkpt lat="49.213402" lon="11.824865">
<ele>465.0</ele>
<speed>8.3</speed>
<course>239.5</course>
<desc>Speed 8.3 km/h Distance 28.10 km</desc>
<time>2010-06-13T07:53:12.65</time>
<name>6197</name>
</trkpt>
<trkpt lat="49.213385" lon="11.824822">
<ele>465.0</ele>
<speed>10.0</speed>
<course>223.9</course>
<desc>Speed 10.0 km/h Distance 28.10 km</desc>
<time>2010-06-13T07:53:13.65</time>
<name>6198</name>
</trkpt>
<trkpt lat="49.213328" lon="11.824738">
<ele>458.7</ele>
<speed>11.1</speed>
<course>230.6</course>
<desc>Speed 11.1 km/h Distance 28.11 km</desc>
<time>2010-06-13T07:53:15.65</time>
<name>6199</name>
</trkpt>
<trkpt lat="49.213303" lon="11.824692">
<ele>458.0</ele>
<speed>11.4</speed>
<course>221.4</course>
<desc>Speed 11.4 km/h Distance 28.12 km</desc>
<time>2010-06-13T07:53:16.65</time>
<name>6200</name>
</trkpt>
<trkpt lat="49.213270" lon="11.824647">
<ele>456.9</ele>
<speed>11.7</speed>
<course>225.7</course>
<desc>Speed 11.7 km/h Distance 28.12 km</desc>
<time>2010-06-13T07:53:17.65</time>
<name>6201</name>
</trkpt>
<trkpt lat="49.213247" lon="11.824610">
<ele>456.2</ele>
<speed>12.2</speed>
<course>224.4</course>
<desc>Speed 12.2 km/h Distance 28.13 km</desc>
<time>2010-06-13T07:53:18.65</time>
<name>6202</name>
</trkpt>
<trkpt lat="49.213213" lon="11.824560">
<ele>456.0</ele>
<speed>12.1</speed>
<course>236.7</course>
<desc>Speed 12.1 km/h Distance 28.13 km</desc>
<time>2010-06-13T07:53:19.65</time>
<name>6203</name>
</trkpt>
<trkpt lat="49.213188" lon="11.824502">
<ele>457.9</ele>
<speed>10.8</speed>
<course>238.5</course>
<desc>Speed 10.8 km/h Distance 28.14 km</desc>
<time>2010-06-13T07:53:20.65</time>
<name>6204</name>
</trkpt>
<trkpt lat="49.213165" lon="11.824443">
<ele>459.2</ele>
<speed>11.0</speed>
<course>222.8</course>
<desc>Speed 11.0 km/h Distance 28.14 km</desc>
<time>2010-06-13T07:53:21.65</time>
<name>6205</name>
</trkpt>
<trkpt lat="49.213145" lon="11.824415">
<ele>459.8</ele>
<speed>10.5</speed>
<course>215.1</course>
<desc>Speed 10.5 km/h Distance 28.14 km</desc>
<time>2010-06-13T07:53:22.65</time>
<name>6206</name>
</trkpt>
<trkpt lat="49.213123" lon="11.824392">
<ele>458.9</ele>
<speed>10.3</speed>
<course>206.5</course>
<desc>Speed 10.3 km/h Distance 28.15 km</desc>
<time>2010-06-13T07:53:23.65</time>
<name>6207</name>
</trkpt>
<trkpt lat="49.213095" lon="11.824370">
<ele>458.9</ele>
<speed>9.4</speed>
<course>206.1</course>
<desc>Speed 9.4 km/h Distance 28.15 km</desc>
<time>2010-06-13T07:53:24.65</time>
<name>6208</name>
</trkpt>
<trkpt lat="49.213075" lon="11.824355">
<ele>458.9</ele>
<speed>7.4</speed>
<course>213.7</course>
<desc>Speed 7.4 km/h Distance 28.15 km</desc>
<time>2010-06-13T07:53:25.65</time>
<name>6209</name>
</trkpt>
<trkpt lat="49.213072" lon="11.824352">
<ele>458.9</ele>
<speed>2.9</speed>
<course>150.8</course>
<desc>Speed 2.9 km/h Distance 28.15 km</desc>
<time>2010-06-13T07:53:26.65</time>
<name>6210</name>
</trkpt>
<trkpt lat="49.213070" lon="11.824353">
<ele>458.9</ele>
<speed>0.5</speed>
<course>14.9</course>
<desc>Speed 0.5 km/h Distance 28.15 km</desc>
<time>2010-06-13T07:53:27.65</time>
<name>6211</name>
</trkpt>
<trkpt lat="49.213082" lon="11.824358">
<ele>459.3</ele>
<speed>2.8</speed>
<course>313.6</course>
<desc>Speed 2.8 km/h Distance 28.15 km</desc>
<time>2010-06-13T07:53:28.65</time>
<name>6212</name>
</trkpt>
<trkpt lat="49.213090" lon="11.824345">
<ele>461.9</ele>
<speed>1.4</speed>
<course>270.0</course>
<desc>Speed 1.4 km/h Distance 28.16 km</desc>
<time>2010-06-13T07:53:29.65</time>
<name>6213</name>
</trkpt>
<trkpt lat="49.213090" lon="11.824338">
<ele>462.9</ele>
<speed>0.8</speed>
<course>243.0</course>
<desc>Speed 0.8 km/h Distance 28.16 km</desc>
<time>2010-06-13T07:53:30.65</time>
<name>6214</name>
</trkpt>
<trkpt lat="49.213068" lon="11.824273">
<ele>467.3</ele>
<speed>3.9</speed>
<course>353.0</course>
<desc>Speed 3.9 km/h Distance 28.16 km</desc>
<time>2010-06-13T07:53:32.65</time>
<name>6215</name>
</trkpt>
<trkpt lat="49.213087" lon="11.824270">
<ele>470.3</ele>
<speed>3.3</speed>
<course>243.0</course>
<desc>Speed 3.3 km/h Distance 28.16 km</desc>
<time>2010-06-13T07:53:33.65</time>
<name>6216</name>
</trkpt>
<trkpt lat="49.213082" lon="11.824255">
<ele>472.3</ele>
<speed>4.4</speed>
<course>270.0</course>
<desc>Speed 4.4 km/h Distance 28.17 km</desc>
<time>2010-06-13T07:53:34.65</time>
<name>6217</name>
</trkpt>
<trkpt lat="49.213082" lon="11.824238">
<ele>474.5</ele>
<speed>3.1</speed>
<course>178.1</course>
<desc>Speed 3.1 km/h Distance 28.17 km</desc>
<time>2010-06-13T07:53:35.65</time>
<name>6218</name>
</trkpt>
<trkpt lat="49.213067" lon="11.824238">
<ele>474.0</ele>
<speed>4.1</speed>
<course>175.4</course>
<desc>Speed 4.1 km/h Distance 28.17 km</desc>
<time>2010-06-13T07:53:36.65</time>
<name>6219</name>
</trkpt>
<trkpt lat="49.213040" lon="11.824242">
<ele>474.3</ele>
<speed>6.4</speed>
<course>227.5</course>
<desc>Speed 6.4 km/h Distance 28.17 km</desc>
<time>2010-06-13T07:53:37.65</time>
<name>6220</name>
</trkpt>
<trkpt lat="49.213020" lon="11.824208">
<ele>476.4</ele>
<speed>4.8</speed>
<course>175.5</course>
<desc>Speed 4.8 km/h Distance 28.17 km</desc>
<time>2010-06-13T07:53:38.65</time>
<name>6221</name>
</trkpt>
<trkpt lat="49.213002" lon="11.824210">
<ele>476.7</ele>
<speed>3.3</speed>
<course>183.2</course>
<desc>Speed 3.3 km/h Distance 28.18 km</desc>
<time>2010-06-13T07:53:39.65</time>
<name>6222</name>
</trkpt>
<trkpt lat="49.212980" lon="11.824208">
<ele>476.4</ele>
<speed>2.6</speed>
<course>265.8</course>
<desc>Speed 2.6 km/h Distance 28.18 km</desc>
<time>2010-06-13T07:53:41.65</time>
<name>6223</name>
</trkpt>
<trkpt lat="49.212978" lon="11.824173">
<ele>479.1</ele>
<speed>3.1</speed>
<course>239.5</course>
<desc>Speed 3.1 km/h Distance 28.18 km</desc>
<time>2010-06-13T07:53:42.65</time>
<name>6224</name>
</trkpt>
<trkpt lat="49.212970" lon="11.824152">
<ele>483.2</ele>
<speed>3.7</speed>
<course>249.1</course>
<desc>Speed 3.7 km/h Distance 28.18 km</desc>
<time>2010-06-13T07:53:43.65</time>
<name>6225</name>
</trkpt>
<trkpt lat="49.212963" lon="11.824125">
<ele>484.9</ele>
<speed>2.8</speed>
<course>235.1</course>
<desc>Speed 2.8 km/h Distance 28.19 km</desc>
<time>2010-06-13T07:53:44.65</time>
<name>6226</name>
</trkpt>
<trkpt lat="49.212955" lon="11.824107">
<ele>485.9</ele>
<speed>2.5</speed>
<course>207.0</course>
<desc>Speed 2.5 km/h Distance 28.19 km</desc>
<time>2010-06-13T07:53:45.65</time>
<name>6227</name>
</trkpt>
<trkpt lat="49.212947" lon="11.824100">
<ele>488.8</ele>
<speed>2.1</speed>
<course>188.8</course>
<desc>Speed 2.1 km/h Distance 28.19 km</desc>
<time>2010-06-13T07:53:46.65</time>
<name>6228</name>
</trkpt>
<trkpt lat="49.212932" lon="11.824097">
<ele>487.4</ele>
<speed>2.1</speed>
<course>194.9</course>
<desc>Speed 2.1 km/h Distance 28.19 km</desc>
<time>2010-06-13T07:53:47.65</time>
<name>6229</name>
</trkpt>
<trkpt lat="49.212923" lon="11.824093">
<ele>486.1</ele>
<speed>2.4</speed>
<course>270.0</course>
<desc>Speed 2.4 km/h Distance 28.19 km</desc>
<time>2010-06-13T07:53:48.65</time>
<name>6230</name>
</trkpt>
<trkpt lat="49.212923" lon="11.824070">
<ele>489.0</ele>
<speed>2.9</speed>
<course>270.0</course>
<desc>Speed 2.9 km/h Distance 28.19 km</desc>
<time>2010-06-13T07:53:49.65</time>
<name>6231</name>
</trkpt>
<trkpt lat="49.212923" lon="11.824047">
<ele>492.9</ele>
<speed>1.8</speed>
<course>270.0</course>
<desc>Speed 1.8 km/h Distance 28.19 km</desc>
<time>2010-06-13T07:53:50.65</time>
<name>6232</name>
</trkpt>
<trkpt lat="49.212923" lon="11.824033">
<ele>492.2</ele>
<speed>1.2</speed>
<course>170.7</course>
<desc>Speed 1.2 km/h Distance 28.19 km</desc>
<time>2010-06-13T07:53:51.65</time>
<name>6233</name>
</trkpt>
<trkpt lat="49.212883" lon="11.824043">
<ele>489.7</ele>
<speed>3.2</speed>
<course>227.4</course>
<desc>Speed 3.2 km/h Distance 28.20 km</desc>
<time>2010-06-13T07:53:53.65</time>
<name>6234</name>
</trkpt>
<trkpt lat="49.212873" lon="11.824027">
<ele>489.7</ele>
<speed>4.1</speed>
<course>270.0</course>
<desc>Speed 4.1 km/h Distance 28.20 km</desc>
<time>2010-06-13T07:53:54.65</time>
<name>6235</name>
</trkpt>
<trkpt lat="49.212873" lon="11.824010">
<ele>493.0</ele>
<speed>2.8</speed>
<course>321.6</course>
<desc>Speed 2.8 km/h Distance 28.20 km</desc>
<time>2010-06-13T07:53:55.65</time>
<name>6236</name>
</trkpt>
<trkpt lat="49.212897" lon="11.823982">
<ele>494.9</ele>
<speed>2.7</speed>
<course>280.8</course>
<desc>Speed 2.7 km/h Distance 28.21 km</desc>
<time>2010-06-13T07:53:57.65</time>
<name>6237</name>
</trkpt>
<trkpt lat="49.212898" lon="11.823968">
<ele>495.4</ele>
<speed>0.6</speed>
<course>218.1</course>
<desc>Speed 0.6 km/h Distance 28.21 km</desc>
<time>2010-06-13T07:53:58.65</time>
<name>6238</name>
</trkpt>
<trkpt lat="49.212890" lon="11.823958">
<ele>498.3</ele>
<speed>2.5</speed>
<course>171.6</course>
<desc>Speed 2.5 km/h Distance 28.21 km</desc>
<time>2010-06-13T07:53:59.65</time>
<name>6239</name>
</trkpt>
<trkpt lat="49.212868" lon="11.823963">
<ele>497.5</ele>
<speed>2.4</speed>
<course>217.2</course>
<desc>Speed 2.4 km/h Distance 28.21 km</desc>
<time>2010-06-13T07:54:00.65</time>
<name>6240</name>
</trkpt>
<trkpt lat="49.212858" lon="11.823952">
<ele>498.2</ele>
<speed>1.4</speed>
<course>204.8</course>
<desc>Speed 1.4 km/h Distance 28.21 km</desc>
<time>2010-06-13T07:54:01.65</time>
<name>6241</name>
</trkpt>
<trkpt lat="49.212818" lon="11.823923">
<ele>498.6</ele>
<speed>3.9</speed>
<course>208.9</course>
<desc>Speed 3.9 km/h Distance 28.22 km</desc>
<time>2010-06-13T07:54:03.65</time>
<name>6242</name>
</trkpt>
<trkpt lat="49.212797" lon="11.823905">
<ele>496.5</ele>
<speed>6.2</speed>
<course>231.9</course>
<desc>Speed 6.2 km/h Distance 28.22 km</desc>
<time>2010-06-13T07:54:04.65</time>
<name>6243</name>
</trkpt>
<trkpt lat="49.212762" lon="11.823837">
<ele>495.0</ele>
<speed>7.2</speed>
<course>221.7</course>
<desc>Speed 7.2 km/h Distance 28.23 km</desc>
<time>2010-06-13T07:54:06.65</time>
<name>6244</name>
</trkpt>
<trkpt lat="49.212743" lon="11.823812">
<ele>493.7</ele>
<speed>6.9</speed>
<course>250.0</course>
<desc>Speed 6.9 km/h Distance 28.23 km</desc>
<time>2010-06-13T07:54:07.65</time>
<name>6245</name>
</trkpt>
<trkpt lat="49.212735" lon="11.823777">
<ele>493.3</ele>
<speed>9.0</speed>
<course>228.8</course>
<desc>Speed 9.0 km/h Distance 28.23 km</desc>
<time>2010-06-13T07:54:08.65</time>
<name>6246</name>
</trkpt>
<trkpt lat="49.212722" lon="11.823753">
<ele>493.3</ele>
<speed>7.7</speed>
<course>224.4</course>
<desc>Speed 7.7 km/h Distance 28.23 km</desc>
<time>2010-06-13T07:54:09.65</time>
<name>6247</name>
</trkpt>
<trkpt lat="49.212708" lon="11.823733">
<ele>493.3</ele>
<speed>6.8</speed>
<course>230.1</course>
<desc>Speed 6.8 km/h Distance 28.24 km</desc>
<time>2010-06-13T07:54:10.65</time>
<name>6248</name>
</trkpt>
<trkpt lat="49.212698" lon="11.823715">
<ele>493.6</ele>
<speed>6.7</speed>
<course>201.5</course>
<desc>Speed 6.7 km/h Distance 28.24 km</desc>
<time>2010-06-13T07:54:11.65</time>
<name>6249</name>
</trkpt>
<trkpt lat="49.212673" lon="11.823700">
<ele>491.2</ele>
<speed>6.6</speed>
<course>188.5</course>
<desc>Speed 6.6 km/h Distance 28.24 km</desc>
<time>2010-06-13T07:54:12.65</time>
<name>6250</name>
</trkpt>
<trkpt lat="49.212645" lon="11.823693">
<ele>490.3</ele>
<speed>7.0</speed>
<course>184.7</course>
<desc>Speed 7.0 km/h Distance 28.24 km</desc>
<time>2010-06-13T07:54:13.65</time>
<name>6251</name>
</trkpt>
<trkpt lat="49.212622" lon="11.823690">
<ele>489.9</ele>
<speed>6.0</speed>
<course>202.1</course>
<desc>Speed 6.0 km/h Distance 28.25 km</desc>
<time>2010-06-13T07:54:14.65</time>
<name>6252</name>
</trkpt>
<trkpt lat="49.212608" lon="11.823682">
<ele>488.6</ele>
<speed>4.2</speed>
<course>222.3</course>
<desc>Speed 4.2 km/h Distance 28.25 km</desc>
<time>2010-06-13T07:54:15.65</time>
<name>6253</name>
</trkpt>
<trkpt lat="49.212600" lon="11.823670">
<ele>488.3</ele>
<speed>5.3</speed>
<course>292.6</course>
<desc>Speed 5.3 km/h Distance 28.25 km</desc>
<time>2010-06-13T07:54:16.65</time>
<name>6254</name>
</trkpt>
<trkpt lat="49.212605" lon="11.823652">
<ele>488.3</ele>
<speed>4.6</speed>
<course>323.2</course>
<desc>Speed 4.6 km/h Distance 28.25 km</desc>
<time>2010-06-13T07:54:17.65</time>
<name>6255</name>
</trkpt>
<trkpt lat="49.212617" lon="11.823638">
<ele>488.5</ele>
<speed>2.7</speed>
<course>302.5</course>
<desc>Speed 2.7 km/h Distance 28.25 km</desc>
<time>2010-06-13T07:54:18.65</time>
<name>6256</name>
</trkpt>
<trkpt lat="49.212625" lon="11.823618">
<ele>487.7</ele>
<speed>3.2</speed>
<course>241.3</course>
<desc>Speed 3.2 km/h Distance 28.25 km</desc>
<time>2010-06-13T07:54:19.65</time>
<name>6257</name>
</trkpt>
<trkpt lat="49.212617" lon="11.823595">
<ele>486.5</ele>
<speed>4.8</speed>
<course>229.0</course>
<desc>Speed 4.8 km/h Distance 28.26 km</desc>
<time>2010-06-13T07:54:20.65</time>
<name>6258</name>
</trkpt>
<trkpt lat="49.212568" lon="11.823510">
<ele>484.6</ele>
<speed>10.0</speed>
<course>225.1</course>
<desc>Speed 10.0 km/h Distance 28.26 km</desc>
<time>2010-06-13T07:54:22.65</time>
<name>6259</name>
</trkpt>
<trkpt lat="49.212547" lon="11.823477">
<ele>484.9</ele>
<speed>9.3</speed>
<course>231.4</course>
<desc>Speed 9.3 km/h Distance 28.27 km</desc>
<time>2010-06-13T07:54:23.65</time>
<name>6260</name>
</trkpt>
<trkpt lat="49.212527" lon="11.823438">
<ele>483.3</ele>
<speed>7.8</speed>
<course>228.8</course>
<desc>Speed 7.8 km/h Distance 28.27 km</desc>
<time>2010-06-13T07:54:24.65</time>
<name>6261</name>
</trkpt>
<trkpt lat="49.212507" lon="11.823403">
<ele>482.1</ele>
<speed>7.6</speed>
<course>270.0</course>
<desc>Speed 7.6 km/h Distance 28.27 km</desc>
<time>2010-06-13T07:54:25.65</time>
<name>6262</name>
</trkpt>
<trkpt lat="49.212507" lon="11.823358">
<ele>482.9</ele>
<speed>8.3</speed>
<course>232.6</course>
<desc>Speed 8.3 km/h Distance 28.28 km</desc>
<time>2010-06-13T07:54:26.65</time>
<name>6263</name>
</trkpt>
<trkpt lat="49.212485" lon="11.823315">
<ele>481.8</ele>
<speed>9.7</speed>
<course>229.4</course>
<desc>Speed 9.7 km/h Distance 28.28 km</desc>
<time>2010-06-13T07:54:27.65</time>
<name>6264</name>
</trkpt>
<trkpt lat="49.212462" lon="11.823273">
<ele>482.7</ele>
<speed>9.1</speed>
<course>227.8</course>
<desc>Speed 9.1 km/h Distance 28.29 km</desc>
<time>2010-06-13T07:54:28.65</time>
<name>6265</name>
</trkpt>
<trkpt lat="49.212440" lon="11.823237">
<ele>481.9</ele>
<speed>8.5</speed>
<course>209.7</course>
<desc>Speed 8.5 km/h Distance 28.29 km</desc>
<time>2010-06-13T07:54:29.65</time>
<name>6266</name>
</trkpt>
<trkpt lat="49.212413" lon="11.823213">
<ele>481.2</ele>
<speed>8.6</speed>
<course>201.4</course>
<desc>Speed 8.6 km/h Distance 28.29 km</desc>
<time>2010-06-13T07:54:30.65</time>
<name>6267</name>
</trkpt>
<trkpt lat="49.212388" lon="11.823198">
<ele>480.5</ele>
<speed>5.9</speed>
<course>251.9</course>
<desc>Speed 5.9 km/h Distance 28.30 km</desc>
<time>2010-06-13T07:54:31.65</time>
<name>6268</name>
</trkpt>
<trkpt lat="49.212383" lon="11.823175">
<ele>480.0</ele>
<speed>5.6</speed>
<course>299.1</course>
<desc>Speed 5.6 km/h Distance 28.30 km</desc>
<time>2010-06-13T07:54:32.65</time>
<name>6269</name>
</trkpt>
<trkpt lat="49.212397" lon="11.823138">
<ele>479.9</ele>
<speed>5.1</speed>
<course>255.7</course>
<desc>Speed 5.1 km/h Distance 28.30 km</desc>
<time>2010-06-13T07:54:33.65</time>
<name>6270</name>
</trkpt>
<trkpt lat="49.212392" lon="11.823108">
<ele>478.5</ele>
<speed>6.0</speed>
<course>264.5</course>
<desc>Speed 6.0 km/h Distance 28.30 km</desc>
<time>2010-06-13T07:54:34.65</time>
<name>6271</name>
</trkpt>
<trkpt lat="49.212390" lon="11.823082">
<ele>478.7</ele>
<speed>4.8</speed>
<course>238.5</course>
<desc>Speed 4.8 km/h Distance 28.30 km</desc>
<time>2010-06-13T07:54:35.65</time>
<name>6272</name>
</trkpt>
<trkpt lat="49.212383" lon="11.823065">
<ele>478.1</ele>
<speed>3.0</speed>
<course>288.7</course>
<desc>Speed 3.0 km/h Distance 28.31 km</desc>
<time>2010-06-13T07:54:36.65</time>
<name>6273</name>
</trkpt>
<trkpt lat="49.212387" lon="11.823050">
<ele>479.2</ele>
<speed>2.4</speed>
<course>309.9</course>
<desc>Speed 2.4 km/h Distance 28.31 km</desc>
<time>2010-06-13T07:54:37.65</time>
<name>6274</name>
</trkpt>
<trkpt lat="49.212397" lon="11.823032">
<ele>480.0</ele>
<speed>2.1</speed>
<course>310.5</course>
<desc>Speed 2.1 km/h Distance 28.31 km</desc>
<time>2010-06-13T07:54:38.65</time>
<name>6275</name>
</trkpt>
<trkpt lat="49.212405" lon="11.823017">
<ele>479.2</ele>
<speed>3.5</speed>
<course>278.7</course>
<desc>Speed 3.5 km/h Distance 28.31 km</desc>
<time>2010-06-13T07:54:39.65</time>
<name>6276</name>
</trkpt>
<trkpt lat="49.212407" lon="11.823000">
<ele>479.2</ele>
<speed>3.6</speed>
<course>210.1</course>
<desc>Speed 3.6 km/h Distance 28.31 km</desc>
<time>2010-06-13T07:54:40.65</time>
<name>6277</name>
</trkpt>
<trkpt lat="49.212392" lon="11.822987">
<ele>479.2</ele>
<speed>5.3</speed>
<course>226.7</course>
<desc>Speed 5.3 km/h Distance 28.31 km</desc>
<time>2010-06-13T07:54:41.65</time>
<name>6278</name>
</trkpt>
<trkpt lat="49.212378" lon="11.822965">
<ele>478.8</ele>
<speed>6.2</speed>
<course>213.1</course>
<desc>Speed 6.2 km/h Distance 28.32 km</desc>
<time>2010-06-13T07:54:42.65</time>
<name>6279</name>
</trkpt>
<trkpt lat="49.212363" lon="11.822950">
<ele>478.8</ele>
<speed>5.5</speed>
<course>228.8</course>
<desc>Speed 5.5 km/h Distance 28.32 km</desc>
<time>2010-06-13T07:54:43.65</time>
<name>6280</name>
</trkpt>
<trkpt lat="49.212350" lon="11.822927">
<ele>478.8</ele>
<speed>6.6</speed>
<course>228.2</course>
<desc>Speed 6.6 km/h Distance 28.32 km</desc>
<time>2010-06-13T07:54:44.65</time>
<name>6281</name>
</trkpt>
<trkpt lat="49.212338" lon="11.822907">
<ele>475.7</ele>
<speed>5.2</speed>
<course>229.5</course>
<desc>Speed 5.2 km/h Distance 28.32 km</desc>
<time>2010-06-13T07:54:45.65</time>
<name>6282</name>
</trkpt>
<trkpt lat="49.212330" lon="11.822892">
<ele>475.1</ele>
<speed>5.0</speed>
<course>210.9</course>
<desc>Speed 5.0 km/h Distance 28.32 km</desc>
<time>2010-06-13T07:54:46.65</time>
<name>6283</name>
</trkpt>
<trkpt lat="49.212310" lon="11.822873">
<ele>474.5</ele>
<speed>4.1</speed>
<course>257.2</course>
<desc>Speed 4.1 km/h Distance 28.33 km</desc>
<time>2010-06-13T07:54:47.65</time>
<name>6284</name>
</trkpt>
<trkpt lat="49.212280" lon="11.822672">
<ele>486.3</ele>
<speed>6.4</speed>
<course>259.6</course>
<desc>Speed 6.4 km/h Distance 28.34 km</desc>
<time>2010-06-13T07:54:50.65</time>
<name>6285</name>
</trkpt>
<trkpt lat="49.212265" lon="11.822547">
<ele>492.8</ele>
<speed>7.4</speed>
<course>262.1</course>
<desc>Speed 7.4 km/h Distance 28.35 km</desc>
<time>2010-06-13T07:54:52.65</time>
<name>6286</name>
</trkpt>
<trkpt lat="49.212260" lon="11.822492">
<ele>495.2</ele>
<speed>5.1</speed>
<course>246.4</course>
<desc>Speed 5.1 km/h Distance 28.35 km</desc>
<time>2010-06-13T07:54:53.65</time>
<name>6287</name>
</trkpt>
<trkpt lat="49.212250" lon="11.822457">
<ele>494.0</ele>
<speed>5.0</speed>
<course>218.3</course>
<desc>Speed 5.0 km/h Distance 28.36 km</desc>
<time>2010-06-13T07:54:54.65</time>
<name>6288</name>
</trkpt>
<trkpt lat="49.212202" lon="11.822398">
<ele>491.2</ele>
<speed>8.2</speed>
<course>248.4</course>
<desc>Speed 8.2 km/h Distance 28.36 km</desc>
<time>2010-06-13T07:54:56.65</time>
<name>6289</name>
</trkpt>
<trkpt lat="49.212190" lon="11.822353">
<ele>491.2</ele>
<speed>9.6</speed>
<course>251.2</course>
<desc>Speed 9.6 km/h Distance 28.37 km</desc>
<time>2010-06-13T07:54:57.65</time>
<name>6290</name>
</trkpt>
<trkpt lat="49.212177" lon="11.822293">
<ele>491.4</ele>
<speed>9.1</speed>
<course>254.9</course>
<desc>Speed 9.1 km/h Distance 28.37 km</desc>
<time>2010-06-13T07:54:58.65</time>
<name>6291</name>
</trkpt>
<trkpt lat="49.212167" lon="11.822237">
<ele>491.2</ele>
<speed>9.1</speed>
<course>247.8</course>
<desc>Speed 9.1 km/h Distance 28.38 km</desc>
<time>2010-06-13T07:54:59.65</time>
<name>6292</name>
</trkpt>
<trkpt lat="49.212153" lon="11.822187">
<ele>490.9</ele>
<speed>7.9</speed>
<course>235.5</course>
<desc>Speed 7.9 km/h Distance 28.38 km</desc>
<time>2010-06-13T07:55:00.65</time>
<name>6293</name>
</trkpt>
<trkpt lat="49.212110" lon="11.822090">
<ele>488.9</ele>
<speed>9.8</speed>
<course>254.4</course>
<desc>Speed 9.8 km/h Distance 28.39 km</desc>
<time>2010-06-13T07:55:02.65</time>
<name>6294</name>
</trkpt>
<trkpt lat="49.212100" lon="11.822035">
<ele>488.4</ele>
<speed>8.5</speed>
<course>252.4</course>
<desc>Speed 8.5 km/h Distance 28.39 km</desc>
<time>2010-06-13T07:55:03.65</time>
<name>6295</name>
</trkpt>
<trkpt lat="49.212090" lon="11.821987">
<ele>487.0</ele>
<speed>7.1</speed>
<course>238.0</course>
<desc>Speed 7.1 km/h Distance 28.40 km</desc>
<time>2010-06-13T07:55:04.65</time>
<name>6296</name>
</trkpt>
<trkpt lat="49.212072" lon="11.821942">
<ele>486.0</ele>
<speed>7.2</speed>
<course>242.2</course>
<desc>Speed 7.2 km/h Distance 28.40 km</desc>
<time>2010-06-13T07:55:05.65</time>
<name>6297</name>
</trkpt>
<trkpt lat="49.212055" lon="11.821893">
<ele>484.8</ele>
<speed>7.7</speed>
<course>271.7</course>
<desc>Speed 7.7 km/h Distance 28.40 km</desc>
<time>2010-06-13T07:55:06.65</time>
<name>6298</name>
</trkpt>
<trkpt lat="49.212057" lon="11.821805">
<ele>485.2</ele>
<speed>7.9</speed>
<course>266.0</course>
<desc>Speed 7.9 km/h Distance 28.41 km</desc>
<time>2010-06-13T07:55:08.65</time>
<name>6299</name>
</trkpt>
<trkpt lat="49.212055" lon="11.821768">
<ele>484.1</ele>
<speed>7.1</speed>
<course>266.0</course>
<desc>Speed 7.1 km/h Distance 28.41 km</desc>
<time>2010-06-13T07:55:09.65</time>
<name>6300</name>
</trkpt>
<trkpt lat="49.212053" lon="11.821732">
<ele>483.2</ele>
<speed>6.6</speed>
<course>266.2</course>
<desc>Speed 6.6 km/h Distance 28.42 km</desc>
<time>2010-06-13T07:55:10.65</time>
<name>6301</name>
</trkpt>
<trkpt lat="49.212052" lon="11.821693">
<ele>482.0</ele>
<speed>7.3</speed>
<course>287.7</course>
<desc>Speed 7.3 km/h Distance 28.42 km</desc>
<time>2010-06-13T07:55:11.65</time>
<name>6302</name>
</trkpt>
<trkpt lat="49.212060" lon="11.821653">
<ele>484.7</ele>
<speed>7.6</speed>
<course>244.8</course>
<desc>Speed 7.6 km/h Distance 28.42 km</desc>
<time>2010-06-13T07:55:12.65</time>
<name>6303</name>
</trkpt>
<trkpt lat="49.212047" lon="11.821610">
<ele>483.4</ele>
<speed>9.2</speed>
<course>248.4</course>
<desc>Speed 9.2 km/h Distance 28.43 km</desc>
<time>2010-06-13T07:55:13.65</time>
<name>6304</name>
</trkpt>
<trkpt lat="49.212035" lon="11.821565">
<ele>481.6</ele>
<speed>9.1</speed>
<course>249.1</course>
<desc>Speed 9.1 km/h Distance 28.43 km</desc>
<time>2010-06-13T07:55:14.65</time>
<name>6305</name>
</trkpt>
<trkpt lat="49.212023" lon="11.821518">
<ele>478.3</ele>
<speed>9.3</speed>
<course>225.1</course>
<desc>Speed 9.3 km/h Distance 28.43 km</desc>
<time>2010-06-13T07:55:15.65</time>
<name>6306</name>
</trkpt>
<trkpt lat="49.212002" lon="11.821485">
<ele>475.2</ele>
<speed>7.9</speed>
<course>234.1</course>
<desc>Speed 7.9 km/h Distance 28.44 km</desc>
<time>2010-06-13T07:55:16.65</time>
<name>6307</name>
</trkpt>
<trkpt lat="49.211987" lon="11.821453">
<ele>473.7</ele>
<speed>8.3</speed>
<course>270.0</course>
<desc>Speed 8.3 km/h Distance 28.44 km</desc>
<time>2010-06-13T07:55:17.65</time>
<name>6308</name>
</trkpt>
<trkpt lat="49.211987" lon="11.821413">
<ele>473.2</ele>
<speed>8.0</speed>
<course>244.2</course>
<desc>Speed 8.0 km/h Distance 28.44 km</desc>
<time>2010-06-13T07:55:18.65</time>
<name>6309</name>
</trkpt>
<trkpt lat="49.211977" lon="11.821382">
<ele>472.5</ele>
<speed>8.2</speed>
<course>237.5</course>
<desc>Speed 8.2 km/h Distance 28.44 km</desc>
<time>2010-06-13T07:55:19.65</time>
<name>6310</name>
</trkpt>
<trkpt lat="49.211960" lon="11.821342">
<ele>469.2</ele>
<speed>8.0</speed>
<course>257.7</course>
<desc>Speed 8.0 km/h Distance 28.45 km</desc>
<time>2010-06-13T07:55:20.65</time>
<name>6311</name>
</trkpt>
<trkpt lat="49.211955" lon="11.821307">
<ele>469.2</ele>
<speed>8.0</speed>
<course>295.6</course>
<desc>Speed 8.0 km/h Distance 28.45 km</desc>
<time>2010-06-13T07:55:21.65</time>
<name>6312</name>
</trkpt>
<trkpt lat="49.211963" lon="11.821280">
<ele>472.4</ele>
<speed>7.5</speed>
<course>284.3</course>
<desc>Speed 7.5 km/h Distance 28.45 km</desc>
<time>2010-06-13T07:55:22.65</time>
<name>6313</name>
</trkpt>
<trkpt lat="49.211968" lon="11.821250">
<ele>473.9</ele>
<speed>6.9</speed>
<course>245.8</course>
<desc>Speed 6.9 km/h Distance 28.45 km</desc>
<time>2010-06-13T07:55:23.65</time>
<name>6314</name>
</trkpt>
<trkpt lat="49.211960" lon="11.821222">
<ele>474.2</ele>
<speed>5.7</speed>
<course>232.6</course>
<desc>Speed 5.7 km/h Distance 28.46 km</desc>
<time>2010-06-13T07:55:24.65</time>
<name>6315</name>
</trkpt>
<trkpt lat="49.211945" lon="11.821192">
<ele>473.5</ele>
<speed>6.8</speed>
<course>270.0</course>
<desc>Speed 6.8 km/h Distance 28.46 km</desc>
<time>2010-06-13T07:55:25.65</time>
<name>6316</name>
</trkpt>
<trkpt lat="49.211945" lon="11.821085">
<ele>474.5</ele>
<speed>8.2</speed>
<course>259.8</course>
<desc>Speed 8.2 km/h Distance 28.47 km</desc>
<time>2010-06-13T07:55:27.65</time>
<name>6317</name>
</trkpt>
<trkpt lat="49.211942" lon="11.821057">
<ele>474.4</ele>
<speed>6.0</speed>
<course>240.9</course>
<desc>Speed 6.0 km/h Distance 28.47 km</desc>
<time>2010-06-13T07:55:28.65</time>
<name>6318</name>
</trkpt>
<trkpt lat="49.211928" lon="11.821020">
<ele>474.9</ele>
<speed>6.6</speed>
<course>253.0</course>
<desc>Speed 6.6 km/h Distance 28.47 km</desc>
<time>2010-06-13T07:55:29.65</time>
<name>6319</name>
</trkpt>
<trkpt lat="49.211920" lon="11.820978">
<ele>474.6</ele>
<speed>6.2</speed>
<course>260.8</course>
<desc>Speed 6.2 km/h Distance 28.48 km</desc>
<time>2010-06-13T07:55:30.65</time>
<name>6320</name>
</trkpt>
<trkpt lat="49.211917" lon="11.820947">
<ele>473.5</ele>
<speed>6.3</speed>
<course>199.3</course>
<desc>Speed 6.3 km/h Distance 28.48 km</desc>
<time>2010-06-13T07:55:31.65</time>
<name>6321</name>
</trkpt>
<trkpt lat="49.211892" lon="11.820933">
<ele>471.2</ele>
<speed>4.8</speed>
<course>213.7</course>
<desc>Speed 4.8 km/h Distance 28.48 km</desc>
<time>2010-06-13T07:55:32.65</time>
<name>6322</name>
</trkpt>
<trkpt lat="49.211885" lon="11.820927">
<ele>471.5</ele>
<speed>4.7</speed>
<course>289.4</course>
<desc>Speed 4.7 km/h Distance 28.48 km</desc>
<time>2010-06-13T07:55:33.65</time>
<name>6323</name>
</trkpt>
<trkpt lat="49.211890" lon="11.820905">
<ele>473.5</ele>
<speed>4.3</speed>
<course>315.7</course>
<desc>Speed 4.3 km/h Distance 28.48 km</desc>
<time>2010-06-13T07:55:34.65</time>
<name>6324</name>
</trkpt>
<trkpt lat="49.211900" lon="11.820890">
<ele>475.6</ele>
<speed>4.2</speed>
<course>288.1</course>
<desc>Speed 4.2 km/h Distance 28.48 km</desc>
<time>2010-06-13T07:55:35.65</time>
<name>6325</name>
</trkpt>
<trkpt lat="49.211905" lon="11.820867">
<ele>477.7</ele>
<speed>4.4</speed>
<course>292.0</course>
<desc>Speed 4.4 km/h Distance 28.49 km</desc>
<time>2010-06-13T07:55:36.65</time>
<name>6326</name>
</trkpt>
<trkpt lat="49.211928" lon="11.820778">
<ele>479.2</ele>
<speed>8.7</speed>
<course>313.7</course>
<desc>Speed 8.7 km/h Distance 28.49 km</desc>
<time>2010-06-13T07:55:38.65</time>
<name>6327</name>
</trkpt>
<trkpt lat="49.211945" lon="11.820752">
<ele>480.6</ele>
<speed>7.8</speed>
<course>260.0</course>
<desc>Speed 7.8 km/h Distance 28.50 km</desc>
<time>2010-06-13T07:55:39.65</time>
<name>6328</name>
</trkpt>
<trkpt lat="49.211940" lon="11.820708">
<ele>480.5</ele>
<speed>7.3</speed>
<course>260.3</course>
<desc>Speed 7.3 km/h Distance 28.50 km</desc>
<time>2010-06-13T07:55:40.65</time>
<name>6329</name>
</trkpt>
<trkpt lat="49.211935" lon="11.820663">
<ele>481.7</ele>
<speed>7.1</speed>
<course>244.2</course>
<desc>Speed 7.1 km/h Distance 28.50 km</desc>
<time>2010-06-13T07:55:41.65</time>
<name>6330</name>
</trkpt>
<trkpt lat="49.211925" lon="11.820632">
<ele>483.1</ele>
<speed>5.4</speed>
<course>260.4</course>
<desc>Speed 5.4 km/h Distance 28.51 km</desc>
<time>2010-06-13T07:55:42.65</time>
<name>6331</name>
</trkpt>
<trkpt lat="49.211922" lon="11.820602">
<ele>484.2</ele>
<speed>5.1</speed>
<course>270.0</course>
<desc>Speed 5.1 km/h Distance 28.51 km</desc>
<time>2010-06-13T07:55:43.65</time>
<name>6332</name>
</trkpt>
<trkpt lat="49.211922" lon="11.820580">
<ele>484.6</ele>
<speed>4.9</speed>
<course>243.0</course>
<desc>Speed 4.9 km/h Distance 28.51 km</desc>
<time>2010-06-13T07:55:44.65</time>
<name>6333</name>
</trkpt>
<trkpt lat="49.211912" lon="11.820550">
<ele>485.4</ele>
<speed>4.4</speed>
<course>254.0</course>
<desc>Speed 4.4 km/h Distance 28.51 km</desc>
<time>2010-06-13T07:55:45.65</time>
<name>6334</name>
</trkpt>
<trkpt lat="49.211907" lon="11.820523">
<ele>485.7</ele>
<speed>3.5</speed>
<course>261.3</course>
<desc>Speed 3.5 km/h Distance 28.51 km</desc>
<time>2010-06-13T07:55:46.65</time>
<name>6335</name>
</trkpt>
<trkpt lat="49.211905" lon="11.820507">
<ele>485.0</ele>
<speed>2.1</speed>
<course>119.1</course>
<desc>Speed 2.1 km/h Distance 28.51 km</desc>
<time>2010-06-13T07:55:47.65</time>
<name>6336</name>
</trkpt>
<trkpt lat="49.211898" lon="11.820525">
<ele>484.7</ele>
<speed>1.4</speed>
<course>117.1</course>
<desc>Speed 1.4 km/h Distance 28.52 km</desc>
<time>2010-06-13T07:55:48.65</time>
<name>6337</name>
</trkpt>
<trkpt lat="49.211890" lon="11.820550">
<ele>483.0</ele>
<speed>1.0</speed>
<course>44.3</course>
<desc>Speed 1.0 km/h Distance 28.52 km</desc>
<time>2010-06-13T07:55:49.65</time>
<name>6338</name>
</trkpt>
<trkpt lat="49.211900" lon="11.820565">
<ele>484.8</ele>
<speed>1.1</speed>
<course>334.5</course>
<desc>Speed 1.1 km/h Distance 28.52 km</desc>
<time>2010-06-13T07:55:50.65</time>
<name>6339</name>
</trkpt>
<trkpt lat="49.211918" lon="11.820552">
<ele>485.3</ele>
<speed>4.2</speed>
<course>345.1</course>
<desc>Speed 4.2 km/h Distance 28.52 km</desc>
<time>2010-06-13T07:55:51.65</time>
<name>6340</name>
</trkpt>
<trkpt lat="49.211927" lon="11.820548">
<ele>485.3</ele>
<speed>5.5</speed>
<course>333.4</course>
<desc>Speed 5.5 km/h Distance 28.52 km</desc>
<time>2010-06-13T07:55:52.65</time>
<name>6341</name>
</trkpt>
<trkpt lat="49.211948" lon="11.820532">
<ele>485.8</ele>
<speed>6.8</speed>
<course>187.4</course>
<desc>Speed 6.8 km/h Distance 28.53 km</desc>
<time>2010-06-13T07:55:53.65</time>
<name>6342</name>
</trkpt>
<trkpt lat="49.211942" lon="11.820530">
<ele>486.6</ele>
<speed>5.0</speed>
<course>241.6</course>
<desc>Speed 5.0 km/h Distance 28.53 km</desc>
<time>2010-06-13T07:55:54.65</time>
<name>6343</name>
</trkpt>
<trkpt lat="49.211932" lon="11.820502">
<ele>484.4</ele>
<speed>4.3</speed>
<course>232.6</course>
<desc>Speed 4.3 km/h Distance 28.53 km</desc>
<time>2010-06-13T07:55:55.65</time>
<name>6344</name>
</trkpt>
<trkpt lat="49.211923" lon="11.820485">
<ele>483.9</ele>
<speed>4.8</speed>
<course>298.4</course>
<desc>Speed 4.8 km/h Distance 28.53 km</desc>
<time>2010-06-13T07:55:56.65</time>
<name>6345</name>
</trkpt>
<trkpt lat="49.211933" lon="11.820457">
<ele>486.4</ele>
<speed>4.4</speed>
<course>270.0</course>
<desc>Speed 4.4 km/h Distance 28.53 km</desc>
<time>2010-06-13T07:55:57.65</time>
<name>6346</name>
</trkpt>
<trkpt lat="49.211933" lon="11.820438">
<ele>488.5</ele>
<speed>4.5</speed>
<course>307.4</course>
<desc>Speed 4.5 km/h Distance 28.53 km</desc>
<time>2010-06-13T07:55:58.65</time>
<name>6347</name>
</trkpt>
<trkpt lat="49.211942" lon="11.820422">
<ele>490.8</ele>
<speed>4.8</speed>
<course>245.3</course>
<desc>Speed 4.8 km/h Distance 28.54 km</desc>
<time>2010-06-13T07:55:59.65</time>
<name>6348</name>
</trkpt>
<trkpt lat="49.211937" lon="11.820405">
<ele>491.6</ele>
<speed>6.7</speed>
<course>303.8</course>
<desc>Speed 6.7 km/h Distance 28.54 km</desc>
<time>2010-06-13T07:56:00.65</time>
<name>6349</name>
</trkpt>
<trkpt lat="49.211948" lon="11.820378">
<ele>495.4</ele>
<speed>5.7</speed>
<course>235.8</course>
<desc>Speed 5.7 km/h Distance 28.54 km</desc>
<time>2010-06-13T07:56:01.65</time>
<name>6350</name>
</trkpt>
<trkpt lat="49.211942" lon="11.820363">
<ele>496.5</ele>
<speed>3.6</speed>
<course>301.4</course>
<desc>Speed 3.6 km/h Distance 28.54 km</desc>
<time>2010-06-13T07:56:02.65</time>
<name>6351</name>
</trkpt>
<trkpt lat="49.211948" lon="11.820347">
<ele>498.1</ele>
<speed>5.1</speed>
<course>259.2</course>
<desc>Speed 5.1 km/h Distance 28.54 km</desc>
<time>2010-06-13T07:56:03.65</time>
<name>6352</name>
</trkpt>
<trkpt lat="49.211945" lon="11.820320">
<ele>499.0</ele>
<speed>6.0</speed>
<course>312.1</course>
<desc>Speed 6.0 km/h Distance 28.54 km</desc>
<time>2010-06-13T07:56:04.65</time>
<name>6353</name>
</trkpt>
<trkpt lat="49.211967" lon="11.820283">
<ele>503.0</ele>
<speed>4.9</speed>
<course>237.8</course>
<desc>Speed 4.9 km/h Distance 28.55 km</desc>
<time>2010-06-13T07:56:05.65</time>
<name>6354</name>
</trkpt>
<trkpt lat="49.211955" lon="11.820255">
<ele>503.6</ele>
<speed>4.2</speed>
<course>239.8</course>
<desc>Speed 4.2 km/h Distance 28.55 km</desc>
<time>2010-06-13T07:56:06.65</time>
<name>6355</name>
</trkpt>
<trkpt lat="49.211942" lon="11.820220">
<ele>503.2</ele>
<speed>5.2</speed>
<course>217.1</course>
<desc>Speed 5.2 km/h Distance 28.55 km</desc>
<time>2010-06-13T07:56:07.65</time>
<name>6356</name>
</trkpt>
<trkpt lat="49.211910" lon="11.820183">
<ele>500.5</ele>
<speed>2.8</speed>
<course>248.6</course>
<desc>Speed 2.8 km/h Distance 28.56 km</desc>
<time>2010-06-13T07:56:09.65</time>
<name>6357</name>
</trkpt>
<trkpt lat="49.211893" lon="11.820118">
<ele>500.5</ele>
<speed>3.1</speed>
<course>246.1</course>
<desc>Speed 3.1 km/h Distance 28.56 km</desc>
<time>2010-06-13T07:56:11.65</time>
<name>6358</name>
</trkpt>
<trkpt lat="49.211872" lon="11.820043">
<ele>499.9</ele>
<speed>5.5</speed>
<course>247.3</course>
<desc>Speed 5.5 km/h Distance 28.57 km</desc>
<time>2010-06-13T07:56:13.65</time>
<name>6359</name>
</trkpt>
<trkpt lat="49.211862" lon="11.820007">
<ele>498.3</ele>
<speed>5.7</speed>
<course>213.2</course>
<desc>Speed 5.7 km/h Distance 28.57 km</desc>
<time>2010-06-13T07:56:14.65</time>
<name>6360</name>
</trkpt>
<trkpt lat="49.211815" lon="11.819960">
<ele>496.4</ele>
<speed>3.7</speed>
<course>203.8</course>
<desc>Speed 3.7 km/h Distance 28.58 km</desc>
<time>2010-06-13T07:56:16.65</time>
<name>6361</name>
</trkpt>
<trkpt lat="49.211805" lon="11.819953">
<ele>496.4</ele>
<speed>1.7</speed>
<course>217.7</course>
<desc>Speed 1.7 km/h Distance 28.58 km</desc>
<time>2010-06-13T07:56:17.65</time>
<name>6362</name>
</trkpt>
<trkpt lat="49.211787" lon="11.819932">
<ele>498.6</ele>
<speed>5.4</speed>
<course>205.7</course>
<desc>Speed 5.4 km/h Distance 28.58 km</desc>
<time>2010-06-13T07:56:19.65</time>
<name>6363</name>
</trkpt>
<trkpt lat="49.211723" lon="11.819885">
<ele>499.8</ele>
<speed>5.4</speed>
<course>245.0</course>
<desc>Speed 5.4 km/h Distance 28.59 km</desc>
<time>2010-06-13T07:56:21.65</time>
<name>6364</name>
</trkpt>
<trkpt lat="49.211712" lon="11.819847">
<ele>498.2</ele>
<speed>5.7</speed>
<course>254.3</course>
<desc>Speed 5.7 km/h Distance 28.59 km</desc>
<time>2010-06-13T07:56:22.65</time>
<name>6365</name>
</trkpt>
<trkpt lat="49.211693" lon="11.819747">
<ele>497.4</ele>
<speed>6.3</speed>
<course>266.6</course>
<desc>Speed 6.3 km/h Distance 28.60 km</desc>
<time>2010-06-13T07:56:24.65</time>
<name>6366</name>
</trkpt>
<trkpt lat="49.211692" lon="11.819703">
<ele>497.3</ele>
<speed>6.1</speed>
<course>262.1</course>
<desc>Speed 6.1 km/h Distance 28.60 km</desc>
<time>2010-06-13T07:56:25.65</time>
<name>6367</name>
</trkpt>
<trkpt lat="49.211688" lon="11.819667">
<ele>497.4</ele>
<speed>5.5</speed>
<course>270.0</course>
<desc>Speed 5.5 km/h Distance 28.61 km</desc>
<time>2010-06-13T07:56:26.65</time>
<name>6368</name>
</trkpt>
<trkpt lat="49.211688" lon="11.819635">
<ele>498.3</ele>
<speed>4.6</speed>
<course>245.8</course>
<desc>Speed 4.6 km/h Distance 28.61 km</desc>
<time>2010-06-13T07:56:27.65</time>
<name>6369</name>
</trkpt>
<trkpt lat="49.211680" lon="11.819607">
<ele>497.5</ele>
<speed>3.1</speed>
<course>244.8</course>
<desc>Speed 3.1 km/h Distance 28.61 km</desc>
<time>2010-06-13T07:56:28.65</time>
<name>6370</name>
</trkpt>
<trkpt lat="49.211673" lon="11.819585">
<ele>496.8</ele>
<speed>2.5</speed>
<course>224.4</course>
<desc>Speed 2.5 km/h Distance 28.61 km</desc>
<time>2010-06-13T07:56:29.65</time>
<name>6371</name>
</trkpt>
<trkpt lat="49.211660" lon="11.819565">
<ele>495.0</ele>
<speed>3.4</speed>
<course>278.3</course>
<desc>Speed 3.4 km/h Distance 28.61 km</desc>
<time>2010-06-13T07:56:30.65</time>
<name>6372</name>
</trkpt>
<trkpt lat="49.211663" lon="11.819530">
<ele>495.0</ele>
<speed>4.8</speed>
<course>240.5</course>
<desc>Speed 4.8 km/h Distance 28.62 km</desc>
<time>2010-06-13T07:56:31.65</time>
<name>6373</name>
</trkpt>
<trkpt lat="49.211652" lon="11.819498">
<ele>494.5</ele>
<speed>5.0</speed>
<course>250.2</course>
<desc>Speed 5.0 km/h Distance 28.62 km</desc>
<time>2010-06-13T07:56:32.65</time>
<name>6374</name>
</trkpt>
<trkpt lat="49.211645" lon="11.819470">
<ele>495.2</ele>
<speed>4.2</speed>
<course>243.0</course>
<desc>Speed 4.2 km/h Distance 28.62 km</desc>
<time>2010-06-13T07:56:33.65</time>
<name>6375</name>
</trkpt>
<trkpt lat="49.211640" lon="11.819455">
<ele>495.2</ele>
<speed>3.1</speed>
<course>217.9</course>
<desc>Speed 3.1 km/h Distance 28.62 km</desc>
<time>2010-06-13T07:56:34.65</time>
<name>6376</name>
</trkpt>
<trkpt lat="49.211632" lon="11.819445">
<ele>494.6</ele>
<speed>4.2</speed>
<course>201.5</course>
<desc>Speed 4.2 km/h Distance 28.62 km</desc>
<time>2010-06-13T07:56:35.65</time>
<name>6377</name>
</trkpt>
<trkpt lat="49.211623" lon="11.819440">
<ele>494.7</ele>
<speed>4.0</speed>
<course>192.2</course>
<desc>Speed 4.0 km/h Distance 28.62 km</desc>
<time>2010-06-13T07:56:36.65</time>
<name>6378</name>
</trkpt>
<trkpt lat="49.211608" lon="11.819435">
<ele>493.5</ele>
<speed>3.0</speed>
<course>202.1</course>
<desc>Speed 3.0 km/h Distance 28.63 km</desc>
<time>2010-06-13T07:56:37.65</time>
<name>6379</name>
</trkpt>
<trkpt lat="49.211595" lon="11.819427">
<ele>492.4</ele>
<speed>4.1</speed>
<course>232.8</course>
<desc>Speed 4.1 km/h Distance 28.63 km</desc>
<time>2010-06-13T07:56:38.65</time>
<name>6380</name>
</trkpt>
<trkpt lat="49.211590" lon="11.819417">
<ele>492.1</ele>
<speed>3.0</speed>
<course>294.6</course>
<desc>Speed 3.0 km/h Distance 28.63 km</desc>
<time>2010-06-13T07:56:39.65</time>
<name>6381</name>
</trkpt>
<trkpt lat="49.211595" lon="11.819400">
<ele>491.3</ele>
<speed>2.7</speed>
<course>270.0</course>
<desc>Speed 2.7 km/h Distance 28.63 km</desc>
<time>2010-06-13T07:56:40.65</time>
<name>6382</name>
</trkpt>
<trkpt lat="49.211595" lon="11.819310">
<ele>489.0</ele>
<speed>5.3</speed>
<course>297.0</course>
<desc>Speed 5.3 km/h Distance 28.64 km</desc>
<time>2010-06-13T07:56:42.65</time>
<name>6383</name>
</trkpt>
<trkpt lat="49.211627" lon="11.819215">
<ele>489.9</ele>
<speed>6.2</speed>
<course>304.0</course>
<desc>Speed 6.2 km/h Distance 28.64 km</desc>
<time>2010-06-13T07:56:44.65</time>
<name>6384</name>
</trkpt>
<trkpt lat="49.211677" lon="11.819102">
<ele>493.4</ele>
<speed>10.2</speed>
<course>292.1</course>
<desc>Speed 10.2 km/h Distance 28.65 km</desc>
<time>2010-06-13T07:56:46.65</time>
<name>6385</name>
</trkpt>
<trkpt lat="49.211692" lon="11.819045">
<ele>493.4</ele>
<speed>11.8</speed>
<course>257.7</course>
<desc>Speed 11.8 km/h Distance 28.66 km</desc>
<time>2010-06-13T07:56:47.65</time>
<name>6386</name>
</trkpt>
<trkpt lat="49.211683" lon="11.818987">
<ele>493.6</ele>
<speed>11.9</speed>
<course>240.6</course>
<desc>Speed 11.9 km/h Distance 28.66 km</desc>
<time>2010-06-13T07:56:48.65</time>
<name>6387</name>
</trkpt>
<trkpt lat="49.211637" lon="11.818860">
<ele>492.1</ele>
<speed>14.6</speed>
<course>243.0</course>
<desc>Speed 14.6 km/h Distance 28.67 km</desc>
<time>2010-06-13T07:56:50.65</time>
<name>6388</name>
</trkpt>
<trkpt lat="49.211618" lon="11.818805">
<ele>492.4</ele>
<speed>13.3</speed>
<course>239.2</course>
<desc>Speed 13.3 km/h Distance 28.68 km</desc>
<time>2010-06-13T07:56:51.65</time>
<name>6389</name>
</trkpt>
<trkpt lat="49.211595" lon="11.818745">
<ele>490.9</ele>
<speed>12.0</speed>
<course>236.4</course>
<desc>Speed 12.0 km/h Distance 28.68 km</desc>
<time>2010-06-13T07:56:52.65</time>
<name>6390</name>
</trkpt>
<trkpt lat="49.211573" lon="11.818695">
<ele>490.6</ele>
<speed>10.7</speed>
<course>255.3</course>
<desc>Speed 10.7 km/h Distance 28.69 km</desc>
<time>2010-06-13T07:56:53.65</time>
<name>6391</name>
</trkpt>
<trkpt lat="49.211553" lon="11.818578">
<ele>488.8</ele>
<speed>12.3</speed>
<course>264.7</course>
<desc>Speed 12.3 km/h Distance 28.70 km</desc>
<time>2010-06-13T07:56:55.65</time>
<name>6392</name>
</trkpt>
<trkpt lat="49.211550" lon="11.818523">
<ele>488.8</ele>
<speed>12.5</speed>
<course>267.3</course>
<desc>Speed 12.5 km/h Distance 28.70 km</desc>
<time>2010-06-13T07:56:56.65</time>
<name>6393</name>
</trkpt>
<trkpt lat="49.211548" lon="11.818470">
<ele>489.8</ele>
<speed>12.8</speed>
<course>240.7</course>
<desc>Speed 12.8 km/h Distance 28.70 km</desc>
<time>2010-06-13T07:56:57.65</time>
<name>6394</name>
</trkpt>
<trkpt lat="49.211530" lon="11.818420">
<ele>489.6</ele>
<speed>13.1</speed>
<course>243.7</course>
<desc>Speed 13.1 km/h Distance 28.71 km</desc>
<time>2010-06-13T07:56:58.65</time>
<name>6395</name>
</trkpt>
<trkpt lat="49.211512" lon="11.818363">
<ele>488.9</ele>
<speed>13.6</speed>
<course>255.3</course>
<desc>Speed 13.6 km/h Distance 28.71 km</desc>
<time>2010-06-13T07:56:59.65</time>
<name>6396</name>
</trkpt>
<trkpt lat="49.211502" lon="11.818305">
<ele>488.5</ele>
<speed>14.3</speed>
<course>257.7</course>
<desc>Speed 14.3 km/h Distance 28.72 km</desc>
<time>2010-06-13T07:57:00.65</time>
<name>6397</name>
</trkpt>
<trkpt lat="49.211493" lon="11.818247">
<ele>488.4</ele>
<speed>14.4</speed>
<course>249.6</course>
<desc>Speed 14.4 km/h Distance 28.72 km</desc>
<time>2010-06-13T07:57:01.65</time>
<name>6398</name>
</trkpt>
<trkpt lat="49.211480" lon="11.818192">
<ele>487.7</ele>
<speed>14.2</speed>
<course>245.8</course>
<desc>Speed 14.2 km/h Distance 28.73 km</desc>
<time>2010-06-13T07:57:02.65</time>
<name>6399</name>
</trkpt>
<trkpt lat="49.211463" lon="11.818135">
<ele>486.9</ele>
<speed>14.5</speed>
<course>243.0</course>
<desc>Speed 14.5 km/h Distance 28.73 km</desc>
<time>2010-06-13T07:57:03.65</time>
<name>6400</name>
</trkpt>
<trkpt lat="49.211445" lon="11.818080">
<ele>486.0</ele>
<speed>14.0</speed>
<course>245.1</course>
<desc>Speed 14.0 km/h Distance 28.74 km</desc>
<time>2010-06-13T07:57:04.65</time>
<name>6401</name>
</trkpt>
<trkpt lat="49.211428" lon="11.818025">
<ele>485.5</ele>
<speed>13.4</speed>
<course>248.4</course>
<desc>Speed 13.4 km/h Distance 28.74 km</desc>
<time>2010-06-13T07:57:05.65</time>
<name>6402</name>
</trkpt>
<trkpt lat="49.211415" lon="11.817973">
<ele>484.9</ele>
<speed>11.3</speed>
<course>234.8</course>
<desc>Speed 11.3 km/h Distance 28.74 km</desc>
<time>2010-06-13T07:57:06.65</time>
<name>6403</name>
</trkpt>
<trkpt lat="49.211395" lon="11.817930">
<ele>484.1</ele>
<speed>11.6</speed>
<course>232.6</course>
<desc>Speed 11.6 km/h Distance 28.75 km</desc>
<time>2010-06-13T07:57:07.65</time>
<name>6404</name>
</trkpt>
<trkpt lat="49.211375" lon="11.817890">
<ele>483.6</ele>
<speed>11.7</speed>
<course>233.7</course>
<desc>Speed 11.7 km/h Distance 28.75 km</desc>
<time>2010-06-13T07:57:08.65</time>
<name>6405</name>
</trkpt>
<trkpt lat="49.211355" lon="11.817848">
<ele>483.4</ele>
<speed>13.4</speed>
<course>221.0</course>
<desc>Speed 13.4 km/h Distance 28.76 km</desc>
<time>2010-06-13T07:57:09.65</time>
<name>6406</name>
</trkpt>
<trkpt lat="49.211325" lon="11.817808">
<ele>483.7</ele>
<speed>14.0</speed>
<course>210.5</course>
<desc>Speed 14.0 km/h Distance 28.76 km</desc>
<time>2010-06-13T07:57:10.65</time>
<name>6407</name>
</trkpt>
<trkpt lat="49.211292" lon="11.817778">
<ele>484.7</ele>
<speed>14.5</speed>
<course>204.6</course>
<desc>Speed 14.5 km/h Distance 28.76 km</desc>
<time>2010-06-13T07:57:11.65</time>
<name>6408</name>
</trkpt>
<trkpt lat="49.211258" lon="11.817755">
<ele>484.4</ele>
<speed>14.2</speed>
<course>200.9</course>
<desc>Speed 14.2 km/h Distance 28.77 km</desc>
<time>2010-06-13T07:57:12.65</time>
<name>6409</name>
</trkpt>
<trkpt lat="49.211230" lon="11.817738">
<ele>484.8</ele>
<speed>13.7</speed>
<course>195.4</course>
<desc>Speed 13.7 km/h Distance 28.77 km</desc>
<time>2010-06-13T07:57:13.65</time>
<name>6410</name>
</trkpt>
<trkpt lat="49.211198" lon="11.817725">
<ele>484.9</ele>
<speed>13.7</speed>
<course>178.8</course>
<desc>Speed 13.7 km/h Distance 28.78 km</desc>
<time>2010-06-13T07:57:14.65</time>
<name>6411</name>
</trkpt>
<trkpt lat="49.211172" lon="11.817725">
<ele>485.5</ele>
<speed>11.2</speed>
<course>185.0</course>
<desc>Speed 11.2 km/h Distance 28.78 km</desc>
<time>2010-06-13T07:57:15.65</time>
<name>6412</name>
</trkpt>
<trkpt lat="49.211147" lon="11.817722">
<ele>485.9</ele>
<speed>10.2</speed>
<course>195.7</course>
<desc>Speed 10.2 km/h Distance 28.78 km</desc>
<time>2010-06-13T07:57:16.65</time>
<name>6413</name>
</trkpt>
<trkpt lat="49.211123" lon="11.817712">
<ele>486.5</ele>
<speed>9.2</speed>
<course>185.9</course>
<desc>Speed 9.2 km/h Distance 28.78 km</desc>
<time>2010-06-13T07:57:17.65</time>
<name>6414</name>
</trkpt>
<trkpt lat="49.211102" lon="11.817708">
<ele>487.0</ele>
<speed>8.5</speed>
<course>174.5</course>
<desc>Speed 8.5 km/h Distance 28.79 km</desc>
<time>2010-06-13T07:57:18.65</time>
<name>6415</name>
</trkpt>
<trkpt lat="49.211080" lon="11.817712">
<ele>487.5</ele>
<speed>8.3</speed>
<course>199.5</course>
<desc>Speed 8.3 km/h Distance 28.79 km</desc>
<time>2010-06-13T07:57:19.65</time>
<name>6416</name>
</trkpt>
<trkpt lat="49.211062" lon="11.817702">
<ele>488.5</ele>
<speed>7.5</speed>
<course>192.2</course>
<desc>Speed 7.5 km/h Distance 28.79 km</desc>
<time>2010-06-13T07:57:20.65</time>
<name>6417</name>
</trkpt>
<trkpt lat="49.211047" lon="11.817697">
<ele>489.3</ele>
<speed>6.3</speed>
<course>196.6</course>
<desc>Speed 6.3 km/h Distance 28.79 km</desc>
<time>2010-06-13T07:57:21.65</time>
<name>6418</name>
</trkpt>
<trkpt lat="49.211032" lon="11.817690">
<ele>490.5</ele>
<speed>7.1</speed>
<course>177.8</course>
<desc>Speed 7.1 km/h Distance 28.79 km</desc>
<time>2010-06-13T07:57:22.65</time>
<name>6419</name>
</trkpt>
<trkpt lat="49.211020" lon="11.817690">
<ele>491.1</ele>
<speed>6.3</speed>
<course>167.4</course>
<desc>Speed 6.3 km/h Distance 28.80 km</desc>
<time>2010-06-13T07:57:23.65</time>
<name>6420</name>
</trkpt>
<trkpt lat="49.211010" lon="11.817693">
<ele>491.7</ele>
<speed>6.2</speed>
<course>287.0</course>
<desc>Speed 6.2 km/h Distance 28.80 km</desc>
<time>2010-06-13T07:57:24.65</time>
<name>6421</name>
</trkpt>
<trkpt lat="49.211013" lon="11.817677">
<ele>493.3</ele>
<speed>5.0</speed>
<course>90.0</course>
<desc>Speed 5.0 km/h Distance 28.80 km</desc>
<time>2010-06-13T07:57:25.65</time>
<name>6422</name>
</trkpt>
<trkpt lat="49.211013" lon="11.817683">
<ele>493.6</ele>
<speed>4.9</speed>
<course>160.1</course>
<desc>Speed 4.9 km/h Distance 28.80 km</desc>
<time>2010-06-13T07:57:26.65</time>
<name>6423</name>
</trkpt>
<trkpt lat="49.210998" lon="11.817692">
<ele>493.7</ele>
<speed>4.8</speed>
<course>146.8</course>
<desc>Speed 4.8 km/h Distance 28.80 km</desc>
<time>2010-06-13T07:57:27.65</time>
<name>6424</name>
</trkpt>
<trkpt lat="49.210977" lon="11.817713">
<ele>493.1</ele>
<speed>5.6</speed>
<course>226.4</course>
<desc>Speed 5.6 km/h Distance 28.80 km</desc>
<time>2010-06-13T07:57:28.65</time>
<name>6425</name>
</trkpt>
<trkpt lat="49.210968" lon="11.817700">
<ele>494.6</ele>
<speed>5.9</speed>
<course>206.9</course>
<desc>Speed 5.9 km/h Distance 28.80 km</desc>
<time>2010-06-13T07:57:29.65</time>
<name>6426</name>
</trkpt>
<trkpt lat="49.210953" lon="11.817688">
<ele>495.2</ele>
<speed>6.6</speed>
<course>177.3</course>
<desc>Speed 6.6 km/h Distance 28.81 km</desc>
<time>2010-06-13T07:57:30.65</time>
<name>6427</name>
</trkpt>
<trkpt lat="49.210933" lon="11.817690">
<ele>496.3</ele>
<speed>7.2</speed>
<course>223.1</course>
<desc>Speed 7.2 km/h Distance 28.81 km</desc>
<time>2010-06-13T07:57:31.65</time>
<name>6428</name>
</trkpt>
<trkpt lat="49.210922" lon="11.817673">
<ele>496.8</ele>
<speed>6.5</speed>
<course>151.1</course>
<desc>Speed 6.5 km/h Distance 28.81 km</desc>
<time>2010-06-13T07:57:32.65</time>
<name>6429</name>
</trkpt>
<trkpt lat="49.210900" lon="11.817692">
<ele>496.1</ele>
<speed>5.7</speed>
<course>127.4</course>
<desc>Speed 5.7 km/h Distance 28.81 km</desc>
<time>2010-06-13T07:57:33.65</time>
<name>6430</name>
</trkpt>
<trkpt lat="49.210890" lon="11.817712">
<ele>494.7</ele>
<speed>5.7</speed>
<course>172.6</course>
<desc>Speed 5.7 km/h Distance 28.81 km</desc>
<time>2010-06-13T07:57:34.65</time>
<name>6431</name>
</trkpt>
<trkpt lat="49.210883" lon="11.817713">
<ele>494.9</ele>
<speed>5.3</speed>
<course>142.7</course>
<desc>Speed 5.3 km/h Distance 28.82 km</desc>
<time>2010-06-13T07:57:35.65</time>
<name>6432</name>
</trkpt>
<trkpt lat="49.210863" lon="11.817737">
<ele>493.9</ele>
<speed>6.7</speed>
<course>189.4</course>
<desc>Speed 6.7 km/h Distance 28.82 km</desc>
<time>2010-06-13T07:57:36.65</time>
<name>6433</name>
</trkpt>
<trkpt lat="49.210830" lon="11.817728">
<ele>495.6</ele>
<speed>7.2</speed>
<course>182.4</course>
<desc>Speed 7.2 km/h Distance 28.82 km</desc>
<time>2010-06-13T07:57:37.65</time>
<name>6434</name>
</trkpt>
<trkpt lat="49.210797" lon="11.817727">
<ele>497.1</ele>
<speed>7.8</speed>
<course>193.0</course>
<desc>Speed 7.8 km/h Distance 28.83 km</desc>
<time>2010-06-13T07:57:38.65</time>
<name>6435</name>
</trkpt>
<trkpt lat="49.210768" lon="11.817717">
<ele>498.7</ele>
<speed>7.6</speed>
<course>192.3</course>
<desc>Speed 7.6 km/h Distance 28.83 km</desc>
<time>2010-06-13T07:57:39.65</time>
<name>6436</name>
</trkpt>
<trkpt lat="49.210738" lon="11.817707">
<ele>500.5</ele>
<speed>7.2</speed>
<course>169.8</course>
<desc>Speed 7.2 km/h Distance 28.83 km</desc>
<time>2010-06-13T07:57:40.65</time>
<name>6437</name>
</trkpt>
<trkpt lat="49.210720" lon="11.817712">
<ele>500.6</ele>
<speed>7.1</speed>
<course>157.9</course>
<desc>Speed 7.1 km/h Distance 28.83 km</desc>
<time>2010-06-13T07:57:41.65</time>
<name>6438</name>
</trkpt>
<trkpt lat="49.210707" lon="11.817720">
<ele>500.1</ele>
<speed>6.5</speed>
<course>198.2</course>
<desc>Speed 6.5 km/h Distance 28.84 km</desc>
<time>2010-06-13T07:57:42.65</time>
<name>6439</name>
</trkpt>
<trkpt lat="49.210687" lon="11.817710">
<ele>501.2</ele>
<speed>7.1</speed>
<course>178.1</course>
<desc>Speed 7.1 km/h Distance 28.84 km</desc>
<time>2010-06-13T07:57:43.65</time>
<name>6440</name>
</trkpt>
<trkpt lat="49.210672" lon="11.817710">
<ele>501.3</ele>
<speed>6.8</speed>
<course>191.2</course>
<desc>Speed 6.8 km/h Distance 28.84 km</desc>
<time>2010-06-13T07:57:44.65</time>
<name>6441</name>
</trkpt>
<trkpt lat="49.210655" lon="11.817705">
<ele>501.9</ele>
<speed>7.5</speed>
<course>133.3</course>
<desc>Speed 7.5 km/h Distance 28.84 km</desc>
<time>2010-06-13T07:57:45.65</time>
<name>6442</name>
</trkpt>
<trkpt lat="49.210642" lon="11.817727">
<ele>500.4</ele>
<speed>6.2</speed>
<course>180.0</course>
<desc>Speed 6.2 km/h Distance 28.84 km</desc>
<time>2010-06-13T07:57:46.65</time>
<name>6443</name>
</trkpt>
<trkpt lat="49.210633" lon="11.817727">
<ele>501.4</ele>
<speed>5.9</speed>
<course>140.0</course>
<desc>Speed 5.9 km/h Distance 28.84 km</desc>
<time>2010-06-13T07:57:47.65</time>
<name>6444</name>
</trkpt>
<trkpt lat="49.210622" lon="11.817742">
<ele>501.1</ele>
<speed>5.7</speed>
<course>166.7</course>
<desc>Speed 5.7 km/h Distance 28.85 km</desc>
<time>2010-06-13T07:57:48.65</time>
<name>6445</name>
</trkpt>
<trkpt lat="49.210603" lon="11.817748">
<ele>501.3</ele>
<speed>5.7</speed>
<course>174.4</course>
<desc>Speed 5.7 km/h Distance 28.85 km</desc>
<time>2010-06-13T07:57:49.65</time>
<name>6446</name>
</trkpt>
<trkpt lat="49.210583" lon="11.817752">
<ele>501.3</ele>
<speed>4.9</speed>
<course>162.2</course>
<desc>Speed 4.9 km/h Distance 28.85 km</desc>
<time>2010-06-13T07:57:50.65</time>
<name>6447</name>
</trkpt>
<trkpt lat="49.210570" lon="11.817758">
<ele>501.1</ele>
<speed>6.6</speed>
<course>177.8</course>
<desc>Speed 6.6 km/h Distance 28.85 km</desc>
<time>2010-06-13T07:57:51.66</time>
<name>6448</name>
</trkpt>
<trkpt lat="49.210547" lon="11.817760">
<ele>501.4</ele>
<speed>7.5</speed>
<course>154.0</course>
<desc>Speed 7.5 km/h Distance 28.86 km</desc>
<time>2010-06-13T07:57:52.67</time>
<name>6449</name>
</trkpt>
<trkpt lat="49.210533" lon="11.817770">
<ele>501.0</ele>
<speed>6.8</speed>
<course>136.3</course>
<desc>Speed 6.8 km/h Distance 28.86 km</desc>
<time>2010-06-13T07:57:53.67</time>
<name>6450</name>
</trkpt>
<trkpt lat="49.210512" lon="11.817802">
<ele>496.6</ele>
<speed>6.2</speed>
<course>169.8</course>
<desc>Speed 6.2 km/h Distance 28.86 km</desc>
<time>2010-06-13T07:57:54.67</time>
<name>6451</name>
</trkpt>
<trkpt lat="49.210493" lon="11.817807">
<ele>495.4</ele>
<speed>5.9</speed>
<course>163.8</course>
<desc>Speed 5.9 km/h Distance 28.86 km</desc>
<time>2010-06-13T07:57:55.67</time>
<name>6452</name>
</trkpt>
<trkpt lat="49.210475" lon="11.817815">
<ele>493.5</ele>
<speed>5.7</speed>
<course>155.4</course>
<desc>Speed 5.7 km/h Distance 28.86 km</desc>
<time>2010-06-13T07:57:56.67</time>
<name>6453</name>
</trkpt>
<trkpt lat="49.210463" lon="11.817823">
<ele>491.8</ele>
<speed>5.4</speed>
<course>127.5</course>
<desc>Speed 5.4 km/h Distance 28.87 km</desc>
<time>2010-06-13T07:57:57.67</time>
<name>6454</name>
</trkpt>
<trkpt lat="49.210453" lon="11.817843">
<ele>490.6</ele>
<speed>6.6</speed>
<course>168.6</course>
<desc>Speed 6.6 km/h Distance 28.87 km</desc>
<time>2010-06-13T07:57:58.67</time>
<name>6455</name>
</trkpt>
<trkpt lat="49.210432" lon="11.817850">
<ele>489.0</ele>
<speed>6.6</speed>
<course>194.4</course>
<desc>Speed 6.6 km/h Distance 28.87 km</desc>
<time>2010-06-13T07:57:59.67</time>
<name>6456</name>
</trkpt>
<trkpt lat="49.210402" lon="11.817838">
<ele>490.2</ele>
<speed>8.1</speed>
<course>166.4</course>
<desc>Speed 8.1 km/h Distance 28.87 km</desc>
<time>2010-06-13T07:58:00.67</time>
<name>6457</name>
</trkpt>
<trkpt lat="49.210383" lon="11.817845">
<ele>490.3</ele>
<speed>6.5</speed>
<course>164.7</course>
<desc>Speed 6.5 km/h Distance 28.88 km</desc>
<time>2010-06-13T07:58:01.67</time>
<name>6458</name>
</trkpt>
<trkpt lat="49.210363" lon="11.817853">
<ele>490.7</ele>
<speed>7.5</speed>
<course>156.3</course>
<desc>Speed 7.5 km/h Distance 28.88 km</desc>
<time>2010-06-13T07:58:02.67</time>
<name>6459</name>
</trkpt>
<trkpt lat="49.210348" lon="11.817863">
<ele>490.5</ele>
<speed>6.9</speed>
<course>146.9</course>
<desc>Speed 6.9 km/h Distance 28.88 km</desc>
<time>2010-06-13T07:58:03.67</time>
<name>6460</name>
</trkpt>
<trkpt lat="49.210333" lon="11.817878">
<ele>489.4</ele>
<speed>6.3</speed>
<course>188.8</course>
<desc>Speed 6.3 km/h Distance 28.88 km</desc>
<time>2010-06-13T07:58:04.67</time>
<name>6461</name>
</trkpt>
<trkpt lat="49.210318" lon="11.817875">
<ele>491.1</ele>
<speed>5.8</speed>
<course>201.5</course>
<desc>Speed 5.8 km/h Distance 28.88 km</desc>
<time>2010-06-13T07:58:05.67</time>
<name>6462</name>
</trkpt>
<trkpt lat="49.210302" lon="11.817865">
<ele>491.9</ele>
<speed>5.6</speed>
<course>198.0</course>
<desc>Speed 5.6 km/h Distance 28.89 km</desc>
<time>2010-06-13T07:58:06.67</time>
<name>6463</name>
</trkpt>
<trkpt lat="49.210282" lon="11.817855">
<ele>492.6</ele>
<speed>6.6</speed>
<course>169.2</course>
<desc>Speed 6.6 km/h Distance 28.89 km</desc>
<time>2010-06-13T07:58:07.67</time>
<name>6464</name>
</trkpt>
<trkpt lat="49.210258" lon="11.817862">
<ele>491.9</ele>
<speed>6.0</speed>
<course>186.5</course>
<desc>Speed 6.0 km/h Distance 28.89 km</desc>
<time>2010-06-13T07:58:08.67</time>
<name>6465</name>
</trkpt>
<trkpt lat="49.210240" lon="11.817858">
<ele>492.5</ele>
<speed>5.9</speed>
<course>172.3</course>
<desc>Speed 5.9 km/h Distance 28.89 km</desc>
<time>2010-06-13T07:58:09.67</time>
<name>6466</name>
</trkpt>
<trkpt lat="49.210223" lon="11.817862">
<ele>493.1</ele>
<speed>6.2</speed>
<course>187.1</course>
<desc>Speed 6.2 km/h Distance 28.89 km</desc>
<time>2010-06-13T07:58:10.67</time>
<name>6467</name>
</trkpt>
<trkpt lat="49.210207" lon="11.817858">
<ele>493.5</ele>
<speed>6.2</speed>
<course>171.0</course>
<desc>Speed 6.2 km/h Distance 28.90 km</desc>
<time>2010-06-13T07:58:11.67</time>
<name>6468</name>
</trkpt>
<trkpt lat="49.210193" lon="11.817862">
<ele>493.2</ele>
<speed>5.9</speed>
<course>124.3</course>
<desc>Speed 5.9 km/h Distance 28.90 km</desc>
<time>2010-06-13T07:58:12.67</time>
<name>6469</name>
</trkpt>
<trkpt lat="49.210187" lon="11.817877">
<ele>492.8</ele>
<speed>5.4</speed>
<course>146.8</course>
<desc>Speed 5.4 km/h Distance 28.90 km</desc>
<time>2010-06-13T07:58:13.67</time>
<name>6470</name>
</trkpt>
<trkpt lat="49.210173" lon="11.817890">
<ele>493.2</ele>
<speed>3.6</speed>
<course>145.9</course>
<desc>Speed 3.6 km/h Distance 28.90 km</desc>
<time>2010-06-13T07:58:14.67</time>
<name>6471</name>
</trkpt>
<trkpt lat="49.210168" lon="11.817895">
<ele>493.8</ele>
<speed>1.7</speed>
<course>123.3</course>
<desc>Speed 1.7 km/h Distance 28.90 km</desc>
<time>2010-06-13T07:58:15.67</time>
<name>6472</name>
</trkpt>
<trkpt lat="49.210163" lon="11.817907">
<ele>492.8</ele>
<speed>2.5</speed>
<course>90.0</course>
<desc>Speed 2.5 km/h Distance 28.90 km</desc>
<time>2010-06-13T07:58:16.67</time>
<name>6473</name>
</trkpt>
<trkpt lat="49.210163" lon="11.817922">
<ele>491.4</ele>
<speed>3.8</speed>
<course>132.9</course>
<desc>Speed 3.8 km/h Distance 28.90 km</desc>
<time>2010-06-13T07:58:17.67</time>
<name>6474</name>
</trkpt>
<trkpt lat="49.210158" lon="11.817930">
<ele>490.7</ele>
<speed>4.3</speed>
<course>165.1</course>
<desc>Speed 4.3 km/h Distance 28.90 km</desc>
<time>2010-06-13T07:58:18.67</time>
<name>6475</name>
</trkpt>
<trkpt lat="49.210150" lon="11.817933">
<ele>490.0</ele>
<speed>3.6</speed>
<course>178.8</course>
<desc>Speed 3.6 km/h Distance 28.91 km</desc>
<time>2010-06-13T07:58:19.67</time>
<name>6476</name>
</trkpt>
<trkpt lat="49.210137" lon="11.817933">
<ele>490.3</ele>
<speed>4.1</speed>
<course>168.8</course>
<desc>Speed 4.1 km/h Distance 28.91 km</desc>
<time>2010-06-13T07:58:20.67</time>
<name>6477</name>
</trkpt>
<trkpt lat="49.210125" lon="11.817937">
<ele>490.2</ele>
<speed>4.5</speed>
<course>166.0</course>
<desc>Speed 4.5 km/h Distance 28.91 km</desc>
<time>2010-06-13T07:58:21.67</time>
<name>6478</name>
</trkpt>
<trkpt lat="49.210103" lon="11.817945">
<ele>489.9</ele>
<speed>6.3</speed>
<course>149.9</course>
<desc>Speed 6.3 km/h Distance 28.91 km</desc>
<time>2010-06-13T07:58:22.67</time>
<name>6479</name>
</trkpt>
<trkpt lat="49.210088" lon="11.817958">
<ele>489.4</ele>
<speed>6.7</speed>
<course>132.6</course>
<desc>Speed 6.7 km/h Distance 28.91 km</desc>
<time>2010-06-13T07:58:23.67</time>
<name>6480</name>
</trkpt>
<trkpt lat="49.210078" lon="11.817975">
<ele>488.7</ele>
<speed>5.3</speed>
<course>55.8</course>
<desc>Speed 5.3 km/h Distance 28.91 km</desc>
<time>2010-06-13T07:58:24.67</time>
<name>6481</name>
</trkpt>
<trkpt lat="49.210085" lon="11.817990">
<ele>487.6</ele>
<speed>3.1</speed>
<course>146.9</course>
<desc>Speed 3.1 km/h Distance 28.92 km</desc>
<time>2010-06-13T07:58:25.67</time>
<name>6482</name>
</trkpt>
<trkpt lat="49.210070" lon="11.818005">
<ele>487.2</ele>
<speed>4.0</speed>
<course>90.0</course>
<desc>Speed 4.0 km/h Distance 28.92 km</desc>
<time>2010-06-13T07:58:26.67</time>
<name>6483</name>
</trkpt>
<trkpt lat="49.210070" lon="11.818020">
<ele>486.4</ele>
<speed>3.1</speed>
<course>90.0</course>
<desc>Speed 3.1 km/h Distance 28.92 km</desc>
<time>2010-06-13T07:58:27.67</time>
<name>6484</name>
</trkpt>
<trkpt lat="49.210070" lon="11.818028">
<ele>485.7</ele>
<speed>3.4</speed>
<course>124.1</course>
<desc>Speed 3.4 km/h Distance 28.92 km</desc>
<time>2010-06-13T07:58:28.67</time>
<name>6485</name>
</trkpt>
<trkpt lat="49.210063" lon="11.818043">
<ele>484.1</ele>
<speed>4.1</speed>
<course>164.5</course>
<desc>Speed 4.1 km/h Distance 28.92 km</desc>
<time>2010-06-13T07:58:29.67</time>
<name>6486</name>
</trkpt>
<trkpt lat="49.210052" lon="11.818048">
<ele>482.1</ele>
<speed>4.6</speed>
<course>167.8</course>
<desc>Speed 4.6 km/h Distance 28.92 km</desc>
<time>2010-06-13T07:58:30.67</time>
<name>6487</name>
</trkpt>
<trkpt lat="49.210037" lon="11.818053">
<ele>481.5</ele>
<speed>4.9</speed>
<course>132.9</course>
<desc>Speed 4.9 km/h Distance 28.92 km</desc>
<time>2010-06-13T07:58:31.67</time>
<name>6488</name>
</trkpt>
<trkpt lat="49.210032" lon="11.818062">
<ele>481.0</ele>
<speed>4.2</speed>
<course>230.1</course>
<desc>Speed 4.2 km/h Distance 28.92 km</desc>
<time>2010-06-13T07:58:32.67</time>
<name>6489</name>
</trkpt>
<trkpt lat="49.210022" lon="11.818043">
<ele>483.5</ele>
<speed>4.7</speed>
<course>175.6</course>
<desc>Speed 4.7 km/h Distance 28.93 km</desc>
<time>2010-06-13T07:58:33.67</time>
<name>6490</name>
</trkpt>
<trkpt lat="49.210012" lon="11.818043">
<ele>483.8</ele>
<speed>4.8</speed>
<course>184.7</course>
<desc>Speed 4.8 km/h Distance 28.93 km</desc>
<time>2010-06-13T07:58:34.67</time>
<name>6491</name>
</trkpt>
<trkpt lat="49.210000" lon="11.818042">
<ele>484.0</ele>
<speed>3.8</speed>
<course>154.4</course>
<desc>Speed 3.8 km/h Distance 28.93 km</desc>
<time>2010-06-13T07:58:35.67</time>
<name>6492</name>
</trkpt>
<trkpt lat="49.209993" lon="11.818047">
<ele>484.2</ele>
<speed>4.3</speed>
<course>161.8</course>
<desc>Speed 4.3 km/h Distance 28.93 km</desc>
<time>2010-06-13T07:58:36.67</time>
<name>6493</name>
</trkpt>
<trkpt lat="49.209983" lon="11.818052">
<ele>484.3</ele>
<speed>4.4</speed>
<course>180.0</course>
<desc>Speed 4.4 km/h Distance 28.93 km</desc>
<time>2010-06-13T07:58:37.67</time>
<name>6494</name>
</trkpt>
<trkpt lat="49.209980" lon="11.818052">
<ele>484.3</ele>
<speed>3.7</speed>
<course>128.1</course>
<desc>Speed 3.7 km/h Distance 28.93 km</desc>
<time>2010-06-13T07:58:38.67</time>
<name>6495</name>
</trkpt>
<trkpt lat="49.209977" lon="11.818058">
<ele>484.3</ele>
<speed>3.5</speed>
<course>127.5</course>
<desc>Speed 3.5 km/h Distance 28.93 km</desc>
<time>2010-06-13T07:58:39.67</time>
<name>6496</name>
</trkpt>
<trkpt lat="49.209968" lon="11.818075">
<ele>484.5</ele>
<speed>3.8</speed>
<course>151.4</course>
<desc>Speed 3.8 km/h Distance 28.93 km</desc>
<time>2010-06-13T07:58:40.67</time>
<name>6497</name>
</trkpt>
<trkpt lat="49.209958" lon="11.818083">
<ele>485.0</ele>
<speed>3.6</speed>
<course>188.1</course>
<desc>Speed 3.6 km/h Distance 28.93 km</desc>
<time>2010-06-13T07:58:41.67</time>
<name>6498</name>
</trkpt>
<trkpt lat="49.209943" lon="11.818080">
<ele>485.5</ele>
<speed>4.4</speed>
<course>206.4</course>
<desc>Speed 4.4 km/h Distance 28.94 km</desc>
<time>2010-06-13T07:58:42.67</time>
<name>6499</name>
</trkpt>
<trkpt lat="49.209937" lon="11.818075">
<ele>486.4</ele>
<speed>3.0</speed>
<course>176.2</course>
<desc>Speed 3.0 km/h Distance 28.94 km</desc>
<time>2010-06-13T07:58:43.67</time>
<name>6500</name>
</trkpt>
<trkpt lat="49.209922" lon="11.818077">
<ele>486.8</ele>
<speed>4.4</speed>
<course>138.1</course>
<desc>Speed 4.4 km/h Distance 28.94 km</desc>
<time>2010-06-13T07:58:44.67</time>
<name>6501</name>
</trkpt>
<trkpt lat="49.209908" lon="11.818095">
<ele>486.6</ele>
<speed>4.0</speed>
<course>161.9</course>
<desc>Speed 4.0 km/h Distance 28.94 km</desc>
<time>2010-06-13T07:58:45.67</time>
<name>6502</name>
</trkpt>
<trkpt lat="49.209895" lon="11.818102">
<ele>486.7</ele>
<speed>4.1</speed>
<course>168.8</course>
<desc>Speed 4.1 km/h Distance 28.94 km</desc>
<time>2010-06-13T07:58:46.67</time>
<name>6503</name>
</trkpt>
<trkpt lat="49.209878" lon="11.818107">
<ele>486.8</ele>
<speed>4.4</speed>
<course>131.1</course>
<desc>Speed 4.4 km/h Distance 28.94 km</desc>
<time>2010-06-13T07:58:47.67</time>
<name>6504</name>
</trkpt>
<trkpt lat="49.209872" lon="11.818118">
<ele>487.9</ele>
<speed>4.6</speed>
<course>172.6</course>
<desc>Speed 4.6 km/h Distance 28.95 km</desc>
<time>2010-06-13T07:58:48.67</time>
<name>6505</name>
</trkpt>
<trkpt lat="49.209865" lon="11.818120">
<ele>488.8</ele>
<speed>3.9</speed>
<course>187.4</course>
<desc>Speed 3.9 km/h Distance 28.95 km</desc>
<time>2010-06-13T07:58:49.67</time>
<name>6506</name>
</trkpt>
<trkpt lat="49.209858" lon="11.818118">
<ele>490.4</ele>
<speed>3.8</speed>
<course>180.0</course>
<desc>Speed 3.8 km/h Distance 28.95 km</desc>
<time>2010-06-13T07:58:50.67</time>
<name>6507</name>
</trkpt>
<trkpt lat="49.209850" lon="11.818118">
<ele>492.2</ele>
<speed>3.6</speed>
<course>153.6</course>
<desc>Speed 3.6 km/h Distance 28.95 km</desc>
<time>2010-06-13T07:58:51.67</time>
<name>6508</name>
</trkpt>
<trkpt lat="49.209843" lon="11.818123">
<ele>494.1</ele>
<speed>3.1</speed>
<course>152.1</course>
<desc>Speed 3.1 km/h Distance 28.95 km</desc>
<time>2010-06-13T07:58:52.67</time>
<name>6509</name>
</trkpt>
<trkpt lat="49.209835" lon="11.818130">
<ele>495.3</ele>
<speed>4.0</speed>
<course>156.6</course>
<desc>Speed 4.0 km/h Distance 28.95 km</desc>
<time>2010-06-13T07:58:53.67</time>
<name>6510</name>
</trkpt>
<trkpt lat="49.209825" lon="11.818137">
<ele>495.8</ele>
<speed>3.6</speed>
<course>164.0</course>
<desc>Speed 3.6 km/h Distance 28.95 km</desc>
<time>2010-06-13T07:58:54.67</time>
<name>6511</name>
</trkpt>
<trkpt lat="49.209813" lon="11.818142">
<ele>495.6</ele>
<speed>3.9</speed>
<course>131.7</course>
<desc>Speed 3.9 km/h Distance 28.95 km</desc>
<time>2010-06-13T07:58:55.67</time>
<name>6512</name>
</trkpt>
<trkpt lat="49.209802" lon="11.818162">
<ele>496.6</ele>
<speed>4.0</speed>
<course>128.1</course>
<desc>Speed 4.0 km/h Distance 28.95 km</desc>
<time>2010-06-13T07:58:56.67</time>
<name>6513</name>
</trkpt>
<trkpt lat="49.209798" lon="11.818168">
<ele>496.9</ele>
<speed>3.1</speed>
<course>184.7</course>
<desc>Speed 3.1 km/h Distance 28.95 km</desc>
<time>2010-06-13T07:58:57.67</time>
<name>6514</name>
</trkpt>
<trkpt lat="49.209787" lon="11.818167">
<ele>497.8</ele>
<speed>4.1</speed>
<course>168.8</course>
<desc>Speed 4.1 km/h Distance 28.96 km</desc>
<time>2010-06-13T07:58:58.67</time>
<name>6515</name>
</trkpt>
<trkpt lat="49.209770" lon="11.818172">
<ele>497.2</ele>
<speed>4.2</speed>
<course>171.0</course>
<desc>Speed 4.2 km/h Distance 28.96 km</desc>
<time>2010-06-13T07:58:59.67</time>
<name>6516</name>
</trkpt>
<trkpt lat="49.209757" lon="11.818175">
<ele>498.0</ele>
<speed>4.0</speed>
<course>161.8</course>
<desc>Speed 4.0 km/h Distance 28.96 km</desc>
<time>2010-06-13T07:59:00.67</time>
<name>6517</name>
</trkpt>
<trkpt lat="49.209747" lon="11.818180">
<ele>499.0</ele>
<speed>3.7</speed>
<course>141.9</course>
<desc>Speed 3.7 km/h Distance 28.96 km</desc>
<time>2010-06-13T07:59:01.67</time>
<name>6518</name>
</trkpt>
<trkpt lat="49.209738" lon="11.818190">
<ele>497.9</ele>
<speed>3.3</speed>
<course>202.3</course>
<desc>Speed 3.3 km/h Distance 28.96 km</desc>
<time>2010-06-13T07:59:02.67</time>
<name>6519</name>
</trkpt>
<trkpt lat="49.209725" lon="11.818182">
<ele>497.6</ele>
<speed>2.8</speed>
<course>184.4</course>
<desc>Speed 2.8 km/h Distance 28.96 km</desc>
<time>2010-06-13T07:59:03.67</time>
<name>6520</name>
</trkpt>
<trkpt lat="49.209715" lon="11.818180">
<ele>498.0</ele>
<speed>3.6</speed>
<course>282.3</course>
<desc>Speed 3.6 km/h Distance 28.96 km</desc>
<time>2010-06-13T07:59:04.67</time>
<name>6521</name>
</trkpt>
<trkpt lat="49.209717" lon="11.818168">
<ele>499.6</ele>
<speed>3.0</speed>
<course>148.4</course>
<desc>Speed 3.0 km/h Distance 28.97 km</desc>
<time>2010-06-13T07:59:05.67</time>
<name>6522</name>
</trkpt>
<trkpt lat="49.209713" lon="11.818172">
<ele>500.0</ele>
<speed>2.9</speed>
<course>121.4</course>
<desc>Speed 2.9 km/h Distance 28.97 km</desc>
<time>2010-06-13T07:59:06.67</time>
<name>6523</name>
</trkpt>
<trkpt lat="49.209710" lon="11.818180">
<ele>500.2</ele>
<speed>4.0</speed>
<course>168.8</course>
<desc>Speed 4.0 km/h Distance 28.97 km</desc>
<time>2010-06-13T07:59:07.67</time>
<name>6524</name>
</trkpt>
<trkpt lat="49.209698" lon="11.818183">
<ele>499.9</ele>
<speed>3.8</speed>
<course>161.8</course>
<desc>Speed 3.8 km/h Distance 28.97 km</desc>
<time>2010-06-13T07:59:08.67</time>
<name>6525</name>
</trkpt>
<trkpt lat="49.209688" lon="11.818188">
<ele>499.9</ele>
<speed>3.6</speed>
<course>146.3</course>
<desc>Speed 3.6 km/h Distance 28.97 km</desc>
<time>2010-06-13T07:59:09.67</time>
<name>6526</name>
</trkpt>
<trkpt lat="49.209685" lon="11.818192">
<ele>501.1</ele>
<speed>1.9</speed>
<course>49.7</course>
<desc>Speed 1.9 km/h Distance 28.97 km</desc>
<time>2010-06-13T07:59:10.67</time>
<name>6527</name>
</trkpt>
<trkpt lat="49.209693" lon="11.818207">
<ele>501.4</ele>
<speed>1.4</speed>
<course>33.7</course>
<desc>Speed 1.4 km/h Distance 28.97 km</desc>
<time>2010-06-13T07:59:11.67</time>
<name>6528</name>
</trkpt>
<trkpt lat="49.209700" lon="11.818213">
<ele>502.1</ele>
<speed>1.0</speed>
<course>318.6</course>
<desc>Speed 1.0 km/h Distance 28.97 km</desc>
<time>2010-06-13T07:59:12.67</time>
<name>6529</name>
</trkpt>
<trkpt lat="49.209705" lon="11.818207">
<ele>503.4</ele>
<speed>1.0</speed>
<course>217.2</course>
<desc>Speed 1.0 km/h Distance 28.97 km</desc>
<time>2010-06-13T07:59:13.67</time>
<name>6530</name>
</trkpt>
<trkpt lat="49.209703" lon="11.818205">
<ele>504.8</ele>
<speed>1.0</speed>
<course>232.4</course>
<desc>Speed 1.0 km/h Distance 28.97 km</desc>
<time>2010-06-13T07:59:14.67</time>
<name>6531</name>
</trkpt>
<trkpt lat="49.209697" lon="11.818192">
<ele>505.1</ele>
<speed>1.8</speed>
<course>53.0</course>
<desc>Speed 1.8 km/h Distance 28.97 km</desc>
<time>2010-06-13T07:59:15.67</time>
<name>6532</name>
</trkpt>
<trkpt lat="49.209700" lon="11.818198">
<ele>503.4</ele>
<speed>1.0</speed>
<course>236.7</course>
<desc>Speed 1.0 km/h Distance 28.97 km</desc>
<time>2010-06-13T07:59:16.67</time>
<name>6533</name>
</trkpt>
<trkpt lat="49.209690" lon="11.818175">
<ele>504.7</ele>
<speed>1.3</speed>
<course>259.2</course>
<desc>Speed 1.3 km/h Distance 28.98 km</desc>
<time>2010-06-13T07:59:17.67</time>
<name>6534</name>
</trkpt>
<trkpt lat="49.209688" lon="11.818162">
<ele>505.9</ele>
<speed>2.0</speed>
<course>197.5</course>
<desc>Speed 2.0 km/h Distance 28.98 km</desc>
<time>2010-06-13T07:59:18.67</time>
<name>6535</name>
</trkpt>
<trkpt lat="49.209682" lon="11.818158">
<ele>505.1</ele>
<speed>1.2</speed>
<course>242.6</course>
<desc>Speed 1.2 km/h Distance 28.98 km</desc>
<time>2010-06-13T07:59:19.67</time>
<name>6536</name>
</trkpt>
<trkpt lat="49.209680" lon="11.818153">
<ele>506.4</ele>
<speed>0.2</speed>
<course>249.1</course>
<desc>Speed 0.2 km/h Distance 28.98 km</desc>
<time>2010-06-13T07:59:20.67</time>
<name>6537</name>
</trkpt>
<trkpt lat="49.209678" lon="11.818147">
<ele>506.0</ele>
<speed>0.4</speed>
<course>213.7</course>
<desc>Speed 0.4 km/h Distance 28.98 km</desc>
<time>2010-06-13T07:59:21.67</time>
<name>6538</name>
</trkpt>
<trkpt lat="49.209675" lon="11.818143">
<ele>506.6</ele>
<speed>0.8</speed>
<course>224.5</course>
<desc>Speed 0.8 km/h Distance 28.98 km</desc>
<time>2010-06-13T07:59:22.67</time>
<name>6539</name>
</trkpt>
<trkpt lat="49.209672" lon="11.818138">
<ele>505.5</ele>
<speed>0.4</speed>
<course>347.4</course>
<desc>Speed 0.4 km/h Distance 28.98 km</desc>
<time>2010-06-13T07:59:23.67</time>
<name>6540</name>
</trkpt>
<trkpt lat="49.209682" lon="11.818135">
<ele>507.0</ele>
<speed>1.0</speed>
<course>243.0</course>
<desc>Speed 1.0 km/h Distance 28.98 km</desc>
<time>2010-06-13T07:59:24.67</time>
<name>6541</name>
</trkpt>
<trkpt lat="49.209678" lon="11.818125">
<ele>507.3</ele>
<speed>0.2</speed>
<course>347.4</course>
<desc>Speed 0.2 km/h Distance 28.98 km</desc>
<time>2010-06-13T07:59:25.67</time>
<name>6542</name>
</trkpt>
<trkpt lat="49.209685" lon="11.818123">
<ele>509.2</ele>
<speed>0.5</speed>
<course>338.5</course>
<desc>Speed 0.5 km/h Distance 28.98 km</desc>
<time>2010-06-13T07:59:26.67</time>
<name>6543</name>
</trkpt>
<trkpt lat="49.209693" lon="11.818118">
<ele>511.4</ele>
<speed>0.5</speed>
<course>249.1</course>
<desc>Speed 0.5 km/h Distance 28.98 km</desc>
<time>2010-06-13T07:59:27.67</time>
<name>6544</name>
</trkpt>
<trkpt lat="49.209690" lon="11.818105">
<ele>513.1</ele>
<speed>0.3</speed>
<course>270.0</course>
<desc>Speed 0.3 km/h Distance 28.98 km</desc>
<time>2010-06-13T07:59:28.67</time>
<name>6545</name>
</trkpt>
<trkpt lat="49.209690" lon="11.818095">
<ele>513.0</ele>
<speed>0.4</speed>
<course>251.3</course>
<desc>Speed 0.4 km/h Distance 28.99 km</desc>
<time>2010-06-13T07:59:29.67</time>
<name>6546</name>
</trkpt>
<trkpt lat="49.209687" lon="11.818080">
<ele>514.8</ele>
<speed>0.2</speed>
<course>282.3</course>
<desc>Speed 0.2 km/h Distance 28.99 km</desc>
<time>2010-06-13T07:59:30.67</time>
<name>6547</name>
</trkpt>
<trkpt lat="49.209688" lon="11.818068">
<ele>516.4</ele>
<speed>0.3</speed>
<course>249.1</course>
<desc>Speed 0.3 km/h Distance 28.99 km</desc>
<time>2010-06-13T07:59:31.67</time>
<name>6548</name>
</trkpt>
<trkpt lat="49.209687" lon="11.818062">
<ele>518.1</ele>
<speed>0.2</speed>
<course>284.4</course>
<desc>Speed 0.2 km/h Distance 28.99 km</desc>
<time>2010-06-13T07:59:32.67</time>
<name>6549</name>
</trkpt>
<trkpt lat="49.209688" lon="11.818052">
<ele>519.5</ele>
<speed>0.6</speed>
<course>270.0</course>
<desc>Speed 0.6 km/h Distance 28.99 km</desc>
<time>2010-06-13T07:59:33.67</time>
<name>6550</name>
</trkpt>
<trkpt lat="49.209688" lon="11.818045">
<ele>521.0</ele>
<speed>0.5</speed>
<course>297.4</course>
<desc>Speed 0.5 km/h Distance 28.99 km</desc>
<time>2010-06-13T07:59:34.67</time>
<name>6551</name>
</trkpt>
<trkpt lat="49.209690" lon="11.818040">
<ele>521.5</ele>
<speed>0.9</speed>
<course>293.5</course>
<desc>Speed 0.9 km/h Distance 28.99 km</desc>
<time>2010-06-13T07:59:35.67</time>
<name>6552</name>
</trkpt>
<trkpt lat="49.209693" lon="11.818028">
<ele>523.3</ele>
<speed>1.0</speed>
<course>238.6</course>
<desc>Speed 1.0 km/h Distance 28.99 km</desc>
<time>2010-06-13T07:59:36.67</time>
<name>6553</name>
</trkpt>
<trkpt lat="49.209690" lon="11.818020">
<ele>525.7</ele>
<speed>1.0</speed>
<course>326.8</course>
<desc>Speed 1.0 km/h Distance 28.99 km</desc>
<time>2010-06-13T07:59:37.67</time>
<name>6554</name>
</trkpt>
<trkpt lat="49.209698" lon="11.818012">
<ele>528.9</ele>
<speed>1.4</speed>
<course>233.9</course>
<desc>Speed 1.4 km/h Distance 28.99 km</desc>
<time>2010-06-13T07:59:38.67</time>
<name>6555</name>
</trkpt>
<trkpt lat="49.209697" lon="11.818008">
<ele>530.5</ele>
<speed>0.5</speed>
<course>128.1</course>
<desc>Speed 0.5 km/h Distance 28.99 km</desc>
<time>2010-06-13T07:59:39.67</time>
<name>6556</name>
</trkpt>
<trkpt lat="49.209695" lon="11.818012">
<ele>530.9</ele>
<speed>0.5</speed>
<course>217.2</course>
<desc>Speed 0.5 km/h Distance 28.99 km</desc>
<time>2010-06-13T07:59:40.67</time>
<name>6557</name>
</trkpt>
<trkpt lat="49.209693" lon="11.818010">
<ele>531.5</ele>
<speed>0.5</speed>
<course>270.0</course>
<desc>Speed 0.5 km/h Distance 28.99 km</desc>
<time>2010-06-13T07:59:41.67</time>
<name>6558</name>
</trkpt>
<trkpt lat="49.209693" lon="11.818008">
<ele>532.1</ele>
<speed>0.4</speed>
<course>270.0</course>
<desc>Speed 0.4 km/h Distance 28.99 km</desc>
<time>2010-06-13T07:59:42.67</time>
<name>6559</name>
</trkpt>
<trkpt lat="49.209693" lon="11.818008">
<ele>532.8</ele>
<speed>0.6</speed>
<course>270.0</course>
<desc>Speed 0.6 km/h Distance 28.99 km</desc>
<time>2010-06-13T07:59:43.67</time>
<name>6560</name>
</trkpt>
<trkpt lat="49.209693" lon="11.818007">
<ele>533.2</ele>
<speed>0.4</speed>
<course>90.0</course>
<desc>Speed 0.4 km/h Distance 28.99 km</desc>
<time>2010-06-13T07:59:44.67</time>
<name>6561</name>
</trkpt>
<trkpt lat="49.209693" lon="11.818008">
<ele>533.0</ele>
<speed>0.4</speed>
<course>238.6</course>
<desc>Speed 0.4 km/h Distance 28.99 km</desc>
<time>2010-06-13T07:59:45.67</time>
<name>6562</name>
</trkpt>
<trkpt lat="49.209690" lon="11.818000">
<ele>533.5</ele>
<speed>1.5</speed>
<course>128.1</course>
<desc>Speed 1.5 km/h Distance 28.99 km</desc>
<time>2010-06-13T07:59:46.67</time>
<name>6563</name>
</trkpt>
<trkpt lat="49.209688" lon="11.818003">
<ele>533.1</ele>
<speed>0.4</speed>
<course>107.1</course>
<desc>Speed 0.4 km/h Distance 28.99 km</desc>
<time>2010-06-13T07:59:47.67</time>
<name>6564</name>
</trkpt>
<trkpt lat="49.209687" lon="11.818012">
<ele>533.2</ele>
<speed>1.8</speed>
<course>110.9</course>
<desc>Speed 1.8 km/h Distance 29.00 km</desc>
<time>2010-06-13T07:59:48.67</time>
<name>6565</name>
</trkpt>
<trkpt lat="49.209682" lon="11.818032">
<ele>531.5</ele>
<speed>2.7</speed>
<course>137.4</course>
<desc>Speed 2.7 km/h Distance 29.00 km</desc>
<time>2010-06-13T07:59:49.67</time>
<name>6566</name>
</trkpt>
<trkpt lat="49.209673" lon="11.818043">
<ele>531.3</ele>
<speed>2.6</speed>
<course>67.4</course>
<desc>Speed 2.6 km/h Distance 29.00 km</desc>
<time>2010-06-13T07:59:50.67</time>
<name>6567</name>
</trkpt>
<trkpt lat="49.209678" lon="11.818062">
<ele>532.7</ele>
<speed>2.9</speed>
<course>110.9</course>
<desc>Speed 2.9 km/h Distance 29.00 km</desc>
<time>2010-06-13T07:59:51.67</time>
<name>6568</name>
</trkpt>
<trkpt lat="49.209677" lon="11.818068">
<ele>532.8</ele>
<speed>2.7</speed>
<course>47.4</course>
<desc>Speed 2.7 km/h Distance 29.00 km</desc>
<time>2010-06-13T07:59:52.67</time>
<name>6569</name>
</trkpt>
<trkpt lat="49.209687" lon="11.818085">
<ele>535.3</ele>
<speed>2.7</speed>
<course>55.8</course>
<desc>Speed 2.7 km/h Distance 29.00 km</desc>
<time>2010-06-13T07:59:53.67</time>
<name>6570</name>
</trkpt>
<trkpt lat="49.209693" lon="11.818100">
<ele>536.8</ele>
<speed>2.9</speed>
<course>154.8</course>
<desc>Speed 2.9 km/h Distance 29.00 km</desc>
<time>2010-06-13T07:59:54.67</time>
<name>6571</name>
</trkpt>
<trkpt lat="49.209682" lon="11.818108">
<ele>536.4</ele>
<speed>3.8</speed>
<course>168.8</course>
<desc>Speed 3.8 km/h Distance 29.00 km</desc>
<time>2010-06-13T07:59:55.67</time>
<name>6572</name>
</trkpt>
<trkpt lat="49.209670" lon="11.818112">
<ele>537.3</ele>
<speed>4.1</speed>
<course>146.3</course>
<desc>Speed 4.1 km/h Distance 29.01 km</desc>
<time>2010-06-13T07:59:56.67</time>
<name>6573</name>
</trkpt>
<trkpt lat="49.209667" lon="11.818115">
<ele>538.4</ele>
<speed>4.0</speed>
<course>174.7</course>
<desc>Speed 4.0 km/h Distance 29.01 km</desc>
<time>2010-06-13T07:59:57.67</time>
<name>6574</name>
</trkpt>
<trkpt lat="49.209653" lon="11.818117">
<ele>538.2</ele>
<speed>3.7</speed>
<course>180.0</course>
<desc>Speed 3.7 km/h Distance 29.01 km</desc>
<time>2010-06-13T07:59:58.67</time>
<name>6575</name>
</trkpt>
<trkpt lat="49.209642" lon="11.818117">
<ele>538.9</ele>
<speed>4.1</speed>
<course>169.6</course>
<desc>Speed 4.1 km/h Distance 29.01 km</desc>
<time>2010-06-13T07:59:59.67</time>
<name>6576</name>
</trkpt>
<trkpt lat="49.209630" lon="11.818120">
<ele>538.2</ele>
<speed>4.0</speed>
<course>155.1</course>
<desc>Speed 4.0 km/h Distance 29.01 km</desc>
<time>2010-06-13T08:00:00.67</time>
<name>6577</name>
</trkpt>
<trkpt lat="49.209618" lon="11.818128">
<ele>538.5</ele>
<speed>3.7</speed>
<course>137.7</course>
<desc>Speed 3.7 km/h Distance 29.01 km</desc>
<time>2010-06-13T08:00:01.67</time>
<name>6578</name>
</trkpt>
<trkpt lat="49.209610" lon="11.818140">
<ele>539.1</ele>
<speed>3.3</speed>
<course>130.3</course>
<desc>Speed 3.3 km/h Distance 29.01 km</desc>
<time>2010-06-13T08:00:02.67</time>
<name>6579</name>
</trkpt>
<trkpt lat="49.209602" lon="11.818155">
<ele>539.2</ele>
<speed>4.0</speed>
<course>132.6</course>
<desc>Speed 4.0 km/h Distance 29.01 km</desc>
<time>2010-06-13T08:00:03.67</time>
<name>6580</name>
</trkpt>
<trkpt lat="49.209592" lon="11.818172">
<ele>538.3</ele>
<speed>4.3</speed>
<course>121.4</course>
<desc>Speed 4.3 km/h Distance 29.02 km</desc>
<time>2010-06-13T08:00:04.67</time>
<name>6581</name>
</trkpt>
<trkpt lat="49.209585" lon="11.818188">
<ele>539.3</ele>
<speed>4.6</speed>
<course>133.9</course>
<desc>Speed 4.6 km/h Distance 29.02 km</desc>
<time>2010-06-13T08:00:05.67</time>
<name>6582</name>
</trkpt>
<trkpt lat="49.209577" lon="11.818202">
<ele>539.2</ele>
<speed>4.0</speed>
<course>111.0</course>
<desc>Speed 4.0 km/h Distance 29.02 km</desc>
<time>2010-06-13T08:00:06.67</time>
<name>6583</name>
</trkpt>
<trkpt lat="49.209572" lon="11.818222">
<ele>537.9</ele>
<speed>3.7</speed>
<course>140.7</course>
<desc>Speed 3.7 km/h Distance 29.02 km</desc>
<time>2010-06-13T08:00:07.67</time>
<name>6584</name>
</trkpt>
<trkpt lat="49.209558" lon="11.818238">
<ele>535.6</ele>
<speed>3.7</speed>
<course>196.0</course>
<desc>Speed 3.7 km/h Distance 29.02 km</desc>
<time>2010-06-13T08:00:08.67</time>
<name>6585</name>
</trkpt>
<trkpt lat="49.209543" lon="11.818232">
<ele>536.0</ele>
<speed>4.7</speed>
<course>252.9</course>
<desc>Speed 4.7 km/h Distance 29.02 km</desc>
<time>2010-06-13T08:00:09.67</time>
<name>6586</name>
</trkpt>
<trkpt lat="49.209542" lon="11.818223">
<ele>535.4</ele>
<speed>4.3</speed>
<course>188.1</course>
<desc>Speed 4.3 km/h Distance 29.02 km</desc>
<time>2010-06-13T08:00:10.67</time>
<name>6587</name>
</trkpt>
<trkpt lat="49.209527" lon="11.818220">
<ele>534.7</ele>
<speed>3.9</speed>
<course>215.5</course>
<desc>Speed 3.9 km/h Distance 29.03 km</desc>
<time>2010-06-13T08:00:11.67</time>
<name>6588</name>
</trkpt>
<trkpt lat="49.209508" lon="11.818200">
<ele>535.3</ele>
<speed>3.6</speed>
<course>207.0</course>
<desc>Speed 3.6 km/h Distance 29.03 km</desc>
<time>2010-06-13T08:00:12.67</time>
<name>6589</name>
</trkpt>
<trkpt lat="49.209493" lon="11.818188">
<ele>535.0</ele>
<speed>4.4</speed>
<course>191.4</course>
<desc>Speed 4.4 km/h Distance 29.03 km</desc>
<time>2010-06-13T08:00:13.67</time>
<name>6590</name>
</trkpt>
<trkpt lat="49.209472" lon="11.818182">
<ele>536.3</ele>
<speed>4.8</speed>
<course>207.6</course>
<desc>Speed 4.8 km/h Distance 29.03 km</desc>
<time>2010-06-13T08:00:14.67</time>
<name>6591</name>
</trkpt>
<trkpt lat="49.209455" lon="11.818168">
<ele>536.7</ele>
<speed>4.0</speed>
<course>196.6</course>
<desc>Speed 4.0 km/h Distance 29.04 km</desc>
<time>2010-06-13T08:00:15.67</time>
<name>6592</name>
</trkpt>
<trkpt lat="49.209437" lon="11.818160">
<ele>535.3</ele>
<speed>3.2</speed>
<course>174.7</course>
<desc>Speed 3.2 km/h Distance 29.04 km</desc>
<time>2010-06-13T08:00:16.67</time>
<name>6593</name>
</trkpt>
<trkpt lat="49.209390" lon="11.818167">
<ele>532.5</ele>
<speed>5.0</speed>
<course>177.3</course>
<desc>Speed 5.0 km/h Distance 29.04 km</desc>
<time>2010-06-13T08:00:18.67</time>
<name>6594</name>
</trkpt>
<trkpt lat="49.209370" lon="11.818168">
<ele>531.7</ele>
<speed>4.8</speed>
<course>180.0</course>
<desc>Speed 4.8 km/h Distance 29.04 km</desc>
<time>2010-06-13T08:00:19.67</time>
<name>6595</name>
</trkpt>
<trkpt lat="49.209352" lon="11.818168">
<ele>532.0</ele>
<speed>3.8</speed>
<course>193.1</course>
<desc>Speed 3.8 km/h Distance 29.05 km</desc>
<time>2010-06-13T08:00:20.67</time>
<name>6596</name>
</trkpt>
<trkpt lat="49.209333" lon="11.818162">
<ele>532.3</ele>
<speed>3.5</speed>
<course>185.0</course>
<desc>Speed 3.5 km/h Distance 29.05 km</desc>
<time>2010-06-13T08:00:21.67</time>
<name>6597</name>
</trkpt>
<trkpt lat="49.209308" lon="11.818158">
<ele>534.0</ele>
<speed>6.4</speed>
<course>254.4</course>
<desc>Speed 6.4 km/h Distance 29.05 km</desc>
<time>2010-06-13T08:00:22.67</time>
<name>6598</name>
</trkpt>
<trkpt lat="49.209305" lon="11.818140">
<ele>535.2</ele>
<speed>3.2</speed>
<course>284.3</course>
<desc>Speed 3.2 km/h Distance 29.05 km</desc>
<time>2010-06-13T08:00:23.67</time>
<name>6599</name>
</trkpt>
<trkpt lat="49.209308" lon="11.818120">
<ele>536.7</ele>
<speed>2.7</speed>
<course>238.6</course>
<desc>Speed 2.7 km/h Distance 29.05 km</desc>
<time>2010-06-13T08:00:24.67</time>
<name>6600</name>
</trkpt>
<trkpt lat="49.209305" lon="11.818112">
<ele>536.9</ele>
<speed>4.3</speed>
<course>280.8</course>
<desc>Speed 4.3 km/h Distance 29.06 km</desc>
<time>2010-06-13T08:00:25.67</time>
<name>6601</name>
</trkpt>
<trkpt lat="49.209307" lon="11.818098">
<ele>536.1</ele>
<speed>3.1</speed>
<course>242.6</course>
<desc>Speed 3.1 km/h Distance 29.06 km</desc>
<time>2010-06-13T08:00:26.67</time>
<name>6602</name>
</trkpt>
<trkpt lat="49.209305" lon="11.818093">
<ele>535.1</ele>
<speed>2.5</speed>
<course>171.0</course>
<desc>Speed 2.5 km/h Distance 29.06 km</desc>
<time>2010-06-13T08:00:27.67</time>
<name>6603</name>
</trkpt>
<trkpt lat="49.209292" lon="11.818097">
<ele>533.2</ele>
<speed>3.3</speed>
<course>326.3</course>
<desc>Speed 3.3 km/h Distance 29.06 km</desc>
<time>2010-06-13T08:00:28.67</time>
<name>6604</name>
</trkpt>
<trkpt lat="49.209295" lon="11.818093">
<ele>534.0</ele>
<speed>0.8</speed>
<course>157.0</course>
<desc>Speed 0.8 km/h Distance 29.06 km</desc>
<time>2010-06-13T08:00:29.67</time>
<name>6605</name>
</trkpt>
<trkpt lat="49.209262" lon="11.818115">
<ele>532.3</ele>
<speed>1.4</speed>
<course>160.3</course>
<desc>Speed 1.4 km/h Distance 29.06 km</desc>
<time>2010-06-13T08:00:31.67</time>
<name>6606</name>
</trkpt>
<trkpt lat="49.209243" lon="11.818125">
<ele>530.1</ele>
<speed>3.0</speed>
<course>163.4</course>
<desc>Speed 3.0 km/h Distance 29.06 km</desc>
<time>2010-06-13T08:00:32.67</time>
<name>6607</name>
</trkpt>
<trkpt lat="49.209228" lon="11.818132">
<ele>530.2</ele>
<speed>3.9</speed>
<course>144.2</course>
<desc>Speed 3.9 km/h Distance 29.07 km</desc>
<time>2010-06-13T08:00:33.67</time>
<name>6608</name>
</trkpt>
<trkpt lat="49.209212" lon="11.818150">
<ele>528.8</ele>
<speed>4.2</speed>
<course>337.0</course>
<desc>Speed 4.2 km/h Distance 29.07 km</desc>
<time>2010-06-13T08:00:34.67</time>
<name>6609</name>
</trkpt>
<trkpt lat="49.209215" lon="11.818148">
<ele>529.2</ele>
<speed>3.6</speed>
<course>166.8</course>
<desc>Speed 3.6 km/h Distance 29.07 km</desc>
<time>2010-06-13T08:00:35.67</time>
<name>6610</name>
</trkpt>
<trkpt lat="49.209192" lon="11.818157">
<ele>529.7</ele>
<speed>4.8</speed>
<course>170.2</course>
<desc>Speed 4.8 km/h Distance 29.07 km</desc>
<time>2010-06-13T08:00:36.67</time>
<name>6611</name>
</trkpt>
<trkpt lat="49.209173" lon="11.818162">
<ele>530.3</ele>
<speed>6.2</speed>
<course>225.8</course>
<desc>Speed 6.2 km/h Distance 29.07 km</desc>
<time>2010-06-13T08:00:37.67</time>
<name>6612</name>
</trkpt>
<trkpt lat="49.209162" lon="11.818143">
<ele>530.3</ele>
<speed>3.8</speed>
<course>292.6</course>
<desc>Speed 3.8 km/h Distance 29.08 km</desc>
<time>2010-06-13T08:00:38.67</time>
<name>6613</name>
</trkpt>
<trkpt lat="49.209167" lon="11.818125">
<ele>531.6</ele>
<speed>2.9</speed>
<course>337.0</course>
<desc>Speed 2.9 km/h Distance 29.08 km</desc>
<time>2010-06-13T08:00:39.67</time>
<name>6614</name>
</trkpt>
<trkpt lat="49.209170" lon="11.818123">
<ele>531.1</ele>
<speed>1.8</speed>
<course>186.6</course>
<desc>Speed 1.8 km/h Distance 29.08 km</desc>
<time>2010-06-13T08:00:40.67</time>
<name>6615</name>
</trkpt>
<trkpt lat="49.209150" lon="11.818120">
<ele>531.1</ele>
<speed>4.1</speed>
<course>193.2</course>
<desc>Speed 4.1 km/h Distance 29.08 km</desc>
<time>2010-06-13T08:00:41.67</time>
<name>6616</name>
</trkpt>
<trkpt lat="49.209127" lon="11.818112">
<ele>529.4</ele>
<speed>4.3</speed>
<course>180.0</course>
<desc>Speed 4.3 km/h Distance 29.08 km</desc>
<time>2010-06-13T08:00:42.67</time>
<name>6617</name>
</trkpt>
<trkpt lat="49.209110" lon="11.818112">
<ele>528.2</ele>
<speed>3.9</speed>
<course>159.8</course>
<desc>Speed 3.9 km/h Distance 29.08 km</desc>
<time>2010-06-13T08:00:43.67</time>
<name>6618</name>
</trkpt>
<trkpt lat="49.209098" lon="11.818118">
<ele>528.9</ele>
<speed>3.4</speed>
<course>213.7</course>
<desc>Speed 3.4 km/h Distance 29.09 km</desc>
<time>2010-06-13T08:00:44.67</time>
<name>6619</name>
</trkpt>
<trkpt lat="49.209095" lon="11.818115">
<ele>529.7</ele>
<speed>1.8</speed>
<course>156.2</course>
<desc>Speed 1.8 km/h Distance 29.09 km</desc>
<time>2010-06-13T08:00:45.67</time>
<name>6620</name>
</trkpt>
<trkpt lat="49.209085" lon="11.818122">
<ele>528.0</ele>
<speed>3.2</speed>
<course>175.0</course>
<desc>Speed 3.2 km/h Distance 29.09 km</desc>
<time>2010-06-13T08:00:46.67</time>
<name>6621</name>
</trkpt>
<trkpt lat="49.209077" lon="11.818122">
<ele>527.7</ele>
<speed>2.6</speed>
<course>183.8</course>
<desc>Speed 2.6 km/h Distance 29.09 km</desc>
<time>2010-06-13T08:00:47.67</time>
<name>6622</name>
</trkpt>
<trkpt lat="49.209062" lon="11.818120">
<ele>526.4</ele>
<speed>2.7</speed>
<course>262.7</course>
<desc>Speed 2.7 km/h Distance 29.09 km</desc>
<time>2010-06-13T08:00:48.67</time>
<name>6623</name>
</trkpt>
<trkpt lat="49.209060" lon="11.818100">
<ele>526.8</ele>
<speed>1.8</speed>
<course>209.4</course>
<desc>Speed 1.8 km/h Distance 29.09 km</desc>
<time>2010-06-13T08:00:49.67</time>
<name>6624</name>
</trkpt>
<trkpt lat="49.209048" lon="11.818090">
<ele>527.4</ele>
<speed>0.3</speed>
<course>206.0</course>
<desc>Speed 0.3 km/h Distance 29.09 km</desc>
<time>2010-06-13T08:00:50.67</time>
<name>6625</name>
</trkpt>
<trkpt lat="49.209035" lon="11.818080">
<ele>524.9</ele>
<speed>1.6</speed>
<course>270.0</course>
<desc>Speed 1.6 km/h Distance 29.09 km</desc>
<time>2010-06-13T08:00:51.67</time>
<name>6626</name>
</trkpt>
<trkpt lat="49.209035" lon="11.818070">
<ele>525.0</ele>
<speed>2.7</speed>
<course>206.4</course>
<desc>Speed 2.7 km/h Distance 29.10 km</desc>
<time>2010-06-13T08:00:52.67</time>
<name>6627</name>
</trkpt>
<trkpt lat="49.209028" lon="11.818065">
<ele>524.2</ele>
<speed>2.1</speed>
<course>133.6</course>
<desc>Speed 2.1 km/h Distance 29.10 km</desc>
<time>2010-06-13T08:00:53.67</time>
<name>6628</name>
</trkpt>
<trkpt lat="49.209020" lon="11.818078">
<ele>524.2</ele>
<speed>1.8</speed>
<course>131.7</course>
<desc>Speed 1.8 km/h Distance 29.10 km</desc>
<time>2010-06-13T08:00:54.67</time>
<name>6629</name>
</trkpt>
<trkpt lat="49.209008" lon="11.818098">
<ele>523.9</ele>
<speed>3.8</speed>
<course>156.8</course>
<desc>Speed 3.8 km/h Distance 29.10 km</desc>
<time>2010-06-13T08:00:55.67</time>
<name>6630</name>
</trkpt>
<trkpt lat="49.208955" lon="11.818133">
<ele>521.2</ele>
<speed>6.7</speed>
<course>152.0</course>
<desc>Speed 6.7 km/h Distance 29.11 km</desc>
<time>2010-06-13T08:00:57.67</time>
<name>6631</name>
</trkpt>
<trkpt lat="49.208937" lon="11.818148">
<ele>520.3</ele>
<speed>6.4</speed>
<course>153.9</course>
<desc>Speed 6.4 km/h Distance 29.11 km</desc>
<time>2010-06-13T08:00:58.67</time>
<name>6632</name>
</trkpt>
<trkpt lat="49.208917" lon="11.818163">
<ele>522.4</ele>
<speed>6.2</speed>
<course>125.9</course>
<desc>Speed 6.2 km/h Distance 29.11 km</desc>
<time>2010-06-13T08:00:59.67</time>
<name>6633</name>
</trkpt>
<trkpt lat="49.208902" lon="11.818195">
<ele>521.6</ele>
<speed>6.0</speed>
<course>125.9</course>
<desc>Speed 6.0 km/h Distance 29.11 km</desc>
<time>2010-06-13T08:01:00.67</time>
<name>6634</name>
</trkpt>
<trkpt lat="49.208887" lon="11.818227">
<ele>522.6</ele>
<speed>6.4</speed>
<course>161.9</course>
<desc>Speed 6.4 km/h Distance 29.12 km</desc>
<time>2010-06-13T08:01:01.67</time>
<name>6635</name>
</trkpt>
<trkpt lat="49.208863" lon="11.818238">
<ele>521.4</ele>
<speed>6.3</speed>
<course>153.8</course>
<desc>Speed 6.3 km/h Distance 29.12 km</desc>
<time>2010-06-13T08:01:02.67</time>
<name>6636</name>
</trkpt>
<trkpt lat="49.208843" lon="11.818253">
<ele>521.3</ele>
<speed>6.3</speed>
<course>167.7</course>
<desc>Speed 6.3 km/h Distance 29.12 km</desc>
<time>2010-06-13T08:01:03.67</time>
<name>6637</name>
</trkpt>
<trkpt lat="49.208823" lon="11.818260">
<ele>519.5</ele>
<speed>6.8</speed>
<course>157.6</course>
<desc>Speed 6.8 km/h Distance 29.12 km</desc>
<time>2010-06-13T08:01:04.67</time>
<name>6638</name>
</trkpt>
<trkpt lat="49.208792" lon="11.818280">
<ele>517.6</ele>
<speed>7.4</speed>
<course>149.1</course>
<desc>Speed 7.4 km/h Distance 29.13 km</desc>
<time>2010-06-13T08:01:05.67</time>
<name>6639</name>
</trkpt>
<trkpt lat="49.208772" lon="11.818298">
<ele>514.8</ele>
<speed>7.6</speed>
<course>148.4</course>
<desc>Speed 7.6 km/h Distance 29.13 km</desc>
<time>2010-06-13T08:01:06.67</time>
<name>6640</name>
</trkpt>
<trkpt lat="49.208743" lon="11.818325">
<ele>512.8</ele>
<speed>8.6</speed>
<course>141.9</course>
<desc>Speed 8.6 km/h Distance 29.13 km</desc>
<time>2010-06-13T08:01:07.67</time>
<name>6641</name>
</trkpt>
<trkpt lat="49.208727" lon="11.818345">
<ele>512.7</ele>
<speed>8.1</speed>
<course>141.9</course>
<desc>Speed 8.1 km/h Distance 29.14 km</desc>
<time>2010-06-13T08:01:08.67</time>
<name>6642</name>
</trkpt>
<trkpt lat="49.208710" lon="11.818365">
<ele>511.0</ele>
<speed>7.9</speed>
<course>157.1</course>
<desc>Speed 7.9 km/h Distance 29.14 km</desc>
<time>2010-06-13T08:01:09.67</time>
<name>6643</name>
</trkpt>
<trkpt lat="49.208682" lon="11.818383">
<ele>509.1</ele>
<speed>7.1</speed>
<course>163.4</course>
<desc>Speed 7.1 km/h Distance 29.14 km</desc>
<time>2010-06-13T08:01:10.67</time>
<name>6644</name>
</trkpt>
<trkpt lat="49.208663" lon="11.818392">
<ele>507.9</ele>
<speed>5.8</speed>
<course>157.4</course>
<desc>Speed 5.8 km/h Distance 29.14 km</desc>
<time>2010-06-13T08:01:11.67</time>
<name>6645</name>
</trkpt>
<trkpt lat="49.208645" lon="11.818403">
<ele>507.3</ele>
<speed>5.3</speed>
<course>152.0</course>
<desc>Speed 5.3 km/h Distance 29.15 km</desc>
<time>2010-06-13T08:01:12.67</time>
<name>6646</name>
</trkpt>
<trkpt lat="49.208627" lon="11.818418">
<ele>506.1</ele>
<speed>6.6</speed>
<course>171.9</course>
<desc>Speed 6.6 km/h Distance 29.15 km</desc>
<time>2010-06-13T08:01:13.67</time>
<name>6647</name>
</trkpt>
<trkpt lat="49.208603" lon="11.818423">
<ele>507.0</ele>
<speed>7.5</speed>
<course>175.0</course>
<desc>Speed 7.5 km/h Distance 29.15 km</desc>
<time>2010-06-13T08:01:14.67</time>
<name>6648</name>
</trkpt>
<trkpt lat="49.208578" lon="11.818427">
<ele>507.1</ele>
<speed>7.9</speed>
<course>173.4</course>
<desc>Speed 7.9 km/h Distance 29.15 km</desc>
<time>2010-06-13T08:01:15.67</time>
<name>6649</name>
</trkpt>
<trkpt lat="49.208550" lon="11.818432">
<ele>508.8</ele>
<speed>9.0</speed>
<course>154.3</course>
<desc>Speed 9.0 km/h Distance 29.16 km</desc>
<time>2010-06-13T08:01:16.67</time>
<name>6650</name>
</trkpt>
<trkpt lat="49.208518" lon="11.818455">
<ele>510.5</ele>
<speed>10.2</speed>
<course>153.9</course>
<desc>Speed 10.2 km/h Distance 29.16 km</desc>
<time>2010-06-13T08:01:17.67</time>
<name>6651</name>
</trkpt>
<trkpt lat="49.208485" lon="11.818480">
<ele>512.0</ele>
<speed>11.1</speed>
<course>140.0</course>
<desc>Speed 11.1 km/h Distance 29.17 km</desc>
<time>2010-06-13T08:01:18.67</time>
<name>6652</name>
</trkpt>
<trkpt lat="49.208462" lon="11.818510">
<ele>511.8</ele>
<speed>9.5</speed>
<course>138.4</course>
<desc>Speed 9.5 km/h Distance 29.17 km</desc>
<time>2010-06-13T08:01:19.67</time>
<name>6653</name>
</trkpt>
<trkpt lat="49.208438" lon="11.818542">
<ele>511.9</ele>
<speed>9.0</speed>
<course>148.3</course>
<desc>Speed 9.0 km/h Distance 29.17 km</desc>
<time>2010-06-13T08:01:20.67</time>
<name>6654</name>
</trkpt>
<trkpt lat="49.208408" lon="11.818570">
<ele>511.2</ele>
<speed>8.5</speed>
<course>130.4</course>
<desc>Speed 8.5 km/h Distance 29.18 km</desc>
<time>2010-06-13T08:01:21.67</time>
<name>6655</name>
</trkpt>
<trkpt lat="49.208392" lon="11.818600">
<ele>509.8</ele>
<speed>7.6</speed>
<course>133.1</course>
<desc>Speed 7.6 km/h Distance 29.18 km</desc>
<time>2010-06-13T08:01:22.67</time>
<name>6656</name>
</trkpt>
<trkpt lat="49.208373" lon="11.818630">
<ele>509.1</ele>
<speed>6.2</speed>
<course>167.6</course>
<desc>Speed 6.2 km/h Distance 29.18 km</desc>
<time>2010-06-13T08:01:23.67</time>
<name>6657</name>
</trkpt>
<trkpt lat="49.208343" lon="11.818640">
<ele>509.9</ele>
<speed>9.2</speed>
<course>156.5</course>
<desc>Speed 9.2 km/h Distance 29.19 km</desc>
<time>2010-06-13T08:01:24.67</time>
<name>6658</name>
</trkpt>
<trkpt lat="49.208313" lon="11.818660">
<ele>510.4</ele>
<speed>10.9</speed>
<course>154.7</course>
<desc>Speed 10.9 km/h Distance 29.19 km</desc>
<time>2010-06-13T08:01:25.67</time>
<name>6659</name>
</trkpt>
<trkpt lat="49.208283" lon="11.818682">
<ele>510.4</ele>
<speed>11.3</speed>
<course>150.6</course>
<desc>Speed 11.3 km/h Distance 29.19 km</desc>
<time>2010-06-13T08:01:26.67</time>
<name>6660</name>
</trkpt>
<trkpt lat="49.208247" lon="11.818713">
<ele>509.4</ele>
<speed>14.3</speed>
<course>153.6</course>
<desc>Speed 14.3 km/h Distance 29.20 km</desc>
<time>2010-06-13T08:01:27.67</time>
<name>6661</name>
</trkpt>
<trkpt lat="49.208205" lon="11.818745">
<ele>508.7</ele>
<speed>15.2</speed>
<course>156.8</course>
<desc>Speed 15.2 km/h Distance 29.20 km</desc>
<time>2010-06-13T08:01:28.67</time>
<name>6662</name>
</trkpt>
<trkpt lat="49.208157" lon="11.818777">
<ele>508.8</ele>
<speed>15.3</speed>
<course>166.9</course>
<desc>Speed 15.3 km/h Distance 29.21 km</desc>
<time>2010-06-13T08:01:29.67</time>
<name>6663</name>
</trkpt>
<trkpt lat="49.208110" lon="11.818793">
<ele>509.8</ele>
<speed>14.2</speed>
<course>165.1</course>
<desc>Speed 14.2 km/h Distance 29.21 km</desc>
<time>2010-06-13T08:01:30.67</time>
<name>6664</name>
</trkpt>
<trkpt lat="49.208065" lon="11.818812">
<ele>509.7</ele>
<speed>14.5</speed>
<course>150.6</course>
<desc>Speed 14.5 km/h Distance 29.22 km</desc>
<time>2010-06-13T08:01:31.67</time>
<name>6665</name>
</trkpt>
<trkpt lat="49.208028" lon="11.818843">
<ele>509.5</ele>
<speed>12.8</speed>
<course>137.8</course>
<desc>Speed 12.8 km/h Distance 29.22 km</desc>
<time>2010-06-13T08:01:32.67</time>
<name>6666</name>
</trkpt>
<trkpt lat="49.207998" lon="11.818885">
<ele>508.6</ele>
<speed>12.7</speed>
<course>108.2</course>
<desc>Speed 12.7 km/h Distance 29.23 km</desc>
<time>2010-06-13T08:01:33.67</time>
<name>6667</name>
</trkpt>
<trkpt lat="49.207983" lon="11.818955">
<ele>508.3</ele>
<speed>15.5</speed>
<course>114.8</course>
<desc>Speed 15.5 km/h Distance 29.23 km</desc>
<time>2010-06-13T08:01:34.67</time>
<name>6668</name>
</trkpt>
<trkpt lat="49.207962" lon="11.819027">
<ele>506.4</ele>
<speed>15.3</speed>
<course>116.3</course>
<desc>Speed 15.3 km/h Distance 29.24 km</desc>
<time>2010-06-13T08:01:35.67</time>
<name>6669</name>
</trkpt>
<trkpt lat="49.207945" lon="11.819078">
<ele>506.5</ele>
<speed>13.8</speed>
<course>95.3</course>
<desc>Speed 13.8 km/h Distance 29.24 km</desc>
<time>2010-06-13T08:01:36.67</time>
<name>6670</name>
</trkpt>
<trkpt lat="49.207942" lon="11.819133">
<ele>506.8</ele>
<speed>13.1</speed>
<course>134.4</course>
<desc>Speed 13.1 km/h Distance 29.25 km</desc>
<time>2010-06-13T08:01:37.67</time>
<name>6671</name>
</trkpt>
<trkpt lat="49.207797" lon="11.819360">
<ele>505.0</ele>
<speed>10.1</speed>
<course>118.4</course>
<desc>Speed 10.1 km/h Distance 29.27 km</desc>
<time>2010-06-13T08:01:40.67</time>
<name>6672</name>
</trkpt>
<trkpt lat="49.207777" lon="11.819417">
<ele>505.1</ele>
<speed>10.2</speed>
<course>105.6</course>
<desc>Speed 10.2 km/h Distance 29.28 km</desc>
<time>2010-06-13T08:01:41.67</time>
<name>6673</name>
</trkpt>
<trkpt lat="49.207770" lon="11.819453">
<ele>505.4</ele>
<speed>8.5</speed>
<course>86.5</course>
<desc>Speed 8.5 km/h Distance 29.28 km</desc>
<time>2010-06-13T08:01:42.67</time>
<name>6674</name>
</trkpt>
<trkpt lat="49.207772" lon="11.819495">
<ele>504.7</ele>
<speed>8.4</speed>
<course>83.3</course>
<desc>Speed 8.4 km/h Distance 29.28 km</desc>
<time>2010-06-13T08:01:43.67</time>
<name>6675</name>
</trkpt>
<trkpt lat="49.207773" lon="11.819517">
<ele>504.2</ele>
<speed>7.5</speed>
<course>124.6</course>
<desc>Speed 7.5 km/h Distance 29.28 km</desc>
<time>2010-06-13T08:01:44.67</time>
<name>6676</name>
</trkpt>
<trkpt lat="49.207735" lon="11.819602">
<ele>507.3</ele>
<speed>5.4</speed>
<course>99.2</course>
<desc>Speed 5.4 km/h Distance 29.29 km</desc>
<time>2010-06-13T08:01:46.67</time>
<name>6677</name>
</trkpt>
<trkpt lat="49.207732" lon="11.819633">
<ele>507.0</ele>
<speed>5.5</speed>
<course>124.8</course>
<desc>Speed 5.5 km/h Distance 29.29 km</desc>
<time>2010-06-13T08:01:47.67</time>
<name>6678</name>
</trkpt>
<trkpt lat="49.207715" lon="11.819670">
<ele>508.1</ele>
<speed>5.3</speed>
<course>118.4</course>
<desc>Speed 5.3 km/h Distance 29.30 km</desc>
<time>2010-06-13T08:01:48.67</time>
<name>6679</name>
</trkpt>
<trkpt lat="49.207705" lon="11.819698">
<ele>509.2</ele>
<speed>5.1</speed>
<course>140.8</course>
<desc>Speed 5.1 km/h Distance 29.30 km</desc>
<time>2010-06-13T08:01:49.67</time>
<name>6680</name>
</trkpt>
<trkpt lat="49.207685" lon="11.819723">
<ele>511.1</ele>
<speed>5.0</speed>
<course>90.0</course>
<desc>Speed 5.0 km/h Distance 29.30 km</desc>
<time>2010-06-13T08:01:50.67</time>
<name>6681</name>
</trkpt>
<trkpt lat="49.207685" lon="11.819747">
<ele>511.2</ele>
<speed>5.4</speed>
<course>90.0</course>
<desc>Speed 5.4 km/h Distance 29.30 km</desc>
<time>2010-06-13T08:01:51.67</time>
<name>6682</name>
</trkpt>
<trkpt lat="49.207685" lon="11.819772">
<ele>510.4</ele>
<speed>5.1</speed>
<course>113.0</course>
<desc>Speed 5.1 km/h Distance 29.30 km</desc>
<time>2010-06-13T08:01:52.67</time>
<name>6683</name>
</trkpt>
<trkpt lat="49.207677" lon="11.819802">
<ele>510.2</ele>
<speed>5.6</speed>
<course>123.3</course>
<desc>Speed 5.6 km/h Distance 29.31 km</desc>
<time>2010-06-13T08:01:53.67</time>
<name>6684</name>
</trkpt>
<trkpt lat="49.207667" lon="11.819825">
<ele>510.6</ele>
<speed>6.0</speed>
<course>115.0</course>
<desc>Speed 6.0 km/h Distance 29.31 km</desc>
<time>2010-06-13T08:01:54.67</time>
<name>6685</name>
</trkpt>
<trkpt lat="49.207655" lon="11.819863">
<ele>510.6</ele>
<speed>6.9</speed>
<course>116.0</course>
<desc>Speed 6.9 km/h Distance 29.31 km</desc>
<time>2010-06-13T08:01:55.67</time>
<name>6686</name>
</trkpt>
<trkpt lat="49.207643" lon="11.819900">
<ele>509.9</ele>
<speed>8.2</speed>
<course>96.0</course>
<desc>Speed 8.2 km/h Distance 29.32 km</desc>
<time>2010-06-13T08:01:56.67</time>
<name>6687</name>
</trkpt>
<trkpt lat="49.207640" lon="11.819948">
<ele>509.0</ele>
<speed>7.8</speed>
<course>117.0</course>
<desc>Speed 7.8 km/h Distance 29.32 km</desc>
<time>2010-06-13T08:01:57.67</time>
<name>6688</name>
</trkpt>
<trkpt lat="49.207628" lon="11.819983">
<ele>510.4</ele>
<speed>6.2</speed>
<course>127.4</course>
<desc>Speed 6.2 km/h Distance 29.32 km</desc>
<time>2010-06-13T08:01:58.67</time>
<name>6689</name>
</trkpt>
<trkpt lat="49.207617" lon="11.820007">
<ele>512.3</ele>
<speed>6.0</speed>
<course>121.4</course>
<desc>Speed 6.0 km/h Distance 29.32 km</desc>
<time>2010-06-13T08:01:59.67</time>
<name>6690</name>
</trkpt>
<trkpt lat="49.207607" lon="11.820032">
<ele>513.2</ele>
<speed>6.9</speed>
<course>117.0</course>
<desc>Speed 6.9 km/h Distance 29.33 km</desc>
<time>2010-06-13T08:02:00.67</time>
<name>6691</name>
</trkpt>
<trkpt lat="49.207597" lon="11.820062">
<ele>514.5</ele>
<speed>6.9</speed>
<course>133.1</course>
<desc>Speed 6.9 km/h Distance 29.33 km</desc>
<time>2010-06-13T08:02:01.67</time>
<name>6692</name>
</trkpt>
<trkpt lat="49.207578" lon="11.820092">
<ele>516.6</ele>
<speed>6.3</speed>
<course>120.2</course>
<desc>Speed 6.3 km/h Distance 29.33 km</desc>
<time>2010-06-13T08:02:02.67</time>
<name>6693</name>
</trkpt>
<trkpt lat="49.207565" lon="11.820127">
<ele>515.9</ele>
<speed>6.2</speed>
<course>109.2</course>
<desc>Speed 6.2 km/h Distance 29.33 km</desc>
<time>2010-06-13T08:02:03.67</time>
<name>6694</name>
</trkpt>
<trkpt lat="49.207557" lon="11.820163">
<ele>515.7</ele>
<speed>7.1</speed>
<course>96.7</course>
<desc>Speed 7.1 km/h Distance 29.34 km</desc>
<time>2010-06-13T08:02:04.67</time>
<name>6695</name>
</trkpt>
<trkpt lat="49.207553" lon="11.820207">
<ele>514.7</ele>
<speed>8.8</speed>
<course>112.7</course>
<desc>Speed 8.8 km/h Distance 29.34 km</desc>
<time>2010-06-13T08:02:05.67</time>
<name>6696</name>
</trkpt>
<trkpt lat="49.207543" lon="11.820243">
<ele>515.3</ele>
<speed>8.1</speed>
<course>110.0</course>
<desc>Speed 8.1 km/h Distance 29.34 km</desc>
<time>2010-06-13T08:02:06.67</time>
<name>6697</name>
</trkpt>
<trkpt lat="49.207535" lon="11.820278">
<ele>515.6</ele>
<speed>8.4</speed>
<course>118.2</course>
<desc>Speed 8.4 km/h Distance 29.35 km</desc>
<time>2010-06-13T08:02:07.67</time>
<name>6698</name>
</trkpt>
<trkpt lat="49.207523" lon="11.820312">
<ele>515.8</ele>
<speed>8.7</speed>
<course>90.0</course>
<desc>Speed 8.7 km/h Distance 29.35 km</desc>
<time>2010-06-13T08:02:08.67</time>
<name>6699</name>
</trkpt>
<trkpt lat="49.207523" lon="11.820352">
<ele>515.0</ele>
<speed>8.1</speed>
<course>68.2</course>
<desc>Speed 8.1 km/h Distance 29.35 km</desc>
<time>2010-06-13T08:02:09.67</time>
<name>6700</name>
</trkpt>
<trkpt lat="49.207533" lon="11.820390">
<ele>514.9</ele>
<speed>6.1</speed>
<course>50.1</course>
<desc>Speed 6.1 km/h Distance 29.35 km</desc>
<time>2010-06-13T08:02:10.67</time>
<name>6701</name>
</trkpt>
<trkpt lat="49.207543" lon="11.820408">
<ele>514.7</ele>
<speed>5.0</speed>
<course>100.8</course>
<desc>Speed 5.0 km/h Distance 29.36 km</desc>
<time>2010-06-13T08:02:11.67</time>
<name>6702</name>
</trkpt>
<trkpt lat="49.207540" lon="11.820435">
<ele>515.9</ele>
<speed>4.7</speed>
<course>124.8</course>
<desc>Speed 4.7 km/h Distance 29.36 km</desc>
<time>2010-06-13T08:02:12.67</time>
<name>6703</name>
</trkpt>
<trkpt lat="49.207532" lon="11.820453">
<ele>517.9</ele>
<speed>4.9</speed>
<course>44.4</course>
<desc>Speed 4.9 km/h Distance 29.36 km</desc>
<time>2010-06-13T08:02:13.67</time>
<name>6704</name>
</trkpt>
<trkpt lat="49.207542" lon="11.820468">
<ele>518.5</ele>
<speed>5.1</speed>
<course>50.5</course>
<desc>Speed 5.1 km/h Distance 29.36 km</desc>
<time>2010-06-13T08:02:14.67</time>
<name>6705</name>
</trkpt>
<trkpt lat="49.207553" lon="11.820490">
<ele>517.6</ele>
<speed>4.5</speed>
<course>43.0</course>
<desc>Speed 4.5 km/h Distance 29.36 km</desc>
<time>2010-06-13T08:02:15.67</time>
<name>6706</name>
</trkpt>
<trkpt lat="49.207565" lon="11.820507">
<ele>517.1</ele>
<speed>4.9</speed>
<course>69.1</course>
<desc>Speed 4.9 km/h Distance 29.37 km</desc>
<time>2010-06-13T08:02:16.67</time>
<name>6707</name>
</trkpt>
<trkpt lat="49.207568" lon="11.820520">
<ele>517.8</ele>
<speed>4.5</speed>
<course>117.0</course>
<desc>Speed 4.5 km/h Distance 29.37 km</desc>
<time>2010-06-13T08:02:17.67</time>
<name>6708</name>
</trkpt>
<trkpt lat="49.207563" lon="11.820535">
<ele>518.0</ele>
<speed>4.2</speed>
<course>115.2</course>
<desc>Speed 4.2 km/h Distance 29.37 km</desc>
<time>2010-06-13T08:02:18.67</time>
<name>6709</name>
</trkpt>
<trkpt lat="49.207557" lon="11.820557">
<ele>517.8</ele>
<speed>3.9</speed>
<course>129.9</course>
<desc>Speed 3.9 km/h Distance 29.37 km</desc>
<time>2010-06-13T08:02:19.67</time>
<name>6710</name>
</trkpt>
<trkpt lat="49.207547" lon="11.820575">
<ele>517.7</ele>
<speed>3.5</speed>
<course>113.6</course>
<desc>Speed 3.5 km/h Distance 29.37 km</desc>
<time>2010-06-13T08:02:20.67</time>
<name>6711</name>
</trkpt>
<trkpt lat="49.207540" lon="11.820598">
<ele>517.9</ele>
<speed>3.7</speed>
<course>121.5</course>
<desc>Speed 3.7 km/h Distance 29.37 km</desc>
<time>2010-06-13T08:02:21.67</time>
<name>6712</name>
</trkpt>
<trkpt lat="49.207530" lon="11.820623">
<ele>517.7</ele>
<speed>4.8</speed>
<course>127.4</course>
<desc>Speed 4.8 km/h Distance 29.37 km</desc>
<time>2010-06-13T08:02:22.67</time>
<name>6713</name>
</trkpt>
<trkpt lat="49.207518" lon="11.820647">
<ele>518.2</ele>
<speed>4.8</speed>
<course>138.0</course>
<desc>Speed 4.8 km/h Distance 29.38 km</desc>
<time>2010-06-13T08:02:23.67</time>
<name>6714</name>
</trkpt>
<trkpt lat="49.207505" lon="11.820665">
<ele>520.0</ele>
<speed>4.1</speed>
<course>106.0</course>
<desc>Speed 4.1 km/h Distance 29.38 km</desc>
<time>2010-06-13T08:02:24.67</time>
<name>6715</name>
</trkpt>
<trkpt lat="49.207500" lon="11.820692">
<ele>519.6</ele>
<speed>3.9</speed>
<course>90.0</course>
<desc>Speed 3.9 km/h Distance 29.38 km</desc>
<time>2010-06-13T08:02:25.67</time>
<name>6716</name>
</trkpt>
<trkpt lat="49.207500" lon="11.820707">
<ele>519.3</ele>
<speed>3.3</speed>
<course>117.1</course>
<desc>Speed 3.3 km/h Distance 29.38 km</desc>
<time>2010-06-13T08:02:26.67</time>
<name>6717</name>
</trkpt>
<trkpt lat="49.207492" lon="11.820732">
<ele>519.4</ele>
<speed>4.4</speed>
<course>127.4</course>
<desc>Speed 4.4 km/h Distance 29.38 km</desc>
<time>2010-06-13T08:02:27.67</time>
<name>6718</name>
</trkpt>
<trkpt lat="49.207480" lon="11.820755">
<ele>519.6</ele>
<speed>3.5</speed>
<course>110.9</course>
<desc>Speed 3.5 km/h Distance 29.39 km</desc>
<time>2010-06-13T08:02:28.67</time>
<name>6719</name>
</trkpt>
<trkpt lat="49.207473" lon="11.820782">
<ele>519.4</ele>
<speed>4.8</speed>
<course>96.2</course>
<desc>Speed 4.8 km/h Distance 29.39 km</desc>
<time>2010-06-13T08:02:29.67</time>
<name>6720</name>
</trkpt>
<trkpt lat="49.207472" lon="11.820805">
<ele>519.1</ele>
<speed>3.9</speed>
<course>117.0</course>
<desc>Speed 3.9 km/h Distance 29.39 km</desc>
<time>2010-06-13T08:02:30.67</time>
<name>6721</name>
</trkpt>
<trkpt lat="49.207463" lon="11.820830">
<ele>519.6</ele>
<speed>4.8</speed>
<course>100.2</course>
<desc>Speed 4.8 km/h Distance 29.39 km</desc>
<time>2010-06-13T08:02:31.67</time>
<name>6722</name>
</trkpt>
<trkpt lat="49.207460" lon="11.820858">
<ele>520.5</ele>
<speed>5.5</speed>
<course>105.5</course>
<desc>Speed 5.5 km/h Distance 29.39 km</desc>
<time>2010-06-13T08:02:32.67</time>
<name>6723</name>
</trkpt>
<trkpt lat="49.207457" lon="11.820877">
<ele>520.9</ele>
<speed>4.1</speed>
<course>113.6</course>
<desc>Speed 4.1 km/h Distance 29.40 km</desc>
<time>2010-06-13T08:02:33.67</time>
<name>6724</name>
</trkpt>
<trkpt lat="49.207450" lon="11.820900">
<ele>521.1</ele>
<speed>4.4</speed>
<course>60.2</course>
<desc>Speed 4.4 km/h Distance 29.40 km</desc>
<time>2010-06-13T08:02:34.67</time>
<name>6725</name>
</trkpt>
<trkpt lat="49.207460" lon="11.820927">
<ele>519.8</ele>
<speed>5.1</speed>
<course>95.5</course>
<desc>Speed 5.1 km/h Distance 29.40 km</desc>
<time>2010-06-13T08:02:35.67</time>
<name>6726</name>
</trkpt>
<trkpt lat="49.207458" lon="11.820953">
<ele>519.5</ele>
<speed>5.5</speed>
<course>125.2</course>
<desc>Speed 5.5 km/h Distance 29.40 km</desc>
<time>2010-06-13T08:02:36.67</time>
<name>6727</name>
</trkpt>
<trkpt lat="49.207448" lon="11.820975">
<ele>520.5</ele>
<speed>3.7</speed>
<course>146.9</course>
<desc>Speed 3.7 km/h Distance 29.40 km</desc>
<time>2010-06-13T08:02:37.67</time>
<name>6728</name>
</trkpt>
<trkpt lat="49.207433" lon="11.820990">
<ele>522.5</ele>
<speed>5.0</speed>
<course>90.0</course>
<desc>Speed 5.0 km/h Distance 29.41 km</desc>
<time>2010-06-13T08:02:38.67</time>
<name>6729</name>
</trkpt>
<trkpt lat="49.207433" lon="11.821012">
<ele>523.6</ele>
<speed>3.2</speed>
<course>118.7</course>
<desc>Speed 3.2 km/h Distance 29.41 km</desc>
<time>2010-06-13T08:02:39.67</time>
<name>6730</name>
</trkpt>
<trkpt lat="49.207425" lon="11.821035">
<ele>524.8</ele>
<speed>3.4</speed>
<course>106.3</course>
<desc>Speed 3.4 km/h Distance 29.41 km</desc>
<time>2010-06-13T08:02:40.67</time>
<name>6731</name>
</trkpt>
<trkpt lat="49.207418" lon="11.821070">
<ele>526.3</ele>
<speed>5.5</speed>
<course>79.2</course>
<desc>Speed 5.5 km/h Distance 29.41 km</desc>
<time>2010-06-13T08:02:41.67</time>
<name>6732</name>
</trkpt>
<trkpt lat="49.207422" lon="11.821097">
<ele>525.8</ele>
<speed>4.8</speed>
<course>82.1</course>
<desc>Speed 4.8 km/h Distance 29.41 km</desc>
<time>2010-06-13T08:02:42.69</time>
<name>6733</name>
</trkpt>
<trkpt lat="49.207423" lon="11.821115">
<ele>525.8</ele>
<speed>3.8</speed>
<course>131.3</course>
<desc>Speed 3.8 km/h Distance 29.42 km</desc>
<time>2010-06-13T08:02:43.67</time>
<name>6734</name>
</trkpt>
<trkpt lat="49.207417" lon="11.821127">
<ele>527.1</ele>
<speed>4.3</speed>
<course>203.8</course>
<desc>Speed 4.3 km/h Distance 29.42 km</desc>
<time>2010-06-13T08:02:44.67</time>
<name>6735</name>
</trkpt>
<trkpt lat="49.207412" lon="11.821123">
<ele>527.9</ele>
<speed>3.2</speed>
<course>175.3</course>
<desc>Speed 3.2 km/h Distance 29.42 km</desc>
<time>2010-06-13T08:02:45.67</time>
<name>6736</name>
</trkpt>
<trkpt lat="49.207400" lon="11.821125">
<ele>529.3</ele>
<speed>3.9</speed>
<course>147.7</course>
<desc>Speed 3.9 km/h Distance 29.42 km</desc>
<time>2010-06-13T08:02:46.67</time>
<name>6737</name>
</trkpt>
<trkpt lat="49.207395" lon="11.821130">
<ele>530.1</ele>
<speed>3.1</speed>
<course>171.9</course>
<desc>Speed 3.1 km/h Distance 29.42 km</desc>
<time>2010-06-13T08:02:47.67</time>
<name>6738</name>
</trkpt>
<trkpt lat="49.207380" lon="11.821133">
<ele>531.4</ele>
<speed>3.1</speed>
<course>159.8</course>
<desc>Speed 3.1 km/h Distance 29.42 km</desc>
<time>2010-06-13T08:02:48.67</time>
<name>6739</name>
</trkpt>
<trkpt lat="49.207368" lon="11.821140">
<ele>531.3</ele>
<speed>4.0</speed>
<course>209.8</course>
<desc>Speed 4.0 km/h Distance 29.42 km</desc>
<time>2010-06-13T08:02:49.67</time>
<name>6740</name>
</trkpt>
<trkpt lat="49.207355" lon="11.821128">
<ele>532.1</ele>
<speed>5.9</speed>
<course>193.8</course>
<desc>Speed 5.9 km/h Distance 29.42 km</desc>
<time>2010-06-13T08:02:50.67</time>
<name>6741</name>
</trkpt>
<trkpt lat="49.207328" lon="11.821118">
<ele>533.2</ele>
<speed>8.2</speed>
<course>203.6</course>
<desc>Speed 8.2 km/h Distance 29.43 km</desc>
<time>2010-06-13T08:02:51.67</time>
<name>6742</name>
</trkpt>
<trkpt lat="49.207308" lon="11.821105">
<ele>534.5</ele>
<speed>7.7</speed>
<course>177.8</course>
<desc>Speed 7.7 km/h Distance 29.43 km</desc>
<time>2010-06-13T08:02:52.67</time>
<name>6743</name>
</trkpt>
<trkpt lat="49.207285" lon="11.821107">
<ele>534.3</ele>
<speed>7.9</speed>
<course>171.6</course>
<desc>Speed 7.9 km/h Distance 29.43 km</desc>
<time>2010-06-13T08:02:53.67</time>
<name>6744</name>
</trkpt>
<trkpt lat="49.207263" lon="11.821112">
<ele>534.1</ele>
<speed>5.9</speed>
<course>184.5</course>
<desc>Speed 5.9 km/h Distance 29.43 km</desc>
<time>2010-06-13T08:02:54.67</time>
<name>6745</name>
</trkpt>
<trkpt lat="49.207235" lon="11.821108">
<ele>535.1</ele>
<speed>8.1</speed>
<course>182.2</course>
<desc>Speed 8.1 km/h Distance 29.44 km</desc>
<time>2010-06-13T08:02:55.67</time>
<name>6746</name>
</trkpt>
<trkpt lat="49.207207" lon="11.821107">
<ele>536.7</ele>
<speed>9.0</speed>
<course>169.5</course>
<desc>Speed 9.0 km/h Distance 29.44 km</desc>
<time>2010-06-13T08:02:56.67</time>
<name>6747</name>
</trkpt>
<trkpt lat="49.207172" lon="11.821117">
<ele>537.8</ele>
<speed>9.1</speed>
<course>178.5</course>
<desc>Speed 9.1 km/h Distance 29.44 km</desc>
<time>2010-06-13T08:02:57.67</time>
<name>6748</name>
</trkpt>
<trkpt lat="49.207147" lon="11.821118">
<ele>536.9</ele>
<speed>8.0</speed>
<course>176.1</course>
<desc>Speed 8.0 km/h Distance 29.45 km</desc>
<time>2010-06-13T08:02:58.67</time>
<name>6749</name>
</trkpt>
<trkpt lat="49.207115" lon="11.821122">
<ele>535.9</ele>
<speed>9.8</speed>
<course>176.4</course>
<desc>Speed 9.8 km/h Distance 29.45 km</desc>
<time>2010-06-13T08:02:59.67</time>
<name>6750</name>
</trkpt>
<trkpt lat="49.207028" lon="11.821130">
<ele>536.5</ele>
<speed>11.3</speed>
<course>162.8</course>
<desc>Speed 11.3 km/h Distance 29.46 km</desc>
<time>2010-06-13T08:03:01.67</time>
<name>6751</name>
</trkpt>
<trkpt lat="49.206997" lon="11.821145">
<ele>536.4</ele>
<speed>11.0</speed>
<course>213.1</course>
<desc>Speed 11.0 km/h Distance 29.46 km</desc>
<time>2010-06-13T08:03:02.67</time>
<name>6752</name>
</trkpt>
<trkpt lat="49.206982" lon="11.821130">
<ele>534.4</ele>
<speed>7.6</speed>
<course>175.7</course>
<desc>Speed 7.6 km/h Distance 29.47 km</desc>
<time>2010-06-13T08:03:03.67</time>
<name>6753</name>
</trkpt>
<trkpt lat="49.206955" lon="11.821133">
<ele>532.1</ele>
<speed>9.3</speed>
<course>170.3</course>
<desc>Speed 9.3 km/h Distance 29.47 km</desc>
<time>2010-06-13T08:03:04.67</time>
<name>6754</name>
</trkpt>
<trkpt lat="49.206923" lon="11.821142">
<ele>530.4</ele>
<speed>10.5</speed>
<course>181.9</course>
<desc>Speed 10.5 km/h Distance 29.47 km</desc>
<time>2010-06-13T08:03:05.67</time>
<name>6755</name>
</trkpt>
<trkpt lat="49.206885" lon="11.821140">
<ele>529.4</ele>
<speed>9.1</speed>
<course>173.0</course>
<desc>Speed 9.1 km/h Distance 29.48 km</desc>
<time>2010-06-13T08:03:06.67</time>
<name>6756</name>
</trkpt>
<trkpt lat="49.206850" lon="11.821147">
<ele>529.1</ele>
<speed>11.5</speed>
<course>191.3</course>
<desc>Speed 11.5 km/h Distance 29.48 km</desc>
<time>2010-06-13T08:03:07.67</time>
<name>6757</name>
</trkpt>
<trkpt lat="49.206812" lon="11.821135">
<ele>530.9</ele>
<speed>12.7</speed>
<course>188.5</course>
<desc>Speed 12.7 km/h Distance 29.49 km</desc>
<time>2010-06-13T08:03:08.67</time>
<name>6758</name>
</trkpt>
<trkpt lat="49.206768" lon="11.821125">
<ele>530.9</ele>
<speed>12.9</speed>
<course>187.4</course>
<desc>Speed 12.9 km/h Distance 29.49 km</desc>
<time>2010-06-13T08:03:09.67</time>
<name>6759</name>
</trkpt>
<trkpt lat="49.206727" lon="11.821117">
<ele>530.7</ele>
<speed>12.7</speed>
<course>202.9</course>
<desc>Speed 12.7 km/h Distance 29.49 km</desc>
<time>2010-06-13T08:03:10.67</time>
<name>6760</name>
</trkpt>
<trkpt lat="49.206698" lon="11.821098">
<ele>531.9</ele>
<speed>12.0</speed>
<course>191.8</course>
<desc>Speed 12.0 km/h Distance 29.50 km</desc>
<time>2010-06-13T08:03:11.67</time>
<name>6761</name>
</trkpt>
<trkpt lat="49.206657" lon="11.821085">
<ele>530.7</ele>
<speed>12.2</speed>
<course>190.6</course>
<desc>Speed 12.2 km/h Distance 29.50 km</desc>
<time>2010-06-13T08:03:12.67</time>
<name>6762</name>
</trkpt>
<trkpt lat="49.206575" lon="11.821062">
<ele>529.4</ele>
<speed>12.9</speed>
<course>188.9</course>
<desc>Speed 12.9 km/h Distance 29.51 km</desc>
<time>2010-06-13T08:03:14.67</time>
<name>6763</name>
</trkpt>
<trkpt lat="49.206533" lon="11.821052">
<ele>528.1</ele>
<speed>14.6</speed>
<course>186.2</course>
<desc>Speed 14.6 km/h Distance 29.52 km</desc>
<time>2010-06-13T08:03:15.67</time>
<name>6764</name>
</trkpt>
<trkpt lat="49.206493" lon="11.821045">
<ele>526.5</ele>
<speed>13.7</speed>
<course>190.1</course>
<desc>Speed 13.7 km/h Distance 29.52 km</desc>
<time>2010-06-13T08:03:16.67</time>
<name>6765</name>
</trkpt>
<trkpt lat="49.206457" lon="11.821035">
<ele>525.9</ele>
<speed>12.2</speed>
<course>186.9</course>
<desc>Speed 12.2 km/h Distance 29.53 km</desc>
<time>2010-06-13T08:03:17.67</time>
<name>6766</name>
</trkpt>
<trkpt lat="49.206412" lon="11.821027">
<ele>525.9</ele>
<speed>11.1</speed>
<course>206.1</course>
<desc>Speed 11.1 km/h Distance 29.53 km</desc>
<time>2010-06-13T08:03:18.67</time>
<name>6767</name>
</trkpt>
<trkpt lat="49.206392" lon="11.821012">
<ele>525.2</ele>
<speed>9.6</speed>
<course>185.3</course>
<desc>Speed 9.6 km/h Distance 29.53 km</desc>
<time>2010-06-13T08:03:19.67</time>
<name>6768</name>
</trkpt>
<trkpt lat="49.206355" lon="11.821007">
<ele>523.7</ele>
<speed>11.1</speed>
<course>184.9</course>
<desc>Speed 11.1 km/h Distance 29.54 km</desc>
<time>2010-06-13T08:03:20.67</time>
<name>6769</name>
</trkpt>
<trkpt lat="49.206318" lon="11.821002">
<ele>523.4</ele>
<speed>10.9</speed>
<course>187.4</course>
<desc>Speed 10.9 km/h Distance 29.54 km</desc>
<time>2010-06-13T08:03:21.67</time>
<name>6770</name>
</trkpt>
<trkpt lat="49.206285" lon="11.820995">
<ele>523.8</ele>
<speed>9.5</speed>
<course>208.1</course>
<desc>Speed 9.5 km/h Distance 29.54 km</desc>
<time>2010-06-13T08:03:22.67</time>
<name>6771</name>
</trkpt>
<trkpt lat="49.206248" lon="11.820965">
<ele>527.7</ele>
<speed>10.3</speed>
<course>209.3</course>
<desc>Speed 10.3 km/h Distance 29.55 km</desc>
<time>2010-06-13T08:03:23.67</time>
<name>6772</name>
</trkpt>
<trkpt lat="49.206225" lon="11.820945">
<ele>527.5</ele>
<speed>9.7</speed>
<course>208.8</course>
<desc>Speed 9.7 km/h Distance 29.55 km</desc>
<time>2010-06-13T08:03:24.67</time>
<name>6773</name>
</trkpt>
<trkpt lat="49.206193" lon="11.820918">
<ele>527.8</ele>
<speed>11.2</speed>
<course>193.0</course>
<desc>Speed 11.2 km/h Distance 29.56 km</desc>
<time>2010-06-13T08:03:25.67</time>
<name>6774</name>
</trkpt>
<trkpt lat="49.206165" lon="11.820908">
<ele>527.6</ele>
<speed>9.0</speed>
<course>183.5</course>
<desc>Speed 9.0 km/h Distance 29.56 km</desc>
<time>2010-06-13T08:03:26.67</time>
<name>6775</name>
</trkpt>
<trkpt lat="49.206130" lon="11.820905">
<ele>527.1</ele>
<speed>10.4</speed>
<course>188.8</course>
<desc>Speed 10.4 km/h Distance 29.56 km</desc>
<time>2010-06-13T08:03:27.67</time>
<name>6776</name>
</trkpt>
<trkpt lat="49.206095" lon="11.820897">
<ele>526.3</ele>
<speed>10.4</speed>
<course>201.5</course>
<desc>Speed 10.4 km/h Distance 29.57 km</desc>
<time>2010-06-13T08:03:28.67</time>
<name>6777</name>
</trkpt>
<trkpt lat="49.206078" lon="11.820887">
<ele>526.4</ele>
<speed>7.8</speed>
<course>190.7</course>
<desc>Speed 7.8 km/h Distance 29.57 km</desc>
<time>2010-06-13T08:03:29.67</time>
<name>6778</name>
</trkpt>
<trkpt lat="49.206043" lon="11.820877">
<ele>527.3</ele>
<speed>10.8</speed>
<course>210.3</course>
<desc>Speed 10.8 km/h Distance 29.57 km</desc>
<time>2010-06-13T08:03:30.67</time>
<name>6779</name>
</trkpt>
<trkpt lat="49.206012" lon="11.820848">
<ele>531.5</ele>
<speed>12.0</speed>
<course>211.1</course>
<desc>Speed 12.0 km/h Distance 29.58 km</desc>
<time>2010-06-13T08:03:31.67</time>
<name>6780</name>
</trkpt>
<trkpt lat="49.205990" lon="11.820828">
<ele>531.6</ele>
<speed>10.0</speed>
<course>195.0</course>
<desc>Speed 10.0 km/h Distance 29.58 km</desc>
<time>2010-06-13T08:03:32.67</time>
<name>6781</name>
</trkpt>
<trkpt lat="49.205953" lon="11.820813">
<ele>533.1</ele>
<speed>11.3</speed>
<course>204.2</course>
<desc>Speed 11.3 km/h Distance 29.58 km</desc>
<time>2010-06-13T08:03:33.67</time>
<name>6782</name>
</trkpt>
<trkpt lat="49.205927" lon="11.820795">
<ele>533.6</ele>
<speed>8.8</speed>
<course>173.4</course>
<desc>Speed 8.8 km/h Distance 29.59 km</desc>
<time>2010-06-13T08:03:34.67</time>
<name>6783</name>
</trkpt>
<trkpt lat="49.205898" lon="11.820800">
<ele>532.2</ele>
<speed>8.6</speed>
<course>181.9</course>
<desc>Speed 8.6 km/h Distance 29.59 km</desc>
<time>2010-06-13T08:03:35.67</time>
<name>6784</name>
</trkpt>
<trkpt lat="49.205865" lon="11.820798">
<ele>531.4</ele>
<speed>10.6</speed>
<course>187.2</course>
<desc>Speed 10.6 km/h Distance 29.59 km</desc>
<time>2010-06-13T08:03:36.67</time>
<name>6785</name>
</trkpt>
<trkpt lat="49.205830" lon="11.820792">
<ele>530.8</ele>
<speed>10.7</speed>
<course>185.1</course>
<desc>Speed 10.7 km/h Distance 29.60 km</desc>
<time>2010-06-13T08:03:37.67</time>
<name>6786</name>
</trkpt>
<trkpt lat="49.205793" lon="11.820787">
<ele>530.3</ele>
<speed>10.4</speed>
<course>176.1</course>
<desc>Speed 10.4 km/h Distance 29.60 km</desc>
<time>2010-06-13T08:03:38.67</time>
<name>6787</name>
</trkpt>
<trkpt lat="49.205715" lon="11.820795">
<ele>527.7</ele>
<speed>9.5</speed>
<course>188.8</course>
<desc>Speed 9.5 km/h Distance 29.61 km</desc>
<time>2010-06-13T08:03:40.67</time>
<name>6788</name>
</trkpt>
<trkpt lat="49.205687" lon="11.820788">
<ele>526.9</ele>
<speed>9.6</speed>
<course>183.9</course>
<desc>Speed 9.6 km/h Distance 29.61 km</desc>
<time>2010-06-13T08:03:41.67</time>
<name>6789</name>
</trkpt>
<trkpt lat="49.205655" lon="11.820785">
<ele>526.0</ele>
<speed>10.3</speed>
<course>215.7</course>
<desc>Speed 10.3 km/h Distance 29.62 km</desc>
<time>2010-06-13T08:03:42.67</time>
<name>6790</name>
</trkpt>
<trkpt lat="49.205638" lon="11.820767">
<ele>529.1</ele>
<speed>7.0</speed>
<course>153.5</course>
<desc>Speed 7.0 km/h Distance 29.62 km</desc>
<time>2010-06-13T08:03:44.67</time>
<name>6791</name>
</trkpt>
<trkpt lat="49.205610" lon="11.820788">
<ele>529.9</ele>
<speed>8.6</speed>
<course>167.6</course>
<desc>Speed 8.6 km/h Distance 29.62 km</desc>
<time>2010-06-13T08:03:45.67</time>
<name>6792</name>
</trkpt>
<trkpt lat="49.205580" lon="11.820798">
<ele>530.7</ele>
<speed>9.9</speed>
<course>178.0</course>
<desc>Speed 9.9 km/h Distance 29.63 km</desc>
<time>2010-06-13T08:03:46.67</time>
<name>6793</name>
</trkpt>
<trkpt lat="49.205488" lon="11.820803">
<ele>531.0</ele>
<speed>12.2</speed>
<course>176.6</course>
<desc>Speed 12.2 km/h Distance 29.64 km</desc>
<time>2010-06-13T08:03:48.67</time>
<name>6794</name>
</trkpt>
<trkpt lat="49.205452" lon="11.820807">
<ele>531.2</ele>
<speed>10.9</speed>
<course>160.0</course>
<desc>Speed 10.9 km/h Distance 29.64 km</desc>
<time>2010-06-13T08:03:49.67</time>
<name>6795</name>
</trkpt>
<trkpt lat="49.205422" lon="11.820823">
<ele>532.2</ele>
<speed>10.0</speed>
<course>144.3</course>
<desc>Speed 10.0 km/h Distance 29.65 km</desc>
<time>2010-06-13T08:03:50.67</time>
<name>6796</name>
</trkpt>
<trkpt lat="49.205405" lon="11.820842">
<ele>532.2</ele>
<speed>8.0</speed>
<course>124.1</course>
<desc>Speed 8.0 km/h Distance 29.65 km</desc>
<time>2010-06-13T08:03:51.67</time>
<name>6797</name>
</trkpt>
<trkpt lat="49.205398" lon="11.820857">
<ele>533.7</ele>
<speed>4.9</speed>
<course>181.2</course>
<desc>Speed 4.9 km/h Distance 29.65 km</desc>
<time>2010-06-13T08:03:52.67</time>
<name>6798</name>
</trkpt>
<trkpt lat="49.205385" lon="11.820855">
<ele>535.7</ele>
<speed>6.0</speed>
<course>184.1</course>
<desc>Speed 6.0 km/h Distance 29.65 km</desc>
<time>2010-06-13T08:03:53.67</time>
<name>6799</name>
</trkpt>
<trkpt lat="49.205368" lon="11.820853">
<ele>538.2</ele>
<speed>4.5</speed>
<course>154.8</course>
<desc>Speed 4.5 km/h Distance 29.65 km</desc>
<time>2010-06-13T08:03:54.67</time>
<name>6800</name>
</trkpt>
<trkpt lat="49.205357" lon="11.820862">
<ele>540.8</ele>
<speed>6.3</speed>
<course>217.2</course>
<desc>Speed 6.3 km/h Distance 29.65 km</desc>
<time>2010-06-13T08:03:55.67</time>
<name>6801</name>
</trkpt>
<trkpt lat="49.205355" lon="11.820860">
<ele>542.0</ele>
<speed>4.0</speed>
<course>198.1</course>
<desc>Speed 4.0 km/h Distance 29.65 km</desc>
<time>2010-06-13T08:03:56.67</time>
<name>6802</name>
</trkpt>
<trkpt lat="49.205338" lon="11.820852">
<ele>542.6</ele>
<speed>4.2</speed>
<course>201.9</course>
<desc>Speed 4.2 km/h Distance 29.66 km</desc>
<time>2010-06-13T08:03:57.67</time>
<name>6803</name>
</trkpt>
<trkpt lat="49.205317" lon="11.820838">
<ele>543.0</ele>
<speed>4.8</speed>
<course>235.8</course>
<desc>Speed 4.8 km/h Distance 29.66 km</desc>
<time>2010-06-13T08:03:58.67</time>
<name>6804</name>
</trkpt>
<trkpt lat="49.205310" lon="11.820823">
<ele>544.9</ele>
<speed>4.7</speed>
<course>199.3</course>
<desc>Speed 4.7 km/h Distance 29.66 km</desc>
<time>2010-06-13T08:03:59.67</time>
<name>6805</name>
</trkpt>
<trkpt lat="49.205285" lon="11.820810">
<ele>546.1</ele>
<speed>6.2</speed>
<course>234.1</course>
<desc>Speed 6.2 km/h Distance 29.66 km</desc>
<time>2010-06-13T08:04:00.67</time>
<name>6806</name>
</trkpt>
<trkpt lat="49.205270" lon="11.820778">
<ele>549.3</ele>
<speed>5.8</speed>
<course>198.0</course>
<desc>Speed 5.8 km/h Distance 29.67 km</desc>
<time>2010-06-13T08:04:01.67</time>
<name>6807</name>
</trkpt>
<trkpt lat="49.205243" lon="11.820765">
<ele>549.6</ele>
<speed>5.2</speed>
<course>202.9</course>
<desc>Speed 5.2 km/h Distance 29.67 km</desc>
<time>2010-06-13T08:04:02.67</time>
<name>6808</name>
</trkpt>
<trkpt lat="49.205215" lon="11.820747">
<ele>549.5</ele>
<speed>5.7</speed>
<course>216.4</course>
<desc>Speed 5.7 km/h Distance 29.67 km</desc>
<time>2010-06-13T08:04:03.67</time>
<name>6809</name>
</trkpt>
<trkpt lat="49.205202" lon="11.820732">
<ele>549.9</ele>
<speed>4.7</speed>
<course>262.7</course>
<desc>Speed 4.7 km/h Distance 29.67 km</desc>
<time>2010-06-13T08:04:04.67</time>
<name>6810</name>
</trkpt>
<trkpt lat="49.205200" lon="11.820712">
<ele>550.4</ele>
<speed>4.1</speed>
<course>191.4</course>
<desc>Speed 4.1 km/h Distance 29.68 km</desc>
<time>2010-06-13T08:04:05.67</time>
<name>6811</name>
</trkpt>
<trkpt lat="49.205178" lon="11.820705">
<ele>550.6</ele>
<speed>3.7</speed>
<course>210.5</course>
<desc>Speed 3.7 km/h Distance 29.68 km</desc>
<time>2010-06-13T08:04:06.67</time>
<name>6812</name>
</trkpt>
<trkpt lat="49.205162" lon="11.820690">
<ele>550.8</ele>
<speed>5.0</speed>
<course>193.1</course>
<desc>Speed 5.0 km/h Distance 29.68 km</desc>
<time>2010-06-13T08:04:07.67</time>
<name>6813</name>
</trkpt>
<trkpt lat="49.205092" lon="11.820665">
<ele>551.4</ele>
<speed>10.0</speed>
<course>174.4</course>
<desc>Speed 10.0 km/h Distance 29.69 km</desc>
<time>2010-06-13T08:04:09.67</time>
<name>6814</name>
</trkpt>
<trkpt lat="49.205068" lon="11.820668">
<ele>550.7</ele>
<speed>9.0</speed>
<course>199.3</course>
<desc>Speed 9.0 km/h Distance 29.69 km</desc>
<time>2010-06-13T08:04:10.67</time>
<name>6815</name>
</trkpt>
<trkpt lat="49.205043" lon="11.820655">
<ele>550.6</ele>
<speed>9.6</speed>
<course>208.1</course>
<desc>Speed 9.6 km/h Distance 29.69 km</desc>
<time>2010-06-13T08:04:11.67</time>
<name>6816</name>
</trkpt>
<trkpt lat="49.205025" lon="11.820640">
<ele>550.8</ele>
<speed>7.2</speed>
<course>188.4</course>
<desc>Speed 7.2 km/h Distance 29.70 km</desc>
<time>2010-06-13T08:04:12.67</time>
<name>6817</name>
</trkpt>
<trkpt lat="49.205003" lon="11.820635">
<ele>551.1</ele>
<speed>6.5</speed>
<course>181.2</course>
<desc>Speed 6.5 km/h Distance 29.70 km</desc>
<time>2010-06-13T08:04:13.67</time>
<name>6818</name>
</trkpt>
<trkpt lat="49.204970" lon="11.820633">
<ele>550.9</ele>
<speed>8.4</speed>
<course>178.3</course>
<desc>Speed 8.4 km/h Distance 29.70 km</desc>
<time>2010-06-13T08:04:14.67</time>
<name>6819</name>
</trkpt>
<trkpt lat="49.204935" lon="11.820635">
<ele>550.3</ele>
<speed>8.3</speed>
<course>185.5</course>
<desc>Speed 8.3 km/h Distance 29.71 km</desc>
<time>2010-06-13T08:04:15.67</time>
<name>6820</name>
</trkpt>
<trkpt lat="49.204913" lon="11.820632">
<ele>550.2</ele>
<speed>7.1</speed>
<course>171.2</course>
<desc>Speed 7.1 km/h Distance 29.71 km</desc>
<time>2010-06-13T08:04:16.67</time>
<name>6821</name>
</trkpt>
<trkpt lat="49.204850" lon="11.820647">
<ele>551.4</ele>
<speed>7.1</speed>
<course>179.1</course>
<desc>Speed 7.1 km/h Distance 29.72 km</desc>
<time>2010-06-13T08:04:18.67</time>
<name>6822</name>
</trkpt>
<trkpt lat="49.204820" lon="11.820647">
<ele>550.6</ele>
<speed>7.9</speed>
<course>182.3</course>
<desc>Speed 7.9 km/h Distance 29.72 km</desc>
<time>2010-06-13T08:04:19.67</time>
<name>6823</name>
</trkpt>
<trkpt lat="49.204742" lon="11.820642">
<ele>551.2</ele>
<speed>7.5</speed>
<course>185.0</course>
<desc>Speed 7.5 km/h Distance 29.73 km</desc>
<time>2010-06-13T08:04:21.67</time>
<name>6824</name>
</trkpt>
<trkpt lat="49.204717" lon="11.820638">
<ele>549.4</ele>
<speed>8.1</speed>
<course>188.7</course>
<desc>Speed 8.1 km/h Distance 29.73 km</desc>
<time>2010-06-13T08:04:22.67</time>
<name>6825</name>
</trkpt>
<trkpt lat="49.204688" lon="11.820632">
<ele>549.4</ele>
<speed>7.5</speed>
<course>219.7</course>
<desc>Speed 7.5 km/h Distance 29.73 km</desc>
<time>2010-06-13T08:04:23.67</time>
<name>6826</name>
</trkpt>
<trkpt lat="49.204670" lon="11.820608">
<ele>551.3</ele>
<speed>8.2</speed>
<course>227.0</course>
<desc>Speed 8.2 km/h Distance 29.74 km</desc>
<time>2010-06-13T08:04:24.67</time>
<name>6827</name>
</trkpt>
<trkpt lat="49.204647" lon="11.820570">
<ele>552.9</ele>
<speed>9.4</speed>
<course>192.0</course>
<desc>Speed 9.4 km/h Distance 29.74 km</desc>
<time>2010-06-13T08:04:25.67</time>
<name>6828</name>
</trkpt>
<trkpt lat="49.204575" lon="11.820547">
<ele>551.3</ele>
<speed>7.0</speed>
<course>220.0</course>
<desc>Speed 7.0 km/h Distance 29.75 km</desc>
<time>2010-06-13T08:04:27.67</time>
<name>6829</name>
</trkpt>
<trkpt lat="49.204563" lon="11.820532">
<ele>550.0</ele>
<speed>5.9</speed>
<course>213.2</course>
<desc>Speed 5.9 km/h Distance 29.75 km</desc>
<time>2010-06-13T08:04:28.67</time>
<name>6830</name>
</trkpt>
<trkpt lat="49.204550" lon="11.820518">
<ele>550.1</ele>
<speed>7.4</speed>
<course>213.2</course>
<desc>Speed 7.4 km/h Distance 29.75 km</desc>
<time>2010-06-13T08:04:29.67</time>
<name>6831</name>
</trkpt>
<trkpt lat="49.204522" lon="11.820490">
<ele>550.6</ele>
<speed>8.6</speed>
<course>227.0</course>
<desc>Speed 8.6 km/h Distance 29.76 km</desc>
<time>2010-06-13T08:04:30.67</time>
<name>6832</name>
</trkpt>
<trkpt lat="49.204498" lon="11.820452">
<ele>553.5</ele>
<speed>8.0</speed>
<course>207.6</course>
<desc>Speed 8.0 km/h Distance 29.76 km</desc>
<time>2010-06-13T08:04:31.67</time>
<name>6833</name>
</trkpt>
<trkpt lat="49.204440" lon="11.820405">
<ele>554.8</ele>
<speed>5.4</speed>
<course>222.3</course>
<desc>Speed 5.4 km/h Distance 29.77 km</desc>
<time>2010-06-13T08:04:33.67</time>
<name>6834</name>
</trkpt>
<trkpt lat="49.204402" lon="11.820352">
<ele>556.3</ele>
<speed>5.3</speed>
<course>212.2</course>
<desc>Speed 5.3 km/h Distance 29.77 km</desc>
<time>2010-06-13T08:04:35.67</time>
<name>6835</name>
</trkpt>
<trkpt lat="49.204357" lon="11.820308">
<ele>555.2</ele>
<speed>7.1</speed>
<course>227.4</course>
<desc>Speed 7.1 km/h Distance 29.78 km</desc>
<time>2010-06-13T08:04:37.67</time>
<name>6836</name>
</trkpt>
<trkpt lat="49.204347" lon="11.820292">
<ele>554.2</ele>
<speed>5.4</speed>
<course>258.4</course>
<desc>Speed 5.4 km/h Distance 29.78 km</desc>
<time>2010-06-13T08:04:38.67</time>
<name>6837</name>
</trkpt>
<trkpt lat="49.204343" lon="11.820267">
<ele>553.6</ele>
<speed>4.8</speed>
<course>248.2</course>
<desc>Speed 4.8 km/h Distance 29.78 km</desc>
<time>2010-06-13T08:04:39.67</time>
<name>6838</name>
</trkpt>
<trkpt lat="49.204333" lon="11.820228">
<ele>555.2</ele>
<speed>4.0</speed>
<course>249.1</course>
<desc>Speed 4.0 km/h Distance 29.78 km</desc>
<time>2010-06-13T08:04:40.67</time>
<name>6839</name>
</trkpt>
<trkpt lat="49.204327" lon="11.820202">
<ele>557.9</ele>
<speed>4.2</speed>
<course>185.9</course>
<desc>Speed 4.2 km/h Distance 29.79 km</desc>
<time>2010-06-13T08:04:41.67</time>
<name>6840</name>
</trkpt>
<trkpt lat="49.204242" lon="11.820188">
<ele>558.2</ele>
<speed>8.8</speed>
<course>186.3</course>
<desc>Speed 8.8 km/h Distance 29.80 km</desc>
<time>2010-06-13T08:04:43.67</time>
<name>6841</name>
</trkpt>
<trkpt lat="49.204163" lon="11.820175">
<ele>556.4</ele>
<speed>8.6</speed>
<course>215.4</course>
<desc>Speed 8.6 km/h Distance 29.81 km</desc>
<time>2010-06-13T08:04:45.67</time>
<name>6842</name>
</trkpt>
<trkpt lat="49.204107" lon="11.820113">
<ele>558.9</ele>
<speed>6.1</speed>
<course>202.7</course>
<desc>Speed 6.1 km/h Distance 29.81 km</desc>
<time>2010-06-13T08:04:47.67</time>
<name>6843</name>
</trkpt>
<trkpt lat="49.204083" lon="11.820098">
<ele>559.5</ele>
<speed>5.5</speed>
<course>250.8</course>
<desc>Speed 5.5 km/h Distance 29.82 km</desc>
<time>2010-06-13T08:04:48.67</time>
<name>6844</name>
</trkpt>
<trkpt lat="49.204075" lon="11.820062">
<ele>560.8</ele>
<speed>5.1</speed>
<course>216.5</course>
<desc>Speed 5.1 km/h Distance 29.82 km</desc>
<time>2010-06-13T08:04:49.67</time>
<name>6845</name>
</trkpt>
<trkpt lat="49.204062" lon="11.820047">
<ele>561.3</ele>
<speed>4.7</speed>
<course>253.0</course>
<desc>Speed 4.7 km/h Distance 29.82 km</desc>
<time>2010-06-13T08:04:50.67</time>
<name>6846</name>
</trkpt>
<trkpt lat="49.204057" lon="11.820022">
<ele>559.9</ele>
<speed>5.2</speed>
<course>200.2</course>
<desc>Speed 5.2 km/h Distance 29.82 km</desc>
<time>2010-06-13T08:04:51.67</time>
<name>6847</name>
</trkpt>
<trkpt lat="49.204045" lon="11.820015">
<ele>558.9</ele>
<speed>3.0</speed>
<course>213.1</course>
<desc>Speed 3.0 km/h Distance 29.82 km</desc>
<time>2010-06-13T08:04:52.67</time>
<name>6848</name>
</trkpt>
<trkpt lat="49.204030" lon="11.820000">
<ele>560.8</ele>
<speed>2.6</speed>
<course>165.1</course>
<desc>Speed 2.6 km/h Distance 29.83 km</desc>
<time>2010-06-13T08:04:53.67</time>
<name>6849</name>
</trkpt>
<trkpt lat="49.204022" lon="11.820003">
<ele>560.0</ele>
<speed>4.6</speed>
<course>225.8</course>
<desc>Speed 4.6 km/h Distance 29.83 km</desc>
<time>2010-06-13T08:04:54.67</time>
<name>6850</name>
</trkpt>
<trkpt lat="49.204010" lon="11.819985">
<ele>559.9</ele>
<speed>6.2</speed>
<course>196.7</course>
<desc>Speed 6.2 km/h Distance 29.83 km</desc>
<time>2010-06-13T08:04:55.67</time>
<name>6851</name>
</trkpt>
<trkpt lat="49.203988" lon="11.819975">
<ele>559.0</ele>
<speed>6.3</speed>
<course>189.9</course>
<desc>Speed 6.3 km/h Distance 29.83 km</desc>
<time>2010-06-13T08:04:56.67</time>
<name>6852</name>
</trkpt>
<trkpt lat="49.203913" lon="11.819955">
<ele>556.6</ele>
<speed>11.0</speed>
<course>199.3</course>
<desc>Speed 11.0 km/h Distance 29.84 km</desc>
<time>2010-06-13T08:04:58.67</time>
<name>6853</name>
</trkpt>
<trkpt lat="49.203888" lon="11.819942">
<ele>555.3</ele>
<speed>8.9</speed>
<course>250.6</course>
<desc>Speed 8.9 km/h Distance 29.84 km</desc>
<time>2010-06-13T08:04:59.67</time>
<name>6854</name>
</trkpt>
<trkpt lat="49.203883" lon="11.819920">
<ele>554.3</ele>
<speed>8.0</speed>
<course>200.5</course>
<desc>Speed 8.0 km/h Distance 29.84 km</desc>
<time>2010-06-13T08:05:00.67</time>
<name>6855</name>
</trkpt>
<trkpt lat="49.203848" lon="11.819900">
<ele>550.6</ele>
<speed>8.5</speed>
<course>198.0</course>
<desc>Speed 8.5 km/h Distance 29.85 km</desc>
<time>2010-06-13T08:05:01.67</time>
<name>6856</name>
</trkpt>
<trkpt lat="49.203815" lon="11.819883">
<ele>547.1</ele>
<speed>8.8</speed>
<course>197.2</course>
<desc>Speed 8.8 km/h Distance 29.85 km</desc>
<time>2010-06-13T08:05:02.67</time>
<name>6857</name>
</trkpt>
<trkpt lat="49.203780" lon="11.819867">
<ele>544.1</ele>
<speed>9.2</speed>
<course>192.8</course>
<desc>Speed 9.2 km/h Distance 29.86 km</desc>
<time>2010-06-13T08:05:03.67</time>
<name>6858</name>
</trkpt>
<trkpt lat="49.203742" lon="11.819853">
<ele>541.5</ele>
<speed>10.9</speed>
<course>189.7</course>
<desc>Speed 10.9 km/h Distance 29.86 km</desc>
<time>2010-06-13T08:05:04.67</time>
<name>6859</name>
</trkpt>
<trkpt lat="49.203710" lon="11.819845">
<ele>541.5</ele>
<speed>10.2</speed>
<course>197.2</course>
<desc>Speed 10.2 km/h Distance 29.86 km</desc>
<time>2010-06-13T08:05:05.67</time>
<name>6860</name>
</trkpt>
<trkpt lat="49.203675" lon="11.819828">
<ele>540.4</ele>
<speed>11.4</speed>
<course>196.1</course>
<desc>Speed 11.4 km/h Distance 29.87 km</desc>
<time>2010-06-13T08:05:06.67</time>
<name>6861</name>
</trkpt>
<trkpt lat="49.203633" lon="11.819810">
<ele>539.9</ele>
<speed>11.3</speed>
<course>168.3</course>
<desc>Speed 11.3 km/h Distance 29.87 km</desc>
<time>2010-06-13T08:05:07.67</time>
<name>6862</name>
</trkpt>
<trkpt lat="49.203533" lon="11.819842">
<ele>539.2</ele>
<speed>14.6</speed>
<course>172.3</course>
<desc>Speed 14.6 km/h Distance 29.88 km</desc>
<time>2010-06-13T08:05:09.67</time>
<name>6863</name>
</trkpt>
<trkpt lat="49.203493" lon="11.819850">
<ele>540.5</ele>
<speed>13.6</speed>
<course>164.0</course>
<desc>Speed 13.6 km/h Distance 29.89 km</desc>
<time>2010-06-13T08:05:10.67</time>
<name>6864</name>
</trkpt>
<trkpt lat="49.203452" lon="11.819868">
<ele>538.9</ele>
<speed>14.0</speed>
<course>158.7</course>
<desc>Speed 14.0 km/h Distance 29.89 km</desc>
<time>2010-06-13T08:05:11.67</time>
<name>6865</name>
</trkpt>
<trkpt lat="49.203365" lon="11.819920">
<ele>534.8</ele>
<speed>13.2</speed>
<course>154.2</course>
<desc>Speed 13.2 km/h Distance 29.90 km</desc>
<time>2010-06-13T08:05:13.67</time>
<name>6866</name>
</trkpt>
<trkpt lat="49.203327" lon="11.819948">
<ele>533.0</ele>
<speed>12.0</speed>
<course>169.3</course>
<desc>Speed 12.0 km/h Distance 29.91 km</desc>
<time>2010-06-13T08:05:14.67</time>
<name>6867</name>
</trkpt>
<trkpt lat="49.203287" lon="11.819960">
<ele>532.6</ele>
<speed>10.8</speed>
<course>166.7</course>
<desc>Speed 10.8 km/h Distance 29.91 km</desc>
<time>2010-06-13T08:05:15.67</time>
<name>6868</name>
</trkpt>
<trkpt lat="49.203250" lon="11.819973">
<ele>532.6</ele>
<speed>9.5</speed>
<course>139.5</course>
<desc>Speed 9.5 km/h Distance 29.92 km</desc>
<time>2010-06-13T08:05:16.67</time>
<name>6869</name>
</trkpt>
<trkpt lat="49.203228" lon="11.820002">
<ele>531.2</ele>
<speed>7.8</speed>
<course>153.9</course>
<desc>Speed 7.8 km/h Distance 29.92 km</desc>
<time>2010-06-13T08:05:17.67</time>
<name>6870</name>
</trkpt>
<trkpt lat="49.203195" lon="11.820027">
<ele>529.9</ele>
<speed>9.4</speed>
<course>122.2</course>
<desc>Speed 9.4 km/h Distance 29.93 km</desc>
<time>2010-06-13T08:05:18.67</time>
<name>6871</name>
</trkpt>
<trkpt lat="49.203183" lon="11.820055">
<ele>528.0</ele>
<speed>8.7</speed>
<course>155.2</course>
<desc>Speed 8.7 km/h Distance 29.93 km</desc>
<time>2010-06-13T08:05:19.67</time>
<name>6872</name>
</trkpt>
<trkpt lat="49.203155" lon="11.820075">
<ele>527.4</ele>
<speed>7.6</speed>
<course>152.0</course>
<desc>Speed 7.6 km/h Distance 29.93 km</desc>
<time>2010-06-13T08:05:20.67</time>
<name>6873</name>
</trkpt>
<trkpt lat="49.203128" lon="11.820097">
<ele>528.0</ele>
<speed>6.3</speed>
<course>143.6</course>
<desc>Speed 6.3 km/h Distance 29.93 km</desc>
<time>2010-06-13T08:05:21.67</time>
<name>6874</name>
</trkpt>
<trkpt lat="49.203115" lon="11.820112">
<ele>526.9</ele>
<speed>4.8</speed>
<course>163.6</course>
<desc>Speed 4.8 km/h Distance 29.94 km</desc>
<time>2010-06-13T08:05:22.67</time>
<name>6875</name>
</trkpt>
<trkpt lat="49.203097" lon="11.820120">
<ele>526.9</ele>
<speed>4.5</speed>
<course>162.0</course>
<desc>Speed 4.5 km/h Distance 29.94 km</desc>
<time>2010-06-13T08:05:23.67</time>
<name>6876</name>
</trkpt>
<trkpt lat="49.203077" lon="11.820130">
<ele>525.5</ele>
<speed>4.9</speed>
<course>138.9</course>
<desc>Speed 4.9 km/h Distance 29.94 km</desc>
<time>2010-06-13T08:05:24.67</time>
<name>6877</name>
</trkpt>
<trkpt lat="49.203037" lon="11.820183">
<ele>524.7</ele>
<speed>5.4</speed>
<course>137.5</course>
<desc>Speed 5.4 km/h Distance 29.95 km</desc>
<time>2010-06-13T08:05:26.67</time>
<name>6878</name>
</trkpt>
<trkpt lat="49.203020" lon="11.820207">
<ele>524.9</ele>
<speed>3.1</speed>
<course>157.3</course>
<desc>Speed 3.1 km/h Distance 29.95 km</desc>
<time>2010-06-13T08:05:27.67</time>
<name>6879</name>
</trkpt>
<trkpt lat="49.203002" lon="11.820218">
<ele>522.7</ele>
<speed>3.5</speed>
<course>168.4</course>
<desc>Speed 3.5 km/h Distance 29.95 km</desc>
<time>2010-06-13T08:05:28.67</time>
<name>6880</name>
</trkpt>
<trkpt lat="49.202943" lon="11.820237">
<ele>521.8</ele>
<speed>4.0</speed>
<course>159.4</course>
<desc>Speed 4.0 km/h Distance 29.96 km</desc>
<time>2010-06-13T08:05:30.67</time>
<name>6881</name>
</trkpt>
<trkpt lat="49.202888" lon="11.820268">
<ele>521.9</ele>
<speed>7.6</speed>
<course>156.5</course>
<desc>Speed 7.6 km/h Distance 29.96 km</desc>
<time>2010-06-13T08:05:32.67</time>
<name>6882</name>
</trkpt>
<trkpt lat="49.202863" lon="11.820285">
<ele>522.5</ele>
<speed>7.0</speed>
<course>141.2</course>
<desc>Speed 7.0 km/h Distance 29.97 km</desc>
<time>2010-06-13T08:05:33.67</time>
<name>6883</name>
</trkpt>
<trkpt lat="49.202842" lon="11.820312">
<ele>523.0</ele>
<speed>7.8</speed>
<course>145.3</course>
<desc>Speed 7.8 km/h Distance 29.97 km</desc>
<time>2010-06-13T08:05:34.67</time>
<name>6884</name>
</trkpt>
<trkpt lat="49.202813" lon="11.820342">
<ele>523.4</ele>
<speed>9.6</speed>
<course>106.0</course>
<desc>Speed 9.6 km/h Distance 29.97 km</desc>
<time>2010-06-13T08:05:35.67</time>
<name>6885</name>
</trkpt>
<trkpt lat="49.202803" lon="11.820395">
<ele>523.1</ele>
<speed>10.0</speed>
<course>111.8</course>
<desc>Speed 10.0 km/h Distance 29.98 km</desc>
<time>2010-06-13T08:05:36.67</time>
<name>6886</name>
</trkpt>
<trkpt lat="49.202793" lon="11.820433">
<ele>522.9</ele>
<speed>9.3</speed>
<course>155.8</course>
<desc>Speed 9.3 km/h Distance 29.98 km</desc>
<time>2010-06-13T08:05:37.67</time>
<name>6887</name>
</trkpt>
<trkpt lat="49.202767" lon="11.820452">
<ele>523.3</ele>
<speed>8.0</speed>
<course>129.0</course>
<desc>Speed 8.0 km/h Distance 29.98 km</desc>
<time>2010-06-13T08:05:38.67</time>
<name>6888</name>
</trkpt>
<trkpt lat="49.202752" lon="11.820480">
<ele>521.7</ele>
<speed>7.5</speed>
<course>99.7</course>
<desc>Speed 7.5 km/h Distance 29.99 km</desc>
<time>2010-06-13T08:05:39.67</time>
<name>6889</name>
</trkpt>
<trkpt lat="49.202748" lon="11.820510">
<ele>521.2</ele>
<speed>6.6</speed>
<course>124.1</course>
<desc>Speed 6.6 km/h Distance 29.99 km</desc>
<time>2010-06-13T08:05:40.67</time>
<name>6890</name>
</trkpt>
<trkpt lat="49.202742" lon="11.820525">
<ele>522.0</ele>
<speed>5.9</speed>
<course>119.9</course>
<desc>Speed 5.9 km/h Distance 29.99 km</desc>
<time>2010-06-13T08:05:41.67</time>
<name>6891</name>
</trkpt>
<trkpt lat="49.202737" lon="11.820538">
<ele>522.2</ele>
<speed>3.8</speed>
<course>124.8</course>
<desc>Speed 3.8 km/h Distance 29.99 km</desc>
<time>2010-06-13T08:05:42.67</time>
<name>6892</name>
</trkpt>
<trkpt lat="49.202728" lon="11.820557">
<ele>523.1</ele>
<speed>3.6</speed>
<course>146.9</course>
<desc>Speed 3.6 km/h Distance 29.99 km</desc>
<time>2010-06-13T08:05:43.67</time>
<name>6893</name>
</trkpt>
<trkpt lat="49.202708" lon="11.820577">
<ele>524.7</ele>
<speed>3.6</speed>
<course>109.4</course>
<desc>Speed 3.6 km/h Distance 30.00 km</desc>
<time>2010-06-13T08:05:44.67</time>
<name>6894</name>
</trkpt>
<trkpt lat="49.202703" lon="11.820598">
<ele>526.1</ele>
<speed>4.5</speed>
<course>131.1</course>
<desc>Speed 4.5 km/h Distance 30.00 km</desc>
<time>2010-06-13T08:05:45.67</time>
<name>6895</name>
</trkpt>
<trkpt lat="49.202697" lon="11.820610">
<ele>526.7</ele>
<speed>3.0</speed>
<course>117.0</course>
<desc>Speed 3.0 km/h Distance 30.00 km</desc>
<time>2010-06-13T08:05:46.67</time>
<name>6896</name>
</trkpt>
<trkpt lat="49.202693" lon="11.820620">
<ele>526.8</ele>
<speed>3.4</speed>
<course>140.7</course>
<desc>Speed 3.4 km/h Distance 30.00 km</desc>
<time>2010-06-13T08:05:47.67</time>
<name>6897</name>
</trkpt>
<trkpt lat="49.202680" lon="11.820637">
<ele>526.4</ele>
<speed>3.9</speed>
<course>110.9</course>
<desc>Speed 3.9 km/h Distance 30.00 km</desc>
<time>2010-06-13T08:05:48.67</time>
<name>6898</name>
</trkpt>
<trkpt lat="49.202677" lon="11.820650">
<ele>527.4</ele>
<speed>4.4</speed>
<course>117.0</course>
<desc>Speed 4.4 km/h Distance 30.00 km</desc>
<time>2010-06-13T08:05:49.67</time>
<name>6899</name>
</trkpt>
<trkpt lat="49.202673" lon="11.820660">
<ele>528.9</ele>
<speed>4.8</speed>
<course>73.0</course>
<desc>Speed 4.8 km/h Distance 30.00 km</desc>
<time>2010-06-13T08:05:50.67</time>
<name>6900</name>
</trkpt>
<trkpt lat="49.202680" lon="11.820693">
<ele>529.5</ele>
<speed>5.8</speed>
<course>115.2</course>
<desc>Speed 5.8 km/h Distance 30.01 km</desc>
<time>2010-06-13T08:05:51.67</time>
<name>6901</name>
</trkpt>
<trkpt lat="49.202673" lon="11.820715">
<ele>530.9</ele>
<speed>5.4</speed>
<course>90.0</course>
<desc>Speed 5.4 km/h Distance 30.01 km</desc>
<time>2010-06-13T08:05:52.67</time>
<name>6902</name>
</trkpt>
<trkpt lat="49.202673" lon="11.820738">
<ele>530.3</ele>
<speed>6.0</speed>
<course>112.6</course>
<desc>Speed 6.0 km/h Distance 30.01 km</desc>
<time>2010-06-13T08:05:53.67</time>
<name>6903</name>
</trkpt>
<trkpt lat="49.202668" lon="11.820757">
<ele>530.9</ele>
<speed>3.8</speed>
<course>107.0</course>
<desc>Speed 3.8 km/h Distance 30.01 km</desc>
<time>2010-06-13T08:05:54.67</time>
<name>6904</name>
</trkpt>
<trkpt lat="49.202665" lon="11.820773">
<ele>532.1</ele>
<speed>2.1</speed>
<course>112.7</course>
<desc>Speed 2.1 km/h Distance 30.01 km</desc>
<time>2010-06-13T08:05:55.67</time>
<name>6905</name>
</trkpt>
<trkpt lat="49.202660" lon="11.820792">
<ele>532.8</ele>
<speed>3.0</speed>
<course>170.8</course>
<desc>Speed 3.0 km/h Distance 30.01 km</desc>
<time>2010-06-13T08:05:56.67</time>
<name>6906</name>
</trkpt>
<trkpt lat="49.202640" lon="11.820797">
<ele>533.5</ele>
<speed>5.4</speed>
<course>182.6</course>
<desc>Speed 5.4 km/h Distance 30.02 km</desc>
<time>2010-06-13T08:05:57.67</time>
<name>6907</name>
</trkpt>
<trkpt lat="49.202570" lon="11.820792">
<ele>535.4</ele>
<speed>8.8</speed>
<course>195.5</course>
<desc>Speed 8.8 km/h Distance 30.02 km</desc>
<time>2010-06-13T08:05:59.67</time>
<name>6908</name>
</trkpt>
<trkpt lat="49.202547" lon="11.820782">
<ele>535.2</ele>
<speed>7.6</speed>
<course>185.5</course>
<desc>Speed 7.6 km/h Distance 30.03 km</desc>
<time>2010-06-13T08:06:00.67</time>
<name>6909</name>
</trkpt>
<trkpt lat="49.202512" lon="11.820777">
<ele>535.9</ele>
<speed>8.1</speed>
<course>185.9</course>
<desc>Speed 8.1 km/h Distance 30.03 km</desc>
<time>2010-06-13T08:06:01.67</time>
<name>6910</name>
</trkpt>
<trkpt lat="49.202427" lon="11.820763">
<ele>535.5</ele>
<speed>9.8</speed>
<course>179.6</course>
<desc>Speed 9.8 km/h Distance 30.04 km</desc>
<time>2010-06-13T08:06:03.67</time>
<name>6911</name>
</trkpt>
<trkpt lat="49.202335" lon="11.820763">
<ele>537.9</ele>
<speed>12.8</speed>
<course>174.0</course>
<desc>Speed 12.8 km/h Distance 30.05 km</desc>
<time>2010-06-13T08:06:05.67</time>
<name>6912</name>
</trkpt>
<trkpt lat="49.202293" lon="11.820770">
<ele>538.3</ele>
<speed>10.9</speed>
<course>155.4</course>
<desc>Speed 10.9 km/h Distance 30.05 km</desc>
<time>2010-06-13T08:06:06.67</time>
<name>6913</name>
</trkpt>
<trkpt lat="49.202260" lon="11.820793">
<ele>538.3</ele>
<speed>9.0</speed>
<course>178.1</course>
<desc>Speed 9.0 km/h Distance 30.06 km</desc>
<time>2010-06-13T08:06:07.67</time>
<name>6914</name>
</trkpt>
<trkpt lat="49.202227" lon="11.820795">
<ele>538.8</ele>
<speed>8.6</speed>
<course>173.0</course>
<desc>Speed 8.6 km/h Distance 30.06 km</desc>
<time>2010-06-13T08:06:08.67</time>
<name>6915</name>
</trkpt>
<trkpt lat="49.202147" lon="11.820810">
<ele>540.7</ele>
<speed>10.0</speed>
<course>150.0</course>
<desc>Speed 10.0 km/h Distance 30.07 km</desc>
<time>2010-06-13T08:06:10.67</time>
<name>6916</name>
</trkpt>
<trkpt lat="49.202118" lon="11.820835">
<ele>539.5</ele>
<speed>9.5</speed>
<course>156.0</course>
<desc>Speed 9.5 km/h Distance 30.08 km</desc>
<time>2010-06-13T08:06:11.67</time>
<name>6917</name>
</trkpt>
<trkpt lat="49.202082" lon="11.820860">
<ele>538.9</ele>
<speed>8.4</speed>
<course>167.7</course>
<desc>Speed 8.4 km/h Distance 30.08 km</desc>
<time>2010-06-13T08:06:12.67</time>
<name>6918</name>
</trkpt>
<trkpt lat="49.202002" lon="11.820887">
<ele>539.8</ele>
<speed>8.4</speed>
<course>169.8</course>
<desc>Speed 8.4 km/h Distance 30.09 km</desc>
<time>2010-06-13T08:06:14.67</time>
<name>6919</name>
</trkpt>
<trkpt lat="49.201965" lon="11.820897">
<ele>540.6</ele>
<speed>6.4</speed>
<course>179.1</course>
<desc>Speed 6.4 km/h Distance 30.09 km</desc>
<time>2010-06-13T08:06:15.67</time>
<name>6920</name>
</trkpt>
<trkpt lat="49.201935" lon="11.820897">
<ele>542.3</ele>
<speed>6.4</speed>
<course>159.8</course>
<desc>Speed 6.4 km/h Distance 30.10 km</desc>
<time>2010-06-13T08:06:16.67</time>
<name>6921</name>
</trkpt>
<trkpt lat="49.201908" lon="11.820912">
<ele>542.4</ele>
<speed>5.7</speed>
<course>120.3</course>
<desc>Speed 5.7 km/h Distance 30.10 km</desc>
<time>2010-06-13T08:06:17.67</time>
<name>6922</name>
</trkpt>
<trkpt lat="49.201873" lon="11.821003">
<ele>535.6</ele>
<speed>5.2</speed>
<course>145.3</course>
<desc>Speed 5.2 km/h Distance 30.11 km</desc>
<time>2010-06-13T08:06:19.67</time>
<name>6923</name>
</trkpt>
<trkpt lat="49.201817" lon="11.821063">
<ele>533.5</ele>
<speed>6.5</speed>
<course>144.7</course>
<desc>Speed 6.5 km/h Distance 30.11 km</desc>
<time>2010-06-13T08:06:21.67</time>
<name>6924</name>
</trkpt>
<trkpt lat="49.201797" lon="11.821085">
<ele>533.6</ele>
<speed>4.4</speed>
<course>170.5</course>
<desc>Speed 4.4 km/h Distance 30.12 km</desc>
<time>2010-06-13T08:06:22.67</time>
<name>6925</name>
</trkpt>
<trkpt lat="49.201725" lon="11.821103">
<ele>536.4</ele>
<speed>5.3</speed>
<course>174.7</course>
<desc>Speed 5.3 km/h Distance 30.13 km</desc>
<time>2010-06-13T08:06:24.67</time>
<name>6926</name>
</trkpt>
<trkpt lat="49.201667" lon="11.821112">
<ele>538.0</ele>
<speed>6.0</speed>
<course>165.9</course>
<desc>Speed 6.0 km/h Distance 30.13 km</desc>
<time>2010-06-13T08:06:26.67</time>
<name>6927</name>
</trkpt>
<trkpt lat="49.201602" lon="11.821137">
<ele>539.2</ele>
<speed>4.8</speed>
<course>156.0</course>
<desc>Speed 4.8 km/h Distance 30.14 km</desc>
<time>2010-06-13T08:06:28.67</time>
<name>6928</name>
</trkpt>
<trkpt lat="49.201518" lon="11.821193">
<ele>539.5</ele>
<speed>5.5</speed>
<course>156.5</course>
<desc>Speed 5.5 km/h Distance 30.15 km</desc>
<time>2010-06-13T08:06:30.67</time>
<name>6929</name>
</trkpt>
<trkpt lat="49.201448" lon="11.821240">
<ele>540.7</ele>
<speed>8.6</speed>
<course>156.2</course>
<desc>Speed 8.6 km/h Distance 30.16 km</desc>
<time>2010-06-13T08:06:32.67</time>
<name>6930</name>
</trkpt>
<trkpt lat="49.201377" lon="11.821288">
<ele>541.4</ele>
<speed>10.5</speed>
<course>131.2</course>
<desc>Speed 10.5 km/h Distance 30.17 km</desc>
<time>2010-06-13T08:06:34.67</time>
<name>6931</name>
</trkpt>
<trkpt lat="49.201357" lon="11.821323">
<ele>540.6</ele>
<speed>8.7</speed>
<course>119.1</course>
<desc>Speed 8.7 km/h Distance 30.17 km</desc>
<time>2010-06-13T08:06:35.67</time>
<name>6932</name>
</trkpt>
<trkpt lat="49.201343" lon="11.821360">
<ele>539.2</ele>
<speed>8.0</speed>
<course>122.9</course>
<desc>Speed 8.0 km/h Distance 30.17 km</desc>
<time>2010-06-13T08:06:36.67</time>
<name>6933</name>
</trkpt>
<trkpt lat="49.201325" lon="11.821403">
<ele>537.2</ele>
<speed>7.5</speed>
<course>123.8</course>
<desc>Speed 7.5 km/h Distance 30.18 km</desc>
<time>2010-06-13T08:06:37.67</time>
<name>6934</name>
</trkpt>
<trkpt lat="49.201290" lon="11.821483">
<ele>533.9</ele>
<speed>5.7</speed>
<course>130.4</course>
<desc>Speed 5.7 km/h Distance 30.18 km</desc>
<time>2010-06-13T08:06:39.67</time>
<name>6935</name>
</trkpt>
<trkpt lat="49.201273" lon="11.821513">
<ele>531.7</ele>
<speed>4.0</speed>
<course>158.7</course>
<desc>Speed 4.0 km/h Distance 30.19 km</desc>
<time>2010-06-13T08:06:40.67</time>
<name>6936</name>
</trkpt>
<trkpt lat="49.201203" lon="11.821555">
<ele>530.4</ele>
<speed>1.3</speed>
<course>161.8</course>
<desc>Speed 1.3 km/h Distance 30.20 km</desc>
<time>2010-06-13T08:06:42.67</time>
<name>6937</name>
</trkpt>
<trkpt lat="49.201193" lon="11.821560">
<ele>530.5</ele>
<speed>0.9</speed>
<course>166.4</course>
<desc>Speed 0.9 km/h Distance 30.20 km</desc>
<time>2010-06-13T08:06:43.67</time>
<name>6938</name>
</trkpt>
<trkpt lat="49.201148" lon="11.821577">
<ele>532.0</ele>
<speed>0.8</speed>
<course>50.0</course>
<desc>Speed 0.8 km/h Distance 30.20 km</desc>
<time>2010-06-13T08:06:45.67</time>
<name>6939</name>
</trkpt>
<trkpt lat="49.201177" lon="11.821628">
<ele>525.1</ele>
<speed>1.6</speed>
<course>55.2</course>
<desc>Speed 1.6 km/h Distance 30.21 km</desc>
<time>2010-06-13T08:06:47.67</time>
<name>6940</name>
</trkpt>
<trkpt lat="49.201185" lon="11.821647">
<ele>522.1</ele>
<speed>2.6</speed>
<course>12.6</course>
<desc>Speed 2.6 km/h Distance 30.21 km</desc>
<time>2010-06-13T08:06:48.67</time>
<name>6941</name>
</trkpt>
<trkpt lat="49.201187" lon="11.821647">
<ele>522.1</ele>
<speed>2.3</speed>
<course>245.3</course>
<desc>Speed 2.3 km/h Distance 30.21 km</desc>
<time>2010-06-13T08:06:49.67</time>
<name>6942</name>
</trkpt>
<trkpt lat="49.201182" lon="11.821630">
<ele>522.1</ele>
<speed>3.3</speed>
<course>153.1</course>
<desc>Speed 3.3 km/h Distance 30.21 km</desc>
<time>2010-06-13T08:06:50.67</time>
<name>6943</name>
</trkpt>
<trkpt lat="49.201167" lon="11.821642">
<ele>520.7</ele>
<speed>3.2</speed>
<course>90.0</course>
<desc>Speed 3.2 km/h Distance 30.21 km</desc>
<time>2010-06-13T08:06:51.67</time>
<name>6944</name>
</trkpt>
<trkpt lat="49.201167" lon="11.821667">
<ele>520.2</ele>
<speed>2.2</speed>
<course>90.0</course>
<desc>Speed 2.2 km/h Distance 30.21 km</desc>
<time>2010-06-13T08:06:52.67</time>
<name>6945</name>
</trkpt>
<trkpt lat="49.201167" lon="11.821695">
<ele>518.2</ele>
<speed>3.4</speed>
<course>131.3</course>
<desc>Speed 3.4 km/h Distance 30.22 km</desc>
<time>2010-06-13T08:06:53.67</time>
<name>6946</name>
</trkpt>
<trkpt lat="49.201160" lon="11.821707">
<ele>516.9</ele>
<speed>3.6</speed>
<course>163.4</course>
<desc>Speed 3.6 km/h Distance 30.22 km</desc>
<time>2010-06-13T08:06:54.67</time>
<name>6947</name>
</trkpt>
<trkpt lat="49.201142" lon="11.821715">
<ele>517.3</ele>
<speed>3.9</speed>
<course>79.2</course>
<desc>Speed 3.9 km/h Distance 30.22 km</desc>
<time>2010-06-13T08:06:55.67</time>
<name>6948</name>
</trkpt>
<trkpt lat="49.201145" lon="11.821742">
<ele>516.2</ele>
<speed>4.9</speed>
<course>146.8</course>
<desc>Speed 4.9 km/h Distance 30.22 km</desc>
<time>2010-06-13T08:06:56.67</time>
<name>6949</name>
</trkpt>
<trkpt lat="49.201123" lon="11.821763">
<ele>519.0</ele>
<speed>4.1</speed>
<course>139.7</course>
<desc>Speed 4.1 km/h Distance 30.22 km</desc>
<time>2010-06-13T08:06:57.67</time>
<name>6950</name>
</trkpt>
<trkpt lat="49.201107" lon="11.821785">
<ele>520.5</ele>
<speed>3.7</speed>
<course>129.2</course>
<desc>Speed 3.7 km/h Distance 30.23 km</desc>
<time>2010-06-13T08:06:58.67</time>
<name>6951</name>
</trkpt>
<trkpt lat="49.201093" lon="11.821810">
<ele>521.9</ele>
<speed>3.0</speed>
<course>139.0</course>
<desc>Speed 3.0 km/h Distance 30.23 km</desc>
<time>2010-06-13T08:06:59.67</time>
<name>6952</name>
</trkpt>
<trkpt lat="49.201078" lon="11.821830">
<ele>522.9</ele>
<speed>4.4</speed>
<course>108.1</course>
<desc>Speed 4.4 km/h Distance 30.23 km</desc>
<time>2010-06-13T08:07:00.67</time>
<name>6953</name>
</trkpt>
<trkpt lat="49.201073" lon="11.821853">
<ele>522.8</ele>
<speed>4.6</speed>
<course>107.0</course>
<desc>Speed 4.6 km/h Distance 30.23 km</desc>
<time>2010-06-13T08:07:01.67</time>
<name>6954</name>
</trkpt>
<trkpt lat="49.201070" lon="11.821870">
<ele>523.8</ele>
<speed>3.7</speed>
<course>119.1</course>
<desc>Speed 3.7 km/h Distance 30.23 km</desc>
<time>2010-06-13T08:07:02.67</time>
<name>6955</name>
</trkpt>
<trkpt lat="49.201063" lon="11.821888">
<ele>526.0</ele>
<speed>2.9</speed>
<course>130.3</course>
<desc>Speed 2.9 km/h Distance 30.24 km</desc>
<time>2010-06-13T08:07:03.67</time>
<name>6956</name>
</trkpt>
<trkpt lat="49.201055" lon="11.821903">
<ele>528.4</ele>
<speed>2.7</speed>
<course>146.7</course>
<desc>Speed 2.7 km/h Distance 30.24 km</desc>
<time>2010-06-13T08:07:04.67</time>
<name>6957</name>
</trkpt>
<trkpt lat="49.201043" lon="11.821915">
<ele>530.1</ele>
<speed>2.2</speed>
<course>127.4</course>
<desc>Speed 2.2 km/h Distance 30.24 km</desc>
<time>2010-06-13T08:07:05.67</time>
<name>6958</name>
</trkpt>
<trkpt lat="49.201033" lon="11.821935">
<ele>533.0</ele>
<speed>2.6</speed>
<course>90.0</course>
<desc>Speed 2.6 km/h Distance 30.24 km</desc>
<time>2010-06-13T08:07:06.67</time>
<name>6959</name>
</trkpt>
<trkpt lat="49.201033" lon="11.821947">
<ele>535.4</ele>
<speed>1.0</speed>
<course>18.2</course>
<desc>Speed 1.0 km/h Distance 30.24 km</desc>
<time>2010-06-13T08:07:07.67</time>
<name>6960</name>
</trkpt>
<trkpt lat="49.201043" lon="11.821952">
<ele>537.2</ele>
<speed>3.0</speed>
<course>144.5</course>
<desc>Speed 3.0 km/h Distance 30.24 km</desc>
<time>2010-06-13T08:07:08.67</time>
<name>6961</name>
</trkpt>
<trkpt lat="49.201025" lon="11.821972">
<ele>536.7</ele>
<speed>1.7</speed>
<course>165.1</course>
<desc>Speed 1.7 km/h Distance 30.24 km</desc>
<time>2010-06-13T08:07:09.67</time>
<name>6962</name>
</trkpt>
<trkpt lat="49.201017" lon="11.821975">
<ele>537.0</ele>
<speed>1.6</speed>
<course>156.3</course>
<desc>Speed 1.6 km/h Distance 30.25 km</desc>
<time>2010-06-13T08:07:10.67</time>
<name>6963</name>
</trkpt>
<trkpt lat="49.200997" lon="11.821988">
<ele>536.3</ele>
<speed>1.9</speed>
<course>90.0</course>
<desc>Speed 1.9 km/h Distance 30.25 km</desc>
<time>2010-06-13T08:07:11.67</time>
<name>6964</name>
</trkpt>
<trkpt lat="49.200997" lon="11.822003">
<ele>537.3</ele>
<speed>3.0</speed>
<course>81.3</course>
<desc>Speed 3.0 km/h Distance 30.25 km</desc>
<time>2010-06-13T08:07:12.67</time>
<name>6965</name>
</trkpt>
<trkpt lat="49.200998" lon="11.822020">
<ele>537.3</ele>
<speed>3.4</speed>
<course>90.0</course>
<desc>Speed 3.4 km/h Distance 30.25 km</desc>
<time>2010-06-13T08:07:13.67</time>
<name>6966</name>
</trkpt>
<trkpt lat="49.200998" lon="11.822033">
<ele>535.6</ele>
<speed>3.0</speed>
<course>11.6</course>
<desc>Speed 3.0 km/h Distance 30.25 km</desc>
<time>2010-06-13T08:07:14.67</time>
<name>6967</name>
</trkpt>
<trkpt lat="49.201008" lon="11.822037">
<ele>535.5</ele>
<speed>2.8</speed>
<course>90.0</course>
<desc>Speed 2.8 km/h Distance 30.25 km</desc>
<time>2010-06-13T08:07:15.67</time>
<name>6968</name>
</trkpt>
<trkpt lat="49.201008" lon="11.822048">
<ele>536.7</ele>
<speed>2.7</speed>
<course>131.7</course>
<desc>Speed 2.7 km/h Distance 30.25 km</desc>
<time>2010-06-13T08:07:16.67</time>
<name>6969</name>
</trkpt>
<trkpt lat="49.200997" lon="11.822068">
<ele>537.6</ele>
<speed>4.8</speed>
<course>139.0</course>
<desc>Speed 4.8 km/h Distance 30.26 km</desc>
<time>2010-06-13T08:07:17.67</time>
<name>6970</name>
</trkpt>
<trkpt lat="49.200987" lon="11.822082">
<ele>538.6</ele>
<speed>3.2</speed>
<course>90.0</course>
<desc>Speed 3.2 km/h Distance 30.26 km</desc>
<time>2010-06-13T08:07:18.67</time>
<name>6971</name>
</trkpt>
<trkpt lat="49.200987" lon="11.822098">
<ele>538.9</ele>
<speed>2.6</speed>
<course>135.6</course>
<desc>Speed 2.6 km/h Distance 30.26 km</desc>
<time>2010-06-13T08:07:19.67</time>
<name>6972</name>
</trkpt>
<trkpt lat="49.200973" lon="11.822118">
<ele>541.7</ele>
<speed>2.5</speed>
<course>119.9</course>
<desc>Speed 2.5 km/h Distance 30.26 km</desc>
<time>2010-06-13T08:07:20.67</time>
<name>6973</name>
</trkpt>
<trkpt lat="49.200968" lon="11.822132">
<ele>541.4</ele>
<speed>1.8</speed>
<course>105.6</course>
<desc>Speed 1.8 km/h Distance 30.26 km</desc>
<time>2010-06-13T08:07:21.67</time>
<name>6974</name>
</trkpt>
<trkpt lat="49.200965" lon="11.822150">
<ele>541.6</ele>
<speed>2.4</speed>
<course>130.9</course>
<desc>Speed 2.4 km/h Distance 30.26 km</desc>
<time>2010-06-13T08:07:22.67</time>
<name>6975</name>
</trkpt>
<trkpt lat="49.200958" lon="11.822162">
<ele>543.0</ele>
<speed>2.2</speed>
<course>18.1</course>
<desc>Speed 2.2 km/h Distance 30.26 km</desc>
<time>2010-06-13T08:07:23.67</time>
<name>6976</name>
</trkpt>
<trkpt lat="49.200972" lon="11.822168">
<ele>542.9</ele>
<speed>1.7</speed>
<course>117.0</course>
<desc>Speed 1.7 km/h Distance 30.27 km</desc>
<time>2010-06-13T08:07:24.67</time>
<name>6977</name>
</trkpt>
<trkpt lat="49.200968" lon="11.822178">
<ele>545.0</ele>
<speed>2.3</speed>
<course>112.7</course>
<desc>Speed 2.3 km/h Distance 30.27 km</desc>
<time>2010-06-13T08:07:25.67</time>
<name>6978</name>
</trkpt>
<trkpt lat="49.200963" lon="11.822197">
<ele>545.8</ele>
<speed>2.7</speed>
<course>41.1</course>
<desc>Speed 2.7 km/h Distance 30.27 km</desc>
<time>2010-06-13T08:07:26.67</time>
<name>6979</name>
</trkpt>
<trkpt lat="49.200978" lon="11.822217">
<ele>546.5</ele>
<speed>4.4</speed>
<course>119.1</course>
<desc>Speed 4.4 km/h Distance 30.27 km</desc>
<time>2010-06-13T08:07:27.67</time>
<name>6980</name>
</trkpt>
<trkpt lat="49.200972" lon="11.822235">
<ele>547.7</ele>
<speed>4.3</speed>
<course>101.5</course>
<desc>Speed 4.3 km/h Distance 30.27 km</desc>
<time>2010-06-13T08:07:28.67</time>
<name>6981</name>
</trkpt>
<trkpt lat="49.200968" lon="11.822260">
<ele>549.5</ele>
<speed>3.5</speed>
<course>131.1</course>
<desc>Speed 3.5 km/h Distance 30.27 km</desc>
<time>2010-06-13T08:07:29.67</time>
<name>6982</name>
</trkpt>
<trkpt lat="49.200962" lon="11.822272">
<ele>550.5</ele>
<speed>3.2</speed>
<course>175.6</course>
<desc>Speed 3.2 km/h Distance 30.27 km</desc>
<time>2010-06-13T08:07:30.67</time>
<name>6983</name>
</trkpt>
<trkpt lat="49.200952" lon="11.822273">
<ele>550.8</ele>
<speed>2.2</speed>
<course>319.1</course>
<desc>Speed 2.2 km/h Distance 30.28 km</desc>
<time>2010-06-13T08:07:31.67</time>
<name>6984</name>
</trkpt>
<trkpt lat="49.200957" lon="11.822267">
<ele>548.9</ele>
<speed>1.4</speed>
<course>320.6</course>
<desc>Speed 1.4 km/h Distance 30.28 km</desc>
<time>2010-06-13T08:07:32.67</time>
<name>6985</name>
</trkpt>
<trkpt lat="49.200963" lon="11.822258">
<ele>547.7</ele>
<speed>1.3</speed>
<course>0.0</course>
<desc>Speed 1.3 km/h Distance 30.28 km</desc>
<time>2010-06-13T08:07:33.67</time>
<name>6986</name>
</trkpt>
<trkpt lat="49.200968" lon="11.822258">
<ele>549.2</ele>
<speed>1.3</speed>
<course>349.6</course>
<desc>Speed 1.3 km/h Distance 30.28 km</desc>
<time>2010-06-13T08:07:34.67</time>
<name>6987</name>
</trkpt>
<trkpt lat="49.200980" lon="11.822255">
<ele>549.1</ele>
<speed>3.4</speed>
<course>156.2</course>
<desc>Speed 3.4 km/h Distance 30.28 km</desc>
<time>2010-06-13T08:07:35.67</time>
<name>6988</name>
</trkpt>
<trkpt lat="49.200970" lon="11.822262">
<ele>549.6</ele>
<speed>2.0</speed>
<course>63.0</course>
<desc>Speed 2.0 km/h Distance 30.28 km</desc>
<time>2010-06-13T08:07:36.67</time>
<name>6989</name>
</trkpt>
<trkpt lat="49.200973" lon="11.822272">
<ele>549.1</ele>
<speed>1.6</speed>
<course>150.6</course>
<desc>Speed 1.6 km/h Distance 30.28 km</desc>
<time>2010-06-13T08:07:37.67</time>
<name>6990</name>
</trkpt>
<trkpt lat="49.200962" lon="11.822282">
<ele>548.6</ele>
<speed>1.3</speed>
<course>139.0</course>
<desc>Speed 1.3 km/h Distance 30.28 km</desc>
<time>2010-06-13T08:07:38.67</time>
<name>6991</name>
</trkpt>
<trkpt lat="49.200952" lon="11.822295">
<ele>548.7</ele>
<speed>1.8</speed>
<course>146.8</course>
<desc>Speed 1.8 km/h Distance 30.28 km</desc>
<time>2010-06-13T08:07:39.67</time>
<name>6992</name>
</trkpt>
<trkpt lat="49.200943" lon="11.822303">
<ele>548.7</ele>
<speed>2.7</speed>
<course>109.5</course>
<desc>Speed 2.7 km/h Distance 30.28 km</desc>
<time>2010-06-13T08:07:40.67</time>
<name>6993</name>
</trkpt>
<trkpt lat="49.200938" lon="11.822325">
<ele>548.5</ele>
<speed>1.8</speed>
<course>153.0</course>
<desc>Speed 1.8 km/h Distance 30.29 km</desc>
<time>2010-06-13T08:07:41.67</time>
<name>6994</name>
</trkpt>
<trkpt lat="49.200923" lon="11.822337">
<ele>549.7</ele>
<speed>3.6</speed>
<course>90.0</course>
<desc>Speed 3.6 km/h Distance 30.29 km</desc>
<time>2010-06-13T08:07:42.67</time>
<name>6995</name>
</trkpt>
<trkpt lat="49.200923" lon="11.822352">
<ele>548.5</ele>
<speed>1.5</speed>
<course>153.8</course>
<desc>Speed 1.5 km/h Distance 30.29 km</desc>
<time>2010-06-13T08:07:43.67</time>
<name>6996</name>
</trkpt>
<trkpt lat="49.200910" lon="11.822362">
<ele>548.8</ele>
<speed>0.8</speed>
<course>107.0</course>
<desc>Speed 0.8 km/h Distance 30.29 km</desc>
<time>2010-06-13T08:07:44.67</time>
<name>6997</name>
</trkpt>
<trkpt lat="49.200905" lon="11.822387">
<ele>549.2</ele>
<speed>2.8</speed>
<course>77.7</course>
<desc>Speed 2.8 km/h Distance 30.29 km</desc>
<time>2010-06-13T08:07:45.67</time>
<name>6998</name>
</trkpt>
<trkpt lat="49.200908" lon="11.822410">
<ele>548.9</ele>
<speed>1.8</speed>
<course>138.1</course>
<desc>Speed 1.8 km/h Distance 30.29 km</desc>
<time>2010-06-13T08:07:46.67</time>
<name>6999</name>
</trkpt>
<trkpt lat="49.200895" lon="11.822428">
<ele>550.4</ele>
<speed>1.7</speed>
<course>110.9</course>
<desc>Speed 1.7 km/h Distance 30.30 km</desc>
<time>2010-06-13T08:07:47.67</time>
<name>7000</name>
</trkpt>
<trkpt lat="49.200890" lon="11.822448">
<ele>550.4</ele>
<speed>2.4</speed>
<course>155.1</course>
<desc>Speed 2.4 km/h Distance 30.30 km</desc>
<time>2010-06-13T08:07:48.67</time>
<name>7001</name>
</trkpt>
<trkpt lat="49.200878" lon="11.822457">
<ele>551.1</ele>
<speed>4.3</speed>
<course>77.7</course>
<desc>Speed 4.3 km/h Distance 30.30 km</desc>
<time>2010-06-13T08:07:49.67</time>
<name>7002</name>
</trkpt>
<trkpt lat="49.200882" lon="11.822480">
<ele>549.7</ele>
<speed>4.4</speed>
<course>59.5</course>
<desc>Speed 4.4 km/h Distance 30.30 km</desc>
<time>2010-06-13T08:07:50.67</time>
<name>7003</name>
</trkpt>
<trkpt lat="49.200890" lon="11.822502">
<ele>549.1</ele>
<speed>4.7</speed>
<course>57.5</course>
<desc>Speed 4.7 km/h Distance 30.30 km</desc>
<time>2010-06-13T08:07:51.67</time>
<name>7004</name>
</trkpt>
<trkpt lat="49.200898" lon="11.822522">
<ele>549.2</ele>
<speed>5.5</speed>
<course>83.8</course>
<desc>Speed 5.5 km/h Distance 30.31 km</desc>
<time>2010-06-13T08:07:52.67</time>
<name>7005</name>
</trkpt>
<trkpt lat="49.200900" lon="11.822545">
<ele>547.6</ele>
<speed>4.9</speed>
<course>119.9</course>
<desc>Speed 4.9 km/h Distance 30.31 km</desc>
<time>2010-06-13T08:07:53.67</time>
<name>7006</name>
</trkpt>
<trkpt lat="49.200895" lon="11.822558">
<ele>548.3</ele>
<speed>3.3</speed>
<course>122.5</course>
<desc>Speed 3.3 km/h Distance 30.31 km</desc>
<time>2010-06-13T08:07:54.67</time>
<name>7007</name>
</trkpt>
<trkpt lat="49.200887" lon="11.822578">
<ele>550.0</ele>
<speed>2.3</speed>
<course>90.0</course>
<desc>Speed 2.3 km/h Distance 30.31 km</desc>
<time>2010-06-13T08:07:55.67</time>
<name>7008</name>
</trkpt>
<trkpt lat="49.200887" lon="11.822600">
<ele>548.8</ele>
<speed>1.6</speed>
<course>80.4</course>
<desc>Speed 1.6 km/h Distance 30.31 km</desc>
<time>2010-06-13T08:07:56.67</time>
<name>7009</name>
</trkpt>
<trkpt lat="49.200888" lon="11.822615">
<ele>548.3</ele>
<speed>0.8</speed>
<course>117.0</course>
<desc>Speed 0.8 km/h Distance 30.31 km</desc>
<time>2010-06-13T08:07:57.67</time>
<name>7010</name>
</trkpt>
<trkpt lat="49.200885" lon="11.822625">
<ele>548.4</ele>
<speed>0.2</speed>
<course>117.0</course>
<desc>Speed 0.2 km/h Distance 30.31 km</desc>
<time>2010-06-13T08:07:58.67</time>
<name>7011</name>
</trkpt>
<trkpt lat="49.200882" lon="11.822635">
<ele>549.2</ele>
<speed>0.6</speed>
<course>90.0</course>
<desc>Speed 0.6 km/h Distance 30.31 km</desc>
<time>2010-06-13T08:07:59.67</time>
<name>7012</name>
</trkpt>
<trkpt lat="49.200882" lon="11.822640">
<ele>547.2</ele>
<speed>0.9</speed>
<course>128.1</course>
<desc>Speed 0.9 km/h Distance 30.31 km</desc>
<time>2010-06-13T08:08:00.67</time>
<name>7013</name>
</trkpt>
<trkpt lat="49.200880" lon="11.822643">
<ele>546.1</ele>
<speed>0.4</speed>
<course>47.4</course>
<desc>Speed 0.4 km/h Distance 30.31 km</desc>
<time>2010-06-13T08:08:01.67</time>
<name>7014</name>
</trkpt>
<trkpt lat="49.200885" lon="11.822652">
<ele>544.2</ele>
<speed>1.2</speed>
<course>172.6</course>
<desc>Speed 1.2 km/h Distance 30.32 km</desc>
<time>2010-06-13T08:08:02.67</time>
<name>7015</name>
</trkpt>
<trkpt lat="49.200878" lon="11.822653">
<ele>544.0</ele>
<speed>0.8</speed>
<course>155.2</course>
<desc>Speed 0.8 km/h Distance 30.32 km</desc>
<time>2010-06-13T08:08:03.67</time>
<name>7016</name>
</trkpt>
<trkpt lat="49.200872" lon="11.822658">
<ele>544.2</ele>
<speed>1.7</speed>
<course>90.0</course>
<desc>Speed 1.7 km/h Distance 30.32 km</desc>
<time>2010-06-13T08:08:04.67</time>
<name>7017</name>
</trkpt>
<trkpt lat="49.200872" lon="11.822665">
<ele>542.6</ele>
<speed>2.6</speed>
<course>137.5</course>
<desc>Speed 2.6 km/h Distance 30.32 km</desc>
<time>2010-06-13T08:08:05.67</time>
<name>7018</name>
</trkpt>
<trkpt lat="49.200868" lon="11.822670">
<ele>541.9</ele>
<speed>3.4</speed>
<course>183.8</course>
<desc>Speed 3.4 km/h Distance 30.32 km</desc>
<time>2010-06-13T08:08:06.67</time>
<name>7019</name>
</trkpt>
<trkpt lat="49.200853" lon="11.822668">
<ele>542.6</ele>
<speed>3.5</speed>
<course>246.4</course>
<desc>Speed 3.5 km/h Distance 30.32 km</desc>
<time>2010-06-13T08:08:07.67</time>
<name>7020</name>
</trkpt>
<trkpt lat="49.200850" lon="11.822657">
<ele>542.7</ele>
<speed>3.2</speed>
<course>127.0</course>
<desc>Speed 3.2 km/h Distance 30.32 km</desc>
<time>2010-06-13T08:08:08.67</time>
<name>7021</name>
</trkpt>
<trkpt lat="49.200847" lon="11.822663">
<ele>542.8</ele>
<speed>2.2</speed>
<course>142.8</course>
<desc>Speed 2.2 km/h Distance 30.32 km</desc>
<time>2010-06-13T08:08:09.67</time>
<name>7022</name>
</trkpt>
<trkpt lat="49.200845" lon="11.822665">
<ele>542.5</ele>
<speed>1.3</speed>
<course>202.2</course>
<desc>Speed 1.3 km/h Distance 30.32 km</desc>
<time>2010-06-13T08:08:10.67</time>
<name>7023</name>
</trkpt>
<trkpt lat="49.200840" lon="11.822662">
<ele>542.4</ele>
<speed>2.2</speed>
<course>188.1</course>
<desc>Speed 2.2 km/h Distance 30.32 km</desc>
<time>2010-06-13T08:08:11.67</time>
<name>7024</name>
</trkpt>
<trkpt lat="49.200825" lon="11.822658">
<ele>542.4</ele>
<speed>3.1</speed>
<course>196.0</course>
<desc>Speed 3.1 km/h Distance 30.32 km</desc>
<time>2010-06-13T08:08:12.67</time>
<name>7025</name>
</trkpt>
<trkpt lat="49.200810" lon="11.822652">
<ele>543.5</ele>
<speed>3.2</speed>
<course>167.4</course>
<desc>Speed 3.2 km/h Distance 30.33 km</desc>
<time>2010-06-13T08:08:13.67</time>
<name>7026</name>
</trkpt>
<trkpt lat="49.200805" lon="11.822653">
<ele>544.4</ele>
<speed>1.7</speed>
<course>12.6</course>
<desc>Speed 1.7 km/h Distance 30.33 km</desc>
<time>2010-06-13T08:08:14.67</time>
<name>7027</name>
</trkpt>
<trkpt lat="49.200807" lon="11.822653">
<ele>544.8</ele>
<speed>0.3</speed>
<course>290.9</course>
<desc>Speed 0.3 km/h Distance 30.33 km</desc>
<time>2010-06-13T08:08:15.67</time>
<name>7028</name>
</trkpt>
<trkpt lat="49.200808" lon="11.822647">
<ele>545.2</ele>
<speed>0.4</speed>
<course>323.1</course>
<desc>Speed 0.4 km/h Distance 30.33 km</desc>
<time>2010-06-13T08:08:16.67</time>
<name>7029</name>
</trkpt>
<trkpt lat="49.200820" lon="11.822633">
<ele>544.3</ele>
<speed>0.6</speed>
<course>344.9</course>
<desc>Speed 0.6 km/h Distance 30.33 km</desc>
<time>2010-06-13T08:08:17.67</time>
<name>7030</name>
</trkpt>
<trkpt lat="49.200848" lon="11.822622">
<ele>542.5</ele>
<speed>1.3</speed>
<course>139.1</course>
<desc>Speed 1.3 km/h Distance 30.33 km</desc>
<time>2010-06-13T08:08:19.67</time>
<name>7031</name>
</trkpt>
<trkpt lat="49.200843" lon="11.822628">
<ele>541.7</ele>
<speed>2.6</speed>
<course>33.2</course>
<desc>Speed 2.6 km/h Distance 30.33 km</desc>
<time>2010-06-13T08:08:20.67</time>
<name>7032</name>
</trkpt>
<trkpt lat="49.200852" lon="11.822637">
<ele>540.7</ele>
<speed>1.9</speed>
<course>11.2</course>
<desc>Speed 1.9 km/h Distance 30.33 km</desc>
<time>2010-06-13T08:08:21.67</time>
<name>7033</name>
</trkpt>
<trkpt lat="49.200863" lon="11.822640">
<ele>539.3</ele>
<speed>2.6</speed>
<course>127.4</course>
<desc>Speed 2.6 km/h Distance 30.33 km</desc>
<time>2010-06-13T08:08:22.67</time>
<name>7034</name>
</trkpt>
<trkpt lat="49.200853" lon="11.822660">
<ele>540.1</ele>
<speed>4.0</speed>
<course>52.6</course>
<desc>Speed 4.0 km/h Distance 30.34 km</desc>
<time>2010-06-13T08:08:23.67</time>
<name>7035</name>
</trkpt>
<trkpt lat="49.200862" lon="11.822677">
<ele>539.3</ele>
<speed>4.7</speed>
<course>105.6</course>
<desc>Speed 4.7 km/h Distance 30.34 km</desc>
<time>2010-06-13T08:08:24.67</time>
<name>7036</name>
</trkpt>
<trkpt lat="49.200858" lon="11.822695">
<ele>538.9</ele>
<speed>4.6</speed>
<course>115.2</course>
<desc>Speed 4.6 km/h Distance 30.34 km</desc>
<time>2010-06-13T08:08:25.67</time>
<name>7037</name>
</trkpt>
<trkpt lat="49.200852" lon="11.822717">
<ele>539.5</ele>
<speed>4.3</speed>
<course>119.1</course>
<desc>Speed 4.3 km/h Distance 30.34 km</desc>
<time>2010-06-13T08:08:26.67</time>
<name>7038</name>
</trkpt>
<trkpt lat="49.200845" lon="11.822735">
<ele>540.0</ele>
<speed>3.3</speed>
<course>151.4</course>
<desc>Speed 3.3 km/h Distance 30.34 km</desc>
<time>2010-06-13T08:08:27.67</time>
<name>7039</name>
</trkpt>
<trkpt lat="49.200835" lon="11.822743">
<ele>540.0</ele>
<speed>3.2</speed>
<course>164.5</course>
<desc>Speed 3.2 km/h Distance 30.34 km</desc>
<time>2010-06-13T08:08:28.67</time>
<name>7040</name>
</trkpt>
<trkpt lat="49.200823" lon="11.822748">
<ele>540.4</ele>
<speed>2.8</speed>
<course>141.9</course>
<desc>Speed 2.8 km/h Distance 30.35 km</desc>
<time>2010-06-13T08:08:29.67</time>
<name>7041</name>
</trkpt>
<trkpt lat="49.200815" lon="11.822758">
<ele>541.1</ele>
<speed>2.1</speed>
<course>121.4</course>
<desc>Speed 2.1 km/h Distance 30.35 km</desc>
<time>2010-06-13T08:08:30.67</time>
<name>7042</name>
</trkpt>
<trkpt lat="49.200812" lon="11.822767">
<ele>543.1</ele>
<speed>2.2</speed>
<course>161.8</course>
<desc>Speed 2.2 km/h Distance 30.35 km</desc>
<time>2010-06-13T08:08:31.67</time>
<name>7043</name>
</trkpt>
<trkpt lat="49.200802" lon="11.822772">
<ele>546.6</ele>
<speed>2.6</speed>
<course>159.1</course>
<desc>Speed 2.6 km/h Distance 30.35 km</desc>
<time>2010-06-13T08:08:32.67</time>
<name>7044</name>
</trkpt>
<trkpt lat="49.200782" lon="11.822783">
<ele>548.9</ele>
<speed>3.0</speed>
<course>159.2</course>
<desc>Speed 3.0 km/h Distance 30.35 km</desc>
<time>2010-06-13T08:08:33.67</time>
<name>7045</name>
</trkpt>
<trkpt lat="49.200773" lon="11.822788">
<ele>548.5</ele>
<speed>3.3</speed>
<course>187.0</course>
<desc>Speed 3.3 km/h Distance 30.35 km</desc>
<time>2010-06-13T08:08:34.67</time>
<name>7046</name>
</trkpt>
<trkpt lat="49.200755" lon="11.822785">
<ele>549.6</ele>
<speed>3.6</speed>
<course>166.4</course>
<desc>Speed 3.6 km/h Distance 30.35 km</desc>
<time>2010-06-13T08:08:35.67</time>
<name>7047</name>
</trkpt>
<trkpt lat="49.200737" lon="11.822792">
<ele>552.0</ele>
<speed>5.0</speed>
<course>172.5</course>
<desc>Speed 5.0 km/h Distance 30.36 km</desc>
<time>2010-06-13T08:08:36.67</time>
<name>7048</name>
</trkpt>
<trkpt lat="49.200722" lon="11.822795">
<ele>554.1</ele>
<speed>5.0</speed>
<course>135.7</course>
<desc>Speed 5.0 km/h Distance 30.36 km</desc>
<time>2010-06-13T08:08:37.67</time>
<name>7049</name>
</trkpt>
<trkpt lat="49.200712" lon="11.822810">
<ele>554.7</ele>
<speed>4.6</speed>
<course>160.3</course>
<desc>Speed 4.6 km/h Distance 30.36 km</desc>
<time>2010-06-13T08:08:38.67</time>
<name>7050</name>
</trkpt>
<trkpt lat="49.200693" lon="11.822820">
<ele>555.3</ele>
<speed>4.8</speed>
<course>157.0</course>
<desc>Speed 4.8 km/h Distance 30.36 km</desc>
<time>2010-06-13T08:08:39.67</time>
<name>7051</name>
</trkpt>
<trkpt lat="49.200683" lon="11.822827">
<ele>555.6</ele>
<speed>3.5</speed>
<course>127.6</course>
<desc>Speed 3.5 km/h Distance 30.36 km</desc>
<time>2010-06-13T08:08:40.67</time>
<name>7052</name>
</trkpt>
<trkpt lat="49.200677" lon="11.822840">
<ele>555.5</ele>
<speed>3.1</speed>
<course>140.8</course>
<desc>Speed 3.1 km/h Distance 30.36 km</desc>
<time>2010-06-13T08:08:41.67</time>
<name>7053</name>
</trkpt>
<trkpt lat="49.200663" lon="11.822857">
<ele>556.8</ele>
<speed>2.3</speed>
<course>99.6</course>
<desc>Speed 2.3 km/h Distance 30.37 km</desc>
<time>2010-06-13T08:08:42.67</time>
<name>7054</name>
</trkpt>
<trkpt lat="49.200662" lon="11.822872">
<ele>557.1</ele>
<speed>2.2</speed>
<course>172.9</course>
<desc>Speed 2.2 km/h Distance 30.37 km</desc>
<time>2010-06-13T08:08:43.67</time>
<name>7055</name>
</trkpt>
<trkpt lat="49.200645" lon="11.822875">
<ele>558.6</ele>
<speed>2.5</speed>
<course>98.7</course>
<desc>Speed 2.5 km/h Distance 30.37 km</desc>
<time>2010-06-13T08:08:44.67</time>
<name>7056</name>
</trkpt>
<trkpt lat="49.200643" lon="11.822892">
<ele>559.7</ele>
<speed>2.1</speed>
<course>167.4</course>
<desc>Speed 2.1 km/h Distance 30.37 km</desc>
<time>2010-06-13T08:08:45.67</time>
<name>7057</name>
</trkpt>
<trkpt lat="49.200638" lon="11.822893">
<ele>561.0</ele>
<speed>1.0</speed>
<course>90.0</course>
<desc>Speed 1.0 km/h Distance 30.37 km</desc>
<time>2010-06-13T08:08:46.67</time>
<name>7058</name>
</trkpt>
<trkpt lat="49.200638" lon="11.822910">
<ele>562.7</ele>
<speed>3.2</speed>
<course>58.6</course>
<desc>Speed 3.2 km/h Distance 30.37 km</desc>
<time>2010-06-13T08:08:47.67</time>
<name>7059</name>
</trkpt>
<trkpt lat="49.200645" lon="11.822927">
<ele>562.1</ele>
<speed>2.0</speed>
<course>90.0</course>
<desc>Speed 2.0 km/h Distance 30.37 km</desc>
<time>2010-06-13T08:08:48.67</time>
<name>7060</name>
</trkpt>
<trkpt lat="49.200645" lon="11.822948">
<ele>561.1</ele>
<speed>3.0</speed>
<course>133.0</course>
<desc>Speed 3.0 km/h Distance 30.37 km</desc>
<time>2010-06-13T08:08:49.67</time>
<name>7061</name>
</trkpt>
<trkpt lat="49.200622" lon="11.822987">
<ele>560.4</ele>
<speed>2.9</speed>
<course>132.9</course>
<desc>Speed 2.9 km/h Distance 30.38 km</desc>
<time>2010-06-13T08:08:51.67</time>
<name>7062</name>
</trkpt>
<trkpt lat="49.200617" lon="11.822995">
<ele>559.8</ele>
<speed>3.9</speed>
<course>120.5</course>
<desc>Speed 3.9 km/h Distance 30.38 km</desc>
<time>2010-06-13T08:08:52.67</time>
<name>7063</name>
</trkpt>
<trkpt lat="49.200608" lon="11.823017">
<ele>559.5</ele>
<speed>3.6</speed>
<course>110.9</course>
<desc>Speed 3.6 km/h Distance 30.38 km</desc>
<time>2010-06-13T08:08:53.67</time>
<name>7064</name>
</trkpt>
<trkpt lat="49.200607" lon="11.823023">
<ele>558.8</ele>
<speed>3.7</speed>
<course>154.8</course>
<desc>Speed 3.7 km/h Distance 30.38 km</desc>
<time>2010-06-13T08:08:54.67</time>
<name>7065</name>
</trkpt>
<trkpt lat="49.200595" lon="11.823032">
<ele>557.1</ele>
<speed>5.4</speed>
<course>161.9</course>
<desc>Speed 5.4 km/h Distance 30.38 km</desc>
<time>2010-06-13T08:08:55.67</time>
<name>7066</name>
</trkpt>
<trkpt lat="49.200578" lon="11.823040">
<ele>555.9</ele>
<speed>7.5</speed>
<course>99.6</course>
<desc>Speed 7.5 km/h Distance 30.39 km</desc>
<time>2010-06-13T08:08:56.67</time>
<name>7067</name>
</trkpt>
<trkpt lat="49.200577" lon="11.823055">
<ele>554.4</ele>
<speed>5.7</speed>
<course>73.0</course>
<desc>Speed 5.7 km/h Distance 30.39 km</desc>
<time>2010-06-13T08:08:57.67</time>
<name>7068</name>
</trkpt>
<trkpt lat="49.200582" lon="11.823080">
<ele>552.2</ele>
<speed>4.8</speed>
<course>90.0</course>
<desc>Speed 4.8 km/h Distance 30.39 km</desc>
<time>2010-06-13T08:08:58.67</time>
<name>7069</name>
</trkpt>
<trkpt lat="49.200582" lon="11.823100">
<ele>551.9</ele>
<speed>3.4</speed>
<course>33.2</course>
<desc>Speed 3.4 km/h Distance 30.39 km</desc>
<time>2010-06-13T08:08:59.67</time>
<name>7070</name>
</trkpt>
<trkpt lat="49.200590" lon="11.823108">
<ele>550.0</ele>
<speed>2.0</speed>
<course>1.2</course>
<desc>Speed 2.0 km/h Distance 30.39 km</desc>
<time>2010-06-13T08:09:00.67</time>
<name>7071</name>
</trkpt>
<trkpt lat="49.200597" lon="11.823108">
<ele>549.0</ele>
<speed>0.9</speed>
<course>213.2</course>
<desc>Speed 0.9 km/h Distance 30.39 km</desc>
<time>2010-06-13T08:09:01.67</time>
<name>7072</name>
</trkpt>
<trkpt lat="49.200588" lon="11.823100">
<ele>551.0</ele>
<speed>0.5</speed>
<course>190.3</course>
<desc>Speed 0.5 km/h Distance 30.39 km</desc>
<time>2010-06-13T08:09:02.67</time>
<name>7073</name>
</trkpt>
<trkpt lat="49.200582" lon="11.823098">
<ele>551.4</ele>
<speed>2.1</speed>
<course>33.7</course>
<desc>Speed 2.1 km/h Distance 30.39 km</desc>
<time>2010-06-13T08:09:03.67</time>
<name>7074</name>
</trkpt>
<trkpt lat="49.200588" lon="11.823105">
<ele>550.0</ele>
<speed>3.1</speed>
<course>90.0</course>
<desc>Speed 3.1 km/h Distance 30.39 km</desc>
<time>2010-06-13T08:09:04.67</time>
<name>7075</name>
</trkpt>
<trkpt lat="49.200588" lon="11.823107">
<ele>549.3</ele>
<speed>2.9</speed>
<course>142.8</course>
<desc>Speed 2.9 km/h Distance 30.39 km</desc>
<time>2010-06-13T08:09:05.67</time>
<name>7076</name>
</trkpt>
<trkpt lat="49.200587" lon="11.823108">
<ele>549.6</ele>
<speed>2.3</speed>
<course>58.2</course>
<desc>Speed 2.3 km/h Distance 30.39 km</desc>
<time>2010-06-13T08:09:06.67</time>
<name>7077</name>
</trkpt>
<trkpt lat="49.200590" lon="11.823117">
<ele>549.9</ele>
<speed>2.2</speed>
<course>41.4</course>
<desc>Speed 2.2 km/h Distance 30.40 km</desc>
<time>2010-06-13T08:09:07.67</time>
<name>7078</name>
</trkpt>
<trkpt lat="49.200595" lon="11.823123">
<ele>551.0</ele>
<speed>1.2</speed>
<course>3.9</course>
<desc>Speed 1.2 km/h Distance 30.40 km</desc>
<time>2010-06-13T08:09:08.67</time>
<name>7079</name>
</trkpt>
<trkpt lat="49.200608" lon="11.823125">
<ele>550.5</ele>
<speed>2.1</speed>
<course>17.1</course>
<desc>Speed 2.1 km/h Distance 30.40 km</desc>
<time>2010-06-13T08:09:09.67</time>
<name>7080</name>
</trkpt>
<trkpt lat="49.200637" lon="11.823138">
<ele>547.1</ele>
<speed>3.6</speed>
<course>132.6</course>
<desc>Speed 3.6 km/h Distance 30.40 km</desc>
<time>2010-06-13T08:09:11.67</time>
<name>7081</name>
</trkpt>
<trkpt lat="49.200622" lon="11.823163">
<ele>546.8</ele>
<speed>4.2</speed>
<course>0.0</course>
<desc>Speed 4.2 km/h Distance 30.40 km</desc>
<time>2010-06-13T08:09:12.67</time>
<name>7082</name>
</trkpt>
<trkpt lat="49.200642" lon="11.823163">
<ele>545.3</ele>
<speed>3.5</speed>
<course>152.9</course>
<desc>Speed 3.5 km/h Distance 30.41 km</desc>
<time>2010-06-13T08:09:13.67</time>
<name>7083</name>
</trkpt>
<trkpt lat="49.200565" lon="11.823223">
<ele>542.7</ele>
<speed>4.4</speed>
<course>153.3</course>
<desc>Speed 4.4 km/h Distance 30.42 km</desc>
<time>2010-06-13T08:09:15.67</time>
<name>7084</name>
</trkpt>
<trkpt lat="49.200543" lon="11.823240">
<ele>542.4</ele>
<speed>4.0</speed>
<course>154.3</course>
<desc>Speed 4.0 km/h Distance 30.42 km</desc>
<time>2010-06-13T08:09:16.67</time>
<name>7085</name>
</trkpt>
<trkpt lat="49.200480" lon="11.823287">
<ele>543.7</ele>
<speed>6.1</speed>
<course>146.8</course>
<desc>Speed 6.1 km/h Distance 30.43 km</desc>
<time>2010-06-13T08:09:18.67</time>
<name>7086</name>
</trkpt>
<trkpt lat="49.200453" lon="11.823313">
<ele>544.0</ele>
<speed>8.4</speed>
<course>153.9</course>
<desc>Speed 8.4 km/h Distance 30.43 km</desc>
<time>2010-06-13T08:09:19.67</time>
<name>7087</name>
</trkpt>
<trkpt lat="49.200420" lon="11.823338">
<ele>544.7</ele>
<speed>8.8</speed>
<course>155.2</course>
<desc>Speed 8.8 km/h Distance 30.43 km</desc>
<time>2010-06-13T08:09:20.67</time>
<name>7088</name>
</trkpt>
<trkpt lat="49.200392" lon="11.823358">
<ele>545.1</ele>
<speed>7.9</speed>
<course>128.7</course>
<desc>Speed 7.9 km/h Distance 30.44 km</desc>
<time>2010-06-13T08:09:21.67</time>
<name>7089</name>
</trkpt>
<trkpt lat="49.200373" lon="11.823393">
<ele>543.7</ele>
<speed>5.0</speed>
<course>163.1</course>
<desc>Speed 5.0 km/h Distance 30.44 km</desc>
<time>2010-06-13T08:09:23.67</time>
<name>7090</name>
</trkpt>
<trkpt lat="49.200097" lon="11.823522">
<ele>540.5</ele>
<speed>10.0</speed>
<course>180.0</course>
<desc>Speed 10.0 km/h Distance 30.47 km</desc>
<time>2010-06-13T08:09:27.67</time>
<name>7091</name>
</trkpt>
<trkpt lat="49.200077" lon="11.823522">
<ele>540.9</ele>
<speed>7.5</speed>
<course>160.1</course>
<desc>Speed 7.5 km/h Distance 30.47 km</desc>
<time>2010-06-13T08:09:28.67</time>
<name>7092</name>
</trkpt>
<trkpt lat="49.200062" lon="11.823530">
<ele>539.3</ele>
<speed>9.5</speed>
<course>86.8</course>
<desc>Speed 9.5 km/h Distance 30.48 km</desc>
<time>2010-06-13T08:09:29.67</time>
<name>7093</name>
</trkpt>
<trkpt lat="49.200063" lon="11.823575">
<ele>537.5</ele>
<speed>12.6</speed>
<course>151.9</course>
<desc>Speed 12.6 km/h Distance 30.48 km</desc>
<time>2010-06-13T08:09:30.67</time>
<name>7094</name>
</trkpt>
<trkpt lat="49.199963" lon="11.823657">
<ele>539.6</ele>
<speed>10.7</speed>
<course>153.3</course>
<desc>Speed 10.7 km/h Distance 30.49 km</desc>
<time>2010-06-13T08:09:32.67</time>
<name>7095</name>
</trkpt>
<trkpt lat="49.199760" lon="11.823813">
<ele>542.0</ele>
<speed>8.6</speed>
<course>147.5</course>
<desc>Speed 8.6 km/h Distance 30.52 km</desc>
<time>2010-06-13T08:09:35.67</time>
<name>7096</name>
</trkpt>
<trkpt lat="49.199623" lon="11.823947">
<ele>544.3</ele>
<speed>10.7</speed>
<course>137.7</course>
<desc>Speed 10.7 km/h Distance 30.54 km</desc>
<time>2010-06-13T08:09:38.67</time>
<name>7097</name>
</trkpt>
<trkpt lat="49.199555" lon="11.824042">
<ele>542.9</ele>
<speed>10.5</speed>
<course>142.6</course>
<desc>Speed 10.5 km/h Distance 30.55 km</desc>
<time>2010-06-13T08:09:40.67</time>
<name>7098</name>
</trkpt>
<trkpt lat="49.199487" lon="11.824122">
<ele>542.3</ele>
<speed>10.3</speed>
<course>135.6</course>
<desc>Speed 10.3 km/h Distance 30.56 km</desc>
<time>2010-06-13T08:09:42.67</time>
<name>7099</name>
</trkpt>
<trkpt lat="49.199457" lon="11.824167">
<ele>541.8</ele>
<speed>12.8</speed>
<course>141.4</course>
<desc>Speed 12.8 km/h Distance 30.56 km</desc>
<time>2010-06-13T08:09:43.67</time>
<name>7100</name>
</trkpt>
<trkpt lat="49.199427" lon="11.824203">
<ele>540.4</ele>
<speed>12.1</speed>
<course>120.2</course>
<desc>Speed 12.1 km/h Distance 30.56 km</desc>
<time>2010-06-13T08:09:44.67</time>
<name>7101</name>
</trkpt>
<trkpt lat="49.199413" lon="11.824238">
<ele>539.4</ele>
<speed>11.1</speed>
<course>138.2</course>
<desc>Speed 11.1 km/h Distance 30.57 km</desc>
<time>2010-06-13T08:09:45.67</time>
<name>7102</name>
</trkpt>
<trkpt lat="49.199382" lon="11.824282">
<ele>539.2</ele>
<speed>13.2</speed>
<course>130.4</course>
<desc>Speed 13.2 km/h Distance 30.57 km</desc>
<time>2010-06-13T08:09:46.67</time>
<name>7103</name>
</trkpt>
<trkpt lat="49.199357" lon="11.824327">
<ele>538.2</ele>
<speed>13.8</speed>
<course>144.7</course>
<desc>Speed 13.8 km/h Distance 30.58 km</desc>
<time>2010-06-13T08:09:47.67</time>
<name>7104</name>
</trkpt>
<trkpt lat="49.199317" lon="11.824370">
<ele>537.9</ele>
<speed>13.8</speed>
<course>128.2</course>
<desc>Speed 13.8 km/h Distance 30.58 km</desc>
<time>2010-06-13T08:09:48.67</time>
<name>7105</name>
</trkpt>
<trkpt lat="49.199285" lon="11.824432">
<ele>537.4</ele>
<speed>15.8</speed>
<course>125.9</course>
<desc>Speed 15.8 km/h Distance 30.59 km</desc>
<time>2010-06-13T08:09:49.67</time>
<name>7106</name>
</trkpt>
<trkpt lat="49.199255" lon="11.824495">
<ele>536.9</ele>
<speed>15.8</speed>
<course>108.3</course>
<desc>Speed 15.8 km/h Distance 30.59 km</desc>
<time>2010-06-13T08:09:50.67</time>
<name>7107</name>
</trkpt>
<trkpt lat="49.199242" lon="11.824557">
<ele>535.0</ele>
<speed>15.2</speed>
<course>103.9</course>
<desc>Speed 15.2 km/h Distance 30.60 km</desc>
<time>2010-06-13T08:09:51.67</time>
<name>7108</name>
</trkpt>
<trkpt lat="49.199232" lon="11.824618">
<ele>533.2</ele>
<speed>13.2</speed>
<course>121.5</course>
<desc>Speed 13.2 km/h Distance 30.60 km</desc>
<time>2010-06-13T08:09:52.67</time>
<name>7109</name>
</trkpt>
<trkpt lat="49.199215" lon="11.824660">
<ele>533.5</ele>
<speed>10.5</speed>
<course>125.9</course>
<desc>Speed 10.5 km/h Distance 30.61 km</desc>
<time>2010-06-13T08:09:53.67</time>
<name>7110</name>
</trkpt>
<trkpt lat="49.199200" lon="11.824692">
<ele>534.7</ele>
<speed>9.2</speed>
<course>122.8</course>
<desc>Speed 9.2 km/h Distance 30.61 km</desc>
<time>2010-06-13T08:09:54.67</time>
<name>7111</name>
</trkpt>
<trkpt lat="49.199187" lon="11.824723">
<ele>535.5</ele>
<speed>8.9</speed>
<course>116.0</course>
<desc>Speed 8.9 km/h Distance 30.61 km</desc>
<time>2010-06-13T08:09:55.67</time>
<name>7112</name>
</trkpt>
<trkpt lat="49.199175" lon="11.824760">
<ele>535.8</ele>
<speed>9.1</speed>
<course>129.8</course>
<desc>Speed 9.1 km/h Distance 30.61 km</desc>
<time>2010-06-13T08:09:56.67</time>
<name>7113</name>
</trkpt>
<trkpt lat="49.199155" lon="11.824797">
<ele>536.6</ele>
<speed>11.0</speed>
<course>118.2</course>
<desc>Speed 11.0 km/h Distance 30.62 km</desc>
<time>2010-06-13T08:09:57.67</time>
<name>7114</name>
</trkpt>
<trkpt lat="49.199143" lon="11.824830">
<ele>537.8</ele>
<speed>9.9</speed>
<course>99.1</course>
<desc>Speed 9.9 km/h Distance 30.62 km</desc>
<time>2010-06-13T08:09:58.67</time>
<name>7115</name>
</trkpt>
<trkpt lat="49.199140" lon="11.824862">
<ele>538.4</ele>
<speed>8.7</speed>
<course>60.9</course>
<desc>Speed 8.7 km/h Distance 30.62 km</desc>
<time>2010-06-13T08:09:59.67</time>
<name>7116</name>
</trkpt>
<trkpt lat="49.199147" lon="11.824880">
<ele>539.8</ele>
<speed>6.8</speed>
<course>122.2</course>
<desc>Speed 6.8 km/h Distance 30.62 km</desc>
<time>2010-06-13T08:10:00.67</time>
<name>7117</name>
</trkpt>
<trkpt lat="49.199135" lon="11.824908">
<ele>540.5</ele>
<speed>7.2</speed>
<course>132.0</course>
<desc>Speed 7.2 km/h Distance 30.63 km</desc>
<time>2010-06-13T08:10:01.67</time>
<name>7118</name>
</trkpt>
<trkpt lat="49.199118" lon="11.824937">
<ele>541.2</ele>
<speed>7.4</speed>
<course>128.8</course>
<desc>Speed 7.4 km/h Distance 30.63 km</desc>
<time>2010-06-13T08:10:02.67</time>
<name>7119</name>
</trkpt>
<trkpt lat="49.199102" lon="11.824968">
<ele>540.7</ele>
<speed>9.0</speed>
<course>150.9</course>
<desc>Speed 9.0 km/h Distance 30.63 km</desc>
<time>2010-06-13T08:10:03.67</time>
<name>7120</name>
</trkpt>
<trkpt lat="49.199068" lon="11.824997">
<ele>541.2</ele>
<speed>11.7</speed>
<course>130.1</course>
<desc>Speed 11.7 km/h Distance 30.64 km</desc>
<time>2010-06-13T08:10:04.67</time>
<name>7121</name>
</trkpt>
<trkpt lat="49.199050" lon="11.825030">
<ele>541.5</ele>
<speed>10.4</speed>
<course>145.6</course>
<desc>Speed 10.4 km/h Distance 30.64 km</desc>
<time>2010-06-13T08:10:05.67</time>
<name>7122</name>
</trkpt>
<trkpt lat="49.199015" lon="11.825067">
<ele>542.9</ele>
<speed>10.0</speed>
<course>134.8</course>
<desc>Speed 10.0 km/h Distance 30.65 km</desc>
<time>2010-06-13T08:10:06.67</time>
<name>7123</name>
</trkpt>
<trkpt lat="49.198993" lon="11.825100">
<ele>543.7</ele>
<speed>10.9</speed>
<course>94.0</course>
<desc>Speed 10.9 km/h Distance 30.65 km</desc>
<time>2010-06-13T08:10:07.67</time>
<name>7124</name>
</trkpt>
<trkpt lat="49.198992" lon="11.825137">
<ele>541.9</ele>
<speed>10.9</speed>
<course>120.5</course>
<desc>Speed 10.9 km/h Distance 30.65 km</desc>
<time>2010-06-13T08:10:08.67</time>
<name>7125</name>
</trkpt>
<trkpt lat="49.198975" lon="11.825180">
<ele>541.8</ele>
<speed>12.2</speed>
<course>123.6</course>
<desc>Speed 12.2 km/h Distance 30.65 km</desc>
<time>2010-06-13T08:10:09.67</time>
<name>7126</name>
</trkpt>
<trkpt lat="49.198958" lon="11.825218">
<ele>541.8</ele>
<speed>11.0</speed>
<course>133.7</course>
<desc>Speed 11.0 km/h Distance 30.66 km</desc>
<time>2010-06-13T08:10:10.67</time>
<name>7127</name>
</trkpt>
<trkpt lat="49.198933" lon="11.825258">
<ele>544.5</ele>
<speed>10.0</speed>
<course>120.5</course>
<desc>Speed 10.0 km/h Distance 30.66 km</desc>
<time>2010-06-13T08:10:11.67</time>
<name>7128</name>
</trkpt>
<trkpt lat="49.198917" lon="11.825302">
<ele>545.0</ele>
<speed>10.5</speed>
<course>122.1</course>
<desc>Speed 10.5 km/h Distance 30.67 km</desc>
<time>2010-06-13T08:10:12.67</time>
<name>7129</name>
</trkpt>
<trkpt lat="49.198902" lon="11.825338">
<ele>545.5</ele>
<speed>11.3</speed>
<course>127.4</course>
<desc>Speed 11.3 km/h Distance 30.67 km</desc>
<time>2010-06-13T08:10:13.67</time>
<name>7130</name>
</trkpt>
<trkpt lat="49.198880" lon="11.825382">
<ele>546.6</ele>
<speed>11.0</speed>
<course>113.6</course>
<desc>Speed 11.0 km/h Distance 30.67 km</desc>
<time>2010-06-13T08:10:14.67</time>
<name>7131</name>
</trkpt>
<trkpt lat="49.198867" lon="11.825428">
<ele>545.2</ele>
<speed>12.2</speed>
<course>133.3</course>
<desc>Speed 12.2 km/h Distance 30.68 km</desc>
<time>2010-06-13T08:10:15.67</time>
<name>7132</name>
</trkpt>
<trkpt lat="49.198800" lon="11.825537">
<ele>545.6</ele>
<speed>12.7</speed>
<course>130.0</course>
<desc>Speed 12.7 km/h Distance 30.69 km</desc>
<time>2010-06-13T08:10:17.67</time>
<name>7133</name>
</trkpt>
<trkpt lat="49.198772" lon="11.825588">
<ele>546.0</ele>
<speed>14.7</speed>
<course>126.6</course>
<desc>Speed 14.7 km/h Distance 30.69 km</desc>
<time>2010-06-13T08:10:18.67</time>
<name>7134</name>
</trkpt>
<trkpt lat="49.198743" lon="11.825647">
<ele>546.0</ele>
<speed>16.2</speed>
<course>125.8</course>
<desc>Speed 16.2 km/h Distance 30.70 km</desc>
<time>2010-06-13T08:10:19.67</time>
<name>7135</name>
</trkpt>
<trkpt lat="49.198717" lon="11.825703">
<ele>545.8</ele>
<speed>16.6</speed>
<course>131.6</course>
<desc>Speed 16.6 km/h Distance 30.70 km</desc>
<time>2010-06-13T08:10:20.67</time>
<name>7136</name>
</trkpt>
<trkpt lat="49.198687" lon="11.825755">
<ele>545.6</ele>
<speed>16.5</speed>
<course>130.0</course>
<desc>Speed 16.5 km/h Distance 30.71 km</desc>
<time>2010-06-13T08:10:21.67</time>
<name>7137</name>
</trkpt>
<trkpt lat="49.198658" lon="11.825807">
<ele>544.0</ele>
<speed>17.9</speed>
<course>136.9</course>
<desc>Speed 17.9 km/h Distance 30.71 km</desc>
<time>2010-06-13T08:10:22.67</time>
<name>7138</name>
</trkpt>
<trkpt lat="49.198620" lon="11.825862">
<ele>543.2</ele>
<speed>19.2</speed>
<course>139.4</course>
<desc>Speed 19.2 km/h Distance 30.72 km</desc>
<time>2010-06-13T08:10:23.67</time>
<name>7139</name>
</trkpt>
<trkpt lat="49.198572" lon="11.825925">
<ele>542.6</ele>
<speed>21.9</speed>
<course>128.8</course>
<desc>Speed 21.9 km/h Distance 30.73 km</desc>
<time>2010-06-13T08:10:24.67</time>
<name>7140</name>
</trkpt>
<trkpt lat="49.198537" lon="11.825992">
<ele>541.4</ele>
<speed>24.0</speed>
<course>131.2</course>
<desc>Speed 24.0 km/h Distance 30.73 km</desc>
<time>2010-06-13T08:10:25.67</time>
<name>7141</name>
</trkpt>
<trkpt lat="49.198497" lon="11.826062">
<ele>541.1</ele>
<speed>22.7</speed>
<course>133.6</course>
<desc>Speed 22.7 km/h Distance 30.74 km</desc>
<time>2010-06-13T08:10:26.67</time>
<name>7142</name>
</trkpt>
<trkpt lat="49.198458" lon="11.826123">
<ele>540.7</ele>
<speed>19.8</speed>
<course>132.9</course>
<desc>Speed 19.8 km/h Distance 30.74 km</desc>
<time>2010-06-13T08:10:27.67</time>
<name>7143</name>
</trkpt>
<trkpt lat="49.198430" lon="11.826170">
<ele>540.1</ele>
<speed>16.1</speed>
<course>138.1</course>
<desc>Speed 16.1 km/h Distance 30.75 km</desc>
<time>2010-06-13T08:10:28.67</time>
<name>7144</name>
</trkpt>
<trkpt lat="49.198403" lon="11.826207">
<ele>540.4</ele>
<speed>11.3</speed>
<course>155.0</course>
<desc>Speed 11.3 km/h Distance 30.75 km</desc>
<time>2010-06-13T08:10:29.67</time>
<name>7145</name>
</trkpt>
<trkpt lat="49.198380" lon="11.826223">
<ele>539.8</ele>
<speed>9.9</speed>
<course>171.6</course>
<desc>Speed 9.9 km/h Distance 30.76 km</desc>
<time>2010-06-13T08:10:30.67</time>
<name>7146</name>
</trkpt>
<trkpt lat="49.198358" lon="11.826228">
<ele>539.7</ele>
<speed>8.1</speed>
<course>189.5</course>
<desc>Speed 8.1 km/h Distance 30.76 km</desc>
<time>2010-06-13T08:10:31.67</time>
<name>7147</name>
</trkpt>
<trkpt lat="49.198338" lon="11.826223">
<ele>539.8</ele>
<speed>5.6</speed>
<course>279.7</course>
<desc>Speed 5.6 km/h Distance 30.76 km</desc>
<time>2010-06-13T08:10:32.67</time>
<name>7148</name>
</trkpt>
<trkpt lat="49.198343" lon="11.826178">
<ele>542.8</ele>
<speed>5.9</speed>
<course>253.0</course>
<desc>Speed 5.9 km/h Distance 30.76 km</desc>
<time>2010-06-13T08:10:33.67</time>
<name>7149</name>
</trkpt>
<trkpt lat="49.198338" lon="11.826153">
<ele>543.1</ele>
<speed>6.7</speed>
<course>244.4</course>
<desc>Speed 6.7 km/h Distance 30.77 km</desc>
<time>2010-06-13T08:10:34.67</time>
<name>7150</name>
</trkpt>
<trkpt lat="49.198330" lon="11.826127">
<ele>542.2</ele>
<speed>7.7</speed>
<course>230.8</course>
<desc>Speed 7.7 km/h Distance 30.77 km</desc>
<time>2010-06-13T08:10:35.67</time>
<name>7151</name>
</trkpt>
<trkpt lat="49.198317" lon="11.826102">
<ele>542.0</ele>
<speed>7.3</speed>
<course>207.2</course>
<desc>Speed 7.3 km/h Distance 30.77 km</desc>
<time>2010-06-13T08:10:36.67</time>
<name>7152</name>
</trkpt>
<trkpt lat="49.198293" lon="11.826083">
<ele>540.8</ele>
<speed>10.1</speed>
<course>187.4</course>
<desc>Speed 10.1 km/h Distance 30.77 km</desc>
<time>2010-06-13T08:10:37.67</time>
<name>7153</name>
</trkpt>
<trkpt lat="49.198260" lon="11.826077">
<ele>541.5</ele>
<speed>14.3</speed>
<course>175.6</course>
<desc>Speed 14.3 km/h Distance 30.78 km</desc>
<time>2010-06-13T08:10:38.67</time>
<name>7154</name>
</trkpt>
<trkpt lat="49.198220" lon="11.826082">
<ele>541.2</ele>
<speed>16.4</speed>
<course>173.5</course>
<desc>Speed 16.4 km/h Distance 30.78 km</desc>
<time>2010-06-13T08:10:39.67</time>
<name>7155</name>
</trkpt>
<trkpt lat="49.198172" lon="11.826090">
<ele>541.0</ele>
<speed>17.3</speed>
<course>163.0</course>
<desc>Speed 17.3 km/h Distance 30.79 km</desc>
<time>2010-06-13T08:10:40.67</time>
<name>7156</name>
</trkpt>
<trkpt lat="49.198118" lon="11.826115">
<ele>539.5</ele>
<speed>17.9</speed>
<course>175.2</course>
<desc>Speed 17.9 km/h Distance 30.79 km</desc>
<time>2010-06-13T08:10:41.67</time>
<name>7157</name>
</trkpt>
<trkpt lat="49.198067" lon="11.826122">
<ele>540.3</ele>
<speed>19.6</speed>
<course>182.6</course>
<desc>Speed 19.6 km/h Distance 30.80 km</desc>
<time>2010-06-13T08:10:42.67</time>
<name>7158</name>
</trkpt>
<trkpt lat="49.198020" lon="11.826118">
<ele>542.0</ele>
<speed>18.8</speed>
<course>171.0</course>
<desc>Speed 18.8 km/h Distance 30.80 km</desc>
<time>2010-06-13T08:10:43.67</time>
<name>7159</name>
</trkpt>
<trkpt lat="49.197958" lon="11.826133">
<ele>539.9</ele>
<speed>18.9</speed>
<course>158.4</course>
<desc>Speed 18.9 km/h Distance 30.81 km</desc>
<time>2010-06-13T08:10:44.67</time>
<name>7160</name>
</trkpt>
<trkpt lat="49.197912" lon="11.826162">
<ele>538.9</ele>
<speed>17.3</speed>
<course>144.4</course>
<desc>Speed 17.3 km/h Distance 30.82 km</desc>
<time>2010-06-13T08:10:45.67</time>
<name>7161</name>
</trkpt>
<trkpt lat="49.197877" lon="11.826200">
<ele>539.3</ele>
<speed>15.6</speed>
<course>152.8</course>
<desc>Speed 15.6 km/h Distance 30.82 km</desc>
<time>2010-06-13T08:10:46.67</time>
<name>7162</name>
</trkpt>
<trkpt lat="49.197830" lon="11.826237">
<ele>538.9</ele>
<speed>16.7</speed>
<course>147.9</course>
<desc>Speed 16.7 km/h Distance 30.83 km</desc>
<time>2010-06-13T08:10:47.67</time>
<name>7163</name>
</trkpt>
<trkpt lat="49.197788" lon="11.826277">
<ele>538.6</ele>
<speed>16.8</speed>
<course>148.7</course>
<desc>Speed 16.8 km/h Distance 30.83 km</desc>
<time>2010-06-13T08:10:48.67</time>
<name>7164</name>
</trkpt>
<trkpt lat="49.197740" lon="11.826322">
<ele>539.4</ele>
<speed>16.2</speed>
<course>133.9</course>
<desc>Speed 16.2 km/h Distance 30.84 km</desc>
<time>2010-06-13T08:10:49.67</time>
<name>7165</name>
</trkpt>
<trkpt lat="49.197703" lon="11.826380">
<ele>541.4</ele>
<speed>18.2</speed>
<course>133.1</course>
<desc>Speed 18.2 km/h Distance 30.85 km</desc>
<time>2010-06-13T08:10:50.67</time>
<name>7166</name>
</trkpt>
<trkpt lat="49.197667" lon="11.826440">
<ele>543.3</ele>
<speed>18.5</speed>
<course>155.6</course>
<desc>Speed 18.5 km/h Distance 30.85 km</desc>
<time>2010-06-13T08:10:51.67</time>
<name>7167</name>
</trkpt>
<trkpt lat="49.197628" lon="11.826467">
<ele>544.9</ele>
<speed>16.5</speed>
<course>141.9</course>
<desc>Speed 16.5 km/h Distance 30.86 km</desc>
<time>2010-06-13T08:10:52.67</time>
<name>7168</name>
</trkpt>
<trkpt lat="49.197595" lon="11.826507">
<ele>547.4</ele>
<speed>15.7</speed>
<course>153.8</course>
<desc>Speed 15.7 km/h Distance 30.86 km</desc>
<time>2010-06-13T08:10:53.67</time>
<name>7169</name>
</trkpt>
<trkpt lat="49.197493" lon="11.826583">
<ele>547.8</ele>
<speed>21.0</speed>
<course>151.6</course>
<desc>Speed 21.0 km/h Distance 30.87 km</desc>
<time>2010-06-13T08:10:55.67</time>
<name>7170</name>
</trkpt>
<trkpt lat="49.197435" lon="11.826632">
<ele>547.1</ele>
<speed>24.0</speed>
<course>143.9</course>
<desc>Speed 24.0 km/h Distance 30.88 km</desc>
<time>2010-06-13T08:10:56.67</time>
<name>7171</name>
</trkpt>
<trkpt lat="49.197305" lon="11.826777">
<ele>546.7</ele>
<speed>29.2</speed>
<course>137.4</course>
<desc>Speed 29.2 km/h Distance 30.90 km</desc>
<time>2010-06-13T08:10:58.67</time>
<name>7172</name>
</trkpt>
<trkpt lat="49.197182" lon="11.826950">
<ele>547.1</ele>
<speed>28.0</speed>
<course>135.6</course>
<desc>Speed 28.0 km/h Distance 30.92 km</desc>
<time>2010-06-13T08:11:00.67</time>
<name>7173</name>
</trkpt>
<trkpt lat="49.197138" lon="11.827015">
<ele>546.4</ele>
<speed>25.0</speed>
<course>115.8</course>
<desc>Speed 25.0 km/h Distance 30.92 km</desc>
<time>2010-06-13T08:11:01.67</time>
<name>7174</name>
</trkpt>
<trkpt lat="49.197118" lon="11.827078">
<ele>544.8</ele>
<speed>22.3</speed>
<course>109.2</course>
<desc>Speed 22.3 km/h Distance 30.93 km</desc>
<time>2010-06-13T08:11:02.67</time>
<name>7175</name>
</trkpt>
<trkpt lat="49.197102" lon="11.827152">
<ele>543.2</ele>
<speed>21.9</speed>
<course>116.0</course>
<desc>Speed 21.9 km/h Distance 30.93 km</desc>
<time>2010-06-13T08:11:03.67</time>
<name>7176</name>
</trkpt>
<trkpt lat="49.197077" lon="11.827230">
<ele>541.8</ele>
<speed>23.5</speed>
<course>115.6</course>
<desc>Speed 23.5 km/h Distance 30.94 km</desc>
<time>2010-06-13T08:11:04.67</time>
<name>7177</name>
</trkpt>
<trkpt lat="49.197052" lon="11.827310">
<ele>540.9</ele>
<speed>23.3</speed>
<course>120.0</course>
<desc>Speed 23.3 km/h Distance 30.95 km</desc>
<time>2010-06-13T08:11:05.67</time>
<name>7178</name>
</trkpt>
<trkpt lat="49.197023" lon="11.827385">
<ele>540.2</ele>
<speed>21.4</speed>
<course>128.0</course>
<desc>Speed 21.4 km/h Distance 30.95 km</desc>
<time>2010-06-13T08:11:06.67</time>
<name>7179</name>
</trkpt>
<trkpt lat="49.196982" lon="11.827467">
<ele>539.2</ele>
<speed>21.5</speed>
<course>132.3</course>
<desc>Speed 21.5 km/h Distance 30.96 km</desc>
<time>2010-06-13T08:11:07.67</time>
<name>7180</name>
</trkpt>
<trkpt lat="49.196945" lon="11.827528">
<ele>538.6</ele>
<speed>18.9</speed>
<course>137.1</course>
<desc>Speed 18.9 km/h Distance 30.97 km</desc>
<time>2010-06-13T08:11:08.67</time>
<name>7181</name>
</trkpt>
<trkpt lat="49.196913" lon="11.827573">
<ele>538.2</ele>
<speed>18.4</speed>
<course>143.8</course>
<desc>Speed 18.4 km/h Distance 30.97 km</desc>
<time>2010-06-13T08:11:09.67</time>
<name>7182</name>
</trkpt>
<trkpt lat="49.196872" lon="11.827620">
<ele>538.0</ele>
<speed>18.2</speed>
<course>156.5</course>
<desc>Speed 18.2 km/h Distance 30.98 km</desc>
<time>2010-06-13T08:11:10.67</time>
<name>7183</name>
</trkpt>
<trkpt lat="49.196827" lon="11.827650">
<ele>537.2</ele>
<speed>19.1</speed>
<course>152.1</course>
<desc>Speed 19.1 km/h Distance 30.98 km</desc>
<time>2010-06-13T08:11:11.67</time>
<name>7184</name>
</trkpt>
<trkpt lat="49.196792" lon="11.827678">
<ele>538.0</ele>
<speed>16.9</speed>
<course>133.0</course>
<desc>Speed 16.9 km/h Distance 30.99 km</desc>
<time>2010-06-13T08:11:12.67</time>
<name>7185</name>
</trkpt>
<trkpt lat="49.196768" lon="11.827717">
<ele>538.6</ele>
<speed>15.4</speed>
<course>124.5</course>
<desc>Speed 15.4 km/h Distance 30.99 km</desc>
<time>2010-06-13T08:11:13.67</time>
<name>7186</name>
</trkpt>
<trkpt lat="49.196753" lon="11.827750">
<ele>540.9</ele>
<speed>14.0</speed>
<course>138.9</course>
<desc>Speed 14.0 km/h Distance 30.99 km</desc>
<time>2010-06-13T08:11:14.67</time>
<name>7187</name>
</trkpt>
<trkpt lat="49.196728" lon="11.827783">
<ele>541.0</ele>
<speed>12.3</speed>
<course>153.1</course>
<desc>Speed 12.3 km/h Distance 31.00 km</desc>
<time>2010-06-13T08:11:15.67</time>
<name>7188</name>
</trkpt>
<trkpt lat="49.196713" lon="11.827795">
<ele>539.8</ele>
<speed>9.6</speed>
<course>166.0</course>
<desc>Speed 9.6 km/h Distance 31.00 km</desc>
<time>2010-06-13T08:11:16.67</time>
<name>7189</name>
</trkpt>
<trkpt lat="49.196692" lon="11.827803">
<ele>539.8</ele>
<speed>9.5</speed>
<course>150.5</course>
<desc>Speed 9.5 km/h Distance 31.00 km</desc>
<time>2010-06-13T08:11:17.67</time>
<name>7190</name>
</trkpt>
<trkpt lat="49.196667" lon="11.827825">
<ele>539.9</ele>
<speed>10.5</speed>
<course>137.8</course>
<desc>Speed 10.5 km/h Distance 31.01 km</desc>
<time>2010-06-13T08:11:18.67</time>
<name>7191</name>
</trkpt>
<trkpt lat="49.196645" lon="11.827855">
<ele>542.0</ele>
<speed>8.7</speed>
<course>110.9</course>
<desc>Speed 8.7 km/h Distance 31.01 km</desc>
<time>2010-06-13T08:11:19.67</time>
<name>7192</name>
</trkpt>
<trkpt lat="49.196637" lon="11.827888">
<ele>544.1</ele>
<speed>7.4</speed>
<course>134.8</course>
<desc>Speed 7.4 km/h Distance 31.01 km</desc>
<time>2010-06-13T08:11:20.67</time>
<name>7193</name>
</trkpt>
<trkpt lat="49.196615" lon="11.827922">
<ele>543.8</ele>
<speed>9.4</speed>
<course>129.7</course>
<desc>Speed 9.4 km/h Distance 31.02 km</desc>
<time>2010-06-13T08:11:21.67</time>
<name>7194</name>
</trkpt>
<trkpt lat="49.196593" lon="11.827962">
<ele>542.2</ele>
<speed>9.9</speed>
<course>129.5</course>
<desc>Speed 9.9 km/h Distance 31.02 km</desc>
<time>2010-06-13T08:11:22.67</time>
<name>7195</name>
</trkpt>
<trkpt lat="49.196570" lon="11.828005">
<ele>540.1</ele>
<speed>10.5</speed>
<course>138.2</course>
<desc>Speed 10.5 km/h Distance 31.02 km</desc>
<time>2010-06-13T08:11:23.67</time>
<name>7196</name>
</trkpt>
<trkpt lat="49.196538" lon="11.828048">
<ele>534.2</ele>
<speed>9.1</speed>
<course>105.8</course>
<desc>Speed 9.1 km/h Distance 31.03 km</desc>
<time>2010-06-13T08:11:24.67</time>
<name>7197</name>
</trkpt>
<trkpt lat="49.196530" lon="11.828093">
<ele>532.9</ele>
<speed>8.7</speed>
<course>64.2</course>
<desc>Speed 8.7 km/h Distance 31.03 km</desc>
<time>2010-06-13T08:11:25.67</time>
<name>7198</name>
</trkpt>
<trkpt lat="49.196540" lon="11.828125">
<ele>530.5</ele>
<speed>7.3</speed>
<course>34.7</course>
<desc>Speed 7.3 km/h Distance 31.03 km</desc>
<time>2010-06-13T08:11:26.67</time>
<name>7199</name>
</trkpt>
<trkpt lat="49.196595" lon="11.828183">
<ele>524.8</ele>
<speed>10.4</speed>
<course>39.7</course>
<desc>Speed 10.4 km/h Distance 31.04 km</desc>
<time>2010-06-13T08:11:28.67</time>
<name>7200</name>
</trkpt>
<trkpt lat="49.196668" lon="11.828277">
<ele>525.2</ele>
<speed>12.4</speed>
<course>52.6</course>
<desc>Speed 12.4 km/h Distance 31.05 km</desc>
<time>2010-06-13T08:11:30.67</time>
<name>7201</name>
</trkpt>
<trkpt lat="49.196722" lon="11.828383">
<ele>525.0</ele>
<speed>13.4</speed>
<course>78.6</course>
<desc>Speed 13.4 km/h Distance 31.06 km</desc>
<time>2010-06-13T08:11:32.67</time>
<name>7202</name>
</trkpt>
<trkpt lat="49.196730" lon="11.828447">
<ele>522.4</ele>
<speed>13.0</speed>
<course>66.4</course>
<desc>Speed 13.0 km/h Distance 31.07 km</desc>
<time>2010-06-13T08:11:33.67</time>
<name>7203</name>
</trkpt>
<trkpt lat="49.196747" lon="11.828505">
<ele>518.9</ele>
<speed>13.1</speed>
<course>63.0</course>
<desc>Speed 13.1 km/h Distance 31.07 km</desc>
<time>2010-06-13T08:11:34.67</time>
<name>7204</name>
</trkpt>
<trkpt lat="49.196763" lon="11.828555">
<ele>515.6</ele>
<speed>11.6</speed>
<course>66.0</course>
<desc>Speed 11.6 km/h Distance 31.07 km</desc>
<time>2010-06-13T08:11:35.67</time>
<name>7205</name>
</trkpt>
<trkpt lat="49.196778" lon="11.828607">
<ele>513.9</ele>
<speed>10.7</speed>
<course>58.9</course>
<desc>Speed 10.7 km/h Distance 31.08 km</desc>
<time>2010-06-13T08:11:36.67</time>
<name>7206</name>
</trkpt>
<trkpt lat="49.196800" lon="11.828662">
<ele>512.0</ele>
<speed>11.1</speed>
<course>43.2</course>
<desc>Speed 11.1 km/h Distance 31.08 km</desc>
<time>2010-06-13T08:11:37.67</time>
<name>7207</name>
</trkpt>
<trkpt lat="49.196868" lon="11.828760">
<ele>513.7</ele>
<speed>12.5</speed>
<course>51.0</course>
<desc>Speed 12.5 km/h Distance 31.09 km</desc>
<time>2010-06-13T08:11:39.67</time>
<name>7208</name>
</trkpt>
<trkpt lat="49.196898" lon="11.828817">
<ele>516.4</ele>
<speed>13.8</speed>
<course>60.4</course>
<desc>Speed 13.8 km/h Distance 31.10 km</desc>
<time>2010-06-13T08:11:40.67</time>
<name>7209</name>
</trkpt>
<trkpt lat="49.196953" lon="11.828965">
<ele>518.7</ele>
<speed>15.1</speed>
<course>67.6</course>
<desc>Speed 15.1 km/h Distance 31.11 km</desc>
<time>2010-06-13T08:11:42.67</time>
<name>7210</name>
</trkpt>
<trkpt lat="49.196993" lon="11.829113">
<ele>517.0</ele>
<speed>13.1</speed>
<course>49.8</course>
<desc>Speed 13.1 km/h Distance 31.12 km</desc>
<time>2010-06-13T08:11:44.67</time>
<name>7211</name>
</trkpt>
<trkpt lat="49.197073" lon="11.829258">
<ele>518.0</ele>
<speed>17.3</speed>
<course>54.7</course>
<desc>Speed 17.3 km/h Distance 31.14 km</desc>
<time>2010-06-13T08:11:46.67</time>
<name>7212</name>
</trkpt>
<trkpt lat="49.197155" lon="11.829435">
<ele>516.6</ele>
<speed>21.7</speed>
<course>66.4</course>
<desc>Speed 21.7 km/h Distance 31.15 km</desc>
<time>2010-06-13T08:11:48.67</time>
<name>7213</name>
</trkpt>
<trkpt lat="49.197178" lon="11.829517">
<ele>517.0</ele>
<speed>18.7</speed>
<course>75.0</course>
<desc>Speed 18.7 km/h Distance 31.16 km</desc>
<time>2010-06-13T08:11:49.67</time>
<name>7214</name>
</trkpt>
<trkpt lat="49.197195" lon="11.829612">
<ele>516.0</ele>
<speed>17.5</speed>
<course>79.9</course>
<desc>Speed 17.5 km/h Distance 31.17 km</desc>
<time>2010-06-13T08:11:50.67</time>
<name>7215</name>
</trkpt>
<trkpt lat="49.197218" lon="11.829812">
<ele>514.7</ele>
<speed>17.9</speed>
<course>91.6</course>
<desc>Speed 17.9 km/h Distance 31.18 km</desc>
<time>2010-06-13T08:11:52.67</time>
<name>7216</name>
</trkpt>
<trkpt lat="49.197217" lon="11.829902">
<ele>514.8</ele>
<speed>16.9</speed>
<course>85.6</course>
<desc>Speed 16.9 km/h Distance 31.19 km</desc>
<time>2010-06-13T08:11:53.67</time>
<name>7217</name>
</trkpt>
<trkpt lat="49.197227" lon="11.830102">
<ele>515.2</ele>
<speed>15.4</speed>
<course>90.9</course>
<desc>Speed 15.4 km/h Distance 31.20 km</desc>
<time>2010-06-13T08:11:55.67</time>
<name>7218</name>
</trkpt>
<trkpt lat="49.197225" lon="11.830273">
<ele>517.7</ele>
<speed>14.0</speed>
<course>87.5</course>
<desc>Speed 14.0 km/h Distance 31.22 km</desc>
<time>2010-06-13T08:11:57.67</time>
<name>7219</name>
</trkpt>
<trkpt lat="49.197230" lon="11.830447">
<ele>522.3</ele>
<speed>13.8</speed>
<course>117.3</course>
<desc>Speed 13.8 km/h Distance 31.23 km</desc>
<time>2010-06-13T08:11:59.67</time>
<name>7220</name>
</trkpt>
<trkpt lat="49.197180" lon="11.830595">
<ele>521.2</ele>
<speed>13.5</speed>
<course>114.0</course>
<desc>Speed 13.5 km/h Distance 31.24 km</desc>
<time>2010-06-13T08:12:01.67</time>
<name>7221</name>
</trkpt>
<trkpt lat="49.197138" lon="11.830738">
<ele>519.6</ele>
<speed>14.1</speed>
<course>111.8</course>
<desc>Speed 14.1 km/h Distance 31.25 km</desc>
<time>2010-06-13T08:12:03.67</time>
<name>7222</name>
</trkpt>
<trkpt lat="49.197120" lon="11.830808">
<ele>520.0</ele>
<speed>16.5</speed>
<course>88.4</course>
<desc>Speed 16.5 km/h Distance 31.26 km</desc>
<time>2010-06-13T08:12:04.67</time>
<name>7223</name>
</trkpt>
<trkpt lat="49.197122" lon="11.830898">
<ele>521.3</ele>
<speed>19.7</speed>
<course>83.9</course>
<desc>Speed 19.7 km/h Distance 31.26 km</desc>
<time>2010-06-13T08:12:05.67</time>
<name>7224</name>
</trkpt>
<trkpt lat="49.197128" lon="11.830993">
<ele>522.8</ele>
<speed>19.8</speed>
<course>80.5</course>
<desc>Speed 19.8 km/h Distance 31.27 km</desc>
<time>2010-06-13T08:12:06.67</time>
<name>7225</name>
</trkpt>
<trkpt lat="49.197138" lon="11.831085">
<ele>524.5</ele>
<speed>19.4</speed>
<course>90.0</course>
<desc>Speed 19.4 km/h Distance 31.28 km</desc>
<time>2010-06-13T08:12:07.67</time>
<name>7226</name>
</trkpt>
<trkpt lat="49.197138" lon="11.831183">
<ele>526.7</ele>
<speed>19.0</speed>
<course>91.3</course>
<desc>Speed 19.0 km/h Distance 31.28 km</desc>
<time>2010-06-13T08:12:08.67</time>
<name>7227</name>
</trkpt>
<trkpt lat="49.197135" lon="11.831400">
<ele>528.0</ele>
<speed>20.8</speed>
<course>94.3</course>
<desc>Speed 20.8 km/h Distance 31.30 km</desc>
<time>2010-06-13T08:12:10.67</time>
<name>7228</name>
</trkpt>
<trkpt lat="49.197130" lon="11.831502">
<ele>529.1</ele>
<speed>20.1</speed>
<course>91.6</course>
<desc>Speed 20.1 km/h Distance 31.31 km</desc>
<time>2010-06-13T08:12:11.67</time>
<name>7229</name>
</trkpt>
<trkpt lat="49.197128" lon="11.831595">
<ele>531.2</ele>
<speed>17.8</speed>
<course>98.1</course>
<desc>Speed 17.8 km/h Distance 31.31 km</desc>
<time>2010-06-13T08:12:12.67</time>
<name>7230</name>
</trkpt>
<trkpt lat="49.197120" lon="11.831685">
<ele>529.7</ele>
<speed>18.9</speed>
<course>102.1</course>
<desc>Speed 18.9 km/h Distance 31.32 km</desc>
<time>2010-06-13T08:12:13.67</time>
<name>7231</name>
</trkpt>
<trkpt lat="49.197108" lon="11.831768">
<ele>530.4</ele>
<speed>17.1</speed>
<course>94.8</course>
<desc>Speed 17.1 km/h Distance 31.33 km</desc>
<time>2010-06-13T08:12:14.67</time>
<name>7232</name>
</trkpt>
<trkpt lat="49.197103" lon="11.831860">
<ele>527.8</ele>
<speed>19.4</speed>
<course>107.3</course>
<desc>Speed 19.4 km/h Distance 31.33 km</desc>
<time>2010-06-13T08:12:15.67</time>
<name>7233</name>
</trkpt>
<trkpt lat="49.197085" lon="11.831950">
<ele>525.3</ele>
<speed>17.7</speed>
<course>93.7</course>
<desc>Speed 17.7 km/h Distance 31.34 km</desc>
<time>2010-06-13T08:12:16.67</time>
<name>7234</name>
</trkpt>
<trkpt lat="49.197082" lon="11.832028">
<ele>525.7</ele>
<speed>15.9</speed>
<course>107.8</course>
<desc>Speed 15.9 km/h Distance 31.35 km</desc>
<time>2010-06-13T08:12:17.67</time>
<name>7235</name>
</trkpt>
<trkpt lat="49.197045" lon="11.832203">
<ele>523.7</ele>
<speed>15.7</speed>
<course>121.7</course>
<desc>Speed 15.7 km/h Distance 31.36 km</desc>
<time>2010-06-13T08:12:19.67</time>
<name>7236</name>
</trkpt>
<trkpt lat="49.196975" lon="11.832377">
<ele>522.9</ele>
<speed>17.2</speed>
<course>141.5</course>
<desc>Speed 17.2 km/h Distance 31.37 km</desc>
<time>2010-06-13T08:12:21.67</time>
<name>7237</name>
</trkpt>
<trkpt lat="49.196937" lon="11.832423">
<ele>521.3</ele>
<speed>14.6</speed>
<course>135.1</course>
<desc>Speed 14.6 km/h Distance 31.38 km</desc>
<time>2010-06-13T08:12:22.67</time>
<name>7238</name>
</trkpt>
<trkpt lat="49.196905" lon="11.832472">
<ele>521.4</ele>
<speed>14.2</speed>
<course>141.0</course>
<desc>Speed 14.2 km/h Distance 31.38 km</desc>
<time>2010-06-13T08:12:23.67</time>
<name>7239</name>
</trkpt>
<trkpt lat="49.196870" lon="11.832515">
<ele>521.3</ele>
<speed>13.7</speed>
<course>142.0</course>
<desc>Speed 13.7 km/h Distance 31.39 km</desc>
<time>2010-06-13T08:12:24.67</time>
<name>7240</name>
</trkpt>
<trkpt lat="49.196802" lon="11.832597">
<ele>521.6</ele>
<speed>12.8</speed>
<course>159.8</course>
<desc>Speed 12.8 km/h Distance 31.40 km</desc>
<time>2010-06-13T08:12:26.67</time>
<name>7241</name>
</trkpt>
<trkpt lat="49.196775" lon="11.832612">
<ele>519.7</ele>
<speed>11.4</speed>
<course>108.8</course>
<desc>Speed 11.4 km/h Distance 31.40 km</desc>
<time>2010-06-13T08:12:27.67</time>
<name>7242</name>
</trkpt>
<trkpt lat="49.196768" lon="11.832642">
<ele>518.6</ele>
<speed>11.0</speed>
<course>42.2</course>
<desc>Speed 11.0 km/h Distance 31.40 km</desc>
<time>2010-06-13T08:12:28.67</time>
<name>7243</name>
</trkpt>
<trkpt lat="49.196790" lon="11.832672">
<ele>516.5</ele>
<speed>12.0</speed>
<course>30.8</course>
<desc>Speed 12.0 km/h Distance 31.41 km</desc>
<time>2010-06-13T08:12:29.67</time>
<name>7244</name>
</trkpt>
<trkpt lat="49.196828" lon="11.832707">
<ele>513.3</ele>
<speed>16.1</speed>
<course>43.4</course>
<desc>Speed 16.1 km/h Distance 31.41 km</desc>
<time>2010-06-13T08:12:30.67</time>
<name>7245</name>
</trkpt>
<trkpt lat="49.196907" lon="11.832820">
<ele>508.9</ele>
<speed>20.0</speed>
<course>60.3</course>
<desc>Speed 20.0 km/h Distance 31.43 km</desc>
<time>2010-06-13T08:12:32.67</time>
<name>7246</name>
</trkpt>
<trkpt lat="49.196933" lon="11.832892">
<ele>507.9</ele>
<speed>19.9</speed>
<course>65.7</course>
<desc>Speed 19.9 km/h Distance 31.43 km</desc>
<time>2010-06-13T08:12:33.67</time>
<name>7247</name>
</trkpt>
<trkpt lat="49.196955" lon="11.832965">
<ele>507.4</ele>
<speed>20.4</speed>
<course>52.6</course>
<desc>Speed 20.4 km/h Distance 31.44 km</desc>
<time>2010-06-13T08:12:34.67</time>
<name>7248</name>
</trkpt>
<trkpt lat="49.196987" lon="11.833028">
<ele>506.1</ele>
<speed>19.9</speed>
<course>55.6</course>
<desc>Speed 19.9 km/h Distance 31.44 km</desc>
<time>2010-06-13T08:12:35.67</time>
<name>7249</name>
</trkpt>
<trkpt lat="49.197015" lon="11.833092">
<ele>504.5</ele>
<speed>20.2</speed>
<course>48.0</course>
<desc>Speed 20.2 km/h Distance 31.45 km</desc>
<time>2010-06-13T08:12:36.67</time>
<name>7250</name>
</trkpt>
<trkpt lat="49.197048" lon="11.833148">
<ele>502.6</ele>
<speed>20.8</speed>
<course>54.0</course>
<desc>Speed 20.8 km/h Distance 31.45 km</desc>
<time>2010-06-13T08:12:37.67</time>
<name>7251</name>
</trkpt>
<trkpt lat="49.197080" lon="11.833215">
<ele>501.1</ele>
<speed>20.9</speed>
<course>59.2</course>
<desc>Speed 20.9 km/h Distance 31.46 km</desc>
<time>2010-06-13T08:12:38.67</time>
<name>7252</name>
</trkpt>
<trkpt lat="49.197107" lon="11.833283">
<ele>500.2</ele>
<speed>20.1</speed>
<course>59.8</course>
<desc>Speed 20.1 km/h Distance 31.47 km</desc>
<time>2010-06-13T08:12:39.67</time>
<name>7253</name>
</trkpt>
<trkpt lat="49.197133" lon="11.833353">
<ele>499.9</ele>
<speed>20.2</speed>
<course>54.7</course>
<desc>Speed 20.2 km/h Distance 31.47 km</desc>
<time>2010-06-13T08:12:40.67</time>
<name>7254</name>
</trkpt>
<trkpt lat="49.197165" lon="11.833422">
<ele>499.1</ele>
<speed>19.7</speed>
<course>50.1</course>
<desc>Speed 19.7 km/h Distance 31.48 km</desc>
<time>2010-06-13T08:12:41.67</time>
<name>7255</name>
</trkpt>
<trkpt lat="49.197195" lon="11.833477">
<ele>499.2</ele>
<speed>20.1</speed>
<course>55.0</course>
<desc>Speed 20.1 km/h Distance 31.48 km</desc>
<time>2010-06-13T08:12:42.67</time>
<name>7256</name>
</trkpt>
<trkpt lat="49.197222" lon="11.833535">
<ele>498.5</ele>
<speed>18.6</speed>
<course>56.3</course>
<desc>Speed 18.6 km/h Distance 31.49 km</desc>
<time>2010-06-13T08:12:43.67</time>
<name>7257</name>
</trkpt>
<trkpt lat="49.197250" lon="11.833600">
<ele>498.3</ele>
<speed>18.3</speed>
<course>56.7</course>
<desc>Speed 18.3 km/h Distance 31.49 km</desc>
<time>2010-06-13T08:12:44.67</time>
<name>7258</name>
</trkpt>
<trkpt lat="49.197275" lon="11.833658">
<ele>498.5</ele>
<speed>18.5</speed>
<course>65.5</course>
<desc>Speed 18.5 km/h Distance 31.50 km</desc>
<time>2010-06-13T08:12:45.67</time>
<name>7259</name>
</trkpt>
<trkpt lat="49.197293" lon="11.833720">
<ele>499.2</ele>
<speed>17.2</speed>
<course>66.1</course>
<desc>Speed 17.2 km/h Distance 31.50 km</desc>
<time>2010-06-13T08:12:46.67</time>
<name>7260</name>
</trkpt>
<trkpt lat="49.197312" lon="11.833783">
<ele>499.6</ele>
<speed>16.3</speed>
<course>51.5</course>
<desc>Speed 16.3 km/h Distance 31.51 km</desc>
<time>2010-06-13T08:12:47.67</time>
<name>7261</name>
</trkpt>
<trkpt lat="49.197333" lon="11.833825">
<ele>499.3</ele>
<speed>14.7</speed>
<course>67.3</course>
<desc>Speed 14.7 km/h Distance 31.51 km</desc>
<time>2010-06-13T08:12:48.67</time>
<name>7262</name>
</trkpt>
<trkpt lat="49.197348" lon="11.833880">
<ele>499.5</ele>
<speed>14.9</speed>
<course>78.6</course>
<desc>Speed 14.9 km/h Distance 31.52 km</desc>
<time>2010-06-13T08:12:49.67</time>
<name>7263</name>
</trkpt>
<trkpt lat="49.197357" lon="11.833943">
<ele>499.3</ele>
<speed>15.9</speed>
<course>87.5</course>
<desc>Speed 15.9 km/h Distance 31.52 km</desc>
<time>2010-06-13T08:12:50.67</time>
<name>7264</name>
</trkpt>
<trkpt lat="49.197358" lon="11.834002">
<ele>497.9</ele>
<speed>15.9</speed>
<course>97.1</course>
<desc>Speed 15.9 km/h Distance 31.53 km</desc>
<time>2010-06-13T08:12:51.67</time>
<name>7265</name>
</trkpt>
<trkpt lat="49.197352" lon="11.834083">
<ele>496.8</ele>
<speed>19.1</speed>
<course>96.8</course>
<desc>Speed 19.1 km/h Distance 31.53 km</desc>
<time>2010-06-13T08:12:52.67</time>
<name>7266</name>
</trkpt>
<trkpt lat="49.197345" lon="11.834168">
<ele>496.2</ele>
<speed>20.5</speed>
<course>100.8</course>
<desc>Speed 20.5 km/h Distance 31.54 km</desc>
<time>2010-06-13T08:12:53.67</time>
<name>7267</name>
</trkpt>
<trkpt lat="49.197335" lon="11.834248">
<ele>496.7</ele>
<speed>21.3</speed>
<course>95.2</course>
<desc>Speed 21.3 km/h Distance 31.54 km</desc>
<time>2010-06-13T08:12:54.67</time>
<name>7268</name>
</trkpt>
<trkpt lat="49.197330" lon="11.834332">
<ele>496.8</ele>
<speed>22.5</speed>
<course>96.6</course>
<desc>Speed 22.5 km/h Distance 31.55 km</desc>
<time>2010-06-13T08:12:55.67</time>
<name>7269</name>
</trkpt>
<trkpt lat="49.197323" lon="11.834420">
<ele>497.1</ele>
<speed>23.2</speed>
<course>98.2</course>
<desc>Speed 23.2 km/h Distance 31.56 km</desc>
<time>2010-06-13T08:12:56.67</time>
<name>7270</name>
</trkpt>
<trkpt lat="49.197315" lon="11.834508">
<ele>497.8</ele>
<speed>23.1</speed>
<course>100.5</course>
<desc>Speed 23.1 km/h Distance 31.56 km</desc>
<time>2010-06-13T08:12:57.67</time>
<name>7271</name>
</trkpt>
<trkpt lat="49.197303" lon="11.834605">
<ele>499.0</ele>
<speed>25.0</speed>
<course>94.6</course>
<desc>Speed 25.0 km/h Distance 31.57 km</desc>
<time>2010-06-13T08:12:58.67</time>
<name>7272</name>
</trkpt>
<trkpt lat="49.197298" lon="11.834700">
<ele>498.7</ele>
<speed>24.5</speed>
<course>94.6</course>
<desc>Speed 24.5 km/h Distance 31.58 km</desc>
<time>2010-06-13T08:12:59.67</time>
<name>7273</name>
</trkpt>
<trkpt lat="49.197293" lon="11.834795">
<ele>499.5</ele>
<speed>24.7</speed>
<course>83.4</course>
<desc>Speed 24.7 km/h Distance 31.58 km</desc>
<time>2010-06-13T08:13:00.67</time>
<name>7274</name>
</trkpt>
<trkpt lat="49.197300" lon="11.834883">
<ele>499.5</ele>
<speed>24.2</speed>
<course>68.0</course>
<desc>Speed 24.2 km/h Distance 31.59 km</desc>
<time>2010-06-13T08:13:01.67</time>
<name>7275</name>
</trkpt>
<trkpt lat="49.197323" lon="11.834972">
<ele>498.6</ele>
<speed>22.8</speed>
<course>66.1</course>
<desc>Speed 22.8 km/h Distance 31.60 km</desc>
<time>2010-06-13T08:13:02.67</time>
<name>7276</name>
</trkpt>
<trkpt lat="49.197345" lon="11.835047">
<ele>498.8</ele>
<speed>21.7</speed>
<course>88.5</course>
<desc>Speed 21.7 km/h Distance 31.60 km</desc>
<time>2010-06-13T08:13:03.67</time>
<name>7277</name>
</trkpt>
<trkpt lat="49.197347" lon="11.835142">
<ele>500.8</ele>
<speed>21.9</speed>
<course>63.0</course>
<desc>Speed 21.9 km/h Distance 31.61 km</desc>
<time>2010-06-13T08:13:04.67</time>
<name>7278</name>
</trkpt>
<trkpt lat="49.197375" lon="11.835227">
<ele>500.1</ele>
<speed>22.1</speed>
<course>63.4</course>
<desc>Speed 22.1 km/h Distance 31.62 km</desc>
<time>2010-06-13T08:13:05.67</time>
<name>7279</name>
</trkpt>
<trkpt lat="49.197402" lon="11.835308">
<ele>499.6</ele>
<speed>22.8</speed>
<course>70.3</course>
<desc>Speed 22.8 km/h Distance 31.62 km</desc>
<time>2010-06-13T08:13:06.67</time>
<name>7280</name>
</trkpt>
<trkpt lat="49.197420" lon="11.835387">
<ele>499.8</ele>
<speed>20.9</speed>
<course>72.7</course>
<desc>Speed 20.9 km/h Distance 31.63 km</desc>
<time>2010-06-13T08:13:07.67</time>
<name>7281</name>
</trkpt>
<trkpt lat="49.197437" lon="11.835468">
<ele>499.1</ele>
<speed>21.4</speed>
<course>88.1</course>
<desc>Speed 21.4 km/h Distance 31.64 km</desc>
<time>2010-06-13T08:13:08.67</time>
<name>7282</name>
</trkpt>
<trkpt lat="49.197438" lon="11.835545">
<ele>498.5</ele>
<speed>20.8</speed>
<course>99.7</course>
<desc>Speed 20.8 km/h Distance 31.64 km</desc>
<time>2010-06-13T08:13:09.67</time>
<name>7283</name>
</trkpt>
<trkpt lat="49.197430" lon="11.835620">
<ele>497.8</ele>
<speed>20.9</speed>
<course>119.5</course>
<desc>Speed 20.9 km/h Distance 31.65 km</desc>
<time>2010-06-13T08:13:10.67</time>
<name>7284</name>
</trkpt>
<trkpt lat="49.197363" lon="11.835800">
<ele>499.4</ele>
<speed>24.8</speed>
<course>117.4</course>
<desc>Speed 24.8 km/h Distance 31.66 km</desc>
<time>2010-06-13T08:13:12.67</time>
<name>7285</name>
</trkpt>
<trkpt lat="49.197332" lon="11.835893">
<ele>499.8</ele>
<speed>24.2</speed>
<course>121.7</course>
<desc>Speed 24.2 km/h Distance 31.67 km</desc>
<time>2010-06-13T08:13:13.67</time>
<name>7286</name>
</trkpt>
<trkpt lat="49.197297" lon="11.835980">
<ele>500.8</ele>
<speed>24.9</speed>
<course>121.7</course>
<desc>Speed 24.9 km/h Distance 31.68 km</desc>
<time>2010-06-13T08:13:14.67</time>
<name>7287</name>
</trkpt>
<trkpt lat="49.197262" lon="11.836067">
<ele>501.8</ele>
<speed>25.9</speed>
<course>116.6</course>
<desc>Speed 25.9 km/h Distance 31.68 km</desc>
<time>2010-06-13T08:13:15.67</time>
<name>7288</name>
</trkpt>
<trkpt lat="49.197230" lon="11.836163">
<ele>502.1</ele>
<speed>26.8</speed>
<course>108.1</course>
<desc>Speed 26.8 km/h Distance 31.69 km</desc>
<time>2010-06-13T08:13:16.67</time>
<name>7289</name>
</trkpt>
<trkpt lat="49.197208" lon="11.836265">
<ele>501.3</ele>
<speed>27.8</speed>
<course>106.8</course>
<desc>Speed 27.8 km/h Distance 31.70 km</desc>
<time>2010-06-13T08:13:17.67</time>
<name>7290</name>
</trkpt>
<trkpt lat="49.197187" lon="11.836375">
<ele>501.4</ele>
<speed>28.7</speed>
<course>105.8</course>
<desc>Speed 28.7 km/h Distance 31.71 km</desc>
<time>2010-06-13T08:13:18.67</time>
<name>7291</name>
</trkpt>
<trkpt lat="49.197167" lon="11.836483">
<ele>501.7</ele>
<speed>29.1</speed>
<course>99.0</course>
<desc>Speed 29.1 km/h Distance 31.72 km</desc>
<time>2010-06-13T08:13:19.67</time>
<name>7292</name>
</trkpt>
<trkpt lat="49.197155" lon="11.836597">
<ele>501.4</ele>
<speed>28.9</speed>
<course>91.3</course>
<desc>Speed 28.9 km/h Distance 31.73 km</desc>
<time>2010-06-13T08:13:20.67</time>
<name>7293</name>
</trkpt>
<trkpt lat="49.197153" lon="11.836713">
<ele>500.5</ele>
<speed>29.2</speed>
<course>90.0</course>
<desc>Speed 29.2 km/h Distance 31.73 km</desc>
<time>2010-06-13T08:13:21.67</time>
<name>7294</name>
</trkpt>
<trkpt lat="49.197153" lon="11.836828">
<ele>499.4</ele>
<speed>29.4</speed>
<course>92.7</course>
<desc>Speed 29.4 km/h Distance 31.74 km</desc>
<time>2010-06-13T08:13:22.67</time>
<name>7295</name>
</trkpt>
<trkpt lat="49.197150" lon="11.836938">
<ele>499.3</ele>
<speed>29.2</speed>
<course>90.0</course>
<desc>Speed 29.2 km/h Distance 31.75 km</desc>
<time>2010-06-13T08:13:23.67</time>
<name>7296</name>
</trkpt>
<trkpt lat="49.197150" lon="11.837045">
<ele>498.6</ele>
<speed>26.5</speed>
<course>93.2</course>
<desc>Speed 26.5 km/h Distance 31.76 km</desc>
<time>2010-06-13T08:13:24.67</time>
<name>7297</name>
</trkpt>
<trkpt lat="49.197147" lon="11.837137">
<ele>498.4</ele>
<speed>23.3</speed>
<course>86.4</course>
<desc>Speed 23.3 km/h Distance 31.76 km</desc>
<time>2010-06-13T08:13:25.67</time>
<name>7298</name>
</trkpt>
<trkpt lat="49.197150" lon="11.837218">
<ele>497.6</ele>
<speed>19.9</speed>
<course>85.3</course>
<desc>Speed 19.9 km/h Distance 31.77 km</desc>
<time>2010-06-13T08:13:26.67</time>
<name>7299</name>
</trkpt>
<trkpt lat="49.197153" lon="11.837280">
<ele>497.5</ele>
<speed>15.4</speed>
<course>34.5</course>
<desc>Speed 15.4 km/h Distance 31.78 km</desc>
<time>2010-06-13T08:13:27.67</time>
<name>7300</name>
</trkpt>
<trkpt lat="49.197185" lon="11.837313">
<ele>495.8</ele>
<speed>13.1</speed>
<course>49.6</course>
<desc>Speed 13.1 km/h Distance 31.78 km</desc>
<time>2010-06-13T08:13:28.67</time>
<name>7301</name>
</trkpt>
<trkpt lat="49.197202" lon="11.837343">
<ele>495.6</ele>
<speed>9.8</speed>
<course>10.2</course>
<desc>Speed 9.8 km/h Distance 31.78 km</desc>
<time>2010-06-13T08:13:29.67</time>
<name>7302</name>
</trkpt>
<trkpt lat="49.197232" lon="11.837352">
<ele>495.2</ele>
<speed>8.1</speed>
<course>357.2</course>
<desc>Speed 8.1 km/h Distance 31.79 km</desc>
<time>2010-06-13T08:13:30.67</time>
<name>7303</name>
</trkpt>
<trkpt lat="49.197260" lon="11.837350">
<ele>495.1</ele>
<speed>8.2</speed>
<course>346.2</course>
<desc>Speed 8.2 km/h Distance 31.79 km</desc>
<time>2010-06-13T08:13:31.67</time>
<name>7304</name>
</trkpt>
<trkpt lat="49.197287" lon="11.837340">
<ele>495.2</ele>
<speed>8.7</speed>
<course>332.8</course>
<desc>Speed 8.7 km/h Distance 31.79 km</desc>
<time>2010-06-13T08:13:32.67</time>
<name>7305</name>
</trkpt>
<trkpt lat="49.197310" lon="11.837322">
<ele>495.3</ele>
<speed>9.0</speed>
<course>330.5</course>
<desc>Speed 9.0 km/h Distance 31.79 km</desc>
<time>2010-06-13T08:13:33.67</time>
<name>7306</name>
</trkpt>
<trkpt lat="49.197335" lon="11.837300">
<ele>495.3</ele>
<speed>9.4</speed>
<course>338.5</course>
<desc>Speed 9.4 km/h Distance 31.80 km</desc>
<time>2010-06-13T08:13:34.67</time>
<name>7307</name>
</trkpt>
<trkpt lat="49.197360" lon="11.837285">
<ele>495.1</ele>
<speed>9.0</speed>
<course>337.1</course>
<desc>Speed 9.0 km/h Distance 31.80 km</desc>
<time>2010-06-13T08:13:35.67</time>
<name>7308</name>
</trkpt>
<trkpt lat="49.197383" lon="11.837270">
<ele>495.2</ele>
<speed>9.7</speed>
<course>344.9</course>
<desc>Speed 9.7 km/h Distance 31.80 km</desc>
<time>2010-06-13T08:13:36.67</time>
<name>7309</name>
</trkpt>
<trkpt lat="49.197412" lon="11.837258">
<ele>495.8</ele>
<speed>9.6</speed>
<course>337.4</course>
<desc>Speed 9.6 km/h Distance 31.81 km</desc>
<time>2010-06-13T08:13:37.67</time>
<name>7310</name>
</trkpt>
<trkpt lat="49.197430" lon="11.837247">
<ele>496.8</ele>
<speed>9.1</speed>
<course>323.6</course>
<desc>Speed 9.1 km/h Distance 31.81 km</desc>
<time>2010-06-13T08:13:38.67</time>
<name>7311</name>
</trkpt>
<trkpt lat="49.197443" lon="11.837232">
<ele>496.5</ele>
<speed>7.7</speed>
<course>335.4</course>
<desc>Speed 7.7 km/h Distance 31.81 km</desc>
<time>2010-06-13T08:13:39.67</time>
<name>7312</name>
</trkpt>
<trkpt lat="49.197460" lon="11.837220">
<ele>496.1</ele>
<speed>6.2</speed>
<course>343.4</course>
<desc>Speed 6.2 km/h Distance 31.81 km</desc>
<time>2010-06-13T08:13:40.67</time>
<name>7313</name>
</trkpt>
<trkpt lat="49.197478" lon="11.837212">
<ele>496.9</ele>
<speed>7.9</speed>
<course>346.8</course>
<desc>Speed 7.9 km/h Distance 31.82 km</desc>
<time>2010-06-13T08:13:41.67</time>
<name>7314</name>
</trkpt>
<trkpt lat="49.197502" lon="11.837203">
<ele>497.2</ele>
<speed>9.7</speed>
<course>346.8</course>
<desc>Speed 9.7 km/h Distance 31.82 km</desc>
<time>2010-06-13T08:13:42.67</time>
<name>7315</name>
</trkpt>
<trkpt lat="49.197525" lon="11.837195">
<ele>497.3</ele>
<speed>8.3</speed>
<course>352.1</course>
<desc>Speed 8.3 km/h Distance 31.82 km</desc>
<time>2010-06-13T08:13:43.67</time>
<name>7316</name>
</trkpt>
<trkpt lat="49.197550" lon="11.837190">
<ele>497.7</ele>
<speed>7.4</speed>
<course>357.1</course>
<desc>Speed 7.4 km/h Distance 31.82 km</desc>
<time>2010-06-13T08:13:44.67</time>
<name>7317</name>
</trkpt>
<trkpt lat="49.197577" lon="11.837188">
<ele>497.6</ele>
<speed>6.7</speed>
<course>351.9</course>
<desc>Speed 6.7 km/h Distance 31.83 km</desc>
<time>2010-06-13T08:13:45.67</time>
<name>7318</name>
</trkpt>
<trkpt lat="49.197600" lon="11.837183">
<ele>496.8</ele>
<speed>7.1</speed>
<course>352.3</course>
<desc>Speed 7.1 km/h Distance 31.83 km</desc>
<time>2010-06-13T08:13:46.67</time>
<name>7319</name>
</trkpt>
<trkpt lat="49.197617" lon="11.837180">
<ele>497.8</ele>
<speed>8.4</speed>
<course>348.6</course>
<desc>Speed 8.4 km/h Distance 31.83 km</desc>
<time>2010-06-13T08:13:47.67</time>
<name>7320</name>
</trkpt>
<trkpt lat="49.197638" lon="11.837173">
<ele>498.6</ele>
<speed>8.0</speed>
<course>350.3</course>
<desc>Speed 8.0 km/h Distance 31.83 km</desc>
<time>2010-06-13T08:13:48.67</time>
<name>7321</name>
</trkpt>
<trkpt lat="49.197670" lon="11.837165">
<ele>500.3</ele>
<speed>9.2</speed>
<course>358.2</course>
<desc>Speed 9.2 km/h Distance 31.84 km</desc>
<time>2010-06-13T08:13:49.67</time>
<name>7322</name>
</trkpt>
<trkpt lat="49.197702" lon="11.837163">
<ele>501.0</ele>
<speed>11.5</speed>
<course>357.1</course>
<desc>Speed 11.5 km/h Distance 31.84 km</desc>
<time>2010-06-13T08:13:50.67</time>
<name>7323</name>
</trkpt>
<trkpt lat="49.197743" lon="11.837160">
<ele>502.5</ele>
<speed>12.1</speed>
<course>353.2</course>
<desc>Speed 12.1 km/h Distance 31.85 km</desc>
<time>2010-06-13T08:13:51.67</time>
<name>7324</name>
</trkpt>
<trkpt lat="49.197780" lon="11.837153">
<ele>503.4</ele>
<speed>12.1</speed>
<course>4.2</course>
<desc>Speed 12.1 km/h Distance 31.85 km</desc>
<time>2010-06-13T08:13:52.67</time>
<name>7325</name>
</trkpt>
<trkpt lat="49.197812" lon="11.837157">
<ele>503.2</ele>
<speed>11.1</speed>
<course>16.4</course>
<desc>Speed 11.1 km/h Distance 31.85 km</desc>
<time>2010-06-13T08:13:53.67</time>
<name>7326</name>
</trkpt>
<trkpt lat="49.197845" lon="11.837172">
<ele>505.3</ele>
<speed>10.2</speed>
<course>20.7</course>
<desc>Speed 10.2 km/h Distance 31.86 km</desc>
<time>2010-06-13T08:13:54.67</time>
<name>7327</name>
</trkpt>
<trkpt lat="49.197877" lon="11.837190">
<ele>506.8</ele>
<speed>10.2</speed>
<course>25.8</course>
<desc>Speed 10.2 km/h Distance 31.86 km</desc>
<time>2010-06-13T08:13:55.67</time>
<name>7328</name>
</trkpt>
<trkpt lat="49.197908" lon="11.837213">
<ele>508.4</ele>
<speed>10.2</speed>
<course>35.0</course>
<desc>Speed 10.2 km/h Distance 31.86 km</desc>
<time>2010-06-13T08:13:56.67</time>
<name>7329</name>
</trkpt>
<trkpt lat="49.197932" lon="11.837238">
<ele>508.7</ele>
<speed>10.0</speed>
<course>40.5</course>
<desc>Speed 10.0 km/h Distance 31.87 km</desc>
<time>2010-06-13T08:13:57.67</time>
<name>7330</name>
</trkpt>
<trkpt lat="49.197953" lon="11.837267">
<ele>508.6</ele>
<speed>11.2</speed>
<course>45.9</course>
<desc>Speed 11.2 km/h Distance 31.87 km</desc>
<time>2010-06-13T08:13:58.67</time>
<name>7331</name>
</trkpt>
<trkpt lat="49.197973" lon="11.837298">
<ele>508.4</ele>
<speed>11.1</speed>
<course>47.4</course>
<desc>Speed 11.1 km/h Distance 31.87 km</desc>
<time>2010-06-13T08:13:59.67</time>
<name>7332</name>
</trkpt>
<trkpt lat="49.197993" lon="11.837332">
<ele>508.7</ele>
<speed>11.2</speed>
<course>45.8</course>
<desc>Speed 11.2 km/h Distance 31.88 km</desc>
<time>2010-06-13T08:14:00.67</time>
<name>7333</name>
</trkpt>
<trkpt lat="49.198017" lon="11.837368">
<ele>509.2</ele>
<speed>11.2</speed>
<course>52.6</course>
<desc>Speed 11.2 km/h Distance 31.88 km</desc>
<time>2010-06-13T08:14:01.67</time>
<name>7334</name>
</trkpt>
<trkpt lat="49.198037" lon="11.837408">
<ele>510.1</ele>
<speed>12.0</speed>
<course>45.8</course>
<desc>Speed 12.0 km/h Distance 31.88 km</desc>
<time>2010-06-13T08:14:02.67</time>
<name>7335</name>
</trkpt>
<trkpt lat="49.198060" lon="11.837445">
<ele>510.2</ele>
<speed>11.5</speed>
<course>42.8</course>
<desc>Speed 11.5 km/h Distance 31.89 km</desc>
<time>2010-06-13T08:14:03.67</time>
<name>7336</name>
</trkpt>
<trkpt lat="49.198080" lon="11.837473">
<ele>509.9</ele>
<speed>11.7</speed>
<course>46.6</course>
<desc>Speed 11.7 km/h Distance 31.89 km</desc>
<time>2010-06-13T08:14:04.67</time>
<name>7337</name>
</trkpt>
<trkpt lat="49.198102" lon="11.837508">
<ele>510.3</ele>
<speed>10.6</speed>
<course>59.1</course>
<desc>Speed 10.6 km/h Distance 31.89 km</desc>
<time>2010-06-13T08:14:05.67</time>
<name>7338</name>
</trkpt>
<trkpt lat="49.198117" lon="11.837547">
<ele>509.4</ele>
<speed>10.4</speed>
<course>53.9</course>
<desc>Speed 10.4 km/h Distance 31.90 km</desc>
<time>2010-06-13T08:14:06.67</time>
<name>7339</name>
</trkpt>
<trkpt lat="49.198133" lon="11.837582">
<ele>509.1</ele>
<speed>11.7</speed>
<course>43.7</course>
<desc>Speed 11.7 km/h Distance 31.90 km</desc>
<time>2010-06-13T08:14:07.67</time>
<name>7340</name>
</trkpt>
<trkpt lat="49.198155" lon="11.837613">
<ele>508.6</ele>
<speed>12.4</speed>
<course>30.1</course>
<desc>Speed 12.4 km/h Distance 31.90 km</desc>
<time>2010-06-13T08:14:08.67</time>
<name>7341</name>
</trkpt>
<trkpt lat="49.198185" lon="11.837640">
<ele>508.1</ele>
<speed>13.5</speed>
<course>18.8</course>
<desc>Speed 13.5 km/h Distance 31.91 km</desc>
<time>2010-06-13T08:14:09.67</time>
<name>7342</name>
</trkpt>
<trkpt lat="49.198220" lon="11.837658">
<ele>507.8</ele>
<speed>13.5</speed>
<course>16.6</course>
<desc>Speed 13.5 km/h Distance 31.91 km</desc>
<time>2010-06-13T08:14:10.67</time>
<name>7343</name>
</trkpt>
<trkpt lat="49.198260" lon="11.837677">
<ele>508.2</ele>
<speed>13.5</speed>
<course>15.9</course>
<desc>Speed 13.5 km/h Distance 31.92 km</desc>
<time>2010-06-13T08:14:11.67</time>
<name>7344</name>
</trkpt>
<trkpt lat="49.198298" lon="11.837693">
<ele>508.8</ele>
<speed>14.2</speed>
<course>19.0</course>
<desc>Speed 14.2 km/h Distance 31.92 km</desc>
<time>2010-06-13T08:14:12.67</time>
<name>7345</name>
</trkpt>
<trkpt lat="49.198330" lon="11.837710">
<ele>508.6</ele>
<speed>13.0</speed>
<course>19.0</course>
<desc>Speed 13.0 km/h Distance 31.93 km</desc>
<time>2010-06-13T08:14:13.67</time>
<name>7346</name>
</trkpt>
<trkpt lat="49.198362" lon="11.837727">
<ele>507.1</ele>
<speed>11.1</speed>
<course>55.5</course>
<desc>Speed 11.1 km/h Distance 31.93 km</desc>
<time>2010-06-13T08:14:14.67</time>
<name>7347</name>
</trkpt>
<trkpt lat="49.198377" lon="11.837760">
<ele>506.9</ele>
<speed>10.6</speed>
<course>65.9</course>
<desc>Speed 10.6 km/h Distance 31.93 km</desc>
<time>2010-06-13T08:14:15.67</time>
<name>7348</name>
</trkpt>
<trkpt lat="49.198388" lon="11.837800">
<ele>506.3</ele>
<speed>10.4</speed>
<course>86.2</course>
<desc>Speed 10.4 km/h Distance 31.94 km</desc>
<time>2010-06-13T08:14:16.67</time>
<name>7349</name>
</trkpt>
<trkpt lat="49.198390" lon="11.837838">
<ele>505.8</ele>
<speed>11.2</speed>
<course>83.5</course>
<desc>Speed 11.2 km/h Distance 31.94 km</desc>
<time>2010-06-13T08:14:17.67</time>
<name>7350</name>
</trkpt>
<trkpt lat="49.198393" lon="11.837883">
<ele>505.1</ele>
<speed>11.8</speed>
<course>96.2</course>
<desc>Speed 11.8 km/h Distance 31.94 km</desc>
<time>2010-06-13T08:14:18.67</time>
<name>7351</name>
</trkpt>
<trkpt lat="49.198390" lon="11.837930">
<ele>505.4</ele>
<speed>12.5</speed>
<course>84.2</course>
<desc>Speed 12.5 km/h Distance 31.94 km</desc>
<time>2010-06-13T08:14:19.67</time>
<name>7352</name>
</trkpt>
<trkpt lat="49.198393" lon="11.837980">
<ele>505.0</ele>
<speed>13.2</speed>
<course>84.2</course>
<desc>Speed 13.2 km/h Distance 31.95 km</desc>
<time>2010-06-13T08:14:20.67</time>
<name>7353</name>
</trkpt>
<trkpt lat="49.198397" lon="11.838030">
<ele>504.9</ele>
<speed>12.7</speed>
<course>87.2</course>
<desc>Speed 12.7 km/h Distance 31.95 km</desc>
<time>2010-06-13T08:14:21.67</time>
<name>7354</name>
</trkpt>
<trkpt lat="49.198398" lon="11.838082">
<ele>504.6</ele>
<speed>12.7</speed>
<course>87.1</course>
<desc>Speed 12.7 km/h Distance 31.96 km</desc>
<time>2010-06-13T08:14:22.67</time>
<name>7355</name>
</trkpt>
<trkpt lat="49.198400" lon="11.838132">
<ele>504.2</ele>
<speed>12.7</speed>
<course>90.0</course>
<desc>Speed 12.7 km/h Distance 31.96 km</desc>
<time>2010-06-13T08:14:23.67</time>
<name>7356</name>
</trkpt>
<trkpt lat="49.198400" lon="11.838182">
<ele>504.1</ele>
<speed>12.7</speed>
<course>92.9</course>
<desc>Speed 12.7 km/h Distance 31.96 km</desc>
<time>2010-06-13T08:14:24.67</time>
<name>7357</name>
</trkpt>
<trkpt lat="49.198398" lon="11.838232">
<ele>504.0</ele>
<speed>12.0</speed>
<course>93.2</course>
<desc>Speed 12.0 km/h Distance 31.97 km</desc>
<time>2010-06-13T08:14:25.67</time>
<name>7358</name>
</trkpt>
<trkpt lat="49.198397" lon="11.838277">
<ele>503.6</ele>
<speed>11.1</speed>
<course>103.8</course>
<desc>Speed 11.1 km/h Distance 31.97 km</desc>
<time>2010-06-13T08:14:26.67</time>
<name>7359</name>
</trkpt>
<trkpt lat="49.198390" lon="11.838318">
<ele>503.7</ele>
<speed>9.8</speed>
<course>110.0</course>
<desc>Speed 9.8 km/h Distance 31.97 km</desc>
<time>2010-06-13T08:14:27.67</time>
<name>7360</name>
</trkpt>
<trkpt lat="49.198382" lon="11.838353">
<ele>503.8</ele>
<speed>8.8</speed>
<course>111.9</course>
<desc>Speed 8.8 km/h Distance 31.98 km</desc>
<time>2010-06-13T08:14:28.67</time>
<name>7361</name>
</trkpt>
<trkpt lat="49.198373" lon="11.838385">
<ele>504.0</ele>
<speed>8.3</speed>
<course>105.1</course>
<desc>Speed 8.3 km/h Distance 31.98 km</desc>
<time>2010-06-13T08:14:29.67</time>
<name>7362</name>
</trkpt>
<trkpt lat="49.198368" lon="11.838413">
<ele>504.1</ele>
<speed>6.9</speed>
<course>96.2</course>
<desc>Speed 6.9 km/h Distance 31.98 km</desc>
<time>2010-06-13T08:14:30.67</time>
<name>7363</name>
</trkpt>
<trkpt lat="49.198367" lon="11.838437">
<ele>504.1</ele>
<speed>5.8</speed>
<course>97.3</course>
<desc>Speed 5.8 km/h Distance 31.98 km</desc>
<time>2010-06-13T08:14:31.67</time>
<name>7364</name>
</trkpt>
<trkpt lat="49.198365" lon="11.838457">
<ele>504.2</ele>
<speed>4.2</speed>
<course>139.1</course>
<desc>Speed 4.2 km/h Distance 31.98 km</desc>
<time>2010-06-13T08:14:32.67</time>
<name>7365</name>
</trkpt>
<trkpt lat="49.198360" lon="11.838463">
<ele>504.1</ele>
<speed>2.5</speed>
<course>165.1</course>
<desc>Speed 2.5 km/h Distance 31.98 km</desc>
<time>2010-06-13T08:14:33.67</time>
<name>7366</name>
</trkpt>
<trkpt lat="49.198348" lon="11.838468">
<ele>504.1</ele>
<speed>2.9</speed>
<course>140.6</course>
<desc>Speed 2.9 km/h Distance 31.99 km</desc>
<time>2010-06-13T08:14:35.67</time>
<name>7367</name>
</trkpt>
<trkpt lat="49.198342" lon="11.838477">
<ele>504.1</ele>
<speed>3.1</speed>
<course>243.0</course>
<desc>Speed 3.1 km/h Distance 31.99 km</desc>
<time>2010-06-13T08:14:36.67</time>
<name>7368</name>
</trkpt>
<trkpt lat="49.198335" lon="11.838457">
<ele>504.1</ele>
<speed>3.4</speed>
<course>172.6</course>
<desc>Speed 3.4 km/h Distance 31.99 km</desc>
<time>2010-06-13T08:14:37.67</time>
<name>7369</name>
</trkpt>
<trkpt lat="49.198328" lon="11.838458">
<ele>504.1</ele>
<speed>2.4</speed>
<course>119.9</course>
<desc>Speed 2.4 km/h Distance 31.99 km</desc>
<time>2010-06-13T08:14:38.67</time>
<name>7370</name>
</trkpt>
<trkpt lat="49.198323" lon="11.838472">
<ele>504.1</ele>
<speed>2.5</speed>
<course>135.7</course>
<desc>Speed 2.5 km/h Distance 31.99 km</desc>
<time>2010-06-13T08:14:39.67</time>
<name>7371</name>
</trkpt>
<trkpt lat="49.198317" lon="11.838482">
<ele>504.1</ele>
<speed>2.7</speed>
<course>153.6</course>
<desc>Speed 2.7 km/h Distance 31.99 km</desc>
<time>2010-06-13T08:14:40.67</time>
<name>7372</name>
</trkpt>
<trkpt lat="49.198310" lon="11.838487">
<ele>504.1</ele>
<speed>2.4</speed>
<course>198.2</course>
<desc>Speed 2.4 km/h Distance 31.99 km</desc>
<time>2010-06-13T08:14:41.67</time>
<name>7373</name>
</trkpt>
<trkpt lat="49.198300" lon="11.838482">
<ele>504.1</ele>
<speed>2.8</speed>
<course>161.4</course>
<desc>Speed 2.8 km/h Distance 31.99 km</desc>
<time>2010-06-13T08:14:42.94</time>
<name>7374</name>
</trkpt>
<trkpt lat="49.198190" lon="11.838538">
<ele>504.1</ele>
<speed>6.7</speed>
<course>2.5</course>
<desc>Speed 6.7 km/h Distance 32.01 km</desc>
<time>2010-06-13T08:14:45.41</time>
<name>7375</name>
</trkpt>
<trkpt lat="49.198215" lon="11.838540">
<ele>504.8</ele>
<speed>4.0</speed>
<course>354.2</course>
<desc>Speed 4.0 km/h Distance 32.01 km</desc>
<time>2010-06-13T08:14:46.42</time>
<name>7376</name>
</trkpt>
<trkpt lat="49.198247" lon="11.838535">
<ele>503.9</ele>
<speed>1.6</speed>
<course>225.7</course>
<desc>Speed 1.6 km/h Distance 32.01 km</desc>
<time>2010-06-13T08:14:48.43</time>
<name>7377</name>
</trkpt>
<trkpt lat="49.187020" lon="11.820960">
<ele>566.2</ele>
<speed>1.0</speed>
<course>199.8</course>
<desc>Speed 1.0 km/h Distance 32.01 km</desc>
<time>2010-06-13T08:39:19.96</time>
<name>7378</name>
</trkpt>
<trkpt lat="49.186953" lon="11.820923">
<ele>564.6</ele>
<speed>1.9</speed>
<course>194.3</course>
<desc>Speed 1.9 km/h Distance 32.02 km</desc>
<time>2010-06-13T08:39:22.00</time>
<name>7379</name>
</trkpt>
<trkpt lat="49.186773" lon="11.820853">
<ele>582.8</ele>
<speed>0.8</speed>
<course>209.6</course>
<desc>Speed 0.8 km/h Distance 32.04 km</desc>
<time>2010-06-13T08:39:25.18</time>
<name>7380</name>
</trkpt>
<trkpt lat="49.186722" lon="11.820808">
<ele>588.4</ele>
<speed>1.4</speed>
<course>301.4</course>
<desc>Speed 1.4 km/h Distance 32.05 km</desc>
<time>2010-06-13T08:39:27.00</time>
<name>7381</name>
</trkpt>
<trkpt lat="49.186725" lon="11.820800">
<ele>588.4</ele>
<speed>1.2</speed>
<course>192.3</course>
<desc>Speed 1.2 km/h Distance 32.05 km</desc>
<time>2010-06-13T08:39:28.00</time>
<name>7382</name>
</trkpt>
<trkpt lat="49.186695" lon="11.820790">
<ele>588.7</ele>
<speed>2.7</speed>
<course>209.0</course>
<desc>Speed 2.7 km/h Distance 32.05 km</desc>
<time>2010-06-13T08:39:30.00</time>
<name>7383</name>
</trkpt>
<trkpt lat="49.186585" lon="11.820697">
<ele>590.3</ele>
<speed>4.9</speed>
<course>230.8</course>
<desc>Speed 4.9 km/h Distance 32.07 km</desc>
<time>2010-06-13T08:39:33.14</time>
<name>7384</name>
</trkpt>
<trkpt lat="49.186572" lon="11.820672">
<ele>590.3</ele>
<speed>5.5</speed>
<course>217.1</course>
<desc>Speed 5.5 km/h Distance 32.07 km</desc>
<time>2010-06-13T08:39:34.00</time>
<name>7385</name>
</trkpt>
<trkpt lat="49.186320" lon="11.820380">
<ele>579.9</ele>
<speed>12.7</speed>
<course>318.9</course>
<desc>Speed 12.7 km/h Distance 32.10 km</desc>
<time>2010-06-13T08:39:38.00</time>
<name>7386</name>
</trkpt>
<trkpt lat="49.186340" lon="11.820353">
<ele>578.8</ele>
<speed>9.9</speed>
<course>293.6</course>
<desc>Speed 9.9 km/h Distance 32.11 km</desc>
<time>2010-06-13T08:39:39.00</time>
<name>7387</name>
</trkpt>
<trkpt lat="49.186357" lon="11.820295">
<ele>574.0</ele>
<speed>9.2</speed>
<course>231.5</course>
<desc>Speed 9.2 km/h Distance 32.11 km</desc>
<time>2010-06-13T08:39:40.00</time>
<name>7388</name>
</trkpt>
<trkpt lat="49.186335" lon="11.820253">
<ele>572.9</ele>
<speed>9.3</speed>
<course>332.8</course>
<desc>Speed 9.3 km/h Distance 32.11 km</desc>
<time>2010-06-13T08:39:41.12</time>
<name>7389</name>
</trkpt>
<trkpt lat="49.186358" lon="11.820235">
<ele>572.9</ele>
<speed>8.5</speed>
<course>286.4</course>
<desc>Speed 8.5 km/h Distance 32.12 km</desc>
<time>2010-06-13T08:39:42.00</time>
<name>7390</name>
</trkpt>
<trkpt lat="49.186367" lon="11.820192">
<ele>571.1</ele>
<speed>8.8</speed>
<course>290.2</course>
<desc>Speed 8.8 km/h Distance 32.12 km</desc>
<time>2010-06-13T08:39:43.00</time>
<name>7391</name>
</trkpt>
<trkpt lat="49.186377" lon="11.820150">
<ele>569.1</ele>
<speed>7.7</speed>
<course>263.0</course>
<desc>Speed 7.7 km/h Distance 32.12 km</desc>
<time>2010-06-13T08:39:44.00</time>
<name>7392</name>
</trkpt>
<trkpt lat="49.186373" lon="11.820108">
<ele>569.1</ele>
<speed>8.2</speed>
<course>335.6</course>
<desc>Speed 8.2 km/h Distance 32.13 km</desc>
<time>2010-06-13T08:39:45.12</time>
<name>7393</name>
</trkpt>
<trkpt lat="49.186395" lon="11.820093">
<ele>569.1</ele>
<speed>5.7</speed>
<course>314.5</course>
<desc>Speed 5.7 km/h Distance 32.13 km</desc>
<time>2010-06-13T08:39:46.00</time>
<name>7394</name>
</trkpt>
<trkpt lat="49.186410" lon="11.820070">
<ele>569.1</ele>
<speed>3.7</speed>
<course>243.0</course>
<desc>Speed 3.7 km/h Distance 32.13 km</desc>
<time>2010-06-13T08:39:47.00</time>
<name>7395</name>
</trkpt>
<trkpt lat="49.186402" lon="11.820045">
<ele>569.1</ele>
<speed>3.3</speed>
<course>331.9</course>
<desc>Speed 3.3 km/h Distance 32.13 km</desc>
<time>2010-06-13T08:39:48.00</time>
<name>7396</name>
</trkpt>
<trkpt lat="49.186465" lon="11.819993">
<ele>557.0</ele>
<speed>6.2</speed>
<course>336.4</course>
<desc>Speed 6.2 km/h Distance 32.14 km</desc>
<time>2010-06-13T08:39:50.00</time>
<name>7397</name>
</trkpt>
<trkpt lat="49.186495" lon="11.819973">
<ele>554.9</ele>
<speed>6.1</speed>
<course>352.0</course>
<desc>Speed 6.1 km/h Distance 32.15 km</desc>
<time>2010-06-13T08:39:51.00</time>
<name>7398</name>
</trkpt>
<trkpt lat="49.186565" lon="11.819958">
<ele>552.1</ele>
<speed>7.9</speed>
<course>358.2</course>
<desc>Speed 7.9 km/h Distance 32.15 km</desc>
<time>2010-06-13T08:39:53.00</time>
<name>7399</name>
</trkpt>
<trkpt lat="49.186665" lon="11.819953">
<ele>548.7</ele>
<speed>13.2</speed>
<course>4.8</course>
<desc>Speed 13.2 km/h Distance 32.16 km</desc>
<time>2010-06-13T08:39:55.00</time>
<name>7400</name>
</trkpt>
<trkpt lat="49.186885" lon="11.819982">
<ele>542.0</ele>
<speed>16.0</speed>
<course>359.3</course>
<desc>Speed 16.0 km/h Distance 32.19 km</desc>
<time>2010-06-13T08:39:58.00</time>
<name>7401</name>
</trkpt>
<trkpt lat="49.187140" lon="11.819977">
<ele>554.4</ele>
<speed>18.0</speed>
<course>353.4</course>
<desc>Speed 18.0 km/h Distance 32.22 km</desc>
<time>2010-06-13T08:40:01.00</time>
<name>7402</name>
</trkpt>
<trkpt lat="49.187422" lon="11.819927">
<ele>562.2</ele>
<speed>25.8</speed>
<course>351.2</course>
<desc>Speed 25.8 km/h Distance 32.25 km</desc>
<time>2010-06-13T08:40:04.00</time>
<name>7403</name>
</trkpt>
<trkpt lat="49.187492" lon="11.819910">
<ele>564.0</ele>
<speed>26.0</speed>
<course>7.8</course>
<desc>Speed 26.0 km/h Distance 32.26 km</desc>
<time>2010-06-13T08:40:05.00</time>
<name>7404</name>
</trkpt>
<trkpt lat="49.187652" lon="11.819943">
<ele>566.8</ele>
<speed>25.7</speed>
<course>8.1</course>
<desc>Speed 25.7 km/h Distance 32.28 km</desc>
<time>2010-06-13T08:40:07.00</time>
<name>7405</name>
</trkpt>
<trkpt lat="49.187705" lon="11.819955">
<ele>569.1</ele>
<speed>21.9</speed>
<course>354.8</course>
<desc>Speed 21.9 km/h Distance 32.28 km</desc>
<time>2010-06-13T08:40:08.00</time>
<name>7406</name>
</trkpt>
<trkpt lat="49.187777" lon="11.819945">
<ele>569.7</ele>
<speed>19.5</speed>
<course>10.3</course>
<desc>Speed 19.5 km/h Distance 32.29 km</desc>
<time>2010-06-13T08:40:09.00</time>
<name>7407</name>
</trkpt>
<trkpt lat="49.187837" lon="11.819962">
<ele>569.6</ele>
<speed>16.6</speed>
<course>32.1</course>
<desc>Speed 16.6 km/h Distance 32.30 km</desc>
<time>2010-06-13T08:40:10.00</time>
<name>7408</name>
</trkpt>
<trkpt lat="49.187877" lon="11.820000">
<ele>570.7</ele>
<speed>15.6</speed>
<course>33.6</course>
<desc>Speed 15.6 km/h Distance 32.30 km</desc>
<time>2010-06-13T08:40:11.00</time>
<name>7409</name>
</trkpt>
<trkpt lat="49.187973" lon="11.820098">
<ele>569.8</ele>
<speed>13.0</speed>
<course>62.7</course>
<desc>Speed 13.0 km/h Distance 32.31 km</desc>
<time>2010-06-13T08:40:13.00</time>
<name>7410</name>
</trkpt>
<trkpt lat="49.188015" lon="11.820222">
<ele>567.9</ele>
<speed>14.0</speed>
<course>81.3</course>
<desc>Speed 14.0 km/h Distance 32.32 km</desc>
<time>2010-06-13T08:40:15.00</time>
<name>7411</name>
</trkpt>
<trkpt lat="49.188020" lon="11.820272">
<ele>568.3</ele>
<speed>12.5</speed>
<course>72.5</course>
<desc>Speed 12.5 km/h Distance 32.33 km</desc>
<time>2010-06-13T08:40:16.00</time>
<name>7412</name>
</trkpt>
<trkpt lat="49.188032" lon="11.820328">
<ele>567.9</ele>
<speed>14.4</speed>
<course>74.8</course>
<desc>Speed 14.4 km/h Distance 32.33 km</desc>
<time>2010-06-13T08:40:17.00</time>
<name>7413</name>
</trkpt>
<trkpt lat="49.188045" lon="11.820403">
<ele>566.1</ele>
<speed>16.5</speed>
<course>79.5</course>
<desc>Speed 16.5 km/h Distance 32.34 km</desc>
<time>2010-06-13T08:40:18.00</time>
<name>7414</name>
</trkpt>
<trkpt lat="49.188067" lon="11.820582">
<ele>565.3</ele>
<speed>17.0</speed>
<course>100.9</course>
<desc>Speed 17.0 km/h Distance 32.35 km</desc>
<time>2010-06-13T08:40:20.00</time>
<name>7415</name>
</trkpt>
<trkpt lat="49.188040" lon="11.820793">
<ele>571.0</ele>
<speed>16.7</speed>
<course>110.9</course>
<desc>Speed 16.7 km/h Distance 32.37 km</desc>
<time>2010-06-13T08:40:22.00</time>
<name>7416</name>
</trkpt>
<trkpt lat="49.187987" lon="11.821007">
<ele>577.4</ele>
<speed>17.8</speed>
<course>109.3</course>
<desc>Speed 17.8 km/h Distance 32.38 km</desc>
<time>2010-06-13T08:40:24.00</time>
<name>7417</name>
</trkpt>
<trkpt lat="49.187968" lon="11.821087">
<ele>580.3</ele>
<speed>16.0</speed>
<course>123.7</course>
<desc>Speed 16.0 km/h Distance 32.39 km</desc>
<time>2010-06-13T08:40:25.00</time>
<name>7418</name>
</trkpt>
<trkpt lat="49.187900" lon="11.821243">
<ele>584.0</ele>
<speed>19.2</speed>
<course>145.5</course>
<desc>Speed 19.2 km/h Distance 32.40 km</desc>
<time>2010-06-13T08:40:27.00</time>
<name>7419</name>
</trkpt>
<trkpt lat="49.187868" lon="11.821277">
<ele>582.6</ele>
<speed>16.8</speed>
<course>120.2</course>
<desc>Speed 16.8 km/h Distance 32.41 km</desc>
<time>2010-06-13T08:40:28.00</time>
<name>7420</name>
</trkpt>
<trkpt lat="49.187855" lon="11.821312">
<ele>582.0</ele>
<speed>14.3</speed>
<course>100.8</course>
<desc>Speed 14.3 km/h Distance 32.41 km</desc>
<time>2010-06-13T08:40:29.00</time>
<name>7421</name>
</trkpt>
<trkpt lat="49.187852" lon="11.821338">
<ele>581.5</ele>
<speed>10.4</speed>
<course>129.0</course>
<desc>Speed 10.4 km/h Distance 32.41 km</desc>
<time>2010-06-13T08:40:30.00</time>
<name>7422</name>
</trkpt>
<trkpt lat="49.187837" lon="11.821367">
<ele>581.3</ele>
<speed>10.6</speed>
<course>35.5</course>
<desc>Speed 10.6 km/h Distance 32.42 km</desc>
<time>2010-06-13T08:40:31.00</time>
<name>7423</name>
</trkpt>
<trkpt lat="49.187855" lon="11.821387">
<ele>578.8</ele>
<speed>10.2</speed>
<course>73.0</course>
<desc>Speed 10.2 km/h Distance 32.42 km</desc>
<time>2010-06-13T08:40:32.00</time>
<name>7424</name>
</trkpt>
<trkpt lat="49.187862" lon="11.821420">
<ele>577.5</ele>
<speed>10.8</speed>
<course>148.1</course>
<desc>Speed 10.8 km/h Distance 32.42 km</desc>
<time>2010-06-13T08:40:33.00</time>
<name>7425</name>
</trkpt>
<trkpt lat="49.187827" lon="11.821453">
<ele>575.5</ele>
<speed>13.3</speed>
<course>120.5</course>
<desc>Speed 13.3 km/h Distance 32.42 km</desc>
<time>2010-06-13T08:40:34.00</time>
<name>7426</name>
</trkpt>
<trkpt lat="49.187802" lon="11.821518">
<ele>574.3</ele>
<speed>17.3</speed>
<course>108.0</course>
<desc>Speed 17.3 km/h Distance 32.43 km</desc>
<time>2010-06-13T08:40:35.00</time>
<name>7427</name>
</trkpt>
<trkpt lat="49.187790" lon="11.821573">
<ele>573.1</ele>
<speed>15.8</speed>
<course>74.2</course>
<desc>Speed 15.8 km/h Distance 32.43 km</desc>
<time>2010-06-13T08:40:36.00</time>
<name>7428</name>
</trkpt>
<trkpt lat="49.187798" lon="11.821618">
<ele>571.5</ele>
<speed>13.7</speed>
<course>74.9</course>
<desc>Speed 13.7 km/h Distance 32.44 km</desc>
<time>2010-06-13T08:40:37.00</time>
<name>7429</name>
</trkpt>
<trkpt lat="49.187808" lon="11.821675">
<ele>570.1</ele>
<speed>14.0</speed>
<course>100.1</course>
<desc>Speed 14.0 km/h Distance 32.44 km</desc>
<time>2010-06-13T08:40:38.00</time>
<name>7430</name>
</trkpt>
<trkpt lat="49.187800" lon="11.821747">
<ele>569.0</ele>
<speed>15.4</speed>
<course>113.3</course>
<desc>Speed 15.4 km/h Distance 32.45 km</desc>
<time>2010-06-13T08:40:39.00</time>
<name>7431</name>
</trkpt>
<trkpt lat="49.187782" lon="11.821812">
<ele>570.7</ele>
<speed>15.9</speed>
<course>51.8</course>
<desc>Speed 15.9 km/h Distance 32.45 km</desc>
<time>2010-06-13T08:40:40.00</time>
<name>7432</name>
</trkpt>
<trkpt lat="49.187813" lon="11.821873">
<ele>567.1</ele>
<speed>18.6</speed>
<course>60.7</course>
<desc>Speed 18.6 km/h Distance 32.46 km</desc>
<time>2010-06-13T08:40:41.00</time>
<name>7433</name>
</trkpt>
<trkpt lat="49.187882" lon="11.822060">
<ele>561.0</ele>
<speed>22.1</speed>
<course>53.8</course>
<desc>Speed 22.1 km/h Distance 32.47 km</desc>
<time>2010-06-13T08:40:43.00</time>
<name>7434</name>
</trkpt>
<trkpt lat="49.187920" lon="11.822140">
<ele>556.2</ele>
<speed>20.7</speed>
<course>73.6</course>
<desc>Speed 20.7 km/h Distance 32.48 km</desc>
<time>2010-06-13T08:40:44.00</time>
<name>7435</name>
</trkpt>
<trkpt lat="49.187937" lon="11.822227">
<ele>556.9</ele>
<speed>18.9</speed>
<course>82.3</course>
<desc>Speed 18.9 km/h Distance 32.49 km</desc>
<time>2010-06-13T08:40:45.00</time>
<name>7436</name>
</trkpt>
<trkpt lat="49.187943" lon="11.822302">
<ele>558.2</ele>
<speed>18.8</speed>
<course>80.6</course>
<desc>Speed 18.8 km/h Distance 32.49 km</desc>
<time>2010-06-13T08:40:46.00</time>
<name>7437</name>
</trkpt>
<trkpt lat="49.187950" lon="11.822363">
<ele>561.3</ele>
<speed>17.1</speed>
<course>78.5</course>
<desc>Speed 17.1 km/h Distance 32.50 km</desc>
<time>2010-06-13T08:40:47.00</time>
<name>7438</name>
</trkpt>
<trkpt lat="49.187960" lon="11.822438">
<ele>563.5</ele>
<speed>16.0</speed>
<course>90.0</course>
<desc>Speed 16.0 km/h Distance 32.50 km</desc>
<time>2010-06-13T08:40:48.00</time>
<name>7439</name>
</trkpt>
<trkpt lat="49.187960" lon="11.822517">
<ele>565.9</ele>
<speed>17.2</speed>
<course>103.0</course>
<desc>Speed 17.2 km/h Distance 32.51 km</desc>
<time>2010-06-13T08:40:49.00</time>
<name>7440</name>
</trkpt>
<trkpt lat="49.187947" lon="11.822605">
<ele>567.3</ele>
<speed>16.8</speed>
<course>99.6</course>
<desc>Speed 16.8 km/h Distance 32.52 km</desc>
<time>2010-06-13T08:40:50.00</time>
<name>7441</name>
</trkpt>
<trkpt lat="49.187938" lon="11.822680">
<ele>565.3</ele>
<speed>15.5</speed>
<course>90.0</course>
<desc>Speed 15.5 km/h Distance 32.52 km</desc>
<time>2010-06-13T08:40:51.00</time>
<name>7442</name>
</trkpt>
<trkpt lat="49.187938" lon="11.822758">
<ele>562.2</ele>
<speed>15.2</speed>
<course>85.0</course>
<desc>Speed 15.2 km/h Distance 32.53 km</desc>
<time>2010-06-13T08:40:52.00</time>
<name>7443</name>
</trkpt>
<trkpt lat="49.187950" lon="11.822962">
<ele>555.6</ele>
<speed>18.4</speed>
<course>85.4</course>
<desc>Speed 18.4 km/h Distance 32.54 km</desc>
<time>2010-06-13T08:40:54.00</time>
<name>7444</name>
</trkpt>
<trkpt lat="49.187960" lon="11.823150">
<ele>547.7</ele>
<speed>17.0</speed>
<course>106.9</course>
<desc>Speed 17.0 km/h Distance 32.56 km</desc>
<time>2010-06-13T08:40:56.00</time>
<name>7445</name>
</trkpt>
<trkpt lat="49.187925" lon="11.823327">
<ele>541.6</ele>
<speed>15.2</speed>
<course>109.3</course>
<desc>Speed 15.2 km/h Distance 32.57 km</desc>
<time>2010-06-13T08:40:58.00</time>
<name>7446</name>
</trkpt>
<trkpt lat="49.187907" lon="11.823407">
<ele>541.4</ele>
<speed>14.5</speed>
<course>104.8</course>
<desc>Speed 14.5 km/h Distance 32.58 km</desc>
<time>2010-06-13T08:40:59.00</time>
<name>7447</name>
</trkpt>
<trkpt lat="49.187898" lon="11.823455">
<ele>541.0</ele>
<speed>10.8</speed>
<course>92.2</course>
<desc>Speed 10.8 km/h Distance 32.58 km</desc>
<time>2010-06-13T08:41:00.00</time>
<name>7448</name>
</trkpt>
<trkpt lat="49.187897" lon="11.823520">
<ele>541.0</ele>
<speed>10.2</speed>
<course>101.4</course>
<desc>Speed 10.2 km/h Distance 32.58 km</desc>
<time>2010-06-13T08:41:01.00</time>
<name>7449</name>
</trkpt>
<trkpt lat="49.187888" lon="11.823583">
<ele>542.5</ele>
<speed>9.4</speed>
<course>131.1</course>
<desc>Speed 9.4 km/h Distance 32.59 km</desc>
<time>2010-06-13T08:41:02.00</time>
<name>7450</name>
</trkpt>
<trkpt lat="49.187868" lon="11.823618">
<ele>545.2</ele>
<speed>8.0</speed>
<course>110.9</course>
<desc>Speed 8.0 km/h Distance 32.59 km</desc>
<time>2010-06-13T08:41:03.00</time>
<name>7451</name>
</trkpt>
<trkpt lat="49.187858" lon="11.823658">
<ele>545.4</ele>
<speed>9.8</speed>
<course>110.4</course>
<desc>Speed 9.8 km/h Distance 32.59 km</desc>
<time>2010-06-13T08:41:04.00</time>
<name>7452</name>
</trkpt>
<trkpt lat="49.187828" lon="11.823782">
<ele>551.1</ele>
<speed>12.1</speed>
<course>102.3</course>
<desc>Speed 12.1 km/h Distance 32.60 km</desc>
<time>2010-06-13T08:41:06.00</time>
<name>7453</name>
</trkpt>
<trkpt lat="49.187818" lon="11.823852">
<ele>554.1</ele>
<speed>11.9</speed>
<course>107.0</course>
<desc>Speed 11.9 km/h Distance 32.61 km</desc>
<time>2010-06-13T08:41:07.00</time>
<name>7454</name>
</trkpt>
<trkpt lat="49.187807" lon="11.823910">
<ele>555.4</ele>
<speed>12.6</speed>
<course>98.1</course>
<desc>Speed 12.6 km/h Distance 32.61 km</desc>
<time>2010-06-13T08:41:08.00</time>
<name>7455</name>
</trkpt>
<trkpt lat="49.187792" lon="11.824072">
<ele>560.1</ele>
<speed>17.4</speed>
<course>93.4</course>
<desc>Speed 17.4 km/h Distance 32.63 km</desc>
<time>2010-06-13T08:41:09.76</time>
<name>7456</name>
</trkpt>
<trkpt lat="49.187788" lon="11.824157">
<ele>561.8</ele>
<speed>17.1</speed>
<course>75.6</course>
<desc>Speed 17.1 km/h Distance 32.63 km</desc>
<time>2010-06-13T08:41:11.02</time>
<name>7457</name>
</trkpt>
<trkpt lat="49.187818" lon="11.824335">
<ele>562.5</ele>
<speed>18.9</speed>
<course>75.0</course>
<desc>Speed 18.9 km/h Distance 32.65 km</desc>
<time>2010-06-13T08:41:13.02</time>
<name>7458</name>
</trkpt>
<trkpt lat="49.187835" lon="11.824430">
<ele>563.4</ele>
<speed>19.7</speed>
<course>74.5</course>
<desc>Speed 19.7 km/h Distance 32.65 km</desc>
<time>2010-06-13T08:41:14.02</time>
<name>7459</name>
</trkpt>
<trkpt lat="49.187870" lon="11.824623">
<ele>564.6</ele>
<speed>18.4</speed>
<course>72.4</course>
<desc>Speed 18.4 km/h Distance 32.67 km</desc>
<time>2010-06-13T08:41:16.02</time>
<name>7460</name>
</trkpt>
<trkpt lat="49.187888" lon="11.824712">
<ele>564.3</ele>
<speed>18.0</speed>
<course>64.0</course>
<desc>Speed 18.0 km/h Distance 32.67 km</desc>
<time>2010-06-13T08:41:17.02</time>
<name>7461</name>
</trkpt>
<trkpt lat="49.187948" lon="11.824900">
<ele>558.6</ele>
<speed>18.5</speed>
<course>72.3</course>
<desc>Speed 18.5 km/h Distance 32.69 km</desc>
<time>2010-06-13T08:41:19.02</time>
<name>7462</name>
</trkpt>
<trkpt lat="49.187988" lon="11.825092">
<ele>554.1</ele>
<speed>21.1</speed>
<course>60.2</course>
<desc>Speed 21.1 km/h Distance 32.70 km</desc>
<time>2010-06-13T08:41:21.02</time>
<name>7463</name>
</trkpt>
<trkpt lat="49.188013" lon="11.825158">
<ele>551.0</ele>
<speed>20.7</speed>
<course>66.2</course>
<desc>Speed 20.7 km/h Distance 32.71 km</desc>
<time>2010-06-13T08:41:22.02</time>
<name>7464</name>
</trkpt>
<trkpt lat="49.188035" lon="11.825233">
<ele>549.0</ele>
<speed>21.3</speed>
<course>58.0</course>
<desc>Speed 21.3 km/h Distance 32.72 km</desc>
<time>2010-06-13T08:41:23.02</time>
<name>7465</name>
</trkpt>
<trkpt lat="49.188065" lon="11.825307">
<ele>546.3</ele>
<speed>21.3</speed>
<course>66.8</course>
<desc>Speed 21.3 km/h Distance 32.72 km</desc>
<time>2010-06-13T08:41:24.02</time>
<name>7466</name>
</trkpt>
<trkpt lat="49.188088" lon="11.825390">
<ele>544.4</ele>
<speed>22.0</speed>
<course>49.4</course>
<desc>Speed 22.0 km/h Distance 32.73 km</desc>
<time>2010-06-13T08:41:25.02</time>
<name>7467</name>
</trkpt>
<trkpt lat="49.188127" lon="11.825458">
<ele>541.8</ele>
<speed>22.2</speed>
<course>49.4</course>
<desc>Speed 22.2 km/h Distance 32.73 km</desc>
<time>2010-06-13T08:41:26.02</time>
<name>7468</name>
</trkpt>
<trkpt lat="49.188165" lon="11.825527">
<ele>539.7</ele>
<speed>21.7</speed>
<course>51.2</course>
<desc>Speed 21.7 km/h Distance 32.74 km</desc>
<time>2010-06-13T08:41:27.02</time>
<name>7469</name>
</trkpt>
<trkpt lat="49.188200" lon="11.825593">
<ele>536.8</ele>
<speed>19.4</speed>
<course>60.6</course>
<desc>Speed 19.4 km/h Distance 32.75 km</desc>
<time>2010-06-13T08:41:28.02</time>
<name>7470</name>
</trkpt>
<trkpt lat="49.188223" lon="11.825657">
<ele>535.3</ele>
<speed>18.3</speed>
<course>63.0</course>
<desc>Speed 18.3 km/h Distance 32.75 km</desc>
<time>2010-06-13T08:41:29.02</time>
<name>7471</name>
</trkpt>
<trkpt lat="49.188245" lon="11.825722">
<ele>533.9</ele>
<speed>17.5</speed>
<course>62.3</course>
<desc>Speed 17.5 km/h Distance 32.76 km</desc>
<time>2010-06-13T08:41:30.02</time>
<name>7472</name>
</trkpt>
<trkpt lat="49.188263" lon="11.825775">
<ele>532.3</ele>
<speed>13.2</speed>
<course>62.1</course>
<desc>Speed 13.2 km/h Distance 32.76 km</desc>
<time>2010-06-13T08:41:31.02</time>
<name>7473</name>
</trkpt>
<trkpt lat="49.188278" lon="11.825818">
<ele>530.6</ele>
<speed>9.8</speed>
<course>59.2</course>
<desc>Speed 9.8 km/h Distance 32.77 km</desc>
<time>2010-06-13T08:41:32.02</time>
<name>7474</name>
</trkpt>
<trkpt lat="49.188290" lon="11.825848">
<ele>528.6</ele>
<speed>7.2</speed>
<course>57.8</course>
<desc>Speed 7.2 km/h Distance 32.77 km</desc>
<time>2010-06-13T08:41:33.02</time>
<name>7475</name>
</trkpt>
<trkpt lat="49.188302" lon="11.825877">
<ele>527.5</ele>
<speed>6.7</speed>
<course>73.0</course>
<desc>Speed 6.7 km/h Distance 32.77 km</desc>
<time>2010-06-13T08:41:34.02</time>
<name>7476</name>
</trkpt>
<trkpt lat="49.188307" lon="11.825902">
<ele>526.6</ele>
<speed>5.5</speed>
<course>104.3</course>
<desc>Speed 5.5 km/h Distance 32.77 km</desc>
<time>2010-06-13T08:41:35.02</time>
<name>7477</name>
</trkpt>
<trkpt lat="49.188302" lon="11.825932">
<ele>526.9</ele>
<speed>4.1</speed>
<course>141.2</course>
<desc>Speed 4.1 km/h Distance 32.78 km</desc>
<time>2010-06-13T08:41:36.02</time>
<name>7478</name>
</trkpt>
<trkpt lat="49.188258" lon="11.825985">
<ele>530.1</ele>
<speed>0.9</speed>
<course>149.4</course>
<desc>Speed 0.9 km/h Distance 32.78 km</desc>
<time>2010-06-13T08:41:38.02</time>
<name>7479</name>
</trkpt>
<trkpt lat="49.188242" lon="11.826000">
<ele>530.7</ele>
<speed>0.1</speed>
<course>159.9</course>
<desc>Speed 0.1 km/h Distance 32.78 km</desc>
<time>2010-06-13T08:41:39.02</time>
<name>7480</name>
</trkpt>
<trkpt lat="49.188227" lon="11.826008">
<ele>531.6</ele>
<speed>0.7</speed>
<course>326.3</course>
<desc>Speed 0.7 km/h Distance 32.79 km</desc>
<time>2010-06-13T08:41:40.02</time>
<name>7481</name>
</trkpt>
<trkpt lat="49.188230" lon="11.826005">
<ele>530.2</ele>
<speed>1.4</speed>
<course>144.3</course>
<desc>Speed 1.4 km/h Distance 32.79 km</desc>
<time>2010-06-13T08:41:41.02</time>
<name>7482</name>
</trkpt>
<trkpt lat="49.188213" lon="11.826023">
<ele>532.1</ele>
<speed>1.0</speed>
<course>144.1</course>
<desc>Speed 1.0 km/h Distance 32.79 km</desc>
<time>2010-06-13T08:41:42.02</time>
<name>7483</name>
</trkpt>
<trkpt lat="49.188182" lon="11.826058">
<ele>534.7</ele>
<speed>0.5</speed>
<course>318.6</course>
<desc>Speed 0.5 km/h Distance 32.79 km</desc>
<time>2010-06-13T08:41:44.02</time>
<name>7484</name>
</trkpt>
<trkpt lat="49.188187" lon="11.826052">
<ele>533.4</ele>
<speed>0.7</speed>
<course>90.0</course>
<desc>Speed 0.7 km/h Distance 32.79 km</desc>
<time>2010-06-13T08:41:45.02</time>
<name>7485</name>
</trkpt>
<trkpt lat="49.188187" lon="11.826053">
<ele>532.3</ele>
<speed>2.2</speed>
<course>121.4</course>
<desc>Speed 2.2 km/h Distance 32.79 km</desc>
<time>2010-06-13T08:41:46.02</time>
<name>7486</name>
</trkpt>
<trkpt lat="49.188183" lon="11.826062">
<ele>530.8</ele>
<speed>2.8</speed>
<course>121.8</course>
<desc>Speed 2.8 km/h Distance 32.79 km</desc>
<time>2010-06-13T08:41:47.02</time>
<name>7487</name>
</trkpt>
<trkpt lat="49.188180" lon="11.826070">
<ele>531.0</ele>
<speed>2.7</speed>
<course>107.1</course>
<desc>Speed 2.7 km/h Distance 32.79 km</desc>
<time>2010-06-13T08:41:48.02</time>
<name>7488</name>
</trkpt>
<trkpt lat="49.188178" lon="11.826078">
<ele>531.9</ele>
<speed>1.8</speed>
<course>335.1</course>
<desc>Speed 1.8 km/h Distance 32.80 km</desc>
<time>2010-06-13T08:41:49.02</time>
<name>7489</name>
</trkpt>
<trkpt lat="49.188190" lon="11.826070">
<ele>530.9</ele>
<speed>1.3</speed>
<course>119.9</course>
<desc>Speed 1.3 km/h Distance 32.80 km</desc>
<time>2010-06-13T08:41:50.02</time>
<name>7490</name>
</trkpt>
<trkpt lat="49.188170" lon="11.826123">
<ele>532.8</ele>
<speed>2.6</speed>
<course>72.9</course>
<desc>Speed 2.6 km/h Distance 32.80 km</desc>
<time>2010-06-13T08:41:52.02</time>
<name>7491</name>
</trkpt>
<trkpt lat="49.188172" lon="11.826132">
<ele>532.8</ele>
<speed>4.0</speed>
<course>90.0</course>
<desc>Speed 4.0 km/h Distance 32.80 km</desc>
<time>2010-06-13T08:41:53.02</time>
<name>7492</name>
</trkpt>
<trkpt lat="49.188172" lon="11.826143">
<ele>531.1</ele>
<speed>3.7</speed>
<course>118.3</course>
<desc>Speed 3.7 km/h Distance 32.80 km</desc>
<time>2010-06-13T08:41:54.02</time>
<name>7493</name>
</trkpt>
<trkpt lat="49.188150" lon="11.826205">
<ele>532.1</ele>
<speed>5.1</speed>
<course>67.3</course>
<desc>Speed 5.1 km/h Distance 32.81 km</desc>
<time>2010-06-13T08:41:56.02</time>
<name>7494</name>
</trkpt>
<trkpt lat="49.188155" lon="11.826223">
<ele>532.8</ele>
<speed>4.5</speed>
<course>329.0</course>
<desc>Speed 4.5 km/h Distance 32.81 km</desc>
<time>2010-06-13T08:41:57.02</time>
<name>7495</name>
</trkpt>
<trkpt lat="49.188197" lon="11.826185">
<ele>529.2</ele>
<speed>1.3</speed>
<course>326.9</course>
<desc>Speed 1.3 km/h Distance 32.81 km</desc>
<time>2010-06-13T08:41:59.02</time>
<name>7496</name>
</trkpt>
<trkpt lat="49.188208" lon="11.826173">
<ele>528.9</ele>
<speed>2.2</speed>
<course>345.4</course>
<desc>Speed 2.2 km/h Distance 32.82 km</desc>
<time>2010-06-13T08:42:00.02</time>
<name>7497</name>
</trkpt>
<trkpt lat="49.188225" lon="11.826167">
<ele>529.1</ele>
<speed>3.4</speed>
<course>5.0</course>
<desc>Speed 3.4 km/h Distance 32.82 km</desc>
<time>2010-06-13T08:42:01.02</time>
<name>7498</name>
</trkpt>
<trkpt lat="49.188233" lon="11.826167">
<ele>529.3</ele>
<speed>2.7</speed>
<course>5.0</course>
<desc>Speed 2.7 km/h Distance 32.82 km</desc>
<time>2010-06-13T08:42:02.02</time>
<name>7499</name>
</trkpt>
<trkpt lat="49.188248" lon="11.826168">
<ele>530.6</ele>
<speed>2.6</speed>
<course>139.1</course>
<desc>Speed 2.6 km/h Distance 32.82 km</desc>
<time>2010-06-13T08:42:03.02</time>
<name>7500</name>
</trkpt>
<trkpt lat="49.188243" lon="11.826175">
<ele>533.2</ele>
<speed>2.4</speed>
<course>337.0</course>
<desc>Speed 2.4 km/h Distance 32.82 km</desc>
<time>2010-06-13T08:42:04.02</time>
<name>7501</name>
</trkpt>
<trkpt lat="49.188253" lon="11.826168">
<ele>534.7</ele>
<speed>2.3</speed>
<course>347.4</course>
<desc>Speed 2.3 km/h Distance 32.82 km</desc>
<time>2010-06-13T08:42:05.02</time>
<name>7502</name>
</trkpt>
<trkpt lat="49.188255" lon="11.826167">
<ele>537.3</ele>
<speed>0.7</speed>
<course>270.0</course>
<desc>Speed 0.7 km/h Distance 32.82 km</desc>
<time>2010-06-13T08:42:06.02</time>
<name>7503</name>
</trkpt>
<trkpt lat="49.188255" lon="11.826163">
<ele>539.2</ele>
<speed>0.4</speed>
<course>113.5</course>
<desc>Speed 0.4 km/h Distance 32.82 km</desc>
<time>2010-06-13T08:42:07.02</time>
<name>7504</name>
</trkpt>
<trkpt lat="49.188252" lon="11.826175">
<ele>541.4</ele>
<speed>1.4</speed>
<course>334.8</course>
<desc>Speed 1.4 km/h Distance 32.82 km</desc>
<time>2010-06-13T08:42:08.02</time>
<name>7505</name>
</trkpt>
<trkpt lat="49.188263" lon="11.826167">
<ele>540.6</ele>
<speed>0.5</speed>
<course>307.4</course>
<desc>Speed 0.5 km/h Distance 32.83 km</desc>
<time>2010-06-13T08:42:09.02</time>
<name>7506</name>
</trkpt>
<trkpt lat="49.188272" lon="11.826150">
<ele>540.6</ele>
<speed>1.2</speed>
<course>153.8</course>
<desc>Speed 1.2 km/h Distance 32.83 km</desc>
<time>2010-06-13T08:42:10.02</time>
<name>7507</name>
</trkpt>
<trkpt lat="49.188258" lon="11.826160">
<ele>544.1</ele>
<speed>1.6</speed>
<course>178.8</course>
<desc>Speed 1.6 km/h Distance 32.83 km</desc>
<time>2010-06-13T08:42:11.02</time>
<name>7508</name>
</trkpt>
<trkpt lat="49.188245" lon="11.826160">
<ele>545.5</ele>
<speed>2.8</speed>
<course>117.0</course>
<desc>Speed 2.8 km/h Distance 32.83 km</desc>
<time>2010-06-13T08:42:12.02</time>
<name>7509</name>
</trkpt>
<trkpt lat="49.188242" lon="11.826170">
<ele>547.6</ele>
<speed>2.7</speed>
<course>153.0</course>
<desc>Speed 2.7 km/h Distance 32.83 km</desc>
<time>2010-06-13T08:42:13.02</time>
<name>7510</name>
</trkpt>
<trkpt lat="49.188227" lon="11.826182">
<ele>550.5</ele>
<speed>3.0</speed>
<course>189.8</course>
<desc>Speed 3.0 km/h Distance 32.83 km</desc>
<time>2010-06-13T08:42:14.02</time>
<name>7511</name>
</trkpt>
<trkpt lat="49.188208" lon="11.826177">
<ele>551.9</ele>
<speed>3.7</speed>
<course>153.4</course>
<desc>Speed 3.7 km/h Distance 32.84 km</desc>
<time>2010-06-13T08:42:15.02</time>
<name>7512</name>
</trkpt>
<trkpt lat="49.188187" lon="11.826193">
<ele>553.9</ele>
<speed>4.9</speed>
<course>143.0</course>
<desc>Speed 4.9 km/h Distance 32.84 km</desc>
<time>2010-06-13T08:42:16.02</time>
<name>7513</name>
</trkpt>
<trkpt lat="49.188143" lon="11.826243">
<ele>558.8</ele>
<speed>5.3</speed>
<course>131.1</course>
<desc>Speed 5.3 km/h Distance 32.84 km</desc>
<time>2010-06-13T08:42:18.02</time>
<name>7514</name>
</trkpt>
<trkpt lat="49.188137" lon="11.826255">
<ele>560.3</ele>
<speed>4.4</speed>
<course>133.1</course>
<desc>Speed 4.4 km/h Distance 32.84 km</desc>
<time>2010-06-13T08:42:19.02</time>
<name>7515</name>
</trkpt>
<trkpt lat="49.188118" lon="11.826285">
<ele>564.2</ele>
<speed>4.5</speed>
<course>109.5</course>
<desc>Speed 4.5 km/h Distance 32.85 km</desc>
<time>2010-06-13T08:42:20.02</time>
<name>7516</name>
</trkpt>
<trkpt lat="49.188113" lon="11.826307">
<ele>565.0</ele>
<speed>5.6</speed>
<course>232.4</course>
<desc>Speed 5.6 km/h Distance 32.85 km</desc>
<time>2010-06-13T08:42:21.02</time>
<name>7517</name>
</trkpt>
<trkpt lat="49.188110" lon="11.826300">
<ele>564.4</ele>
<speed>5.1</speed>
<course>187.1</course>
<desc>Speed 5.1 km/h Distance 32.85 km</desc>
<time>2010-06-13T08:42:22.02</time>
<name>7518</name>
</trkpt>
<trkpt lat="49.188093" lon="11.826297">
<ele>565.9</ele>
<speed>6.3</speed>
<course>308.1</course>
<desc>Speed 6.3 km/h Distance 32.85 km</desc>
<time>2010-06-13T08:42:23.02</time>
<name>7519</name>
</trkpt>
<trkpt lat="49.188095" lon="11.826293">
<ele>566.0</ele>
<speed>4.0</speed>
<course>345.1</course>
<desc>Speed 4.0 km/h Distance 32.85 km</desc>
<time>2010-06-13T08:42:24.02</time>
<name>7520</name>
</trkpt>
<trkpt lat="49.188107" lon="11.826288">
<ele>566.7</ele>
<speed>3.2</speed>
<course>261.3</course>
<desc>Speed 3.2 km/h Distance 32.85 km</desc>
<time>2010-06-13T08:42:25.02</time>
<name>7521</name>
</trkpt>
<trkpt lat="49.188105" lon="11.826272">
<ele>567.5</ele>
<speed>4.5</speed>
<course>270.0</course>
<desc>Speed 4.5 km/h Distance 32.85 km</desc>
<time>2010-06-13T08:42:26.02</time>
<name>7522</name>
</trkpt>
<trkpt lat="49.188105" lon="11.826248">
<ele>566.8</ele>
<speed>5.1</speed>
<course>306.7</course>
<desc>Speed 5.1 km/h Distance 32.86 km</desc>
<time>2010-06-13T08:42:27.02</time>
<name>7523</name>
</trkpt>
<trkpt lat="49.188135" lon="11.826187">
<ele>563.8</ele>
<speed>4.2</speed>
<course>260.4</course>
<desc>Speed 4.2 km/h Distance 32.86 km</desc>
<time>2010-06-13T08:42:29.02</time>
<name>7524</name>
</trkpt>
<trkpt lat="49.188133" lon="11.826172">
<ele>563.1</ele>
<speed>3.8</speed>
<course>196.0</course>
<desc>Speed 3.8 km/h Distance 32.86 km</desc>
<time>2010-06-13T08:42:30.02</time>
<name>7525</name>
</trkpt>
<trkpt lat="49.188118" lon="11.826165">
<ele>563.4</ele>
<speed>4.2</speed>
<course>213.7</course>
<desc>Speed 4.2 km/h Distance 32.87 km</desc>
<time>2010-06-13T08:42:31.02</time>
<name>7526</name>
</trkpt>
<trkpt lat="49.188115" lon="11.826162">
<ele>564.2</ele>
<speed>4.4</speed>
<course>246.3</course>
<desc>Speed 4.4 km/h Distance 32.87 km</desc>
<time>2010-06-13T08:42:32.02</time>
<name>7527</name>
</trkpt>
<trkpt lat="49.188112" lon="11.826150">
<ele>565.5</ele>
<speed>5.5</speed>
<course>319.1</course>
<desc>Speed 5.5 km/h Distance 32.87 km</desc>
<time>2010-06-13T08:42:33.02</time>
<name>7528</name>
</trkpt>
<trkpt lat="49.188122" lon="11.826137">
<ele>564.6</ele>
<speed>4.2</speed>
<course>303.3</course>
<desc>Speed 4.2 km/h Distance 32.87 km</desc>
<time>2010-06-13T08:42:34.02</time>
<name>7529</name>
</trkpt>
<trkpt lat="49.188127" lon="11.826125">
<ele>565.1</ele>
<speed>3.0</speed>
<course>287.0</course>
<desc>Speed 3.0 km/h Distance 32.87 km</desc>
<time>2010-06-13T08:42:35.02</time>
<name>7530</name>
</trkpt>
<trkpt lat="49.188133" lon="11.826092">
<ele>562.3</ele>
<speed>3.4</speed>
<course>233.0</course>
<desc>Speed 3.4 km/h Distance 32.87 km</desc>
<time>2010-06-13T08:42:36.02</time>
<name>7531</name>
</trkpt>
<trkpt lat="49.188130" lon="11.826085">
<ele>563.2</ele>
<speed>2.6</speed>
<course>319.7</course>
<desc>Speed 2.6 km/h Distance 32.87 km</desc>
<time>2010-06-13T08:42:37.02</time>
<name>7532</name>
</trkpt>
<trkpt lat="49.188147" lon="11.826063">
<ele>561.6</ele>
<speed>0.9</speed>
<course>16.0</course>
<desc>Speed 0.9 km/h Distance 32.87 km</desc>
<time>2010-06-13T08:42:38.02</time>
<name>7533</name>
</trkpt>
<trkpt lat="49.188162" lon="11.826070">
<ele>561.3</ele>
<speed>0.5</speed>
<course>12.6</course>
<desc>Speed 0.5 km/h Distance 32.88 km</desc>
<time>2010-06-13T08:42:40.02</time>
<name>7534</name>
</trkpt>
<trkpt lat="49.188165" lon="11.826070">
<ele>561.8</ele>
<speed>2.1</speed>
<course>319.1</course>
<desc>Speed 2.1 km/h Distance 32.88 km</desc>
<time>2010-06-13T08:42:41.02</time>
<name>7535</name>
</trkpt>
<trkpt lat="49.188170" lon="11.826063">
<ele>562.8</ele>
<speed>2.1</speed>
<course>355.9</course>
<desc>Speed 2.1 km/h Distance 32.88 km</desc>
<time>2010-06-13T08:42:42.02</time>
<name>7536</name>
</trkpt>
<trkpt lat="49.188187" lon="11.826062">
<ele>560.6</ele>
<speed>1.1</speed>
<course>36.4</course>
<desc>Speed 1.1 km/h Distance 32.88 km</desc>
<time>2010-06-13T08:42:43.02</time>
<name>7537</name>
</trkpt>
<trkpt lat="49.188200" lon="11.826077">
<ele>559.3</ele>
<speed>0.9</speed>
<course>339.8</course>
<desc>Speed 0.9 km/h Distance 32.88 km</desc>
<time>2010-06-13T08:42:44.02</time>
<name>7538</name>
</trkpt>
<trkpt lat="49.188253" lon="11.826047">
<ele>553.6</ele>
<speed>2.8</speed>
<course>31.6</course>
<desc>Speed 2.8 km/h Distance 32.89 km</desc>
<time>2010-06-13T08:42:46.02</time>
<name>7539</name>
</trkpt>
<trkpt lat="49.188257" lon="11.826050">
<ele>552.0</ele>
<speed>1.0</speed>
<course>31.6</course>
<desc>Speed 1.0 km/h Distance 32.89 km</desc>
<time>2010-06-13T08:42:47.02</time>
<name>7540</name>
</trkpt>
<trkpt lat="49.188257" lon="11.826050">
<ele>552.0</ele>
<speed>1.7</speed>
<course>29.2</course>
<desc>Speed 1.7 km/h Distance 32.89 km</desc>
<time>2010-06-13T08:42:48.02</time>
<name>7541</name>
</trkpt>
<trkpt lat="49.188258" lon="11.826052">
<ele>552.0</ele>
<speed>0.2</speed>
<course>138.1</course>
<desc>Speed 0.2 km/h Distance 32.89 km</desc>
<time>2010-06-13T08:42:49.02</time>
<name>7542</name>
</trkpt>
<trkpt lat="49.188205" lon="11.826125">
<ele>554.5</ele>
<speed>4.6</speed>
<course>149.1</course>
<desc>Speed 4.6 km/h Distance 32.90 km</desc>
<time>2010-06-13T08:42:51.02</time>
<name>7543</name>
</trkpt>
<trkpt lat="49.188185" lon="11.826143">
<ele>553.9</ele>
<speed>3.9</speed>
<course>191.2</course>
<desc>Speed 3.9 km/h Distance 32.90 km</desc>
<time>2010-06-13T08:42:52.02</time>
<name>7544</name>
</trkpt>
<trkpt lat="49.188168" lon="11.826138">
<ele>551.7</ele>
<speed>2.0</speed>
<course>208.3</course>
<desc>Speed 2.0 km/h Distance 32.90 km</desc>
<time>2010-06-13T08:42:53.02</time>
<name>7545</name>
</trkpt>
<trkpt lat="49.188158" lon="11.826130">
<ele>549.9</ele>
<speed>0.9</speed>
<course>164.0</course>
<desc>Speed 0.9 km/h Distance 32.90 km</desc>
<time>2010-06-13T08:42:54.02</time>
<name>7546</name>
</trkpt>
<trkpt lat="49.188143" lon="11.826137">
<ele>551.5</ele>
<speed>2.0</speed>
<course>191.2</course>
<desc>Speed 2.0 km/h Distance 32.90 km</desc>
<time>2010-06-13T08:42:55.02</time>
<name>7547</name>
</trkpt>
<trkpt lat="49.188127" lon="11.826132">
<ele>552.8</ele>
<speed>2.1</speed>
<course>250.5</course>
<desc>Speed 2.1 km/h Distance 32.91 km</desc>
<time>2010-06-13T08:42:56.02</time>
<name>7548</name>
</trkpt>
<trkpt lat="49.188122" lon="11.826110">
<ele>553.3</ele>
<speed>1.6</speed>
<course>292.7</course>
<desc>Speed 1.6 km/h Distance 32.91 km</desc>
<time>2010-06-13T08:42:57.02</time>
<name>7549</name>
</trkpt>
<trkpt lat="49.188127" lon="11.826092">
<ele>551.1</ele>
<speed>0.5</speed>
<course>213.2</course>
<desc>Speed 0.5 km/h Distance 32.91 km</desc>
<time>2010-06-13T08:42:58.02</time>
<name>7550</name>
</trkpt>
<trkpt lat="49.188118" lon="11.826083">
<ele>551.3</ele>
<speed>1.0</speed>
<course>326.8</course>
<desc>Speed 1.0 km/h Distance 32.91 km</desc>
<time>2010-06-13T08:42:59.02</time>
<name>7551</name>
</trkpt>
<trkpt lat="49.188135" lon="11.826067">
<ele>550.1</ele>
<speed>3.4</speed>
<course>303.3</course>
<desc>Speed 3.4 km/h Distance 32.91 km</desc>
<time>2010-06-13T08:43:00.02</time>
<name>7552</name>
</trkpt>
<trkpt lat="49.188140" lon="11.826055">
<ele>551.4</ele>
<speed>2.9</speed>
<course>265.6</course>
<desc>Speed 2.9 km/h Distance 32.91 km</desc>
<time>2010-06-13T08:43:01.02</time>
<name>7553</name>
</trkpt>
<trkpt lat="49.188138" lon="11.826022">
<ele>550.0</ele>
<speed>2.9</speed>
<course>298.0</course>
<desc>Speed 2.9 km/h Distance 32.92 km</desc>
<time>2010-06-13T08:43:02.02</time>
<name>7554</name>
</trkpt>
<trkpt lat="49.188152" lon="11.825983">
<ele>547.2</ele>
<speed>3.3</speed>
<course>334.8</course>
<desc>Speed 3.3 km/h Distance 32.92 km</desc>
<time>2010-06-13T08:43:04.02</time>
<name>7555</name>
</trkpt>
<trkpt lat="49.188163" lon="11.825975">
<ele>544.5</ele>
<speed>3.9</speed>
<course>322.7</course>
<desc>Speed 3.9 km/h Distance 32.92 km</desc>
<time>2010-06-13T08:43:05.02</time>
<name>7556</name>
</trkpt>
<trkpt lat="49.188173" lon="11.825963">
<ele>542.2</ele>
<speed>2.6</speed>
<course>287.1</course>
<desc>Speed 2.6 km/h Distance 32.92 km</desc>
<time>2010-06-13T08:43:06.02</time>
<name>7557</name>
</trkpt>
<trkpt lat="49.188175" lon="11.825955">
<ele>540.8</ele>
<speed>1.6</speed>
<course>347.4</course>
<desc>Speed 1.6 km/h Distance 32.92 km</desc>
<time>2010-06-13T08:43:07.02</time>
<name>7558</name>
</trkpt>
<trkpt lat="49.188185" lon="11.825952">
<ele>538.5</ele>
<speed>2.3</speed>
<course>330.8</course>
<desc>Speed 2.3 km/h Distance 32.92 km</desc>
<time>2010-06-13T08:43:08.02</time>
<name>7559</name>
</trkpt>
<trkpt lat="49.188187" lon="11.825950">
<ele>538.0</ele>
<speed>2.9</speed>
<course>144.1</course>
<desc>Speed 2.9 km/h Distance 32.92 km</desc>
<time>2010-06-13T08:43:09.02</time>
<name>7560</name>
</trkpt>
<trkpt lat="49.188172" lon="11.825967">
<ele>539.4</ele>
<speed>3.0</speed>
<course>287.0</course>
<desc>Speed 3.0 km/h Distance 32.93 km</desc>
<time>2010-06-13T08:43:10.02</time>
<name>7561</name>
</trkpt>
<trkpt lat="49.188175" lon="11.825950">
<ele>537.8</ele>
<speed>2.1</speed>
<course>154.6</course>
<desc>Speed 2.1 km/h Distance 32.93 km</desc>
<time>2010-06-13T08:43:11.02</time>
<name>7562</name>
</trkpt>
<trkpt lat="49.188170" lon="11.825953">
<ele>538.4</ele>
<speed>2.4</speed>
<course>203.8</course>
<desc>Speed 2.4 km/h Distance 32.93 km</desc>
<time>2010-06-13T08:43:12.02</time>
<name>7563</name>
</trkpt>
<trkpt lat="49.188165" lon="11.825950">
<ele>538.4</ele>
<speed>2.0</speed>
<course>312.6</course>
<desc>Speed 2.0 km/h Distance 32.93 km</desc>
<time>2010-06-13T08:43:13.02</time>
<name>7564</name>
</trkpt>
<trkpt lat="49.188175" lon="11.825933">
<ele>537.7</ele>
<speed>2.2</speed>
<course>340.1</course>
<desc>Speed 2.2 km/h Distance 32.93 km</desc>
<time>2010-06-13T08:43:14.02</time>
<name>7565</name>
</trkpt>
<trkpt lat="49.188190" lon="11.825925">
<ele>535.8</ele>
<speed>3.9</speed>
<course>322.8</course>
<desc>Speed 3.9 km/h Distance 32.93 km</desc>
<time>2010-06-13T08:43:15.02</time>
<name>7566</name>
</trkpt>
<trkpt lat="49.188200" lon="11.825913">
<ele>534.4</ele>
<speed>3.4</speed>
<course>192.6</course>
<desc>Speed 3.4 km/h Distance 32.93 km</desc>
<time>2010-06-13T08:43:16.02</time>
<name>7567</name>
</trkpt>
<trkpt lat="49.188198" lon="11.825912">
<ele>532.2</ele>
<speed>2.5</speed>
<course>236.2</course>
<desc>Speed 2.5 km/h Distance 32.93 km</desc>
<time>2010-06-13T08:43:17.02</time>
<name>7568</name>
</trkpt>
<trkpt lat="49.188187" lon="11.825885">
<ele>530.9</ele>
<speed>3.1</speed>
<course>254.9</course>
<desc>Speed 3.1 km/h Distance 32.94 km</desc>
<time>2010-06-13T08:43:18.02</time>
<name>7569</name>
</trkpt>
<trkpt lat="49.188182" lon="11.825857">
<ele>530.8</ele>
<speed>4.3</speed>
<course>253.8</course>
<desc>Speed 4.3 km/h Distance 32.94 km</desc>
<time>2010-06-13T08:43:19.02</time>
<name>7570</name>
</trkpt>
<trkpt lat="49.188175" lon="11.825822">
<ele>530.6</ele>
<speed>3.3</speed>
<course>278.3</course>
<desc>Speed 3.3 km/h Distance 32.94 km</desc>
<time>2010-06-13T08:43:20.02</time>
<name>7571</name>
</trkpt>
<trkpt lat="49.188178" lon="11.825787">
<ele>531.6</ele>
<speed>5.8</speed>
<course>257.1</course>
<desc>Speed 5.8 km/h Distance 32.94 km</desc>
<time>2010-06-13T08:43:21.02</time>
<name>7572</name>
</trkpt>
<trkpt lat="49.188173" lon="11.825753">
<ele>532.2</ele>
<speed>6.6</speed>
<course>260.9</course>
<desc>Speed 6.6 km/h Distance 32.95 km</desc>
<time>2010-06-13T08:43:22.02</time>
<name>7573</name>
</trkpt>
<trkpt lat="49.188170" lon="11.825722">
<ele>532.1</ele>
<speed>5.9</speed>
<course>304.5</course>
<desc>Speed 5.9 km/h Distance 32.95 km</desc>
<time>2010-06-13T08:43:23.02</time>
<name>7574</name>
</trkpt>
<trkpt lat="49.188185" lon="11.825688">
<ele>529.5</ele>
<speed>4.2</speed>
<course>217.2</course>
<desc>Speed 4.2 km/h Distance 32.95 km</desc>
<time>2010-06-13T08:43:24.02</time>
<name>7575</name>
</trkpt>
<trkpt lat="49.188183" lon="11.825687">
<ele>528.4</ele>
<speed>2.9</speed>
<course>290.9</course>
<desc>Speed 2.9 km/h Distance 32.95 km</desc>
<time>2010-06-13T08:43:25.02</time>
<name>7576</name>
</trkpt>
<trkpt lat="49.188200" lon="11.825620">
<ele>524.2</ele>
<speed>3.7</speed>
<course>279.6</course>
<desc>Speed 3.7 km/h Distance 32.96 km</desc>
<time>2010-06-13T08:43:27.02</time>
<name>7577</name>
</trkpt>
<trkpt lat="49.188202" lon="11.825605">
<ele>521.6</ele>
<speed>4.4</speed>
<course>288.8</course>
<desc>Speed 4.4 km/h Distance 32.96 km</desc>
<time>2010-06-13T08:43:28.02</time>
<name>7578</name>
</trkpt>
<trkpt lat="49.188205" lon="11.825590">
<ele>521.5</ele>
<speed>4.2</speed>
<course>274.4</course>
<desc>Speed 4.2 km/h Distance 32.96 km</desc>
<time>2010-06-13T08:43:29.02</time>
<name>7579</name>
</trkpt>
<trkpt lat="49.188207" lon="11.825557">
<ele>520.7</ele>
<speed>4.7</speed>
<course>284.3</course>
<desc>Speed 4.7 km/h Distance 32.96 km</desc>
<time>2010-06-13T08:43:30.02</time>
<name>7580</name>
</trkpt>
<trkpt lat="49.188212" lon="11.825527">
<ele>520.2</ele>
<speed>4.3</speed>
<course>289.1</course>
<desc>Speed 4.3 km/h Distance 32.96 km</desc>
<time>2010-06-13T08:43:31.02</time>
<name>7581</name>
</trkpt>
<trkpt lat="49.188232" lon="11.825438">
<ele>514.5</ele>
<speed>6.4</speed>
<course>255.7</course>
<desc>Speed 6.4 km/h Distance 32.97 km</desc>
<time>2010-06-13T08:43:33.02</time>
<name>7582</name>
</trkpt>
<trkpt lat="49.188227" lon="11.825408">
<ele>513.0</ele>
<speed>5.8</speed>
<course>263.9</course>
<desc>Speed 5.8 km/h Distance 32.97 km</desc>
<time>2010-06-13T08:43:34.02</time>
<name>7583</name>
</trkpt>
<trkpt lat="49.188222" lon="11.825337">
<ele>512.3</ele>
<speed>6.3</speed>
<course>263.8</course>
<desc>Speed 6.3 km/h Distance 32.98 km</desc>
<time>2010-06-13T08:43:36.02</time>
<name>7584</name>
</trkpt>
<trkpt lat="49.188220" lon="11.825313">
<ele>510.0</ele>
<speed>3.7</speed>
<course>259.8</course>
<desc>Speed 3.7 km/h Distance 32.98 km</desc>
<time>2010-06-13T08:43:37.02</time>
<name>7585</name>
</trkpt>
<trkpt lat="49.188217" lon="11.825285">
<ele>510.0</ele>
<speed>4.2</speed>
<course>219.2</course>
<desc>Speed 4.2 km/h Distance 32.98 km</desc>
<time>2010-06-13T08:43:38.02</time>
<name>7586</name>
</trkpt>
<trkpt lat="49.188197" lon="11.825260">
<ele>509.3</ele>
<speed>4.8</speed>
<course>240.6</course>
<desc>Speed 4.8 km/h Distance 32.98 km</desc>
<time>2010-06-13T08:43:39.02</time>
<name>7587</name>
</trkpt>
<trkpt lat="49.188185" lon="11.825228">
<ele>509.7</ele>
<speed>3.5</speed>
<course>253.4</course>
<desc>Speed 3.5 km/h Distance 32.99 km</desc>
<time>2010-06-13T08:43:40.02</time>
<name>7588</name>
</trkpt>
<trkpt lat="49.188172" lon="11.825160">
<ele>509.5</ele>
<speed>3.8</speed>
<course>171.2</course>
<desc>Speed 3.8 km/h Distance 32.99 km</desc>
<time>2010-06-13T08:43:42.02</time>
<name>7589</name>
</trkpt>
<trkpt lat="49.188152" lon="11.825165">
<ele>510.0</ele>
<speed>2.4</speed>
<course>160.5</course>
<desc>Speed 2.4 km/h Distance 32.99 km</desc>
<time>2010-06-13T08:43:43.02</time>
<name>7590</name>
</trkpt>
<trkpt lat="49.188093" lon="11.825197">
<ele>514.2</ele>
<speed>2.9</speed>
<course>167.4</course>
<desc>Speed 2.9 km/h Distance 33.00 km</desc>
<time>2010-06-13T08:43:45.02</time>
<name>7591</name>
</trkpt>
<trkpt lat="49.188083" lon="11.825200">
<ele>514.4</ele>
<speed>3.0</speed>
<course>195.5</course>
<desc>Speed 3.0 km/h Distance 33.00 km</desc>
<time>2010-06-13T08:43:46.02</time>
<name>7592</name>
</trkpt>
<trkpt lat="49.188072" lon="11.825195">
<ele>514.4</ele>
<speed>3.6</speed>
<course>161.8</course>
<desc>Speed 3.6 km/h Distance 33.00 km</desc>
<time>2010-06-13T08:43:47.02</time>
<name>7593</name>
</trkpt>
<trkpt lat="49.188048" lon="11.825207">
<ele>517.0</ele>
<speed>3.4</speed>
<course>295.8</course>
<desc>Speed 3.4 km/h Distance 33.01 km</desc>
<time>2010-06-13T08:43:48.02</time>
<name>7594</name>
</trkpt>
<trkpt lat="49.188058" lon="11.825175">
<ele>516.2</ele>
<speed>1.1</speed>
<course>108.8</course>
<desc>Speed 1.1 km/h Distance 33.01 km</desc>
<time>2010-06-13T08:43:49.02</time>
<name>7595</name>
</trkpt>
<trkpt lat="49.188055" lon="11.825190">
<ele>520.5</ele>
<speed>1.9</speed>
<course>243.0</course>
<desc>Speed 1.9 km/h Distance 33.01 km</desc>
<time>2010-06-13T08:43:50.02</time>
<name>7596</name>
</trkpt>
<trkpt lat="49.188048" lon="11.825170">
<ele>523.3</ele>
<speed>5.3</speed>
<course>287.6</course>
<desc>Speed 5.3 km/h Distance 33.01 km</desc>
<time>2010-06-13T08:43:51.02</time>
<name>7597</name>
</trkpt>
<trkpt lat="49.188077" lon="11.825033">
<ele>523.2</ele>
<speed>6.9</speed>
<course>301.5</course>
<desc>Speed 6.9 km/h Distance 33.02 km</desc>
<time>2010-06-13T08:43:53.02</time>
<name>7598</name>
</trkpt>
<trkpt lat="49.188093" lon="11.824992">
<ele>524.1</ele>
<speed>4.5</speed>
<course>297.0</course>
<desc>Speed 4.5 km/h Distance 33.03 km</desc>
<time>2010-06-13T08:43:54.02</time>
<name>7599</name>
</trkpt>
<trkpt lat="49.188105" lon="11.824957">
<ele>523.4</ele>
<speed>4.3</speed>
<course>278.7</course>
<desc>Speed 4.3 km/h Distance 33.03 km</desc>
<time>2010-06-13T08:43:55.02</time>
<name>7600</name>
</trkpt>
<trkpt lat="49.188108" lon="11.824923">
<ele>522.1</ele>
<speed>6.2</speed>
<course>287.0</course>
<desc>Speed 6.2 km/h Distance 33.03 km</desc>
<time>2010-06-13T08:43:56.02</time>
<name>7601</name>
</trkpt>
<trkpt lat="49.188115" lon="11.824890">
<ele>522.1</ele>
<speed>6.6</speed>
<course>265.4</course>
<desc>Speed 6.6 km/h Distance 33.03 km</desc>
<time>2010-06-13T08:43:57.02</time>
<name>7602</name>
</trkpt>
<trkpt lat="49.188113" lon="11.824858">
<ele>522.1</ele>
<speed>6.2</speed>
<course>290.0</course>
<desc>Speed 6.2 km/h Distance 33.04 km</desc>
<time>2010-06-13T08:43:58.02</time>
<name>7603</name>
</trkpt>
<trkpt lat="49.188122" lon="11.824823">
<ele>518.1</ele>
<speed>6.6</speed>
<course>307.4</course>
<desc>Speed 6.6 km/h Distance 33.04 km</desc>
<time>2010-06-13T08:43:59.02</time>
<name>7604</name>
</trkpt>
<trkpt lat="49.188135" lon="11.824797">
<ele>516.4</ele>
<speed>6.5</speed>
<course>238.6</course>
<desc>Speed 6.5 km/h Distance 33.04 km</desc>
<time>2010-06-13T08:44:00.02</time>
<name>7605</name>
</trkpt>
<trkpt lat="49.188132" lon="11.824788">
<ele>516.1</ele>
<speed>5.5</speed>
<course>234.2</course>
<desc>Speed 5.5 km/h Distance 33.04 km</desc>
<time>2010-06-13T08:44:01.02</time>
<name>7606</name>
</trkpt>
<trkpt lat="49.188118" lon="11.824760">
<ele>514.1</ele>
<speed>5.5</speed>
<course>241.3</course>
<desc>Speed 5.5 km/h Distance 33.04 km</desc>
<time>2010-06-13T08:44:02.02</time>
<name>7607</name>
</trkpt>
<trkpt lat="49.188110" lon="11.824737">
<ele>513.5</ele>
<speed>4.1</speed>
<course>243.0</course>
<desc>Speed 4.1 km/h Distance 33.05 km</desc>
<time>2010-06-13T08:44:03.02</time>
<name>7608</name>
</trkpt>
<trkpt lat="49.188102" lon="11.824712">
<ele>513.5</ele>
<speed>3.1</speed>
<course>270.0</course>
<desc>Speed 3.1 km/h Distance 33.05 km</desc>
<time>2010-06-13T08:44:04.02</time>
<name>7609</name>
</trkpt>
<trkpt lat="49.188102" lon="11.824682">
<ele>513.8</ele>
<speed>2.2</speed>
<course>196.6</course>
<desc>Speed 2.2 km/h Distance 33.05 km</desc>
<time>2010-06-13T08:44:05.02</time>
<name>7610</name>
</trkpt>
<trkpt lat="49.188065" lon="11.824665">
<ele>518.6</ele>
<speed>1.8</speed>
<course>213.3</course>
<desc>Speed 1.8 km/h Distance 33.05 km</desc>
<time>2010-06-13T08:44:07.02</time>
<name>7611</name>
</trkpt>
<trkpt lat="49.188053" lon="11.824653">
<ele>520.1</ele>
<speed>3.1</speed>
<course>163.2</course>
<desc>Speed 3.1 km/h Distance 33.06 km</desc>
<time>2010-06-13T08:44:08.02</time>
<name>7612</name>
</trkpt>
<trkpt lat="49.188032" lon="11.824663">
<ele>523.4</ele>
<speed>3.7</speed>
<course>37.2</course>
<desc>Speed 3.7 km/h Distance 33.06 km</desc>
<time>2010-06-13T08:44:09.02</time>
<name>7613</name>
</trkpt>
<trkpt lat="49.188033" lon="11.824665">
<ele>526.1</ele>
<speed>3.6</speed>
<course>5.0</course>
<desc>Speed 3.6 km/h Distance 33.06 km</desc>
<time>2010-06-13T08:44:10.02</time>
<name>7614</name>
</trkpt>
<trkpt lat="49.188048" lon="11.824667">
<ele>526.6</ele>
<speed>4.5</speed>
<course>332.3</course>
<desc>Speed 4.5 km/h Distance 33.06 km</desc>
<time>2010-06-13T08:44:11.02</time>
<name>7615</name>
</trkpt>
<trkpt lat="49.188065" lon="11.824653">
<ele>526.6</ele>
<speed>3.4</speed>
<course>270.0</course>
<desc>Speed 3.4 km/h Distance 33.06 km</desc>
<time>2010-06-13T08:44:12.02</time>
<name>7616</name>
</trkpt>
<trkpt lat="49.188065" lon="11.824638">
<ele>527.0</ele>
<speed>2.7</speed>
<course>330.6</course>
<desc>Speed 2.7 km/h Distance 33.06 km</desc>
<time>2010-06-13T08:44:13.02</time>
<name>7617</name>
</trkpt>
<trkpt lat="49.188077" lon="11.824628">
<ele>527.0</ele>
<speed>2.2</speed>
<course>281.5</course>
<desc>Speed 2.2 km/h Distance 33.06 km</desc>
<time>2010-06-13T08:44:14.02</time>
<name>7618</name>
</trkpt>
<trkpt lat="49.188080" lon="11.824603">
<ele>525.6</ele>
<speed>3.5</speed>
<course>215.9</course>
<desc>Speed 3.5 km/h Distance 33.07 km</desc>
<time>2010-06-13T08:44:15.02</time>
<name>7619</name>
</trkpt>
<trkpt lat="49.188065" lon="11.824587">
<ele>525.5</ele>
<speed>4.4</speed>
<course>202.3</course>
<desc>Speed 4.4 km/h Distance 33.07 km</desc>
<time>2010-06-13T08:44:16.02</time>
<name>7620</name>
</trkpt>
<trkpt lat="49.188038" lon="11.824570">
<ele>525.5</ele>
<speed>4.8</speed>
<course>187.2</course>
<desc>Speed 4.8 km/h Distance 33.07 km</desc>
<time>2010-06-13T08:44:17.02</time>
<name>7621</name>
</trkpt>
<trkpt lat="49.188012" lon="11.824565">
<ele>525.5</ele>
<speed>5.5</speed>
<course>191.4</course>
<desc>Speed 5.5 km/h Distance 33.07 km</desc>
<time>2010-06-13T08:44:18.02</time>
<name>7622</name>
</trkpt>
<trkpt lat="49.187990" lon="11.824558">
<ele>525.5</ele>
<speed>5.5</speed>
<course>209.0</course>
<desc>Speed 5.5 km/h Distance 33.08 km</desc>
<time>2010-06-13T08:44:19.02</time>
<name>7623</name>
</trkpt>
<trkpt lat="49.187935" lon="11.824512">
<ele>531.4</ele>
<speed>8.0</speed>
<course>208.8</course>
<desc>Speed 8.0 km/h Distance 33.08 km</desc>
<time>2010-06-13T08:44:21.02</time>
<name>7624</name>
</trkpt>
<trkpt lat="49.187903" lon="11.824485">
<ele>534.5</ele>
<speed>7.6</speed>
<course>230.2</course>
<desc>Speed 7.6 km/h Distance 33.09 km</desc>
<time>2010-06-13T08:44:22.02</time>
<name>7625</name>
</trkpt>
<trkpt lat="49.187883" lon="11.824448">
<ele>536.9</ele>
<speed>6.3</speed>
<course>229.4</course>
<desc>Speed 6.3 km/h Distance 33.09 km</desc>
<time>2010-06-13T08:44:23.02</time>
<name>7626</name>
</trkpt>
<trkpt lat="49.187845" lon="11.824380">
<ele>537.2</ele>
<speed>3.5</speed>
<course>346.4</course>
<desc>Speed 3.5 km/h Distance 33.10 km</desc>
<time>2010-06-13T08:44:25.02</time>
<name>7627</name>
</trkpt>
<trkpt lat="49.187863" lon="11.824373">
<ele>537.2</ele>
<speed>0.8</speed>
<course>295.2</course>
<desc>Speed 0.8 km/h Distance 33.10 km</desc>
<time>2010-06-13T08:44:26.02</time>
<name>7628</name>
</trkpt>
<trkpt lat="49.187870" lon="11.824352">
<ele>537.2</ele>
<speed>1.2</speed>
<course>17.4</course>
<desc>Speed 1.2 km/h Distance 33.10 km</desc>
<time>2010-06-13T08:44:27.02</time>
<name>7629</name>
</trkpt>
<trkpt lat="49.187947" lon="11.824388">
<ele>550.9</ele>
<speed>1.2</speed>
<course>215.8</course>
<desc>Speed 1.2 km/h Distance 33.11 km</desc>
<time>2010-06-13T08:44:35.02</time>
<name>7630</name>
</trkpt>
<trkpt lat="49.187930" lon="11.824370">
<ele>559.7</ele>
<speed>2.6</speed>
<course>27.9</course>
<desc>Speed 2.6 km/h Distance 33.11 km</desc>
<time>2010-06-13T08:44:37.02</time>
<name>7631</name>
</trkpt>
<trkpt lat="49.187938" lon="11.824377">
<ele>563.1</ele>
<speed>2.9</speed>
<course>224.5</course>
<desc>Speed 2.9 km/h Distance 33.11 km</desc>
<time>2010-06-13T08:44:38.02</time>
<name>7632</name>
</trkpt>
<trkpt lat="49.187922" lon="11.824352">
<ele>565.3</ele>
<speed>3.2</speed>
<course>208.9</course>
<desc>Speed 3.2 km/h Distance 33.12 km</desc>
<time>2010-06-13T08:44:39.02</time>
<name>7633</name>
</trkpt>
<trkpt lat="49.187900" lon="11.824333">
<ele>569.2</ele>
<speed>3.2</speed>
<course>245.8</course>
<desc>Speed 3.2 km/h Distance 33.12 km</desc>
<time>2010-06-13T08:44:40.02</time>
<name>7634</name>
</trkpt>
<trkpt lat="49.187892" lon="11.824305">
<ele>570.8</ele>
<speed>2.5</speed>
<course>257.1</course>
<desc>Speed 2.5 km/h Distance 33.12 km</desc>
<time>2010-06-13T08:44:41.02</time>
<name>7635</name>
</trkpt>
<trkpt lat="49.187887" lon="11.824272">
<ele>572.6</ele>
<speed>2.5</speed>
<course>243.0</course>
<desc>Speed 2.5 km/h Distance 33.12 km</desc>
<time>2010-06-13T08:44:42.02</time>
<name>7636</name>
</trkpt>
<trkpt lat="49.187882" lon="11.824257">
<ele>575.4</ele>
<speed>3.1</speed>
<course>270.0</course>
<desc>Speed 3.1 km/h Distance 33.13 km</desc>
<time>2010-06-13T08:44:43.02</time>
<name>7637</name>
</trkpt>
<trkpt lat="49.187882" lon="11.824223">
<ele>576.2</ele>
<speed>2.3</speed>
<course>249.1</course>
<desc>Speed 2.3 km/h Distance 33.13 km</desc>
<time>2010-06-13T08:44:44.02</time>
<name>7638</name>
</trkpt>
<trkpt lat="49.187875" lon="11.824197">
<ele>577.9</ele>
<speed>2.3</speed>
<course>241.8</course>
<desc>Speed 2.3 km/h Distance 33.13 km</desc>
<time>2010-06-13T08:44:45.02</time>
<name>7639</name>
</trkpt>
<trkpt lat="49.187852" lon="11.824130">
<ele>581.5</ele>
<speed>3.0</speed>
<course>242.9</course>
<desc>Speed 3.0 km/h Distance 33.14 km</desc>
<time>2010-06-13T08:44:47.02</time>
<name>7640</name>
</trkpt>
<trkpt lat="49.187843" lon="11.824105">
<ele>583.3</ele>
<speed>3.0</speed>
<course>241.9</course>
<desc>Speed 3.0 km/h Distance 33.14 km</desc>
<time>2010-06-13T08:44:48.02</time>
<name>7641</name>
</trkpt>
<trkpt lat="49.187818" lon="11.824033">
<ele>585.9</ele>
<speed>6.2</speed>
<course>249.1</course>
<desc>Speed 6.2 km/h Distance 33.14 km</desc>
<time>2010-06-13T08:44:50.02</time>
<name>7642</name>
</trkpt>
<trkpt lat="49.187810" lon="11.824000">
<ele>586.1</ele>
<speed>6.3</speed>
<course>246.4</course>
<desc>Speed 6.3 km/h Distance 33.15 km</desc>
<time>2010-06-13T08:44:51.02</time>
<name>7643</name>
</trkpt>
<trkpt lat="49.187800" lon="11.823965">
<ele>586.5</ele>
<speed>6.3</speed>
<course>236.7</course>
<desc>Speed 6.3 km/h Distance 33.15 km</desc>
<time>2010-06-13T08:44:52.02</time>
<name>7644</name>
</trkpt>
<trkpt lat="49.187785" lon="11.823930">
<ele>586.6</ele>
<speed>5.5</speed>
<course>245.8</course>
<desc>Speed 5.5 km/h Distance 33.15 km</desc>
<time>2010-06-13T08:44:53.02</time>
<name>7645</name>
</trkpt>
<trkpt lat="49.187777" lon="11.823902">
<ele>585.9</ele>
<speed>5.8</speed>
<course>258.5</course>
<desc>Speed 5.8 km/h Distance 33.15 km</desc>
<time>2010-06-13T08:44:54.02</time>
<name>7646</name>
</trkpt>
<trkpt lat="49.187773" lon="11.823877">
<ele>586.0</ele>
<speed>5.7</speed>
<course>264.5</course>
<desc>Speed 5.7 km/h Distance 33.16 km</desc>
<time>2010-06-13T08:44:55.02</time>
<name>7647</name>
</trkpt>
<trkpt lat="49.187772" lon="11.823850">
<ele>586.5</ele>
<speed>5.6</speed>
<course>256.4</course>
<desc>Speed 5.6 km/h Distance 33.16 km</desc>
<time>2010-06-13T08:44:56.02</time>
<name>7648</name>
</trkpt>
<trkpt lat="49.187767" lon="11.823818">
<ele>586.0</ele>
<speed>5.6</speed>
<course>314.7</course>
<desc>Speed 5.6 km/h Distance 33.16 km</desc>
<time>2010-06-13T08:44:57.02</time>
<name>7649</name>
</trkpt>
<trkpt lat="49.187785" lon="11.823790">
<ele>580.5</ele>
<speed>5.7</speed>
<course>251.2</course>
<desc>Speed 5.7 km/h Distance 33.16 km</desc>
<time>2010-06-13T08:44:58.02</time>
<name>7650</name>
</trkpt>
<trkpt lat="49.187778" lon="11.823760">
<ele>579.8</ele>
<speed>5.5</speed>
<course>153.6</course>
<desc>Speed 5.5 km/h Distance 33.17 km</desc>
<time>2010-06-13T08:44:59.02</time>
<name>7651</name>
</trkpt>
<trkpt lat="49.187772" lon="11.823765">
<ele>580.4</ele>
<speed>4.0</speed>
<course>131.3</course>
<desc>Speed 4.0 km/h Distance 33.17 km</desc>
<time>2010-06-13T08:45:00.02</time>
<name>7652</name>
</trkpt>
<trkpt lat="49.187765" lon="11.823777">
<ele>578.6</ele>
<speed>2.6</speed>
<course>153.6</course>
<desc>Speed 2.6 km/h Distance 33.17 km</desc>
<time>2010-06-13T08:45:01.02</time>
<name>7653</name>
</trkpt>
<trkpt lat="49.187758" lon="11.823782">
<ele>577.1</ele>
<speed>2.3</speed>
<course>318.6</course>
<desc>Speed 2.3 km/h Distance 33.17 km</desc>
<time>2010-06-13T08:45:02.02</time>
<name>7654</name>
</trkpt>
<trkpt lat="49.187763" lon="11.823775">
<ele>575.5</ele>
<speed>2.1</speed>
<course>213.7</course>
<desc>Speed 2.1 km/h Distance 33.17 km</desc>
<time>2010-06-13T08:45:03.02</time>
<name>7655</name>
</trkpt>
<trkpt lat="49.187760" lon="11.823772">
<ele>574.2</ele>
<speed>3.2</speed>
<course>217.2</course>
<desc>Speed 3.2 km/h Distance 33.17 km</desc>
<time>2010-06-13T08:45:04.02</time>
<name>7656</name>
</trkpt>
<trkpt lat="49.187758" lon="11.823770">
<ele>572.6</ele>
<speed>2.3</speed>
<course>12.6</course>
<desc>Speed 2.3 km/h Distance 33.17 km</desc>
<time>2010-06-13T08:45:05.02</time>
<name>7657</name>
</trkpt>
<trkpt lat="49.187760" lon="11.823770">
<ele>572.3</ele>
<speed>3.1</speed>
<course>336.2</course>
<desc>Speed 3.1 km/h Distance 33.17 km</desc>
<time>2010-06-13T08:45:06.02</time>
<name>7658</name>
</trkpt>
<trkpt lat="49.187770" lon="11.823763">
<ele>570.7</ele>
<speed>3.8</speed>
<course>285.5</course>
<desc>Speed 3.8 km/h Distance 33.17 km</desc>
<time>2010-06-13T08:45:07.02</time>
<name>7659</name>
</trkpt>
<trkpt lat="49.187773" lon="11.823745">
<ele>571.6</ele>
<speed>4.5</speed>
<course>263.3</course>
<desc>Speed 4.5 km/h Distance 33.17 km</desc>
<time>2010-06-13T08:45:08.02</time>
<name>7660</name>
</trkpt>
<trkpt lat="49.187772" lon="11.823723">
<ele>572.9</ele>
<speed>4.8</speed>
<course>313.9</course>
<desc>Speed 4.8 km/h Distance 33.17 km</desc>
<time>2010-06-13T08:45:09.02</time>
<name>7661</name>
</trkpt>
<trkpt lat="49.187780" lon="11.823710">
<ele>572.5</ele>
<speed>4.1</speed>
<course>287.1</course>
<desc>Speed 4.1 km/h Distance 33.18 km</desc>
<time>2010-06-13T08:45:10.02</time>
<name>7662</name>
</trkpt>
<trkpt lat="49.187782" lon="11.823702">
<ele>571.6</ele>
<speed>3.9</speed>
<course>338.5</course>
<desc>Speed 3.9 km/h Distance 33.18 km</desc>
<time>2010-06-13T08:45:11.02</time>
<name>7663</name>
</trkpt>
<trkpt lat="49.187790" lon="11.823697">
<ele>571.3</ele>
<speed>3.3</speed>
<course>277.3</course>
<desc>Speed 3.3 km/h Distance 33.18 km</desc>
<time>2010-06-13T08:45:12.02</time>
<name>7664</name>
</trkpt>
<trkpt lat="49.187792" lon="11.823677">
<ele>570.6</ele>
<speed>4.9</speed>
<course>264.5</course>
<desc>Speed 4.9 km/h Distance 33.18 km</desc>
<time>2010-06-13T08:45:13.02</time>
<name>7665</name>
</trkpt>
<trkpt lat="49.187790" lon="11.823650">
<ele>571.1</ele>
<speed>4.5</speed>
<course>279.1</course>
<desc>Speed 4.5 km/h Distance 33.18 km</desc>
<time>2010-06-13T08:45:14.02</time>
<name>7666</name>
</trkpt>
<trkpt lat="49.187793" lon="11.823618">
<ele>572.7</ele>
<speed>4.2</speed>
<course>256.7</course>
<desc>Speed 4.2 km/h Distance 33.18 km</desc>
<time>2010-06-13T08:45:15.02</time>
<name>7667</name>
</trkpt>
<trkpt lat="49.187790" lon="11.823597">
<ele>573.5</ele>
<speed>3.4</speed>
<course>254.4</course>
<desc>Speed 3.4 km/h Distance 33.18 km</desc>
<time>2010-06-13T08:45:16.02</time>
<name>7668</name>
</trkpt>
<trkpt lat="49.187787" lon="11.823578">
<ele>573.8</ele>
<speed>3.3</speed>
<course>293.0</course>
<desc>Speed 3.3 km/h Distance 33.19 km</desc>
<time>2010-06-13T08:45:17.02</time>
<name>7669</name>
</trkpt>
<trkpt lat="49.187795" lon="11.823548">
<ele>574.8</ele>
<speed>3.6</speed>
<course>305.6</course>
<desc>Speed 3.6 km/h Distance 33.19 km</desc>
<time>2010-06-13T08:45:18.02</time>
<name>7670</name>
</trkpt>
<trkpt lat="49.187807" lon="11.823523">
<ele>575.0</ele>
<speed>5.4</speed>
<course>275.5</course>
<desc>Speed 5.4 km/h Distance 33.19 km</desc>
<time>2010-06-13T08:45:19.02</time>
<name>7671</name>
</trkpt>
<trkpt lat="49.187808" lon="11.823497">
<ele>574.7</ele>
<speed>5.0</speed>
<course>256.4</course>
<desc>Speed 5.0 km/h Distance 33.19 km</desc>
<time>2010-06-13T08:45:20.02</time>
<name>7672</name>
</trkpt>
<trkpt lat="49.187803" lon="11.823465">
<ele>574.5</ele>
<speed>4.3</speed>
<course>222.0</course>
<desc>Speed 4.3 km/h Distance 33.20 km</desc>
<time>2010-06-13T08:45:21.02</time>
<name>7673</name>
</trkpt>
<trkpt lat="49.187790" lon="11.823447">
<ele>573.5</ele>
<speed>3.5</speed>
<course>255.7</course>
<desc>Speed 3.5 km/h Distance 33.20 km</desc>
<time>2010-06-13T08:45:22.02</time>
<name>7674</name>
</trkpt>
<trkpt lat="49.187787" lon="11.823427">
<ele>573.0</ele>
<speed>2.4</speed>
<course>270.0</course>
<desc>Speed 2.4 km/h Distance 33.20 km</desc>
<time>2010-06-13T08:45:23.02</time>
<name>7675</name>
</trkpt>
<trkpt lat="49.187787" lon="11.823410">
<ele>571.7</ele>
<speed>3.0</speed>
<course>202.1</course>
<desc>Speed 3.0 km/h Distance 33.20 km</desc>
<time>2010-06-13T08:45:24.02</time>
<name>7676</name>
</trkpt>
<trkpt lat="49.187773" lon="11.823402">
<ele>571.1</ele>
<speed>4.5</speed>
<course>224.5</course>
<desc>Speed 4.5 km/h Distance 33.20 km</desc>
<time>2010-06-13T08:45:25.02</time>
<name>7677</name>
</trkpt>
<trkpt lat="49.187767" lon="11.823392">
<ele>570.8</ele>
<speed>3.7</speed>
<course>174.7</course>
<desc>Speed 3.7 km/h Distance 33.20 km</desc>
<time>2010-06-13T08:45:26.02</time>
<name>7678</name>
</trkpt>
<trkpt lat="49.187753" lon="11.823393">
<ele>571.2</ele>
<speed>4.3</speed>
<course>169.6</course>
<desc>Speed 4.3 km/h Distance 33.20 km</desc>
<time>2010-06-13T08:45:27.02</time>
<name>7679</name>
</trkpt>
<trkpt lat="49.187742" lon="11.823397">
<ele>571.6</ele>
<speed>2.7</speed>
<course>199.9</course>
<desc>Speed 2.7 km/h Distance 33.21 km</desc>
<time>2010-06-13T08:45:28.02</time>
<name>7680</name>
</trkpt>
<trkpt lat="49.187697" lon="11.823372">
<ele>579.1</ele>
<speed>5.1</speed>
<course>226.7</course>
<desc>Speed 5.1 km/h Distance 33.21 km</desc>
<time>2010-06-13T08:45:32.02</time>
<name>7681</name>
</trkpt>
<trkpt lat="49.187683" lon="11.823350">
<ele>579.1</ele>
<speed>3.2</speed>
<course>325.9</course>
<desc>Speed 3.2 km/h Distance 33.21 km</desc>
<time>2010-06-13T08:45:33.02</time>
<name>7682</name>
</trkpt>
<trkpt lat="49.187688" lon="11.823345">
<ele>579.1</ele>
<speed>2.1</speed>
<course>138.9</course>
<desc>Speed 2.1 km/h Distance 33.21 km</desc>
<time>2010-06-13T08:45:34.02</time>
<name>7683</name>
</trkpt>
<trkpt lat="49.187653" lon="11.823392">
<ele>586.1</ele>
<speed>5.1</speed>
<course>56.7</course>
<desc>Speed 5.1 km/h Distance 33.22 km</desc>
<time>2010-06-13T08:45:36.02</time>
<name>7684</name>
</trkpt>
<trkpt lat="49.187658" lon="11.823403">
<ele>585.0</ele>
<speed>4.4</speed>
<course>193.5</course>
<desc>Speed 4.4 km/h Distance 33.22 km</desc>
<time>2010-06-13T08:45:37.02</time>
<name>7685</name>
</trkpt>
<trkpt lat="49.187645" lon="11.823398">
<ele>582.5</ele>
<speed>6.3</speed>
<course>160.7</course>
<desc>Speed 6.3 km/h Distance 33.22 km</desc>
<time>2010-06-13T08:45:38.02</time>
<name>7686</name>
</trkpt>
<trkpt lat="49.187620" lon="11.823412">
<ele>582.5</ele>
<speed>8.4</speed>
<course>187.0</course>
<desc>Speed 8.4 km/h Distance 33.22 km</desc>
<time>2010-06-13T08:45:39.02</time>
<name>7687</name>
</trkpt>
<trkpt lat="49.187585" lon="11.823405">
<ele>581.8</ele>
<speed>10.9</speed>
<course>160.3</course>
<desc>Speed 10.9 km/h Distance 33.23 km</desc>
<time>2010-06-13T08:45:40.02</time>
<name>7688</name>
</trkpt>
<trkpt lat="49.187548" lon="11.823425">
<ele>579.6</ele>
<speed>12.1</speed>
<course>191.4</course>
<desc>Speed 12.1 km/h Distance 33.23 km</desc>
<time>2010-06-13T08:45:41.02</time>
<name>7689</name>
</trkpt>
<trkpt lat="49.187505" lon="11.823412">
<ele>576.1</ele>
<speed>12.1</speed>
<course>175.9</course>
<desc>Speed 12.1 km/h Distance 33.24 km</desc>
<time>2010-06-13T08:45:42.02</time>
<name>7690</name>
</trkpt>
<trkpt lat="49.187460" lon="11.823417">
<ele>574.7</ele>
<speed>12.1</speed>
<course>169.8</course>
<desc>Speed 12.1 km/h Distance 33.24 km</desc>
<time>2010-06-13T08:45:43.02</time>
<name>7691</name>
</trkpt>
<trkpt lat="49.187430" lon="11.823425">
<ele>572.6</ele>
<speed>11.2</speed>
<course>170.6</course>
<desc>Speed 11.2 km/h Distance 33.25 km</desc>
<time>2010-06-13T08:45:44.02</time>
<name>7692</name>
</trkpt>
<trkpt lat="49.187338" lon="11.823448">
<ele>570.3</ele>
<speed>15.3</speed>
<course>180.0</course>
<desc>Speed 15.3 km/h Distance 33.26 km</desc>
<time>2010-06-13T08:45:46.02</time>
<name>7693</name>
</trkpt>
<trkpt lat="49.187293" lon="11.823448">
<ele>569.1</ele>
<speed>13.6</speed>
<course>159.5</course>
<desc>Speed 13.6 km/h Distance 33.26 km</desc>
<time>2010-06-13T08:45:47.02</time>
<name>7694</name>
</trkpt>
<trkpt lat="49.187270" lon="11.823462">
<ele>566.4</ele>
<speed>11.1</speed>
<course>170.2</course>
<desc>Speed 11.1 km/h Distance 33.26 km</desc>
<time>2010-06-13T08:45:48.02</time>
<name>7695</name>
</trkpt>
<trkpt lat="49.187245" lon="11.823468">
<ele>564.1</ele>
<speed>10.3</speed>
<course>175.0</course>
<desc>Speed 10.3 km/h Distance 33.27 km</desc>
<time>2010-06-13T08:45:49.02</time>
<name>7696</name>
</trkpt>
<trkpt lat="49.187220" lon="11.823472">
<ele>561.5</ele>
<speed>8.3</speed>
<course>259.2</course>
<desc>Speed 8.3 km/h Distance 33.27 km</desc>
<time>2010-06-13T08:45:50.02</time>
<name>7697</name>
</trkpt>
<trkpt lat="49.187218" lon="11.823458">
<ele>560.0</ele>
<speed>5.3</speed>
<course>58.6</course>
<desc>Speed 5.3 km/h Distance 33.27 km</desc>
<time>2010-06-13T08:45:51.02</time>
<name>7698</name>
</trkpt>
<trkpt lat="49.187222" lon="11.823467">
<ele>557.4</ele>
<speed>3.5</speed>
<course>23.4</course>
<desc>Speed 3.5 km/h Distance 33.27 km</desc>
<time>2010-06-13T08:45:52.02</time>
<name>7699</name>
</trkpt>
<trkpt lat="49.187232" lon="11.823473">
<ele>554.4</ele>
<speed>4.8</speed>
<course>127.4</course>
<desc>Speed 4.8 km/h Distance 33.27 km</desc>
<time>2010-06-13T08:45:53.02</time>
<name>7700</name>
</trkpt>
<trkpt lat="49.187222" lon="11.823493">
<ele>553.4</ele>
<speed>7.0</speed>
<course>127.9</course>
<desc>Speed 7.0 km/h Distance 33.27 km</desc>
<time>2010-06-13T08:45:54.02</time>
<name>7701</name>
</trkpt>
<trkpt lat="49.187175" lon="11.823585">
<ele>556.6</ele>
<speed>12.6</speed>
<course>111.5</course>
<desc>Speed 12.6 km/h Distance 33.28 km</desc>
<time>2010-06-13T08:45:56.02</time>
<name>7702</name>
</trkpt>
<trkpt lat="49.187160" lon="11.823643">
<ele>554.8</ele>
<speed>14.9</speed>
<course>112.6</course>
<desc>Speed 14.9 km/h Distance 33.29 km</desc>
<time>2010-06-13T08:45:57.02</time>
<name>7703</name>
</trkpt>
<trkpt lat="49.187145" lon="11.823698">
<ele>555.5</ele>
<speed>15.3</speed>
<course>113.8</course>
<desc>Speed 15.3 km/h Distance 33.29 km</desc>
<time>2010-06-13T08:45:58.02</time>
<name>7704</name>
</trkpt>
<trkpt lat="49.187123" lon="11.823773">
<ele>555.2</ele>
<speed>15.4</speed>
<course>115.9</course>
<desc>Speed 15.4 km/h Distance 33.30 km</desc>
<time>2010-06-13T08:45:59.02</time>
<name>7705</name>
</trkpt>
<trkpt lat="49.187102" lon="11.823842">
<ele>554.1</ele>
<speed>17.5</speed>
<course>110.0</course>
<desc>Speed 17.5 km/h Distance 33.30 km</desc>
<time>2010-06-13T08:46:00.02</time>
<name>7706</name>
</trkpt>
<trkpt lat="49.187085" lon="11.823912">
<ele>552.3</ele>
<speed>17.3</speed>
<course>111.7</course>
<desc>Speed 17.3 km/h Distance 33.31 km</desc>
<time>2010-06-13T08:46:01.02</time>
<name>7707</name>
</trkpt>
<trkpt lat="49.187033" lon="11.824110">
<ele>552.4</ele>
<speed>22.8</speed>
<course>113.1</course>
<desc>Speed 22.8 km/h Distance 33.32 km</desc>
<time>2010-06-13T08:46:03.02</time>
<name>7708</name>
</trkpt>
<trkpt lat="49.186973" lon="11.824325">
<ele>553.4</ele>
<speed>25.8</speed>
<course>121.5</course>
<desc>Speed 25.8 km/h Distance 33.34 km</desc>
<time>2010-06-13T08:46:05.02</time>
<name>7709</name>
</trkpt>
<trkpt lat="49.186937" lon="11.824417">
<ele>552.4</ele>
<speed>24.9</speed>
<course>125.2</course>
<desc>Speed 24.9 km/h Distance 33.35 km</desc>
<time>2010-06-13T08:46:06.02</time>
<name>7710</name>
</trkpt>
<trkpt lat="49.186887" lon="11.824525">
<ele>545.0</ele>
<speed>20.8</speed>
<course>127.4</course>
<desc>Speed 20.8 km/h Distance 33.36 km</desc>
<time>2010-06-13T08:46:08.02</time>
<name>7711</name>
</trkpt>
<trkpt lat="49.186832" lon="11.824635">
<ele>526.3</ele>
<speed>21.1</speed>
<course>138.5</course>
<desc>Speed 21.1 km/h Distance 33.37 km</desc>
<time>2010-06-13T08:46:11.02</time>
<name>7712</name>
</trkpt>
<trkpt lat="49.186780" lon="11.824705">
<ele>526.8</ele>
<speed>20.9</speed>
<course>131.9</course>
<desc>Speed 20.9 km/h Distance 33.38 km</desc>
<time>2010-06-13T08:46:12.02</time>
<name>7713</name>
</trkpt>
<trkpt lat="49.186735" lon="11.824782">
<ele>528.3</ele>
<speed>19.2</speed>
<course>125.4</course>
<desc>Speed 19.2 km/h Distance 33.38 km</desc>
<time>2010-06-13T08:46:13.02</time>
<name>7714</name>
</trkpt>
<trkpt lat="49.186702" lon="11.824853">
<ele>528.3</ele>
<speed>16.8</speed>
<course>132.3</course>
<desc>Speed 16.8 km/h Distance 33.39 km</desc>
<time>2010-06-13T08:46:14.02</time>
<name>7715</name>
</trkpt>
<trkpt lat="49.186670" lon="11.824907">
<ele>529.6</ele>
<speed>14.1</speed>
<course>151.5</course>
<desc>Speed 14.1 km/h Distance 33.40 km</desc>
<time>2010-06-13T08:46:15.02</time>
<name>7716</name>
</trkpt>
<trkpt lat="49.186640" lon="11.824932">
<ele>531.7</ele>
<speed>10.8</speed>
<course>156.3</course>
<desc>Speed 10.8 km/h Distance 33.40 km</desc>
<time>2010-06-13T08:46:16.02</time>
<name>7717</name>
</trkpt>
<trkpt lat="49.186615" lon="11.824948">
<ele>533.6</ele>
<speed>7.3</speed>
<course>166.7</course>
<desc>Speed 7.3 km/h Distance 33.40 km</desc>
<time>2010-06-13T08:46:17.02</time>
<name>7718</name>
</trkpt>
<trkpt lat="49.186597" lon="11.824955">
<ele>535.2</ele>
<speed>4.5</speed>
<course>150.2</course>
<desc>Speed 4.5 km/h Distance 33.40 km</desc>
<time>2010-06-13T08:46:18.02</time>
<name>7719</name>
</trkpt>
<trkpt lat="49.186583" lon="11.824967">
<ele>536.8</ele>
<speed>3.0</speed>
<course>187.4</course>
<desc>Speed 3.0 km/h Distance 33.41 km</desc>
<time>2010-06-13T08:46:19.02</time>
<name>7720</name>
</trkpt>
<trkpt lat="49.186577" lon="11.824965">
<ele>537.9</ele>
<speed>1.2</speed>
<course>36.4</course>
<desc>Speed 1.2 km/h Distance 33.41 km</desc>
<time>2010-06-13T08:46:20.02</time>
<name>7721</name>
</trkpt>
<trkpt lat="49.186590" lon="11.824980">
<ele>537.2</ele>
<speed>1.9</speed>
<course>22.1</course>
<desc>Speed 1.9 km/h Distance 33.41 km</desc>
<time>2010-06-13T08:46:21.02</time>
<name>7722</name>
</trkpt>
<trkpt lat="49.186603" lon="11.824988">
<ele>535.9</ele>
<speed>2.3</speed>
<course>357.8</course>
<desc>Speed 2.3 km/h Distance 33.41 km</desc>
<time>2010-06-13T08:46:22.02</time>
<name>7723</name>
</trkpt>
<trkpt lat="49.186627" lon="11.824987">
<ele>535.1</ele>
<speed>3.0</speed>
<course>5.6</course>
<desc>Speed 3.0 km/h Distance 33.41 km</desc>
<time>2010-06-13T08:46:23.02</time>
<name>7724</name>
</trkpt>
<trkpt lat="49.186647" lon="11.824990">
<ele>533.6</ele>
<speed>1.8</speed>
<course>27.0</course>
<desc>Speed 1.8 km/h Distance 33.42 km</desc>
<time>2010-06-13T08:46:24.02</time>
<name>7725</name>
</trkpt>
<trkpt lat="49.186655" lon="11.824997">
<ele>531.7</ele>
<speed>1.1</speed>
<course>130.5</course>
<desc>Speed 1.1 km/h Distance 33.42 km</desc>
<time>2010-06-13T08:46:25.02</time>
<name>7726</name>
</trkpt>
<trkpt lat="49.186647" lon="11.825012">
<ele>530.0</ele>
<speed>1.5</speed>
<course>157.3</course>
<desc>Speed 1.5 km/h Distance 33.42 km</desc>
<time>2010-06-13T08:46:26.02</time>
<name>7727</name>
</trkpt>
<trkpt lat="49.186605" lon="11.825038">
<ele>529.1</ele>
<speed>5.8</speed>
<course>161.8</course>
<desc>Speed 5.8 km/h Distance 33.42 km</desc>
<time>2010-06-13T08:46:28.02</time>
<name>7728</name>
</trkpt>
<trkpt lat="49.186585" lon="11.825048">
<ele>530.5</ele>
<speed>4.0</speed>
<course>90.0</course>
<desc>Speed 4.0 km/h Distance 33.42 km</desc>
<time>2010-06-13T08:46:29.02</time>
<name>7729</name>
</trkpt>
<trkpt lat="49.186585" lon="11.825058">
<ele>530.5</ele>
<speed>2.0</speed>
<course>33.3</course>
<desc>Speed 2.0 km/h Distance 33.43 km</desc>
<time>2010-06-13T08:46:30.02</time>
<name>7730</name>
</trkpt>
<trkpt lat="49.186597" lon="11.825070">
<ele>530.5</ele>
<speed>4.2</speed>
<course>37.7</course>
<desc>Speed 4.2 km/h Distance 33.43 km</desc>
<time>2010-06-13T08:46:31.02</time>
<name>7731</name>
</trkpt>
<trkpt lat="49.186615" lon="11.825092">
<ele>530.5</ele>
<speed>7.7</speed>
<course>41.9</course>
<desc>Speed 7.7 km/h Distance 33.43 km</desc>
<time>2010-06-13T08:46:32.02</time>
<name>7732</name>
</trkpt>
<trkpt lat="49.186642" lon="11.825128">
<ele>530.5</ele>
<speed>11.8</speed>
<course>42.7</course>
<desc>Speed 11.8 km/h Distance 33.43 km</desc>
<time>2010-06-13T08:46:33.02</time>
<name>7733</name>
</trkpt>
<trkpt lat="49.186670" lon="11.825168">
<ele>530.5</ele>
<speed>13.8</speed>
<course>42.7</course>
<desc>Speed 13.8 km/h Distance 33.44 km</desc>
<time>2010-06-13T08:46:34.02</time>
<name>7734</name>
</trkpt>
<trkpt lat="49.186698" lon="11.825208">
<ele>530.5</ele>
<speed>15.8</speed>
<course>17.5</course>
<desc>Speed 15.8 km/h Distance 33.44 km</desc>
<time>2010-06-13T08:46:35.02</time>
<name>7735</name>
</trkpt>
<trkpt lat="49.186747" lon="11.825232">
<ele>533.5</ele>
<speed>18.0</speed>
<course>30.8</course>
<desc>Speed 18.0 km/h Distance 33.45 km</desc>
<time>2010-06-13T08:46:36.02</time>
<name>7736</name>
</trkpt>
<trkpt lat="49.186785" lon="11.825267">
<ele>533.5</ele>
<speed>18.3</speed>
<course>32.3</course>
<desc>Speed 18.3 km/h Distance 33.45 km</desc>
<time>2010-06-13T08:46:37.02</time>
<name>7737</name>
</trkpt>
<trkpt lat="49.186833" lon="11.825313">
<ele>533.5</ele>
<speed>19.4</speed>
<course>32.2</course>
<desc>Speed 19.4 km/h Distance 33.46 km</desc>
<time>2010-06-13T08:46:38.02</time>
<name>7738</name>
</trkpt>
<trkpt lat="49.186877" lon="11.825355">
<ele>533.5</ele>
<speed>18.8</speed>
<course>12.6</course>
<desc>Speed 18.8 km/h Distance 33.47 km</desc>
<time>2010-06-13T08:46:39.02</time>
<name>7739</name>
</trkpt>
<trkpt lat="49.186935" lon="11.825375">
<ele>536.9</ele>
<speed>19.0</speed>
<course>24.0</course>
<desc>Speed 19.0 km/h Distance 33.47 km</desc>
<time>2010-06-13T08:46:40.02</time>
<name>7740</name>
</trkpt>
<trkpt lat="49.186977" lon="11.825403">
<ele>537.6</ele>
<speed>17.1</speed>
<course>34.4</course>
<desc>Speed 17.1 km/h Distance 33.48 km</desc>
<time>2010-06-13T08:46:41.02</time>
<name>7741</name>
</trkpt>
<trkpt lat="49.187012" lon="11.825440">
<ele>537.6</ele>
<speed>15.9</speed>
<course>27.2</course>
<desc>Speed 15.9 km/h Distance 33.48 km</desc>
<time>2010-06-13T08:46:42.02</time>
<name>7742</name>
</trkpt>
<trkpt lat="49.187105" lon="11.825513">
<ele>541.5</ele>
<speed>16.2</speed>
<course>80.6</course>
<desc>Speed 16.2 km/h Distance 33.49 km</desc>
<time>2010-06-13T08:46:44.02</time>
<name>7743</name>
</trkpt>
<trkpt lat="49.187112" lon="11.825575">
<ele>542.0</ele>
<speed>15.0</speed>
<course>54.6</course>
<desc>Speed 15.0 km/h Distance 33.50 km</desc>
<time>2010-06-13T08:46:45.02</time>
<name>7744</name>
</trkpt>
<trkpt lat="49.187133" lon="11.825622">
<ele>542.0</ele>
<speed>14.8</speed>
<course>44.4</course>
<desc>Speed 14.8 km/h Distance 33.50 km</desc>
<time>2010-06-13T08:46:46.02</time>
<name>7745</name>
</trkpt>
<trkpt lat="49.187167" lon="11.825672">
<ele>542.0</ele>
<speed>17.5</speed>
<course>37.5</course>
<desc>Speed 17.5 km/h Distance 33.51 km</desc>
<time>2010-06-13T08:46:47.02</time>
<name>7746</name>
</trkpt>
<trkpt lat="49.187272" lon="11.825795">
<ele>542.0</ele>
<speed>23.0</speed>
<course>36.0</course>
<desc>Speed 23.0 km/h Distance 33.52 km</desc>
<time>2010-06-13T08:46:49.02</time>
<name>7747</name>
</trkpt>
<trkpt lat="49.187317" lon="11.825845">
<ele>542.0</ele>
<speed>22.4</speed>
<course>41.4</course>
<desc>Speed 22.4 km/h Distance 33.53 km</desc>
<time>2010-06-13T08:46:50.02</time>
<name>7748</name>
</trkpt>
<trkpt lat="49.187355" lon="11.825897">
<ele>542.0</ele>
<speed>21.0</speed>
<course>45.0</course>
<desc>Speed 21.0 km/h Distance 33.53 km</desc>
<time>2010-06-13T08:46:51.02</time>
<name>7749</name>
</trkpt>
<trkpt lat="49.187462" lon="11.826060">
<ele>542.0</ele>
<speed>22.1</speed>
<course>53.7</course>
<desc>Speed 22.1 km/h Distance 33.55 km</desc>
<time>2010-06-13T08:46:53.02</time>
<name>7750</name>
</trkpt>
<trkpt lat="49.187562" lon="11.826268">
<ele>542.0</ele>
<speed>21.0</speed>
<course>62.5</course>
<desc>Speed 21.0 km/h Distance 33.57 km</desc>
<time>2010-06-13T08:46:55.02</time>
<name>7751</name>
</trkpt>
<trkpt lat="49.187588" lon="11.826347">
<ele>542.0</ele>
<speed>19.2</speed>
<course>44.7</course>
<desc>Speed 19.2 km/h Distance 33.58 km</desc>
<time>2010-06-13T08:46:56.02</time>
<name>7752</name>
</trkpt>
<trkpt lat="49.187695" lon="11.826508">
<ele>542.0</ele>
<speed>22.8</speed>
<course>36.5</course>
<desc>Speed 22.8 km/h Distance 33.59 km</desc>
<time>2010-06-13T08:46:58.02</time>
<name>7753</name>
</trkpt>
<trkpt lat="49.187745" lon="11.826565">
<ele>542.0</ele>
<speed>23.4</speed>
<course>38.5</course>
<desc>Speed 23.4 km/h Distance 33.60 km</desc>
<time>2010-06-13T08:46:59.02</time>
<name>7754</name>
</trkpt>
<trkpt lat="49.187783" lon="11.826612">
<ele>542.0</ele>
<speed>22.7</speed>
<course>36.3</course>
<desc>Speed 22.7 km/h Distance 33.60 km</desc>
<time>2010-06-13T08:47:00.02</time>
<name>7755</name>
</trkpt>
<trkpt lat="49.187823" lon="11.826657">
<ele>542.0</ele>
<speed>21.2</speed>
<course>39.8</course>
<desc>Speed 21.2 km/h Distance 33.61 km</desc>
<time>2010-06-13T08:47:01.02</time>
<name>7756</name>
</trkpt>
<trkpt lat="49.187872" lon="11.826718">
<ele>542.0</ele>
<speed>20.5</speed>
<course>44.4</course>
<desc>Speed 20.5 km/h Distance 33.62 km</desc>
<time>2010-06-13T08:47:02.02</time>
<name>7757</name>
</trkpt>
<trkpt lat="49.187918" lon="11.826788">
<ele>542.0</ele>
<speed>20.6</speed>
<course>57.9</course>
<desc>Speed 20.6 km/h Distance 33.62 km</desc>
<time>2010-06-13T08:47:03.02</time>
<name>7758</name>
</trkpt>
<trkpt lat="49.187945" lon="11.826853">
<ele>542.0</ele>
<speed>18.4</speed>
<course>72.0</course>
<desc>Speed 18.4 km/h Distance 33.63 km</desc>
<time>2010-06-13T08:47:04.02</time>
<name>7759</name>
</trkpt>
<trkpt lat="49.187957" lon="11.826908">
<ele>542.0</ele>
<speed>15.6</speed>
<course>59.9</course>
<desc>Speed 15.6 km/h Distance 33.63 km</desc>
<time>2010-06-13T08:47:05.02</time>
<name>7760</name>
</trkpt>
<trkpt lat="49.187975" lon="11.826957">
<ele>542.0</ele>
<speed>12.7</speed>
<course>50.5</course>
<desc>Speed 12.7 km/h Distance 33.64 km</desc>
<time>2010-06-13T08:47:06.02</time>
<name>7761</name>
</trkpt>
<trkpt lat="49.187998" lon="11.827000">
<ele>542.0</ele>
<speed>11.3</speed>
<course>63.0</course>
<desc>Speed 11.3 km/h Distance 33.64 km</desc>
<time>2010-06-13T08:47:07.02</time>
<name>7762</name>
</trkpt>
<trkpt lat="49.188012" lon="11.827040">
<ele>542.0</ele>
<speed>10.7</speed>
<course>58.5</course>
<desc>Speed 10.7 km/h Distance 33.65 km</desc>
<time>2010-06-13T08:47:08.02</time>
<name>7763</name>
</trkpt>
<trkpt lat="49.188028" lon="11.827082">
<ele>542.0</ele>
<speed>10.5</speed>
<course>56.9</course>
<desc>Speed 10.5 km/h Distance 33.65 km</desc>
<time>2010-06-13T08:47:09.02</time>
<name>7764</name>
</trkpt>
<trkpt lat="49.188077" lon="11.827195">
<ele>542.0</ele>
<speed>12.6</speed>
<course>75.7</course>
<desc>Speed 12.6 km/h Distance 33.66 km</desc>
<time>2010-06-13T08:47:11.02</time>
<name>7765</name>
</trkpt>
<trkpt lat="49.188085" lon="11.827245">
<ele>542.0</ele>
<speed>11.2</speed>
<course>85.4</course>
<desc>Speed 11.2 km/h Distance 33.66 km</desc>
<time>2010-06-13T08:47:12.02</time>
<name>7766</name>
</trkpt>
<trkpt lat="49.188087" lon="11.827277">
<ele>542.0</ele>
<speed>8.8</speed>
<course>115.6</course>
<desc>Speed 8.8 km/h Distance 33.67 km</desc>
<time>2010-06-13T08:47:13.02</time>
<name>7767</name>
</trkpt>
<trkpt lat="49.188078" lon="11.827303">
<ele>542.0</ele>
<speed>9.0</speed>
<course>65.0</course>
<desc>Speed 9.0 km/h Distance 33.67 km</desc>
<time>2010-06-13T08:47:14.02</time>
<name>7768</name>
</trkpt>
<trkpt lat="49.188090" lon="11.827342">
<ele>542.0</ele>
<speed>12.3</speed>
<course>50.2</course>
<desc>Speed 12.3 km/h Distance 33.67 km</desc>
<time>2010-06-13T08:47:15.02</time>
<name>7769</name>
</trkpt>
<trkpt lat="49.188152" lon="11.827455">
<ele>542.0</ele>
<speed>13.0</speed>
<course>57.3</course>
<desc>Speed 13.0 km/h Distance 33.68 km</desc>
<time>2010-06-13T08:47:17.02</time>
<name>7770</name>
</trkpt>
<trkpt lat="49.188173" lon="11.827507">
<ele>542.0</ele>
<speed>12.1</speed>
<course>63.8</course>
<desc>Speed 12.1 km/h Distance 33.69 km</desc>
<time>2010-06-13T08:47:18.02</time>
<name>7771</name>
</trkpt>
<trkpt lat="49.188188" lon="11.827553">
<ele>542.0</ele>
<speed>12.3</speed>
<course>62.1</course>
<desc>Speed 12.3 km/h Distance 33.69 km</desc>
<time>2010-06-13T08:47:19.02</time>
<name>7772</name>
</trkpt>
<trkpt lat="49.188203" lon="11.827597">
<ele>542.0</ele>
<speed>11.1</speed>
<course>70.8</course>
<desc>Speed 11.1 km/h Distance 33.69 km</desc>
<time>2010-06-13T08:47:20.02</time>
<name>7773</name>
</trkpt>
<trkpt lat="49.188212" lon="11.827633">
<ele>542.0</ele>
<speed>10.6</speed>
<course>45.5</course>
<desc>Speed 10.6 km/h Distance 33.70 km</desc>
<time>2010-06-13T08:47:21.02</time>
<name>7774</name>
</trkpt>
<trkpt lat="49.188242" lon="11.827680">
<ele>542.0</ele>
<speed>10.7</speed>
<course>40.7</course>
<desc>Speed 10.7 km/h Distance 33.70 km</desc>
<time>2010-06-13T08:47:22.02</time>
<name>7775</name>
</trkpt>
<trkpt lat="49.188273" lon="11.827722">
<ele>542.0</ele>
<speed>13.5</speed>
<course>36.4</course>
<desc>Speed 13.5 km/h Distance 33.71 km</desc>
<time>2010-06-13T08:47:23.02</time>
<name>7776</name>
</trkpt>
<trkpt lat="49.188378" lon="11.827840">
<ele>542.0</ele>
<speed>17.1</speed>
<course>40.2</course>
<desc>Speed 17.1 km/h Distance 33.72 km</desc>
<time>2010-06-13T08:47:25.02</time>
<name>7777</name>
</trkpt>
<trkpt lat="49.188470" lon="11.827958">
<ele>542.0</ele>
<speed>18.1</speed>
<course>47.1</course>
<desc>Speed 18.1 km/h Distance 33.73 km</desc>
<time>2010-06-13T08:47:27.02</time>
<name>7778</name>
</trkpt>
<trkpt lat="49.188498" lon="11.828005">
<ele>542.0</ele>
<speed>15.8</speed>
<course>46.3</course>
<desc>Speed 15.8 km/h Distance 33.74 km</desc>
<time>2010-06-13T08:47:28.02</time>
<name>7779</name>
</trkpt>
<trkpt lat="49.188523" lon="11.828045">
<ele>542.0</ele>
<speed>14.0</speed>
<course>59.5</course>
<desc>Speed 14.0 km/h Distance 33.74 km</desc>
<time>2010-06-13T08:47:29.02</time>
<name>7780</name>
</trkpt>
<trkpt lat="49.188540" lon="11.828088">
<ele>542.0</ele>
<speed>13.6</speed>
<course>60.2</course>
<desc>Speed 13.6 km/h Distance 33.75 km</desc>
<time>2010-06-13T08:47:30.02</time>
<name>7781</name>
</trkpt>
<trkpt lat="49.188560" lon="11.828142">
<ele>542.0</ele>
<speed>14.5</speed>
<course>72.0</course>
<desc>Speed 14.5 km/h Distance 33.75 km</desc>
<time>2010-06-13T08:47:31.02</time>
<name>7782</name>
</trkpt>
<trkpt lat="49.188572" lon="11.828197">
<ele>542.0</ele>
<speed>13.2</speed>
<course>87.1</course>
<desc>Speed 13.2 km/h Distance 33.75 km</desc>
<time>2010-06-13T08:47:32.02</time>
<name>7783</name>
</trkpt>
<trkpt lat="49.188573" lon="11.828247">
<ele>542.0</ele>
<speed>14.3</speed>
<course>113.1</course>
<desc>Speed 14.3 km/h Distance 33.76 km</desc>
<time>2010-06-13T08:47:33.02</time>
<name>7784</name>
</trkpt>
<trkpt lat="49.188553" lon="11.828318">
<ele>559.0</ele>
<speed>14.7</speed>
<course>105.7</course>
<desc>Speed 14.7 km/h Distance 33.76 km</desc>
<time>2010-06-13T08:47:34.02</time>
<name>7785</name>
</trkpt>
<trkpt lat="49.188542" lon="11.828382">
<ele>557.5</ele>
<speed>15.4</speed>
<course>109.4</course>
<desc>Speed 15.4 km/h Distance 33.77 km</desc>
<time>2010-06-13T08:47:35.02</time>
<name>7786</name>
</trkpt>
<trkpt lat="49.188527" lon="11.828447">
<ele>556.0</ele>
<speed>14.0</speed>
<course>117.7</course>
<desc>Speed 14.0 km/h Distance 33.77 km</desc>
<time>2010-06-13T08:47:36.02</time>
<name>7787</name>
</trkpt>
<trkpt lat="49.188508" lon="11.828500">
<ele>556.0</ele>
<speed>14.3</speed>
<course>118.6</course>
<desc>Speed 14.3 km/h Distance 33.78 km</desc>
<time>2010-06-13T08:47:37.02</time>
<name>7788</name>
</trkpt>
<trkpt lat="49.188492" lon="11.828547">
<ele>556.0</ele>
<speed>12.0</speed>
<course>71.5</course>
<desc>Speed 12.0 km/h Distance 33.78 km</desc>
<time>2010-06-13T08:47:38.02</time>
<name>7789</name>
</trkpt>
<trkpt lat="49.188503" lon="11.828600">
<ele>556.0</ele>
<speed>10.5</speed>
<course>117.0</course>
<desc>Speed 10.5 km/h Distance 33.79 km</desc>
<time>2010-06-13T08:47:39.02</time>
<name>7790</name>
</trkpt>
<trkpt lat="49.188493" lon="11.828630">
<ele>556.0</ele>
<speed>7.9</speed>
<course>125.6</course>
<desc>Speed 7.9 km/h Distance 33.79 km</desc>
<time>2010-06-13T08:47:40.02</time>
<name>7791</name>
</trkpt>
<trkpt lat="49.188482" lon="11.828655">
<ele>556.0</ele>
<speed>7.9</speed>
<course>77.7</course>
<desc>Speed 7.9 km/h Distance 33.79 km</desc>
<time>2010-06-13T08:47:41.02</time>
<name>7792</name>
</trkpt>
<trkpt lat="49.188487" lon="11.828690">
<ele>556.0</ele>
<speed>7.5</speed>
<course>66.2</course>
<desc>Speed 7.5 km/h Distance 33.79 km</desc>
<time>2010-06-13T08:47:42.02</time>
<name>7793</name>
</trkpt>
<trkpt lat="49.188512" lon="11.828777">
<ele>556.0</ele>
<speed>9.6</speed>
<course>56.8</course>
<desc>Speed 9.6 km/h Distance 33.80 km</desc>
<time>2010-06-13T08:47:44.02</time>
<name>7794</name>
</trkpt>
<trkpt lat="49.188532" lon="11.828823">
<ele>556.0</ele>
<speed>9.3</speed>
<course>52.6</course>
<desc>Speed 9.3 km/h Distance 33.80 km</desc>
<time>2010-06-13T08:47:45.02</time>
<name>7795</name>
</trkpt>
<trkpt lat="49.188552" lon="11.828863">
<ele>556.0</ele>
<speed>10.8</speed>
<course>55.5</course>
<desc>Speed 10.8 km/h Distance 33.81 km</desc>
<time>2010-06-13T08:47:46.02</time>
<name>7796</name>
</trkpt>
<trkpt lat="49.188573" lon="11.828912">
<ele>556.0</ele>
<speed>12.0</speed>
<course>64.8</course>
<desc>Speed 12.0 km/h Distance 33.81 km</desc>
<time>2010-06-13T08:47:47.02</time>
<name>7797</name>
</trkpt>
<trkpt lat="49.188587" lon="11.828955">
<ele>556.0</ele>
<speed>11.7</speed>
<course>66.4</course>
<desc>Speed 11.7 km/h Distance 33.82 km</desc>
<time>2010-06-13T08:47:48.02</time>
<name>7798</name>
</trkpt>
<trkpt lat="49.188600" lon="11.829002">
<ele>556.0</ele>
<speed>9.8</speed>
<course>107.8</course>
<desc>Speed 9.8 km/h Distance 33.82 km</desc>
<time>2010-06-13T08:47:49.02</time>
<name>7799</name>
</trkpt>
<trkpt lat="49.188593" lon="11.829033">
<ele>556.0</ele>
<speed>8.6</speed>
<course>59.0</course>
<desc>Speed 8.6 km/h Distance 33.82 km</desc>
<time>2010-06-13T08:47:50.02</time>
<name>7800</name>
</trkpt>
<trkpt lat="49.188612" lon="11.829080">
<ele>556.0</ele>
<speed>8.7</speed>
<course>74.1</course>
<desc>Speed 8.7 km/h Distance 33.83 km</desc>
<time>2010-06-13T08:47:51.02</time>
<name>7801</name>
</trkpt>
<trkpt lat="49.188625" lon="11.829152">
<ele>556.0</ele>
<speed>7.0</speed>
<course>61.6</course>
<desc>Speed 7.0 km/h Distance 33.83 km</desc>
<time>2010-06-13T08:47:53.02</time>
<name>7802</name>
</trkpt>
<trkpt lat="49.188635" lon="11.829180">
<ele>556.0</ele>
<speed>6.5</speed>
<course>40.9</course>
<desc>Speed 6.5 km/h Distance 33.83 km</desc>
<time>2010-06-13T08:47:54.02</time>
<name>7803</name>
</trkpt>
<trkpt lat="49.188692" lon="11.829255">
<ele>556.0</ele>
<speed>7.3</speed>
<course>45.2</course>
<desc>Speed 7.3 km/h Distance 33.84 km</desc>
<time>2010-06-13T08:47:56.02</time>
<name>7804</name>
</trkpt>
<trkpt lat="49.188713" lon="11.829288">
<ele>556.0</ele>
<speed>8.0</speed>
<course>56.7</course>
<desc>Speed 8.0 km/h Distance 33.84 km</desc>
<time>2010-06-13T08:47:57.02</time>
<name>7805</name>
</trkpt>
<trkpt lat="49.188733" lon="11.829335">
<ele>556.0</ele>
<speed>10.7</speed>
<course>67.4</course>
<desc>Speed 10.7 km/h Distance 33.85 km</desc>
<time>2010-06-13T08:47:58.02</time>
<name>7806</name>
</trkpt>
<trkpt lat="49.188748" lon="11.829390">
<ele>556.0</ele>
<speed>11.1</speed>
<course>59.7</course>
<desc>Speed 11.1 km/h Distance 33.85 km</desc>
<time>2010-06-13T08:47:59.02</time>
<name>7807</name>
</trkpt>
<trkpt lat="49.188770" lon="11.829447">
<ele>556.0</ele>
<speed>11.0</speed>
<course>52.6</course>
<desc>Speed 11.0 km/h Distance 33.86 km</desc>
<time>2010-06-13T08:48:00.02</time>
<name>7808</name>
</trkpt>
<trkpt lat="49.188832" lon="11.829570">
<ele>556.0</ele>
<speed>10.8</speed>
<course>36.5</course>
<desc>Speed 10.8 km/h Distance 33.87 km</desc>
<time>2010-06-13T08:48:02.02</time>
<name>7809</name>
</trkpt>
<trkpt lat="49.188907" lon="11.829655">
<ele>556.0</ele>
<speed>9.3</speed>
<course>42.1</course>
<desc>Speed 9.3 km/h Distance 33.88 km</desc>
<time>2010-06-13T08:48:04.02</time>
<name>7810</name>
</trkpt>
<trkpt lat="49.188972" lon="11.829745">
<ele>556.0</ele>
<speed>11.3</speed>
<course>58.5</course>
<desc>Speed 11.3 km/h Distance 33.89 km</desc>
<time>2010-06-13T08:48:06.02</time>
<name>7811</name>
</trkpt>
<trkpt lat="49.188992" lon="11.829795">
<ele>556.0</ele>
<speed>9.9</speed>
<course>72.0</course>
<desc>Speed 9.9 km/h Distance 33.89 km</desc>
<time>2010-06-13T08:48:07.02</time>
<name>7812</name>
</trkpt>
<trkpt lat="49.189003" lon="11.829850">
<ele>556.0</ele>
<speed>10.2</speed>
<course>87.6</course>
<desc>Speed 10.2 km/h Distance 33.90 km</desc>
<time>2010-06-13T08:48:08.02</time>
<name>7813</name>
</trkpt>
<trkpt lat="49.189005" lon="11.829912">
<ele>556.0</ele>
<speed>10.8</speed>
<course>143.7</course>
<desc>Speed 10.8 km/h Distance 33.90 km</desc>
<time>2010-06-13T08:48:09.02</time>
<name>7814</name>
</trkpt>
<trkpt lat="49.188910" lon="11.830018">
<ele>562.1</ele>
<speed>8.7</speed>
<course>136.1</course>
<desc>Speed 8.7 km/h Distance 33.92 km</desc>
<time>2010-06-13T08:48:11.02</time>
<name>7815</name>
</trkpt>
<trkpt lat="49.188850" lon="11.830107">
<ele>559.5</ele>
<speed>6.8</speed>
<course>100.8</course>
<desc>Speed 6.8 km/h Distance 33.92 km</desc>
<time>2010-06-13T08:48:13.02</time>
<name>7816</name>
</trkpt>
<trkpt lat="49.188845" lon="11.830147">
<ele>559.5</ele>
<speed>9.1</speed>
<course>126.5</course>
<desc>Speed 9.1 km/h Distance 33.93 km</desc>
<time>2010-06-13T08:48:14.02</time>
<name>7817</name>
</trkpt>
<trkpt lat="49.188822" lon="11.830195">
<ele>559.5</ele>
<speed>7.3</speed>
<course>157.0</course>
<desc>Speed 7.3 km/h Distance 33.93 km</desc>
<time>2010-06-13T08:48:15.02</time>
<name>7818</name>
</trkpt>
<trkpt lat="49.188788" lon="11.830217">
<ele>559.5</ele>
<speed>7.3</speed>
<course>143.8</course>
<desc>Speed 7.3 km/h Distance 33.94 km</desc>
<time>2010-06-13T08:48:16.02</time>
<name>7819</name>
</trkpt>
<trkpt lat="49.188733" lon="11.830278">
<ele>559.5</ele>
<speed>5.6</speed>
<course>122.3</course>
<desc>Speed 5.6 km/h Distance 33.94 km</desc>
<time>2010-06-13T08:48:18.02</time>
<name>7820</name>
</trkpt>
<trkpt lat="49.188702" lon="11.830355">
<ele>559.5</ele>
<speed>3.7</speed>
<course>103.9</course>
<desc>Speed 3.7 km/h Distance 33.95 km</desc>
<time>2010-06-13T08:48:20.02</time>
<name>7821</name>
</trkpt>
<trkpt lat="49.188693" lon="11.830407">
<ele>578.2</ele>
<speed>2.8</speed>
<course>110.6</course>
<desc>Speed 2.8 km/h Distance 33.95 km</desc>
<time>2010-06-13T08:48:24.02</time>
<name>7822</name>
</trkpt>
<trkpt lat="49.188670" lon="11.830502">
<ele>584.1</ele>
<speed>0.7</speed>
<course>171.6</course>
<desc>Speed 0.7 km/h Distance 33.96 km</desc>
<time>2010-06-13T08:48:28.02</time>
<name>7823</name>
</trkpt>
<trkpt lat="49.188457" lon="11.830550">
<ele>597.3</ele>
<speed>1.2</speed>
<course>114.7</course>
<desc>Speed 1.2 km/h Distance 33.99 km</desc>
<time>2010-06-13T08:48:37.02</time>
<name>7824</name>
</trkpt>
<trkpt lat="49.188437" lon="11.830617">
<ele>599.2</ele>
<speed>2.7</speed>
<course>65.8</course>
<desc>Speed 2.7 km/h Distance 33.99 km</desc>
<time>2010-06-13T08:48:39.02</time>
<name>7825</name>
</trkpt>
<trkpt lat="49.188445" lon="11.830645">
<ele>599.2</ele>
<speed>3.4</speed>
<course>121.4</course>
<desc>Speed 3.4 km/h Distance 33.99 km</desc>
<time>2010-06-13T08:48:40.02</time>
<name>7826</name>
</trkpt>
<trkpt lat="49.188442" lon="11.830653">
<ele>599.2</ele>
<speed>2.4</speed>
<course>110.9</course>
<desc>Speed 2.4 km/h Distance 33.99 km</desc>
<time>2010-06-13T08:48:41.02</time>
<name>7827</name>
</trkpt>
<trkpt lat="49.188437" lon="11.830673">
<ele>599.2</ele>
<speed>0.8</speed>
<course>167.7</course>
<desc>Speed 0.8 km/h Distance 34.00 km</desc>
<time>2010-06-13T08:48:42.02</time>
<name>7828</name>
</trkpt>
<trkpt lat="49.188367" lon="11.830697">
<ele>607.8</ele>
<speed>1.2</speed>
<course>168.3</course>
<desc>Speed 1.2 km/h Distance 34.00 km</desc>
<time>2010-06-13T08:48:44.02</time>
<name>7829</name>
</trkpt>
<trkpt lat="49.188235" lon="11.830738">
<ele>610.9</ele>
<speed>1.9</speed>
<course>168.4</course>
<desc>Speed 1.9 km/h Distance 34.02 km</desc>
<time>2010-06-13T08:48:47.02</time>
<name>7830</name>
</trkpt>
<trkpt lat="49.188113" lon="11.830777">
<ele>611.6</ele>
<speed>1.8</speed>
<course>158.0</course>
<desc>Speed 1.8 km/h Distance 34.03 km</desc>
<time>2010-06-13T08:48:50.02</time>
<name>7831</name>
</trkpt>
<trkpt lat="49.188000" lon="11.830847">
<ele>616.9</ele>
<speed>0.4</speed>
<course>161.9</course>
<desc>Speed 0.4 km/h Distance 34.05 km</desc>
<time>2010-06-13T08:48:53.03</time>
<name>7832</name>
</trkpt>
<trkpt lat="49.187890" lon="11.830902">
<ele>619.6</ele>
<speed>0.6</speed>
<course>168.9</course>
<desc>Speed 0.6 km/h Distance 34.06 km</desc>
<time>2010-06-13T08:48:56.03</time>
<name>7833</name>
</trkpt>
<trkpt lat="49.187773" lon="11.830937">
<ele>620.0</ele>
<speed>0.3</speed>
<course>161.6</course>
<desc>Speed 0.3 km/h Distance 34.07 km</desc>
<time>2010-06-13T08:48:59.03</time>
<name>7834</name>
</trkpt>
<trkpt lat="49.187675" lon="11.830987">
<ele>620.1</ele>
<speed>0.6</speed>
<course>160.9</course>
<desc>Speed 0.6 km/h Distance 34.08 km</desc>
<time>2010-06-13T08:49:02.03</time>
<name>7835</name>
</trkpt>
<trkpt lat="49.187030" lon="11.831328">
<ele>580.3</ele>
<speed>0.8</speed>
<course>167.2</course>
<desc>Speed 0.8 km/h Distance 34.16 km</desc>
<time>2010-06-13T08:49:08.03</time>
<name>7836</name>
</trkpt>
<trkpt lat="49.186810" lon="11.831405">
<ele>570.9</ele>
<speed>0.9</speed>
<course>168.6</course>
<desc>Speed 0.9 km/h Distance 34.18 km</desc>
<time>2010-06-13T08:49:12.03</time>
<name>7837</name>
</trkpt>
<trkpt lat="49.186740" lon="11.831427">
<ele>567.7</ele>
<speed>0.5</speed>
<course>151.5</course>
<desc>Speed 0.5 km/h Distance 34.19 km</desc>
<time>2010-06-13T08:49:14.03</time>
<name>7838</name>
</trkpt>
<trkpt lat="49.186710" lon="11.831452">
<ele>567.0</ele>
<speed>0.9</speed>
<course>127.6</course>
<desc>Speed 0.9 km/h Distance 34.20 km</desc>
<time>2010-06-13T08:49:16.03</time>
<name>7839</name>
</trkpt>
<trkpt lat="49.186705" lon="11.831462">
<ele>566.2</ele>
<speed>0.9</speed>
<course>102.4</course>
<desc>Speed 0.9 km/h Distance 34.20 km</desc>
<time>2010-06-13T08:49:17.03</time>
<name>7840</name>
</trkpt>
<trkpt lat="49.186703" lon="11.831473">
<ele>563.9</ele>
<speed>1.7</speed>
<course>90.0</course>
<desc>Speed 1.7 km/h Distance 34.20 km</desc>
<time>2010-06-13T08:49:18.03</time>
<name>7841</name>
</trkpt>
<trkpt lat="49.186703" lon="11.831485">
<ele>562.0</ele>
<speed>2.2</speed>
<course>146.2</course>
<desc>Speed 2.2 km/h Distance 34.20 km</desc>
<time>2010-06-13T08:49:19.03</time>
<name>7842</name>
</trkpt>
<trkpt lat="49.186640" lon="11.831550">
<ele>547.1</ele>
<speed>0.6</speed>
<course>144.3</course>
<desc>Speed 0.6 km/h Distance 34.21 km</desc>
<time>2010-06-13T08:49:21.03</time>
<name>7843</name>
</trkpt>
<trkpt lat="49.186607" lon="11.831587">
<ele>542.9</ele>
<speed>1.0</speed>
<course>137.5</course>
<desc>Speed 1.0 km/h Distance 34.21 km</desc>
<time>2010-06-13T08:49:23.03</time>
<name>7844</name>
</trkpt>
<trkpt lat="49.186598" lon="11.831598">
<ele>542.1</ele>
<speed>0.5</speed>
<course>154.0</course>
<desc>Speed 0.5 km/h Distance 34.21 km</desc>
<time>2010-06-13T08:49:24.03</time>
<name>7845</name>
</trkpt>
<trkpt lat="49.186585" lon="11.831608">
<ele>541.9</ele>
<speed>1.4</speed>
<course>154.4</course>
<desc>Speed 1.4 km/h Distance 34.22 km</desc>
<time>2010-06-13T08:49:25.03</time>
<name>7846</name>
</trkpt>
<trkpt lat="49.186578" lon="11.831613">
<ele>541.5</ele>
<speed>1.2</speed>
<course>147.0</course>
<desc>Speed 1.2 km/h Distance 34.22 km</desc>
<time>2010-06-13T08:49:26.03</time>
<name>7847</name>
</trkpt>
<trkpt lat="49.186568" lon="11.831623">
<ele>541.7</ele>
<speed>0.3</speed>
<course>135.5</course>
<desc>Speed 0.3 km/h Distance 34.22 km</desc>
<time>2010-06-13T08:49:27.03</time>
<name>7848</name>
</trkpt>
<trkpt lat="49.186565" lon="11.831628">
<ele>541.9</ele>
<speed>0.6</speed>
<course>152.1</course>
<desc>Speed 0.6 km/h Distance 34.22 km</desc>
<time>2010-06-13T08:49:28.03</time>
<name>7849</name>
</trkpt>
<trkpt lat="49.186557" lon="11.831635">
<ele>542.4</ele>
<speed>0.3</speed>
<course>145.9</course>
<desc>Speed 0.3 km/h Distance 34.22 km</desc>
<time>2010-06-13T08:49:29.03</time>
<name>7850</name>
</trkpt>
<trkpt lat="49.186552" lon="11.831640">
<ele>543.1</ele>
<speed>0.5</speed>
<course>153.6</course>
<desc>Speed 0.5 km/h Distance 34.22 km</desc>
<time>2010-06-13T08:49:30.03</time>
<name>7851</name>
</trkpt>
<trkpt lat="49.186538" lon="11.831650">
<ele>545.3</ele>
<speed>0.8</speed>
<course>145.9</course>
<desc>Speed 0.8 km/h Distance 34.22 km</desc>
<time>2010-06-13T08:49:31.03</time>
<name>7852</name>
</trkpt>
<trkpt lat="49.186533" lon="11.831655">
<ele>546.2</ele>
<speed>0.6</speed>
<course>142.8</course>
<desc>Speed 0.6 km/h Distance 34.22 km</desc>
<time>2010-06-13T08:49:32.03</time>
<name>7853</name>
</trkpt>
<trkpt lat="49.186532" lon="11.831657">
<ele>546.4</ele>
<speed>0.3</speed>
<course>187.5</course>
<desc>Speed 0.3 km/h Distance 34.22 km</desc>
<time>2010-06-13T08:49:33.03</time>
<name>7854</name>
</trkpt>
<trkpt lat="49.186517" lon="11.831653">
<ele>546.1</ele>
<speed>0.4</speed>
<course>347.4</course>
<desc>Speed 0.4 km/h Distance 34.22 km</desc>
<time>2010-06-13T08:49:34.03</time>
<name>7855</name>
</trkpt>
<trkpt lat="49.186522" lon="11.831652">
<ele>545.9</ele>
<speed>1.0</speed>
<course>301.4</course>
<desc>Speed 1.0 km/h Distance 34.22 km</desc>
<time>2010-06-13T08:49:35.03</time>
<name>7856</name>
</trkpt>
<trkpt lat="49.186525" lon="11.831643">
<ele>545.2</ele>
<speed>1.8</speed>
<course>270.0</course>
<desc>Speed 1.8 km/h Distance 34.22 km</desc>
<time>2010-06-13T08:49:36.04</time>
<name>7857</name>
</trkpt>
<trkpt lat="49.186525" lon="11.831640">
<ele>545.7</ele>
<speed>0.6</speed>
<course>123.4</course>
<desc>Speed 0.6 km/h Distance 34.23 km</desc>
<time>2010-06-13T08:49:37.03</time>
<name>7858</name>
</trkpt>
<trkpt lat="49.186520" lon="11.831652">
<ele>545.4</ele>
<speed>1.3</speed>
<course>102.4</course>
<desc>Speed 1.3 km/h Distance 34.23 km</desc>
<time>2010-06-13T08:49:38.03</time>
<name>7859</name>
</trkpt>
<trkpt lat="49.186518" lon="11.831663">
<ele>546.5</ele>
<speed>1.4</speed>
<course>40.9</course>
<desc>Speed 1.4 km/h Distance 34.23 km</desc>
<time>2010-06-13T08:49:39.03</time>
<name>7860</name>
</trkpt>
<trkpt lat="49.186523" lon="11.831670">
<ele>547.4</ele>
<speed>1.9</speed>
<course>23.6</course>
<desc>Speed 1.9 km/h Distance 34.23 km</desc>
<time>2010-06-13T08:49:40.03</time>
<name>7861</name>
</trkpt>
<trkpt lat="49.186543" lon="11.831683">
<ele>543.1</ele>
<speed>2.7</speed>
<course>90.0</course>
<desc>Speed 2.7 km/h Distance 34.23 km</desc>
<time>2010-06-13T08:49:41.03</time>
<name>7862</name>
</trkpt>
<trkpt lat="49.186543" lon="11.831688">
<ele>542.2</ele>
<speed>0.1</speed>
<course>7.9</course>
<desc>Speed 0.1 km/h Distance 34.23 km</desc>
<time>2010-06-13T08:49:42.03</time>
<name>7863</name>
</trkpt>
<trkpt lat="49.186575" lon="11.831695">
<ele>538.9</ele>
<speed>6.1</speed>
<course>7.7</course>
<desc>Speed 6.1 km/h Distance 34.23 km</desc>
<time>2010-06-13T08:49:44.03</time>
<name>7864</name>
</trkpt>
<trkpt lat="49.186592" lon="11.831698">
<ele>537.5</ele>
<speed>3.5</speed>
<course>28.1</course>
<desc>Speed 3.5 km/h Distance 34.24 km</desc>
<time>2010-06-13T08:49:45.03</time>
<name>7865</name>
</trkpt>
<trkpt lat="49.186610" lon="11.831713">
<ele>536.3</ele>
<speed>3.3</speed>
<course>133.6</course>
<desc>Speed 3.3 km/h Distance 34.24 km</desc>
<time>2010-06-13T08:49:46.03</time>
<name>7866</name>
</trkpt>
<trkpt lat="49.186602" lon="11.831727">
<ele>536.4</ele>
<speed>2.3</speed>
<course>146.3</course>
<desc>Speed 2.3 km/h Distance 34.24 km</desc>
<time>2010-06-13T08:49:47.03</time>
<name>7867</name>
</trkpt>
<trkpt lat="49.186598" lon="11.831730">
<ele>536.4</ele>
<speed>2.4</speed>
<course>79.2</course>
<desc>Speed 2.4 km/h Distance 34.24 km</desc>
<time>2010-06-13T08:49:48.03</time>
<name>7868</name>
</trkpt>
<trkpt lat="49.186600" lon="11.831743">
<ele>536.9</ele>
<speed>3.7</speed>
<course>149.9</course>
<desc>Speed 3.7 km/h Distance 34.24 km</desc>
<time>2010-06-13T08:49:49.03</time>
<name>7869</name>
</trkpt>
<trkpt lat="49.186585" lon="11.831757">
<ele>535.5</ele>
<speed>4.6</speed>
<course>160.7</course>
<desc>Speed 4.6 km/h Distance 34.24 km</desc>
<time>2010-06-13T08:49:50.03</time>
<name>7870</name>
</trkpt>
<trkpt lat="49.186560" lon="11.831770">
<ele>533.1</ele>
<speed>5.0</speed>
<course>171.5</course>
<desc>Speed 5.0 km/h Distance 34.25 km</desc>
<time>2010-06-13T08:49:51.03</time>
<name>7871</name>
</trkpt>
<trkpt lat="49.186532" lon="11.831777">
<ele>531.2</ele>
<speed>4.2</speed>
<course>178.6</course>
<desc>Speed 4.2 km/h Distance 34.25 km</desc>
<time>2010-06-13T08:49:52.03</time>
<name>7872</name>
</trkpt>
<trkpt lat="49.186503" lon="11.831778">
<ele>528.4</ele>
<speed>3.9</speed>
<course>185.8</course>
<desc>Speed 3.9 km/h Distance 34.25 km</desc>
<time>2010-06-13T08:49:53.03</time>
<name>7873</name>
</trkpt>
<trkpt lat="49.186450" lon="11.831770">
<ele>526.3</ele>
<speed>3.7</speed>
<course>203.6</course>
<desc>Speed 3.7 km/h Distance 34.26 km</desc>
<time>2010-06-13T08:49:55.03</time>
<name>7874</name>
</trkpt>
<trkpt lat="49.186430" lon="11.831757">
<ele>526.4</ele>
<speed>3.4</speed>
<course>171.2</course>
<desc>Speed 3.4 km/h Distance 34.26 km</desc>
<time>2010-06-13T08:49:56.03</time>
<name>7875</name>
</trkpt>
<trkpt lat="49.186415" lon="11.831760">
<ele>525.5</ele>
<speed>3.2</speed>
<course>196.0</course>
<desc>Speed 3.2 km/h Distance 34.26 km</desc>
<time>2010-06-13T08:49:57.03</time>
<name>7876</name>
</trkpt>
<trkpt lat="49.186400" lon="11.831753">
<ele>525.6</ele>
<speed>2.7</speed>
<course>174.8</course>
<desc>Speed 2.7 km/h Distance 34.26 km</desc>
<time>2010-06-13T08:49:58.03</time>
<name>7877</name>
</trkpt>
<trkpt lat="49.186377" lon="11.831757">
<ele>523.8</ele>
<speed>3.6</speed>
<course>182.2</course>
<desc>Speed 3.6 km/h Distance 34.27 km</desc>
<time>2010-06-13T08:49:59.03</time>
<name>7878</name>
</trkpt>
<trkpt lat="49.186355" lon="11.831755">
<ele>522.5</ele>
<speed>4.0</speed>
<course>195.9</course>
<desc>Speed 4.0 km/h Distance 34.27 km</desc>
<time>2010-06-13T08:50:00.03</time>
<name>7879</name>
</trkpt>
<trkpt lat="49.186328" lon="11.831743">
<ele>522.6</ele>
<speed>4.3</speed>
<course>153.8</course>
<desc>Speed 4.3 km/h Distance 34.27 km</desc>
<time>2010-06-13T08:50:01.03</time>
<name>7880</name>
</trkpt>
<trkpt lat="49.186315" lon="11.831753">
<ele>521.6</ele>
<speed>4.5</speed>
<course>143.6</course>
<desc>Speed 4.5 km/h Distance 34.27 km</desc>
<time>2010-06-13T08:50:02.03</time>
<name>7881</name>
</trkpt>
<trkpt lat="49.186302" lon="11.831768">
<ele>519.0</ele>
<speed>3.5</speed>
<course>82.1</course>
<desc>Speed 3.5 km/h Distance 34.28 km</desc>
<time>2010-06-13T08:50:03.03</time>
<name>7882</name>
</trkpt>
<trkpt lat="49.186303" lon="11.831787">
<ele>518.5</ele>
<speed>2.9</speed>
<course>82.1</course>
<desc>Speed 2.9 km/h Distance 34.28 km</desc>
<time>2010-06-13T08:50:04.03</time>
<name>7883</name>
</trkpt>
<trkpt lat="49.186303" lon="11.831787">
<ele>520.3</ele>
<speed>1.2</speed>
<course>198.1</course>
<desc>Speed 1.2 km/h Distance 34.28 km</desc>
<time>2010-06-13T08:50:05.03</time>
<name>7884</name>
</trkpt>
<trkpt lat="49.186290" lon="11.831780">
<ele>521.0</ele>
<speed>0.5</speed>
<course>150.7</course>
<desc>Speed 0.5 km/h Distance 34.28 km</desc>
<time>2010-06-13T08:50:06.03</time>
<name>7885</name>
</trkpt>
<trkpt lat="49.186255" lon="11.831810">
<ele>522.4</ele>
<speed>3.7</speed>
<course>173.3</course>
<desc>Speed 3.7 km/h Distance 34.28 km</desc>
<time>2010-06-13T08:50:08.03</time>
<name>7886</name>
</trkpt>
<trkpt lat="49.186190" lon="11.831822">
<ele>522.8</ele>
<speed>5.8</speed>
<course>166.5</course>
<desc>Speed 5.8 km/h Distance 34.29 km</desc>
<time>2010-06-13T08:50:10.03</time>
<name>7887</name>
</trkpt>
<trkpt lat="49.186108" lon="11.831852">
<ele>524.4</ele>
<speed>5.2</speed>
<course>52.4</course>
<desc>Speed 5.2 km/h Distance 34.30 km</desc>
<time>2010-06-13T08:50:12.03</time>
<name>7888</name>
</trkpt>
<trkpt lat="49.186112" lon="11.831858">
<ele>525.1</ele>
<speed>5.1</speed>
<course>180.0</course>
<desc>Speed 5.1 km/h Distance 34.30 km</desc>
<time>2010-06-13T08:50:13.03</time>
<name>7889</name>
</trkpt>
<trkpt lat="49.186105" lon="11.831858">
<ele>527.3</ele>
<speed>3.3</speed>
<course>194.7</course>
<desc>Speed 3.3 km/h Distance 34.30 km</desc>
<time>2010-06-13T08:50:14.04</time>
<name>7890</name>
</trkpt>
<trkpt lat="49.186063" lon="11.831842">
<ele>533.3</ele>
<speed>0.3</speed>
<course>0.0</course>
<desc>Speed 0.3 km/h Distance 34.31 km</desc>
<time>2010-06-13T08:50:16.03</time>
<name>7891</name>
</trkpt>
<trkpt lat="49.186072" lon="11.831842">
<ele>534.4</ele>
<speed>1.7</speed>
<course>174.4</course>
<desc>Speed 1.7 km/h Distance 34.31 km</desc>
<time>2010-06-13T08:50:17.03</time>
<name>7892</name>
</trkpt>
<trkpt lat="49.186017" lon="11.831850">
<ele>536.5</ele>
<speed>3.9</speed>
<course>127.6</course>
<desc>Speed 3.9 km/h Distance 34.31 km</desc>
<time>2010-06-13T08:50:19.03</time>
<name>7893</name>
</trkpt>
<trkpt lat="49.186010" lon="11.831863">
<ele>537.5</ele>
<speed>2.7</speed>
<course>175.3</course>
<desc>Speed 2.7 km/h Distance 34.31 km</desc>
<time>2010-06-13T08:50:20.03</time>
<name>7894</name>
</trkpt>
<trkpt lat="49.185998" lon="11.831865">
<ele>539.9</ele>
<speed>2.7</speed>
<course>209.8</course>
<desc>Speed 2.7 km/h Distance 34.32 km</desc>
<time>2010-06-13T08:50:21.03</time>
<name>7895</name>
</trkpt>
<trkpt lat="49.185985" lon="11.831853">
<ele>539.6</ele>
<speed>1.8</speed>
<course>180.0</course>
<desc>Speed 1.8 km/h Distance 34.32 km</desc>
<time>2010-06-13T08:50:22.03</time>
<name>7896</name>
</trkpt>
<trkpt lat="49.185965" lon="11.831853">
<ele>540.3</ele>
<speed>1.7</speed>
<course>203.3</course>
<desc>Speed 1.7 km/h Distance 34.32 km</desc>
<time>2010-06-13T08:50:23.03</time>
<name>7897</name>
</trkpt>
<trkpt lat="49.185950" lon="11.831843">
<ele>544.1</ele>
<speed>2.6</speed>
<course>220.3</course>
<desc>Speed 2.6 km/h Distance 34.32 km</desc>
<time>2010-06-13T08:50:24.03</time>
<name>7898</name>
</trkpt>
<trkpt lat="49.185933" lon="11.831822">
<ele>545.3</ele>
<speed>2.3</speed>
<course>167.4</course>
<desc>Speed 2.3 km/h Distance 34.32 km</desc>
<time>2010-06-13T08:50:25.03</time>
<name>7899</name>
</trkpt>
<trkpt lat="49.185932" lon="11.831822">
<ele>546.8</ele>
<speed>1.3</speed>
<course>172.9</course>
<desc>Speed 1.3 km/h Distance 34.32 km</desc>
<time>2010-06-13T08:50:26.03</time>
<name>7900</name>
</trkpt>
<trkpt lat="49.185915" lon="11.831825">
<ele>546.8</ele>
<speed>3.7</speed>
<course>143.5</course>
<desc>Speed 3.7 km/h Distance 34.33 km</desc>
<time>2010-06-13T08:50:27.03</time>
<name>7901</name>
</trkpt>
<trkpt lat="49.185902" lon="11.831840">
<ele>546.5</ele>
<speed>5.4</speed>
<course>151.8</course>
<desc>Speed 5.4 km/h Distance 34.33 km</desc>
<time>2010-06-13T08:50:28.03</time>
<name>7902</name>
</trkpt>
<trkpt lat="49.185883" lon="11.831855">
<ele>545.7</ele>
<speed>5.3</speed>
<course>160.6</course>
<desc>Speed 5.3 km/h Distance 34.33 km</desc>
<time>2010-06-13T08:50:29.03</time>
<name>7903</name>
</trkpt>
<trkpt lat="49.185862" lon="11.831867">
<ele>544.5</ele>
<speed>4.4</speed>
<course>182.2</course>
<desc>Speed 4.4 km/h Distance 34.33 km</desc>
<time>2010-06-13T08:50:30.03</time>
<name>7904</name>
</trkpt>
<trkpt lat="49.185838" lon="11.831865">
<ele>543.4</ele>
<speed>4.3</speed>
<course>173.6</course>
<desc>Speed 4.3 km/h Distance 34.34 km</desc>
<time>2010-06-13T08:50:31.03</time>
<name>7905</name>
</trkpt>
<trkpt lat="49.185800" lon="11.831872">
<ele>546.5</ele>
<speed>0.8</speed>
<course>204.6</course>
<desc>Speed 0.8 km/h Distance 34.34 km</desc>
<time>2010-06-13T08:50:33.03</time>
<name>7906</name>
</trkpt>
<trkpt lat="49.185788" lon="11.831863">
<ele>546.5</ele>
<speed>2.2</speed>
<course>204.6</course>
<desc>Speed 2.2 km/h Distance 34.34 km</desc>
<time>2010-06-13T08:50:34.03</time>
<name>7907</name>
</trkpt>
<trkpt lat="49.185777" lon="11.831855">
<ele>546.5</ele>
<speed>3.7</speed>
<course>180.0</course>
<desc>Speed 3.7 km/h Distance 34.34 km</desc>
<time>2010-06-13T08:50:35.03</time>
<name>7908</name>
</trkpt>
<trkpt lat="49.185767" lon="11.831855">
<ele>549.2</ele>
<speed>3.7</speed>
<course>172.3</course>
<desc>Speed 3.7 km/h Distance 34.34 km</desc>
<time>2010-06-13T08:50:36.03</time>
<name>7909</name>
</trkpt>
<trkpt lat="49.185758" lon="11.831857">
<ele>549.2</ele>
<speed>3.7</speed>
<course>100.2</course>
<desc>Speed 3.7 km/h Distance 34.34 km</desc>
<time>2010-06-13T08:50:37.03</time>
<name>7910</name>
</trkpt>
<trkpt lat="49.185755" lon="11.831885">
<ele>546.1</ele>
<speed>3.3</speed>
<course>115.2</course>
<desc>Speed 3.3 km/h Distance 34.35 km</desc>
<time>2010-06-13T08:50:38.03</time>
<name>7911</name>
</trkpt>
<trkpt lat="49.185748" lon="11.831907">
<ele>544.3</ele>
<speed>2.3</speed>
<course>100.8</course>
<desc>Speed 2.3 km/h Distance 34.35 km</desc>
<time>2010-06-13T08:50:39.03</time>
<name>7912</name>
</trkpt>
<trkpt lat="49.185745" lon="11.831933">
<ele>542.5</ele>
<speed>2.2</speed>
<course>152.5</course>
<desc>Speed 2.2 km/h Distance 34.35 km</desc>
<time>2010-06-13T08:50:40.03</time>
<name>7913</name>
</trkpt>
<trkpt lat="49.185737" lon="11.831940">
<ele>540.8</ele>
<speed>2.4</speed>
<course>185.9</course>
<desc>Speed 2.4 km/h Distance 34.35 km</desc>
<time>2010-06-13T08:50:41.03</time>
<name>7914</name>
</trkpt>
<trkpt lat="49.185715" lon="11.831937">
<ele>541.8</ele>
<speed>3.2</speed>
<course>132.6</course>
<desc>Speed 3.2 km/h Distance 34.35 km</desc>
<time>2010-06-13T08:50:43.03</time>
<name>7915</name>
</trkpt>
<trkpt lat="49.185705" lon="11.831953">
<ele>541.8</ele>
<speed>4.4</speed>
<course>137.1</course>
<desc>Speed 4.4 km/h Distance 34.36 km</desc>
<time>2010-06-13T08:50:44.03</time>
<name>7916</name>
</trkpt>
<trkpt lat="49.185693" lon="11.831970">
<ele>541.5</ele>
<speed>5.8</speed>
<course>146.8</course>
<desc>Speed 5.8 km/h Distance 34.36 km</desc>
<time>2010-06-13T08:50:45.03</time>
<name>7917</name>
</trkpt>
<trkpt lat="49.185667" lon="11.831997">
<ele>543.7</ele>
<speed>6.9</speed>
<course>129.0</course>
<desc>Speed 6.9 km/h Distance 34.36 km</desc>
<time>2010-06-13T08:50:46.03</time>
<name>7918</name>
</trkpt>
<trkpt lat="49.185652" lon="11.832025">
<ele>543.4</ele>
<speed>6.5</speed>
<course>118.4</course>
<desc>Speed 6.5 km/h Distance 34.36 km</desc>
<time>2010-06-13T08:50:47.03</time>
<name>7919</name>
</trkpt>
<trkpt lat="49.185642" lon="11.832053">
<ele>543.5</ele>
<speed>5.7</speed>
<course>137.5</course>
<desc>Speed 5.7 km/h Distance 34.37 km</desc>
<time>2010-06-13T08:50:48.03</time>
<name>7920</name>
</trkpt>
<trkpt lat="49.185625" lon="11.832077">
<ele>543.3</ele>
<speed>4.8</speed>
<course>125.8</course>
<desc>Speed 4.8 km/h Distance 34.37 km</desc>
<time>2010-06-13T08:50:49.03</time>
<name>7921</name>
</trkpt>
<trkpt lat="49.185612" lon="11.832105">
<ele>545.0</ele>
<speed>4.4</speed>
<course>155.4</course>
<desc>Speed 4.4 km/h Distance 34.37 km</desc>
<time>2010-06-13T08:50:50.03</time>
<name>7922</name>
</trkpt>
<trkpt lat="49.185600" lon="11.832113">
<ele>545.9</ele>
<speed>3.3</speed>
<course>119.9</course>
<desc>Speed 3.3 km/h Distance 34.37 km</desc>
<time>2010-06-13T08:50:51.03</time>
<name>7923</name>
</trkpt>
<trkpt lat="49.185595" lon="11.832127">
<ele>546.9</ele>
<speed>1.7</speed>
<course>186.2</course>
<desc>Speed 1.7 km/h Distance 34.37 km</desc>
<time>2010-06-13T08:50:52.03</time>
<name>7924</name>
</trkpt>
<trkpt lat="49.185555" lon="11.832120">
<ele>545.8</ele>
<speed>3.7</speed>
<course>146.8</course>
<desc>Speed 3.7 km/h Distance 34.38 km</desc>
<time>2010-06-13T08:50:54.03</time>
<name>7925</name>
</trkpt>
<trkpt lat="49.185547" lon="11.832128">
<ele>544.8</ele>
<speed>3.6</speed>
<course>178.1</course>
<desc>Speed 3.6 km/h Distance 34.38 km</desc>
<time>2010-06-13T08:50:55.03</time>
<name>7926</name>
</trkpt>
<trkpt lat="49.185532" lon="11.832128">
<ele>544.6</ele>
<speed>4.1</speed>
<course>133.8</course>
<desc>Speed 4.1 km/h Distance 34.38 km</desc>
<time>2010-06-13T08:50:56.03</time>
<name>7927</name>
</trkpt>
<trkpt lat="49.185523" lon="11.832142">
<ele>543.1</ele>
<speed>4.1</speed>
<course>117.0</course>
<desc>Speed 4.1 km/h Distance 34.38 km</desc>
<time>2010-06-13T08:50:57.03</time>
<name>7928</name>
</trkpt>
<trkpt lat="49.185515" lon="11.832167">
<ele>540.3</ele>
<speed>4.4</speed>
<course>144.5</course>
<desc>Speed 4.4 km/h Distance 34.38 km</desc>
<time>2010-06-13T08:50:58.03</time>
<name>7929</name>
</trkpt>
<trkpt lat="49.185497" lon="11.832187">
<ele>536.7</ele>
<speed>4.0</speed>
<course>94.0</course>
<desc>Speed 4.0 km/h Distance 34.39 km</desc>
<time>2010-06-13T08:50:59.03</time>
<name>7930</name>
</trkpt>
<trkpt lat="49.185495" lon="11.832223">
<ele>534.1</ele>
<speed>3.2</speed>
<course>165.4</course>
<desc>Speed 3.2 km/h Distance 34.39 km</desc>
<time>2010-06-13T08:51:00.03</time>
<name>7931</name>
</trkpt>
<trkpt lat="49.185478" lon="11.832230">
<ele>531.8</ele>
<speed>3.4</speed>
<course>90.0</course>
<desc>Speed 3.4 km/h Distance 34.39 km</desc>
<time>2010-06-13T08:51:01.03</time>
<name>7932</name>
</trkpt>
<trkpt lat="49.185478" lon="11.832270">
<ele>527.5</ele>
<speed>5.8</speed>
<course>67.6</course>
<desc>Speed 5.8 km/h Distance 34.39 km</desc>
<time>2010-06-13T08:51:02.03</time>
<name>7933</name>
</trkpt>
<trkpt lat="49.185490" lon="11.832313">
<ele>523.5</ele>
<speed>6.5</speed>
<course>90.0</course>
<desc>Speed 6.5 km/h Distance 34.40 km</desc>
<time>2010-06-13T08:51:03.03</time>
<name>7934</name>
</trkpt>
<trkpt lat="49.185490" lon="11.832355">
<ele>519.9</ele>
<speed>6.8</speed>
<course>90.0</course>
<desc>Speed 6.8 km/h Distance 34.40 km</desc>
<time>2010-06-13T08:51:04.03</time>
<name>7935</name>
</trkpt>
<trkpt lat="49.185490" lon="11.832383">
<ele>516.6</ele>
<speed>6.6</speed>
<course>110.0</course>
<desc>Speed 6.6 km/h Distance 34.40 km</desc>
<time>2010-06-13T08:51:05.03</time>
<name>7936</name>
</trkpt>
<trkpt lat="49.185482" lon="11.832418">
<ele>511.9</ele>
<speed>7.0</speed>
<course>93.4</course>
<desc>Speed 7.0 km/h Distance 34.40 km</desc>
<time>2010-06-13T08:51:06.03</time>
<name>7937</name>
</trkpt>
<trkpt lat="49.185480" lon="11.832462">
<ele>507.6</ele>
<speed>7.1</speed>
<course>94.0</course>
<desc>Speed 7.1 km/h Distance 34.41 km</desc>
<time>2010-06-13T08:51:07.03</time>
<name>7938</name>
</trkpt>
<trkpt lat="49.185478" lon="11.832498">
<ele>503.9</ele>
<speed>6.4</speed>
<course>90.0</course>
<desc>Speed 6.4 km/h Distance 34.41 km</desc>
<time>2010-06-13T08:51:08.03</time>
<name>7939</name>
</trkpt>
<trkpt lat="49.185478" lon="11.832543">
<ele>501.3</ele>
<speed>6.4</speed>
<course>121.5</course>
<desc>Speed 6.4 km/h Distance 34.41 km</desc>
<time>2010-06-13T08:51:09.03</time>
<name>7940</name>
</trkpt>
<trkpt lat="49.185465" lon="11.832577">
<ele>498.1</ele>
<speed>5.4</speed>
<course>120.5</course>
<desc>Speed 5.4 km/h Distance 34.42 km</desc>
<time>2010-06-13T08:51:10.03</time>
<name>7941</name>
</trkpt>
<trkpt lat="49.185457" lon="11.832598">
<ele>496.6</ele>
<speed>4.9</speed>
<course>112.2</course>
<desc>Speed 4.9 km/h Distance 34.42 km</desc>
<time>2010-06-13T08:51:11.03</time>
<name>7942</name>
</trkpt>
<trkpt lat="49.185450" lon="11.832623">
<ele>495.3</ele>
<speed>5.1</speed>
<course>131.7</course>
<desc>Speed 5.1 km/h Distance 34.42 km</desc>
<time>2010-06-13T08:51:12.03</time>
<name>7943</name>
</trkpt>
<trkpt lat="49.185438" lon="11.832643">
<ele>494.4</ele>
<speed>5.4</speed>
<course>120.5</course>
<desc>Speed 5.4 km/h Distance 34.42 km</desc>
<time>2010-06-13T08:51:13.03</time>
<name>7944</name>
</trkpt>
<trkpt lat="49.185430" lon="11.832665">
<ele>492.6</ele>
<speed>4.7</speed>
<course>172.9</course>
<desc>Speed 4.7 km/h Distance 34.42 km</desc>
<time>2010-06-13T08:51:14.03</time>
<name>7945</name>
</trkpt>
<trkpt lat="49.185413" lon="11.832668">
<ele>491.9</ele>
<speed>3.5</speed>
<course>166.4</course>
<desc>Speed 3.5 km/h Distance 34.43 km</desc>
<time>2010-06-13T08:51:15.03</time>
<name>7946</name>
</trkpt>
<trkpt lat="49.185395" lon="11.832675">
<ele>490.9</ele>
<speed>3.5</speed>
<course>140.3</course>
<desc>Speed 3.5 km/h Distance 34.43 km</desc>
<time>2010-06-13T08:51:16.03</time>
<name>7947</name>
</trkpt>
<trkpt lat="49.185377" lon="11.832698">
<ele>489.9</ele>
<speed>4.8</speed>
<course>165.4</course>
<desc>Speed 4.8 km/h Distance 34.43 km</desc>
<time>2010-06-13T08:51:17.03</time>
<name>7948</name>
</trkpt>
<trkpt lat="49.185352" lon="11.832708">
<ele>491.4</ele>
<speed>4.4</speed>
<course>144.0</course>
<desc>Speed 4.4 km/h Distance 34.43 km</desc>
<time>2010-06-13T08:51:18.03</time>
<name>7949</name>
</trkpt>
<trkpt lat="49.185337" lon="11.832725">
<ele>491.0</ele>
<speed>4.1</speed>
<course>183.7</course>
<desc>Speed 4.1 km/h Distance 34.44 km</desc>
<time>2010-06-13T08:51:19.03</time>
<name>7950</name>
</trkpt>
<trkpt lat="49.185317" lon="11.832723">
<ele>491.0</ele>
<speed>3.0</speed>
<course>180.0</course>
<desc>Speed 3.0 km/h Distance 34.44 km</desc>
<time>2010-06-13T08:51:20.03</time>
<name>7951</name>
</trkpt>
<trkpt lat="49.185302" lon="11.832723">
<ele>489.2</ele>
<speed>3.2</speed>
<course>159.4</course>
<desc>Speed 3.2 km/h Distance 34.44 km</desc>
<time>2010-06-13T08:51:21.03</time>
<name>7952</name>
</trkpt>
<trkpt lat="49.185290" lon="11.832730">
<ele>488.2</ele>
<speed>3.3</speed>
<course>117.0</course>
<desc>Speed 3.3 km/h Distance 34.44 km</desc>
<time>2010-06-13T08:51:22.03</time>
<name>7953</name>
</trkpt>
<trkpt lat="49.185287" lon="11.832740">
<ele>488.2</ele>
<speed>2.8</speed>
<course>52.6</course>
<desc>Speed 2.8 km/h Distance 34.44 km</desc>
<time>2010-06-13T08:51:23.03</time>
<name>7954</name>
</trkpt>
<trkpt lat="49.185298" lon="11.832763">
<ele>486.9</ele>
<speed>2.8</speed>
<course>107.0</course>
<desc>Speed 2.8 km/h Distance 34.44 km</desc>
<time>2010-06-13T08:51:24.03</time>
<name>7955</name>
</trkpt>
<trkpt lat="49.185295" lon="11.832780">
<ele>486.5</ele>
<speed>2.1</speed>
<course>175.3</course>
<desc>Speed 2.1 km/h Distance 34.45 km</desc>
<time>2010-06-13T08:51:25.03</time>
<name>7956</name>
</trkpt>
<trkpt lat="49.185283" lon="11.832782">
<ele>486.9</ele>
<speed>2.3</speed>
<course>171.3</course>
<desc>Speed 2.3 km/h Distance 34.45 km</desc>
<time>2010-06-13T08:51:26.03</time>
<name>7957</name>
</trkpt>
<trkpt lat="49.185262" lon="11.832787">
<ele>486.8</ele>
<speed>2.3</speed>
<course>149.6</course>
<desc>Speed 2.3 km/h Distance 34.45 km</desc>
<time>2010-06-13T08:51:27.03</time>
<name>7958</name>
</trkpt>
<trkpt lat="49.185245" lon="11.832802">
<ele>486.8</ele>
<speed>2.2</speed>
<course>177.8</course>
<desc>Speed 2.2 km/h Distance 34.45 km</desc>
<time>2010-06-13T08:51:28.03</time>
<name>7959</name>
</trkpt>
<trkpt lat="49.185223" lon="11.832803">
<ele>486.5</ele>
<speed>2.9</speed>
<course>178.5</course>
<desc>Speed 2.9 km/h Distance 34.45 km</desc>
<time>2010-06-13T08:51:29.03</time>
<name>7960</name>
</trkpt>
<trkpt lat="49.185198" lon="11.832803">
<ele>486.8</ele>
<speed>4.9</speed>
<course>161.8</course>
<desc>Speed 4.9 km/h Distance 34.46 km</desc>
<time>2010-06-13T08:51:30.03</time>
<name>7961</name>
</trkpt>
<trkpt lat="49.185175" lon="11.832815">
<ele>485.1</ele>
<speed>4.6</speed>
<course>155.6</course>
<desc>Speed 4.6 km/h Distance 34.46 km</desc>
<time>2010-06-13T08:51:31.03</time>
<name>7962</name>
</trkpt>
<trkpt lat="49.185153" lon="11.832830">
<ele>484.8</ele>
<speed>3.4</speed>
<course>202.7</course>
<desc>Speed 3.4 km/h Distance 34.46 km</desc>
<time>2010-06-13T08:51:32.03</time>
<name>7963</name>
</trkpt>
<trkpt lat="49.185135" lon="11.832818">
<ele>483.3</ele>
<speed>3.0</speed>
<course>154.5</course>
<desc>Speed 3.0 km/h Distance 34.46 km</desc>
<time>2010-06-13T08:51:33.03</time>
<name>7964</name>
</trkpt>
<trkpt lat="49.185117" lon="11.832832">
<ele>482.7</ele>
<speed>3.5</speed>
<course>161.9</course>
<desc>Speed 3.5 km/h Distance 34.47 km</desc>
<time>2010-06-13T08:51:34.03</time>
<name>7965</name>
</trkpt>
<trkpt lat="49.185093" lon="11.832843">
<ele>484.1</ele>
<speed>3.6</speed>
<course>144.0</course>
<desc>Speed 3.6 km/h Distance 34.47 km</desc>
<time>2010-06-13T08:51:35.03</time>
<name>7966</name>
</trkpt>
<trkpt lat="49.185078" lon="11.832860">
<ele>483.1</ele>
<speed>3.0</speed>
<course>158.7</course>
<desc>Speed 3.0 km/h Distance 34.47 km</desc>
<time>2010-06-13T08:51:36.03</time>
<name>7967</name>
</trkpt>
<trkpt lat="49.185062" lon="11.832870">
<ele>482.6</ele>
<speed>3.5</speed>
<course>157.4</course>
<desc>Speed 3.5 km/h Distance 34.47 km</desc>
<time>2010-06-13T08:51:37.03</time>
<name>7968</name>
</trkpt>
<trkpt lat="49.185043" lon="11.832882">
<ele>483.7</ele>
<speed>3.3</speed>
<course>189.2</course>
<desc>Speed 3.3 km/h Distance 34.48 km</desc>
<time>2010-06-13T08:51:38.03</time>
<name>7969</name>
</trkpt>
<trkpt lat="49.185023" lon="11.832877">
<ele>486.0</ele>
<speed>3.2</speed>
<course>168.6</course>
<desc>Speed 3.2 km/h Distance 34.48 km</desc>
<time>2010-06-13T08:51:39.03</time>
<name>7970</name>
</trkpt>
<trkpt lat="49.185002" lon="11.832883">
<ele>487.7</ele>
<speed>3.3</speed>
<course>155.6</course>
<desc>Speed 3.3 km/h Distance 34.48 km</desc>
<time>2010-06-13T08:51:40.03</time>
<name>7971</name>
</trkpt>
<trkpt lat="49.184980" lon="11.832898">
<ele>487.7</ele>
<speed>3.5</speed>
<course>149.3</course>
<desc>Speed 3.5 km/h Distance 34.48 km</desc>
<time>2010-06-13T08:51:41.03</time>
<name>7972</name>
</trkpt>
<trkpt lat="49.184962" lon="11.832915">
<ele>491.7</ele>
<speed>3.0</speed>
<course>122.2</course>
<desc>Speed 3.0 km/h Distance 34.49 km</desc>
<time>2010-06-13T08:51:42.03</time>
<name>7973</name>
</trkpt>
<trkpt lat="49.184950" lon="11.832943">
<ele>493.1</ele>
<speed>4.3</speed>
<course>131.7</course>
<desc>Speed 4.3 km/h Distance 34.49 km</desc>
<time>2010-06-13T08:51:43.03</time>
<name>7974</name>
</trkpt>
<trkpt lat="49.184938" lon="11.832963">
<ele>495.3</ele>
<speed>3.1</speed>
<course>123.3</course>
<desc>Speed 3.1 km/h Distance 34.49 km</desc>
<time>2010-06-13T08:51:44.03</time>
<name>7975</name>
</trkpt>
<trkpt lat="49.184928" lon="11.832987">
<ele>497.4</ele>
<speed>3.3</speed>
<course>125.2</course>
<desc>Speed 3.3 km/h Distance 34.49 km</desc>
<time>2010-06-13T08:51:45.03</time>
<name>7976</name>
</trkpt>
<trkpt lat="49.184918" lon="11.833008">
<ele>499.0</ele>
<speed>2.8</speed>
<course>127.4</course>
<desc>Speed 2.8 km/h Distance 34.49 km</desc>
<time>2010-06-13T08:51:46.03</time>
<name>7977</name>
</trkpt>
<trkpt lat="49.184908" lon="11.833028">
<ele>500.5</ele>
<speed>3.2</speed>
<course>164.0</course>
<desc>Speed 3.2 km/h Distance 34.50 km</desc>
<time>2010-06-13T08:51:47.03</time>
<name>7978</name>
</trkpt>
<trkpt lat="49.184893" lon="11.833035">
<ele>503.1</ele>
<speed>2.2</speed>
<course>143.4</course>
<desc>Speed 2.2 km/h Distance 34.50 km</desc>
<time>2010-06-13T08:51:48.03</time>
<name>7979</name>
</trkpt>
<trkpt lat="49.184882" lon="11.833048">
<ele>505.0</ele>
<speed>4.2</speed>
<course>204.5</course>
<desc>Speed 4.2 km/h Distance 34.50 km</desc>
<time>2010-06-13T08:51:49.03</time>
<name>7980</name>
</trkpt>
<trkpt lat="49.184865" lon="11.833037">
<ele>510.0</ele>
<speed>2.8</speed>
<course>196.6</course>
<desc>Speed 2.8 km/h Distance 34.50 km</desc>
<time>2010-06-13T08:51:50.03</time>
<name>7981</name>
</trkpt>
<trkpt lat="49.184847" lon="11.833028">
<ele>514.4</ele>
<speed>1.5</speed>
<course>175.1</course>
<desc>Speed 1.5 km/h Distance 34.50 km</desc>
<time>2010-06-13T08:51:51.03</time>
<name>7982</name>
</trkpt>
<trkpt lat="49.184783" lon="11.833037">
<ele>527.4</ele>
<speed>1.7</speed>
<course>202.6</course>
<desc>Speed 1.7 km/h Distance 34.51 km</desc>
<time>2010-06-13T08:51:53.03</time>
<name>7983</name>
</trkpt>
<trkpt lat="49.184765" lon="11.833025">
<ele>531.0</ele>
<speed>2.5</speed>
<course>195.6</course>
<desc>Speed 2.5 km/h Distance 34.51 km</desc>
<time>2010-06-13T08:51:54.03</time>
<name>7984</name>
</trkpt>
<trkpt lat="49.184730" lon="11.833010">
<ele>537.9</ele>
<speed>4.6</speed>
<course>183.2</course>
<desc>Speed 4.6 km/h Distance 34.52 km</desc>
<time>2010-06-13T08:51:56.03</time>
<name>7985</name>
</trkpt>
<trkpt lat="49.184708" lon="11.833008">
<ele>540.5</ele>
<speed>4.8</speed>
<course>184.8</course>
<desc>Speed 4.8 km/h Distance 34.52 km</desc>
<time>2010-06-13T08:51:57.03</time>
<name>7986</name>
</trkpt>
<trkpt lat="49.184680" lon="11.833005">
<ele>543.4</ele>
<speed>5.9</speed>
<course>171.4</course>
<desc>Speed 5.9 km/h Distance 34.52 km</desc>
<time>2010-06-13T08:51:58.03</time>
<name>7987</name>
</trkpt>
<trkpt lat="49.184537" lon="11.833038">
<ele>560.5</ele>
<speed>8.7</speed>
<course>173.4</course>
<desc>Speed 8.7 km/h Distance 34.54 km</desc>
<time>2010-06-13T08:52:01.03</time>
<name>7988</name>
</trkpt>
<trkpt lat="49.184517" lon="11.833042">
<ele>559.9</ele>
<speed>6.9</speed>
<course>169.2</course>
<desc>Speed 6.9 km/h Distance 34.54 km</desc>
<time>2010-06-13T08:52:02.03</time>
<name>7989</name>
</trkpt>
<trkpt lat="49.184493" lon="11.833048">
<ele>560.2</ele>
<speed>6.3</speed>
<course>173.9</course>
<desc>Speed 6.3 km/h Distance 34.54 km</desc>
<time>2010-06-13T08:52:03.03</time>
<name>7990</name>
</trkpt>
<trkpt lat="49.184473" lon="11.833052">
<ele>560.4</ele>
<speed>6.7</speed>
<course>143.6</course>
<desc>Speed 6.7 km/h Distance 34.55 km</desc>
<time>2010-06-13T08:52:04.03</time>
<name>7991</name>
</trkpt>
<trkpt lat="49.184460" lon="11.833067">
<ele>560.8</ele>
<speed>6.0</speed>
<course>167.8</course>
<desc>Speed 6.0 km/h Distance 34.55 km</desc>
<time>2010-06-13T08:52:05.03</time>
<name>7992</name>
</trkpt>
<trkpt lat="49.184445" lon="11.833072">
<ele>560.6</ele>
<speed>5.3</speed>
<course>166.5</course>
<desc>Speed 5.3 km/h Distance 34.55 km</desc>
<time>2010-06-13T08:52:06.03</time>
<name>7993</name>
</trkpt>
<trkpt lat="49.184432" lon="11.833077">
<ele>559.5</ele>
<speed>4.8</speed>
<course>187.1</course>
<desc>Speed 4.8 km/h Distance 34.55 km</desc>
<time>2010-06-13T08:52:07.03</time>
<name>7994</name>
</trkpt>
<trkpt lat="49.184415" lon="11.833073">
<ele>558.3</ele>
<speed>5.3</speed>
<course>180.0</course>
<desc>Speed 5.3 km/h Distance 34.55 km</desc>
<time>2010-06-13T08:52:08.03</time>
<name>7995</name>
</trkpt>
<trkpt lat="49.184407" lon="11.833073">
<ele>558.0</ele>
<speed>3.2</speed>
<course>127.4</course>
<desc>Speed 3.2 km/h Distance 34.55 km</desc>
<time>2010-06-13T08:52:09.03</time>
<name>7996</name>
</trkpt>
<trkpt lat="49.184397" lon="11.833093">
<ele>558.6</ele>
<speed>4.7</speed>
<course>107.0</course>
<desc>Speed 4.7 km/h Distance 34.55 km</desc>
<time>2010-06-13T08:52:10.03</time>
<name>7997</name>
</trkpt>
<trkpt lat="49.184392" lon="11.833118">
<ele>558.9</ele>
<speed>4.8</speed>
<course>131.3</course>
<desc>Speed 4.8 km/h Distance 34.56 km</desc>
<time>2010-06-13T08:52:11.03</time>
<name>7998</name>
</trkpt>
<trkpt lat="49.184385" lon="11.833130">
<ele>559.2</ele>
<speed>3.8</speed>
<course>164.5</course>
<desc>Speed 3.8 km/h Distance 34.56 km</desc>
<time>2010-06-13T08:52:12.03</time>
<name>7999</name>
</trkpt>
<trkpt lat="49.184373" lon="11.833135">
<ele>558.3</ele>
<speed>4.2</speed>
<course>167.4</course>
<desc>Speed 4.2 km/h Distance 34.56 km</desc>
<time>2010-06-13T08:52:13.03</time>
<name>8000</name>
</trkpt>
<trkpt lat="49.184358" lon="11.833140">
<ele>557.5</ele>
<speed>4.2</speed>
<course>171.0</course>
<desc>Speed 4.2 km/h Distance 34.56 km</desc>
<time>2010-06-13T08:52:14.03</time>
<name>8001</name>
</trkpt>
<trkpt lat="49.184345" lon="11.833143">
<ele>557.7</ele>
<speed>4.3</speed>
<course>153.6</course>
<desc>Speed 4.3 km/h Distance 34.56 km</desc>
<time>2010-06-13T08:52:15.03</time>
<name>8002</name>
</trkpt>
<trkpt lat="49.184338" lon="11.833148">
<ele>557.1</ele>
<speed>4.0</speed>
<course>187.0</course>
<desc>Speed 4.0 km/h Distance 34.56 km</desc>
<time>2010-06-13T08:52:16.03</time>
<name>8003</name>
</trkpt>
<trkpt lat="49.184320" lon="11.833145">
<ele>555.6</ele>
<speed>4.4</speed>
<course>159.8</course>
<desc>Speed 4.4 km/h Distance 34.57 km</desc>
<time>2010-06-13T08:52:17.03</time>
<name>8004</name>
</trkpt>
<trkpt lat="49.184308" lon="11.833152">
<ele>554.9</ele>
<speed>4.8</speed>
<course>171.0</course>
<desc>Speed 4.8 km/h Distance 34.57 km</desc>
<time>2010-06-13T08:52:18.03</time>
<name>8005</name>
</trkpt>
<trkpt lat="49.184295" lon="11.833155">
<ele>555.2</ele>
<speed>4.0</speed>
<course>110.9</course>
<desc>Speed 4.0 km/h Distance 34.57 km</desc>
<time>2010-06-13T08:52:19.03</time>
<name>8006</name>
</trkpt>
<trkpt lat="49.184293" lon="11.833162">
<ele>555.7</ele>
<speed>3.3</speed>
<course>165.1</course>
<desc>Speed 3.3 km/h Distance 34.57 km</desc>
<time>2010-06-13T08:52:20.03</time>
<name>8007</name>
</trkpt>
<trkpt lat="49.184285" lon="11.833165">
<ele>555.6</ele>
<speed>2.8</speed>
<course>168.8</course>
<desc>Speed 2.8 km/h Distance 34.57 km</desc>
<time>2010-06-13T08:52:21.03</time>
<name>8008</name>
</trkpt>
<trkpt lat="49.184268" lon="11.833170">
<ele>555.4</ele>
<speed>3.8</speed>
<course>177.2</course>
<desc>Speed 3.8 km/h Distance 34.57 km</desc>
<time>2010-06-13T08:52:22.03</time>
<name>8009</name>
</trkpt>
<trkpt lat="49.184252" lon="11.833172">
<ele>554.5</ele>
<speed>5.0</speed>
<course>161.9</course>
<desc>Speed 5.0 km/h Distance 34.57 km</desc>
<time>2010-06-13T08:52:23.03</time>
<name>8010</name>
</trkpt>
<trkpt lat="49.184238" lon="11.833178">
<ele>553.4</ele>
<speed>4.4</speed>
<course>185.6</course>
<desc>Speed 4.4 km/h Distance 34.58 km</desc>
<time>2010-06-13T08:52:24.03</time>
<name>8011</name>
</trkpt>
<trkpt lat="49.184215" lon="11.833175">
<ele>553.4</ele>
<speed>6.1</speed>
<course>170.2</course>
<desc>Speed 6.1 km/h Distance 34.58 km</desc>
<time>2010-06-13T08:52:25.03</time>
<name>8012</name>
</trkpt>
<trkpt lat="49.184197" lon="11.833180">
<ele>552.6</ele>
<speed>6.6</speed>
<course>175.0</course>
<desc>Speed 6.6 km/h Distance 34.58 km</desc>
<time>2010-06-13T08:52:26.03</time>
<name>8013</name>
</trkpt>
<trkpt lat="49.184175" lon="11.833183">
<ele>552.2</ele>
<speed>6.4</speed>
<course>196.9</course>
<desc>Speed 6.4 km/h Distance 34.58 km</desc>
<time>2010-06-13T08:52:27.03</time>
<name>8014</name>
</trkpt>
<trkpt lat="49.184150" lon="11.833172">
<ele>551.8</ele>
<speed>6.9</speed>
<course>153.1</course>
<desc>Speed 6.9 km/h Distance 34.59 km</desc>
<time>2010-06-13T08:52:28.03</time>
<name>8015</name>
</trkpt>
<trkpt lat="49.184135" lon="11.833183">
<ele>551.3</ele>
<speed>6.8</speed>
<course>194.0</course>
<desc>Speed 6.8 km/h Distance 34.59 km</desc>
<time>2010-06-13T08:52:29.03</time>
<name>8016</name>
</trkpt>
<trkpt lat="49.184113" lon="11.833175">
<ele>550.6</ele>
<speed>5.5</speed>
<course>198.1</course>
<desc>Speed 5.5 km/h Distance 34.59 km</desc>
<time>2010-06-13T08:52:30.03</time>
<name>8017</name>
</trkpt>
<trkpt lat="49.184097" lon="11.833167">
<ele>549.9</ele>
<speed>5.4</speed>
<course>146.3</course>
<desc>Speed 5.4 km/h Distance 34.59 km</desc>
<time>2010-06-13T08:52:31.03</time>
<name>8018</name>
</trkpt>
<trkpt lat="49.184093" lon="11.833170">
<ele>550.8</ele>
<speed>4.2</speed>
<course>172.6</course>
<desc>Speed 4.2 km/h Distance 34.59 km</desc>
<time>2010-06-13T08:52:32.03</time>
<name>8019</name>
</trkpt>
<trkpt lat="49.184087" lon="11.833172">
<ele>551.2</ele>
<speed>4.3</speed>
<course>166.5</course>
<desc>Speed 4.3 km/h Distance 34.59 km</desc>
<time>2010-06-13T08:52:33.03</time>
<name>8020</name>
</trkpt>
<trkpt lat="49.184073" lon="11.833177">
<ele>551.1</ele>
<speed>5.0</speed>
<course>174.7</course>
<desc>Speed 5.0 km/h Distance 34.59 km</desc>
<time>2010-06-13T08:52:34.03</time>
<name>8021</name>
</trkpt>
<trkpt lat="49.184060" lon="11.833178">
<ele>551.6</ele>
<speed>6.6</speed>
<course>198.1</course>
<desc>Speed 6.6 km/h Distance 34.60 km</desc>
<time>2010-06-13T08:52:35.03</time>
<name>8022</name>
</trkpt>
<trkpt lat="49.184043" lon="11.833170">
<ele>552.2</ele>
<speed>6.4</speed>
<course>176.1</course>
<desc>Speed 6.4 km/h Distance 34.60 km</desc>
<time>2010-06-13T08:52:36.03</time>
<name>8023</name>
</trkpt>
<trkpt lat="49.184030" lon="11.833172">
<ele>552.6</ele>
<speed>5.2</speed>
<course>180.0</course>
<desc>Speed 5.2 km/h Distance 34.60 km</desc>
<time>2010-06-13T08:52:37.03</time>
<name>8024</name>
</trkpt>
<trkpt lat="49.184020" lon="11.833172">
<ele>553.3</ele>
<speed>4.2</speed>
<course>177.2</course>
<desc>Speed 4.2 km/h Distance 34.60 km</desc>
<time>2010-06-13T08:52:38.03</time>
<name>8025</name>
</trkpt>
<trkpt lat="49.184003" lon="11.833172">
<ele>553.0</ele>
<speed>5.1</speed>
<course>206.0</course>
<desc>Speed 5.1 km/h Distance 34.60 km</desc>
<time>2010-06-13T08:52:39.03</time>
<name>8026</name>
</trkpt>
<trkpt lat="49.183990" lon="11.833162">
<ele>554.1</ele>
<speed>5.4</speed>
<course>183.2</course>
<desc>Speed 5.4 km/h Distance 34.60 km</desc>
<time>2010-06-13T08:52:40.03</time>
<name>8027</name>
</trkpt>
<trkpt lat="49.183968" lon="11.833160">
<ele>553.4</ele>
<speed>4.3</speed>
<course>167.8</course>
<desc>Speed 4.3 km/h Distance 34.61 km</desc>
<time>2010-06-13T08:52:41.03</time>
<name>8028</name>
</trkpt>
<trkpt lat="49.183953" lon="11.833165">
<ele>553.2</ele>
<speed>4.0</speed>
<course>174.7</course>
<desc>Speed 4.0 km/h Distance 34.61 km</desc>
<time>2010-06-13T08:52:42.03</time>
<name>8029</name>
</trkpt>
<trkpt lat="49.183940" lon="11.833167">
<ele>552.8</ele>
<speed>4.6</speed>
<course>176.2</course>
<desc>Speed 4.6 km/h Distance 34.61 km</desc>
<time>2010-06-13T08:52:43.03</time>
<name>8030</name>
</trkpt>
<trkpt lat="49.183925" lon="11.833168">
<ele>552.2</ele>
<speed>4.8</speed>
<course>249.0</course>
<desc>Speed 4.8 km/h Distance 34.61 km</desc>
<time>2010-06-13T08:52:44.03</time>
<name>8031</name>
</trkpt>
<trkpt lat="49.183922" lon="11.833155">
<ele>551.2</ele>
<speed>4.7</speed>
<course>102.9</course>
<desc>Speed 4.7 km/h Distance 34.61 km</desc>
<time>2010-06-13T08:52:45.03</time>
<name>8032</name>
</trkpt>
<trkpt lat="49.183917" lon="11.833188">
<ele>551.1</ele>
<speed>4.1</speed>
<course>140.0</course>
<desc>Speed 4.1 km/h Distance 34.61 km</desc>
<time>2010-06-13T08:52:46.03</time>
<name>8033</name>
</trkpt>
<trkpt lat="49.183905" lon="11.833203">
<ele>552.5</ele>
<speed>5.0</speed>
<course>146.8</course>
<desc>Speed 5.0 km/h Distance 34.62 km</desc>
<time>2010-06-13T08:52:47.03</time>
<name>8034</name>
</trkpt>
<trkpt lat="49.183888" lon="11.833220">
<ele>553.8</ele>
<speed>5.9</speed>
<course>161.8</course>
<desc>Speed 5.9 km/h Distance 34.62 km</desc>
<time>2010-06-13T08:52:48.03</time>
<name>8035</name>
</trkpt>
<trkpt lat="49.183868" lon="11.833230">
<ele>554.8</ele>
<speed>5.4</speed>
<course>169.8</course>
<desc>Speed 5.4 km/h Distance 34.62 km</desc>
<time>2010-06-13T08:52:49.03</time>
<name>8036</name>
</trkpt>
<trkpt lat="49.183850" lon="11.833235">
<ele>555.6</ele>
<speed>5.1</speed>
<course>140.6</course>
<desc>Speed 5.1 km/h Distance 34.62 km</desc>
<time>2010-06-13T08:52:50.03</time>
<name>8037</name>
</trkpt>
<trkpt lat="49.183837" lon="11.833252">
<ele>555.8</ele>
<speed>4.8</speed>
<course>160.5</course>
<desc>Speed 4.8 km/h Distance 34.62 km</desc>
<time>2010-06-13T08:52:51.03</time>
<name>8038</name>
</trkpt>
<trkpt lat="49.183818" lon="11.833262">
<ele>557.1</ele>
<speed>6.0</speed>
<course>149.6</course>
<desc>Speed 6.0 km/h Distance 34.63 km</desc>
<time>2010-06-13T08:52:52.03</time>
<name>8039</name>
</trkpt>
<trkpt lat="49.183802" lon="11.833277">
<ele>558.4</ele>
<speed>5.4</speed>
<course>167.9</course>
<desc>Speed 5.4 km/h Distance 34.63 km</desc>
<time>2010-06-13T08:52:53.03</time>
<name>8040</name>
</trkpt>
<trkpt lat="49.183782" lon="11.833283">
<ele>560.1</ele>
<speed>6.4</speed>
<course>153.1</course>
<desc>Speed 6.4 km/h Distance 34.63 km</desc>
<time>2010-06-13T08:52:54.03</time>
<name>8041</name>
</trkpt>
<trkpt lat="49.183767" lon="11.833295">
<ele>561.9</ele>
<speed>3.7</speed>
<course>33.7</course>
<desc>Speed 3.7 km/h Distance 34.63 km</desc>
<time>2010-06-13T08:52:55.03</time>
<name>8042</name>
</trkpt>
<trkpt lat="49.183770" lon="11.833298">
<ele>561.2</ele>
<speed>1.2</speed>
<course>26.4</course>
<desc>Speed 1.2 km/h Distance 34.63 km</desc>
<time>2010-06-13T08:52:56.03</time>
<name>8043</name>
</trkpt>
<trkpt lat="49.183777" lon="11.833303">
<ele>560.2</ele>
<speed>0.3</speed>
<course>7.4</course>
<desc>Speed 0.3 km/h Distance 34.63 km</desc>
<time>2010-06-13T08:52:57.03</time>
<name>8044</name>
</trkpt>
<trkpt lat="49.183783" lon="11.833305">
<ele>558.7</ele>
<speed>0.8</speed>
<course>270.0</course>
<desc>Speed 0.8 km/h Distance 34.64 km</desc>
<time>2010-06-13T08:52:58.03</time>
<name>8045</name>
</trkpt>
<trkpt lat="49.183783" lon="11.833298">
<ele>557.8</ele>
<speed>1.8</speed>
<course>98.7</course>
<desc>Speed 1.8 km/h Distance 34.64 km</desc>
<time>2010-06-13T08:52:59.03</time>
<name>8046</name>
</trkpt>
<trkpt lat="49.183782" lon="11.833315">
<ele>558.3</ele>
<speed>2.6</speed>
<course>191.2</course>
<desc>Speed 2.6 km/h Distance 34.64 km</desc>
<time>2010-06-13T08:53:00.03</time>
<name>8047</name>
</trkpt>
<trkpt lat="49.183770" lon="11.833312">
<ele>558.4</ele>
<speed>4.1</speed>
<course>133.3</course>
<desc>Speed 4.1 km/h Distance 34.64 km</desc>
<time>2010-06-13T08:53:01.03</time>
<name>8048</name>
</trkpt>
<trkpt lat="49.183757" lon="11.833333">
<ele>559.3</ele>
<speed>4.9</speed>
<course>140.0</course>
<desc>Speed 4.9 km/h Distance 34.64 km</desc>
<time>2010-06-13T08:53:02.03</time>
<name>8049</name>
</trkpt>
<trkpt lat="49.183745" lon="11.833348">
<ele>560.0</ele>
<speed>4.8</speed>
<course>142.5</course>
<desc>Speed 4.8 km/h Distance 34.64 km</desc>
<time>2010-06-13T08:53:03.03</time>
<name>8050</name>
</trkpt>
<trkpt lat="49.183735" lon="11.833360">
<ele>560.6</ele>
<speed>4.1</speed>
<course>130.3</course>
<desc>Speed 4.1 km/h Distance 34.64 km</desc>
<time>2010-06-13T08:53:04.03</time>
<name>8051</name>
</trkpt>
<trkpt lat="49.183727" lon="11.833375">
<ele>561.3</ele>
<speed>4.8</speed>
<course>84.2</course>
<desc>Speed 4.8 km/h Distance 34.64 km</desc>
<time>2010-06-13T08:53:05.03</time>
<name>8052</name>
</trkpt>
<trkpt lat="49.183728" lon="11.833400">
<ele>560.6</ele>
<speed>4.4</speed>
<course>124.8</course>
<desc>Speed 4.4 km/h Distance 34.65 km</desc>
<time>2010-06-13T08:53:06.03</time>
<name>8053</name>
</trkpt>
<trkpt lat="49.183720" lon="11.833418">
<ele>561.0</ele>
<speed>4.9</speed>
<course>131.1</course>
<desc>Speed 4.9 km/h Distance 34.65 km</desc>
<time>2010-06-13T08:53:07.03</time>
<name>8054</name>
</trkpt>
<trkpt lat="49.183713" lon="11.833430">
<ele>560.6</ele>
<speed>5.2</speed>
<course>107.0</course>
<desc>Speed 5.2 km/h Distance 34.65 km</desc>
<time>2010-06-13T08:53:08.03</time>
<name>8055</name>
</trkpt>
<trkpt lat="49.183708" lon="11.833455">
<ele>560.9</ele>
<speed>4.9</speed>
<course>124.8</course>
<desc>Speed 4.9 km/h Distance 34.65 km</desc>
<time>2010-06-13T08:53:09.03</time>
<name>8056</name>
</trkpt>
<trkpt lat="49.183700" lon="11.833473">
<ele>561.3</ele>
<speed>4.5</speed>
<course>151.4</course>
<desc>Speed 4.5 km/h Distance 34.65 km</desc>
<time>2010-06-13T08:53:10.03</time>
<name>8057</name>
</trkpt>
<trkpt lat="49.183690" lon="11.833482">
<ele>561.2</ele>
<speed>4.6</speed>
<course>152.1</course>
<desc>Speed 4.6 km/h Distance 34.65 km</desc>
<time>2010-06-13T08:53:11.03</time>
<name>8058</name>
</trkpt>
<trkpt lat="49.183682" lon="11.833488">
<ele>561.0</ele>
<speed>4.1</speed>
<course>151.4</course>
<desc>Speed 4.1 km/h Distance 34.66 km</desc>
<time>2010-06-13T08:53:12.03</time>
<name>8059</name>
</trkpt>
<trkpt lat="49.183672" lon="11.833497">
<ele>561.0</ele>
<speed>4.3</speed>
<course>152.1</course>
<desc>Speed 4.3 km/h Distance 34.66 km</desc>
<time>2010-06-13T08:53:13.03</time>
<name>8060</name>
</trkpt>
<trkpt lat="49.183663" lon="11.833503">
<ele>561.3</ele>
<speed>2.2</speed>
<course>146.3</course>
<desc>Speed 2.2 km/h Distance 34.66 km</desc>
<time>2010-06-13T08:53:14.03</time>
<name>8061</name>
</trkpt>
<trkpt lat="49.183660" lon="11.833507">
<ele>561.5</ele>
<speed>0.9</speed>
<course>161.2</course>
<desc>Speed 0.9 km/h Distance 34.66 km</desc>
<time>2010-06-13T08:53:15.03</time>
<name>8062</name>
</trkpt>
<trkpt lat="49.183653" lon="11.833510">
<ele>561.9</ele>
<speed>3.2</speed>
<course>121.4</course>
<desc>Speed 3.2 km/h Distance 34.66 km</desc>
<time>2010-06-13T08:53:16.03</time>
<name>8063</name>
</trkpt>
<trkpt lat="49.183647" lon="11.833527">
<ele>562.2</ele>
<speed>4.6</speed>
<course>112.2</course>
<desc>Speed 4.6 km/h Distance 34.66 km</desc>
<time>2010-06-13T08:53:17.03</time>
<name>8064</name>
</trkpt>
<trkpt lat="49.183640" lon="11.833552">
<ele>562.5</ele>
<speed>5.3</speed>
<course>155.4</course>
<desc>Speed 5.3 km/h Distance 34.66 km</desc>
<time>2010-06-13T08:53:18.03</time>
<name>8065</name>
</trkpt>
<trkpt lat="49.183628" lon="11.833560">
<ele>562.6</ele>
<speed>5.2</speed>
<course>151.7</course>
<desc>Speed 5.2 km/h Distance 34.66 km</desc>
<time>2010-06-13T08:53:19.03</time>
<name>8066</name>
</trkpt>
<trkpt lat="49.183618" lon="11.833568">
<ele>562.5</ele>
<speed>5.0</speed>
<course>130.3</course>
<desc>Speed 5.0 km/h Distance 34.66 km</desc>
<time>2010-06-13T08:53:20.03</time>
<name>8067</name>
</trkpt>
<trkpt lat="49.183610" lon="11.833583">
<ele>562.6</ele>
<speed>5.4</speed>
<course>132.6</course>
<desc>Speed 5.4 km/h Distance 34.67 km</desc>
<time>2010-06-13T08:53:21.03</time>
<name>8068</name>
</trkpt>
<trkpt lat="49.183600" lon="11.833600">
<ele>562.9</ele>
<speed>5.4</speed>
<course>129.9</course>
<desc>Speed 5.4 km/h Distance 34.67 km</desc>
<time>2010-06-13T08:53:22.03</time>
<name>8069</name>
</trkpt>
<trkpt lat="49.183590" lon="11.833618">
<ele>562.9</ele>
<speed>4.8</speed>
<course>124.8</course>
<desc>Speed 4.8 km/h Distance 34.67 km</desc>
<time>2010-06-13T08:53:23.03</time>
<name>8070</name>
</trkpt>
<trkpt lat="49.183582" lon="11.833637">
<ele>563.1</ele>
<speed>5.3</speed>
<course>139.1</course>
<desc>Speed 5.3 km/h Distance 34.67 km</desc>
<time>2010-06-13T08:53:24.03</time>
<name>8071</name>
</trkpt>
<trkpt lat="49.183577" lon="11.833643">
<ele>562.6</ele>
<speed>4.6</speed>
<course>178.8</course>
<desc>Speed 4.6 km/h Distance 34.67 km</desc>
<time>2010-06-13T08:53:25.03</time>
<name>8072</name>
</trkpt>
<trkpt lat="49.183563" lon="11.833643">
<ele>563.5</ele>
<speed>4.8</speed>
<course>124.2</course>
<desc>Speed 4.8 km/h Distance 34.67 km</desc>
<time>2010-06-13T08:53:26.03</time>
<name>8073</name>
</trkpt>
<trkpt lat="49.183557" lon="11.833658">
<ele>563.5</ele>
<speed>4.9</speed>
<course>131.1</course>
<desc>Speed 4.9 km/h Distance 34.67 km</desc>
<time>2010-06-13T08:53:27.03</time>
<name>8074</name>
</trkpt>
<trkpt lat="49.183550" lon="11.833670">
<ele>562.7</ele>
<speed>4.1</speed>
<course>99.6</course>
<desc>Speed 4.1 km/h Distance 34.68 km</desc>
<time>2010-06-13T08:53:28.03</time>
<name>8075</name>
</trkpt>
<trkpt lat="49.183548" lon="11.833685">
<ele>562.0</ele>
<speed>3.6</speed>
<course>129.9</course>
<desc>Speed 3.6 km/h Distance 34.68 km</desc>
<time>2010-06-13T08:53:29.03</time>
<name>8076</name>
</trkpt>
<trkpt lat="49.183538" lon="11.833703">
<ele>562.2</ele>
<speed>4.9</speed>
<course>156.7</course>
<desc>Speed 4.9 km/h Distance 34.68 km</desc>
<time>2010-06-13T08:53:30.03</time>
<name>8077</name>
</trkpt>
<trkpt lat="49.183523" lon="11.833713">
<ele>564.1</ele>
<speed>5.3</speed>
<course>123.8</course>
<desc>Speed 5.3 km/h Distance 34.68 km</desc>
<time>2010-06-13T08:53:31.03</time>
<name>8078</name>
</trkpt>
<trkpt lat="49.183512" lon="11.833740">
<ele>564.4</ele>
<speed>5.3</speed>
<course>124.2</course>
<desc>Speed 5.3 km/h Distance 34.68 km</desc>
<time>2010-06-13T08:53:32.03</time>
<name>8079</name>
</trkpt>
<trkpt lat="49.183498" lon="11.833770">
<ele>564.5</ele>
<speed>5.9</speed>
<course>138.9</course>
<desc>Speed 5.9 km/h Distance 34.69 km</desc>
<time>2010-06-13T08:53:33.03</time>
<name>8080</name>
</trkpt>
<trkpt lat="49.183483" lon="11.833790">
<ele>565.6</ele>
<speed>6.2</speed>
<course>138.9</course>
<desc>Speed 6.2 km/h Distance 34.69 km</desc>
<time>2010-06-13T08:53:34.03</time>
<name>8081</name>
</trkpt>
<trkpt lat="49.183468" lon="11.833810">
<ele>567.2</ele>
<speed>5.3</speed>
<course>139.9</course>
<desc>Speed 5.3 km/h Distance 34.69 km</desc>
<time>2010-06-13T08:53:35.03</time>
<name>8082</name>
</trkpt>
<trkpt lat="49.183457" lon="11.833825">
<ele>567.9</ele>
<speed>4.7</speed>
<course>142.7</course>
<desc>Speed 4.7 km/h Distance 34.69 km</desc>
<time>2010-06-13T08:53:36.03</time>
<name>8083</name>
</trkpt>
<trkpt lat="49.183447" lon="11.833837">
<ele>567.9</ele>
<speed>4.9</speed>
<course>175.0</course>
<desc>Speed 4.9 km/h Distance 34.69 km</desc>
<time>2010-06-13T08:53:37.03</time>
<name>8084</name>
</trkpt>
<trkpt lat="49.183438" lon="11.833837">
<ele>569.2</ele>
<speed>4.2</speed>
<course>171.9</course>
<desc>Speed 4.2 km/h Distance 34.69 km</desc>
<time>2010-06-13T08:53:38.03</time>
<name>8085</name>
</trkpt>
<trkpt lat="49.183433" lon="11.833837">
<ele>570.2</ele>
<speed>1.3</speed>
<course>128.1</course>
<desc>Speed 1.3 km/h Distance 34.69 km</desc>
<time>2010-06-13T08:53:39.03</time>
<name>8086</name>
</trkpt>
<trkpt lat="49.183432" lon="11.833840">
<ele>570.6</ele>
<speed>2.0</speed>
<course>156.2</course>
<desc>Speed 2.0 km/h Distance 34.70 km</desc>
<time>2010-06-13T08:53:40.03</time>
<name>8087</name>
</trkpt>
<trkpt lat="49.183427" lon="11.833843">
<ele>571.7</ele>
<speed>1.4</speed>
<course>180.0</course>
<desc>Speed 1.4 km/h Distance 34.70 km</desc>
<time>2010-06-13T08:53:41.03</time>
<name>8088</name>
</trkpt>
<trkpt lat="49.183423" lon="11.833843">
<ele>571.8</ele>
<speed>1.3</speed>
<course>175.0</course>
<desc>Speed 1.3 km/h Distance 34.70 km</desc>
<time>2010-06-13T08:53:42.03</time>
<name>8089</name>
</trkpt>
<trkpt lat="49.183415" lon="11.833843">
<ele>572.1</ele>
<speed>3.7</speed>
<course>90.0</course>
<desc>Speed 3.7 km/h Distance 34.70 km</desc>
<time>2010-06-13T08:53:43.03</time>
<name>8090</name>
</trkpt>
<trkpt lat="49.183415" lon="11.833862">
<ele>570.6</ele>
<speed>3.1</speed>
<course>104.4</course>
<desc>Speed 3.1 km/h Distance 34.70 km</desc>
<time>2010-06-13T08:53:44.03</time>
<name>8091</name>
</trkpt>
<trkpt lat="49.183413" lon="11.833872">
<ele>570.0</ele>
<speed>4.3</speed>
<course>115.6</course>
<desc>Speed 4.3 km/h Distance 34.70 km</desc>
<time>2010-06-13T08:53:45.03</time>
<name>8092</name>
</trkpt>
<trkpt lat="49.183405" lon="11.833898">
<ele>569.1</ele>
<speed>6.2</speed>
<course>121.5</course>
<desc>Speed 6.2 km/h Distance 34.70 km</desc>
<time>2010-06-13T08:53:46.03</time>
<name>8093</name>
</trkpt>
<trkpt lat="49.183395" lon="11.833923">
<ele>569.1</ele>
<speed>5.5</speed>
<course>105.1</course>
<desc>Speed 5.5 km/h Distance 34.70 km</desc>
<time>2010-06-13T08:53:47.03</time>
<name>8094</name>
</trkpt>
<trkpt lat="49.183390" lon="11.833952">
<ele>567.7</ele>
<speed>5.4</speed>
<course>95.1</course>
<desc>Speed 5.4 km/h Distance 34.71 km</desc>
<time>2010-06-13T08:53:48.03</time>
<name>8095</name>
</trkpt>
<trkpt lat="49.183388" lon="11.833980">
<ele>565.2</ele>
<speed>6.1</speed>
<course>123.2</course>
<desc>Speed 6.1 km/h Distance 34.71 km</desc>
<time>2010-06-13T08:53:49.03</time>
<name>8096</name>
</trkpt>
<trkpt lat="49.183373" lon="11.834015">
<ele>565.3</ele>
<speed>7.2</speed>
<course>118.4</course>
<desc>Speed 7.2 km/h Distance 34.71 km</desc>
<time>2010-06-13T08:53:50.03</time>
<name>8097</name>
</trkpt>
<trkpt lat="49.183363" lon="11.834043">
<ele>564.9</ele>
<speed>7.8</speed>
<course>117.0</course>
<desc>Speed 7.8 km/h Distance 34.71 km</desc>
<time>2010-06-13T08:53:51.03</time>
<name>8098</name>
</trkpt>
<trkpt lat="49.183353" lon="11.834073">
<ele>564.5</ele>
<speed>7.6</speed>
<course>117.0</course>
<desc>Speed 7.6 km/h Distance 34.72 km</desc>
<time>2010-06-13T08:53:52.03</time>
<name>8099</name>
</trkpt>
<trkpt lat="49.183343" lon="11.834103">
<ele>564.2</ele>
<speed>8.0</speed>
<course>121.4</course>
<desc>Speed 8.0 km/h Distance 34.72 km</desc>
<time>2010-06-13T08:53:53.03</time>
<name>8100</name>
</trkpt>
<trkpt lat="49.183330" lon="11.834137">
<ele>565.1</ele>
<speed>7.6</speed>
<course>122.8</course>
<desc>Speed 7.6 km/h Distance 34.72 km</desc>
<time>2010-06-13T08:53:54.03</time>
<name>8101</name>
</trkpt>
<trkpt lat="49.183317" lon="11.834168">
<ele>566.2</ele>
<speed>7.1</speed>
<course>99.7</course>
<desc>Speed 7.1 km/h Distance 34.72 km</desc>
<time>2010-06-13T08:53:55.03</time>
<name>8102</name>
</trkpt>
<trkpt lat="49.183313" lon="11.834198">
<ele>565.2</ele>
<speed>7.2</speed>
<course>121.5</course>
<desc>Speed 7.2 km/h Distance 34.73 km</desc>
<time>2010-06-13T08:53:56.03</time>
<name>8103</name>
</trkpt>
<trkpt lat="49.183303" lon="11.834223">
<ele>564.6</ele>
<speed>9.3</speed>
<course>119.8</course>
<desc>Speed 9.3 km/h Distance 34.73 km</desc>
<time>2010-06-13T08:53:57.03</time>
<name>8104</name>
</trkpt>
<trkpt lat="49.183288" lon="11.834263">
<ele>566.6</ele>
<speed>9.2</speed>
<course>94.2</course>
<desc>Speed 9.2 km/h Distance 34.73 km</desc>
<time>2010-06-13T08:53:58.03</time>
<name>8105</name>
</trkpt>
<trkpt lat="49.183287" lon="11.834298">
<ele>566.2</ele>
<speed>8.4</speed>
<course>95.8</course>
<desc>Speed 8.4 km/h Distance 34.73 km</desc>
<time>2010-06-13T08:53:59.03</time>
<name>8106</name>
</trkpt>
<trkpt lat="49.183285" lon="11.834323">
<ele>565.9</ele>
<speed>7.5</speed>
<course>90.0</course>
<desc>Speed 7.5 km/h Distance 34.74 km</desc>
<time>2010-06-13T08:54:00.03</time>
<name>8107</name>
</trkpt>
<trkpt lat="49.183285" lon="11.834353">
<ele>565.4</ele>
<speed>7.9</speed>
<course>94.0</course>
<desc>Speed 7.9 km/h Distance 34.74 km</desc>
<time>2010-06-13T08:54:01.03</time>
<name>8108</name>
</trkpt>
<trkpt lat="49.183283" lon="11.834390">
<ele>564.9</ele>
<speed>8.8</speed>
<course>102.3</course>
<desc>Speed 8.8 km/h Distance 34.74 km</desc>
<time>2010-06-13T08:54:02.03</time>
<name>8109</name>
</trkpt>
<trkpt lat="49.183278" lon="11.834425">
<ele>564.4</ele>
<speed>9.4</speed>
<course>107.8</course>
<desc>Speed 9.4 km/h Distance 34.74 km</desc>
<time>2010-06-13T08:54:03.03</time>
<name>8110</name>
</trkpt>
<trkpt lat="49.183272" lon="11.834457">
<ele>563.3</ele>
<speed>8.1</speed>
<course>110.9</course>
<desc>Speed 8.1 km/h Distance 34.75 km</desc>
<time>2010-06-13T08:54:04.03</time>
<name>8111</name>
</trkpt>
<trkpt lat="49.183265" lon="11.834483">
<ele>562.3</ele>
<speed>7.5</speed>
<course>120.5</course>
<desc>Speed 7.5 km/h Distance 34.75 km</desc>
<time>2010-06-13T08:54:05.03</time>
<name>8112</name>
</trkpt>
<trkpt lat="49.183257" lon="11.834505">
<ele>560.9</ele>
<speed>7.2</speed>
<course>131.7</course>
<desc>Speed 7.2 km/h Distance 34.75 km</desc>
<time>2010-06-13T08:54:06.03</time>
<name>8113</name>
</trkpt>
<trkpt lat="49.183245" lon="11.834525">
<ele>559.4</ele>
<speed>7.3</speed>
<course>149.5</course>
<desc>Speed 7.3 km/h Distance 34.75 km</desc>
<time>2010-06-13T08:54:07.03</time>
<name>8114</name>
</trkpt>
<trkpt lat="49.183228" lon="11.834540">
<ele>557.6</ele>
<speed>8.1</speed>
<course>136.4</course>
<desc>Speed 8.1 km/h Distance 34.75 km</desc>
<time>2010-06-13T08:54:08.03</time>
<name>8115</name>
</trkpt>
<trkpt lat="49.183210" lon="11.834567">
<ele>555.3</ele>
<speed>9.0</speed>
<course>133.7</course>
<desc>Speed 9.0 km/h Distance 34.76 km</desc>
<time>2010-06-13T08:54:09.03</time>
<name>8116</name>
</trkpt>
<trkpt lat="49.183193" lon="11.834593">
<ele>553.5</ele>
<speed>8.3</speed>
<course>110.9</course>
<desc>Speed 8.3 km/h Distance 34.76 km</desc>
<time>2010-06-13T08:54:10.03</time>
<name>8117</name>
</trkpt>
<trkpt lat="49.183185" lon="11.834627">
<ele>552.0</ele>
<speed>7.6</speed>
<course>85.8</course>
<desc>Speed 7.6 km/h Distance 34.76 km</desc>
<time>2010-06-13T08:54:11.03</time>
<name>8118</name>
</trkpt>
<trkpt lat="49.183187" lon="11.834662">
<ele>551.1</ele>
<speed>6.6</speed>
<course>72.2</course>
<desc>Speed 6.6 km/h Distance 34.76 km</desc>
<time>2010-06-13T08:54:12.03</time>
<name>8119</name>
</trkpt>
<trkpt lat="49.183193" lon="11.834693">
<ele>550.4</ele>
<speed>7.0</speed>
<course>71.6</course>
<desc>Speed 7.0 km/h Distance 34.77 km</desc>
<time>2010-06-13T08:54:13.03</time>
<name>8120</name>
</trkpt>
<trkpt lat="49.183202" lon="11.834732">
<ele>548.5</ele>
<speed>7.8</speed>
<course>75.1</course>
<desc>Speed 7.8 km/h Distance 34.77 km</desc>
<time>2010-06-13T08:54:14.03</time>
<name>8121</name>
</trkpt>
<trkpt lat="49.183208" lon="11.834770">
<ele>548.4</ele>
<speed>8.3</speed>
<course>80.0</course>
<desc>Speed 8.3 km/h Distance 34.77 km</desc>
<time>2010-06-13T08:54:15.03</time>
<name>8122</name>
</trkpt>
<trkpt lat="49.183213" lon="11.834813">
<ele>546.5</ele>
<speed>9.5</speed>
<course>65.9</course>
<desc>Speed 9.5 km/h Distance 34.78 km</desc>
<time>2010-06-13T08:54:16.03</time>
<name>8123</name>
</trkpt>
<trkpt lat="49.183225" lon="11.834853">
<ele>544.9</ele>
<speed>9.5</speed>
<course>90.0</course>
<desc>Speed 9.5 km/h Distance 34.78 km</desc>
<time>2010-06-13T08:54:17.03</time>
<name>8124</name>
</trkpt>
<trkpt lat="49.183225" lon="11.834890">
<ele>543.7</ele>
<speed>8.4</speed>
<course>113.0</course>
<desc>Speed 8.4 km/h Distance 34.78 km</desc>
<time>2010-06-13T08:54:18.03</time>
<name>8125</name>
</trkpt>
<trkpt lat="49.183217" lon="11.834920">
<ele>542.2</ele>
<speed>7.3</speed>
<course>79.8</course>
<desc>Speed 7.3 km/h Distance 34.78 km</desc>
<time>2010-06-13T08:54:19.03</time>
<name>8126</name>
</trkpt>
<trkpt lat="49.183220" lon="11.834948">
<ele>540.3</ele>
<speed>8.5</speed>
<course>90.0</course>
<desc>Speed 8.5 km/h Distance 34.79 km</desc>
<time>2010-06-13T08:54:20.03</time>
<name>8127</name>
</trkpt>
<trkpt lat="49.183220" lon="11.834992">
<ele>539.6</ele>
<speed>9.3</speed>
<course>102.8</course>
<desc>Speed 9.3 km/h Distance 34.79 km</desc>
<time>2010-06-13T08:54:21.03</time>
<name>8128</name>
</trkpt>
<trkpt lat="49.183213" lon="11.835037">
<ele>538.5</ele>
<speed>10.5</speed>
<course>122.0</course>
<desc>Speed 10.5 km/h Distance 34.79 km</desc>
<time>2010-06-13T08:54:22.03</time>
<name>8129</name>
</trkpt>
<trkpt lat="49.183198" lon="11.835073">
<ele>537.3</ele>
<speed>10.4</speed>
<course>124.2</course>
<desc>Speed 10.4 km/h Distance 34.80 km</desc>
<time>2010-06-13T08:54:23.03</time>
<name>8130</name>
</trkpt>
<trkpt lat="49.183185" lon="11.835103">
<ele>536.4</ele>
<speed>9.0</speed>
<course>107.8</course>
<desc>Speed 9.0 km/h Distance 34.80 km</desc>
<time>2010-06-13T08:54:24.03</time>
<name>8131</name>
</trkpt>
<trkpt lat="49.183178" lon="11.835135">
<ele>536.7</ele>
<speed>6.8</speed>
<course>95.5</course>
<desc>Speed 6.8 km/h Distance 34.80 km</desc>
<time>2010-06-13T08:54:25.03</time>
<name>8132</name>
</trkpt>
<trkpt lat="49.183177" lon="11.835162">
<ele>538.2</ele>
<speed>6.0</speed>
<course>107.0</course>
<desc>Speed 6.0 km/h Distance 34.80 km</desc>
<time>2010-06-13T08:54:26.03</time>
<name>8133</name>
</trkpt>
<trkpt lat="49.183172" lon="11.835187">
<ele>536.7</ele>
<speed>6.7</speed>
<course>79.2</course>
<desc>Speed 6.7 km/h Distance 34.80 km</desc>
<time>2010-06-13T08:54:27.03</time>
<name>8134</name>
</trkpt>
<trkpt lat="49.183187" lon="11.835307">
<ele>534.1</ele>
<speed>12.4</speed>
<course>71.2</course>
<desc>Speed 12.4 km/h Distance 34.81 km</desc>
<time>2010-06-13T08:54:29.03</time>
<name>8135</name>
</trkpt>
<trkpt lat="49.183200" lon="11.835367">
<ele>532.6</ele>
<speed>12.4</speed>
<course>64.9</course>
<desc>Speed 12.4 km/h Distance 34.82 km</desc>
<time>2010-06-13T08:54:30.03</time>
<name>8136</name>
</trkpt>
<trkpt lat="49.183218" lon="11.835427">
<ele>529.9</ele>
<speed>14.7</speed>
<course>60.6</course>
<desc>Speed 14.7 km/h Distance 34.82 km</desc>
<time>2010-06-13T08:54:31.03</time>
<name>8137</name>
</trkpt>
<trkpt lat="49.183242" lon="11.835490">
<ele>526.7</ele>
<speed>14.8</speed>
<course>57.5</course>
<desc>Speed 14.8 km/h Distance 34.83 km</desc>
<time>2010-06-13T08:54:32.03</time>
<name>8138</name>
</trkpt>
<trkpt lat="49.183267" lon="11.835550">
<ele>523.8</ele>
<speed>14.3</speed>
<course>70.6</course>
<desc>Speed 14.3 km/h Distance 34.83 km</desc>
<time>2010-06-13T08:54:33.03</time>
<name>8139</name>
</trkpt>
<trkpt lat="49.183282" lon="11.835615">
<ele>522.1</ele>
<speed>16.6</speed>
<course>68.6</course>
<desc>Speed 16.6 km/h Distance 34.84 km</desc>
<time>2010-06-13T08:54:34.03</time>
<name>8140</name>
</trkpt>
<trkpt lat="49.183298" lon="11.835680">
<ele>522.5</ele>
<speed>17.0</speed>
<course>67.7</course>
<desc>Speed 17.0 km/h Distance 34.84 km</desc>
<time>2010-06-13T08:54:35.03</time>
<name>8141</name>
</trkpt>
<trkpt lat="49.183317" lon="11.835748">
<ele>522.2</ele>
<speed>17.2</speed>
<course>63.6</course>
<desc>Speed 17.2 km/h Distance 34.85 km</desc>
<time>2010-06-13T08:54:36.03</time>
<name>8142</name>
</trkpt>
<trkpt lat="49.183337" lon="11.835810">
<ele>520.6</ele>
<speed>17.0</speed>
<course>66.1</course>
<desc>Speed 17.0 km/h Distance 34.85 km</desc>
<time>2010-06-13T08:54:37.03</time>
<name>8143</name>
</trkpt>
<trkpt lat="49.183355" lon="11.835873">
<ele>517.6</ele>
<speed>15.5</speed>
<course>74.0</course>
<desc>Speed 15.5 km/h Distance 34.86 km</desc>
<time>2010-06-13T08:54:38.03</time>
<name>8144</name>
</trkpt>
<trkpt lat="49.183365" lon="11.835927">
<ele>513.3</ele>
<speed>14.6</speed>
<course>75.4</course>
<desc>Speed 14.6 km/h Distance 34.86 km</desc>
<time>2010-06-13T08:54:39.03</time>
<name>8145</name>
</trkpt>
<trkpt lat="49.183377" lon="11.835995">
<ele>510.1</ele>
<speed>12.3</speed>
<course>92.9</course>
<desc>Speed 12.3 km/h Distance 34.87 km</desc>
<time>2010-06-13T08:54:40.03</time>
<name>8146</name>
</trkpt>
<trkpt lat="49.183375" lon="11.836045">
<ele>505.8</ele>
<speed>9.8</speed>
<course>93.4</course>
<desc>Speed 9.8 km/h Distance 34.87 km</desc>
<time>2010-06-13T08:54:41.03</time>
<name>8147</name>
</trkpt>
<trkpt lat="49.183373" lon="11.836088">
<ele>503.4</ele>
<speed>9.5</speed>
<course>93.4</course>
<desc>Speed 9.5 km/h Distance 34.87 km</desc>
<time>2010-06-13T08:54:42.03</time>
<name>8148</name>
</trkpt>
<trkpt lat="49.183372" lon="11.836132">
<ele>501.3</ele>
<speed>9.7</speed>
<course>90.0</course>
<desc>Speed 9.7 km/h Distance 34.88 km</desc>
<time>2010-06-13T08:54:43.03</time>
<name>8149</name>
</trkpt>
<trkpt lat="49.183372" lon="11.836173">
<ele>497.4</ele>
<speed>9.7</speed>
<course>101.8</course>
<desc>Speed 9.7 km/h Distance 34.88 km</desc>
<time>2010-06-13T08:54:44.03</time>
<name>8150</name>
</trkpt>
<trkpt lat="49.183367" lon="11.836210">
<ele>494.1</ele>
<speed>9.3</speed>
<course>112.4</course>
<desc>Speed 9.3 km/h Distance 34.88 km</desc>
<time>2010-06-13T08:54:45.03</time>
<name>8151</name>
</trkpt>
<trkpt lat="49.183355" lon="11.836253">
<ele>491.2</ele>
<speed>11.7</speed>
<course>90.0</course>
<desc>Speed 11.7 km/h Distance 34.89 km</desc>
<time>2010-06-13T08:54:46.03</time>
<name>8152</name>
</trkpt>
<trkpt lat="49.183355" lon="11.836302">
<ele>488.5</ele>
<speed>10.9</speed>
<course>92.9</course>
<desc>Speed 10.9 km/h Distance 34.89 km</desc>
<time>2010-06-13T08:54:47.03</time>
<name>8153</name>
</trkpt>
<trkpt lat="49.183353" lon="11.836352">
<ele>484.2</ele>
<speed>11.4</speed>
<course>87.9</course>
<desc>Speed 11.4 km/h Distance 34.89 km</desc>
<time>2010-06-13T08:54:48.03</time>
<name>8154</name>
</trkpt>
<trkpt lat="49.183355" lon="11.836420">
<ele>479.2</ele>
<speed>14.4</speed>
<course>85.9</course>
<desc>Speed 14.4 km/h Distance 34.90 km</desc>
<time>2010-06-13T08:54:49.03</time>
<name>8155</name>
</trkpt>
<trkpt lat="49.183358" lon="11.836492">
<ele>473.9</ele>
<speed>17.2</speed>
<course>93.8</course>
<desc>Speed 17.2 km/h Distance 34.90 km</desc>
<time>2010-06-13T08:54:50.03</time>
<name>8156</name>
</trkpt>
<trkpt lat="49.183355" lon="11.836568">
<ele>468.2</ele>
<speed>17.1</speed>
<course>84.4</course>
<desc>Speed 17.1 km/h Distance 34.91 km</desc>
<time>2010-06-13T08:54:51.03</time>
<name>8157</name>
</trkpt>
<trkpt lat="49.183360" lon="11.836647">
<ele>462.2</ele>
<speed>16.0</speed>
<course>76.8</course>
<desc>Speed 16.0 km/h Distance 34.92 km</desc>
<time>2010-06-13T08:54:52.03</time>
<name>8158</name>
</trkpt>
<trkpt lat="49.183370" lon="11.836712">
<ele>457.1</ele>
<speed>15.6</speed>
<course>72.2</course>
<desc>Speed 15.6 km/h Distance 34.92 km</desc>
<time>2010-06-13T08:54:53.03</time>
<name>8159</name>
</trkpt>
<trkpt lat="49.183385" lon="11.836783">
<ele>453.5</ele>
<speed>17.4</speed>
<course>87.8</course>
<desc>Speed 17.4 km/h Distance 34.93 km</desc>
<time>2010-06-13T08:54:54.03</time>
<name>8160</name>
</trkpt>
<trkpt lat="49.183387" lon="11.836848">
<ele>451.3</ele>
<speed>17.9</speed>
<course>74.8</course>
<desc>Speed 17.9 km/h Distance 34.93 km</desc>
<time>2010-06-13T08:54:55.03</time>
<name>8161</name>
</trkpt>
<trkpt lat="49.183400" lon="11.836923">
<ele>449.1</ele>
<speed>18.1</speed>
<course>71.8</course>
<desc>Speed 18.1 km/h Distance 34.94 km</desc>
<time>2010-06-13T08:54:56.03</time>
<name>8162</name>
</trkpt>
<trkpt lat="49.183415" lon="11.836993">
<ele>446.2</ele>
<speed>17.9</speed>
<course>83.0</course>
<desc>Speed 17.9 km/h Distance 34.94 km</desc>
<time>2010-06-13T08:54:57.03</time>
<name>8163</name>
</trkpt>
<trkpt lat="49.183422" lon="11.837077">
<ele>442.7</ele>
<speed>18.7</speed>
<course>71.8</course>
<desc>Speed 18.7 km/h Distance 34.95 km</desc>
<time>2010-06-13T08:54:58.03</time>
<name>8164</name>
</trkpt>
<trkpt lat="49.183442" lon="11.837170">
<ele>441.7</ele>
<speed>18.3</speed>
<course>72.1</course>
<desc>Speed 18.3 km/h Distance 34.95 km</desc>
<time>2010-06-13T08:54:59.03</time>
<name>8165</name>
</trkpt>
<trkpt lat="49.183482" lon="11.837360">
<ele>436.7</ele>
<speed>20.0</speed>
<course>70.2</course>
<desc>Speed 20.0 km/h Distance 34.97 km</desc>
<time>2010-06-13T08:55:01.03</time>
<name>8166</name>
</trkpt>
<trkpt lat="49.183502" lon="11.837445">
<ele>435.6</ele>
<speed>21.7</speed>
<course>69.8</course>
<desc>Speed 21.7 km/h Distance 34.98 km</desc>
<time>2010-06-13T08:55:02.03</time>
<name>8167</name>
</trkpt>
<trkpt lat="49.183523" lon="11.837535">
<ele>434.2</ele>
<speed>21.6</speed>
<course>66.2</course>
<desc>Speed 21.6 km/h Distance 34.98 km</desc>
<time>2010-06-13T08:55:03.03</time>
<name>8168</name>
</trkpt>
<trkpt lat="49.183545" lon="11.837610">
<ele>432.1</ele>
<speed>18.4</speed>
<course>64.7</course>
<desc>Speed 18.4 km/h Distance 34.99 km</desc>
<time>2010-06-13T08:55:04.03</time>
<name>8169</name>
</trkpt>
<trkpt lat="49.183567" lon="11.837680">
<ele>430.3</ele>
<speed>17.9</speed>
<course>67.8</course>
<desc>Speed 17.9 km/h Distance 34.99 km</desc>
<time>2010-06-13T08:55:05.03</time>
<name>8170</name>
</trkpt>
<trkpt lat="49.183587" lon="11.837755">
<ele>428.7</ele>
<speed>19.3</speed>
<course>68.2</course>
<desc>Speed 19.3 km/h Distance 35.00 km</desc>
<time>2010-06-13T08:55:06.03</time>
<name>8171</name>
</trkpt>
<trkpt lat="49.183605" lon="11.837825">
<ele>426.9</ele>
<speed>18.1</speed>
<course>76.6</course>
<desc>Speed 18.1 km/h Distance 35.01 km</desc>
<time>2010-06-13T08:55:07.03</time>
<name>8172</name>
</trkpt>
<trkpt lat="49.183617" lon="11.837900">
<ele>426.1</ele>
<speed>17.2</speed>
<course>76.0</course>
<desc>Speed 17.2 km/h Distance 35.01 km</desc>
<time>2010-06-13T08:55:08.03</time>
<name>8173</name>
</trkpt>
<trkpt lat="49.183630" lon="11.837982">
<ele>424.0</ele>
<speed>18.9</speed>
<course>77.5</course>
<desc>Speed 18.9 km/h Distance 35.02 km</desc>
<time>2010-06-13T08:55:09.03</time>
<name>8174</name>
</trkpt>
<trkpt lat="49.183643" lon="11.838073">
<ele>421.8</ele>
<speed>22.4</speed>
<course>75.7</course>
<desc>Speed 22.4 km/h Distance 35.02 km</desc>
<time>2010-06-13T08:55:10.03</time>
<name>8175</name>
</trkpt>
<trkpt lat="49.183660" lon="11.838173">
<ele>419.8</ele>
<speed>24.0</speed>
<course>76.8</course>
<desc>Speed 24.0 km/h Distance 35.03 km</desc>
<time>2010-06-13T08:55:11.03</time>
<name>8176</name>
</trkpt>
<trkpt lat="49.183677" lon="11.838282">
<ele>418.0</ele>
<speed>26.7</speed>
<course>73.5</course>
<desc>Speed 26.7 km/h Distance 35.04 km</desc>
<time>2010-06-13T08:55:12.03</time>
<name>8177</name>
</trkpt>
<trkpt lat="49.183698" lon="11.838393">
<ele>415.7</ele>
<speed>27.6</speed>
<course>76.1</course>
<desc>Speed 27.6 km/h Distance 35.05 km</desc>
<time>2010-06-13T08:55:13.03</time>
<name>8178</name>
</trkpt>
<trkpt lat="49.183717" lon="11.838507">
<ele>414.0</ele>
<speed>26.9</speed>
<course>75.5</course>
<desc>Speed 26.9 km/h Distance 35.06 km</desc>
<time>2010-06-13T08:55:14.03</time>
<name>8179</name>
</trkpt>
<trkpt lat="49.183735" lon="11.838615">
<ele>412.4</ele>
<speed>25.6</speed>
<course>76.6</course>
<desc>Speed 25.6 km/h Distance 35.07 km</desc>
<time>2010-06-13T08:55:15.03</time>
<name>8180</name>
</trkpt>
<trkpt lat="49.183752" lon="11.838722">
<ele>410.7</ele>
<speed>26.6</speed>
<course>79.2</course>
<desc>Speed 26.6 km/h Distance 35.07 km</desc>
<time>2010-06-13T08:55:16.03</time>
<name>8181</name>
</trkpt>
<trkpt lat="49.183765" lon="11.838828">
<ele>409.6</ele>
<speed>24.9</speed>
<course>78.8</course>
<desc>Speed 24.9 km/h Distance 35.08 km</desc>
<time>2010-06-13T08:55:17.03</time>
<name>8182</name>
</trkpt>
<trkpt lat="49.183777" lon="11.838918">
<ele>408.4</ele>
<speed>19.6</speed>
<course>86.3</course>
<desc>Speed 19.6 km/h Distance 35.09 km</desc>
<time>2010-06-13T08:55:18.03</time>
<name>8183</name>
</trkpt>
<trkpt lat="49.183780" lon="11.838997">
<ele>407.8</ele>
<speed>16.6</speed>
<course>87.7</course>
<desc>Speed 16.6 km/h Distance 35.09 km</desc>
<time>2010-06-13T08:55:19.03</time>
<name>8184</name>
</trkpt>
<trkpt lat="49.183782" lon="11.839060">
<ele>406.7</ele>
<speed>13.9</speed>
<course>90.0</course>
<desc>Speed 13.9 km/h Distance 35.10 km</desc>
<time>2010-06-13T08:55:20.03</time>
<name>8185</name>
</trkpt>
<trkpt lat="49.183782" lon="11.839128">
<ele>406.3</ele>
<speed>15.7</speed>
<course>83.9</course>
<desc>Speed 15.7 km/h Distance 35.10 km</desc>
<time>2010-06-13T08:55:21.03</time>
<name>8186</name>
</trkpt>
<trkpt lat="49.183787" lon="11.839200">
<ele>406.8</ele>
<speed>17.2</speed>
<course>62.4</course>
<desc>Speed 17.2 km/h Distance 35.11 km</desc>
<time>2010-06-13T08:55:22.03</time>
<name>8187</name>
</trkpt>
<trkpt lat="49.183808" lon="11.839263">
<ele>406.9</ele>
<speed>18.6</speed>
<course>46.8</course>
<desc>Speed 18.6 km/h Distance 35.11 km</desc>
<time>2010-06-13T08:55:23.03</time>
<name>8188</name>
</trkpt>
<trkpt lat="49.183840" lon="11.839315">
<ele>406.7</ele>
<speed>19.1</speed>
<course>62.4</course>
<desc>Speed 19.1 km/h Distance 35.12 km</desc>
<time>2010-06-13T08:55:24.03</time>
<name>8189</name>
</trkpt>
<trkpt lat="49.183862" lon="11.839378">
<ele>408.9</ele>
<speed>19.7</speed>
<course>63.0</course>
<desc>Speed 19.7 km/h Distance 35.12 km</desc>
<time>2010-06-13T08:55:25.03</time>
<name>8190</name>
</trkpt>
<trkpt lat="49.183883" lon="11.839443">
<ele>411.7</ele>
<speed>20.6</speed>
<course>51.8</course>
<desc>Speed 20.6 km/h Distance 35.13 km</desc>
<time>2010-06-13T08:55:26.03</time>
<name>8191</name>
</trkpt>
<trkpt lat="49.183915" lon="11.839505">
<ele>412.7</ele>
<speed>21.7</speed>
<course>54.0</course>
<desc>Speed 21.7 km/h Distance 35.13 km</desc>
<time>2010-06-13T08:55:27.03</time>
<name>8192</name>
</trkpt>
<trkpt lat="49.183947" lon="11.839572">
<ele>414.3</ele>
<speed>22.3</speed>
<course>48.2</course>
<desc>Speed 22.3 km/h Distance 35.14 km</desc>
<time>2010-06-13T08:55:28.03</time>
<name>8193</name>
</trkpt>
<trkpt lat="49.183982" lon="11.839632">
<ele>415.7</ele>
<speed>22.4</speed>
<course>40.2</course>
<desc>Speed 22.4 km/h Distance 35.15 km</desc>
<time>2010-06-13T08:55:29.03</time>
<name>8194</name>
</trkpt>
<trkpt lat="49.184022" lon="11.839683">
<ele>416.5</ele>
<speed>22.1</speed>
<course>64.2</course>
<desc>Speed 22.1 km/h Distance 35.15 km</desc>
<time>2010-06-13T08:55:30.03</time>
<name>8195</name>
</trkpt>
<trkpt lat="49.184042" lon="11.839747">
<ele>422.3</ele>
<speed>21.9</speed>
<course>78.2</course>
<desc>Speed 21.9 km/h Distance 35.16 km</desc>
<time>2010-06-13T08:55:31.03</time>
<name>8196</name>
</trkpt>
<trkpt lat="49.184052" lon="11.839820">
<ele>430.2</ele>
<speed>21.7</speed>
<course>58.9</course>
<desc>Speed 21.7 km/h Distance 35.16 km</desc>
<time>2010-06-13T08:55:32.03</time>
<name>8197</name>
</trkpt>
<trkpt lat="49.184077" lon="11.839883">
<ele>435.6</ele>
<speed>21.3</speed>
<course>61.1</course>
<desc>Speed 21.3 km/h Distance 35.17 km</desc>
<time>2010-06-13T08:55:33.03</time>
<name>8198</name>
</trkpt>
<trkpt lat="49.184098" lon="11.839943">
<ele>441.0</ele>
<speed>21.0</speed>
<course>60.6</course>
<desc>Speed 21.0 km/h Distance 35.17 km</desc>
<time>2010-06-13T08:55:34.03</time>
<name>8199</name>
</trkpt>
<trkpt lat="49.184122" lon="11.840007">
<ele>446.3</ele>
<speed>21.0</speed>
<course>56.0</course>
<desc>Speed 21.0 km/h Distance 35.18 km</desc>
<time>2010-06-13T08:55:35.03</time>
<name>8200</name>
</trkpt>
<trkpt lat="49.184147" lon="11.840063">
<ele>451.4</ele>
<speed>20.2</speed>
<course>53.6</course>
<desc>Speed 20.2 km/h Distance 35.18 km</desc>
<time>2010-06-13T08:55:36.03</time>
<name>8201</name>
</trkpt>
<trkpt lat="49.184170" lon="11.840112">
<ele>455.8</ele>
<speed>17.9</speed>
<course>71.7</course>
<desc>Speed 17.9 km/h Distance 35.19 km</desc>
<time>2010-06-13T08:55:37.03</time>
<name>8202</name>
</trkpt>
<trkpt lat="49.184183" lon="11.840173">
<ele>462.9</ele>
<speed>16.3</speed>
<course>85.4</course>
<desc>Speed 16.3 km/h Distance 35.19 km</desc>
<time>2010-06-13T08:55:38.03</time>
<name>8203</name>
</trkpt>
<trkpt lat="49.184187" lon="11.840237">
<ele>471.6</ele>
<speed>14.3</speed>
<course>87.6</course>
<desc>Speed 14.3 km/h Distance 35.20 km</desc>
<time>2010-06-13T08:55:39.03</time>
<name>8204</name>
</trkpt>
<trkpt lat="49.184188" lon="11.840298">
<ele>479.9</ele>
<speed>12.9</speed>
<course>110.3</course>
<desc>Speed 12.9 km/h Distance 35.20 km</desc>
<time>2010-06-13T08:55:40.03</time>
<name>8205</name>
</trkpt>
<trkpt lat="49.184148" lon="11.840463">
<ele>506.1</ele>
<speed>11.7</speed>
<course>30.4</course>
<desc>Speed 11.7 km/h Distance 35.21 km</desc>
<time>2010-06-13T08:55:42.03</time>
<name>8206</name>
</trkpt>
<trkpt lat="49.184165" lon="11.840478">
<ele>509.2</ele>
<speed>12.7</speed>
<course>46.3</course>
<desc>Speed 12.7 km/h Distance 35.22 km</desc>
<time>2010-06-13T08:55:43.03</time>
<name>8207</name>
</trkpt>
<trkpt lat="49.184182" lon="11.840505">
<ele>513.6</ele>
<speed>13.4</speed>
<course>54.8</course>
<desc>Speed 13.4 km/h Distance 35.22 km</desc>
<time>2010-06-13T08:55:44.03</time>
<name>8208</name>
</trkpt>
<trkpt lat="49.184192" lon="11.840527">
<ele>517.6</ele>
<speed>13.4</speed>
<course>6.5</course>
<desc>Speed 13.4 km/h Distance 35.22 km</desc>
<time>2010-06-13T08:55:45.03</time>
<name>8209</name>
</trkpt>
<trkpt lat="49.184230" lon="11.840533">
<ele>517.4</ele>
<speed>13.9</speed>
<course>22.2</course>
<desc>Speed 13.9 km/h Distance 35.23 km</desc>
<time>2010-06-13T08:55:46.03</time>
<name>8210</name>
</trkpt>
<trkpt lat="49.184270" lon="11.840558">
<ele>517.7</ele>
<speed>14.5</speed>
<course>19.9</course>
<desc>Speed 14.5 km/h Distance 35.23 km</desc>
<time>2010-06-13T08:55:47.03</time>
<name>8211</name>
</trkpt>
<trkpt lat="49.184315" lon="11.840583">
<ele>518.0</ele>
<speed>16.3</speed>
<course>20.3</course>
<desc>Speed 16.3 km/h Distance 35.24 km</desc>
<time>2010-06-13T08:55:48.03</time>
<name>8212</name>
</trkpt>
<trkpt lat="49.184365" lon="11.840612">
<ele>517.6</ele>
<speed>17.7</speed>
<course>19.9</course>
<desc>Speed 17.7 km/h Distance 35.24 km</desc>
<time>2010-06-13T08:55:49.03</time>
<name>8213</name>
</trkpt>
<trkpt lat="49.184410" lon="11.840637">
<ele>517.5</ele>
<speed>17.5</speed>
<course>11.6</course>
<desc>Speed 17.5 km/h Distance 35.25 km</desc>
<time>2010-06-13T08:55:50.03</time>
<name>8214</name>
</trkpt>
<trkpt lat="49.184527" lon="11.840673">
<ele>518.0</ele>
<speed>21.4</speed>
<course>17.1</course>
<desc>Speed 21.4 km/h Distance 35.26 km</desc>
<time>2010-06-13T08:55:52.03</time>
<name>8215</name>
</trkpt>
<trkpt lat="49.184583" lon="11.840700">
<ele>516.3</ele>
<speed>20.0</speed>
<course>23.6</course>
<desc>Speed 20.0 km/h Distance 35.27 km</desc>
<time>2010-06-13T08:55:53.03</time>
<name>8216</name>
</trkpt>
<trkpt lat="49.184628" lon="11.840730">
<ele>515.9</ele>
<speed>19.8</speed>
<course>16.0</course>
<desc>Speed 19.8 km/h Distance 35.27 km</desc>
<time>2010-06-13T08:55:54.03</time>
<name>8217</name>
</trkpt>
<trkpt lat="49.184670" lon="11.840748">
<ele>516.3</ele>
<speed>18.8</speed>
<course>13.0</course>
<desc>Speed 18.8 km/h Distance 35.28 km</desc>
<time>2010-06-13T08:55:55.03</time>
<name>8218</name>
</trkpt>
<trkpt lat="49.184727" lon="11.840768">
<ele>515.8</ele>
<speed>21.1</speed>
<course>23.5</course>
<desc>Speed 21.1 km/h Distance 35.28 km</desc>
<time>2010-06-13T08:55:56.03</time>
<name>8219</name>
</trkpt>
<trkpt lat="49.184787" lon="11.840808">
<ele>514.1</ele>
<speed>22.9</speed>
<course>14.1</course>
<desc>Speed 22.9 km/h Distance 35.29 km</desc>
<time>2010-06-13T08:55:57.03</time>
<name>8220</name>
</trkpt>
<trkpt lat="49.184830" lon="11.840825">
<ele>513.1</ele>
<speed>20.7</speed>
<course>19.6</course>
<desc>Speed 20.7 km/h Distance 35.30 km</desc>
<time>2010-06-13T08:55:58.03</time>
<name>8221</name>
</trkpt>
<trkpt lat="49.184867" lon="11.840845">
<ele>513.8</ele>
<speed>20.1</speed>
<course>28.1</course>
<desc>Speed 20.1 km/h Distance 35.30 km</desc>
<time>2010-06-13T08:55:59.03</time>
<name>8222</name>
</trkpt>
<trkpt lat="49.184922" lon="11.840890">
<ele>513.2</ele>
<speed>20.1</speed>
<course>36.0</course>
<desc>Speed 20.1 km/h Distance 35.31 km</desc>
<time>2010-06-13T08:56:00.03</time>
<name>8223</name>
</trkpt>
<trkpt lat="49.184967" lon="11.840940">
<ele>514.7</ele>
<speed>20.9</speed>
<course>19.9</course>
<desc>Speed 20.9 km/h Distance 35.31 km</desc>
<time>2010-06-13T08:56:01.03</time>
<name>8224</name>
</trkpt>
<trkpt lat="49.185030" lon="11.840975">
<ele>515.6</ele>
<speed>21.6</speed>
<course>33.2</course>
<desc>Speed 21.6 km/h Distance 35.32 km</desc>
<time>2010-06-13T08:56:02.03</time>
<name>8225</name>
</trkpt>
<trkpt lat="49.185068" lon="11.841013">
<ele>517.2</ele>
<speed>19.5</speed>
<course>39.8</course>
<desc>Speed 19.5 km/h Distance 35.33 km</desc>
<time>2010-06-13T08:56:03.03</time>
<name>8226</name>
</trkpt>
<trkpt lat="49.185160" lon="11.841130">
<ele>519.9</ele>
<speed>22.1</speed>
<course>43.6</course>
<desc>Speed 22.1 km/h Distance 35.34 km</desc>
<time>2010-06-13T08:56:05.03</time>
<name>8227</name>
</trkpt>
<trkpt lat="49.185200" lon="11.841188">
<ele>519.7</ele>
<speed>21.3</speed>
<course>58.8</course>
<desc>Speed 21.3 km/h Distance 35.35 km</desc>
<time>2010-06-13T08:56:06.03</time>
<name>8228</name>
</trkpt>
<trkpt lat="49.185228" lon="11.841260">
<ele>519.5</ele>
<speed>20.2</speed>
<course>77.2</course>
<desc>Speed 20.2 km/h Distance 35.35 km</desc>
<time>2010-06-13T08:56:07.03</time>
<name>8229</name>
</trkpt>
<trkpt lat="49.185242" lon="11.841350">
<ele>519.7</ele>
<speed>21.7</speed>
<course>75.1</course>
<desc>Speed 21.7 km/h Distance 35.36 km</desc>
<time>2010-06-13T08:56:08.03</time>
<name>8230</name>
</trkpt>
<trkpt lat="49.185280" lon="11.841570">
<ele>519.7</ele>
<speed>27.1</speed>
<course>78.7</course>
<desc>Speed 27.1 km/h Distance 35.38 km</desc>
<time>2010-06-13T08:56:10.03</time>
<name>8231</name>
</trkpt>
<trkpt lat="49.185295" lon="11.841685">
<ele>521.3</ele>
<speed>29.4</speed>
<course>82.3</course>
<desc>Speed 29.4 km/h Distance 35.38 km</desc>
<time>2010-06-13T08:56:11.03</time>
<name>8232</name>
</trkpt>
<trkpt lat="49.185305" lon="11.841798">
<ele>523.3</ele>
<speed>31.1</speed>
<course>82.1</course>
<desc>Speed 31.1 km/h Distance 35.39 km</desc>
<time>2010-06-13T08:56:12.03</time>
<name>8233</name>
</trkpt>
<trkpt lat="49.185317" lon="11.841927">
<ele>524.7</ele>
<speed>31.3</speed>
<course>77.8</course>
<desc>Speed 31.3 km/h Distance 35.40 km</desc>
<time>2010-06-13T08:56:13.03</time>
<name>8234</name>
</trkpt>
<trkpt lat="49.185335" lon="11.842057">
<ele>524.8</ele>
<speed>32.3</speed>
<course>73.6</course>
<desc>Speed 32.3 km/h Distance 35.41 km</desc>
<time>2010-06-13T08:56:14.03</time>
<name>8235</name>
</trkpt>
<trkpt lat="49.185358" lon="11.842178">
<ele>524.7</ele>
<speed>32.6</speed>
<course>74.4</course>
<desc>Speed 32.6 km/h Distance 35.42 km</desc>
<time>2010-06-13T08:56:15.03</time>
<name>8236</name>
</trkpt>
<trkpt lat="49.185383" lon="11.842315">
<ele>523.3</ele>
<speed>32.8</speed>
<course>79.2</course>
<desc>Speed 32.8 km/h Distance 35.43 km</desc>
<time>2010-06-13T08:56:16.03</time>
<name>8237</name>
</trkpt>
<trkpt lat="49.185400" lon="11.842448">
<ele>523.8</ele>
<speed>33.3</speed>
<course>79.0</course>
<desc>Speed 33.3 km/h Distance 35.44 km</desc>
<time>2010-06-13T08:56:17.03</time>
<name>8238</name>
</trkpt>
<trkpt lat="49.185417" lon="11.842580">
<ele>524.6</ele>
<speed>33.1</speed>
<course>75.3</course>
<desc>Speed 33.1 km/h Distance 35.45 km</desc>
<time>2010-06-13T08:56:18.03</time>
<name>8239</name>
</trkpt>
<trkpt lat="49.185437" lon="11.842697">
<ele>524.9</ele>
<speed>32.8</speed>
<course>77.8</course>
<desc>Speed 32.8 km/h Distance 35.46 km</desc>
<time>2010-06-13T08:56:19.03</time>
<name>8240</name>
</trkpt>
<trkpt lat="49.185453" lon="11.842815">
<ele>525.6</ele>
<speed>30.5</speed>
<course>77.0</course>
<desc>Speed 30.5 km/h Distance 35.47 km</desc>
<time>2010-06-13T08:56:20.03</time>
<name>8241</name>
</trkpt>
<trkpt lat="49.185472" lon="11.842937">
<ele>526.2</ele>
<speed>30.3</speed>
<course>72.5</course>
<desc>Speed 30.3 km/h Distance 35.48 km</desc>
<time>2010-06-13T08:56:21.03</time>
<name>8242</name>
</trkpt>
<trkpt lat="49.185495" lon="11.843050">
<ele>526.9</ele>
<speed>30.0</speed>
<course>70.2</course>
<desc>Speed 30.0 km/h Distance 35.49 km</desc>
<time>2010-06-13T08:56:22.03</time>
<name>8243</name>
</trkpt>
<trkpt lat="49.185522" lon="11.843163">
<ele>527.3</ele>
<speed>30.5</speed>
<course>71.1</course>
<desc>Speed 30.5 km/h Distance 35.49 km</desc>
<time>2010-06-13T08:56:23.03</time>
<name>8244</name>
</trkpt>
<trkpt lat="49.185547" lon="11.843275">
<ele>528.2</ele>
<speed>29.8</speed>
<course>64.9</course>
<desc>Speed 29.8 km/h Distance 35.50 km</desc>
<time>2010-06-13T08:56:24.03</time>
<name>8245</name>
</trkpt>
<trkpt lat="49.185578" lon="11.843378">
<ele>528.0</ele>
<speed>28.2</speed>
<course>58.1</course>
<desc>Speed 28.2 km/h Distance 35.51 km</desc>
<time>2010-06-13T08:56:25.03</time>
<name>8246</name>
</trkpt>
<trkpt lat="49.185615" lon="11.843468">
<ele>526.6</ele>
<speed>25.9</speed>
<course>59.0</course>
<desc>Speed 25.9 km/h Distance 35.52 km</desc>
<time>2010-06-13T08:56:26.03</time>
<name>8247</name>
</trkpt>
<trkpt lat="49.185648" lon="11.843553">
<ele>526.8</ele>
<speed>23.7</speed>
<course>73.2</course>
<desc>Speed 23.7 km/h Distance 35.53 km</desc>
<time>2010-06-13T08:56:27.03</time>
<name>8248</name>
</trkpt>
<trkpt lat="49.185670" lon="11.843663">
<ele>525.5</ele>
<speed>22.9</speed>
<course>66.2</course>
<desc>Speed 22.9 km/h Distance 35.53 km</desc>
<time>2010-06-13T08:56:28.03</time>
<name>8249</name>
</trkpt>
<trkpt lat="49.185692" lon="11.843738">
<ele>525.1</ele>
<speed>20.3</speed>
<course>90.0</course>
<desc>Speed 20.3 km/h Distance 35.54 km</desc>
<time>2010-06-13T08:56:29.03</time>
<name>8250</name>
</trkpt>
<trkpt lat="49.185692" lon="11.843807">
<ele>523.9</ele>
<speed>17.0</speed>
<course>141.2</course>
<desc>Speed 17.0 km/h Distance 35.55 km</desc>
<time>2010-06-13T08:56:30.03</time>
<name>8251</name>
</trkpt>
<trkpt lat="49.185648" lon="11.843860">
<ele>523.1</ele>
<speed>18.7</speed>
<course>145.8</course>
<desc>Speed 18.7 km/h Distance 35.55 km</desc>
<time>2010-06-13T08:56:31.03</time>
<name>8252</name>
</trkpt>
<trkpt lat="49.185527" lon="11.843987">
<ele>519.9</ele>
<speed>26.6</speed>
<course>142.5</course>
<desc>Speed 26.6 km/h Distance 35.57 km</desc>
<time>2010-06-13T08:56:33.03</time>
<name>8253</name>
</trkpt>
<trkpt lat="49.185478" lon="11.844043">
<ele>519.1</ele>
<speed>26.2</speed>
<course>148.5</course>
<desc>Speed 26.2 km/h Distance 35.57 km</desc>
<time>2010-06-13T08:56:34.03</time>
<name>8254</name>
</trkpt>
<trkpt lat="49.185423" lon="11.844095">
<ele>517.5</ele>
<speed>26.4</speed>
<course>155.9</course>
<desc>Speed 26.4 km/h Distance 35.58 km</desc>
<time>2010-06-13T08:56:35.03</time>
<name>8255</name>
</trkpt>
<trkpt lat="49.185355" lon="11.844142">
<ele>517.0</ele>
<speed>29.4</speed>
<course>150.8</course>
<desc>Speed 29.4 km/h Distance 35.59 km</desc>
<time>2010-06-13T08:56:36.03</time>
<name>8256</name>
</trkpt>
<trkpt lat="49.185287" lon="11.844200">
<ele>515.7</ele>
<speed>30.8</speed>
<course>144.9</course>
<desc>Speed 30.8 km/h Distance 35.60 km</desc>
<time>2010-06-13T08:56:37.03</time>
<name>8257</name>
</trkpt>
<trkpt lat="49.185220" lon="11.844272">
<ele>514.4</ele>
<speed>31.2</speed>
<course>147.1</course>
<desc>Speed 31.2 km/h Distance 35.61 km</desc>
<time>2010-06-13T08:56:38.03</time>
<name>8258</name>
</trkpt>
<trkpt lat="49.185058" lon="11.844432">
<ele>512.1</ele>
<speed>36.1</speed>
<course>147.8</course>
<desc>Speed 36.1 km/h Distance 35.63 km</desc>
<time>2010-06-13T08:56:40.03</time>
<name>8259</name>
</trkpt>
<trkpt lat="49.184970" lon="11.844517">
<ele>511.7</ele>
<speed>37.8</speed>
<course>148.3</course>
<desc>Speed 37.8 km/h Distance 35.64 km</desc>
<time>2010-06-13T08:56:41.03</time>
<name>8260</name>
</trkpt>
<trkpt lat="49.184880" lon="11.844602">
<ele>510.1</ele>
<speed>39.1</speed>
<course>146.3</course>
<desc>Speed 39.1 km/h Distance 35.65 km</desc>
<time>2010-06-13T08:56:42.03</time>
<name>8261</name>
</trkpt>
<trkpt lat="49.184800" lon="11.844683">
<ele>508.4</ele>
<speed>38.9</speed>
<course>147.9</course>
<desc>Speed 38.9 km/h Distance 35.66 km</desc>
<time>2010-06-13T08:56:43.03</time>
<name>8262</name>
</trkpt>
<trkpt lat="49.184720" lon="11.844760">
<ele>506.2</ele>
<speed>38.6</speed>
<course>148.5</course>
<desc>Speed 38.6 km/h Distance 35.67 km</desc>
<time>2010-06-13T08:56:44.03</time>
<name>8263</name>
</trkpt>
<trkpt lat="49.184642" lon="11.844833">
<ele>503.9</ele>
<speed>39.0</speed>
<course>148.0</course>
<desc>Speed 39.0 km/h Distance 35.68 km</desc>
<time>2010-06-13T08:56:45.03</time>
<name>8264</name>
</trkpt>
<trkpt lat="49.184563" lon="11.844908">
<ele>501.7</ele>
<speed>38.2</speed>
<course>149.5</course>
<desc>Speed 38.2 km/h Distance 35.69 km</desc>
<time>2010-06-13T08:56:46.03</time>
<name>8265</name>
</trkpt>
<trkpt lat="49.184480" lon="11.844983">
<ele>499.9</ele>
<speed>37.8</speed>
<course>150.6</course>
<desc>Speed 37.8 km/h Distance 35.71 km</desc>
<time>2010-06-13T08:56:47.03</time>
<name>8266</name>
</trkpt>
<trkpt lat="49.184395" lon="11.845057">
<ele>498.8</ele>
<speed>36.6</speed>
<course>150.0</course>
<desc>Speed 36.6 km/h Distance 35.72 km</desc>
<time>2010-06-13T08:56:48.03</time>
<name>8267</name>
</trkpt>
<trkpt lat="49.184323" lon="11.845120">
<ele>496.6</ele>
<speed>35.0</speed>
<course>153.2</course>
<desc>Speed 35.0 km/h Distance 35.73 km</desc>
<time>2010-06-13T08:56:49.03</time>
<name>8268</name>
</trkpt>
<trkpt lat="49.184250" lon="11.845177">
<ele>494.7</ele>
<speed>33.6</speed>
<course>152.8</course>
<desc>Speed 33.6 km/h Distance 35.73 km</desc>
<time>2010-06-13T08:56:50.03</time>
<name>8269</name>
</trkpt>
<trkpt lat="49.184172" lon="11.845238">
<ele>494.6</ele>
<speed>32.3</speed>
<course>148.4</course>
<desc>Speed 32.3 km/h Distance 35.74 km</desc>
<time>2010-06-13T08:56:51.03</time>
<name>8270</name>
</trkpt>
<trkpt lat="49.184113" lon="11.845293">
<ele>492.9</ele>
<speed>30.6</speed>
<course>145.9</course>
<desc>Speed 30.6 km/h Distance 35.75 km</desc>
<time>2010-06-13T08:56:52.03</time>
<name>8271</name>
</trkpt>
<trkpt lat="49.184065" lon="11.845343">
<ele>492.0</ele>
<speed>27.1</speed>
<course>146.8</course>
<desc>Speed 27.1 km/h Distance 35.76 km</desc>
<time>2010-06-13T08:56:53.03</time>
<name>8272</name>
</trkpt>
<trkpt lat="49.184015" lon="11.845393">
<ele>491.9</ele>
<speed>26.0</speed>
<course>147.7</course>
<desc>Speed 26.0 km/h Distance 35.77 km</desc>
<time>2010-06-13T08:56:54.03</time>
<name>8273</name>
</trkpt>
<trkpt lat="49.183965" lon="11.845442">
<ele>493.6</ele>
<speed>23.9</speed>
<course>151.1</course>
<desc>Speed 23.9 km/h Distance 35.77 km</desc>
<time>2010-06-13T08:56:55.03</time>
<name>8274</name>
</trkpt>
<trkpt lat="49.183912" lon="11.845487">
<ele>495.3</ele>
<speed>21.7</speed>
<course>151.9</course>
<desc>Speed 21.7 km/h Distance 35.78 km</desc>
<time>2010-06-13T08:56:56.03</time>
<name>8275</name>
</trkpt>
<trkpt lat="49.183867" lon="11.845523">
<ele>496.1</ele>
<speed>19.3</speed>
<course>153.5</course>
<desc>Speed 19.3 km/h Distance 35.78 km</desc>
<time>2010-06-13T08:56:57.03</time>
<name>8276</name>
</trkpt>
<trkpt lat="49.183832" lon="11.845550">
<ele>497.1</ele>
<speed>18.2</speed>
<course>152.1</course>
<desc>Speed 18.2 km/h Distance 35.79 km</desc>
<time>2010-06-13T08:56:58.03</time>
<name>8277</name>
</trkpt>
<trkpt lat="49.183797" lon="11.845578">
<ele>498.4</ele>
<speed>17.2</speed>
<course>146.8</course>
<desc>Speed 17.2 km/h Distance 35.79 km</desc>
<time>2010-06-13T08:56:59.03</time>
<name>8278</name>
</trkpt>
<trkpt lat="49.183773" lon="11.845602">
<ele>498.3</ele>
<speed>14.4</speed>
<course>152.1</course>
<desc>Speed 14.4 km/h Distance 35.80 km</desc>
<time>2010-06-13T08:57:00.03</time>
<name>8279</name>
</trkpt>
<trkpt lat="49.183738" lon="11.845630">
<ele>498.7</ele>
<speed>15.0</speed>
<course>151.6</course>
<desc>Speed 15.0 km/h Distance 35.80 km</desc>
<time>2010-06-13T08:57:01.03</time>
<name>8280</name>
</trkpt>
<trkpt lat="49.183700" lon="11.845662">
<ele>499.4</ele>
<speed>13.7</speed>
<course>148.4</course>
<desc>Speed 13.7 km/h Distance 35.81 km</desc>
<time>2010-06-13T08:57:02.03</time>
<name>8281</name>
</trkpt>
<trkpt lat="49.183672" lon="11.845688">
<ele>500.6</ele>
<speed>12.7</speed>
<course>152.7</course>
<desc>Speed 12.7 km/h Distance 35.81 km</desc>
<time>2010-06-13T08:57:03.03</time>
<name>8282</name>
</trkpt>
<trkpt lat="49.183640" lon="11.845713">
<ele>502.1</ele>
<speed>14.4</speed>
<course>139.5</course>
<desc>Speed 14.4 km/h Distance 35.81 km</desc>
<time>2010-06-13T08:57:04.03</time>
<name>8283</name>
</trkpt>
<trkpt lat="49.183618" lon="11.845742">
<ele>503.7</ele>
<speed>13.5</speed>
<course>145.4</course>
<desc>Speed 13.5 km/h Distance 35.82 km</desc>
<time>2010-06-13T08:57:05.03</time>
<name>8284</name>
</trkpt>
<trkpt lat="49.183588" lon="11.845773">
<ele>505.4</ele>
<speed>13.0</speed>
<course>137.2</course>
<desc>Speed 13.0 km/h Distance 35.82 km</desc>
<time>2010-06-13T08:57:06.03</time>
<name>8285</name>
</trkpt>
<trkpt lat="49.183568" lon="11.845802">
<ele>506.2</ele>
<speed>11.9</speed>
<course>141.9</course>
<desc>Speed 11.9 km/h Distance 35.82 km</desc>
<time>2010-06-13T08:57:07.03</time>
<name>8286</name>
</trkpt>
<trkpt lat="49.183543" lon="11.845832">
<ele>508.3</ele>
<speed>11.2</speed>
<course>155.2</course>
<desc>Speed 11.2 km/h Distance 35.83 km</desc>
<time>2010-06-13T08:57:08.03</time>
<name>8287</name>
</trkpt>
<trkpt lat="49.183515" lon="11.845852">
<ele>508.9</ele>
<speed>11.8</speed>
<course>152.1</course>
<desc>Speed 11.8 km/h Distance 35.83 km</desc>
<time>2010-06-13T08:57:09.03</time>
<name>8288</name>
</trkpt>
<trkpt lat="49.183488" lon="11.845873">
<ele>509.2</ele>
<speed>11.9</speed>
<course>152.0</course>
<desc>Speed 11.9 km/h Distance 35.83 km</desc>
<time>2010-06-13T08:57:10.03</time>
<name>8289</name>
</trkpt>
<trkpt lat="49.183462" lon="11.845895">
<ele>509.6</ele>
<speed>11.4</speed>
<course>148.4</course>
<desc>Speed 11.4 km/h Distance 35.84 km</desc>
<time>2010-06-13T08:57:11.03</time>
<name>8290</name>
</trkpt>
<trkpt lat="49.183433" lon="11.845922">
<ele>511.7</ele>
<speed>11.2</speed>
<course>148.9</course>
<desc>Speed 11.2 km/h Distance 35.84 km</desc>
<time>2010-06-13T08:57:12.03</time>
<name>8291</name>
</trkpt>
<trkpt lat="49.183412" lon="11.845942">
<ele>512.8</ele>
<speed>10.3</speed>
<course>133.3</course>
<desc>Speed 10.3 km/h Distance 35.84 km</desc>
<time>2010-06-13T08:57:13.03</time>
<name>8292</name>
</trkpt>
<trkpt lat="49.183398" lon="11.845963">
<ele>513.6</ele>
<speed>8.8</speed>
<course>157.3</course>
<desc>Speed 8.8 km/h Distance 35.85 km</desc>
<time>2010-06-13T08:57:14.03</time>
<name>8293</name>
</trkpt>
<trkpt lat="49.183375" lon="11.845978">
<ele>514.4</ele>
<speed>9.1</speed>
<course>158.1</course>
<desc>Speed 9.1 km/h Distance 35.85 km</desc>
<time>2010-06-13T08:57:15.03</time>
<name>8294</name>
</trkpt>
<trkpt lat="49.183353" lon="11.845992">
<ele>514.5</ele>
<speed>8.7</speed>
<course>140.7</course>
<desc>Speed 8.7 km/h Distance 35.85 km</desc>
<time>2010-06-13T08:57:16.03</time>
<name>8295</name>
</trkpt>
<trkpt lat="49.183340" lon="11.846008">
<ele>514.8</ele>
<speed>8.3</speed>
<course>151.4</course>
<desc>Speed 8.3 km/h Distance 35.85 km</desc>
<time>2010-06-13T08:57:17.03</time>
<name>8296</name>
</trkpt>
<trkpt lat="49.183320" lon="11.846025">
<ele>515.2</ele>
<speed>7.8</speed>
<course>160.6</course>
<desc>Speed 7.8 km/h Distance 35.86 km</desc>
<time>2010-06-13T08:57:18.03</time>
<name>8297</name>
</trkpt>
<trkpt lat="49.183298" lon="11.846037">
<ele>514.8</ele>
<speed>8.1</speed>
<course>141.4</course>
<desc>Speed 8.1 km/h Distance 35.86 km</desc>
<time>2010-06-13T08:57:19.03</time>
<name>8298</name>
</trkpt>
<trkpt lat="49.183283" lon="11.846055">
<ele>514.9</ele>
<speed>9.1</speed>
<course>127.4</course>
<desc>Speed 9.1 km/h Distance 35.86 km</desc>
<time>2010-06-13T08:57:20.03</time>
<name>8299</name>
</trkpt>
<trkpt lat="49.183273" lon="11.846075">
<ele>514.6</ele>
<speed>7.6</speed>
<course>101.5</course>
<desc>Speed 7.6 km/h Distance 35.86 km</desc>
<time>2010-06-13T08:57:21.03</time>
<name>8300</name>
</trkpt>
<trkpt lat="49.183270" lon="11.846100">
<ele>515.9</ele>
<speed>8.7</speed>
<course>117.0</course>
<desc>Speed 8.7 km/h Distance 35.86 km</desc>
<time>2010-06-13T08:57:22.03</time>
<name>8301</name>
</trkpt>
<trkpt lat="49.183260" lon="11.846130">
<ele>516.1</ele>
<speed>8.7</speed>
<course>108.8</course>
<desc>Speed 8.7 km/h Distance 35.87 km</desc>
<time>2010-06-13T08:57:23.03</time>
<name>8302</name>
</trkpt>
<trkpt lat="49.183253" lon="11.846160">
<ele>516.0</ele>
<speed>8.5</speed>
<course>101.5</course>
<desc>Speed 8.5 km/h Distance 35.87 km</desc>
<time>2010-06-13T08:57:24.03</time>
<name>8303</name>
</trkpt>
<trkpt lat="49.183250" lon="11.846185">
<ele>514.5</ele>
<speed>8.1</speed>
<course>102.9</course>
<desc>Speed 8.1 km/h Distance 35.87 km</desc>
<time>2010-06-13T08:57:25.03</time>
<name>8304</name>
</trkpt>
<trkpt lat="49.183245" lon="11.846218">
<ele>513.9</ele>
<speed>9.5</speed>
<course>116.0</course>
<desc>Speed 9.5 km/h Distance 35.87 km</desc>
<time>2010-06-13T08:57:26.03</time>
<name>8305</name>
</trkpt>
<trkpt lat="49.183233" lon="11.846255">
<ele>513.8</ele>
<speed>11.6</speed>
<course>93.1</course>
<desc>Speed 11.6 km/h Distance 35.88 km</desc>
<time>2010-06-13T08:57:27.03</time>
<name>8306</name>
</trkpt>
<trkpt lat="49.183232" lon="11.846302">
<ele>515.5</ele>
<speed>13.1</speed>
<course>108.0</course>
<desc>Speed 13.1 km/h Distance 35.88 km</desc>
<time>2010-06-13T08:57:28.03</time>
<name>8307</name>
</trkpt>
<trkpt lat="49.183220" lon="11.846357">
<ele>516.6</ele>
<speed>12.9</speed>
<course>100.2</course>
<desc>Speed 12.9 km/h Distance 35.88 km</desc>
<time>2010-06-13T08:57:29.03</time>
<name>8308</name>
</trkpt>
<trkpt lat="49.183213" lon="11.846413">
<ele>518.1</ele>
<speed>13.4</speed>
<course>115.6</course>
<desc>Speed 13.4 km/h Distance 35.89 km</desc>
<time>2010-06-13T08:57:30.03</time>
<name>8309</name>
</trkpt>
<trkpt lat="49.183197" lon="11.846467">
<ele>518.0</ele>
<speed>14.9</speed>
<course>125.1</course>
<desc>Speed 14.9 km/h Distance 35.89 km</desc>
<time>2010-06-13T08:57:31.03</time>
<name>8310</name>
</trkpt>
<trkpt lat="49.183168" lon="11.846528">
<ele>518.9</ele>
<speed>16.4</speed>
<course>124.2</course>
<desc>Speed 16.4 km/h Distance 35.90 km</desc>
<time>2010-06-13T08:57:32.03</time>
<name>8311</name>
</trkpt>
<trkpt lat="49.183142" lon="11.846588">
<ele>520.1</ele>
<speed>15.6</speed>
<course>125.0</course>
<desc>Speed 15.6 km/h Distance 35.90 km</desc>
<time>2010-06-13T08:57:33.03</time>
<name>8312</name>
</trkpt>
<trkpt lat="49.183115" lon="11.846647">
<ele>521.2</ele>
<speed>15.1</speed>
<course>129.1</course>
<desc>Speed 15.1 km/h Distance 35.91 km</desc>
<time>2010-06-13T08:57:34.03</time>
<name>8313</name>
</trkpt>
<trkpt lat="49.183087" lon="11.846700">
<ele>521.5</ele>
<speed>14.0</speed>
<course>120.5</course>
<desc>Speed 14.0 km/h Distance 35.91 km</desc>
<time>2010-06-13T08:57:35.03</time>
<name>8314</name>
</trkpt>
<trkpt lat="49.183070" lon="11.846743">
<ele>521.2</ele>
<speed>12.1</speed>
<course>126.2</course>
<desc>Speed 12.1 km/h Distance 35.92 km</desc>
<time>2010-06-13T08:57:36.03</time>
<name>8315</name>
</trkpt>
<trkpt lat="49.183052" lon="11.846782">
<ele>521.6</ele>
<speed>10.3</speed>
<course>131.2</course>
<desc>Speed 10.3 km/h Distance 35.92 km</desc>
<time>2010-06-13T08:57:37.03</time>
<name>8316</name>
</trkpt>
<trkpt lat="49.183032" lon="11.846817">
<ele>522.8</ele>
<speed>9.1</speed>
<course>130.4</course>
<desc>Speed 9.1 km/h Distance 35.92 km</desc>
<time>2010-06-13T08:57:38.03</time>
<name>8317</name>
</trkpt>
<trkpt lat="49.183015" lon="11.846847">
<ele>524.0</ele>
<speed>9.0</speed>
<course>118.7</course>
<desc>Speed 9.0 km/h Distance 35.93 km</desc>
<time>2010-06-13T08:57:39.03</time>
<name>8318</name>
</trkpt>
<trkpt lat="49.183007" lon="11.846870">
<ele>523.7</ele>
<speed>8.2</speed>
<course>104.3</course>
<desc>Speed 8.2 km/h Distance 35.93 km</desc>
<time>2010-06-13T08:57:40.03</time>
<name>8319</name>
</trkpt>
<trkpt lat="49.183003" lon="11.846890">
<ele>522.6</ele>
<speed>7.7</speed>
<course>129.2</course>
<desc>Speed 7.7 km/h Distance 35.93 km</desc>
<time>2010-06-13T08:57:41.03</time>
<name>8320</name>
</trkpt>
<trkpt lat="49.182990" lon="11.846915">
<ele>523.2</ele>
<speed>6.8</speed>
<course>108.7</course>
<desc>Speed 6.8 km/h Distance 35.93 km</desc>
<time>2010-06-13T08:57:42.03</time>
<name>8321</name>
</trkpt>
<trkpt lat="49.182987" lon="11.846930">
<ele>522.2</ele>
<speed>5.7</speed>
<course>121.4</course>
<desc>Speed 5.7 km/h Distance 35.93 km</desc>
<time>2010-06-13T08:57:43.03</time>
<name>8322</name>
</trkpt>
<trkpt lat="49.182980" lon="11.846947">
<ele>522.2</ele>
<speed>5.3</speed>
<course>90.0</course>
<desc>Speed 5.3 km/h Distance 35.93 km</desc>
<time>2010-06-13T08:57:44.03</time>
<name>8323</name>
</trkpt>
<trkpt lat="49.182980" lon="11.846963">
<ele>520.6</ele>
<speed>4.9</speed>
<course>119.1</course>
<desc>Speed 4.9 km/h Distance 35.94 km</desc>
<time>2010-06-13T08:57:45.03</time>
<name>8324</name>
</trkpt>
<trkpt lat="49.182973" lon="11.846982">
<ele>520.0</ele>
<speed>4.6</speed>
<course>97.9</course>
<desc>Speed 4.6 km/h Distance 35.94 km</desc>
<time>2010-06-13T08:57:46.03</time>
<name>8325</name>
</trkpt>
<trkpt lat="49.182972" lon="11.847000">
<ele>518.9</ele>
<speed>5.5</speed>
<course>107.0</course>
<desc>Speed 5.5 km/h Distance 35.94 km</desc>
<time>2010-06-13T08:57:47.03</time>
<name>8326</name>
</trkpt>
<trkpt lat="49.182968" lon="11.847017">
<ele>517.8</ele>
<speed>5.5</speed>
<course>122.5</course>
<desc>Speed 5.5 km/h Distance 35.94 km</desc>
<time>2010-06-13T08:57:48.03</time>
<name>8327</name>
</trkpt>
<trkpt lat="49.182960" lon="11.847037">
<ele>518.0</ele>
<speed>5.7</speed>
<course>127.4</course>
<desc>Speed 5.7 km/h Distance 35.94 km</desc>
<time>2010-06-13T08:57:49.03</time>
<name>8328</name>
</trkpt>
<trkpt lat="49.182952" lon="11.847053">
<ele>518.0</ele>
<speed>5.7</speed>
<course>135.6</course>
<desc>Speed 5.7 km/h Distance 35.94 km</desc>
<time>2010-06-13T08:57:50.03</time>
<name>8329</name>
</trkpt>
<trkpt lat="49.182938" lon="11.847073">
<ele>519.0</ele>
<speed>6.1</speed>
<course>129.9</course>
<desc>Speed 6.1 km/h Distance 35.95 km</desc>
<time>2010-06-13T08:57:51.03</time>
<name>8330</name>
</trkpt>
<trkpt lat="49.182928" lon="11.847092">
<ele>519.9</ele>
<speed>5.5</speed>
<course>138.0</course>
<desc>Speed 5.5 km/h Distance 35.95 km</desc>
<time>2010-06-13T08:57:52.03</time>
<name>8331</name>
</trkpt>
<trkpt lat="49.182915" lon="11.847110">
<ele>521.3</ele>
<speed>4.9</speed>
<course>124.1</course>
<desc>Speed 4.9 km/h Distance 35.95 km</desc>
<time>2010-06-13T08:57:53.03</time>
<name>8332</name>
</trkpt>
<trkpt lat="49.182908" lon="11.847125">
<ele>521.6</ele>
<speed>5.3</speed>
<course>127.3</course>
<desc>Speed 5.3 km/h Distance 35.95 km</desc>
<time>2010-06-13T08:57:54.03</time>
<name>8333</name>
</trkpt>
<trkpt lat="49.182902" lon="11.847138">
<ele>521.8</ele>
<speed>5.1</speed>
<course>127.4</course>
<desc>Speed 5.1 km/h Distance 35.95 km</desc>
<time>2010-06-13T08:57:55.03</time>
<name>8334</name>
</trkpt>
<trkpt lat="49.182895" lon="11.847152">
<ele>522.3</ele>
<speed>4.9</speed>
<course>136.9</course>
<desc>Speed 4.9 km/h Distance 35.95 km</desc>
<time>2010-06-13T08:57:56.03</time>
<name>8335</name>
</trkpt>
<trkpt lat="49.182883" lon="11.847168">
<ele>523.4</ele>
<speed>5.8</speed>
<course>117.0</course>
<desc>Speed 5.8 km/h Distance 35.95 km</desc>
<time>2010-06-13T08:57:57.03</time>
<name>8336</name>
</trkpt>
<trkpt lat="49.182880" lon="11.847178">
<ele>523.2</ele>
<speed>5.0</speed>
<course>146.8</course>
<desc>Speed 5.0 km/h Distance 35.96 km</desc>
<time>2010-06-13T08:57:58.03</time>
<name>8337</name>
</trkpt>
<trkpt lat="49.182870" lon="11.847188">
<ele>523.5</ele>
<speed>4.1</speed>
<course>117.0</course>
<desc>Speed 4.1 km/h Distance 35.96 km</desc>
<time>2010-06-13T08:57:59.03</time>
<name>8338</name>
</trkpt>
<trkpt lat="49.182867" lon="11.847198">
<ele>522.3</ele>
<speed>4.2</speed>
<course>130.9</course>
<desc>Speed 4.2 km/h Distance 35.96 km</desc>
<time>2010-06-13T08:58:00.03</time>
<name>8339</name>
</trkpt>
<trkpt lat="49.182860" lon="11.847210">
<ele>522.2</ele>
<speed>4.8</speed>
<course>135.7</course>
<desc>Speed 4.8 km/h Distance 35.96 km</desc>
<time>2010-06-13T08:58:01.03</time>
<name>8340</name>
</trkpt>
<trkpt lat="49.182853" lon="11.847220">
<ele>521.8</ele>
<speed>3.9</speed>
<course>110.9</course>
<desc>Speed 3.9 km/h Distance 35.96 km</desc>
<time>2010-06-13T08:58:02.03</time>
<name>8341</name>
</trkpt>
<trkpt lat="49.182852" lon="11.847227">
<ele>522.1</ele>
<speed>2.1</speed>
<course>23.8</course>
<desc>Speed 2.1 km/h Distance 35.96 km</desc>
<time>2010-06-13T08:58:03.03</time>
<name>8342</name>
</trkpt>
<trkpt lat="49.182857" lon="11.847230">
<ele>521.1</ele>
<speed>1.4</speed>
<course>242.6</course>
<desc>Speed 1.4 km/h Distance 35.96 km</desc>
<time>2010-06-13T08:58:04.03</time>
<name>8343</name>
</trkpt>
<trkpt lat="49.182855" lon="11.847225">
<ele>521.1</ele>
<speed>0.5</speed>
<course>142.8</course>
<desc>Speed 0.5 km/h Distance 35.96 km</desc>
<time>2010-06-13T08:58:05.03</time>
<name>8344</name>
</trkpt>
<trkpt lat="49.182853" lon="11.847227">
<ele>520.9</ele>
<speed>2.7</speed>
<course>117.4</course>
<desc>Speed 2.7 km/h Distance 35.96 km</desc>
<time>2010-06-13T08:58:06.03</time>
<name>8345</name>
</trkpt>
<trkpt lat="49.182852" lon="11.847232">
<ele>520.1</ele>
<speed>3.6</speed>
<course>135.6</course>
<desc>Speed 3.6 km/h Distance 35.96 km</desc>
<time>2010-06-13T08:58:07.03</time>
<name>8346</name>
</trkpt>
<trkpt lat="49.182842" lon="11.847247">
<ele>520.7</ele>
<speed>4.4</speed>
<course>125.2</course>
<desc>Speed 4.4 km/h Distance 35.96 km</desc>
<time>2010-06-13T08:58:08.03</time>
<name>8347</name>
</trkpt>
<trkpt lat="49.182832" lon="11.847268">
<ele>521.8</ele>
<speed>5.3</speed>
<course>124.3</course>
<desc>Speed 5.3 km/h Distance 35.97 km</desc>
<time>2010-06-13T08:58:09.03</time>
<name>8348</name>
</trkpt>
<trkpt lat="49.182825" lon="11.847283">
<ele>522.2</ele>
<speed>4.3</speed>
<course>119.9</course>
<desc>Speed 4.3 km/h Distance 35.97 km</desc>
<time>2010-06-13T08:58:10.03</time>
<name>8349</name>
</trkpt>
<trkpt lat="49.182820" lon="11.847297">
<ele>522.3</ele>
<speed>4.2</speed>
<course>127.3</course>
<desc>Speed 4.2 km/h Distance 35.97 km</desc>
<time>2010-06-13T08:58:11.03</time>
<name>8350</name>
</trkpt>
<trkpt lat="49.182812" lon="11.847313">
<ele>521.7</ele>
<speed>4.6</speed>
<course>138.8</course>
<desc>Speed 4.6 km/h Distance 35.97 km</desc>
<time>2010-06-13T08:58:12.03</time>
<name>8351</name>
</trkpt>
<trkpt lat="49.182802" lon="11.847327">
<ele>523.5</ele>
<speed>4.5</speed>
<course>130.3</course>
<desc>Speed 4.5 km/h Distance 35.97 km</desc>
<time>2010-06-13T08:58:13.03</time>
<name>8352</name>
</trkpt>
<trkpt lat="49.182793" lon="11.847342">
<ele>523.7</ele>
<speed>4.8</speed>
<course>133.6</course>
<desc>Speed 4.8 km/h Distance 35.97 km</desc>
<time>2010-06-13T08:58:14.03</time>
<name>8353</name>
</trkpt>
<trkpt lat="49.182785" lon="11.847355">
<ele>523.0</ele>
<speed>4.3</speed>
<course>119.7</course>
<desc>Speed 4.3 km/h Distance 35.97 km</desc>
<time>2010-06-13T08:58:15.03</time>
<name>8354</name>
</trkpt>
<trkpt lat="49.182780" lon="11.847368">
<ele>522.1</ele>
<speed>4.0</speed>
<course>130.3</course>
<desc>Speed 4.0 km/h Distance 35.97 km</desc>
<time>2010-06-13T08:58:16.03</time>
<name>8355</name>
</trkpt>
<trkpt lat="49.182772" lon="11.847383">
<ele>522.0</ele>
<speed>4.6</speed>
<course>140.0</course>
<desc>Speed 4.6 km/h Distance 35.98 km</desc>
<time>2010-06-13T08:58:17.03</time>
<name>8356</name>
</trkpt>
<trkpt lat="49.182760" lon="11.847398">
<ele>521.1</ele>
<speed>5.4</speed>
<course>139.9</course>
<desc>Speed 5.4 km/h Distance 35.98 km</desc>
<time>2010-06-13T08:58:18.03</time>
<name>8357</name>
</trkpt>
<trkpt lat="49.182748" lon="11.847413">
<ele>520.4</ele>
<speed>5.4</speed>
<course>146.8</course>
<desc>Speed 5.4 km/h Distance 35.98 km</desc>
<time>2010-06-13T08:58:19.03</time>
<name>8358</name>
</trkpt>
<trkpt lat="49.182732" lon="11.847430">
<ele>521.0</ele>
<speed>6.8</speed>
<course>155.3</course>
<desc>Speed 6.8 km/h Distance 35.98 km</desc>
<time>2010-06-13T08:58:20.03</time>
<name>8359</name>
</trkpt>
<trkpt lat="49.182703" lon="11.847450">
<ele>521.4</ele>
<speed>8.5</speed>
<course>152.8</course>
<desc>Speed 8.5 km/h Distance 35.99 km</desc>
<time>2010-06-13T08:58:21.03</time>
<name>8360</name>
</trkpt>
<trkpt lat="49.182680" lon="11.847468">
<ele>521.5</ele>
<speed>7.6</speed>
<course>155.9</course>
<desc>Speed 7.6 km/h Distance 35.99 km</desc>
<time>2010-06-13T08:58:22.03</time>
<name>8361</name>
</trkpt>
<trkpt lat="49.182648" lon="11.847490">
<ele>520.7</ele>
<speed>6.6</speed>
<course>155.2</course>
<desc>Speed 6.6 km/h Distance 35.99 km</desc>
<time>2010-06-13T08:58:23.03</time>
<name>8362</name>
</trkpt>
<trkpt lat="49.182620" lon="11.847510">
<ele>519.0</ele>
<speed>5.9</speed>
<course>117.0</course>
<desc>Speed 5.9 km/h Distance 36.00 km</desc>
<time>2010-06-13T08:58:24.03</time>
<name>8363</name>
</trkpt>
<trkpt lat="49.182615" lon="11.847525">
<ele>518.5</ele>
<speed>5.1</speed>
<course>27.9</course>
<desc>Speed 5.1 km/h Distance 36.00 km</desc>
<time>2010-06-13T08:58:25.03</time>
<name>8364</name>
</trkpt>
<trkpt lat="49.182623" lon="11.847532">
<ele>517.7</ele>
<speed>3.7</speed>
<course>140.8</course>
<desc>Speed 3.7 km/h Distance 36.00 km</desc>
<time>2010-06-13T08:58:26.03</time>
<name>8365</name>
</trkpt>
<trkpt lat="49.182603" lon="11.847557">
<ele>516.3</ele>
<speed>4.8</speed>
<course>163.0</course>
<desc>Speed 4.8 km/h Distance 36.00 km</desc>
<time>2010-06-13T08:58:27.03</time>
<name>8366</name>
</trkpt>
<trkpt lat="49.182593" lon="11.847562">
<ele>518.9</ele>
<speed>3.5</speed>
<course>175.0</course>
<desc>Speed 3.5 km/h Distance 36.00 km</desc>
<time>2010-06-13T08:58:28.03</time>
<name>8367</name>
</trkpt>
<trkpt lat="49.182585" lon="11.847563">
<ele>520.7</ele>
<speed>3.6</speed>
<course>90.0</course>
<desc>Speed 3.6 km/h Distance 36.00 km</desc>
<time>2010-06-13T08:58:29.03</time>
<name>8368</name>
</trkpt>
<trkpt lat="49.182585" lon="11.847575">
<ele>521.8</ele>
<speed>3.2</speed>
<course>130.3</course>
<desc>Speed 3.2 km/h Distance 36.00 km</desc>
<time>2010-06-13T08:58:30.03</time>
<name>8369</name>
</trkpt>
<trkpt lat="49.182577" lon="11.847590">
<ele>522.9</ele>
<speed>2.5</speed>
<course>124.1</course>
<desc>Speed 2.5 km/h Distance 36.01 km</desc>
<time>2010-06-13T08:58:31.03</time>
<name>8370</name>
</trkpt>
<trkpt lat="49.182570" lon="11.847605">
<ele>523.8</ele>
<speed>3.0</speed>
<course>119.9</course>
<desc>Speed 3.0 km/h Distance 36.01 km</desc>
<time>2010-06-13T08:58:32.03</time>
<name>8371</name>
</trkpt>
<trkpt lat="49.182565" lon="11.847618">
<ele>524.8</ele>
<speed>2.6</speed>
<course>66.3</course>
<desc>Speed 2.6 km/h Distance 36.01 km</desc>
<time>2010-06-13T08:58:33.03</time>
<name>8372</name>
</trkpt>
<trkpt lat="49.182568" lon="11.847630">
<ele>526.9</ele>
<speed>1.9</speed>
<course>127.4</course>
<desc>Speed 1.9 km/h Distance 36.01 km</desc>
<time>2010-06-13T08:58:34.03</time>
<name>8373</name>
</trkpt>
<trkpt lat="49.182563" lon="11.847640">
<ele>526.8</ele>
<speed>1.7</speed>
<course>58.6</course>
<desc>Speed 1.7 km/h Distance 36.01 km</desc>
<time>2010-06-13T08:58:35.03</time>
<name>8374</name>
</trkpt>
<trkpt lat="49.182567" lon="11.847648">
<ele>529.0</ele>
<speed>1.9</speed>
<course>117.0</course>
<desc>Speed 1.9 km/h Distance 36.01 km</desc>
<time>2010-06-13T08:58:36.03</time>
<name>8375</name>
</trkpt>
<trkpt lat="49.182563" lon="11.847658">
<ele>529.2</ele>
<speed>3.0</speed>
<course>12.6</course>
<desc>Speed 3.0 km/h Distance 36.01 km</desc>
<time>2010-06-13T08:58:37.03</time>
<name>8376</name>
</trkpt>
<trkpt lat="49.182565" lon="11.847658">
<ele>532.4</ele>
<speed>2.8</speed>
<course>270.0</course>
<desc>Speed 2.8 km/h Distance 36.01 km</desc>
<time>2010-06-13T08:58:38.03</time>
<name>8377</name>
</trkpt>
<trkpt lat="49.182565" lon="11.847652">
<ele>535.8</ele>
<speed>1.6</speed>
<course>135.6</course>
<desc>Speed 1.6 km/h Distance 36.01 km</desc>
<time>2010-06-13T08:58:39.03</time>
<name>8378</name>
</trkpt>
<trkpt lat="49.182555" lon="11.847667">
<ele>538.6</ele>
<speed>2.4</speed>
<course>52.4</course>
<desc>Speed 2.4 km/h Distance 36.01 km</desc>
<time>2010-06-13T08:58:40.03</time>
<name>8379</name>
</trkpt>
<trkpt lat="49.182560" lon="11.847677">
<ele>542.3</ele>
<speed>1.8</speed>
<course>90.0</course>
<desc>Speed 1.8 km/h Distance 36.01 km</desc>
<time>2010-06-13T08:58:41.03</time>
<name>8380</name>
</trkpt>
<trkpt lat="49.182560" lon="11.847687">
<ele>545.5</ele>
<speed>2.3</speed>
<course>138.8</course>
<desc>Speed 2.3 km/h Distance 36.01 km</desc>
<time>2010-06-13T08:58:42.03</time>
<name>8381</name>
</trkpt>
<trkpt lat="49.182550" lon="11.847700">
<ele>547.6</ele>
<speed>2.3</speed>
<course>106.7</course>
<desc>Speed 2.3 km/h Distance 36.02 km</desc>
<time>2010-06-13T08:58:43.03</time>
<name>8382</name>
</trkpt>
<trkpt lat="49.182548" lon="11.847708">
<ele>549.3</ele>
<speed>2.6</speed>
<course>121.4</course>
<desc>Speed 2.6 km/h Distance 36.02 km</desc>
<time>2010-06-13T08:58:44.03</time>
<name>8383</name>
</trkpt>
<trkpt lat="49.182545" lon="11.847717">
<ele>551.0</ele>
<speed>1.8</speed>
<course>141.3</course>
<desc>Speed 1.8 km/h Distance 36.02 km</desc>
<time>2010-06-13T08:58:45.03</time>
<name>8384</name>
</trkpt>
<trkpt lat="49.182538" lon="11.847725">
<ele>552.2</ele>
<speed>0.9</speed>
<course>12.6</course>
<desc>Speed 0.9 km/h Distance 36.02 km</desc>
<time>2010-06-13T08:58:46.03</time>
<name>8385</name>
</trkpt>
<trkpt lat="49.182543" lon="11.847727">
<ele>553.8</ele>
<speed>1.2</speed>
<course>127.6</course>
<desc>Speed 1.2 km/h Distance 36.02 km</desc>
<time>2010-06-13T08:58:47.03</time>
<name>8386</name>
</trkpt>
<trkpt lat="49.182538" lon="11.847737">
<ele>555.3</ele>
<speed>1.2</speed>
<course>108.9</course>
<desc>Speed 1.2 km/h Distance 36.02 km</desc>
<time>2010-06-13T08:58:48.03</time>
<name>8387</name>
</trkpt>
<trkpt lat="49.182535" lon="11.847752">
<ele>556.4</ele>
<speed>2.8</speed>
<course>109.4</course>
<desc>Speed 2.8 km/h Distance 36.02 km</desc>
<time>2010-06-13T08:58:49.03</time>
<name>8388</name>
</trkpt>
<trkpt lat="49.182530" lon="11.847773">
<ele>557.0</ele>
<speed>3.0</speed>
<course>97.3</course>
<desc>Speed 3.0 km/h Distance 36.02 km</desc>
<time>2010-06-13T08:58:50.03</time>
<name>8389</name>
</trkpt>
<trkpt lat="49.182528" lon="11.847793">
<ele>558.2</ele>
<speed>3.1</speed>
<course>125.2</course>
<desc>Speed 3.1 km/h Distance 36.02 km</desc>
<time>2010-06-13T08:58:51.03</time>
<name>8390</name>
</trkpt>
<trkpt lat="49.182518" lon="11.847815">
<ele>559.5</ele>
<speed>2.5</speed>
<course>74.9</course>
<desc>Speed 2.5 km/h Distance 36.03 km</desc>
<time>2010-06-13T08:58:52.03</time>
<name>8391</name>
</trkpt>
<trkpt lat="49.182523" lon="11.847843">
<ele>558.8</ele>
<speed>2.8</speed>
<course>99.6</course>
<desc>Speed 2.8 km/h Distance 36.03 km</desc>
<time>2010-06-13T08:58:53.03</time>
<name>8392</name>
</trkpt>
<trkpt lat="49.182522" lon="11.847858">
<ele>559.3</ele>
<speed>2.7</speed>
<course>115.2</course>
<desc>Speed 2.7 km/h Distance 36.03 km</desc>
<time>2010-06-13T08:58:54.03</time>
<name>8393</name>
</trkpt>
<trkpt lat="49.182515" lon="11.847880">
<ele>558.3</ele>
<speed>1.9</speed>
<course>165.1</course>
<desc>Speed 1.9 km/h Distance 36.03 km</desc>
<time>2010-06-13T08:58:55.03</time>
<name>8394</name>
</trkpt>
<trkpt lat="49.182503" lon="11.847885">
<ele>559.4</ele>
<speed>3.5</speed>
<course>146.8</course>
<desc>Speed 3.5 km/h Distance 36.03 km</desc>
<time>2010-06-13T08:58:56.03</time>
<name>8395</name>
</trkpt>
<trkpt lat="49.182483" lon="11.847905">
<ele>557.6</ele>
<speed>4.3</speed>
<course>127.0</course>
<desc>Speed 4.3 km/h Distance 36.04 km</desc>
<time>2010-06-13T08:58:57.03</time>
<name>8396</name>
</trkpt>
<trkpt lat="49.182480" lon="11.847912">
<ele>555.7</ele>
<speed>2.7</speed>
<course>110.9</course>
<desc>Speed 2.7 km/h Distance 36.04 km</desc>
<time>2010-06-13T08:58:58.03</time>
<name>8397</name>
</trkpt>
<trkpt lat="49.182477" lon="11.847925">
<ele>554.3</ele>
<speed>2.1</speed>
<course>117.0</course>
<desc>Speed 2.1 km/h Distance 36.04 km</desc>
<time>2010-06-13T08:58:59.03</time>
<name>8398</name>
</trkpt>
<trkpt lat="49.182472" lon="11.847940">
<ele>552.6</ele>
<speed>2.4</speed>
<course>151.4</course>
<desc>Speed 2.4 km/h Distance 36.04 km</desc>
<time>2010-06-13T08:59:00.03</time>
<name>8399</name>
</trkpt>
<trkpt lat="49.182462" lon="11.847948">
<ele>550.5</ele>
<speed>2.9</speed>
<course>121.4</course>
<desc>Speed 2.9 km/h Distance 36.04 km</desc>
<time>2010-06-13T08:59:01.03</time>
<name>8400</name>
</trkpt>
<trkpt lat="49.182455" lon="11.847965">
<ele>548.7</ele>
<speed>2.2</speed>
<course>96.7</course>
<desc>Speed 2.2 km/h Distance 36.04 km</desc>
<time>2010-06-13T08:59:02.03</time>
<name>8401</name>
</trkpt>
<trkpt lat="49.182453" lon="11.847987">
<ele>546.2</ele>
<speed>2.6</speed>
<course>119.7</course>
<desc>Speed 2.6 km/h Distance 36.04 km</desc>
<time>2010-06-13T08:59:03.03</time>
<name>8402</name>
</trkpt>
<trkpt lat="49.182448" lon="11.848000">
<ele>544.2</ele>
<speed>4.1</speed>
<course>156.2</course>
<desc>Speed 4.1 km/h Distance 36.04 km</desc>
<time>2010-06-13T08:59:04.03</time>
<name>8403</name>
</trkpt>
<trkpt lat="49.182443" lon="11.848003">
<ele>543.1</ele>
<speed>2.1</speed>
<course>146.8</course>
<desc>Speed 2.1 km/h Distance 36.04 km</desc>
<time>2010-06-13T08:59:05.03</time>
<name>8404</name>
</trkpt>
<trkpt lat="49.182437" lon="11.848010">
<ele>542.6</ele>
<speed>1.8</speed>
<course>133.6</course>
<desc>Speed 1.8 km/h Distance 36.05 km</desc>
<time>2010-06-13T08:59:06.03</time>
<name>8405</name>
</trkpt>
<trkpt lat="49.182428" lon="11.848023">
<ele>541.7</ele>
<speed>3.0</speed>
<course>140.6</course>
<desc>Speed 3.0 km/h Distance 36.05 km</desc>
<time>2010-06-13T08:59:07.03</time>
<name>8406</name>
</trkpt>
<trkpt lat="49.182422" lon="11.848032">
<ele>540.6</ele>
<speed>3.2</speed>
<course>130.4</course>
<desc>Speed 3.2 km/h Distance 36.05 km</desc>
<time>2010-06-13T08:59:08.03</time>
<name>8407</name>
</trkpt>
<trkpt lat="49.182413" lon="11.848047">
<ele>538.8</ele>
<speed>1.8</speed>
<course>77.7</course>
<desc>Speed 1.8 km/h Distance 36.05 km</desc>
<time>2010-06-13T08:59:09.03</time>
<name>8408</name>
</trkpt>
<trkpt lat="49.182417" lon="11.848070">
<ele>536.5</ele>
<speed>2.7</speed>
<course>127.4</course>
<desc>Speed 2.7 km/h Distance 36.05 km</desc>
<time>2010-06-13T08:59:10.03</time>
<name>8409</name>
</trkpt>
<trkpt lat="49.182408" lon="11.848087">
<ele>535.7</ele>
<speed>2.2</speed>
<course>171.1</course>
<desc>Speed 2.2 km/h Distance 36.05 km</desc>
<time>2010-06-13T08:59:11.03</time>
<name>8410</name>
</trkpt>
<trkpt lat="49.182367" lon="11.848097">
<ele>535.0</ele>
<speed>2.5</speed>
<course>117.0</course>
<desc>Speed 2.5 km/h Distance 36.06 km</desc>
<time>2010-06-13T08:59:13.03</time>
<name>8411</name>
</trkpt>
<trkpt lat="49.182362" lon="11.848112">
<ele>534.1</ele>
<speed>3.1</speed>
<course>52.7</course>
<desc>Speed 3.1 km/h Distance 36.06 km</desc>
<time>2010-06-13T08:59:14.03</time>
<name>8412</name>
</trkpt>
<trkpt lat="49.182370" lon="11.848128">
<ele>533.6</ele>
<speed>2.3</speed>
<course>132.5</course>
<desc>Speed 2.3 km/h Distance 36.06 km</desc>
<time>2010-06-13T08:59:15.03</time>
<name>8413</name>
</trkpt>
<trkpt lat="49.182360" lon="11.848145">
<ele>534.3</ele>
<speed>3.6</speed>
<course>134.2</course>
<desc>Speed 3.6 km/h Distance 36.06 km</desc>
<time>2010-06-13T08:59:16.03</time>
<name>8414</name>
</trkpt>
<trkpt lat="49.182348" lon="11.848163">
<ele>532.9</ele>
<speed>3.3</speed>
<course>104.4</course>
<desc>Speed 3.3 km/h Distance 36.06 km</desc>
<time>2010-06-13T08:59:17.03</time>
<name>8415</name>
</trkpt>
<trkpt lat="49.182347" lon="11.848173">
<ele>531.5</ele>
<speed>3.2</speed>
<course>172.6</course>
<desc>Speed 3.2 km/h Distance 36.06 km</desc>
<time>2010-06-13T08:59:18.03</time>
<name>8416</name>
</trkpt>
<trkpt lat="49.182340" lon="11.848175">
<ele>531.5</ele>
<speed>3.1</speed>
<course>90.0</course>
<desc>Speed 3.1 km/h Distance 36.06 km</desc>
<time>2010-06-13T08:59:19.03</time>
<name>8417</name>
</trkpt>
<trkpt lat="49.182340" lon="11.848190">
<ele>530.7</ele>
<speed>4.1</speed>
<course>152.1</course>
<desc>Speed 4.1 km/h Distance 36.07 km</desc>
<time>2010-06-13T08:59:20.03</time>
<name>8418</name>
</trkpt>
<trkpt lat="49.182332" lon="11.848197">
<ele>531.6</ele>
<speed>5.4</speed>
<course>104.3</course>
<desc>Speed 5.4 km/h Distance 36.07 km</desc>
<time>2010-06-13T08:59:21.03</time>
<name>8419</name>
</trkpt>
<trkpt lat="49.182328" lon="11.848217">
<ele>530.6</ele>
<speed>3.7</speed>
<course>135.7</course>
<desc>Speed 3.7 km/h Distance 36.07 km</desc>
<time>2010-06-13T08:59:22.03</time>
<name>8420</name>
</trkpt>
<trkpt lat="49.182318" lon="11.848232">
<ele>529.4</ele>
<speed>2.8</speed>
<course>146.8</course>
<desc>Speed 2.8 km/h Distance 36.07 km</desc>
<time>2010-06-13T08:59:23.03</time>
<name>8421</name>
</trkpt>
<trkpt lat="49.182305" lon="11.848245">
<ele>530.6</ele>
<speed>2.5</speed>
<course>150.6</course>
<desc>Speed 2.5 km/h Distance 36.07 km</desc>
<time>2010-06-13T08:59:24.03</time>
<name>8422</name>
</trkpt>
<trkpt lat="49.182293" lon="11.848255">
<ele>532.4</ele>
<speed>2.9</speed>
<course>146.8</course>
<desc>Speed 2.9 km/h Distance 36.07 km</desc>
<time>2010-06-13T08:59:25.03</time>
<name>8423</name>
</trkpt>
<trkpt lat="49.182288" lon="11.848260">
<ele>534.1</ele>
<speed>1.6</speed>
<course>177.8</course>
<desc>Speed 1.6 km/h Distance 36.07 km</desc>
<time>2010-06-13T08:59:26.03</time>
<name>8424</name>
</trkpt>
<trkpt lat="49.182277" lon="11.848260">
<ele>535.2</ele>
<speed>3.2</speed>
<course>168.8</course>
<desc>Speed 3.2 km/h Distance 36.07 km</desc>
<time>2010-06-13T08:59:27.03</time>
<name>8425</name>
</trkpt>
<trkpt lat="49.182265" lon="11.848263">
<ele>537.3</ele>
<speed>3.8</speed>
<course>90.0</course>
<desc>Speed 3.8 km/h Distance 36.08 km</desc>
<time>2010-06-13T08:59:28.03</time>
<name>8426</name>
</trkpt>
<trkpt lat="49.182265" lon="11.848268">
<ele>540.3</ele>
<speed>1.6</speed>
<course>251.3</course>
<desc>Speed 1.6 km/h Distance 36.08 km</desc>
<time>2010-06-13T08:59:29.03</time>
<name>8427</name>
</trkpt>
<trkpt lat="49.182262" lon="11.848253">
<ele>542.0</ele>
<speed>1.5</speed>
<course>194.0</course>
<desc>Speed 1.5 km/h Distance 36.08 km</desc>
<time>2010-06-13T08:59:30.03</time>
<name>8428</name>
</trkpt>
<trkpt lat="49.182248" lon="11.848248">
<ele>543.1</ele>
<speed>1.1</speed>
<course>150.2</course>
<desc>Speed 1.1 km/h Distance 36.08 km</desc>
<time>2010-06-13T08:59:31.03</time>
<name>8429</name>
</trkpt>
<trkpt lat="49.182235" lon="11.848260">
<ele>545.0</ele>
<speed>2.4</speed>
<course>194.2</course>
<desc>Speed 2.4 km/h Distance 36.08 km</desc>
<time>2010-06-13T08:59:32.03</time>
<name>8430</name>
</trkpt>
<trkpt lat="49.182213" lon="11.848252">
<ele>547.7</ele>
<speed>2.9</speed>
<course>182.8</course>
<desc>Speed 2.9 km/h Distance 36.08 km</desc>
<time>2010-06-13T08:59:33.03</time>
<name>8431</name>
</trkpt>
<trkpt lat="49.182197" lon="11.848250">
<ele>550.6</ele>
<speed>2.5</speed>
<course>252.9</course>
<desc>Speed 2.5 km/h Distance 36.09 km</desc>
<time>2010-06-13T08:59:34.03</time>
<name>8432</name>
</trkpt>
<trkpt lat="49.182195" lon="11.848242">
<ele>552.3</ele>
<speed>1.7</speed>
<course>152.0</course>
<desc>Speed 1.7 km/h Distance 36.09 km</desc>
<time>2010-06-13T08:59:35.03</time>
<name>8433</name>
</trkpt>
<trkpt lat="49.182185" lon="11.848250">
<ele>553.2</ele>
<speed>2.6</speed>
<course>127.6</course>
<desc>Speed 2.6 km/h Distance 36.09 km</desc>
<time>2010-06-13T08:59:36.03</time>
<name>8434</name>
</trkpt>
<trkpt lat="49.182180" lon="11.848260">
<ele>553.4</ele>
<speed>2.7</speed>
<course>173.4</course>
<desc>Speed 2.7 km/h Distance 36.09 km</desc>
<time>2010-06-13T08:59:37.03</time>
<name>8435</name>
</trkpt>
<trkpt lat="49.182160" lon="11.848263">
<ele>554.7</ele>
<speed>2.8</speed>
<course>165.4</course>
<desc>Speed 2.8 km/h Distance 36.09 km</desc>
<time>2010-06-13T08:59:38.03</time>
<name>8436</name>
</trkpt>
<trkpt lat="49.182143" lon="11.848270">
<ele>556.5</ele>
<speed>3.6</speed>
<course>146.9</course>
<desc>Speed 3.6 km/h Distance 36.09 km</desc>
<time>2010-06-13T08:59:39.03</time>
<name>8437</name>
</trkpt>
<trkpt lat="49.182128" lon="11.848285">
<ele>557.6</ele>
<speed>4.1</speed>
<course>138.8</course>
<desc>Speed 4.1 km/h Distance 36.09 km</desc>
<time>2010-06-13T08:59:40.03</time>
<name>8438</name>
</trkpt>
<trkpt lat="49.182118" lon="11.848298">
<ele>558.1</ele>
<speed>4.1</speed>
<course>146.8</course>
<desc>Speed 4.1 km/h Distance 36.10 km</desc>
<time>2010-06-13T08:59:41.03</time>
<name>8439</name>
</trkpt>
<trkpt lat="49.182100" lon="11.848317">
<ele>557.6</ele>
<speed>4.1</speed>
<course>154.0</course>
<desc>Speed 4.1 km/h Distance 36.10 km</desc>
<time>2010-06-13T08:59:42.03</time>
<name>8440</name>
</trkpt>
<trkpt lat="49.182087" lon="11.848327">
<ele>558.8</ele>
<speed>3.3</speed>
<course>139.0</course>
<desc>Speed 3.3 km/h Distance 36.10 km</desc>
<time>2010-06-13T08:59:43.03</time>
<name>8441</name>
</trkpt>
<trkpt lat="49.182077" lon="11.848340">
<ele>561.5</ele>
<speed>2.9</speed>
<course>165.1</course>
<desc>Speed 2.9 km/h Distance 36.10 km</desc>
<time>2010-06-13T08:59:44.03</time>
<name>8442</name>
</trkpt>
<trkpt lat="49.182068" lon="11.848343">
<ele>562.8</ele>
<speed>2.2</speed>
<course>175.6</course>
<desc>Speed 2.2 km/h Distance 36.10 km</desc>
<time>2010-06-13T08:59:45.03</time>
<name>8443</name>
</trkpt>
<trkpt lat="49.182058" lon="11.848345">
<ele>563.2</ele>
<speed>2.6</speed>
<course>165.1</course>
<desc>Speed 2.6 km/h Distance 36.10 km</desc>
<time>2010-06-13T08:59:46.03</time>
<name>8444</name>
</trkpt>
<trkpt lat="49.182050" lon="11.848348">
<ele>566.4</ele>
<speed>2.4</speed>
<course>46.4</course>
<desc>Speed 2.4 km/h Distance 36.10 km</desc>
<time>2010-06-13T08:59:47.03</time>
<name>8445</name>
</trkpt>
<trkpt lat="49.182058" lon="11.848362">
<ele>567.9</ele>
<speed>3.5</speed>
<course>74.4</course>
<desc>Speed 3.5 km/h Distance 36.11 km</desc>
<time>2010-06-13T08:59:48.03</time>
<name>8446</name>
</trkpt>
<trkpt lat="49.182062" lon="11.848380">
<ele>570.3</ele>
<speed>4.0</speed>
<course>141.9</course>
<desc>Speed 4.0 km/h Distance 36.11 km</desc>
<time>2010-06-13T08:59:49.03</time>
<name>8447</name>
</trkpt>
<trkpt lat="49.182053" lon="11.848390">
<ele>572.0</ele>
<speed>2.6</speed>
<course>124.3</course>
<desc>Speed 2.6 km/h Distance 36.11 km</desc>
<time>2010-06-13T08:59:50.03</time>
<name>8448</name>
</trkpt>
<trkpt lat="49.182047" lon="11.848405">
<ele>574.7</ele>
<speed>2.3</speed>
<course>151.4</course>
<desc>Speed 2.3 km/h Distance 36.11 km</desc>
<time>2010-06-13T08:59:51.03</time>
<name>8449</name>
</trkpt>
<trkpt lat="49.182037" lon="11.848413">
<ele>575.8</ele>
<speed>1.8</speed>
<course>119.8</course>
<desc>Speed 1.8 km/h Distance 36.11 km</desc>
<time>2010-06-13T08:59:52.03</time>
<name>8450</name>
</trkpt>
<trkpt lat="49.182027" lon="11.848440">
<ele>575.5</ele>
<speed>5.0</speed>
<course>138.8</course>
<desc>Speed 5.0 km/h Distance 36.11 km</desc>
<time>2010-06-13T08:59:53.03</time>
<name>8451</name>
</trkpt>
<trkpt lat="49.182017" lon="11.848453">
<ele>577.7</ele>
<speed>3.4</speed>
<course>146.8</course>
<desc>Speed 3.4 km/h Distance 36.11 km</desc>
<time>2010-06-13T08:59:54.03</time>
<name>8452</name>
</trkpt>
<trkpt lat="49.182012" lon="11.848458">
<ele>576.8</ele>
<speed>1.9</speed>
<course>18.8</course>
<desc>Speed 1.9 km/h Distance 36.12 km</desc>
<time>2010-06-13T08:59:55.03</time>
<name>8453</name>
</trkpt>
<trkpt lat="49.182015" lon="11.848460">
<ele>575.4</ele>
<speed>0.5</speed>
<course>290.9</course>
<desc>Speed 0.5 km/h Distance 36.12 km</desc>
<time>2010-06-13T08:59:56.03</time>
<name>8454</name>
</trkpt>
<trkpt lat="49.182017" lon="11.848453">
<ele>574.1</ele>
<speed>0.4</speed>
<course>72.9</course>
<desc>Speed 0.4 km/h Distance 36.12 km</desc>
<time>2010-06-13T08:59:57.03</time>
<name>8455</name>
</trkpt>
<trkpt lat="49.182018" lon="11.848462">
<ele>571.0</ele>
<speed>2.4</speed>
<course>121.4</course>
<desc>Speed 2.4 km/h Distance 36.12 km</desc>
<time>2010-06-13T08:59:58.03</time>
<name>8456</name>
</trkpt>
<trkpt lat="49.182015" lon="11.848470">
<ele>569.2</ele>
<speed>1.7</speed>
<course>146.3</course>
<desc>Speed 1.7 km/h Distance 36.12 km</desc>
<time>2010-06-13T08:59:59.03</time>
<name>8457</name>
</trkpt>
<trkpt lat="49.182012" lon="11.848473">
<ele>568.0</ele>
<speed>1.2</speed>
<course>137.4</course>
<desc>Speed 1.2 km/h Distance 36.12 km</desc>
<time>2010-06-13T09:00:00.03</time>
<name>8458</name>
</trkpt>
<trkpt lat="49.182003" lon="11.848485">
<ele>566.6</ele>
<speed>1.2</speed>
<course>108.8</course>
<desc>Speed 1.2 km/h Distance 36.12 km</desc>
<time>2010-06-13T09:00:01.03</time>
<name>8459</name>
</trkpt>
<trkpt lat="49.182000" lon="11.848500">
<ele>566.2</ele>
<speed>1.3</speed>
<course>146.3</course>
<desc>Speed 1.3 km/h Distance 36.12 km</desc>
<time>2010-06-13T09:00:02.03</time>
<name>8460</name>
</trkpt>
<trkpt lat="49.181997" lon="11.848503">
<ele>566.4</ele>
<speed>0.8</speed>
<course>12.6</course>
<desc>Speed 0.8 km/h Distance 36.12 km</desc>
<time>2010-06-13T09:00:03.03</time>
<name>8461</name>
</trkpt>
<trkpt lat="49.182002" lon="11.848505">
<ele>564.7</ele>
<speed>1.7</speed>
<course>110.9</course>
<desc>Speed 1.7 km/h Distance 36.12 km</desc>
<time>2010-06-13T09:00:04.03</time>
<name>8462</name>
</trkpt>
<trkpt lat="49.182000" lon="11.848512">
<ele>562.2</ele>
<speed>1.9</speed>
<course>33.2</course>
<desc>Speed 1.9 km/h Distance 36.12 km</desc>
<time>2010-06-13T09:00:05.03</time>
<name>8463</name>
</trkpt>
<trkpt lat="49.182008" lon="11.848520">
<ele>560.4</ele>
<speed>2.8</speed>
<course>66.5</course>
<desc>Speed 2.8 km/h Distance 36.12 km</desc>
<time>2010-06-13T09:00:06.03</time>
<name>8464</name>
</trkpt>
<trkpt lat="49.182012" lon="11.848532">
<ele>559.8</ele>
<speed>2.1</speed>
<course>132.5</course>
<desc>Speed 2.1 km/h Distance 36.12 km</desc>
<time>2010-06-13T09:00:07.03</time>
<name>8465</name>
</trkpt>
<trkpt lat="49.182002" lon="11.848548">
<ele>559.9</ele>
<speed>1.2</speed>
<course>167.4</course>
<desc>Speed 1.2 km/h Distance 36.13 km</desc>
<time>2010-06-13T09:00:08.03</time>
<name>8466</name>
</trkpt>
<trkpt lat="49.182000" lon="11.848548">
<ele>560.5</ele>
<speed>1.3</speed>
<course>0.0</course>
<desc>Speed 1.3 km/h Distance 36.13 km</desc>
<time>2010-06-13T09:00:09.03</time>
<name>8467</name>
</trkpt>
<trkpt lat="49.182003" lon="11.848548">
<ele>560.0</ele>
<speed>0.8</speed>
<course>0.0</course>
<desc>Speed 0.8 km/h Distance 36.13 km</desc>
<time>2010-06-13T09:00:10.03</time>
<name>8468</name>
</trkpt>
<trkpt lat="49.182003" lon="11.848548">
<ele>561.0</ele>
<speed>1.8</speed>
<course>356.2</course>
<desc>Speed 1.8 km/h Distance 36.13 km</desc>
<time>2010-06-13T09:00:11.03</time>
<name>8469</name>
</trkpt>
<trkpt lat="49.182018" lon="11.848547">
<ele>563.1</ele>
<speed>4.4</speed>
<course>33.3</course>
<desc>Speed 4.4 km/h Distance 36.13 km</desc>
<time>2010-06-13T09:00:12.03</time>
<name>8470</name>
</trkpt>
<trkpt lat="49.182032" lon="11.848560">
<ele>563.1</ele>
<speed>4.6</speed>
<course>22.6</course>
<desc>Speed 4.6 km/h Distance 36.13 km</desc>
<time>2010-06-13T09:00:13.03</time>
<name>8471</name>
</trkpt>
<trkpt lat="49.182045" lon="11.848568">
<ele>564.1</ele>
<speed>2.7</speed>
<course>39.4</course>
<desc>Speed 2.7 km/h Distance 36.13 km</desc>
<time>2010-06-13T09:00:14.03</time>
<name>8472</name>
</trkpt>
<trkpt lat="49.182052" lon="11.848577">
<ele>564.5</ele>
<speed>1.6</speed>
<course>77.7</course>
<desc>Speed 1.6 km/h Distance 36.13 km</desc>
<time>2010-06-13T09:00:15.03</time>
<name>8473</name>
</trkpt>
<trkpt lat="49.182053" lon="11.848588">
<ele>566.1</ele>
<speed>1.3</speed>
<course>7.7</course>
<desc>Speed 1.3 km/h Distance 36.13 km</desc>
<time>2010-06-13T09:00:16.03</time>
<name>8474</name>
</trkpt>
<trkpt lat="49.182062" lon="11.848590">
<ele>566.0</ele>
<speed>1.3</speed>
<course>5.3</course>
<desc>Speed 1.3 km/h Distance 36.13 km</desc>
<time>2010-06-13T09:00:17.03</time>
<name>8475</name>
</trkpt>
<trkpt lat="49.182075" lon="11.848592">
<ele>564.9</ele>
<speed>1.7</speed>
<course>69.1</course>
<desc>Speed 1.7 km/h Distance 36.14 km</desc>
<time>2010-06-13T09:00:18.03</time>
<name>8476</name>
</trkpt>
<trkpt lat="49.182077" lon="11.848598">
<ele>564.9</ele>
<speed>2.4</speed>
<course>341.9</course>
<desc>Speed 2.4 km/h Distance 36.14 km</desc>
<time>2010-06-13T09:00:19.03</time>
<name>8477</name>
</trkpt>
<trkpt lat="49.182090" lon="11.848592">
<ele>568.0</ele>
<speed>2.2</speed>
<course>127.0</course>
<desc>Speed 2.2 km/h Distance 36.14 km</desc>
<time>2010-06-13T09:00:20.03</time>
<name>8478</name>
</trkpt>
<trkpt lat="49.182087" lon="11.848598">
<ele>569.8</ele>
<speed>1.1</speed>
<course>175.6</course>
<desc>Speed 1.1 km/h Distance 36.14 km</desc>
<time>2010-06-13T09:00:21.03</time>
<name>8479</name>
</trkpt>
<trkpt lat="49.182077" lon="11.848600">
<ele>568.8</ele>
<speed>0.8</speed>
<course>170.5</course>
<desc>Speed 0.8 km/h Distance 36.14 km</desc>
<time>2010-06-13T09:00:22.03</time>
<name>8480</name>
</trkpt>
<trkpt lat="49.182065" lon="11.848603">
<ele>568.8</ele>
<speed>1.5</speed>
<course>180.0</course>
<desc>Speed 1.5 km/h Distance 36.14 km</desc>
<time>2010-06-13T09:00:23.03</time>
<name>8481</name>
</trkpt>
<trkpt lat="49.182053" lon="11.848603">
<ele>568.1</ele>
<speed>2.0</speed>
<course>168.3</course>
<desc>Speed 2.0 km/h Distance 36.14 km</desc>
<time>2010-06-13T09:00:24.03</time>
<name>8482</name>
</trkpt>
<trkpt lat="49.182038" lon="11.848608">
<ele>570.5</ele>
<speed>1.8</speed>
<course>133.6</course>
<desc>Speed 1.8 km/h Distance 36.14 km</desc>
<time>2010-06-13T09:00:25.03</time>
<name>8483</name>
</trkpt>
<trkpt lat="49.182030" lon="11.848622">
<ele>571.7</ele>
<speed>1.7</speed>
<course>353.4</course>
<desc>Speed 1.7 km/h Distance 36.14 km</desc>
<time>2010-06-13T09:00:26.03</time>
<name>8484</name>
</trkpt>
<trkpt lat="49.182040" lon="11.848620">
<ele>572.8</ele>
<speed>1.7</speed>
<course>37.5</course>
<desc>Speed 1.7 km/h Distance 36.15 km</desc>
<time>2010-06-13T09:00:27.03</time>
<name>8485</name>
</trkpt>
<trkpt lat="49.182050" lon="11.848632">
<ele>571.3</ele>
<speed>2.4</speed>
<course>131.3</course>
<desc>Speed 2.4 km/h Distance 36.15 km</desc>
<time>2010-06-13T09:00:28.03</time>
<name>8486</name>
</trkpt>
<trkpt lat="49.182043" lon="11.848643">
<ele>569.1</ele>
<speed>2.2</speed>
<course>164.0</course>
<desc>Speed 2.2 km/h Distance 36.15 km</desc>
<time>2010-06-13T09:00:29.03</time>
<name>8487</name>
</trkpt>
<trkpt lat="49.182032" lon="11.848648">
<ele>568.6</ele>
<speed>2.3</speed>
<course>135.5</course>
<desc>Speed 2.3 km/h Distance 36.15 km</desc>
<time>2010-06-13T09:00:30.03</time>
<name>8488</name>
</trkpt>
<trkpt lat="49.182025" lon="11.848658">
<ele>567.5</ele>
<speed>2.6</speed>
<course>151.7</course>
<desc>Speed 2.6 km/h Distance 36.15 km</desc>
<time>2010-06-13T09:00:31.03</time>
<name>8489</name>
</trkpt>
<trkpt lat="49.182015" lon="11.848667">
<ele>567.8</ele>
<speed>1.7</speed>
<course>162.5</course>
<desc>Speed 1.7 km/h Distance 36.15 km</desc>
<time>2010-06-13T09:00:32.03</time>
<name>8490</name>
</trkpt>
<trkpt lat="49.182008" lon="11.848670">
<ele>568.9</ele>
<speed>1.7</speed>
<course>175.3</course>
<desc>Speed 1.7 km/h Distance 36.15 km</desc>
<time>2010-06-13T09:00:33.03</time>
<name>8491</name>
</trkpt>
<trkpt lat="49.181997" lon="11.848672">
<ele>569.5</ele>
<speed>2.3</speed>
<course>150.2</course>
<desc>Speed 2.3 km/h Distance 36.15 km</desc>
<time>2010-06-13T09:00:34.03</time>
<name>8492</name>
</trkpt>
<trkpt lat="49.181983" lon="11.848683">
<ele>569.9</ele>
<speed>3.3</speed>
<course>167.4</course>
<desc>Speed 3.3 km/h Distance 36.16 km</desc>
<time>2010-06-13T09:00:35.03</time>
<name>8493</name>
</trkpt>
<trkpt lat="49.181973" lon="11.848687">
<ele>568.5</ele>
<speed>2.7</speed>
<course>156.6</course>
<desc>Speed 2.7 km/h Distance 36.16 km</desc>
<time>2010-06-13T09:00:36.03</time>
<name>8494</name>
</trkpt>
<trkpt lat="49.181963" lon="11.848693">
<ele>566.7</ele>
<speed>2.9</speed>
<course>135.6</course>
<desc>Speed 2.9 km/h Distance 36.16 km</desc>
<time>2010-06-13T09:00:37.03</time>
<name>8495</name>
</trkpt>
<trkpt lat="49.181950" lon="11.848713">
<ele>566.6</ele>
<speed>2.8</speed>
<course>105.5</course>
<desc>Speed 2.8 km/h Distance 36.16 km</desc>
<time>2010-06-13T09:00:38.03</time>
<name>8496</name>
</trkpt>
<trkpt lat="49.181947" lon="11.848732">
<ele>565.0</ele>
<speed>3.5</speed>
<course>165.1</course>
<desc>Speed 3.5 km/h Distance 36.16 km</desc>
<time>2010-06-13T09:00:39.03</time>
<name>8497</name>
</trkpt>
<trkpt lat="49.181930" lon="11.848738">
<ele>564.7</ele>
<speed>3.0</speed>
<course>150.6</course>
<desc>Speed 3.0 km/h Distance 36.16 km</desc>
<time>2010-06-13T09:00:40.03</time>
<name>8498</name>
</trkpt>
<trkpt lat="49.181918" lon="11.848748">
<ele>567.4</ele>
<speed>1.2</speed>
<course>198.1</course>
<desc>Speed 1.2 km/h Distance 36.17 km</desc>
<time>2010-06-13T09:00:41.03</time>
<name>8499</name>
</trkpt>
<trkpt lat="49.181905" lon="11.848742">
<ele>568.7</ele>
<speed>1.2</speed>
<course>102.3</course>
<desc>Speed 1.2 km/h Distance 36.17 km</desc>
<time>2010-06-13T09:00:42.03</time>
<name>8500</name>
</trkpt>
<trkpt lat="49.181902" lon="11.848765">
<ele>570.9</ele>
<speed>3.1</speed>
<course>84.5</course>
<desc>Speed 3.1 km/h Distance 36.17 km</desc>
<time>2010-06-13T09:00:43.03</time>
<name>8501</name>
</trkpt>
<trkpt lat="49.181903" lon="11.848792">
<ele>572.9</ele>
<speed>2.7</speed>
<course>121.4</course>
<desc>Speed 2.7 km/h Distance 36.17 km</desc>
<time>2010-06-13T09:00:44.03</time>
<name>8502</name>
</trkpt>
<trkpt lat="49.181900" lon="11.848800">
<ele>575.6</ele>
<speed>2.4</speed>
<course>75.6</course>
<desc>Speed 2.4 km/h Distance 36.17 km</desc>
<time>2010-06-13T09:00:45.03</time>
<name>8503</name>
</trkpt>
<trkpt lat="49.181902" lon="11.848810">
<ele>576.9</ele>
<speed>1.5</speed>
<course>35.2</course>
<desc>Speed 1.5 km/h Distance 36.17 km</desc>
<time>2010-06-13T09:00:46.03</time>
<name>8504</name>
</trkpt>
<trkpt lat="49.181923" lon="11.848833">
<ele>577.7</ele>
<speed>3.1</speed>
<course>49.6</course>
<desc>Speed 3.1 km/h Distance 36.17 km</desc>
<time>2010-06-13T09:00:48.03</time>
<name>8505</name>
</trkpt>
<trkpt lat="49.181932" lon="11.848848">
<ele>576.3</ele>
<speed>3.7</speed>
<course>52.6</course>
<desc>Speed 3.7 km/h Distance 36.18 km</desc>
<time>2010-06-13T09:00:49.03</time>
<name>8506</name>
</trkpt>
<trkpt lat="49.181945" lon="11.848875">
<ele>575.7</ele>
<speed>4.8</speed>
<course>84.5</course>
<desc>Speed 4.8 km/h Distance 36.18 km</desc>
<time>2010-06-13T09:00:50.03</time>
<name>8507</name>
</trkpt>
<trkpt lat="49.181947" lon="11.848902">
<ele>576.7</ele>
<speed>4.3</speed>
<course>106.9</course>
<desc>Speed 4.3 km/h Distance 36.18 km</desc>
<time>2010-06-13T09:00:51.03</time>
<name>8508</name>
</trkpt>
<trkpt lat="49.181945" lon="11.848910">
<ele>576.8</ele>
<speed>1.8</speed>
<course>175.6</course>
<desc>Speed 1.8 km/h Distance 36.18 km</desc>
<time>2010-06-13T09:00:52.03</time>
<name>8509</name>
</trkpt>
<trkpt lat="49.181935" lon="11.848912">
<ele>574.5</ele>
<speed>0.8</speed>
<course>141.9</course>
<desc>Speed 0.8 km/h Distance 36.18 km</desc>
<time>2010-06-13T09:00:53.03</time>
<name>8510</name>
</trkpt>
<trkpt lat="49.181927" lon="11.848922">
<ele>575.6</ele>
<speed>2.7</speed>
<course>90.0</course>
<desc>Speed 2.7 km/h Distance 36.18 km</desc>
<time>2010-06-13T09:00:54.03</time>
<name>8511</name>
</trkpt>
<trkpt lat="49.181927" lon="11.848937">
<ele>575.6</ele>
<speed>3.1</speed>
<course>55.9</course>
<desc>Speed 3.1 km/h Distance 36.18 km</desc>
<time>2010-06-13T09:00:55.03</time>
<name>8512</name>
</trkpt>
<trkpt lat="49.181933" lon="11.848952">
<ele>575.6</ele>
<speed>3.0</speed>
<course>28.9</course>
<desc>Speed 3.0 km/h Distance 36.19 km</desc>
<time>2010-06-13T09:00:56.03</time>
<name>8513</name>
</trkpt>
<trkpt lat="49.181943" lon="11.848960">
<ele>574.6</ele>
<speed>2.4</speed>
<course>213.2</course>
<desc>Speed 2.4 km/h Distance 36.19 km</desc>
<time>2010-06-13T09:00:57.03</time>
<name>8514</name>
</trkpt>
<trkpt lat="49.181935" lon="11.848952">
<ele>574.6</ele>
<speed>2.7</speed>
<course>71.1</course>
<desc>Speed 2.7 km/h Distance 36.19 km</desc>
<time>2010-06-13T09:00:58.03</time>
<name>8515</name>
</trkpt>
<trkpt lat="49.181938" lon="11.848967">
<ele>573.2</ele>
<speed>2.5</speed>
<course>56.7</course>
<desc>Speed 2.5 km/h Distance 36.19 km</desc>
<time>2010-06-13T09:00:59.03</time>
<name>8516</name>
</trkpt>
<trkpt lat="49.181948" lon="11.848990">
<ele>575.0</ele>
<speed>1.4</speed>
<course>205.4</course>
<desc>Speed 1.4 km/h Distance 36.19 km</desc>
<time>2010-06-13T09:01:00.03</time>
<name>8517</name>
</trkpt>
<trkpt lat="49.181943" lon="11.848987">
<ele>574.2</ele>
<speed>0.6</speed>
<course>106.7</course>
<desc>Speed 0.6 km/h Distance 36.19 km</desc>
<time>2010-06-13T09:01:01.03</time>
<name>8518</name>
</trkpt>
<trkpt lat="49.181942" lon="11.848995">
<ele>575.8</ele>
<speed>2.0</speed>
<course>141.9</course>
<desc>Speed 2.0 km/h Distance 36.19 km</desc>
<time>2010-06-13T09:01:02.03</time>
<name>8519</name>
</trkpt>
<trkpt lat="49.181933" lon="11.849005">
<ele>576.4</ele>
<speed>3.2</speed>
<course>133.6</course>
<desc>Speed 3.2 km/h Distance 36.19 km</desc>
<time>2010-06-13T09:01:03.03</time>
<name>8520</name>
</trkpt>
<trkpt lat="49.181925" lon="11.849018">
<ele>576.6</ele>
<speed>4.5</speed>
<course>125.6</course>
<desc>Speed 4.5 km/h Distance 36.20 km</desc>
<time>2010-06-13T09:01:04.03</time>
<name>8521</name>
</trkpt>
<trkpt lat="49.181913" lon="11.849043">
<ele>576.6</ele>
<speed>6.2</speed>
<course>231.9</course>
<desc>Speed 6.2 km/h Distance 36.20 km</desc>
<time>2010-06-13T09:01:05.03</time>
<name>8522</name>
</trkpt>
<trkpt lat="49.181910" lon="11.849037">
<ele>576.6</ele>
<speed>2.7</speed>
<course>46.3</course>
<desc>Speed 2.7 km/h Distance 36.20 km</desc>
<time>2010-06-13T09:01:06.03</time>
<name>8523</name>
</trkpt>
<trkpt lat="49.181935" lon="11.849077">
<ele>570.7</ele>
<speed>2.1</speed>
<course>43.4</course>
<desc>Speed 2.1 km/h Distance 36.20 km</desc>
<time>2010-06-13T09:01:08.03</time>
<name>8524</name>
</trkpt>
<trkpt lat="49.181950" lon="11.849098">
<ele>567.6</ele>
<speed>2.2</speed>
<course>0.0</course>
<desc>Speed 2.2 km/h Distance 36.20 km</desc>
<time>2010-06-13T09:01:09.03</time>
<name>8525</name>
</trkpt>
<trkpt lat="49.181953" lon="11.849098">
<ele>562.6</ele>
<speed>1.4</speed>
<course>235.9</course>
<desc>Speed 1.4 km/h Distance 36.20 km</desc>
<time>2010-06-13T09:01:10.03</time>
<name>8526</name>
</trkpt>
<trkpt lat="49.181947" lon="11.849083">
<ele>564.1</ele>
<speed>2.2</speed>
<course>90.0</course>
<desc>Speed 2.2 km/h Distance 36.21 km</desc>
<time>2010-06-13T09:01:11.03</time>
<name>8527</name>
</trkpt>
<trkpt lat="49.181947" lon="11.849090">
<ele>565.6</ele>
<speed>1.1</speed>
<course>96.2</course>
<desc>Speed 1.1 km/h Distance 36.21 km</desc>
<time>2010-06-13T09:01:12.03</time>
<name>8528</name>
</trkpt>
<trkpt lat="49.181945" lon="11.849113">
<ele>565.7</ele>
<speed>1.7</speed>
<course>277.3</course>
<desc>Speed 1.7 km/h Distance 36.21 km</desc>
<time>2010-06-13T09:01:13.03</time>
<name>8529</name>
</trkpt>
<trkpt lat="49.181947" lon="11.849093">
<ele>564.1</ele>
<speed>0.5</speed>
<course>301.4</course>
<desc>Speed 0.5 km/h Distance 36.21 km</desc>
<time>2010-06-13T09:01:14.03</time>
<name>8530</name>
</trkpt>
<trkpt lat="49.181950" lon="11.849085">
<ele>561.8</ele>
<speed>0.8</speed>
<course>50.5</course>
<desc>Speed 0.8 km/h Distance 36.21 km</desc>
<time>2010-06-13T09:01:15.03</time>
<name>8531</name>
</trkpt>
<trkpt lat="49.181962" lon="11.849107">
<ele>559.3</ele>
<speed>3.1</speed>
<course>24.6</course>
<desc>Speed 3.1 km/h Distance 36.21 km</desc>
<time>2010-06-13T09:01:16.03</time>
<name>8532</name>
</trkpt>
<trkpt lat="49.181978" lon="11.849118">
<ele>557.5</ele>
<speed>5.3</speed>
<course>15.3</course>
<desc>Speed 5.3 km/h Distance 36.21 km</desc>
<time>2010-06-13T09:01:17.03</time>
<name>8533</name>
</trkpt>
<trkpt lat="49.181998" lon="11.849127">
<ele>556.0</ele>
<speed>7.2</speed>
<course>11.4</course>
<desc>Speed 7.2 km/h Distance 36.22 km</desc>
<time>2010-06-13T09:01:18.03</time>
<name>8534</name>
</trkpt>
<trkpt lat="49.182020" lon="11.849133">
<ele>555.4</ele>
<speed>7.1</speed>
<course>13.6</course>
<desc>Speed 7.1 km/h Distance 36.22 km</desc>
<time>2010-06-13T09:01:19.03</time>
<name>8535</name>
</trkpt>
<trkpt lat="49.182052" lon="11.849145">
<ele>555.8</ele>
<speed>8.7</speed>
<course>2.9</course>
<desc>Speed 8.7 km/h Distance 36.22 km</desc>
<time>2010-06-13T09:01:20.03</time>
<name>8536</name>
</trkpt>
<trkpt lat="49.182117" lon="11.849150">
<ele>554.6</ele>
<speed>6.9</speed>
<course>349.8</course>
<desc>Speed 6.9 km/h Distance 36.23 km</desc>
<time>2010-06-13T09:01:22.03</time>
<name>8537</name>
</trkpt>
<trkpt lat="49.182135" lon="11.849145">
<ele>552.0</ele>
<speed>6.9</speed>
<course>9.7</course>
<desc>Speed 6.9 km/h Distance 36.23 km</desc>
<time>2010-06-13T09:01:23.03</time>
<name>8538</name>
</trkpt>
<trkpt lat="49.182212" lon="11.849165">
<ele>545.9</ele>
<speed>10.5</speed>
<course>28.3</course>
<desc>Speed 10.5 km/h Distance 36.24 km</desc>
<time>2010-06-13T09:01:25.03</time>
<name>8539</name>
</trkpt>
<trkpt lat="49.182240" lon="11.849188">
<ele>544.2</ele>
<speed>9.2</speed>
<course>15.5</course>
<desc>Speed 9.2 km/h Distance 36.24 km</desc>
<time>2010-06-13T09:01:26.03</time>
<name>8540</name>
</trkpt>
<trkpt lat="49.182318" lon="11.849222">
<ele>543.9</ele>
<speed>8.4</speed>
<course>1.4</course>
<desc>Speed 8.4 km/h Distance 36.25 km</desc>
<time>2010-06-13T09:01:28.03</time>
<name>8541</name>
</trkpt>
<trkpt lat="49.182347" lon="11.849223">
<ele>541.5</ele>
<speed>6.2</speed>
<course>5.6</course>
<desc>Speed 6.2 km/h Distance 36.26 km</desc>
<time>2010-06-13T09:01:29.03</time>
<name>8542</name>
</trkpt>
<trkpt lat="49.182370" lon="11.849227">
<ele>541.2</ele>
<speed>5.1</speed>
<course>347.1</course>
<desc>Speed 5.1 km/h Distance 36.26 km</desc>
<time>2010-06-13T09:01:30.03</time>
<name>8543</name>
</trkpt>
<trkpt lat="49.182432" lon="11.849205">
<ele>540.7</ele>
<speed>6.7</speed>
<course>13.2</course>
<desc>Speed 6.7 km/h Distance 36.27 km</desc>
<time>2010-06-13T09:01:32.03</time>
<name>8544</name>
</trkpt>
<trkpt lat="49.182455" lon="11.849213">
<ele>541.7</ele>
<speed>6.5</speed>
<course>358.2</course>
<desc>Speed 6.5 km/h Distance 36.27 km</desc>
<time>2010-06-13T09:01:33.03</time>
<name>8545</name>
</trkpt>
<trkpt lat="49.182523" lon="11.849210">
<ele>541.0</ele>
<speed>5.5</speed>
<course>17.1</course>
<desc>Speed 5.5 km/h Distance 36.28 km</desc>
<time>2010-06-13T09:01:35.03</time>
<name>8546</name>
</trkpt>
<trkpt lat="49.182552" lon="11.849223">
<ele>539.7</ele>
<speed>7.5</speed>
<course>25.9</course>
<desc>Speed 7.5 km/h Distance 36.28 km</desc>
<time>2010-06-13T09:01:36.03</time>
<name>8547</name>
</trkpt>
<trkpt lat="49.182617" lon="11.849272">
<ele>542.6</ele>
<speed>10.5</speed>
<course>11.6</course>
<desc>Speed 10.5 km/h Distance 36.29 km</desc>
<time>2010-06-13T09:01:38.03</time>
<name>8548</name>
</trkpt>
<trkpt lat="49.182643" lon="11.849280">
<ele>542.6</ele>
<speed>8.9</speed>
<course>18.1</course>
<desc>Speed 8.9 km/h Distance 36.29 km</desc>
<time>2010-06-13T09:01:39.03</time>
<name>8549</name>
</trkpt>
<trkpt lat="49.182657" lon="11.849287">
<ele>543.9</ele>
<speed>5.4</speed>
<course>16.0</course>
<desc>Speed 5.4 km/h Distance 36.29 km</desc>
<time>2010-06-13T09:01:40.03</time>
<name>8550</name>
</trkpt>
<trkpt lat="49.182672" lon="11.849293">
<ele>544.8</ele>
<speed>4.2</speed>
<course>15.8</course>
<desc>Speed 4.2 km/h Distance 36.29 km</desc>
<time>2010-06-13T09:01:41.03</time>
<name>8551</name>
</trkpt>
<trkpt lat="49.182733" lon="11.849320">
<ele>543.6</ele>
<speed>5.9</speed>
<course>352.3</course>
<desc>Speed 5.9 km/h Distance 36.30 km</desc>
<time>2010-06-13T09:01:43.03</time>
<name>8552</name>
</trkpt>
<trkpt lat="49.182750" lon="11.849317">
<ele>543.5</ele>
<speed>3.6</speed>
<course>7.3</course>
<desc>Speed 3.6 km/h Distance 36.30 km</desc>
<time>2010-06-13T09:01:44.03</time>
<name>8553</name>
</trkpt>
<trkpt lat="49.182827" lon="11.849332">
<ele>544.9</ele>
<speed>9.1</speed>
<course>347.5</course>
<desc>Speed 9.1 km/h Distance 36.31 km</desc>
<time>2010-06-13T09:01:46.03</time>
<name>8554</name>
</trkpt>
<trkpt lat="49.182910" lon="11.849303">
<ele>548.9</ele>
<speed>10.8</speed>
<course>0.0</course>
<desc>Speed 10.8 km/h Distance 36.32 km</desc>
<time>2010-06-13T09:01:48.03</time>
<name>8555</name>
</trkpt>
<trkpt lat="49.182990" lon="11.849303">
<ele>551.5</ele>
<speed>10.3</speed>
<course>4.4</course>
<desc>Speed 10.3 km/h Distance 36.33 km</desc>
<time>2010-06-13T09:01:50.03</time>
<name>8556</name>
</trkpt>
<trkpt lat="49.183020" lon="11.849307">
<ele>553.2</ele>
<speed>9.8</speed>
<course>15.0</course>
<desc>Speed 9.8 km/h Distance 36.33 km</desc>
<time>2010-06-13T09:01:51.03</time>
<name>8557</name>
</trkpt>
<trkpt lat="49.183057" lon="11.849322">
<ele>554.8</ele>
<speed>8.4</speed>
<course>6.9</course>
<desc>Speed 8.4 km/h Distance 36.34 km</desc>
<time>2010-06-13T09:01:52.03</time>
<name>8558</name>
</trkpt>
<trkpt lat="49.183083" lon="11.849327">
<ele>554.9</ele>
<speed>7.4</speed>
<course>13.2</course>
<desc>Speed 7.4 km/h Distance 36.34 km</desc>
<time>2010-06-13T09:01:53.03</time>
<name>8559</name>
</trkpt>
<trkpt lat="49.183107" lon="11.849335">
<ele>554.7</ele>
<speed>6.2</speed>
<course>16.0</course>
<desc>Speed 6.2 km/h Distance 36.34 km</desc>
<time>2010-06-13T09:01:54.03</time>
<name>8560</name>
</trkpt>
<trkpt lat="49.183118" lon="11.849340">
<ele>553.9</ele>
<speed>3.1</speed>
<course>7.7</course>
<desc>Speed 3.1 km/h Distance 36.35 km</desc>
<time>2010-06-13T09:01:55.03</time>
<name>8561</name>
</trkpt>
<trkpt lat="49.183135" lon="11.849343">
<ele>554.4</ele>
<speed>3.3</speed>
<course>3.8</course>
<desc>Speed 3.3 km/h Distance 36.35 km</desc>
<time>2010-06-13T09:01:56.03</time>
<name>8562</name>
</trkpt>
<trkpt lat="49.183150" lon="11.849343">
<ele>554.4</ele>
<speed>4.0</speed>
<course>14.0</course>
<desc>Speed 4.0 km/h Distance 36.35 km</desc>
<time>2010-06-13T09:01:57.03</time>
<name>8563</name>
</trkpt>
<trkpt lat="49.183207" lon="11.849365">
<ele>550.7</ele>
<speed>4.7</speed>
<course>2.5</course>
<desc>Speed 4.7 km/h Distance 36.36 km</desc>
<time>2010-06-13T09:01:59.03</time>
<name>8564</name>
</trkpt>
<trkpt lat="49.183225" lon="11.849365">
<ele>549.4</ele>
<speed>4.0</speed>
<course>344.3</course>
<desc>Speed 4.0 km/h Distance 36.36 km</desc>
<time>2010-06-13T09:02:00.03</time>
<name>8565</name>
</trkpt>
<trkpt lat="49.183248" lon="11.849355">
<ele>549.3</ele>
<speed>3.0</speed>
<course>25.5</course>
<desc>Speed 3.0 km/h Distance 36.36 km</desc>
<time>2010-06-13T09:02:01.03</time>
<name>8566</name>
</trkpt>
<trkpt lat="49.183292" lon="11.849387">
<ele>551.7</ele>
<speed>3.1</speed>
<course>11.4</course>
<desc>Speed 3.1 km/h Distance 36.37 km</desc>
<time>2010-06-13T09:02:03.03</time>
<name>8567</name>
</trkpt>
<trkpt lat="49.183357" lon="11.849407">
<ele>549.9</ele>
<speed>7.2</speed>
<course>352.1</course>
<desc>Speed 7.2 km/h Distance 36.37 km</desc>
<time>2010-06-13T09:02:05.03</time>
<name>8568</name>
</trkpt>
<trkpt lat="49.183412" lon="11.849395">
<ele>549.1</ele>
<speed>6.2</speed>
<course>336.7</course>
<desc>Speed 6.2 km/h Distance 36.38 km</desc>
<time>2010-06-13T09:02:07.03</time>
<name>8569</name>
</trkpt>
<trkpt lat="49.183427" lon="11.849385">
<ele>548.0</ele>
<speed>5.2</speed>
<course>357.3</course>
<desc>Speed 5.2 km/h Distance 36.38 km</desc>
<time>2010-06-13T09:02:08.03</time>
<name>8570</name>
</trkpt>
<trkpt lat="49.183447" lon="11.849383">
<ele>547.0</ele>
<speed>7.7</speed>
<course>355.0</course>
<desc>Speed 7.7 km/h Distance 36.38 km</desc>
<time>2010-06-13T09:02:09.03</time>
<name>8571</name>
</trkpt>
<trkpt lat="49.183472" lon="11.849380">
<ele>545.8</ele>
<speed>7.0</speed>
<course>349.6</course>
<desc>Speed 7.0 km/h Distance 36.39 km</desc>
<time>2010-06-13T09:02:10.03</time>
<name>8572</name>
</trkpt>
<trkpt lat="49.183488" lon="11.849375">
<ele>544.9</ele>
<speed>5.3</speed>
<course>348.3</course>
<desc>Speed 5.3 km/h Distance 36.39 km</desc>
<time>2010-06-13T09:02:11.05</time>
<name>8573</name>
</trkpt>
<trkpt lat="49.183503" lon="11.849370">
<ele>543.8</ele>
<speed>4.4</speed>
<course>341.9</course>
<desc>Speed 4.4 km/h Distance 36.39 km</desc>
<time>2010-06-13T09:02:12.05</time>
<name>8574</name>
</trkpt>
<trkpt lat="49.183517" lon="11.849363">
<ele>543.1</ele>
<speed>2.4</speed>
<course>5.0</course>
<desc>Speed 2.4 km/h Distance 36.39 km</desc>
<time>2010-06-13T09:02:13.05</time>
<name>8575</name>
</trkpt>
<trkpt lat="49.183525" lon="11.849365">
<ele>542.1</ele>
<speed>2.4</speed>
<course>132.6</course>
<desc>Speed 2.4 km/h Distance 36.39 km</desc>
<time>2010-06-13T09:02:14.05</time>
<name>8576</name>
</trkpt>
<trkpt lat="49.183520" lon="11.849373">
<ele>543.4</ele>
<speed>0.4</speed>
<course>29.5</course>
<desc>Speed 0.4 km/h Distance 36.39 km</desc>
<time>2010-06-13T09:02:15.05</time>
<name>8577</name>
</trkpt>
<trkpt lat="49.183545" lon="11.849395">
<ele>543.1</ele>
<speed>2.5</speed>
<course>329.7</course>
<desc>Speed 2.5 km/h Distance 36.40 km</desc>
<time>2010-06-13T09:02:17.05</time>
<name>8578</name>
</trkpt>
<trkpt lat="49.183560" lon="11.849382">
<ele>546.8</ele>
<speed>3.1</speed>
<course>299.0</course>
<desc>Speed 3.1 km/h Distance 36.40 km</desc>
<time>2010-06-13T09:02:18.05</time>
<name>8579</name>
</trkpt>
<trkpt lat="49.183567" lon="11.849363">
<ele>549.6</ele>
<speed>3.2</speed>
<course>343.4</course>
<desc>Speed 3.2 km/h Distance 36.40 km</desc>
<time>2010-06-13T09:02:19.05</time>
<name>8580</name>
</trkpt>
<trkpt lat="49.183582" lon="11.849357">
<ele>551.3</ele>
<speed>3.6</speed>
<course>3.8</course>
<desc>Speed 3.6 km/h Distance 36.40 km</desc>
<time>2010-06-13T09:02:20.05</time>
<name>8581</name>
</trkpt>
<trkpt lat="49.183597" lon="11.849358">
<ele>553.6</ele>
<speed>3.2</speed>
<course>63.0</course>
<desc>Speed 3.2 km/h Distance 36.40 km</desc>
<time>2010-06-13T09:02:21.05</time>
<name>8582</name>
</trkpt>
<trkpt lat="49.183602" lon="11.849373">
<ele>555.6</ele>
<speed>2.0</speed>
<course>35.5</course>
<desc>Speed 2.0 km/h Distance 36.40 km</desc>
<time>2010-06-13T09:02:22.05</time>
<name>8583</name>
</trkpt>
<trkpt lat="49.183620" lon="11.849393">
<ele>556.6</ele>
<speed>1.7</speed>
<course>35.6</course>
<desc>Speed 1.7 km/h Distance 36.41 km</desc>
<time>2010-06-13T09:02:23.05</time>
<name>8584</name>
</trkpt>
<trkpt lat="49.183637" lon="11.849412">
<ele>557.9</ele>
<speed>3.5</speed>
<course>37.3</course>
<desc>Speed 3.5 km/h Distance 36.41 km</desc>
<time>2010-06-13T09:02:24.05</time>
<name>8585</name>
</trkpt>
<trkpt lat="49.183647" lon="11.849423">
<ele>557.3</ele>
<speed>3.9</speed>
<course>55.8</course>
<desc>Speed 3.9 km/h Distance 36.41 km</desc>
<time>2010-06-13T09:02:25.05</time>
<name>8586</name>
</trkpt>
<trkpt lat="49.183653" lon="11.849438">
<ele>555.9</ele>
<speed>3.1</speed>
<course>318.8</course>
<desc>Speed 3.1 km/h Distance 36.41 km</desc>
<time>2010-06-13T09:02:26.05</time>
<name>8587</name>
</trkpt>
<trkpt lat="49.183663" lon="11.849425">
<ele>555.1</ele>
<speed>2.1</speed>
<course>326.3</course>
<desc>Speed 2.1 km/h Distance 36.41 km</desc>
<time>2010-06-13T09:02:27.05</time>
<name>8588</name>
</trkpt>
<trkpt lat="49.183670" lon="11.849418">
<ele>554.6</ele>
<speed>2.4</speed>
<course>29.2</course>
<desc>Speed 2.4 km/h Distance 36.41 km</desc>
<time>2010-06-13T09:02:28.05</time>
<name>8589</name>
</trkpt>
<trkpt lat="49.183672" lon="11.849420">
<ele>552.5</ele>
<speed>1.0</speed>
<course>12.9</course>
<desc>Speed 1.0 km/h Distance 36.41 km</desc>
<time>2010-06-13T09:02:29.05</time>
<name>8590</name>
</trkpt>
<trkpt lat="49.183705" lon="11.849432">
<ele>551.0</ele>
<speed>1.2</speed>
<course>12.6</course>
<desc>Speed 1.2 km/h Distance 36.42 km</desc>
<time>2010-06-13T09:02:31.05</time>
<name>8591</name>
</trkpt>
<trkpt lat="49.183720" lon="11.849437">
<ele>548.9</ele>
<speed>1.2</speed>
<course>2.2</course>
<desc>Speed 1.2 km/h Distance 36.42 km</desc>
<time>2010-06-13T09:02:32.05</time>
<name>8592</name>
</trkpt>
<trkpt lat="49.183732" lon="11.849437">
<ele>549.5</ele>
<speed>2.3</speed>
<course>37.3</course>
<desc>Speed 2.3 km/h Distance 36.42 km</desc>
<time>2010-06-13T09:02:33.05</time>
<name>8593</name>
</trkpt>
<trkpt lat="49.183742" lon="11.849448">
<ele>549.9</ele>
<speed>2.9</speed>
<course>75.6</course>
<desc>Speed 2.9 km/h Distance 36.42 km</desc>
<time>2010-06-13T09:02:34.05</time>
<name>8594</name>
</trkpt>
<trkpt lat="49.183743" lon="11.849458">
<ele>552.1</ele>
<speed>2.1</speed>
<course>18.1</course>
<desc>Speed 2.1 km/h Distance 36.42 km</desc>
<time>2010-06-13T09:02:35.05</time>
<name>8595</name>
</trkpt>
<trkpt lat="49.183757" lon="11.849465">
<ele>552.1</ele>
<speed>4.1</speed>
<course>17.5</course>
<desc>Speed 4.1 km/h Distance 36.42 km</desc>
<time>2010-06-13T09:02:36.05</time>
<name>8596</name>
</trkpt>
<trkpt lat="49.183808" lon="11.849490">
<ele>555.6</ele>
<speed>2.8</speed>
<course>335.2</course>
<desc>Speed 2.8 km/h Distance 36.43 km</desc>
<time>2010-06-13T09:02:38.05</time>
<name>8597</name>
</trkpt>
<trkpt lat="49.183815" lon="11.849485">
<ele>555.6</ele>
<speed>3.1</speed>
<course>270.0</course>
<desc>Speed 3.1 km/h Distance 36.43 km</desc>
<time>2010-06-13T09:02:39.05</time>
<name>8598</name>
</trkpt>
<trkpt lat="49.183815" lon="11.849470">
<ele>555.6</ele>
<speed>5.0</speed>
<course>193.5</course>
<desc>Speed 5.0 km/h Distance 36.43 km</desc>
<time>2010-06-13T09:02:40.05</time>
<name>8599</name>
</trkpt>
<trkpt lat="49.183802" lon="11.849465">
<ele>555.6</ele>
<speed>4.6</speed>
<course>77.7</course>
<desc>Speed 4.6 km/h Distance 36.43 km</desc>
<time>2010-06-13T09:02:42.05</time>
<name>8600</name>
</trkpt>
<trkpt lat="49.183805" lon="11.849488">
<ele>555.6</ele>
<speed>6.2</speed>
<course>301.0</course>
<desc>Speed 6.2 km/h Distance 36.44 km</desc>
<time>2010-06-13T09:02:48.05</time>
<name>8601</name>
</trkpt>
<trkpt lat="49.183838" lon="11.849403">
<ele>555.6</ele>
<speed>8.2</speed>
<course>7.7</course>
<desc>Speed 8.2 km/h Distance 36.44 km</desc>
<time>2010-06-13T09:02:50.05</time>
<name>8602</name>
</trkpt>
<trkpt lat="49.183855" lon="11.849407">
<ele>555.6</ele>
<speed>7.8</speed>
<course>335.1</course>
<desc>Speed 7.8 km/h Distance 36.44 km</desc>
<time>2010-06-13T09:02:51.05</time>
<name>8603</name>
</trkpt>
<trkpt lat="49.183918" lon="11.849362">
<ele>555.6</ele>
<speed>7.6</speed>
<course>146.9</course>
<desc>Speed 7.6 km/h Distance 36.45 km</desc>
<time>2010-06-13T09:02:55.05</time>
<name>8604</name>
</trkpt>
<trkpt lat="49.183907" lon="11.849373">
<ele>555.6</ele>
<speed>4.5</speed>
<course>255.0</course>
<desc>Speed 4.5 km/h Distance 36.45 km</desc>
<time>2010-06-13T09:02:56.05</time>
<name>8605</name>
</trkpt>
<trkpt lat="49.183883" lon="11.849240">
<ele>555.6</ele>
<speed>5.1</speed>
<course>314.2</course>
<desc>Speed 5.1 km/h Distance 36.46 km</desc>
<time>2010-06-13T09:03:05.05</time>
<name>8606</name>
</trkpt>
<trkpt lat="49.183895" lon="11.849222">
<ele>555.9</ele>
<speed>2.7</speed>
<course>202.6</course>
<desc>Speed 2.7 km/h Distance 36.47 km</desc>
<time>2010-06-13T09:03:08.05</time>
<name>8607</name>
</trkpt>
<trkpt lat="49.183877" lon="11.849210">
<ele>555.9</ele>
<speed>4.0</speed>
<course>138.9</course>
<desc>Speed 4.0 km/h Distance 36.47 km</desc>
<time>2010-06-13T09:03:09.05</time>
<name>8608</name>
</trkpt>
<trkpt lat="49.183842" lon="11.849257">
<ele>554.5</ele>
<speed>2.1</speed>
<course>24.6</course>
<desc>Speed 2.1 km/h Distance 36.47 km</desc>
<time>2010-06-13T09:03:11.05</time>
<name>8609</name>
</trkpt>
<trkpt lat="49.183853" lon="11.849265">
<ele>556.9</ele>
<speed>2.3</speed>
<course>35.5</course>
<desc>Speed 2.3 km/h Distance 36.47 km</desc>
<time>2010-06-13T09:03:12.05</time>
<name>8610</name>
</trkpt>
<trkpt lat="49.183872" lon="11.849285">
<ele>553.7</ele>
<speed>3.0</speed>
<course>20.6</course>
<desc>Speed 3.0 km/h Distance 36.48 km</desc>
<time>2010-06-13T09:03:13.05</time>
<name>8611</name>
</trkpt>
<trkpt lat="49.183883" lon="11.849292">
<ele>555.7</ele>
<speed>2.7</speed>
<course>288.7</course>
<desc>Speed 2.7 km/h Distance 36.48 km</desc>
<time>2010-06-13T09:03:14.05</time>
<name>8612</name>
</trkpt>
<trkpt lat="49.183887" lon="11.849277">
<ele>555.0</ele>
<speed>2.2</speed>
<course>315.5</course>
<desc>Speed 2.2 km/h Distance 36.48 km</desc>
<time>2010-06-13T09:03:15.05</time>
<name>8613</name>
</trkpt>
<trkpt lat="49.183890" lon="11.849272">
<ele>556.3</ele>
<speed>2.2</speed>
<course>346.5</course>
<desc>Speed 2.2 km/h Distance 36.48 km</desc>
<time>2010-06-13T09:03:16.05</time>
<name>8614</name>
</trkpt>
<trkpt lat="49.183903" lon="11.849267">
<ele>557.6</ele>
<speed>2.6</speed>
<course>341.2</course>
<desc>Speed 2.6 km/h Distance 36.48 km</desc>
<time>2010-06-13T09:03:17.05</time>
<name>8615</name>
</trkpt>
<trkpt lat="49.183910" lon="11.849263">
<ele>558.7</ele>
<speed>2.1</speed>
<course>58.6</course>
<desc>Speed 2.1 km/h Distance 36.48 km</desc>
<time>2010-06-13T09:03:18.05</time>
<name>8616</name>
</trkpt>
<trkpt lat="49.183913" lon="11.849272">
<ele>559.2</ele>
<speed>1.8</speed>
<course>4.7</course>
<desc>Speed 1.8 km/h Distance 36.48 km</desc>
<time>2010-06-13T09:03:19.05</time>
<name>8617</name>
</trkpt>
<trkpt lat="49.183925" lon="11.849273">
<ele>559.1</ele>
<speed>0.8</speed>
<course>16.0</course>
<desc>Speed 0.8 km/h Distance 36.48 km</desc>
<time>2010-06-13T09:03:20.05</time>
<name>8618</name>
</trkpt>
<trkpt lat="49.183940" lon="11.849280">
<ele>559.5</ele>
<speed>1.1</speed>
<course>24.8</course>
<desc>Speed 1.1 km/h Distance 36.49 km</desc>
<time>2010-06-13T09:03:21.05</time>
<name>8619</name>
</trkpt>
<trkpt lat="49.183980" lon="11.849308">
<ele>560.8</ele>
<speed>3.9</speed>
<course>52.7</course>
<desc>Speed 3.9 km/h Distance 36.49 km</desc>
<time>2010-06-13T09:03:23.05</time>
<name>8620</name>
</trkpt>
<trkpt lat="49.183987" lon="11.849322">
<ele>560.1</ele>
<speed>3.8</speed>
<course>40.2</course>
<desc>Speed 3.8 km/h Distance 36.49 km</desc>
<time>2010-06-13T09:03:24.05</time>
<name>8621</name>
</trkpt>
<trkpt lat="49.183998" lon="11.849337">
<ele>559.3</ele>
<speed>3.5</speed>
<course>56.9</course>
<desc>Speed 3.5 km/h Distance 36.49 km</desc>
<time>2010-06-13T09:03:25.05</time>
<name>8622</name>
</trkpt>
<trkpt lat="49.184003" lon="11.849348">
<ele>561.2</ele>
<speed>2.1</speed>
<course>39.4</course>
<desc>Speed 2.1 km/h Distance 36.50 km</desc>
<time>2010-06-13T09:03:26.05</time>
<name>8623</name>
</trkpt>
<trkpt lat="49.184010" lon="11.849357">
<ele>563.7</ele>
<speed>2.8</speed>
<course>73.0</course>
<desc>Speed 2.8 km/h Distance 36.50 km</desc>
<time>2010-06-13T09:03:27.05</time>
<name>8624</name>
</trkpt>
<trkpt lat="49.184015" lon="11.849382">
<ele>562.6</ele>
<speed>2.2</speed>
<course>36.0</course>
<desc>Speed 2.2 km/h Distance 36.50 km</desc>
<time>2010-06-13T09:03:28.05</time>
<name>8625</name>
</trkpt>
<trkpt lat="49.184030" lon="11.849398">
<ele>563.4</ele>
<speed>4.5</speed>
<course>5.0</course>
<desc>Speed 4.5 km/h Distance 36.50 km</desc>
<time>2010-06-13T09:03:29.05</time>
<name>8626</name>
</trkpt>
<trkpt lat="49.184038" lon="11.849400">
<ele>561.7</ele>
<speed>4.0</speed>
<course>357.8</course>
<desc>Speed 4.0 km/h Distance 36.50 km</desc>
<time>2010-06-13T09:03:30.05</time>
<name>8627</name>
</trkpt>
<trkpt lat="49.184062" lon="11.849398">
<ele>561.3</ele>
<speed>3.9</speed>
<course>7.7</course>
<desc>Speed 3.9 km/h Distance 36.50 km</desc>
<time>2010-06-13T09:03:31.05</time>
<name>8628</name>
</trkpt>
<trkpt lat="49.184078" lon="11.849402">
<ele>560.5</ele>
<speed>2.7</speed>
<course>10.8</course>
<desc>Speed 2.7 km/h Distance 36.51 km</desc>
<time>2010-06-13T09:03:32.05</time>
<name>8629</name>
</trkpt>
<trkpt lat="49.184095" lon="11.849407">
<ele>560.9</ele>
<speed>3.0</speed>
<course>41.7</course>
<desc>Speed 3.0 km/h Distance 36.51 km</desc>
<time>2010-06-13T09:03:33.05</time>
<name>8630</name>
</trkpt>
<trkpt lat="49.184113" lon="11.849432">
<ele>563.0</ele>
<speed>3.1</speed>
<course>7.7</course>
<desc>Speed 3.1 km/h Distance 36.51 km</desc>
<time>2010-06-13T09:03:34.05</time>
<name>8631</name>
</trkpt>
<trkpt lat="49.184130" lon="11.849435">
<ele>564.1</ele>
<speed>2.0</speed>
<course>337.9</course>
<desc>Speed 2.0 km/h Distance 36.51 km</desc>
<time>2010-06-13T09:03:35.05</time>
<name>8632</name>
</trkpt>
<trkpt lat="49.184143" lon="11.849427">
<ele>563.7</ele>
<speed>1.1</speed>
<course>1.2</course>
<desc>Speed 1.1 km/h Distance 36.51 km</desc>
<time>2010-06-13T09:03:36.05</time>
<name>8633</name>
</trkpt>
<trkpt lat="49.184150" lon="11.849427">
<ele>563.4</ele>
<speed>1.9</speed>
<course>26.9</course>
<desc>Speed 1.9 km/h Distance 36.51 km</desc>
<time>2010-06-13T09:03:37.05</time>
<name>8634</name>
</trkpt>
<trkpt lat="49.184165" lon="11.849438">
<ele>563.8</ele>
<speed>2.8</speed>
<course>0.0</course>
<desc>Speed 2.8 km/h Distance 36.52 km</desc>
<time>2010-06-13T09:03:38.05</time>
<name>8635</name>
</trkpt>
<trkpt lat="49.184170" lon="11.849438">
<ele>564.0</ele>
<speed>1.8</speed>
<course>9.0</course>
<desc>Speed 1.8 km/h Distance 36.52 km</desc>
<time>2010-06-13T09:03:39.05</time>
<name>8636</name>
</trkpt>
<trkpt lat="49.184183" lon="11.849442">
<ele>565.9</ele>
<speed>0.8</speed>
<course>11.2</course>
<desc>Speed 0.8 km/h Distance 36.52 km</desc>
<time>2010-06-13T09:03:40.05</time>
<name>8637</name>
</trkpt>
<trkpt lat="49.184200" lon="11.849447">
<ele>567.4</ele>
<speed>2.1</speed>
<course>7.7</course>
<desc>Speed 2.1 km/h Distance 36.52 km</desc>
<time>2010-06-13T09:03:41.05</time>
<name>8638</name>
</trkpt>
<trkpt lat="49.184217" lon="11.849450">
<ele>567.8</ele>
<speed>2.9</speed>
<course>14.9</course>
<desc>Speed 2.9 km/h Distance 36.52 km</desc>
<time>2010-06-13T09:03:42.05</time>
<name>8639</name>
</trkpt>
<trkpt lat="49.184225" lon="11.849453">
<ele>568.3</ele>
<speed>1.2</speed>
<course>33.7</course>
<desc>Speed 1.2 km/h Distance 36.52 km</desc>
<time>2010-06-13T09:03:43.05</time>
<name>8640</name>
</trkpt>
<trkpt lat="49.184232" lon="11.849460">
<ele>565.7</ele>
<speed>2.6</speed>
<course>315.5</course>
<desc>Speed 2.6 km/h Distance 36.52 km</desc>
<time>2010-06-13T09:03:44.05</time>
<name>8641</name>
</trkpt>
<trkpt lat="49.184235" lon="11.849455">
<ele>565.3</ele>
<speed>3.6</speed>
<course>303.3</course>
<desc>Speed 3.6 km/h Distance 36.52 km</desc>
<time>2010-06-13T09:03:45.05</time>
<name>8642</name>
</trkpt>
<trkpt lat="49.184245" lon="11.849432">
<ele>564.4</ele>
<speed>4.9</speed>
<course>263.3</course>
<desc>Speed 4.9 km/h Distance 36.53 km</desc>
<time>2010-06-13T09:03:46.05</time>
<name>8643</name>
</trkpt>
<trkpt lat="49.184243" lon="11.849410">
<ele>564.6</ele>
<speed>4.6</speed>
<course>346.0</course>
<desc>Speed 4.6 km/h Distance 36.53 km</desc>
<time>2010-06-13T09:03:47.05</time>
<name>8644</name>
</trkpt>
<trkpt lat="49.184265" lon="11.849402">
<ele>565.0</ele>
<speed>4.4</speed>
<course>4.7</course>
<desc>Speed 4.4 km/h Distance 36.53 km</desc>
<time>2010-06-13T09:03:48.05</time>
<name>8645</name>
</trkpt>
<trkpt lat="49.184277" lon="11.849403">
<ele>565.4</ele>
<speed>3.2</speed>
<course>22.2</course>
<desc>Speed 3.2 km/h Distance 36.53 km</desc>
<time>2010-06-13T09:03:49.05</time>
<name>8646</name>
</trkpt>
<trkpt lat="49.184282" lon="11.849407">
<ele>564.9</ele>
<speed>0.8</speed>
<course>270.0</course>
<desc>Speed 0.8 km/h Distance 36.53 km</desc>
<time>2010-06-13T09:03:50.05</time>
<name>8647</name>
</trkpt>
<trkpt lat="49.184282" lon="11.849403">
<ele>565.8</ele>
<speed>1.5</speed>
<course>263.8</course>
<desc>Speed 1.5 km/h Distance 36.53 km</desc>
<time>2010-06-13T09:03:51.05</time>
<name>8648</name>
</trkpt>
<trkpt lat="49.184280" lon="11.849380">
<ele>565.5</ele>
<speed>2.1</speed>
<course>13.1</course>
<desc>Speed 2.1 km/h Distance 36.53 km</desc>
<time>2010-06-13T09:03:52.05</time>
<name>8649</name>
</trkpt>
<trkpt lat="49.184327" lon="11.849397">
<ele>565.2</ele>
<speed>2.5</speed>
<course>301.4</course>
<desc>Speed 2.5 km/h Distance 36.54 km</desc>
<time>2010-06-13T09:03:54.05</time>
<name>8650</name>
</trkpt>
<trkpt lat="49.184330" lon="11.849388">
<ele>566.5</ele>
<speed>0.8</speed>
<course>347.4</course>
<desc>Speed 0.8 km/h Distance 36.54 km</desc>
<time>2010-06-13T09:03:55.05</time>
<name>8651</name>
</trkpt>
<trkpt lat="49.184333" lon="11.849387">
<ele>566.2</ele>
<speed>0.5</speed>
<course>0.0</course>
<desc>Speed 0.5 km/h Distance 36.54 km</desc>
<time>2010-06-13T09:03:56.05</time>
<name>8652</name>
</trkpt>
<trkpt lat="49.184343" lon="11.849387">
<ele>566.1</ele>
<speed>0.7</speed>
<course>347.4</course>
<desc>Speed 0.7 km/h Distance 36.54 km</desc>
<time>2010-06-13T09:03:57.05</time>
<name>8653</name>
</trkpt>
<trkpt lat="49.184348" lon="11.849385">
<ele>565.5</ele>
<speed>1.1</speed>
<course>8.2</course>
<desc>Speed 1.1 km/h Distance 36.54 km</desc>
<time>2010-06-13T09:03:58.05</time>
<name>8654</name>
</trkpt>
<trkpt lat="49.184393" lon="11.849395">
<ele>566.0</ele>
<speed>2.5</speed>
<course>331.4</course>
<desc>Speed 2.5 km/h Distance 36.55 km</desc>
<time>2010-06-13T09:04:00.05</time>
<name>8655</name>
</trkpt>
<trkpt lat="49.184403" lon="11.849387">
<ele>565.8</ele>
<speed>0.9</speed>
<course>335.3</course>
<desc>Speed 0.9 km/h Distance 36.55 km</desc>
<time>2010-06-13T09:04:01.05</time>
<name>8656</name>
</trkpt>
<trkpt lat="49.184420" lon="11.849375">
<ele>565.3</ele>
<speed>1.9</speed>
<course>326.9</course>
<desc>Speed 1.9 km/h Distance 36.55 km</desc>
<time>2010-06-13T09:04:02.05</time>
<name>8657</name>
</trkpt>
<trkpt lat="49.184435" lon="11.849360">
<ele>566.4</ele>
<speed>3.6</speed>
<course>342.1</course>
<desc>Speed 3.6 km/h Distance 36.55 km</desc>
<time>2010-06-13T09:04:03.05</time>
<name>8658</name>
</trkpt>
<trkpt lat="49.184455" lon="11.849350">
<ele>567.1</ele>
<speed>3.7</speed>
<course>323.6</course>
<desc>Speed 3.7 km/h Distance 36.56 km</desc>
<time>2010-06-13T09:04:04.05</time>
<name>8659</name>
</trkpt>
<trkpt lat="49.184468" lon="11.849335">
<ele>567.8</ele>
<speed>2.2</speed>
<course>24.5</course>
<desc>Speed 2.2 km/h Distance 36.56 km</desc>
<time>2010-06-13T09:04:05.05</time>
<name>8660</name>
</trkpt>
<trkpt lat="49.184485" lon="11.849347">
<ele>567.5</ele>
<speed>1.5</speed>
<course>344.5</course>
<desc>Speed 1.5 km/h Distance 36.56 km</desc>
<time>2010-06-13T09:04:06.05</time>
<name>8661</name>
</trkpt>
<trkpt lat="49.184497" lon="11.849342">
<ele>566.4</ele>
<speed>2.8</speed>
<course>22.3</course>
<desc>Speed 2.8 km/h Distance 36.56 km</desc>
<time>2010-06-13T09:04:07.05</time>
<name>8662</name>
</trkpt>
<trkpt lat="49.184510" lon="11.849350">
<ele>567.3</ele>
<speed>2.8</speed>
<course>4.7</course>
<desc>Speed 2.8 km/h Distance 36.56 km</desc>
<time>2010-06-13T09:04:08.05</time>
<name>8663</name>
</trkpt>
<trkpt lat="49.184522" lon="11.849350">
<ele>567.4</ele>
<speed>3.0</speed>
<course>0.0</course>
<desc>Speed 3.0 km/h Distance 36.56 km</desc>
<time>2010-06-13T09:04:09.05</time>
<name>8664</name>
</trkpt>
<trkpt lat="49.184530" lon="11.849350">
<ele>567.1</ele>
<speed>3.6</speed>
<course>350.4</course>
<desc>Speed 3.6 km/h Distance 36.56 km</desc>
<time>2010-06-13T09:04:10.05</time>
<name>8665</name>
</trkpt>
<trkpt lat="49.184555" lon="11.849343">
<ele>566.5</ele>
<speed>3.6</speed>
<course>6.1</course>
<desc>Speed 3.6 km/h Distance 36.57 km</desc>
<time>2010-06-13T09:04:11.05</time>
<name>8666</name>
</trkpt>
<trkpt lat="49.184575" lon="11.849347">
<ele>565.3</ele>
<speed>3.6</speed>
<course>340.1</course>
<desc>Speed 3.6 km/h Distance 36.57 km</desc>
<time>2010-06-13T09:04:12.05</time>
<name>8667</name>
</trkpt>
<trkpt lat="49.184590" lon="11.849338">
<ele>565.1</ele>
<speed>3.3</speed>
<course>297.0</course>
<desc>Speed 3.3 km/h Distance 36.57 km</desc>
<time>2010-06-13T09:04:13.05</time>
<name>8668</name>
</trkpt>
<trkpt lat="49.184600" lon="11.849308">
<ele>566.0</ele>
<speed>5.0</speed>
<course>234.2</course>
<desc>Speed 5.0 km/h Distance 36.57 km</desc>
<time>2010-06-13T09:04:14.05</time>
<name>8669</name>
</trkpt>
<trkpt lat="49.184587" lon="11.849280">
<ele>566.5</ele>
<speed>3.8</speed>
<course>327.7</course>
<desc>Speed 3.8 km/h Distance 36.58 km</desc>
<time>2010-06-13T09:04:15.05</time>
<name>8670</name>
</trkpt>
<trkpt lat="49.184592" lon="11.849275">
<ele>565.8</ele>
<speed>2.7</speed>
<course>337.5</course>
<desc>Speed 2.7 km/h Distance 36.58 km</desc>
<time>2010-06-13T09:04:16.05</time>
<name>8671</name>
</trkpt>
<trkpt lat="49.184610" lon="11.849263">
<ele>565.0</ele>
<speed>4.7</speed>
<course>0.0</course>
<desc>Speed 4.7 km/h Distance 36.58 km</desc>
<time>2010-06-13T09:04:17.05</time>
<name>8672</name>
</trkpt>
<trkpt lat="49.184628" lon="11.849263">
<ele>564.1</ele>
<speed>3.3</speed>
<course>2.2</course>
<desc>Speed 3.3 km/h Distance 36.58 km</desc>
<time>2010-06-13T09:04:18.05</time>
<name>8673</name>
</trkpt>
<trkpt lat="49.184640" lon="11.849263">
<ele>563.7</ele>
<speed>4.0</speed>
<course>335.6</course>
<desc>Speed 4.0 km/h Distance 36.58 km</desc>
<time>2010-06-13T09:04:19.05</time>
<name>8674</name>
</trkpt>
<trkpt lat="49.184662" lon="11.849248">
<ele>563.0</ele>
<speed>4.1</speed>
<course>326.8</course>
<desc>Speed 4.1 km/h Distance 36.59 km</desc>
<time>2010-06-13T09:04:20.05</time>
<name>8675</name>
</trkpt>
<trkpt lat="49.184678" lon="11.849232">
<ele>563.2</ele>
<speed>4.6</speed>
<course>1.2</course>
<desc>Speed 4.6 km/h Distance 36.59 km</desc>
<time>2010-06-13T09:04:21.05</time>
<name>8676</name>
</trkpt>
<trkpt lat="49.184692" lon="11.849232">
<ele>563.2</ele>
<speed>4.4</speed>
<course>1.2</course>
<desc>Speed 4.4 km/h Distance 36.59 km</desc>
<time>2010-06-13T09:04:22.05</time>
<name>8677</name>
</trkpt>
<trkpt lat="49.184705" lon="11.849232">
<ele>563.0</ele>
<speed>2.2</speed>
<course>23.6</course>
<desc>Speed 2.2 km/h Distance 36.59 km</desc>
<time>2010-06-13T09:04:23.05</time>
<name>8678</name>
</trkpt>
<trkpt lat="49.184725" lon="11.849245">
<ele>561.3</ele>
<speed>2.3</speed>
<course>18.1</course>
<desc>Speed 2.3 km/h Distance 36.59 km</desc>
<time>2010-06-13T09:04:24.05</time>
<name>8679</name>
</trkpt>
<trkpt lat="49.184742" lon="11.849253">
<ele>559.7</ele>
<speed>2.8</speed>
<course>340.6</course>
<desc>Speed 2.8 km/h Distance 36.59 km</desc>
<time>2010-06-13T09:04:25.05</time>
<name>8680</name>
</trkpt>
<trkpt lat="49.184763" lon="11.849242">
<ele>560.1</ele>
<speed>4.6</speed>
<course>334.4</course>
<desc>Speed 4.6 km/h Distance 36.60 km</desc>
<time>2010-06-13T09:04:26.05</time>
<name>8681</name>
</trkpt>
<trkpt lat="49.184788" lon="11.849223">
<ele>562.4</ele>
<speed>3.4</speed>
<course>35.7</course>
<desc>Speed 3.4 km/h Distance 36.60 km</desc>
<time>2010-06-13T09:04:27.05</time>
<name>8682</name>
</trkpt>
<trkpt lat="49.184805" lon="11.849242">
<ele>563.6</ele>
<speed>2.8</speed>
<course>157.8</course>
<desc>Speed 2.8 km/h Distance 36.60 km</desc>
<time>2010-06-13T09:04:28.05</time>
<name>8683</name>
</trkpt>
<trkpt lat="49.184800" lon="11.849245">
<ele>561.7</ele>
<speed>2.2</speed>
<course>128.1</course>
<desc>Speed 2.2 km/h Distance 36.60 km</desc>
<time>2010-06-13T09:04:29.05</time>
<name>8684</name>
</trkpt>
<trkpt lat="49.184798" lon="11.849248">
<ele>564.5</ele>
<speed>2.0</speed>
<course>315.6</course>
<desc>Speed 2.0 km/h Distance 36.60 km</desc>
<time>2010-06-13T09:04:30.05</time>
<name>8685</name>
</trkpt>
<trkpt lat="49.184812" lon="11.849228">
<ele>564.7</ele>
<speed>4.4</speed>
<course>2.7</course>
<desc>Speed 4.4 km/h Distance 36.61 km</desc>
<time>2010-06-13T09:04:31.05</time>
<name>8686</name>
</trkpt>
<trkpt lat="49.184832" lon="11.849230">
<ele>565.9</ele>
<speed>4.1</speed>
<course>349.6</course>
<desc>Speed 4.1 km/h Distance 36.61 km</desc>
<time>2010-06-13T09:04:32.05</time>
<name>8687</name>
</trkpt>
<trkpt lat="49.184848" lon="11.849225">
<ele>566.0</ele>
<speed>3.7</speed>
<course>356.1</course>
<desc>Speed 3.7 km/h Distance 36.61 km</desc>
<time>2010-06-13T09:04:33.05</time>
<name>8688</name>
</trkpt>
<trkpt lat="49.184862" lon="11.849223">
<ele>566.4</ele>
<speed>4.4</speed>
<course>33.3</course>
<desc>Speed 4.4 km/h Distance 36.61 km</desc>
<time>2010-06-13T09:04:34.05</time>
<name>8689</name>
</trkpt>
<trkpt lat="49.184873" lon="11.849235">
<ele>567.6</ele>
<speed>3.9</speed>
<course>45.5</course>
<desc>Speed 3.9 km/h Distance 36.61 km</desc>
<time>2010-06-13T09:04:35.05</time>
<name>8690</name>
</trkpt>
<trkpt lat="49.184888" lon="11.849258">
<ele>568.6</ele>
<speed>3.0</speed>
<course>249.0</course>
<desc>Speed 3.0 km/h Distance 36.62 km</desc>
<time>2010-06-13T09:04:36.05</time>
<name>8691</name>
</trkpt>
<trkpt lat="49.184885" lon="11.849245">
<ele>570.5</ele>
<speed>2.7</speed>
<course>319.8</course>
<desc>Speed 2.7 km/h Distance 36.62 km</desc>
<time>2010-06-13T09:04:37.05</time>
<name>8692</name>
</trkpt>
<trkpt lat="49.184897" lon="11.849230">
<ele>573.2</ele>
<speed>4.1</speed>
<course>13.5</course>
<desc>Speed 4.1 km/h Distance 36.62 km</desc>
<time>2010-06-13T09:04:38.05</time>
<name>8693</name>
</trkpt>
<trkpt lat="49.184910" lon="11.849235">
<ele>571.0</ele>
<speed>2.4</speed>
<course>90.0</course>
<desc>Speed 2.4 km/h Distance 36.62 km</desc>
<time>2010-06-13T09:04:39.05</time>
<name>8694</name>
</trkpt>
<trkpt lat="49.184910" lon="11.849240">
<ele>570.0</ele>
<speed>2.0</speed>
<course>100.8</course>
<desc>Speed 2.0 km/h Distance 36.62 km</desc>
<time>2010-06-13T09:04:40.05</time>
<name>8695</name>
</trkpt>
<trkpt lat="49.184908" lon="11.849253">
<ele>567.7</ele>
<speed>0.8</speed>
<course>297.4</course>
<desc>Speed 0.8 km/h Distance 36.62 km</desc>
<time>2010-06-13T09:04:41.05</time>
<name>8696</name>
</trkpt>
<trkpt lat="49.184910" lon="11.849248">
<ele>565.6</ele>
<speed>0.9</speed>
<course>4.8</course>
<desc>Speed 0.9 km/h Distance 36.62 km</desc>
<time>2010-06-13T09:04:42.05</time>
<name>8697</name>
</trkpt>
<trkpt lat="49.184948" lon="11.849253">
<ele>562.2</ele>
<speed>4.6</speed>
<course>7.8</course>
<desc>Speed 4.6 km/h Distance 36.63 km</desc>
<time>2010-06-13T09:04:44.05</time>
<name>8698</name>
</trkpt>
<trkpt lat="49.184972" lon="11.849258">
<ele>562.0</ele>
<speed>4.6</speed>
<course>352.3</course>
<desc>Speed 4.6 km/h Distance 36.63 km</desc>
<time>2010-06-13T09:04:45.05</time>
<name>8699</name>
</trkpt>
<trkpt lat="49.184988" lon="11.849255">
<ele>561.0</ele>
<speed>5.1</speed>
<course>326.8</course>
<desc>Speed 5.1 km/h Distance 36.63 km</desc>
<time>2010-06-13T09:04:46.05</time>
<name>8700</name>
</trkpt>
<trkpt lat="49.184998" lon="11.849245">
<ele>561.5</ele>
<speed>3.0</speed>
<course>211.6</course>
<desc>Speed 3.0 km/h Distance 36.63 km</desc>
<time>2010-06-13T09:04:47.05</time>
<name>8701</name>
</trkpt>
<trkpt lat="49.184995" lon="11.849242">
<ele>563.0</ele>
<speed>2.6</speed>
<course>6.6</course>
<desc>Speed 2.6 km/h Distance 36.63 km</desc>
<time>2010-06-13T09:04:48.05</time>
<name>8702</name>
</trkpt>
<trkpt lat="49.185015" lon="11.849245">
<ele>561.6</ele>
<speed>2.5</speed>
<course>353.4</course>
<desc>Speed 2.5 km/h Distance 36.63 km</desc>
<time>2010-06-13T09:04:49.05</time>
<name>8703</name>
</trkpt>
<trkpt lat="49.185025" lon="11.849243">
<ele>561.4</ele>
<speed>1.8</speed>
<course>1.2</course>
<desc>Speed 1.8 km/h Distance 36.64 km</desc>
<time>2010-06-13T09:04:50.05</time>
<name>8704</name>
</trkpt>
<trkpt lat="49.185065" lon="11.849245">
<ele>555.1</ele>
<speed>2.6</speed>
<course>326.8</course>
<desc>Speed 2.6 km/h Distance 36.64 km</desc>
<time>2010-06-13T09:04:52.05</time>
<name>8705</name>
</trkpt>
<trkpt lat="49.185073" lon="11.849237">
<ele>553.5</ele>
<speed>3.0</speed>
<course>354.7</course>
<desc>Speed 3.0 km/h Distance 36.64 km</desc>
<time>2010-06-13T09:04:53.05</time>
<name>8706</name>
</trkpt>
<trkpt lat="49.185087" lon="11.849235">
<ele>551.1</ele>
<speed>3.1</speed>
<course>351.9</course>
<desc>Speed 3.1 km/h Distance 36.64 km</desc>
<time>2010-06-13T09:04:54.05</time>
<name>8707</name>
</trkpt>
<trkpt lat="49.185102" lon="11.849232">
<ele>549.4</ele>
<speed>4.3</speed>
<course>4.1</course>
<desc>Speed 4.3 km/h Distance 36.64 km</desc>
<time>2010-06-13T09:04:55.05</time>
<name>8708</name>
</trkpt>
<trkpt lat="49.185118" lon="11.849233">
<ele>547.4</ele>
<speed>4.9</speed>
<course>354.5</course>
<desc>Speed 4.9 km/h Distance 36.65 km</desc>
<time>2010-06-13T09:04:56.05</time>
<name>8709</name>
</trkpt>
<trkpt lat="49.185140" lon="11.849230">
<ele>545.4</ele>
<speed>7.2</speed>
<course>354.4</course>
<desc>Speed 7.2 km/h Distance 36.65 km</desc>
<time>2010-06-13T09:04:57.05</time>
<name>8710</name>
</trkpt>
<trkpt lat="49.185163" lon="11.849227">
<ele>543.7</ele>
<speed>6.8</speed>
<course>326.7</course>
<desc>Speed 6.8 km/h Distance 36.65 km</desc>
<time>2010-06-13T09:04:58.05</time>
<name>8711</name>
</trkpt>
<trkpt lat="49.185178" lon="11.849212">
<ele>541.7</ele>
<speed>6.1</speed>
<course>333.8</course>
<desc>Speed 6.1 km/h Distance 36.65 km</desc>
<time>2010-06-13T09:04:59.05</time>
<name>8712</name>
</trkpt>
<trkpt lat="49.185205" lon="11.849192">
<ele>540.0</ele>
<speed>8.9</speed>
<course>341.9</course>
<desc>Speed 8.9 km/h Distance 36.66 km</desc>
<time>2010-06-13T09:05:00.05</time>
<name>8713</name>
</trkpt>
<trkpt lat="49.185242" lon="11.849173">
<ele>537.9</ele>
<speed>11.1</speed>
<course>325.5</course>
<desc>Speed 11.1 km/h Distance 36.66 km</desc>
<time>2010-06-13T09:05:01.05</time>
<name>8714</name>
</trkpt>
<trkpt lat="49.185273" lon="11.849140">
<ele>536.5</ele>
<speed>12.0</speed>
<course>335.0</course>
<desc>Speed 12.0 km/h Distance 36.66 km</desc>
<time>2010-06-13T09:05:02.05</time>
<name>8715</name>
</trkpt>
<trkpt lat="49.185308" lon="11.849115">
<ele>535.4</ele>
<speed>10.5</speed>
<course>341.9</course>
<desc>Speed 10.5 km/h Distance 36.67 km</desc>
<time>2010-06-13T09:05:03.05</time>
<name>8716</name>
</trkpt>
<trkpt lat="49.185342" lon="11.849098">
<ele>534.9</ele>
<speed>8.5</speed>
<course>339.3</course>
<desc>Speed 8.5 km/h Distance 36.67 km</desc>
<time>2010-06-13T09:05:04.05</time>
<name>8717</name>
</trkpt>
<trkpt lat="49.185373" lon="11.849080">
<ele>533.6</ele>
<speed>9.3</speed>
<course>319.4</course>
<desc>Speed 9.3 km/h Distance 36.68 km</desc>
<time>2010-06-13T09:05:05.05</time>
<name>8718</name>
</trkpt>
<trkpt lat="49.185400" lon="11.849045">
<ele>532.3</ele>
<speed>10.0</speed>
<course>338.8</course>
<desc>Speed 10.0 km/h Distance 36.68 km</desc>
<time>2010-06-13T09:05:06.05</time>
<name>8719</name>
</trkpt>
<trkpt lat="49.185482" lon="11.848997">
<ele>533.1</ele>
<speed>11.8</speed>
<course>347.2</course>
<desc>Speed 11.8 km/h Distance 36.69 km</desc>
<time>2010-06-13T09:05:08.05</time>
<name>8720</name>
</trkpt>
<trkpt lat="49.185520" lon="11.848983">
<ele>531.3</ele>
<speed>12.3</speed>
<course>349.4</course>
<desc>Speed 12.3 km/h Distance 36.69 km</desc>
<time>2010-06-13T09:05:09.05</time>
<name>8721</name>
</trkpt>
<trkpt lat="49.185567" lon="11.848970">
<ele>530.7</ele>
<speed>13.9</speed>
<course>348.6</course>
<desc>Speed 13.9 km/h Distance 36.70 km</desc>
<time>2010-06-13T09:05:10.05</time>
<name>8722</name>
</trkpt>
<trkpt lat="49.185610" lon="11.848957">
<ele>530.2</ele>
<speed>13.5</speed>
<course>328.2</course>
<desc>Speed 13.5 km/h Distance 36.70 km</desc>
<time>2010-06-13T09:05:11.05</time>
<name>8723</name>
</trkpt>
<trkpt lat="49.185642" lon="11.848927">
<ele>528.1</ele>
<speed>12.2</speed>
<course>321.1</course>
<desc>Speed 12.2 km/h Distance 36.71 km</desc>
<time>2010-06-13T09:05:12.05</time>
<name>8724</name>
</trkpt>
<trkpt lat="49.185670" lon="11.848892">
<ele>525.8</ele>
<speed>9.4</speed>
<course>305.9</course>
<desc>Speed 9.4 km/h Distance 36.71 km</desc>
<time>2010-06-13T09:05:13.05</time>
<name>8725</name>
</trkpt>
<trkpt lat="49.185685" lon="11.848860">
<ele>523.7</ele>
<speed>8.4</speed>
<course>316.4</course>
<desc>Speed 8.4 km/h Distance 36.72 km</desc>
<time>2010-06-13T09:05:14.05</time>
<name>8726</name>
</trkpt>
<trkpt lat="49.185703" lon="11.848833">
<ele>521.1</ele>
<speed>5.5</speed>
<course>331.3</course>
<desc>Speed 5.5 km/h Distance 36.72 km</desc>
<time>2010-06-13T09:05:15.05</time>
<name>8727</name>
</trkpt>
<trkpt lat="49.185723" lon="11.848817">
<ele>520.1</ele>
<speed>6.2</speed>
<course>304.2</course>
<desc>Speed 6.2 km/h Distance 36.72 km</desc>
<time>2010-06-13T09:05:16.05</time>
<name>8728</name>
</trkpt>
<trkpt lat="49.185737" lon="11.848787">
<ele>519.0</ele>
<speed>4.7</speed>
<course>336.4</course>
<desc>Speed 4.7 km/h Distance 36.72 km</desc>
<time>2010-06-13T09:05:17.05</time>
<name>8729</name>
</trkpt>
<trkpt lat="49.185757" lon="11.848773">
<ele>518.9</ele>
<speed>3.4</speed>
<course>354.4</course>
<desc>Speed 3.4 km/h Distance 36.73 km</desc>
<time>2010-06-13T09:05:18.05</time>
<name>8730</name>
</trkpt>
<trkpt lat="49.185780" lon="11.848770">
<ele>518.8</ele>
<speed>4.9</speed>
<course>0.0</course>
<desc>Speed 4.9 km/h Distance 36.73 km</desc>
<time>2010-06-13T09:05:19.05</time>
<name>8731</name>
</trkpt>
<trkpt lat="49.185802" lon="11.848770">
<ele>519.1</ele>
<speed>3.5</speed>
<course>8.0</course>
<desc>Speed 3.5 km/h Distance 36.73 km</desc>
<time>2010-06-13T09:05:20.05</time>
<name>8732</name>
</trkpt>
<trkpt lat="49.185863" lon="11.848783">
<ele>518.6</ele>
<speed>6.5</speed>
<course>353.2</course>
<desc>Speed 6.5 km/h Distance 36.74 km</desc>
<time>2010-06-13T09:05:22.05</time>
<name>8733</name>
</trkpt>
<trkpt lat="49.185937" lon="11.848770">
<ele>518.5</ele>
<speed>8.2</speed>
<course>1.5</course>
<desc>Speed 8.2 km/h Distance 36.75 km</desc>
<time>2010-06-13T09:05:24.05</time>
<name>8734</name>
</trkpt>
<trkpt lat="49.186017" lon="11.848773">
<ele>522.4</ele>
<speed>9.4</speed>
<course>0.0</course>
<desc>Speed 9.4 km/h Distance 36.76 km</desc>
<time>2010-06-13T09:05:26.05</time>
<name>8735</name>
</trkpt>
<trkpt lat="49.186098" lon="11.848773">
<ele>526.6</ele>
<speed>8.8</speed>
<course>4.8</course>
<desc>Speed 8.8 km/h Distance 36.76 km</desc>
<time>2010-06-13T09:05:28.05</time>
<name>8736</name>
</trkpt>
<trkpt lat="49.186137" lon="11.848778">
<ele>526.1</ele>
<speed>8.1</speed>
<course>351.1</course>
<desc>Speed 8.1 km/h Distance 36.77 km</desc>
<time>2010-06-13T09:05:29.05</time>
<name>8737</name>
</trkpt>
<trkpt lat="49.186172" lon="11.848770">
<ele>525.5</ele>
<speed>6.7</speed>
<course>0.0</course>
<desc>Speed 6.7 km/h Distance 36.77 km</desc>
<time>2010-06-13T09:05:30.05</time>
<name>8738</name>
</trkpt>
<trkpt lat="49.186202" lon="11.848770">
<ele>525.0</ele>
<speed>4.8</speed>
<course>4.3</course>
<desc>Speed 4.8 km/h Distance 36.78 km</desc>
<time>2010-06-13T09:05:31.05</time>
<name>8739</name>
</trkpt>
<trkpt lat="49.186228" lon="11.848773">
<ele>524.3</ele>
<speed>4.3</speed>
<course>354.5</course>
<desc>Speed 4.3 km/h Distance 36.78 km</desc>
<time>2010-06-13T09:05:32.05</time>
<name>8740</name>
</trkpt>
<trkpt lat="49.186250" lon="11.848770">
<ele>524.0</ele>
<speed>3.8</speed>
<course>0.6</course>
<desc>Speed 3.8 km/h Distance 36.78 km</desc>
<time>2010-06-13T09:05:33.05</time>
<name>8741</name>
</trkpt>
<trkpt lat="49.186273" lon="11.848770">
<ele>524.8</ele>
<speed>4.3</speed>
<course>350.8</course>
<desc>Speed 4.3 km/h Distance 36.78 km</desc>
<time>2010-06-13T09:05:34.05</time>
<name>8742</name>
</trkpt>
<trkpt lat="49.186300" lon="11.848763">
<ele>526.3</ele>
<speed>7.0</speed>
<course>352.8</course>
<desc>Speed 7.0 km/h Distance 36.79 km</desc>
<time>2010-06-13T09:05:35.05</time>
<name>8743</name>
</trkpt>
<trkpt lat="49.186335" lon="11.848757">
<ele>527.6</ele>
<speed>8.9</speed>
<course>0.0</course>
<desc>Speed 8.9 km/h Distance 36.79 km</desc>
<time>2010-06-13T09:05:36.05</time>
<name>8744</name>
</trkpt>
<trkpt lat="49.186368" lon="11.848757">
<ele>529.3</ele>
<speed>7.5</speed>
<course>13.6</course>
<desc>Speed 7.5 km/h Distance 36.79 km</desc>
<time>2010-06-13T09:05:37.05</time>
<name>8745</name>
</trkpt>
<trkpt lat="49.186400" lon="11.848768">
<ele>529.0</ele>
<speed>6.8</speed>
<course>14.2</course>
<desc>Speed 6.8 km/h Distance 36.80 km</desc>
<time>2010-06-13T09:05:38.05</time>
<name>8746</name>
</trkpt>
<trkpt lat="49.186430" lon="11.848780">
<ele>529.6</ele>
<speed>6.8</speed>
<course>11.0</course>
<desc>Speed 6.8 km/h Distance 36.80 km</desc>
<time>2010-06-13T09:05:39.05</time>
<name>8747</name>
</trkpt>
<trkpt lat="49.186463" lon="11.848790">
<ele>529.6</ele>
<speed>6.3</speed>
<course>1.8</course>
<desc>Speed 6.3 km/h Distance 36.81 km</desc>
<time>2010-06-13T09:05:40.05</time>
<name>8748</name>
</trkpt>
<trkpt lat="49.186532" lon="11.848793">
<ele>530.7</ele>
<speed>8.4</speed>
<course>349.9</course>
<desc>Speed 8.4 km/h Distance 36.81 km</desc>
<time>2010-06-13T09:05:42.05</time>
<name>8749</name>
</trkpt>
<trkpt lat="49.186562" lon="11.848785">
<ele>532.4</ele>
<speed>8.4</speed>
<course>339.0</course>
<desc>Speed 8.4 km/h Distance 36.82 km</desc>
<time>2010-06-13T09:05:43.05</time>
<name>8750</name>
</trkpt>
<trkpt lat="49.186590" lon="11.848768">
<ele>531.4</ele>
<speed>9.3</speed>
<course>353.0</course>
<desc>Speed 9.3 km/h Distance 36.82 km</desc>
<time>2010-06-13T09:05:44.05</time>
<name>8751</name>
</trkpt>
<trkpt lat="49.186625" lon="11.848762">
<ele>530.4</ele>
<speed>7.9</speed>
<course>348.5</course>
<desc>Speed 7.9 km/h Distance 36.82 km</desc>
<time>2010-06-13T09:05:45.05</time>
<name>8752</name>
</trkpt>
<trkpt lat="49.186652" lon="11.848753">
<ele>529.4</ele>
<speed>6.2</speed>
<course>350.0</course>
<desc>Speed 6.2 km/h Distance 36.83 km</desc>
<time>2010-06-13T09:05:46.05</time>
<name>8753</name>
</trkpt>
<trkpt lat="49.186677" lon="11.848747">
<ele>530.9</ele>
<speed>5.6</speed>
<course>4.3</course>
<desc>Speed 5.6 km/h Distance 36.83 km</desc>
<time>2010-06-13T09:05:47.05</time>
<name>8754</name>
</trkpt>
<trkpt lat="49.186703" lon="11.848750">
<ele>533.5</ele>
<speed>4.5</speed>
<course>356.8</course>
<desc>Speed 4.5 km/h Distance 36.83 km</desc>
<time>2010-06-13T09:05:48.05</time>
<name>8755</name>
</trkpt>
<trkpt lat="49.186725" lon="11.848748">
<ele>533.4</ele>
<speed>4.0</speed>
<course>2.9</course>
<desc>Speed 4.0 km/h Distance 36.84 km</desc>
<time>2010-06-13T09:05:49.05</time>
<name>8756</name>
</trkpt>
<trkpt lat="49.186752" lon="11.848750">
<ele>534.1</ele>
<speed>5.5</speed>
<course>18.1</course>
<desc>Speed 5.5 km/h Distance 36.84 km</desc>
<time>2010-06-13T09:05:50.05</time>
<name>8757</name>
</trkpt>
<trkpt lat="49.186782" lon="11.848765">
<ele>533.1</ele>
<speed>5.5</speed>
<course>348.6</course>
<desc>Speed 5.5 km/h Distance 36.84 km</desc>
<time>2010-06-13T09:05:51.05</time>
<name>8758</name>
</trkpt>
<trkpt lat="49.186803" lon="11.848758">
<ele>532.3</ele>
<speed>3.9</speed>
<course>340.3</course>
<desc>Speed 3.9 km/h Distance 36.84 km</desc>
<time>2010-06-13T09:05:52.05</time>
<name>8759</name>
</trkpt>
<trkpt lat="49.186822" lon="11.848748">
<ele>532.1</ele>
<speed>4.2</speed>
<course>324.7</course>
<desc>Speed 4.2 km/h Distance 36.85 km</desc>
<time>2010-06-13T09:05:53.05</time>
<name>8760</name>
</trkpt>
<trkpt lat="49.186842" lon="11.848727">
<ele>532.6</ele>
<speed>8.0</speed>
<course>315.6</course>
<desc>Speed 8.0 km/h Distance 36.85 km</desc>
<time>2010-06-13T09:05:54.05</time>
<name>8761</name>
</trkpt>
<trkpt lat="49.186865" lon="11.848692">
<ele>532.3</ele>
<speed>10.2</speed>
<course>321.9</course>
<desc>Speed 10.2 km/h Distance 36.85 km</desc>
<time>2010-06-13T09:05:55.05</time>
<name>8762</name>
</trkpt>
<trkpt lat="49.186890" lon="11.848662">
<ele>532.9</ele>
<speed>9.8</speed>
<course>330.8</course>
<desc>Speed 9.8 km/h Distance 36.86 km</desc>
<time>2010-06-13T09:05:56.05</time>
<name>8763</name>
</trkpt>
<trkpt lat="49.186913" lon="11.848642">
<ele>533.0</ele>
<speed>6.9</speed>
<course>322.7</course>
<desc>Speed 6.9 km/h Distance 36.86 km</desc>
<time>2010-06-13T09:05:57.05</time>
<name>8764</name>
</trkpt>
<trkpt lat="49.186933" lon="11.848618">
<ele>532.2</ele>
<speed>5.7</speed>
<course>324.1</course>
<desc>Speed 5.7 km/h Distance 36.86 km</desc>
<time>2010-06-13T09:05:58.05</time>
<name>8765</name>
</trkpt>
<trkpt lat="49.187073" lon="11.848463">
<ele>522.0</ele>
<speed>10.2</speed>
<course>310.3</course>
<desc>Speed 10.2 km/h Distance 36.88 km</desc>
<time>2010-06-13T09:06:01.05</time>
<name>8766</name>
</trkpt>
<trkpt lat="49.187133" lon="11.848355">
<ele>520.3</ele>
<speed>6.1</speed>
<course>329.3</course>
<desc>Speed 6.1 km/h Distance 36.89 km</desc>
<time>2010-06-13T09:06:03.05</time>
<name>8767</name>
</trkpt>
<trkpt lat="49.187188" lon="11.848305">
<ele>520.1</ele>
<speed>4.0</speed>
<course>323.8</course>
<desc>Speed 4.0 km/h Distance 36.90 km</desc>
<time>2010-06-13T09:06:05.05</time>
<name>8768</name>
</trkpt>
<trkpt lat="49.187202" lon="11.848290">
<ele>518.4</ele>
<speed>3.3</speed>
<course>337.4</course>
<desc>Speed 3.3 km/h Distance 36.90 km</desc>
<time>2010-06-13T09:06:06.05</time>
<name>8769</name>
</trkpt>
<trkpt lat="49.187220" lon="11.848278">
<ele>519.2</ele>
<speed>4.0</speed>
<course>344.7</course>
<desc>Speed 4.0 km/h Distance 36.90 km</desc>
<time>2010-06-13T09:06:07.05</time>
<name>8770</name>
</trkpt>
<trkpt lat="49.187240" lon="11.848270">
<ele>519.6</ele>
<speed>3.7</speed>
<course>338.5</course>
<desc>Speed 3.7 km/h Distance 36.90 km</desc>
<time>2010-06-13T09:06:08.05</time>
<name>8771</name>
</trkpt>
<trkpt lat="49.187257" lon="11.848260">
<ele>518.5</ele>
<speed>2.9</speed>
<course>340.3</course>
<desc>Speed 2.9 km/h Distance 36.91 km</desc>
<time>2010-06-13T09:06:09.05</time>
<name>8772</name>
</trkpt>
<trkpt lat="49.187275" lon="11.848250">
<ele>517.1</ele>
<speed>3.0</speed>
<course>334.5</course>
<desc>Speed 3.0 km/h Distance 36.91 km</desc>
<time>2010-06-13T09:06:10.05</time>
<name>8773</name>
</trkpt>
<trkpt lat="49.187293" lon="11.848237">
<ele>515.8</ele>
<speed>2.1</speed>
<course>351.3</course>
<desc>Speed 2.1 km/h Distance 36.91 km</desc>
<time>2010-06-13T09:06:11.05</time>
<name>8774</name>
</trkpt>
<trkpt lat="49.187315" lon="11.848232">
<ele>515.8</ele>
<speed>3.1</speed>
<course>9.5</course>
<desc>Speed 3.1 km/h Distance 36.91 km</desc>
<time>2010-06-13T09:06:12.05</time>
<name>8775</name>
</trkpt>
<trkpt lat="49.187335" lon="11.848237">
<ele>514.2</ele>
<speed>4.8</speed>
<course>357.5</course>
<desc>Speed 4.8 km/h Distance 36.92 km</desc>
<time>2010-06-13T09:06:13.05</time>
<name>8776</name>
</trkpt>
<trkpt lat="49.187353" lon="11.848235">
<ele>515.4</ele>
<speed>3.0</speed>
<course>354.0</course>
<desc>Speed 3.0 km/h Distance 36.92 km</desc>
<time>2010-06-13T09:06:14.05</time>
<name>8777</name>
</trkpt>
<trkpt lat="49.187405" lon="11.848227">
<ele>515.7</ele>
<speed>6.5</speed>
<course>324.7</course>
<desc>Speed 6.5 km/h Distance 36.92 km</desc>
<time>2010-06-13T09:06:16.05</time>
<name>8778</name>
</trkpt>
<trkpt lat="49.187425" lon="11.848205">
<ele>515.8</ele>
<speed>7.1</speed>
<course>304.2</course>
<desc>Speed 7.1 km/h Distance 36.93 km</desc>
<time>2010-06-13T09:06:17.05</time>
<name>8779</name>
</trkpt>
<trkpt lat="49.187438" lon="11.848175">
<ele>515.5</ele>
<speed>6.4</speed>
<course>323.0</course>
<desc>Speed 6.4 km/h Distance 36.93 km</desc>
<time>2010-06-13T09:06:18.05</time>
<name>8780</name>
</trkpt>
<trkpt lat="49.187460" lon="11.848150">
<ele>515.0</ele>
<speed>7.6</speed>
<course>335.9</course>
<desc>Speed 7.6 km/h Distance 36.93 km</desc>
<time>2010-06-13T09:06:19.05</time>
<name>8781</name>
</trkpt>
<trkpt lat="49.187492" lon="11.848128">
<ele>514.7</ele>
<speed>11.2</speed>
<course>326.8</course>
<desc>Speed 11.2 km/h Distance 36.94 km</desc>
<time>2010-06-13T09:06:20.05</time>
<name>8782</name>
</trkpt>
<trkpt lat="49.187518" lon="11.848102">
<ele>515.0</ele>
<speed>10.5</speed>
<course>346.7</course>
<desc>Speed 10.5 km/h Distance 36.94 km</desc>
<time>2010-06-13T09:06:21.05</time>
<name>8783</name>
</trkpt>
<trkpt lat="49.187555" lon="11.848088">
<ele>515.5</ele>
<speed>10.3</speed>
<course>325.3</course>
<desc>Speed 10.3 km/h Distance 36.94 km</desc>
<time>2010-06-13T09:06:22.05</time>
<name>8784</name>
</trkpt>
<trkpt lat="49.187583" lon="11.848058">
<ele>516.7</ele>
<speed>8.6</speed>
<course>342.8</course>
<desc>Speed 8.6 km/h Distance 36.95 km</desc>
<time>2010-06-13T09:06:23.05</time>
<name>8785</name>
</trkpt>
<trkpt lat="49.187615" lon="11.848043">
<ele>518.0</ele>
<speed>9.9</speed>
<course>326.8</course>
<desc>Speed 9.9 km/h Distance 36.95 km</desc>
<time>2010-06-13T09:06:24.05</time>
<name>8786</name>
</trkpt>
<trkpt lat="49.187640" lon="11.848018">
<ele>520.1</ele>
<speed>8.2</speed>
<course>336.1</course>
<desc>Speed 8.2 km/h Distance 36.95 km</desc>
<time>2010-06-13T09:06:25.05</time>
<name>8787</name>
</trkpt>
<trkpt lat="49.187738" lon="11.847952">
<ele>516.8</ele>
<speed>9.4</speed>
<course>346.0</course>
<desc>Speed 9.4 km/h Distance 36.97 km</desc>
<time>2010-06-13T09:06:27.05</time>
<name>8788</name>
</trkpt>
<trkpt lat="49.187773" lon="11.847938">
<ele>517.4</ele>
<speed>11.2</speed>
<course>354.5</course>
<desc>Speed 11.2 km/h Distance 36.97 km</desc>
<time>2010-06-13T09:06:28.05</time>
<name>8789</name>
</trkpt>
<trkpt lat="49.187808" lon="11.847933">
<ele>517.3</ele>
<speed>11.1</speed>
<course>10.2</course>
<desc>Speed 11.1 km/h Distance 36.97 km</desc>
<time>2010-06-13T09:06:29.05</time>
<name>8790</name>
</trkpt>
<trkpt lat="49.187845" lon="11.847943">
<ele>518.1</ele>
<speed>9.4</speed>
<course>0.9</course>
<desc>Speed 9.4 km/h Distance 36.98 km</desc>
<time>2010-06-13T09:06:30.05</time>
<name>8791</name>
</trkpt>
<trkpt lat="49.187875" lon="11.847943">
<ele>518.8</ele>
<speed>9.3</speed>
<course>24.5</course>
<desc>Speed 9.3 km/h Distance 36.98 km</desc>
<time>2010-06-13T09:06:31.05</time>
<name>8792</name>
</trkpt>
<trkpt lat="49.187908" lon="11.847967">
<ele>518.7</ele>
<speed>10.6</speed>
<course>21.1</course>
<desc>Speed 10.6 km/h Distance 36.99 km</desc>
<time>2010-06-13T09:06:32.05</time>
<name>8793</name>
</trkpt>
<trkpt lat="49.187945" lon="11.847988">
<ele>519.4</ele>
<speed>9.5</speed>
<course>25.3</course>
<desc>Speed 9.5 km/h Distance 36.99 km</desc>
<time>2010-06-13T09:06:33.05</time>
<name>8794</name>
</trkpt>
<trkpt lat="49.187975" lon="11.848010">
<ele>519.6</ele>
<speed>9.8</speed>
<course>22.2</course>
<desc>Speed 9.8 km/h Distance 36.99 km</desc>
<time>2010-06-13T09:06:34.05</time>
<name>8795</name>
</trkpt>
<trkpt lat="49.188002" lon="11.848027">
<ele>519.0</ele>
<speed>7.1</speed>
<course>22.7</course>
<desc>Speed 7.1 km/h Distance 37.00 km</desc>
<time>2010-06-13T09:06:35.05</time>
<name>8796</name>
</trkpt>
<trkpt lat="49.188062" lon="11.848065">
<ele>521.3</ele>
<speed>6.6</speed>
<course>6.1</course>
<desc>Speed 6.6 km/h Distance 37.00 km</desc>
<time>2010-06-13T09:06:37.05</time>
<name>8797</name>
</trkpt>
<trkpt lat="49.188082" lon="11.848068">
<ele>523.6</ele>
<speed>5.4</speed>
<course>347.8</course>
<desc>Speed 5.4 km/h Distance 37.01 km</desc>
<time>2010-06-13T09:06:38.05</time>
<name>8798</name>
</trkpt>
<trkpt lat="49.188097" lon="11.848063">
<ele>526.7</ele>
<speed>3.6</speed>
<course>347.4</course>
<desc>Speed 3.6 km/h Distance 37.01 km</desc>
<time>2010-06-13T09:06:39.05</time>
<name>8799</name>
</trkpt>
<trkpt lat="49.188105" lon="11.848060">
<ele>529.1</ele>
<speed>1.7</speed>
<course>23.4</course>
<desc>Speed 1.7 km/h Distance 37.01 km</desc>
<time>2010-06-13T09:06:40.05</time>
<name>8800</name>
</trkpt>
<trkpt lat="49.188115" lon="11.848067">
<ele>529.8</ele>
<speed>0.6</speed>
<course>7.0</course>
<desc>Speed 0.6 km/h Distance 37.01 km</desc>
<time>2010-06-13T09:06:41.05</time>
<name>8801</name>
</trkpt>
<trkpt lat="49.188133" lon="11.848070">
<ele>532.4</ele>
<speed>2.1</speed>
<course>32.2</course>
<desc>Speed 2.1 km/h Distance 37.01 km</desc>
<time>2010-06-13T09:06:42.05</time>
<name>8802</name>
</trkpt>
<trkpt lat="49.188178" lon="11.848113">
<ele>533.0</ele>
<speed>2.1</speed>
<course>21.7</course>
<desc>Speed 2.1 km/h Distance 37.02 km</desc>
<time>2010-06-13T09:06:44.05</time>
<name>8803</name>
</trkpt>
<trkpt lat="49.188225" lon="11.848142">
<ele>534.9</ele>
<speed>4.2</speed>
<course>13.5</course>
<desc>Speed 4.2 km/h Distance 37.02 km</desc>
<time>2010-06-13T09:06:46.05</time>
<name>8804</name>
</trkpt>
<trkpt lat="49.188238" lon="11.848147">
<ele>534.2</ele>
<speed>3.3</speed>
<course>28.9</course>
<desc>Speed 3.3 km/h Distance 37.03 km</desc>
<time>2010-06-13T09:06:47.05</time>
<name>8805</name>
</trkpt>
<trkpt lat="49.188260" lon="11.848165">
<ele>534.5</ele>
<speed>4.9</speed>
<course>33.1</course>
<desc>Speed 4.9 km/h Distance 37.03 km</desc>
<time>2010-06-13T09:06:48.05</time>
<name>8806</name>
</trkpt>
<trkpt lat="49.188285" lon="11.848190">
<ele>535.0</ele>
<speed>5.5</speed>
<course>29.5</course>
<desc>Speed 5.5 km/h Distance 37.03 km</desc>
<time>2010-06-13T09:06:49.05</time>
<name>8807</name>
</trkpt>
<trkpt lat="49.188310" lon="11.848212">
<ele>535.0</ele>
<speed>4.6</speed>
<course>27.1</course>
<desc>Speed 4.6 km/h Distance 37.04 km</desc>
<time>2010-06-13T09:06:50.05</time>
<name>8808</name>
</trkpt>
<trkpt lat="49.188372" lon="11.848260">
<ele>534.9</ele>
<speed>5.5</speed>
<course>5.0</course>
<desc>Speed 5.5 km/h Distance 37.04 km</desc>
<time>2010-06-13T09:06:52.05</time>
<name>8809</name>
</trkpt>
<trkpt lat="49.188397" lon="11.848263">
<ele>536.3</ele>
<speed>4.9</speed>
<course>17.1</course>
<desc>Speed 4.9 km/h Distance 37.05 km</desc>
<time>2010-06-13T09:06:53.05</time>
<name>8810</name>
</trkpt>
<trkpt lat="49.188425" lon="11.848277">
<ele>536.8</ele>
<speed>6.4</speed>
<course>23.5</course>
<desc>Speed 6.4 km/h Distance 37.05 km</desc>
<time>2010-06-13T09:06:54.05</time>
<name>8811</name>
</trkpt>
<trkpt lat="49.188485" lon="11.848317">
<ele>534.4</ele>
<speed>6.3</speed>
<course>349.6</course>
<desc>Speed 6.3 km/h Distance 37.06 km</desc>
<time>2010-06-13T09:06:56.05</time>
<name>8812</name>
</trkpt>
<trkpt lat="49.188508" lon="11.848310">
<ele>535.0</ele>
<speed>3.9</speed>
<course>357.1</course>
<desc>Speed 3.9 km/h Distance 37.06 km</desc>
<time>2010-06-13T09:06:57.05</time>
<name>8813</name>
</trkpt>
<trkpt lat="49.188535" lon="11.848308">
<ele>537.9</ele>
<speed>4.8</speed>
<course>3.8</course>
<desc>Speed 4.8 km/h Distance 37.06 km</desc>
<time>2010-06-13T09:06:58.05</time>
<name>8814</name>
</trkpt>
<trkpt lat="49.188600" lon="11.848315">
<ele>542.2</ele>
<speed>6.9</speed>
<course>5.4</course>
<desc>Speed 6.9 km/h Distance 37.07 km</desc>
<time>2010-06-13T09:07:00.05</time>
<name>8815</name>
</trkpt>
<trkpt lat="49.188682" lon="11.848327">
<ele>544.0</ele>
<speed>8.6</speed>
<course>8.0</course>
<desc>Speed 8.6 km/h Distance 37.08 km</desc>
<time>2010-06-13T09:07:02.05</time>
<name>8816</name>
</trkpt>
<trkpt lat="49.188720" lon="11.848335">
<ele>546.3</ele>
<speed>10.8</speed>
<course>17.4</course>
<desc>Speed 10.8 km/h Distance 37.08 km</desc>
<time>2010-06-13T09:07:03.05</time>
<name>8817</name>
</trkpt>
<trkpt lat="49.188762" lon="11.848355">
<ele>546.2</ele>
<speed>11.7</speed>
<course>353.6</course>
<desc>Speed 11.7 km/h Distance 37.09 km</desc>
<time>2010-06-13T09:07:04.05</time>
<name>8818</name>
</trkpt>
<trkpt lat="49.188800" lon="11.848348">
<ele>547.2</ele>
<speed>11.9</speed>
<course>20.9</course>
<desc>Speed 11.9 km/h Distance 37.09 km</desc>
<time>2010-06-13T09:07:05.05</time>
<name>8819</name>
</trkpt>
<trkpt lat="49.188840" lon="11.848372">
<ele>547.1</ele>
<speed>9.4</speed>
<course>26.1</course>
<desc>Speed 9.4 km/h Distance 37.10 km</desc>
<time>2010-06-13T09:07:06.05</time>
<name>8820</name>
</trkpt>
<trkpt lat="49.188907" lon="11.848422">
<ele>547.1</ele>
<speed>7.1</speed>
<course>21.9</course>
<desc>Speed 7.1 km/h Distance 37.10 km</desc>
<time>2010-06-13T09:07:08.05</time>
<name>8821</name>
</trkpt>
<trkpt lat="49.188980" lon="11.848467">
<ele>547.9</ele>
<speed>11.2</speed>
<course>26.8</course>
<desc>Speed 11.2 km/h Distance 37.11 km</desc>
<time>2010-06-13T09:07:10.05</time>
<name>8822</name>
</trkpt>
<trkpt lat="49.189075" lon="11.848540">
<ele>548.8</ele>
<speed>11.9</speed>
<course>28.7</course>
<desc>Speed 11.9 km/h Distance 37.13 km</desc>
<time>2010-06-13T09:07:12.05</time>
<name>8823</name>
</trkpt>
<trkpt lat="49.189117" lon="11.848575">
<ele>548.1</ele>
<speed>11.1</speed>
<course>23.6</course>
<desc>Speed 11.1 km/h Distance 37.13 km</desc>
<time>2010-06-13T09:07:13.05</time>
<name>8824</name>
</trkpt>
<trkpt lat="49.189157" lon="11.848602">
<ele>546.4</ele>
<speed>9.7</speed>
<course>10.4</course>
<desc>Speed 9.7 km/h Distance 37.14 km</desc>
<time>2010-06-13T09:07:14.05</time>
<name>8825</name>
</trkpt>
<trkpt lat="49.189187" lon="11.848610">
<ele>547.8</ele>
<speed>8.7</speed>
<course>26.0</course>
<desc>Speed 8.7 km/h Distance 37.14 km</desc>
<time>2010-06-13T09:07:15.05</time>
<name>8826</name>
</trkpt>
<trkpt lat="49.189272" lon="11.848673">
<ele>547.2</ele>
<speed>10.4</speed>
<course>23.1</course>
<desc>Speed 10.4 km/h Distance 37.15 km</desc>
<time>2010-06-13T09:07:17.05</time>
<name>8827</name>
</trkpt>
<trkpt lat="49.189310" lon="11.848698">
<ele>546.8</ele>
<speed>10.2</speed>
<course>21.4</course>
<desc>Speed 10.2 km/h Distance 37.15 km</desc>
<time>2010-06-13T09:07:18.05</time>
<name>8828</name>
</trkpt>
<trkpt lat="49.189393" lon="11.848748">
<ele>548.4</ele>
<speed>9.4</speed>
<course>17.7</course>
<desc>Speed 9.4 km/h Distance 37.16 km</desc>
<time>2010-06-13T09:07:20.05</time>
<name>8829</name>
</trkpt>
<trkpt lat="49.189472" lon="11.848787">
<ele>551.1</ele>
<speed>9.6</speed>
<course>24.1</course>
<desc>Speed 9.6 km/h Distance 37.17 km</desc>
<time>2010-06-13T09:07:22.05</time>
<name>8830</name>
</trkpt>
<trkpt lat="49.189540" lon="11.848833">
<ele>549.2</ele>
<speed>7.2</speed>
<course>9.8</course>
<desc>Speed 7.2 km/h Distance 37.18 km</desc>
<time>2010-06-13T09:07:24.05</time>
<name>8831</name>
</trkpt>
<trkpt lat="49.189572" lon="11.848842">
<ele>550.0</ele>
<speed>5.3</speed>
<course>13.7</course>
<desc>Speed 5.3 km/h Distance 37.19 km</desc>
<time>2010-06-13T09:07:25.05</time>
<name>8832</name>
</trkpt>
<trkpt lat="49.189643" lon="11.848868">
<ele>548.6</ele>
<speed>5.9</speed>
<course>10.0</course>
<desc>Speed 5.9 km/h Distance 37.19 km</desc>
<time>2010-06-13T09:07:27.05</time>
<name>8833</name>
</trkpt>
<trkpt lat="49.189712" lon="11.848887">
<ele>549.8</ele>
<speed>6.6</speed>
<course>14.8</course>
<desc>Speed 6.6 km/h Distance 37.20 km</desc>
<time>2010-06-13T09:07:29.05</time>
<name>8834</name>
</trkpt>
<trkpt lat="49.189782" lon="11.848915">
<ele>549.0</ele>
<speed>5.1</speed>
<course>1.0</course>
<desc>Speed 5.1 km/h Distance 37.21 km</desc>
<time>2010-06-13T09:07:31.05</time>
<name>8835</name>
</trkpt>
<trkpt lat="49.189847" lon="11.848917">
<ele>547.6</ele>
<speed>5.0</speed>
<course>9.0</course>
<desc>Speed 5.0 km/h Distance 37.22 km</desc>
<time>2010-06-13T09:07:33.05</time>
<name>8836</name>
</trkpt>
<trkpt lat="49.189915" lon="11.848933">
<ele>547.7</ele>
<speed>5.6</speed>
<course>12.3</course>
<desc>Speed 5.6 km/h Distance 37.22 km</desc>
<time>2010-06-13T09:07:35.05</time>
<name>8837</name>
</trkpt>
<trkpt lat="49.189945" lon="11.848943">
<ele>547.6</ele>
<speed>5.5</speed>
<course>12.6</course>
<desc>Speed 5.5 km/h Distance 37.23 km</desc>
<time>2010-06-13T09:07:36.05</time>
<name>8838</name>
</trkpt>
<trkpt lat="49.190018" lon="11.848968">
<ele>548.6</ele>
<speed>6.1</speed>
<course>355.5</course>
<desc>Speed 6.1 km/h Distance 37.24 km</desc>
<time>2010-06-13T09:07:38.05</time>
<name>8839</name>
</trkpt>
<trkpt lat="49.190047" lon="11.848965">
<ele>546.8</ele>
<speed>6.2</speed>
<course>358.2</course>
<desc>Speed 6.2 km/h Distance 37.24 km</desc>
<time>2010-06-13T09:07:39.05</time>
<name>8840</name>
</trkpt>
<trkpt lat="49.190078" lon="11.848963">
<ele>546.2</ele>
<speed>5.3</speed>
<course>333.8</course>
<desc>Speed 5.3 km/h Distance 37.24 km</desc>
<time>2010-06-13T09:07:40.05</time>
<name>8841</name>
</trkpt>
<trkpt lat="49.190105" lon="11.848943">
<ele>548.5</ele>
<speed>7.4</speed>
<course>342.8</course>
<desc>Speed 7.4 km/h Distance 37.25 km</desc>
<time>2010-06-13T09:07:41.05</time>
<name>8842</name>
</trkpt>
<trkpt lat="49.190137" lon="11.848928">
<ele>549.0</ele>
<speed>6.6</speed>
<course>5.6</course>
<desc>Speed 6.6 km/h Distance 37.25 km</desc>
<time>2010-06-13T09:07:42.05</time>
<name>8843</name>
</trkpt>
<trkpt lat="49.190215" lon="11.848940">
<ele>549.3</ele>
<speed>10.1</speed>
<course>5.4</course>
<desc>Speed 10.1 km/h Distance 37.26 km</desc>
<time>2010-06-13T09:07:44.05</time>
<name>8844</name>
</trkpt>
<trkpt lat="49.190307" lon="11.848953">
<ele>546.5</ele>
<speed>9.8</speed>
<course>6.6</course>
<desc>Speed 9.8 km/h Distance 37.27 km</desc>
<time>2010-06-13T09:07:46.05</time>
<name>8845</name>
</trkpt>
<trkpt lat="49.190420" lon="11.848973">
<ele>547.9</ele>
<speed>9.6</speed>
<course>8.7</course>
<desc>Speed 9.6 km/h Distance 37.28 km</desc>
<time>2010-06-13T09:07:48.05</time>
<name>8846</name>
</trkpt>
<trkpt lat="49.190590" lon="11.849013">
<ele>548.3</ele>
<speed>9.1</speed>
<course>10.9</course>
<desc>Speed 9.1 km/h Distance 37.30 km</desc>
<time>2010-06-13T09:07:51.05</time>
<name>8847</name>
</trkpt>
<trkpt lat="49.190703" lon="11.849047">
<ele>547.7</ele>
<speed>9.5</speed>
<course>24.8</course>
<desc>Speed 9.5 km/h Distance 37.31 km</desc>
<time>2010-06-13T09:07:53.05</time>
<name>8848</name>
</trkpt>
<trkpt lat="49.190868" lon="11.849163">
<ele>542.0</ele>
<speed>13.0</speed>
<course>14.8</course>
<desc>Speed 13.0 km/h Distance 37.33 km</desc>
<time>2010-06-13T09:07:56.05</time>
<name>8849</name>
</trkpt>
<trkpt lat="49.191000" lon="11.849217">
<ele>535.9</ele>
<speed>12.0</speed>
<course>15.2</course>
<desc>Speed 12.0 km/h Distance 37.35 km</desc>
<time>2010-06-13T09:07:58.05</time>
<name>8850</name>
</trkpt>
<trkpt lat="49.191197" lon="11.849298">
<ele>535.8</ele>
<speed>13.2</speed>
<course>30.1</course>
<desc>Speed 13.2 km/h Distance 37.37 km</desc>
<time>2010-06-13T09:08:01.05</time>
<name>8851</name>
</trkpt>
<trkpt lat="49.191298" lon="11.849388">
<ele>531.3</ele>
<speed>15.9</speed>
<course>34.2</course>
<desc>Speed 15.9 km/h Distance 37.38 km</desc>
<time>2010-06-13T09:08:03.05</time>
<name>8852</name>
</trkpt>
<trkpt lat="49.191340" lon="11.849432">
<ele>530.9</ele>
<speed>14.6</speed>
<course>33.2</course>
<desc>Speed 14.6 km/h Distance 37.39 km</desc>
<time>2010-06-13T09:08:04.05</time>
<name>8853</name>
</trkpt>
<trkpt lat="49.191377" lon="11.849468">
<ele>531.2</ele>
<speed>12.6</speed>
<course>45.1</course>
<desc>Speed 12.6 km/h Distance 37.39 km</desc>
<time>2010-06-13T09:08:05.05</time>
<name>8854</name>
</trkpt>
<trkpt lat="49.191402" lon="11.849507">
<ele>529.5</ele>
<speed>14.4</speed>
<course>31.0</course>
<desc>Speed 14.4 km/h Distance 37.40 km</desc>
<time>2010-06-13T09:08:06.05</time>
<name>8855</name>
</trkpt>
<trkpt lat="49.191443" lon="11.849545">
<ele>527.9</ele>
<speed>13.2</speed>
<course>21.4</course>
<desc>Speed 13.2 km/h Distance 37.40 km</desc>
<time>2010-06-13T09:08:07.05</time>
<name>8856</name>
</trkpt>
<trkpt lat="49.191485" lon="11.849570">
<ele>528.5</ele>
<speed>13.9</speed>
<course>28.9</course>
<desc>Speed 13.9 km/h Distance 37.41 km</desc>
<time>2010-06-13T09:08:08.05</time>
<name>8857</name>
</trkpt>
<trkpt lat="49.191528" lon="11.849607">
<ele>527.5</ele>
<speed>13.1</speed>
<course>27.1</course>
<desc>Speed 13.1 km/h Distance 37.41 km</desc>
<time>2010-06-13T09:08:09.05</time>
<name>8858</name>
</trkpt>
<trkpt lat="49.191628" lon="11.849685">
<ele>527.4</ele>
<speed>12.8</speed>
<course>33.2</course>
<desc>Speed 12.8 km/h Distance 37.43 km</desc>
<time>2010-06-13T09:08:11.05</time>
<name>8859</name>
</trkpt>
<trkpt lat="49.191667" lon="11.849723">
<ele>527.2</ele>
<speed>11.9</speed>
<course>37.8</course>
<desc>Speed 11.9 km/h Distance 37.43 km</desc>
<time>2010-06-13T09:08:12.05</time>
<name>8860</name>
</trkpt>
<trkpt lat="49.191693" lon="11.849755">
<ele>526.3</ele>
<speed>10.2</speed>
<course>51.3</course>
<desc>Speed 10.2 km/h Distance 37.44 km</desc>
<time>2010-06-13T09:08:13.05</time>
<name>8861</name>
</trkpt>
<trkpt lat="49.191712" lon="11.849790">
<ele>524.2</ele>
<speed>7.2</speed>
<course>115.6</course>
<desc>Speed 7.2 km/h Distance 37.44 km</desc>
<time>2010-06-13T09:08:14.05</time>
<name>8862</name>
</trkpt>
<trkpt lat="49.191703" lon="11.849817">
<ele>520.7</ele>
<speed>4.5</speed>
<course>85.4</course>
<desc>Speed 4.5 km/h Distance 37.44 km</desc>
<time>2010-06-13T09:08:15.05</time>
<name>8863</name>
</trkpt>
<trkpt lat="49.191705" lon="11.849848">
<ele>518.2</ele>
<speed>6.7</speed>
<course>76.6</course>
<desc>Speed 6.7 km/h Distance 37.44 km</desc>
<time>2010-06-13T09:08:16.05</time>
<name>8864</name>
</trkpt>
<trkpt lat="49.191720" lon="11.849945">
<ele>511.2</ele>
<speed>8.2</speed>
<course>108.4</course>
<desc>Speed 8.2 km/h Distance 37.45 km</desc>
<time>2010-06-13T09:08:18.05</time>
<name>8865</name>
</trkpt>
<trkpt lat="49.191712" lon="11.849983">
<ele>509.0</ele>
<speed>8.9</speed>
<course>80.4</course>
<desc>Speed 8.9 km/h Distance 37.45 km</desc>
<time>2010-06-13T09:08:19.05</time>
<name>8866</name>
</trkpt>
<trkpt lat="49.191725" lon="11.850103">
<ele>500.6</ele>
<speed>9.2</speed>
<course>63.8</course>
<desc>Speed 9.2 km/h Distance 37.46 km</desc>
<time>2010-06-13T09:08:21.05</time>
<name>8867</name>
</trkpt>
<trkpt lat="49.191740" lon="11.850150">
<ele>498.6</ele>
<speed>7.6</speed>
<course>90.0</course>
<desc>Speed 7.6 km/h Distance 37.47 km</desc>
<time>2010-06-13T09:08:22.05</time>
<name>8868</name>
</trkpt>
<trkpt lat="49.191740" lon="11.850197">
<ele>495.1</ele>
<speed>7.5</speed>
<course>101.8</course>
<desc>Speed 7.5 km/h Distance 37.47 km</desc>
<time>2010-06-13T09:08:23.05</time>
<name>8869</name>
</trkpt>
<trkpt lat="49.191735" lon="11.850233">
<ele>492.7</ele>
<speed>9.0</speed>
<course>96.0</course>
<desc>Speed 9.0 km/h Distance 37.47 km</desc>
<time>2010-06-13T09:08:24.05</time>
<name>8870</name>
</trkpt>
<trkpt lat="49.191732" lon="11.850282">
<ele>489.1</ele>
<speed>8.6</speed>
<course>104.9</course>
<desc>Speed 8.6 km/h Distance 37.48 km</desc>
<time>2010-06-13T09:08:25.05</time>
<name>8871</name>
</trkpt>
<trkpt lat="49.191725" lon="11.850320">
<ele>486.5</ele>
<speed>8.4</speed>
<course>104.3</course>
<desc>Speed 8.4 km/h Distance 37.48 km</desc>
<time>2010-06-13T09:08:26.05</time>
<name>8872</name>
</trkpt>
<trkpt lat="49.191718" lon="11.850360">
<ele>482.4</ele>
<speed>9.4</speed>
<course>100.8</course>
<desc>Speed 9.4 km/h Distance 37.48 km</desc>
<time>2010-06-13T09:08:27.05</time>
<name>8873</name>
</trkpt>
<trkpt lat="49.191713" lon="11.850400">
<ele>477.6</ele>
<speed>9.0</speed>
<course>138.1</course>
<desc>Speed 9.0 km/h Distance 37.49 km</desc>
<time>2010-06-13T09:08:28.05</time>
<name>8874</name>
</trkpt>
<trkpt lat="49.191700" lon="11.850418">
<ele>475.6</ele>
<speed>7.4</speed>
<course>107.0</course>
<desc>Speed 7.4 km/h Distance 37.49 km</desc>
<time>2010-06-13T09:08:29.05</time>
<name>8875</name>
</trkpt>
<trkpt lat="49.191693" lon="11.850452">
<ele>472.2</ele>
<speed>9.0</speed>
<course>107.0</course>
<desc>Speed 9.0 km/h Distance 37.49 km</desc>
<time>2010-06-13T09:08:30.05</time>
<name>8876</name>
</trkpt>
<trkpt lat="49.191687" lon="11.850485">
<ele>468.7</ele>
<speed>8.1</speed>
<course>129.2</course>
<desc>Speed 8.1 km/h Distance 37.49 km</desc>
<time>2010-06-13T09:08:31.05</time>
<name>8877</name>
</trkpt>
<trkpt lat="49.191673" lon="11.850510">
<ele>465.9</ele>
<speed>8.3</speed>
<course>115.8</course>
<desc>Speed 8.3 km/h Distance 37.49 km</desc>
<time>2010-06-13T09:08:32.05</time>
<name>8878</name>
</trkpt>
<trkpt lat="49.191663" lon="11.850542">
<ele>462.5</ele>
<speed>8.4</speed>
<course>149.4</course>
<desc>Speed 8.4 km/h Distance 37.50 km</desc>
<time>2010-06-13T09:08:33.05</time>
<name>8879</name>
</trkpt>
<trkpt lat="49.191645" lon="11.850558">
<ele>459.1</ele>
<speed>8.0</speed>
<course>163.4</course>
<desc>Speed 8.0 km/h Distance 37.50 km</desc>
<time>2010-06-13T09:08:34.05</time>
<name>8880</name>
</trkpt>
<trkpt lat="49.191627" lon="11.850567">
<ele>456.7</ele>
<speed>6.2</speed>
<course>122.8</course>
<desc>Speed 6.2 km/h Distance 37.50 km</desc>
<time>2010-06-13T09:08:35.05</time>
<name>8881</name>
</trkpt>
<trkpt lat="49.191613" lon="11.850598">
<ele>452.3</ele>
<speed>7.6</speed>
<course>101.3</course>
<desc>Speed 7.6 km/h Distance 37.50 km</desc>
<time>2010-06-13T09:08:36.05</time>
<name>8882</name>
</trkpt>
<trkpt lat="49.191608" lon="11.850637">
<ele>447.7</ele>
<speed>8.2</speed>
<course>79.8</course>
<desc>Speed 8.2 km/h Distance 37.51 km</desc>
<time>2010-06-13T09:08:37.05</time>
<name>8883</name>
</trkpt>
<trkpt lat="49.191615" lon="11.850693">
<ele>443.5</ele>
<speed>10.2</speed>
<course>77.7</course>
<desc>Speed 10.2 km/h Distance 37.51 km</desc>
<time>2010-06-13T09:08:38.05</time>
<name>8884</name>
</trkpt>
<trkpt lat="49.191623" lon="11.850752">
<ele>439.1</ele>
<speed>10.0</speed>
<course>80.9</course>
<desc>Speed 10.0 km/h Distance 37.52 km</desc>
<time>2010-06-13T09:08:39.05</time>
<name>8885</name>
</trkpt>
<trkpt lat="49.191630" lon="11.850815">
<ele>435.2</ele>
<speed>8.6</speed>
<course>113.0</course>
<desc>Speed 8.6 km/h Distance 37.52 km</desc>
<time>2010-06-13T09:08:40.05</time>
<name>8886</name>
</trkpt>
<trkpt lat="49.191622" lon="11.850845">
<ele>432.3</ele>
<speed>7.6</speed>
<course>132.1</course>
<desc>Speed 7.6 km/h Distance 37.52 km</desc>
<time>2010-06-13T09:08:41.05</time>
<name>8887</name>
</trkpt>
<trkpt lat="49.191600" lon="11.850882">
<ele>429.9</ele>
<speed>8.7</speed>
<course>104.8</course>
<desc>Speed 8.7 km/h Distance 37.53 km</desc>
<time>2010-06-13T09:08:42.05</time>
<name>8888</name>
</trkpt>
<trkpt lat="49.191592" lon="11.850930">
<ele>427.2</ele>
<speed>8.8</speed>
<course>112.2</course>
<desc>Speed 8.8 km/h Distance 37.53 km</desc>
<time>2010-06-13T09:08:43.05</time>
<name>8889</name>
</trkpt>
<trkpt lat="49.191578" lon="11.850980">
<ele>424.5</ele>
<speed>9.8</speed>
<course>120.6</course>
<desc>Speed 9.8 km/h Distance 37.53 km</desc>
<time>2010-06-13T09:08:44.05</time>
<name>8890</name>
</trkpt>
<trkpt lat="49.191558" lon="11.851032">
<ele>421.8</ele>
<speed>12.2</speed>
<course>119.1</course>
<desc>Speed 12.2 km/h Distance 37.54 km</desc>
<time>2010-06-13T09:08:45.05</time>
<name>8891</name>
</trkpt>
<trkpt lat="49.191545" lon="11.851068">
<ele>420.2</ele>
<speed>10.2</speed>
<course>114.2</course>
<desc>Speed 10.2 km/h Distance 37.54 km</desc>
<time>2010-06-13T09:08:46.05</time>
<name>8892</name>
</trkpt>
<trkpt lat="49.191537" lon="11.851097">
<ele>419.9</ele>
<speed>6.9</speed>
<course>113.6</course>
<desc>Speed 6.9 km/h Distance 37.54 km</desc>
<time>2010-06-13T09:08:47.05</time>
<name>8893</name>
</trkpt>
<trkpt lat="49.191527" lon="11.851132">
<ele>419.9</ele>
<speed>7.4</speed>
<course>127.4</course>
<desc>Speed 7.4 km/h Distance 37.55 km</desc>
<time>2010-06-13T09:08:48.05</time>
<name>8894</name>
</trkpt>
<trkpt lat="49.191518" lon="11.851148">
<ele>418.8</ele>
<speed>3.6</speed>
<course>58.5</course>
<desc>Speed 3.6 km/h Distance 37.55 km</desc>
<time>2010-06-13T09:08:49.05</time>
<name>8895</name>
</trkpt>
<trkpt lat="49.191528" lon="11.851173">
<ele>418.9</ele>
<speed>5.8</speed>
<course>12.6</course>
<desc>Speed 5.8 km/h Distance 37.55 km</desc>
<time>2010-06-13T09:08:50.05</time>
<name>8896</name>
</trkpt>
<trkpt lat="49.191530" lon="11.851173">
<ele>418.5</ele>
<speed>4.7</speed>
<course>201.0</course>
<desc>Speed 4.7 km/h Distance 37.55 km</desc>
<time>2010-06-13T09:08:51.05</time>
<name>8897</name>
</trkpt>
<trkpt lat="49.191510" lon="11.851162">
<ele>416.8</ele>
<speed>3.6</speed>
<course>243.1</course>
<desc>Speed 3.6 km/h Distance 37.55 km</desc>
<time>2010-06-13T09:08:52.05</time>
<name>8898</name>
</trkpt>
<trkpt lat="49.191505" lon="11.851147">
<ele>414.9</ele>
<speed>4.9</speed>
<course>213.3</course>
<desc>Speed 4.9 km/h Distance 37.55 km</desc>
<time>2010-06-13T09:08:53.05</time>
<name>8899</name>
</trkpt>
<trkpt lat="49.191490" lon="11.851132">
<ele>414.9</ele>
<speed>5.4</speed>
<course>199.3</course>
<desc>Speed 5.4 km/h Distance 37.56 km</desc>
<time>2010-06-13T09:08:54.05</time>
<name>8900</name>
</trkpt>
<trkpt lat="49.191465" lon="11.851118">
<ele>413.0</ele>
<speed>4.0</speed>
<course>174.7</course>
<desc>Speed 4.0 km/h Distance 37.56 km</desc>
<time>2010-06-13T09:08:55.05</time>
<name>8901</name>
</trkpt>
<trkpt lat="49.191417" lon="11.851125">
<ele>411.6</ele>
<speed>5.2</speed>
<course>164.7</course>
<desc>Speed 5.2 km/h Distance 37.56 km</desc>
<time>2010-06-13T09:08:57.05</time>
<name>8902</name>
</trkpt>
<trkpt lat="49.191397" lon="11.851133">
<ele>411.4</ele>
<speed>4.9</speed>
<course>146.8</course>
<desc>Speed 4.9 km/h Distance 37.57 km</desc>
<time>2010-06-13T09:08:58.05</time>
<name>8903</name>
</trkpt>
<trkpt lat="49.191383" lon="11.851147">
<ele>409.8</ele>
<speed>4.6</speed>
<course>146.9</course>
<desc>Speed 4.6 km/h Distance 37.57 km</desc>
<time>2010-06-13T09:08:59.05</time>
<name>8904</name>
</trkpt>
<trkpt lat="49.191368" lon="11.851162">
<ele>409.1</ele>
<speed>4.4</speed>
<course>153.9</course>
<desc>Speed 4.4 km/h Distance 37.57 km</desc>
<time>2010-06-13T09:09:00.05</time>
<name>8905</name>
</trkpt>
<trkpt lat="49.191348" lon="11.851177">
<ele>409.0</ele>
<speed>5.0</speed>
<course>151.9</course>
<desc>Speed 5.0 km/h Distance 37.57 km</desc>
<time>2010-06-13T09:09:01.05</time>
<name>8906</name>
</trkpt>
<trkpt lat="49.191330" lon="11.851192">
<ele>408.7</ele>
<speed>4.3</speed>
<course>170.5</course>
<desc>Speed 4.3 km/h Distance 37.57 km</desc>
<time>2010-06-13T09:09:02.05</time>
<name>8907</name>
</trkpt>
<trkpt lat="49.191310" lon="11.851197">
<ele>407.9</ele>
<speed>4.9</speed>
<course>172.3</course>
<desc>Speed 4.9 km/h Distance 37.58 km</desc>
<time>2010-06-13T09:09:03.05</time>
<name>8908</name>
</trkpt>
<trkpt lat="49.191293" lon="11.851200">
<ele>406.5</ele>
<speed>2.9</speed>
<course>159.9</course>
<desc>Speed 2.9 km/h Distance 37.58 km</desc>
<time>2010-06-13T09:09:04.05</time>
<name>8909</name>
</trkpt>
<trkpt lat="49.191278" lon="11.851208">
<ele>405.4</ele>
<speed>2.7</speed>
<course>98.7</course>
<desc>Speed 2.7 km/h Distance 37.58 km</desc>
<time>2010-06-13T09:09:05.05</time>
<name>8910</name>
</trkpt>
<trkpt lat="49.191277" lon="11.851225">
<ele>404.0</ele>
<speed>2.2</speed>
<course>162.2</course>
<desc>Speed 2.2 km/h Distance 37.58 km</desc>
<time>2010-06-13T09:09:06.05</time>
<name>8911</name>
</trkpt>
<trkpt lat="49.191263" lon="11.851232">
<ele>403.4</ele>
<speed>1.6</speed>
<course>190.2</course>
<desc>Speed 1.6 km/h Distance 37.58 km</desc>
<time>2010-06-13T09:09:07.05</time>
<name>8912</name>
</trkpt>
<trkpt lat="49.191245" lon="11.851227">
<ele>403.4</ele>
<speed>0.9</speed>
<course>190.2</course>
<desc>Speed 0.9 km/h Distance 37.59 km</desc>
<time>2010-06-13T09:09:08.05</time>
<name>8913</name>
</trkpt>
<trkpt lat="49.191227" lon="11.851222">
<ele>403.4</ele>
<speed>3.0</speed>
<course>200.4</course>
<desc>Speed 3.0 km/h Distance 37.59 km</desc>
<time>2010-06-13T09:09:09.05</time>
<name>8914</name>
</trkpt>
<trkpt lat="49.191203" lon="11.851208">
<ele>401.8</ele>
<speed>5.5</speed>
<course>189.2</course>
<desc>Speed 5.5 km/h Distance 37.59 km</desc>
<time>2010-06-13T09:09:10.05</time>
<name>8915</name>
</trkpt>
<trkpt lat="49.191183" lon="11.851203">
<ele>399.9</ele>
<speed>4.9</speed>
<course>194.0</course>
<desc>Speed 4.9 km/h Distance 37.59 km</desc>
<time>2010-06-13T09:09:11.05</time>
<name>8916</name>
</trkpt>
<trkpt lat="49.191162" lon="11.851195">
<ele>399.5</ele>
<speed>4.8</speed>
<course>127.4</course>
<desc>Speed 4.8 km/h Distance 37.60 km</desc>
<time>2010-06-13T09:09:12.05</time>
<name>8917</name>
</trkpt>
<trkpt lat="49.191153" lon="11.851212">
<ele>399.5</ele>
<speed>3.3</speed>
<course>154.0</course>
<desc>Speed 3.3 km/h Distance 37.60 km</desc>
<time>2010-06-13T09:09:13.05</time>
<name>8918</name>
</trkpt>
<trkpt lat="49.191140" lon="11.851222">
<ele>399.5</ele>
<speed>3.7</speed>
<course>178.1</course>
<desc>Speed 3.7 km/h Distance 37.60 km</desc>
<time>2010-06-13T09:09:14.05</time>
<name>8919</name>
</trkpt>
<trkpt lat="49.191125" lon="11.851222">
<ele>397.4</ele>
<speed>3.8</speed>
<course>185.2</course>
<desc>Speed 3.8 km/h Distance 37.60 km</desc>
<time>2010-06-13T09:09:15.05</time>
<name>8920</name>
</trkpt>
<trkpt lat="49.191102" lon="11.851218">
<ele>396.7</ele>
<speed>4.3</speed>
<course>90.0</course>
<desc>Speed 4.3 km/h Distance 37.60 km</desc>
<time>2010-06-13T09:09:16.05</time>
<name>8921</name>
</trkpt>
<trkpt lat="49.191102" lon="11.851247">
<ele>394.5</ele>
<speed>5.2</speed>
<course>94.9</course>
<desc>Speed 5.2 km/h Distance 37.60 km</desc>
<time>2010-06-13T09:09:17.05</time>
<name>8922</name>
</trkpt>
<trkpt lat="49.191100" lon="11.851277">
<ele>393.6</ele>
<speed>5.2</speed>
<course>121.4</course>
<desc>Speed 5.2 km/h Distance 37.61 km</desc>
<time>2010-06-13T09:09:18.05</time>
<name>8923</name>
</trkpt>
<trkpt lat="49.191090" lon="11.851302">
<ele>393.1</ele>
<speed>5.5</speed>
<course>117.0</course>
<desc>Speed 5.5 km/h Distance 37.61 km</desc>
<time>2010-06-13T09:09:19.05</time>
<name>8924</name>
</trkpt>
<trkpt lat="49.191082" lon="11.851327">
<ele>392.6</ele>
<speed>5.7</speed>
<course>129.5</course>
<desc>Speed 5.7 km/h Distance 37.61 km</desc>
<time>2010-06-13T09:09:20.05</time>
<name>8925</name>
</trkpt>
<trkpt lat="49.191070" lon="11.851348">
<ele>392.3</ele>
<speed>5.1</speed>
<course>124.2</course>
<desc>Speed 5.1 km/h Distance 37.61 km</desc>
<time>2010-06-13T09:09:21.05</time>
<name>8926</name>
</trkpt>
<trkpt lat="49.191063" lon="11.851363">
<ele>391.5</ele>
<speed>2.8</speed>
<course>77.7</course>
<desc>Speed 2.8 km/h Distance 37.61 km</desc>
<time>2010-06-13T09:09:22.05</time>
<name>8927</name>
</trkpt>
<trkpt lat="49.191067" lon="11.851387">
<ele>388.5</ele>
<speed>3.0</speed>
<course>98.7</course>
<desc>Speed 3.0 km/h Distance 37.62 km</desc>
<time>2010-06-13T09:09:23.05</time>
<name>8928</name>
</trkpt>
<trkpt lat="49.191065" lon="11.851403">
<ele>385.7</ele>
<speed>3.1</speed>
<course>153.6</course>
<desc>Speed 3.1 km/h Distance 37.62 km</desc>
<time>2010-06-13T09:09:24.05</time>
<name>8929</name>
</trkpt>
<trkpt lat="49.191058" lon="11.851408">
<ele>383.8</ele>
<speed>2.8</speed>
<course>178.8</course>
<desc>Speed 2.8 km/h Distance 37.62 km</desc>
<time>2010-06-13T09:09:25.05</time>
<name>8930</name>
</trkpt>
<trkpt lat="49.191045" lon="11.851408">
<ele>383.9</ele>
<speed>2.4</speed>
<course>178.8</course>
<desc>Speed 2.4 km/h Distance 37.62 km</desc>
<time>2010-06-13T09:09:26.05</time>
<name>8931</name>
</trkpt>
<trkpt lat="49.191032" lon="11.851408">
<ele>384.5</ele>
<speed>2.3</speed>
<course>187.0</course>
<desc>Speed 2.3 km/h Distance 37.62 km</desc>
<time>2010-06-13T09:09:27.05</time>
<name>8932</name>
</trkpt>
<trkpt lat="49.191013" lon="11.851405">
<ele>385.1</ele>
<speed>1.6</speed>
<course>187.5</course>
<desc>Speed 1.6 km/h Distance 37.62 km</desc>
<time>2010-06-13T09:09:28.05</time>
<name>8933</name>
</trkpt>
<trkpt lat="49.191002" lon="11.851403">
<ele>383.8</ele>
<speed>2.1</speed>
<course>168.8</course>
<desc>Speed 2.1 km/h Distance 37.62 km</desc>
<time>2010-06-13T09:09:29.05</time>
<name>8934</name>
</trkpt>
<trkpt lat="49.190990" lon="11.851407">
<ele>383.4</ele>
<speed>3.0</speed>
<course>156.6</course>
<desc>Speed 3.0 km/h Distance 37.63 km</desc>
<time>2010-06-13T09:09:30.05</time>
<name>8935</name>
</trkpt>
<trkpt lat="49.190980" lon="11.851413">
<ele>383.4</ele>
<speed>3.9</speed>
<course>173.9</course>
<desc>Speed 3.9 km/h Distance 37.63 km</desc>
<time>2010-06-13T09:09:31.05</time>
<name>8936</name>
</trkpt>
<trkpt lat="49.190960" lon="11.851417">
<ele>383.6</ele>
<speed>4.9</speed>
<course>175.0</course>
<desc>Speed 4.9 km/h Distance 37.63 km</desc>
<time>2010-06-13T09:09:32.05</time>
<name>8937</name>
</trkpt>
<trkpt lat="49.190935" lon="11.851420">
<ele>384.6</ele>
<speed>4.5</speed>
<course>180.0</course>
<desc>Speed 4.5 km/h Distance 37.63 km</desc>
<time>2010-06-13T09:09:33.05</time>
<name>8938</name>
</trkpt>
<trkpt lat="49.190890" lon="11.851420">
<ele>383.8</ele>
<speed>4.0</speed>
<course>164.0</course>
<desc>Speed 4.0 km/h Distance 37.64 km</desc>
<time>2010-06-13T09:09:35.05</time>
<name>8939</name>
</trkpt>
<trkpt lat="49.190875" lon="11.851427">
<ele>382.4</ele>
<speed>4.0</speed>
<course>103.8</course>
<desc>Speed 4.0 km/h Distance 37.64 km</desc>
<time>2010-06-13T09:09:36.05</time>
<name>8940</name>
</trkpt>
<trkpt lat="49.190855" lon="11.851552">
<ele>387.8</ele>
<speed>2.3</speed>
<course>163.7</course>
<desc>Speed 2.3 km/h Distance 37.65 km</desc>
<time>2010-06-13T09:09:38.05</time>
<name>8941</name>
</trkpt>
<trkpt lat="49.190840" lon="11.851558">
<ele>387.9</ele>
<speed>1.9</speed>
<course>157.9</course>
<desc>Speed 1.9 km/h Distance 37.65 km</desc>
<time>2010-06-13T09:09:39.05</time>
<name>8942</name>
</trkpt>
<trkpt lat="49.190827" lon="11.851567">
<ele>387.9</ele>
<speed>2.2</speed>
<course>119.1</course>
<desc>Speed 2.2 km/h Distance 37.65 km</desc>
<time>2010-06-13T09:09:40.05</time>
<name>8943</name>
</trkpt>
<trkpt lat="49.190820" lon="11.851585">
<ele>388.0</ele>
<speed>2.2</speed>
<course>164.0</course>
<desc>Speed 2.2 km/h Distance 37.65 km</desc>
<time>2010-06-13T09:09:41.05</time>
<name>8944</name>
</trkpt>
<trkpt lat="49.190805" lon="11.851592">
<ele>388.0</ele>
<speed>3.3</speed>
<course>168.4</course>
<desc>Speed 3.3 km/h Distance 37.65 km</desc>
<time>2010-06-13T09:09:42.05</time>
<name>8945</name>
</trkpt>
<trkpt lat="49.190795" lon="11.851595">
<ele>388.0</ele>
<speed>2.3</speed>
<course>101.5</course>
<desc>Speed 2.3 km/h Distance 37.66 km</desc>
<time>2010-06-13T09:09:43.05</time>
<name>8946</name>
</trkpt>
<trkpt lat="49.190792" lon="11.851620">
<ele>390.5</ele>
<speed>4.7</speed>
<course>79.2</course>
<desc>Speed 4.7 km/h Distance 37.66 km</desc>
<time>2010-06-13T09:09:44.05</time>
<name>8947</name>
</trkpt>
<trkpt lat="49.190797" lon="11.851660">
<ele>391.1</ele>
<speed>8.1</speed>
<course>90.5</course>
<desc>Speed 8.1 km/h Distance 37.66 km</desc>
<time>2010-06-13T09:09:45.05</time>
<name>8948</name>
</trkpt>
<trkpt lat="49.190795" lon="11.851930">
<ele>402.6</ele>
<speed>12.5</speed>
<course>105.9</course>
<desc>Speed 12.5 km/h Distance 37.68 km</desc>
<time>2010-06-13T09:09:48.05</time>
<name>8949</name>
</trkpt>
<trkpt lat="49.190768" lon="11.852073">
<ele>404.1</ele>
<speed>15.3</speed>
<course>98.7</course>
<desc>Speed 15.3 km/h Distance 37.69 km</desc>
<time>2010-06-13T09:09:50.05</time>
<name>8950</name>
</trkpt>
<trkpt lat="49.190760" lon="11.852157">
<ele>405.1</ele>
<speed>15.3</speed>
<course>96.5</course>
<desc>Speed 15.3 km/h Distance 37.70 km</desc>
<time>2010-06-13T09:09:51.05</time>
<name>8951</name>
</trkpt>
<trkpt lat="49.190747" lon="11.852337">
<ele>407.6</ele>
<speed>20.9</speed>
<course>95.7</course>
<desc>Speed 20.9 km/h Distance 37.71 km</desc>
<time>2010-06-13T09:09:53.05</time>
<name>8952</name>
</trkpt>
<trkpt lat="49.190740" lon="11.852438">
<ele>409.2</ele>
<speed>21.4</speed>
<course>106.6</course>
<desc>Speed 21.4 km/h Distance 37.72 km</desc>
<time>2010-06-13T09:09:54.05</time>
<name>8953</name>
</trkpt>
<trkpt lat="49.190693" lon="11.852678">
<ele>408.6</ele>
<speed>22.4</speed>
<course>92.8</course>
<desc>Speed 22.4 km/h Distance 37.74 km</desc>
<time>2010-06-13T09:09:56.05</time>
<name>8954</name>
</trkpt>
<trkpt lat="49.190690" lon="11.852783">
<ele>409.0</ele>
<speed>22.8</speed>
<course>88.6</course>
<desc>Speed 22.8 km/h Distance 37.74 km</desc>
<time>2010-06-13T09:09:57.05</time>
<name>8955</name>
</trkpt>
<trkpt lat="49.190692" lon="11.852887">
<ele>410.0</ele>
<speed>24.7</speed>
<course>88.8</course>
<desc>Speed 24.7 km/h Distance 37.75 km</desc>
<time>2010-06-13T09:09:58.05</time>
<name>8956</name>
</trkpt>
<trkpt lat="49.190693" lon="11.853007">
<ele>412.2</ele>
<speed>25.1</speed>
<course>85.8</course>
<desc>Speed 25.1 km/h Distance 37.76 km</desc>
<time>2010-06-13T09:09:59.05</time>
<name>8957</name>
</trkpt>
<trkpt lat="49.190698" lon="11.853110">
<ele>413.2</ele>
<speed>24.6</speed>
<course>87.6</course>
<desc>Speed 24.6 km/h Distance 37.77 km</desc>
<time>2010-06-13T09:10:00.05</time>
<name>8958</name>
</trkpt>
<trkpt lat="49.190702" lon="11.853230">
<ele>414.7</ele>
<speed>26.1</speed>
<course>90.0</course>
<desc>Speed 26.1 km/h Distance 37.78 km</desc>
<time>2010-06-13T09:10:01.05</time>
<name>8959</name>
</trkpt>
<trkpt lat="49.190702" lon="11.853343">
<ele>415.9</ele>
<speed>25.8</speed>
<course>100.2</course>
<desc>Speed 25.8 km/h Distance 37.78 km</desc>
<time>2010-06-13T09:10:02.05</time>
<name>8960</name>
</trkpt>
<trkpt lat="49.190688" lon="11.853457">
<ele>416.6</ele>
<speed>24.0</speed>
<course>111.9</course>
<desc>Speed 24.0 km/h Distance 37.79 km</desc>
<time>2010-06-13T09:10:03.05</time>
<name>8961</name>
</trkpt>
<trkpt lat="49.190627" lon="11.853692">
<ele>419.4</ele>
<speed>22.9</speed>
<course>107.9</course>
<desc>Speed 22.9 km/h Distance 37.81 km</desc>
<time>2010-06-13T09:10:05.05</time>
<name>8962</name>
</trkpt>
<trkpt lat="49.190578" lon="11.853920">
<ele>422.8</ele>
<speed>22.1</speed>
<course>102.5</course>
<desc>Speed 22.1 km/h Distance 37.83 km</desc>
<time>2010-06-13T09:10:07.05</time>
<name>8963</name>
</trkpt>
<trkpt lat="49.190547" lon="11.854138">
<ele>426.1</ele>
<speed>21.6</speed>
<course>98.3</course>
<desc>Speed 21.6 km/h Distance 37.85 km</desc>
<time>2010-06-13T09:10:09.05</time>
<name>8964</name>
</trkpt>
<trkpt lat="49.190537" lon="11.854243">
<ele>427.4</ele>
<speed>20.9</speed>
<course>96.2</course>
<desc>Speed 20.9 km/h Distance 37.85 km</desc>
<time>2010-06-13T09:10:10.05</time>
<name>8965</name>
</trkpt>
<trkpt lat="49.190530" lon="11.854337">
<ele>428.5</ele>
<speed>19.5</speed>
<course>100.8</course>
<desc>Speed 19.5 km/h Distance 37.86 km</desc>
<time>2010-06-13T09:10:11.05</time>
<name>8966</name>
</trkpt>
<trkpt lat="49.190518" lon="11.854430">
<ele>430.4</ele>
<speed>18.4</speed>
<course>97.4</course>
<desc>Speed 18.4 km/h Distance 37.87 km</desc>
<time>2010-06-13T09:10:12.05</time>
<name>8967</name>
</trkpt>
<trkpt lat="49.190512" lon="11.854508">
<ele>432.2</ele>
<speed>16.0</speed>
<course>114.0</course>
<desc>Speed 16.0 km/h Distance 37.87 km</desc>
<time>2010-06-13T09:10:13.05</time>
<name>8968</name>
</trkpt>
<trkpt lat="49.190458" lon="11.854692">
<ele>436.5</ele>
<speed>12.7</speed>
<course>129.2</course>
<desc>Speed 12.7 km/h Distance 37.89 km</desc>
<time>2010-06-13T09:10:15.05</time>
<name>8969</name>
</trkpt>
<trkpt lat="49.190432" lon="11.854742">
<ele>438.2</ele>
<speed>10.5</speed>
<course>139.7</course>
<desc>Speed 10.5 km/h Distance 37.89 km</desc>
<time>2010-06-13T09:10:16.05</time>
<name>8970</name>
</trkpt>
<trkpt lat="49.190398" lon="11.854785">
<ele>440.6</ele>
<speed>9.7</speed>
<course>146.8</course>
<desc>Speed 9.7 km/h Distance 37.90 km</desc>
<time>2010-06-13T09:10:17.05</time>
<name>8971</name>
</trkpt>
<trkpt lat="49.190310" lon="11.854873">
<ele>442.5</ele>
<speed>8.1</speed>
<course>156.5</course>
<desc>Speed 8.1 km/h Distance 37.91 km</desc>
<time>2010-06-13T09:10:19.05</time>
<name>8972</name>
</trkpt>
<trkpt lat="49.190240" lon="11.854920">
<ele>447.8</ele>
<speed>8.1</speed>
<course>154.4</course>
<desc>Speed 8.1 km/h Distance 37.92 km</desc>
<time>2010-06-13T09:10:21.05</time>
<name>8973</name>
</trkpt>
<trkpt lat="49.190165" lon="11.854975">
<ele>453.1</ele>
<speed>7.8</speed>
<course>156.5</course>
<desc>Speed 7.8 km/h Distance 37.93 km</desc>
<time>2010-06-13T09:10:23.05</time>
<name>8974</name>
</trkpt>
<trkpt lat="49.189980" lon="11.855098">
<ele>461.4</ele>
<speed>9.5</speed>
<course>152.5</course>
<desc>Speed 9.5 km/h Distance 37.95 km</desc>
<time>2010-06-13T09:10:26.05</time>
<name>8975</name>
</trkpt>
<trkpt lat="49.189890" lon="11.855170">
<ele>466.2</ele>
<speed>10.9</speed>
<course>153.0</course>
<desc>Speed 10.9 km/h Distance 37.96 km</desc>
<time>2010-06-13T09:10:28.05</time>
<name>8976</name>
</trkpt>
<trkpt lat="49.189807" lon="11.855235">
<ele>473.4</ele>
<speed>12.3</speed>
<course>151.6</course>
<desc>Speed 12.3 km/h Distance 37.97 km</desc>
<time>2010-06-13T09:10:30.05</time>
<name>8977</name>
</trkpt>
<trkpt lat="49.189768" lon="11.855267">
<ele>476.3</ele>
<speed>12.7</speed>
<course>152.7</course>
<desc>Speed 12.7 km/h Distance 37.98 km</desc>
<time>2010-06-13T09:10:31.05</time>
<name>8978</name>
</trkpt>
<trkpt lat="49.189595" lon="11.855403">
<ele>489.7</ele>
<speed>14.6</speed>
<course>153.3</course>
<desc>Speed 14.6 km/h Distance 38.00 km</desc>
<time>2010-06-13T09:10:34.05</time>
<name>8979</name>
</trkpt>
<trkpt lat="49.189472" lon="11.855498">
<ele>499.7</ele>
<speed>16.7</speed>
<course>154.7</course>
<desc>Speed 16.7 km/h Distance 38.01 km</desc>
<time>2010-06-13T09:10:36.05</time>
<name>8980</name>
</trkpt>
<trkpt lat="49.189423" lon="11.855533">
<ele>502.0</ele>
<speed>15.9</speed>
<course>155.6</course>
<desc>Speed 15.9 km/h Distance 38.02 km</desc>
<time>2010-06-13T09:10:37.05</time>
<name>8981</name>
</trkpt>
<trkpt lat="49.189380" lon="11.855563">
<ele>503.5</ele>
<speed>15.8</speed>
<course>152.4</course>
<desc>Speed 15.8 km/h Distance 38.02 km</desc>
<time>2010-06-13T09:10:38.05</time>
<name>8982</name>
</trkpt>
<trkpt lat="49.189338" lon="11.855597">
<ele>504.9</ele>
<speed>16.5</speed>
<course>154.2</course>
<desc>Speed 16.5 km/h Distance 38.03 km</desc>
<time>2010-06-13T09:10:39.05</time>
<name>8983</name>
</trkpt>
<trkpt lat="49.189293" lon="11.855630">
<ele>506.1</ele>
<speed>17.7</speed>
<course>153.1</course>
<desc>Speed 17.7 km/h Distance 38.03 km</desc>
<time>2010-06-13T09:10:40.05</time>
<name>8984</name>
</trkpt>
<trkpt lat="49.189248" lon="11.855665">
<ele>506.6</ele>
<speed>19.3</speed>
<course>152.8</course>
<desc>Speed 19.3 km/h Distance 38.04 km</desc>
<time>2010-06-13T09:10:41.05</time>
<name>8985</name>
</trkpt>
<trkpt lat="49.189202" lon="11.855702">
<ele>506.6</ele>
<speed>19.6</speed>
<course>150.1</course>
<desc>Speed 19.6 km/h Distance 38.05 km</desc>
<time>2010-06-13T09:10:42.05</time>
<name>8986</name>
</trkpt>
<trkpt lat="49.189160" lon="11.855738">
<ele>505.7</ele>
<speed>19.9</speed>
<course>151.1</course>
<desc>Speed 19.9 km/h Distance 38.05 km</desc>
<time>2010-06-13T09:10:43.05</time>
<name>8987</name>
</trkpt>
<trkpt lat="49.189117" lon="11.855775">
<ele>504.8</ele>
<speed>20.0</speed>
<course>152.0</course>
<desc>Speed 20.0 km/h Distance 38.06 km</desc>
<time>2010-06-13T09:10:44.05</time>
<name>8988</name>
</trkpt>
<trkpt lat="49.189072" lon="11.855812">
<ele>504.0</ele>
<speed>21.3</speed>
<course>152.9</course>
<desc>Speed 21.3 km/h Distance 38.06 km</desc>
<time>2010-06-13T09:10:45.05</time>
<name>8989</name>
</trkpt>
<trkpt lat="49.189018" lon="11.855853">
<ele>503.1</ele>
<speed>24.8</speed>
<course>145.4</course>
<desc>Speed 24.8 km/h Distance 38.07 km</desc>
<time>2010-06-13T09:10:46.05</time>
<name>8990</name>
</trkpt>
<trkpt lat="49.188958" lon="11.855917">
<ele>499.9</ele>
<speed>27.6</speed>
<course>146.1</course>
<desc>Speed 27.6 km/h Distance 38.08 km</desc>
<time>2010-06-13T09:10:47.05</time>
<name>8991</name>
</trkpt>
<trkpt lat="49.188897" lon="11.855980">
<ele>497.7</ele>
<speed>29.0</speed>
<course>144.2</course>
<desc>Speed 29.0 km/h Distance 38.09 km</desc>
<time>2010-06-13T09:10:48.05</time>
<name>8992</name>
</trkpt>
<trkpt lat="49.188833" lon="11.856050">
<ele>495.7</ele>
<speed>31.6</speed>
<course>141.8</course>
<desc>Speed 31.6 km/h Distance 38.09 km</desc>
<time>2010-06-13T09:10:49.05</time>
<name>8993</name>
</trkpt>
<trkpt lat="49.188768" lon="11.856128">
<ele>493.2</ele>
<speed>34.7</speed>
<course>138.9</course>
<desc>Speed 34.7 km/h Distance 38.10 km</desc>
<time>2010-06-13T09:10:50.05</time>
<name>8994</name>
</trkpt>
<trkpt lat="49.188698" lon="11.856222">
<ele>491.9</ele>
<speed>36.2</speed>
<course>133.9</course>
<desc>Speed 36.2 km/h Distance 38.11 km</desc>
<time>2010-06-13T09:10:51.05</time>
<name>8995</name>
</trkpt>
<trkpt lat="49.188633" lon="11.856325">
<ele>491.0</ele>
<speed>35.1</speed>
<course>130.0</course>
<desc>Speed 35.1 km/h Distance 38.12 km</desc>
<time>2010-06-13T09:10:52.05</time>
<name>8996</name>
</trkpt>
<trkpt lat="49.188577" lon="11.856428">
<ele>489.8</ele>
<speed>33.8</speed>
<course>123.6</course>
<desc>Speed 33.8 km/h Distance 38.13 km</desc>
<time>2010-06-13T09:10:53.05</time>
<name>8997</name>
</trkpt>
<trkpt lat="49.188527" lon="11.856543">
<ele>489.2</ele>
<speed>34.0</speed>
<course>118.9</course>
<desc>Speed 34.0 km/h Distance 38.14 km</desc>
<time>2010-06-13T09:10:54.05</time>
<name>8998</name>
</trkpt>
<trkpt lat="49.188483" lon="11.856663">
<ele>488.2</ele>
<speed>35.5</speed>
<course>115.6</course>
<desc>Speed 35.5 km/h Distance 38.15 km</desc>
<time>2010-06-13T09:10:55.05</time>
<name>8999</name>
</trkpt>
<trkpt lat="49.188442" lon="11.856797">
<ele>487.7</ele>
<speed>37.3</speed>
<course>109.4</course>
<desc>Speed 37.3 km/h Distance 38.16 km</desc>
<time>2010-06-13T09:10:56.05</time>
<name>9000</name>
</trkpt>
<trkpt lat="49.188408" lon="11.856942">
<ele>487.2</ele>
<speed>38.8</speed>
<course>103.2</course>
<desc>Speed 38.8 km/h Distance 38.18 km</desc>
<time>2010-06-13T09:10:57.05</time>
<name>9001</name>
</trkpt>
<trkpt lat="49.188385" lon="11.857093">
<ele>486.6</ele>
<speed>40.5</speed>
<course>102.0</course>
<desc>Speed 40.5 km/h Distance 38.19 km</desc>
<time>2010-06-13T09:10:58.05</time>
<name>9002</name>
</trkpt>
<trkpt lat="49.188362" lon="11.857262">
<ele>488.1</ele>
<speed>41.3</speed>
<course>98.0</course>
<desc>Speed 41.3 km/h Distance 38.20 km</desc>
<time>2010-06-13T09:10:59.05</time>
<name>9003</name>
</trkpt>
<trkpt lat="49.188347" lon="11.857425">
<ele>489.4</ele>
<speed>39.8</speed>
<course>90.0</course>
<desc>Speed 39.8 km/h Distance 38.21 km</desc>
<time>2010-06-13T09:11:00.05</time>
<name>9004</name>
</trkpt>
<trkpt lat="49.188347" lon="11.857575">
<ele>489.0</ele>
<speed>37.8</speed>
<course>92.1</course>
<desc>Speed 37.8 km/h Distance 38.22 km</desc>
<time>2010-06-13T09:11:01.05</time>
<name>9005</name>
</trkpt>
<trkpt lat="49.188343" lon="11.857717">
<ele>488.8</ele>
<speed>35.6</speed>
<course>91.1</course>
<desc>Speed 35.6 km/h Distance 38.23 km</desc>
<time>2010-06-13T09:11:02.05</time>
<name>9006</name>
</trkpt>
<trkpt lat="49.188342" lon="11.857855">
<ele>489.1</ele>
<speed>34.8</speed>
<course>88.9</course>
<desc>Speed 34.8 km/h Distance 38.24 km</desc>
<time>2010-06-13T09:11:03.05</time>
<name>9007</name>
</trkpt>
<trkpt lat="49.188343" lon="11.857987">
<ele>488.4</ele>
<speed>34.3</speed>
<course>92.2</course>
<desc>Speed 34.3 km/h Distance 38.25 km</desc>
<time>2010-06-13T09:11:04.05</time>
<name>9008</name>
</trkpt>
<trkpt lat="49.188340" lon="11.858120">
<ele>489.5</ele>
<speed>33.2</speed>
<course>88.8</course>
<desc>Speed 33.2 km/h Distance 38.26 km</desc>
<time>2010-06-13T09:11:05.05</time>
<name>9009</name>
</trkpt>
<trkpt lat="49.188342" lon="11.858247">
<ele>489.5</ele>
<speed>33.7</speed>
<course>88.9</course>
<desc>Speed 33.7 km/h Distance 38.27 km</desc>
<time>2010-06-13T09:11:06.05</time>
<name>9010</name>
</trkpt>
<trkpt lat="49.188343" lon="11.858385">
<ele>489.6</ele>
<speed>33.8</speed>
<course>84.3</course>
<desc>Speed 33.8 km/h Distance 38.28 km</desc>
<time>2010-06-13T09:11:07.05</time>
<name>9011</name>
</trkpt>
<trkpt lat="49.188352" lon="11.858513">
<ele>488.9</ele>
<speed>33.3</speed>
<course>83.3</course>
<desc>Speed 33.3 km/h Distance 38.29 km</desc>
<time>2010-06-13T09:11:08.05</time>
<name>9012</name>
</trkpt>
<trkpt lat="49.188370" lon="11.858752">
<ele>487.5</ele>
<speed>31.9</speed>
<course>81.4</course>
<desc>Speed 31.9 km/h Distance 38.31 km</desc>
<time>2010-06-13T09:11:10.65</time>
<name>9013</name>
</trkpt>
<trkpt lat="49.188382" lon="11.858870">
<ele>486.7</ele>
<speed>30.3</speed>
<course>78.7</course>
<desc>Speed 30.3 km/h Distance 38.32 km</desc>
<time>2010-06-13T09:11:12.05</time>
<name>9014</name>
</trkpt>
<trkpt lat="49.188395" lon="11.858972">
<ele>485.8</ele>
<speed>27.6</speed>
<course>90.0</course>
<desc>Speed 27.6 km/h Distance 38.32 km</desc>
<time>2010-06-13T09:11:13.05</time>
<name>9015</name>
</trkpt>
<trkpt lat="49.188395" lon="11.859095">
<ele>488.4</ele>
<speed>25.1</speed>
<course>82.6</course>
<desc>Speed 25.1 km/h Distance 38.33 km</desc>
<time>2010-06-13T09:11:14.05</time>
<name>9016</name>
</trkpt>
<trkpt lat="49.188403" lon="11.859193">
<ele>489.3</ele>
<speed>21.7</speed>
<course>58.1</course>
<desc>Speed 21.7 km/h Distance 38.34 km</desc>
<time>2010-06-13T09:11:15.05</time>
<name>9017</name>
</trkpt>
<trkpt lat="49.188425" lon="11.859247">
<ele>486.6</ele>
<speed>15.6</speed>
<course>90.0</course>
<desc>Speed 15.6 km/h Distance 38.35 km</desc>
<time>2010-06-13T09:11:16.05</time>
<name>9018</name>
</trkpt>
<trkpt lat="49.188425" lon="11.859285">
<ele>485.1</ele>
<speed>10.7</speed>
<course>183.5</course>
<desc>Speed 10.7 km/h Distance 38.35 km</desc>
<time>2010-06-13T09:11:17.05</time>
<name>9019</name>
</trkpt>
<trkpt lat="49.188392" lon="11.859282">
<ele>481.0</ele>
<speed>11.7</speed>
<course>218.9</course>
<desc>Speed 11.7 km/h Distance 38.35 km</desc>
<time>2010-06-13T09:11:19.05</time>
<name>9020</name>
</trkpt>
<trkpt lat="49.188363" lon="11.859247">
<ele>478.3</ele>
<speed>14.6</speed>
<course>214.3</course>
<desc>Speed 14.6 km/h Distance 38.36 km</desc>
<time>2010-06-13T09:11:20.05</time>
<name>9021</name>
</trkpt>
<trkpt lat="49.188325" lon="11.859207">
<ele>476.1</ele>
<speed>19.1</speed>
<course>209.3</course>
<desc>Speed 19.1 km/h Distance 38.36 km</desc>
<time>2010-06-13T09:11:21.05</time>
<name>9022</name>
</trkpt>
<trkpt lat="49.188278" lon="11.859167">
<ele>473.7</ele>
<speed>22.2</speed>
<course>207.9</course>
<desc>Speed 22.2 km/h Distance 38.37 km</desc>
<time>2010-06-13T09:11:22.05</time>
<name>9023</name>
</trkpt>
<trkpt lat="49.188217" lon="11.859117">
<ele>474.2</ele>
<speed>23.4</speed>
<course>212.3</course>
<desc>Speed 23.4 km/h Distance 38.37 km</desc>
<time>2010-06-13T09:11:23.05</time>
<name>9024</name>
</trkpt>
<trkpt lat="49.188165" lon="11.859067">
<ele>473.7</ele>
<speed>24.4</speed>
<course>235.6</course>
<desc>Speed 24.4 km/h Distance 38.38 km</desc>
<time>2010-06-13T09:11:24.05</time>
<name>9025</name>
</trkpt>
<trkpt lat="49.188130" lon="11.858988">
<ele>471.3</ele>
<speed>23.7</speed>
<course>214.0</course>
<desc>Speed 23.7 km/h Distance 38.39 km</desc>
<time>2010-06-13T09:11:25.05</time>
<name>9026</name>
</trkpt>
<trkpt lat="49.188080" lon="11.858937">
<ele>468.9</ele>
<speed>22.7</speed>
<course>182.1</course>
<desc>Speed 22.7 km/h Distance 38.40 km</desc>
<time>2010-06-13T09:11:26.05</time>
<name>9027</name>
</trkpt>
<trkpt lat="49.187930" lon="11.858928">
<ele>469.3</ele>
<speed>22.9</speed>
<course>184.1</course>
<desc>Speed 22.9 km/h Distance 38.41 km</desc>
<time>2010-06-13T09:11:28.05</time>
<name>9028</name>
</trkpt>
<trkpt lat="49.187868" lon="11.858922">
<ele>470.2</ele>
<speed>21.3</speed>
<course>176.4</course>
<desc>Speed 21.3 km/h Distance 38.42 km</desc>
<time>2010-06-13T09:11:29.05</time>
<name>9029</name>
</trkpt>
<trkpt lat="49.187815" lon="11.858927">
<ele>470.3</ele>
<speed>19.9</speed>
<course>170.4</course>
<desc>Speed 19.9 km/h Distance 38.42 km</desc>
<time>2010-06-13T09:11:30.05</time>
<name>9030</name>
</trkpt>
<trkpt lat="49.187763" lon="11.858940">
<ele>471.1</ele>
<speed>18.7</speed>
<course>177.3</course>
<desc>Speed 18.7 km/h Distance 38.43 km</desc>
<time>2010-06-13T09:11:31.05</time>
<name>9031</name>
</trkpt>
<trkpt lat="49.187718" lon="11.858943">
<ele>472.1</ele>
<speed>16.6</speed>
<course>187.0</course>
<desc>Speed 16.6 km/h Distance 38.44 km</desc>
<time>2010-06-13T09:11:32.05</time>
<name>9032</name>
</trkpt>
<trkpt lat="49.187673" lon="11.858935">
<ele>473.0</ele>
<speed>15.3</speed>
<course>177.8</course>
<desc>Speed 15.3 km/h Distance 38.44 km</desc>
<time>2010-06-13T09:11:33.05</time>
<name>9033</name>
</trkpt>
<trkpt lat="49.187638" lon="11.858937">
<ele>473.3</ele>
<speed>14.6</speed>
<course>160.9</course>
<desc>Speed 14.6 km/h Distance 38.44 km</desc>
<time>2010-06-13T09:11:34.05</time>
<name>9034</name>
</trkpt>
<trkpt lat="49.187610" lon="11.858952">
<ele>473.8</ele>
<speed>13.4</speed>
<course>163.8</course>
<desc>Speed 13.4 km/h Distance 38.45 km</desc>
<time>2010-06-13T09:11:35.05</time>
<name>9035</name>
</trkpt>
<trkpt lat="49.187580" lon="11.858965">
<ele>473.6</ele>
<speed>12.2</speed>
<course>165.4</course>
<desc>Speed 12.2 km/h Distance 38.45 km</desc>
<time>2010-06-13T09:11:36.05</time>
<name>9036</name>
</trkpt>
<trkpt lat="49.187555" lon="11.858975">
<ele>473.8</ele>
<speed>10.7</speed>
<course>152.0</course>
<desc>Speed 10.7 km/h Distance 38.45 km</desc>
<time>2010-06-13T09:11:37.05</time>
<name>9037</name>
</trkpt>
<trkpt lat="49.187537" lon="11.858990">
<ele>473.9</ele>
<speed>8.7</speed>
<course>166.7</course>
<desc>Speed 8.7 km/h Distance 38.46 km</desc>
<time>2010-06-13T09:11:38.05</time>
<name>9038</name>
</trkpt>
<trkpt lat="49.187518" lon="11.858997">
<ele>474.1</ele>
<speed>8.1</speed>
<course>191.4</course>
<desc>Speed 8.1 km/h Distance 38.46 km</desc>
<time>2010-06-13T09:11:39.05</time>
<name>9039</name>
</trkpt>
<trkpt lat="49.187497" lon="11.858990">
<ele>475.4</ele>
<speed>8.7</speed>
<course>185.6</course>
<desc>Speed 8.7 km/h Distance 38.46 km</desc>
<time>2010-06-13T09:11:40.05</time>
<name>9040</name>
</trkpt>
<trkpt lat="49.187473" lon="11.858987">
<ele>476.3</ele>
<speed>8.8</speed>
<course>180.0</course>
<desc>Speed 8.8 km/h Distance 38.46 km</desc>
<time>2010-06-13T09:11:41.05</time>
<name>9041</name>
</trkpt>
<trkpt lat="49.187452" lon="11.858987">
<ele>476.7</ele>
<speed>8.2</speed>
<course>167.9</course>
<desc>Speed 8.2 km/h Distance 38.47 km</desc>
<time>2010-06-13T09:11:42.05</time>
<name>9042</name>
</trkpt>
<trkpt lat="49.187432" lon="11.858993">
<ele>476.4</ele>
<speed>8.3</speed>
<course>185.0</course>
<desc>Speed 8.3 km/h Distance 38.47 km</desc>
<time>2010-06-13T09:11:43.05</time>
<name>9043</name>
</trkpt>
<trkpt lat="49.187407" lon="11.858990">
<ele>476.5</ele>
<speed>8.5</speed>
<course>185.2</course>
<desc>Speed 8.5 km/h Distance 38.47 km</desc>
<time>2010-06-13T09:11:44.05</time>
<name>9044</name>
</trkpt>
<trkpt lat="49.187383" lon="11.858987">
<ele>476.8</ele>
<speed>8.1</speed>
<course>174.1</course>
<desc>Speed 8.1 km/h Distance 38.47 km</desc>
<time>2010-06-13T09:11:45.05</time>
<name>9045</name>
</trkpt>
<trkpt lat="49.187362" lon="11.858990">
<ele>477.1</ele>
<speed>8.7</speed>
<course>178.8</course>
<desc>Speed 8.7 km/h Distance 38.48 km</desc>
<time>2010-06-13T09:11:46.05</time>
<name>9046</name>
</trkpt>
<trkpt lat="49.187342" lon="11.858990">
<ele>477.6</ele>
<speed>8.5</speed>
<course>194.6</course>
<desc>Speed 8.5 km/h Distance 38.48 km</desc>
<time>2010-06-13T09:11:47.05</time>
<name>9047</name>
</trkpt>
<trkpt lat="49.187317" lon="11.858980">
<ele>478.1</ele>
<speed>7.7</speed>
<course>182.8</course>
<desc>Speed 7.7 km/h Distance 38.48 km</desc>
<time>2010-06-13T09:11:48.05</time>
<name>9048</name>
</trkpt>
<trkpt lat="49.187300" lon="11.858978">
<ele>478.2</ele>
<speed>7.1</speed>
<course>182.5</course>
<desc>Speed 7.1 km/h Distance 38.48 km</desc>
<time>2010-06-13T09:11:49.05</time>
<name>9049</name>
</trkpt>
<trkpt lat="49.187282" lon="11.858977">
<ele>478.8</ele>
<speed>7.3</speed>
<course>187.0</course>
<desc>Speed 7.3 km/h Distance 38.49 km</desc>
<time>2010-06-13T09:11:50.05</time>
<name>9050</name>
</trkpt>
<trkpt lat="49.187263" lon="11.858973">
<ele>479.5</ele>
<speed>6.9</speed>
<course>184.5</course>
<desc>Speed 6.9 km/h Distance 38.49 km</desc>
<time>2010-06-13T09:11:51.05</time>
<name>9051</name>
</trkpt>
<trkpt lat="49.187245" lon="11.858972">
<ele>479.9</ele>
<speed>7.0</speed>
<course>186.1</course>
<desc>Speed 7.0 km/h Distance 38.49 km</desc>
<time>2010-06-13T09:11:52.05</time>
<name>9052</name>
</trkpt>
<trkpt lat="49.187225" lon="11.858968">
<ele>480.2</ele>
<speed>7.1</speed>
<course>138.8</course>
<desc>Speed 7.1 km/h Distance 38.49 km</desc>
<time>2010-06-13T09:11:53.05</time>
<name>9053</name>
</trkpt>
<trkpt lat="49.187215" lon="11.858982">
<ele>479.4</ele>
<speed>5.9</speed>
<course>175.3</course>
<desc>Speed 5.9 km/h Distance 38.49 km</desc>
<time>2010-06-13T09:11:54.05</time>
<name>9054</name>
</trkpt>
<trkpt lat="49.187203" lon="11.858983">
<ele>479.5</ele>
<speed>6.0</speed>
<course>180.0</course>
<desc>Speed 6.0 km/h Distance 38.49 km</desc>
<time>2010-06-13T09:11:55.05</time>
<name>9055</name>
</trkpt>
<trkpt lat="49.187187" lon="11.858983">
<ele>480.0</ele>
<speed>6.3</speed>
<course>184.1</course>
<desc>Speed 6.3 km/h Distance 38.50 km</desc>
<time>2010-06-13T09:11:56.05</time>
<name>9056</name>
</trkpt>
<trkpt lat="49.187170" lon="11.858982">
<ele>480.3</ele>
<speed>6.5</speed>
<course>193.6</course>
<desc>Speed 6.5 km/h Distance 38.50 km</desc>
<time>2010-06-13T09:11:57.05</time>
<name>9057</name>
</trkpt>
<trkpt lat="49.187152" lon="11.858975">
<ele>480.4</ele>
<speed>6.6</speed>
<course>206.8</course>
<desc>Speed 6.6 km/h Distance 38.50 km</desc>
<time>2010-06-13T09:11:58.05</time>
<name>9058</name>
</trkpt>
<trkpt lat="49.187130" lon="11.858958">
<ele>481.9</ele>
<speed>6.9</speed>
<course>193.1</course>
<desc>Speed 6.9 km/h Distance 38.50 km</desc>
<time>2010-06-13T09:11:59.05</time>
<name>9059</name>
</trkpt>
<trkpt lat="49.187112" lon="11.858952">
<ele>482.5</ele>
<speed>6.9</speed>
<course>197.9</course>
<desc>Speed 6.9 km/h Distance 38.51 km</desc>
<time>2010-06-13T09:12:00.05</time>
<name>9060</name>
</trkpt>
<trkpt lat="49.187095" lon="11.858943">
<ele>483.2</ele>
<speed>6.6</speed>
<course>201.9</course>
<desc>Speed 6.6 km/h Distance 38.51 km</desc>
<time>2010-06-13T09:12:01.05</time>
<name>9061</name>
</trkpt>
<trkpt lat="49.187073" lon="11.858930">
<ele>483.4</ele>
<speed>6.7</speed>
<course>193.5</course>
<desc>Speed 6.7 km/h Distance 38.51 km</desc>
<time>2010-06-13T09:12:02.05</time>
<name>9062</name>
</trkpt>
<trkpt lat="49.187060" lon="11.858925">
<ele>483.3</ele>
<speed>6.2</speed>
<course>218.1</course>
<desc>Speed 6.2 km/h Distance 38.51 km</desc>
<time>2010-06-13T09:12:03.05</time>
<name>9063</name>
</trkpt>
<trkpt lat="49.187043" lon="11.858905">
<ele>484.6</ele>
<speed>7.2</speed>
<course>177.8</course>
<desc>Speed 7.2 km/h Distance 38.51 km</desc>
<time>2010-06-13T09:12:04.05</time>
<name>9064</name>
</trkpt>
<trkpt lat="49.187032" lon="11.858905">
<ele>484.8</ele>
<speed>6.7</speed>
<course>207.7</course>
<desc>Speed 6.7 km/h Distance 38.51 km</desc>
<time>2010-06-13T09:12:05.05</time>
<name>9065</name>
</trkpt>
<trkpt lat="49.187015" lon="11.858892">
<ele>485.5</ele>
<speed>6.6</speed>
<course>201.5</course>
<desc>Speed 6.6 km/h Distance 38.52 km</desc>
<time>2010-06-13T09:12:06.05</time>
<name>9066</name>
</trkpt>
<trkpt lat="49.186998" lon="11.858882">
<ele>485.7</ele>
<speed>6.7</speed>
<course>200.8</course>
<desc>Speed 6.7 km/h Distance 38.52 km</desc>
<time>2010-06-13T09:12:07.05</time>
<name>9067</name>
</trkpt>
<trkpt lat="49.186978" lon="11.858870">
<ele>486.2</ele>
<speed>6.7</speed>
<course>198.1</course>
<desc>Speed 6.7 km/h Distance 38.52 km</desc>
<time>2010-06-13T09:12:08.05</time>
<name>9068</name>
</trkpt>
<trkpt lat="49.186965" lon="11.858863">
<ele>486.3</ele>
<speed>6.1</speed>
<course>208.2</course>
<desc>Speed 6.1 km/h Distance 38.52 km</desc>
<time>2010-06-13T09:12:09.05</time>
<name>9069</name>
</trkpt>
<trkpt lat="49.186947" lon="11.858848">
<ele>486.4</ele>
<speed>6.7</speed>
<course>215.3</course>
<desc>Speed 6.7 km/h Distance 38.53 km</desc>
<time>2010-06-13T09:12:10.05</time>
<name>9070</name>
</trkpt>
<trkpt lat="49.186927" lon="11.858827">
<ele>486.5</ele>
<speed>7.7</speed>
<course>223.1</course>
<desc>Speed 7.7 km/h Distance 38.53 km</desc>
<time>2010-06-13T09:12:11.05</time>
<name>9071</name>
</trkpt>
<trkpt lat="49.186915" lon="11.858810">
<ele>486.5</ele>
<speed>8.2</speed>
<course>210.1</course>
<desc>Speed 8.2 km/h Distance 38.53 km</desc>
<time>2010-06-13T09:12:12.05</time>
<name>9072</name>
</trkpt>
<trkpt lat="49.186900" lon="11.858797">
<ele>486.5</ele>
<speed>7.2</speed>
<course>221.1</course>
<desc>Speed 7.2 km/h Distance 38.53 km</desc>
<time>2010-06-13T09:12:13.05</time>
<name>9073</name>
</trkpt>
<trkpt lat="49.186885" lon="11.858777">
<ele>487.2</ele>
<speed>6.6</speed>
<course>221.7</course>
<desc>Speed 6.6 km/h Distance 38.53 km</desc>
<time>2010-06-13T09:12:14.05</time>
<name>9074</name>
</trkpt>
<trkpt lat="49.186867" lon="11.858752">
<ele>487.6</ele>
<speed>6.6</speed>
<course>221.7</course>
<desc>Speed 6.6 km/h Distance 38.54 km</desc>
<time>2010-06-13T09:12:15.05</time>
<name>9075</name>
</trkpt>
<trkpt lat="49.186848" lon="11.858727">
<ele>487.8</ele>
<speed>7.6</speed>
<course>200.9</course>
<desc>Speed 7.6 km/h Distance 38.54 km</desc>
<time>2010-06-13T09:12:16.05</time>
<name>9076</name>
</trkpt>
<trkpt lat="49.186837" lon="11.858720">
<ele>486.9</ele>
<speed>6.2</speed>
<course>217.7</course>
<desc>Speed 6.2 km/h Distance 38.54 km</desc>
<time>2010-06-13T09:12:17.05</time>
<name>9077</name>
</trkpt>
<trkpt lat="49.186818" lon="11.858698">
<ele>486.8</ele>
<speed>5.9</speed>
<course>226.7</course>
<desc>Speed 5.9 km/h Distance 38.54 km</desc>
<time>2010-06-13T09:12:18.05</time>
<name>9078</name>
</trkpt>
<trkpt lat="49.186805" lon="11.858677">
<ele>487.7</ele>
<speed>6.8</speed>
<course>226.3</course>
<desc>Speed 6.8 km/h Distance 38.55 km</desc>
<time>2010-06-13T09:12:19.05</time>
<name>9079</name>
</trkpt>
<trkpt lat="49.186788" lon="11.858650">
<ele>487.7</ele>
<speed>7.0</speed>
<course>226.3</course>
<desc>Speed 7.0 km/h Distance 38.55 km</desc>
<time>2010-06-13T09:12:20.05</time>
<name>9080</name>
</trkpt>
<trkpt lat="49.186772" lon="11.858623">
<ele>487.9</ele>
<speed>7.6</speed>
<course>228.8</course>
<desc>Speed 7.6 km/h Distance 38.55 km</desc>
<time>2010-06-13T09:12:21.05</time>
<name>9081</name>
</trkpt>
<trkpt lat="49.186758" lon="11.858600">
<ele>488.0</ele>
<speed>6.9</speed>
<course>220.0</course>
<desc>Speed 6.9 km/h Distance 38.55 km</desc>
<time>2010-06-13T09:12:22.05</time>
<name>9082</name>
</trkpt>
<trkpt lat="49.186747" lon="11.858585">
<ele>488.4</ele>
<speed>6.7</speed>
<course>220.1</course>
<desc>Speed 6.7 km/h Distance 38.55 km</desc>
<time>2010-06-13T09:12:23.05</time>
<name>9083</name>
</trkpt>
<trkpt lat="49.186735" lon="11.858570">
<ele>488.7</ele>
<speed>6.2</speed>
<course>221.0</course>
<desc>Speed 6.2 km/h Distance 38.56 km</desc>
<time>2010-06-13T09:12:24.05</time>
<name>9084</name>
</trkpt>
<trkpt lat="49.186725" lon="11.858557">
<ele>489.0</ele>
<speed>6.7</speed>
<course>219.4</course>
<desc>Speed 6.7 km/h Distance 38.56 km</desc>
<time>2010-06-13T09:12:25.05</time>
<name>9085</name>
</trkpt>
<trkpt lat="49.186712" lon="11.858540">
<ele>489.3</ele>
<speed>5.9</speed>
<course>238.6</course>
<desc>Speed 5.9 km/h Distance 38.56 km</desc>
<time>2010-06-13T09:12:26.05</time>
<name>9086</name>
</trkpt>
<trkpt lat="49.186705" lon="11.858523">
<ele>489.4</ele>
<speed>5.0</speed>
<course>230.1</course>
<desc>Speed 5.0 km/h Distance 38.56 km</desc>
<time>2010-06-13T09:12:27.05</time>
<name>9087</name>
</trkpt>
<trkpt lat="49.186695" lon="11.858505">
<ele>489.6</ele>
<speed>4.0</speed>
<course>90.0</course>
<desc>Speed 4.0 km/h Distance 38.56 km</desc>
<time>2010-06-13T09:12:28.05</time>
<name>9088</name>
</trkpt>
<trkpt lat="49.186695" lon="11.858512">
<ele>489.6</ele>
<speed>1.8</speed>
<course>167.4</course>
<desc>Speed 1.8 km/h Distance 38.56 km</desc>
<time>2010-06-13T09:12:29.05</time>
<name>9089</name>
</trkpt>
<trkpt lat="49.186692" lon="11.858513">
<ele>490.2</ele>
<speed>1.9</speed>
<course>90.0</course>
<desc>Speed 1.9 km/h Distance 38.56 km</desc>
<time>2010-06-13T09:12:30.05</time>
<name>9090</name>
</trkpt>
<trkpt lat="49.186692" lon="11.858522">
<ele>490.6</ele>
<speed>2.5</speed>
<course>146.3</course>
<desc>Speed 2.5 km/h Distance 38.56 km</desc>
<time>2010-06-13T09:12:31.05</time>
<name>9091</name>
</trkpt>
<trkpt lat="49.186688" lon="11.858525">
<ele>490.5</ele>
<speed>3.7</speed>
<course>132.6</course>
<desc>Speed 3.7 km/h Distance 38.56 km</desc>
<time>2010-06-13T09:12:32.05</time>
<name>9092</name>
</trkpt>
<trkpt lat="49.186683" lon="11.858533">
<ele>490.2</ele>
<speed>3.5</speed>
<course>219.0</course>
<desc>Speed 3.5 km/h Distance 38.57 km</desc>
<time>2010-06-13T09:12:33.05</time>
<name>9093</name>
</trkpt>
<trkpt lat="49.186677" lon="11.858525">
<ele>489.8</ele>
<speed>3.7</speed>
<course>212.3</course>
<desc>Speed 3.7 km/h Distance 38.57 km</desc>
<time>2010-06-13T09:12:34.05</time>
<name>9094</name>
</trkpt>
<trkpt lat="49.186672" lon="11.858520">
<ele>489.7</ele>
<speed>4.1</speed>
<course>228.9</course>
<desc>Speed 4.1 km/h Distance 38.57 km</desc>
<time>2010-06-13T09:12:35.05</time>
<name>9095</name>
</trkpt>
<trkpt lat="49.186665" lon="11.858508">
<ele>490.1</ele>
<speed>4.5</speed>
<course>208.6</course>
<desc>Speed 4.5 km/h Distance 38.57 km</desc>
<time>2010-06-13T09:12:36.05</time>
<name>9096</name>
</trkpt>
<trkpt lat="49.186655" lon="11.858500">
<ele>489.6</ele>
<speed>5.1</speed>
<course>223.1</course>
<desc>Speed 5.1 km/h Distance 38.57 km</desc>
<time>2010-06-13T09:12:37.05</time>
<name>9097</name>
</trkpt>
<trkpt lat="49.186643" lon="11.858483">
<ele>489.4</ele>
<speed>4.9</speed>
<course>218.1</course>
<desc>Speed 4.9 km/h Distance 38.57 km</desc>
<time>2010-06-13T09:12:38.05</time>
<name>9098</name>
</trkpt>
<trkpt lat="49.186635" lon="11.858473">
<ele>489.2</ele>
<speed>5.1</speed>
<course>220.0</course>
<desc>Speed 5.1 km/h Distance 38.57 km</desc>
<time>2010-06-13T09:12:39.05</time>
<name>9099</name>
</trkpt>
<trkpt lat="49.186623" lon="11.858458">
<ele>489.4</ele>
<speed>5.0</speed>
<course>224.5</course>
<desc>Speed 5.0 km/h Distance 38.57 km</desc>
<time>2010-06-13T09:12:40.05</time>
<name>9100</name>
</trkpt>
<trkpt lat="49.186617" lon="11.858448">
<ele>489.6</ele>
<speed>4.6</speed>
<course>213.2</course>
<desc>Speed 4.6 km/h Distance 38.58 km</desc>
<time>2010-06-13T09:12:41.05</time>
<name>9101</name>
</trkpt>
<trkpt lat="49.186608" lon="11.858440">
<ele>489.4</ele>
<speed>4.4</speed>
<course>207.9</course>
<desc>Speed 4.4 km/h Distance 38.58 km</desc>
<time>2010-06-13T09:12:42.05</time>
<name>9102</name>
</trkpt>
<trkpt lat="49.186600" lon="11.858433">
<ele>489.0</ele>
<speed>4.4</speed>
<course>204.9</course>
<desc>Speed 4.4 km/h Distance 38.58 km</desc>
<time>2010-06-13T09:12:43.05</time>
<name>9103</name>
</trkpt>
<trkpt lat="49.186588" lon="11.858425">
<ele>488.9</ele>
<speed>4.2</speed>
<course>201.5</course>
<desc>Speed 4.2 km/h Distance 38.58 km</desc>
<time>2010-06-13T09:12:44.05</time>
<name>9104</name>
</trkpt>
<trkpt lat="49.186580" lon="11.858420">
<ele>488.3</ele>
<speed>4.6</speed>
<course>207.5</course>
<desc>Speed 4.6 km/h Distance 38.58 km</desc>
<time>2010-06-13T09:12:45.05</time>
<name>9105</name>
</trkpt>
<trkpt lat="49.186572" lon="11.858413">
<ele>487.9</ele>
<speed>4.2</speed>
<course>213.2</course>
<desc>Speed 4.2 km/h Distance 38.58 km</desc>
<time>2010-06-13T09:12:46.05</time>
<name>9106</name>
</trkpt>
<trkpt lat="49.186563" lon="11.858405">
<ele>488.0</ele>
<speed>4.2</speed>
<course>216.9</course>
<desc>Speed 4.2 km/h Distance 38.58 km</desc>
<time>2010-06-13T09:12:47.05</time>
<name>9107</name>
</trkpt>
<trkpt lat="49.186552" lon="11.858392">
<ele>488.1</ele>
<speed>4.6</speed>
<course>213.3</course>
<desc>Speed 4.6 km/h Distance 38.58 km</desc>
<time>2010-06-13T09:12:48.05</time>
<name>9108</name>
</trkpt>
<trkpt lat="49.186540" lon="11.858380">
<ele>488.2</ele>
<speed>4.6</speed>
<course>204.6</course>
<desc>Speed 4.6 km/h Distance 38.59 km</desc>
<time>2010-06-13T09:12:49.05</time>
<name>9109</name>
</trkpt>
<trkpt lat="49.186528" lon="11.858372">
<ele>487.7</ele>
<speed>4.1</speed>
<course>219.4</course>
<desc>Speed 4.1 km/h Distance 38.59 km</desc>
<time>2010-06-13T09:12:50.05</time>
<name>9110</name>
</trkpt>
<trkpt lat="49.186522" lon="11.858363">
<ele>487.6</ele>
<speed>3.9</speed>
<course>229.1</course>
<desc>Speed 3.9 km/h Distance 38.59 km</desc>
<time>2010-06-13T09:12:51.05</time>
<name>9111</name>
</trkpt>
<trkpt lat="49.186515" lon="11.858352">
<ele>487.9</ele>
<speed>4.3</speed>
<course>249.0</course>
<desc>Speed 4.3 km/h Distance 38.59 km</desc>
<time>2010-06-13T09:12:52.05</time>
<name>9112</name>
</trkpt>
<trkpt lat="49.186512" lon="11.858338">
<ele>488.3</ele>
<speed>4.3</speed>
<course>260.4</course>
<desc>Speed 4.3 km/h Distance 38.59 km</desc>
<time>2010-06-13T09:12:53.05</time>
<name>9113</name>
</trkpt>
<trkpt lat="49.186510" lon="11.858323">
<ele>489.2</ele>
<speed>4.3</speed>
<course>209.8</course>
<desc>Speed 4.3 km/h Distance 38.59 km</desc>
<time>2010-06-13T09:12:54.05</time>
<name>9114</name>
</trkpt>
<trkpt lat="49.186497" lon="11.858312">
<ele>488.8</ele>
<speed>4.8</speed>
<course>216.9</course>
<desc>Speed 4.8 km/h Distance 38.59 km</desc>
<time>2010-06-13T09:12:55.05</time>
<name>9115</name>
</trkpt>
<trkpt lat="49.186485" lon="11.858298">
<ele>488.6</ele>
<speed>4.2</speed>
<course>217.5</course>
<desc>Speed 4.2 km/h Distance 38.59 km</desc>
<time>2010-06-13T09:12:56.05</time>
<name>9116</name>
</trkpt>
<trkpt lat="49.186475" lon="11.858287">
<ele>488.6</ele>
<speed>4.2</speed>
<course>222.6</course>
<desc>Speed 4.2 km/h Distance 38.60 km</desc>
<time>2010-06-13T09:12:57.05</time>
<name>9117</name>
</trkpt>
<trkpt lat="49.186467" lon="11.858275">
<ele>488.9</ele>
<speed>4.7</speed>
<course>240.1</course>
<desc>Speed 4.7 km/h Distance 38.60 km</desc>
<time>2010-06-13T09:12:58.05</time>
<name>9118</name>
</trkpt>
<trkpt lat="49.186462" lon="11.858262">
<ele>489.6</ele>
<speed>4.5</speed>
<course>249.0</course>
<desc>Speed 4.5 km/h Distance 38.60 km</desc>
<time>2010-06-13T09:12:59.05</time>
<name>9119</name>
</trkpt>
<trkpt lat="49.186458" lon="11.858248">
<ele>490.3</ele>
<speed>3.5</speed>
<course>236.7</course>
<desc>Speed 3.5 km/h Distance 38.60 km</desc>
<time>2010-06-13T09:13:00.05</time>
<name>9120</name>
</trkpt>
<trkpt lat="49.186453" lon="11.858237">
<ele>490.9</ele>
<speed>3.4</speed>
<course>213.2</course>
<desc>Speed 3.4 km/h Distance 38.60 km</desc>
<time>2010-06-13T09:13:01.05</time>
<name>9121</name>
</trkpt>
<trkpt lat="49.186445" lon="11.858228">
<ele>491.1</ele>
<speed>4.3</speed>
<course>209.4</course>
<desc>Speed 4.3 km/h Distance 38.60 km</desc>
<time>2010-06-13T09:13:02.05</time>
<name>9122</name>
</trkpt>
<trkpt lat="49.186433" lon="11.858218">
<ele>491.0</ele>
<speed>4.5</speed>
<course>232.6</course>
<desc>Speed 4.5 km/h Distance 38.60 km</desc>
<time>2010-06-13T09:13:03.05</time>
<name>9123</name>
</trkpt>
<trkpt lat="49.186427" lon="11.858205">
<ele>491.6</ele>
<speed>4.6</speed>
<course>222.5</course>
<desc>Speed 4.6 km/h Distance 38.60 km</desc>
<time>2010-06-13T09:13:04.05</time>
<name>9124</name>
</trkpt>
<trkpt lat="49.186418" lon="11.858193">
<ele>492.1</ele>
<speed>4.9</speed>
<course>232.4</course>
<desc>Speed 4.9 km/h Distance 38.61 km</desc>
<time>2010-06-13T09:13:05.05</time>
<name>9125</name>
</trkpt>
<trkpt lat="49.186412" lon="11.858180">
<ele>492.5</ele>
<speed>4.5</speed>
<course>217.3</course>
<desc>Speed 4.5 km/h Distance 38.61 km</desc>
<time>2010-06-13T09:13:06.05</time>
<name>9126</name>
</trkpt>
<trkpt lat="49.186402" lon="11.858168">
<ele>492.8</ele>
<speed>4.6</speed>
<course>228.7</course>
<desc>Speed 4.6 km/h Distance 38.61 km</desc>
<time>2010-06-13T09:13:07.05</time>
<name>9127</name>
</trkpt>
<trkpt lat="49.186395" lon="11.858157">
<ele>493.2</ele>
<speed>4.3</speed>
<course>202.1</course>
<desc>Speed 4.3 km/h Distance 38.61 km</desc>
<time>2010-06-13T09:13:08.05</time>
<name>9128</name>
</trkpt>
<trkpt lat="49.186382" lon="11.858148">
<ele>492.6</ele>
<speed>4.6</speed>
<course>200.1</course>
<desc>Speed 4.6 km/h Distance 38.61 km</desc>
<time>2010-06-13T09:13:09.05</time>
<name>9129</name>
</trkpt>
<trkpt lat="49.186367" lon="11.858140">
<ele>491.8</ele>
<speed>4.4</speed>
<course>198.1</course>
<desc>Speed 4.4 km/h Distance 38.61 km</desc>
<time>2010-06-13T09:13:10.05</time>
<name>9130</name>
</trkpt>
<trkpt lat="49.186353" lon="11.858133">
<ele>491.4</ele>
<speed>4.1</speed>
<course>212.3</course>
<desc>Speed 4.1 km/h Distance 38.61 km</desc>
<time>2010-06-13T09:13:11.05</time>
<name>9131</name>
</trkpt>
<trkpt lat="49.186348" lon="11.858128">
<ele>491.6</ele>
<speed>1.7</speed>
<course>202.2</course>
<desc>Speed 1.7 km/h Distance 38.61 km</desc>
<time>2010-06-13T09:13:12.05</time>
<name>9132</name>
</trkpt>
<trkpt lat="49.186343" lon="11.858125">
<ele>491.7</ele>
<speed>1.6</speed>
<course>198.8</course>
<desc>Speed 1.6 km/h Distance 38.62 km</desc>
<time>2010-06-13T09:13:13.05</time>
<name>9133</name>
</trkpt>
<trkpt lat="49.186337" lon="11.858122">
<ele>491.4</ele>
<speed>3.1</speed>
<course>213.2</course>
<desc>Speed 3.1 km/h Distance 38.62 km</desc>
<time>2010-06-13T09:13:14.05</time>
<name>9134</name>
</trkpt>
<trkpt lat="49.186328" lon="11.858113">
<ele>491.3</ele>
<speed>3.9</speed>
<course>224.3</course>
<desc>Speed 3.9 km/h Distance 38.62 km</desc>
<time>2010-06-13T09:13:15.05</time>
<name>9135</name>
</trkpt>
<trkpt lat="49.186322" lon="11.858103">
<ele>491.2</ele>
<speed>3.3</speed>
<course>224.5</course>
<desc>Speed 3.3 km/h Distance 38.62 km</desc>
<time>2010-06-13T09:13:16.05</time>
<name>9136</name>
</trkpt>
<trkpt lat="49.186315" lon="11.858093">
<ele>491.4</ele>
<speed>3.8</speed>
<course>224.0</course>
<desc>Speed 3.8 km/h Distance 38.62 km</desc>
<time>2010-06-13T09:13:17.05</time>
<name>9137</name>
</trkpt>
<trkpt lat="49.186308" lon="11.858083">
<ele>491.5</ele>
<speed>4.1</speed>
<course>222.3</course>
<desc>Speed 4.1 km/h Distance 38.62 km</desc>
<time>2010-06-13T09:13:18.05</time>
<name>9138</name>
</trkpt>
<trkpt lat="49.186300" lon="11.858072">
<ele>491.9</ele>
<speed>4.0</speed>
<course>232.6</course>
<desc>Speed 4.0 km/h Distance 38.62 km</desc>
<time>2010-06-13T09:13:19.05</time>
<name>9139</name>
</trkpt>
<trkpt lat="49.186292" lon="11.858055">
<ele>492.7</ele>
<speed>4.4</speed>
<course>240.9</course>
<desc>Speed 4.4 km/h Distance 38.62 km</desc>
<time>2010-06-13T09:13:20.05</time>
<name>9140</name>
</trkpt>
<trkpt lat="49.186285" lon="11.858037">
<ele>493.1</ele>
<speed>4.4</speed>
<course>229.1</course>
<desc>Speed 4.4 km/h Distance 38.62 km</desc>
<time>2010-06-13T09:13:21.05</time>
<name>9141</name>
</trkpt>
<trkpt lat="49.186278" lon="11.858025">
<ele>493.1</ele>
<speed>4.6</speed>
<course>224.5</course>
<desc>Speed 4.6 km/h Distance 38.63 km</desc>
<time>2010-06-13T09:13:22.05</time>
<name>9142</name>
</trkpt>
<trkpt lat="49.186272" lon="11.858015">
<ele>493.2</ele>
<speed>3.6</speed>
<course>213.2</course>
<desc>Speed 3.6 km/h Distance 38.63 km</desc>
<time>2010-06-13T09:13:23.05</time>
<name>9143</name>
</trkpt>
<trkpt lat="49.186267" lon="11.858010">
<ele>493.7</ele>
<speed>3.6</speed>
<course>206.4</course>
<desc>Speed 3.6 km/h Distance 38.63 km</desc>
<time>2010-06-13T09:13:24.05</time>
<name>9144</name>
</trkpt>
<trkpt lat="49.186260" lon="11.858005">
<ele>494.5</ele>
<speed>2.4</speed>
<course>142.8</course>
<desc>Speed 2.4 km/h Distance 38.63 km</desc>
<time>2010-06-13T09:13:25.05</time>
<name>9145</name>
</trkpt>
<trkpt lat="49.186258" lon="11.858007">
<ele>494.6</ele>
<speed>0.8</speed>
<course>90.0</course>
<desc>Speed 0.8 km/h Distance 38.63 km</desc>
<time>2010-06-13T09:13:26.05</time>
<name>9146</name>
</trkpt>
<trkpt lat="49.186258" lon="11.858008">
<ele>494.5</ele>
<speed>0.3</speed>
<course>270.0</course>
<desc>Speed 0.3 km/h Distance 38.63 km</desc>
<time>2010-06-13T09:13:27.05</time>
<name>9147</name>
</trkpt>
<trkpt lat="49.186258" lon="11.858007">
<ele>494.5</ele>
<speed>1.4</speed>
<course>306.1</course>
<desc>Speed 1.4 km/h Distance 38.63 km</desc>
<time>2010-06-13T09:13:28.05</time>
<name>9148</name>
</trkpt>
<trkpt lat="49.186260" lon="11.858003">
<ele>494.6</ele>
<speed>0.5</speed>
<course>330.8</course>
<desc>Speed 0.5 km/h Distance 38.63 km</desc>
<time>2010-06-13T09:13:29.05</time>
<name>9149</name>
</trkpt>
<trkpt lat="49.186262" lon="11.858002">
<ele>494.8</ele>
<speed>0.5</speed>
<course>12.6</course>
<desc>Speed 0.5 km/h Distance 38.63 km</desc>
<time>2010-06-13T09:13:30.05</time>
<name>9150</name>
</trkpt>
<trkpt lat="49.186263" lon="11.858003">
<ele>494.7</ele>
<speed>0.1</speed>
<course>12.6</course>
<desc>Speed 0.1 km/h Distance 38.63 km</desc>
<time>2010-06-13T09:13:31.05</time>
<name>9151</name>
</trkpt>
<trkpt lat="49.186263" lon="11.858003">
<ele>494.9</ele>
<speed>0.0</speed>
<course>12.6</course>
<desc>Speed 0.0 km/h Distance 38.63 km</desc>
<time>2010-06-13T09:13:32.05</time>
<name>9152</name>
</trkpt>
<trkpt lat="49.186263" lon="11.858003">
<ele>494.9</ele>
<speed>0.0</speed>
<course>12.6</course>
<desc>Speed 0.0 km/h Distance 38.63 km</desc>
<time>2010-06-13T09:13:33.05</time>
<name>9153</name>
</trkpt>
<trkpt lat="49.186263" lon="11.858005">
<ele>495.0</ele>
<speed>0.3</speed>
<course>12.6</course>
<desc>Speed 0.3 km/h Distance 38.63 km</desc>
<time>2010-06-13T09:13:34.05</time>
<name>9154</name>
</trkpt>
<trkpt lat="49.186263" lon="11.858007">
<ele>495.0</ele>
<speed>0.3</speed>
<course>12.6</course>
<desc>Speed 0.3 km/h Distance 38.63 km</desc>
<time>2010-06-13T09:13:35.05</time>
<name>9155</name>
</trkpt>
<trkpt lat="49.186263" lon="11.858008">
<ele>495.2</ele>
<speed>0.0</speed>
<course>12.6</course>
<desc>Speed 0.0 km/h Distance 38.63 km</desc>
<time>2010-06-13T09:13:36.05</time>
<name>9156</name>
</trkpt>
<trkpt lat="49.186263" lon="11.858008">
<ele>495.6</ele>
<speed>0.3</speed>
<course>12.6</course>
<desc>Speed 0.3 km/h Distance 38.63 km</desc>
<time>2010-06-13T09:13:37.05</time>
<name>9157</name>
</trkpt>
<trkpt lat="49.186263" lon="11.858007">
<ele>496.0</ele>
<speed>0.2</speed>
<course>180.0</course>
<desc>Speed 0.2 km/h Distance 38.63 km</desc>
<time>2010-06-13T09:13:38.05</time>
<name>9158</name>
</trkpt>
<trkpt lat="49.186262" lon="11.858007">
<ele>496.3</ele>
<speed>0.0</speed>
<course>238.3</course>
<desc>Speed 0.0 km/h Distance 38.63 km</desc>
<time>2010-06-13T09:13:39.07</time>
<name>9159</name>
</trkpt>
<trkpt lat="49.185530" lon="11.856197">
<ele>496.7</ele>
<speed>1.7</speed>
<course>326.6</course>
<desc>Speed 1.7 km/h Distance 38.63 km</desc>
<time>2010-06-13T09:13:40.49</time>
<name>9160</name>
</trkpt>
<trkpt lat="49.185542" lon="11.856185">
<ele>495.3</ele>
<speed>1.3</speed>
<course>145.9</course>
<desc>Speed 1.3 km/h Distance 38.63 km</desc>
<time>2010-06-13T09:13:41.86</time>
<name>9161</name>
</trkpt>
<trkpt lat="49.185537" lon="11.856190">
<ele>494.7</ele>
<speed>0.5</speed>
<course>146.8</course>
<desc>Speed 0.5 km/h Distance 38.63 km</desc>
<time>2010-06-13T09:13:43.16</time>
<name>9162</name>
</trkpt>
<trkpt lat="49.185527" lon="11.856200">
<ele>492.0</ele>
<speed>0.4</speed>
<course>12.6</course>
<desc>Speed 0.4 km/h Distance 38.63 km</desc>
<time>2010-06-13T09:13:44.86</time>
<name>9163</name>
</trkpt>
<trkpt lat="49.185528" lon="11.856200">
<ele>492.3</ele>
<speed>1.0</speed>
<course>33.7</course>
<desc>Speed 1.0 km/h Distance 38.63 km</desc>
<time>2010-06-13T09:13:45.86</time>
<name>9164</name>
</trkpt>
<trkpt lat="49.185532" lon="11.856203">
<ele>492.7</ele>
<speed>1.4</speed>
<course>253.0</course>
<desc>Speed 1.4 km/h Distance 38.63 km</desc>
<time>2010-06-13T09:13:47.17</time>
<name>9165</name>
</trkpt>
<trkpt lat="49.185528" lon="11.856187">
<ele>491.9</ele>
<speed>1.8</speed>
<course>235.8</course>
<desc>Speed 1.8 km/h Distance 38.64 km</desc>
<time>2010-06-13T09:13:48.87</time>
<name>9166</name>
</trkpt>
<trkpt lat="49.185522" lon="11.856172">
<ele>490.8</ele>
<speed>2.7</speed>
<course>233.0</course>
<desc>Speed 2.7 km/h Distance 38.64 km</desc>
<time>2010-06-13T09:13:49.87</time>
<name>9167</name>
</trkpt>
<trkpt lat="49.185518" lon="11.856165">
<ele>489.5</ele>
<speed>2.6</speed>
<course>129.9</course>
<desc>Speed 2.6 km/h Distance 38.64 km</desc>
<time>2010-06-13T09:13:51.19</time>
<name>9168</name>
</trkpt>
<trkpt lat="49.185508" lon="11.856183">
<ele>488.7</ele>
<speed>0.9</speed>
<course>124.3</course>
<desc>Speed 0.9 km/h Distance 38.64 km</desc>
<time>2010-06-13T09:13:52.87</time>
<name>9169</name>
</trkpt>
<trkpt lat="49.185502" lon="11.856198">
<ele>490.0</ele>
<speed>1.0</speed>
<course>202.1</course>
<desc>Speed 1.0 km/h Distance 38.64 km</desc>
<time>2010-06-13T09:13:53.87</time>
<name>9170</name>
</trkpt>
<trkpt lat="49.185488" lon="11.856190">
<ele>493.8</ele>
<speed>1.6</speed>
<course>221.7</course>
<desc>Speed 1.6 km/h Distance 38.64 km</desc>
<time>2010-06-13T09:13:55.20</time>
<name>9171</name>
</trkpt>
<trkpt lat="49.185470" lon="11.856165">
<ele>497.2</ele>
<speed>1.5</speed>
<course>164.0</course>
<desc>Speed 1.5 km/h Distance 38.64 km</desc>
<time>2010-06-13T09:13:56.88</time>
<name>9172</name>
</trkpt>
<trkpt lat="49.185455" lon="11.856172">
<ele>500.0</ele>
<speed>3.0</speed>
<course>276.2</course>
<desc>Speed 3.0 km/h Distance 38.65 km</desc>
<time>2010-06-13T09:13:57.88</time>
<name>9173</name>
</trkpt>
<trkpt lat="49.185457" lon="11.856148">
<ele>501.8</ele>
<speed>3.8</speed>
<course>211.3</course>
<desc>Speed 3.8 km/h Distance 38.65 km</desc>
<time>2010-06-13T09:13:59.21</time>
<name>9174</name>
</trkpt>
<trkpt lat="49.185433" lon="11.856127">
<ele>505.8</ele>
<speed>6.3</speed>
<course>185.6</course>
<desc>Speed 6.3 km/h Distance 38.65 km</desc>
<time>2010-06-13T09:14:00.88</time>
<name>9175</name>
</trkpt>
<trkpt lat="49.185410" lon="11.856123">
<ele>508.9</ele>
<speed>9.1</speed>
<course>194.3</course>
<desc>Speed 9.1 km/h Distance 38.65 km</desc>
<time>2010-06-13T09:14:01.88</time>
<name>9176</name>
</trkpt>
<trkpt lat="49.185380" lon="11.856112">
<ele>508.8</ele>
<speed>10.6</speed>
<course>216.3</course>
<desc>Speed 10.6 km/h Distance 38.66 km</desc>
<time>2010-06-13T09:14:03.21</time>
<name>9177</name>
</trkpt>
<trkpt lat="49.185340" lon="11.856067">
<ele>505.5</ele>
<speed>13.6</speed>
<course>189.8</course>
<desc>Speed 13.6 km/h Distance 38.66 km</desc>
<time>2010-06-13T09:14:04.86</time>
<name>9178</name>
</trkpt>
<trkpt lat="49.185315" lon="11.856060">
<ele>504.4</ele>
<speed>13.7</speed>
<course>175.0</course>
<desc>Speed 13.7 km/h Distance 38.67 km</desc>
<time>2010-06-13T09:14:05.89</time>
<name>9179</name>
</trkpt>
<trkpt lat="49.185290" lon="11.856063">
<ele>503.2</ele>
<speed>13.7</speed>
<course>159.4</course>
<desc>Speed 13.7 km/h Distance 38.67 km</desc>
<time>2010-06-13T09:14:07.39</time>
<name>9180</name>
</trkpt>
<trkpt lat="49.185235" lon="11.856095">
<ele>500.9</ele>
<speed>14.8</speed>
<course>151.4</course>
<desc>Speed 14.8 km/h Distance 38.68 km</desc>
<time>2010-06-13T09:14:08.88</time>
<name>9181</name>
</trkpt>
<trkpt lat="49.185205" lon="11.856120">
<ele>499.9</ele>
<speed>13.7</speed>
<course>144.0</course>
<desc>Speed 13.7 km/h Distance 38.68 km</desc>
<time>2010-06-13T09:14:09.90</time>
<name>9182</name>
</trkpt>
<trkpt lat="49.185175" lon="11.856153">
<ele>500.8</ele>
<speed>14.7</speed>
<course>144.2</course>
<desc>Speed 14.7 km/h Distance 38.68 km</desc>
<time>2010-06-13T09:14:11.23</time>
<name>9183</name>
</trkpt>
<trkpt lat="49.185112" lon="11.856223">
<ele>501.5</ele>
<speed>14.1</speed>
<course>137.0</course>
<desc>Speed 14.1 km/h Distance 38.69 km</desc>
<time>2010-06-13T09:14:12.88</time>
<name>9184</name>
</trkpt>
<trkpt lat="49.185088" lon="11.856257">
<ele>501.1</ele>
<speed>12.6</speed>
<course>131.0</course>
<desc>Speed 12.6 km/h Distance 38.70 km</desc>
<time>2010-06-13T09:14:13.89</time>
<name>9185</name>
</trkpt>
<trkpt lat="49.185047" lon="11.856330">
<ele>502.4</ele>
<speed>10.4</speed>
<course>131.2</course>
<desc>Speed 10.4 km/h Distance 38.70 km</desc>
<time>2010-06-13T09:14:15.87</time>
<name>9186</name>
</trkpt>
<trkpt lat="49.185033" lon="11.856353">
<ele>501.7</ele>
<speed>9.4</speed>
<course>132.0</course>
<desc>Speed 9.4 km/h Distance 38.70 km</desc>
<time>2010-06-13T09:14:16.88</time>
<name>9187</name>
</trkpt>
<trkpt lat="49.185017" lon="11.856382">
<ele>500.2</ele>
<speed>9.6</speed>
<course>155.6</course>
<desc>Speed 9.6 km/h Distance 38.71 km</desc>
<time>2010-06-13T09:14:17.88</time>
<name>9188</name>
</trkpt>
<trkpt lat="49.184995" lon="11.856397">
<ele>499.1</ele>
<speed>8.1</speed>
<course>164.9</course>
<desc>Speed 8.1 km/h Distance 38.71 km</desc>
<time>2010-06-13T09:14:18.88</time>
<name>9189</name>
</trkpt>
<trkpt lat="49.184967" lon="11.856408">
<ele>499.7</ele>
<speed>7.8</speed>
<course>174.5</course>
<desc>Speed 7.8 km/h Distance 38.71 km</desc>
<time>2010-06-13T09:14:19.89</time>
<name>9190</name>
</trkpt>
<trkpt lat="49.184945" lon="11.856412">
<ele>503.0</ele>
<speed>7.4</speed>
<course>182.2</course>
<desc>Speed 7.4 km/h Distance 38.72 km</desc>
<time>2010-06-13T09:14:20.89</time>
<name>9191</name>
</trkpt>
<trkpt lat="49.184918" lon="11.856410">
<ele>504.7</ele>
<speed>6.8</speed>
<course>201.1</course>
<desc>Speed 6.8 km/h Distance 38.72 km</desc>
<time>2010-06-13T09:14:21.90</time>
<name>9192</name>
</trkpt>
<trkpt lat="49.184890" lon="11.856393">
<ele>508.9</ele>
<speed>4.3</speed>
<course>213.2</course>
<desc>Speed 4.3 km/h Distance 38.72 km</desc>
<time>2010-06-13T09:14:23.88</time>
<name>9193</name>
</trkpt>
<trkpt lat="49.184880" lon="11.856383">
<ele>510.4</ele>
<speed>3.1</speed>
<course>232.4</course>
<desc>Speed 3.1 km/h Distance 38.72 km</desc>
<time>2010-06-13T09:14:24.89</time>
<name>9194</name>
</trkpt>
<trkpt lat="49.184875" lon="11.856373">
<ele>510.0</ele>
<speed>1.9</speed>
<course>232.4</course>
<desc>Speed 1.9 km/h Distance 38.72 km</desc>
<time>2010-06-13T09:14:25.89</time>
<name>9195</name>
</trkpt>
<trkpt lat="49.184875" lon="11.856373">
<ele>510.0</ele>
<speed>1.9</speed>
<course>225.5</course>
<desc>Speed 1.9 km/h Distance 38.72 km</desc>
<time>2010-06-13T09:14:26.39</time>
<name>9196</name>
</trkpt>
<trkpt lat="49.184860" lon="11.856350">
<ele>511.3</ele>
<speed>2.4</speed>
<course>227.5</course>
<desc>Speed 2.4 km/h Distance 38.73 km</desc>
<time>2010-06-13T09:14:27.89</time>
<name>9197</name>
</trkpt>
<trkpt lat="49.184850" lon="11.856333">
<ele>512.0</ele>
<speed>5.4</speed>
<course>282.3</course>
<desc>Speed 5.4 km/h Distance 38.73 km</desc>
<time>2010-06-13T09:14:28.87</time>
<name>9198</name>
</trkpt>
<trkpt lat="49.184852" lon="11.856322">
<ele>511.4</ele>
<speed>3.8</speed>
<course>270.0</course>
<desc>Speed 3.8 km/h Distance 38.73 km</desc>
<time>2010-06-13T09:14:29.88</time>
<name>9199</name>
</trkpt>
<trkpt lat="49.184852" lon="11.856315">
<ele>511.2</ele>
<speed>3.3</speed>
<course>257.7</course>
<desc>Speed 3.3 km/h Distance 38.73 km</desc>
<time>2010-06-13T09:14:30.88</time>
<name>9200</name>
</trkpt>
<trkpt lat="49.184850" lon="11.856303">
<ele>511.7</ele>
<speed>4.1</speed>
<course>172.6</course>
<desc>Speed 4.1 km/h Distance 38.73 km</desc>
<time>2010-06-13T09:14:31.87</time>
<name>9201</name>
</trkpt>
<trkpt lat="49.184843" lon="11.856303">
<ele>512.9</ele>
<speed>4.9</speed>
<course>200.5</course>
<desc>Speed 4.9 km/h Distance 38.73 km</desc>
<time>2010-06-13T09:14:32.88</time>
<name>9202</name>
</trkpt>
<trkpt lat="49.184820" lon="11.856290">
<ele>512.7</ele>
<speed>4.9</speed>
<course>202.5</course>
<desc>Speed 4.9 km/h Distance 38.73 km</desc>
<time>2010-06-13T09:14:33.88</time>
<name>9203</name>
</trkpt>
<trkpt lat="49.184802" lon="11.856278">
<ele>513.3</ele>
<speed>3.6</speed>
<course>202.6</course>
<desc>Speed 3.6 km/h Distance 38.74 km</desc>
<time>2010-06-13T09:14:34.87</time>
<name>9204</name>
</trkpt>
<trkpt lat="49.184783" lon="11.856267">
<ele>514.1</ele>
<speed>2.4</speed>
<course>270.0</course>
<desc>Speed 2.4 km/h Distance 38.74 km</desc>
<time>2010-06-13T09:14:35.87</time>
<name>9205</name>
</trkpt>
<trkpt lat="49.184783" lon="11.856257">
<ele>514.7</ele>
<speed>2.9</speed>
<course>213.2</course>
<desc>Speed 2.9 km/h Distance 38.74 km</desc>
<time>2010-06-13T09:14:36.88</time>
<name>9206</name>
</trkpt>
<trkpt lat="49.184773" lon="11.856247">
<ele>514.4</ele>
<speed>3.2</speed>
<course>219.4</course>
<desc>Speed 3.2 km/h Distance 38.74 km</desc>
<time>2010-06-13T09:14:37.88</time>
<name>9207</name>
</trkpt>
<trkpt lat="49.184767" lon="11.856238">
<ele>515.0</ele>
<speed>4.8</speed>
<course>167.4</course>
<desc>Speed 4.8 km/h Distance 38.74 km</desc>
<time>2010-06-13T09:14:38.87</time>
<name>9208</name>
</trkpt>
<trkpt lat="49.184765" lon="11.856238">
<ele>514.8</ele>
<speed>2.4</speed>
<course>90.0</course>
<desc>Speed 2.4 km/h Distance 38.74 km</desc>
<time>2010-06-13T09:14:39.88</time>
<name>9209</name>
</trkpt>
<trkpt lat="49.184765" lon="11.856248">
<ele>515.2</ele>
<speed>1.8</speed>
<course>192.6</course>
<desc>Speed 1.8 km/h Distance 38.74 km</desc>
<time>2010-06-13T09:14:40.88</time>
<name>9210</name>
</trkpt>
<trkpt lat="49.184763" lon="11.856247">
<ele>515.8</ele>
<speed>2.1</speed>
<course>51.9</course>
<desc>Speed 2.1 km/h Distance 38.74 km</desc>
<time>2010-06-13T09:14:41.87</time>
<name>9211</name>
</trkpt>
<trkpt lat="49.184765" lon="11.856250">
<ele>516.8</ele>
<speed>3.2</speed>
<course>252.9</course>
<desc>Speed 3.2 km/h Distance 38.74 km</desc>
<time>2010-06-13T09:14:42.88</time>
<name>9212</name>
</trkpt>
<trkpt lat="49.184763" lon="11.856242">
<ele>515.5</ele>
<speed>2.3</speed>
<course>319.1</course>
<desc>Speed 2.3 km/h Distance 38.74 km</desc>
<time>2010-06-13T09:14:43.87</time>
<name>9213</name>
</trkpt>
<trkpt lat="49.184768" lon="11.856235">
<ele>514.1</ele>
<speed>0.3</speed>
<course>319.1</course>
<desc>Speed 0.3 km/h Distance 38.74 km</desc>
<time>2010-06-13T09:14:44.90</time>
<name>9214</name>
</trkpt>
<trkpt lat="49.184768" lon="11.856235">
<ele>514.1</ele>
<speed>0.3</speed>
<course>231.9</course>
<desc>Speed 0.3 km/h Distance 38.74 km</desc>
<time>2010-06-13T09:14:45.39</time>
<name>9215</name>
</trkpt>
<trkpt lat="49.184767" lon="11.856232">
<ele>511.6</ele>
<speed>1.5</speed>
<course>255.6</course>
<desc>Speed 1.5 km/h Distance 38.74 km</desc>
<time>2010-06-13T09:14:46.88</time>
<name>9216</name>
</trkpt>
<trkpt lat="49.184765" lon="11.856222">
<ele>510.0</ele>
<speed>0.4</speed>
<course>175.3</course>
<desc>Speed 0.4 km/h Distance 38.75 km</desc>
<time>2010-06-13T09:14:47.87</time>
<name>9217</name>
</trkpt>
<trkpt lat="49.184753" lon="11.856223">
<ele>511.5</ele>
<speed>0.9</speed>
<course>195.5</course>
<desc>Speed 0.9 km/h Distance 38.75 km</desc>
<time>2010-06-13T09:14:48.88</time>
<name>9218</name>
</trkpt>
<trkpt lat="49.184742" lon="11.856218">
<ele>511.8</ele>
<speed>1.5</speed>
<course>130.9</course>
<desc>Speed 1.5 km/h Distance 38.75 km</desc>
<time>2010-06-13T09:14:49.88</time>
<name>9219</name>
</trkpt>
<trkpt lat="49.184735" lon="11.856230">
<ele>512.8</ele>
<speed>1.3</speed>
<course>188.1</course>
<desc>Speed 1.3 km/h Distance 38.75 km</desc>
<time>2010-06-13T09:14:50.87</time>
<name>9220</name>
</trkpt>
<trkpt lat="49.184730" lon="11.856228">
<ele>512.2</ele>
<speed>2.0</speed>
<course>195.3</course>
<desc>Speed 2.0 km/h Distance 38.75 km</desc>
<time>2010-06-13T09:14:51.89</time>
<name>9221</name>
</trkpt>
<trkpt lat="49.184710" lon="11.856220">
<ele>511.0</ele>
<speed>3.7</speed>
<course>187.4</course>
<desc>Speed 3.7 km/h Distance 38.75 km</desc>
<time>2010-06-13T09:14:52.87</time>
<name>9222</name>
</trkpt>
<trkpt lat="49.184685" lon="11.856215">
<ele>510.1</ele>
<speed>6.1</speed>
<course>270.0</course>
<desc>Speed 6.1 km/h Distance 38.75 km</desc>
<time>2010-06-13T09:14:53.87</time>
<name>9223</name>
</trkpt>
<trkpt lat="49.184685" lon="11.856202">
<ele>509.5</ele>
<speed>3.2</speed>
<course>270.0</course>
<desc>Speed 3.2 km/h Distance 38.76 km</desc>
<time>2010-06-13T09:14:54.88</time>
<name>9224</name>
</trkpt>
<trkpt lat="49.184685" lon="11.856190">
<ele>507.6</ele>
<speed>2.2</speed>
<course>183.9</course>
<desc>Speed 2.2 km/h Distance 38.76 km</desc>
<time>2010-06-13T09:14:55.86</time>
<name>9225</name>
</trkpt>
<trkpt lat="49.184672" lon="11.856188">
<ele>508.3</ele>
<speed>1.9</speed>
<course>345.1</course>
<desc>Speed 1.9 km/h Distance 38.76 km</desc>
<time>2010-06-13T09:14:56.88</time>
<name>9226</name>
</trkpt>
<trkpt lat="49.184680" lon="11.856185">
<ele>510.7</ele>
<speed>0.4</speed>
<course>171.2</course>
<desc>Speed 0.4 km/h Distance 38.76 km</desc>
<time>2010-06-13T09:14:57.87</time>
<name>9227</name>
</trkpt>
<trkpt lat="49.184665" lon="11.856188">
<ele>512.2</ele>
<speed>2.6</speed>
<course>196.0</course>
<desc>Speed 2.6 km/h Distance 38.76 km</desc>
<time>2010-06-13T09:14:58.89</time>
<name>9228</name>
</trkpt>
<trkpt lat="49.184653" lon="11.856183">
<ele>511.9</ele>
<speed>2.6</speed>
<course>167.4</course>
<desc>Speed 2.6 km/h Distance 38.76 km</desc>
<time>2010-06-13T09:14:59.87</time>
<name>9229</name>
</trkpt>
<trkpt lat="49.184638" lon="11.856188">
<ele>512.1</ele>
<speed>2.3</speed>
<course>297.4</course>
<desc>Speed 2.3 km/h Distance 38.76 km</desc>
<time>2010-06-13T09:15:00.89</time>
<name>9230</name>
</trkpt>
<trkpt lat="49.184640" lon="11.856183">
<ele>512.2</ele>
<speed>2.3</speed>
<course>2.7</course>
<desc>Speed 2.3 km/h Distance 38.76 km</desc>
<time>2010-06-13T09:15:01.88</time>
<name>9231</name>
</trkpt>
<trkpt lat="49.184660" lon="11.856185">
<ele>514.7</ele>
<speed>0.3</speed>
<course>270.0</course>
<desc>Speed 0.3 km/h Distance 38.77 km</desc>
<time>2010-06-13T09:15:02.88</time>
<name>9232</name>
</trkpt>
<trkpt lat="49.184660" lon="11.856180">
<ele>515.8</ele>
<speed>1.1</speed>
<course>185.3</course>
<desc>Speed 1.1 km/h Distance 38.77 km</desc>
<time>2010-06-13T09:15:03.87</time>
<name>9233</name>
</trkpt>
<trkpt lat="49.184647" lon="11.856178">
<ele>516.6</ele>
<speed>0.9</speed>
<course>193.6</course>
<desc>Speed 0.9 km/h Distance 38.77 km</desc>
<time>2010-06-13T09:15:04.87</time>
<name>9234</name>
</trkpt>
<trkpt lat="49.184628" lon="11.856172">
<ele>518.4</ele>
<speed>1.7</speed>
<course>216.4</course>
<desc>Speed 1.7 km/h Distance 38.77 km</desc>
<time>2010-06-13T09:15:05.88</time>
<name>9235</name>
</trkpt>
<trkpt lat="49.184615" lon="11.856157">
<ele>520.0</ele>
<speed>2.6</speed>
<course>209.8</course>
<desc>Speed 2.6 km/h Distance 38.77 km</desc>
<time>2010-06-13T09:15:06.88</time>
<name>9236</name>
</trkpt>
<trkpt lat="49.184602" lon="11.856145">
<ele>521.5</ele>
<speed>3.6</speed>
<course>246.4</course>
<desc>Speed 3.6 km/h Distance 38.77 km</desc>
<time>2010-06-13T09:15:07.88</time>
<name>9237</name>
</trkpt>
<trkpt lat="49.184598" lon="11.856133">
<ele>521.5</ele>
<speed>3.3</speed>
<course>201.3</course>
<desc>Speed 3.3 km/h Distance 38.77 km</desc>
<time>2010-06-13T09:15:08.87</time>
<name>9238</name>
</trkpt>
<trkpt lat="49.184582" lon="11.856123">
<ele>521.3</ele>
<speed>3.1</speed>
<course>205.6</course>
<desc>Speed 3.1 km/h Distance 38.78 km</desc>
<time>2010-06-13T09:15:09.90</time>
<name>9239</name>
</trkpt>
<trkpt lat="49.184575" lon="11.856118">
<ele>522.2</ele>
<speed>3.2</speed>
<course>246.4</course>
<desc>Speed 3.2 km/h Distance 38.78 km</desc>
<time>2010-06-13T09:15:10.86</time>
<name>9240</name>
</trkpt>
<trkpt lat="49.184572" lon="11.856107">
<ele>523.8</ele>
<speed>2.9</speed>
<course>213.1</course>
<desc>Speed 2.9 km/h Distance 38.78 km</desc>
<time>2010-06-13T09:15:11.87</time>
<name>9241</name>
</trkpt>
<trkpt lat="49.184550" lon="11.856085">
<ele>524.5</ele>
<speed>2.6</speed>
<course>217.2</course>
<desc>Speed 2.6 km/h Distance 38.78 km</desc>
<time>2010-06-13T09:15:12.89</time>
<name>9242</name>
</trkpt>
<trkpt lat="49.184540" lon="11.856073">
<ele>524.9</ele>
<speed>2.9</speed>
<course>244.8</course>
<desc>Speed 2.9 km/h Distance 38.78 km</desc>
<time>2010-06-13T09:15:13.87</time>
<name>9243</name>
</trkpt>
<trkpt lat="49.184533" lon="11.856052">
<ele>525.0</ele>
<speed>2.1</speed>
<course>250.5</course>
<desc>Speed 2.1 km/h Distance 38.78 km</desc>
<time>2010-06-13T09:15:14.87</time>
<name>9244</name>
</trkpt>
<trkpt lat="49.184528" lon="11.856030">
<ele>525.0</ele>
<speed>2.7</speed>
<course>205.2</course>
<desc>Speed 2.7 km/h Distance 38.79 km</desc>
<time>2010-06-13T09:15:15.87</time>
<name>9245</name>
</trkpt>
<trkpt lat="49.184517" lon="11.856022">
<ele>526.2</ele>
<speed>1.5</speed>
<course>205.5</course>
<desc>Speed 1.5 km/h Distance 38.79 km</desc>
<time>2010-06-13T09:15:16.88</time>
<name>9246</name>
</trkpt>
<trkpt lat="49.184498" lon="11.856008">
<ele>527.3</ele>
<speed>2.6</speed>
<course>209.8</course>
<desc>Speed 2.6 km/h Distance 38.79 km</desc>
<time>2010-06-13T09:15:17.88</time>
<name>9247</name>
</trkpt>
<trkpt lat="49.184485" lon="11.855997">
<ele>527.3</ele>
<speed>3.4</speed>
<course>293.6</course>
<desc>Speed 3.4 km/h Distance 38.79 km</desc>
<time>2010-06-13T09:15:18.88</time>
<name>9248</name>
</trkpt>
<trkpt lat="49.184488" lon="11.855985">
<ele>528.9</ele>
<speed>2.7</speed>
<course>249.1</course>
<desc>Speed 2.7 km/h Distance 38.79 km</desc>
<time>2010-06-13T09:15:19.87</time>
<name>9249</name>
</trkpt>
<trkpt lat="49.184487" lon="11.855978">
<ele>529.1</ele>
<speed>3.6</speed>
<course>186.3</course>
<desc>Speed 3.6 km/h Distance 38.79 km</desc>
<time>2010-06-13T09:15:20.88</time>
<name>9250</name>
</trkpt>
<trkpt lat="49.184475" lon="11.855977">
<ele>529.3</ele>
<speed>3.4</speed>
<course>187.4</course>
<desc>Speed 3.4 km/h Distance 38.79 km</desc>
<time>2010-06-13T09:15:21.86</time>
<name>9251</name>
</trkpt>
<trkpt lat="49.184468" lon="11.855975">
<ele>529.8</ele>
<speed>3.5</speed>
<course>224.5</course>
<desc>Speed 3.5 km/h Distance 38.80 km</desc>
<time>2010-06-13T09:15:22.88</time>
<name>9252</name>
</trkpt>
<trkpt lat="49.184465" lon="11.855970">
<ele>529.9</ele>
<speed>2.4</speed>
<course>257.7</course>
<desc>Speed 2.4 km/h Distance 38.80 km</desc>
<time>2010-06-13T09:15:23.87</time>
<name>9253</name>
</trkpt>
<trkpt lat="49.184463" lon="11.855958">
<ele>530.0</ele>
<speed>2.2</speed>
<course>253.0</course>
<desc>Speed 2.2 km/h Distance 38.80 km</desc>
<time>2010-06-13T09:15:24.87</time>
<name>9254</name>
</trkpt>
<trkpt lat="49.184460" lon="11.855942">
<ele>528.5</ele>
<speed>3.1</speed>
<course>251.8</course>
<desc>Speed 3.1 km/h Distance 38.80 km</desc>
<time>2010-06-13T09:15:25.88</time>
<name>9255</name>
</trkpt>
<trkpt lat="49.184455" lon="11.855918">
<ele>528.0</ele>
<speed>2.5</speed>
<course>299.9</course>
<desc>Speed 2.5 km/h Distance 38.80 km</desc>
<time>2010-06-13T09:15:26.87</time>
<name>9256</name>
</trkpt>
<trkpt lat="49.184460" lon="11.855905">
<ele>528.3</ele>
<speed>1.4</speed>
<course>212.3</course>
<desc>Speed 1.4 km/h Distance 38.80 km</desc>
<time>2010-06-13T09:15:27.88</time>
<name>9257</name>
</trkpt>
<trkpt lat="49.184455" lon="11.855900">
<ele>528.9</ele>
<speed>1.3</speed>
<course>191.9</course>
<desc>Speed 1.3 km/h Distance 38.80 km</desc>
<time>2010-06-13T09:15:28.87</time>
<name>9258</name>
</trkpt>
<trkpt lat="49.184403" lon="11.855883">
<ele>528.0</ele>
<speed>4.2</speed>
<course>213.2</course>
<desc>Speed 4.2 km/h Distance 38.81 km</desc>
<time>2010-06-13T09:15:30.87</time>
<name>9259</name>
</trkpt>
<trkpt lat="49.184390" lon="11.855870">
<ele>528.2</ele>
<speed>3.5</speed>
<course>209.8</course>
<desc>Speed 3.5 km/h Distance 38.81 km</desc>
<time>2010-06-13T09:15:31.89</time>
<name>9260</name>
</trkpt>
<trkpt lat="49.184377" lon="11.855858">
<ele>527.7</ele>
<speed>3.3</speed>
<course>270.0</course>
<desc>Speed 3.3 km/h Distance 38.81 km</desc>
<time>2010-06-13T09:15:32.88</time>
<name>9261</name>
</trkpt>
<trkpt lat="49.184377" lon="11.855855">
<ele>527.9</ele>
<speed>1.7</speed>
<course>338.5</course>
<desc>Speed 1.7 km/h Distance 38.81 km</desc>
<time>2010-06-13T09:15:33.88</time>
<name>9262</name>
</trkpt>
<trkpt lat="49.184385" lon="11.855850">
<ele>528.2</ele>
<speed>2.4</speed>
<course>90.0</course>
<desc>Speed 2.4 km/h Distance 38.81 km</desc>
<time>2010-06-13T09:15:34.88</time>
<name>9263</name>
</trkpt>
<trkpt lat="49.184385" lon="11.855855">
<ele>528.6</ele>
<speed>0.5</speed>
<course>209.2</course>
<desc>Speed 0.5 km/h Distance 38.81 km</desc>
<time>2010-06-13T09:15:35.88</time>
<name>9264</name>
</trkpt>
<trkpt lat="49.184373" lon="11.855845">
<ele>528.9</ele>
<speed>1.8</speed>
<course>246.5</course>
<desc>Speed 1.8 km/h Distance 38.81 km</desc>
<time>2010-06-13T09:15:36.87</time>
<name>9265</name>
</trkpt>
<trkpt lat="49.184370" lon="11.855833">
<ele>529.4</ele>
<speed>1.5</speed>
<course>251.3</course>
<desc>Speed 1.5 km/h Distance 38.81 km</desc>
<time>2010-06-13T09:15:37.88</time>
<name>9266</name>
</trkpt>
<trkpt lat="49.184367" lon="11.855818">
<ele>530.0</ele>
<speed>1.0</speed>
<course>207.9</course>
<desc>Speed 1.0 km/h Distance 38.82 km</desc>
<time>2010-06-13T09:15:38.87</time>
<name>9267</name>
</trkpt>
<trkpt lat="49.184340" lon="11.855797">
<ele>529.9</ele>
<speed>2.6</speed>
<course>189.6</course>
<desc>Speed 2.6 km/h Distance 38.82 km</desc>
<time>2010-06-13T09:15:40.89</time>
<name>9268</name>
</trkpt>
<trkpt lat="49.184302" lon="11.855787">
<ele>530.4</ele>
<speed>3.6</speed>
<course>256.7</course>
<desc>Speed 3.6 km/h Distance 38.82 km</desc>
<time>2010-06-13T09:15:42.88</time>
<name>9269</name>
</trkpt>
<trkpt lat="49.184298" lon="11.855765">
<ele>531.4</ele>
<speed>4.4</speed>
<course>247.4</course>
<desc>Speed 4.4 km/h Distance 38.83 km</desc>
<time>2010-06-13T09:15:43.89</time>
<name>9270</name>
</trkpt>
<trkpt lat="49.184293" lon="11.855747">
<ele>532.0</ele>
<speed>3.9</speed>
<course>206.1</course>
<desc>Speed 3.9 km/h Distance 38.83 km</desc>
<time>2010-06-13T09:15:44.88</time>
<name>9271</name>
</trkpt>
<trkpt lat="49.184273" lon="11.855732">
<ele>532.0</ele>
<speed>3.6</speed>
<course>240.9</course>
<desc>Speed 3.6 km/h Distance 38.83 km</desc>
<time>2010-06-13T09:15:45.86</time>
<name>9272</name>
</trkpt>
<trkpt lat="49.184253" lon="11.855677">
<ele>530.1</ele>
<speed>0.3</speed>
<course>319.1</course>
<desc>Speed 0.3 km/h Distance 38.83 km</desc>
<time>2010-06-13T09:15:47.87</time>
<name>9273</name>
</trkpt>
<trkpt lat="49.184258" lon="11.855670">
<ele>530.3</ele>
<speed>1.7</speed>
<course>340.1</course>
<desc>Speed 1.7 km/h Distance 38.83 km</desc>
<time>2010-06-13T09:15:48.88</time>
<name>9274</name>
</trkpt>
<trkpt lat="49.184273" lon="11.855662">
<ele>531.2</ele>
<speed>1.7</speed>
<course>353.4</course>
<desc>Speed 1.7 km/h Distance 38.84 km</desc>
<time>2010-06-13T09:15:49.88</time>
<name>9275</name>
</trkpt>
<trkpt lat="49.184293" lon="11.855658">
<ele>532.9</ele>
<speed>0.7</speed>
<course>307.4</course>
<desc>Speed 0.7 km/h Distance 38.84 km</desc>
<time>2010-06-13T09:15:50.87</time>
<name>9276</name>
</trkpt>
<trkpt lat="49.184298" lon="11.855648">
<ele>533.7</ele>
<speed>0.8</speed>
<course>322.5</course>
<desc>Speed 0.8 km/h Distance 38.84 km</desc>
<time>2010-06-13T09:15:51.87</time>
<name>9277</name>
</trkpt>
<trkpt lat="49.184308" lon="11.855637">
<ele>535.6</ele>
<speed>1.2</speed>
<course>311.3</course>
<desc>Speed 1.2 km/h Distance 38.84 km</desc>
<time>2010-06-13T09:15:52.88</time>
<name>9278</name>
</trkpt>
<trkpt lat="49.184315" lon="11.855625">
<ele>537.2</ele>
<speed>1.5</speed>
<course>311.3</course>
<desc>Speed 1.5 km/h Distance 38.84 km</desc>
<time>2010-06-13T09:15:53.87</time>
<name>9279</name>
</trkpt>
<trkpt lat="49.184315" lon="11.855627">
<ele>537.8</ele>
<speed>1.4</speed>
<course>128.1</course>
<desc>Speed 1.4 km/h Distance 38.84 km</desc>
<time>2010-06-13T09:15:54.87</time>
<name>9280</name>
</trkpt>
<trkpt lat="49.184313" lon="11.855630">
<ele>538.1</ele>
<speed>1.7</speed>
<course>346.5</course>
<desc>Speed 1.7 km/h Distance 38.84 km</desc>
<time>2010-06-13T09:15:55.88</time>
<name>9281</name>
</trkpt>
<trkpt lat="49.184327" lon="11.855625">
<ele>539.9</ele>
<speed>0.8</speed>
<course>0.0</course>
<desc>Speed 0.8 km/h Distance 38.84 km</desc>
<time>2010-06-13T09:15:56.88</time>
<name>9282</name>
</trkpt>
<trkpt lat="49.184338" lon="11.855625">
<ele>540.8</ele>
<speed>1.0</speed>
<course>357.2</course>
<desc>Speed 1.0 km/h Distance 38.85 km</desc>
<time>2010-06-13T09:15:57.88</time>
<name>9283</name>
</trkpt>
<trkpt lat="49.184355" lon="11.855623">
<ele>541.6</ele>
<speed>1.4</speed>
<course>3.9</course>
<desc>Speed 1.4 km/h Distance 38.85 km</desc>
<time>2010-06-13T09:15:58.87</time>
<name>9284</name>
</trkpt>
<trkpt lat="49.184368" lon="11.855625">
<ele>542.5</ele>
<speed>0.3</speed>
<course>9.6</course>
<desc>Speed 0.3 km/h Distance 38.85 km</desc>
<time>2010-06-13T09:15:59.86</time>
<name>9285</name>
</trkpt>
<trkpt lat="49.184377" lon="11.855627">
<ele>543.5</ele>
<speed>0.2</speed>
<course>4.7</course>
<desc>Speed 0.2 km/h Distance 38.85 km</desc>
<time>2010-06-13T09:16:00.87</time>
<name>9286</name>
</trkpt>
<trkpt lat="49.184388" lon="11.855628">
<ele>542.9</ele>
<speed>1.4</speed>
<course>270.0</course>
<desc>Speed 1.4 km/h Distance 38.85 km</desc>
<time>2010-06-13T09:16:01.89</time>
<name>9287</name>
</trkpt>
<trkpt lat="49.184388" lon="11.855627">
<ele>542.9</ele>
<speed>1.2</speed>
<course>40.9</course>
<desc>Speed 1.2 km/h Distance 38.85 km</desc>
<time>2010-06-13T09:16:02.87</time>
<name>9288</name>
</trkpt>
<trkpt lat="49.184393" lon="11.855633">
<ele>543.9</ele>
<speed>0.7</speed>
<course>180.0</course>
<desc>Speed 0.7 km/h Distance 38.85 km</desc>
<time>2010-06-13T09:16:03.89</time>
<name>9289</name>
</trkpt>
<trkpt lat="49.184390" lon="11.855633">
<ele>545.6</ele>
<speed>0.4</speed>
<course>62.6</course>
<desc>Speed 0.4 km/h Distance 38.85 km</desc>
<time>2010-06-13T09:16:04.88</time>
<name>9290</name>
</trkpt>
<trkpt lat="49.184392" lon="11.855638">
<ele>546.1</ele>
<speed>0.8</speed>
<course>33.7</course>
<desc>Speed 0.8 km/h Distance 38.85 km</desc>
<time>2010-06-13T09:16:05.86</time>
<name>9291</name>
</trkpt>
<trkpt lat="49.184395" lon="11.855642">
<ele>546.6</ele>
<speed>1.5</speed>
<course>205.2</course>
<desc>Speed 1.5 km/h Distance 38.85 km</desc>
<time>2010-06-13T09:16:06.87</time>
<name>9292</name>
</trkpt>
<trkpt lat="49.184383" lon="11.855633">
<ele>546.7</ele>
<speed>0.7</speed>
<course>214.1</course>
<desc>Speed 0.7 km/h Distance 38.85 km</desc>
<time>2010-06-13T09:16:07.87</time>
<name>9293</name>
</trkpt>
<trkpt lat="49.184378" lon="11.855628">
<ele>547.5</ele>
<speed>1.0</speed>
<course>1.2</course>
<desc>Speed 1.0 km/h Distance 38.86 km</desc>
<time>2010-06-13T09:16:08.87</time>
<name>9294</name>
</trkpt>
<trkpt lat="49.184392" lon="11.855628">
<ele>549.9</ele>
<speed>2.8</speed>
<course>297.4</course>
<desc>Speed 2.8 km/h Distance 38.86 km</desc>
<time>2010-06-13T09:16:09.88</time>
<name>9295</name>
</trkpt>
<trkpt lat="49.184393" lon="11.855623">
<ele>548.9</ele>
<speed>2.2</speed>
<course>167.4</course>
<desc>Speed 2.2 km/h Distance 38.86 km</desc>
<time>2010-06-13T09:16:10.88</time>
<name>9296</name>
</trkpt>
<trkpt lat="49.184388" lon="11.855625">
<ele>549.2</ele>
<speed>0.5</speed>
<course>127.0</course>
<desc>Speed 0.5 km/h Distance 38.86 km</desc>
<time>2010-06-13T09:16:11.88</time>
<name>9297</name>
</trkpt>
<trkpt lat="49.184385" lon="11.855632">
<ele>549.3</ele>
<speed>1.6</speed>
<course>135.5</course>
<desc>Speed 1.6 km/h Distance 38.86 km</desc>
<time>2010-06-13T09:16:12.86</time>
<name>9298</name>
</trkpt>
<trkpt lat="49.184382" lon="11.855637">
<ele>548.4</ele>
<speed>1.3</speed>
<course>213.7</course>
<desc>Speed 1.3 km/h Distance 38.86 km</desc>
<time>2010-06-13T09:16:13.86</time>
<name>9299</name>
</trkpt>
<trkpt lat="49.184378" lon="11.855633">
<ele>548.6</ele>
<speed>0.5</speed>
<course>213.7</course>
<desc>Speed 0.5 km/h Distance 38.86 km</desc>
<time>2010-06-13T09:16:14.88</time>
<name>9300</name>
</trkpt>
<trkpt lat="49.184375" lon="11.855630">
<ele>548.4</ele>
<speed>0.8</speed>
<course>23.8</course>
<desc>Speed 0.8 km/h Distance 38.86 km</desc>
<time>2010-06-13T09:16:15.87</time>
<name>9301</name>
</trkpt>
<trkpt lat="49.184380" lon="11.855633">
<ele>549.3</ele>
<speed>1.3</speed>
<course>192.6</course>
<desc>Speed 1.3 km/h Distance 38.86 km</desc>
<time>2010-06-13T09:16:16.88</time>
<name>9302</name>
</trkpt>
<trkpt lat="49.184360" lon="11.855627">
<ele>549.9</ele>
<speed>3.0</speed>
<course>203.7</course>
<desc>Speed 3.0 km/h Distance 38.86 km</desc>
<time>2010-06-13T09:16:17.88</time>
<name>9303</name>
</trkpt>
<trkpt lat="49.184345" lon="11.855617">
<ele>550.0</ele>
<speed>2.9</speed>
<course>201.4</course>
<desc>Speed 2.9 km/h Distance 38.86 km</desc>
<time>2010-06-13T09:16:18.88</time>
<name>9304</name>
</trkpt>
<trkpt lat="49.184312" lon="11.855597">
<ele>548.6</ele>
<speed>2.2</speed>
<course>190.3</course>
<desc>Speed 2.2 km/h Distance 38.87 km</desc>
<time>2010-06-13T09:16:20.87</time>
<name>9305</name>
</trkpt>
<trkpt lat="49.184240" lon="11.855577">
<ele>545.2</ele>
<speed>1.6</speed>
<course>204.3</course>
<desc>Speed 1.6 km/h Distance 38.88 km</desc>
<time>2010-06-13T09:16:22.87</time>
<name>9306</name>
</trkpt>
<trkpt lat="49.184192" lon="11.855543">
<ele>540.7</ele>
<speed>3.6</speed>
<course>222.5</course>
<desc>Speed 3.6 km/h Distance 38.88 km</desc>
<time>2010-06-13T09:16:24.88</time>
<name>9307</name>
</trkpt>
<trkpt lat="49.184183" lon="11.855532">
<ele>540.3</ele>
<speed>2.7</speed>
<course>270.0</course>
<desc>Speed 2.7 km/h Distance 38.88 km</desc>
<time>2010-06-13T09:16:25.87</time>
<name>9308</name>
</trkpt>
<trkpt lat="49.184183" lon="11.855530">
<ele>539.1</ele>
<speed>1.8</speed>
<course>161.8</course>
<desc>Speed 1.8 km/h Distance 38.88 km</desc>
<time>2010-06-13T09:16:26.86</time>
<name>9309</name>
</trkpt>
<trkpt lat="49.184173" lon="11.855535">
<ele>540.2</ele>
<speed>1.7</speed>
<course>192.6</course>
<desc>Speed 1.7 km/h Distance 38.88 km</desc>
<time>2010-06-13T09:16:27.87</time>
<name>9310</name>
</trkpt>
<trkpt lat="49.184168" lon="11.855533">
<ele>540.5</ele>
<speed>2.4</speed>
<course>209.0</course>
<desc>Speed 2.4 km/h Distance 38.89 km</desc>
<time>2010-06-13T09:16:28.87</time>
<name>9311</name>
</trkpt>
<trkpt lat="49.184157" lon="11.855523">
<ele>541.7</ele>
<speed>3.6</speed>
<course>202.6</course>
<desc>Speed 3.6 km/h Distance 38.89 km</desc>
<time>2010-06-13T09:16:29.87</time>
<name>9312</name>
</trkpt>
<trkpt lat="49.184138" lon="11.855512">
<ele>542.5</ele>
<speed>4.0</speed>
<course>213.2</course>
<desc>Speed 4.0 km/h Distance 38.89 km</desc>
<time>2010-06-13T09:16:30.86</time>
<name>9313</name>
</trkpt>
<trkpt lat="49.184132" lon="11.855505">
<ele>541.9</ele>
<speed>2.0</speed>
<course>185.0</course>
<desc>Speed 2.0 km/h Distance 38.89 km</desc>
<time>2010-06-13T09:16:31.87</time>
<name>9314</name>
</trkpt>
<trkpt lat="49.184123" lon="11.855503">
<ele>541.7</ele>
<speed>2.4</speed>
<course>180.0</course>
<desc>Speed 2.4 km/h Distance 38.89 km</desc>
<time>2010-06-13T09:16:32.87</time>
<name>9315</name>
</trkpt>
<trkpt lat="49.184115" lon="11.855503">
<ele>542.7</ele>
<speed>1.5</speed>
<course>338.5</course>
<desc>Speed 1.5 km/h Distance 38.89 km</desc>
<time>2010-06-13T09:16:33.88</time>
<name>9316</name>
</trkpt>
<trkpt lat="49.184123" lon="11.855498">
<ele>542.6</ele>
<speed>1.9</speed>
<course>282.3</course>
<desc>Speed 1.9 km/h Distance 38.89 km</desc>
<time>2010-06-13T09:16:34.88</time>
<name>9317</name>
</trkpt>
<trkpt lat="49.184125" lon="11.855487">
<ele>542.3</ele>
<speed>2.7</speed>
<course>282.3</course>
<desc>Speed 2.7 km/h Distance 38.89 km</desc>
<time>2010-06-13T09:16:35.88</time>
<name>9318</name>
</trkpt>
<trkpt lat="49.184127" lon="11.855475">
<ele>542.6</ele>
<speed>1.6</speed>
<course>206.4</course>
<desc>Speed 1.6 km/h Distance 38.89 km</desc>
<time>2010-06-13T09:16:36.88</time>
<name>9319</name>
</trkpt>
<trkpt lat="49.184120" lon="11.855470">
<ele>542.0</ele>
<speed>1.8</speed>
<course>290.9</course>
<desc>Speed 1.8 km/h Distance 38.90 km</desc>
<time>2010-06-13T09:16:37.87</time>
<name>9320</name>
</trkpt>
<trkpt lat="49.184125" lon="11.855450">
<ele>540.8</ele>
<speed>2.2</speed>
<course>260.4</course>
<desc>Speed 2.2 km/h Distance 38.90 km</desc>
<time>2010-06-13T09:16:38.88</time>
<name>9321</name>
</trkpt>
<trkpt lat="49.184123" lon="11.855435">
<ele>540.0</ele>
<speed>2.6</speed>
<course>201.9</course>
<desc>Speed 2.6 km/h Distance 38.90 km</desc>
<time>2010-06-13T09:16:39.88</time>
<name>9322</name>
</trkpt>
<trkpt lat="49.184080" lon="11.855408">
<ele>539.7</ele>
<speed>3.7</speed>
<course>208.6</course>
<desc>Speed 3.7 km/h Distance 38.90 km</desc>
<time>2010-06-13T09:16:41.89</time>
<name>9323</name>
</trkpt>
<trkpt lat="49.184070" lon="11.855400">
<ele>539.9</ele>
<speed>2.5</speed>
<course>207.5</course>
<desc>Speed 2.5 km/h Distance 38.90 km</desc>
<time>2010-06-13T09:16:42.90</time>
<name>9324</name>
</trkpt>
<trkpt lat="49.184062" lon="11.855393">
<ele>540.1</ele>
<speed>2.8</speed>
<course>221.2</course>
<desc>Speed 2.8 km/h Distance 38.91 km</desc>
<time>2010-06-13T09:16:43.89</time>
<name>9325</name>
</trkpt>
<trkpt lat="49.184052" lon="11.855380">
<ele>541.2</ele>
<speed>2.2</speed>
<course>301.4</course>
<desc>Speed 2.2 km/h Distance 38.91 km</desc>
<time>2010-06-13T09:16:44.88</time>
<name>9326</name>
</trkpt>
<trkpt lat="49.184055" lon="11.855372">
<ele>542.0</ele>
<speed>1.2</speed>
<course>220.9</course>
<desc>Speed 1.2 km/h Distance 38.91 km</desc>
<time>2010-06-13T09:16:45.87</time>
<name>9327</name>
</trkpt>
<trkpt lat="49.184050" lon="11.855365">
<ele>543.7</ele>
<speed>0.2</speed>
<course>156.6</course>
<desc>Speed 0.2 km/h Distance 38.91 km</desc>
<time>2010-06-13T09:16:46.87</time>
<name>9328</name>
</trkpt>
<trkpt lat="49.184040" lon="11.855372">
<ele>546.3</ele>
<speed>1.0</speed>
<course>344.5</course>
<desc>Speed 1.0 km/h Distance 38.91 km</desc>
<time>2010-06-13T09:16:47.89</time>
<name>9329</name>
</trkpt>
<trkpt lat="49.184052" lon="11.855367">
<ele>547.7</ele>
<speed>1.4</speed>
<course>270.0</course>
<desc>Speed 1.4 km/h Distance 38.91 km</desc>
<time>2010-06-13T09:16:48.87</time>
<name>9330</name>
</trkpt>
<trkpt lat="49.184052" lon="11.855363">
<ele>546.3</ele>
<speed>1.4</speed>
<course>192.6</course>
<desc>Speed 1.4 km/h Distance 38.91 km</desc>
<time>2010-06-13T09:16:49.87</time>
<name>9331</name>
</trkpt>
<trkpt lat="49.184042" lon="11.855360">
<ele>546.7</ele>
<speed>1.4</speed>
<course>232.6</course>
<desc>Speed 1.4 km/h Distance 38.91 km</desc>
<time>2010-06-13T09:16:50.87</time>
<name>9332</name>
</trkpt>
<trkpt lat="49.184032" lon="11.855340">
<ele>545.7</ele>
<speed>2.1</speed>
<course>216.8</course>
<desc>Speed 2.1 km/h Distance 38.91 km</desc>
<time>2010-06-13T09:16:51.87</time>
<name>9333</name>
</trkpt>
<trkpt lat="49.184020" lon="11.855327">
<ele>545.9</ele>
<speed>1.3</speed>
<course>224.5</course>
<desc>Speed 1.3 km/h Distance 38.92 km</desc>
<time>2010-06-13T09:16:52.88</time>
<name>9334</name>
</trkpt>
<trkpt lat="49.184013" lon="11.855317">
<ele>545.2</ele>
<speed>1.2</speed>
<course>308.1</course>
<desc>Speed 1.2 km/h Distance 38.92 km</desc>
<time>2010-06-13T09:16:53.87</time>
<name>9335</name>
</trkpt>
<trkpt lat="49.184015" lon="11.855313">
<ele>544.0</ele>
<speed>2.2</speed>
<course>227.4</course>
<desc>Speed 2.2 km/h Distance 38.92 km</desc>
<time>2010-06-13T09:16:54.88</time>
<name>9336</name>
</trkpt>
<trkpt lat="49.184010" lon="11.855305">
<ele>542.9</ele>
<speed>1.3</speed>
<course>203.0</course>
<desc>Speed 1.3 km/h Distance 38.92 km</desc>
<time>2010-06-13T09:16:55.87</time>
<name>9337</name>
</trkpt>
<trkpt lat="49.184000" lon="11.855298">
<ele>541.7</ele>
<speed>1.8</speed>
<course>180.0</course>
<desc>Speed 1.8 km/h Distance 38.92 km</desc>
<time>2010-06-13T09:16:56.88</time>
<name>9338</name>
</trkpt>
<trkpt lat="49.183985" lon="11.855298">
<ele>539.9</ele>
<speed>1.9</speed>
<course>194.9</course>
<desc>Speed 1.9 km/h Distance 38.92 km</desc>
<time>2010-06-13T09:16:57.88</time>
<name>9339</name>
</trkpt>
<trkpt lat="49.183968" lon="11.855292">
<ele>539.6</ele>
<speed>2.7</speed>
<course>213.2</course>
<desc>Speed 2.7 km/h Distance 38.92 km</desc>
<time>2010-06-13T09:16:58.87</time>
<name>9340</name>
</trkpt>
<trkpt lat="49.183962" lon="11.855285">
<ele>539.6</ele>
<speed>2.2</speed>
<course>203.7</course>
<desc>Speed 2.2 km/h Distance 38.92 km</desc>
<time>2010-06-13T09:16:59.89</time>
<name>9341</name>
</trkpt>
<trkpt lat="49.183947" lon="11.855275">
<ele>539.0</ele>
<speed>3.5</speed>
<course>192.6</course>
<desc>Speed 3.5 km/h Distance 38.93 km</desc>
<time>2010-06-13T09:17:00.88</time>
<name>9342</name>
</trkpt>
<trkpt lat="49.183932" lon="11.855270">
<ele>539.6</ele>
<speed>2.1</speed>
<course>246.5</course>
<desc>Speed 2.1 km/h Distance 38.93 km</desc>
<time>2010-06-13T09:17:01.87</time>
<name>9343</name>
</trkpt>
<trkpt lat="49.183928" lon="11.855258">
<ele>539.0</ele>
<speed>1.1</speed>
<course>251.3</course>
<desc>Speed 1.1 km/h Distance 38.93 km</desc>
<time>2010-06-13T09:17:02.87</time>
<name>9344</name>
</trkpt>
<trkpt lat="49.183925" lon="11.855243">
<ele>541.4</ele>
<speed>1.2</speed>
<course>190.4</course>
<desc>Speed 1.2 km/h Distance 38.93 km</desc>
<time>2010-06-13T09:17:03.88</time>
<name>9345</name>
</trkpt>
<trkpt lat="49.183913" lon="11.855240">
<ele>541.9</ele>
<speed>1.9</speed>
<course>217.9</course>
<desc>Speed 1.9 km/h Distance 38.93 km</desc>
<time>2010-06-13T09:17:04.87</time>
<name>9346</name>
</trkpt>
<trkpt lat="49.183905" lon="11.855230">
<ele>542.5</ele>
<speed>2.6</speed>
<course>270.0</course>
<desc>Speed 2.6 km/h Distance 38.93 km</desc>
<time>2010-06-13T09:17:05.88</time>
<name>9347</name>
</trkpt>
<trkpt lat="49.183905" lon="11.855225">
<ele>543.6</ele>
<speed>1.4</speed>
<course>207.6</course>
<desc>Speed 1.4 km/h Distance 38.93 km</desc>
<time>2010-06-13T09:17:06.89</time>
<name>9348</name>
</trkpt>
<trkpt lat="49.183888" lon="11.855212">
<ele>544.6</ele>
<speed>2.2</speed>
<course>204.7</course>
<desc>Speed 2.2 km/h Distance 38.93 km</desc>
<time>2010-06-13T09:17:07.88</time>
<name>9349</name>
</trkpt>
<trkpt lat="49.183872" lon="11.855200">
<ele>545.9</ele>
<speed>2.2</speed>
<course>207.6</course>
<desc>Speed 2.2 km/h Distance 38.94 km</desc>
<time>2010-06-13T09:17:08.88</time>
<name>9350</name>
</trkpt>
<trkpt lat="49.183855" lon="11.855187">
<ele>545.7</ele>
<speed>1.7</speed>
<course>252.9</course>
<desc>Speed 1.7 km/h Distance 38.94 km</desc>
<time>2010-06-13T09:17:09.88</time>
<name>9351</name>
</trkpt>
<trkpt lat="49.183853" lon="11.855178">
<ele>546.0</ele>
<speed>0.7</speed>
<course>213.2</course>
<desc>Speed 0.7 km/h Distance 38.94 km</desc>
<time>2010-06-13T09:17:10.87</time>
<name>9352</name>
</trkpt>
<trkpt lat="49.183845" lon="11.855170">
<ele>546.9</ele>
<speed>0.1</speed>
<course>217.5</course>
<desc>Speed 0.1 km/h Distance 38.94 km</desc>
<time>2010-06-13T09:17:11.89</time>
<name>9353</name>
</trkpt>
<trkpt lat="49.183835" lon="11.855158">
<ele>546.9</ele>
<speed>2.1</speed>
<course>232.6</course>
<desc>Speed 2.1 km/h Distance 38.94 km</desc>
<time>2010-06-13T09:17:12.88</time>
<name>9354</name>
</trkpt>
<trkpt lat="49.183823" lon="11.855135">
<ele>547.7</ele>
<speed>1.5</speed>
<course>180.0</course>
<desc>Speed 1.5 km/h Distance 38.94 km</desc>
<time>2010-06-13T09:17:13.87</time>
<name>9355</name>
</trkpt>
<trkpt lat="49.183815" lon="11.855135">
<ele>547.7</ele>
<speed>1.4</speed>
<course>159.9</course>
<desc>Speed 1.4 km/h Distance 38.94 km</desc>
<time>2010-06-13T09:17:14.87</time>
<name>9356</name>
</trkpt>
<trkpt lat="49.183807" lon="11.855140">
<ele>546.9</ele>
<speed>1.6</speed>
<course>207.5</course>
<desc>Speed 1.6 km/h Distance 38.95 km</desc>
<time>2010-06-13T09:17:15.87</time>
<name>9357</name>
</trkpt>
<trkpt lat="49.183798" lon="11.855133">
<ele>546.2</ele>
<speed>1.6</speed>
<course>204.5</course>
<desc>Speed 1.6 km/h Distance 38.95 km</desc>
<time>2010-06-13T09:17:16.88</time>
<name>9358</name>
</trkpt>
<trkpt lat="49.183782" lon="11.855122">
<ele>546.4</ele>
<speed>2.7</speed>
<course>219.0</course>
<desc>Speed 2.7 km/h Distance 38.95 km</desc>
<time>2010-06-13T09:17:17.89</time>
<name>9359</name>
</trkpt>
<trkpt lat="49.183775" lon="11.855113">
<ele>545.7</ele>
<speed>2.3</speed>
<course>198.2</course>
<desc>Speed 2.3 km/h Distance 38.95 km</desc>
<time>2010-06-13T09:17:18.88</time>
<name>9360</name>
</trkpt>
<trkpt lat="49.183765" lon="11.855108">
<ele>545.6</ele>
<speed>1.7</speed>
<course>249.1</course>
<desc>Speed 1.7 km/h Distance 38.95 km</desc>
<time>2010-06-13T09:17:19.87</time>
<name>9361</name>
</trkpt>
<trkpt lat="49.183763" lon="11.855102">
<ele>544.3</ele>
<speed>0.4</speed>
<course>222.5</course>
<desc>Speed 0.4 km/h Distance 38.95 km</desc>
<time>2010-06-13T09:17:20.86</time>
<name>9362</name>
</trkpt>
<trkpt lat="49.183738" lon="11.855067">
<ele>541.9</ele>
<speed>3.1</speed>
<course>173.4</course>
<desc>Speed 3.1 km/h Distance 38.96 km</desc>
<time>2010-06-13T09:17:22.87</time>
<name>9363</name>
</trkpt>
<trkpt lat="49.183718" lon="11.855070">
<ele>542.3</ele>
<speed>3.8</speed>
<course>232.7</course>
<desc>Speed 3.8 km/h Distance 38.96 km</desc>
<time>2010-06-13T09:17:23.87</time>
<name>9364</name>
</trkpt>
<trkpt lat="49.183712" lon="11.855057">
<ele>541.8</ele>
<speed>2.9</speed>
<course>287.1</course>
<desc>Speed 2.9 km/h Distance 38.96 km</desc>
<time>2010-06-13T09:17:24.87</time>
<name>9365</name>
</trkpt>
<trkpt lat="49.183713" lon="11.855048">
<ele>541.8</ele>
<speed>2.8</speed>
<course>198.1</course>
<desc>Speed 2.8 km/h Distance 38.96 km</desc>
<time>2010-06-13T09:17:25.86</time>
<name>9366</name>
</trkpt>
<trkpt lat="49.183700" lon="11.855042">
<ele>540.6</ele>
<speed>3.1</speed>
<course>200.2</course>
<desc>Speed 3.1 km/h Distance 38.96 km</desc>
<time>2010-06-13T09:17:26.87</time>
<name>9367</name>
</trkpt>
<trkpt lat="49.183688" lon="11.855035">
<ele>540.7</ele>
<speed>4.9</speed>
<course>197.9</course>
<desc>Speed 4.9 km/h Distance 38.96 km</desc>
<time>2010-06-13T09:17:27.88</time>
<name>9368</name>
</trkpt>
<trkpt lat="49.183672" lon="11.855027">
<ele>540.0</ele>
<speed>4.6</speed>
<course>210.9</course>
<desc>Speed 4.6 km/h Distance 38.96 km</desc>
<time>2010-06-13T09:17:28.88</time>
<name>9369</name>
</trkpt>
<trkpt lat="49.183652" lon="11.855008">
<ele>537.9</ele>
<speed>4.4</speed>
<course>173.5</course>
<desc>Speed 4.4 km/h Distance 38.97 km</desc>
<time>2010-06-13T09:17:29.86</time>
<name>9370</name>
</trkpt>
<trkpt lat="49.183635" lon="11.855012">
<ele>537.8</ele>
<speed>3.5</speed>
<course>209.0</course>
<desc>Speed 3.5 km/h Distance 38.97 km</desc>
<time>2010-06-13T09:17:30.88</time>
<name>9371</name>
</trkpt>
<trkpt lat="49.183623" lon="11.855002">
<ele>538.5</ele>
<speed>1.8</speed>
<course>201.5</course>
<desc>Speed 1.8 km/h Distance 38.97 km</desc>
<time>2010-06-13T09:17:31.88</time>
<name>9372</name>
</trkpt>
<trkpt lat="49.183615" lon="11.854997">
<ele>538.9</ele>
<speed>2.4</speed>
<course>187.7</course>
<desc>Speed 2.4 km/h Distance 38.97 km</desc>
<time>2010-06-13T09:17:32.87</time>
<name>9373</name>
</trkpt>
<trkpt lat="49.183607" lon="11.854995">
<ele>540.7</ele>
<speed>2.4</speed>
<course>202.1</course>
<desc>Speed 2.4 km/h Distance 38.97 km</desc>
<time>2010-06-13T09:17:33.86</time>
<name>9374</name>
</trkpt>
<trkpt lat="49.183593" lon="11.854987">
<ele>539.0</ele>
<speed>1.3</speed>
<course>238.6</course>
<desc>Speed 1.3 km/h Distance 38.97 km</desc>
<time>2010-06-13T09:17:34.88</time>
<name>9375</name>
</trkpt>
<trkpt lat="49.183590" lon="11.854978">
<ele>539.8</ele>
<speed>1.2</speed>
<course>180.0</course>
<desc>Speed 1.2 km/h Distance 38.97 km</desc>
<time>2010-06-13T09:17:35.88</time>
<name>9376</name>
</trkpt>
<trkpt lat="49.183583" lon="11.854978">
<ele>540.1</ele>
<speed>1.2</speed>
<course>202.1</course>
<desc>Speed 1.2 km/h Distance 38.98 km</desc>
<time>2010-06-13T09:17:36.87</time>
<name>9377</name>
</trkpt>
<trkpt lat="49.183570" lon="11.854970">
<ele>540.2</ele>
<speed>2.0</speed>
<course>18.8</course>
<desc>Speed 2.0 km/h Distance 38.98 km</desc>
<time>2010-06-13T09:17:37.88</time>
<name>9378</name>
</trkpt>
<trkpt lat="49.183573" lon="11.854972">
<ele>542.5</ele>
<speed>3.2</speed>
<course>247.3</course>
<desc>Speed 3.2 km/h Distance 38.98 km</desc>
<time>2010-06-13T09:17:38.86</time>
<name>9379</name>
</trkpt>
<trkpt lat="49.183568" lon="11.854953">
<ele>544.3</ele>
<speed>4.0</speed>
<course>220.3</course>
<desc>Speed 4.0 km/h Distance 38.98 km</desc>
<time>2010-06-13T09:17:39.88</time>
<name>9380</name>
</trkpt>
<trkpt lat="49.183552" lon="11.854932">
<ele>545.6</ele>
<speed>4.4</speed>
<course>209.7</course>
<desc>Speed 4.4 km/h Distance 38.98 km</desc>
<time>2010-06-13T09:17:40.87</time>
<name>9381</name>
</trkpt>
<trkpt lat="49.183538" lon="11.854920">
<ele>547.5</ele>
<speed>4.8</speed>
<course>248.9</course>
<desc>Speed 4.8 km/h Distance 38.98 km</desc>
<time>2010-06-13T09:17:41.87</time>
<name>9382</name>
</trkpt>
<trkpt lat="49.183535" lon="11.854907">
<ele>549.8</ele>
<speed>3.8</speed>
<course>221.1</course>
<desc>Speed 3.8 km/h Distance 38.98 km</desc>
<time>2010-06-13T09:17:42.88</time>
<name>9383</name>
</trkpt>
<trkpt lat="49.183520" lon="11.854887">
<ele>549.2</ele>
<speed>4.2</speed>
<course>178.5</course>
<desc>Speed 4.2 km/h Distance 38.99 km</desc>
<time>2010-06-13T09:17:43.88</time>
<name>9384</name>
</trkpt>
<trkpt lat="49.183495" lon="11.854887">
<ele>550.3</ele>
<speed>4.6</speed>
<course>196.3</course>
<desc>Speed 4.6 km/h Distance 38.99 km</desc>
<time>2010-06-13T09:17:44.87</time>
<name>9385</name>
</trkpt>
<trkpt lat="49.183480" lon="11.854880">
<ele>549.5</ele>
<speed>4.4</speed>
<course>206.0</course>
<desc>Speed 4.4 km/h Distance 38.99 km</desc>
<time>2010-06-13T09:17:45.87</time>
<name>9386</name>
</trkpt>
<trkpt lat="49.183467" lon="11.854870">
<ele>548.3</ele>
<speed>4.0</speed>
<course>198.0</course>
<desc>Speed 4.0 km/h Distance 38.99 km</desc>
<time>2010-06-13T09:17:46.88</time>
<name>9387</name>
</trkpt>
<trkpt lat="49.183447" lon="11.854860">
<ele>548.3</ele>
<speed>5.3</speed>
<course>227.4</course>
<desc>Speed 5.3 km/h Distance 38.99 km</desc>
<time>2010-06-13T09:17:47.88</time>
<name>9388</name>
</trkpt>
<trkpt lat="49.183432" lon="11.854835">
<ele>547.0</ele>
<speed>5.4</speed>
<course>315.5</course>
<desc>Speed 5.4 km/h Distance 39.00 km</desc>
<time>2010-06-13T09:17:48.87</time>
<name>9389</name>
</trkpt>
<trkpt lat="49.183435" lon="11.854830">
<ele>549.6</ele>
<speed>3.3</speed>
<course>216.6</course>
<desc>Speed 3.3 km/h Distance 39.00 km</desc>
<time>2010-06-13T09:17:49.87</time>
<name>9390</name>
</trkpt>
<trkpt lat="49.183423" lon="11.854817">
<ele>551.1</ele>
<speed>3.4</speed>
<course>175.3</course>
<desc>Speed 3.4 km/h Distance 39.00 km</desc>
<time>2010-06-13T09:17:50.88</time>
<name>9391</name>
</trkpt>
<trkpt lat="49.183412" lon="11.854818">
<ele>550.3</ele>
<speed>2.9</speed>
<course>215.7</course>
<desc>Speed 2.9 km/h Distance 39.00 km</desc>
<time>2010-06-13T09:17:51.87</time>
<name>9392</name>
</trkpt>
<trkpt lat="49.183395" lon="11.854800">
<ele>549.9</ele>
<speed>2.4</speed>
<course>150.8</course>
<desc>Speed 2.4 km/h Distance 39.00 km</desc>
<time>2010-06-13T09:17:52.88</time>
<name>9393</name>
</trkpt>
<trkpt lat="49.183392" lon="11.854803">
<ele>551.4</ele>
<speed>2.4</speed>
<course>203.4</course>
<desc>Speed 2.4 km/h Distance 39.00 km</desc>
<time>2010-06-13T09:17:53.88</time>
<name>9394</name>
</trkpt>
<trkpt lat="49.183372" lon="11.854790">
<ele>551.2</ele>
<speed>4.1</speed>
<course>167.4</course>
<desc>Speed 4.1 km/h Distance 39.01 km</desc>
<time>2010-06-13T09:17:54.89</time>
<name>9395</name>
</trkpt>
<trkpt lat="49.183370" lon="11.854790">
<ele>552.9</ele>
<speed>3.1</speed>
<course>221.1</course>
<desc>Speed 3.1 km/h Distance 39.01 km</desc>
<time>2010-06-13T09:17:55.86</time>
<name>9396</name>
</trkpt>
<trkpt lat="49.183355" lon="11.854770">
<ele>555.3</ele>
<speed>3.2</speed>
<course>7.7</course>
<desc>Speed 3.2 km/h Distance 39.01 km</desc>
<time>2010-06-13T09:17:56.88</time>
<name>9397</name>
</trkpt>
<trkpt lat="49.183363" lon="11.854772">
<ele>556.0</ele>
<speed>0.9</speed>
<course>8.1</course>
<desc>Speed 0.9 km/h Distance 39.01 km</desc>
<time>2010-06-13T09:17:57.87</time>
<name>9398</name>
</trkpt>
<trkpt lat="49.183368" lon="11.854772">
<ele>559.1</ele>
<speed>1.7</speed>
<course>90.0</course>
<desc>Speed 1.7 km/h Distance 39.01 km</desc>
<time>2010-06-13T09:17:58.87</time>
<name>9399</name>
</trkpt>
<trkpt lat="49.183368" lon="11.854775">
<ele>559.6</ele>
<speed>2.6</speed>
<course>14.9</course>
<desc>Speed 2.6 km/h Distance 39.01 km</desc>
<time>2010-06-13T09:17:59.88</time>
<name>9400</name>
</trkpt>
<trkpt lat="49.183377" lon="11.854778">
<ele>559.1</ele>
<speed>0.7</speed>
<course>227.4</course>
<desc>Speed 0.7 km/h Distance 39.01 km</desc>
<time>2010-06-13T09:18:00.87</time>
<name>9401</name>
</trkpt>
<trkpt lat="49.183367" lon="11.854762">
<ele>560.4</ele>
<speed>2.3</speed>
<course>336.2</course>
<desc>Speed 2.3 km/h Distance 39.01 km</desc>
<time>2010-06-13T09:18:01.88</time>
<name>9402</name>
</trkpt>
<trkpt lat="49.183377" lon="11.854755">
<ele>561.6</ele>
<speed>3.0</speed>
<course>270.0</course>
<desc>Speed 3.0 km/h Distance 39.01 km</desc>
<time>2010-06-13T09:18:02.87</time>
<name>9403</name>
</trkpt>
<trkpt lat="49.183377" lon="11.854743">
<ele>563.3</ele>
<speed>2.3</speed>
<course>192.6</course>
<desc>Speed 2.3 km/h Distance 39.01 km</desc>
<time>2010-06-13T09:18:03.87</time>
<name>9404</name>
</trkpt>
<trkpt lat="49.183372" lon="11.854742">
<ele>564.3</ele>
<speed>1.7</speed>
<course>218.1</course>
<desc>Speed 1.7 km/h Distance 39.01 km</desc>
<time>2010-06-13T09:18:04.87</time>
<name>9405</name>
</trkpt>
<trkpt lat="49.183363" lon="11.854732">
<ele>566.3</ele>
<speed>2.3</speed>
<course>177.5</course>
<desc>Speed 2.3 km/h Distance 39.02 km</desc>
<time>2010-06-13T09:18:05.86</time>
<name>9406</name>
</trkpt>
<trkpt lat="49.183345" lon="11.854732">
<ele>567.6</ele>
<speed>3.3</speed>
<course>184.7</course>
<desc>Speed 3.3 km/h Distance 39.02 km</desc>
<time>2010-06-13T09:18:06.88</time>
<name>9407</name>
</trkpt>
<trkpt lat="49.183333" lon="11.854730">
<ele>568.8</ele>
<speed>2.8</speed>
<course>207.5</course>
<desc>Speed 2.8 km/h Distance 39.02 km</desc>
<time>2010-06-13T09:18:07.87</time>
<name>9408</name>
</trkpt>
<trkpt lat="49.183325" lon="11.854723">
<ele>569.1</ele>
<speed>3.5</speed>
<course>178.8</course>
<desc>Speed 3.5 km/h Distance 39.02 km</desc>
<time>2010-06-13T09:18:08.87</time>
<name>9409</name>
</trkpt>
<trkpt lat="49.183312" lon="11.854723">
<ele>570.2</ele>
<speed>3.5</speed>
<course>180.0</course>
<desc>Speed 3.5 km/h Distance 39.02 km</desc>
<time>2010-06-13T09:18:09.89</time>
<name>9410</name>
</trkpt>
<trkpt lat="49.183302" lon="11.854723">
<ele>570.8</ele>
<speed>2.9</speed>
<course>198.2</course>
<desc>Speed 2.9 km/h Distance 39.02 km</desc>
<time>2010-06-13T09:18:10.88</time>
<name>9411</name>
</trkpt>
<trkpt lat="49.183292" lon="11.854718">
<ele>569.8</ele>
<speed>2.8</speed>
<course>171.9</course>
<desc>Speed 2.8 km/h Distance 39.02 km</desc>
<time>2010-06-13T09:18:11.87</time>
<name>9412</name>
</trkpt>
<trkpt lat="49.183277" lon="11.854722">
<ele>569.0</ele>
<speed>3.4</speed>
<course>180.0</course>
<desc>Speed 3.4 km/h Distance 39.03 km</desc>
<time>2010-06-13T09:18:12.87</time>
<name>9413</name>
</trkpt>
<trkpt lat="49.183258" lon="11.854722">
<ele>568.8</ele>
<speed>3.4</speed>
<course>158.5</course>
<desc>Speed 3.4 km/h Distance 39.03 km</desc>
<time>2010-06-13T09:18:13.87</time>
<name>9414</name>
</trkpt>
<trkpt lat="49.183250" lon="11.854727">
<ele>568.4</ele>
<speed>1.9</speed>
<course>193.5</course>
<desc>Speed 1.9 km/h Distance 39.03 km</desc>
<time>2010-06-13T09:18:14.88</time>
<name>9415</name>
</trkpt>
<trkpt lat="49.183237" lon="11.854722">
<ele>568.7</ele>
<speed>4.0</speed>
<course>196.3</course>
<desc>Speed 4.0 km/h Distance 39.03 km</desc>
<time>2010-06-13T09:18:15.87</time>
<name>9416</name>
</trkpt>
<trkpt lat="49.183222" lon="11.854715">
<ele>567.9</ele>
<speed>3.6</speed>
<course>172.6</course>
<desc>Speed 3.6 km/h Distance 39.03 km</desc>
<time>2010-06-13T09:18:16.89</time>
<name>9417</name>
</trkpt>
<trkpt lat="49.183197" lon="11.854720">
<ele>568.2</ele>
<speed>4.8</speed>
<course>182.9</course>
<desc>Speed 4.8 km/h Distance 39.04 km</desc>
<time>2010-06-13T09:18:17.89</time>
<name>9418</name>
</trkpt>
<trkpt lat="49.183170" lon="11.854718">
<ele>567.5</ele>
<speed>5.4</speed>
<course>182.7</course>
<desc>Speed 5.4 km/h Distance 39.04 km</desc>
<time>2010-06-13T09:18:18.87</time>
<name>9419</name>
</trkpt>
<trkpt lat="49.183150" lon="11.854717">
<ele>568.8</ele>
<speed>4.0</speed>
<course>194.0</course>
<desc>Speed 4.0 km/h Distance 39.04 km</desc>
<time>2010-06-13T09:18:19.86</time>
<name>9420</name>
</trkpt>
<trkpt lat="49.183137" lon="11.854712">
<ele>567.6</ele>
<speed>3.1</speed>
<course>161.9</course>
<desc>Speed 3.1 km/h Distance 39.04 km</desc>
<time>2010-06-13T09:18:20.88</time>
<name>9421</name>
</trkpt>
<trkpt lat="49.183123" lon="11.854718">
<ele>567.0</ele>
<speed>2.1</speed>
<course>187.1</course>
<desc>Speed 2.1 km/h Distance 39.04 km</desc>
<time>2010-06-13T09:18:21.86</time>
<name>9422</name>
</trkpt>
<trkpt lat="49.183107" lon="11.854715">
<ele>567.3</ele>
<speed>3.4</speed>
<course>180.0</course>
<desc>Speed 3.4 km/h Distance 39.05 km</desc>
<time>2010-06-13T09:18:22.88</time>
<name>9423</name>
</trkpt>
<trkpt lat="49.183095" lon="11.854715">
<ele>568.0</ele>
<speed>3.0</speed>
<course>168.4</course>
<desc>Speed 3.0 km/h Distance 39.05 km</desc>
<time>2010-06-13T09:18:23.88</time>
<name>9424</name>
</trkpt>
<trkpt lat="49.183085" lon="11.854718">
<ele>568.9</ele>
<speed>2.8</speed>
<course>231.9</course>
<desc>Speed 2.8 km/h Distance 39.05 km</desc>
<time>2010-06-13T09:18:24.87</time>
<name>9425</name>
</trkpt>
<trkpt lat="49.183082" lon="11.854712">
<ele>566.4</ele>
<speed>2.1</speed>
<course>165.1</course>
<desc>Speed 2.1 km/h Distance 39.05 km</desc>
<time>2010-06-13T09:18:25.87</time>
<name>9426</name>
</trkpt>
<trkpt lat="49.183073" lon="11.854715">
<ele>564.4</ele>
<speed>1.8</speed>
<course>326.3</course>
<desc>Speed 1.8 km/h Distance 39.05 km</desc>
<time>2010-06-13T09:18:26.88</time>
<name>9427</name>
</trkpt>
<trkpt lat="49.183077" lon="11.854712">
<ele>561.0</ele>
<speed>0.4</speed>
<course>319.0</course>
<desc>Speed 0.4 km/h Distance 39.05 km</desc>
<time>2010-06-13T09:18:27.86</time>
<name>9428</name>
</trkpt>
<trkpt lat="49.183087" lon="11.854698">
<ele>561.0</ele>
<speed>0.5</speed>
<course>254.5</course>
<desc>Speed 0.5 km/h Distance 39.05 km</desc>
<time>2010-06-13T09:18:28.88</time>
<name>9429</name>
</trkpt>
<trkpt lat="49.183083" lon="11.854680">
<ele>559.8</ele>
<speed>2.6</speed>
<course>180.0</course>
<desc>Speed 2.6 km/h Distance 39.05 km</desc>
<time>2010-06-13T09:18:29.87</time>
<name>9430</name>
</trkpt>
<trkpt lat="49.183078" lon="11.854680">
<ele>560.0</ele>
<speed>2.8</speed>
<course>270.0</course>
<desc>Speed 2.8 km/h Distance 39.05 km</desc>
<time>2010-06-13T09:18:30.87</time>
<name>9431</name>
</trkpt>
<trkpt lat="49.183078" lon="11.854670">
<ele>559.8</ele>
<speed>2.7</speed>
<course>187.5</course>
<desc>Speed 2.7 km/h Distance 39.05 km</desc>
<time>2010-06-13T09:18:31.86</time>
<name>9432</name>
</trkpt>
<trkpt lat="49.183063" lon="11.854667">
<ele>559.9</ele>
<speed>2.6</speed>
<course>175.3</course>
<desc>Speed 2.6 km/h Distance 39.06 km</desc>
<time>2010-06-13T09:18:32.88</time>
<name>9433</name>
</trkpt>
<trkpt lat="49.183052" lon="11.854668">
<ele>560.8</ele>
<speed>4.1</speed>
<course>175.6</course>
<desc>Speed 4.1 km/h Distance 39.06 km</desc>
<time>2010-06-13T09:18:33.88</time>
<name>9434</name>
</trkpt>
<trkpt lat="49.183042" lon="11.854670">
<ele>559.8</ele>
<speed>2.3</speed>
<course>246.4</course>
<desc>Speed 2.3 km/h Distance 39.06 km</desc>
<time>2010-06-13T09:18:34.86</time>
<name>9435</name>
</trkpt>
<trkpt lat="49.183038" lon="11.854658">
<ele>558.5</ele>
<speed>2.2</speed>
<course>187.7</course>
<desc>Speed 2.2 km/h Distance 39.06 km</desc>
<time>2010-06-13T09:18:35.87</time>
<name>9436</name>
</trkpt>
<trkpt lat="49.183030" lon="11.854657">
<ele>557.4</ele>
<speed>2.4</speed>
<course>204.6</course>
<desc>Speed 2.4 km/h Distance 39.06 km</desc>
<time>2010-06-13T09:18:36.85</time>
<name>9437</name>
</trkpt>
<trkpt lat="49.183013" lon="11.854645">
<ele>556.7</ele>
<speed>2.3</speed>
<course>207.5</course>
<desc>Speed 2.3 km/h Distance 39.06 km</desc>
<time>2010-06-13T09:18:37.86</time>
<name>9438</name>
</trkpt>
<trkpt lat="49.182997" lon="11.854632">
<ele>555.6</ele>
<speed>1.8</speed>
<course>225.5</course>
<desc>Speed 1.8 km/h Distance 39.06 km</desc>
<time>2010-06-13T09:18:38.87</time>
<name>9439</name>
</trkpt>
<trkpt lat="49.182982" lon="11.854608">
<ele>555.6</ele>
<speed>3.2</speed>
<course>263.8</course>
<desc>Speed 3.2 km/h Distance 39.07 km</desc>
<time>2010-06-13T09:18:39.87</time>
<name>9440</name>
</trkpt>
<trkpt lat="49.182980" lon="11.854585">
<ele>556.6</ele>
<speed>2.8</speed>
<course>243.0</course>
<desc>Speed 2.8 km/h Distance 39.07 km</desc>
<time>2010-06-13T09:18:40.86</time>
<name>9441</name>
</trkpt>
<trkpt lat="49.182973" lon="11.854565">
<ele>556.6</ele>
<speed>2.4</speed>
<course>215.7</course>
<desc>Speed 2.4 km/h Distance 39.07 km</desc>
<time>2010-06-13T09:18:41.87</time>
<name>9442</name>
</trkpt>
<trkpt lat="49.182957" lon="11.854547">
<ele>557.5</ele>
<speed>2.4</speed>
<course>218.1</course>
<desc>Speed 2.4 km/h Distance 39.07 km</desc>
<time>2010-06-13T09:18:42.87</time>
<name>9443</name>
</trkpt>
<trkpt lat="49.182940" lon="11.854527">
<ele>558.6</ele>
<speed>2.7</speed>
<course>216.4</course>
<desc>Speed 2.7 km/h Distance 39.07 km</desc>
<time>2010-06-13T09:18:43.86</time>
<name>9444</name>
</trkpt>
<trkpt lat="49.182927" lon="11.854512">
<ele>558.8</ele>
<speed>3.6</speed>
<course>141.9</course>
<desc>Speed 3.6 km/h Distance 39.08 km</desc>
<time>2010-06-13T09:18:44.88</time>
<name>9445</name>
</trkpt>
<trkpt lat="49.182918" lon="11.854522">
<ele>558.7</ele>
<speed>3.1</speed>
<course>153.6</course>
<desc>Speed 3.1 km/h Distance 39.08 km</desc>
<time>2010-06-13T09:18:45.86</time>
<name>9446</name>
</trkpt>
<trkpt lat="49.182912" lon="11.854527">
<ele>558.7</ele>
<speed>2.4</speed>
<course>138.9</course>
<desc>Speed 2.4 km/h Distance 39.08 km</desc>
<time>2010-06-13T09:18:46.87</time>
<name>9447</name>
</trkpt>
<trkpt lat="49.182897" lon="11.854547">
<ele>558.7</ele>
<speed>2.3</speed>
<course>143.4</course>
<desc>Speed 2.3 km/h Distance 39.08 km</desc>
<time>2010-06-13T09:18:47.87</time>
<name>9448</name>
</trkpt>
<trkpt lat="49.182885" lon="11.854560">
<ele>559.1</ele>
<speed>2.5</speed>
<course>188.1</course>
<desc>Speed 2.5 km/h Distance 39.08 km</desc>
<time>2010-06-13T09:18:48.85</time>
<name>9449</name>
</trkpt>
<trkpt lat="49.182870" lon="11.854557">
<ele>559.7</ele>
<speed>2.4</speed>
<course>152.8</course>
<desc>Speed 2.4 km/h Distance 39.08 km</desc>
<time>2010-06-13T09:18:49.87</time>
<name>9450</name>
</trkpt>
<trkpt lat="49.182855" lon="11.854568">
<ele>558.7</ele>
<speed>2.2</speed>
<course>185.3</course>
<desc>Speed 2.2 km/h Distance 39.09 km</desc>
<time>2010-06-13T09:18:50.85</time>
<name>9451</name>
</trkpt>
<trkpt lat="49.182842" lon="11.854567">
<ele>560.6</ele>
<speed>0.6</speed>
<course>334.4</course>
<desc>Speed 0.6 km/h Distance 39.09 km</desc>
<time>2010-06-13T09:18:51.86</time>
<name>9452</name>
</trkpt>
<trkpt lat="49.182848" lon="11.854562">
<ele>557.4</ele>
<speed>0.9</speed>
<course>263.8</course>
<desc>Speed 0.9 km/h Distance 39.09 km</desc>
<time>2010-06-13T09:18:52.86</time>
<name>9453</name>
</trkpt>
<trkpt lat="49.182847" lon="11.854538">
<ele>558.0</ele>
<speed>1.8</speed>
<course>292.7</course>
<desc>Speed 1.8 km/h Distance 39.09 km</desc>
<time>2010-06-13T09:18:53.86</time>
<name>9454</name>
</trkpt>
<trkpt lat="49.182852" lon="11.854520">
<ele>557.1</ele>
<speed>1.7</speed>
<course>347.4</course>
<desc>Speed 1.7 km/h Distance 39.09 km</desc>
<time>2010-06-13T09:18:54.87</time>
<name>9455</name>
</trkpt>
<trkpt lat="49.182857" lon="11.854518">
<ele>557.3</ele>
<speed>1.9</speed>
<course>255.7</course>
<desc>Speed 1.9 km/h Distance 39.09 km</desc>
<time>2010-06-13T09:18:55.87</time>
<name>9456</name>
</trkpt>
<trkpt lat="49.182853" lon="11.854498">
<ele>557.9</ele>
<speed>3.6</speed>
<course>285.6</course>
<desc>Speed 3.6 km/h Distance 39.09 km</desc>
<time>2010-06-13T09:18:56.86</time>
<name>9457</name>
</trkpt>
<trkpt lat="49.182857" lon="11.854480">
<ele>557.9</ele>
<speed>3.6</speed>
<course>217.3</course>
<desc>Speed 3.6 km/h Distance 39.09 km</desc>
<time>2010-06-13T09:18:57.87</time>
<name>9458</name>
</trkpt>
<trkpt lat="49.182837" lon="11.854457">
<ele>553.7</ele>
<speed>5.6</speed>
<course>253.0</course>
<desc>Speed 5.6 km/h Distance 39.10 km</desc>
<time>2010-06-13T09:18:58.87</time>
<name>9459</name>
</trkpt>
<trkpt lat="49.182832" lon="11.854432">
<ele>550.4</ele>
<speed>3.5</speed>
<course>232.5</course>
<desc>Speed 3.5 km/h Distance 39.10 km</desc>
<time>2010-06-13T09:18:59.86</time>
<name>9460</name>
</trkpt>
<trkpt lat="49.182822" lon="11.854412">
<ele>553.0</ele>
<speed>2.4</speed>
<course>232.6</course>
<desc>Speed 2.4 km/h Distance 39.10 km</desc>
<time>2010-06-13T09:19:00.87</time>
<name>9461</name>
</trkpt>
<trkpt lat="49.182813" lon="11.854395">
<ele>554.7</ele>
<speed>0.6</speed>
<course>136.8</course>
<desc>Speed 0.6 km/h Distance 39.10 km</desc>
<time>2010-06-13T09:19:01.86</time>
<name>9462</name>
</trkpt>
<trkpt lat="49.182802" lon="11.854412">
<ele>553.9</ele>
<speed>0.8</speed>
<course>152.1</course>
<desc>Speed 0.8 km/h Distance 39.10 km</desc>
<time>2010-06-13T09:19:02.86</time>
<name>9463</name>
</trkpt>
<trkpt lat="49.182793" lon="11.854418">
<ele>551.5</ele>
<speed>1.1</speed>
<course>108.3</course>
<desc>Speed 1.1 km/h Distance 39.11 km</desc>
<time>2010-06-13T09:19:03.86</time>
<name>9464</name>
</trkpt>
<trkpt lat="49.182780" lon="11.854480">
<ele>550.1</ele>
<speed>4.4</speed>
<course>135.6</course>
<desc>Speed 4.4 km/h Distance 39.11 km</desc>
<time>2010-06-13T09:19:05.85</time>
<name>9465</name>
</trkpt>
<trkpt lat="49.182770" lon="11.854495">
<ele>548.3</ele>
<speed>3.5</speed>
<course>149.5</course>
<desc>Speed 3.5 km/h Distance 39.11 km</desc>
<time>2010-06-13T09:19:06.87</time>
<name>9466</name>
</trkpt>
<trkpt lat="49.182753" lon="11.854510">
<ele>550.4</ele>
<speed>3.9</speed>
<course>175.2</course>
<desc>Speed 3.9 km/h Distance 39.11 km</desc>
<time>2010-06-13T09:19:07.85</time>
<name>9467</name>
</trkpt>
<trkpt lat="49.182715" lon="11.854515">
<ele>552.1</ele>
<speed>2.8</speed>
<course>112.2</course>
<desc>Speed 2.8 km/h Distance 39.12 km</desc>
<time>2010-06-13T09:19:09.87</time>
<name>9468</name>
</trkpt>
<trkpt lat="49.182708" lon="11.854540">
<ele>550.0</ele>
<speed>2.8</speed>
<course>166.5</course>
<desc>Speed 2.8 km/h Distance 39.12 km</desc>
<time>2010-06-13T09:19:10.85</time>
<name>9469</name>
</trkpt>
<trkpt lat="49.182695" lon="11.854545">
<ele>550.8</ele>
<speed>3.6</speed>
<course>199.9</course>
<desc>Speed 3.6 km/h Distance 39.12 km</desc>
<time>2010-06-13T09:19:11.87</time>
<name>9470</name>
</trkpt>
<trkpt lat="49.182680" lon="11.854537">
<ele>553.8</ele>
<speed>3.6</speed>
<course>243.0</course>
<desc>Speed 3.6 km/h Distance 39.12 km</desc>
<time>2010-06-13T09:19:12.85</time>
<name>9471</name>
</trkpt>
<trkpt lat="49.182675" lon="11.854522">
<ele>556.8</ele>
<speed>4.0</speed>
<course>189.8</course>
<desc>Speed 4.0 km/h Distance 39.12 km</desc>
<time>2010-06-13T09:19:13.88</time>
<name>9472</name>
</trkpt>
<trkpt lat="49.182657" lon="11.854517">
<ele>555.4</ele>
<speed>4.6</speed>
<course>153.6</course>
<desc>Speed 4.6 km/h Distance 39.13 km</desc>
<time>2010-06-13T09:19:14.86</time>
<name>9473</name>
</trkpt>
<trkpt lat="49.182650" lon="11.854522">
<ele>554.6</ele>
<speed>3.3</speed>
<course>178.8</course>
<desc>Speed 3.3 km/h Distance 39.13 km</desc>
<time>2010-06-13T09:19:15.85</time>
<name>9474</name>
</trkpt>
<trkpt lat="49.182643" lon="11.854522">
<ele>553.3</ele>
<speed>2.4</speed>
<course>154.0</course>
<desc>Speed 2.4 km/h Distance 39.13 km</desc>
<time>2010-06-13T09:19:16.86</time>
<name>9475</name>
</trkpt>
<trkpt lat="49.182630" lon="11.854532">
<ele>552.1</ele>
<speed>3.7</speed>
<course>135.7</course>
<desc>Speed 3.7 km/h Distance 39.13 km</desc>
<time>2010-06-13T09:19:17.87</time>
<name>9476</name>
</trkpt>
<trkpt lat="49.182620" lon="11.854547">
<ele>552.4</ele>
<speed>3.5</speed>
<course>135.6</course>
<desc>Speed 3.5 km/h Distance 39.13 km</desc>
<time>2010-06-13T09:19:18.87</time>
<name>9477</name>
</trkpt>
<trkpt lat="49.182610" lon="11.854562">
<ele>551.7</ele>
<speed>3.4</speed>
<course>127.0</course>
<desc>Speed 3.4 km/h Distance 39.13 km</desc>
<time>2010-06-13T09:19:19.85</time>
<name>9478</name>
</trkpt>
<trkpt lat="49.182607" lon="11.854568">
<ele>551.1</ele>
<speed>3.1</speed>
<course>114.7</course>
<desc>Speed 3.1 km/h Distance 39.13 km</desc>
<time>2010-06-13T09:19:20.86</time>
<name>9479</name>
</trkpt>
<trkpt lat="49.182602" lon="11.854585">
<ele>546.9</ele>
<speed>1.6</speed>
<course>144.3</course>
<desc>Speed 1.6 km/h Distance 39.13 km</desc>
<time>2010-06-13T09:19:21.86</time>
<name>9480</name>
</trkpt>
<trkpt lat="49.182585" lon="11.854603">
<ele>545.1</ele>
<speed>4.6</speed>
<course>203.4</course>
<desc>Speed 4.6 km/h Distance 39.14 km</desc>
<time>2010-06-13T09:19:22.86</time>
<name>9481</name>
</trkpt>
<trkpt lat="49.182575" lon="11.854597">
<ele>546.8</ele>
<speed>4.2</speed>
<course>207.9</course>
<desc>Speed 4.2 km/h Distance 39.14 km</desc>
<time>2010-06-13T09:19:23.86</time>
<name>9482</name>
</trkpt>
<trkpt lat="49.182567" lon="11.854590">
<ele>545.1</ele>
<speed>4.8</speed>
<course>251.3</course>
<desc>Speed 4.8 km/h Distance 39.14 km</desc>
<time>2010-06-13T09:19:24.87</time>
<name>9483</name>
</trkpt>
<trkpt lat="49.182563" lon="11.854575">
<ele>545.3</ele>
<speed>2.2</speed>
<course>254.4</course>
<desc>Speed 2.2 km/h Distance 39.14 km</desc>
<time>2010-06-13T09:19:25.87</time>
<name>9484</name>
</trkpt>
<trkpt lat="49.182560" lon="11.854557">
<ele>546.0</ele>
<speed>2.9</speed>
<course>209.4</course>
<desc>Speed 2.9 km/h Distance 39.14 km</desc>
<time>2010-06-13T09:19:26.86</time>
<name>9485</name>
</trkpt>
<trkpt lat="49.182548" lon="11.854547">
<ele>548.1</ele>
<speed>2.8</speed>
<course>213.2</course>
<desc>Speed 2.8 km/h Distance 39.14 km</desc>
<time>2010-06-13T09:19:27.86</time>
<name>9486</name>
</trkpt>
<trkpt lat="49.182540" lon="11.854538">
<ele>550.2</ele>
<speed>1.9</speed>
<course>208.6</course>
<desc>Speed 1.9 km/h Distance 39.14 km</desc>
<time>2010-06-13T09:19:28.85</time>
<name>9487</name>
</trkpt>
<trkpt lat="49.182530" lon="11.854530">
<ele>550.0</ele>
<speed>3.3</speed>
<course>168.6</course>
<desc>Speed 3.3 km/h Distance 39.15 km</desc>
<time>2010-06-13T09:19:29.85</time>
<name>9488</name>
</trkpt>
<trkpt lat="49.182508" lon="11.854537">
<ele>552.2</ele>
<speed>3.9</speed>
<course>150.0</course>
<desc>Speed 3.9 km/h Distance 39.15 km</desc>
<time>2010-06-13T09:19:30.86</time>
<name>9489</name>
</trkpt>
<trkpt lat="49.182495" lon="11.854548">
<ele>553.6</ele>
<speed>4.0</speed>
<course>108.1</course>
<desc>Speed 4.0 km/h Distance 39.15 km</desc>
<time>2010-06-13T09:19:31.86</time>
<name>9490</name>
</trkpt>
<trkpt lat="49.182490" lon="11.854572">
<ele>554.9</ele>
<speed>3.5</speed>
<course>90.0</course>
<desc>Speed 3.5 km/h Distance 39.15 km</desc>
<time>2010-06-13T09:19:32.86</time>
<name>9491</name>
</trkpt>
<trkpt lat="49.182490" lon="11.854598">
<ele>556.1</ele>
<speed>3.1</speed>
<course>112.2</course>
<desc>Speed 3.1 km/h Distance 39.15 km</desc>
<time>2010-06-13T09:19:33.86</time>
<name>9492</name>
</trkpt>
<trkpt lat="49.182483" lon="11.854623">
<ele>554.6</ele>
<speed>2.3</speed>
<course>84.2</course>
<desc>Speed 2.3 km/h Distance 39.16 km</desc>
<time>2010-06-13T09:19:34.86</time>
<name>9493</name>
</trkpt>
<trkpt lat="49.182485" lon="11.854648">
<ele>553.2</ele>
<speed>2.1</speed>
<course>347.4</course>
<desc>Speed 2.1 km/h Distance 39.16 km</desc>
<time>2010-06-13T09:19:35.84</time>
<name>9494</name>
</trkpt>
<trkpt lat="49.182490" lon="11.854647">
<ele>552.2</ele>
<speed>0.5</speed>
<course>270.0</course>
<desc>Speed 0.5 km/h Distance 39.16 km</desc>
<time>2010-06-13T09:19:36.85</time>
<name>9495</name>
</trkpt>
<trkpt lat="49.182490" lon="11.854640">
<ele>552.4</ele>
<speed>1.2</speed>
<course>355.3</course>
<desc>Speed 1.2 km/h Distance 39.16 km</desc>
<time>2010-06-13T09:19:37.85</time>
<name>9496</name>
</trkpt>
<trkpt lat="49.182502" lon="11.854638">
<ele>551.8</ele>
<speed>2.2</speed>
<course>291.3</course>
<desc>Speed 2.2 km/h Distance 39.16 km</desc>
<time>2010-06-13T09:19:38.84</time>
<name>9497</name>
</trkpt>
<trkpt lat="49.182503" lon="11.854632">
<ele>552.5</ele>
<speed>1.3</speed>
<course>175.0</course>
<desc>Speed 1.3 km/h Distance 39.16 km</desc>
<time>2010-06-13T09:19:39.85</time>
<name>9498</name>
</trkpt>
<trkpt lat="49.182495" lon="11.854632">
<ele>552.5</ele>
<speed>1.4</speed>
<course>270.0</course>
<desc>Speed 1.4 km/h Distance 39.16 km</desc>
<time>2010-06-13T09:19:40.86</time>
<name>9499</name>
</trkpt>
<trkpt lat="49.182495" lon="11.854628">
<ele>554.7</ele>
<speed>2.2</speed>
<course>175.0</course>
<desc>Speed 2.2 km/h Distance 39.16 km</desc>
<time>2010-06-13T09:19:41.85</time>
<name>9500</name>
</trkpt>
<trkpt lat="49.182487" lon="11.854628">
<ele>555.4</ele>
<speed>1.9</speed>
<course>173.5</course>
<desc>Speed 1.9 km/h Distance 39.16 km</desc>
<time>2010-06-13T09:19:42.84</time>
<name>9501</name>
</trkpt>
<trkpt lat="49.182448" lon="11.854635">
<ele>560.2</ele>
<speed>4.0</speed>
<course>191.5</course>
<desc>Speed 4.0 km/h Distance 39.17 km</desc>
<time>2010-06-13T09:19:44.85</time>
<name>9502</name>
</trkpt>
<trkpt lat="49.182422" lon="11.854627">
<ele>563.0</ele>
<speed>4.6</speed>
<course>194.6</course>
<desc>Speed 4.6 km/h Distance 39.17 km</desc>
<time>2010-06-13T09:19:45.84</time>
<name>9503</name>
</trkpt>
<trkpt lat="49.182405" lon="11.854620">
<ele>560.0</ele>
<speed>6.0</speed>
<course>241.0</course>
<desc>Speed 6.0 km/h Distance 39.17 km</desc>
<time>2010-06-13T09:19:46.86</time>
<name>9504</name>
</trkpt>
<trkpt lat="49.182398" lon="11.854602">
<ele>557.2</ele>
<speed>5.8</speed>
<course>196.0</course>
<desc>Speed 5.8 km/h Distance 39.17 km</desc>
<time>2010-06-13T09:19:47.86</time>
<name>9505</name>
</trkpt>
<trkpt lat="49.182387" lon="11.854597">
<ele>555.9</ele>
<speed>3.7</speed>
<course>217.3</course>
<desc>Speed 3.7 km/h Distance 39.17 km</desc>
<time>2010-06-13T09:19:48.86</time>
<name>9506</name>
</trkpt>
<trkpt lat="49.182377" lon="11.854585">
<ele>555.0</ele>
<speed>3.5</speed>
<course>146.8</course>
<desc>Speed 3.5 km/h Distance 39.18 km</desc>
<time>2010-06-13T09:19:49.85</time>
<name>9507</name>
</trkpt>
<trkpt lat="49.182367" lon="11.854595">
<ele>554.5</ele>
<speed>3.7</speed>
<course>196.7</course>
<desc>Speed 3.7 km/h Distance 39.18 km</desc>
<time>2010-06-13T09:19:50.86</time>
<name>9508</name>
</trkpt>
<trkpt lat="49.182345" lon="11.854585">
<ele>553.6</ele>
<speed>3.5</speed>
<course>194.9</course>
<desc>Speed 3.5 km/h Distance 39.18 km</desc>
<time>2010-06-13T09:19:51.85</time>
<name>9509</name>
</trkpt>
<trkpt lat="49.182333" lon="11.854580">
<ele>554.0</ele>
<speed>3.7</speed>
<course>180.0</course>
<desc>Speed 3.7 km/h Distance 39.18 km</desc>
<time>2010-06-13T09:19:52.84</time>
<name>9510</name>
</trkpt>
<trkpt lat="49.182317" lon="11.854580">
<ele>552.2</ele>
<speed>3.6</speed>
<course>180.0</course>
<desc>Speed 3.6 km/h Distance 39.18 km</desc>
<time>2010-06-13T09:19:53.85</time>
<name>9511</name>
</trkpt>
<trkpt lat="49.182297" lon="11.854580">
<ele>550.6</ele>
<speed>3.1</speed>
<course>162.5</course>
<desc>Speed 3.1 km/h Distance 39.19 km</desc>
<time>2010-06-13T09:19:54.84</time>
<name>9512</name>
</trkpt>
<trkpt lat="49.182290" lon="11.854583">
<ele>551.2</ele>
<speed>1.8</speed>
<course>222.0</course>
<desc>Speed 1.8 km/h Distance 39.19 km</desc>
<time>2010-06-13T09:19:55.86</time>
<name>9513</name>
</trkpt>
<trkpt lat="49.182277" lon="11.854565">
<ele>551.9</ele>
<speed>2.6</speed>
<course>189.7</course>
<desc>Speed 2.6 km/h Distance 39.19 km</desc>
<time>2010-06-13T09:19:56.85</time>
<name>9514</name>
</trkpt>
<trkpt lat="49.182263" lon="11.854562">
<ele>550.4</ele>
<speed>1.7</speed>
<course>110.9</course>
<desc>Speed 1.7 km/h Distance 39.19 km</desc>
<time>2010-06-13T09:19:57.86</time>
<name>9515</name>
</trkpt>
<trkpt lat="49.182260" lon="11.854575">
<ele>550.3</ele>
<speed>2.2</speed>
<course>198.2</course>
<desc>Speed 2.2 km/h Distance 39.19 km</desc>
<time>2010-06-13T09:19:58.86</time>
<name>9516</name>
</trkpt>
<trkpt lat="49.182250" lon="11.854570">
<ele>552.6</ele>
<speed>1.6</speed>
<course>238.6</course>
<desc>Speed 1.6 km/h Distance 39.19 km</desc>
<time>2010-06-13T09:19:59.85</time>
<name>9517</name>
</trkpt>
<trkpt lat="49.182247" lon="11.854562">
<ele>554.4</ele>
<speed>2.1</speed>
<course>208.6</course>
<desc>Speed 2.1 km/h Distance 39.19 km</desc>
<time>2010-06-13T09:20:00.86</time>
<name>9518</name>
</trkpt>
<trkpt lat="49.182237" lon="11.854553">
<ele>557.1</ele>
<speed>2.2</speed>
<course>205.2</course>
<desc>Speed 2.2 km/h Distance 39.19 km</desc>
<time>2010-06-13T09:20:01.84</time>
<name>9519</name>
</trkpt>
<trkpt lat="49.182225" lon="11.854545">
<ele>556.5</ele>
<speed>1.6</speed>
<course>223.5</course>
<desc>Speed 1.6 km/h Distance 39.20 km</desc>
<time>2010-06-13T09:20:02.84</time>
<name>9520</name>
</trkpt>
<trkpt lat="49.182222" lon="11.854540">
<ele>557.5</ele>
<speed>0.6</speed>
<course>249.0</course>
<desc>Speed 0.6 km/h Distance 39.20 km</desc>
<time>2010-06-13T09:20:03.86</time>
<name>9521</name>
</trkpt>
<trkpt lat="49.182218" lon="11.854527">
<ele>560.6</ele>
<speed>1.2</speed>
<course>254.4</course>
<desc>Speed 1.2 km/h Distance 39.20 km</desc>
<time>2010-06-13T09:20:04.85</time>
<name>9522</name>
</trkpt>
<trkpt lat="49.182215" lon="11.854508">
<ele>565.6</ele>
<speed>1.8</speed>
<course>207.9</course>
<desc>Speed 1.8 km/h Distance 39.20 km</desc>
<time>2010-06-13T09:20:05.86</time>
<name>9523</name>
</trkpt>
<trkpt lat="49.182207" lon="11.854502">
<ele>570.8</ele>
<speed>1.3</speed>
<course>167.4</course>
<desc>Speed 1.3 km/h Distance 39.20 km</desc>
<time>2010-06-13T09:20:06.86</time>
<name>9524</name>
</trkpt>
<trkpt lat="49.182205" lon="11.854502">
<ele>573.5</ele>
<speed>3.3</speed>
<course>151.4</course>
<desc>Speed 3.3 km/h Distance 39.20 km</desc>
<time>2010-06-13T09:20:07.84</time>
<name>9525</name>
</trkpt>
<trkpt lat="49.182195" lon="11.854510">
<ele>572.0</ele>
<speed>4.5</speed>
<course>133.7</course>
<desc>Speed 4.5 km/h Distance 39.20 km</desc>
<time>2010-06-13T09:20:08.85</time>
<name>9526</name>
</trkpt>
<trkpt lat="49.182178" lon="11.854537">
<ele>571.7</ele>
<speed>3.9</speed>
<course>127.4</course>
<desc>Speed 3.9 km/h Distance 39.20 km</desc>
<time>2010-06-13T09:20:09.87</time>
<name>9527</name>
</trkpt>
<trkpt lat="49.182168" lon="11.854557">
<ele>570.7</ele>
<speed>4.2</speed>
<course>156.3</course>
<desc>Speed 4.2 km/h Distance 39.21 km</desc>
<time>2010-06-13T09:20:10.86</time>
<name>9528</name>
</trkpt>
<trkpt lat="49.182153" lon="11.854567">
<ele>571.0</ele>
<speed>4.4</speed>
<course>153.9</course>
<desc>Speed 4.4 km/h Distance 39.21 km</desc>
<time>2010-06-13T09:20:11.84</time>
<name>9529</name>
</trkpt>
<trkpt lat="49.182133" lon="11.854582">
<ele>568.5</ele>
<speed>3.7</speed>
<course>171.0</course>
<desc>Speed 3.7 km/h Distance 39.21 km</desc>
<time>2010-06-13T09:20:12.86</time>
<name>9530</name>
</trkpt>
<trkpt lat="49.182120" lon="11.854585">
<ele>567.7</ele>
<speed>3.1</speed>
<course>270.0</course>
<desc>Speed 3.1 km/h Distance 39.21 km</desc>
<time>2010-06-13T09:20:13.86</time>
<name>9531</name>
</trkpt>
<trkpt lat="49.182120" lon="11.854553">
<ele>567.9</ele>
<speed>4.4</speed>
<course>223.1</course>
<desc>Speed 4.4 km/h Distance 39.21 km</desc>
<time>2010-06-13T09:20:14.84</time>
<name>9532</name>
</trkpt>
<trkpt lat="49.182108" lon="11.854537">
<ele>568.4</ele>
<speed>3.9</speed>
<course>209.4</course>
<desc>Speed 3.9 km/h Distance 39.22 km</desc>
<time>2010-06-13T09:20:15.85</time>
<name>9533</name>
</trkpt>
<trkpt lat="49.182097" lon="11.854527">
<ele>570.4</ele>
<speed>1.3</speed>
<course>97.9</course>
<desc>Speed 1.3 km/h Distance 39.22 km</desc>
<time>2010-06-13T09:20:16.85</time>
<name>9534</name>
</trkpt>
<trkpt lat="49.182090" lon="11.854600">
<ele>566.5</ele>
<speed>2.2</speed>
<course>90.0</course>
<desc>Speed 2.2 km/h Distance 39.22 km</desc>
<time>2010-06-13T09:20:18.84</time>
<name>9535</name>
</trkpt>
<trkpt lat="49.182090" lon="11.854607">
<ele>564.5</ele>
<speed>4.1</speed>
<course>167.4</course>
<desc>Speed 4.1 km/h Distance 39.22 km</desc>
<time>2010-06-13T09:20:19.86</time>
<name>9536</name>
</trkpt>
<trkpt lat="49.182085" lon="11.854608">
<ele>563.0</ele>
<speed>2.3</speed>
<course>270.0</course>
<desc>Speed 2.3 km/h Distance 39.22 km</desc>
<time>2010-06-13T09:20:20.85</time>
<name>9537</name>
</trkpt>
<trkpt lat="49.182085" lon="11.854602">
<ele>562.6</ele>
<speed>2.6</speed>
<course>178.8</course>
<desc>Speed 2.6 km/h Distance 39.22 km</desc>
<time>2010-06-13T09:20:21.85</time>
<name>9538</name>
</trkpt>
<trkpt lat="49.182078" lon="11.854602">
<ele>560.9</ele>
<speed>3.3</speed>
<course>213.7</course>
<desc>Speed 3.3 km/h Distance 39.22 km</desc>
<time>2010-06-13T09:20:22.86</time>
<name>9539</name>
</trkpt>
<trkpt lat="49.182075" lon="11.854598">
<ele>560.8</ele>
<speed>3.0</speed>
<course>129.9</course>
<desc>Speed 3.0 km/h Distance 39.22 km</desc>
<time>2010-06-13T09:20:23.84</time>
<name>9540</name>
</trkpt>
<trkpt lat="49.182065" lon="11.854617">
<ele>559.3</ele>
<speed>3.1</speed>
<course>94.0</course>
<desc>Speed 3.1 km/h Distance 39.23 km</desc>
<time>2010-06-13T09:20:24.84</time>
<name>9541</name>
</trkpt>
<trkpt lat="49.182063" lon="11.854653">
<ele>556.8</ele>
<speed>4.0</speed>
<course>127.4</course>
<desc>Speed 4.0 km/h Distance 39.23 km</desc>
<time>2010-06-13T09:20:25.85</time>
<name>9542</name>
</trkpt>
<trkpt lat="49.182057" lon="11.854667">
<ele>556.2</ele>
<speed>3.6</speed>
<course>140.6</course>
<desc>Speed 3.6 km/h Distance 39.23 km</desc>
<time>2010-06-13T09:20:26.86</time>
<name>9543</name>
</trkpt>
<trkpt lat="49.182050" lon="11.854675">
<ele>558.1</ele>
<speed>2.9</speed>
<course>151.4</course>
<desc>Speed 2.9 km/h Distance 39.23 km</desc>
<time>2010-06-13T09:20:27.84</time>
<name>9544</name>
</trkpt>
<trkpt lat="49.182040" lon="11.854683">
<ele>557.8</ele>
<speed>2.6</speed>
<course>165.4</course>
<desc>Speed 2.6 km/h Distance 39.23 km</desc>
<time>2010-06-13T09:20:28.85</time>
<name>9545</name>
</trkpt>
<trkpt lat="49.182023" lon="11.854690">
<ele>559.8</ele>
<speed>3.5</speed>
<course>119.1</course>
<desc>Speed 3.5 km/h Distance 39.23 km</desc>
<time>2010-06-13T09:20:29.85</time>
<name>9546</name>
</trkpt>
<trkpt lat="49.182017" lon="11.854708">
<ele>560.3</ele>
<speed>3.5</speed>
<course>123.3</course>
<desc>Speed 3.5 km/h Distance 39.24 km</desc>
<time>2010-06-13T09:20:30.86</time>
<name>9547</name>
</trkpt>
<trkpt lat="49.182007" lon="11.854732">
<ele>558.4</ele>
<speed>4.5</speed>
<course>131.2</course>
<desc>Speed 4.5 km/h Distance 39.24 km</desc>
<time>2010-06-13T09:20:31.85</time>
<name>9548</name>
</trkpt>
<trkpt lat="49.181993" lon="11.854755">
<ele>552.7</ele>
<speed>3.1</speed>
<course>72.9</course>
<desc>Speed 3.1 km/h Distance 39.24 km</desc>
<time>2010-06-13T09:20:32.84</time>
<name>9549</name>
</trkpt>
<trkpt lat="49.181995" lon="11.854763">
<ele>550.3</ele>
<speed>2.2</speed>
<course>127.4</course>
<desc>Speed 2.2 km/h Distance 39.24 km</desc>
<time>2010-06-13T09:20:33.86</time>
<name>9550</name>
</trkpt>
<trkpt lat="49.181983" lon="11.854787">
<ele>549.0</ele>
<speed>3.6</speed>
<course>151.1</course>
<desc>Speed 3.6 km/h Distance 39.24 km</desc>
<time>2010-06-13T09:20:34.84</time>
<name>9551</name>
</trkpt>
<trkpt lat="49.181962" lon="11.854805">
<ele>548.6</ele>
<speed>4.5</speed>
<course>177.3</course>
<desc>Speed 4.5 km/h Distance 39.25 km</desc>
<time>2010-06-13T09:20:35.85</time>
<name>9552</name>
</trkpt>
<trkpt lat="49.181942" lon="11.854807">
<ele>547.1</ele>
<speed>3.8</speed>
<course>177.8</course>
<desc>Speed 3.8 km/h Distance 39.25 km</desc>
<time>2010-06-13T09:20:36.86</time>
<name>9553</name>
</trkpt>
<trkpt lat="49.181930" lon="11.854807">
<ele>544.9</ele>
<speed>4.6</speed>
<course>182.8</course>
<desc>Speed 4.6 km/h Distance 39.25 km</desc>
<time>2010-06-13T09:20:37.84</time>
<name>9554</name>
</trkpt>
<trkpt lat="49.181913" lon="11.854805">
<ele>544.8</ele>
<speed>4.7</speed>
<course>153.1</course>
<desc>Speed 4.7 km/h Distance 39.25 km</desc>
<time>2010-06-13T09:20:38.86</time>
<name>9555</name>
</trkpt>
<trkpt lat="49.181898" lon="11.854817">
<ele>544.1</ele>
<speed>6.7</speed>
<course>168.6</course>
<desc>Speed 6.7 km/h Distance 39.25 km</desc>
<time>2010-06-13T09:20:39.86</time>
<name>9556</name>
</trkpt>
<trkpt lat="49.181877" lon="11.854823">
<ele>544.9</ele>
<speed>7.7</speed>
<course>44.5</course>
<desc>Speed 7.7 km/h Distance 39.26 km</desc>
<time>2010-06-13T09:20:40.85</time>
<name>9557</name>
</trkpt>
<trkpt lat="49.181880" lon="11.854828">
<ele>545.2</ele>
<speed>3.3</speed>
<course>336.2</course>
<desc>Speed 3.3 km/h Distance 39.26 km</desc>
<time>2010-06-13T09:20:41.86</time>
<name>9558</name>
</trkpt>
<trkpt lat="49.181885" lon="11.854825">
<ele>546.4</ele>
<speed>2.4</speed>
<course>53.0</course>
<desc>Speed 2.4 km/h Distance 39.26 km</desc>
<time>2010-06-13T09:20:42.86</time>
<name>9559</name>
</trkpt>
<trkpt lat="49.181888" lon="11.854832">
<ele>546.6</ele>
<speed>2.5</speed>
<course>139.9</course>
<desc>Speed 2.5 km/h Distance 39.26 km</desc>
<time>2010-06-13T09:20:43.85</time>
<name>9560</name>
</trkpt>
<trkpt lat="49.181877" lon="11.854847">
<ele>547.2</ele>
<speed>4.0</speed>
<course>151.5</course>
<desc>Speed 4.0 km/h Distance 39.26 km</desc>
<time>2010-06-13T09:20:44.84</time>
<name>9561</name>
</trkpt>
<trkpt lat="49.181857" lon="11.854863">
<ele>544.6</ele>
<speed>4.2</speed>
<course>189.5</course>
<desc>Speed 4.2 km/h Distance 39.26 km</desc>
<time>2010-06-13T09:20:45.85</time>
<name>9562</name>
</trkpt>
<trkpt lat="49.181845" lon="11.854860">
<ele>544.6</ele>
<speed>2.3</speed>
<course>141.9</course>
<desc>Speed 2.3 km/h Distance 39.26 km</desc>
<time>2010-06-13T09:20:46.85</time>
<name>9563</name>
</trkpt>
<trkpt lat="49.181828" lon="11.854880">
<ele>544.6</ele>
<speed>2.5</speed>
<course>152.4</course>
<desc>Speed 2.5 km/h Distance 39.27 km</desc>
<time>2010-06-13T09:20:47.84</time>
<name>9564</name>
</trkpt>
<trkpt lat="49.181812" lon="11.854893">
<ele>543.9</ele>
<speed>3.0</speed>
<course>164.8</course>
<desc>Speed 3.0 km/h Distance 39.27 km</desc>
<time>2010-06-13T09:20:48.86</time>
<name>9565</name>
</trkpt>
<trkpt lat="49.181792" lon="11.854902">
<ele>541.6</ele>
<speed>3.7</speed>
<course>164.0</course>
<desc>Speed 3.7 km/h Distance 39.27 km</desc>
<time>2010-06-13T09:20:49.85</time>
<name>9566</name>
</trkpt>
<trkpt lat="49.181777" lon="11.854908">
<ele>539.8</ele>
<speed>3.9</speed>
<course>170.2</course>
<desc>Speed 3.9 km/h Distance 39.27 km</desc>
<time>2010-06-13T09:20:50.86</time>
<name>9567</name>
</trkpt>
<trkpt lat="49.181758" lon="11.854913">
<ele>539.5</ele>
<speed>2.9</speed>
<course>220.3</course>
<desc>Speed 2.9 km/h Distance 39.27 km</desc>
<time>2010-06-13T09:20:51.85</time>
<name>9568</name>
</trkpt>
<trkpt lat="49.181742" lon="11.854892">
<ele>540.4</ele>
<speed>3.7</speed>
<course>230.5</course>
<desc>Speed 3.7 km/h Distance 39.28 km</desc>
<time>2010-06-13T09:20:52.86</time>
<name>9569</name>
</trkpt>
<trkpt lat="49.181730" lon="11.854870">
<ele>543.3</ele>
<speed>2.5</speed>
<course>203.4</course>
<desc>Speed 2.5 km/h Distance 39.28 km</desc>
<time>2010-06-13T09:20:53.85</time>
<name>9570</name>
</trkpt>
<trkpt lat="49.181720" lon="11.854863">
<ele>543.1</ele>
<speed>2.7</speed>
<course>33.7</course>
<desc>Speed 2.7 km/h Distance 39.28 km</desc>
<time>2010-06-13T09:20:54.86</time>
<name>9571</name>
</trkpt>
<trkpt lat="49.181723" lon="11.854867">
<ele>545.4</ele>
<speed>0.6</speed>
<course>107.1</course>
<desc>Speed 0.6 km/h Distance 39.28 km</desc>
<time>2010-06-13T09:20:55.84</time>
<name>9572</name>
</trkpt>
<trkpt lat="49.181722" lon="11.854875">
<ele>546.0</ele>
<speed>1.2</speed>
<course>327.4</course>
<desc>Speed 1.2 km/h Distance 39.28 km</desc>
<time>2010-06-13T09:20:56.84</time>
<name>9573</name>
</trkpt>
<trkpt lat="49.181728" lon="11.854868">
<ele>546.7</ele>
<speed>0.3</speed>
<course>216.2</course>
<desc>Speed 0.3 km/h Distance 39.28 km</desc>
<time>2010-06-13T09:20:57.86</time>
<name>9574</name>
</trkpt>
<trkpt lat="49.181715" lon="11.854853">
<ele>548.8</ele>
<speed>1.4</speed>
<course>270.0</course>
<desc>Speed 1.4 km/h Distance 39.28 km</desc>
<time>2010-06-13T09:20:58.86</time>
<name>9575</name>
</trkpt>
<trkpt lat="49.181715" lon="11.854845">
<ele>550.9</ele>
<speed>1.8</speed>
<course>282.4</course>
<desc>Speed 1.8 km/h Distance 39.28 km</desc>
<time>2010-06-13T09:20:59.85</time>
<name>9576</name>
</trkpt>
<trkpt lat="49.181717" lon="11.854833">
<ele>554.8</ele>
<speed>1.0</speed>
<course>230.5</course>
<desc>Speed 1.0 km/h Distance 39.28 km</desc>
<time>2010-06-13T09:21:00.86</time>
<name>9577</name>
</trkpt>
<trkpt lat="49.181705" lon="11.854812">
<ele>557.3</ele>
<speed>1.0</speed>
<course>194.9</course>
<desc>Speed 1.0 km/h Distance 39.29 km</desc>
<time>2010-06-13T09:21:01.87</time>
<name>9578</name>
</trkpt>
<trkpt lat="49.181688" lon="11.854805">
<ele>559.3</ele>
<speed>2.3</speed>
<course>235.9</course>
<desc>Speed 2.3 km/h Distance 39.29 km</desc>
<time>2010-06-13T09:21:02.87</time>
<name>9579</name>
</trkpt>
<trkpt lat="49.181682" lon="11.854790">
<ele>565.7</ele>
<speed>2.8</speed>
<course>107.0</course>
<desc>Speed 2.8 km/h Distance 39.29 km</desc>
<time>2010-06-13T09:21:03.85</time>
<name>9580</name>
</trkpt>
<trkpt lat="49.181678" lon="11.854807">
<ele>567.2</ele>
<speed>1.3</speed>
<course>156.2</course>
<desc>Speed 1.3 km/h Distance 39.29 km</desc>
<time>2010-06-13T09:21:04.86</time>
<name>9581</name>
</trkpt>
<trkpt lat="49.181668" lon="11.854813">
<ele>566.2</ele>
<speed>1.1</speed>
<course>96.7</course>
<desc>Speed 1.1 km/h Distance 39.29 km</desc>
<time>2010-06-13T09:21:05.85</time>
<name>9582</name>
</trkpt>
<trkpt lat="49.181667" lon="11.854835">
<ele>562.8</ele>
<speed>2.1</speed>
<course>98.7</course>
<desc>Speed 2.1 km/h Distance 39.29 km</desc>
<time>2010-06-13T09:21:06.86</time>
<name>9583</name>
</trkpt>
<trkpt lat="49.181665" lon="11.854852">
<ele>561.9</ele>
<speed>1.2</speed>
<course>119.8</course>
<desc>Speed 1.2 km/h Distance 39.29 km</desc>
<time>2010-06-13T09:21:07.85</time>
<name>9584</name>
</trkpt>
<trkpt lat="49.181650" lon="11.854892">
<ele>557.7</ele>
<speed>1.5</speed>
<course>128.1</course>
<desc>Speed 1.5 km/h Distance 39.30 km</desc>
<time>2010-06-13T09:21:09.86</time>
<name>9585</name>
</trkpt>
<trkpt lat="49.181648" lon="11.854895">
<ele>557.2</ele>
<speed>1.5</speed>
<course>136.9</course>
<desc>Speed 1.5 km/h Distance 39.30 km</desc>
<time>2010-06-13T09:21:10.86</time>
<name>9586</name>
</trkpt>
<trkpt lat="49.181637" lon="11.854912">
<ele>556.3</ele>
<speed>2.7</speed>
<course>144.5</course>
<desc>Speed 2.7 km/h Distance 39.30 km</desc>
<time>2010-06-13T09:21:11.85</time>
<name>9587</name>
</trkpt>
<trkpt lat="49.181618" lon="11.854932">
<ele>554.8</ele>
<speed>4.4</speed>
<course>142.7</course>
<desc>Speed 4.4 km/h Distance 39.30 km</desc>
<time>2010-06-13T09:21:12.85</time>
<name>9588</name>
</trkpt>
<trkpt lat="49.181598" lon="11.854955">
<ele>556.1</ele>
<speed>4.7</speed>
<course>149.3</course>
<desc>Speed 4.7 km/h Distance 39.31 km</desc>
<time>2010-06-13T09:21:13.84</time>
<name>9589</name>
</trkpt>
<trkpt lat="49.181580" lon="11.854972">
<ele>557.6</ele>
<speed>4.6</speed>
<course>130.4</course>
<desc>Speed 4.6 km/h Distance 39.31 km</desc>
<time>2010-06-13T09:21:14.85</time>
<name>9590</name>
</trkpt>
<trkpt lat="49.181572" lon="11.854987">
<ele>556.0</ele>
<speed>3.0</speed>
<course>168.3</course>
<desc>Speed 3.0 km/h Distance 39.31 km</desc>
<time>2010-06-13T09:21:15.85</time>
<name>9591</name>
</trkpt>
<trkpt lat="49.181557" lon="11.854992">
<ele>556.0</ele>
<speed>3.7</speed>
<course>72.9</course>
<desc>Speed 3.7 km/h Distance 39.31 km</desc>
<time>2010-06-13T09:21:16.85</time>
<name>9592</name>
</trkpt>
<trkpt lat="49.181558" lon="11.855000">
<ele>558.7</ele>
<speed>2.4</speed>
<course>167.4</course>
<desc>Speed 2.4 km/h Distance 39.31 km</desc>
<time>2010-06-13T09:21:17.86</time>
<name>9593</name>
</trkpt>
<trkpt lat="49.181555" lon="11.855000">
<ele>561.6</ele>
<speed>2.0</speed>
<course>172.3</course>
<desc>Speed 2.0 km/h Distance 39.31 km</desc>
<time>2010-06-13T09:21:18.85</time>
<name>9594</name>
</trkpt>
<trkpt lat="49.181547" lon="11.855002">
<ele>563.5</ele>
<speed>2.5</speed>
<course>166.5</course>
<desc>Speed 2.5 km/h Distance 39.31 km</desc>
<time>2010-06-13T09:21:19.86</time>
<name>9595</name>
</trkpt>
<trkpt lat="49.181533" lon="11.855007">
<ele>563.8</ele>
<speed>2.3</speed>
<course>249.0</course>
<desc>Speed 2.3 km/h Distance 39.31 km</desc>
<time>2010-06-13T09:21:20.87</time>
<name>9596</name>
</trkpt>
<trkpt lat="49.181528" lon="11.854987">
<ele>563.4</ele>
<speed>1.3</speed>
<course>194.3</course>
<desc>Speed 1.3 km/h Distance 39.32 km</desc>
<time>2010-06-13T09:21:21.87</time>
<name>9597</name>
</trkpt>
<trkpt lat="49.181512" lon="11.854980">
<ele>561.0</ele>
<speed>3.5</speed>
<course>206.1</course>
<desc>Speed 3.5 km/h Distance 39.32 km</desc>
<time>2010-06-13T09:21:22.86</time>
<name>9598</name>
</trkpt>
<trkpt lat="49.181492" lon="11.854965">
<ele>563.6</ele>
<speed>3.4</speed>
<course>229.7</course>
<desc>Speed 3.4 km/h Distance 39.32 km</desc>
<time>2010-06-13T09:21:23.85</time>
<name>9599</name>
</trkpt>
<trkpt lat="49.181483" lon="11.854950">
<ele>565.9</ele>
<speed>2.6</speed>
<course>214.4</course>
<desc>Speed 2.6 km/h Distance 39.32 km</desc>
<time>2010-06-13T09:21:24.86</time>
<name>9600</name>
</trkpt>
<trkpt lat="49.181447" lon="11.854912">
<ele>566.5</ele>
<speed>2.7</speed>
<course>213.2</course>
<desc>Speed 2.7 km/h Distance 39.33 km</desc>
<time>2010-06-13T09:21:26.85</time>
<name>9601</name>
</trkpt>
<trkpt lat="49.181433" lon="11.854898">
<ele>567.8</ele>
<speed>2.5</speed>
<course>196.3</course>
<desc>Speed 2.5 km/h Distance 39.33 km</desc>
<time>2010-06-13T09:21:27.85</time>
<name>9602</name>
</trkpt>
<trkpt lat="49.181418" lon="11.854892">
<ele>566.0</ele>
<speed>2.1</speed>
<course>220.3</course>
<desc>Speed 2.1 km/h Distance 39.33 km</desc>
<time>2010-06-13T09:21:28.87</time>
<name>9603</name>
</trkpt>
<trkpt lat="49.181402" lon="11.854870">
<ele>566.1</ele>
<speed>4.9</speed>
<course>225.3</course>
<desc>Speed 4.9 km/h Distance 39.33 km</desc>
<time>2010-06-13T09:21:29.84</time>
<name>9604</name>
</trkpt>
<trkpt lat="49.181383" lon="11.854842">
<ele>566.9</ele>
<speed>4.8</speed>
<course>226.7</course>
<desc>Speed 4.8 km/h Distance 39.34 km</desc>
<time>2010-06-13T09:21:30.84</time>
<name>9605</name>
</trkpt>
<trkpt lat="49.181370" lon="11.854820">
<ele>566.5</ele>
<speed>4.5</speed>
<course>250.6</course>
<desc>Speed 4.5 km/h Distance 39.34 km</desc>
<time>2010-06-13T09:21:31.87</time>
<name>9606</name>
</trkpt>
<trkpt lat="49.181365" lon="11.854798">
<ele>568.0</ele>
<speed>2.8</speed>
<course>236.9</course>
<desc>Speed 2.8 km/h Distance 39.34 km</desc>
<time>2010-06-13T09:21:32.85</time>
<name>9607</name>
</trkpt>
<trkpt lat="49.181360" lon="11.854787">
<ele>567.0</ele>
<speed>2.6</speed>
<course>164.0</course>
<desc>Speed 2.6 km/h Distance 39.34 km</desc>
<time>2010-06-13T09:21:33.86</time>
<name>9608</name>
</trkpt>
<trkpt lat="49.181348" lon="11.854792">
<ele>566.6</ele>
<speed>3.5</speed>
<course>210.7</course>
<desc>Speed 3.5 km/h Distance 39.34 km</desc>
<time>2010-06-13T09:21:34.84</time>
<name>9609</name>
</trkpt>
<trkpt lat="49.181330" lon="11.854775">
<ele>565.7</ele>
<speed>3.7</speed>
<course>229.6</course>
<desc>Speed 3.7 km/h Distance 39.34 km</desc>
<time>2010-06-13T09:21:35.84</time>
<name>9610</name>
</trkpt>
<trkpt lat="49.181322" lon="11.854760">
<ele>567.3</ele>
<speed>2.8</speed>
<course>292.7</course>
<desc>Speed 2.8 km/h Distance 39.35 km</desc>
<time>2010-06-13T09:21:36.86</time>
<name>9611</name>
</trkpt>
<trkpt lat="49.181327" lon="11.854742">
<ele>568.7</ele>
<speed>1.6</speed>
<course>256.1</course>
<desc>Speed 1.6 km/h Distance 39.35 km</desc>
<time>2010-06-13T09:21:37.85</time>
<name>9612</name>
</trkpt>
<trkpt lat="49.181318" lon="11.854690">
<ele>570.4</ele>
<speed>1.6</speed>
<course>242.8</course>
<desc>Speed 1.6 km/h Distance 39.35 km</desc>
<time>2010-06-13T09:21:39.85</time>
<name>9613</name>
</trkpt>
<trkpt lat="49.181315" lon="11.854680">
<ele>571.0</ele>
<speed>2.1</speed>
<course>284.4</course>
<desc>Speed 2.1 km/h Distance 39.35 km</desc>
<time>2010-06-13T09:21:40.86</time>
<name>9614</name>
</trkpt>
<trkpt lat="49.181317" lon="11.854670">
<ele>570.1</ele>
<speed>0.3</speed>
<course>161.2</course>
<desc>Speed 0.3 km/h Distance 39.35 km</desc>
<time>2010-06-13T09:21:41.85</time>
<name>9615</name>
</trkpt>
<trkpt lat="49.181313" lon="11.854672">
<ele>569.7</ele>
<speed>2.0</speed>
<course>175.0</course>
<desc>Speed 2.0 km/h Distance 39.35 km</desc>
<time>2010-06-13T09:21:42.84</time>
<name>9616</name>
</trkpt>
<trkpt lat="49.181305" lon="11.854672">
<ele>571.5</ele>
<speed>1.6</speed>
<course>208.1</course>
<desc>Speed 1.6 km/h Distance 39.35 km</desc>
<time>2010-06-13T09:21:43.86</time>
<name>9617</name>
</trkpt>
<trkpt lat="49.181287" lon="11.854657">
<ele>570.2</ele>
<speed>3.4</speed>
<course>182.8</course>
<desc>Speed 3.4 km/h Distance 39.36 km</desc>
<time>2010-06-13T09:21:44.87</time>
<name>9618</name>
</trkpt>
<trkpt lat="49.181270" lon="11.854655">
<ele>570.0</ele>
<speed>3.2</speed>
<course>127.4</course>
<desc>Speed 3.2 km/h Distance 39.36 km</desc>
<time>2010-06-13T09:21:45.85</time>
<name>9619</name>
</trkpt>
<trkpt lat="49.181262" lon="11.854672">
<ele>570.2</ele>
<speed>2.9</speed>
<course>172.6</course>
<desc>Speed 2.9 km/h Distance 39.36 km</desc>
<time>2010-06-13T09:21:46.86</time>
<name>9620</name>
</trkpt>
<trkpt lat="49.181220" lon="11.854680">
<ele>572.5</ele>
<speed>2.6</speed>
<course>354.7</course>
<desc>Speed 2.6 km/h Distance 39.36 km</desc>
<time>2010-06-13T09:21:48.86</time>
<name>9621</name>
</trkpt>
<trkpt lat="49.181233" lon="11.854678">
<ele>576.5</ele>
<speed>0.8</speed>
<course>13.3</course>
<desc>Speed 0.8 km/h Distance 39.37 km</desc>
<time>2010-06-13T09:21:49.85</time>
<name>9622</name>
</trkpt>
<trkpt lat="49.181252" lon="11.854685">
<ele>576.6</ele>
<speed>2.5</speed>
<course>56.2</course>
<desc>Speed 2.5 km/h Distance 39.37 km</desc>
<time>2010-06-13T09:21:50.84</time>
<name>9623</name>
</trkpt>
<trkpt lat="49.181263" lon="11.854712">
<ele>579.2</ele>
<speed>2.9</speed>
<course>21.5</course>
<desc>Speed 2.9 km/h Distance 39.37 km</desc>
<time>2010-06-13T09:21:51.84</time>
<name>9624</name>
</trkpt>
<trkpt lat="49.181272" lon="11.854717">
<ele>580.3</ele>
<speed>4.2</speed>
<course>80.4</course>
<desc>Speed 4.2 km/h Distance 39.37 km</desc>
<time>2010-06-13T09:21:52.84</time>
<name>9625</name>
</trkpt>
<trkpt lat="49.181275" lon="11.854747">
<ele>579.8</ele>
<speed>3.4</speed>
<course>74.9</course>
<desc>Speed 3.4 km/h Distance 39.37 km</desc>
<time>2010-06-13T09:21:53.84</time>
<name>9626</name>
</trkpt>
<trkpt lat="49.181280" lon="11.854775">
<ele>579.7</ele>
<speed>3.9</speed>
<course>76.4</course>
<desc>Speed 3.9 km/h Distance 39.38 km</desc>
<time>2010-06-13T09:21:54.85</time>
<name>9627</name>
</trkpt>
<trkpt lat="49.181285" lon="11.854807">
<ele>578.4</ele>
<speed>5.1</speed>
<course>107.0</course>
<desc>Speed 5.1 km/h Distance 39.38 km</desc>
<time>2010-06-13T09:21:55.84</time>
<name>9628</name>
</trkpt>
<trkpt lat="49.181277" lon="11.854848">
<ele>578.7</ele>
<speed>7.2</speed>
<course>98.7</course>
<desc>Speed 7.2 km/h Distance 39.38 km</desc>
<time>2010-06-13T09:21:56.85</time>
<name>9629</name>
</trkpt>
<trkpt lat="49.181273" lon="11.854882">
<ele>577.4</ele>
<speed>5.5</speed>
<course>117.0</course>
<desc>Speed 5.5 km/h Distance 39.38 km</desc>
<time>2010-06-13T09:21:57.84</time>
<name>9630</name>
</trkpt>
<trkpt lat="49.181262" lon="11.854917">
<ele>577.6</ele>
<speed>4.2</speed>
<course>33.2</course>
<desc>Speed 4.2 km/h Distance 39.39 km</desc>
<time>2010-06-13T09:21:58.86</time>
<name>9631</name>
</trkpt>
<trkpt lat="49.181278" lon="11.854933">
<ele>575.2</ele>
<speed>4.0</speed>
<course>98.7</course>
<desc>Speed 4.0 km/h Distance 39.39 km</desc>
<time>2010-06-13T09:21:59.86</time>
<name>9632</name>
</trkpt>
<trkpt lat="49.181277" lon="11.854950">
<ele>574.5</ele>
<speed>3.4</speed>
<course>115.2</course>
<desc>Speed 3.4 km/h Distance 39.39 km</desc>
<time>2010-06-13T09:22:00.85</time>
<name>9633</name>
</trkpt>
<trkpt lat="49.181270" lon="11.854972">
<ele>572.0</ele>
<speed>4.0</speed>
<course>75.7</course>
<desc>Speed 4.0 km/h Distance 39.39 km</desc>
<time>2010-06-13T09:22:01.86</time>
<name>9634</name>
</trkpt>
<trkpt lat="49.181275" lon="11.855002">
<ele>569.2</ele>
<speed>5.0</speed>
<course>95.8</course>
<desc>Speed 5.0 km/h Distance 39.39 km</desc>
<time>2010-06-13T09:22:02.84</time>
<name>9635</name>
</trkpt>
<trkpt lat="49.181273" lon="11.855027">
<ele>568.1</ele>
<speed>6.1</speed>
<course>82.7</course>
<desc>Speed 6.1 km/h Distance 39.40 km</desc>
<time>2010-06-13T09:22:03.84</time>
<name>9636</name>
</trkpt>
<trkpt lat="49.181277" lon="11.855067">
<ele>565.6</ele>
<speed>8.1</speed>
<course>105.5</course>
<desc>Speed 8.1 km/h Distance 39.40 km</desc>
<time>2010-06-13T09:22:04.86</time>
<name>9637</name>
</trkpt>
<trkpt lat="49.181270" lon="11.855103">
<ele>562.7</ele>
<speed>9.2</speed>
<course>75.3</course>
<desc>Speed 9.2 km/h Distance 39.40 km</desc>
<time>2010-06-13T09:22:05.86</time>
<name>9638</name>
</trkpt>
<trkpt lat="49.181280" lon="11.855162">
<ele>559.2</ele>
<speed>11.8</speed>
<course>85.3</course>
<desc>Speed 11.8 km/h Distance 39.41 km</desc>
<time>2010-06-13T09:22:06.84</time>
<name>9639</name>
</trkpt>
<trkpt lat="49.181283" lon="11.855223">
<ele>556.4</ele>
<speed>12.3</speed>
<course>84.0</course>
<desc>Speed 12.3 km/h Distance 39.41 km</desc>
<time>2010-06-13T09:22:07.84</time>
<name>9640</name>
</trkpt>
<trkpt lat="49.181288" lon="11.855297">
<ele>551.8</ele>
<speed>13.9</speed>
<course>81.9</course>
<desc>Speed 13.9 km/h Distance 39.42 km</desc>
<time>2010-06-13T09:22:08.84</time>
<name>9641</name>
</trkpt>
<trkpt lat="49.181295" lon="11.855368">
<ele>548.1</ele>
<speed>12.7</speed>
<course>87.6</course>
<desc>Speed 12.7 km/h Distance 39.42 km</desc>
<time>2010-06-13T09:22:09.85</time>
<name>9642</name>
</trkpt>
<trkpt lat="49.181297" lon="11.855428">
<ele>545.9</ele>
<speed>11.7</speed>
<course>84.5</course>
<desc>Speed 11.7 km/h Distance 39.43 km</desc>
<time>2010-06-13T09:22:10.86</time>
<name>9643</name>
</trkpt>
<trkpt lat="49.181300" lon="11.855482">
<ele>543.3</ele>
<speed>9.8</speed>
<course>83.3</course>
<desc>Speed 9.8 km/h Distance 39.43 km</desc>
<time>2010-06-13T09:22:11.85</time>
<name>9644</name>
</trkpt>
<trkpt lat="49.181303" lon="11.855525">
<ele>539.9</ele>
<speed>9.0</speed>
<course>97.0</course>
<desc>Speed 9.0 km/h Distance 39.43 km</desc>
<time>2010-06-13T09:22:12.86</time>
<name>9645</name>
</trkpt>
<trkpt lat="49.181300" lon="11.855567">
<ele>538.3</ele>
<speed>9.0</speed>
<course>94.0</course>
<desc>Speed 9.0 km/h Distance 39.44 km</desc>
<time>2010-06-13T09:22:13.85</time>
<name>9646</name>
</trkpt>
<trkpt lat="49.181295" lon="11.855675">
<ele>538.6</ele>
<speed>8.7</speed>
<course>90.0</course>
<desc>Speed 8.7 km/h Distance 39.44 km</desc>
<time>2010-06-13T09:22:15.85</time>
<name>9647</name>
</trkpt>
<trkpt lat="49.181295" lon="11.855715">
<ele>537.8</ele>
<speed>7.2</speed>
<course>119.8</course>
<desc>Speed 7.2 km/h Distance 39.45 km</desc>
<time>2010-06-13T09:22:16.85</time>
<name>9648</name>
</trkpt>
<trkpt lat="49.181285" lon="11.855742">
<ele>536.9</ele>
<speed>6.0</speed>
<course>184.6</course>
<desc>Speed 6.0 km/h Distance 39.45 km</desc>
<time>2010-06-13T09:22:17.86</time>
<name>9649</name>
</trkpt>
<trkpt lat="49.181258" lon="11.855738">
<ele>536.9</ele>
<speed>3.8</speed>
<course>177.8</course>
<desc>Speed 3.8 km/h Distance 39.45 km</desc>
<time>2010-06-13T09:22:18.85</time>
<name>9650</name>
</trkpt>
<trkpt lat="49.181232" lon="11.855740">
<ele>535.2</ele>
<speed>4.0</speed>
<course>199.4</course>
<desc>Speed 4.0 km/h Distance 39.45 km</desc>
<time>2010-06-13T09:22:19.85</time>
<name>9651</name>
</trkpt>
<trkpt lat="49.181210" lon="11.855728">
<ele>535.2</ele>
<speed>3.0</speed>
<course>203.8</course>
<desc>Speed 3.0 km/h Distance 39.46 km</desc>
<time>2010-06-13T09:22:20.85</time>
<name>9652</name>
</trkpt>
<trkpt lat="49.181205" lon="11.855725">
<ele>535.2</ele>
<speed>0.2</speed>
<course>90.0</course>
<desc>Speed 0.2 km/h Distance 39.46 km</desc>
<time>2010-06-13T09:22:21.84</time>
<name>9653</name>
</trkpt>
<trkpt lat="49.181205" lon="11.855728">
<ele>538.6</ele>
<speed>0.9</speed>
<course>165.0</course>
<desc>Speed 0.9 km/h Distance 39.46 km</desc>
<time>2010-06-13T09:22:22.87</time>
<name>9654</name>
</trkpt>
<trkpt lat="49.181112" lon="11.855767">
<ele>548.9</ele>
<speed>0.6</speed>
<course>226.4</course>
<desc>Speed 0.6 km/h Distance 39.47 km</desc>
<time>2010-06-13T09:22:25.84</time>
<name>9655</name>
</trkpt>
<trkpt lat="49.181103" lon="11.855753">
<ele>547.5</ele>
<speed>1.5</speed>
<course>347.4</course>
<desc>Speed 1.5 km/h Distance 39.47 km</desc>
<time>2010-06-13T09:22:26.84</time>
<name>9656</name>
</trkpt>
<trkpt lat="49.181105" lon="11.855752">
<ele>545.9</ele>
<speed>2.1</speed>
<course>124.8</course>
<desc>Speed 2.1 km/h Distance 39.47 km</desc>
<time>2010-06-13T09:22:27.84</time>
<name>9657</name>
</trkpt>
<trkpt lat="49.181097" lon="11.855770">
<ele>541.9</ele>
<speed>0.6</speed>
<course>34.1</course>
<desc>Speed 0.6 km/h Distance 39.47 km</desc>
<time>2010-06-13T09:22:28.86</time>
<name>9658</name>
</trkpt>
<trkpt lat="49.181102" lon="11.855775">
<ele>543.5</ele>
<speed>1.3</speed>
<course>246.4</course>
<desc>Speed 1.3 km/h Distance 39.47 km</desc>
<time>2010-06-13T09:22:29.85</time>
<name>9659</name>
</trkpt>
<trkpt lat="49.181095" lon="11.855752">
<ele>548.0</ele>
<speed>0.5</speed>
<course>206.1</course>
<desc>Speed 0.5 km/h Distance 39.47 km</desc>
<time>2010-06-13T09:22:30.85</time>
<name>9660</name>
</trkpt>
<trkpt lat="49.181062" lon="11.855727">
<ele>550.6</ele>
<speed>4.0</speed>
<course>188.1</course>
<desc>Speed 4.0 km/h Distance 39.48 km</desc>
<time>2010-06-13T09:22:32.84</time>
<name>9661</name>
</trkpt>
<trkpt lat="49.181047" lon="11.855723">
<ele>549.3</ele>
<speed>4.8</speed>
<course>213.7</course>
<desc>Speed 4.8 km/h Distance 39.48 km</desc>
<time>2010-06-13T09:22:33.83</time>
<name>9662</name>
</trkpt>
<trkpt lat="49.181043" lon="11.855720">
<ele>548.1</ele>
<speed>4.1</speed>
<course>308.1</course>
<desc>Speed 4.1 km/h Distance 39.48 km</desc>
<time>2010-06-13T09:22:34.84</time>
<name>9663</name>
</trkpt>
<trkpt lat="49.181045" lon="11.855717">
<ele>557.2</ele>
<speed>2.2</speed>
<course>164.5</course>
<desc>Speed 2.2 km/h Distance 39.48 km</desc>
<time>2010-06-13T09:22:35.85</time>
<name>9664</name>
</trkpt>
<trkpt lat="49.181033" lon="11.855722">
<ele>558.5</ele>
<speed>3.7</speed>
<course>124.8</course>
<desc>Speed 3.7 km/h Distance 39.48 km</desc>
<time>2010-06-13T09:22:36.84</time>
<name>9665</name>
</trkpt>
<trkpt lat="49.181025" lon="11.855740">
<ele>555.8</ele>
<speed>4.8</speed>
<course>109.8</course>
<desc>Speed 4.8 km/h Distance 39.48 km</desc>
<time>2010-06-13T09:22:37.83</time>
<name>9666</name>
</trkpt>
<trkpt lat="49.181018" lon="11.855768">
<ele>557.2</ele>
<speed>5.2</speed>
<course>137.0</course>
<desc>Speed 5.2 km/h Distance 39.49 km</desc>
<time>2010-06-13T09:22:38.85</time>
<name>9667</name>
</trkpt>
<trkpt lat="49.181007" lon="11.855785">
<ele>555.6</ele>
<speed>5.0</speed>
<course>192.3</course>
<desc>Speed 5.0 km/h Distance 39.49 km</desc>
<time>2010-06-13T09:22:39.83</time>
<name>9668</name>
</trkpt>
<trkpt lat="49.180987" lon="11.855778">
<ele>553.7</ele>
<speed>6.9</speed>
<course>175.0</course>
<desc>Speed 6.9 km/h Distance 39.49 km</desc>
<time>2010-06-13T09:22:40.85</time>
<name>9669</name>
</trkpt>
<trkpt lat="49.180978" lon="11.855780">
<ele>554.6</ele>
<speed>6.0</speed>
<course>77.7</course>
<desc>Speed 6.0 km/h Distance 39.49 km</desc>
<time>2010-06-13T09:22:41.83</time>
<name>9670</name>
</trkpt>
<trkpt lat="49.180980" lon="11.855792">
<ele>556.4</ele>
<speed>3.6</speed>
<course>151.4</course>
<desc>Speed 3.6 km/h Distance 39.49 km</desc>
<time>2010-06-13T09:22:42.84</time>
<name>9671</name>
</trkpt>
<trkpt lat="49.180960" lon="11.855808">
<ele>558.0</ele>
<speed>4.8</speed>
<course>161.8</course>
<desc>Speed 4.8 km/h Distance 39.49 km</desc>
<time>2010-06-13T09:22:43.83</time>
<name>9672</name>
</trkpt>
<trkpt lat="49.180950" lon="11.855813">
<ele>561.5</ele>
<speed>4.7</speed>
<course>182.8</course>
<desc>Speed 4.7 km/h Distance 39.50 km</desc>
<time>2010-06-13T09:22:44.85</time>
<name>9673</name>
</trkpt>
<trkpt lat="49.180933" lon="11.855812">
<ele>563.2</ele>
<speed>4.5</speed>
<course>175.3</course>
<desc>Speed 4.5 km/h Distance 39.50 km</desc>
<time>2010-06-13T09:22:45.83</time>
<name>9674</name>
</trkpt>
<trkpt lat="49.180922" lon="11.855813">
<ele>564.0</ele>
<speed>5.4</speed>
<course>166.5</course>
<desc>Speed 5.4 km/h Distance 39.50 km</desc>
<time>2010-06-13T09:22:46.84</time>
<name>9675</name>
</trkpt>
<trkpt lat="49.180908" lon="11.855818">
<ele>567.1</ele>
<speed>5.4</speed>
<course>157.7</course>
<desc>Speed 5.4 km/h Distance 39.50 km</desc>
<time>2010-06-13T09:22:47.83</time>
<name>9676</name>
</trkpt>
<trkpt lat="49.180895" lon="11.855827">
<ele>570.1</ele>
<speed>4.8</speed>
<course>165.1</course>
<desc>Speed 4.8 km/h Distance 39.50 km</desc>
<time>2010-06-13T09:22:48.84</time>
<name>9677</name>
</trkpt>
<trkpt lat="49.180883" lon="11.855832">
<ele>569.4</ele>
<speed>3.1</speed>
<course>171.6</course>
<desc>Speed 3.1 km/h Distance 39.50 km</desc>
<time>2010-06-13T09:22:49.84</time>
<name>9678</name>
</trkpt>
<trkpt lat="49.180862" lon="11.855837">
<ele>571.0</ele>
<speed>5.3</speed>
<course>158.5</course>
<desc>Speed 5.3 km/h Distance 39.51 km</desc>
<time>2010-06-13T09:22:50.84</time>
<name>9679</name>
</trkpt>
<trkpt lat="49.180853" lon="11.855842">
<ele>569.2</ele>
<speed>4.6</speed>
<course>167.4</course>
<desc>Speed 4.6 km/h Distance 39.51 km</desc>
<time>2010-06-13T09:22:51.84</time>
<name>9680</name>
</trkpt>
<trkpt lat="49.180843" lon="11.855845">
<ele>566.8</ele>
<speed>2.4</speed>
<course>167.4</course>
<desc>Speed 2.4 km/h Distance 39.51 km</desc>
<time>2010-06-13T09:22:52.84</time>
<name>9681</name>
</trkpt>
<trkpt lat="49.180842" lon="11.855845">
<ele>567.1</ele>
<speed>2.2</speed>
<course>322.8</course>
<desc>Speed 2.2 km/h Distance 39.51 km</desc>
<time>2010-06-13T09:22:53.84</time>
<name>9682</name>
</trkpt>
<trkpt lat="49.180843" lon="11.855843">
<ele>568.2</ele>
<speed>0.6</speed>
<course>307.0</course>
<desc>Speed 0.6 km/h Distance 39.51 km</desc>
<time>2010-06-13T09:22:54.84</time>
<name>9683</name>
</trkpt>
<trkpt lat="49.180847" lon="11.855837">
<ele>570.4</ele>
<speed>1.7</speed>
<course>287.1</course>
<desc>Speed 1.7 km/h Distance 39.51 km</desc>
<time>2010-06-13T09:22:55.85</time>
<name>9684</name>
</trkpt>
<trkpt lat="49.180848" lon="11.855828">
<ele>572.0</ele>
<speed>1.6</speed>
<course>119.0</course>
<desc>Speed 1.6 km/h Distance 39.51 km</desc>
<time>2010-06-13T09:22:56.85</time>
<name>9685</name>
</trkpt>
<trkpt lat="49.180842" lon="11.855847">
<ele>570.1</ele>
<speed>1.6</speed>
<course>184.1</course>
<desc>Speed 1.6 km/h Distance 39.51 km</desc>
<time>2010-06-13T09:22:57.87</time>
<name>9686</name>
</trkpt>
<trkpt lat="49.180825" lon="11.855845">
<ele>568.7</ele>
<speed>3.0</speed>
<course>118.2</course>
<desc>Speed 3.0 km/h Distance 39.51 km</desc>
<time>2010-06-13T09:22:58.84</time>
<name>9687</name>
</trkpt>
<trkpt lat="49.180813" lon="11.855878">
<ele>564.9</ele>
<speed>2.3</speed>
<course>122.6</course>
<desc>Speed 2.3 km/h Distance 39.52 km</desc>
<time>2010-06-13T09:22:59.85</time>
<name>9688</name>
</trkpt>
<trkpt lat="49.180805" lon="11.855898">
<ele>562.1</ele>
<speed>1.7</speed>
<course>146.8</course>
<desc>Speed 1.7 km/h Distance 39.52 km</desc>
<time>2010-06-13T09:23:00.84</time>
<name>9689</name>
</trkpt>
<trkpt lat="49.180797" lon="11.855907">
<ele>562.1</ele>
<speed>1.0</speed>
<course>159.9</course>
<desc>Speed 1.0 km/h Distance 39.52 km</desc>
<time>2010-06-13T09:23:01.84</time>
<name>9690</name>
</trkpt>
<trkpt lat="49.180782" lon="11.855915">
<ele>558.9</ele>
<speed>3.3</speed>
<course>215.7</course>
<desc>Speed 3.3 km/h Distance 39.52 km</desc>
<time>2010-06-13T09:23:02.84</time>
<name>9691</name>
</trkpt>
<trkpt lat="49.180765" lon="11.855897">
<ele>559.0</ele>
<speed>3.3</speed>
<course>194.6</course>
<desc>Speed 3.3 km/h Distance 39.52 km</desc>
<time>2010-06-13T09:23:03.84</time>
<name>9692</name>
</trkpt>
<trkpt lat="49.180740" lon="11.855887">
<ele>561.0</ele>
<speed>3.1</speed>
<course>191.2</course>
<desc>Speed 3.1 km/h Distance 39.53 km</desc>
<time>2010-06-13T09:23:04.86</time>
<name>9693</name>
</trkpt>
<trkpt lat="49.180723" lon="11.855882">
<ele>562.7</ele>
<speed>3.1</speed>
<course>157.3</course>
<desc>Speed 3.1 km/h Distance 39.53 km</desc>
<time>2010-06-13T09:23:05.84</time>
<name>9694</name>
</trkpt>
<trkpt lat="49.180705" lon="11.855893">
<ele>559.9</ele>
<speed>4.2</speed>
<course>152.4</course>
<desc>Speed 4.2 km/h Distance 39.53 km</desc>
<time>2010-06-13T09:23:06.84</time>
<name>9695</name>
</trkpt>
<trkpt lat="49.180688" lon="11.855907">
<ele>557.8</ele>
<speed>3.8</speed>
<course>174.7</course>
<desc>Speed 3.8 km/h Distance 39.53 km</desc>
<time>2010-06-13T09:23:07.85</time>
<name>9696</name>
</trkpt>
<trkpt lat="49.180675" lon="11.855908">
<ele>555.7</ele>
<speed>3.1</speed>
<course>213.2</course>
<desc>Speed 3.1 km/h Distance 39.53 km</desc>
<time>2010-06-13T09:23:08.83</time>
<name>9697</name>
</trkpt>
<trkpt lat="49.180668" lon="11.855902">
<ele>556.7</ele>
<speed>2.1</speed>
<course>207.9</course>
<desc>Speed 2.1 km/h Distance 39.53 km</desc>
<time>2010-06-13T09:23:09.85</time>
<name>9698</name>
</trkpt>
<trkpt lat="49.180660" lon="11.855895">
<ele>558.1</ele>
<speed>2.7</speed>
<course>231.9</course>
<desc>Speed 2.7 km/h Distance 39.54 km</desc>
<time>2010-06-13T09:23:10.83</time>
<name>9699</name>
</trkpt>
<trkpt lat="49.180658" lon="11.855892">
<ele>558.3</ele>
<speed>1.3</speed>
<course>236.7</course>
<desc>Speed 1.3 km/h Distance 39.54 km</desc>
<time>2010-06-13T09:23:11.85</time>
<name>9700</name>
</trkpt>
<trkpt lat="49.180653" lon="11.855880">
<ele>559.3</ele>
<speed>0.3</speed>
<course>183.8</course>
<desc>Speed 0.3 km/h Distance 39.54 km</desc>
<time>2010-06-13T09:23:12.84</time>
<name>9701</name>
</trkpt>
<trkpt lat="49.180638" lon="11.855878">
<ele>561.4</ele>
<speed>1.8</speed>
<course>140.6</course>
<desc>Speed 1.8 km/h Distance 39.54 km</desc>
<time>2010-06-13T09:23:13.86</time>
<name>9702</name>
</trkpt>
<trkpt lat="49.180632" lon="11.855887">
<ele>563.1</ele>
<speed>2.3</speed>
<course>38.1</course>
<desc>Speed 2.3 km/h Distance 39.54 km</desc>
<time>2010-06-13T09:23:14.85</time>
<name>9703</name>
</trkpt>
<trkpt lat="49.180640" lon="11.855897">
<ele>563.7</ele>
<speed>1.5</speed>
<course>98.7</course>
<desc>Speed 1.5 km/h Distance 39.54 km</desc>
<time>2010-06-13T09:23:15.84</time>
<name>9704</name>
</trkpt>
<trkpt lat="49.180638" lon="11.855913">
<ele>562.8</ele>
<speed>3.3</speed>
<course>26.4</course>
<desc>Speed 3.3 km/h Distance 39.54 km</desc>
<time>2010-06-13T09:23:16.83</time>
<name>9705</name>
</trkpt>
<trkpt lat="49.180645" lon="11.855918">
<ele>561.3</ele>
<speed>2.4</speed>
<course>230.1</course>
<desc>Speed 2.4 km/h Distance 39.54 km</desc>
<time>2010-06-13T09:23:17.85</time>
<name>9706</name>
</trkpt>
<trkpt lat="49.180635" lon="11.855900">
<ele>563.8</ele>
<speed>2.0</speed>
<course>159.2</course>
<desc>Speed 2.0 km/h Distance 39.54 km</desc>
<time>2010-06-13T09:23:18.84</time>
<name>9707</name>
</trkpt>
<trkpt lat="49.180627" lon="11.855905">
<ele>562.0</ele>
<speed>3.6</speed>
<course>90.0</course>
<desc>Speed 3.6 km/h Distance 39.54 km</desc>
<time>2010-06-13T09:23:19.83</time>
<name>9708</name>
</trkpt>
<trkpt lat="49.180627" lon="11.855915">
<ele>560.0</ele>
<speed>1.1</speed>
<course>181.3</course>
<desc>Speed 1.1 km/h Distance 39.55 km</desc>
<time>2010-06-13T09:23:20.84</time>
<name>9709</name>
</trkpt>
<trkpt lat="49.180588" lon="11.855913">
<ele>561.7</ele>
<speed>1.4</speed>
<course>229.1</course>
<desc>Speed 1.4 km/h Distance 39.55 km</desc>
<time>2010-06-13T09:23:22.84</time>
<name>9710</name>
</trkpt>
<trkpt lat="49.180582" lon="11.855902">
<ele>564.0</ele>
<speed>2.7</speed>
<course>265.8</course>
<desc>Speed 2.7 km/h Distance 39.55 km</desc>
<time>2010-06-13T09:23:23.85</time>
<name>9711</name>
</trkpt>
<trkpt lat="49.180580" lon="11.855867">
<ele>567.4</ele>
<speed>4.1</speed>
<course>304.8</course>
<desc>Speed 4.1 km/h Distance 39.55 km</desc>
<time>2010-06-13T09:23:24.84</time>
<name>9712</name>
</trkpt>
<trkpt lat="49.180588" lon="11.855848">
<ele>570.8</ele>
<speed>1.8</speed>
<course>260.9</course>
<desc>Speed 1.8 km/h Distance 39.56 km</desc>
<time>2010-06-13T09:23:25.85</time>
<name>9713</name>
</trkpt>
<trkpt lat="49.180585" lon="11.855817">
<ele>572.7</ele>
<speed>1.8</speed>
<course>270.0</course>
<desc>Speed 1.8 km/h Distance 39.56 km</desc>
<time>2010-06-13T09:23:26.84</time>
<name>9714</name>
</trkpt>
<trkpt lat="49.180585" lon="11.855802">
<ele>574.3</ele>
<speed>1.3</speed>
<course>270.0</course>
<desc>Speed 1.3 km/h Distance 39.56 km</desc>
<time>2010-06-13T09:23:27.84</time>
<name>9715</name>
</trkpt>
<trkpt lat="49.180585" lon="11.855780">
<ele>577.2</ele>
<speed>1.8</speed>
<course>294.7</course>
<desc>Speed 1.8 km/h Distance 39.56 km</desc>
<time>2010-06-13T09:23:28.84</time>
<name>9716</name>
</trkpt>
<trkpt lat="49.180590" lon="11.855763">
<ele>579.1</ele>
<speed>1.1</speed>
<course>332.5</course>
<desc>Speed 1.1 km/h Distance 39.56 km</desc>
<time>2010-06-13T09:23:29.85</time>
<name>9717</name>
</trkpt>
<trkpt lat="49.180598" lon="11.855757">
<ele>580.4</ele>
<speed>0.4</speed>
<course>249.1</course>
<desc>Speed 0.4 km/h Distance 39.56 km</desc>
<time>2010-06-13T09:23:30.85</time>
<name>9718</name>
</trkpt>
<trkpt lat="49.180597" lon="11.855750">
<ele>581.9</ele>
<speed>0.6</speed>
<course>347.4</course>
<desc>Speed 0.6 km/h Distance 39.56 km</desc>
<time>2010-06-13T09:23:31.85</time>
<name>9719</name>
</trkpt>
<trkpt lat="49.180600" lon="11.855748">
<ele>583.5</ele>
<speed>0.8</speed>
<course>29.8</course>
<desc>Speed 0.8 km/h Distance 39.56 km</desc>
<time>2010-06-13T09:23:32.85</time>
<name>9720</name>
</trkpt>
<trkpt lat="49.180613" lon="11.855760">
<ele>582.9</ele>
<speed>0.5</speed>
<course>213.1</course>
<desc>Speed 0.5 km/h Distance 39.57 km</desc>
<time>2010-06-13T09:23:33.85</time>
<name>9721</name>
</trkpt>
<trkpt lat="49.180602" lon="11.855748">
<ele>585.3</ele>
<speed>2.3</speed>
<course>188.8</course>
<desc>Speed 2.3 km/h Distance 39.57 km</desc>
<time>2010-06-13T09:23:34.84</time>
<name>9722</name>
</trkpt>
<trkpt lat="49.180587" lon="11.855745">
<ele>586.8</ele>
<speed>1.7</speed>
<course>182.4</course>
<desc>Speed 1.7 km/h Distance 39.57 km</desc>
<time>2010-06-13T09:23:35.85</time>
<name>9723</name>
</trkpt>
<trkpt lat="49.180533" lon="11.855742">
<ele>588.9</ele>
<speed>4.1</speed>
<course>185.5</course>
<desc>Speed 4.1 km/h Distance 39.57 km</desc>
<time>2010-06-13T09:23:37.85</time>
<name>9724</name>
</trkpt>
<trkpt lat="49.180512" lon="11.855738">
<ele>589.6</ele>
<speed>4.2</speed>
<course>178.8</course>
<desc>Speed 4.2 km/h Distance 39.58 km</desc>
<time>2010-06-13T09:23:38.84</time>
<name>9725</name>
</trkpt>
<trkpt lat="49.180492" lon="11.855738">
<ele>589.8</ele>
<speed>4.6</speed>
<course>154.8</course>
<desc>Speed 4.6 km/h Distance 39.58 km</desc>
<time>2010-06-13T09:23:39.84</time>
<name>9726</name>
</trkpt>
<trkpt lat="49.180480" lon="11.855747">
<ele>589.8</ele>
<speed>3.9</speed>
<course>159.4</course>
<desc>Speed 3.9 km/h Distance 39.58 km</desc>
<time>2010-06-13T09:23:40.84</time>
<name>9727</name>
</trkpt>
<trkpt lat="49.180468" lon="11.855753">
<ele>589.3</ele>
<speed>3.0</speed>
<course>135.5</course>
<desc>Speed 3.0 km/h Distance 39.58 km</desc>
<time>2010-06-13T09:23:41.84</time>
<name>9728</name>
</trkpt>
<trkpt lat="49.180458" lon="11.855768">
<ele>586.4</ele>
<speed>3.3</speed>
<course>137.4</course>
<desc>Speed 3.3 km/h Distance 39.58 km</desc>
<time>2010-06-13T09:23:42.85</time>
<name>9729</name>
</trkpt>
<trkpt lat="49.180450" lon="11.855780">
<ele>585.7</ele>
<speed>2.8</speed>
<course>182.5</course>
<desc>Speed 2.8 km/h Distance 39.58 km</desc>
<time>2010-06-13T09:23:43.85</time>
<name>9730</name>
</trkpt>
<trkpt lat="49.180432" lon="11.855778">
<ele>583.2</ele>
<speed>3.6</speed>
<course>183.8</course>
<desc>Speed 3.6 km/h Distance 39.59 km</desc>
<time>2010-06-13T09:23:44.84</time>
<name>9731</name>
</trkpt>
<trkpt lat="49.180417" lon="11.855777">
<ele>583.1</ele>
<speed>3.6</speed>
<course>196.0</course>
<desc>Speed 3.6 km/h Distance 39.59 km</desc>
<time>2010-06-13T09:23:45.85</time>
<name>9732</name>
</trkpt>
<trkpt lat="49.180402" lon="11.855770">
<ele>581.3</ele>
<speed>4.6</speed>
<course>209.8</course>
<desc>Speed 4.6 km/h Distance 39.59 km</desc>
<time>2010-06-13T09:23:46.85</time>
<name>9733</name>
</trkpt>
<trkpt lat="49.180388" lon="11.855758">
<ele>580.4</ele>
<speed>3.3</speed>
<course>160.1</course>
<desc>Speed 3.3 km/h Distance 39.59 km</desc>
<time>2010-06-13T09:23:47.84</time>
<name>9734</name>
</trkpt>
<trkpt lat="49.180373" lon="11.855767">
<ele>577.9</ele>
<speed>3.1</speed>
<course>120.5</course>
<desc>Speed 3.1 km/h Distance 39.59 km</desc>
<time>2010-06-13T09:23:48.85</time>
<name>9735</name>
</trkpt>
<trkpt lat="49.180365" lon="11.855788">
<ele>575.7</ele>
<speed>3.5</speed>
<course>144.7</course>
<desc>Speed 3.5 km/h Distance 39.60 km</desc>
<time>2010-06-13T09:23:49.86</time>
<name>9736</name>
</trkpt>
<trkpt lat="49.180345" lon="11.855810">
<ele>573.8</ele>
<speed>3.7</speed>
<course>222.5</course>
<desc>Speed 3.7 km/h Distance 39.60 km</desc>
<time>2010-06-13T09:23:50.84</time>
<name>9737</name>
</trkpt>
<trkpt lat="49.180337" lon="11.855798">
<ele>576.8</ele>
<speed>3.2</speed>
<course>194.3</course>
<desc>Speed 3.2 km/h Distance 39.60 km</desc>
<time>2010-06-13T09:23:51.83</time>
<name>9738</name>
</trkpt>
<trkpt lat="49.180320" lon="11.855792">
<ele>577.4</ele>
<speed>4.0</speed>
<course>210.2</course>
<desc>Speed 4.0 km/h Distance 39.60 km</desc>
<time>2010-06-13T09:23:52.84</time>
<name>9739</name>
</trkpt>
<trkpt lat="49.180305" lon="11.855778">
<ele>579.0</ele>
<speed>4.8</speed>
<course>192.2</course>
<desc>Speed 4.8 km/h Distance 39.60 km</desc>
<time>2010-06-13T09:23:53.83</time>
<name>9740</name>
</trkpt>
<trkpt lat="49.180290" lon="11.855773">
<ele>579.5</ele>
<speed>4.1</speed>
<course>232.7</course>
<desc>Speed 4.1 km/h Distance 39.61 km</desc>
<time>2010-06-13T09:23:54.83</time>
<name>9741</name>
</trkpt>
<trkpt lat="49.180283" lon="11.855760">
<ele>581.2</ele>
<speed>3.1</speed>
<course>123.3</course>
<desc>Speed 3.1 km/h Distance 39.61 km</desc>
<time>2010-06-13T09:23:55.83</time>
<name>9742</name>
</trkpt>
<trkpt lat="49.180278" lon="11.855772">
<ele>579.7</ele>
<speed>2.4</speed>
<course>194.9</course>
<desc>Speed 2.4 km/h Distance 39.61 km</desc>
<time>2010-06-13T09:23:56.85</time>
<name>9743</name>
</trkpt>
<trkpt lat="49.180267" lon="11.855767">
<ele>579.9</ele>
<speed>2.4</speed>
<course>187.4</course>
<desc>Speed 2.4 km/h Distance 39.61 km</desc>
<time>2010-06-13T09:23:57.84</time>
<name>9744</name>
</trkpt>
<trkpt lat="49.180260" lon="11.855765">
<ele>579.2</ele>
<speed>2.4</speed>
<course>213.2</course>
<desc>Speed 2.4 km/h Distance 39.61 km</desc>
<time>2010-06-13T09:23:58.83</time>
<name>9745</name>
</trkpt>
<trkpt lat="49.180252" lon="11.855757">
<ele>579.3</ele>
<speed>2.5</speed>
<course>167.4</course>
<desc>Speed 2.5 km/h Distance 39.61 km</desc>
<time>2010-06-13T09:23:59.84</time>
<name>9746</name>
</trkpt>
<trkpt lat="49.180247" lon="11.855758">
<ele>578.2</ele>
<speed>2.3</speed>
<course>167.4</course>
<desc>Speed 2.3 km/h Distance 39.61 km</desc>
<time>2010-06-13T09:24:00.84</time>
<name>9747</name>
</trkpt>
<trkpt lat="49.180243" lon="11.855760">
<ele>578.3</ele>
<speed>1.8</speed>
<course>213.2</course>
<desc>Speed 1.8 km/h Distance 39.61 km</desc>
<time>2010-06-13T09:24:01.84</time>
<name>9748</name>
</trkpt>
<trkpt lat="49.180238" lon="11.855755">
<ele>578.6</ele>
<speed>1.2</speed>
<course>180.0</course>
<desc>Speed 1.2 km/h Distance 39.61 km</desc>
<time>2010-06-13T09:24:02.84</time>
<name>9749</name>
</trkpt>
<trkpt lat="49.180235" lon="11.855755">
<ele>578.6</ele>
<speed>0.6</speed>
<course>180.0</course>
<desc>Speed 0.6 km/h Distance 39.61 km</desc>
<time>2010-06-13T09:24:03.83</time>
<name>9750</name>
</trkpt>
<trkpt lat="49.180233" lon="11.855755">
<ele>578.6</ele>
<speed>0.3</speed>
<course>167.4</course>
<desc>Speed 0.3 km/h Distance 39.61 km</desc>
<time>2010-06-13T09:24:04.86</time>
<name>9751</name>
</trkpt>
<trkpt lat="49.180232" lon="11.855755">
<ele>579.1</ele>
<speed>0.4</speed>
<course>90.0</course>
<desc>Speed 0.4 km/h Distance 39.61 km</desc>
<time>2010-06-13T09:24:05.84</time>
<name>9752</name>
</trkpt>
<trkpt lat="49.180232" lon="11.855758">
<ele>579.1</ele>
<speed>0.4</speed>
<course>90.0</course>
<desc>Speed 0.4 km/h Distance 39.61 km</desc>
<time>2010-06-13T09:24:06.83</time>
<name>9753</name>
</trkpt>
<trkpt lat="49.180232" lon="11.855760">
<ele>579.4</ele>
<speed>0.2</speed>
<course>249.1</course>
<desc>Speed 0.2 km/h Distance 39.61 km</desc>
<time>2010-06-13T09:24:07.84</time>
<name>9754</name>
</trkpt>
<trkpt lat="49.180230" lon="11.855753">
<ele>580.7</ele>
<speed>0.3</speed>
<course>62.6</course>
<desc>Speed 0.3 km/h Distance 39.61 km</desc>
<time>2010-06-13T09:24:08.83</time>
<name>9755</name>
</trkpt>
<trkpt lat="49.180232" lon="11.855758">
<ele>580.7</ele>
<speed>0.1</speed>
<course>242.6</course>
<desc>Speed 0.1 km/h Distance 39.61 km</desc>
<time>2010-06-13T09:24:09.85</time>
<name>9756</name>
</trkpt>
<trkpt lat="49.180230" lon="11.855753">
<ele>581.6</ele>
<speed>0.8</speed>
<course>270.0</course>
<desc>Speed 0.8 km/h Distance 39.61 km</desc>
<time>2010-06-13T09:24:10.84</time>
<name>9757</name>
</trkpt>
<trkpt lat="49.180230" lon="11.855752">
<ele>582.1</ele>
<speed>0.2</speed>
<course>246.5</course>
<desc>Speed 0.2 km/h Distance 39.61 km</desc>
<time>2010-06-13T09:24:11.84</time>
<name>9758</name>
</trkpt>
<trkpt lat="49.180227" lon="11.855740">
<ele>583.7</ele>
<speed>0.4</speed>
<course>251.3</course>
<desc>Speed 0.4 km/h Distance 39.62 km</desc>
<time>2010-06-13T09:24:12.84</time>
<name>9759</name>
</trkpt>
<trkpt lat="49.180223" lon="11.855725">
<ele>585.7</ele>
<speed>0.3</speed>
<course>252.9</course>
<desc>Speed 0.3 km/h Distance 39.62 km</desc>
<time>2010-06-13T09:24:13.84</time>
<name>9760</name>
</trkpt>
<trkpt lat="49.180222" lon="11.855717">
<ele>587.1</ele>
<speed>0.2</speed>
<course>249.1</course>
<desc>Speed 0.2 km/h Distance 39.62 km</desc>
<time>2010-06-13T09:24:14.83</time>
<name>9761</name>
</trkpt>
<trkpt lat="49.180218" lon="11.855703">
<ele>589.0</ele>
<speed>0.1</speed>
<course>252.9</course>
<desc>Speed 0.1 km/h Distance 39.62 km</desc>
<time>2010-06-13T09:24:15.85</time>
<name>9762</name>
</trkpt>
<trkpt lat="49.180217" lon="11.855695">
<ele>590.2</ele>
<speed>0.8</speed>
<course>270.0</course>
<desc>Speed 0.8 km/h Distance 39.62 km</desc>
<time>2010-06-13T09:24:16.82</time>
<name>9763</name>
</trkpt>
<trkpt lat="49.180217" lon="11.855690">
<ele>591.0</ele>
<speed>0.6</speed>
<course>249.1</course>
<desc>Speed 0.6 km/h Distance 39.62 km</desc>
<time>2010-06-13T09:24:17.85</time>
<name>9764</name>
</trkpt>
<trkpt lat="49.180213" lon="11.855677">
<ele>592.7</ele>
<speed>0.6</speed>
<course>270.0</course>
<desc>Speed 0.6 km/h Distance 39.62 km</desc>
<time>2010-06-13T09:24:18.83</time>
<name>9765</name>
</trkpt>
<trkpt lat="49.180213" lon="11.855670">
<ele>593.5</ele>
<speed>1.2</speed>
<course>233.0</course>
<desc>Speed 1.2 km/h Distance 39.62 km</desc>
<time>2010-06-13T09:24:19.84</time>
<name>9766</name>
</trkpt>
<trkpt lat="49.180210" lon="11.855663">
<ele>594.5</ele>
<speed>1.7</speed>
<course>44.5</course>
<desc>Speed 1.7 km/h Distance 39.62 km</desc>
<time>2010-06-13T09:24:20.84</time>
<name>9767</name>
</trkpt>
<trkpt lat="49.180213" lon="11.855668">
<ele>594.1</ele>
<speed>0.3</speed>
<course>12.6</course>
<desc>Speed 0.3 km/h Distance 39.62 km</desc>
<time>2010-06-13T09:24:21.84</time>
<name>9768</name>
</trkpt>
<trkpt lat="49.180215" lon="11.855668">
<ele>594.4</ele>
<speed>0.7</speed>
<course>66.3</course>
<desc>Speed 0.7 km/h Distance 39.62 km</desc>
<time>2010-06-13T09:24:22.84</time>
<name>9769</name>
</trkpt>
<trkpt lat="49.180218" lon="11.855680">
<ele>593.4</ele>
<speed>0.1</speed>
<course>270.0</course>
<desc>Speed 0.1 km/h Distance 39.62 km</desc>
<time>2010-06-13T09:24:23.84</time>
<name>9770</name>
</trkpt>
<trkpt lat="49.180218" lon="11.855675">
<ele>594.2</ele>
<speed>0.3</speed>
<course>51.9</course>
<desc>Speed 0.3 km/h Distance 39.62 km</desc>
<time>2010-06-13T09:24:24.84</time>
<name>9771</name>
</trkpt>
<trkpt lat="49.180220" lon="11.855678">
<ele>594.1</ele>
<speed>0.7</speed>
<course>270.0</course>
<desc>Speed 0.7 km/h Distance 39.62 km</desc>
<time>2010-06-13T09:24:25.83</time>
<name>9772</name>
</trkpt>
<trkpt lat="49.180220" lon="11.855677">
<ele>594.6</ele>
<speed>0.5</speed>
<course>44.5</course>
<desc>Speed 0.5 km/h Distance 39.62 km</desc>
<time>2010-06-13T09:24:26.83</time>
<name>9773</name>
</trkpt>
<trkpt lat="49.180223" lon="11.855682">
<ele>594.0</ele>
<speed>0.8</speed>
<course>62.6</course>
<desc>Speed 0.8 km/h Distance 39.62 km</desc>
<time>2010-06-13T09:24:27.84</time>
<name>9774</name>
</trkpt>
<trkpt lat="49.180225" lon="11.855687">
<ele>593.6</ele>
<speed>0.1</speed>
<course>58.6</course>
<desc>Speed 0.1 km/h Distance 39.62 km</desc>
<time>2010-06-13T09:24:28.83</time>
<name>9775</name>
</trkpt>
<trkpt lat="49.180228" lon="11.855695">
<ele>592.8</ele>
<speed>0.3</speed>
<course>73.0</course>
<desc>Speed 0.3 km/h Distance 39.63 km</desc>
<time>2010-06-13T09:24:29.85</time>
<name>9776</name>
</trkpt>
<trkpt lat="49.180232" lon="11.855712">
<ele>591.2</ele>
<speed>0.8</speed>
<course>58.6</course>
<desc>Speed 0.8 km/h Distance 39.63 km</desc>
<time>2010-06-13T09:24:30.83</time>
<name>9777</name>
</trkpt>
<trkpt lat="49.180238" lon="11.855728">
<ele>589.2</ele>
<speed>0.3</speed>
<course>90.0</course>
<desc>Speed 0.3 km/h Distance 39.63 km</desc>
<time>2010-06-13T09:24:31.83</time>
<name>9778</name>
</trkpt>
<trkpt lat="49.180238" lon="11.855735">
<ele>588.5</ele>
<speed>0.4</speed>
<course>90.0</course>
<desc>Speed 0.4 km/h Distance 39.63 km</desc>
<time>2010-06-13T09:24:32.84</time>
<name>9779</name>
</trkpt>
<trkpt lat="49.180238" lon="11.855740">
<ele>587.6</ele>
<speed>0.5</speed>
<course>63.0</course>
<desc>Speed 0.5 km/h Distance 39.63 km</desc>
<time>2010-06-13T09:24:33.83</time>
<name>9780</name>
</trkpt>
<trkpt lat="49.180245" lon="11.855760">
<ele>585.2</ele>
<speed>0.6</speed>
<course>66.4</course>
<desc>Speed 0.6 km/h Distance 39.63 km</desc>
<time>2010-06-13T09:24:34.82</time>
<name>9781</name>
</trkpt>
<trkpt lat="49.180248" lon="11.855772">
<ele>583.5</ele>
<speed>0.4</speed>
<course>69.1</course>
<desc>Speed 0.4 km/h Distance 39.63 km</desc>
<time>2010-06-13T09:24:35.83</time>
<name>9782</name>
</trkpt>
<trkpt lat="49.180252" lon="11.855785">
<ele>581.5</ele>
<speed>0.8</speed>
<course>90.0</course>
<desc>Speed 0.8 km/h Distance 39.63 km</desc>
<time>2010-06-13T09:24:36.82</time>
<name>9783</name>
</trkpt>
<trkpt lat="49.180252" lon="11.855788">
<ele>580.6</ele>
<speed>0.1</speed>
<course>90.0</course>
<desc>Speed 0.1 km/h Distance 39.63 km</desc>
<time>2010-06-13T09:24:37.84</time>
<name>9784</name>
</trkpt>
<trkpt lat="49.180252" lon="11.855788">
<ele>579.9</ele>
<speed>0.4</speed>
<course>167.4</course>
<desc>Speed 0.4 km/h Distance 39.63 km</desc>
<time>2010-06-13T09:24:38.84</time>
<name>9785</name>
</trkpt>
<trkpt lat="49.180250" lon="11.855788">
<ele>579.1</ele>
<speed>0.2</speed>
<course>249.1</course>
<desc>Speed 0.2 km/h Distance 39.63 km</desc>
<time>2010-06-13T09:24:39.85</time>
<name>9786</name>
</trkpt>
<trkpt lat="49.180248" lon="11.855782">
<ele>579.0</ele>
<speed>0.6</speed>
<course>180.0</course>
<desc>Speed 0.6 km/h Distance 39.63 km</desc>
<time>2010-06-13T09:24:40.87</time>
<name>9787</name>
</trkpt>
<trkpt lat="49.180247" lon="11.855782">
<ele>578.3</ele>
<speed>0.4</speed>
<course>180.0</course>
<desc>Speed 0.4 km/h Distance 39.63 km</desc>
<time>2010-06-13T09:24:41.83</time>
<name>9788</name>
</trkpt>
<trkpt lat="49.180247" lon="11.855780">
<ele>577.7</ele>
<speed>0.3</speed>
<course>192.6</course>
<desc>Speed 0.3 km/h Distance 39.63 km</desc>
<time>2010-06-13T09:24:42.83</time>
<name>9789</name>
</trkpt>
<trkpt lat="49.180245" lon="11.855778">
<ele>577.6</ele>
<speed>0.8</speed>
<course>90.0</course>
<desc>Speed 0.8 km/h Distance 39.63 km</desc>
<time>2010-06-13T09:24:43.83</time>
<name>9790</name>
</trkpt>
<trkpt lat="49.180245" lon="11.855783">
<ele>576.8</ele>
<speed>1.4</speed>
<course>60.1</course>
<desc>Speed 1.4 km/h Distance 39.63 km</desc>
<time>2010-06-13T09:24:44.83</time>
<name>9791</name>
</trkpt>
<trkpt lat="49.180250" lon="11.855797">
<ele>575.0</ele>
<speed>0.6</speed>
<course>224.5</course>
<desc>Speed 0.6 km/h Distance 39.64 km</desc>
<time>2010-06-13T09:24:45.82</time>
<name>9792</name>
</trkpt>
<trkpt lat="49.180247" lon="11.855792">
<ele>575.1</ele>
<speed>0.5</speed>
<course>224.5</course>
<desc>Speed 0.5 km/h Distance 39.64 km</desc>
<time>2010-06-13T09:24:46.83</time>
<name>9793</name>
</trkpt>
<trkpt lat="49.180247" lon="11.855792">
<ele>574.5</ele>
<speed>0.8</speed>
<course>192.6</course>
<desc>Speed 0.8 km/h Distance 39.64 km</desc>
<time>2010-06-13T09:24:47.83</time>
<name>9794</name>
</trkpt>
<trkpt lat="49.180245" lon="11.855790">
<ele>573.9</ele>
<speed>1.0</speed>
<course>249.0</course>
<desc>Speed 1.0 km/h Distance 39.64 km</desc>
<time>2010-06-13T09:24:48.84</time>
<name>9795</name>
</trkpt>
<trkpt lat="49.180242" lon="11.855777">
<ele>574.6</ele>
<speed>1.5</speed>
<course>233.0</course>
<desc>Speed 1.5 km/h Distance 39.64 km</desc>
<time>2010-06-13T09:24:49.84</time>
<name>9796</name>
</trkpt>
<trkpt lat="49.180238" lon="11.855770">
<ele>574.6</ele>
<speed>1.5</speed>
<course>249.1</course>
<desc>Speed 1.5 km/h Distance 39.64 km</desc>
<time>2010-06-13T09:24:50.82</time>
<name>9797</name>
</trkpt>
<trkpt lat="49.180237" lon="11.855763">
<ele>574.8</ele>
<speed>0.3</speed>
<course>72.9</course>
<desc>Speed 0.3 km/h Distance 39.64 km</desc>
<time>2010-06-13T09:24:51.84</time>
<name>9798</name>
</trkpt>
<trkpt lat="49.180238" lon="11.855772">
<ele>573.9</ele>
<speed>0.9</speed>
<course>66.5</course>
<desc>Speed 0.9 km/h Distance 39.64 km</desc>
<time>2010-06-13T09:24:52.84</time>
<name>9799</name>
</trkpt>
<trkpt lat="49.180242" lon="11.855783">
<ele>572.7</ele>
<speed>1.7</speed>
<course>65.3</course>
<desc>Speed 1.7 km/h Distance 39.64 km</desc>
<time>2010-06-13T09:24:53.84</time>
<name>9800</name>
</trkpt>
<trkpt lat="49.180247" lon="11.855800">
<ele>571.1</ele>
<speed>1.5</speed>
<course>72.7</course>
<desc>Speed 1.5 km/h Distance 39.64 km</desc>
<time>2010-06-13T09:24:54.84</time>
<name>9801</name>
</trkpt>
<trkpt lat="49.180248" lon="11.855808">
<ele>570.0</ele>
<speed>1.5</speed>
<course>51.9</course>
<desc>Speed 1.5 km/h Distance 39.64 km</desc>
<time>2010-06-13T09:24:55.84</time>
<name>9802</name>
</trkpt>
<trkpt lat="49.180250" lon="11.855812">
<ele>569.3</ele>
<speed>0.6</speed>
<course>90.0</course>
<desc>Speed 0.6 km/h Distance 39.64 km</desc>
<time>2010-06-13T09:24:56.84</time>
<name>9803</name>
</trkpt>
<trkpt lat="49.180250" lon="11.855815">
<ele>568.6</ele>
<speed>0.4</speed>
<course>90.0</course>
<desc>Speed 0.4 km/h Distance 39.64 km</desc>
<time>2010-06-13T09:24:57.82</time>
<name>9804</name>
</trkpt>
<trkpt lat="49.180250" lon="11.855817">
<ele>568.1</ele>
<speed>0.3</speed>
<course>90.0</course>
<desc>Speed 0.3 km/h Distance 39.64 km</desc>
<time>2010-06-13T09:24:58.84</time>
<name>9805</name>
</trkpt>
<trkpt lat="49.180250" lon="11.855818">
<ele>567.3</ele>
<speed>0.3</speed>
<course>63.4</course>
<desc>Speed 0.3 km/h Distance 39.64 km</desc>
<time>2010-06-13T09:24:59.82</time>
<name>9806</name>
</trkpt>
<trkpt lat="49.180252" lon="11.855823">
<ele>566.5</ele>
<speed>0.6</speed>
<course>90.0</course>
<desc>Speed 0.6 km/h Distance 39.64 km</desc>
<time>2010-06-13T09:25:00.83</time>
<name>9807</name>
</trkpt>
<trkpt lat="49.180252" lon="11.855828">
<ele>565.7</ele>
<speed>0.4</speed>
<course>62.6</course>
<desc>Speed 0.4 km/h Distance 39.64 km</desc>
<time>2010-06-13T09:25:01.86</time>
<name>9808</name>
</trkpt>
<trkpt lat="49.180253" lon="11.855833">
<ele>564.8</ele>
<speed>0.6</speed>
<course>51.9</course>
<desc>Speed 0.6 km/h Distance 39.64 km</desc>
<time>2010-06-13T09:25:02.82</time>
<name>9809</name>
</trkpt>
<trkpt lat="49.180255" lon="11.855837">
<ele>564.0</ele>
<speed>0.5</speed>
<course>62.6</course>
<desc>Speed 0.5 km/h Distance 39.64 km</desc>
<time>2010-06-13T09:25:03.83</time>
<name>9810</name>
</trkpt>
<trkpt lat="49.180257" lon="11.855842">
<ele>563.1</ele>
<speed>0.7</speed>
<course>90.0</course>
<desc>Speed 0.7 km/h Distance 39.64 km</desc>
<time>2010-06-13T09:25:04.84</time>
<name>9811</name>
</trkpt>
<trkpt lat="49.180257" lon="11.855848">
<ele>562.3</ele>
<speed>0.8</speed>
<course>63.4</course>
<desc>Speed 0.8 km/h Distance 39.65 km</desc>
<time>2010-06-13T09:25:05.85</time>
<name>9812</name>
</trkpt>
<trkpt lat="49.180258" lon="11.855853">
<ele>561.5</ele>
<speed>0.7</speed>
<course>29.2</course>
<desc>Speed 0.7 km/h Distance 39.65 km</desc>
<time>2010-06-13T09:25:06.83</time>
<name>9813</name>
</trkpt>
<trkpt lat="49.180260" lon="11.855855">
<ele>560.7</ele>
<speed>0.6</speed>
<course>90.0</course>
<desc>Speed 0.6 km/h Distance 39.65 km</desc>
<time>2010-06-13T09:25:07.83</time>
<name>9814</name>
</trkpt>
<trkpt lat="49.180260" lon="11.855863">
<ele>560.0</ele>
<speed>1.0</speed>
<course>69.1</course>
<desc>Speed 1.0 km/h Distance 39.65 km</desc>
<time>2010-06-13T09:25:08.83</time>
<name>9815</name>
</trkpt>
<trkpt lat="49.180262" lon="11.855870">
<ele>559.1</ele>
<speed>1.5</speed>
<course>52.4</course>
<desc>Speed 1.5 km/h Distance 39.65 km</desc>
<time>2010-06-13T09:25:09.83</time>
<name>9816</name>
</trkpt>
<trkpt lat="49.180265" lon="11.855877">
<ele>558.2</ele>
<speed>1.8</speed>
<course>52.4</course>
<desc>Speed 1.8 km/h Distance 39.65 km</desc>
<time>2010-06-13T09:25:10.84</time>
<name>9817</name>
</trkpt>
<trkpt lat="49.180270" lon="11.855887">
<ele>559.1</ele>
<speed>1.2</speed>
<course>52.4</course>
<desc>Speed 1.2 km/h Distance 39.65 km</desc>
<time>2010-06-13T09:25:11.84</time>
<name>9818</name>
</trkpt>
<trkpt lat="49.180270" lon="11.855887">
<ele>558.2</ele>
<speed>1.0</speed>
<course>192.6</course>
<desc>Speed 1.0 km/h Distance 39.65 km</desc>
<time>2010-06-13T09:25:12.82</time>
<name>9819</name>
</trkpt>
<trkpt lat="49.180265" lon="11.855885">
<ele>555.9</ele>
<speed>0.5</speed>
<course>224.5</course>
<desc>Speed 0.5 km/h Distance 39.65 km</desc>
<time>2010-06-13T09:25:13.85</time>
<name>9820</name>
</trkpt>
<trkpt lat="49.180262" lon="11.855880">
<ele>554.7</ele>
<speed>1.3</speed>
<course>231.9</course>
<desc>Speed 1.3 km/h Distance 39.65 km</desc>
<time>2010-06-13T09:25:14.82</time>
<name>9821</name>
</trkpt>
<trkpt lat="49.180260" lon="11.855877">
<ele>553.5</ele>
<speed>1.1</speed>
<course>51.9</course>
<desc>Speed 1.1 km/h Distance 39.65 km</desc>
<time>2010-06-13T09:25:15.85</time>
<name>9822</name>
</trkpt>
<trkpt lat="49.180262" lon="11.855880">
<ele>553.8</ele>
<speed>0.3</speed>
<course>90.0</course>
<desc>Speed 0.3 km/h Distance 39.65 km</desc>
<time>2010-06-13T09:25:16.82</time>
<name>9823</name>
</trkpt>
<trkpt lat="49.180262" lon="11.855882">
<ele>553.1</ele>
<speed>0.9</speed>
<course>44.5</course>
<desc>Speed 0.9 km/h Distance 39.65 km</desc>
<time>2010-06-13T09:25:17.84</time>
<name>9824</name>
</trkpt>
<trkpt lat="49.180265" lon="11.855887">
<ele>553.5</ele>
<speed>0.9</speed>
<course>62.6</course>
<desc>Speed 0.9 km/h Distance 39.65 km</desc>
<time>2010-06-13T09:25:18.82</time>
<name>9825</name>
</trkpt>
<trkpt lat="49.180267" lon="11.855892">
<ele>553.6</ele>
<speed>0.9</speed>
<course>90.0</course>
<desc>Speed 0.9 km/h Distance 39.65 km</desc>
<time>2010-06-13T09:25:19.84</time>
<name>9826</name>
</trkpt>
<trkpt lat="49.180267" lon="11.855897">
<ele>554.0</ele>
<speed>1.0</speed>
<course>90.0</course>
<desc>Speed 1.0 km/h Distance 39.65 km</desc>
<time>2010-06-13T09:25:20.84</time>
<name>9827</name>
</trkpt>
<trkpt lat="49.180267" lon="11.855898">
<ele>553.8</ele>
<speed>0.5</speed>
<course>22.2</course>
<desc>Speed 0.5 km/h Distance 39.65 km</desc>
<time>2010-06-13T09:25:21.84</time>
<name>9828</name>
</trkpt>
<trkpt lat="49.180272" lon="11.855902">
<ele>554.4</ele>
<speed>0.8</speed>
<course>44.5</course>
<desc>Speed 0.8 km/h Distance 39.65 km</desc>
<time>2010-06-13T09:25:22.84</time>
<name>9829</name>
</trkpt>
<trkpt lat="49.180275" lon="11.855907">
<ele>555.5</ele>
<speed>0.1</speed>
<course>44.5</course>
<desc>Speed 0.1 km/h Distance 39.65 km</desc>
<time>2010-06-13T09:25:23.83</time>
<name>9830</name>
</trkpt>
<trkpt lat="49.180275" lon="11.855907">
<ele>556.3</ele>
<speed>0.2</speed>
<course>254.2</course>
<desc>Speed 0.2 km/h Distance 39.65 km</desc>
<time>2010-06-13T09:25:24.84</time>
<name>9831</name>
</trkpt>
<trkpt lat="49.180267" lon="11.855862">
<ele>564.2</ele>
<speed>1.3</speed>
<course>270.0</course>
<desc>Speed 1.3 km/h Distance 39.66 km</desc>
<time>2010-06-13T09:25:26.85</time>
<name>9832</name>
</trkpt>
<trkpt lat="49.180267" lon="11.855858">
<ele>566.4</ele>
<speed>2.2</speed>
<course>257.7</course>
<desc>Speed 2.2 km/h Distance 39.66 km</desc>
<time>2010-06-13T09:25:27.83</time>
<name>9833</name>
</trkpt>
<trkpt lat="49.180265" lon="11.855847">
<ele>566.9</ele>
<speed>2.2</speed>
<course>167.4</course>
<desc>Speed 2.2 km/h Distance 39.66 km</desc>
<time>2010-06-13T09:25:28.82</time>
<name>9834</name>
</trkpt>
<trkpt lat="49.180260" lon="11.855848">
<ele>563.2</ele>
<speed>1.2</speed>
<course>252.9</course>
<desc>Speed 1.2 km/h Distance 39.66 km</desc>
<time>2010-06-13T09:25:29.84</time>
<name>9835</name>
</trkpt>
<trkpt lat="49.180258" lon="11.855840">
<ele>563.9</ele>
<speed>0.3</speed>
<course>18.8</course>
<desc>Speed 0.3 km/h Distance 39.66 km</desc>
<time>2010-06-13T09:25:30.83</time>
<name>9836</name>
</trkpt>
<trkpt lat="49.180262" lon="11.855842">
<ele>566.3</ele>
<speed>0.5</speed>
<course>291.3</course>
<desc>Speed 0.5 km/h Distance 39.66 km</desc>
<time>2010-06-13T09:25:31.82</time>
<name>9837</name>
</trkpt>
<trkpt lat="49.180263" lon="11.855835">
<ele>568.1</ele>
<speed>0.5</speed>
<course>62.6</course>
<desc>Speed 0.5 km/h Distance 39.66 km</desc>
<time>2010-06-13T09:25:32.83</time>
<name>9838</name>
</trkpt>
<trkpt lat="49.180265" lon="11.855840">
<ele>567.3</ele>
<speed>0.4</speed>
<course>90.0</course>
<desc>Speed 0.4 km/h Distance 39.66 km</desc>
<time>2010-06-13T09:25:33.83</time>
<name>9839</name>
</trkpt>
<trkpt lat="49.180265" lon="11.855843">
<ele>566.7</ele>
<speed>0.5</speed>
<course>90.0</course>
<desc>Speed 0.5 km/h Distance 39.66 km</desc>
<time>2010-06-13T09:25:34.83</time>
<name>9840</name>
</trkpt>
<trkpt lat="49.180265" lon="11.855845">
<ele>566.1</ele>
<speed>0.4</speed>
<course>240.3</course>
<desc>Speed 0.4 km/h Distance 39.66 km</desc>
<time>2010-06-13T09:25:35.84</time>
<name>9841</name>
</trkpt>
<trkpt lat="49.180260" lon="11.855832">
<ele>567.5</ele>
<speed>0.9</speed>
<course>249.1</course>
<desc>Speed 0.9 km/h Distance 39.66 km</desc>
<time>2010-06-13T09:25:36.82</time>
<name>9842</name>
</trkpt>
<trkpt lat="49.180257" lon="11.855818">
<ele>568.7</ele>
<speed>0.4</speed>
<course>249.1</course>
<desc>Speed 0.4 km/h Distance 39.66 km</desc>
<time>2010-06-13T09:25:37.84</time>
<name>9843</name>
</trkpt>
<trkpt lat="49.180253" lon="11.855805">
<ele>570.2</ele>
<speed>0.9</speed>
<course>242.6</course>
<desc>Speed 0.9 km/h Distance 39.66 km</desc>
<time>2010-06-13T09:25:38.84</time>
<name>9844</name>
</trkpt>
<trkpt lat="49.180252" lon="11.855800">
<ele>570.5</ele>
<speed>0.8</speed>
<course>243.4</course>
<desc>Speed 0.8 km/h Distance 39.66 km</desc>
<time>2010-06-13T09:25:39.83</time>
<name>9845</name>
</trkpt>
<trkpt lat="49.180250" lon="11.855795">
<ele>571.2</ele>
<speed>0.4</speed>
<course>231.9</course>
<desc>Speed 0.4 km/h Distance 39.66 km</desc>
<time>2010-06-13T09:25:40.84</time>
<name>9846</name>
</trkpt>
<trkpt lat="49.180248" lon="11.855792">
<ele>571.4</ele>
<speed>0.2</speed>
<course>231.9</course>
<desc>Speed 0.2 km/h Distance 39.66 km</desc>
<time>2010-06-13T09:25:41.84</time>
<name>9847</name>
</trkpt>
<trkpt lat="49.180248" lon="11.855792">
<ele>571.7</ele>
<speed>0.3</speed>
<course>241.7</course>
<desc>Speed 0.3 km/h Distance 39.66 km</desc>
<time>2010-06-13T09:25:42.82</time>
<name>9848</name>
</trkpt>
<trkpt lat="49.180247" lon="11.855787">
<ele>572.3</ele>
<speed>0.8</speed>
<course>252.9</course>
<desc>Speed 0.8 km/h Distance 39.67 km</desc>
<time>2010-06-13T09:25:43.83</time>
<name>9849</name>
</trkpt>
<trkpt lat="49.180245" lon="11.855778">
<ele>573.2</ele>
<speed>0.9</speed>
<course>251.1</course>
<desc>Speed 0.9 km/h Distance 39.67 km</desc>
<time>2010-06-13T09:25:44.84</time>
<name>9850</name>
</trkpt>
<trkpt lat="49.180242" lon="11.855763">
<ele>575.2</ele>
<speed>0.4</speed>
<course>90.0</course>
<desc>Speed 0.4 km/h Distance 39.67 km</desc>
<time>2010-06-13T09:25:45.83</time>
<name>9851</name>
</trkpt>
<trkpt lat="49.180242" lon="11.855767">
<ele>575.0</ele>
<speed>0.2</speed>
<course>270.0</course>
<desc>Speed 0.2 km/h Distance 39.67 km</desc>
<time>2010-06-13T09:25:46.85</time>
<name>9852</name>
</trkpt>
<trkpt lat="49.180242" lon="11.855760">
<ele>576.3</ele>
<speed>0.8</speed>
<course>224.5</course>
<desc>Speed 0.8 km/h Distance 39.67 km</desc>
<time>2010-06-13T09:25:47.82</time>
<name>9853</name>
</trkpt>
<trkpt lat="49.180238" lon="11.855755">
<ele>576.9</ele>
<speed>0.4</speed>
<course>270.0</course>
<desc>Speed 0.4 km/h Distance 39.67 km</desc>
<time>2010-06-13T09:25:48.83</time>
<name>9854</name>
</trkpt>
<trkpt lat="49.180238" lon="11.855750">
<ele>577.8</ele>
<speed>0.6</speed>
<course>270.0</course>
<desc>Speed 0.6 km/h Distance 39.67 km</desc>
<time>2010-06-13T09:25:49.83</time>
<name>9855</name>
</trkpt>
<trkpt lat="49.180238" lon="11.855747">
<ele>578.1</ele>
<speed>0.9</speed>
<course>270.0</course>
<desc>Speed 0.9 km/h Distance 39.67 km</desc>
<time>2010-06-13T09:25:50.83</time>
<name>9856</name>
</trkpt>
<trkpt lat="49.180238" lon="11.855747">
<ele>578.1</ele>
<speed>0.4</speed>
<course>90.0</course>
<desc>Speed 0.4 km/h Distance 39.67 km</desc>
<time>2010-06-13T09:25:51.83</time>
<name>9857</name>
</trkpt>
<trkpt lat="49.180238" lon="11.855752">
<ele>577.5</ele>
<speed>0.3</speed>
<course>59.5</course>
<desc>Speed 0.3 km/h Distance 39.67 km</desc>
<time>2010-06-13T09:25:52.82</time>
<name>9858</name>
</trkpt>
<trkpt lat="49.180247" lon="11.855773">
<ele>575.0</ele>
<speed>0.3</speed>
<course>90.0</course>
<desc>Speed 0.3 km/h Distance 39.67 km</desc>
<time>2010-06-13T09:25:53.83</time>
<name>9859</name>
</trkpt>
<trkpt lat="49.180247" lon="11.855777">
<ele>574.7</ele>
<speed>0.3</speed>
<course>245.3</course>
<desc>Speed 0.3 km/h Distance 39.67 km</desc>
<time>2010-06-13T09:25:54.84</time>
<name>9860</name>
</trkpt>
<trkpt lat="49.180242" lon="11.855760">
<ele>576.2</ele>
<speed>0.7</speed>
<course>246.5</course>
<desc>Speed 0.7 km/h Distance 39.67 km</desc>
<time>2010-06-13T09:25:55.83</time>
<name>9861</name>
</trkpt>
<trkpt lat="49.180238" lon="11.855748">
<ele>578.6</ele>
<speed>1.2</speed>
<course>270.0</course>
<desc>Speed 1.2 km/h Distance 39.67 km</desc>
<time>2010-06-13T09:25:56.85</time>
<name>9862</name>
</trkpt>
<trkpt lat="49.180238" lon="11.855747">
<ele>578.6</ele>
<speed>1.0</speed>
<course>259.2</course>
<desc>Speed 1.0 km/h Distance 39.67 km</desc>
<time>2010-06-13T09:25:57.83</time>
<name>9863</name>
</trkpt>
<trkpt lat="49.180237" lon="11.855733">
<ele>579.8</ele>
<speed>1.9</speed>
<course>29.2</course>
<desc>Speed 1.9 km/h Distance 39.67 km</desc>
<time>2010-06-13T09:25:58.82</time>
<name>9864</name>
</trkpt>
<trkpt lat="49.180238" lon="11.855735">
<ele>579.1</ele>
<speed>1.0</speed>
<course>29.2</course>
<desc>Speed 1.0 km/h Distance 39.67 km</desc>
<time>2010-06-13T09:25:59.82</time>
<name>9865</name>
</trkpt>
<trkpt lat="49.180238" lon="11.855735">
<ele>578.6</ele>
<speed>0.9</speed>
<course>270.0</course>
<desc>Speed 0.9 km/h Distance 39.67 km</desc>
<time>2010-06-13T09:26:00.83</time>
<name>9866</name>
</trkpt>
<trkpt lat="49.180238" lon="11.855732">
<ele>578.6</ele>
<speed>0.5</speed>
<course>90.0</course>
<desc>Speed 0.5 km/h Distance 39.68 km</desc>
<time>2010-06-13T09:26:01.83</time>
<name>9867</name>
</trkpt>
<trkpt lat="49.180238" lon="11.855738">
<ele>577.6</ele>
<speed>0.0</speed>
<course>90.0</course>
<desc>Speed 0.0 km/h Distance 39.68 km</desc>
<time>2010-06-13T09:26:02.82</time>
<name>9868</name>
</trkpt>
<trkpt lat="49.180238" lon="11.855743">
<ele>576.8</ele>
<speed>0.0</speed>
<course>33.7</course>
<desc>Speed 0.0 km/h Distance 39.68 km</desc>
<time>2010-06-13T09:26:03.83</time>
<name>9869</name>
</trkpt>
<trkpt lat="49.180242" lon="11.855747">
<ele>576.1</ele>
<speed>0.1</speed>
<course>90.0</course>
<desc>Speed 0.1 km/h Distance 39.68 km</desc>
<time>2010-06-13T09:26:04.82</time>
<name>9870</name>
</trkpt>
<trkpt lat="49.180242" lon="11.855748">
<ele>575.8</ele>
<speed>0.0</speed>
<course>270.0</course>
<desc>Speed 0.0 km/h Distance 39.68 km</desc>
<time>2010-06-13T09:26:05.84</time>
<name>9871</name>
</trkpt>
<trkpt lat="49.180242" lon="11.855745">
<ele>576.0</ele>
<speed>0.0</speed>
<course>213.7</course>
<desc>Speed 0.0 km/h Distance 39.68 km</desc>
<time>2010-06-13T09:26:06.83</time>
<name>9872</name>
</trkpt>
<trkpt lat="49.180238" lon="11.855742">
<ele>576.2</ele>
<speed>0.1</speed>
<course>270.0</course>
<desc>Speed 0.1 km/h Distance 39.68 km</desc>
<time>2010-06-13T09:26:07.83</time>
<name>9873</name>
</trkpt>
<trkpt lat="49.180238" lon="11.855738">
<ele>576.5</ele>
<speed>0.1</speed>
<course>270.0</course>
<desc>Speed 0.1 km/h Distance 39.68 km</desc>
<time>2010-06-13T09:26:08.84</time>
<name>9874</name>
</trkpt>
<trkpt lat="49.180238" lon="11.855735">
<ele>576.9</ele>
<speed>0.1</speed>
<course>231.9</course>
<desc>Speed 0.1 km/h Distance 39.68 km</desc>
<time>2010-06-13T09:26:09.82</time>
<name>9875</name>
</trkpt>
<trkpt lat="49.180237" lon="11.855732">
<ele>577.3</ele>
<speed>0.3</speed>
<course>270.0</course>
<desc>Speed 0.3 km/h Distance 39.68 km</desc>
<time>2010-06-13T09:26:10.82</time>
<name>9876</name>
</trkpt>
<trkpt lat="49.180237" lon="11.855728">
<ele>577.7</ele>
<speed>0.1</speed>
<course>270.0</course>
<desc>Speed 0.1 km/h Distance 39.68 km</desc>
<time>2010-06-13T09:26:11.83</time>
<name>9877</name>
</trkpt>
<trkpt lat="49.180237" lon="11.855727">
<ele>578.2</ele>
<speed>0.1</speed>
<course>231.9</course>
<desc>Speed 0.1 km/h Distance 39.68 km</desc>
<time>2010-06-13T09:26:12.82</time>
<name>9878</name>
</trkpt>
<trkpt lat="49.180235" lon="11.855723">
<ele>578.7</ele>
<speed>0.1</speed>
<course>270.0</course>
<desc>Speed 0.1 km/h Distance 39.68 km</desc>
<time>2010-06-13T09:26:13.82</time>
<name>9879</name>
</trkpt>
<trkpt lat="49.180235" lon="11.855720">
<ele>579.0</ele>
<speed>0.2</speed>
<course>270.0</course>
<desc>Speed 0.2 km/h Distance 39.68 km</desc>
<time>2010-06-13T09:26:14.84</time>
<name>9880</name>
</trkpt>
<trkpt lat="49.180235" lon="11.855718">
<ele>579.4</ele>
<speed>0.1</speed>
<course>270.0</course>
<desc>Speed 0.1 km/h Distance 39.68 km</desc>
<time>2010-06-13T09:26:15.81</time>
<name>9881</name>
</trkpt>
<trkpt lat="49.180235" lon="11.855718">
<ele>579.9</ele>
<speed>0.7</speed>
<course>90.0</course>
<desc>Speed 0.7 km/h Distance 39.68 km</desc>
<time>2010-06-13T09:26:16.84</time>
<name>9882</name>
</trkpt>
<trkpt lat="49.180235" lon="11.855722">
<ele>580.2</ele>
<speed>1.8</speed>
<course>167.4</course>
<desc>Speed 1.8 km/h Distance 39.68 km</desc>
<time>2010-06-13T09:26:17.84</time>
<name>9883</name>
</trkpt>
<trkpt lat="49.180233" lon="11.855723">
<ele>580.5</ele>
<speed>1.5</speed>
<course>175.6</course>
<desc>Speed 1.5 km/h Distance 39.68 km</desc>
<time>2010-06-13T09:26:18.83</time>
<name>9884</name>
</trkpt>
<trkpt lat="49.180223" lon="11.855723">
<ele>580.0</ele>
<speed>1.7</speed>
<course>167.4</course>
<desc>Speed 1.7 km/h Distance 39.68 km</desc>
<time>2010-06-13T09:26:19.87</time>
<name>9885</name>
</trkpt>
<trkpt lat="49.180222" lon="11.855723">
<ele>579.6</ele>
<speed>0.5</speed>
<course>90.0</course>
<desc>Speed 0.5 km/h Distance 39.68 km</desc>
<time>2010-06-13T09:26:20.84</time>
<name>9886</name>
</trkpt>
<trkpt lat="49.180222" lon="11.855733">
<ele>577.5</ele>
<speed>0.1</speed>
<course>69.1</course>
<desc>Speed 0.1 km/h Distance 39.68 km</desc>
<time>2010-06-13T09:26:21.82</time>
<name>9887</name>
</trkpt>
<trkpt lat="49.180223" lon="11.855740">
<ele>575.9</ele>
<speed>0.1</speed>
<course>90.0</course>
<desc>Speed 0.1 km/h Distance 39.68 km</desc>
<time>2010-06-13T09:26:22.83</time>
<name>9888</name>
</trkpt>
<trkpt lat="49.180223" lon="11.855747">
<ele>573.4</ele>
<speed>0.2</speed>
<course>117.4</course>
<desc>Speed 0.2 km/h Distance 39.68 km</desc>
<time>2010-06-13T09:26:23.84</time>
<name>9889</name>
</trkpt>
<trkpt lat="49.180222" lon="11.855752">
<ele>570.2</ele>
<speed>0.5</speed>
<course>51.9</course>
<desc>Speed 0.5 km/h Distance 39.68 km</desc>
<time>2010-06-13T09:26:24.81</time>
<name>9890</name>
</trkpt>
<trkpt lat="49.180223" lon="11.855755">
<ele>570.0</ele>
<speed>0.5</speed>
<course>67.8</course>
<desc>Speed 0.5 km/h Distance 39.68 km</desc>
<time>2010-06-13T09:26:25.83</time>
<name>9891</name>
</trkpt>
<trkpt lat="49.180230" lon="11.855780">
<ele>567.9</ele>
<speed>2.3</speed>
<course>58.6</course>
<desc>Speed 2.3 km/h Distance 39.69 km</desc>
<time>2010-06-13T09:26:26.83</time>
<name>9892</name>
</trkpt>
<trkpt lat="49.180233" lon="11.855788">
<ele>567.3</ele>
<speed>1.5</speed>
<course>51.9</course>
<desc>Speed 1.5 km/h Distance 39.69 km</desc>
<time>2010-06-13T09:26:27.83</time>
<name>9893</name>
</trkpt>
<trkpt lat="49.180237" lon="11.855795">
<ele>568.2</ele>
<speed>0.7</speed>
<course>47.1</course>
<desc>Speed 0.7 km/h Distance 39.69 km</desc>
<time>2010-06-13T09:26:28.82</time>
<name>9894</name>
</trkpt>
<trkpt lat="49.180242" lon="11.855803">
<ele>569.7</ele>
<speed>0.4</speed>
<course>51.9</course>
<desc>Speed 0.4 km/h Distance 39.69 km</desc>
<time>2010-06-13T09:26:29.82</time>
<name>9895</name>
</trkpt>
<trkpt lat="49.180245" lon="11.855810">
<ele>570.1</ele>
<speed>0.6</speed>
<course>56.7</course>
<desc>Speed 0.6 km/h Distance 39.69 km</desc>
<time>2010-06-13T09:26:30.83</time>
<name>9896</name>
</trkpt>
<trkpt lat="49.180250" lon="11.855822">
<ele>570.4</ele>
<speed>2.6</speed>
<course>246.4</course>
<desc>Speed 2.6 km/h Distance 39.69 km</desc>
<time>2010-06-13T09:26:31.82</time>
<name>9897</name>
</trkpt>
<trkpt lat="49.180247" lon="11.855810">
<ele>571.9</ele>
<speed>2.9</speed>
<course>270.0</course>
<desc>Speed 2.9 km/h Distance 39.69 km</desc>
<time>2010-06-13T09:26:32.83</time>
<name>9898</name>
</trkpt>
<trkpt lat="49.180247" lon="11.855800">
<ele>574.7</ele>
<speed>2.2</speed>
<course>68.4</course>
<desc>Speed 2.2 km/h Distance 39.69 km</desc>
<time>2010-06-13T09:26:33.83</time>
<name>9899</name>
</trkpt>
<trkpt lat="49.180248" lon="11.855807">
<ele>574.3</ele>
<speed>1.8</speed>
<course>69.1</course>
<desc>Speed 1.8 km/h Distance 39.69 km</desc>
<time>2010-06-13T09:26:34.83</time>
<name>9900</name>
</trkpt>
<trkpt lat="49.180250" lon="11.855813">
<ele>574.0</ele>
<speed>1.0</speed>
<course>53.0</course>
<desc>Speed 1.0 km/h Distance 39.69 km</desc>
<time>2010-06-13T09:26:35.82</time>
<name>9901</name>
</trkpt>
<trkpt lat="49.180253" lon="11.855820">
<ele>573.8</ele>
<speed>1.8</speed>
<course>53.0</course>
<desc>Speed 1.8 km/h Distance 39.69 km</desc>
<time>2010-06-13T09:26:36.83</time>
<name>9902</name>
</trkpt>
<trkpt lat="49.180253" lon="11.855820">
<ele>574.1</ele>
<speed>1.6</speed>
<course>53.0</course>
<desc>Speed 1.6 km/h Distance 39.69 km</desc>
<time>2010-06-13T09:26:37.81</time>
<name>9903</name>
</trkpt>
<trkpt lat="49.180253" lon="11.855820">
<ele>574.1</ele>
<speed>1.0</speed>
<course>243.0</course>
<desc>Speed 1.0 km/h Distance 39.69 km</desc>
<time>2010-06-13T09:26:38.83</time>
<name>9904</name>
</trkpt>
<trkpt lat="49.180248" lon="11.855805">
<ele>574.6</ele>
<speed>0.1</speed>
<course>224.3</course>
<desc>Speed 0.1 km/h Distance 39.69 km</desc>
<time>2010-06-13T09:26:39.82</time>
<name>9905</name>
</trkpt>
<trkpt lat="49.180238" lon="11.855790">
<ele>572.0</ele>
<speed>0.1</speed>
<course>236.7</course>
<desc>Speed 0.1 km/h Distance 39.69 km</desc>
<time>2010-06-13T09:26:40.83</time>
<name>9906</name>
</trkpt>
<trkpt lat="49.180233" lon="11.855778">
<ele>572.2</ele>
<speed>0.8</speed>
<course>62.6</course>
<desc>Speed 0.8 km/h Distance 39.70 km</desc>
<time>2010-06-13T09:26:41.85</time>
<name>9907</name>
</trkpt>
<trkpt lat="49.180235" lon="11.855783">
<ele>571.6</ele>
<speed>0.3</speed>
<course>62.6</course>
<desc>Speed 0.3 km/h Distance 39.70 km</desc>
<time>2010-06-13T09:26:42.84</time>
<name>9908</name>
</trkpt>
<trkpt lat="49.180235" lon="11.855785">
<ele>571.2</ele>
<speed>0.0</speed>
<course>51.9</course>
<desc>Speed 0.0 km/h Distance 39.70 km</desc>
<time>2010-06-13T09:26:43.82</time>
<name>9909</name>
</trkpt>
<trkpt lat="49.180237" lon="11.855788">
<ele>571.0</ele>
<speed>0.3</speed>
<course>90.0</course>
<desc>Speed 0.3 km/h Distance 39.70 km</desc>
<time>2010-06-13T09:26:44.83</time>
<name>9910</name>
</trkpt>
<trkpt lat="49.180237" lon="11.855792">
<ele>570.4</ele>
<speed>0.1</speed>
<course>209.2</course>
<desc>Speed 0.1 km/h Distance 39.70 km</desc>
<time>2010-06-13T09:26:45.83</time>
<name>9911</name>
</trkpt>
<trkpt lat="49.180235" lon="11.855790">
<ele>570.2</ele>
<speed>0.8</speed>
<course>209.2</course>
<desc>Speed 0.8 km/h Distance 39.70 km</desc>
<time>2010-06-13T09:26:46.84</time>
<name>9912</name>
</trkpt>
<trkpt lat="49.180235" lon="11.855788">
<ele>570.0</ele>
<speed>0.5</speed>
<course>51.9</course>
<desc>Speed 0.5 km/h Distance 39.70 km</desc>
<time>2010-06-13T09:26:47.83</time>
<name>9913</name>
</trkpt>
<trkpt lat="49.180237" lon="11.855792">
<ele>569.6</ele>
<speed>0.4</speed>
<course>90.0</course>
<desc>Speed 0.4 km/h Distance 39.70 km</desc>
<time>2010-06-13T09:26:48.84</time>
<name>9914</name>
</trkpt>
<trkpt lat="49.180237" lon="11.855797">
<ele>569.4</ele>
<speed>0.3</speed>
<course>29.2</course>
<desc>Speed 0.3 km/h Distance 39.70 km</desc>
<time>2010-06-13T09:26:49.82</time>
<name>9915</name>
</trkpt>
<trkpt lat="49.180238" lon="11.855798">
<ele>569.2</ele>
<speed>1.0</speed>
<course>90.0</course>
<desc>Speed 1.0 km/h Distance 39.70 km</desc>
<time>2010-06-13T09:26:50.83</time>
<name>9916</name>
</trkpt>
<trkpt lat="49.180238" lon="11.855807">
<ele>568.9</ele>
<speed>0.8</speed>
<course>53.0</course>
<desc>Speed 0.8 km/h Distance 39.70 km</desc>
<time>2010-06-13T09:26:51.83</time>
<name>9917</name>
</trkpt>
<trkpt lat="49.180242" lon="11.855813">
<ele>568.2</ele>
<speed>0.1</speed>
<course>243.0</course>
<desc>Speed 0.1 km/h Distance 39.70 km</desc>
<time>2010-06-13T09:26:52.83</time>
<name>9918</name>
</trkpt>
<trkpt lat="49.180238" lon="11.855803">
<ele>567.7</ele>
<speed>0.3</speed>
<course>257.7</course>
<desc>Speed 0.3 km/h Distance 39.70 km</desc>
<time>2010-06-13T09:26:53.82</time>
<name>9919</name>
</trkpt>
<trkpt lat="49.180237" lon="11.855792">
<ele>570.2</ele>
<speed>0.5</speed>
<course>220.9</course>
<desc>Speed 0.5 km/h Distance 39.70 km</desc>
<time>2010-06-13T09:26:54.82</time>
<name>9920</name>
</trkpt>
<trkpt lat="49.180232" lon="11.855785">
<ele>570.3</ele>
<speed>1.0</speed>
<course>270.0</course>
<desc>Speed 1.0 km/h Distance 39.70 km</desc>
<time>2010-06-13T09:26:55.84</time>
<name>9921</name>
</trkpt>
<trkpt lat="49.180232" lon="11.855783">
<ele>569.9</ele>
<speed>0.1</speed>
<course>231.9</course>
<desc>Speed 0.1 km/h Distance 39.70 km</desc>
<time>2010-06-13T09:26:56.82</time>
<name>9922</name>
</trkpt>
<trkpt lat="49.180228" lon="11.855777">
<ele>569.7</ele>
<speed>0.4</speed>
<course>69.1</course>
<desc>Speed 0.4 km/h Distance 39.70 km</desc>
<time>2010-06-13T09:26:57.83</time>
<name>9923</name>
</trkpt>
<trkpt lat="49.180230" lon="11.855783">
<ele>569.0</ele>
<speed>0.8</speed>
<course>243.0</course>
<desc>Speed 0.8 km/h Distance 39.70 km</desc>
<time>2010-06-13T09:26:58.81</time>
<name>9924</name>
</trkpt>
<trkpt lat="49.180227" lon="11.855773">
<ele>568.7</ele>
<speed>0.8</speed>
<course>290.9</course>
<desc>Speed 0.8 km/h Distance 39.70 km</desc>
<time>2010-06-13T09:26:59.83</time>
<name>9925</name>
</trkpt>
<trkpt lat="49.180228" lon="11.855767">
<ele>572.8</ele>
<speed>0.0</speed>
<course>347.4</course>
<desc>Speed 0.0 km/h Distance 39.70 km</desc>
<time>2010-06-13T09:27:00.83</time>
<name>9926</name>
</trkpt>
<trkpt lat="49.180232" lon="11.855765">
<ele>575.4</ele>
<speed>0.9</speed>
<course>240.3</course>
<desc>Speed 0.9 km/h Distance 39.70 km</desc>
<time>2010-06-13T09:27:01.83</time>
<name>9927</name>
</trkpt>
<trkpt lat="49.180227" lon="11.855752">
<ele>576.3</ele>
<speed>1.2</speed>
<course>279.6</course>
<desc>Speed 1.2 km/h Distance 39.71 km</desc>
<time>2010-06-13T09:27:02.82</time>
<name>9928</name>
</trkpt>
<trkpt lat="49.180228" lon="11.855737">
<ele>581.9</ele>
<speed>1.2</speed>
<course>233.9</course>
<desc>Speed 1.2 km/h Distance 39.71 km</desc>
<time>2010-06-13T09:27:03.83</time>
<name>9929</name>
</trkpt>
<trkpt lat="49.180227" lon="11.855733">
<ele>581.5</ele>
<speed>0.8</speed>
<course>270.0</course>
<desc>Speed 0.8 km/h Distance 39.71 km</desc>
<time>2010-06-13T09:27:04.81</time>
<name>9930</name>
</trkpt>
<trkpt lat="49.180227" lon="11.855732">
<ele>581.3</ele>
<speed>0.2</speed>
<course>238.6</course>
<desc>Speed 0.2 km/h Distance 39.71 km</desc>
<time>2010-06-13T09:27:05.82</time>
<name>9931</name>
</trkpt>
<trkpt lat="49.180223" lon="11.855723">
<ele>581.8</ele>
<speed>0.8</speed>
<course>51.9</course>
<desc>Speed 0.8 km/h Distance 39.71 km</desc>
<time>2010-06-13T09:27:06.83</time>
<name>9932</name>
</trkpt>
<trkpt lat="49.180225" lon="11.855727">
<ele>581.3</ele>
<speed>1.2</speed>
<course>270.0</course>
<desc>Speed 1.2 km/h Distance 39.71 km</desc>
<time>2010-06-13T09:27:07.82</time>
<name>9933</name>
</trkpt>
<trkpt lat="49.180225" lon="11.855725">
<ele>581.6</ele>
<speed>0.4</speed>
<course>69.1</course>
<desc>Speed 0.4 km/h Distance 39.71 km</desc>
<time>2010-06-13T09:27:08.82</time>
<name>9934</name>
</trkpt>
<trkpt lat="49.180228" lon="11.855738">
<ele>581.0</ele>
<speed>0.2</speed>
<course>270.0</course>
<desc>Speed 0.2 km/h Distance 39.71 km</desc>
<time>2010-06-13T09:27:09.81</time>
<name>9935</name>
</trkpt>
<trkpt lat="49.180228" lon="11.855737">
<ele>580.5</ele>
<speed>0.3</speed>
<course>69.1</course>
<desc>Speed 0.3 km/h Distance 39.71 km</desc>
<time>2010-06-13T09:27:10.83</time>
<name>9936</name>
</trkpt>
<trkpt lat="49.180230" lon="11.855743">
<ele>579.3</ele>
<speed>0.6</speed>
<course>167.4</course>
<desc>Speed 0.6 km/h Distance 39.71 km</desc>
<time>2010-06-13T09:27:11.82</time>
<name>9937</name>
</trkpt>
<trkpt lat="49.180228" lon="11.855743">
<ele>576.7</ele>
<speed>0.6</speed>
<course>270.0</course>
<desc>Speed 0.6 km/h Distance 39.71 km</desc>
<time>2010-06-13T09:27:12.82</time>
<name>9938</name>
</trkpt>
<trkpt lat="49.180228" lon="11.855742">
<ele>576.3</ele>
<speed>0.6</speed>
<course>233.0</course>
<desc>Speed 0.6 km/h Distance 39.71 km</desc>
<time>2010-06-13T09:27:13.82</time>
<name>9939</name>
</trkpt>
<trkpt lat="49.180225" lon="11.855735">
<ele>577.1</ele>
<speed>0.1</speed>
<course>322.8</course>
<desc>Speed 0.1 km/h Distance 39.71 km</desc>
<time>2010-06-13T09:27:14.82</time>
<name>9940</name>
</trkpt>
<trkpt lat="49.180227" lon="11.855733">
<ele>577.6</ele>
<speed>0.5</speed>
<course>322.8</course>
<desc>Speed 0.5 km/h Distance 39.71 km</desc>
<time>2010-06-13T09:27:15.82</time>
<name>9941</name>
</trkpt>
<trkpt lat="49.180228" lon="11.855732">
<ele>577.9</ele>
<speed>0.7</speed>
<course>0.0</course>
<desc>Speed 0.7 km/h Distance 39.71 km</desc>
<time>2010-06-13T09:27:16.84</time>
<name>9942</name>
</trkpt>
<trkpt lat="49.180232" lon="11.855732">
<ele>577.9</ele>
<speed>1.0</speed>
<course>337.8</course>
<desc>Speed 1.0 km/h Distance 39.71 km</desc>
<time>2010-06-13T09:27:17.83</time>
<name>9943</name>
</trkpt>
<trkpt lat="49.180237" lon="11.855728">
<ele>576.9</ele>
<speed>0.9</speed>
<course>12.6</course>
<desc>Speed 0.9 km/h Distance 39.71 km</desc>
<time>2010-06-13T09:27:18.82</time>
<name>9944</name>
</trkpt>
<trkpt lat="49.180238" lon="11.855728">
<ele>576.0</ele>
<speed>0.8</speed>
<course>90.0</course>
<desc>Speed 0.8 km/h Distance 39.71 km</desc>
<time>2010-06-13T09:27:19.83</time>
<name>9945</name>
</trkpt>
<trkpt lat="49.180238" lon="11.855732">
<ele>575.5</ele>
<speed>0.5</speed>
<course>18.8</course>
<desc>Speed 0.5 km/h Distance 39.71 km</desc>
<time>2010-06-13T09:27:20.82</time>
<name>9946</name>
</trkpt>
<trkpt lat="49.180242" lon="11.855733">
<ele>575.9</ele>
<speed>0.2</speed>
<course>90.0</course>
<desc>Speed 0.2 km/h Distance 39.71 km</desc>
<time>2010-06-13T09:27:21.82</time>
<name>9947</name>
</trkpt>
<trkpt lat="49.180242" lon="11.855738">
<ele>576.3</ele>
<speed>0.2</speed>
<course>146.3</course>
<desc>Speed 0.2 km/h Distance 39.71 km</desc>
<time>2010-06-13T09:27:22.83</time>
<name>9948</name>
</trkpt>
<trkpt lat="49.180238" lon="11.855742">
<ele>576.6</ele>
<speed>0.2</speed>
<course>90.0</course>
<desc>Speed 0.2 km/h Distance 39.71 km</desc>
<time>2010-06-13T09:27:23.82</time>
<name>9949</name>
</trkpt>
<trkpt lat="49.180238" lon="11.855743">
<ele>576.8</ele>
<speed>0.1</speed>
<course>90.0</course>
<desc>Speed 0.1 km/h Distance 39.71 km</desc>
<time>2010-06-13T09:27:24.81</time>
<name>9950</name>
</trkpt>
<trkpt lat="49.180238" lon="11.855747">
<ele>577.1</ele>
<speed>0.1</speed>
<course>150.8</course>
<desc>Speed 0.1 km/h Distance 39.71 km</desc>
<time>2010-06-13T09:27:25.82</time>
<name>9951</name>
</trkpt>
<trkpt lat="49.180237" lon="11.855748">
<ele>577.4</ele>
<speed>0.1</speed>
<course>150.8</course>
<desc>Speed 0.1 km/h Distance 39.71 km</desc>
<time>2010-06-13T09:27:26.82</time>
<name>9952</name>
</trkpt>
<trkpt lat="49.180237" lon="11.855750">
<ele>577.7</ele>
<speed>0.1</speed>
<course>150.8</course>
<desc>Speed 0.1 km/h Distance 39.72 km</desc>
<time>2010-06-13T09:27:27.83</time>
<name>9953</name>
</trkpt>
<trkpt lat="49.180237" lon="11.855752">
<ele>577.9</ele>
<speed>0.0</speed>
<course>150.8</course>
<desc>Speed 0.0 km/h Distance 39.72 km</desc>
<time>2010-06-13T09:27:28.82</time>
<name>9954</name>
</trkpt>
<trkpt lat="49.180237" lon="11.855752">
<ele>578.2</ele>
<speed>0.0</speed>
<course>150.8</course>
<desc>Speed 0.0 km/h Distance 39.72 km</desc>
<time>2010-06-13T09:27:29.81</time>
<name>9955</name>
</trkpt>
<trkpt lat="49.180237" lon="11.855752">
<ele>578.4</ele>
<speed>0.0</speed>
<course>150.8</course>
<desc>Speed 0.0 km/h Distance 39.72 km</desc>
<time>2010-06-13T09:27:30.83</time>
<name>9956</name>
</trkpt>
<trkpt lat="49.180237" lon="11.855753">
<ele>578.7</ele>
<speed>0.1</speed>
<course>12.6</course>
<desc>Speed 0.1 km/h Distance 39.72 km</desc>
<time>2010-06-13T09:27:31.82</time>
<name>9957</name>
</trkpt>
<trkpt lat="49.180238" lon="11.855753">
<ele>579.0</ele>
<speed>0.0</speed>
<course>90.0</course>
<desc>Speed 0.0 km/h Distance 39.72 km</desc>
<time>2010-06-13T09:27:32.82</time>
<name>9958</name>
</trkpt>
<trkpt lat="49.180238" lon="11.855755">
<ele>579.2</ele>
<speed>0.0</speed>
<course>90.0</course>
<desc>Speed 0.0 km/h Distance 39.72 km</desc>
<time>2010-06-13T09:27:33.83</time>
<name>9959</name>
</trkpt>
<trkpt lat="49.180238" lon="11.855755">
<ele>579.3</ele>
<speed>0.4</speed>
<course>150.8</course>
<desc>Speed 0.4 km/h Distance 39.72 km</desc>
<time>2010-06-13T09:27:34.82</time>
<name>9960</name>
</trkpt>
<trkpt lat="49.180237" lon="11.855757">
<ele>579.4</ele>
<speed>0.2</speed>
<course>150.8</course>
<desc>Speed 0.2 km/h Distance 39.72 km</desc>
<time>2010-06-13T09:27:35.81</time>
<name>9961</name>
</trkpt>
<trkpt lat="49.180237" lon="11.855758">
<ele>579.4</ele>
<speed>0.0</speed>
<course>150.8</course>
<desc>Speed 0.0 km/h Distance 39.72 km</desc>
<time>2010-06-13T09:27:36.81</time>
<name>9962</name>
</trkpt>
<trkpt lat="49.180237" lon="11.855760">
<ele>579.3</ele>
<speed>0.1</speed>
<course>150.8</course>
<desc>Speed 0.1 km/h Distance 39.72 km</desc>
<time>2010-06-13T09:27:37.81</time>
<name>9963</name>
</trkpt>
<trkpt lat="49.180237" lon="11.855760">
<ele>579.2</ele>
<speed>0.1</speed>
<course>90.0</course>
<desc>Speed 0.1 km/h Distance 39.72 km</desc>
<time>2010-06-13T09:27:38.81</time>
<name>9964</name>
</trkpt>
<trkpt lat="49.180237" lon="11.855763">
<ele>579.0</ele>
<speed>0.1</speed>
<course>90.0</course>
<desc>Speed 0.1 km/h Distance 39.72 km</desc>
<time>2010-06-13T09:27:39.83</time>
<name>9965</name>
</trkpt>
<trkpt lat="49.180237" lon="11.855765">
<ele>578.9</ele>
<speed>0.1</speed>
<course>128.1</course>
<desc>Speed 0.1 km/h Distance 39.72 km</desc>
<time>2010-06-13T09:27:40.82</time>
<name>9966</name>
</trkpt>
<trkpt lat="49.180235" lon="11.855768">
<ele>578.8</ele>
<speed>1.0</speed>
<course>128.1</course>
<desc>Speed 1.0 km/h Distance 39.72 km</desc>
<time>2010-06-13T09:27:41.84</time>
<name>9967</name>
</trkpt>
<trkpt lat="49.180233" lon="11.855772">
<ele>578.8</ele>
<speed>0.9</speed>
<course>231.9</course>
<desc>Speed 0.9 km/h Distance 39.72 km</desc>
<time>2010-06-13T09:27:42.83</time>
<name>9968</name>
</trkpt>
<trkpt lat="49.180232" lon="11.855768">
<ele>579.1</ele>
<speed>0.6</speed>
<course>90.0</course>
<desc>Speed 0.6 km/h Distance 39.72 km</desc>
<time>2010-06-13T09:27:43.82</time>
<name>9969</name>
</trkpt>
<trkpt lat="49.180232" lon="11.855773">
<ele>578.5</ele>
<speed>0.8</speed>
<course>238.2</course>
<desc>Speed 0.8 km/h Distance 39.72 km</desc>
<time>2010-06-13T09:27:44.82</time>
<name>9970</name>
</trkpt>
<trkpt lat="49.180228" lon="11.855765">
<ele>579.1</ele>
<speed>1.0</speed>
<course>249.1</course>
<desc>Speed 1.0 km/h Distance 39.72 km</desc>
<time>2010-06-13T09:27:45.84</time>
<name>9971</name>
</trkpt>
<trkpt lat="49.180225" lon="11.855752">
<ele>580.3</ele>
<speed>1.5</speed>
<course>249.1</course>
<desc>Speed 1.5 km/h Distance 39.72 km</desc>
<time>2010-06-13T09:27:46.82</time>
<name>9972</name>
</trkpt>
<trkpt lat="49.180223" lon="11.855745">
<ele>580.8</ele>
<speed>0.7</speed>
<course>231.9</course>
<desc>Speed 0.7 km/h Distance 39.72 km</desc>
<time>2010-06-13T09:27:47.82</time>
<name>9973</name>
</trkpt>
<trkpt lat="49.180222" lon="11.855742">
<ele>581.1</ele>
<speed>0.1</speed>
<course>90.0</course>
<desc>Speed 0.1 km/h Distance 39.72 km</desc>
<time>2010-06-13T09:27:48.83</time>
<name>9974</name>
</trkpt>
<trkpt lat="49.180222" lon="11.855745">
<ele>580.6</ele>
<speed>0.2</speed>
<course>90.0</course>
<desc>Speed 0.2 km/h Distance 39.72 km</desc>
<time>2010-06-13T09:27:49.82</time>
<name>9975</name>
</trkpt>
<trkpt lat="49.180222" lon="11.855747">
<ele>580.4</ele>
<speed>0.5</speed>
<course>75.6</course>
<desc>Speed 0.5 km/h Distance 39.72 km</desc>
<time>2010-06-13T09:27:50.82</time>
<name>9976</name>
</trkpt>
<trkpt lat="49.180223" lon="11.855757">
<ele>578.9</ele>
<speed>0.0</speed>
<course>90.0</course>
<desc>Speed 0.0 km/h Distance 39.72 km</desc>
<time>2010-06-13T09:27:51.83</time>
<name>9977</name>
</trkpt>
<trkpt lat="49.180223" lon="11.855758">
<ele>578.4</ele>
<speed>0.3</speed>
<course>107.1</course>
<desc>Speed 0.3 km/h Distance 39.72 km</desc>
<time>2010-06-13T09:27:52.81</time>
<name>9978</name>
</trkpt>
<trkpt lat="49.180222" lon="11.855767">
<ele>573.9</ele>
<speed>0.4</speed>
<course>37.2</course>
<desc>Speed 0.4 km/h Distance 39.72 km</desc>
<time>2010-06-13T09:27:53.82</time>
<name>9979</name>
</trkpt>
<trkpt lat="49.180223" lon="11.855768">
<ele>574.4</ele>
<speed>0.8</speed>
<course>117.0</course>
<desc>Speed 0.8 km/h Distance 39.72 km</desc>
<time>2010-06-13T09:27:54.82</time>
<name>9980</name>
</trkpt>
<trkpt lat="49.180220" lon="11.855778">
<ele>569.8</ele>
<speed>0.9</speed>
<course>242.6</course>
<desc>Speed 0.9 km/h Distance 39.72 km</desc>
<time>2010-06-13T09:27:55.82</time>
<name>9981</name>
</trkpt>
<trkpt lat="49.180218" lon="11.855773">
<ele>568.9</ele>
<speed>0.5</speed>
<course>270.0</course>
<desc>Speed 0.5 km/h Distance 39.72 km</desc>
<time>2010-06-13T09:27:56.83</time>
<name>9982</name>
</trkpt>
<trkpt lat="49.180218" lon="11.855770">
<ele>569.7</ele>
<speed>0.6</speed>
<course>255.6</course>
<desc>Speed 0.6 km/h Distance 39.72 km</desc>
<time>2010-06-13T09:27:57.83</time>
<name>9983</name>
</trkpt>
<trkpt lat="49.180217" lon="11.855760">
<ele>570.6</ele>
<speed>0.4</speed>
<course>255.6</course>
<desc>Speed 0.4 km/h Distance 39.72 km</desc>
<time>2010-06-13T09:27:58.82</time>
<name>9984</name>
</trkpt>
<trkpt lat="49.180215" lon="11.855750">
<ele>570.8</ele>
<speed>0.5</speed>
<course>232.4</course>
<desc>Speed 0.5 km/h Distance 39.73 km</desc>
<time>2010-06-13T09:27:59.81</time>
<name>9985</name>
</trkpt>
<trkpt lat="49.180210" lon="11.855740">
<ele>571.3</ele>
<speed>0.2</speed>
<course>257.7</course>
<desc>Speed 0.2 km/h Distance 39.73 km</desc>
<time>2010-06-13T09:28:00.82</time>
<name>9986</name>
</trkpt>
<trkpt lat="49.180208" lon="11.855728">
<ele>571.7</ele>
<speed>0.4</speed>
<course>243.4</course>
<desc>Speed 0.4 km/h Distance 39.73 km</desc>
<time>2010-06-13T09:28:01.81</time>
<name>9987</name>
</trkpt>
<trkpt lat="49.180207" lon="11.855723">
<ele>571.8</ele>
<speed>0.1</speed>
<course>337.0</course>
<desc>Speed 0.1 km/h Distance 39.73 km</desc>
<time>2010-06-13T09:28:02.84</time>
<name>9988</name>
</trkpt>
<trkpt lat="49.180210" lon="11.855722">
<ele>573.9</ele>
<speed>0.2</speed>
<course>167.4</course>
<desc>Speed 0.2 km/h Distance 39.73 km</desc>
<time>2010-06-13T09:28:03.80</time>
<name>9989</name>
</trkpt>
<trkpt lat="49.180208" lon="11.855722">
<ele>573.4</ele>
<speed>0.2</speed>
<course>29.2</course>
<desc>Speed 0.2 km/h Distance 39.73 km</desc>
<time>2010-06-13T09:28:04.83</time>
<name>9990</name>
</trkpt>
<trkpt lat="49.180210" lon="11.855723">
<ele>574.6</ele>
<speed>0.1</speed>
<course>90.0</course>
<desc>Speed 0.1 km/h Distance 39.73 km</desc>
<time>2010-06-13T09:28:05.83</time>
<name>9991</name>
</trkpt>
<trkpt lat="49.180210" lon="11.855725">
<ele>574.2</ele>
<speed>0.4</speed>
<course>58.6</course>
<desc>Speed 0.4 km/h Distance 39.73 km</desc>
<time>2010-06-13T09:28:06.84</time>
<name>9992</name>
</trkpt>
<trkpt lat="49.180213" lon="11.855733">
<ele>573.6</ele>
<speed>0.4</speed>
<course>157.0</course>
<desc>Speed 0.4 km/h Distance 39.73 km</desc>
<time>2010-06-13T09:28:07.82</time>
<name>9993</name>
</trkpt>
<trkpt lat="49.180210" lon="11.855735">
<ele>572.1</ele>
<speed>0.4</speed>
<course>90.0</course>
<desc>Speed 0.4 km/h Distance 39.73 km</desc>
<time>2010-06-13T09:28:08.82</time>
<name>9994</name>
</trkpt>
<trkpt lat="49.180210" lon="11.855743">
<ele>569.1</ele>
<speed>0.3</speed>
<course>71.3</course>
<desc>Speed 0.3 km/h Distance 39.73 km</desc>
<time>2010-06-13T09:28:09.83</time>
<name>9995</name>
</trkpt>
<trkpt lat="49.180213" lon="11.855758">
<ele>568.2</ele>
<speed>0.6</speed>
<course>90.0</course>
<desc>Speed 0.6 km/h Distance 39.73 km</desc>
<time>2010-06-13T09:28:10.82</time>
<name>9996</name>
</trkpt>
<trkpt lat="49.180213" lon="11.855763">
<ele>566.6</ele>
<speed>0.2</speed>
<course>51.9</course>
<desc>Speed 0.2 km/h Distance 39.73 km</desc>
<time>2010-06-13T09:28:11.81</time>
<name>9997</name>
</trkpt>
<trkpt lat="49.180215" lon="11.855767">
<ele>567.6</ele>
<speed>0.5</speed>
<course>255.6</course>
<desc>Speed 0.5 km/h Distance 39.73 km</desc>
<time>2010-06-13T09:28:12.81</time>
<name>9998</name>
</trkpt>
<trkpt lat="49.180213" lon="11.855757">
<ele>570.0</ele>
<speed>0.1</speed>
<course>270.0</course>
<desc>Speed 0.1 km/h Distance 39.73 km</desc>
<time>2010-06-13T09:28:13.81</time>
<name>9999</name>
</trkpt>
<trkpt lat="49.180213" lon="11.855752">
<ele>572.2</ele>
<speed>0.1</speed>
<course>12.6</course>
<desc>Speed 0.1 km/h Distance 39.73 km</desc>
<time>2010-06-13T09:28:14.83</time>
<name>10000</name>
</trkpt>
<trkpt lat="49.180215" lon="11.855752">
<ele>573.9</ele>
<speed>0.3</speed>
<course>347.4</course>
<desc>Speed 0.3 km/h Distance 39.73 km</desc>
<time>2010-06-13T09:28:15.82</time>
<name>10001</name>
</trkpt>
<trkpt lat="49.180217" lon="11.855750">
<ele>575.2</ele>
<speed>0.3</speed>
<course>270.0</course>
<desc>Speed 0.3 km/h Distance 39.73 km</desc>
<time>2010-06-13T09:28:16.83</time>
<name>10002</name>
</trkpt>
<trkpt lat="49.180217" lon="11.855740">
<ele>578.5</ele>
<speed>0.1</speed>
<course>330.8</course>
<desc>Speed 0.1 km/h Distance 39.73 km</desc>
<time>2010-06-13T09:28:17.81</time>
<name>10003</name>
</trkpt>
<trkpt lat="49.180218" lon="11.855738">
<ele>580.8</ele>
<speed>0.1</speed>
<course>90.0</course>
<desc>Speed 0.1 km/h Distance 39.73 km</desc>
<time>2010-06-13T09:28:18.82</time>
<name>10004</name>
</trkpt>
<trkpt lat="49.180218" lon="11.855742">
<ele>580.2</ele>
<speed>0.8</speed>
<course>22.2</course>
<desc>Speed 0.8 km/h Distance 39.73 km</desc>
<time>2010-06-13T09:28:19.84</time>
<name>10005</name>
</trkpt>
<trkpt lat="49.180223" lon="11.855745">
<ele>583.3</ele>
<speed>0.6</speed>
<course>90.0</course>
<desc>Speed 0.6 km/h Distance 39.74 km</desc>
<time>2010-06-13T09:28:20.82</time>
<name>10006</name>
</trkpt>
<trkpt lat="49.180223" lon="11.855747">
<ele>582.9</ele>
<speed>0.2</speed>
<course>69.1</course>
<desc>Speed 0.2 km/h Distance 39.74 km</desc>
<time>2010-06-13T09:28:21.82</time>
<name>10007</name>
</trkpt>
<trkpt lat="49.180227" lon="11.855760">
<ele>581.8</ele>
<speed>0.2</speed>
<course>53.0</course>
<desc>Speed 0.2 km/h Distance 39.74 km</desc>
<time>2010-06-13T09:28:22.83</time>
<name>10008</name>
</trkpt>
<trkpt lat="49.180230" lon="11.855767">
<ele>581.7</ele>
<speed>0.1</speed>
<course>90.0</course>
<desc>Speed 0.1 km/h Distance 39.74 km</desc>
<time>2010-06-13T09:28:23.82</time>
<name>10009</name>
</trkpt>
<trkpt lat="49.180230" lon="11.855772">
<ele>579.8</ele>
<speed>0.2</speed>
<course>90.0</course>
<desc>Speed 0.2 km/h Distance 39.74 km</desc>
<time>2010-06-13T09:28:24.81</time>
<name>10010</name>
</trkpt>
<trkpt lat="49.180230" lon="11.855775">
<ele>579.1</ele>
<speed>0.1</speed>
<course>90.0</course>
<desc>Speed 0.1 km/h Distance 39.74 km</desc>
<time>2010-06-13T09:28:25.80</time>
<name>10011</name>
</trkpt>
<trkpt lat="49.180230" lon="11.855777">
<ele>579.2</ele>
<speed>0.3</speed>
<course>0.0</course>
<desc>Speed 0.3 km/h Distance 39.74 km</desc>
<time>2010-06-13T09:28:26.82</time>
<name>10012</name>
</trkpt>
<trkpt lat="49.180235" lon="11.855777">
<ele>582.8</ele>
<speed>0.5</speed>
<course>180.0</course>
<desc>Speed 0.5 km/h Distance 39.74 km</desc>
<time>2010-06-13T09:28:27.81</time>
<name>10013</name>
</trkpt>
<trkpt lat="49.180233" lon="11.855777">
<ele>581.9</ele>
<speed>0.2</speed>
<course>209.2</course>
<desc>Speed 0.2 km/h Distance 39.74 km</desc>
<time>2010-06-13T09:28:28.82</time>
<name>10014</name>
</trkpt>
<trkpt lat="49.180232" lon="11.855775">
<ele>581.4</ele>
<speed>0.3</speed>
<course>308.1</course>
<desc>Speed 0.3 km/h Distance 39.74 km</desc>
<time>2010-06-13T09:28:29.81</time>
<name>10015</name>
</trkpt>
<trkpt lat="49.180233" lon="11.855772">
<ele>583.7</ele>
<speed>0.3</speed>
<course>270.0</course>
<desc>Speed 0.3 km/h Distance 39.74 km</desc>
<time>2010-06-13T09:28:30.81</time>
<name>10016</name>
</trkpt>
<trkpt lat="49.180233" lon="11.855770">
<ele>585.0</ele>
<speed>0.2</speed>
<course>270.0</course>
<desc>Speed 0.2 km/h Distance 39.74 km</desc>
<time>2010-06-13T09:28:31.83</time>
<name>10017</name>
</trkpt>
<trkpt lat="49.180233" lon="11.855770">
<ele>584.2</ele>
<speed>0.3</speed>
<course>167.4</course>
<desc>Speed 0.3 km/h Distance 39.74 km</desc>
<time>2010-06-13T09:28:32.82</time>
<name>10018</name>
</trkpt>
<trkpt lat="49.180232" lon="11.855770">
<ele>583.3</ele>
<speed>0.2</speed>
<course>167.4</course>
<desc>Speed 0.2 km/h Distance 39.74 km</desc>
<time>2010-06-13T09:28:33.82</time>
<name>10019</name>
</trkpt>
<trkpt lat="49.180230" lon="11.855770">
<ele>582.2</ele>
<speed>0.3</speed>
<course>90.0</course>
<desc>Speed 0.3 km/h Distance 39.74 km</desc>
<time>2010-06-13T09:28:34.81</time>
<name>10020</name>
</trkpt>
<trkpt lat="49.180230" lon="11.855775">
<ele>580.4</ele>
<speed>0.3</speed>
<course>213.2</course>
<desc>Speed 0.3 km/h Distance 39.74 km</desc>
<time>2010-06-13T09:28:35.82</time>
<name>10021</name>
</trkpt>
<trkpt lat="49.180225" lon="11.855770">
<ele>578.6</ele>
<speed>0.8</speed>
<course>117.4</course>
<desc>Speed 0.8 km/h Distance 39.74 km</desc>
<time>2010-06-13T09:28:36.81</time>
<name>10022</name>
</trkpt>
<trkpt lat="49.180223" lon="11.855775">
<ele>575.6</ele>
<speed>0.2</speed>
<course>69.1</course>
<desc>Speed 0.2 km/h Distance 39.74 km</desc>
<time>2010-06-13T09:28:37.83</time>
<name>10023</name>
</trkpt>
<trkpt lat="49.180225" lon="11.855782">
<ele>573.6</ele>
<speed>0.9</speed>
<course>90.0</course>
<desc>Speed 0.9 km/h Distance 39.74 km</desc>
<time>2010-06-13T09:28:38.83</time>
<name>10024</name>
</trkpt>
<trkpt lat="49.180225" lon="11.855787">
<ele>572.1</ele>
<speed>0.6</speed>
<course>117.4</course>
<desc>Speed 0.6 km/h Distance 39.74 km</desc>
<time>2010-06-13T09:28:39.81</time>
<name>10025</name>
</trkpt>
<trkpt lat="49.180223" lon="11.855792">
<ele>569.2</ele>
<speed>0.6</speed>
<course>90.0</course>
<desc>Speed 0.6 km/h Distance 39.74 km</desc>
<time>2010-06-13T09:28:40.83</time>
<name>10026</name>
</trkpt>
<trkpt lat="49.180223" lon="11.855798">
<ele>567.2</ele>
<speed>0.3</speed>
<course>69.1</course>
<desc>Speed 0.3 km/h Distance 39.74 km</desc>
<time>2010-06-13T09:28:41.82</time>
<name>10027</name>
</trkpt>
<trkpt lat="49.180227" lon="11.855812">
<ele>566.7</ele>
<speed>1.0</speed>
<course>66.4</course>
<desc>Speed 1.0 km/h Distance 39.74 km</desc>
<time>2010-06-13T09:28:42.81</time>
<name>10028</name>
</trkpt>
<trkpt lat="49.180233" lon="11.855835">
<ele>563.9</ele>
<speed>2.8</speed>
<course>146.3</course>
<desc>Speed 2.8 km/h Distance 39.75 km</desc>
<time>2010-06-13T09:28:43.86</time>
<name>10029</name>
</trkpt>
<trkpt lat="49.180230" lon="11.855838">
<ele>560.1</ele>
<speed>1.5</speed>
<course>180.0</course>
<desc>Speed 1.5 km/h Distance 39.75 km</desc>
<time>2010-06-13T09:28:44.82</time>
<name>10030</name>
</trkpt>
<trkpt lat="49.180225" lon="11.855838">
<ele>556.2</ele>
<speed>0.3</speed>
<course>224.5</course>
<desc>Speed 0.3 km/h Distance 39.75 km</desc>
<time>2010-06-13T09:28:45.82</time>
<name>10031</name>
</trkpt>
<trkpt lat="49.180215" lon="11.855823">
<ele>553.6</ele>
<speed>1.2</speed>
<course>212.6</course>
<desc>Speed 1.2 km/h Distance 39.75 km</desc>
<time>2010-06-13T09:28:46.82</time>
<name>10032</name>
</trkpt>
<trkpt lat="49.180208" lon="11.855817">
<ele>550.5</ele>
<speed>1.8</speed>
<course>224.5</course>
<desc>Speed 1.8 km/h Distance 39.75 km</desc>
<time>2010-06-13T09:28:47.81</time>
<name>10033</name>
</trkpt>
<trkpt lat="49.180205" lon="11.855812">
<ele>549.5</ele>
<speed>1.1</speed>
<course>217.2</course>
<desc>Speed 1.1 km/h Distance 39.75 km</desc>
<time>2010-06-13T09:28:48.82</time>
<name>10034</name>
</trkpt>
<trkpt lat="49.180203" lon="11.855810">
<ele>548.5</ele>
<speed>0.3</speed>
<course>167.4</course>
<desc>Speed 0.3 km/h Distance 39.75 km</desc>
<time>2010-06-13T09:28:49.80</time>
<name>10035</name>
</trkpt>
<trkpt lat="49.180202" lon="11.855810">
<ele>546.9</ele>
<speed>0.6</speed>
<course>243.0</course>
<desc>Speed 0.6 km/h Distance 39.75 km</desc>
<time>2010-06-13T09:28:50.81</time>
<name>10036</name>
</trkpt>
<trkpt lat="49.180198" lon="11.855800">
<ele>547.3</ele>
<speed>1.7</speed>
<course>238.6</course>
<desc>Speed 1.7 km/h Distance 39.75 km</desc>
<time>2010-06-13T09:28:51.83</time>
<name>10037</name>
</trkpt>
<trkpt lat="49.180195" lon="11.855792">
<ele>546.8</ele>
<speed>2.0</speed>
<course>238.6</course>
<desc>Speed 2.0 km/h Distance 39.75 km</desc>
<time>2010-06-13T09:28:52.81</time>
<name>10038</name>
</trkpt>
<trkpt lat="49.180195" lon="11.855792">
<ele>547.5</ele>
<speed>1.7</speed>
<course>0.0</course>
<desc>Speed 1.7 km/h Distance 39.75 km</desc>
<time>2010-06-13T09:28:53.81</time>
<name>10039</name>
</trkpt>
<trkpt lat="49.180198" lon="11.855792">
<ele>549.0</ele>
<speed>1.1</speed>
<course>270.0</course>
<desc>Speed 1.1 km/h Distance 39.75 km</desc>
<time>2010-06-13T09:28:54.86</time>
<name>10040</name>
</trkpt>
<trkpt lat="49.180198" lon="11.855790">
<ele>550.1</ele>
<speed>0.5</speed>
<course>37.2</course>
<desc>Speed 0.5 km/h Distance 39.75 km</desc>
<time>2010-06-13T09:28:55.80</time>
<name>10041</name>
</trkpt>
<trkpt lat="49.180200" lon="11.855792">
<ele>551.3</ele>
<speed>0.0</speed>
<course>12.6</course>
<desc>Speed 0.0 km/h Distance 39.75 km</desc>
<time>2010-06-13T09:28:56.82</time>
<name>10042</name>
</trkpt>
<trkpt lat="49.180202" lon="11.855792">
<ele>552.0</ele>
<speed>0.4</speed>
<course>231.9</course>
<desc>Speed 0.4 km/h Distance 39.75 km</desc>
<time>2010-06-13T09:28:57.83</time>
<name>10043</name>
</trkpt>
<trkpt lat="49.180200" lon="11.855788">
<ele>551.9</ele>
<speed>0.6</speed>
<course>80.4</course>
<desc>Speed 0.6 km/h Distance 39.75 km</desc>
<time>2010-06-13T09:28:58.81</time>
<name>10044</name>
</trkpt>
<trkpt lat="49.180202" lon="11.855803">
<ele>548.9</ele>
<speed>0.8</speed>
<course>270.0</course>
<desc>Speed 0.8 km/h Distance 39.75 km</desc>
<time>2010-06-13T09:28:59.82</time>
<name>10045</name>
</trkpt>
<trkpt lat="49.180202" lon="11.855797">
<ele>551.3</ele>
<speed>1.3</speed>
<course>242.6</course>
<desc>Speed 1.3 km/h Distance 39.75 km</desc>
<time>2010-06-13T09:29:00.80</time>
<name>10046</name>
</trkpt>
<trkpt lat="49.180200" lon="11.855792">
<ele>554.5</ele>
<speed>0.2</speed>
<course>212.9</course>
<desc>Speed 0.2 km/h Distance 39.75 km</desc>
<time>2010-06-13T09:29:01.83</time>
<name>10047</name>
</trkpt>
<trkpt lat="49.180192" lon="11.855783">
<ele>555.2</ele>
<speed>1.3</speed>
<course>270.0</course>
<desc>Speed 1.3 km/h Distance 39.76 km</desc>
<time>2010-06-13T09:29:02.83</time>
<name>10048</name>
</trkpt>
<trkpt lat="49.180192" lon="11.855775">
<ele>556.9</ele>
<speed>0.4</speed>
<course>255.6</course>
<desc>Speed 0.4 km/h Distance 39.76 km</desc>
<time>2010-06-13T09:29:03.82</time>
<name>10049</name>
</trkpt>
<trkpt lat="49.180190" lon="11.855765">
<ele>557.0</ele>
<speed>1.0</speed>
<course>240.1</course>
<desc>Speed 1.0 km/h Distance 39.76 km</desc>
<time>2010-06-13T09:29:04.82</time>
<name>10050</name>
</trkpt>
<trkpt lat="49.180185" lon="11.855752">
<ele>559.1</ele>
<speed>1.5</speed>
<course>270.0</course>
<desc>Speed 1.5 km/h Distance 39.76 km</desc>
<time>2010-06-13T09:29:05.81</time>
<name>10051</name>
</trkpt>
<trkpt lat="49.180185" lon="11.855738">
<ele>559.7</ele>
<speed>2.5</speed>
<course>264.5</course>
<desc>Speed 2.5 km/h Distance 39.76 km</desc>
<time>2010-06-13T09:29:06.83</time>
<name>10052</name>
</trkpt>
<trkpt lat="49.180183" lon="11.855712">
<ele>560.4</ele>
<speed>3.1</speed>
<course>263.3</course>
<desc>Speed 3.1 km/h Distance 39.76 km</desc>
<time>2010-06-13T09:29:07.81</time>
<name>10053</name>
</trkpt>
<trkpt lat="49.180182" lon="11.855690">
<ele>562.8</ele>
<speed>4.9</speed>
<course>279.6</course>
<desc>Speed 4.9 km/h Distance 39.76 km</desc>
<time>2010-06-13T09:29:08.83</time>
<name>10054</name>
</trkpt>
<trkpt lat="49.180183" lon="11.855675">
<ele>561.2</ele>
<speed>6.0</speed>
<course>314.3</course>
<desc>Speed 6.0 km/h Distance 39.76 km</desc>
<time>2010-06-13T09:29:09.81</time>
<name>10055</name>
</trkpt>
<trkpt lat="49.180195" lon="11.855657">
<ele>562.1</ele>
<speed>6.8</speed>
<course>318.9</course>
<desc>Speed 6.8 km/h Distance 39.77 km</desc>
<time>2010-06-13T09:29:10.81</time>
<name>10056</name>
</trkpt>
<trkpt lat="49.180210" lon="11.855637">
<ele>562.2</ele>
<speed>8.6</speed>
<course>322.7</course>
<desc>Speed 8.6 km/h Distance 39.77 km</desc>
<time>2010-06-13T09:29:11.81</time>
<name>10057</name>
</trkpt>
<trkpt lat="49.180230" lon="11.855613">
<ele>562.3</ele>
<speed>10.0</speed>
<course>324.7</course>
<desc>Speed 10.0 km/h Distance 39.77 km</desc>
<time>2010-06-13T09:29:12.82</time>
<name>10058</name>
</trkpt>
<trkpt lat="49.180250" lon="11.855592">
<ele>562.5</ele>
<speed>8.9</speed>
<course>329.1</course>
<desc>Speed 8.9 km/h Distance 39.77 km</desc>
<time>2010-06-13T09:29:13.82</time>
<name>10059</name>
</trkpt>
<trkpt lat="49.180270" lon="11.855573">
<ele>562.6</ele>
<speed>9.4</speed>
<course>324.9</course>
<desc>Speed 9.4 km/h Distance 39.78 km</desc>
<time>2010-06-13T09:29:14.82</time>
<name>10060</name>
</trkpt>
<trkpt lat="49.180292" lon="11.855550">
<ele>563.1</ele>
<speed>9.9</speed>
<course>338.5</course>
<desc>Speed 9.9 km/h Distance 39.78 km</desc>
<time>2010-06-13T09:29:15.82</time>
<name>10061</name>
</trkpt>
<trkpt lat="49.180317" lon="11.855535">
<ele>563.3</ele>
<speed>9.5</speed>
<course>324.7</course>
<desc>Speed 9.5 km/h Distance 39.78 km</desc>
<time>2010-06-13T09:29:16.82</time>
<name>10062</name>
</trkpt>
<trkpt lat="49.180337" lon="11.855513">
<ele>562.6</ele>
<speed>9.5</speed>
<course>326.8</course>
<desc>Speed 9.5 km/h Distance 39.78 km</desc>
<time>2010-06-13T09:29:17.82</time>
<name>10063</name>
</trkpt>
<trkpt lat="49.180357" lon="11.855493">
<ele>560.3</ele>
<speed>8.6</speed>
<course>297.0</course>
<desc>Speed 8.6 km/h Distance 39.79 km</desc>
<time>2010-06-13T09:29:18.82</time>
<name>10064</name>
</trkpt>
<trkpt lat="49.180365" lon="11.855468">
<ele>560.5</ele>
<speed>7.7</speed>
<course>270.0</course>
<desc>Speed 7.7 km/h Distance 39.79 km</desc>
<time>2010-06-13T09:29:19.82</time>
<name>10065</name>
</trkpt>
<trkpt lat="49.180365" lon="11.855438">
<ele>562.9</ele>
<speed>6.8</speed>
<course>293.0</course>
<desc>Speed 6.8 km/h Distance 39.79 km</desc>
<time>2010-06-13T09:29:20.80</time>
<name>10066</name>
</trkpt>
<trkpt lat="49.180373" lon="11.855408">
<ele>565.2</ele>
<speed>6.2</speed>
<course>305.6</course>
<desc>Speed 6.2 km/h Distance 39.79 km</desc>
<time>2010-06-13T09:29:21.81</time>
<name>10067</name>
</trkpt>
<trkpt lat="49.180385" lon="11.855383">
<ele>567.3</ele>
<speed>7.2</speed>
<course>275.1</course>
<desc>Speed 7.2 km/h Distance 39.80 km</desc>
<time>2010-06-13T09:29:22.82</time>
<name>10068</name>
</trkpt>
<trkpt lat="49.180387" lon="11.855355">
<ele>571.6</ele>
<speed>7.2</speed>
<course>266.2</course>
<desc>Speed 7.2 km/h Distance 39.80 km</desc>
<time>2010-06-13T09:29:23.82</time>
<name>10069</name>
</trkpt>
<trkpt lat="49.180385" lon="11.855317">
<ele>573.9</ele>
<speed>7.6</speed>
<course>265.8</course>
<desc>Speed 7.6 km/h Distance 39.80 km</desc>
<time>2010-06-13T09:29:24.81</time>
<name>10070</name>
</trkpt>
<trkpt lat="49.180383" lon="11.855282">
<ele>574.7</ele>
<speed>7.3</speed>
<course>221.9</course>
<desc>Speed 7.3 km/h Distance 39.80 km</desc>
<time>2010-06-13T09:29:25.83</time>
<name>10071</name>
</trkpt>
<trkpt lat="49.180370" lon="11.855263">
<ele>576.0</ele>
<speed>6.4</speed>
<course>223.3</course>
<desc>Speed 6.4 km/h Distance 39.81 km</desc>
<time>2010-06-13T09:29:26.82</time>
<name>10072</name>
</trkpt>
<trkpt lat="49.180355" lon="11.855242">
<ele>580.5</ele>
<speed>5.8</speed>
<course>216.4</course>
<desc>Speed 5.8 km/h Distance 39.81 km</desc>
<time>2010-06-13T09:29:27.83</time>
<name>10073</name>
</trkpt>
<trkpt lat="49.180342" lon="11.855227">
<ele>584.6</ele>
<speed>5.7</speed>
<course>231.0</course>
<desc>Speed 5.7 km/h Distance 39.81 km</desc>
<time>2010-06-13T09:29:28.82</time>
<name>10074</name>
</trkpt>
<trkpt lat="49.180327" lon="11.855198">
<ele>586.2</ele>
<speed>5.6</speed>
<course>238.5</course>
<desc>Speed 5.6 km/h Distance 39.81 km</desc>
<time>2010-06-13T09:29:29.82</time>
<name>10075</name>
</trkpt>
<trkpt lat="49.180313" lon="11.855165">
<ele>589.4</ele>
<speed>5.7</speed>
<course>223.4</course>
<desc>Speed 5.7 km/h Distance 39.82 km</desc>
<time>2010-06-13T09:29:30.83</time>
<name>10076</name>
</trkpt>
<trkpt lat="49.180298" lon="11.855143">
<ele>591.7</ele>
<speed>5.4</speed>
<course>203.7</course>
<desc>Speed 5.4 km/h Distance 39.82 km</desc>
<time>2010-06-13T09:29:31.83</time>
<name>10077</name>
</trkpt>
<trkpt lat="49.180283" lon="11.855133">
<ele>593.4</ele>
<speed>3.6</speed>
<course>270.0</course>
<desc>Speed 3.6 km/h Distance 39.82 km</desc>
<time>2010-06-13T09:29:32.83</time>
<name>10078</name>
</trkpt>
<trkpt lat="49.180283" lon="11.855123">
<ele>594.2</ele>
<speed>2.9</speed>
<course>335.4</course>
<desc>Speed 2.9 km/h Distance 39.82 km</desc>
<time>2010-06-13T09:29:33.82</time>
<name>10079</name>
</trkpt>
<trkpt lat="49.180295" lon="11.855115">
<ele>596.0</ele>
<speed>2.9</speed>
<course>320.0</course>
<desc>Speed 2.9 km/h Distance 39.82 km</desc>
<time>2010-06-13T09:29:34.83</time>
<name>10080</name>
</trkpt>
<trkpt lat="49.180307" lon="11.855100">
<ele>593.9</ele>
<speed>3.5</speed>
<course>253.0</course>
<desc>Speed 3.5 km/h Distance 39.82 km</desc>
<time>2010-06-13T09:29:35.81</time>
<name>10081</name>
</trkpt>
<trkpt lat="49.180303" lon="11.855083">
<ele>593.1</ele>
<speed>4.1</speed>
<course>309.2</course>
<desc>Speed 4.1 km/h Distance 39.82 km</desc>
<time>2010-06-13T09:29:36.81</time>
<name>10082</name>
</trkpt>
<trkpt lat="49.180317" lon="11.855058">
<ele>593.5</ele>
<speed>5.3</speed>
<course>270.0</course>
<desc>Speed 5.3 km/h Distance 39.83 km</desc>
<time>2010-06-13T09:29:37.82</time>
<name>10083</name>
</trkpt>
<trkpt lat="49.180317" lon="11.855037">
<ele>593.9</ele>
<speed>5.5</speed>
<course>298.7</course>
<desc>Speed 5.5 km/h Distance 39.83 km</desc>
<time>2010-06-13T09:29:38.82</time>
<name>10084</name>
</trkpt>
<trkpt lat="49.180325" lon="11.855013">
<ele>595.8</ele>
<speed>5.3</speed>
<course>258.5</course>
<desc>Speed 5.3 km/h Distance 39.83 km</desc>
<time>2010-06-13T09:29:39.82</time>
<name>10085</name>
</trkpt>
<trkpt lat="49.180322" lon="11.854988">
<ele>598.5</ele>
<speed>4.3</speed>
<course>326.3</course>
<desc>Speed 4.3 km/h Distance 39.83 km</desc>
<time>2010-06-13T09:29:40.83</time>
<name>10086</name>
</trkpt>
<trkpt lat="49.180328" lon="11.854982">
<ele>600.5</ele>
<speed>1.6</speed>
<course>243.0</course>
<desc>Speed 1.6 km/h Distance 39.83 km</desc>
<time>2010-06-13T09:29:41.81</time>
<name>10087</name>
</trkpt>
<trkpt lat="49.180322" lon="11.854962">
<ele>599.6</ele>
<speed>2.7</speed>
<course>245.8</course>
<desc>Speed 2.7 km/h Distance 39.83 km</desc>
<time>2010-06-13T09:29:42.82</time>
<name>10088</name>
</trkpt>
<trkpt lat="49.180313" lon="11.854933">
<ele>600.8</ele>
<speed>4.6</speed>
<course>270.0</course>
<desc>Speed 4.6 km/h Distance 39.84 km</desc>
<time>2010-06-13T09:29:43.81</time>
<name>10089</name>
</trkpt>
<trkpt lat="49.180313" lon="11.854920">
<ele>599.7</ele>
<speed>4.1</speed>
<course>349.8</course>
<desc>Speed 4.1 km/h Distance 39.84 km</desc>
<time>2010-06-13T09:29:44.81</time>
<name>10090</name>
</trkpt>
<trkpt lat="49.180332" lon="11.854915">
<ele>598.4</ele>
<speed>3.7</speed>
<course>284.3</course>
<desc>Speed 3.7 km/h Distance 39.84 km</desc>
<time>2010-06-13T09:29:45.81</time>
<name>10091</name>
</trkpt>
<trkpt lat="49.180335" lon="11.854895">
<ele>598.9</ele>
<speed>4.2</speed>
<course>287.0</course>
<desc>Speed 4.2 km/h Distance 39.84 km</desc>
<time>2010-06-13T09:29:46.82</time>
<name>10092</name>
</trkpt>
<trkpt lat="49.180340" lon="11.854870">
<ele>599.4</ele>
<speed>4.1</speed>
<course>318.9</course>
<desc>Speed 4.1 km/h Distance 39.84 km</desc>
<time>2010-06-13T09:29:47.81</time>
<name>10093</name>
</trkpt>
<trkpt lat="49.180355" lon="11.854850">
<ele>599.7</ele>
<speed>3.2</speed>
<course>300.5</course>
<desc>Speed 3.2 km/h Distance 39.85 km</desc>
<time>2010-06-13T09:29:48.82</time>
<name>10094</name>
</trkpt>
<trkpt lat="49.180363" lon="11.854828">
<ele>600.8</ele>
<speed>3.7</speed>
<course>270.0</course>
<desc>Speed 3.7 km/h Distance 39.85 km</desc>
<time>2010-06-13T09:29:49.81</time>
<name>10095</name>
</trkpt>
<trkpt lat="49.180363" lon="11.854803">
<ele>600.3</ele>
<speed>4.8</speed>
<course>257.7</course>
<desc>Speed 4.8 km/h Distance 39.85 km</desc>
<time>2010-06-13T09:29:50.82</time>
<name>10096</name>
</trkpt>
<trkpt lat="49.180360" lon="11.854780">
<ele>600.1</ele>
<speed>2.9</speed>
<course>262.7</course>
<desc>Speed 2.9 km/h Distance 39.85 km</desc>
<time>2010-06-13T09:29:51.83</time>
<name>10097</name>
</trkpt>
<trkpt lat="49.180358" lon="11.854760">
<ele>600.6</ele>
<speed>3.4</speed>
<course>249.1</course>
<desc>Speed 3.4 km/h Distance 39.85 km</desc>
<time>2010-06-13T09:29:52.82</time>
<name>10098</name>
</trkpt>
<trkpt lat="49.180352" lon="11.854733">
<ele>602.8</ele>
<speed>3.2</speed>
<course>280.3</course>
<desc>Speed 3.2 km/h Distance 39.85 km</desc>
<time>2010-06-13T09:29:53.81</time>
<name>10099</name>
</trkpt>
<trkpt lat="49.180360" lon="11.854663">
<ele>601.3</ele>
<speed>5.0</speed>
<course>257.7</course>
<desc>Speed 5.0 km/h Distance 39.86 km</desc>
<time>2010-06-13T09:29:55.81</time>
<name>10100</name>
</trkpt>
<trkpt lat="49.180355" lon="11.854628">
<ele>602.7</ele>
<speed>6.6</speed>
<course>244.8</course>
<desc>Speed 6.6 km/h Distance 39.86 km</desc>
<time>2010-06-13T09:29:56.82</time>
<name>10101</name>
</trkpt>
<trkpt lat="49.180342" lon="11.854585">
<ele>602.5</ele>
<speed>6.7</speed>
<course>241.3</course>
<desc>Speed 6.7 km/h Distance 39.87 km</desc>
<time>2010-06-13T09:29:57.82</time>
<name>10102</name>
</trkpt>
<trkpt lat="49.180333" lon="11.854562">
<ele>604.2</ele>
<speed>5.8</speed>
<course>234.2</course>
<desc>Speed 5.8 km/h Distance 39.87 km</desc>
<time>2010-06-13T09:29:58.82</time>
<name>10103</name>
</trkpt>
<trkpt lat="49.180320" lon="11.854533">
<ele>603.9</ele>
<speed>6.6</speed>
<course>240.9</course>
<desc>Speed 6.6 km/h Distance 39.87 km</desc>
<time>2010-06-13T09:29:59.81</time>
<name>10104</name>
</trkpt>
<trkpt lat="49.180307" lon="11.854497">
<ele>602.6</ele>
<speed>5.7</speed>
<course>209.2</course>
<desc>Speed 5.7 km/h Distance 39.87 km</desc>
<time>2010-06-13T09:30:00.81</time>
<name>10105</name>
</trkpt>
<trkpt lat="49.180295" lon="11.854487">
<ele>603.8</ele>
<speed>4.8</speed>
<course>270.0</course>
<desc>Speed 4.8 km/h Distance 39.88 km</desc>
<time>2010-06-13T09:30:01.81</time>
<name>10106</name>
</trkpt>
<trkpt lat="49.180295" lon="11.854458">
<ele>603.2</ele>
<speed>5.2</speed>
<course>249.1</course>
<desc>Speed 5.2 km/h Distance 39.88 km</desc>
<time>2010-06-13T09:30:02.82</time>
<name>10107</name>
</trkpt>
<trkpt lat="49.180288" lon="11.854432">
<ele>602.9</ele>
<speed>5.3</speed>
<course>257.7</course>
<desc>Speed 5.3 km/h Distance 39.88 km</desc>
<time>2010-06-13T09:30:03.81</time>
<name>10108</name>
</trkpt>
<trkpt lat="49.180287" lon="11.854420">
<ele>603.0</ele>
<speed>4.2</speed>
<course>254.4</course>
<desc>Speed 4.2 km/h Distance 39.88 km</desc>
<time>2010-06-13T09:30:04.82</time>
<name>10109</name>
</trkpt>
<trkpt lat="49.180283" lon="11.854402">
<ele>603.1</ele>
<speed>4.4</speed>
<course>270.0</course>
<desc>Speed 4.4 km/h Distance 39.88 km</desc>
<time>2010-06-13T09:30:05.81</time>
<name>10110</name>
</trkpt>
<trkpt lat="49.180283" lon="11.854387">
<ele>603.9</ele>
<speed>4.2</speed>
<course>186.6</course>
<desc>Speed 4.2 km/h Distance 39.88 km</desc>
<time>2010-06-13T09:30:06.83</time>
<name>10111</name>
</trkpt>
<trkpt lat="49.180273" lon="11.854385">
<ele>604.4</ele>
<speed>3.0</speed>
<course>161.9</course>
<desc>Speed 3.0 km/h Distance 39.88 km</desc>
<time>2010-06-13T09:30:07.83</time>
<name>10112</name>
</trkpt>
<trkpt lat="49.180260" lon="11.854392">
<ele>604.2</ele>
<speed>4.4</speed>
<course>238.6</course>
<desc>Speed 4.4 km/h Distance 39.89 km</desc>
<time>2010-06-13T09:30:08.83</time>
<name>10113</name>
</trkpt>
<trkpt lat="49.180253" lon="11.854375">
<ele>604.1</ele>
<speed>4.1</speed>
<course>246.5</course>
<desc>Speed 4.1 km/h Distance 39.89 km</desc>
<time>2010-06-13T09:30:09.82</time>
<name>10114</name>
</trkpt>
<trkpt lat="49.180250" lon="11.854363">
<ele>602.9</ele>
<speed>2.8</speed>
<course>141.9</course>
<desc>Speed 2.8 km/h Distance 39.89 km</desc>
<time>2010-06-13T09:30:10.82</time>
<name>10115</name>
</trkpt>
<trkpt lat="49.180242" lon="11.854373">
<ele>602.4</ele>
<speed>3.6</speed>
<course>31.6</course>
<desc>Speed 3.6 km/h Distance 39.89 km</desc>
<time>2010-06-13T09:30:11.84</time>
<name>10116</name>
</trkpt>
<trkpt lat="49.180245" lon="11.854377">
<ele>601.7</ele>
<speed>1.8</speed>
<course>237.5</course>
<desc>Speed 1.8 km/h Distance 39.89 km</desc>
<time>2010-06-13T09:30:12.81</time>
<name>10117</name>
</trkpt>
<trkpt lat="49.180237" lon="11.854357">
<ele>601.1</ele>
<speed>1.5</speed>
<course>238.6</course>
<desc>Speed 1.5 km/h Distance 39.89 km</desc>
<time>2010-06-13T09:30:13.82</time>
<name>10118</name>
</trkpt>
<trkpt lat="49.180230" lon="11.854340">
<ele>600.9</ele>
<speed>3.1</speed>
<course>227.4</course>
<desc>Speed 3.1 km/h Distance 39.89 km</desc>
<time>2010-06-13T09:30:14.83</time>
<name>10119</name>
</trkpt>
<trkpt lat="49.180215" lon="11.854315">
<ele>601.2</ele>
<speed>5.1</speed>
<course>213.1</course>
<desc>Speed 5.1 km/h Distance 39.89 km</desc>
<time>2010-06-13T09:30:15.82</time>
<name>10120</name>
</trkpt>
<trkpt lat="49.180200" lon="11.854300">
<ele>600.8</ele>
<speed>4.4</speed>
<course>232.4</course>
<desc>Speed 4.4 km/h Distance 39.90 km</desc>
<time>2010-06-13T09:30:16.81</time>
<name>10121</name>
</trkpt>
<trkpt lat="49.180195" lon="11.854290">
<ele>600.1</ele>
<speed>3.3</speed>
<course>229.3</course>
<desc>Speed 3.3 km/h Distance 39.90 km</desc>
<time>2010-06-13T09:30:17.83</time>
<name>10122</name>
</trkpt>
<trkpt lat="49.180180" lon="11.854263">
<ele>599.7</ele>
<speed>3.4</speed>
<course>199.5</course>
<desc>Speed 3.4 km/h Distance 39.90 km</desc>
<time>2010-06-13T09:30:18.81</time>
<name>10123</name>
</trkpt>
<trkpt lat="49.180162" lon="11.854253">
<ele>599.4</ele>
<speed>3.1</speed>
<course>228.2</course>
<desc>Speed 3.1 km/h Distance 39.90 km</desc>
<time>2010-06-13T09:30:19.83</time>
<name>10124</name>
</trkpt>
<trkpt lat="49.180150" lon="11.854233">
<ele>598.4</ele>
<speed>5.6</speed>
<course>237.2</course>
<desc>Speed 5.6 km/h Distance 39.90 km</desc>
<time>2010-06-13T09:30:20.82</time>
<name>10125</name>
</trkpt>
<trkpt lat="49.180137" lon="11.854202">
<ele>598.2</ele>
<speed>5.3</speed>
<course>208.2</course>
<desc>Speed 5.3 km/h Distance 39.91 km</desc>
<time>2010-06-13T09:30:21.82</time>
<name>10126</name>
</trkpt>
<trkpt lat="49.180118" lon="11.854187">
<ele>597.6</ele>
<speed>6.2</speed>
<course>247.0</course>
<desc>Speed 6.2 km/h Distance 39.91 km</desc>
<time>2010-06-13T09:30:22.80</time>
<name>10127</name>
</trkpt>
<trkpt lat="49.180110" lon="11.854157">
<ele>597.8</ele>
<speed>5.2</speed>
<course>198.0</course>
<desc>Speed 5.2 km/h Distance 39.91 km</desc>
<time>2010-06-13T09:30:23.82</time>
<name>10128</name>
</trkpt>
<trkpt lat="49.180083" lon="11.854143">
<ele>598.6</ele>
<speed>6.0</speed>
<course>225.5</course>
<desc>Speed 6.0 km/h Distance 39.91 km</desc>
<time>2010-06-13T09:30:24.81</time>
<name>10129</name>
</trkpt>
<trkpt lat="49.180068" lon="11.854120">
<ele>598.7</ele>
<speed>8.9</speed>
<course>214.7</course>
<desc>Speed 8.9 km/h Distance 39.92 km</desc>
<time>2010-06-13T09:30:25.84</time>
<name>10130</name>
</trkpt>
<trkpt lat="49.180040" lon="11.854090">
<ele>598.7</ele>
<speed>9.5</speed>
<course>201.7</course>
<desc>Speed 9.5 km/h Distance 39.92 km</desc>
<time>2010-06-13T09:30:26.83</time>
<name>10131</name>
</trkpt>
<trkpt lat="49.179963" lon="11.854043">
<ele>597.9</ele>
<speed>9.9</speed>
<course>203.8</course>
<desc>Speed 9.9 km/h Distance 39.93 km</desc>
<time>2010-06-13T09:30:28.82</time>
<name>10132</name>
</trkpt>
<trkpt lat="49.179887" lon="11.853992">
<ele>598.2</ele>
<speed>12.1</speed>
<course>215.7</course>
<desc>Speed 12.1 km/h Distance 39.94 km</desc>
<time>2010-06-13T09:30:30.81</time>
<name>10133</name>
</trkpt>
<trkpt lat="49.179802" lon="11.853898">
<ele>598.1</ele>
<speed>13.4</speed>
<course>211.9</course>
<desc>Speed 13.4 km/h Distance 39.95 km</desc>
<time>2010-06-13T09:30:32.81</time>
<name>10134</name>
</trkpt>
<trkpt lat="49.179768" lon="11.853867">
<ele>597.9</ele>
<speed>12.3</speed>
<course>202.1</course>
<desc>Speed 12.3 km/h Distance 39.96 km</desc>
<time>2010-06-13T09:30:33.82</time>
<name>10135</name>
</trkpt>
<trkpt lat="49.179755" lon="11.853858">
<ele>598.0</ele>
<speed>9.4</speed>
<course>247.9</course>
<desc>Speed 9.4 km/h Distance 39.96 km</desc>
<time>2010-06-13T09:30:34.82</time>
<name>10136</name>
</trkpt>
<trkpt lat="49.179740" lon="11.853802">
<ele>597.5</ele>
<speed>9.5</speed>
<course>253.6</course>
<desc>Speed 9.5 km/h Distance 39.96 km</desc>
<time>2010-06-13T09:30:35.81</time>
<name>10137</name>
</trkpt>
<trkpt lat="49.179732" lon="11.853758">
<ele>597.5</ele>
<speed>9.3</speed>
<course>270.0</course>
<desc>Speed 9.3 km/h Distance 39.97 km</desc>
<time>2010-06-13T09:30:36.82</time>
<name>10138</name>
</trkpt>
<trkpt lat="49.179732" lon="11.853740">
<ele>597.9</ele>
<speed>7.0</speed>
<course>197.1</course>
<desc>Speed 7.0 km/h Distance 39.97 km</desc>
<time>2010-06-13T09:30:37.81</time>
<name>10139</name>
</trkpt>
<trkpt lat="49.179703" lon="11.853727">
<ele>597.7</ele>
<speed>6.9</speed>
<course>221.7</course>
<desc>Speed 6.9 km/h Distance 39.97 km</desc>
<time>2010-06-13T09:30:38.82</time>
<name>10140</name>
</trkpt>
<trkpt lat="49.179685" lon="11.853702">
<ele>598.5</ele>
<speed>6.9</speed>
<course>237.5</course>
<desc>Speed 6.9 km/h Distance 39.97 km</desc>
<time>2010-06-13T09:30:39.80</time>
<name>10141</name>
</trkpt>
<trkpt lat="49.179668" lon="11.853662">
<ele>598.2</ele>
<speed>6.9</speed>
<course>222.2</course>
<desc>Speed 6.9 km/h Distance 39.98 km</desc>
<time>2010-06-13T09:30:40.81</time>
<name>10142</name>
</trkpt>
<trkpt lat="49.179647" lon="11.853632">
<ele>597.3</ele>
<speed>8.1</speed>
<course>237.2</course>
<desc>Speed 8.1 km/h Distance 39.98 km</desc>
<time>2010-06-13T09:30:41.83</time>
<name>10143</name>
</trkpt>
<trkpt lat="49.179633" lon="11.853600">
<ele>597.2</ele>
<speed>7.8</speed>
<course>234.2</course>
<desc>Speed 7.8 km/h Distance 39.98 km</desc>
<time>2010-06-13T09:30:42.82</time>
<name>10144</name>
</trkpt>
<trkpt lat="49.179620" lon="11.853572">
<ele>597.5</ele>
<speed>7.5</speed>
<course>236.8</course>
<desc>Speed 7.5 km/h Distance 39.98 km</desc>
<time>2010-06-13T09:30:43.82</time>
<name>10145</name>
</trkpt>
<trkpt lat="49.179610" lon="11.853548">
<ele>598.0</ele>
<speed>6.8</speed>
<course>250.2</course>
<desc>Speed 6.8 km/h Distance 39.99 km</desc>
<time>2010-06-13T09:30:44.82</time>
<name>10146</name>
</trkpt>
<trkpt lat="49.179603" lon="11.853520">
<ele>598.8</ele>
<speed>8.4</speed>
<course>243.8</course>
<desc>Speed 8.4 km/h Distance 39.99 km</desc>
<time>2010-06-13T09:30:45.82</time>
<name>10147</name>
</trkpt>
<trkpt lat="49.179588" lon="11.853473">
<ele>599.0</ele>
<speed>9.5</speed>
<course>223.2</course>
<desc>Speed 9.5 km/h Distance 39.99 km</desc>
<time>2010-06-13T09:30:46.82</time>
<name>10148</name>
</trkpt>
<trkpt lat="49.179562" lon="11.853435">
<ele>598.9</ele>
<speed>10.4</speed>
<course>237.1</course>
<desc>Speed 10.4 km/h Distance 40.00 km</desc>
<time>2010-06-13T09:30:47.81</time>
<name>10149</name>
</trkpt>
<trkpt lat="49.179543" lon="11.853392">
<ele>599.0</ele>
<speed>10.7</speed>
<course>226.3</course>
<desc>Speed 10.7 km/h Distance 40.00 km</desc>
<time>2010-06-13T09:30:48.81</time>
<name>10150</name>
</trkpt>
<trkpt lat="49.179518" lon="11.853352">
<ele>598.9</ele>
<speed>12.9</speed>
<course>237.5</course>
<desc>Speed 12.9 km/h Distance 40.00 km</desc>
<time>2010-06-13T09:30:49.81</time>
<name>10151</name>
</trkpt>
<trkpt lat="49.179502" lon="11.853312">
<ele>598.8</ele>
<speed>9.8</speed>
<course>228.2</course>
<desc>Speed 9.8 km/h Distance 40.01 km</desc>
<time>2010-06-13T09:30:50.82</time>
<name>10152</name>
</trkpt>
<trkpt lat="49.179478" lon="11.853272">
<ele>599.3</ele>
<speed>11.7</speed>
<course>231.3</course>
<desc>Speed 11.7 km/h Distance 40.01 km</desc>
<time>2010-06-13T09:30:51.82</time>
<name>10153</name>
</trkpt>
<trkpt lat="49.179460" lon="11.853237">
<ele>598.8</ele>
<speed>10.9</speed>
<course>250.9</course>
<desc>Speed 10.9 km/h Distance 40.01 km</desc>
<time>2010-06-13T09:30:52.81</time>
<name>10154</name>
</trkpt>
<trkpt lat="49.179448" lon="11.853185">
<ele>598.5</ele>
<speed>10.7</speed>
<course>244.8</course>
<desc>Speed 10.7 km/h Distance 40.02 km</desc>
<time>2010-06-13T09:30:53.82</time>
<name>10155</name>
</trkpt>
<trkpt lat="49.179435" lon="11.853142">
<ele>598.3</ele>
<speed>9.5</speed>
<course>246.5</course>
<desc>Speed 9.5 km/h Distance 40.02 km</desc>
<time>2010-06-13T09:30:54.82</time>
<name>10156</name>
</trkpt>
<trkpt lat="49.179403" lon="11.853030">
<ele>598.0</ele>
<speed>7.8</speed>
<course>272.8</course>
<desc>Speed 7.8 km/h Distance 40.03 km</desc>
<time>2010-06-13T09:30:56.80</time>
<name>10157</name>
</trkpt>
<trkpt lat="49.179405" lon="11.852978">
<ele>597.5</ele>
<speed>8.4</speed>
<course>276.2</course>
<desc>Speed 8.4 km/h Distance 40.03 km</desc>
<time>2010-06-13T09:30:57.84</time>
<name>10158</name>
</trkpt>
<trkpt lat="49.179408" lon="11.852932">
<ele>598.3</ele>
<speed>8.3</speed>
<course>296.0</course>
<desc>Speed 8.3 km/h Distance 40.04 km</desc>
<time>2010-06-13T09:30:58.80</time>
<name>10159</name>
</trkpt>
<trkpt lat="49.179447" lon="11.852812">
<ele>598.6</ele>
<speed>11.9</speed>
<course>297.0</course>
<desc>Speed 11.9 km/h Distance 40.05 km</desc>
<time>2010-06-13T09:31:00.82</time>
<name>10160</name>
</trkpt>
<trkpt lat="49.179468" lon="11.852747">
<ele>599.1</ele>
<speed>12.0</speed>
<course>286.6</course>
<desc>Speed 12.0 km/h Distance 40.05 km</desc>
<time>2010-06-13T09:31:01.82</time>
<name>10161</name>
</trkpt>
<trkpt lat="49.179482" lon="11.852678">
<ele>599.1</ele>
<speed>12.2</speed>
<course>283.6</course>
<desc>Speed 12.2 km/h Distance 40.06 km</desc>
<time>2010-06-13T09:31:02.81</time>
<name>10162</name>
</trkpt>
<trkpt lat="49.179492" lon="11.852615">
<ele>598.3</ele>
<speed>11.2</speed>
<course>270.0</course>
<desc>Speed 11.2 km/h Distance 40.06 km</desc>
<time>2010-06-13T09:31:03.83</time>
<name>10163</name>
</trkpt>
<trkpt lat="49.179492" lon="11.852552">
<ele>598.0</ele>
<speed>12.0</speed>
<course>260.7</course>
<desc>Speed 12.0 km/h Distance 40.07 km</desc>
<time>2010-06-13T09:31:04.83</time>
<name>10164</name>
</trkpt>
<trkpt lat="49.179487" lon="11.852505">
<ele>598.1</ele>
<speed>11.6</speed>
<course>288.8</course>
<desc>Speed 11.6 km/h Distance 40.07 km</desc>
<time>2010-06-13T09:31:05.81</time>
<name>10165</name>
</trkpt>
<trkpt lat="49.179500" lon="11.852445">
<ele>598.3</ele>
<speed>13.4</speed>
<course>288.1</course>
<desc>Speed 13.4 km/h Distance 40.08 km</desc>
<time>2010-06-13T09:31:06.81</time>
<name>10166</name>
</trkpt>
<trkpt lat="49.179515" lon="11.852375">
<ele>599.2</ele>
<speed>14.3</speed>
<course>251.6</course>
<desc>Speed 14.3 km/h Distance 40.08 km</desc>
<time>2010-06-13T09:31:07.82</time>
<name>10167</name>
</trkpt>
<trkpt lat="49.179478" lon="11.852207">
<ele>591.3</ele>
<speed>15.7</speed>
<course>282.0</course>
<desc>Speed 15.7 km/h Distance 40.09 km</desc>
<time>2010-06-13T09:31:09.82</time>
<name>10168</name>
</trkpt>
<trkpt lat="49.179487" lon="11.852147">
<ele>591.9</ele>
<speed>13.2</speed>
<course>269.1</course>
<desc>Speed 13.2 km/h Distance 40.10 km</desc>
<time>2010-06-13T09:31:10.81</time>
<name>10169</name>
</trkpt>
<trkpt lat="49.179485" lon="11.851977">
<ele>600.3</ele>
<speed>13.0</speed>
<course>250.7</course>
<desc>Speed 13.0 km/h Distance 40.11 km</desc>
<time>2010-06-13T09:31:12.81</time>
<name>10170</name>
</trkpt>
<trkpt lat="49.179472" lon="11.851918">
<ele>602.4</ele>
<speed>12.6</speed>
<course>200.3</course>
<desc>Speed 12.6 km/h Distance 40.12 km</desc>
<time>2010-06-13T09:31:13.82</time>
<name>10171</name>
</trkpt>
<trkpt lat="49.179433" lon="11.851897">
<ele>604.5</ele>
<speed>12.9</speed>
<course>207.6</course>
<desc>Speed 12.9 km/h Distance 40.12 km</desc>
<time>2010-06-13T09:31:14.81</time>
<name>10172</name>
</trkpt>
<trkpt lat="49.179392" lon="11.851863">
<ele>604.3</ele>
<speed>12.0</speed>
<course>219.2</course>
<desc>Speed 12.0 km/h Distance 40.13 km</desc>
<time>2010-06-13T09:31:15.81</time>
<name>10173</name>
</trkpt>
<trkpt lat="49.179365" lon="11.851830">
<ele>603.8</ele>
<speed>10.8</speed>
<course>225.6</course>
<desc>Speed 10.8 km/h Distance 40.13 km</desc>
<time>2010-06-13T09:31:16.80</time>
<name>10174</name>
</trkpt>
<trkpt lat="49.179338" lon="11.851788">
<ele>603.0</ele>
<speed>11.3</speed>
<course>224.5</course>
<desc>Speed 11.3 km/h Distance 40.13 km</desc>
<time>2010-06-13T09:31:17.82</time>
<name>10175</name>
</trkpt>
<trkpt lat="49.179322" lon="11.851763">
<ele>603.1</ele>
<speed>10.7</speed>
<course>273.1</course>
<desc>Speed 10.7 km/h Distance 40.14 km</desc>
<time>2010-06-13T09:31:18.82</time>
<name>10176</name>
</trkpt>
<trkpt lat="49.179323" lon="11.851717">
<ele>599.8</ele>
<speed>10.0</speed>
<course>302.2</course>
<desc>Speed 10.0 km/h Distance 40.14 km</desc>
<time>2010-06-13T09:31:19.83</time>
<name>10177</name>
</trkpt>
<trkpt lat="49.179335" lon="11.851688">
<ele>598.7</ele>
<speed>9.1</speed>
<course>311.8</course>
<desc>Speed 9.1 km/h Distance 40.14 km</desc>
<time>2010-06-13T09:31:20.82</time>
<name>10178</name>
</trkpt>
<trkpt lat="49.179347" lon="11.851668">
<ele>599.3</ele>
<speed>8.6</speed>
<course>293.2</course>
<desc>Speed 8.6 km/h Distance 40.14 km</desc>
<time>2010-06-13T09:31:21.82</time>
<name>10179</name>
</trkpt>
<trkpt lat="49.179358" lon="11.851627">
<ele>598.9</ele>
<speed>9.5</speed>
<course>277.3</course>
<desc>Speed 9.5 km/h Distance 40.15 km</desc>
<time>2010-06-13T09:31:22.82</time>
<name>10180</name>
</trkpt>
<trkpt lat="49.179363" lon="11.851567">
<ele>593.7</ele>
<speed>9.3</speed>
<course>284.8</course>
<desc>Speed 9.3 km/h Distance 40.15 km</desc>
<time>2010-06-13T09:31:23.83</time>
<name>10181</name>
</trkpt>
<trkpt lat="49.179372" lon="11.851518">
<ele>589.0</ele>
<speed>10.2</speed>
<course>267.8</course>
<desc>Speed 10.2 km/h Distance 40.16 km</desc>
<time>2010-06-13T09:31:24.82</time>
<name>10182</name>
</trkpt>
<trkpt lat="49.179370" lon="11.851453">
<ele>588.6</ele>
<speed>11.0</speed>
<course>267.6</course>
<desc>Speed 11.0 km/h Distance 40.16 km</desc>
<time>2010-06-13T09:31:25.82</time>
<name>10183</name>
</trkpt>
<trkpt lat="49.179368" lon="11.851392">
<ele>587.5</ele>
<speed>11.3</speed>
<course>280.5</course>
<desc>Speed 11.3 km/h Distance 40.16 km</desc>
<time>2010-06-13T09:31:26.81</time>
<name>10184</name>
</trkpt>
<trkpt lat="49.179375" lon="11.851337">
<ele>587.6</ele>
<speed>9.9</speed>
<course>247.4</course>
<desc>Speed 9.9 km/h Distance 40.17 km</desc>
<time>2010-06-13T09:31:27.82</time>
<name>10185</name>
</trkpt>
<trkpt lat="49.179360" lon="11.851282">
<ele>588.4</ele>
<speed>9.2</speed>
<course>253.0</course>
<desc>Speed 9.2 km/h Distance 40.17 km</desc>
<time>2010-06-13T09:31:28.83</time>
<name>10186</name>
</trkpt>
<trkpt lat="49.179352" lon="11.851240">
<ele>587.9</ele>
<speed>7.3</speed>
<course>244.6</course>
<desc>Speed 7.3 km/h Distance 40.18 km</desc>
<time>2010-06-13T09:31:29.82</time>
<name>10187</name>
</trkpt>
<trkpt lat="49.179337" lon="11.851192">
<ele>585.3</ele>
<speed>7.3</speed>
<course>239.8</course>
<desc>Speed 7.3 km/h Distance 40.18 km</desc>
<time>2010-06-13T09:31:30.82</time>
<name>10188</name>
</trkpt>
<trkpt lat="49.179305" lon="11.851108">
<ele>585.7</ele>
<speed>7.8</speed>
<course>236.8</course>
<desc>Speed 7.8 km/h Distance 40.19 km</desc>
<time>2010-06-13T09:31:32.82</time>
<name>10189</name>
</trkpt>
<trkpt lat="49.179290" lon="11.851073">
<ele>585.1</ele>
<speed>7.5</speed>
<course>247.6</course>
<desc>Speed 7.5 km/h Distance 40.19 km</desc>
<time>2010-06-13T09:31:33.81</time>
<name>10190</name>
</trkpt>
<trkpt lat="49.179278" lon="11.851030">
<ele>583.1</ele>
<speed>8.4</speed>
<course>245.6</course>
<desc>Speed 8.4 km/h Distance 40.19 km</desc>
<time>2010-06-13T09:31:34.81</time>
<name>10191</name>
</trkpt>
<trkpt lat="49.179265" lon="11.850985">
<ele>581.8</ele>
<speed>9.9</speed>
<course>262.1</course>
<desc>Speed 9.9 km/h Distance 40.20 km</desc>
<time>2010-06-13T09:31:35.81</time>
<name>10192</name>
</trkpt>
<trkpt lat="49.179262" lon="11.850948">
<ele>582.4</ele>
<speed>8.9</speed>
<course>253.6</course>
<desc>Speed 8.9 km/h Distance 40.20 km</desc>
<time>2010-06-13T09:31:36.82</time>
<name>10193</name>
</trkpt>
<trkpt lat="49.179253" lon="11.850905">
<ele>581.5</ele>
<speed>9.2</speed>
<course>283.3</course>
<desc>Speed 9.2 km/h Distance 40.20 km</desc>
<time>2010-06-13T09:31:37.80</time>
<name>10194</name>
</trkpt>
<trkpt lat="49.179257" lon="11.850883">
<ele>584.0</ele>
<speed>5.2</speed>
<course>280.8</course>
<desc>Speed 5.2 km/h Distance 40.20 km</desc>
<time>2010-06-13T09:31:38.81</time>
<name>10195</name>
</trkpt>
<trkpt lat="49.179258" lon="11.850870">
<ele>583.7</ele>
<speed>3.7</speed>
<course>240.0</course>
<desc>Speed 3.7 km/h Distance 40.21 km</desc>
<time>2010-06-13T09:31:39.83</time>
<name>10196</name>
</trkpt>
<trkpt lat="49.179225" lon="11.850782">
<ele>582.5</ele>
<speed>6.6</speed>
<course>246.8</course>
<desc>Speed 6.6 km/h Distance 40.21 km</desc>
<time>2010-06-13T09:31:41.82</time>
<name>10197</name>
</trkpt>
<trkpt lat="49.179213" lon="11.850740">
<ele>580.8</ele>
<speed>6.7</speed>
<course>252.2</course>
<desc>Speed 6.7 km/h Distance 40.22 km</desc>
<time>2010-06-13T09:31:42.81</time>
<name>10198</name>
</trkpt>
<trkpt lat="49.179207" lon="11.850708">
<ele>581.5</ele>
<speed>5.0</speed>
<course>279.1</course>
<desc>Speed 5.0 km/h Distance 40.22 km</desc>
<time>2010-06-13T09:31:43.82</time>
<name>10199</name>
</trkpt>
<trkpt lat="49.179210" lon="11.850677">
<ele>583.0</ele>
<speed>6.2</speed>
<course>291.8</course>
<desc>Speed 6.2 km/h Distance 40.22 km</desc>
<time>2010-06-13T09:31:44.82</time>
<name>10200</name>
</trkpt>
<trkpt lat="49.179220" lon="11.850638">
<ele>584.0</ele>
<speed>6.1</speed>
<course>281.9</course>
<desc>Speed 6.1 km/h Distance 40.22 km</desc>
<time>2010-06-13T09:31:45.81</time>
<name>10201</name>
</trkpt>
<trkpt lat="49.179233" lon="11.850542">
<ele>583.6</ele>
<speed>6.5</speed>
<course>281.9</course>
<desc>Speed 6.5 km/h Distance 40.23 km</desc>
<time>2010-06-13T09:31:47.81</time>
<name>10202</name>
</trkpt>
<trkpt lat="49.179247" lon="11.850445">
<ele>584.6</ele>
<speed>5.5</speed>
<course>256.2</course>
<desc>Speed 5.5 km/h Distance 40.24 km</desc>
<time>2010-06-13T09:31:49.80</time>
<name>10203</name>
</trkpt>
<trkpt lat="49.179240" lon="11.850403">
<ele>583.3</ele>
<speed>4.6</speed>
<course>302.5</course>
<desc>Speed 4.6 km/h Distance 40.24 km</desc>
<time>2010-06-13T09:31:50.82</time>
<name>10204</name>
</trkpt>
<trkpt lat="49.179248" lon="11.850383">
<ele>584.2</ele>
<speed>2.7</speed>
<course>240.2</course>
<desc>Speed 2.7 km/h Distance 40.24 km</desc>
<time>2010-06-13T09:31:51.82</time>
<name>10205</name>
</trkpt>
<trkpt lat="49.179238" lon="11.850357">
<ele>585.7</ele>
<speed>2.1</speed>
<course>295.2</course>
<desc>Speed 2.1 km/h Distance 40.25 km</desc>
<time>2010-06-13T09:31:52.81</time>
<name>10206</name>
</trkpt>
<trkpt lat="49.179245" lon="11.850335">
<ele>586.4</ele>
<speed>3.9</speed>
<course>270.0</course>
<desc>Speed 3.9 km/h Distance 40.25 km</desc>
<time>2010-06-13T09:31:53.81</time>
<name>10207</name>
</trkpt>
<trkpt lat="49.179245" lon="11.850307">
<ele>589.3</ele>
<speed>4.1</speed>
<course>275.1</course>
<desc>Speed 4.1 km/h Distance 40.25 km</desc>
<time>2010-06-13T09:31:54.81</time>
<name>10208</name>
</trkpt>
<trkpt lat="49.179247" lon="11.850278">
<ele>590.3</ele>
<speed>4.8</speed>
<course>244.2</course>
<desc>Speed 4.8 km/h Distance 40.25 km</desc>
<time>2010-06-13T09:31:55.82</time>
<name>10209</name>
</trkpt>
<trkpt lat="49.179237" lon="11.850247">
<ele>590.7</ele>
<speed>4.7</speed>
<course>273.4</course>
<desc>Speed 4.7 km/h Distance 40.25 km</desc>
<time>2010-06-13T09:31:56.82</time>
<name>10210</name>
</trkpt>
<trkpt lat="49.179238" lon="11.850203">
<ele>591.4</ele>
<speed>6.0</speed>
<course>273.8</course>
<desc>Speed 6.0 km/h Distance 40.26 km</desc>
<time>2010-06-13T09:31:57.80</time>
<name>10211</name>
</trkpt>
<trkpt lat="49.179240" lon="11.850165">
<ele>591.6</ele>
<speed>5.8</speed>
<course>244.0</course>
<desc>Speed 5.8 km/h Distance 40.26 km</desc>
<time>2010-06-13T09:31:58.80</time>
<name>10212</name>
</trkpt>
<trkpt lat="49.179228" lon="11.850128">
<ele>590.0</ele>
<speed>5.1</speed>
<course>245.3</course>
<desc>Speed 5.1 km/h Distance 40.26 km</desc>
<time>2010-06-13T09:31:59.81</time>
<name>10213</name>
</trkpt>
<trkpt lat="49.179218" lon="11.850095">
<ele>592.7</ele>
<speed>4.8</speed>
<course>256.2</course>
<desc>Speed 4.8 km/h Distance 40.27 km</desc>
<time>2010-06-13T09:32:00.81</time>
<name>10214</name>
</trkpt>
<trkpt lat="49.179212" lon="11.850053">
<ele>593.8</ele>
<speed>6.7</speed>
<course>253.0</course>
<desc>Speed 6.7 km/h Distance 40.27 km</desc>
<time>2010-06-13T09:32:01.81</time>
<name>10215</name>
</trkpt>
<trkpt lat="49.179203" lon="11.850012">
<ele>595.8</ele>
<speed>7.4</speed>
<course>235.8</course>
<desc>Speed 7.4 km/h Distance 40.27 km</desc>
<time>2010-06-13T09:32:02.80</time>
<name>10216</name>
</trkpt>
<trkpt lat="49.179183" lon="11.849967">
<ele>598.3</ele>
<speed>7.1</speed>
<course>224.4</course>
<desc>Speed 7.1 km/h Distance 40.28 km</desc>
<time>2010-06-13T09:32:03.82</time>
<name>10217</name>
</trkpt>
<trkpt lat="49.179163" lon="11.849937">
<ele>598.4</ele>
<speed>7.5</speed>
<course>218.6</course>
<desc>Speed 7.5 km/h Distance 40.28 km</desc>
<time>2010-06-13T09:32:04.82</time>
<name>10218</name>
</trkpt>
<trkpt lat="49.179148" lon="11.849918">
<ele>595.1</ele>
<speed>9.1</speed>
<course>192.9</course>
<desc>Speed 9.1 km/h Distance 40.28 km</desc>
<time>2010-06-13T09:32:05.81</time>
<name>10219</name>
</trkpt>
<trkpt lat="49.179125" lon="11.849910">
<ele>593.5</ele>
<speed>9.2</speed>
<course>199.7</course>
<desc>Speed 9.2 km/h Distance 40.28 km</desc>
<time>2010-06-13T09:32:06.79</time>
<name>10220</name>
</trkpt>
<trkpt lat="49.179107" lon="11.849900">
<ele>592.6</ele>
<speed>9.9</speed>
<course>201.5</course>
<desc>Speed 9.9 km/h Distance 40.29 km</desc>
<time>2010-06-13T09:32:07.80</time>
<name>10221</name>
</trkpt>
<trkpt lat="49.179082" lon="11.849885">
<ele>592.8</ele>
<speed>9.5</speed>
<course>189.3</course>
<desc>Speed 9.5 km/h Distance 40.29 km</desc>
<time>2010-06-13T09:32:08.80</time>
<name>10222</name>
</trkpt>
<trkpt lat="49.179055" lon="11.849878">
<ele>590.4</ele>
<speed>8.3</speed>
<course>209.3</course>
<desc>Speed 8.3 km/h Distance 40.29 km</desc>
<time>2010-06-13T09:32:09.80</time>
<name>10223</name>
</trkpt>
<trkpt lat="49.179032" lon="11.849858">
<ele>589.1</ele>
<speed>7.1</speed>
<course>217.0</course>
<desc>Speed 7.1 km/h Distance 40.29 km</desc>
<time>2010-06-13T09:32:10.79</time>
<name>10224</name>
</trkpt>
<trkpt lat="49.179010" lon="11.849833">
<ele>588.8</ele>
<speed>6.4</speed>
<course>204.8</course>
<desc>Speed 6.4 km/h Distance 40.30 km</desc>
<time>2010-06-13T09:32:11.80</time>
<name>10225</name>
</trkpt>
<trkpt lat="49.179003" lon="11.849828">
<ele>588.3</ele>
<speed>5.8</speed>
<course>224.5</course>
<desc>Speed 5.8 km/h Distance 40.30 km</desc>
<time>2010-06-13T09:32:12.80</time>
<name>10226</name>
</trkpt>
<trkpt lat="49.179000" lon="11.849823">
<ele>586.6</ele>
<speed>4.8</speed>
<course>205.2</course>
<desc>Speed 4.8 km/h Distance 40.30 km</desc>
<time>2010-06-13T09:32:13.81</time>
<name>10227</name>
</trkpt>
<trkpt lat="49.178928" lon="11.849772">
<ele>585.4</ele>
<speed>9.1</speed>
<course>213.2</course>
<desc>Speed 9.1 km/h Distance 40.31 km</desc>
<time>2010-06-13T09:32:15.81</time>
<name>10228</name>
</trkpt>
<trkpt lat="49.178905" lon="11.849748">
<ele>585.1</ele>
<speed>8.9</speed>
<course>227.5</course>
<desc>Speed 8.9 km/h Distance 40.31 km</desc>
<time>2010-06-13T09:32:16.82</time>
<name>10229</name>
</trkpt>
<trkpt lat="49.178885" lon="11.849715">
<ele>587.5</ele>
<speed>9.9</speed>
<course>211.5</course>
<desc>Speed 9.9 km/h Distance 40.31 km</desc>
<time>2010-06-13T09:32:17.80</time>
<name>10230</name>
</trkpt>
<trkpt lat="49.178858" lon="11.849690">
<ele>587.2</ele>
<speed>10.0</speed>
<course>214.6</course>
<desc>Speed 10.0 km/h Distance 40.32 km</desc>
<time>2010-06-13T09:32:18.81</time>
<name>10231</name>
</trkpt>
<trkpt lat="49.178828" lon="11.849658">
<ele>587.4</ele>
<speed>11.6</speed>
<course>222.2</course>
<desc>Speed 11.6 km/h Distance 40.32 km</desc>
<time>2010-06-13T09:32:19.81</time>
<name>10232</name>
</trkpt>
<trkpt lat="49.178807" lon="11.849628">
<ele>584.9</ele>
<speed>11.6</speed>
<course>217.1</course>
<desc>Speed 11.6 km/h Distance 40.33 km</desc>
<time>2010-06-13T09:32:20.79</time>
<name>10233</name>
</trkpt>
<trkpt lat="49.178775" lon="11.849592">
<ele>584.1</ele>
<speed>10.0</speed>
<course>225.3</course>
<desc>Speed 10.0 km/h Distance 40.33 km</desc>
<time>2010-06-13T09:32:21.82</time>
<name>10234</name>
</trkpt>
<trkpt lat="49.178757" lon="11.849563">
<ele>585.4</ele>
<speed>8.0</speed>
<course>210.0</course>
<desc>Speed 8.0 km/h Distance 40.33 km</desc>
<time>2010-06-13T09:32:22.80</time>
<name>10235</name>
</trkpt>
<trkpt lat="49.178728" lon="11.849538">
<ele>584.3</ele>
<speed>8.9</speed>
<course>218.6</course>
<desc>Speed 8.9 km/h Distance 40.34 km</desc>
<time>2010-06-13T09:32:23.80</time>
<name>10236</name>
</trkpt>
<trkpt lat="49.178698" lon="11.849502">
<ele>585.6</ele>
<speed>8.1</speed>
<course>207.9</course>
<desc>Speed 8.1 km/h Distance 40.34 km</desc>
<time>2010-06-13T09:32:24.80</time>
<name>10237</name>
</trkpt>
<trkpt lat="49.178690" lon="11.849495">
<ele>583.5</ele>
<speed>6.3</speed>
<course>234.1</course>
<desc>Speed 6.3 km/h Distance 40.34 km</desc>
<time>2010-06-13T09:32:25.80</time>
<name>10238</name>
</trkpt>
<trkpt lat="49.178675" lon="11.849463">
<ele>584.9</ele>
<speed>6.8</speed>
<course>221.1</course>
<desc>Speed 6.8 km/h Distance 40.34 km</desc>
<time>2010-06-13T09:32:26.81</time>
<name>10239</name>
</trkpt>
<trkpt lat="49.178660" lon="11.849443">
<ele>584.3</ele>
<speed>5.2</speed>
<course>205.9</course>
<desc>Speed 5.2 km/h Distance 40.35 km</desc>
<time>2010-06-13T09:32:27.81</time>
<name>10240</name>
</trkpt>
<trkpt lat="49.178608" lon="11.849405">
<ele>579.2</ele>
<speed>8.7</speed>
<course>204.6</course>
<desc>Speed 8.7 km/h Distance 40.35 km</desc>
<time>2010-06-13T09:32:29.81</time>
<name>10241</name>
</trkpt>
<trkpt lat="49.178592" lon="11.849393">
<ele>577.3</ele>
<speed>6.6</speed>
<course>181.2</course>
<desc>Speed 6.6 km/h Distance 40.35 km</desc>
<time>2010-06-13T09:32:30.80</time>
<name>10242</name>
</trkpt>
<trkpt lat="49.178565" lon="11.849392">
<ele>575.2</ele>
<speed>6.7</speed>
<course>206.7</course>
<desc>Speed 6.7 km/h Distance 40.36 km</desc>
<time>2010-06-13T09:32:31.81</time>
<name>10243</name>
</trkpt>
<trkpt lat="49.178543" lon="11.849375">
<ele>574.4</ele>
<speed>6.6</speed>
<course>207.6</course>
<desc>Speed 6.6 km/h Distance 40.36 km</desc>
<time>2010-06-13T09:32:32.81</time>
<name>10244</name>
</trkpt>
<trkpt lat="49.178518" lon="11.849355">
<ele>573.8</ele>
<speed>8.6</speed>
<course>211.1</course>
<desc>Speed 8.6 km/h Distance 40.36 km</desc>
<time>2010-06-13T09:32:33.80</time>
<name>10245</name>
</trkpt>
<trkpt lat="49.178497" lon="11.849335">
<ele>573.5</ele>
<speed>9.5</speed>
<course>207.2</course>
<desc>Speed 9.5 km/h Distance 40.37 km</desc>
<time>2010-06-13T09:32:34.80</time>
<name>10246</name>
</trkpt>
<trkpt lat="49.178473" lon="11.849317">
<ele>575.4</ele>
<speed>9.9</speed>
<course>240.9</course>
<desc>Speed 9.9 km/h Distance 40.37 km</desc>
<time>2010-06-13T09:32:35.80</time>
<name>10247</name>
</trkpt>
<trkpt lat="49.178460" lon="11.849280">
<ele>575.7</ele>
<speed>7.5</speed>
<course>232.6</course>
<desc>Speed 7.5 km/h Distance 40.37 km</desc>
<time>2010-06-13T09:32:36.80</time>
<name>10248</name>
</trkpt>
<trkpt lat="49.178450" lon="11.849260">
<ele>573.4</ele>
<speed>5.4</speed>
<course>290.9</course>
<desc>Speed 5.4 km/h Distance 40.37 km</desc>
<time>2010-06-13T09:32:37.83</time>
<name>10249</name>
</trkpt>
<trkpt lat="49.178455" lon="11.849240">
<ele>570.2</ele>
<speed>4.9</speed>
<course>285.5</course>
<desc>Speed 4.9 km/h Distance 40.38 km</desc>
<time>2010-06-13T09:32:38.81</time>
<name>10250</name>
</trkpt>
<trkpt lat="49.178462" lon="11.849203">
<ele>569.7</ele>
<speed>6.0</speed>
<course>247.8</course>
<desc>Speed 6.0 km/h Distance 40.38 km</desc>
<time>2010-06-13T09:32:39.79</time>
<name>10251</name>
</trkpt>
<trkpt lat="49.178455" lon="11.849178">
<ele>567.5</ele>
<speed>6.2</speed>
<course>297.0</course>
<desc>Speed 6.2 km/h Distance 40.38 km</desc>
<time>2010-06-13T09:32:40.81</time>
<name>10252</name>
</trkpt>
<trkpt lat="49.178465" lon="11.849148">
<ele>565.9</ele>
<speed>6.1</speed>
<course>292.2</course>
<desc>Speed 6.1 km/h Distance 40.38 km</desc>
<time>2010-06-13T09:32:41.81</time>
<name>10253</name>
</trkpt>
<trkpt lat="49.178472" lon="11.849123">
<ele>564.8</ele>
<speed>5.2</speed>
<course>281.8</course>
<desc>Speed 5.2 km/h Distance 40.39 km</desc>
<time>2010-06-13T09:32:42.81</time>
<name>10254</name>
</trkpt>
<trkpt lat="49.178477" lon="11.849087">
<ele>563.7</ele>
<speed>5.9</speed>
<course>246.9</course>
<desc>Speed 5.9 km/h Distance 40.39 km</desc>
<time>2010-06-13T09:32:43.80</time>
<name>10255</name>
</trkpt>
<trkpt lat="49.178448" lon="11.848985">
<ele>565.1</ele>
<speed>9.7</speed>
<course>264.9</course>
<desc>Speed 9.7 km/h Distance 40.40 km</desc>
<time>2010-06-13T09:32:45.81</time>
<name>10256</name>
</trkpt>
<trkpt lat="49.178445" lon="11.848928">
<ele>565.6</ele>
<speed>10.1</speed>
<course>285.5</course>
<desc>Speed 10.1 km/h Distance 40.40 km</desc>
<time>2010-06-13T09:32:46.79</time>
<name>10257</name>
</trkpt>
<trkpt lat="49.178455" lon="11.848873">
<ele>566.4</ele>
<speed>12.3</speed>
<course>290.1</course>
<desc>Speed 12.3 km/h Distance 40.40 km</desc>
<time>2010-06-13T09:32:47.80</time>
<name>10258</name>
</trkpt>
<trkpt lat="49.178492" lon="11.848720">
<ele>571.2</ele>
<speed>14.9</speed>
<course>293.4</course>
<desc>Speed 14.9 km/h Distance 40.42 km</desc>
<time>2010-06-13T09:32:49.81</time>
<name>10259</name>
</trkpt>
<trkpt lat="49.178513" lon="11.848643">
<ele>573.1</ele>
<speed>14.4</speed>
<course>280.5</course>
<desc>Speed 14.4 km/h Distance 40.42 km</desc>
<time>2010-06-13T09:32:50.81</time>
<name>10260</name>
</trkpt>
<trkpt lat="49.178532" lon="11.848492">
<ele>573.8</ele>
<speed>14.5</speed>
<course>264.2</course>
<desc>Speed 14.5 km/h Distance 40.43 km</desc>
<time>2010-06-13T09:32:52.80</time>
<name>10261</name>
</trkpt>
<trkpt lat="49.178527" lon="11.848417">
<ele>574.2</ele>
<speed>14.3</speed>
<course>255.1</course>
<desc>Speed 14.3 km/h Distance 40.44 km</desc>
<time>2010-06-13T09:32:53.80</time>
<name>10262</name>
</trkpt>
<trkpt lat="49.178513" lon="11.848340">
<ele>574.0</ele>
<speed>13.8</speed>
<course>233.6</course>
<desc>Speed 13.8 km/h Distance 40.44 km</desc>
<time>2010-06-13T09:32:54.80</time>
<name>10263</name>
</trkpt>
<trkpt lat="49.178490" lon="11.848292">
<ele>575.5</ele>
<speed>11.4</speed>
<course>232.6</course>
<desc>Speed 11.4 km/h Distance 40.45 km</desc>
<time>2010-06-13T09:32:55.79</time>
<name>10264</name>
</trkpt>
<trkpt lat="49.178473" lon="11.848258">
<ele>574.9</ele>
<speed>11.0</speed>
<course>265.7</course>
<desc>Speed 11.0 km/h Distance 40.45 km</desc>
<time>2010-06-13T09:32:56.80</time>
<name>10265</name>
</trkpt>
<trkpt lat="49.178470" lon="11.848190">
<ele>576.7</ele>
<speed>10.4</speed>
<course>248.8</course>
<desc>Speed 10.4 km/h Distance 40.46 km</desc>
<time>2010-06-13T09:32:57.81</time>
<name>10266</name>
</trkpt>
<trkpt lat="49.178442" lon="11.848078">
<ele>575.6</ele>
<speed>11.2</speed>
<course>227.5</course>
<desc>Speed 11.2 km/h Distance 40.47 km</desc>
<time>2010-06-13T09:32:59.81</time>
<name>10267</name>
</trkpt>
<trkpt lat="49.178422" lon="11.848045">
<ele>578.5</ele>
<speed>9.2</speed>
<course>199.6</course>
<desc>Speed 9.2 km/h Distance 40.47 km</desc>
<time>2010-06-13T09:33:00.81</time>
<name>10268</name>
</trkpt>
<trkpt lat="49.178407" lon="11.848037">
<ele>578.6</ele>
<speed>5.8</speed>
<course>228.2</course>
<desc>Speed 5.8 km/h Distance 40.47 km</desc>
<time>2010-06-13T09:33:01.79</time>
<name>10269</name>
</trkpt>
<trkpt lat="49.178395" lon="11.848017">
<ele>581.7</ele>
<speed>5.2</speed>
<course>267.3</course>
<desc>Speed 5.2 km/h Distance 40.47 km</desc>
<time>2010-06-13T09:33:02.79</time>
<name>10270</name>
</trkpt>
<trkpt lat="49.178392" lon="11.847910">
<ele>587.0</ele>
<speed>8.0</speed>
<course>239.5</course>
<desc>Speed 8.0 km/h Distance 40.48 km</desc>
<time>2010-06-13T09:33:04.81</time>
<name>10271</name>
</trkpt>
<trkpt lat="49.178375" lon="11.847867">
<ele>585.7</ele>
<speed>9.6</speed>
<course>221.1</course>
<desc>Speed 9.6 km/h Distance 40.48 km</desc>
<time>2010-06-13T09:33:05.79</time>
<name>10272</name>
</trkpt>
<trkpt lat="49.178345" lon="11.847827">
<ele>584.5</ele>
<speed>10.0</speed>
<course>233.8</course>
<desc>Speed 10.0 km/h Distance 40.49 km</desc>
<time>2010-06-13T09:33:06.79</time>
<name>10273</name>
</trkpt>
<trkpt lat="49.178288" lon="11.847708">
<ele>584.8</ele>
<speed>12.3</speed>
<course>238.5</course>
<desc>Speed 12.3 km/h Distance 40.50 km</desc>
<time>2010-06-13T09:33:08.79</time>
<name>10274</name>
</trkpt>
<trkpt lat="49.178268" lon="11.847658">
<ele>584.2</ele>
<speed>11.6</speed>
<course>233.4</course>
<desc>Speed 11.6 km/h Distance 40.50 km</desc>
<time>2010-06-13T09:33:09.80</time>
<name>10275</name>
</trkpt>
<trkpt lat="49.178155" lon="11.847425">
<ele>581.1</ele>
<speed>19.4</speed>
<course>213.2</course>
<desc>Speed 19.4 km/h Distance 40.52 km</desc>
<time>2010-06-13T09:33:12.80</time>
<name>10276</name>
</trkpt>
<trkpt lat="49.178103" lon="11.847373">
<ele>582.0</ele>
<speed>20.7</speed>
<course>202.3</course>
<desc>Speed 20.7 km/h Distance 40.53 km</desc>
<time>2010-06-13T09:33:13.79</time>
<name>10277</name>
</trkpt>
<trkpt lat="49.177978" lon="11.847295">
<ele>580.8</ele>
<speed>18.7</speed>
<course>193.3</course>
<desc>Speed 18.7 km/h Distance 40.55 km</desc>
<time>2010-06-13T09:33:15.79</time>
<name>10278</name>
</trkpt>
<trkpt lat="49.177942" lon="11.847282">
<ele>581.7</ele>
<speed>16.5</speed>
<course>207.8</course>
<desc>Speed 16.5 km/h Distance 40.55 km</desc>
<time>2010-06-13T09:33:16.81</time>
<name>10279</name>
</trkpt>
<trkpt lat="49.177898" lon="11.847247">
<ele>584.7</ele>
<speed>14.3</speed>
<course>217.3</course>
<desc>Speed 14.3 km/h Distance 40.56 km</desc>
<time>2010-06-13T09:33:17.80</time>
<name>10280</name>
</trkpt>
<trkpt lat="49.177868" lon="11.847212">
<ele>584.6</ele>
<speed>14.2</speed>
<course>218.9</course>
<desc>Speed 14.2 km/h Distance 40.56 km</desc>
<time>2010-06-13T09:33:18.79</time>
<name>10281</name>
</trkpt>
<trkpt lat="49.177790" lon="11.847115">
<ele>585.8</ele>
<speed>15.0</speed>
<course>224.4</course>
<desc>Speed 15.0 km/h Distance 40.57 km</desc>
<time>2010-06-13T09:33:20.81</time>
<name>10282</name>
</trkpt>
<trkpt lat="49.177760" lon="11.847070">
<ele>584.8</ele>
<speed>14.3</speed>
<course>227.5</course>
<desc>Speed 14.3 km/h Distance 40.58 km</desc>
<time>2010-06-13T09:33:21.80</time>
<name>10283</name>
</trkpt>
<trkpt lat="49.177740" lon="11.847037">
<ele>583.4</ele>
<speed>10.8</speed>
<course>232.6</course>
<desc>Speed 10.8 km/h Distance 40.58 km</desc>
<time>2010-06-13T09:33:22.80</time>
<name>10284</name>
</trkpt>
<trkpt lat="49.177717" lon="11.846990">
<ele>580.5</ele>
<speed>10.8</speed>
<course>220.2</course>
<desc>Speed 10.8 km/h Distance 40.58 km</desc>
<time>2010-06-13T09:33:23.81</time>
<name>10285</name>
</trkpt>
<trkpt lat="49.177688" lon="11.846953">
<ele>578.8</ele>
<speed>10.9</speed>
<course>210.2</course>
<desc>Speed 10.9 km/h Distance 40.59 km</desc>
<time>2010-06-13T09:33:24.79</time>
<name>10286</name>
</trkpt>
<trkpt lat="49.177658" lon="11.846927">
<ele>576.6</ele>
<speed>9.8</speed>
<course>190.0</course>
<desc>Speed 9.8 km/h Distance 40.59 km</desc>
<time>2010-06-13T09:33:25.79</time>
<name>10287</name>
</trkpt>
<trkpt lat="49.177633" lon="11.846920">
<ele>573.9</ele>
<speed>8.7</speed>
<course>213.2</course>
<desc>Speed 8.7 km/h Distance 40.59 km</desc>
<time>2010-06-13T09:33:26.80</time>
<name>10288</name>
</trkpt>
<trkpt lat="49.177613" lon="11.846900">
<ele>571.2</ele>
<speed>7.5</speed>
<course>230.2</course>
<desc>Speed 7.5 km/h Distance 40.60 km</desc>
<time>2010-06-13T09:33:27.81</time>
<name>10289</name>
</trkpt>
<trkpt lat="49.177603" lon="11.846882">
<ele>569.2</ele>
<speed>6.0</speed>
<course>230.7</course>
<desc>Speed 6.0 km/h Distance 40.60 km</desc>
<time>2010-06-13T09:33:28.80</time>
<name>10290</name>
</trkpt>
<trkpt lat="49.177590" lon="11.846857">
<ele>565.7</ele>
<speed>6.8</speed>
<course>226.3</course>
<desc>Speed 6.8 km/h Distance 40.60 km</desc>
<time>2010-06-13T09:33:29.79</time>
<name>10291</name>
</trkpt>
<trkpt lat="49.177573" lon="11.846830">
<ele>564.5</ele>
<speed>6.9</speed>
<course>200.8</course>
<desc>Speed 6.9 km/h Distance 40.60 km</desc>
<time>2010-06-13T09:33:30.80</time>
<name>10292</name>
</trkpt>
<trkpt lat="49.177553" lon="11.846818">
<ele>563.9</ele>
<speed>6.9</speed>
<course>204.4</course>
<desc>Speed 6.9 km/h Distance 40.61 km</desc>
<time>2010-06-13T09:33:31.79</time>
<name>10293</name>
</trkpt>
<trkpt lat="49.177532" lon="11.846803">
<ele>560.5</ele>
<speed>9.0</speed>
<course>207.6</course>
<desc>Speed 9.0 km/h Distance 40.61 km</desc>
<time>2010-06-13T09:33:32.80</time>
<name>10294</name>
</trkpt>
<trkpt lat="49.177507" lon="11.846783">
<ele>558.8</ele>
<speed>10.4</speed>
<course>201.5</course>
<desc>Speed 10.4 km/h Distance 40.61 km</desc>
<time>2010-06-13T09:33:33.80</time>
<name>10295</name>
</trkpt>
<trkpt lat="49.177482" lon="11.846768">
<ele>557.2</ele>
<speed>11.5</speed>
<course>186.7</course>
<desc>Speed 11.5 km/h Distance 40.62 km</desc>
<time>2010-06-13T09:33:34.79</time>
<name>10296</name>
</trkpt>
<trkpt lat="49.177445" lon="11.846762">
<ele>555.7</ele>
<speed>12.4</speed>
<course>185.3</course>
<desc>Speed 12.4 km/h Distance 40.62 km</desc>
<time>2010-06-13T09:33:35.80</time>
<name>10297</name>
</trkpt>
<trkpt lat="49.177398" lon="11.846755">
<ele>554.8</ele>
<speed>14.5</speed>
<course>166.1</course>
<desc>Speed 14.5 km/h Distance 40.62 km</desc>
<time>2010-06-13T09:33:36.81</time>
<name>10298</name>
</trkpt>
<trkpt lat="49.177363" lon="11.846768">
<ele>554.7</ele>
<speed>16.5</speed>
<course>168.6</course>
<desc>Speed 16.5 km/h Distance 40.63 km</desc>
<time>2010-06-13T09:33:37.79</time>
<name>10299</name>
</trkpt>
<trkpt lat="49.177320" lon="11.846782">
<ele>554.0</ele>
<speed>17.2</speed>
<course>170.4</course>
<desc>Speed 17.2 km/h Distance 40.63 km</desc>
<time>2010-06-13T09:33:38.81</time>
<name>10300</name>
</trkpt>
<trkpt lat="49.177275" lon="11.846793">
<ele>551.9</ele>
<speed>17.3</speed>
<course>179.2</course>
<desc>Speed 17.3 km/h Distance 40.64 km</desc>
<time>2010-06-13T09:33:39.78</time>
<name>10301</name>
</trkpt>
<trkpt lat="49.177213" lon="11.846795">
<ele>551.6</ele>
<speed>20.5</speed>
<course>179.8</course>
<desc>Speed 20.5 km/h Distance 40.65 km</desc>
<time>2010-06-13T09:33:40.80</time>
<name>10302</name>
</trkpt>
<trkpt lat="49.177152" lon="11.846797">
<ele>549.7</ele>
<speed>21.8</speed>
<course>182.0</course>
<desc>Speed 21.8 km/h Distance 40.65 km</desc>
<time>2010-06-13T09:33:41.79</time>
<name>10303</name>
</trkpt>
<trkpt lat="49.177090" lon="11.846793">
<ele>548.6</ele>
<speed>21.2</speed>
<course>182.1</course>
<desc>Speed 21.2 km/h Distance 40.66 km</desc>
<time>2010-06-13T09:33:42.81</time>
<name>10304</name>
</trkpt>
<trkpt lat="49.177027" lon="11.846790">
<ele>546.8</ele>
<speed>19.9</speed>
<course>181.1</course>
<desc>Speed 19.9 km/h Distance 40.67 km</desc>
<time>2010-06-13T09:33:43.81</time>
<name>10305</name>
</trkpt>
<trkpt lat="49.176968" lon="11.846788">
<ele>548.2</ele>
<speed>16.5</speed>
<course>179.4</course>
<desc>Speed 16.5 km/h Distance 40.67 km</desc>
<time>2010-06-13T09:33:44.78</time>
<name>10306</name>
</trkpt>
<trkpt lat="49.176922" lon="11.846788">
<ele>547.8</ele>
<speed>13.6</speed>
<course>165.4</course>
<desc>Speed 13.6 km/h Distance 40.68 km</desc>
<time>2010-06-13T09:33:45.80</time>
<name>10307</name>
</trkpt>
<trkpt lat="49.176897" lon="11.846798">
<ele>546.9</ele>
<speed>11.1</speed>
<course>169.1</course>
<desc>Speed 11.1 km/h Distance 40.68 km</desc>
<time>2010-06-13T09:33:46.81</time>
<name>10308</name>
</trkpt>
<trkpt lat="49.176868" lon="11.846807">
<ele>543.7</ele>
<speed>9.1</speed>
<course>168.3</course>
<desc>Speed 9.1 km/h Distance 40.68 km</desc>
<time>2010-06-13T09:33:47.80</time>
<name>10309</name>
</trkpt>
<trkpt lat="49.176837" lon="11.846817">
<ele>540.4</ele>
<speed>10.2</speed>
<course>157.1</course>
<desc>Speed 10.2 km/h Distance 40.69 km</desc>
<time>2010-06-13T09:33:48.80</time>
<name>10310</name>
</trkpt>
<trkpt lat="49.176813" lon="11.846832">
<ele>540.9</ele>
<speed>9.1</speed>
<course>174.4</course>
<desc>Speed 9.1 km/h Distance 40.69 km</desc>
<time>2010-06-13T09:33:49.79</time>
<name>10311</name>
</trkpt>
<trkpt lat="49.176790" lon="11.846835">
<ele>539.3</ele>
<speed>8.8</speed>
<course>207.0</course>
<desc>Speed 8.8 km/h Distance 40.69 km</desc>
<time>2010-06-13T09:33:50.80</time>
<name>10312</name>
</trkpt>
<trkpt lat="49.176775" lon="11.846823">
<ele>537.5</ele>
<speed>8.6</speed>
<course>185.9</course>
<desc>Speed 8.6 km/h Distance 40.69 km</desc>
<time>2010-06-13T09:33:51.79</time>
<name>10313</name>
</trkpt>
<trkpt lat="49.176745" lon="11.846818">
<ele>535.4</ele>
<speed>9.5</speed>
<course>191.6</course>
<desc>Speed 9.5 km/h Distance 40.70 km</desc>
<time>2010-06-13T09:33:52.79</time>
<name>10314</name>
</trkpt>
<trkpt lat="49.176713" lon="11.846808">
<ele>533.2</ele>
<speed>9.5</speed>
<course>197.1</course>
<desc>Speed 9.5 km/h Distance 40.70 km</desc>
<time>2010-06-13T09:33:53.79</time>
<name>10315</name>
</trkpt>
<trkpt lat="49.176685" lon="11.846795">
<ele>535.1</ele>
<speed>8.3</speed>
<course>210.2</course>
<desc>Speed 8.3 km/h Distance 40.71 km</desc>
<time>2010-06-13T09:33:54.80</time>
<name>10316</name>
</trkpt>
<trkpt lat="49.176670" lon="11.846782">
<ele>531.0</ele>
<speed>8.1</speed>
<course>190.4</course>
<desc>Speed 8.1 km/h Distance 40.71 km</desc>
<time>2010-06-13T09:33:55.80</time>
<name>10317</name>
</trkpt>
<trkpt lat="49.176640" lon="11.846773">
<ele>532.3</ele>
<speed>8.0</speed>
<course>178.8</course>
<desc>Speed 8.0 km/h Distance 40.71 km</desc>
<time>2010-06-13T09:33:56.81</time>
<name>10318</name>
</trkpt>
<trkpt lat="49.176613" lon="11.846773">
<ele>530.3</ele>
<speed>7.9</speed>
<course>193.0</course>
<desc>Speed 7.9 km/h Distance 40.71 km</desc>
<time>2010-06-13T09:33:57.80</time>
<name>10319</name>
</trkpt>
<trkpt lat="49.176585" lon="11.846763">
<ele>531.6</ele>
<speed>8.5</speed>
<course>184.5</course>
<desc>Speed 8.5 km/h Distance 40.72 km</desc>
<time>2010-06-13T09:33:58.80</time>
<name>10320</name>
</trkpt>
<trkpt lat="49.176557" lon="11.846760">
<ele>533.8</ele>
<speed>8.7</speed>
<course>190.8</course>
<desc>Speed 8.7 km/h Distance 40.72 km</desc>
<time>2010-06-13T09:33:59.80</time>
<name>10321</name>
</trkpt>
<trkpt lat="49.176533" lon="11.846753">
<ele>532.6</ele>
<speed>8.1</speed>
<course>182.2</course>
<desc>Speed 8.1 km/h Distance 40.72 km</desc>
<time>2010-06-13T09:34:00.80</time>
<name>10322</name>
</trkpt>
<trkpt lat="49.176507" lon="11.846752">
<ele>531.6</ele>
<speed>7.3</speed>
<course>202.9</course>
<desc>Speed 7.3 km/h Distance 40.73 km</desc>
<time>2010-06-13T09:34:01.80</time>
<name>10323</name>
</trkpt>
<trkpt lat="49.176478" lon="11.846733">
<ele>532.6</ele>
<speed>6.9</speed>
<course>216.1</course>
<desc>Speed 6.9 km/h Distance 40.73 km</desc>
<time>2010-06-13T09:34:02.79</time>
<name>10324</name>
</trkpt>
<trkpt lat="49.176450" lon="11.846702">
<ele>534.3</ele>
<speed>8.9</speed>
<course>210.7</course>
<desc>Speed 8.9 km/h Distance 40.73 km</desc>
<time>2010-06-13T09:34:03.82</time>
<name>10325</name>
</trkpt>
<trkpt lat="49.176432" lon="11.846685">
<ele>538.4</ele>
<speed>8.4</speed>
<course>229.3</course>
<desc>Speed 8.4 km/h Distance 40.74 km</desc>
<time>2010-06-13T09:34:04.80</time>
<name>10326</name>
</trkpt>
<trkpt lat="49.176417" lon="11.846658">
<ele>538.1</ele>
<speed>6.0</speed>
<course>209.3</course>
<desc>Speed 6.0 km/h Distance 40.74 km</desc>
<time>2010-06-13T09:34:05.80</time>
<name>10327</name>
</trkpt>
<trkpt lat="49.176358" lon="11.846608">
<ele>542.3</ele>
<speed>8.8</speed>
<course>209.0</course>
<desc>Speed 8.8 km/h Distance 40.75 km</desc>
<time>2010-06-13T09:34:07.80</time>
<name>10328</name>
</trkpt>
<trkpt lat="49.176337" lon="11.846590">
<ele>541.3</ele>
<speed>8.2</speed>
<course>225.3</course>
<desc>Speed 8.2 km/h Distance 40.75 km</desc>
<time>2010-06-13T09:34:08.80</time>
<name>10329</name>
</trkpt>
<trkpt lat="49.176318" lon="11.846562">
<ele>542.3</ele>
<speed>7.3</speed>
<course>213.2</course>
<desc>Speed 7.3 km/h Distance 40.75 km</desc>
<time>2010-06-13T09:34:09.82</time>
<name>10330</name>
</trkpt>
<trkpt lat="49.176293" lon="11.846537">
<ele>543.2</ele>
<speed>6.5</speed>
<course>217.7</course>
<desc>Speed 6.5 km/h Distance 40.75 km</desc>
<time>2010-06-13T09:34:10.79</time>
<name>10331</name>
</trkpt>
<trkpt lat="49.176275" lon="11.846515">
<ele>540.9</ele>
<speed>8.0</speed>
<course>189.0</course>
<desc>Speed 8.0 km/h Distance 40.76 km</desc>
<time>2010-06-13T09:34:11.79</time>
<name>10332</name>
</trkpt>
<trkpt lat="49.176262" lon="11.846512">
<ele>537.5</ele>
<speed>7.7</speed>
<course>234.5</course>
<desc>Speed 7.7 km/h Distance 40.76 km</desc>
<time>2010-06-13T09:34:12.80</time>
<name>10333</name>
</trkpt>
<trkpt lat="49.176250" lon="11.846487">
<ele>536.8</ele>
<speed>7.9</speed>
<course>211.4</course>
<desc>Speed 7.9 km/h Distance 40.76 km</desc>
<time>2010-06-13T09:34:13.78</time>
<name>10334</name>
</trkpt>
<trkpt lat="49.176225" lon="11.846463">
<ele>540.3</ele>
<speed>10.0</speed>
<course>221.1</course>
<desc>Speed 10.0 km/h Distance 40.76 km</desc>
<time>2010-06-13T09:34:14.78</time>
<name>10335</name>
</trkpt>
<trkpt lat="49.176200" lon="11.846430">
<ele>543.0</ele>
<speed>9.5</speed>
<course>246.4</course>
<desc>Speed 9.5 km/h Distance 40.77 km</desc>
<time>2010-06-13T09:34:15.80</time>
<name>10336</name>
</trkpt>
<trkpt lat="49.176190" lon="11.846395">
<ele>545.4</ele>
<speed>8.3</speed>
<course>266.6</course>
<desc>Speed 8.3 km/h Distance 40.77 km</desc>
<time>2010-06-13T09:34:16.79</time>
<name>10337</name>
</trkpt>
<trkpt lat="49.176188" lon="11.846352">
<ele>549.3</ele>
<speed>8.6</speed>
<course>274.9</course>
<desc>Speed 8.6 km/h Distance 40.77 km</desc>
<time>2010-06-13T09:34:17.79</time>
<name>10338</name>
</trkpt>
<trkpt lat="49.176190" lon="11.846322">
<ele>549.1</ele>
<speed>7.5</speed>
<course>266.0</course>
<desc>Speed 7.5 km/h Distance 40.78 km</desc>
<time>2010-06-13T09:34:18.80</time>
<name>10339</name>
</trkpt>
<trkpt lat="49.176188" lon="11.846285">
<ele>551.5</ele>
<speed>7.6</speed>
<course>270.0</course>
<desc>Speed 7.6 km/h Distance 40.78 km</desc>
<time>2010-06-13T09:34:19.80</time>
<name>10340</name>
</trkpt>
<trkpt lat="49.176188" lon="11.846253">
<ele>553.8</ele>
<speed>5.4</speed>
<course>241.3</course>
<desc>Speed 5.4 km/h Distance 40.78 km</desc>
<time>2010-06-13T09:34:20.79</time>
<name>10341</name>
</trkpt>
<trkpt lat="49.176180" lon="11.846230">
<ele>557.8</ele>
<speed>5.4</speed>
<course>270.0</course>
<desc>Speed 5.4 km/h Distance 40.78 km</desc>
<time>2010-06-13T09:34:21.80</time>
<name>10342</name>
</trkpt>
<trkpt lat="49.176180" lon="11.846193">
<ele>560.3</ele>
<speed>6.5</speed>
<course>270.0</course>
<desc>Speed 6.5 km/h Distance 40.79 km</desc>
<time>2010-06-13T09:34:22.80</time>
<name>10343</name>
</trkpt>
<trkpt lat="49.176180" lon="11.846150">
<ele>562.2</ele>
<speed>7.3</speed>
<course>258.6</course>
<desc>Speed 7.3 km/h Distance 40.79 km</desc>
<time>2010-06-13T09:34:23.79</time>
<name>10344</name>
</trkpt>
<trkpt lat="49.176163" lon="11.846023">
<ele>563.1</ele>
<speed>10.3</speed>
<course>240.9</course>
<desc>Speed 10.3 km/h Distance 40.80 km</desc>
<time>2010-06-13T09:34:25.80</time>
<name>10345</name>
</trkpt>
<trkpt lat="49.176150" lon="11.845987">
<ele>561.6</ele>
<speed>11.8</speed>
<course>257.0</course>
<desc>Speed 11.8 km/h Distance 40.80 km</desc>
<time>2010-06-13T09:34:26.79</time>
<name>10346</name>
</trkpt>
<trkpt lat="49.176142" lon="11.845932">
<ele>561.3</ele>
<speed>10.9</speed>
<course>256.6</course>
<desc>Speed 10.9 km/h Distance 40.80 km</desc>
<time>2010-06-13T09:34:27.80</time>
<name>10347</name>
</trkpt>
<trkpt lat="49.176133" lon="11.845878">
<ele>565.7</ele>
<speed>10.4</speed>
<course>265.4</course>
<desc>Speed 10.4 km/h Distance 40.81 km</desc>
<time>2010-06-13T09:34:28.80</time>
<name>10348</name>
</trkpt>
<trkpt lat="49.176130" lon="11.845815">
<ele>564.0</ele>
<speed>11.2</speed>
<course>261.0</course>
<desc>Speed 11.2 km/h Distance 40.81 km</desc>
<time>2010-06-13T09:34:29.80</time>
<name>10349</name>
</trkpt>
<trkpt lat="49.176125" lon="11.845767">
<ele>562.3</ele>
<speed>11.2</speed>
<course>244.6</course>
<desc>Speed 11.2 km/h Distance 40.82 km</desc>
<time>2010-06-13T09:34:30.81</time>
<name>10350</name>
</trkpt>
<trkpt lat="49.176110" lon="11.845718">
<ele>563.0</ele>
<speed>11.3</speed>
<course>232.6</course>
<desc>Speed 11.3 km/h Distance 40.82 km</desc>
<time>2010-06-13T09:34:31.81</time>
<name>10351</name>
</trkpt>
<trkpt lat="49.176095" lon="11.845688">
<ele>566.0</ele>
<speed>9.8</speed>
<course>151.4</course>
<desc>Speed 9.8 km/h Distance 40.82 km</desc>
<time>2010-06-13T09:34:32.81</time>
<name>10352</name>
</trkpt>
<trkpt lat="49.176085" lon="11.845697">
<ele>565.6</ele>
<speed>7.0</speed>
<course>176.1</course>
<desc>Speed 7.0 km/h Distance 40.83 km</desc>
<time>2010-06-13T09:34:33.81</time>
<name>10353</name>
</trkpt>
<trkpt lat="49.176072" lon="11.845698">
<ele>567.2</ele>
<speed>7.6</speed>
<course>159.8</course>
<desc>Speed 7.6 km/h Distance 40.83 km</desc>
<time>2010-06-13T09:34:34.79</time>
<name>10354</name>
</trkpt>
<trkpt lat="49.176060" lon="11.845705">
<ele>565.8</ele>
<speed>7.3</speed>
<course>138.8</course>
<desc>Speed 7.3 km/h Distance 40.83 km</desc>
<time>2010-06-13T09:34:35.81</time>
<name>10355</name>
</trkpt>
<trkpt lat="49.176050" lon="11.845718">
<ele>563.6</ele>
<speed>7.4</speed>
<course>157.7</course>
<desc>Speed 7.4 km/h Distance 40.83 km</desc>
<time>2010-06-13T09:34:36.81</time>
<name>10356</name>
</trkpt>
<trkpt lat="49.176037" lon="11.845727">
<ele>562.3</ele>
<speed>7.3</speed>
<course>153.8</course>
<desc>Speed 7.3 km/h Distance 40.83 km</desc>
<time>2010-06-13T09:34:37.80</time>
<name>10357</name>
</trkpt>
<trkpt lat="49.176023" lon="11.845737">
<ele>561.1</ele>
<speed>6.4</speed>
<course>161.9</course>
<desc>Speed 6.4 km/h Distance 40.83 km</desc>
<time>2010-06-13T09:34:38.81</time>
<name>10358</name>
</trkpt>
<trkpt lat="49.176010" lon="11.845743">
<ele>559.7</ele>
<speed>7.3</speed>
<course>163.4</course>
<desc>Speed 7.3 km/h Distance 40.83 km</desc>
<time>2010-06-13T09:34:39.80</time>
<name>10359</name>
</trkpt>
<trkpt lat="49.175995" lon="11.845750">
<ele>557.9</ele>
<speed>7.6</speed>
<course>149.7</course>
<desc>Speed 7.6 km/h Distance 40.84 km</desc>
<time>2010-06-13T09:34:40.80</time>
<name>10360</name>
</trkpt>
<trkpt lat="49.175980" lon="11.845763">
<ele>556.6</ele>
<speed>7.4</speed>
<course>143.6</course>
<desc>Speed 7.4 km/h Distance 40.84 km</desc>
<time>2010-06-13T09:34:41.82</time>
<name>10361</name>
</trkpt>
<trkpt lat="49.175967" lon="11.845778">
<ele>555.9</ele>
<speed>7.0</speed>
<course>138.0</course>
<desc>Speed 7.0 km/h Distance 40.84 km</desc>
<time>2010-06-13T09:34:42.81</time>
<name>10362</name>
</trkpt>
<trkpt lat="49.175953" lon="11.845797">
<ele>555.2</ele>
<speed>7.2</speed>
<course>140.6</course>
<desc>Speed 7.2 km/h Distance 40.84 km</desc>
<time>2010-06-13T09:34:43.80</time>
<name>10363</name>
</trkpt>
<trkpt lat="49.175940" lon="11.845813">
<ele>554.8</ele>
<speed>6.8</speed>
<course>134.2</course>
<desc>Speed 6.8 km/h Distance 40.84 km</desc>
<time>2010-06-13T09:34:44.80</time>
<name>10364</name>
</trkpt>
<trkpt lat="49.175928" lon="11.845832">
<ele>554.1</ele>
<speed>5.5</speed>
<course>127.0</course>
<desc>Speed 5.5 km/h Distance 40.85 km</desc>
<time>2010-06-13T09:34:45.80</time>
<name>10365</name>
</trkpt>
<trkpt lat="49.175925" lon="11.845838">
<ele>552.1</ele>
<speed>5.8</speed>
<course>154.8</course>
<desc>Speed 5.8 km/h Distance 40.85 km</desc>
<time>2010-06-13T09:34:46.80</time>
<name>10366</name>
</trkpt>
<trkpt lat="49.175913" lon="11.845847">
<ele>551.7</ele>
<speed>6.3</speed>
<course>157.9</course>
<desc>Speed 6.3 km/h Distance 40.85 km</desc>
<time>2010-06-13T09:34:47.81</time>
<name>10367</name>
</trkpt>
<trkpt lat="49.175900" lon="11.845855">
<ele>551.2</ele>
<speed>5.6</speed>
<course>162.4</course>
<desc>Speed 5.6 km/h Distance 40.85 km</desc>
<time>2010-06-13T09:34:48.80</time>
<name>10368</name>
</trkpt>
<trkpt lat="49.175890" lon="11.845860">
<ele>550.8</ele>
<speed>5.6</speed>
<course>142.5</course>
<desc>Speed 5.6 km/h Distance 40.85 km</desc>
<time>2010-06-13T09:34:49.81</time>
<name>10369</name>
</trkpt>
<trkpt lat="49.175880" lon="11.845872">
<ele>550.1</ele>
<speed>5.9</speed>
<course>135.5</course>
<desc>Speed 5.9 km/h Distance 40.85 km</desc>
<time>2010-06-13T09:34:50.81</time>
<name>10370</name>
</trkpt>
<trkpt lat="49.175870" lon="11.845887">
<ele>549.7</ele>
<speed>6.1</speed>
<course>150.2</course>
<desc>Speed 6.1 km/h Distance 40.85 km</desc>
<time>2010-06-13T09:34:51.80</time>
<name>10371</name>
</trkpt>
<trkpt lat="49.175857" lon="11.845898">
<ele>549.3</ele>
<speed>5.8</speed>
<course>142.5</course>
<desc>Speed 5.8 km/h Distance 40.85 km</desc>
<time>2010-06-13T09:34:52.81</time>
<name>10372</name>
</trkpt>
<trkpt lat="49.175847" lon="11.845910">
<ele>549.0</ele>
<speed>6.4</speed>
<course>136.9</course>
<desc>Speed 6.4 km/h Distance 40.86 km</desc>
<time>2010-06-13T09:34:53.79</time>
<name>10373</name>
</trkpt>
<trkpt lat="49.175835" lon="11.845927">
<ele>548.8</ele>
<speed>6.3</speed>
<course>140.0</course>
<desc>Speed 6.3 km/h Distance 40.86 km</desc>
<time>2010-06-13T09:34:54.79</time>
<name>10374</name>
</trkpt>
<trkpt lat="49.175823" lon="11.845942">
<ele>548.8</ele>
<speed>6.2</speed>
<course>138.8</course>
<desc>Speed 6.2 km/h Distance 40.86 km</desc>
<time>2010-06-13T09:34:55.81</time>
<name>10375</name>
</trkpt>
<trkpt lat="49.175813" lon="11.845955">
<ele>548.6</ele>
<speed>5.7</speed>
<course>159.4</course>
<desc>Speed 5.7 km/h Distance 40.86 km</desc>
<time>2010-06-13T09:34:56.78</time>
<name>10376</name>
</trkpt>
<trkpt lat="49.175802" lon="11.845962">
<ele>549.5</ele>
<speed>6.3</speed>
<course>153.8</course>
<desc>Speed 6.3 km/h Distance 40.86 km</desc>
<time>2010-06-13T09:34:57.81</time>
<name>10377</name>
</trkpt>
<trkpt lat="49.175788" lon="11.845972">
<ele>549.5</ele>
<speed>5.9</speed>
<course>141.9</course>
<desc>Speed 5.9 km/h Distance 40.86 km</desc>
<time>2010-06-13T09:34:58.80</time>
<name>10378</name>
</trkpt>
<trkpt lat="49.175780" lon="11.845982">
<ele>551.0</ele>
<speed>5.5</speed>
<course>198.1</course>
<desc>Speed 5.5 km/h Distance 40.87 km</desc>
<time>2010-06-13T09:34:59.79</time>
<name>10379</name>
</trkpt>
<trkpt lat="49.175763" lon="11.845973">
<ele>552.9</ele>
<speed>4.5</speed>
<course>107.0</course>
<desc>Speed 4.5 km/h Distance 40.87 km</desc>
<time>2010-06-13T09:35:00.80</time>
<name>10380</name>
</trkpt>
<trkpt lat="49.175760" lon="11.845990">
<ele>551.5</ele>
<speed>4.1</speed>
<course>140.0</course>
<desc>Speed 4.1 km/h Distance 40.87 km</desc>
<time>2010-06-13T09:35:01.80</time>
<name>10381</name>
</trkpt>
<trkpt lat="49.175748" lon="11.846005">
<ele>550.5</ele>
<speed>4.8</speed>
<course>180.0</course>
<desc>Speed 4.8 km/h Distance 40.87 km</desc>
<time>2010-06-13T09:35:02.79</time>
<name>10382</name>
</trkpt>
<trkpt lat="49.175742" lon="11.846005">
<ele>549.7</ele>
<speed>5.3</speed>
<course>125.2</course>
<desc>Speed 5.3 km/h Distance 40.87 km</desc>
<time>2010-06-13T09:35:03.79</time>
<name>10383</name>
</trkpt>
<trkpt lat="49.175732" lon="11.846027">
<ele>548.6</ele>
<speed>5.1</speed>
<course>160.5</course>
<desc>Speed 5.1 km/h Distance 40.87 km</desc>
<time>2010-06-13T09:35:04.79</time>
<name>10384</name>
</trkpt>
<trkpt lat="49.175713" lon="11.846037">
<ele>549.3</ele>
<speed>5.9</speed>
<course>173.4</course>
<desc>Speed 5.9 km/h Distance 40.88 km</desc>
<time>2010-06-13T09:35:05.79</time>
<name>10385</name>
</trkpt>
<trkpt lat="49.175693" lon="11.846040">
<ele>551.8</ele>
<speed>6.4</speed>
<course>153.6</course>
<desc>Speed 6.4 km/h Distance 40.88 km</desc>
<time>2010-06-13T09:35:06.79</time>
<name>10386</name>
</trkpt>
<trkpt lat="49.175687" lon="11.846045">
<ele>553.3</ele>
<speed>5.3</speed>
<course>198.2</course>
<desc>Speed 5.3 km/h Distance 40.88 km</desc>
<time>2010-06-13T09:35:07.80</time>
<name>10387</name>
</trkpt>
<trkpt lat="49.175677" lon="11.846040">
<ele>556.1</ele>
<speed>4.4</speed>
<course>157.9</course>
<desc>Speed 4.4 km/h Distance 40.88 km</desc>
<time>2010-06-13T09:35:08.80</time>
<name>10388</name>
</trkpt>
<trkpt lat="49.175663" lon="11.846048">
<ele>556.2</ele>
<speed>4.9</speed>
<course>153.6</course>
<desc>Speed 4.9 km/h Distance 40.88 km</desc>
<time>2010-06-13T09:35:09.81</time>
<name>10389</name>
</trkpt>
<trkpt lat="49.175657" lon="11.846053">
<ele>556.7</ele>
<speed>4.0</speed>
<course>180.0</course>
<desc>Speed 4.0 km/h Distance 40.88 km</desc>
<time>2010-06-13T09:35:10.80</time>
<name>10390</name>
</trkpt>
<trkpt lat="49.175645" lon="11.846053">
<ele>559.8</ele>
<speed>3.7</speed>
<course>137.7</course>
<desc>Speed 3.7 km/h Distance 40.88 km</desc>
<time>2010-06-13T09:35:11.80</time>
<name>10391</name>
</trkpt>
<trkpt lat="49.175637" lon="11.846065">
<ele>562.1</ele>
<speed>4.5</speed>
<course>172.5</course>
<desc>Speed 4.5 km/h Distance 40.88 km</desc>
<time>2010-06-13T09:35:12.80</time>
<name>10392</name>
</trkpt>
<trkpt lat="49.175622" lon="11.846068">
<ele>563.3</ele>
<speed>4.7</speed>
<course>138.1</course>
<desc>Speed 4.7 km/h Distance 40.89 km</desc>
<time>2010-06-13T09:35:13.81</time>
<name>10393</name>
</trkpt>
<trkpt lat="49.175608" lon="11.846087">
<ele>564.5</ele>
<speed>5.3</speed>
<course>146.8</course>
<desc>Speed 5.3 km/h Distance 40.89 km</desc>
<time>2010-06-13T09:35:14.81</time>
<name>10394</name>
</trkpt>
<trkpt lat="49.175595" lon="11.846100">
<ele>562.8</ele>
<speed>4.7</speed>
<course>149.4</course>
<desc>Speed 4.7 km/h Distance 40.89 km</desc>
<time>2010-06-13T09:35:15.81</time>
<name>10395</name>
</trkpt>
<trkpt lat="49.175578" lon="11.846115">
<ele>567.0</ele>
<speed>4.5</speed>
<course>153.6</course>
<desc>Speed 4.5 km/h Distance 40.89 km</desc>
<time>2010-06-13T09:35:16.80</time>
<name>10396</name>
</trkpt>
<trkpt lat="49.175572" lon="11.846120">
<ele>566.7</ele>
<speed>5.0</speed>
<course>164.5</course>
<desc>Speed 5.0 km/h Distance 40.89 km</desc>
<time>2010-06-13T09:35:17.79</time>
<name>10397</name>
</trkpt>
<trkpt lat="49.175560" lon="11.846125">
<ele>569.0</ele>
<speed>4.4</speed>
<course>141.9</course>
<desc>Speed 4.4 km/h Distance 40.89 km</desc>
<time>2010-06-13T09:35:18.80</time>
<name>10398</name>
</trkpt>
<trkpt lat="49.175552" lon="11.846135">
<ele>570.6</ele>
<speed>4.4</speed>
<course>152.4</course>
<desc>Speed 4.4 km/h Distance 40.90 km</desc>
<time>2010-06-13T09:35:19.79</time>
<name>10399</name>
</trkpt>
<trkpt lat="49.175535" lon="11.846148">
<ele>573.1</ele>
<speed>4.4</speed>
<course>166.9</course>
<desc>Speed 4.4 km/h Distance 40.90 km</desc>
<time>2010-06-13T09:35:20.80</time>
<name>10400</name>
</trkpt>
<trkpt lat="49.175517" lon="11.846155">
<ele>573.8</ele>
<speed>3.7</speed>
<course>196.0</course>
<desc>Speed 3.7 km/h Distance 40.90 km</desc>
<time>2010-06-13T09:35:21.80</time>
<name>10401</name>
</trkpt>
<trkpt lat="49.175505" lon="11.846150">
<ele>571.9</ele>
<speed>4.2</speed>
<course>158.5</course>
<desc>Speed 4.2 km/h Distance 40.90 km</desc>
<time>2010-06-13T09:35:22.80</time>
<name>10402</name>
</trkpt>
<trkpt lat="49.175488" lon="11.846160">
<ele>571.3</ele>
<speed>6.4</speed>
<course>162.0</course>
<desc>Speed 6.4 km/h Distance 40.90 km</desc>
<time>2010-06-13T09:35:23.81</time>
<name>10403</name>
</trkpt>
<trkpt lat="49.175468" lon="11.846170">
<ele>571.8</ele>
<speed>5.1</speed>
<course>167.4</course>
<desc>Speed 5.1 km/h Distance 40.91 km</desc>
<time>2010-06-13T09:35:24.79</time>
<name>10404</name>
</trkpt>
<trkpt lat="49.175463" lon="11.846172">
<ele>571.8</ele>
<speed>4.0</speed>
<course>177.2</course>
<desc>Speed 4.0 km/h Distance 40.91 km</desc>
<time>2010-06-13T09:35:25.79</time>
<name>10405</name>
</trkpt>
<trkpt lat="49.175447" lon="11.846173">
<ele>572.8</ele>
<speed>3.4</speed>
<course>192.6</course>
<desc>Speed 3.4 km/h Distance 40.91 km</desc>
<time>2010-06-13T09:35:26.80</time>
<name>10406</name>
</trkpt>
<trkpt lat="49.175437" lon="11.846170">
<ele>572.9</ele>
<speed>3.0</speed>
<course>135.7</course>
<desc>Speed 3.0 km/h Distance 40.91 km</desc>
<time>2010-06-13T09:35:27.80</time>
<name>10407</name>
</trkpt>
<trkpt lat="49.175430" lon="11.846180">
<ele>573.5</ele>
<speed>4.5</speed>
<course>130.4</course>
<desc>Speed 4.5 km/h Distance 40.91 km</desc>
<time>2010-06-13T09:35:28.79</time>
<name>10408</name>
</trkpt>
<trkpt lat="49.175422" lon="11.846195">
<ele>574.6</ele>
<speed>5.3</speed>
<course>119.8</course>
<desc>Speed 5.3 km/h Distance 40.91 km</desc>
<time>2010-06-13T09:35:29.81</time>
<name>10409</name>
</trkpt>
<trkpt lat="49.175412" lon="11.846222">
<ele>575.4</ele>
<speed>5.8</speed>
<course>134.2</course>
<desc>Speed 5.8 km/h Distance 40.91 km</desc>
<time>2010-06-13T09:35:30.81</time>
<name>10410</name>
</trkpt>
<trkpt lat="49.175400" lon="11.846240">
<ele>577.4</ele>
<speed>5.3</speed>
<course>133.6</course>
<desc>Speed 5.3 km/h Distance 40.92 km</desc>
<time>2010-06-13T09:35:31.80</time>
<name>10411</name>
</trkpt>
<trkpt lat="49.175392" lon="11.846253">
<ele>580.1</ele>
<speed>3.9</speed>
<course>107.0</course>
<desc>Speed 3.9 km/h Distance 40.92 km</desc>
<time>2010-06-13T09:35:32.79</time>
<name>10412</name>
</trkpt>
<trkpt lat="49.175387" lon="11.846278">
<ele>581.2</ele>
<speed>4.2</speed>
<course>82.1</course>
<desc>Speed 4.2 km/h Distance 40.92 km</desc>
<time>2010-06-13T09:35:33.81</time>
<name>10413</name>
</trkpt>
<trkpt lat="49.175388" lon="11.846297">
<ele>580.5</ele>
<speed>3.7</speed>
<course>74.9</course>
<desc>Speed 3.7 km/h Distance 40.92 km</desc>
<time>2010-06-13T09:35:34.80</time>
<name>10414</name>
</trkpt>
<trkpt lat="49.175393" lon="11.846325">
<ele>581.3</ele>
<speed>5.3</speed>
<course>94.6</course>
<desc>Speed 5.3 km/h Distance 40.92 km</desc>
<time>2010-06-13T09:35:35.82</time>
<name>10415</name>
</trkpt>
<trkpt lat="49.175392" lon="11.846357">
<ele>582.5</ele>
<speed>4.2</speed>
<course>142.3</course>
<desc>Speed 4.2 km/h Distance 40.92 km</desc>
<time>2010-06-13T09:35:36.81</time>
<name>10416</name>
</trkpt>
<trkpt lat="49.175373" lon="11.846378">
<ele>582.6</ele>
<speed>3.3</speed>
<course>146.8</course>
<desc>Speed 3.3 km/h Distance 40.93 km</desc>
<time>2010-06-13T09:35:37.81</time>
<name>10417</name>
</trkpt>
<trkpt lat="49.175363" lon="11.846388">
<ele>582.6</ele>
<speed>4.3</speed>
<course>132.6</course>
<desc>Speed 4.3 km/h Distance 40.93 km</desc>
<time>2010-06-13T09:35:38.81</time>
<name>10418</name>
</trkpt>
<trkpt lat="49.175353" lon="11.846405">
<ele>583.5</ele>
<speed>5.9</speed>
<course>117.0</course>
<desc>Speed 5.9 km/h Distance 40.93 km</desc>
<time>2010-06-13T09:35:39.82</time>
<name>10419</name>
</trkpt>
<trkpt lat="49.175350" lon="11.846415">
<ele>584.3</ele>
<speed>5.1</speed>
<course>139.7</course>
<desc>Speed 5.1 km/h Distance 40.93 km</desc>
<time>2010-06-13T09:35:40.80</time>
<name>10420</name>
</trkpt>
<trkpt lat="49.175333" lon="11.846437">
<ele>585.2</ele>
<speed>6.5</speed>
<course>155.6</course>
<desc>Speed 6.5 km/h Distance 40.93 km</desc>
<time>2010-06-13T09:35:41.81</time>
<name>10421</name>
</trkpt>
<trkpt lat="49.175312" lon="11.846452">
<ele>586.1</ele>
<speed>6.8</speed>
<course>146.9</course>
<desc>Speed 6.8 km/h Distance 40.94 km</desc>
<time>2010-06-13T09:35:42.81</time>
<name>10422</name>
</trkpt>
<trkpt lat="49.175290" lon="11.846473">
<ele>587.6</ele>
<speed>6.1</speed>
<course>162.1</course>
<desc>Speed 6.1 km/h Distance 40.94 km</desc>
<time>2010-06-13T09:35:43.83</time>
<name>10423</name>
</trkpt>
<trkpt lat="49.175270" lon="11.846483">
<ele>588.3</ele>
<speed>5.6</speed>
<course>164.5</course>
<desc>Speed 5.6 km/h Distance 40.94 km</desc>
<time>2010-06-13T09:35:44.81</time>
<name>10424</name>
</trkpt>
<trkpt lat="49.175258" lon="11.846488">
<ele>588.3</ele>
<speed>3.8</speed>
<course>175.6</course>
<desc>Speed 3.8 km/h Distance 40.94 km</desc>
<time>2010-06-13T09:35:45.81</time>
<name>10425</name>
</trkpt>
<trkpt lat="49.175248" lon="11.846490">
<ele>587.6</ele>
<speed>4.1</speed>
<course>149.8</course>
<desc>Speed 4.1 km/h Distance 40.94 km</desc>
<time>2010-06-13T09:35:46.80</time>
<name>10426</name>
</trkpt>
<trkpt lat="49.175233" lon="11.846503">
<ele>587.6</ele>
<speed>5.4</speed>
<course>156.5</course>
<desc>Speed 5.4 km/h Distance 40.95 km</desc>
<time>2010-06-13T09:35:47.80</time>
<name>10427</name>
</trkpt>
<trkpt lat="49.175218" lon="11.846513">
<ele>587.5</ele>
<speed>5.7</speed>
<course>159.1</course>
<desc>Speed 5.7 km/h Distance 40.95 km</desc>
<time>2010-06-13T09:35:48.79</time>
<name>10428</name>
</trkpt>
<trkpt lat="49.175198" lon="11.846525">
<ele>587.5</ele>
<speed>6.3</speed>
<course>171.5</course>
<desc>Speed 6.3 km/h Distance 40.95 km</desc>
<time>2010-06-13T09:35:49.81</time>
<name>10429</name>
</trkpt>
<trkpt lat="49.175168" lon="11.846532">
<ele>587.8</ele>
<speed>8.2</speed>
<course>167.4</course>
<desc>Speed 8.2 km/h Distance 40.95 km</desc>
<time>2010-06-13T09:35:50.80</time>
<name>10430</name>
</trkpt>
<trkpt lat="49.175153" lon="11.846537">
<ele>587.0</ele>
<speed>7.1</speed>
<course>177.5</course>
<desc>Speed 7.1 km/h Distance 40.95 km</desc>
<time>2010-06-13T09:35:51.80</time>
<name>10431</name>
</trkpt>
<trkpt lat="49.175135" lon="11.846538">
<ele>586.5</ele>
<speed>6.2</speed>
<course>141.4</course>
<desc>Speed 6.2 km/h Distance 40.96 km</desc>
<time>2010-06-13T09:35:52.80</time>
<name>10432</name>
</trkpt>
<trkpt lat="49.175120" lon="11.846557">
<ele>586.6</ele>
<speed>6.6</speed>
<course>161.8</course>
<desc>Speed 6.6 km/h Distance 40.96 km</desc>
<time>2010-06-13T09:35:53.81</time>
<name>10433</name>
</trkpt>
<trkpt lat="49.175110" lon="11.846562">
<ele>585.9</ele>
<speed>5.9</speed>
<course>172.6</course>
<desc>Speed 5.9 km/h Distance 40.96 km</desc>
<time>2010-06-13T09:35:54.82</time>
<name>10434</name>
</trkpt>
<trkpt lat="49.175103" lon="11.846563">
<ele>585.1</ele>
<speed>4.5</speed>
<course>175.0</course>
<desc>Speed 4.5 km/h Distance 40.96 km</desc>
<time>2010-06-13T09:35:55.80</time>
<name>10435</name>
</trkpt>
<trkpt lat="49.175095" lon="11.846565">
<ele>584.6</ele>
<speed>4.9</speed>
<course>149.9</course>
<desc>Speed 4.9 km/h Distance 40.96 km</desc>
<time>2010-06-13T09:35:56.80</time>
<name>10436</name>
</trkpt>
<trkpt lat="49.175080" lon="11.846578">
<ele>585.3</ele>
<speed>4.9</speed>
<course>180.0</course>
<desc>Speed 4.9 km/h Distance 40.96 km</desc>
<time>2010-06-13T09:35:57.79</time>
<name>10437</name>
</trkpt>
<trkpt lat="49.175067" lon="11.846578">
<ele>585.7</ele>
<speed>5.0</speed>
<course>155.1</course>
<desc>Speed 5.0 km/h Distance 40.97 km</desc>
<time>2010-06-13T09:35:58.80</time>
<name>10438</name>
</trkpt>
<trkpt lat="49.175055" lon="11.846587">
<ele>585.5</ele>
<speed>4.6</speed>
<course>168.3</course>
<desc>Speed 4.6 km/h Distance 40.97 km</desc>
<time>2010-06-13T09:35:59.79</time>
<name>10439</name>
</trkpt>
<trkpt lat="49.175040" lon="11.846592">
<ele>585.6</ele>
<speed>5.5</speed>
<course>174.7</course>
<desc>Speed 5.5 km/h Distance 40.97 km</desc>
<time>2010-06-13T09:36:00.79</time>
<name>10440</name>
</trkpt>
<trkpt lat="49.175027" lon="11.846593">
<ele>585.0</ele>
<speed>5.3</speed>
<course>152.0</course>
<desc>Speed 5.3 km/h Distance 40.97 km</desc>
<time>2010-06-13T09:36:01.80</time>
<name>10441</name>
</trkpt>
<trkpt lat="49.175008" lon="11.846608">
<ele>586.1</ele>
<speed>6.0</speed>
<course>176.2</course>
<desc>Speed 6.0 km/h Distance 40.97 km</desc>
<time>2010-06-13T09:36:02.80</time>
<name>10442</name>
</trkpt>
<trkpt lat="49.174993" lon="11.846610">
<ele>585.9</ele>
<speed>5.8</speed>
<course>168.3</course>
<desc>Speed 5.8 km/h Distance 40.97 km</desc>
<time>2010-06-13T09:36:03.80</time>
<name>10443</name>
</trkpt>
<trkpt lat="49.174978" lon="11.846615">
<ele>585.8</ele>
<speed>4.9</speed>
<course>149.5</course>
<desc>Speed 4.9 km/h Distance 40.98 km</desc>
<time>2010-06-13T09:36:04.79</time>
<name>10444</name>
</trkpt>
<trkpt lat="49.174962" lon="11.846630">
<ele>585.9</ele>
<speed>4.6</speed>
<course>162.1</course>
<desc>Speed 4.6 km/h Distance 40.98 km</desc>
<time>2010-06-13T09:36:05.80</time>
<name>10445</name>
</trkpt>
<trkpt lat="49.174945" lon="11.846638">
<ele>586.2</ele>
<speed>5.5</speed>
<course>163.4</course>
<desc>Speed 5.5 km/h Distance 40.98 km</desc>
<time>2010-06-13T09:36:06.79</time>
<name>10446</name>
</trkpt>
<trkpt lat="49.174927" lon="11.846647">
<ele>587.0</ele>
<speed>6.2</speed>
<course>166.4</course>
<desc>Speed 6.2 km/h Distance 40.98 km</desc>
<time>2010-06-13T09:36:07.81</time>
<name>10447</name>
</trkpt>
<trkpt lat="49.174908" lon="11.846653">
<ele>587.2</ele>
<speed>5.3</speed>
<course>168.8</course>
<desc>Speed 5.3 km/h Distance 40.98 km</desc>
<time>2010-06-13T09:36:08.81</time>
<name>10448</name>
</trkpt>
<trkpt lat="49.174892" lon="11.846658">
<ele>587.6</ele>
<speed>5.3</speed>
<course>164.5</course>
<desc>Speed 5.3 km/h Distance 40.99 km</desc>
<time>2010-06-13T09:36:09.81</time>
<name>10449</name>
</trkpt>
<trkpt lat="49.174880" lon="11.846663">
<ele>589.1</ele>
<speed>5.0</speed>
<course>194.3</course>
<desc>Speed 5.0 km/h Distance 40.99 km</desc>
<time>2010-06-13T09:36:10.80</time>
<name>10450</name>
</trkpt>
<trkpt lat="49.174863" lon="11.846657">
<ele>588.2</ele>
<speed>5.4</speed>
<course>180.0</course>
<desc>Speed 5.4 km/h Distance 40.99 km</desc>
<time>2010-06-13T09:36:11.80</time>
<name>10451</name>
</trkpt>
<trkpt lat="49.174847" lon="11.846657">
<ele>588.0</ele>
<speed>5.9</speed>
<course>191.2</course>
<desc>Speed 5.9 km/h Distance 40.99 km</desc>
<time>2010-06-13T09:36:12.80</time>
<name>10452</name>
</trkpt>
<trkpt lat="49.174830" lon="11.846652">
<ele>587.8</ele>
<speed>5.5</speed>
<course>162.1</course>
<desc>Speed 5.5 km/h Distance 40.99 km</desc>
<time>2010-06-13T09:36:13.81</time>
<name>10453</name>
</trkpt>
<trkpt lat="49.174813" lon="11.846660">
<ele>587.6</ele>
<speed>5.7</speed>
<course>175.9</course>
<desc>Speed 5.7 km/h Distance 40.99 km</desc>
<time>2010-06-13T09:36:14.80</time>
<name>10454</name>
</trkpt>
<trkpt lat="49.174797" lon="11.846662">
<ele>587.1</ele>
<speed>5.3</speed>
<course>180.0</course>
<desc>Speed 5.3 km/h Distance 41.00 km</desc>
<time>2010-06-13T09:36:15.80</time>
<name>10455</name>
</trkpt>
<trkpt lat="49.174778" lon="11.846662">
<ele>586.7</ele>
<speed>5.6</speed>
<course>155.5</course>
<desc>Speed 5.6 km/h Distance 41.00 km</desc>
<time>2010-06-13T09:36:16.81</time>
<name>10456</name>
</trkpt>
<trkpt lat="49.174762" lon="11.846673">
<ele>586.7</ele>
<speed>5.4</speed>
<course>194.0</course>
<desc>Speed 5.4 km/h Distance 41.00 km</desc>
<time>2010-06-13T09:36:17.79</time>
<name>10457</name>
</trkpt>
<trkpt lat="49.174748" lon="11.846668">
<ele>586.1</ele>
<speed>5.5</speed>
<course>180.0</course>
<desc>Speed 5.5 km/h Distance 41.00 km</desc>
<time>2010-06-13T09:36:18.81</time>
<name>10458</name>
</trkpt>
<trkpt lat="49.174732" lon="11.846668">
<ele>585.1</ele>
<speed>6.1</speed>
<course>194.9</course>
<desc>Speed 6.1 km/h Distance 41.00 km</desc>
<time>2010-06-13T09:36:19.80</time>
<name>10459</name>
</trkpt>
<trkpt lat="49.174720" lon="11.846663">
<ele>586.0</ele>
<speed>6.5</speed>
<course>201.1</course>
<desc>Speed 6.5 km/h Distance 41.01 km</desc>
<time>2010-06-13T09:36:20.81</time>
<name>10460</name>
</trkpt>
<trkpt lat="49.174703" lon="11.846653">
<ele>586.0</ele>
<speed>6.6</speed>
<course>163.4</course>
<desc>Speed 6.6 km/h Distance 41.01 km</desc>
<time>2010-06-13T09:36:21.81</time>
<name>10461</name>
</trkpt>
<trkpt lat="49.174685" lon="11.846662">
<ele>586.5</ele>
<speed>5.9</speed>
<course>163.4</course>
<desc>Speed 5.9 km/h Distance 41.01 km</desc>
<time>2010-06-13T09:36:22.79</time>
<name>10462</name>
</trkpt>
<trkpt lat="49.174667" lon="11.846670">
<ele>587.0</ele>
<speed>5.7</speed>
<course>155.4</course>
<desc>Speed 5.7 km/h Distance 41.01 km</desc>
<time>2010-06-13T09:36:23.80</time>
<name>10463</name>
</trkpt>
<trkpt lat="49.174650" lon="11.846682">
<ele>588.5</ele>
<speed>5.9</speed>
<course>160.6</course>
<desc>Speed 5.9 km/h Distance 41.01 km</desc>
<time>2010-06-13T09:36:24.81</time>
<name>10464</name>
</trkpt>
<trkpt lat="49.174628" lon="11.846693">
<ele>589.7</ele>
<speed>5.9</speed>
<course>166.0</course>
<desc>Speed 5.9 km/h Distance 41.02 km</desc>
<time>2010-06-13T09:36:25.80</time>
<name>10465</name>
</trkpt>
<trkpt lat="49.174607" lon="11.846702">
<ele>589.4</ele>
<speed>6.3</speed>
<course>185.9</course>
<desc>Speed 6.3 km/h Distance 41.02 km</desc>
<time>2010-06-13T09:36:26.81</time>
<name>10466</name>
</trkpt>
<trkpt lat="49.174585" lon="11.846698">
<ele>588.6</ele>
<speed>5.8</speed>
<course>189.2</course>
<desc>Speed 5.8 km/h Distance 41.02 km</desc>
<time>2010-06-13T09:36:27.80</time>
<name>10467</name>
</trkpt>
<trkpt lat="49.174565" lon="11.846693">
<ele>587.7</ele>
<speed>6.3</speed>
<course>191.1</course>
<desc>Speed 6.3 km/h Distance 41.02 km</desc>
<time>2010-06-13T09:36:28.81</time>
<name>10468</name>
</trkpt>
<trkpt lat="49.174543" lon="11.846687">
<ele>588.1</ele>
<speed>7.5</speed>
<course>182.7</course>
<desc>Speed 7.5 km/h Distance 41.03 km</desc>
<time>2010-06-13T09:36:29.81</time>
<name>10469</name>
</trkpt>
<trkpt lat="49.174523" lon="11.846685">
<ele>588.2</ele>
<speed>6.1</speed>
<course>180.0</course>
<desc>Speed 6.1 km/h Distance 41.03 km</desc>
<time>2010-06-13T09:36:30.80</time>
<name>10470</name>
</trkpt>
<trkpt lat="49.174508" lon="11.846685">
<ele>588.6</ele>
<speed>5.1</speed>
<course>183.9</course>
<desc>Speed 5.1 km/h Distance 41.03 km</desc>
<time>2010-06-13T09:36:31.80</time>
<name>10471</name>
</trkpt>
<trkpt lat="49.174495" lon="11.846683">
<ele>588.4</ele>
<speed>5.4</speed>
<course>182.7</course>
<desc>Speed 5.4 km/h Distance 41.03 km</desc>
<time>2010-06-13T09:36:32.79</time>
<name>10472</name>
</trkpt>
<trkpt lat="49.174475" lon="11.846682">
<ele>589.1</ele>
<speed>6.0</speed>
<course>154.4</course>
<desc>Speed 6.0 km/h Distance 41.03 km</desc>
<time>2010-06-13T09:36:33.81</time>
<name>10473</name>
</trkpt>
<trkpt lat="49.174450" lon="11.846700">
<ele>591.3</ele>
<speed>6.1</speed>
<course>161.8</course>
<desc>Speed 6.1 km/h Distance 41.04 km</desc>
<time>2010-06-13T09:36:34.79</time>
<name>10474</name>
</trkpt>
<trkpt lat="49.174427" lon="11.846712">
<ele>591.3</ele>
<speed>8.0</speed>
<course>166.7</course>
<desc>Speed 8.0 km/h Distance 41.04 km</desc>
<time>2010-06-13T09:36:35.79</time>
<name>10475</name>
</trkpt>
<trkpt lat="49.174408" lon="11.846718">
<ele>591.9</ele>
<speed>7.6</speed>
<course>177.3</course>
<desc>Speed 7.6 km/h Distance 41.04 km</desc>
<time>2010-06-13T09:36:36.79</time>
<name>10476</name>
</trkpt>
<trkpt lat="49.174388" lon="11.846720">
<ele>591.6</ele>
<speed>7.4</speed>
<course>193.3</course>
<desc>Speed 7.4 km/h Distance 41.04 km</desc>
<time>2010-06-13T09:36:37.80</time>
<name>10477</name>
</trkpt>
<trkpt lat="49.174370" lon="11.846713">
<ele>590.1</ele>
<speed>7.0</speed>
<course>198.1</course>
<desc>Speed 7.0 km/h Distance 41.05 km</desc>
<time>2010-06-13T09:36:38.81</time>
<name>10478</name>
</trkpt>
<trkpt lat="49.174353" lon="11.846705">
<ele>590.3</ele>
<speed>7.1</speed>
<course>204.7</course>
<desc>Speed 7.1 km/h Distance 41.05 km</desc>
<time>2010-06-13T09:36:39.80</time>
<name>10479</name>
</trkpt>
<trkpt lat="49.174337" lon="11.846693">
<ele>590.3</ele>
<speed>5.9</speed>
<course>203.5</course>
<desc>Speed 5.9 km/h Distance 41.05 km</desc>
<time>2010-06-13T09:36:40.80</time>
<name>10480</name>
</trkpt>
<trkpt lat="49.174322" lon="11.846683">
<ele>590.5</ele>
<speed>6.6</speed>
<course>182.8</course>
<desc>Speed 6.6 km/h Distance 41.05 km</desc>
<time>2010-06-13T09:36:41.79</time>
<name>10481</name>
</trkpt>
<trkpt lat="49.174305" lon="11.846682">
<ele>591.5</ele>
<speed>7.4</speed>
<course>189.0</course>
<desc>Speed 7.4 km/h Distance 41.05 km</desc>
<time>2010-06-13T09:36:42.81</time>
<name>10482</name>
</trkpt>
<trkpt lat="49.174292" lon="11.846678">
<ele>590.2</ele>
<speed>6.8</speed>
<course>177.2</course>
<desc>Speed 6.8 km/h Distance 41.06 km</desc>
<time>2010-06-13T09:36:43.81</time>
<name>10483</name>
</trkpt>
<trkpt lat="49.174275" lon="11.846680">
<ele>589.4</ele>
<speed>6.9</speed>
<course>169.8</course>
<desc>Speed 6.9 km/h Distance 41.06 km</desc>
<time>2010-06-13T09:36:44.80</time>
<name>10484</name>
</trkpt>
<trkpt lat="49.174257" lon="11.846685">
<ele>590.8</ele>
<speed>8.2</speed>
<course>175.0</course>
<desc>Speed 8.2 km/h Distance 41.06 km</desc>
<time>2010-06-13T09:36:45.81</time>
<name>10485</name>
</trkpt>
<trkpt lat="49.174240" lon="11.846687">
<ele>591.3</ele>
<speed>8.1</speed>
<course>186.1</course>
<desc>Speed 8.1 km/h Distance 41.06 km</desc>
<time>2010-06-13T09:36:46.80</time>
<name>10486</name>
</trkpt>
<trkpt lat="49.174220" lon="11.846683">
<ele>590.0</ele>
<speed>8.2</speed>
<course>183.8</course>
<desc>Speed 8.2 km/h Distance 41.06 km</desc>
<time>2010-06-13T09:36:47.80</time>
<name>10487</name>
</trkpt>
<trkpt lat="49.174205" lon="11.846682">
<ele>588.8</ele>
<speed>6.0</speed>
<course>192.2</course>
<desc>Speed 6.0 km/h Distance 41.06 km</desc>
<time>2010-06-13T09:36:48.80</time>
<name>10488</name>
</trkpt>
<trkpt lat="49.174190" lon="11.846677">
<ele>588.3</ele>
<speed>7.1</speed>
<course>187.7</course>
<desc>Speed 7.1 km/h Distance 41.07 km</desc>
<time>2010-06-13T09:36:49.82</time>
<name>10489</name>
</trkpt>
<trkpt lat="49.174173" lon="11.846673">
<ele>587.0</ele>
<speed>8.1</speed>
<course>186.6</course>
<desc>Speed 8.1 km/h Distance 41.07 km</desc>
<time>2010-06-13T09:36:50.79</time>
<name>10490</name>
</trkpt>
<trkpt lat="49.174153" lon="11.846670">
<ele>587.7</ele>
<speed>8.2</speed>
<course>180.0</course>
<desc>Speed 8.2 km/h Distance 41.07 km</desc>
<time>2010-06-13T09:36:51.80</time>
<name>10491</name>
</trkpt>
<trkpt lat="49.174132" lon="11.846670">
<ele>587.1</ele>
<speed>7.8</speed>
<course>180.0</course>
<desc>Speed 7.8 km/h Distance 41.07 km</desc>
<time>2010-06-13T09:36:52.80</time>
<name>10492</name>
</trkpt>
<trkpt lat="49.174113" lon="11.846670">
<ele>588.7</ele>
<speed>7.1</speed>
<course>177.5</course>
<desc>Speed 7.1 km/h Distance 41.08 km</desc>
<time>2010-06-13T09:36:53.79</time>
<name>10493</name>
</trkpt>
<trkpt lat="49.174095" lon="11.846672">
<ele>587.4</ele>
<speed>7.5</speed>
<course>182.7</course>
<desc>Speed 7.5 km/h Distance 41.08 km</desc>
<time>2010-06-13T09:36:54.80</time>
<name>10494</name>
</trkpt>
<trkpt lat="49.174075" lon="11.846670">
<ele>588.6</ele>
<speed>7.9</speed>
<course>180.0</course>
<desc>Speed 7.9 km/h Distance 41.08 km</desc>
<time>2010-06-13T09:36:55.79</time>
<name>10495</name>
</trkpt>
<trkpt lat="49.174055" lon="11.846670">
<ele>587.6</ele>
<speed>7.9</speed>
<course>180.0</course>
<desc>Speed 7.9 km/h Distance 41.08 km</desc>
<time>2010-06-13T09:36:56.80</time>
<name>10496</name>
</trkpt>
<trkpt lat="49.174033" lon="11.846670">
<ele>588.4</ele>
<speed>8.7</speed>
<course>180.0</course>
<desc>Speed 8.7 km/h Distance 41.08 km</desc>
<time>2010-06-13T09:36:57.81</time>
<name>10497</name>
</trkpt>
<trkpt lat="49.174012" lon="11.846670">
<ele>587.9</ele>
<speed>8.4</speed>
<course>182.2</course>
<desc>Speed 8.4 km/h Distance 41.09 km</desc>
<time>2010-06-13T09:36:58.80</time>
<name>10498</name>
</trkpt>
<trkpt lat="49.173990" lon="11.846668">
<ele>586.1</ele>
<speed>7.8</speed>
<course>185.5</course>
<desc>Speed 7.8 km/h Distance 41.09 km</desc>
<time>2010-06-13T09:36:59.79</time>
<name>10499</name>
</trkpt>
<trkpt lat="49.173968" lon="11.846665">
<ele>586.1</ele>
<speed>7.3</speed>
<course>182.7</course>
<desc>Speed 7.3 km/h Distance 41.09 km</desc>
<time>2010-06-13T09:37:00.80</time>
<name>10500</name>
</trkpt>
<trkpt lat="49.173948" lon="11.846663">
<ele>587.4</ele>
<speed>7.3</speed>
<course>173.0</course>
<desc>Speed 7.3 km/h Distance 41.09 km</desc>
<time>2010-06-13T09:37:01.79</time>
<name>10501</name>
</trkpt>
<trkpt lat="49.173930" lon="11.846667">
<ele>586.4</ele>
<speed>7.1</speed>
<course>184.1</course>
<desc>Speed 7.1 km/h Distance 41.10 km</desc>
<time>2010-06-13T09:37:02.80</time>
<name>10502</name>
</trkpt>
<trkpt lat="49.173913" lon="11.846665">
<ele>585.4</ele>
<speed>7.3</speed>
<course>180.0</course>
<desc>Speed 7.3 km/h Distance 41.10 km</desc>
<time>2010-06-13T09:37:03.79</time>
<name>10503</name>
</trkpt>
<trkpt lat="49.173892" lon="11.846665">
<ele>582.8</ele>
<speed>7.0</speed>
<course>183.2</course>
<desc>Speed 7.0 km/h Distance 41.10 km</desc>
<time>2010-06-13T09:37:04.78</time>
<name>10504</name>
</trkpt>
<trkpt lat="49.173870" lon="11.846663">
<ele>580.7</ele>
<speed>7.8</speed>
<course>168.9</course>
<desc>Speed 7.8 km/h Distance 41.10 km</desc>
<time>2010-06-13T09:37:05.79</time>
<name>10505</name>
</trkpt>
<trkpt lat="49.173837" lon="11.846673">
<ele>579.4</ele>
<speed>9.9</speed>
<course>164.0</course>
<desc>Speed 9.9 km/h Distance 41.11 km</desc>
<time>2010-06-13T09:37:06.79</time>
<name>10506</name>
</trkpt>
<trkpt lat="49.173810" lon="11.846685">
<ele>578.6</ele>
<speed>9.8</speed>
<course>165.4</course>
<desc>Speed 9.8 km/h Distance 41.11 km</desc>
<time>2010-06-13T09:37:07.79</time>
<name>10507</name>
</trkpt>
<trkpt lat="49.173785" lon="11.846695">
<ele>579.3</ele>
<speed>9.0</speed>
<course>149.3</course>
<desc>Speed 9.0 km/h Distance 41.11 km</desc>
<time>2010-06-13T09:37:08.81</time>
<name>10508</name>
</trkpt>
<trkpt lat="49.173767" lon="11.846712">
<ele>581.2</ele>
<speed>7.7</speed>
<course>178.1</course>
<desc>Speed 7.7 km/h Distance 41.11 km</desc>
<time>2010-06-13T09:37:09.79</time>
<name>10509</name>
</trkpt>
<trkpt lat="49.173752" lon="11.846712">
<ele>583.5</ele>
<speed>6.4</speed>
<course>219.3</course>
<desc>Speed 6.4 km/h Distance 41.12 km</desc>
<time>2010-06-13T09:37:10.79</time>
<name>10510</name>
</trkpt>
<trkpt lat="49.173738" lon="11.846695">
<ele>584.4</ele>
<speed>5.8</speed>
<course>201.5</course>
<desc>Speed 5.8 km/h Distance 41.12 km</desc>
<time>2010-06-13T09:37:11.80</time>
<name>10511</name>
</trkpt>
<trkpt lat="49.173730" lon="11.846690">
<ele>586.4</ele>
<speed>5.2</speed>
<course>172.3</course>
<desc>Speed 5.2 km/h Distance 41.12 km</desc>
<time>2010-06-13T09:37:12.80</time>
<name>10512</name>
</trkpt>
<trkpt lat="49.173713" lon="11.846693">
<ele>585.8</ele>
<speed>5.0</speed>
<course>146.8</course>
<desc>Speed 5.0 km/h Distance 41.12 km</desc>
<time>2010-06-13T09:37:13.81</time>
<name>10513</name>
</trkpt>
<trkpt lat="49.173693" lon="11.846713">
<ele>587.2</ele>
<speed>5.3</speed>
<course>153.1</course>
<desc>Speed 5.3 km/h Distance 41.12 km</desc>
<time>2010-06-13T09:37:14.79</time>
<name>10514</name>
</trkpt>
<trkpt lat="49.173648" lon="11.846748">
<ele>589.4</ele>
<speed>7.1</speed>
<course>198.1</course>
<desc>Speed 7.1 km/h Distance 41.13 km</desc>
<time>2010-06-13T09:37:16.79</time>
<name>10515</name>
</trkpt>
<trkpt lat="49.173635" lon="11.846742">
<ele>589.4</ele>
<speed>5.8</speed>
<course>158.1</course>
<desc>Speed 5.8 km/h Distance 41.13 km</desc>
<time>2010-06-13T09:37:17.79</time>
<name>10516</name>
</trkpt>
<trkpt lat="49.173613" lon="11.846755">
<ele>589.1</ele>
<speed>5.7</speed>
<course>165.1</course>
<desc>Speed 5.7 km/h Distance 41.13 km</desc>
<time>2010-06-13T09:37:18.79</time>
<name>10517</name>
</trkpt>
<trkpt lat="49.173597" lon="11.846762">
<ele>590.0</ele>
<speed>6.6</speed>
<course>145.1</course>
<desc>Speed 6.6 km/h Distance 41.14 km</desc>
<time>2010-06-13T09:37:19.81</time>
<name>10518</name>
</trkpt>
<trkpt lat="49.173572" lon="11.846788">
<ele>590.9</ele>
<speed>8.7</speed>
<course>200.6</course>
<desc>Speed 8.7 km/h Distance 41.14 km</desc>
<time>2010-06-13T09:37:20.80</time>
<name>10519</name>
</trkpt>
<trkpt lat="49.173560" lon="11.846782">
<ele>590.8</ele>
<speed>7.6</speed>
<course>171.9</course>
<desc>Speed 7.6 km/h Distance 41.14 km</desc>
<time>2010-06-13T09:37:21.80</time>
<name>10520</name>
</trkpt>
<trkpt lat="49.173537" lon="11.846787">
<ele>590.9</ele>
<speed>8.0</speed>
<course>224.5</course>
<desc>Speed 8.0 km/h Distance 41.14 km</desc>
<time>2010-06-13T09:37:22.79</time>
<name>10521</name>
</trkpt>
<trkpt lat="49.173527" lon="11.846772">
<ele>588.7</ele>
<speed>8.3</speed>
<course>180.0</course>
<desc>Speed 8.3 km/h Distance 41.14 km</desc>
<time>2010-06-13T09:37:23.79</time>
<name>10522</name>
</trkpt>
<trkpt lat="49.173510" lon="11.846772">
<ele>587.0</ele>
<speed>7.2</speed>
<course>174.7</course>
<desc>Speed 7.2 km/h Distance 41.15 km</desc>
<time>2010-06-13T09:37:24.80</time>
<name>10523</name>
</trkpt>
<trkpt lat="49.173497" lon="11.846773">
<ele>585.4</ele>
<speed>7.7</speed>
<course>165.4</course>
<desc>Speed 7.7 km/h Distance 41.15 km</desc>
<time>2010-06-13T09:37:25.80</time>
<name>10524</name>
</trkpt>
<trkpt lat="49.173480" lon="11.846780">
<ele>584.1</ele>
<speed>8.3</speed>
<course>180.0</course>
<desc>Speed 8.3 km/h Distance 41.15 km</desc>
<time>2010-06-13T09:37:26.80</time>
<name>10525</name>
</trkpt>
<trkpt lat="49.173458" lon="11.846782">
<ele>582.0</ele>
<speed>7.8</speed>
<course>166.7</course>
<desc>Speed 7.8 km/h Distance 41.15 km</desc>
<time>2010-06-13T09:37:27.80</time>
<name>10526</name>
</trkpt>
<trkpt lat="49.173440" lon="11.846788">
<ele>580.8</ele>
<speed>7.9</speed>
<course>163.0</course>
<desc>Speed 7.9 km/h Distance 41.15 km</desc>
<time>2010-06-13T09:37:28.81</time>
<name>10527</name>
</trkpt>
<trkpt lat="49.173418" lon="11.846798">
<ele>578.8</ele>
<speed>8.0</speed>
<course>166.4</course>
<desc>Speed 8.0 km/h Distance 41.16 km</desc>
<time>2010-06-13T09:37:29.79</time>
<name>10528</name>
</trkpt>
<trkpt lat="49.173400" lon="11.846805">
<ele>577.3</ele>
<speed>7.6</speed>
<course>168.6</course>
<desc>Speed 7.6 km/h Distance 41.16 km</desc>
<time>2010-06-13T09:37:30.79</time>
<name>10529</name>
</trkpt>
<trkpt lat="49.173378" lon="11.846812">
<ele>575.1</ele>
<speed>7.6</speed>
<course>167.7</course>
<desc>Speed 7.6 km/h Distance 41.16 km</desc>
<time>2010-06-13T09:37:31.80</time>
<name>10530</name>
</trkpt>
<trkpt lat="49.173358" lon="11.846818">
<ele>573.1</ele>
<speed>8.0</speed>
<course>164.7</course>
<desc>Speed 8.0 km/h Distance 41.16 km</desc>
<time>2010-06-13T09:37:32.79</time>
<name>10531</name>
</trkpt>
<trkpt lat="49.173338" lon="11.846827">
<ele>571.7</ele>
<speed>8.0</speed>
<course>150.2</course>
<desc>Speed 8.0 km/h Distance 41.17 km</desc>
<time>2010-06-13T09:37:33.80</time>
<name>10532</name>
</trkpt>
<trkpt lat="49.173325" lon="11.846838">
<ele>572.0</ele>
<speed>7.6</speed>
<course>180.0</course>
<desc>Speed 7.6 km/h Distance 41.17 km</desc>
<time>2010-06-13T09:37:34.80</time>
<name>10533</name>
</trkpt>
<trkpt lat="49.173307" lon="11.846838">
<ele>572.6</ele>
<speed>7.2</speed>
<course>146.8</course>
<desc>Speed 7.2 km/h Distance 41.17 km</desc>
<time>2010-06-13T09:37:35.79</time>
<name>10534</name>
</trkpt>
<trkpt lat="49.173297" lon="11.846848">
<ele>573.5</ele>
<speed>5.7</speed>
<course>176.2</course>
<desc>Speed 5.7 km/h Distance 41.17 km</desc>
<time>2010-06-13T09:37:36.80</time>
<name>10535</name>
</trkpt>
<trkpt lat="49.173282" lon="11.846850">
<ele>573.4</ele>
<speed>6.9</speed>
<course>196.6</course>
<desc>Speed 6.9 km/h Distance 41.17 km</desc>
<time>2010-06-13T09:37:37.80</time>
<name>10536</name>
</trkpt>
<trkpt lat="49.173263" lon="11.846842">
<ele>573.7</ele>
<speed>8.2</speed>
<course>221.1</course>
<desc>Speed 8.2 km/h Distance 41.17 km</desc>
<time>2010-06-13T09:37:38.78</time>
<name>10537</name>
</trkpt>
<trkpt lat="49.173248" lon="11.846822">
<ele>575.0</ele>
<speed>7.8</speed>
<course>245.8</course>
<desc>Speed 7.8 km/h Distance 41.18 km</desc>
<time>2010-06-13T09:37:39.79</time>
<name>10538</name>
</trkpt>
<trkpt lat="49.173240" lon="11.846793">
<ele>576.7</ele>
<speed>8.0</speed>
<course>251.6</course>
<desc>Speed 8.0 km/h Distance 41.18 km</desc>
<time>2010-06-13T09:37:40.80</time>
<name>10539</name>
</trkpt>
<trkpt lat="49.173232" lon="11.846755">
<ele>576.7</ele>
<speed>8.4</speed>
<course>253.7</course>
<desc>Speed 8.4 km/h Distance 41.18 km</desc>
<time>2010-06-13T09:37:41.80</time>
<name>10540</name>
</trkpt>
<trkpt lat="49.173225" lon="11.846720">
<ele>578.2</ele>
<speed>8.8</speed>
<course>258.2</course>
<desc>Speed 8.8 km/h Distance 41.18 km</desc>
<time>2010-06-13T09:37:42.79</time>
<name>10541</name>
</trkpt>
<trkpt lat="49.173220" lon="11.846683">
<ele>580.1</ele>
<speed>8.0</speed>
<course>240.9</course>
<desc>Speed 8.0 km/h Distance 41.19 km</desc>
<time>2010-06-13T09:37:43.79</time>
<name>10542</name>
</trkpt>
<trkpt lat="49.173207" lon="11.846647">
<ele>579.4</ele>
<speed>7.7</speed>
<course>243.0</course>
<desc>Speed 7.7 km/h Distance 41.19 km</desc>
<time>2010-06-13T09:37:44.80</time>
<name>10543</name>
</trkpt>
<trkpt lat="49.173198" lon="11.846622">
<ele>580.8</ele>
<speed>7.5</speed>
<course>247.8</course>
<desc>Speed 7.5 km/h Distance 41.19 km</desc>
<time>2010-06-13T09:37:45.79</time>
<name>10544</name>
</trkpt>
<trkpt lat="49.173192" lon="11.846597">
<ele>582.2</ele>
<speed>8.5</speed>
<course>241.6</course>
<desc>Speed 8.5 km/h Distance 41.19 km</desc>
<time>2010-06-13T09:37:46.79</time>
<name>10545</name>
</trkpt>
<trkpt lat="49.173182" lon="11.846568">
<ele>582.4</ele>
<speed>8.2</speed>
<course>243.0</course>
<desc>Speed 8.2 km/h Distance 41.20 km</desc>
<time>2010-06-13T09:37:47.79</time>
<name>10546</name>
</trkpt>
<trkpt lat="49.173172" lon="11.846538">
<ele>582.7</ele>
<speed>7.5</speed>
<course>248.1</course>
<desc>Speed 7.5 km/h Distance 41.20 km</desc>
<time>2010-06-13T09:37:48.79</time>
<name>10547</name>
</trkpt>
<trkpt lat="49.173163" lon="11.846507">
<ele>582.6</ele>
<speed>7.5</speed>
<course>248.1</course>
<desc>Speed 7.5 km/h Distance 41.20 km</desc>
<time>2010-06-13T09:37:49.80</time>
<name>10548</name>
</trkpt>
<trkpt lat="49.173155" lon="11.846475">
<ele>582.4</ele>
<speed>7.7</speed>
<course>240.6</course>
<desc>Speed 7.7 km/h Distance 41.20 km</desc>
<time>2010-06-13T09:37:50.80</time>
<name>10549</name>
</trkpt>
<trkpt lat="49.173143" lon="11.846443">
<ele>580.6</ele>
<speed>8.0</speed>
<course>240.2</course>
<desc>Speed 8.0 km/h Distance 41.21 km</desc>
<time>2010-06-13T09:37:51.79</time>
<name>10550</name>
</trkpt>
<trkpt lat="49.173133" lon="11.846417">
<ele>579.7</ele>
<speed>7.0</speed>
<course>247.8</course>
<desc>Speed 7.0 km/h Distance 41.21 km</desc>
<time>2010-06-13T09:37:52.80</time>
<name>10551</name>
</trkpt>
<trkpt lat="49.173127" lon="11.846392">
<ele>578.1</ele>
<speed>6.8</speed>
<course>241.3</course>
<desc>Speed 6.8 km/h Distance 41.21 km</desc>
<time>2010-06-13T09:37:53.80</time>
<name>10552</name>
</trkpt>
<trkpt lat="49.173118" lon="11.846368">
<ele>577.7</ele>
<speed>5.9</speed>
<course>253.0</course>
<desc>Speed 5.9 km/h Distance 41.21 km</desc>
<time>2010-06-13T09:37:54.80</time>
<name>10553</name>
</trkpt>
<trkpt lat="49.173113" lon="11.846343">
<ele>578.9</ele>
<speed>6.5</speed>
<course>237.2</course>
<desc>Speed 6.5 km/h Distance 41.21 km</desc>
<time>2010-06-13T09:37:55.80</time>
<name>10554</name>
</trkpt>
<trkpt lat="49.173100" lon="11.846312">
<ele>579.2</ele>
<speed>7.4</speed>
<course>240.2</course>
<desc>Speed 7.4 km/h Distance 41.22 km</desc>
<time>2010-06-13T09:37:56.80</time>
<name>10555</name>
</trkpt>
<trkpt lat="49.173090" lon="11.846285">
<ele>580.1</ele>
<speed>8.3</speed>
<course>249.1</course>
<desc>Speed 8.3 km/h Distance 41.22 km</desc>
<time>2010-06-13T09:37:57.80</time>
<name>10556</name>
</trkpt>
<trkpt lat="49.173083" lon="11.846258">
<ele>580.5</ele>
<speed>7.7</speed>
<course>244.2</course>
<desc>Speed 7.7 km/h Distance 41.22 km</desc>
<time>2010-06-13T09:37:58.80</time>
<name>10557</name>
</trkpt>
<trkpt lat="49.173073" lon="11.846227">
<ele>580.7</ele>
<speed>7.2</speed>
<course>259.8</course>
<desc>Speed 7.2 km/h Distance 41.22 km</desc>
<time>2010-06-13T09:37:59.80</time>
<name>10558</name>
</trkpt>
<trkpt lat="49.173070" lon="11.846198">
<ele>583.7</ele>
<speed>8.6</speed>
<course>250.0</course>
<desc>Speed 8.6 km/h Distance 41.23 km</desc>
<time>2010-06-13T09:38:00.80</time>
<name>10559</name>
</trkpt>
<trkpt lat="49.173062" lon="11.846163">
<ele>586.1</ele>
<speed>9.4</speed>
<course>257.7</course>
<desc>Speed 9.4 km/h Distance 41.23 km</desc>
<time>2010-06-13T09:38:01.79</time>
<name>10560</name>
</trkpt>
<trkpt lat="49.173057" lon="11.846128">
<ele>588.2</ele>
<speed>8.6</speed>
<course>248.2</course>
<desc>Speed 8.6 km/h Distance 41.23 km</desc>
<time>2010-06-13T09:38:02.80</time>
<name>10561</name>
</trkpt>
<trkpt lat="49.173047" lon="11.846090">
<ele>588.4</ele>
<speed>8.7</speed>
<course>251.6</course>
<desc>Speed 8.7 km/h Distance 41.23 km</desc>
<time>2010-06-13T09:38:03.80</time>
<name>10562</name>
</trkpt>
<trkpt lat="49.173038" lon="11.846052">
<ele>588.7</ele>
<speed>7.8</speed>
<course>250.0</course>
<desc>Speed 7.8 km/h Distance 41.24 km</desc>
<time>2010-06-13T09:38:04.79</time>
<name>10563</name>
</trkpt>
<trkpt lat="49.173030" lon="11.846017">
<ele>588.9</ele>
<speed>7.2</speed>
<course>254.5</course>
<desc>Speed 7.2 km/h Distance 41.24 km</desc>
<time>2010-06-13T09:38:05.80</time>
<name>10564</name>
</trkpt>
<trkpt lat="49.173023" lon="11.845980">
<ele>588.6</ele>
<speed>7.1</speed>
<course>259.8</course>
<desc>Speed 7.1 km/h Distance 41.24 km</desc>
<time>2010-06-13T09:38:06.79</time>
<name>10565</name>
</trkpt>
<trkpt lat="49.173020" lon="11.845952">
<ele>590.6</ele>
<speed>7.2</speed>
<course>254.0</course>
<desc>Speed 7.2 km/h Distance 41.25 km</desc>
<time>2010-06-13T09:38:07.81</time>
<name>10566</name>
</trkpt>
<trkpt lat="49.173015" lon="11.845925">
<ele>591.3</ele>
<speed>7.0</speed>
<course>248.1</course>
<desc>Speed 7.0 km/h Distance 41.25 km</desc>
<time>2010-06-13T09:38:08.80</time>
<name>10567</name>
</trkpt>
<trkpt lat="49.173007" lon="11.845893">
<ele>590.8</ele>
<speed>6.9</speed>
<course>255.7</course>
<desc>Speed 6.9 km/h Distance 41.25 km</desc>
<time>2010-06-13T09:38:09.79</time>
<name>10568</name>
</trkpt>
<trkpt lat="49.173002" lon="11.845863">
<ele>591.7</ele>
<speed>7.2</speed>
<course>253.0</course>
<desc>Speed 7.2 km/h Distance 41.25 km</desc>
<time>2010-06-13T09:38:10.78</time>
<name>10569</name>
</trkpt>
<trkpt lat="49.172995" lon="11.845830">
<ele>592.8</ele>
<speed>7.9</speed>
<course>256.4</course>
<desc>Speed 7.9 km/h Distance 41.25 km</desc>
<time>2010-06-13T09:38:11.81</time>
<name>10570</name>
</trkpt>
<trkpt lat="49.172990" lon="11.845798">
<ele>594.1</ele>
<speed>7.6</speed>
<course>254.9</course>
<desc>Speed 7.6 km/h Distance 41.26 km</desc>
<time>2010-06-13T09:38:12.80</time>
<name>10571</name>
</trkpt>
<trkpt lat="49.172985" lon="11.845770">
<ele>595.4</ele>
<speed>7.4</speed>
<course>239.6</course>
<desc>Speed 7.4 km/h Distance 41.26 km</desc>
<time>2010-06-13T09:38:13.78</time>
<name>10572</name>
</trkpt>
<trkpt lat="49.172977" lon="11.845748">
<ele>594.8</ele>
<speed>7.3</speed>
<course>249.1</course>
<desc>Speed 7.3 km/h Distance 41.26 km</desc>
<time>2010-06-13T09:38:14.80</time>
<name>10573</name>
</trkpt>
<trkpt lat="49.172972" lon="11.845728">
<ele>594.5</ele>
<speed>6.9</speed>
<course>258.5</course>
<desc>Speed 6.9 km/h Distance 41.26 km</desc>
<time>2010-06-13T09:38:15.79</time>
<name>10574</name>
</trkpt>
<trkpt lat="49.172968" lon="11.845703">
<ele>593.6</ele>
<speed>6.7</speed>
<course>277.3</course>
<desc>Speed 6.7 km/h Distance 41.26 km</desc>
<time>2010-06-13T09:38:16.79</time>
<name>10575</name>
</trkpt>
<trkpt lat="49.172970" lon="11.845683">
<ele>592.9</ele>
<speed>6.7</speed>
<course>275.5</course>
<desc>Speed 6.7 km/h Distance 41.27 km</desc>
<time>2010-06-13T09:38:17.80</time>
<name>10576</name>
</trkpt>
<trkpt lat="49.172972" lon="11.845657">
<ele>593.0</ele>
<speed>7.5</speed>
<course>289.4</course>
<desc>Speed 7.5 km/h Distance 41.27 km</desc>
<time>2010-06-13T09:38:18.80</time>
<name>10577</name>
</trkpt>
<trkpt lat="49.172977" lon="11.845635">
<ele>593.3</ele>
<speed>7.1</speed>
<course>289.4</course>
<desc>Speed 7.1 km/h Distance 41.27 km</desc>
<time>2010-06-13T09:38:19.79</time>
<name>10578</name>
</trkpt>
<trkpt lat="49.172982" lon="11.845613">
<ele>593.8</ele>
<speed>6.6</speed>
<course>303.2</course>
<desc>Speed 6.6 km/h Distance 41.27 km</desc>
<time>2010-06-13T09:38:20.80</time>
<name>10579</name>
</trkpt>
<trkpt lat="49.172992" lon="11.845590">
<ele>593.7</ele>
<speed>7.2</speed>
<course>309.5</course>
<desc>Speed 7.2 km/h Distance 41.27 km</desc>
<time>2010-06-13T09:38:21.79</time>
<name>10580</name>
</trkpt>
<trkpt lat="49.173003" lon="11.845568">
<ele>593.0</ele>
<speed>7.3</speed>
<course>329.7</course>
<desc>Speed 7.3 km/h Distance 41.28 km</desc>
<time>2010-06-13T09:38:22.80</time>
<name>10581</name>
</trkpt>
<trkpt lat="49.173018" lon="11.845555">
<ele>592.4</ele>
<speed>7.7</speed>
<course>329.7</course>
<desc>Speed 7.7 km/h Distance 41.28 km</desc>
<time>2010-06-13T09:38:23.78</time>
<name>10582</name>
</trkpt>
<trkpt lat="49.173033" lon="11.845542">
<ele>592.5</ele>
<speed>6.3</speed>
<course>330.2</course>
<desc>Speed 6.3 km/h Distance 41.28 km</desc>
<time>2010-06-13T09:38:24.80</time>
<name>10583</name>
</trkpt>
<trkpt lat="49.173047" lon="11.845530">
<ele>592.3</ele>
<speed>6.4</speed>
<course>329.1</course>
<desc>Speed 6.4 km/h Distance 41.28 km</desc>
<time>2010-06-13T09:38:25.80</time>
<name>10584</name>
</trkpt>
<trkpt lat="49.173067" lon="11.845512">
<ele>592.0</ele>
<speed>7.3</speed>
<course>335.6</course>
<desc>Speed 7.3 km/h Distance 41.28 km</desc>
<time>2010-06-13T09:38:26.80</time>
<name>10585</name>
</trkpt>
<trkpt lat="49.173088" lon="11.845497">
<ele>592.4</ele>
<speed>7.9</speed>
<course>346.4</course>
<desc>Speed 7.9 km/h Distance 41.29 km</desc>
<time>2010-06-13T09:38:27.78</time>
<name>10586</name>
</trkpt>
<trkpt lat="49.173107" lon="11.845490">
<ele>592.4</ele>
<speed>6.8</speed>
<course>334.8</course>
<desc>Speed 6.8 km/h Distance 41.29 km</desc>
<time>2010-06-13T09:38:28.80</time>
<name>10587</name>
</trkpt>
<trkpt lat="49.173118" lon="11.845482">
<ele>592.3</ele>
<speed>5.8</speed>
<course>315.6</course>
<desc>Speed 5.8 km/h Distance 41.29 km</desc>
<time>2010-06-13T09:38:29.80</time>
<name>10588</name>
</trkpt>
<trkpt lat="49.173132" lon="11.845462">
<ele>591.0</ele>
<speed>6.2</speed>
<course>344.5</course>
<desc>Speed 6.2 km/h Distance 41.29 km</desc>
<time>2010-06-13T09:38:30.79</time>
<name>10589</name>
</trkpt>
<trkpt lat="49.173143" lon="11.845457">
<ele>591.6</ele>
<speed>6.3</speed>
<course>336.6</course>
<desc>Speed 6.3 km/h Distance 41.29 km</desc>
<time>2010-06-13T09:38:31.79</time>
<name>10590</name>
</trkpt>
<trkpt lat="49.173163" lon="11.845443">
<ele>590.4</ele>
<speed>7.3</speed>
<course>342.1</course>
<desc>Speed 7.3 km/h Distance 41.30 km</desc>
<time>2010-06-13T09:38:32.80</time>
<name>10591</name>
</trkpt>
<trkpt lat="49.173180" lon="11.845435">
<ele>591.1</ele>
<speed>6.5</speed>
<course>339.1</course>
<desc>Speed 6.5 km/h Distance 41.30 km</desc>
<time>2010-06-13T09:38:33.79</time>
<name>10592</name>
</trkpt>
<trkpt lat="49.173192" lon="11.845428">
<ele>590.9</ele>
<speed>5.5</speed>
<course>351.0</course>
<desc>Speed 5.5 km/h Distance 41.30 km</desc>
<time>2010-06-13T09:38:34.79</time>
<name>10593</name>
</trkpt>
<trkpt lat="49.173205" lon="11.845425">
<ele>591.1</ele>
<speed>4.4</speed>
<course>17.9</course>
<desc>Speed 4.4 km/h Distance 41.30 km</desc>
<time>2010-06-13T09:38:35.79</time>
<name>10594</name>
</trkpt>
<trkpt lat="49.173222" lon="11.845433">
<ele>591.5</ele>
<speed>4.1</speed>
<course>257.7</course>
<desc>Speed 4.1 km/h Distance 41.30 km</desc>
<time>2010-06-13T09:38:36.79</time>
<name>10595</name>
</trkpt>
<trkpt lat="49.173220" lon="11.845422">
<ele>592.2</ele>
<speed>2.3</speed>
<course>32.3</course>
<desc>Speed 2.3 km/h Distance 41.30 km</desc>
<time>2010-06-13T09:38:37.80</time>
<name>10596</name>
</trkpt>
<trkpt lat="49.173225" lon="11.845427">
<ele>592.6</ele>
<speed>1.7</speed>
<course>0.0</course>
<desc>Speed 1.7 km/h Distance 41.30 km</desc>
<time>2010-06-13T09:38:38.78</time>
<name>10597</name>
</trkpt>
<trkpt lat="49.173230" lon="11.845427">
<ele>592.8</ele>
<speed>1.4</speed>
<course>346.7</course>
<desc>Speed 1.4 km/h Distance 41.30 km</desc>
<time>2010-06-13T09:38:39.79</time>
<name>10598</name>
</trkpt>
<trkpt lat="49.173248" lon="11.845420">
<ele>591.5</ele>
<speed>3.8</speed>
<course>349.7</course>
<desc>Speed 3.8 km/h Distance 41.31 km</desc>
<time>2010-06-13T09:38:40.79</time>
<name>10599</name>
</trkpt>
<trkpt lat="49.173255" lon="11.845418">
<ele>590.0</ele>
<speed>3.5</speed>
<course>344.5</course>
<desc>Speed 3.5 km/h Distance 41.31 km</desc>
<time>2010-06-13T09:38:41.79</time>
<name>10600</name>
</trkpt>
<trkpt lat="49.173267" lon="11.845413">
<ele>589.7</ele>
<speed>4.2</speed>
<course>333.9</course>
<desc>Speed 4.2 km/h Distance 41.31 km</desc>
<time>2010-06-13T09:38:42.79</time>
<name>10601</name>
</trkpt>
<trkpt lat="49.173287" lon="11.845398">
<ele>589.2</ele>
<speed>4.7</speed>
<course>357.2</course>
<desc>Speed 4.7 km/h Distance 41.31 km</desc>
<time>2010-06-13T09:38:43.79</time>
<name>10602</name>
</trkpt>
<trkpt lat="49.173303" lon="11.845397">
<ele>590.0</ele>
<speed>3.9</speed>
<course>301.4</course>
<desc>Speed 3.9 km/h Distance 41.31 km</desc>
<time>2010-06-13T09:38:44.79</time>
<name>10603</name>
</trkpt>
<trkpt lat="49.173307" lon="11.845388">
<ele>590.1</ele>
<speed>3.1</speed>
<course>24.6</course>
<desc>Speed 3.1 km/h Distance 41.31 km</desc>
<time>2010-06-13T09:38:45.79</time>
<name>10604</name>
</trkpt>
<trkpt lat="49.173318" lon="11.845397">
<ele>590.8</ele>
<speed>4.4</speed>
<course>346.5</course>
<desc>Speed 4.4 km/h Distance 41.31 km</desc>
<time>2010-06-13T09:38:46.80</time>
<name>10605</name>
</trkpt>
<trkpt lat="49.173332" lon="11.845392">
<ele>592.0</ele>
<speed>4.8</speed>
<course>0.0</course>
<desc>Speed 4.8 km/h Distance 41.32 km</desc>
<time>2010-06-13T09:38:47.80</time>
<name>10606</name>
</trkpt>
<trkpt lat="49.173343" lon="11.845392">
<ele>593.1</ele>
<speed>3.7</speed>
<course>25.2</course>
<desc>Speed 3.7 km/h Distance 41.32 km</desc>
<time>2010-06-13T09:38:48.79</time>
<name>10607</name>
</trkpt>
<trkpt lat="49.173355" lon="11.845400">
<ele>593.8</ele>
<speed>2.2</speed>
<course>352.3</course>
<desc>Speed 2.2 km/h Distance 41.32 km</desc>
<time>2010-06-13T09:38:49.78</time>
<name>10608</name>
</trkpt>
<trkpt lat="49.173363" lon="11.845398">
<ele>593.7</ele>
<speed>2.8</speed>
<course>347.4</course>
<desc>Speed 2.8 km/h Distance 41.32 km</desc>
<time>2010-06-13T09:38:50.79</time>
<name>10609</name>
</trkpt>
<trkpt lat="49.173378" lon="11.845393">
<ele>594.1</ele>
<speed>3.1</speed>
<course>346.0</course>
<desc>Speed 3.1 km/h Distance 41.32 km</desc>
<time>2010-06-13T09:38:51.79</time>
<name>10610</name>
</trkpt>
<trkpt lat="49.173392" lon="11.845388">
<ele>593.4</ele>
<speed>4.0</speed>
<course>352.3</course>
<desc>Speed 4.0 km/h Distance 41.32 km</desc>
<time>2010-06-13T09:38:52.80</time>
<name>10611</name>
</trkpt>
<trkpt lat="49.173400" lon="11.845387">
<ele>592.8</ele>
<speed>4.0</speed>
<course>4.4</course>
<desc>Speed 4.0 km/h Distance 41.32 km</desc>
<time>2010-06-13T09:38:53.79</time>
<name>10612</name>
</trkpt>
<trkpt lat="49.173410" lon="11.845387">
<ele>591.3</ele>
<speed>2.5</speed>
<course>24.9</course>
<desc>Speed 2.5 km/h Distance 41.33 km</desc>
<time>2010-06-13T09:38:54.79</time>
<name>10613</name>
</trkpt>
<trkpt lat="49.173422" lon="11.845395">
<ele>591.2</ele>
<speed>2.7</speed>
<course>0.0</course>
<desc>Speed 2.7 km/h Distance 41.33 km</desc>
<time>2010-06-13T09:38:55.78</time>
<name>10614</name>
</trkpt>
<trkpt lat="49.173427" lon="11.845395">
<ele>591.5</ele>
<speed>1.5</speed>
<course>342.5</course>
<desc>Speed 1.5 km/h Distance 41.33 km</desc>
<time>2010-06-13T09:38:56.79</time>
<name>10615</name>
</trkpt>
<trkpt lat="49.173433" lon="11.845392">
<ele>592.1</ele>
<speed>1.8</speed>
<course>338.5</course>
<desc>Speed 1.8 km/h Distance 41.33 km</desc>
<time>2010-06-13T09:38:57.79</time>
<name>10616</name>
</trkpt>
<trkpt lat="49.173442" lon="11.845387">
<ele>590.9</ele>
<speed>3.4</speed>
<course>338.7</course>
<desc>Speed 3.4 km/h Distance 41.33 km</desc>
<time>2010-06-13T09:38:58.79</time>
<name>10617</name>
</trkpt>
<trkpt lat="49.173458" lon="11.845377">
<ele>590.6</ele>
<speed>4.1</speed>
<course>333.0</course>
<desc>Speed 4.1 km/h Distance 41.33 km</desc>
<time>2010-06-13T09:38:59.78</time>
<name>10618</name>
</trkpt>
<trkpt lat="49.173467" lon="11.845370">
<ele>589.1</ele>
<speed>4.4</speed>
<course>293.6</course>
<desc>Speed 4.4 km/h Distance 41.33 km</desc>
<time>2010-06-13T09:39:00.79</time>
<name>10619</name>
</trkpt>
<trkpt lat="49.173470" lon="11.845358">
<ele>589.1</ele>
<speed>3.3</speed>
<course>344.0</course>
<desc>Speed 3.3 km/h Distance 41.33 km</desc>
<time>2010-06-13T09:39:01.79</time>
<name>10620</name>
</trkpt>
<trkpt lat="49.173485" lon="11.845352">
<ele>589.4</ele>
<speed>3.7</speed>
<course>307.3</course>
<desc>Speed 3.7 km/h Distance 41.33 km</desc>
<time>2010-06-13T09:39:02.79</time>
<name>10621</name>
</trkpt>
<trkpt lat="49.173492" lon="11.845338">
<ele>589.7</ele>
<speed>3.9</speed>
<course>339.4</course>
<desc>Speed 3.9 km/h Distance 41.34 km</desc>
<time>2010-06-13T09:39:03.78</time>
<name>10622</name>
</trkpt>
<trkpt lat="49.173503" lon="11.845332">
<ele>589.5</ele>
<speed>2.8</speed>
<course>317.7</course>
<desc>Speed 2.8 km/h Distance 41.34 km</desc>
<time>2010-06-13T09:39:04.78</time>
<name>10623</name>
</trkpt>
<trkpt lat="49.173512" lon="11.845320">
<ele>589.4</ele>
<speed>2.6</speed>
<course>355.6</course>
<desc>Speed 2.6 km/h Distance 41.34 km</desc>
<time>2010-06-13T09:39:05.79</time>
<name>10624</name>
</trkpt>
<trkpt lat="49.173522" lon="11.845318">
<ele>589.4</ele>
<speed>3.6</speed>
<course>336.5</course>
<desc>Speed 3.6 km/h Distance 41.34 km</desc>
<time>2010-06-13T09:39:06.79</time>
<name>10625</name>
</trkpt>
<trkpt lat="49.173537" lon="11.845308">
<ele>590.2</ele>
<speed>4.9</speed>
<course>344.5</course>
<desc>Speed 4.9 km/h Distance 41.34 km</desc>
<time>2010-06-13T09:39:07.79</time>
<name>10626</name>
</trkpt>
<trkpt lat="49.173548" lon="11.845303">
<ele>589.5</ele>
<speed>3.9</speed>
<course>356.2</course>
<desc>Speed 3.9 km/h Distance 41.34 km</desc>
<time>2010-06-13T09:39:08.80</time>
<name>10627</name>
</trkpt>
<trkpt lat="49.173563" lon="11.845302">
<ele>588.8</ele>
<speed>3.5</speed>
<course>341.9</course>
<desc>Speed 3.5 km/h Distance 41.34 km</desc>
<time>2010-06-13T09:39:09.79</time>
<name>10628</name>
</trkpt>
<trkpt lat="49.173577" lon="11.845295">
<ele>588.9</ele>
<speed>4.0</speed>
<course>332.1</course>
<desc>Speed 4.0 km/h Distance 41.35 km</desc>
<time>2010-06-13T09:39:10.77</time>
<name>10629</name>
</trkpt>
<trkpt lat="49.173585" lon="11.845288">
<ele>588.3</ele>
<speed>3.2</speed>
<course>242.6</course>
<desc>Speed 3.2 km/h Distance 41.35 km</desc>
<time>2010-06-13T09:39:11.79</time>
<name>10630</name>
</trkpt>
<trkpt lat="49.173583" lon="11.845283">
<ele>586.2</ele>
<speed>2.6</speed>
<course>44.5</course>
<desc>Speed 2.6 km/h Distance 41.35 km</desc>
<time>2010-06-13T09:39:12.79</time>
<name>10631</name>
</trkpt>
<trkpt lat="49.173590" lon="11.845293">
<ele>586.5</ele>
<speed>3.1</speed>
<course>31.6</course>
<desc>Speed 3.1 km/h Distance 41.35 km</desc>
<time>2010-06-13T09:39:13.79</time>
<name>10632</name>
</trkpt>
<trkpt lat="49.173593" lon="11.845297">
<ele>586.7</ele>
<speed>2.9</speed>
<course>307.4</course>
<desc>Speed 2.9 km/h Distance 41.35 km</desc>
<time>2010-06-13T09:39:14.79</time>
<name>10633</name>
</trkpt>
<trkpt lat="49.173603" lon="11.845277">
<ele>585.7</ele>
<speed>3.6</speed>
<course>5.0</course>
<desc>Speed 3.6 km/h Distance 41.35 km</desc>
<time>2010-06-13T09:39:15.79</time>
<name>10634</name>
</trkpt>
<trkpt lat="49.173612" lon="11.845277">
<ele>588.2</ele>
<speed>2.2</speed>
<course>0.0</course>
<desc>Speed 2.2 km/h Distance 41.35 km</desc>
<time>2010-06-13T09:39:16.80</time>
<name>10635</name>
</trkpt>
<trkpt lat="49.173622" lon="11.845277">
<ele>588.3</ele>
<speed>3.6</speed>
<course>297.0</course>
<desc>Speed 3.6 km/h Distance 41.35 km</desc>
<time>2010-06-13T09:39:17.78</time>
<name>10636</name>
</trkpt>
<trkpt lat="49.173625" lon="11.845267">
<ele>589.8</ele>
<speed>2.8</speed>
<course>2.2</course>
<desc>Speed 2.8 km/h Distance 41.35 km</desc>
<time>2010-06-13T09:39:18.78</time>
<name>10637</name>
</trkpt>
<trkpt lat="49.173637" lon="11.845267">
<ele>594.8</ele>
<speed>3.9</speed>
<course>3.8</course>
<desc>Speed 3.9 km/h Distance 41.36 km</desc>
<time>2010-06-13T09:39:19.80</time>
<name>10638</name>
</trkpt>
<trkpt lat="49.173652" lon="11.845268">
<ele>595.7</ele>
<speed>3.9</speed>
<course>336.7</course>
<desc>Speed 3.9 km/h Distance 41.36 km</desc>
<time>2010-06-13T09:39:20.80</time>
<name>10639</name>
</trkpt>
<trkpt lat="49.173667" lon="11.845258">
<ele>596.9</ele>
<speed>4.6</speed>
<course>339.5</course>
<desc>Speed 4.6 km/h Distance 41.36 km</desc>
<time>2010-06-13T09:39:21.78</time>
<name>10640</name>
</trkpt>
<trkpt lat="49.173690" lon="11.845245">
<ele>597.9</ele>
<speed>6.5</speed>
<course>309.9</course>
<desc>Speed 6.5 km/h Distance 41.36 km</desc>
<time>2010-06-13T09:39:22.79</time>
<name>10641</name>
</trkpt>
<trkpt lat="49.173700" lon="11.845227">
<ele>598.5</ele>
<speed>5.8</speed>
<course>344.6</course>
<desc>Speed 5.8 km/h Distance 41.36 km</desc>
<time>2010-06-13T09:39:23.77</time>
<name>10642</name>
</trkpt>
<trkpt lat="49.173732" lon="11.845213">
<ele>599.1</ele>
<speed>6.5</speed>
<course>355.0</course>
<desc>Speed 6.5 km/h Distance 41.37 km</desc>
<time>2010-06-13T09:39:24.78</time>
<name>10643</name>
</trkpt>
<trkpt lat="49.173757" lon="11.845210">
<ele>597.8</ele>
<speed>7.0</speed>
<course>307.4</course>
<desc>Speed 7.0 km/h Distance 41.37 km</desc>
<time>2010-06-13T09:39:25.78</time>
<name>10644</name>
</trkpt>
<trkpt lat="49.173768" lon="11.845187">
<ele>598.7</ele>
<speed>6.9</speed>
<course>339.2</course>
<desc>Speed 6.9 km/h Distance 41.37 km</desc>
<time>2010-06-13T09:39:26.78</time>
<name>10645</name>
</trkpt>
<trkpt lat="49.173788" lon="11.845175">
<ele>598.6</ele>
<speed>6.2</speed>
<course>353.9</course>
<desc>Speed 6.2 km/h Distance 41.37 km</desc>
<time>2010-06-13T09:39:27.80</time>
<name>10646</name>
</trkpt>
<trkpt lat="49.173808" lon="11.845172">
<ele>601.1</ele>
<speed>5.1</speed>
<course>340.3</course>
<desc>Speed 5.1 km/h Distance 41.38 km</desc>
<time>2010-06-13T09:39:28.79</time>
<name>10647</name>
</trkpt>
<trkpt lat="49.173827" lon="11.845162">
<ele>602.4</ele>
<speed>5.5</speed>
<course>331.4</course>
<desc>Speed 5.5 km/h Distance 41.38 km</desc>
<time>2010-06-13T09:39:29.81</time>
<name>10648</name>
</trkpt>
<trkpt lat="49.173847" lon="11.845145">
<ele>602.6</ele>
<speed>6.9</speed>
<course>337.9</course>
<desc>Speed 6.9 km/h Distance 41.38 km</desc>
<time>2010-06-13T09:39:30.79</time>
<name>10649</name>
</trkpt>
<trkpt lat="49.173860" lon="11.845137">
<ele>602.9</ele>
<speed>6.0</speed>
<course>341.9</course>
<desc>Speed 6.0 km/h Distance 41.38 km</desc>
<time>2010-06-13T09:39:31.81</time>
<name>10650</name>
</trkpt>
<trkpt lat="49.173883" lon="11.845125">
<ele>605.0</ele>
<speed>6.1</speed>
<course>329.8</course>
<desc>Speed 6.1 km/h Distance 41.39 km</desc>
<time>2010-06-13T09:39:32.80</time>
<name>10651</name>
</trkpt>
<trkpt lat="49.173898" lon="11.845112">
<ele>604.2</ele>
<speed>5.7</speed>
<course>349.6</course>
<desc>Speed 5.7 km/h Distance 41.39 km</desc>
<time>2010-06-13T09:39:33.80</time>
<name>10652</name>
</trkpt>
<trkpt lat="49.173910" lon="11.845108">
<ele>604.8</ele>
<speed>6.6</speed>
<course>10.2</course>
<desc>Speed 6.6 km/h Distance 41.39 km</desc>
<time>2010-06-13T09:39:34.79</time>
<name>10653</name>
</trkpt>
<trkpt lat="49.173928" lon="11.845113">
<ele>604.1</ele>
<speed>6.6</speed>
<course>353.4</course>
<desc>Speed 6.6 km/h Distance 41.39 km</desc>
<time>2010-06-13T09:39:35.80</time>
<name>10654</name>
</trkpt>
<trkpt lat="49.173948" lon="11.845110">
<ele>603.5</ele>
<speed>6.0</speed>
<course>344.0</course>
<desc>Speed 6.0 km/h Distance 41.39 km</desc>
<time>2010-06-13T09:39:36.79</time>
<name>10655</name>
</trkpt>
<trkpt lat="49.173975" lon="11.845098">
<ele>603.0</ele>
<speed>6.7</speed>
<course>346.8</course>
<desc>Speed 6.7 km/h Distance 41.40 km</desc>
<time>2010-06-13T09:39:37.79</time>
<name>10656</name>
</trkpt>
<trkpt lat="49.173998" lon="11.845090">
<ele>603.8</ele>
<speed>6.3</speed>
<course>341.9</course>
<desc>Speed 6.3 km/h Distance 41.40 km</desc>
<time>2010-06-13T09:39:38.77</time>
<name>10657</name>
</trkpt>
<trkpt lat="49.174015" lon="11.845082">
<ele>604.2</ele>
<speed>4.4</speed>
<course>326.2</course>
<desc>Speed 4.4 km/h Distance 41.40 km</desc>
<time>2010-06-13T09:39:39.78</time>
<name>10658</name>
</trkpt>
<trkpt lat="49.174083" lon="11.845012">
<ele>605.6</ele>
<speed>8.9</speed>
<course>299.1</course>
<desc>Speed 8.9 km/h Distance 41.41 km</desc>
<time>2010-06-13T09:39:41.78</time>
<name>10659</name>
</trkpt>
<trkpt lat="49.174097" lon="11.844975">
<ele>606.1</ele>
<speed>8.1</speed>
<course>312.5</course>
<desc>Speed 8.1 km/h Distance 41.41 km</desc>
<time>2010-06-13T09:39:42.78</time>
<name>10660</name>
</trkpt>
<trkpt lat="49.174112" lon="11.844950">
<ele>605.9</ele>
<speed>8.9</speed>
<course>297.9</course>
<desc>Speed 8.9 km/h Distance 41.42 km</desc>
<time>2010-06-13T09:39:43.78</time>
<name>10661</name>
</trkpt>
<trkpt lat="49.174127" lon="11.844907">
<ele>604.6</ele>
<speed>8.4</speed>
<course>312.1</course>
<desc>Speed 8.4 km/h Distance 41.42 km</desc>
<time>2010-06-13T09:39:44.78</time>
<name>10662</name>
</trkpt>
<trkpt lat="49.174148" lon="11.844870">
<ele>605.8</ele>
<speed>8.9</speed>
<course>318.4</course>
<desc>Speed 8.9 km/h Distance 41.42 km</desc>
<time>2010-06-13T09:39:45.78</time>
<name>10663</name>
</trkpt>
<trkpt lat="49.174172" lon="11.844838">
<ele>604.4</ele>
<speed>7.9</speed>
<course>313.7</course>
<desc>Speed 7.9 km/h Distance 41.43 km</desc>
<time>2010-06-13T09:39:46.78</time>
<name>10664</name>
</trkpt>
<trkpt lat="49.174197" lon="11.844798">
<ele>602.9</ele>
<speed>8.5</speed>
<course>313.7</course>
<desc>Speed 8.5 km/h Distance 41.43 km</desc>
<time>2010-06-13T09:39:47.78</time>
<name>10665</name>
</trkpt>
<trkpt lat="49.174213" lon="11.844772">
<ele>602.2</ele>
<speed>7.3</speed>
<course>314.2</course>
<desc>Speed 7.3 km/h Distance 41.43 km</desc>
<time>2010-06-13T09:39:48.77</time>
<name>10666</name>
</trkpt>
<trkpt lat="49.174237" lon="11.844735">
<ele>603.2</ele>
<speed>6.8</speed>
<course>313.7</course>
<desc>Speed 6.8 km/h Distance 41.44 km</desc>
<time>2010-06-13T09:39:49.78</time>
<name>10667</name>
</trkpt>
<trkpt lat="49.174253" lon="11.844708">
<ele>602.4</ele>
<speed>5.3</speed>
<course>296.0</course>
<desc>Speed 5.3 km/h Distance 41.44 km</desc>
<time>2010-06-13T09:39:50.78</time>
<name>10668</name>
</trkpt>
<trkpt lat="49.174265" lon="11.844672">
<ele>601.8</ele>
<speed>5.6</speed>
<course>280.8</course>
<desc>Speed 5.6 km/h Distance 41.44 km</desc>
<time>2010-06-13T09:39:51.79</time>
<name>10669</name>
</trkpt>
<trkpt lat="49.174268" lon="11.844645">
<ele>602.9</ele>
<speed>4.9</speed>
<course>304.5</course>
<desc>Speed 4.9 km/h Distance 41.44 km</desc>
<time>2010-06-13T09:39:52.78</time>
<name>10670</name>
</trkpt>
<trkpt lat="49.174283" lon="11.844612">
<ele>604.9</ele>
<speed>4.1</speed>
<course>289.4</course>
<desc>Speed 4.1 km/h Distance 41.45 km</desc>
<time>2010-06-13T09:39:53.77</time>
<name>10671</name>
</trkpt>
<trkpt lat="49.174288" lon="11.844590">
<ele>602.3</ele>
<speed>3.4</speed>
<course>292.7</course>
<desc>Speed 3.4 km/h Distance 41.45 km</desc>
<time>2010-06-13T09:39:54.78</time>
<name>10672</name>
</trkpt>
<trkpt lat="49.174293" lon="11.844572">
<ele>602.0</ele>
<speed>2.1</speed>
<course>318.0</course>
<desc>Speed 2.1 km/h Distance 41.45 km</desc>
<time>2010-06-13T09:39:55.77</time>
<name>10673</name>
</trkpt>
<trkpt lat="49.174307" lon="11.844553">
<ele>604.2</ele>
<speed>3.1</speed>
<course>253.0</course>
<desc>Speed 3.1 km/h Distance 41.45 km</desc>
<time>2010-06-13T09:39:56.80</time>
<name>10674</name>
</trkpt>
<trkpt lat="49.174303" lon="11.844537">
<ele>603.1</ele>
<speed>2.5</speed>
<course>299.8</course>
<desc>Speed 2.5 km/h Distance 41.45 km</desc>
<time>2010-06-13T09:39:57.78</time>
<name>10675</name>
</trkpt>
<trkpt lat="49.174313" lon="11.844510">
<ele>602.1</ele>
<speed>4.2</speed>
<course>293.6</course>
<desc>Speed 4.2 km/h Distance 41.46 km</desc>
<time>2010-06-13T09:39:58.77</time>
<name>10676</name>
</trkpt>
<trkpt lat="49.174320" lon="11.844487">
<ele>600.6</ele>
<speed>5.2</speed>
<course>297.0</course>
<desc>Speed 5.2 km/h Distance 41.46 km</desc>
<time>2010-06-13T09:39:59.79</time>
<name>10677</name>
</trkpt>
<trkpt lat="49.174327" lon="11.844467">
<ele>601.8</ele>
<speed>5.0</speed>
<course>275.5</course>
<desc>Speed 5.0 km/h Distance 41.46 km</desc>
<time>2010-06-13T09:40:00.78</time>
<name>10678</name>
</trkpt>
<trkpt lat="49.174328" lon="11.844440">
<ele>603.9</ele>
<speed>4.7</speed>
<course>288.8</course>
<desc>Speed 4.7 km/h Distance 41.46 km</desc>
<time>2010-06-13T09:40:01.77</time>
<name>10679</name>
</trkpt>
<trkpt lat="49.174335" lon="11.844410">
<ele>602.3</ele>
<speed>4.2</speed>
<course>277.3</course>
<desc>Speed 4.2 km/h Distance 41.46 km</desc>
<time>2010-06-13T09:40:02.78</time>
<name>10680</name>
</trkpt>
<trkpt lat="49.174338" lon="11.844370">
<ele>601.0</ele>
<speed>4.7</speed>
<course>284.3</course>
<desc>Speed 4.7 km/h Distance 41.47 km</desc>
<time>2010-06-13T09:40:03.78</time>
<name>10681</name>
</trkpt>
<trkpt lat="49.174343" lon="11.844340">
<ele>603.5</ele>
<speed>4.8</speed>
<course>265.1</course>
<desc>Speed 4.8 km/h Distance 41.47 km</desc>
<time>2010-06-13T09:40:04.79</time>
<name>10682</name>
</trkpt>
<trkpt lat="49.174342" lon="11.844310">
<ele>604.3</ele>
<speed>4.2</speed>
<course>264.5</course>
<desc>Speed 4.2 km/h Distance 41.47 km</desc>
<time>2010-06-13T09:40:05.79</time>
<name>10683</name>
</trkpt>
<trkpt lat="49.174340" lon="11.844283">
<ele>604.2</ele>
<speed>4.4</speed>
<course>260.4</course>
<desc>Speed 4.4 km/h Distance 41.47 km</desc>
<time>2010-06-13T09:40:06.78</time>
<name>10684</name>
</trkpt>
<trkpt lat="49.174337" lon="11.844253">
<ele>604.8</ele>
<speed>4.9</speed>
<course>247.3</course>
<desc>Speed 4.9 km/h Distance 41.47 km</desc>
<time>2010-06-13T09:40:07.77</time>
<name>10685</name>
</trkpt>
<trkpt lat="49.174332" lon="11.844235">
<ele>604.7</ele>
<speed>5.1</speed>
<course>249.1</course>
<desc>Speed 5.1 km/h Distance 41.48 km</desc>
<time>2010-06-13T09:40:08.80</time>
<name>10686</name>
</trkpt>
<trkpt lat="49.174325" lon="11.844208">
<ele>604.6</ele>
<speed>5.4</speed>
<course>250.2</course>
<desc>Speed 5.4 km/h Distance 41.48 km</desc>
<time>2010-06-13T09:40:09.78</time>
<name>10687</name>
</trkpt>
<trkpt lat="49.174318" lon="11.844180">
<ele>604.8</ele>
<speed>4.7</speed>
<course>270.0</course>
<desc>Speed 4.7 km/h Distance 41.48 km</desc>
<time>2010-06-13T09:40:10.79</time>
<name>10688</name>
</trkpt>
<trkpt lat="49.174318" lon="11.844152">
<ele>605.6</ele>
<speed>4.1</speed>
<course>276.7</course>
<desc>Speed 4.1 km/h Distance 41.48 km</desc>
<time>2010-06-13T09:40:11.77</time>
<name>10689</name>
</trkpt>
<trkpt lat="49.174320" lon="11.844130">
<ele>607.7</ele>
<speed>4.3</speed>
<course>270.0</course>
<desc>Speed 4.3 km/h Distance 41.48 km</desc>
<time>2010-06-13T09:40:12.79</time>
<name>10690</name>
</trkpt>
<trkpt lat="49.174320" lon="11.844098">
<ele>606.0</ele>
<speed>4.5</speed>
<course>284.9</course>
<desc>Speed 4.5 km/h Distance 41.49 km</desc>
<time>2010-06-13T09:40:13.79</time>
<name>10691</name>
</trkpt>
<trkpt lat="49.174327" lon="11.844060">
<ele>605.1</ele>
<speed>5.3</speed>
<course>318.0</course>
<desc>Speed 5.3 km/h Distance 41.49 km</desc>
<time>2010-06-13T09:40:14.78</time>
<name>10692</name>
</trkpt>
<trkpt lat="49.174340" lon="11.844042">
<ele>605.8</ele>
<speed>5.1</speed>
<course>288.8</course>
<desc>Speed 5.1 km/h Distance 41.49 km</desc>
<time>2010-06-13T09:40:15.79</time>
<name>10693</name>
</trkpt>
<trkpt lat="49.174343" lon="11.844027">
<ele>603.8</ele>
<speed>4.1</speed>
<course>282.3</course>
<desc>Speed 4.1 km/h Distance 41.49 km</desc>
<time>2010-06-13T09:40:16.78</time>
<name>10694</name>
</trkpt>
<trkpt lat="49.174347" lon="11.844003">
<ele>603.0</ele>
<speed>4.8</speed>
<course>278.7</course>
<desc>Speed 4.8 km/h Distance 41.49 km</desc>
<time>2010-06-13T09:40:17.77</time>
<name>10695</name>
</trkpt>
<trkpt lat="49.174348" lon="11.843987">
<ele>600.6</ele>
<speed>5.0</speed>
<course>300.8</course>
<desc>Speed 5.0 km/h Distance 41.50 km</desc>
<time>2010-06-13T09:40:18.77</time>
<name>10696</name>
</trkpt>
<trkpt lat="49.174360" lon="11.843957">
<ele>600.4</ele>
<speed>5.9</speed>
<course>253.0</course>
<desc>Speed 5.9 km/h Distance 41.50 km</desc>
<time>2010-06-13T09:40:19.78</time>
<name>10697</name>
</trkpt>
<trkpt lat="49.174357" lon="11.843940">
<ele>600.7</ele>
<speed>3.7</speed>
<course>262.1</course>
<desc>Speed 3.7 km/h Distance 41.50 km</desc>
<time>2010-06-13T09:40:20.77</time>
<name>10698</name>
</trkpt>
<trkpt lat="49.174355" lon="11.843922">
<ele>599.7</ele>
<speed>3.5</speed>
<course>0.0</course>
<desc>Speed 3.5 km/h Distance 41.50 km</desc>
<time>2010-06-13T09:40:21.76</time>
<name>10699</name>
</trkpt>
<trkpt lat="49.174357" lon="11.843922">
<ele>599.7</ele>
<speed>4.7</speed>
<course>270.0</course>
<desc>Speed 4.7 km/h Distance 41.50 km</desc>
<time>2010-06-13T09:40:22.77</time>
<name>10700</name>
</trkpt>
<trkpt lat="49.174357" lon="11.843903">
<ele>598.2</ele>
<speed>4.8</speed>
<course>270.0</course>
<desc>Speed 4.8 km/h Distance 41.50 km</desc>
<time>2010-06-13T09:40:23.78</time>
<name>10701</name>
</trkpt>
<trkpt lat="49.174357" lon="11.843885">
<ele>596.5</ele>
<speed>3.2</speed>
<course>270.0</course>
<desc>Speed 3.2 km/h Distance 41.50 km</desc>
<time>2010-06-13T09:40:24.77</time>
<name>10702</name>
</trkpt>
<trkpt lat="49.174357" lon="11.843858">
<ele>594.4</ele>
<speed>2.8</speed>
<course>281.5</course>
<desc>Speed 2.8 km/h Distance 41.51 km</desc>
<time>2010-06-13T09:40:25.77</time>
<name>10703</name>
</trkpt>
<trkpt lat="49.174360" lon="11.843833">
<ele>592.8</ele>
<speed>5.1</speed>
<course>302.8</course>
<desc>Speed 5.1 km/h Distance 41.51 km</desc>
<time>2010-06-13T09:40:26.78</time>
<name>10704</name>
</trkpt>
<trkpt lat="49.174373" lon="11.843802">
<ele>590.4</ele>
<speed>5.8</speed>
<course>290.2</course>
<desc>Speed 5.8 km/h Distance 41.51 km</desc>
<time>2010-06-13T09:40:27.77</time>
<name>10705</name>
</trkpt>
<trkpt lat="49.174383" lon="11.843760">
<ele>589.5</ele>
<speed>5.9</speed>
<course>270.0</course>
<desc>Speed 5.9 km/h Distance 41.51 km</desc>
<time>2010-06-13T09:40:28.78</time>
<name>10706</name>
</trkpt>
<trkpt lat="49.174383" lon="11.843730">
<ele>587.4</ele>
<speed>5.6</speed>
<course>276.7</course>
<desc>Speed 5.6 km/h Distance 41.52 km</desc>
<time>2010-06-13T09:40:29.79</time>
<name>10707</name>
</trkpt>
<trkpt lat="49.174385" lon="11.843708">
<ele>586.0</ele>
<speed>4.8</speed>
<course>270.0</course>
<desc>Speed 4.8 km/h Distance 41.52 km</desc>
<time>2010-06-13T09:40:30.78</time>
<name>10708</name>
</trkpt>
<trkpt lat="49.174385" lon="11.843682">
<ele>586.6</ele>
<speed>4.5</speed>
<course>245.4</course>
<desc>Speed 4.5 km/h Distance 41.52 km</desc>
<time>2010-06-13T09:40:31.78</time>
<name>10709</name>
</trkpt>
<trkpt lat="49.174380" lon="11.843665">
<ele>585.3</ele>
<speed>4.1</speed>
<course>251.9</course>
<desc>Speed 4.1 km/h Distance 41.52 km</desc>
<time>2010-06-13T09:40:32.77</time>
<name>10710</name>
</trkpt>
<trkpt lat="49.174375" lon="11.843642">
<ele>586.1</ele>
<speed>3.6</speed>
<course>270.0</course>
<desc>Speed 3.6 km/h Distance 41.52 km</desc>
<time>2010-06-13T09:40:33.78</time>
<name>10711</name>
</trkpt>
<trkpt lat="49.174375" lon="11.843618">
<ele>585.8</ele>
<speed>4.3</speed>
<course>288.9</course>
<desc>Speed 4.3 km/h Distance 41.52 km</desc>
<time>2010-06-13T09:40:34.77</time>
<name>10712</name>
</trkpt>
<trkpt lat="49.174378" lon="11.843603">
<ele>585.8</ele>
<speed>2.9</speed>
<course>311.7</course>
<desc>Speed 2.9 km/h Distance 41.53 km</desc>
<time>2010-06-13T09:40:35.78</time>
<name>10713</name>
</trkpt>
<trkpt lat="49.174390" lon="11.843583">
<ele>586.3</ele>
<speed>2.7</speed>
<course>287.9</course>
<desc>Speed 2.7 km/h Distance 41.53 km</desc>
<time>2010-06-13T09:40:36.77</time>
<name>10714</name>
</trkpt>
<trkpt lat="49.174397" lon="11.843552">
<ele>586.8</ele>
<speed>5.7</speed>
<course>290.9</course>
<desc>Speed 5.7 km/h Distance 41.53 km</desc>
<time>2010-06-13T09:40:37.76</time>
<name>10715</name>
</trkpt>
<trkpt lat="49.174405" lon="11.843518">
<ele>586.4</ele>
<speed>6.1</speed>
<course>294.3</course>
<desc>Speed 6.1 km/h Distance 41.53 km</desc>
<time>2010-06-13T09:40:38.79</time>
<name>10716</name>
</trkpt>
<trkpt lat="49.174427" lon="11.843445">
<ele>590.5</ele>
<speed>7.3</speed>
<course>286.0</course>
<desc>Speed 7.3 km/h Distance 41.54 km</desc>
<time>2010-06-13T09:40:40.79</time>
<name>10717</name>
</trkpt>
<trkpt lat="49.174432" lon="11.843418">
<ele>592.1</ele>
<speed>5.7</speed>
<course>282.3</course>
<desc>Speed 5.7 km/h Distance 41.54 km</desc>
<time>2010-06-13T09:40:41.78</time>
<name>10718</name>
</trkpt>
<trkpt lat="49.174435" lon="11.843395">
<ele>594.2</ele>
<speed>4.9</speed>
<course>305.5</course>
<desc>Speed 4.9 km/h Distance 41.54 km</desc>
<time>2010-06-13T09:40:42.78</time>
<name>10719</name>
</trkpt>
<trkpt lat="49.174447" lon="11.843370">
<ele>597.3</ele>
<speed>4.6</speed>
<course>255.7</course>
<desc>Speed 4.6 km/h Distance 41.54 km</desc>
<time>2010-06-13T09:40:43.78</time>
<name>10720</name>
</trkpt>
<trkpt lat="49.174443" lon="11.843350">
<ele>598.2</ele>
<speed>4.8</speed>
<course>207.5</course>
<desc>Speed 4.8 km/h Distance 41.55 km</desc>
<time>2010-06-13T09:40:44.77</time>
<name>10721</name>
</trkpt>
<trkpt lat="49.174435" lon="11.843343">
<ele>598.6</ele>
<speed>3.8</speed>
<course>321.9</course>
<desc>Speed 3.8 km/h Distance 41.55 km</desc>
<time>2010-06-13T09:40:45.77</time>
<name>10722</name>
</trkpt>
<trkpt lat="49.174452" lon="11.843323">
<ele>600.6</ele>
<speed>3.1</speed>
<course>330.8</course>
<desc>Speed 3.1 km/h Distance 41.55 km</desc>
<time>2010-06-13T09:40:46.77</time>
<name>10723</name>
</trkpt>
<trkpt lat="49.174463" lon="11.843313">
<ele>601.9</ele>
<speed>5.3</speed>
<course>311.2</course>
<desc>Speed 5.3 km/h Distance 41.55 km</desc>
<time>2010-06-13T09:40:47.78</time>
<name>10724</name>
</trkpt>
<trkpt lat="49.174483" lon="11.843278">
<ele>603.8</ele>
<speed>7.0</speed>
<course>300.8</course>
<desc>Speed 7.0 km/h Distance 41.55 km</desc>
<time>2010-06-13T09:40:48.78</time>
<name>10725</name>
</trkpt>
<trkpt lat="49.174495" lon="11.843248">
<ele>604.5</ele>
<speed>5.4</speed>
<course>297.0</course>
<desc>Speed 5.4 km/h Distance 41.56 km</desc>
<time>2010-06-13T09:40:49.77</time>
<name>10726</name>
</trkpt>
<trkpt lat="49.174503" lon="11.843223">
<ele>605.5</ele>
<speed>5.0</speed>
<course>285.7</course>
<desc>Speed 5.0 km/h Distance 41.56 km</desc>
<time>2010-06-13T09:40:50.79</time>
<name>10727</name>
</trkpt>
<trkpt lat="49.174518" lon="11.843142">
<ele>608.1</ele>
<speed>8.1</speed>
<course>274.2</course>
<desc>Speed 8.1 km/h Distance 41.56 km</desc>
<time>2010-06-13T09:40:52.78</time>
<name>10728</name>
</trkpt>
<trkpt lat="49.174520" lon="11.843107">
<ele>608.6</ele>
<speed>6.5</speed>
<course>270.0</course>
<desc>Speed 6.5 km/h Distance 41.57 km</desc>
<time>2010-06-13T09:40:53.77</time>
<name>10729</name>
</trkpt>
<trkpt lat="49.174520" lon="11.843067">
<ele>608.4</ele>
<speed>5.4</speed>
<course>302.8</course>
<desc>Speed 5.4 km/h Distance 41.57 km</desc>
<time>2010-06-13T09:40:54.77</time>
<name>10730</name>
</trkpt>
<trkpt lat="49.174533" lon="11.843035">
<ele>609.2</ele>
<speed>4.3</speed>
<course>270.0</course>
<desc>Speed 4.3 km/h Distance 41.57 km</desc>
<time>2010-06-13T09:40:55.76</time>
<name>10731</name>
</trkpt>
<trkpt lat="49.174533" lon="11.843002">
<ele>608.8</ele>
<speed>5.1</speed>
<course>304.2</course>
<desc>Speed 5.1 km/h Distance 41.58 km</desc>
<time>2010-06-13T09:40:56.78</time>
<name>10732</name>
</trkpt>
<trkpt lat="49.174547" lon="11.842972">
<ele>608.5</ele>
<speed>5.9</speed>
<course>297.0</course>
<desc>Speed 5.9 km/h Distance 41.58 km</desc>
<time>2010-06-13T09:40:57.79</time>
<name>10733</name>
</trkpt>
<trkpt lat="49.174557" lon="11.842942">
<ele>609.1</ele>
<speed>5.9</speed>
<course>260.4</course>
<desc>Speed 5.9 km/h Distance 41.58 km</desc>
<time>2010-06-13T09:40:58.77</time>
<name>10734</name>
</trkpt>
<trkpt lat="49.174553" lon="11.842912">
<ele>608.1</ele>
<speed>5.7</speed>
<course>292.2</course>
<desc>Speed 5.7 km/h Distance 41.58 km</desc>
<time>2010-06-13T09:40:59.78</time>
<name>10735</name>
</trkpt>
<trkpt lat="49.174560" lon="11.842887">
<ele>608.6</ele>
<speed>5.5</speed>
<course>250.2</course>
<desc>Speed 5.5 km/h Distance 41.58 km</desc>
<time>2010-06-13T09:41:00.78</time>
<name>10736</name>
</trkpt>
<trkpt lat="49.174553" lon="11.842858">
<ele>608.6</ele>
<speed>5.8</speed>
<course>260.9</course>
<desc>Speed 5.8 km/h Distance 41.59 km</desc>
<time>2010-06-13T09:41:01.77</time>
<name>10737</name>
</trkpt>
<trkpt lat="49.174550" lon="11.842827">
<ele>609.6</ele>
<speed>5.5</speed>
<course>270.0</course>
<desc>Speed 5.5 km/h Distance 41.59 km</desc>
<time>2010-06-13T09:41:02.77</time>
<name>10738</name>
</trkpt>
<trkpt lat="49.174550" lon="11.842797">
<ele>611.3</ele>
<speed>6.2</speed>
<course>270.0</course>
<desc>Speed 6.2 km/h Distance 41.59 km</desc>
<time>2010-06-13T09:41:03.77</time>
<name>10739</name>
</trkpt>
<trkpt lat="49.174550" lon="11.842758">
<ele>612.4</ele>
<speed>6.7</speed>
<course>309.6</course>
<desc>Speed 6.7 km/h Distance 41.59 km</desc>
<time>2010-06-13T09:41:04.78</time>
<name>10740</name>
</trkpt>
<trkpt lat="49.174572" lon="11.842718">
<ele>612.8</ele>
<speed>6.8</speed>
<course>300.7</course>
<desc>Speed 6.8 km/h Distance 41.60 km</desc>
<time>2010-06-13T09:41:05.80</time>
<name>10741</name>
</trkpt>
<trkpt lat="49.174603" lon="11.842637">
<ele>614.2</ele>
<speed>6.7</speed>
<course>283.2</course>
<desc>Speed 6.7 km/h Distance 41.60 km</desc>
<time>2010-06-13T09:41:07.79</time>
<name>10742</name>
</trkpt>
<trkpt lat="49.174610" lon="11.842593">
<ele>616.1</ele>
<speed>6.5</speed>
<course>259.8</course>
<desc>Speed 6.5 km/h Distance 41.61 km</desc>
<time>2010-06-13T09:41:08.76</time>
<name>10743</name>
</trkpt>
<trkpt lat="49.174607" lon="11.842565">
<ele>615.6</ele>
<speed>6.4</speed>
<course>290.2</course>
<desc>Speed 6.4 km/h Distance 41.61 km</desc>
<time>2010-06-13T09:41:09.77</time>
<name>10744</name>
</trkpt>
<trkpt lat="49.174617" lon="11.842523">
<ele>612.9</ele>
<speed>7.1</speed>
<course>299.4</course>
<desc>Speed 7.1 km/h Distance 41.61 km</desc>
<time>2010-06-13T09:41:10.77</time>
<name>10745</name>
</trkpt>
<trkpt lat="49.174628" lon="11.842492">
<ele>611.5</ele>
<speed>6.6</speed>
<course>274.4</course>
<desc>Speed 6.6 km/h Distance 41.62 km</desc>
<time>2010-06-13T09:41:11.77</time>
<name>10746</name>
</trkpt>
<trkpt lat="49.174630" lon="11.842458">
<ele>610.0</ele>
<speed>7.1</speed>
<course>293.0</course>
<desc>Speed 7.1 km/h Distance 41.62 km</desc>
<time>2010-06-13T09:41:12.79</time>
<name>10747</name>
</trkpt>
<trkpt lat="49.174638" lon="11.842428">
<ele>610.1</ele>
<speed>6.7</speed>
<course>254.9</course>
<desc>Speed 6.7 km/h Distance 41.62 km</desc>
<time>2010-06-13T09:41:13.77</time>
<name>10748</name>
</trkpt>
<trkpt lat="49.174633" lon="11.842400">
<ele>611.2</ele>
<speed>5.3</speed>
<course>277.9</course>
<desc>Speed 5.3 km/h Distance 41.62 km</desc>
<time>2010-06-13T09:41:14.77</time>
<name>10749</name>
</trkpt>
<trkpt lat="49.174637" lon="11.842363">
<ele>610.5</ele>
<speed>5.9</speed>
<course>257.7</course>
<desc>Speed 5.9 km/h Distance 41.63 km</desc>
<time>2010-06-13T09:41:15.77</time>
<name>10750</name>
</trkpt>
<trkpt lat="49.174632" lon="11.842328">
<ele>607.9</ele>
<speed>5.4</speed>
<course>297.0</course>
<desc>Speed 5.4 km/h Distance 41.63 km</desc>
<time>2010-06-13T09:41:16.77</time>
<name>10751</name>
</trkpt>
<trkpt lat="49.174657" lon="11.842253">
<ele>607.6</ele>
<speed>6.6</speed>
<course>284.3</course>
<desc>Speed 6.6 km/h Distance 41.63 km</desc>
<time>2010-06-13T09:41:18.79</time>
<name>10752</name>
</trkpt>
<trkpt lat="49.174662" lon="11.842223">
<ele>607.2</ele>
<speed>6.9</speed>
<course>270.0</course>
<desc>Speed 6.9 km/h Distance 41.64 km</desc>
<time>2010-06-13T09:41:19.78</time>
<name>10753</name>
</trkpt>
<trkpt lat="49.174662" lon="11.842207">
<ele>606.9</ele>
<speed>6.5</speed>
<course>309.0</course>
<desc>Speed 6.5 km/h Distance 41.64 km</desc>
<time>2010-06-13T09:41:20.76</time>
<name>10754</name>
</trkpt>
<trkpt lat="49.174677" lon="11.842178">
<ele>605.6</ele>
<speed>7.7</speed>
<course>298.2</course>
<desc>Speed 7.7 km/h Distance 41.64 km</desc>
<time>2010-06-13T09:41:21.77</time>
<name>10755</name>
</trkpt>
<trkpt lat="49.174688" lon="11.842145">
<ele>604.9</ele>
<speed>8.4</speed>
<course>260.4</course>
<desc>Speed 8.4 km/h Distance 41.64 km</desc>
<time>2010-06-13T09:41:22.77</time>
<name>10756</name>
</trkpt>
<trkpt lat="49.174685" lon="11.842115">
<ele>606.6</ele>
<speed>6.6</speed>
<course>270.0</course>
<desc>Speed 6.6 km/h Distance 41.65 km</desc>
<time>2010-06-13T09:41:23.77</time>
<name>10757</name>
</trkpt>
<trkpt lat="49.174685" lon="11.842085">
<ele>606.8</ele>
<speed>5.9</speed>
<course>311.5</course>
<desc>Speed 5.9 km/h Distance 41.65 km</desc>
<time>2010-06-13T09:41:24.79</time>
<name>10758</name>
</trkpt>
<trkpt lat="49.174703" lon="11.842053">
<ele>606.6</ele>
<speed>7.0</speed>
<course>304.1</course>
<desc>Speed 7.0 km/h Distance 41.65 km</desc>
<time>2010-06-13T09:41:25.78</time>
<name>10759</name>
</trkpt>
<trkpt lat="49.174742" lon="11.841967">
<ele>607.0</ele>
<speed>6.6</speed>
<course>309.9</course>
<desc>Speed 6.6 km/h Distance 41.66 km</desc>
<time>2010-06-13T09:41:27.77</time>
<name>10760</name>
</trkpt>
<trkpt lat="49.174762" lon="11.841930">
<ele>607.0</ele>
<speed>7.5</speed>
<course>293.6</course>
<desc>Speed 7.5 km/h Distance 41.66 km</desc>
<time>2010-06-13T09:41:28.76</time>
<name>10761</name>
</trkpt>
<trkpt lat="49.174775" lon="11.841883">
<ele>603.8</ele>
<speed>9.1</speed>
<course>290.9</course>
<desc>Speed 9.1 km/h Distance 41.67 km</desc>
<time>2010-06-13T09:41:29.77</time>
<name>10762</name>
</trkpt>
<trkpt lat="49.174785" lon="11.841843">
<ele>602.7</ele>
<speed>9.0</speed>
<course>296.1</course>
<desc>Speed 9.0 km/h Distance 41.67 km</desc>
<time>2010-06-13T09:41:30.76</time>
<name>10763</name>
</trkpt>
<trkpt lat="49.174798" lon="11.841802">
<ele>602.8</ele>
<speed>8.8</speed>
<course>286.4</course>
<desc>Speed 8.8 km/h Distance 41.67 km</desc>
<time>2010-06-13T09:41:31.77</time>
<name>10764</name>
</trkpt>
<trkpt lat="49.174807" lon="11.841758">
<ele>603.3</ele>
<speed>9.4</speed>
<course>302.7</course>
<desc>Speed 9.4 km/h Distance 41.68 km</desc>
<time>2010-06-13T09:41:32.78</time>
<name>10765</name>
</trkpt>
<trkpt lat="49.174828" lon="11.841707">
<ele>604.0</ele>
<speed>10.7</speed>
<course>299.8</course>
<desc>Speed 10.7 km/h Distance 41.68 km</desc>
<time>2010-06-13T09:41:33.77</time>
<name>10766</name>
</trkpt>
<trkpt lat="49.174848" lon="11.841653">
<ele>603.3</ele>
<speed>9.9</speed>
<course>283.2</course>
<desc>Speed 9.9 km/h Distance 41.68 km</desc>
<time>2010-06-13T09:41:34.77</time>
<name>10767</name>
</trkpt>
<trkpt lat="49.174855" lon="11.841610">
<ele>602.6</ele>
<speed>7.7</speed>
<course>326.8</course>
<desc>Speed 7.7 km/h Distance 41.69 km</desc>
<time>2010-06-13T09:41:35.76</time>
<name>10768</name>
</trkpt>
<trkpt lat="49.174872" lon="11.841593">
<ele>604.3</ele>
<speed>5.3</speed>
<course>331.4</course>
<desc>Speed 5.3 km/h Distance 41.69 km</desc>
<time>2010-06-13T09:41:36.77</time>
<name>10769</name>
</trkpt>
<trkpt lat="49.174882" lon="11.841585">
<ele>604.7</ele>
<speed>5.5</speed>
<course>319.9</course>
<desc>Speed 5.5 km/h Distance 41.69 km</desc>
<time>2010-06-13T09:41:37.77</time>
<name>10770</name>
</trkpt>
<trkpt lat="49.174905" lon="11.841555">
<ele>605.4</ele>
<speed>6.0</speed>
<course>307.4</course>
<desc>Speed 6.0 km/h Distance 41.69 km</desc>
<time>2010-06-13T09:41:38.77</time>
<name>10771</name>
</trkpt>
<trkpt lat="49.174917" lon="11.841532">
<ele>606.8</ele>
<speed>7.9</speed>
<course>310.2</course>
<desc>Speed 7.9 km/h Distance 41.70 km</desc>
<time>2010-06-13T09:41:39.79</time>
<name>10772</name>
</trkpt>
<trkpt lat="49.174960" lon="11.841453">
<ele>607.6</ele>
<speed>11.6</speed>
<course>312.6</course>
<desc>Speed 11.6 km/h Distance 41.70 km</desc>
<time>2010-06-13T09:41:41.78</time>
<name>10773</name>
</trkpt>
<trkpt lat="49.174985" lon="11.841412">
<ele>606.2</ele>
<speed>10.2</speed>
<course>294.1</course>
<desc>Speed 10.2 km/h Distance 41.71 km</desc>
<time>2010-06-13T09:41:42.77</time>
<name>10774</name>
</trkpt>
<trkpt lat="49.174997" lon="11.841372">
<ele>605.6</ele>
<speed>8.6</speed>
<course>304.2</course>
<desc>Speed 8.6 km/h Distance 41.71 km</desc>
<time>2010-06-13T09:41:43.78</time>
<name>10775</name>
</trkpt>
<trkpt lat="49.175017" lon="11.841327">
<ele>605.6</ele>
<speed>9.4</speed>
<course>283.8</course>
<desc>Speed 9.4 km/h Distance 41.71 km</desc>
<time>2010-06-13T09:41:44.78</time>
<name>10776</name>
</trkpt>
<trkpt lat="49.175023" lon="11.841285">
<ele>605.6</ele>
<speed>10.5</speed>
<course>303.2</course>
<desc>Speed 10.5 km/h Distance 41.72 km</desc>
<time>2010-06-13T09:41:45.78</time>
<name>10777</name>
</trkpt>
<trkpt lat="49.175043" lon="11.841238">
<ele>606.1</ele>
<speed>10.6</speed>
<course>279.3</course>
<desc>Speed 10.6 km/h Distance 41.72 km</desc>
<time>2010-06-13T09:41:46.77</time>
<name>10778</name>
</trkpt>
<trkpt lat="49.175048" lon="11.841192">
<ele>606.0</ele>
<speed>10.5</speed>
<course>298.4</course>
<desc>Speed 10.5 km/h Distance 41.73 km</desc>
<time>2010-06-13T09:41:47.77</time>
<name>10779</name>
</trkpt>
<trkpt lat="49.175068" lon="11.841135">
<ele>607.1</ele>
<speed>12.8</speed>
<course>265.4</course>
<desc>Speed 12.8 km/h Distance 41.73 km</desc>
<time>2010-06-13T09:41:48.77</time>
<name>10780</name>
</trkpt>
<trkpt lat="49.175065" lon="11.841072">
<ele>606.2</ele>
<speed>13.0</speed>
<course>292.3</course>
<desc>Speed 13.0 km/h Distance 41.73 km</desc>
<time>2010-06-13T09:41:49.78</time>
<name>10781</name>
</trkpt>
<trkpt lat="49.175102" lon="11.840935">
<ele>604.5</ele>
<speed>15.7</speed>
<course>289.9</course>
<desc>Speed 15.7 km/h Distance 41.75 km</desc>
<time>2010-06-13T09:41:51.77</time>
<name>10782</name>
</trkpt>
<trkpt lat="49.175117" lon="11.840872">
<ele>604.3</ele>
<speed>15.4</speed>
<course>297.0</course>
<desc>Speed 15.4 km/h Distance 41.75 km</desc>
<time>2010-06-13T09:41:52.76</time>
<name>10783</name>
</trkpt>
<trkpt lat="49.175135" lon="11.840817">
<ele>604.4</ele>
<speed>15.1</speed>
<course>296.4</course>
<desc>Speed 15.1 km/h Distance 41.76 km</desc>
<time>2010-06-13T09:41:53.78</time>
<name>10784</name>
</trkpt>
<trkpt lat="49.175155" lon="11.840755">
<ele>604.4</ele>
<speed>14.7</speed>
<course>284.6</course>
<desc>Speed 14.7 km/h Distance 41.76 km</desc>
<time>2010-06-13T09:41:54.77</time>
<name>10785</name>
</trkpt>
<trkpt lat="49.175167" lon="11.840687">
<ele>605.4</ele>
<speed>14.4</speed>
<course>278.3</course>
<desc>Speed 14.4 km/h Distance 41.77 km</desc>
<time>2010-06-13T09:41:55.77</time>
<name>10786</name>
</trkpt>
<trkpt lat="49.175173" lon="11.840617">
<ele>604.1</ele>
<speed>13.8</speed>
<course>302.3</course>
<desc>Speed 13.8 km/h Distance 41.77 km</desc>
<time>2010-06-13T09:41:56.77</time>
<name>10787</name>
</trkpt>
<trkpt lat="49.175193" lon="11.840568">
<ele>605.2</ele>
<speed>11.0</speed>
<course>272.5</course>
<desc>Speed 11.0 km/h Distance 41.77 km</desc>
<time>2010-06-13T09:41:57.77</time>
<name>10788</name>
</trkpt>
<trkpt lat="49.175195" lon="11.840510">
<ele>604.3</ele>
<speed>12.6</speed>
<course>286.6</course>
<desc>Speed 12.6 km/h Distance 41.78 km</desc>
<time>2010-06-13T09:41:58.76</time>
<name>10789</name>
</trkpt>
<trkpt lat="49.175207" lon="11.840450">
<ele>603.7</ele>
<speed>13.5</speed>
<course>281.4</course>
<desc>Speed 13.5 km/h Distance 41.78 km</desc>
<time>2010-06-13T09:41:59.76</time>
<name>10790</name>
</trkpt>
<trkpt lat="49.175215" lon="11.840387">
<ele>603.3</ele>
<speed>12.6</speed>
<course>289.3</course>
<desc>Speed 12.6 km/h Distance 41.79 km</desc>
<time>2010-06-13T09:42:00.76</time>
<name>10791</name>
</trkpt>
<trkpt lat="49.175228" lon="11.840328">
<ele>601.6</ele>
<speed>12.6</speed>
<course>267.0</course>
<desc>Speed 12.6 km/h Distance 41.79 km</desc>
<time>2010-06-13T09:42:01.78</time>
<name>10792</name>
</trkpt>
<trkpt lat="49.175227" lon="11.840280">
<ele>600.7</ele>
<speed>11.8</speed>
<course>259.5</course>
<desc>Speed 11.8 km/h Distance 41.80 km</desc>
<time>2010-06-13T09:42:02.78</time>
<name>10793</name>
</trkpt>
<trkpt lat="49.175220" lon="11.840225">
<ele>602.3</ele>
<speed>11.7</speed>
<course>239.5</course>
<desc>Speed 11.7 km/h Distance 41.80 km</desc>
<time>2010-06-13T09:42:03.78</time>
<name>10794</name>
</trkpt>
<trkpt lat="49.175203" lon="11.840182">
<ele>604.4</ele>
<speed>12.2</speed>
<course>254.2</course>
<desc>Speed 12.2 km/h Distance 41.80 km</desc>
<time>2010-06-13T09:42:04.77</time>
<name>10795</name>
</trkpt>
<trkpt lat="49.175195" lon="11.840137">
<ele>605.4</ele>
<speed>9.1</speed>
<course>231.5</course>
<desc>Speed 9.1 km/h Distance 41.81 km</desc>
<time>2010-06-13T09:42:05.77</time>
<name>10796</name>
</trkpt>
<trkpt lat="49.175173" lon="11.840095">
<ele>605.5</ele>
<speed>9.1</speed>
<course>249.1</course>
<desc>Speed 9.1 km/h Distance 41.81 km</desc>
<time>2010-06-13T09:42:06.78</time>
<name>10797</name>
</trkpt>
<trkpt lat="49.175163" lon="11.840055">
<ele>603.2</ele>
<speed>8.3</speed>
<course>266.0</course>
<desc>Speed 8.3 km/h Distance 41.81 km</desc>
<time>2010-06-13T09:42:07.76</time>
<name>10798</name>
</trkpt>
<trkpt lat="49.175162" lon="11.840018">
<ele>602.1</ele>
<speed>6.9</speed>
<course>240.6</course>
<desc>Speed 6.9 km/h Distance 41.82 km</desc>
<time>2010-06-13T09:42:08.77</time>
<name>10799</name>
</trkpt>
<trkpt lat="49.175150" lon="11.839987">
<ele>601.6</ele>
<speed>5.5</speed>
<course>254.4</course>
<desc>Speed 5.5 km/h Distance 41.82 km</desc>
<time>2010-06-13T09:42:09.76</time>
<name>10800</name>
</trkpt>
<trkpt lat="49.175143" lon="11.839950">
<ele>602.5</ele>
<speed>5.9</speed>
<course>221.7</course>
<desc>Speed 5.9 km/h Distance 41.82 km</desc>
<time>2010-06-13T09:42:10.78</time>
<name>10801</name>
</trkpt>
<trkpt lat="49.175125" lon="11.839925">
<ele>602.2</ele>
<speed>5.4</speed>
<course>211.1</course>
<desc>Speed 5.4 km/h Distance 41.82 km</desc>
<time>2010-06-13T09:42:11.77</time>
<name>10802</name>
</trkpt>
<trkpt lat="49.175103" lon="11.839905">
<ele>602.0</ele>
<speed>6.1</speed>
<course>240.6</course>
<desc>Speed 6.1 km/h Distance 41.83 km</desc>
<time>2010-06-13T09:42:12.78</time>
<name>10803</name>
</trkpt>
<trkpt lat="49.175092" lon="11.839873">
<ele>600.0</ele>
<speed>5.6</speed>
<course>263.3</course>
<desc>Speed 5.6 km/h Distance 41.83 km</desc>
<time>2010-06-13T09:42:13.76</time>
<name>10804</name>
</trkpt>
<trkpt lat="49.175088" lon="11.839830">
<ele>600.1</ele>
<speed>7.1</speed>
<course>290.9</course>
<desc>Speed 7.1 km/h Distance 41.83 km</desc>
<time>2010-06-13T09:42:14.77</time>
<name>10805</name>
</trkpt>
<trkpt lat="49.175100" lon="11.839783">
<ele>600.4</ele>
<speed>7.0</speed>
<course>260.4</course>
<desc>Speed 7.0 km/h Distance 41.84 km</desc>
<time>2010-06-13T09:42:15.77</time>
<name>10806</name>
</trkpt>
<trkpt lat="49.175097" lon="11.839753">
<ele>601.0</ele>
<speed>6.2</speed>
<course>258.5</course>
<desc>Speed 6.2 km/h Distance 41.84 km</desc>
<time>2010-06-13T09:42:16.76</time>
<name>10807</name>
</trkpt>
<trkpt lat="49.175093" lon="11.839728">
<ele>600.3</ele>
<speed>4.1</speed>
<course>264.9</course>
<desc>Speed 4.1 km/h Distance 41.84 km</desc>
<time>2010-06-13T09:42:17.78</time>
<name>10808</name>
</trkpt>
<trkpt lat="49.175092" lon="11.839700">
<ele>601.9</ele>
<speed>3.7</speed>
<course>245.8</course>
<desc>Speed 3.7 km/h Distance 41.84 km</desc>
<time>2010-06-13T09:42:18.78</time>
<name>10809</name>
</trkpt>
<trkpt lat="49.175083" lon="11.839672">
<ele>600.8</ele>
<speed>4.8</speed>
<course>283.6</course>
<desc>Speed 4.8 km/h Distance 41.85 km</desc>
<time>2010-06-13T09:42:19.79</time>
<name>10810</name>
</trkpt>
<trkpt lat="49.175088" lon="11.839640">
<ele>601.4</ele>
<speed>5.5</speed>
<course>253.7</course>
<desc>Speed 5.5 km/h Distance 41.85 km</desc>
<time>2010-06-13T09:42:20.78</time>
<name>10811</name>
</trkpt>
<trkpt lat="49.175082" lon="11.839605">
<ele>598.9</ele>
<speed>6.6</speed>
<course>251.2</course>
<desc>Speed 6.6 km/h Distance 41.85 km</desc>
<time>2010-06-13T09:42:21.78</time>
<name>10812</name>
</trkpt>
<trkpt lat="49.175072" lon="11.839560">
<ele>597.7</ele>
<speed>7.0</speed>
<course>248.4</course>
<desc>Speed 7.0 km/h Distance 41.85 km</desc>
<time>2010-06-13T09:42:22.76</time>
<name>10813</name>
</trkpt>
<trkpt lat="49.175060" lon="11.839515">
<ele>596.3</ele>
<speed>7.1</speed>
<course>253.8</course>
<desc>Speed 7.1 km/h Distance 41.86 km</desc>
<time>2010-06-13T09:42:23.77</time>
<name>10814</name>
</trkpt>
<trkpt lat="49.175053" lon="11.839480">
<ele>593.6</ele>
<speed>6.0</speed>
<course>231.4</course>
<desc>Speed 6.0 km/h Distance 41.86 km</desc>
<time>2010-06-13T09:42:24.76</time>
<name>10815</name>
</trkpt>
<trkpt lat="49.175015" lon="11.839407">
<ele>591.2</ele>
<speed>7.2</speed>
<course>239.3</course>
<desc>Speed 7.2 km/h Distance 41.87 km</desc>
<time>2010-06-13T09:42:26.78</time>
<name>10816</name>
</trkpt>
<trkpt lat="49.175003" lon="11.839377">
<ele>592.5</ele>
<speed>6.3</speed>
<course>206.5</course>
<desc>Speed 6.3 km/h Distance 41.87 km</desc>
<time>2010-06-13T09:42:27.77</time>
<name>10817</name>
</trkpt>
<trkpt lat="49.174975" lon="11.839355">
<ele>591.8</ele>
<speed>5.3</speed>
<course>228.5</course>
<desc>Speed 5.3 km/h Distance 41.87 km</desc>
<time>2010-06-13T09:42:28.77</time>
<name>10818</name>
</trkpt>
<trkpt lat="49.174957" lon="11.839323">
<ele>593.1</ele>
<speed>4.8</speed>
<course>202.7</course>
<desc>Speed 4.8 km/h Distance 41.88 km</desc>
<time>2010-06-13T09:42:29.77</time>
<name>10819</name>
</trkpt>
<trkpt lat="49.174897" lon="11.839285">
<ele>593.5</ele>
<speed>5.8</speed>
<course>206.1</course>
<desc>Speed 5.8 km/h Distance 41.88 km</desc>
<time>2010-06-13T09:42:31.78</time>
<name>10820</name>
</trkpt>
<trkpt lat="49.174877" lon="11.839270">
<ele>595.0</ele>
<speed>5.4</speed>
<course>208.0</course>
<desc>Speed 5.4 km/h Distance 41.89 km</desc>
<time>2010-06-13T09:42:32.78</time>
<name>10821</name>
</trkpt>
<trkpt lat="49.174858" lon="11.839255">
<ele>593.4</ele>
<speed>4.4</speed>
<course>247.8</course>
<desc>Speed 4.4 km/h Distance 41.89 km</desc>
<time>2010-06-13T09:42:33.77</time>
<name>10822</name>
</trkpt>
<trkpt lat="49.174852" lon="11.839230">
<ele>591.9</ele>
<speed>3.3</speed>
<course>265.6</course>
<desc>Speed 3.3 km/h Distance 41.89 km</desc>
<time>2010-06-13T09:42:34.77</time>
<name>10823</name>
</trkpt>
<trkpt lat="49.174850" lon="11.839197">
<ele>592.9</ele>
<speed>4.9</speed>
<course>244.0</course>
<desc>Speed 4.9 km/h Distance 41.89 km</desc>
<time>2010-06-13T09:42:35.77</time>
<name>10824</name>
</trkpt>
<trkpt lat="49.174838" lon="11.839160">
<ele>592.5</ele>
<speed>5.7</speed>
<course>270.0</course>
<desc>Speed 5.7 km/h Distance 41.90 km</desc>
<time>2010-06-13T09:42:36.77</time>
<name>10825</name>
</trkpt>
<trkpt lat="49.174838" lon="11.839120">
<ele>595.3</ele>
<speed>6.7</speed>
<course>257.7</course>
<desc>Speed 6.7 km/h Distance 41.90 km</desc>
<time>2010-06-13T09:42:37.78</time>
<name>10826</name>
</trkpt>
<trkpt lat="49.174833" lon="11.839085">
<ele>593.2</ele>
<speed>7.2</speed>
<course>266.9</course>
<desc>Speed 7.2 km/h Distance 41.90 km</desc>
<time>2010-06-13T09:42:38.77</time>
<name>10827</name>
</trkpt>
<trkpt lat="49.174832" lon="11.839038">
<ele>592.8</ele>
<speed>7.8</speed>
<course>282.3</course>
<desc>Speed 7.8 km/h Distance 41.90 km</desc>
<time>2010-06-13T09:42:39.76</time>
<name>10828</name>
</trkpt>
<trkpt lat="49.174838" lon="11.838992">
<ele>593.2</ele>
<speed>8.2</speed>
<course>263.5</course>
<desc>Speed 8.2 km/h Distance 41.91 km</desc>
<time>2010-06-13T09:42:40.76</time>
<name>10829</name>
</trkpt>
<trkpt lat="49.174835" lon="11.838947">
<ele>592.4</ele>
<speed>7.7</speed>
<course>283.8</course>
<desc>Speed 7.7 km/h Distance 41.91 km</desc>
<time>2010-06-13T09:42:41.79</time>
<name>10830</name>
</trkpt>
<trkpt lat="49.174842" lon="11.838905">
<ele>593.7</ele>
<speed>7.8</speed>
<course>246.4</course>
<desc>Speed 7.8 km/h Distance 41.91 km</desc>
<time>2010-06-13T09:42:42.77</time>
<name>10831</name>
</trkpt>
<trkpt lat="49.174832" lon="11.838870">
<ele>593.3</ele>
<speed>6.4</speed>
<course>260.9</course>
<desc>Speed 6.4 km/h Distance 41.92 km</desc>
<time>2010-06-13T09:42:43.76</time>
<name>10832</name>
</trkpt>
<trkpt lat="49.174828" lon="11.838838">
<ele>593.4</ele>
<speed>5.3</speed>
<course>295.9</course>
<desc>Speed 5.3 km/h Distance 41.92 km</desc>
<time>2010-06-13T09:42:44.77</time>
<name>10833</name>
</trkpt>
<trkpt lat="49.174840" lon="11.838802">
<ele>594.8</ele>
<speed>5.5</speed>
<course>292.1</course>
<desc>Speed 5.5 km/h Distance 41.92 km</desc>
<time>2010-06-13T09:42:45.77</time>
<name>10834</name>
</trkpt>
<trkpt lat="49.174862" lon="11.838720">
<ele>595.8</ele>
<speed>8.1</speed>
<course>283.2</course>
<desc>Speed 8.1 km/h Distance 41.93 km</desc>
<time>2010-06-13T09:42:47.77</time>
<name>10835</name>
</trkpt>
<trkpt lat="49.174868" lon="11.838677">
<ele>596.6</ele>
<speed>7.6</speed>
<course>291.6</course>
<desc>Speed 7.6 km/h Distance 41.93 km</desc>
<time>2010-06-13T09:42:48.77</time>
<name>10836</name>
</trkpt>
<trkpt lat="49.174880" lon="11.838632">
<ele>595.1</ele>
<speed>8.9</speed>
<course>285.5</course>
<desc>Speed 8.9 km/h Distance 41.94 km</desc>
<time>2010-06-13T09:42:49.78</time>
<name>10837</name>
</trkpt>
<trkpt lat="49.174887" lon="11.838595">
<ele>596.4</ele>
<speed>8.3</speed>
<course>277.0</course>
<desc>Speed 8.3 km/h Distance 41.94 km</desc>
<time>2010-06-13T09:42:50.78</time>
<name>10838</name>
</trkpt>
<trkpt lat="49.174890" lon="11.838553">
<ele>594.8</ele>
<speed>6.6</speed>
<course>279.6</course>
<desc>Speed 6.6 km/h Distance 41.94 km</desc>
<time>2010-06-13T09:42:51.76</time>
<name>10839</name>
</trkpt>
<trkpt lat="49.174895" lon="11.838508">
<ele>593.6</ele>
<speed>6.5</speed>
<course>287.7</course>
<desc>Speed 6.5 km/h Distance 41.94 km</desc>
<time>2010-06-13T09:42:52.77</time>
<name>10840</name>
</trkpt>
<trkpt lat="49.174903" lon="11.838468">
<ele>594.0</ele>
<speed>6.8</speed>
<course>285.8</course>
<desc>Speed 6.8 km/h Distance 41.95 km</desc>
<time>2010-06-13T09:42:53.76</time>
<name>10841</name>
</trkpt>
<trkpt lat="49.174912" lon="11.838423">
<ele>594.2</ele>
<speed>8.1</speed>
<course>291.9</course>
<desc>Speed 8.1 km/h Distance 41.95 km</desc>
<time>2010-06-13T09:42:54.77</time>
<name>10842</name>
</trkpt>
<trkpt lat="49.174920" lon="11.838392">
<ele>595.3</ele>
<speed>8.0</speed>
<course>301.4</course>
<desc>Speed 8.0 km/h Distance 41.95 km</desc>
<time>2010-06-13T09:42:55.77</time>
<name>10843</name>
</trkpt>
<trkpt lat="49.174930" lon="11.838367">
<ele>597.2</ele>
<speed>7.5</speed>
<course>277.9</course>
<desc>Speed 7.5 km/h Distance 41.96 km</desc>
<time>2010-06-13T09:42:56.78</time>
<name>10844</name>
</trkpt>
<trkpt lat="49.174933" lon="11.838330">
<ele>595.6</ele>
<speed>8.5</speed>
<course>293.6</course>
<desc>Speed 8.5 km/h Distance 41.96 km</desc>
<time>2010-06-13T09:42:57.77</time>
<name>10845</name>
</trkpt>
<trkpt lat="49.174943" lon="11.838295">
<ele>597.4</ele>
<speed>9.4</speed>
<course>289.0</course>
<desc>Speed 9.4 km/h Distance 41.96 km</desc>
<time>2010-06-13T09:42:58.78</time>
<name>10846</name>
</trkpt>
<trkpt lat="49.174955" lon="11.838243">
<ele>595.0</ele>
<speed>10.6</speed>
<course>299.8</course>
<desc>Speed 10.6 km/h Distance 41.97 km</desc>
<time>2010-06-13T09:42:59.78</time>
<name>10847</name>
</trkpt>
<trkpt lat="49.174970" lon="11.838203">
<ele>595.5</ele>
<speed>12.4</speed>
<course>290.4</course>
<desc>Speed 12.4 km/h Distance 41.97 km</desc>
<time>2010-06-13T09:43:00.76</time>
<name>10848</name>
</trkpt>
<trkpt lat="49.174985" lon="11.838142">
<ele>592.9</ele>
<speed>14.3</speed>
<course>298.3</course>
<desc>Speed 14.3 km/h Distance 41.97 km</desc>
<time>2010-06-13T09:43:01.78</time>
<name>10849</name>
</trkpt>
<trkpt lat="49.175007" lon="11.838080">
<ele>592.1</ele>
<speed>16.5</speed>
<course>299.9</course>
<desc>Speed 16.5 km/h Distance 41.98 km</desc>
<time>2010-06-13T09:43:02.78</time>
<name>10850</name>
</trkpt>
<trkpt lat="49.175070" lon="11.837912">
<ele>591.5</ele>
<speed>19.4</speed>
<course>287.8</course>
<desc>Speed 19.4 km/h Distance 41.99 km</desc>
<time>2010-06-13T09:43:04.77</time>
<name>10851</name>
</trkpt>
<trkpt lat="49.175085" lon="11.837840">
<ele>590.9</ele>
<speed>18.9</speed>
<course>290.6</course>
<desc>Speed 18.9 km/h Distance 42.00 km</desc>
<time>2010-06-13T09:43:05.77</time>
<name>10852</name>
</trkpt>
<trkpt lat="49.175127" lon="11.837670">
<ele>592.2</ele>
<speed>19.5</speed>
<course>286.1</course>
<desc>Speed 19.5 km/h Distance 42.01 km</desc>
<time>2010-06-13T09:43:07.77</time>
<name>10853</name>
</trkpt>
<trkpt lat="49.175138" lon="11.837608">
<ele>593.8</ele>
<speed>17.1</speed>
<course>263.5</course>
<desc>Speed 17.1 km/h Distance 42.02 km</desc>
<time>2010-06-13T09:43:08.77</time>
<name>10854</name>
</trkpt>
<trkpt lat="49.175133" lon="11.837542">
<ele>594.3</ele>
<speed>14.1</speed>
<course>294.9</course>
<desc>Speed 14.1 km/h Distance 42.02 km</desc>
<time>2010-06-13T09:43:09.76</time>
<name>10855</name>
</trkpt>
<trkpt lat="49.175185" lon="11.837372">
<ele>592.6</ele>
<speed>19.3</speed>
<course>293.3</course>
<desc>Speed 19.3 km/h Distance 42.03 km</desc>
<time>2010-06-13T09:43:11.75</time>
<name>10856</name>
</trkpt>
<trkpt lat="49.175237" lon="11.837188">
<ele>594.9</ele>
<speed>17.8</speed>
<course>281.3</course>
<desc>Speed 17.8 km/h Distance 42.05 km</desc>
<time>2010-06-13T09:43:13.76</time>
<name>10857</name>
</trkpt>
<trkpt lat="49.175247" lon="11.837112">
<ele>594.9</ele>
<speed>16.1</speed>
<course>295.4</course>
<desc>Speed 16.1 km/h Distance 42.05 km</desc>
<time>2010-06-13T09:43:14.76</time>
<name>10858</name>
</trkpt>
<trkpt lat="49.175270" lon="11.837037">
<ele>593.0</ele>
<speed>15.8</speed>
<course>301.2</course>
<desc>Speed 15.8 km/h Distance 42.06 km</desc>
<time>2010-06-13T09:43:15.77</time>
<name>10859</name>
</trkpt>
<trkpt lat="49.175298" lon="11.836965">
<ele>593.6</ele>
<speed>17.9</speed>
<course>312.8</course>
<desc>Speed 17.9 km/h Distance 42.07 km</desc>
<time>2010-06-13T09:43:16.77</time>
<name>10860</name>
</trkpt>
<trkpt lat="49.175385" lon="11.836822">
<ele>594.8</ele>
<speed>20.1</speed>
<course>318.4</course>
<desc>Speed 20.1 km/h Distance 42.08 km</desc>
<time>2010-06-13T09:43:18.76</time>
<name>10861</name>
</trkpt>
<trkpt lat="49.175427" lon="11.836765">
<ele>595.5</ele>
<speed>21.0</speed>
<course>317.7</course>
<desc>Speed 21.0 km/h Distance 42.09 km</desc>
<time>2010-06-13T09:43:19.76</time>
<name>10862</name>
</trkpt>
<trkpt lat="49.175473" lon="11.836700">
<ele>597.5</ele>
<speed>21.1</speed>
<course>315.6</course>
<desc>Speed 21.1 km/h Distance 42.09 km</desc>
<time>2010-06-13T09:43:20.76</time>
<name>10863</name>
</trkpt>
<trkpt lat="49.175523" lon="11.836625">
<ele>599.8</ele>
<speed>21.5</speed>
<course>311.2</course>
<desc>Speed 21.5 km/h Distance 42.10 km</desc>
<time>2010-06-13T09:43:21.76</time>
<name>10864</name>
</trkpt>
<trkpt lat="49.175563" lon="11.836555">
<ele>601.4</ele>
<speed>20.5</speed>
<course>298.1</course>
<desc>Speed 20.5 km/h Distance 42.11 km</desc>
<time>2010-06-13T09:43:22.78</time>
<name>10865</name>
</trkpt>
<trkpt lat="49.175588" lon="11.836483">
<ele>600.9</ele>
<speed>19.5</speed>
<course>296.4</course>
<desc>Speed 19.5 km/h Distance 42.11 km</desc>
<time>2010-06-13T09:43:23.78</time>
<name>10866</name>
</trkpt>
<trkpt lat="49.175608" lon="11.836422">
<ele>599.1</ele>
<speed>18.5</speed>
<course>292.8</course>
<desc>Speed 18.5 km/h Distance 42.12 km</desc>
<time>2010-06-13T09:43:24.77</time>
<name>10867</name>
</trkpt>
<trkpt lat="49.175627" lon="11.836355">
<ele>597.5</ele>
<speed>17.7</speed>
<course>294.7</course>
<desc>Speed 17.7 km/h Distance 42.13 km</desc>
<time>2010-06-13T09:43:25.76</time>
<name>10868</name>
</trkpt>
<trkpt lat="49.175642" lon="11.836305">
<ele>597.3</ele>
<speed>15.2</speed>
<course>297.7</course>
<desc>Speed 15.2 km/h Distance 42.13 km</desc>
<time>2010-06-13T09:43:26.76</time>
<name>10869</name>
</trkpt>
<trkpt lat="49.175660" lon="11.836252">
<ele>595.4</ele>
<speed>15.6</speed>
<course>303.8</course>
<desc>Speed 15.6 km/h Distance 42.13 km</desc>
<time>2010-06-13T09:43:27.77</time>
<name>10870</name>
</trkpt>
<trkpt lat="49.175683" lon="11.836198">
<ele>595.0</ele>
<speed>17.0</speed>
<course>307.4</course>
<desc>Speed 17.0 km/h Distance 42.14 km</desc>
<time>2010-06-13T09:43:28.77</time>
<name>10871</name>
</trkpt>
<trkpt lat="49.175713" lon="11.836138">
<ele>596.5</ele>
<speed>17.7</speed>
<course>301.8</course>
<desc>Speed 17.7 km/h Distance 42.14 km</desc>
<time>2010-06-13T09:43:29.76</time>
<name>10872</name>
</trkpt>
<trkpt lat="49.175742" lon="11.836068">
<ele>596.7</ele>
<speed>18.4</speed>
<course>311.3</course>
<desc>Speed 18.4 km/h Distance 42.15 km</desc>
<time>2010-06-13T09:43:30.76</time>
<name>10873</name>
</trkpt>
<trkpt lat="49.175780" lon="11.836002">
<ele>598.4</ele>
<speed>19.4</speed>
<course>306.7</course>
<desc>Speed 19.4 km/h Distance 42.16 km</desc>
<time>2010-06-13T09:43:31.76</time>
<name>10874</name>
</trkpt>
<trkpt lat="49.175813" lon="11.835933">
<ele>598.5</ele>
<speed>21.0</speed>
<course>314.6</course>
<desc>Speed 21.0 km/h Distance 42.16 km</desc>
<time>2010-06-13T09:43:32.76</time>
<name>10875</name>
</trkpt>
<trkpt lat="49.175862" lon="11.835858">
<ele>596.4</ele>
<speed>22.1</speed>
<course>303.6</course>
<desc>Speed 22.1 km/h Distance 42.17 km</desc>
<time>2010-06-13T09:43:33.77</time>
<name>10876</name>
</trkpt>
<trkpt lat="49.175895" lon="11.835782">
<ele>593.8</ele>
<speed>23.2</speed>
<course>302.0</course>
<desc>Speed 23.2 km/h Distance 42.18 km</desc>
<time>2010-06-13T09:43:34.77</time>
<name>10877</name>
</trkpt>
<trkpt lat="49.175928" lon="11.835700">
<ele>592.8</ele>
<speed>23.1</speed>
<course>308.7</course>
<desc>Speed 23.1 km/h Distance 42.18 km</desc>
<time>2010-06-13T09:43:35.77</time>
<name>10878</name>
</trkpt>
<trkpt lat="49.175965" lon="11.835630">
<ele>590.2</ele>
<speed>22.0</speed>
<course>302.3</course>
<desc>Speed 22.0 km/h Distance 42.19 km</desc>
<time>2010-06-13T09:43:36.77</time>
<name>10879</name>
</trkpt>
<trkpt lat="49.175997" lon="11.835553">
<ele>591.1</ele>
<speed>22.0</speed>
<course>302.8</course>
<desc>Speed 22.0 km/h Distance 42.20 km</desc>
<time>2010-06-13T09:43:37.76</time>
<name>10880</name>
</trkpt>
<trkpt lat="49.176023" lon="11.835490">
<ele>588.2</ele>
<speed>20.0</speed>
<course>311.5</course>
<desc>Speed 20.0 km/h Distance 42.20 km</desc>
<time>2010-06-13T09:43:38.75</time>
<name>10881</name>
</trkpt>
<trkpt lat="49.176060" lon="11.835427">
<ele>588.3</ele>
<speed>19.6</speed>
<course>302.3</course>
<desc>Speed 19.6 km/h Distance 42.21 km</desc>
<time>2010-06-13T09:43:39.77</time>
<name>10882</name>
</trkpt>
<trkpt lat="49.176092" lon="11.835350">
<ele>589.0</ele>
<speed>20.1</speed>
<course>308.0</course>
<desc>Speed 20.1 km/h Distance 42.22 km</desc>
<time>2010-06-13T09:43:40.75</time>
<name>10883</name>
</trkpt>
<trkpt lat="49.176133" lon="11.835268">
<ele>589.6</ele>
<speed>22.4</speed>
<course>302.5</course>
<desc>Speed 22.4 km/h Distance 42.22 km</desc>
<time>2010-06-13T09:43:41.76</time>
<name>10884</name>
</trkpt>
<trkpt lat="49.176167" lon="11.835188">
<ele>587.5</ele>
<speed>21.0</speed>
<course>294.7</course>
<desc>Speed 21.0 km/h Distance 42.23 km</desc>
<time>2010-06-13T09:43:42.76</time>
<name>10885</name>
</trkpt>
<trkpt lat="49.176192" lon="11.835105">
<ele>584.2</ele>
<speed>20.8</speed>
<course>292.2</course>
<desc>Speed 20.8 km/h Distance 42.24 km</desc>
<time>2010-06-13T09:43:43.76</time>
<name>10886</name>
</trkpt>
<trkpt lat="49.176212" lon="11.835030">
<ele>583.1</ele>
<speed>19.0</speed>
<course>290.9</course>
<desc>Speed 19.0 km/h Distance 42.24 km</desc>
<time>2010-06-13T09:43:44.75</time>
<name>10887</name>
</trkpt>
<trkpt lat="49.176228" lon="11.834963">
<ele>584.1</ele>
<speed>17.5</speed>
<course>298.8</course>
<desc>Speed 17.5 km/h Distance 42.25 km</desc>
<time>2010-06-13T09:43:45.79</time>
<name>10888</name>
</trkpt>
<trkpt lat="49.176252" lon="11.834898">
<ele>583.1</ele>
<speed>16.5</speed>
<course>304.8</course>
<desc>Speed 16.5 km/h Distance 42.25 km</desc>
<time>2010-06-13T09:43:46.77</time>
<name>10889</name>
</trkpt>
<trkpt lat="49.176277" lon="11.834843">
<ele>581.7</ele>
<speed>15.0</speed>
<course>305.6</course>
<desc>Speed 15.0 km/h Distance 42.26 km</desc>
<time>2010-06-13T09:43:47.77</time>
<name>10890</name>
</trkpt>
<trkpt lat="49.176302" lon="11.834790">
<ele>580.6</ele>
<speed>14.5</speed>
<course>304.8</course>
<desc>Speed 14.5 km/h Distance 42.26 km</desc>
<time>2010-06-13T09:43:48.76</time>
<name>10891</name>
</trkpt>
<trkpt lat="49.176327" lon="11.834735">
<ele>582.2</ele>
<speed>14.3</speed>
<course>321.5</course>
<desc>Speed 14.3 km/h Distance 42.27 km</desc>
<time>2010-06-13T09:43:49.78</time>
<name>10892</name>
</trkpt>
<trkpt lat="49.176365" lon="11.834688">
<ele>586.1</ele>
<speed>14.2</speed>
<course>304.5</course>
<desc>Speed 14.2 km/h Distance 42.27 km</desc>
<time>2010-06-13T09:43:50.77</time>
<name>10893</name>
</trkpt>
<trkpt lat="49.176395" lon="11.834622">
<ele>585.7</ele>
<speed>15.6</speed>
<course>294.8</course>
<desc>Speed 15.6 km/h Distance 42.28 km</desc>
<time>2010-06-13T09:43:51.77</time>
<name>10894</name>
</trkpt>
<trkpt lat="49.176417" lon="11.834550">
<ele>585.0</ele>
<speed>16.0</speed>
<course>318.6</course>
<desc>Speed 16.0 km/h Distance 42.28 km</desc>
<time>2010-06-13T09:43:52.77</time>
<name>10895</name>
</trkpt>
<trkpt lat="49.176450" lon="11.834505">
<ele>585.5</ele>
<speed>18.3</speed>
<course>313.4</course>
<desc>Speed 18.3 km/h Distance 42.29 km</desc>
<time>2010-06-13T09:43:53.76</time>
<name>10896</name>
</trkpt>
<trkpt lat="49.176493" lon="11.834435">
<ele>584.6</ele>
<speed>21.3</speed>
<course>317.5</course>
<desc>Speed 21.3 km/h Distance 42.30 km</desc>
<time>2010-06-13T09:43:54.76</time>
<name>10897</name>
</trkpt>
<trkpt lat="49.176535" lon="11.834377">
<ele>584.4</ele>
<speed>22.0</speed>
<course>313.0</course>
<desc>Speed 22.0 km/h Distance 42.30 km</desc>
<time>2010-06-13T09:43:55.76</time>
<name>10898</name>
</trkpt>
<trkpt lat="49.176577" lon="11.834308">
<ele>583.9</ele>
<speed>21.1</speed>
<course>300.6</course>
<desc>Speed 21.1 km/h Distance 42.31 km</desc>
<time>2010-06-13T09:43:56.76</time>
<name>10899</name>
</trkpt>
<trkpt lat="49.176605" lon="11.834235">
<ele>584.3</ele>
<speed>20.1</speed>
<course>279.2</course>
<desc>Speed 20.1 km/h Distance 42.32 km</desc>
<time>2010-06-13T09:43:57.76</time>
<name>10900</name>
</trkpt>
<trkpt lat="49.176613" lon="11.834157">
<ele>583.7</ele>
<speed>18.6</speed>
<course>279.4</course>
<desc>Speed 18.6 km/h Distance 42.32 km</desc>
<time>2010-06-13T09:43:58.77</time>
<name>10901</name>
</trkpt>
<trkpt lat="49.176622" lon="11.834080">
<ele>581.3</ele>
<speed>18.1</speed>
<course>290.1</course>
<desc>Speed 18.1 km/h Distance 42.33 km</desc>
<time>2010-06-13T09:43:59.79</time>
<name>10902</name>
</trkpt>
<trkpt lat="49.176640" lon="11.834003">
<ele>581.4</ele>
<speed>18.1</speed>
<course>309.6</course>
<desc>Speed 18.1 km/h Distance 42.33 km</desc>
<time>2010-06-13T09:44:00.77</time>
<name>10903</name>
</trkpt>
<trkpt lat="49.176673" lon="11.833942">
<ele>581.2</ele>
<speed>18.5</speed>
<course>287.0</course>
<desc>Speed 18.5 km/h Distance 42.34 km</desc>
<time>2010-06-13T09:44:01.76</time>
<name>10904</name>
</trkpt>
<trkpt lat="49.176687" lon="11.833875">
<ele>581.7</ele>
<speed>17.4</speed>
<course>287.4</course>
<desc>Speed 17.4 km/h Distance 42.34 km</desc>
<time>2010-06-13T09:44:02.77</time>
<name>10905</name>
</trkpt>
<trkpt lat="49.176700" lon="11.833810">
<ele>579.8</ele>
<speed>17.5</speed>
<course>290.9</course>
<desc>Speed 17.5 km/h Distance 42.35 km</desc>
<time>2010-06-13T09:44:03.76</time>
<name>10906</name>
</trkpt>
<trkpt lat="49.176715" lon="11.833750">
<ele>579.1</ele>
<speed>16.6</speed>
<course>301.1</course>
<desc>Speed 16.6 km/h Distance 42.35 km</desc>
<time>2010-06-13T09:44:04.75</time>
<name>10907</name>
</trkpt>
<trkpt lat="49.176740" lon="11.833687">
<ele>577.9</ele>
<speed>15.5</speed>
<course>290.9</course>
<desc>Speed 15.5 km/h Distance 42.36 km</desc>
<time>2010-06-13T09:44:05.76</time>
<name>10908</name>
</trkpt>
<trkpt lat="49.176753" lon="11.833633">
<ele>579.0</ele>
<speed>14.5</speed>
<course>297.0</course>
<desc>Speed 14.5 km/h Distance 42.36 km</desc>
<time>2010-06-13T09:44:06.77</time>
<name>10909</name>
</trkpt>
<trkpt lat="49.176768" lon="11.833588">
<ele>580.1</ele>
<speed>13.7</speed>
<course>280.3</course>
<desc>Speed 13.7 km/h Distance 42.37 km</desc>
<time>2010-06-13T09:44:07.77</time>
<name>10910</name>
</trkpt>
<trkpt lat="49.176777" lon="11.833518">
<ele>579.7</ele>
<speed>15.3</speed>
<course>278.7</course>
<desc>Speed 15.3 km/h Distance 42.37 km</desc>
<time>2010-06-13T09:44:08.76</time>
<name>10911</name>
</trkpt>
<trkpt lat="49.176785" lon="11.833435">
<ele>580.7</ele>
<speed>16.7</speed>
<course>279.6</course>
<desc>Speed 16.7 km/h Distance 42.38 km</desc>
<time>2010-06-13T09:44:09.75</time>
<name>10912</name>
</trkpt>
<trkpt lat="49.176793" lon="11.833360">
<ele>582.0</ele>
<speed>18.1</speed>
<course>290.5</course>
<desc>Speed 18.1 km/h Distance 42.38 km</desc>
<time>2010-06-13T09:44:10.77</time>
<name>10913</name>
</trkpt>
<trkpt lat="49.176813" lon="11.833278">
<ele>583.1</ele>
<speed>18.4</speed>
<course>293.6</course>
<desc>Speed 18.4 km/h Distance 42.39 km</desc>
<time>2010-06-13T09:44:11.75</time>
<name>10914</name>
</trkpt>
<trkpt lat="49.176837" lon="11.833197">
<ele>585.5</ele>
<speed>20.3</speed>
<course>287.6</course>
<desc>Speed 20.3 km/h Distance 42.40 km</desc>
<time>2010-06-13T09:44:12.76</time>
<name>10915</name>
</trkpt>
<trkpt lat="49.176855" lon="11.833108">
<ele>588.1</ele>
<speed>20.1</speed>
<course>281.8</course>
<desc>Speed 20.1 km/h Distance 42.40 km</desc>
<time>2010-06-13T09:44:13.76</time>
<name>10916</name>
</trkpt>
<trkpt lat="49.176865" lon="11.833035">
<ele>587.7</ele>
<speed>19.2</speed>
<course>283.9</course>
<desc>Speed 19.2 km/h Distance 42.41 km</desc>
<time>2010-06-13T09:44:14.76</time>
<name>10917</name>
</trkpt>
<trkpt lat="49.176875" lon="11.832973">
<ele>585.4</ele>
<speed>17.0</speed>
<course>278.9</course>
<desc>Speed 17.0 km/h Distance 42.41 km</desc>
<time>2010-06-13T09:44:15.75</time>
<name>10918</name>
</trkpt>
<trkpt lat="49.176882" lon="11.832908">
<ele>586.1</ele>
<speed>16.4</speed>
<course>283.9</course>
<desc>Speed 16.4 km/h Distance 42.42 km</desc>
<time>2010-06-13T09:44:16.75</time>
<name>10919</name>
</trkpt>
<trkpt lat="49.176892" lon="11.832847">
<ele>587.1</ele>
<speed>16.4</speed>
<course>286.6</course>
<desc>Speed 16.4 km/h Distance 42.42 km</desc>
<time>2010-06-13T09:44:17.77</time>
<name>10920</name>
</trkpt>
<trkpt lat="49.176903" lon="11.832787">
<ele>583.2</ele>
<speed>18.2</speed>
<course>283.9</course>
<desc>Speed 18.2 km/h Distance 42.43 km</desc>
<time>2010-06-13T09:44:18.75</time>
<name>10921</name>
</trkpt>
<trkpt lat="49.176913" lon="11.832725">
<ele>578.7</ele>
<speed>16.1</speed>
<course>291.8</course>
<desc>Speed 16.1 km/h Distance 42.43 km</desc>
<time>2010-06-13T09:44:19.75</time>
<name>10922</name>
</trkpt>
<trkpt lat="49.176932" lon="11.832655">
<ele>577.8</ele>
<speed>15.2</speed>
<course>300.1</course>
<desc>Speed 15.2 km/h Distance 42.44 km</desc>
<time>2010-06-13T09:44:20.77</time>
<name>10923</name>
</trkpt>
<trkpt lat="49.176955" lon="11.832593">
<ele>577.7</ele>
<speed>14.4</speed>
<course>289.3</course>
<desc>Speed 14.4 km/h Distance 42.44 km</desc>
<time>2010-06-13T09:44:21.76</time>
<name>10924</name>
</trkpt>
<trkpt lat="49.176968" lon="11.832535">
<ele>582.2</ele>
<speed>13.8</speed>
<course>287.0</course>
<desc>Speed 13.8 km/h Distance 42.45 km</desc>
<time>2010-06-13T09:44:22.75</time>
<name>10925</name>
</trkpt>
<trkpt lat="49.176978" lon="11.832485">
<ele>582.8</ele>
<speed>12.8</speed>
<course>284.8</course>
<desc>Speed 12.8 km/h Distance 42.45 km</desc>
<time>2010-06-13T09:44:23.76</time>
<name>10926</name>
</trkpt>
<trkpt lat="49.176987" lon="11.832437">
<ele>584.3</ele>
<speed>11.3</speed>
<course>292.6</course>
<desc>Speed 11.3 km/h Distance 42.45 km</desc>
<time>2010-06-13T09:44:24.76</time>
<name>10927</name>
</trkpt>
<trkpt lat="49.177002" lon="11.832382">
<ele>583.7</ele>
<speed>11.1</speed>
<course>293.2</course>
<desc>Speed 11.1 km/h Distance 42.46 km</desc>
<time>2010-06-13T09:44:25.75</time>
<name>10928</name>
</trkpt>
<trkpt lat="49.177013" lon="11.832340">
<ele>583.2</ele>
<speed>12.1</speed>
<course>286.0</course>
<desc>Speed 12.1 km/h Distance 42.46 km</desc>
<time>2010-06-13T09:44:26.77</time>
<name>10929</name>
</trkpt>
<trkpt lat="49.177023" lon="11.832287">
<ele>581.8</ele>
<speed>12.5</speed>
<course>296.3</course>
<desc>Speed 12.5 km/h Distance 42.47 km</desc>
<time>2010-06-13T09:44:27.74</time>
<name>10930</name>
</trkpt>
<trkpt lat="49.177042" lon="11.832230">
<ele>582.8</ele>
<speed>12.2</speed>
<course>305.2</course>
<desc>Speed 12.2 km/h Distance 42.47 km</desc>
<time>2010-06-13T09:44:28.76</time>
<name>10931</name>
</trkpt>
<trkpt lat="49.177062" lon="11.832187">
<ele>583.8</ele>
<speed>11.1</speed>
<course>302.3</course>
<desc>Speed 11.1 km/h Distance 42.47 km</desc>
<time>2010-06-13T09:44:29.76</time>
<name>10932</name>
</trkpt>
<trkpt lat="49.177082" lon="11.832138">
<ele>587.5</ele>
<speed>11.1</speed>
<course>295.2</course>
<desc>Speed 11.1 km/h Distance 42.48 km</desc>
<time>2010-06-13T09:44:30.76</time>
<name>10933</name>
</trkpt>
<trkpt lat="49.177095" lon="11.832095">
<ele>592.7</ele>
<speed>10.3</speed>
<course>308.4</course>
<desc>Speed 10.3 km/h Distance 42.48 km</desc>
<time>2010-06-13T09:44:31.75</time>
<name>10934</name>
</trkpt>
<trkpt lat="49.177118" lon="11.832050">
<ele>593.6</ele>
<speed>11.7</speed>
<course>309.6</course>
<desc>Speed 11.7 km/h Distance 42.49 km</desc>
<time>2010-06-13T09:44:32.76</time>
<name>10935</name>
</trkpt>
<trkpt lat="49.177140" lon="11.832010">
<ele>592.1</ele>
<speed>11.7</speed>
<course>302.5</course>
<desc>Speed 11.7 km/h Distance 42.49 km</desc>
<time>2010-06-13T09:44:33.77</time>
<name>10936</name>
</trkpt>
<trkpt lat="49.177157" lon="11.831970">
<ele>592.7</ele>
<speed>11.4</speed>
<course>305.2</course>
<desc>Speed 11.4 km/h Distance 42.49 km</desc>
<time>2010-06-13T09:44:34.74</time>
<name>10937</name>
</trkpt>
<trkpt lat="49.177177" lon="11.831927">
<ele>593.3</ele>
<speed>12.2</speed>
<course>308.6</course>
<desc>Speed 12.2 km/h Distance 42.50 km</desc>
<time>2010-06-13T09:44:35.76</time>
<name>10938</name>
</trkpt>
<trkpt lat="49.177197" lon="11.831888">
<ele>591.1</ele>
<speed>11.6</speed>
<course>290.0</course>
<desc>Speed 11.6 km/h Distance 42.50 km</desc>
<time>2010-06-13T09:44:36.76</time>
<name>10939</name>
</trkpt>
<trkpt lat="49.177205" lon="11.831853">
<ele>590.4</ele>
<speed>9.3</speed>
<course>317.0</course>
<desc>Speed 9.3 km/h Distance 42.50 km</desc>
<time>2010-06-13T09:44:37.76</time>
<name>10940</name>
</trkpt>
<trkpt lat="49.177228" lon="11.831820">
<ele>590.9</ele>
<speed>8.5</speed>
<course>301.5</course>
<desc>Speed 8.5 km/h Distance 42.51 km</desc>
<time>2010-06-13T09:44:38.76</time>
<name>10941</name>
</trkpt>
<trkpt lat="49.177242" lon="11.831787">
<ele>590.5</ele>
<speed>8.6</speed>
<course>287.0</course>
<desc>Speed 8.6 km/h Distance 42.51 km</desc>
<time>2010-06-13T09:44:39.76</time>
<name>10942</name>
</trkpt>
<trkpt lat="49.177247" lon="11.831762">
<ele>590.7</ele>
<speed>6.8</speed>
<course>256.7</course>
<desc>Speed 6.8 km/h Distance 42.51 km</desc>
<time>2010-06-13T09:44:40.77</time>
<name>10943</name>
</trkpt>
<trkpt lat="49.177243" lon="11.831740">
<ele>590.7</ele>
<speed>5.8</speed>
<course>313.7</course>
<desc>Speed 5.8 km/h Distance 42.51 km</desc>
<time>2010-06-13T09:44:41.75</time>
<name>10944</name>
</trkpt>
<trkpt lat="49.177260" lon="11.831713">
<ele>590.6</ele>
<speed>6.0</speed>
<course>319.0</course>
<desc>Speed 6.0 km/h Distance 42.52 km</desc>
<time>2010-06-13T09:44:42.77</time>
<name>10945</name>
</trkpt>
<trkpt lat="49.177275" lon="11.831693">
<ele>590.4</ele>
<speed>6.4</speed>
<course>304.8</course>
<desc>Speed 6.4 km/h Distance 42.52 km</desc>
<time>2010-06-13T09:44:43.77</time>
<name>10946</name>
</trkpt>
<trkpt lat="49.177283" lon="11.831675">
<ele>591.3</ele>
<speed>6.2</speed>
<course>330.5</course>
<desc>Speed 6.2 km/h Distance 42.52 km</desc>
<time>2010-06-13T09:44:44.76</time>
<name>10947</name>
</trkpt>
<trkpt lat="49.177308" lon="11.831653">
<ele>590.4</ele>
<speed>7.1</speed>
<course>320.7</course>
<desc>Speed 7.1 km/h Distance 42.52 km</desc>
<time>2010-06-13T09:44:45.77</time>
<name>10948</name>
</trkpt>
<trkpt lat="49.177322" lon="11.831637">
<ele>592.1</ele>
<speed>4.1</speed>
<course>307.4</course>
<desc>Speed 4.1 km/h Distance 42.53 km</desc>
<time>2010-06-13T09:44:46.76</time>
<name>10949</name>
</trkpt>
<trkpt lat="49.177330" lon="11.831620">
<ele>595.0</ele>
<speed>3.8</speed>
<course>331.7</course>
<desc>Speed 3.8 km/h Distance 42.53 km</desc>
<time>2010-06-13T09:44:47.77</time>
<name>10950</name>
</trkpt>
<trkpt lat="49.177340" lon="11.831612">
<ele>597.7</ele>
<speed>1.9</speed>
<course>227.1</course>
<desc>Speed 1.9 km/h Distance 42.53 km</desc>
<time>2010-06-13T09:44:48.76</time>
<name>10951</name>
</trkpt>
<trkpt lat="49.177335" lon="11.831603">
<ele>599.5</ele>
<speed>2.5</speed>
<course>232.7</course>
<desc>Speed 2.5 km/h Distance 42.53 km</desc>
<time>2010-06-13T09:44:49.77</time>
<name>10952</name>
</trkpt>
<trkpt lat="49.177328" lon="11.831590">
<ele>600.0</ele>
<speed>3.5</speed>
<course>246.4</course>
<desc>Speed 3.5 km/h Distance 42.53 km</desc>
<time>2010-06-13T09:44:50.77</time>
<name>10953</name>
</trkpt>
<trkpt lat="49.177325" lon="11.831578">
<ele>600.8</ele>
<speed>3.8</speed>
<course>226.4</course>
<desc>Speed 3.8 km/h Distance 42.53 km</desc>
<time>2010-06-13T09:44:51.76</time>
<name>10954</name>
</trkpt>
<trkpt lat="49.177317" lon="11.831565">
<ele>600.9</ele>
<speed>3.2</speed>
<course>213.2</course>
<desc>Speed 3.2 km/h Distance 42.53 km</desc>
<time>2010-06-13T09:44:52.76</time>
<name>10955</name>
</trkpt>
<trkpt lat="49.177310" lon="11.831558">
<ele>601.6</ele>
<speed>2.8</speed>
<course>213.2</course>
<desc>Speed 2.8 km/h Distance 42.53 km</desc>
<time>2010-06-13T09:44:53.76</time>
<name>10956</name>
</trkpt>
<trkpt lat="49.177300" lon="11.831548">
<ele>600.8</ele>
<speed>3.5</speed>
<course>284.3</course>
<desc>Speed 3.5 km/h Distance 42.53 km</desc>
<time>2010-06-13T09:44:54.75</time>
<name>10957</name>
</trkpt>
<trkpt lat="49.177303" lon="11.831528">
<ele>601.3</ele>
<speed>4.5</speed>
<course>270.0</course>
<desc>Speed 4.5 km/h Distance 42.54 km</desc>
<time>2010-06-13T09:44:55.75</time>
<name>10958</name>
</trkpt>
<trkpt lat="49.177303" lon="11.831508">
<ele>601.0</ele>
<speed>4.0</speed>
<course>311.3</course>
<desc>Speed 4.0 km/h Distance 42.54 km</desc>
<time>2010-06-13T09:44:56.77</time>
<name>10959</name>
</trkpt>
<trkpt lat="49.177310" lon="11.831497">
<ele>602.7</ele>
<speed>4.1</speed>
<course>310.3</course>
<desc>Speed 4.1 km/h Distance 42.54 km</desc>
<time>2010-06-13T09:44:57.76</time>
<name>10960</name>
</trkpt>
<trkpt lat="49.177318" lon="11.831482">
<ele>603.3</ele>
<speed>5.3</speed>
<course>312.6</course>
<desc>Speed 5.3 km/h Distance 42.54 km</desc>
<time>2010-06-13T09:44:58.76</time>
<name>10961</name>
</trkpt>
<trkpt lat="49.177323" lon="11.831473">
<ele>602.8</ele>
<speed>4.3</speed>
<course>277.9</course>
<desc>Speed 4.3 km/h Distance 42.54 km</desc>
<time>2010-06-13T09:44:59.77</time>
<name>10962</name>
</trkpt>
<trkpt lat="49.177325" lon="11.831455">
<ele>600.6</ele>
<speed>3.6</speed>
<course>280.2</course>
<desc>Speed 3.6 km/h Distance 42.54 km</desc>
<time>2010-06-13T09:45:00.75</time>
<name>10963</name>
</trkpt>
<trkpt lat="49.177328" lon="11.831427">
<ele>601.2</ele>
<speed>3.8</speed>
<course>276.7</course>
<desc>Speed 3.8 km/h Distance 42.54 km</desc>
<time>2010-06-13T09:45:01.76</time>
<name>10964</name>
</trkpt>
<trkpt lat="49.177330" lon="11.831405">
<ele>600.0</ele>
<speed>4.8</speed>
<course>298.4</course>
<desc>Speed 4.8 km/h Distance 42.55 km</desc>
<time>2010-06-13T09:45:02.76</time>
<name>10965</name>
</trkpt>
<trkpt lat="49.177340" lon="11.831377">
<ele>599.1</ele>
<speed>5.0</speed>
<course>299.9</course>
<desc>Speed 5.0 km/h Distance 42.55 km</desc>
<time>2010-06-13T09:45:03.78</time>
<name>10966</name>
</trkpt>
<trkpt lat="49.177345" lon="11.831363">
<ele>598.6</ele>
<speed>4.5</speed>
<course>264.5</course>
<desc>Speed 4.5 km/h Distance 42.55 km</desc>
<time>2010-06-13T09:45:04.77</time>
<name>10967</name>
</trkpt>
<trkpt lat="49.177343" lon="11.831337">
<ele>596.6</ele>
<speed>4.8</speed>
<course>229.7</course>
<desc>Speed 4.8 km/h Distance 42.55 km</desc>
<time>2010-06-13T09:45:05.76</time>
<name>10968</name>
</trkpt>
<trkpt lat="49.177335" lon="11.831322">
<ele>596.9</ele>
<speed>4.4</speed>
<course>291.0</course>
<desc>Speed 4.4 km/h Distance 42.55 km</desc>
<time>2010-06-13T09:45:06.77</time>
<name>10969</name>
</trkpt>
<trkpt lat="49.177340" lon="11.831302">
<ele>597.3</ele>
<speed>4.0</speed>
<course>270.0</course>
<desc>Speed 4.0 km/h Distance 42.55 km</desc>
<time>2010-06-13T09:45:07.76</time>
<name>10970</name>
</trkpt>
<trkpt lat="49.177340" lon="11.831280">
<ele>596.9</ele>
<speed>3.5</speed>
<course>270.0</course>
<desc>Speed 3.5 km/h Distance 42.56 km</desc>
<time>2010-06-13T09:45:08.76</time>
<name>10971</name>
</trkpt>
<trkpt lat="49.177340" lon="11.831262">
<ele>596.9</ele>
<speed>4.6</speed>
<course>307.4</course>
<desc>Speed 4.6 km/h Distance 42.56 km</desc>
<time>2010-06-13T09:45:09.77</time>
<name>10972</name>
</trkpt>
<trkpt lat="49.177350" lon="11.831242">
<ele>599.1</ele>
<speed>4.5</speed>
<course>304.8</course>
<desc>Speed 4.5 km/h Distance 42.56 km</desc>
<time>2010-06-13T09:45:10.76</time>
<name>10973</name>
</trkpt>
<trkpt lat="49.177358" lon="11.831223">
<ele>601.1</ele>
<speed>4.3</speed>
<course>336.2</course>
<desc>Speed 4.3 km/h Distance 42.56 km</desc>
<time>2010-06-13T09:45:11.75</time>
<name>10974</name>
</trkpt>
<trkpt lat="49.177368" lon="11.831217">
<ele>601.1</ele>
<speed>4.0</speed>
<course>307.6</course>
<desc>Speed 4.0 km/h Distance 42.56 km</desc>
<time>2010-06-13T09:45:12.75</time>
<name>10975</name>
</trkpt>
<trkpt lat="49.177373" lon="11.831207">
<ele>601.6</ele>
<speed>3.3</speed>
<course>278.7</course>
<desc>Speed 3.3 km/h Distance 42.56 km</desc>
<time>2010-06-13T09:45:13.77</time>
<name>10976</name>
</trkpt>
<trkpt lat="49.177375" lon="11.831190">
<ele>600.4</ele>
<speed>4.0</speed>
<course>307.3</course>
<desc>Speed 4.0 km/h Distance 42.56 km</desc>
<time>2010-06-13T09:45:14.75</time>
<name>10977</name>
</trkpt>
<trkpt lat="49.177382" lon="11.831177">
<ele>599.9</ele>
<speed>4.1</speed>
<course>310.3</course>
<desc>Speed 4.1 km/h Distance 42.57 km</desc>
<time>2010-06-13T09:45:15.77</time>
<name>10978</name>
</trkpt>
<trkpt lat="49.177390" lon="11.831162">
<ele>600.0</ele>
<speed>3.1</speed>
<course>315.6</course>
<desc>Speed 3.1 km/h Distance 42.57 km</desc>
<time>2010-06-13T09:45:16.75</time>
<name>10979</name>
</trkpt>
<trkpt lat="49.177400" lon="11.831147">
<ele>599.6</ele>
<speed>3.1</speed>
<course>321.0</course>
<desc>Speed 3.1 km/h Distance 42.57 km</desc>
<time>2010-06-13T09:45:17.75</time>
<name>10980</name>
</trkpt>
<trkpt lat="49.177407" lon="11.831138">
<ele>598.9</ele>
<speed>3.0</speed>
<course>270.0</course>
<desc>Speed 3.0 km/h Distance 42.57 km</desc>
<time>2010-06-13T09:45:18.75</time>
<name>10981</name>
</trkpt>
<trkpt lat="49.177407" lon="11.831125">
<ele>597.1</ele>
<speed>2.4</speed>
<course>293.5</course>
<desc>Speed 2.4 km/h Distance 42.57 km</desc>
<time>2010-06-13T09:45:19.76</time>
<name>10982</name>
</trkpt>
<trkpt lat="49.177410" lon="11.831113">
<ele>599.6</ele>
<speed>3.2</speed>
<course>294.6</course>
<desc>Speed 3.2 km/h Distance 42.57 km</desc>
<time>2010-06-13T09:45:20.76</time>
<name>10983</name>
</trkpt>
<trkpt lat="49.177415" lon="11.831097">
<ele>603.2</ele>
<speed>3.5</speed>
<course>309.0</course>
<desc>Speed 3.5 km/h Distance 42.57 km</desc>
<time>2010-06-13T09:45:21.75</time>
<name>10984</name>
</trkpt>
<trkpt lat="49.177430" lon="11.831068">
<ele>608.2</ele>
<speed>5.2</speed>
<course>253.0</course>
<desc>Speed 5.2 km/h Distance 42.58 km</desc>
<time>2010-06-13T09:45:22.76</time>
<name>10985</name>
</trkpt>
<trkpt lat="49.177427" lon="11.831052">
<ele>609.0</ele>
<speed>4.2</speed>
<course>297.4</course>
<desc>Speed 4.2 km/h Distance 42.58 km</desc>
<time>2010-06-13T09:45:23.76</time>
<name>10986</name>
</trkpt>
<trkpt lat="49.177428" lon="11.831047">
<ele>609.3</ele>
<speed>3.7</speed>
<course>321.9</course>
<desc>Speed 3.7 km/h Distance 42.58 km</desc>
<time>2010-06-13T09:45:24.74</time>
<name>10987</name>
</trkpt>
<trkpt lat="49.177445" lon="11.831027">
<ele>606.7</ele>
<speed>4.9</speed>
<course>315.5</course>
<desc>Speed 4.9 km/h Distance 42.58 km</desc>
<time>2010-06-13T09:45:25.76</time>
<name>10988</name>
</trkpt>
<trkpt lat="49.177455" lon="11.831012">
<ele>608.0</ele>
<speed>4.3</speed>
<course>324.3</course>
<desc>Speed 4.3 km/h Distance 42.58 km</desc>
<time>2010-06-13T09:45:26.76</time>
<name>10989</name>
</trkpt>
<trkpt lat="49.177472" lon="11.830993">
<ele>607.6</ele>
<speed>3.9</speed>
<course>307.3</course>
<desc>Speed 3.9 km/h Distance 42.58 km</desc>
<time>2010-06-13T09:45:27.75</time>
<name>10990</name>
</trkpt>
<trkpt lat="49.177478" lon="11.830980">
<ele>606.3</ele>
<speed>4.1</speed>
<course>232.4</course>
<desc>Speed 4.1 km/h Distance 42.58 km</desc>
<time>2010-06-13T09:45:28.77</time>
<name>10991</name>
</trkpt>
<trkpt lat="49.177473" lon="11.830970">
<ele>605.8</ele>
<speed>2.9</speed>
<course>287.0</course>
<desc>Speed 2.9 km/h Distance 42.59 km</desc>
<time>2010-06-13T09:45:29.75</time>
<name>10992</name>
</trkpt>
<trkpt lat="49.177477" lon="11.830953">
<ele>606.1</ele>
<speed>3.0</speed>
<course>327.5</course>
<desc>Speed 3.0 km/h Distance 42.59 km</desc>
<time>2010-06-13T09:45:30.76</time>
<name>10993</name>
</trkpt>
<trkpt lat="49.177485" lon="11.830945">
<ele>606.5</ele>
<speed>2.5</speed>
<course>348.9</course>
<desc>Speed 2.5 km/h Distance 42.59 km</desc>
<time>2010-06-13T09:45:31.77</time>
<name>10994</name>
</trkpt>
<trkpt lat="49.177507" lon="11.830938">
<ele>607.8</ele>
<speed>3.0</speed>
<course>336.7</course>
<desc>Speed 3.0 km/h Distance 42.59 km</desc>
<time>2010-06-13T09:45:32.76</time>
<name>10995</name>
</trkpt>
<trkpt lat="49.177522" lon="11.830928">
<ele>608.1</ele>
<speed>3.1</speed>
<course>344.0</course>
<desc>Speed 3.1 km/h Distance 42.59 km</desc>
<time>2010-06-13T09:45:33.76</time>
<name>10996</name>
</trkpt>
<trkpt lat="49.177537" lon="11.830922">
<ele>607.5</ele>
<speed>2.5</speed>
<course>307.6</course>
<desc>Speed 2.5 km/h Distance 42.59 km</desc>
<time>2010-06-13T09:45:34.75</time>
<name>10997</name>
</trkpt>
<trkpt lat="49.177542" lon="11.830912">
<ele>607.3</ele>
<speed>1.8</speed>
<course>326.8</course>
<desc>Speed 1.8 km/h Distance 42.59 km</desc>
<time>2010-06-13T09:45:35.75</time>
<name>10998</name>
</trkpt>
<trkpt lat="49.177547" lon="11.830907">
<ele>606.5</ele>
<speed>1.8</speed>
<course>33.2</course>
<desc>Speed 1.8 km/h Distance 42.60 km</desc>
<time>2010-06-13T09:45:36.74</time>
<name>10999</name>
</trkpt>
<trkpt lat="49.177553" lon="11.830913">
<ele>607.0</ele>
<speed>1.3</speed>
<course>270.0</course>
<desc>Speed 1.3 km/h Distance 42.60 km</desc>
<time>2010-06-13T09:45:37.75</time>
<name>11000</name>
</trkpt>
<trkpt lat="49.177553" lon="11.830912">
<ele>605.2</ele>
<speed>0.9</speed>
<course>349.7</course>
<desc>Speed 0.9 km/h Distance 42.60 km</desc>
<time>2010-06-13T09:45:38.77</time>
<name>11001</name>
</trkpt>
<trkpt lat="49.177560" lon="11.830910">
<ele>605.0</ele>
<speed>2.3</speed>
<course>110.9</course>
<desc>Speed 2.3 km/h Distance 42.60 km</desc>
<time>2010-06-13T09:45:39.76</time>
<name>11002</name>
</trkpt>
<trkpt lat="49.177558" lon="11.830917">
<ele>605.0</ele>
<speed>3.1</speed>
<course>320.6</course>
<desc>Speed 3.1 km/h Distance 42.60 km</desc>
<time>2010-06-13T09:45:40.76</time>
<name>11003</name>
</trkpt>
<trkpt lat="49.177565" lon="11.830908">
<ele>604.0</ele>
<speed>1.7</speed>
<course>224.5</course>
<desc>Speed 1.7 km/h Distance 42.60 km</desc>
<time>2010-06-13T09:45:41.76</time>
<name>11004</name>
</trkpt>
<trkpt lat="49.177558" lon="11.830898">
<ele>602.6</ele>
<speed>1.2</speed>
<course>117.4</course>
<desc>Speed 1.2 km/h Distance 42.60 km</desc>
<time>2010-06-13T09:45:42.77</time>
<name>11005</name>
</trkpt>
<trkpt lat="49.177557" lon="11.830903">
<ele>602.5</ele>
<speed>2.2</speed>
<course>157.8</course>
<desc>Speed 2.2 km/h Distance 42.60 km</desc>
<time>2010-06-13T09:45:43.75</time>
<name>11006</name>
</trkpt>
<trkpt lat="49.177552" lon="11.830907">
<ele>601.1</ele>
<speed>2.3</speed>
<course>212.9</course>
<desc>Speed 2.3 km/h Distance 42.60 km</desc>
<time>2010-06-13T09:45:44.76</time>
<name>11007</name>
</trkpt>
<trkpt lat="49.177543" lon="11.830898">
<ele>601.5</ele>
<speed>0.9</speed>
<course>344.0</course>
<desc>Speed 0.9 km/h Distance 42.60 km</desc>
<time>2010-06-13T09:45:45.77</time>
<name>11008</name>
</trkpt>
<trkpt lat="49.177558" lon="11.830892">
<ele>603.5</ele>
<speed>1.2</speed>
<course>326.8</course>
<desc>Speed 1.2 km/h Distance 42.60 km</desc>
<time>2010-06-13T09:45:46.77</time>
<name>11009</name>
</trkpt>
<trkpt lat="49.177565" lon="11.830885">
<ele>604.4</ele>
<speed>2.4</speed>
<course>33.2</course>
<desc>Speed 2.4 km/h Distance 42.60 km</desc>
<time>2010-06-13T09:45:47.77</time>
<name>11010</name>
</trkpt>
<trkpt lat="49.177575" lon="11.830895">
<ele>603.3</ele>
<speed>1.5</speed>
<course>353.0</course>
<desc>Speed 1.5 km/h Distance 42.61 km</desc>
<time>2010-06-13T09:45:48.76</time>
<name>11011</name>
</trkpt>
<trkpt lat="49.177593" lon="11.830892">
<ele>601.1</ele>
<speed>4.0</speed>
<course>338.5</course>
<desc>Speed 4.0 km/h Distance 42.61 km</desc>
<time>2010-06-13T09:45:49.76</time>
<name>11012</name>
</trkpt>
<trkpt lat="49.177610" lon="11.830882">
<ele>598.8</ele>
<speed>5.5</speed>
<course>312.6</course>
<desc>Speed 5.5 km/h Distance 42.61 km</desc>
<time>2010-06-13T09:45:50.76</time>
<name>11013</name>
</trkpt>
<trkpt lat="49.177615" lon="11.830873">
<ele>595.7</ele>
<speed>4.7</speed>
<course>349.9</course>
<desc>Speed 4.7 km/h Distance 42.61 km</desc>
<time>2010-06-13T09:45:51.77</time>
<name>11014</name>
</trkpt>
<trkpt lat="49.177670" lon="11.830858">
<ele>593.6</ele>
<speed>5.7</speed>
<course>350.7</course>
<desc>Speed 5.7 km/h Distance 42.62 km</desc>
<time>2010-06-13T09:45:53.78</time>
<name>11015</name>
</trkpt>
<trkpt lat="49.177730" lon="11.830843">
<ele>591.4</ele>
<speed>6.4</speed>
<course>4.1</course>
<desc>Speed 6.4 km/h Distance 42.62 km</desc>
<time>2010-06-13T09:45:55.76</time>
<name>11016</name>
</trkpt>
<trkpt lat="49.177747" lon="11.830845">
<ele>590.4</ele>
<speed>5.2</speed>
<course>345.4</course>
<desc>Speed 5.2 km/h Distance 42.63 km</desc>
<time>2010-06-13T09:45:56.77</time>
<name>11017</name>
</trkpt>
<trkpt lat="49.177772" lon="11.830835">
<ele>589.5</ele>
<speed>5.7</speed>
<course>329.7</course>
<desc>Speed 5.7 km/h Distance 42.63 km</desc>
<time>2010-06-13T09:45:57.76</time>
<name>11018</name>
</trkpt>
<trkpt lat="49.177787" lon="11.830822">
<ele>588.1</ele>
<speed>4.7</speed>
<course>332.8</course>
<desc>Speed 4.7 km/h Distance 42.63 km</desc>
<time>2010-06-13T09:45:58.77</time>
<name>11019</name>
</trkpt>
<trkpt lat="49.177810" lon="11.830803">
<ele>587.0</ele>
<speed>6.2</speed>
<course>326.8</course>
<desc>Speed 6.2 km/h Distance 42.63 km</desc>
<time>2010-06-13T09:45:59.75</time>
<name>11020</name>
</trkpt>
<trkpt lat="49.177823" lon="11.830790">
<ele>588.1</ele>
<speed>3.8</speed>
<course>339.1</course>
<desc>Speed 3.8 km/h Distance 42.63 km</desc>
<time>2010-06-13T09:46:00.75</time>
<name>11021</name>
</trkpt>
<trkpt lat="49.177843" lon="11.830778">
<ele>587.9</ele>
<speed>5.4</speed>
<course>324.0</course>
<desc>Speed 5.4 km/h Distance 42.64 km</desc>
<time>2010-06-13T09:46:01.75</time>
<name>11022</name>
</trkpt>
<trkpt lat="49.177903" lon="11.830712">
<ele>590.9</ele>
<speed>8.8</speed>
<course>347.7</course>
<desc>Speed 8.8 km/h Distance 42.65 km</desc>
<time>2010-06-13T09:46:03.76</time>
<name>11023</name>
</trkpt>
<trkpt lat="49.177938" lon="11.830700">
<ele>592.6</ele>
<speed>9.0</speed>
<course>335.0</course>
<desc>Speed 9.0 km/h Distance 42.65 km</desc>
<time>2010-06-13T09:46:04.75</time>
<name>11024</name>
</trkpt>
<trkpt lat="49.177973" lon="11.830675">
<ele>595.3</ele>
<speed>10.1</speed>
<course>339.8</course>
<desc>Speed 10.1 km/h Distance 42.65 km</desc>
<time>2010-06-13T09:46:05.76</time>
<name>11025</name>
</trkpt>
<trkpt lat="49.178000" lon="11.830660">
<ele>597.1</ele>
<speed>8.9</speed>
<course>332.4</course>
<desc>Speed 8.9 km/h Distance 42.66 km</desc>
<time>2010-06-13T09:46:06.75</time>
<name>11026</name>
</trkpt>
<trkpt lat="49.178033" lon="11.830633">
<ele>599.2</ele>
<speed>8.7</speed>
<course>347.1</course>
<desc>Speed 8.7 km/h Distance 42.66 km</desc>
<time>2010-06-13T09:46:07.76</time>
<name>11027</name>
</trkpt>
<trkpt lat="49.178067" lon="11.830622">
<ele>598.5</ele>
<speed>9.0</speed>
<course>350.7</course>
<desc>Speed 9.0 km/h Distance 42.66 km</desc>
<time>2010-06-13T09:46:08.76</time>
<name>11028</name>
</trkpt>
<trkpt lat="49.178093" lon="11.830615">
<ele>597.1</ele>
<speed>8.1</speed>
<course>337.6</course>
<desc>Speed 8.1 km/h Distance 42.67 km</desc>
<time>2010-06-13T09:46:09.76</time>
<name>11029</name>
</trkpt>
<trkpt lat="49.178125" lon="11.830595">
<ele>595.5</ele>
<speed>9.1</speed>
<course>348.6</course>
<desc>Speed 9.1 km/h Distance 42.67 km</desc>
<time>2010-06-13T09:46:10.76</time>
<name>11030</name>
</trkpt>
<trkpt lat="49.178152" lon="11.830587">
<ele>595.1</ele>
<speed>9.7</speed>
<course>350.2</course>
<desc>Speed 9.7 km/h Distance 42.67 km</desc>
<time>2010-06-13T09:46:11.76</time>
<name>11031</name>
</trkpt>
<trkpt lat="49.178177" lon="11.830580">
<ele>595.0</ele>
<speed>8.1</speed>
<course>351.9</course>
<desc>Speed 8.1 km/h Distance 42.68 km</desc>
<time>2010-06-13T09:46:12.77</time>
<name>11032</name>
</trkpt>
<trkpt lat="49.178207" lon="11.830573">
<ele>595.2</ele>
<speed>8.0</speed>
<course>347.7</course>
<desc>Speed 8.0 km/h Distance 42.68 km</desc>
<time>2010-06-13T09:46:13.75</time>
<name>11033</name>
</trkpt>
<trkpt lat="49.178232" lon="11.830565">
<ele>595.6</ele>
<speed>8.6</speed>
<course>346.6</course>
<desc>Speed 8.6 km/h Distance 42.68 km</desc>
<time>2010-06-13T09:46:14.74</time>
<name>11034</name>
</trkpt>
<trkpt lat="49.178268" lon="11.830552">
<ele>596.3</ele>
<speed>10.8</speed>
<course>344.9</course>
<desc>Speed 10.8 km/h Distance 42.69 km</desc>
<time>2010-06-13T09:46:15.76</time>
<name>11035</name>
</trkpt>
<trkpt lat="49.178297" lon="11.830540">
<ele>596.7</ele>
<speed>10.5</speed>
<course>341.0</course>
<desc>Speed 10.5 km/h Distance 42.69 km</desc>
<time>2010-06-13T09:46:16.76</time>
<name>11036</name>
</trkpt>
<trkpt lat="49.178328" lon="11.830523">
<ele>597.2</ele>
<speed>10.1</speed>
<course>324.2</course>
<desc>Speed 10.1 km/h Distance 42.69 km</desc>
<time>2010-06-13T09:46:17.75</time>
<name>11037</name>
</trkpt>
<trkpt lat="49.178345" lon="11.830505">
<ele>596.7</ele>
<speed>9.7</speed>
<course>334.4</course>
<desc>Speed 9.7 km/h Distance 42.70 km</desc>
<time>2010-06-13T09:46:18.75</time>
<name>11038</name>
</trkpt>
<trkpt lat="49.178370" lon="11.830487">
<ele>596.6</ele>
<speed>9.9</speed>
<course>344.6</course>
<desc>Speed 9.9 km/h Distance 42.70 km</desc>
<time>2010-06-13T09:46:19.77</time>
<name>11039</name>
</trkpt>
<trkpt lat="49.178402" lon="11.830473">
<ele>597.4</ele>
<speed>10.2</speed>
<course>333.9</course>
<desc>Speed 10.2 km/h Distance 42.70 km</desc>
<time>2010-06-13T09:46:20.75</time>
<name>11040</name>
</trkpt>
<trkpt lat="49.178422" lon="11.830458">
<ele>596.9</ele>
<speed>8.9</speed>
<course>302.5</course>
<desc>Speed 8.9 km/h Distance 42.71 km</desc>
<time>2010-06-13T09:46:21.77</time>
<name>11041</name>
</trkpt>
<trkpt lat="49.178430" lon="11.830438">
<ele>595.2</ele>
<speed>7.5</speed>
<course>318.0</course>
<desc>Speed 7.5 km/h Distance 42.71 km</desc>
<time>2010-06-13T09:46:22.77</time>
<name>11042</name>
</trkpt>
<trkpt lat="49.178443" lon="11.830420">
<ele>594.5</ele>
<speed>7.2</speed>
<course>333.2</course>
<desc>Speed 7.2 km/h Distance 42.71 km</desc>
<time>2010-06-13T09:46:23.76</time>
<name>11043</name>
</trkpt>
<trkpt lat="49.178465" lon="11.830403">
<ele>595.1</ele>
<speed>7.5</speed>
<course>340.9</course>
<desc>Speed 7.5 km/h Distance 42.71 km</desc>
<time>2010-06-13T09:46:24.76</time>
<name>11044</name>
</trkpt>
<trkpt lat="49.178493" lon="11.830388">
<ele>595.4</ele>
<speed>8.1</speed>
<course>311.7</course>
<desc>Speed 8.1 km/h Distance 42.72 km</desc>
<time>2010-06-13T09:46:25.78</time>
<name>11045</name>
</trkpt>
<trkpt lat="49.178505" lon="11.830368">
<ele>594.8</ele>
<speed>7.8</speed>
<course>337.1</course>
<desc>Speed 7.8 km/h Distance 42.72 km</desc>
<time>2010-06-13T09:46:26.77</time>
<name>11046</name>
</trkpt>
<trkpt lat="49.178533" lon="11.830350">
<ele>595.0</ele>
<speed>8.2</speed>
<course>313.8</course>
<desc>Speed 8.2 km/h Distance 42.72 km</desc>
<time>2010-06-13T09:46:27.78</time>
<name>11047</name>
</trkpt>
<trkpt lat="49.178542" lon="11.830337">
<ele>594.0</ele>
<speed>6.0</speed>
<course>337.9</course>
<desc>Speed 6.0 km/h Distance 42.72 km</desc>
<time>2010-06-13T09:46:28.75</time>
<name>11048</name>
</trkpt>
<trkpt lat="49.178555" lon="11.830328">
<ele>593.7</ele>
<speed>6.5</speed>
<course>338.7</course>
<desc>Speed 6.5 km/h Distance 42.72 km</desc>
<time>2010-06-13T09:46:29.76</time>
<name>11049</name>
</trkpt>
<trkpt lat="49.178572" lon="11.830318">
<ele>594.0</ele>
<speed>7.7</speed>
<course>343.2</course>
<desc>Speed 7.7 km/h Distance 42.73 km</desc>
<time>2010-06-13T09:46:30.76</time>
<name>11050</name>
</trkpt>
<trkpt lat="49.178597" lon="11.830307">
<ele>594.3</ele>
<speed>6.2</speed>
<course>346.0</course>
<desc>Speed 6.2 km/h Distance 42.73 km</desc>
<time>2010-06-13T09:46:31.77</time>
<name>11051</name>
</trkpt>
<trkpt lat="49.178618" lon="11.830298">
<ele>594.1</ele>
<speed>6.4</speed>
<course>340.5</course>
<desc>Speed 6.4 km/h Distance 42.73 km</desc>
<time>2010-06-13T09:46:32.77</time>
<name>11052</name>
</trkpt>
<trkpt lat="49.178637" lon="11.830288">
<ele>594.6</ele>
<speed>6.2</speed>
<course>340.3</course>
<desc>Speed 6.2 km/h Distance 42.73 km</desc>
<time>2010-06-13T09:46:33.76</time>
<name>11053</name>
</trkpt>
<trkpt lat="49.178655" lon="11.830278">
<ele>595.1</ele>
<speed>7.2</speed>
<course>348.6</course>
<desc>Speed 7.2 km/h Distance 42.74 km</desc>
<time>2010-06-13T09:46:34.76</time>
<name>11054</name>
</trkpt>
<trkpt lat="49.178677" lon="11.830272">
<ele>595.3</ele>
<speed>6.6</speed>
<course>335.4</course>
<desc>Speed 6.6 km/h Distance 42.74 km</desc>
<time>2010-06-13T09:46:35.74</time>
<name>11055</name>
</trkpt>
<trkpt lat="49.178693" lon="11.830260">
<ele>595.6</ele>
<speed>6.7</speed>
<course>0.0</course>
<desc>Speed 6.7 km/h Distance 42.74 km</desc>
<time>2010-06-13T09:46:36.76</time>
<name>11056</name>
</trkpt>
<trkpt lat="49.178708" lon="11.830260">
<ele>595.7</ele>
<speed>6.4</speed>
<course>322.7</course>
<desc>Speed 6.4 km/h Distance 42.74 km</desc>
<time>2010-06-13T09:46:37.77</time>
<name>11057</name>
</trkpt>
<trkpt lat="49.178718" lon="11.830248">
<ele>595.7</ele>
<speed>6.1</speed>
<course>324.0</course>
<desc>Speed 6.1 km/h Distance 42.74 km</desc>
<time>2010-06-13T09:46:38.77</time>
<name>11058</name>
</trkpt>
<trkpt lat="49.178733" lon="11.830232">
<ele>595.6</ele>
<speed>7.6</speed>
<course>319.9</course>
<desc>Speed 7.6 km/h Distance 42.75 km</desc>
<time>2010-06-13T09:46:39.74</time>
<name>11059</name>
</trkpt>
<trkpt lat="49.178745" lon="11.830217">
<ele>596.8</ele>
<speed>8.3</speed>
<course>350.2</course>
<desc>Speed 8.3 km/h Distance 42.75 km</desc>
<time>2010-06-13T09:46:40.75</time>
<name>11060</name>
</trkpt>
<trkpt lat="49.178770" lon="11.830210">
<ele>597.0</ele>
<speed>7.5</speed>
<course>346.2</course>
<desc>Speed 7.5 km/h Distance 42.75 km</desc>
<time>2010-06-13T09:46:41.75</time>
<name>11061</name>
</trkpt>
<trkpt lat="49.178797" lon="11.830200">
<ele>596.1</ele>
<speed>6.9</speed>
<course>340.6</course>
<desc>Speed 6.9 km/h Distance 42.75 km</desc>
<time>2010-06-13T09:46:42.75</time>
<name>11062</name>
</trkpt>
<trkpt lat="49.178815" lon="11.830190">
<ele>594.9</ele>
<speed>5.6</speed>
<course>320.0</course>
<desc>Speed 5.6 km/h Distance 42.76 km</desc>
<time>2010-06-13T09:46:43.75</time>
<name>11063</name>
</trkpt>
<trkpt lat="49.178827" lon="11.830175">
<ele>594.8</ele>
<speed>6.2</speed>
<course>270.0</course>
<desc>Speed 6.2 km/h Distance 42.76 km</desc>
<time>2010-06-13T09:46:44.75</time>
<name>11064</name>
</trkpt>
<trkpt lat="49.178827" lon="11.830158">
<ele>594.4</ele>
<speed>5.9</speed>
<course>312.5</course>
<desc>Speed 5.9 km/h Distance 42.76 km</desc>
<time>2010-06-13T09:46:45.75</time>
<name>11065</name>
</trkpt>
<trkpt lat="49.178837" lon="11.830142">
<ele>593.9</ele>
<speed>6.1</speed>
<course>284.3</course>
<desc>Speed 6.1 km/h Distance 42.76 km</desc>
<time>2010-06-13T09:46:46.76</time>
<name>11066</name>
</trkpt>
<trkpt lat="49.178840" lon="11.830122">
<ele>593.4</ele>
<speed>4.9</speed>
<course>288.1</course>
<desc>Speed 4.9 km/h Distance 42.76 km</desc>
<time>2010-06-13T09:46:47.76</time>
<name>11067</name>
</trkpt>
<trkpt lat="49.178845" lon="11.830098">
<ele>593.3</ele>
<speed>5.8</speed>
<course>341.8</course>
<desc>Speed 5.8 km/h Distance 42.76 km</desc>
<time>2010-06-13T09:46:48.76</time>
<name>11068</name>
</trkpt>
<trkpt lat="49.178868" lon="11.830087">
<ele>594.4</ele>
<speed>4.8</speed>
<course>329.7</course>
<desc>Speed 4.8 km/h Distance 42.77 km</desc>
<time>2010-06-13T09:46:49.75</time>
<name>11069</name>
</trkpt>
<trkpt lat="49.178883" lon="11.830073">
<ele>595.2</ele>
<speed>5.6</speed>
<course>270.0</course>
<desc>Speed 5.6 km/h Distance 42.77 km</desc>
<time>2010-06-13T09:46:50.76</time>
<name>11070</name>
</trkpt>
<trkpt lat="49.178883" lon="11.830065">
<ele>595.1</ele>
<speed>4.9</speed>
<course>333.4</course>
<desc>Speed 4.9 km/h Distance 42.77 km</desc>
<time>2010-06-13T09:46:51.76</time>
<name>11071</name>
</trkpt>
<trkpt lat="49.178905" lon="11.830048">
<ele>595.9</ele>
<speed>6.2</speed>
<course>312.6</course>
<desc>Speed 6.2 km/h Distance 42.77 km</desc>
<time>2010-06-13T09:46:52.77</time>
<name>11072</name>
</trkpt>
<trkpt lat="49.178915" lon="11.830032">
<ele>597.0</ele>
<speed>6.1</speed>
<course>309.9</course>
<desc>Speed 6.1 km/h Distance 42.77 km</desc>
<time>2010-06-13T09:46:53.74</time>
<name>11073</name>
</trkpt>
<trkpt lat="49.178925" lon="11.830013">
<ele>598.0</ele>
<speed>5.0</speed>
<course>323.6</course>
<desc>Speed 5.0 km/h Distance 42.77 km</desc>
<time>2010-06-13T09:46:54.74</time>
<name>11074</name>
</trkpt>
<trkpt lat="49.178938" lon="11.829998">
<ele>598.3</ele>
<speed>4.9</speed>
<course>304.9</course>
<desc>Speed 4.9 km/h Distance 42.78 km</desc>
<time>2010-06-13T09:46:55.74</time>
<name>11075</name>
</trkpt>
<trkpt lat="49.178947" lon="11.829980">
<ele>599.2</ele>
<speed>5.3</speed>
<course>293.6</course>
<desc>Speed 5.3 km/h Distance 42.78 km</desc>
<time>2010-06-13T09:46:56.75</time>
<name>11076</name>
</trkpt>
<trkpt lat="49.178953" lon="11.829957">
<ele>600.3</ele>
<speed>6.8</speed>
<course>317.5</course>
<desc>Speed 6.8 km/h Distance 42.78 km</desc>
<time>2010-06-13T09:46:57.74</time>
<name>11077</name>
</trkpt>
<trkpt lat="49.178970" lon="11.829933">
<ele>600.7</ele>
<speed>7.7</speed>
<course>330.5</course>
<desc>Speed 7.7 km/h Distance 42.78 km</desc>
<time>2010-06-13T09:46:58.76</time>
<name>11078</name>
</trkpt>
<trkpt lat="49.178995" lon="11.829912">
<ele>602.9</ele>
<speed>9.9</speed>
<course>320.3</course>
<desc>Speed 9.9 km/h Distance 42.79 km</desc>
<time>2010-06-13T09:46:59.75</time>
<name>11079</name>
</trkpt>
<trkpt lat="49.179013" lon="11.829888">
<ele>603.1</ele>
<speed>9.4</speed>
<course>328.3</course>
<desc>Speed 9.4 km/h Distance 42.79 km</desc>
<time>2010-06-13T09:47:00.75</time>
<name>11080</name>
</trkpt>
<trkpt lat="49.179043" lon="11.829860">
<ele>602.6</ele>
<speed>11.2</speed>
<course>326.8</course>
<desc>Speed 11.2 km/h Distance 42.79 km</desc>
<time>2010-06-13T09:47:01.76</time>
<name>11081</name>
</trkpt>
<trkpt lat="49.179077" lon="11.829827">
<ele>601.9</ele>
<speed>12.3</speed>
<course>328.2</course>
<desc>Speed 12.3 km/h Distance 42.80 km</desc>
<time>2010-06-13T09:47:02.75</time>
<name>11082</name>
</trkpt>
<trkpt lat="49.179110" lon="11.829795">
<ele>602.1</ele>
<speed>13.2</speed>
<course>323.7</course>
<desc>Speed 13.2 km/h Distance 42.80 km</desc>
<time>2010-06-13T09:47:03.75</time>
<name>11083</name>
</trkpt>
<trkpt lat="49.179137" lon="11.829765">
<ele>602.2</ele>
<speed>13.4</speed>
<course>320.4</course>
<desc>Speed 13.4 km/h Distance 42.80 km</desc>
<time>2010-06-13T09:47:04.77</time>
<name>11084</name>
</trkpt>
<trkpt lat="49.179162" lon="11.829733">
<ele>601.7</ele>
<speed>13.2</speed>
<course>302.8</course>
<desc>Speed 13.2 km/h Distance 42.81 km</desc>
<time>2010-06-13T09:47:05.75</time>
<name>11085</name>
</trkpt>
<trkpt lat="49.179175" lon="11.829702">
<ele>601.3</ele>
<speed>13.2</speed>
<course>290.9</course>
<desc>Speed 13.2 km/h Distance 42.81 km</desc>
<time>2010-06-13T09:47:06.75</time>
<name>11086</name>
</trkpt>
<trkpt lat="49.179183" lon="11.829668">
<ele>600.9</ele>
<speed>12.1</speed>
<course>281.8</course>
<desc>Speed 12.1 km/h Distance 42.81 km</desc>
<time>2010-06-13T09:47:07.75</time>
<name>11087</name>
</trkpt>
<trkpt lat="49.179188" lon="11.829632">
<ele>600.6</ele>
<speed>11.9</speed>
<course>288.4</course>
<desc>Speed 11.9 km/h Distance 42.82 km</desc>
<time>2010-06-13T09:47:08.75</time>
<name>11088</name>
</trkpt>
<trkpt lat="49.179197" lon="11.829593">
<ele>600.2</ele>
<speed>12.3</speed>
<course>304.2</course>
<desc>Speed 12.3 km/h Distance 42.82 km</desc>
<time>2010-06-13T09:47:09.76</time>
<name>11089</name>
</trkpt>
<trkpt lat="49.179217" lon="11.829548">
<ele>599.6</ele>
<speed>13.8</speed>
<course>316.1</course>
<desc>Speed 13.8 km/h Distance 42.82 km</desc>
<time>2010-06-13T09:47:10.75</time>
<name>11090</name>
</trkpt>
<trkpt lat="49.179248" lon="11.829502">
<ele>598.5</ele>
<speed>15.7</speed>
<course>301.9</course>
<desc>Speed 15.7 km/h Distance 42.83 km</desc>
<time>2010-06-13T09:47:11.76</time>
<name>11091</name>
</trkpt>
<trkpt lat="49.179270" lon="11.829448">
<ele>597.5</ele>
<speed>16.5</speed>
<course>311.2</course>
<desc>Speed 16.5 km/h Distance 42.83 km</desc>
<time>2010-06-13T09:47:12.74</time>
<name>11092</name>
</trkpt>
<trkpt lat="49.179303" lon="11.829390">
<ele>596.1</ele>
<speed>19.4</speed>
<course>307.4</course>
<desc>Speed 19.4 km/h Distance 42.84 km</desc>
<time>2010-06-13T09:47:13.75</time>
<name>11093</name>
</trkpt>
<trkpt lat="49.179335" lon="11.829327">
<ele>595.3</ele>
<speed>20.1</speed>
<course>312.8</course>
<desc>Speed 20.1 km/h Distance 42.84 km</desc>
<time>2010-06-13T09:47:14.74</time>
<name>11094</name>
</trkpt>
<trkpt lat="49.179378" lon="11.829255">
<ele>594.6</ele>
<speed>23.7</speed>
<course>305.5</course>
<desc>Speed 23.7 km/h Distance 42.85 km</desc>
<time>2010-06-13T09:47:15.75</time>
<name>11095</name>
</trkpt>
<trkpt lat="49.179413" lon="11.829180">
<ele>593.0</ele>
<speed>26.2</speed>
<course>293.8</course>
<desc>Speed 26.2 km/h Distance 42.86 km</desc>
<time>2010-06-13T09:47:16.76</time>
<name>11096</name>
</trkpt>
<trkpt lat="49.179442" lon="11.829082">
<ele>592.0</ele>
<speed>29.2</speed>
<course>301.9</course>
<desc>Speed 29.2 km/h Distance 42.87 km</desc>
<time>2010-06-13T09:47:17.75</time>
<name>11097</name>
</trkpt>
<trkpt lat="49.179485" lon="11.828975">
<ele>590.8</ele>
<speed>32.4</speed>
<course>307.0</course>
<desc>Speed 32.4 km/h Distance 42.88 km</desc>
<time>2010-06-13T09:47:18.75</time>
<name>11098</name>
</trkpt>
<trkpt lat="49.179538" lon="11.828867">
<ele>589.6</ele>
<speed>34.2</speed>
<course>305.0</course>
<desc>Speed 34.2 km/h Distance 42.89 km</desc>
<time>2010-06-13T09:47:19.75</time>
<name>11099</name>
</trkpt>
<trkpt lat="49.179592" lon="11.828750">
<ele>588.4</ele>
<speed>36.7</speed>
<course>309.6</course>
<desc>Speed 36.7 km/h Distance 42.90 km</desc>
<time>2010-06-13T09:47:20.76</time>
<name>11100</name>
</trkpt>
<trkpt lat="49.179658" lon="11.828627">
<ele>586.9</ele>
<speed>38.7</speed>
<course>302.8</course>
<desc>Speed 38.7 km/h Distance 42.91 km</desc>
<time>2010-06-13T09:47:21.74</time>
<name>11101</name>
</trkpt>
<trkpt lat="49.179712" lon="11.828500">
<ele>587.5</ele>
<speed>34.8</speed>
<course>302.7</course>
<desc>Speed 34.8 km/h Distance 42.92 km</desc>
<time>2010-06-13T09:47:22.74</time>
<name>11102</name>
</trkpt>
<trkpt lat="49.179820" lon="11.828242">
<ele>587.4</ele>
<speed>17.1</speed>
<course>318.2</course>
<desc>Speed 17.1 km/h Distance 42.94 km</desc>
<time>2010-06-13T09:47:25.75</time>
<name>11103</name>
</trkpt>
<trkpt lat="49.179852" lon="11.828198">
<ele>587.2</ele>
<speed>12.5</speed>
<course>317.0</course>
<desc>Speed 12.5 km/h Distance 42.95 km</desc>
<time>2010-06-13T09:47:26.75</time>
<name>11104</name>
</trkpt>
<trkpt lat="49.179875" lon="11.828165">
<ele>586.9</ele>
<speed>11.1</speed>
<course>318.3</course>
<desc>Speed 11.1 km/h Distance 42.95 km</desc>
<time>2010-06-13T09:47:27.75</time>
<name>11105</name>
</trkpt>
<trkpt lat="49.179893" lon="11.828140">
<ele>586.0</ele>
<speed>8.2</speed>
<course>315.6</course>
<desc>Speed 8.2 km/h Distance 42.95 km</desc>
<time>2010-06-13T09:47:28.74</time>
<name>11106</name>
</trkpt>
<trkpt lat="49.179907" lon="11.828120">
<ele>584.9</ele>
<speed>7.0</speed>
<course>313.6</course>
<desc>Speed 7.0 km/h Distance 42.95 km</desc>
<time>2010-06-13T09:47:29.76</time>
<name>11107</name>
</trkpt>
<trkpt lat="49.179915" lon="11.828107">
<ele>583.9</ele>
<speed>4.2</speed>
<course>307.4</course>
<desc>Speed 4.2 km/h Distance 42.95 km</desc>
<time>2010-06-13T09:47:30.74</time>
<name>11108</name>
</trkpt>
<trkpt lat="49.179920" lon="11.828097">
<ele>583.9</ele>
<speed>1.2</speed>
<course>0.0</course>
<desc>Speed 1.2 km/h Distance 42.96 km</desc>
<time>2010-06-13T09:47:31.74</time>
<name>11109</name>
</trkpt>
<trkpt lat="49.179923" lon="11.828097">
<ele>583.4</ele>
<speed>0.1</speed>
<course>171.9</course>
<desc>Speed 0.1 km/h Distance 42.96 km</desc>
<time>2010-06-13T09:47:32.74</time>
<name>11110</name>
</trkpt>
<trkpt lat="49.179913" lon="11.828098">
<ele>583.7</ele>
<speed>0.9</speed>
<course>180.0</course>
<desc>Speed 0.9 km/h Distance 42.96 km</desc>
<time>2010-06-13T09:47:33.75</time>
<name>11111</name>
</trkpt>
<trkpt lat="49.179902" lon="11.828098">
<ele>583.6</ele>
<speed>2.8</speed>
<course>180.0</course>
<desc>Speed 2.8 km/h Distance 42.96 km</desc>
<time>2010-06-13T09:47:34.74</time>
<name>11112</name>
</trkpt>
<trkpt lat="49.179887" lon="11.828098">
<ele>583.7</ele>
<speed>5.1</speed>
<course>133.6</course>
<desc>Speed 5.1 km/h Distance 42.96 km</desc>
<time>2010-06-13T09:47:35.74</time>
<name>11113</name>
</trkpt>
<trkpt lat="49.179878" lon="11.828112">
<ele>582.8</ele>
<speed>3.7</speed>
<course>139.1</course>
<desc>Speed 3.7 km/h Distance 42.96 km</desc>
<time>2010-06-13T09:47:36.73</time>
<name>11114</name>
</trkpt>
<trkpt lat="49.179873" lon="11.828118">
<ele>582.7</ele>
<speed>1.8</speed>
<course>113.5</course>
<desc>Speed 1.8 km/h Distance 42.96 km</desc>
<time>2010-06-13T09:47:37.75</time>
<name>11115</name>
</trkpt>
<trkpt lat="49.179870" lon="11.828130">
<ele>582.9</ele>
<speed>2.6</speed>
<course>107.0</course>
<desc>Speed 2.6 km/h Distance 42.96 km</desc>
<time>2010-06-13T09:47:38.75</time>
<name>11116</name>
</trkpt>
<trkpt lat="49.179867" lon="11.828147">
<ele>583.5</ele>
<speed>4.4</speed>
<course>118.7</course>
<desc>Speed 4.4 km/h Distance 42.96 km</desc>
<time>2010-06-13T09:47:39.75</time>
<name>11117</name>
</trkpt>
<trkpt lat="49.179858" lon="11.828170">
<ele>584.2</ele>
<speed>6.7</speed>
<course>132.6</course>
<desc>Speed 6.7 km/h Distance 42.97 km</desc>
<time>2010-06-13T09:47:40.75</time>
<name>11118</name>
</trkpt>
<trkpt lat="49.179848" lon="11.828187">
<ele>586.5</ele>
<speed>7.2</speed>
<course>127.4</course>
<desc>Speed 7.2 km/h Distance 42.97 km</desc>
<time>2010-06-13T09:47:41.76</time>
<name>11119</name>
</trkpt>
<trkpt lat="49.179835" lon="11.828213">
<ele>587.4</ele>
<speed>8.1</speed>
<course>125.8</course>
<desc>Speed 8.1 km/h Distance 42.97 km</desc>
<time>2010-06-13T09:47:42.74</time>
<name>11120</name>
</trkpt>
<trkpt lat="49.179822" lon="11.828242">
<ele>588.0</ele>
<speed>8.1</speed>
<course>122.8</course>
<desc>Speed 8.1 km/h Distance 42.97 km</desc>
<time>2010-06-13T09:47:43.74</time>
<name>11121</name>
</trkpt>
<trkpt lat="49.179808" lon="11.828273">
<ele>588.5</ele>
<speed>8.6</speed>
<course>137.2</course>
<desc>Speed 8.6 km/h Distance 42.98 km</desc>
<time>2010-06-13T09:47:44.74</time>
<name>11122</name>
</trkpt>
<trkpt lat="49.179788" lon="11.828302">
<ele>589.1</ele>
<speed>8.1</speed>
<course>129.2</course>
<desc>Speed 8.1 km/h Distance 42.98 km</desc>
<time>2010-06-13T09:47:45.76</time>
<name>11123</name>
</trkpt>
<trkpt lat="49.179775" lon="11.828327">
<ele>589.8</ele>
<speed>8.3</speed>
<course>129.0</course>
<desc>Speed 8.3 km/h Distance 42.98 km</desc>
<time>2010-06-13T09:47:46.76</time>
<name>11124</name>
</trkpt>
<trkpt lat="49.179760" lon="11.828355">
<ele>590.4</ele>
<speed>8.6</speed>
<course>138.3</course>
<desc>Speed 8.6 km/h Distance 42.98 km</desc>
<time>2010-06-13T09:47:47.75</time>
<name>11125</name>
</trkpt>
<trkpt lat="49.179742" lon="11.828380">
<ele>590.4</ele>
<speed>7.9</speed>
<course>129.0</course>
<desc>Speed 7.9 km/h Distance 42.99 km</desc>
<time>2010-06-13T09:47:48.74</time>
<name>11126</name>
</trkpt>
<trkpt lat="49.179727" lon="11.828408">
<ele>591.8</ele>
<speed>8.5</speed>
<course>129.5</course>
<desc>Speed 8.5 km/h Distance 42.99 km</desc>
<time>2010-06-13T09:47:49.75</time>
<name>11127</name>
</trkpt>
<trkpt lat="49.179715" lon="11.828430">
<ele>593.6</ele>
<speed>6.3</speed>
<course>133.3</course>
<desc>Speed 6.3 km/h Distance 42.99 km</desc>
<time>2010-06-13T09:47:50.75</time>
<name>11128</name>
</trkpt>
<trkpt lat="49.179702" lon="11.828452">
<ele>594.9</ele>
<speed>6.8</speed>
<course>139.9</course>
<desc>Speed 6.8 km/h Distance 42.99 km</desc>
<time>2010-06-13T09:47:51.74</time>
<name>11129</name>
</trkpt>
<trkpt lat="49.179690" lon="11.828467">
<ele>594.9</ele>
<speed>5.0</speed>
<course>153.1</course>
<desc>Speed 5.0 km/h Distance 43.00 km</desc>
<time>2010-06-13T09:47:52.75</time>
<name>11130</name>
</trkpt>
<trkpt lat="49.179675" lon="11.828478">
<ele>594.4</ele>
<speed>6.5</speed>
<course>144.0</course>
<desc>Speed 6.5 km/h Distance 43.00 km</desc>
<time>2010-06-13T09:47:53.75</time>
<name>11131</name>
</trkpt>
<trkpt lat="49.179660" lon="11.828495">
<ele>594.2</ele>
<speed>6.0</speed>
<course>136.9</course>
<desc>Speed 6.0 km/h Distance 43.00 km</desc>
<time>2010-06-13T09:47:54.75</time>
<name>11132</name>
</trkpt>
<trkpt lat="49.179648" lon="11.828512">
<ele>594.4</ele>
<speed>4.6</speed>
<course>127.4</course>
<desc>Speed 4.6 km/h Distance 43.00 km</desc>
<time>2010-06-13T09:47:55.76</time>
<name>11133</name>
</trkpt>
<trkpt lat="49.179638" lon="11.828532">
<ele>595.1</ele>
<speed>5.6</speed>
<course>129.5</course>
<desc>Speed 5.6 km/h Distance 43.00 km</desc>
<time>2010-06-13T09:47:56.75</time>
<name>11134</name>
</trkpt>
<trkpt lat="49.179627" lon="11.828553">
<ele>595.4</ele>
<speed>6.6</speed>
<course>123.2</course>
<desc>Speed 6.6 km/h Distance 43.00 km</desc>
<time>2010-06-13T09:47:57.76</time>
<name>11135</name>
</trkpt>
<trkpt lat="49.179617" lon="11.828577">
<ele>596.4</ele>
<speed>4.9</speed>
<course>100.8</course>
<desc>Speed 4.9 km/h Distance 43.01 km</desc>
<time>2010-06-13T09:47:58.75</time>
<name>11136</name>
</trkpt>
<trkpt lat="49.179615" lon="11.828590">
<ele>596.7</ele>
<speed>1.3</speed>
<course>167.4</course>
<desc>Speed 1.3 km/h Distance 43.01 km</desc>
<time>2010-06-13T09:47:59.76</time>
<name>11137</name>
</trkpt>
<trkpt lat="49.179612" lon="11.828592">
<ele>597.1</ele>
<speed>0.3</speed>
<course>224.5</course>
<desc>Speed 0.3 km/h Distance 43.01 km</desc>
<time>2010-06-13T09:48:00.76</time>
<name>11138</name>
</trkpt>
<trkpt lat="49.179608" lon="11.828587">
<ele>597.7</ele>
<speed>0.5</speed>
<course>213.7</course>
<desc>Speed 0.5 km/h Distance 43.01 km</desc>
<time>2010-06-13T09:48:01.74</time>
<name>11139</name>
</trkpt>
<trkpt lat="49.179605" lon="11.828583">
<ele>598.1</ele>
<speed>0.9</speed>
<course>213.7</course>
<desc>Speed 0.9 km/h Distance 43.01 km</desc>
<time>2010-06-13T09:48:02.75</time>
<name>11140</name>
</trkpt>
<trkpt lat="49.179605" lon="11.828583">
<ele>598.2</ele>
<speed>0.3</speed>
<course>326.3</course>
<desc>Speed 0.3 km/h Distance 43.01 km</desc>
<time>2010-06-13T09:48:03.75</time>
<name>11141</name>
</trkpt>
<trkpt lat="49.179608" lon="11.828580">
<ele>597.9</ele>
<speed>2.9</speed>
<course>246.4</course>
<desc>Speed 2.9 km/h Distance 43.01 km</desc>
<time>2010-06-13T09:48:04.74</time>
<name>11142</name>
</trkpt>
<trkpt lat="49.179605" lon="11.828568">
<ele>598.3</ele>
<speed>2.4</speed>
<course>270.0</course>
<desc>Speed 2.4 km/h Distance 43.01 km</desc>
<time>2010-06-13T09:48:05.74</time>
<name>11143</name>
</trkpt>
<trkpt lat="49.179605" lon="11.828563">
<ele>598.7</ele>
<speed>0.9</speed>
<course>44.5</course>
<desc>Speed 0.9 km/h Distance 43.01 km</desc>
<time>2010-06-13T09:48:06.75</time>
<name>11144</name>
</trkpt>
<trkpt lat="49.179608" lon="11.828568">
<ele>598.6</ele>
<speed>1.4</speed>
<course>69.1</course>
<desc>Speed 1.4 km/h Distance 43.01 km</desc>
<time>2010-06-13T09:48:07.75</time>
<name>11145</name>
</trkpt>
<trkpt lat="49.179610" lon="11.828575">
<ele>598.6</ele>
<speed>0.8</speed>
<course>51.9</course>
<desc>Speed 0.8 km/h Distance 43.01 km</desc>
<time>2010-06-13T09:48:08.76</time>
<name>11146</name>
</trkpt>
<trkpt lat="49.179612" lon="11.828578">
<ele>599.0</ele>
<speed>0.1</speed>
<course>90.0</course>
<desc>Speed 0.1 km/h Distance 43.01 km</desc>
<time>2010-06-13T09:48:09.74</time>
<name>11147</name>
</trkpt>
<trkpt lat="49.179612" lon="11.828583">
<ele>599.6</ele>
<speed>0.2</speed>
<course>51.9</course>
<desc>Speed 0.2 km/h Distance 43.01 km</desc>
<time>2010-06-13T09:48:10.75</time>
<name>11148</name>
</trkpt>
<trkpt lat="49.179613" lon="11.828587">
<ele>600.2</ele>
<speed>0.2</speed>
<course>90.0</course>
<desc>Speed 0.2 km/h Distance 43.01 km</desc>
<time>2010-06-13T09:48:11.83</time>
<name>11149</name>
</trkpt>
<trkpt lat="49.179613" lon="11.828590">
<ele>600.7</ele>
<speed>0.1</speed>
<course>90.0</course>
<desc>Speed 0.1 km/h Distance 43.01 km</desc>
<time>2010-06-13T09:48:12.75</time>
<name>11150</name>
</trkpt>
<trkpt lat="49.179613" lon="11.828592">
<ele>601.2</ele>
<speed>0.1</speed>
<course>90.0</course>
<desc>Speed 0.1 km/h Distance 43.01 km</desc>
<time>2010-06-13T09:48:13.74</time>
<name>11151</name>
</trkpt>
<trkpt lat="49.179613" lon="11.828595">
<ele>601.7</ele>
<speed>0.1</speed>
<course>90.0</course>
<desc>Speed 0.1 km/h Distance 43.01 km</desc>
<time>2010-06-13T09:48:14.73</time>
<name>11152</name>
</trkpt>
<trkpt lat="49.179613" lon="11.828595">
<ele>602.3</ele>
<speed>0.1</speed>
<course>128.1</course>
<desc>Speed 0.1 km/h Distance 43.01 km</desc>
<time>2010-06-13T09:48:15.76</time>
<name>11153</name>
</trkpt>
<trkpt lat="49.179612" lon="11.828598">
<ele>602.8</ele>
<speed>0.1</speed>
<course>90.0</course>
<desc>Speed 0.1 km/h Distance 43.01 km</desc>
<time>2010-06-13T09:48:16.74</time>
<name>11154</name>
</trkpt>
<trkpt lat="49.179612" lon="11.828600">
<ele>603.3</ele>
<speed>0.2</speed>
<course>90.0</course>
<desc>Speed 0.2 km/h Distance 43.01 km</desc>
<time>2010-06-13T09:48:17.73</time>
<name>11155</name>
</trkpt>
<trkpt lat="49.179612" lon="11.828602">
<ele>603.7</ele>
<speed>0.1</speed>
<course>90.0</course>
<desc>Speed 0.1 km/h Distance 43.01 km</desc>
<time>2010-06-13T09:48:18.79</time>
<name>11156</name>
</trkpt>
<trkpt lat="49.179612" lon="11.828602">
<ele>604.0</ele>
<speed>0.1</speed>
<course>90.0</course>
<desc>Speed 0.1 km/h Distance 43.01 km</desc>
<time>2010-06-13T09:48:19.74</time>
<name>11157</name>
</trkpt>
<trkpt lat="49.179612" lon="11.828602">
<ele>604.2</ele>
<speed>0.2</speed>
<course>90.0</course>
<desc>Speed 0.2 km/h Distance 43.01 km</desc>
<time>2010-06-13T09:48:20.74</time>
<name>11158</name>
</trkpt>
<trkpt lat="49.179612" lon="11.828602">
<ele>604.5</ele>
<speed>0.3</speed>
<course>270.0</course>
<desc>Speed 0.3 km/h Distance 43.01 km</desc>
<time>2010-06-13T09:48:21.75</time>
<name>11159</name>
</trkpt>
<trkpt lat="49.179612" lon="11.828600">
<ele>604.9</ele>
<speed>0.3</speed>
<course>270.0</course>
<desc>Speed 0.3 km/h Distance 43.01 km</desc>
<time>2010-06-13T09:48:22.86</time>
<name>11160</name>
</trkpt>
<trkpt lat="49.179612" lon="11.828600">
<ele>605.1</ele>
<speed>0.1</speed>
<course>270.0</course>
<desc>Speed 0.1 km/h Distance 43.01 km</desc>
<time>2010-06-13T09:48:23.75</time>
<name>11161</name>
</trkpt>
<trkpt lat="49.179612" lon="11.828600">
<ele>605.4</ele>
<speed>0.1</speed>
<course>270.0</course>
<desc>Speed 0.1 km/h Distance 43.01 km</desc>
<time>2010-06-13T09:48:24.74</time>
<name>11162</name>
</trkpt>
<trkpt lat="49.179612" lon="11.828600">
<ele>605.7</ele>
<speed>0.2</speed>
<course>270.0</course>
<desc>Speed 0.2 km/h Distance 43.01 km</desc>
<time>2010-06-13T09:48:25.74</time>
<name>11163</name>
</trkpt>
<trkpt lat="49.179612" lon="11.828600">
<ele>605.9</ele>
<speed>0.1</speed>
<course>270.0</course>
<desc>Speed 0.1 km/h Distance 43.01 km</desc>
<time>2010-06-13T09:48:26.74</time>
<name>11164</name>
</trkpt>
<trkpt lat="49.179612" lon="11.828600">
<ele>606.1</ele>
<speed>0.1</speed>
<course>270.0</course>
<desc>Speed 0.1 km/h Distance 43.01 km</desc>
<time>2010-06-13T09:48:27.75</time>
<name>11165</name>
</trkpt>
<trkpt lat="49.179612" lon="11.828600">
<ele>606.4</ele>
<speed>0.1</speed>
<course>270.0</course>
<desc>Speed 0.1 km/h Distance 43.01 km</desc>
<time>2010-06-13T09:48:28.76</time>
<name>11166</name>
</trkpt>
<trkpt lat="49.179612" lon="11.828600">
<ele>606.6</ele>
<speed>0.1</speed>
<course>270.0</course>
<desc>Speed 0.1 km/h Distance 43.01 km</desc>
<time>2010-06-13T09:48:29.74</time>
<name>11167</name>
</trkpt>
<trkpt lat="49.179612" lon="11.828600">
<ele>606.8</ele>
<speed>0.1</speed>
<course>270.0</course>
<desc>Speed 0.1 km/h Distance 43.01 km</desc>
<time>2010-06-13T09:48:30.73</time>
<name>11168</name>
</trkpt>
<trkpt lat="49.179612" lon="11.828600">
<ele>607.1</ele>
<speed>0.1</speed>
<course>12.6</course>
<desc>Speed 0.1 km/h Distance 43.01 km</desc>
<time>2010-06-13T09:48:31.75</time>
<name>11169</name>
</trkpt>
<trkpt lat="49.179613" lon="11.828600">
<ele>607.3</ele>
<speed>0.1</speed>
<course>12.6</course>
<desc>Speed 0.1 km/h Distance 43.01 km</desc>
<time>2010-06-13T09:48:32.74</time>
<name>11170</name>
</trkpt>
<trkpt lat="49.179613" lon="11.828600">
<ele>607.5</ele>
<speed>0.1</speed>
<course>12.6</course>
<desc>Speed 0.1 km/h Distance 43.01 km</desc>
<time>2010-06-13T09:48:33.74</time>
<name>11171</name>
</trkpt>
<trkpt lat="49.179613" lon="11.828600">
<ele>607.7</ele>
<speed>0.1</speed>
<course>0.0</course>
<desc>Speed 0.1 km/h Distance 43.01 km</desc>
<time>2010-06-13T09:48:34.76</time>
<name>11172</name>
</trkpt>
<trkpt lat="49.179615" lon="11.828600">
<ele>608.0</ele>
<speed>0.1</speed>
<course>0.0</course>
<desc>Speed 0.1 km/h Distance 43.01 km</desc>
<time>2010-06-13T09:48:36.01</time>
<name>11173</name>
</trkpt>
<trkpt lat="49.179615" lon="11.828600">
<ele>608.1</ele>
<speed>0.1</speed>
<course>0.0</course>
<desc>Speed 0.1 km/h Distance 43.01 km</desc>
<time>2010-06-13T09:48:36.72</time>
<name>11174</name>
</trkpt>
<trkpt lat="49.179615" lon="11.828600">
<ele>608.4</ele>
<speed>0.1</speed>
<course>12.6</course>
<desc>Speed 0.1 km/h Distance 43.01 km</desc>
<time>2010-06-13T09:48:37.75</time>
<name>11175</name>
</trkpt>
<trkpt lat="49.179617" lon="11.828600">
<ele>608.5</ele>
<speed>0.3</speed>
<course>12.6</course>
<desc>Speed 0.3 km/h Distance 43.01 km</desc>
<time>2010-06-13T09:48:38.75</time>
<name>11176</name>
</trkpt>
<trkpt lat="49.179618" lon="11.828600">
<ele>608.6</ele>
<speed>0.4</speed>
<course>12.6</course>
<desc>Speed 0.4 km/h Distance 43.01 km</desc>
<time>2010-06-13T09:48:40.62</time>
<name>11177</name>
</trkpt>
<trkpt lat="49.179618" lon="11.828600">
<ele>608.6</ele>
<speed>0.3</speed>
<course>12.6</course>
<desc>Speed 0.3 km/h Distance 43.01 km</desc>
<time>2010-06-13T09:48:41.73</time>
<name>11178</name>
</trkpt>
<trkpt lat="49.179618" lon="11.828600">
<ele>608.6</ele>
<speed>0.3</speed>
<course>12.6</course>
<desc>Speed 0.3 km/h Distance 43.01 km</desc>
<time>2010-06-13T09:48:42.96</time>
<name>11179</name>
</trkpt>
<trkpt lat="49.179618" lon="11.828600">
<ele>608.7</ele>
<speed>0.1</speed>
<course>12.6</course>
<desc>Speed 0.1 km/h Distance 43.01 km</desc>
<time>2010-06-13T09:48:43.72</time>
<name>11180</name>
</trkpt>
<trkpt lat="49.179618" lon="11.828600">
<ele>608.8</ele>
<speed>0.1</speed>
<course>12.6</course>
<desc>Speed 0.1 km/h Distance 43.01 km</desc>
<time>2010-06-13T09:48:44.74</time>
<name>11181</name>
</trkpt>
<trkpt lat="49.179623" lon="11.828602">
<ele>609.3</ele>
<speed>0.3</speed>
<course>12.6</course>
<desc>Speed 0.3 km/h Distance 43.02 km</desc>
<time>2010-06-13T09:48:45.75</time>
<name>11182</name>
</trkpt>
<trkpt lat="49.179625" lon="11.828602">
<ele>609.4</ele>
<speed>0.5</speed>
<course>12.6</course>
<desc>Speed 0.5 km/h Distance 43.02 km</desc>
<time>2010-06-13T09:48:46.82</time>
<name>11183</name>
</trkpt>
<trkpt lat="49.179625" lon="11.828602">
<ele>609.5</ele>
<speed>0.2</speed>
<course>167.4</course>
<desc>Speed 0.2 km/h Distance 43.02 km</desc>
<time>2010-06-13T09:48:47.76</time>
<name>11184</name>
</trkpt>
<trkpt lat="49.179623" lon="11.828602">
<ele>609.5</ele>
<speed>0.3</speed>
<course>167.4</course>
<desc>Speed 0.3 km/h Distance 43.02 km</desc>
<time>2010-06-13T09:48:48.75</time>
<name>11185</name>
</trkpt>
<trkpt lat="49.179623" lon="11.828602">
<ele>609.5</ele>
<speed>0.1</speed>
<course>167.4</course>
<desc>Speed 0.1 km/h Distance 43.02 km</desc>
<time>2010-06-13T09:48:49.74</time>
<name>11186</name>
</trkpt>
<trkpt lat="49.179623" lon="11.828602">
<ele>609.5</ele>
<speed>0.1</speed>
<course>167.4</course>
<desc>Speed 0.1 km/h Distance 43.02 km</desc>
<time>2010-06-13T09:48:50.74</time>
<name>11187</name>
</trkpt>
<trkpt lat="49.179622" lon="11.828602">
<ele>609.5</ele>
<speed>0.4</speed>
<course>12.6</course>
<desc>Speed 0.4 km/h Distance 43.02 km</desc>
<time>2010-06-13T09:48:51.74</time>
<name>11188</name>
</trkpt>
<trkpt lat="49.179627" lon="11.828603">
<ele>609.9</ele>
<speed>0.1</speed>
<course>12.6</course>
<desc>Speed 0.1 km/h Distance 43.02 km</desc>
<time>2010-06-13T09:48:52.73</time>
<name>11189</name>
</trkpt>
<trkpt lat="49.179632" lon="11.828605">
<ele>610.3</ele>
<speed>0.1</speed>
<course>12.6</course>
<desc>Speed 0.1 km/h Distance 43.02 km</desc>
<time>2010-06-13T09:48:53.74</time>
<name>11190</name>
</trkpt>
<trkpt lat="49.179637" lon="11.828607">
<ele>610.5</ele>
<speed>0.1</speed>
<course>7.4</course>
<desc>Speed 0.1 km/h Distance 43.02 km</desc>
<time>2010-06-13T09:48:54.74</time>
<name>11191</name>
</trkpt>
<trkpt lat="49.179643" lon="11.828608">
<ele>610.9</ele>
<speed>0.1</speed>
<course>8.1</course>
<desc>Speed 0.1 km/h Distance 43.02 km</desc>
<time>2010-06-13T09:48:55.76</time>
<name>11192</name>
</trkpt>
<trkpt lat="49.179648" lon="11.828610">
<ele>611.1</ele>
<speed>0.1</speed>
<course>7.4</course>
<desc>Speed 0.1 km/h Distance 43.02 km</desc>
<time>2010-06-13T09:48:56.74</time>
<name>11193</name>
</trkpt>
<trkpt lat="49.179655" lon="11.828612">
<ele>611.4</ele>
<speed>0.1</speed>
<course>7.4</course>
<desc>Speed 0.1 km/h Distance 43.02 km</desc>
<time>2010-06-13T09:48:57.73</time>
<name>11194</name>
</trkpt>
<trkpt lat="49.179662" lon="11.828613">
<ele>611.7</ele>
<speed>0.1</speed>
<course>12.6</course>
<desc>Speed 0.1 km/h Distance 43.02 km</desc>
<time>2010-06-13T09:48:58.73</time>
<name>11195</name>
</trkpt>
<trkpt lat="49.179665" lon="11.828615">
<ele>611.9</ele>
<speed>0.1</speed>
<course>0.0</course>
<desc>Speed 0.1 km/h Distance 43.02 km</desc>
<time>2010-06-13T09:48:59.75</time>
<name>11196</name>
</trkpt>
<trkpt lat="49.179670" lon="11.828615">
<ele>612.0</ele>
<speed>0.1</speed>
<course>7.4</course>
<desc>Speed 0.1 km/h Distance 43.02 km</desc>
<time>2010-06-13T09:49:00.73</time>
<name>11197</name>
</trkpt>
<trkpt lat="49.179677" lon="11.828617">
<ele>612.3</ele>
<speed>0.3</speed>
<course>12.6</course>
<desc>Speed 0.3 km/h Distance 43.02 km</desc>
<time>2010-06-13T09:49:01.75</time>
<name>11198</name>
</trkpt>
<trkpt lat="49.179682" lon="11.828618">
<ele>612.5</ele>
<speed>0.3</speed>
<course>0.0</course>
<desc>Speed 0.3 km/h Distance 43.02 km</desc>
<time>2010-06-13T09:49:02.73</time>
<name>11199</name>
</trkpt>
<trkpt lat="49.179687" lon="11.828618">
<ele>612.6</ele>
<speed>0.2</speed>
<course>12.6</course>
<desc>Speed 0.2 km/h Distance 43.02 km</desc>
<time>2010-06-13T09:49:03.74</time>
<name>11200</name>
</trkpt>
<trkpt lat="49.179690" lon="11.828620">
<ele>612.6</ele>
<speed>0.2</speed>
<course>12.6</course>
<desc>Speed 0.2 km/h Distance 43.02 km</desc>
<time>2010-06-13T09:49:04.75</time>
<name>11201</name>
</trkpt>
<trkpt lat="49.179690" lon="11.828620">
<ele>612.7</ele>
<speed>0.1</speed>
<course>12.6</course>
<desc>Speed 0.1 km/h Distance 43.02 km</desc>
<time>2010-06-13T09:49:05.74</time>
<name>11202</name>
</trkpt>
<trkpt lat="49.179695" lon="11.828622">
<ele>612.7</ele>
<speed>0.1</speed>
<course>0.0</course>
<desc>Speed 0.1 km/h Distance 43.02 km</desc>
<time>2010-06-13T09:49:06.76</time>
<name>11203</name>
</trkpt>
<trkpt lat="49.179698" lon="11.828622">
<ele>612.7</ele>
<speed>0.1</speed>
<course>18.8</course>
<desc>Speed 0.1 km/h Distance 43.02 km</desc>
<time>2010-06-13T09:49:07.74</time>
<name>11204</name>
</trkpt>
<trkpt lat="49.179702" lon="11.828623">
<ele>612.7</ele>
<speed>0.1</speed>
<course>37.2</course>
<desc>Speed 0.1 km/h Distance 43.03 km</desc>
<time>2010-06-13T09:49:08.76</time>
<name>11205</name>
</trkpt>
<trkpt lat="49.179703" lon="11.828625">
<ele>612.6</ele>
<speed>0.3</speed>
<course>37.2</course>
<desc>Speed 0.3 km/h Distance 43.03 km</desc>
<time>2010-06-13T09:49:09.78</time>
<name>11206</name>
</trkpt>
<trkpt lat="49.179703" lon="11.828625">
<ele>612.5</ele>
<speed>0.2</speed>
<course>12.6</course>
<desc>Speed 0.2 km/h Distance 43.03 km</desc>
<time>2010-06-13T09:49:10.74</time>
<name>11207</name>
</trkpt>
<trkpt lat="49.179708" lon="11.828627">
<ele>612.4</ele>
<speed>0.2</speed>
<course>12.6</course>
<desc>Speed 0.2 km/h Distance 43.03 km</desc>
<time>2010-06-13T09:49:11.74</time>
<name>11208</name>
</trkpt>
<trkpt lat="49.179710" lon="11.828627">
<ele>612.3</ele>
<speed>0.1</speed>
<course>12.6</course>
<desc>Speed 0.1 km/h Distance 43.03 km</desc>
<time>2010-06-13T09:49:12.74</time>
<name>11209</name>
</trkpt>
<trkpt lat="49.179712" lon="11.828627">
<ele>612.1</ele>
<speed>0.2</speed>
<course>51.9</course>
<desc>Speed 0.2 km/h Distance 43.03 km</desc>
<time>2010-06-13T09:49:13.74</time>
<name>11210</name>
</trkpt>
<trkpt lat="49.179713" lon="11.828630">
<ele>612.0</ele>
<speed>0.2</speed>
<course>12.6</course>
<desc>Speed 0.2 km/h Distance 43.03 km</desc>
<time>2010-06-13T09:49:14.76</time>
<name>11211</name>
</trkpt>
<trkpt lat="49.179715" lon="11.828630">
<ele>611.9</ele>
<speed>0.1</speed>
<course>12.6</course>
<desc>Speed 0.1 km/h Distance 43.03 km</desc>
<time>2010-06-13T09:49:15.75</time>
<name>11212</name>
</trkpt>
<trkpt lat="49.179715" lon="11.828630">
<ele>611.7</ele>
<speed>0.1</speed>
<course>37.2</course>
<desc>Speed 0.1 km/h Distance 43.03 km</desc>
<time>2010-06-13T09:49:16.74</time>
<name>11213</name>
</trkpt>
<trkpt lat="49.179717" lon="11.828632">
<ele>611.6</ele>
<speed>0.1</speed>
<course>12.6</course>
<desc>Speed 0.1 km/h Distance 43.03 km</desc>
<time>2010-06-13T09:49:17.75</time>
<name>11214</name>
</trkpt>
<trkpt lat="49.179718" lon="11.828632">
<ele>611.4</ele>
<speed>0.2</speed>
<course>12.6</course>
<desc>Speed 0.2 km/h Distance 43.03 km</desc>
<time>2010-06-13T09:49:18.74</time>
<name>11215</name>
</trkpt>
<trkpt lat="49.179718" lon="11.828633">
<ele>611.3</ele>
<speed>0.2</speed>
<course>0.0</course>
<desc>Speed 0.2 km/h Distance 43.03 km</desc>
<time>2010-06-13T09:49:19.75</time>
<name>11216</name>
</trkpt>
<trkpt lat="49.179720" lon="11.828633">
<ele>611.1</ele>
<speed>0.2</speed>
<course>90.0</course>
<desc>Speed 0.2 km/h Distance 43.03 km</desc>
<time>2010-06-13T09:49:20.74</time>
<name>11217</name>
</trkpt>
<trkpt lat="49.179720" lon="11.828635">
<ele>611.0</ele>
<speed>0.2</speed>
<course>12.6</course>
<desc>Speed 0.2 km/h Distance 43.03 km</desc>
<time>2010-06-13T09:49:21.73</time>
<name>11218</name>
</trkpt>
<trkpt lat="49.179722" lon="11.828635">
<ele>610.9</ele>
<speed>0.2</speed>
<course>12.6</course>
<desc>Speed 0.2 km/h Distance 43.03 km</desc>
<time>2010-06-13T09:49:22.74</time>
<name>11219</name>
</trkpt>
<trkpt lat="49.179722" lon="11.828637">
<ele>610.7</ele>
<speed>0.2</speed>
<course>12.6</course>
<desc>Speed 0.2 km/h Distance 43.03 km</desc>
<time>2010-06-13T09:49:23.74</time>
<name>11220</name>
</trkpt>
<trkpt lat="49.179722" lon="11.828637">
<ele>610.6</ele>
<speed>0.2</speed>
<course>12.6</course>
<desc>Speed 0.2 km/h Distance 43.03 km</desc>
<time>2010-06-13T09:49:24.73</time>
<name>11221</name>
</trkpt>
<trkpt lat="49.179723" lon="11.828637">
<ele>610.4</ele>
<speed>0.2</speed>
<course>90.0</course>
<desc>Speed 0.2 km/h Distance 43.03 km</desc>
<time>2010-06-13T09:49:25.75</time>
<name>11222</name>
</trkpt>
<trkpt lat="49.179723" lon="11.828638">
<ele>610.3</ele>
<speed>0.2</speed>
<course>90.0</course>
<desc>Speed 0.2 km/h Distance 43.03 km</desc>
<time>2010-06-13T09:49:26.74</time>
<name>11223</name>
</trkpt>
<trkpt lat="49.179723" lon="11.828640">
<ele>610.1</ele>
<speed>0.2</speed>
<course>90.0</course>
<desc>Speed 0.2 km/h Distance 43.03 km</desc>
<time>2010-06-13T09:49:27.75</time>
<name>11224</name>
</trkpt>
<trkpt lat="49.179723" lon="11.828640">
<ele>609.9</ele>
<speed>0.2</speed>
<course>90.0</course>
<desc>Speed 0.2 km/h Distance 43.03 km</desc>
<time>2010-06-13T09:49:28.74</time>
<name>11225</name>
</trkpt>
<trkpt lat="49.179723" lon="11.828640">
<ele>609.8</ele>
<speed>0.3</speed>
<course>90.0</course>
<desc>Speed 0.3 km/h Distance 43.03 km</desc>
<time>2010-06-13T09:49:29.71</time>
<name>11226</name>
</trkpt>
<trkpt lat="49.179723" lon="11.828642">
<ele>609.6</ele>
<speed>0.2</speed>
<course>12.6</course>
<desc>Speed 0.2 km/h Distance 43.03 km</desc>
<time>2010-06-13T09:49:30.77</time>
<name>11227</name>
</trkpt>
<trkpt lat="49.179725" lon="11.828642">
<ele>609.5</ele>
<speed>0.2</speed>
<course>90.0</course>
<desc>Speed 0.2 km/h Distance 43.03 km</desc>
<time>2010-06-13T09:49:31.76</time>
<name>11228</name>
</trkpt>
<trkpt lat="49.179725" lon="11.828643">
<ele>609.4</ele>
<speed>0.2</speed>
<course>90.0</course>
<desc>Speed 0.2 km/h Distance 43.03 km</desc>
<time>2010-06-13T09:49:32.74</time>
<name>11229</name>
</trkpt>
<trkpt lat="49.179725" lon="11.828643">
<ele>609.3</ele>
<speed>0.2</speed>
<course>90.0</course>
<desc>Speed 0.2 km/h Distance 43.03 km</desc>
<time>2010-06-13T09:49:34.62</time>
<name>11230</name>
</trkpt>
<trkpt lat="49.179725" lon="11.828645">
<ele>609.1</ele>
<speed>0.2</speed>
<course>90.0</course>
<desc>Speed 0.2 km/h Distance 43.03 km</desc>
<time>2010-06-13T09:49:35.74</time>
<name>11231</name>
</trkpt>
<trkpt lat="49.179725" lon="11.828645">
<ele>609.0</ele>
<speed>0.2</speed>
<course>90.0</course>
<desc>Speed 0.2 km/h Distance 43.03 km</desc>
<time>2010-06-13T09:49:37.03</time>
<name>11232</name>
</trkpt>
<trkpt lat="49.179725" lon="11.828645">
<ele>608.9</ele>
<speed>0.1</speed>
<course>90.0</course>
<desc>Speed 0.1 km/h Distance 43.03 km</desc>
<time>2010-06-13T09:49:38.34</time>
<name>11233</name>
</trkpt>
<trkpt lat="49.179725" lon="11.828645">
<ele>608.9</ele>
<speed>0.1</speed>
<course>90.0</course>
<desc>Speed 0.1 km/h Distance 43.03 km</desc>
<time>2010-06-13T09:49:38.59</time>
<name>11234</name>
</trkpt>
<trkpt lat="49.179725" lon="11.828645">
<ele>608.8</ele>
<speed>0.2</speed>
<course>90.0</course>
<desc>Speed 0.2 km/h Distance 43.03 km</desc>
<time>2010-06-13T09:49:41.04</time>
<name>11235</name>
</trkpt>
<trkpt lat="49.179725" lon="11.828645">
<ele>608.7</ele>
<speed>0.2</speed>
<course>142.8</course>
<desc>Speed 0.2 km/h Distance 43.03 km</desc>
<time>2010-06-13T09:49:41.59</time>
<name>11236</name>
</trkpt>
<trkpt lat="49.179723" lon="11.828647">
<ele>608.6</ele>
<speed>0.2</speed>
<course>142.8</course>
<desc>Speed 0.2 km/h Distance 43.03 km</desc>
<time>2010-06-13T09:49:42.59</time>
<name>11237</name>
</trkpt>
<trkpt lat="49.179723" lon="11.828647">
<ele>608.5</ele>
<speed>0.1</speed>
<course>142.8</course>
<desc>Speed 0.1 km/h Distance 43.03 km</desc>
<time>2010-06-13T09:49:44.41</time>
<name>11238</name>
</trkpt>
<trkpt lat="49.179723" lon="11.828647">
<ele>608.5</ele>
<speed>0.1</speed>
<course>172.6</course>
<desc>Speed 0.1 km/h Distance 43.03 km</desc>
<time>2010-06-13T09:49:44.59</time>
<name>11239</name>
</trkpt>
<trkpt lat="49.179717" lon="11.828647">
<ele>609.0</ele>
<speed>0.2</speed>
<course>169.7</course>
<desc>Speed 0.2 km/h Distance 43.03 km</desc>
<time>2010-06-13T09:49:47.58</time>
<name>11240</name>
</trkpt>
<trkpt lat="49.179710" lon="11.828648">
<ele>609.3</ele>
<speed>0.2</speed>
<course>172.6</course>
<desc>Speed 0.2 km/h Distance 43.03 km</desc>
<time>2010-06-13T09:49:48.74</time>
<name>11241</name>
</trkpt>
<trkpt lat="49.179703" lon="11.828648">
<ele>609.6</ele>
<speed>0.2</speed>
<course>172.6</course>
<desc>Speed 0.2 km/h Distance 43.03 km</desc>
<time>2010-06-13T09:49:49.75</time>
<name>11242</name>
</trkpt>
<trkpt lat="49.179703" lon="11.828648">
<ele>609.7</ele>
<speed>0.2</speed>
<course>172.6</course>
<desc>Speed 0.2 km/h Distance 43.03 km</desc>
<time>2010-06-13T09:49:51.44</time>
<name>11243</name>
</trkpt>
<trkpt lat="49.179703" lon="11.828648">
<ele>609.7</ele>
<speed>0.2</speed>
<course>167.4</course>
<desc>Speed 0.2 km/h Distance 43.03 km</desc>
<time>2010-06-13T09:49:51.59</time>
<name>11244</name>
</trkpt>
<trkpt lat="49.179702" lon="11.828648">
<ele>609.9</ele>
<speed>0.1</speed>
<course>167.4</course>
<desc>Speed 0.1 km/h Distance 43.03 km</desc>
<time>2010-06-13T09:49:52.81</time>
<name>11245</name>
</trkpt>
<trkpt lat="49.179700" lon="11.828648">
<ele>610.0</ele>
<speed>0.2</speed>
<course>167.4</course>
<desc>Speed 0.2 km/h Distance 43.03 km</desc>
<time>2010-06-13T09:49:54.02</time>
<name>11246</name>
</trkpt>
<trkpt lat="49.179698" lon="11.828648">
<ele>610.1</ele>
<speed>0.2</speed>
<course>167.4</course>
<desc>Speed 0.2 km/h Distance 43.03 km</desc>
<time>2010-06-13T09:49:54.59</time>
<name>11247</name>
</trkpt>
<trkpt lat="49.179695" lon="11.828650">
<ele>610.2</ele>
<speed>0.2</speed>
<course>180.0</course>
<desc>Speed 0.2 km/h Distance 43.03 km</desc>
<time>2010-06-13T09:50:00.73</time>
<name>11248</name>
</trkpt>
<trkpt lat="49.179690" lon="11.828650">
<ele>610.6</ele>
<speed>0.1</speed>
<course>180.0</course>
<desc>Speed 0.1 km/h Distance 43.03 km</desc>
<time>2010-06-13T09:50:01.62</time>
<name>11249</name>
</trkpt>
<trkpt lat="49.179690" lon="11.828650">
<ele>610.7</ele>
<speed>0.2</speed>
<course>180.0</course>
<desc>Speed 0.2 km/h Distance 43.03 km</desc>
<time>2010-06-13T09:50:02.74</time>
<name>11250</name>
</trkpt>
<trkpt lat="49.179690" lon="11.828650">
<ele>610.7</ele>
<speed>0.2</speed>
<course>180.0</course>
<desc>Speed 0.2 km/h Distance 43.03 km</desc>
<time>2010-06-13T09:50:03.77</time>
<name>11251</name>
</trkpt>
<trkpt lat="49.179690" lon="11.828650">
<ele>610.7</ele>
<speed>0.2</speed>
<course>180.0</course>
<desc>Speed 0.2 km/h Distance 43.03 km</desc>
<time>2010-06-13T09:50:04.90</time>
<name>11252</name>
</trkpt>
<trkpt lat="49.179690" lon="11.828650">
<ele>610.7</ele>
<speed>0.2</speed>
<course>180.0</course>
<desc>Speed 0.2 km/h Distance 43.03 km</desc>
<time>2010-06-13T09:50:05.73</time>
<name>11253</name>
</trkpt>
<trkpt lat="49.179690" lon="11.828650">
<ele>610.7</ele>
<speed>0.2</speed>
<course>0.0</course>
<desc>Speed 0.2 km/h Distance 43.03 km</desc>
<time>2010-06-13T09:50:06.85</time>
<name>11254</name>
</trkpt>
<trkpt lat="49.179693" lon="11.828650">
<ele>610.7</ele>
<speed>0.2</speed>
<course>0.0</course>
<desc>Speed 0.2 km/h Distance 43.03 km</desc>
<time>2010-06-13T09:50:07.75</time>
<name>11255</name>
</trkpt>
<trkpt lat="49.179693" lon="11.828650">
<ele>610.7</ele>
<speed>0.2</speed>
<course>0.0</course>
<desc>Speed 0.2 km/h Distance 43.03 km</desc>
<time>2010-06-13T09:50:08.74</time>
<name>11256</name>
</trkpt>
<trkpt lat="49.179693" lon="11.828650">
<ele>610.7</ele>
<speed>0.1</speed>
<course>347.4</course>
<desc>Speed 0.1 km/h Distance 43.03 km</desc>
<time>2010-06-13T09:50:09.77</time>
<name>11257</name>
</trkpt>
<trkpt lat="49.179695" lon="11.828648">
<ele>610.8</ele>
<speed>0.2</speed>
<course>347.4</course>
<desc>Speed 0.2 km/h Distance 43.03 km</desc>
<time>2010-06-13T09:50:10.75</time>
<name>11258</name>
</trkpt>
<trkpt lat="49.179695" lon="11.828648">
<ele>610.8</ele>
<speed>0.1</speed>
<course>347.4</course>
<desc>Speed 0.1 km/h Distance 43.03 km</desc>
<time>2010-06-13T09:50:11.86</time>
<name>11259</name>
</trkpt>
<trkpt lat="49.179695" lon="11.828648">
<ele>610.8</ele>
<speed>0.1</speed>
<course>0.0</course>
<desc>Speed 0.1 km/h Distance 43.03 km</desc>
<time>2010-06-13T09:50:12.76</time>
<name>11260</name>
</trkpt>
<trkpt lat="49.179697" lon="11.828648">
<ele>610.8</ele>
<speed>0.2</speed>
<course>0.0</course>
<desc>Speed 0.2 km/h Distance 43.03 km</desc>
<time>2010-06-13T09:50:13.77</time>
<name>11261</name>
</trkpt>
<trkpt lat="49.179697" lon="11.828648">
<ele>610.8</ele>
<speed>0.1</speed>
<course>0.0</course>
<desc>Speed 0.1 km/h Distance 43.03 km</desc>
<time>2010-06-13T09:50:14.73</time>
<name>11262</name>
</trkpt>
<trkpt lat="49.179697" lon="11.828648">
<ele>610.8</ele>
<speed>0.1</speed>
<course>12.6</course>
<desc>Speed 0.1 km/h Distance 43.03 km</desc>
<time>2010-06-13T09:50:15.81</time>
<name>11263</name>
</trkpt>
<trkpt lat="49.179698" lon="11.828648">
<ele>610.8</ele>
<speed>0.2</speed>
<course>12.6</course>
<desc>Speed 0.2 km/h Distance 43.03 km</desc>
<time>2010-06-13T09:50:16.86</time>
<name>11264</name>
</trkpt>
<trkpt lat="49.179698" lon="11.828648">
<ele>610.8</ele>
<speed>0.1</speed>
<course>12.6</course>
<desc>Speed 0.1 km/h Distance 43.03 km</desc>
<time>2010-06-13T09:50:18.01</time>
<name>11265</name>
</trkpt>
<trkpt lat="49.179698" lon="11.828648">
<ele>610.8</ele>
<speed>0.2</speed>
<course>330.8</course>
<desc>Speed 0.2 km/h Distance 43.03 km</desc>
<time>2010-06-13T09:50:18.76</time>
<name>11266</name>
</trkpt>
<trkpt lat="49.179700" lon="11.828647">
<ele>610.9</ele>
<speed>0.3</speed>
<course>330.8</course>
<desc>Speed 0.3 km/h Distance 43.03 km</desc>
<time>2010-06-13T09:50:19.76</time>
<name>11267</name>
</trkpt>
<trkpt lat="49.179700" lon="11.828645">
<ele>611.0</ele>
<speed>0.2</speed>
<course>322.8</course>
<desc>Speed 0.2 km/h Distance 43.03 km</desc>
<time>2010-06-13T09:50:20.80</time>
<name>11268</name>
</trkpt>
<trkpt lat="49.179702" lon="11.828643">
<ele>611.1</ele>
<speed>0.1</speed>
<course>270.0</course>
<desc>Speed 0.1 km/h Distance 43.03 km</desc>
<time>2010-06-13T09:50:21.74</time>
<name>11269</name>
</trkpt>
<trkpt lat="49.179702" lon="11.828642">
<ele>611.1</ele>
<speed>0.1</speed>
<course>12.6</course>
<desc>Speed 0.1 km/h Distance 43.03 km</desc>
<time>2010-06-13T09:50:22.73</time>
<name>11270</name>
</trkpt>
<trkpt lat="49.179703" lon="11.828642">
<ele>611.2</ele>
<speed>0.2</speed>
<course>270.0</course>
<desc>Speed 0.2 km/h Distance 43.03 km</desc>
<time>2010-06-13T09:50:23.73</time>
<name>11271</name>
</trkpt>
<trkpt lat="49.179703" lon="11.828640">
<ele>611.3</ele>
<speed>0.3</speed>
<course>270.0</course>
<desc>Speed 0.3 km/h Distance 43.03 km</desc>
<time>2010-06-13T09:50:24.74</time>
<name>11272</name>
</trkpt>
<trkpt lat="49.179703" lon="11.828638">
<ele>611.3</ele>
<speed>0.2</speed>
<course>341.2</course>
<desc>Speed 0.2 km/h Distance 43.03 km</desc>
<time>2010-06-13T09:50:25.75</time>
<name>11273</name>
</trkpt>
<trkpt lat="49.179707" lon="11.828637">
<ele>611.5</ele>
<speed>0.1</speed>
<course>341.2</course>
<desc>Speed 0.1 km/h Distance 43.04 km</desc>
<time>2010-06-13T09:50:26.74</time>
<name>11274</name>
</trkpt>
<trkpt lat="49.179707" lon="11.828637">
<ele>611.5</ele>
<speed>0.3</speed>
<course>341.2</course>
<desc>Speed 0.3 km/h Distance 43.04 km</desc>
<time>2010-06-13T09:50:27.73</time>
<name>11275</name>
</trkpt>
<trkpt lat="49.179707" lon="11.828635">
<ele>611.5</ele>
<speed>0.3</speed>
<course>12.6</course>
<desc>Speed 0.3 km/h Distance 43.04 km</desc>
<time>2010-06-13T09:50:28.74</time>
<name>11276</name>
</trkpt>
<trkpt lat="49.179708" lon="11.828635">
<ele>611.6</ele>
<speed>0.2</speed>
<course>322.8</course>
<desc>Speed 0.2 km/h Distance 43.04 km</desc>
<time>2010-06-13T09:50:29.74</time>
<name>11277</name>
</trkpt>
<trkpt lat="49.179710" lon="11.828633">
<ele>611.6</ele>
<speed>0.1</speed>
<course>330.8</course>
<desc>Speed 0.1 km/h Distance 43.04 km</desc>
<time>2010-06-13T09:50:30.74</time>
<name>11278</name>
</trkpt>
<trkpt lat="49.179712" lon="11.828632">
<ele>611.8</ele>
<speed>0.2</speed>
<course>12.6</course>
<desc>Speed 0.2 km/h Distance 43.04 km</desc>
<time>2010-06-13T09:50:31.74</time>
<name>11279</name>
</trkpt>
<trkpt lat="49.179713" lon="11.828632">
<ele>611.8</ele>
<speed>0.1</speed>
<course>12.6</course>
<desc>Speed 0.1 km/h Distance 43.04 km</desc>
<time>2010-06-13T09:50:32.74</time>
<name>11280</name>
</trkpt>
<trkpt lat="49.179713" lon="11.828632">
<ele>611.9</ele>
<speed>0.1</speed>
<course>322.8</course>
<desc>Speed 0.1 km/h Distance 43.04 km</desc>
<time>2010-06-13T09:50:33.74</time>
<name>11281</name>
</trkpt>
<trkpt lat="49.179715" lon="11.828630">
<ele>611.9</ele>
<speed>0.1</speed>
<course>322.8</course>
<desc>Speed 0.1 km/h Distance 43.04 km</desc>
<time>2010-06-13T09:50:34.73</time>
<name>11282</name>
</trkpt>
<trkpt lat="49.179715" lon="11.828630">
<ele>611.9</ele>
<speed>0.1</speed>
<course>12.6</course>
<desc>Speed 0.1 km/h Distance 43.04 km</desc>
<time>2010-06-13T09:50:35.74</time>
<name>11283</name>
</trkpt>
<trkpt lat="49.179717" lon="11.828630">
<ele>612.0</ele>
<speed>0.1</speed>
<course>12.6</course>
<desc>Speed 0.1 km/h Distance 43.04 km</desc>
<time>2010-06-13T09:50:36.74</time>
<name>11284</name>
</trkpt>
<trkpt lat="49.179717" lon="11.828630">
<ele>612.0</ele>
<speed>0.1</speed>
<course>12.6</course>
<desc>Speed 0.1 km/h Distance 43.04 km</desc>
<time>2010-06-13T09:50:37.85</time>
<name>11285</name>
</trkpt>
<trkpt lat="49.179718" lon="11.828630">
<ele>612.0</ele>
<speed>0.2</speed>
<course>308.1</course>
<desc>Speed 0.2 km/h Distance 43.04 km</desc>
<time>2010-06-13T09:50:38.73</time>
<name>11286</name>
</trkpt>
<trkpt lat="49.179720" lon="11.828627">
<ele>611.9</ele>
<speed>0.1</speed>
<course>0.0</course>
<desc>Speed 0.1 km/h Distance 43.04 km</desc>
<time>2010-06-13T09:50:39.74</time>
<name>11287</name>
</trkpt>
<trkpt lat="49.179723" lon="11.828627">
<ele>611.9</ele>
<speed>0.1</speed>
<course>12.6</course>
<desc>Speed 0.1 km/h Distance 43.04 km</desc>
<time>2010-06-13T09:50:40.74</time>
<name>11288</name>
</trkpt>
<trkpt lat="49.179725" lon="11.828627">
<ele>611.9</ele>
<speed>0.1</speed>
<course>12.6</course>
<desc>Speed 0.1 km/h Distance 43.04 km</desc>
<time>2010-06-13T09:50:41.72</time>
<name>11289</name>
</trkpt>
<trkpt lat="49.179727" lon="11.828627">
<ele>611.9</ele>
<speed>0.1</speed>
<course>12.6</course>
<desc>Speed 0.1 km/h Distance 43.04 km</desc>
<time>2010-06-13T09:50:42.74</time>
<name>11290</name>
</trkpt>
<trkpt lat="49.179728" lon="11.828627">
<ele>611.9</ele>
<speed>0.1</speed>
<course>270.0</course>
<desc>Speed 0.1 km/h Distance 43.04 km</desc>
<time>2010-06-13T09:50:43.73</time>
<name>11291</name>
</trkpt>
<trkpt lat="49.179728" lon="11.828625">
<ele>611.9</ele>
<speed>0.2</speed>
<course>12.6</course>
<desc>Speed 0.2 km/h Distance 43.04 km</desc>
<time>2010-06-13T09:50:44.73</time>
<name>11292</name>
</trkpt>
<trkpt lat="49.179730" lon="11.828625">
<ele>611.9</ele>
<speed>0.1</speed>
<course>12.6</course>
<desc>Speed 0.1 km/h Distance 43.04 km</desc>
<time>2010-06-13T09:50:45.74</time>
<name>11293</name>
</trkpt>
<trkpt lat="49.179730" lon="11.828625">
<ele>611.8</ele>
<speed>0.2</speed>
<course>12.6</course>
<desc>Speed 0.2 km/h Distance 43.04 km</desc>
<time>2010-06-13T09:50:46.74</time>
<name>11294</name>
</trkpt>
<trkpt lat="49.179732" lon="11.828625">
<ele>611.8</ele>
<speed>0.1</speed>
<course>12.6</course>
<desc>Speed 0.1 km/h Distance 43.04 km</desc>
<time>2010-06-13T09:50:47.72</time>
<name>11295</name>
</trkpt>
<trkpt lat="49.179732" lon="11.828625">
<ele>611.8</ele>
<speed>0.2</speed>
<course>12.6</course>
<desc>Speed 0.2 km/h Distance 43.04 km</desc>
<time>2010-06-13T09:50:48.75</time>
<name>11296</name>
</trkpt>
<trkpt lat="49.179732" lon="11.828625">
<ele>611.7</ele>
<speed>0.2</speed>
<course>167.4</course>
<desc>Speed 0.2 km/h Distance 43.04 km</desc>
<time>2010-06-13T09:50:49.75</time>
<name>11297</name>
</trkpt>
<trkpt lat="49.179730" lon="11.828625">
<ele>611.6</ele>
<speed>0.3</speed>
<course>270.0</course>
<desc>Speed 0.3 km/h Distance 43.04 km</desc>
<time>2010-06-13T09:50:50.75</time>
<name>11298</name>
</trkpt>
<trkpt lat="49.179730" lon="11.828623">
<ele>611.6</ele>
<speed>0.3</speed>
<course>270.0</course>
<desc>Speed 0.3 km/h Distance 43.04 km</desc>
<time>2010-06-13T09:50:51.73</time>
<name>11299</name>
</trkpt>
<trkpt lat="49.179730" lon="11.828623">
<ele>611.5</ele>
<speed>0.2</speed>
<course>167.4</course>
<desc>Speed 0.2 km/h Distance 43.04 km</desc>
<time>2010-06-13T09:50:52.79</time>
<name>11300</name>
</trkpt>
<trkpt lat="49.179728" lon="11.828623">
<ele>611.4</ele>
<speed>0.2</speed>
<course>167.4</course>
<desc>Speed 0.2 km/h Distance 43.04 km</desc>
<time>2010-06-13T09:50:53.73</time>
<name>11301</name>
</trkpt>
<trkpt lat="49.179728" lon="11.828623">
<ele>611.3</ele>
<speed>0.1</speed>
<course>90.0</course>
<desc>Speed 0.1 km/h Distance 43.04 km</desc>
<time>2010-06-13T09:50:54.74</time>
<name>11302</name>
</trkpt>
<trkpt lat="49.179728" lon="11.828625">
<ele>611.2</ele>
<speed>0.2</speed>
<course>167.4</course>
<desc>Speed 0.2 km/h Distance 43.04 km</desc>
<time>2010-06-13T09:50:55.74</time>
<name>11303</name>
</trkpt>
<trkpt lat="49.179727" lon="11.828625">
<ele>611.1</ele>
<speed>0.2</speed>
<course>167.4</course>
<desc>Speed 0.2 km/h Distance 43.04 km</desc>
<time>2010-06-13T09:50:56.73</time>
<name>11304</name>
</trkpt>
<trkpt lat="49.179725" lon="11.828625">
<ele>611.0</ele>
<speed>0.2</speed>
<course>167.4</course>
<desc>Speed 0.2 km/h Distance 43.04 km</desc>
<time>2010-06-13T09:50:57.76</time>
<name>11305</name>
</trkpt>
<trkpt lat="49.179725" lon="11.828625">
<ele>610.9</ele>
<speed>0.2</speed>
<course>167.4</course>
<desc>Speed 0.2 km/h Distance 43.04 km</desc>
<time>2010-06-13T09:50:58.74</time>
<name>11306</name>
</trkpt>
<trkpt lat="49.179723" lon="11.828625">
<ele>610.8</ele>
<speed>0.2</speed>
<course>167.4</course>
<desc>Speed 0.2 km/h Distance 43.04 km</desc>
<time>2010-06-13T09:50:59.74</time>
<name>11307</name>
</trkpt>
<trkpt lat="49.179723" lon="11.828625">
<ele>610.6</ele>
<speed>0.2</speed>
<course>167.4</course>
<desc>Speed 0.2 km/h Distance 43.04 km</desc>
<time>2010-06-13T09:51:00.74</time>
<name>11308</name>
</trkpt>
<trkpt lat="49.179722" lon="11.828625">
<ele>610.5</ele>
<speed>0.1</speed>
<course>167.4</course>
<desc>Speed 0.1 km/h Distance 43.04 km</desc>
<time>2010-06-13T09:51:01.75</time>
<name>11309</name>
</trkpt>
<trkpt lat="49.179722" lon="11.828627">
<ele>610.4</ele>
<speed>0.1</speed>
<course>167.4</course>
<desc>Speed 0.1 km/h Distance 43.04 km</desc>
<time>2010-06-13T09:51:02.74</time>
<name>11310</name>
</trkpt>
<trkpt lat="49.179720" lon="11.828627">
<ele>610.2</ele>
<speed>0.1</speed>
<course>167.4</course>
<desc>Speed 0.1 km/h Distance 43.04 km</desc>
<time>2010-06-13T09:51:03.74</time>
<name>11311</name>
</trkpt>
<trkpt lat="49.179720" lon="11.828627">
<ele>610.1</ele>
<speed>0.1</speed>
<course>167.4</course>
<desc>Speed 0.1 km/h Distance 43.04 km</desc>
<time>2010-06-13T09:51:04.75</time>
<name>11312</name>
</trkpt>
<trkpt lat="49.179720" lon="11.828627">
<ele>609.9</ele>
<speed>0.2</speed>
<course>180.0</course>
<desc>Speed 0.2 km/h Distance 43.04 km</desc>
<time>2010-06-13T09:51:05.74</time>
<name>11313</name>
</trkpt>
<trkpt lat="49.179718" lon="11.828627">
<ele>609.7</ele>
<speed>0.2</speed>
<course>180.0</course>
<desc>Speed 0.2 km/h Distance 43.04 km</desc>
<time>2010-06-13T09:51:06.74</time>
<name>11314</name>
</trkpt>
<trkpt lat="49.179718" lon="11.828627">
<ele>609.5</ele>
<speed>0.2</speed>
<course>180.0</course>
<desc>Speed 0.2 km/h Distance 43.04 km</desc>
<time>2010-06-13T09:51:07.73</time>
<name>11315</name>
</trkpt>
<trkpt lat="49.179718" lon="11.828627">
<ele>609.2</ele>
<speed>0.2</speed>
<course>90.0</course>
<desc>Speed 0.2 km/h Distance 43.04 km</desc>
<time>2010-06-13T09:51:08.74</time>
<name>11316</name>
</trkpt>
<trkpt lat="49.179718" lon="11.828630">
<ele>609.0</ele>
<speed>0.3</speed>
<course>90.0</course>
<desc>Speed 0.3 km/h Distance 43.04 km</desc>
<time>2010-06-13T09:51:09.74</time>
<name>11317</name>
</trkpt>
<trkpt lat="49.179718" lon="11.828630">
<ele>608.9</ele>
<speed>0.1</speed>
<course>167.4</course>
<desc>Speed 0.1 km/h Distance 43.04 km</desc>
<time>2010-06-13T09:51:10.74</time>
<name>11318</name>
</trkpt>
<trkpt lat="49.179717" lon="11.828630">
<ele>608.8</ele>
<speed>0.1</speed>
<course>167.4</course>
<desc>Speed 0.1 km/h Distance 43.04 km</desc>
<time>2010-06-13T09:51:11.74</time>
<name>11319</name>
</trkpt>
<trkpt lat="49.179717" lon="11.828630">
<ele>608.7</ele>
<speed>0.1</speed>
<course>167.4</course>
<desc>Speed 0.1 km/h Distance 43.04 km</desc>
<time>2010-06-13T09:51:12.81</time>
<name>11320</name>
</trkpt>
<trkpt lat="49.179717" lon="11.828630">
<ele>608.6</ele>
<speed>0.1</speed>
<course>167.4</course>
<desc>Speed 0.1 km/h Distance 43.04 km</desc>
<time>2010-06-13T09:51:13.73</time>
<name>11321</name>
</trkpt>
<trkpt lat="49.179717" lon="11.828630">
<ele>608.5</ele>
<speed>0.1</speed>
<course>167.4</course>
<desc>Speed 0.1 km/h Distance 43.04 km</desc>
<time>2010-06-13T09:51:14.75</time>
<name>11322</name>
</trkpt>
<trkpt lat="49.179717" lon="11.828630">
<ele>608.4</ele>
<speed>0.1</speed>
<course>167.4</course>
<desc>Speed 0.1 km/h Distance 43.04 km</desc>
<time>2010-06-13T09:51:15.73</time>
<name>11323</name>
</trkpt>
<trkpt lat="49.179717" lon="11.828630">
<ele>608.2</ele>
<speed>0.1</speed>
<course>90.0</course>
<desc>Speed 0.1 km/h Distance 43.04 km</desc>
<time>2010-06-13T09:51:16.74</time>
<name>11324</name>
</trkpt>
<trkpt lat="49.179717" lon="11.828632">
<ele>608.1</ele>
<speed>0.5</speed>
<course>12.6</course>
<desc>Speed 0.5 km/h Distance 43.04 km</desc>
<time>2010-06-13T09:51:17.73</time>
<name>11325</name>
</trkpt>
<trkpt lat="49.179718" lon="11.828632">
<ele>608.0</ele>
<speed>0.1</speed>
<course>12.6</course>
<desc>Speed 0.1 km/h Distance 43.04 km</desc>
<time>2010-06-13T09:51:18.74</time>
<name>11326</name>
</trkpt>
<trkpt lat="49.179718" lon="11.828632">
<ele>607.8</ele>
<speed>0.1</speed>
<course>167.4</course>
<desc>Speed 0.1 km/h Distance 43.04 km</desc>
<time>2010-06-13T09:51:20.03</time>
<name>11327</name>
</trkpt>
<trkpt lat="49.179717" lon="11.828632">
<ele>607.8</ele>
<speed>0.0</speed>
<course>167.4</course>
<desc>Speed 0.0 km/h Distance 43.04 km</desc>
<time>2010-06-13T09:51:20.73</time>
<name>11328</name>
</trkpt>
<trkpt lat="49.179717" lon="11.828632">
<ele>607.7</ele>
<speed>0.1</speed>
<course>167.4</course>
<desc>Speed 0.1 km/h Distance 43.04 km</desc>
<time>2010-06-13T09:51:21.73</time>
<name>11329</name>
</trkpt>
<trkpt lat="49.179717" lon="11.828632">
<ele>607.5</ele>
<speed>0.1</speed>
<course>90.0</course>
<desc>Speed 0.1 km/h Distance 43.04 km</desc>
<time>2010-06-13T09:51:23.03</time>
<name>11330</name>
</trkpt>
<trkpt lat="49.179717" lon="11.828633">
<ele>607.3</ele>
<speed>0.2</speed>
<course>167.4</course>
<desc>Speed 0.2 km/h Distance 43.04 km</desc>
<time>2010-06-13T09:51:24.62</time>
<name>11331</name>
</trkpt>
<trkpt lat="49.179715" lon="11.828633">
<ele>607.0</ele>
<speed>0.1</speed>
<course>167.4</course>
<desc>Speed 0.1 km/h Distance 43.04 km</desc>
<time>2010-06-13T09:51:25.74</time>
<name>11332</name>
</trkpt>
<trkpt lat="49.179715" lon="11.828633">
<ele>606.9</ele>
<speed>0.1</speed>
<course>167.4</course>
<desc>Speed 0.1 km/h Distance 43.04 km</desc>
<time>2010-06-13T09:51:26.74</time>
<name>11333</name>
</trkpt>
<trkpt lat="49.179715" lon="11.828633">
<ele>606.7</ele>
<speed>0.1</speed>
<course>167.4</course>
<desc>Speed 0.1 km/h Distance 43.04 km</desc>
<time>2010-06-13T09:51:27.73</time>
<name>11334</name>
</trkpt>
<trkpt lat="49.179715" lon="11.828633">
<ele>606.6</ele>
<speed>0.1</speed>
<course>167.4</course>
<desc>Speed 0.1 km/h Distance 43.04 km</desc>
<time>2010-06-13T09:51:28.73</time>
<name>11335</name>
</trkpt>
<trkpt lat="49.179715" lon="11.828633">
<ele>606.4</ele>
<speed>0.2</speed>
<course>90.0</course>
<desc>Speed 0.2 km/h Distance 43.04 km</desc>
<time>2010-06-13T09:51:29.75</time>
<name>11336</name>
</trkpt>
<trkpt lat="49.179715" lon="11.828643">
<ele>604.7</ele>
<speed>0.2</speed>
<course>72.9</course>
<desc>Speed 0.2 km/h Distance 43.04 km</desc>
<time>2010-06-13T09:51:30.75</time>
<name>11337</name>
</trkpt>
<trkpt lat="49.179717" lon="11.828652">
<ele>603.2</ele>
<speed>0.2</speed>
<course>69.1</course>
<desc>Speed 0.2 km/h Distance 43.04 km</desc>
<time>2010-06-13T09:51:31.74</time>
<name>11338</name>
</trkpt>
<trkpt lat="49.179718" lon="11.828658">
<ele>602.0</ele>
<speed>0.2</speed>
<course>90.0</course>
<desc>Speed 0.2 km/h Distance 43.04 km</desc>
<time>2010-06-13T09:51:32.75</time>
<name>11339</name>
</trkpt>
<trkpt lat="49.179718" lon="11.828665">
<ele>600.9</ele>
<speed>0.2</speed>
<course>90.0</course>
<desc>Speed 0.2 km/h Distance 43.04 km</desc>
<time>2010-06-13T09:51:33.73</time>
<name>11340</name>
</trkpt>
<trkpt lat="49.179718" lon="11.828672">
<ele>599.7</ele>
<speed>0.3</speed>
<course>62.6</course>
<desc>Speed 0.3 km/h Distance 43.04 km</desc>
<time>2010-06-13T09:51:34.80</time>
<name>11341</name>
</trkpt>
<trkpt lat="49.179720" lon="11.828677">
<ele>598.9</ele>
<speed>0.2</speed>
<course>90.0</course>
<desc>Speed 0.2 km/h Distance 43.04 km</desc>
<time>2010-06-13T09:51:35.74</time>
<name>11342</name>
</trkpt>
<trkpt lat="49.179720" lon="11.828680">
<ele>598.1</ele>
<speed>0.2</speed>
<course>90.0</course>
<desc>Speed 0.2 km/h Distance 43.05 km</desc>
<time>2010-06-13T09:51:36.74</time>
<name>11343</name>
</trkpt>
<trkpt lat="49.179720" lon="11.828683">
<ele>597.4</ele>
<speed>0.2</speed>
<course>90.0</course>
<desc>Speed 0.2 km/h Distance 43.05 km</desc>
<time>2010-06-13T09:51:37.73</time>
<name>11344</name>
</trkpt>
<trkpt lat="49.179720" lon="11.828687">
<ele>596.7</ele>
<speed>0.2</speed>
<course>90.0</course>
<desc>Speed 0.2 km/h Distance 43.05 km</desc>
<time>2010-06-13T09:51:38.73</time>
<name>11345</name>
</trkpt>
<trkpt lat="49.179720" lon="11.828690">
<ele>596.2</ele>
<speed>0.2</speed>
<course>128.1</course>
<desc>Speed 0.2 km/h Distance 43.05 km</desc>
<time>2010-06-13T09:51:39.71</time>
<name>11346</name>
</trkpt>
<trkpt lat="49.179718" lon="11.828693">
<ele>595.7</ele>
<speed>0.2</speed>
<course>128.1</course>
<desc>Speed 0.2 km/h Distance 43.05 km</desc>
<time>2010-06-13T09:51:40.72</time>
<name>11347</name>
</trkpt>
<trkpt lat="49.179718" lon="11.828695">
<ele>595.3</ele>
<speed>0.2</speed>
<course>128.1</course>
<desc>Speed 0.2 km/h Distance 43.05 km</desc>
<time>2010-06-13T09:51:41.74</time>
<name>11348</name>
</trkpt>
<trkpt lat="49.179718" lon="11.828697">
<ele>594.9</ele>
<speed>0.2</speed>
<course>128.1</course>
<desc>Speed 0.2 km/h Distance 43.05 km</desc>
<time>2010-06-13T09:51:42.73</time>
<name>11349</name>
</trkpt>
<trkpt lat="49.179718" lon="11.828698">
<ele>594.5</ele>
<speed>0.1</speed>
<course>128.1</course>
<desc>Speed 0.1 km/h Distance 43.05 km</desc>
<time>2010-06-13T09:51:43.72</time>
<name>11350</name>
</trkpt>
<trkpt lat="49.179718" lon="11.828700">
<ele>594.2</ele>
<speed>0.2</speed>
<course>128.1</course>
<desc>Speed 0.2 km/h Distance 43.05 km</desc>
<time>2010-06-13T09:51:44.73</time>
<name>11351</name>
</trkpt>
<trkpt lat="49.179718" lon="11.828702">
<ele>593.9</ele>
<speed>0.1</speed>
<course>128.1</course>
<desc>Speed 0.1 km/h Distance 43.05 km</desc>
<time>2010-06-13T09:51:45.73</time>
<name>11352</name>
</trkpt>
<trkpt lat="49.179718" lon="11.828703">
<ele>593.6</ele>
<speed>0.2</speed>
<course>128.1</course>
<desc>Speed 0.2 km/h Distance 43.05 km</desc>
<time>2010-06-13T09:51:46.73</time>
<name>11353</name>
</trkpt>
<trkpt lat="49.179718" lon="11.828705">
<ele>593.4</ele>
<speed>0.1</speed>
<course>150.8</course>
<desc>Speed 0.1 km/h Distance 43.05 km</desc>
<time>2010-06-13T09:51:47.74</time>
<name>11354</name>
</trkpt>
<trkpt lat="49.179717" lon="11.828707">
<ele>593.2</ele>
<speed>0.1</speed>
<course>90.0</course>
<desc>Speed 0.1 km/h Distance 43.05 km</desc>
<time>2010-06-13T09:51:48.73</time>
<name>11355</name>
</trkpt>
<trkpt lat="49.179717" lon="11.828708">
<ele>593.0</ele>
<speed>0.3</speed>
<course>90.0</course>
<desc>Speed 0.3 km/h Distance 43.05 km</desc>
<time>2010-06-13T09:51:49.74</time>
<name>11356</name>
</trkpt>
<trkpt lat="49.179717" lon="11.828708">
<ele>592.8</ele>
<speed>0.1</speed>
<course>142.8</course>
<desc>Speed 0.1 km/h Distance 43.05 km</desc>
<time>2010-06-13T09:51:50.75</time>
<name>11357</name>
</trkpt>
<trkpt lat="49.179715" lon="11.828710">
<ele>592.7</ele>
<speed>0.2</speed>
<course>90.0</course>
<desc>Speed 0.2 km/h Distance 43.05 km</desc>
<time>2010-06-13T09:51:51.74</time>
<name>11358</name>
</trkpt>
<trkpt lat="49.179715" lon="11.828712">
<ele>592.5</ele>
<speed>0.2</speed>
<course>90.0</course>
<desc>Speed 0.2 km/h Distance 43.05 km</desc>
<time>2010-06-13T09:51:52.73</time>
<name>11359</name>
</trkpt>
<trkpt lat="49.179715" lon="11.828712">
<ele>592.5</ele>
<speed>0.1</speed>
<course>90.0</course>
<desc>Speed 0.1 km/h Distance 43.05 km</desc>
<time>2010-06-13T09:51:53.73</time>
<name>11360</name>
</trkpt>
<trkpt lat="49.179715" lon="11.828713">
<ele>592.4</ele>
<speed>0.1</speed>
<course>167.4</course>
<desc>Speed 0.1 km/h Distance 43.05 km</desc>
<time>2010-06-13T09:51:54.74</time>
<name>11361</name>
</trkpt>
<trkpt lat="49.179713" lon="11.828713">
<ele>592.3</ele>
<speed>0.1</speed>
<course>167.4</course>
<desc>Speed 0.1 km/h Distance 43.05 km</desc>
<time>2010-06-13T09:51:55.74</time>
<name>11362</name>
</trkpt>
<trkpt lat="49.179713" lon="11.828713">
<ele>592.3</ele>
<speed>0.1</speed>
<course>90.0</course>
<desc>Speed 0.1 km/h Distance 43.05 km</desc>
<time>2010-06-13T09:51:56.74</time>
<name>11363</name>
</trkpt>
<trkpt lat="49.179713" lon="11.828715">
<ele>592.2</ele>
<speed>0.2</speed>
<course>167.4</course>
<desc>Speed 0.2 km/h Distance 43.05 km</desc>
<time>2010-06-13T09:51:57.73</time>
<name>11364</name>
</trkpt>
<trkpt lat="49.179712" lon="11.828715">
<ele>592.1</ele>
<speed>0.2</speed>
<course>167.4</course>
<desc>Speed 0.2 km/h Distance 43.05 km</desc>
<time>2010-06-13T09:51:58.75</time>
<name>11365</name>
</trkpt>
<trkpt lat="49.179712" lon="11.828715">
<ele>592.1</ele>
<speed>0.2</speed>
<course>90.0</course>
<desc>Speed 0.2 km/h Distance 43.05 km</desc>
<time>2010-06-13T09:51:59.84</time>
<name>11366</name>
</trkpt>
<trkpt lat="49.179712" lon="11.828717">
<ele>592.1</ele>
<speed>0.2</speed>
<course>90.0</course>
<desc>Speed 0.2 km/h Distance 43.05 km</desc>
<time>2010-06-13T09:52:00.73</time>
<name>11367</name>
</trkpt>
<trkpt lat="49.179712" lon="11.828717">
<ele>592.1</ele>
<speed>0.1</speed>
<course>90.0</course>
<desc>Speed 0.1 km/h Distance 43.05 km</desc>
<time>2010-06-13T09:52:01.73</time>
<name>11368</name>
</trkpt>
<trkpt lat="49.179712" lon="11.828717">
<ele>592.1</ele>
<speed>0.2</speed>
<course>167.4</course>
<desc>Speed 0.2 km/h Distance 43.05 km</desc>
<time>2010-06-13T09:52:02.73</time>
<name>11369</name>
</trkpt>
<trkpt lat="49.179710" lon="11.828717">
<ele>592.1</ele>
<speed>0.1</speed>
<course>167.4</course>
<desc>Speed 0.1 km/h Distance 43.05 km</desc>
<time>2010-06-13T09:52:03.74</time>
<name>11370</name>
</trkpt>
<trkpt lat="49.179710" lon="11.828717">
<ele>592.1</ele>
<speed>0.1</speed>
<course>167.4</course>
<desc>Speed 0.1 km/h Distance 43.05 km</desc>
<time>2010-06-13T09:52:04.74</time>
<name>11371</name>
</trkpt>
<trkpt lat="49.179710" lon="11.828717">
<ele>592.1</ele>
<speed>0.1</speed>
<course>167.4</course>
<desc>Speed 0.1 km/h Distance 43.05 km</desc>
<time>2010-06-13T09:52:05.73</time>
<name>11372</name>
</trkpt>
<trkpt lat="49.179710" lon="11.828717">
<ele>592.1</ele>
<speed>0.1</speed>
<course>167.4</course>
<desc>Speed 0.1 km/h Distance 43.05 km</desc>
<time>2010-06-13T09:52:07.62</time>
<name>11373</name>
</trkpt>
<trkpt lat="49.179710" lon="11.828717">
<ele>592.1</ele>
<speed>0.1</speed>
<course>167.4</course>
<desc>Speed 0.1 km/h Distance 43.05 km</desc>
<time>2010-06-13T09:52:07.64</time>
<name>11374</name>
</trkpt>
<trkpt lat="49.179708" lon="11.828717">
<ele>592.0</ele>
<speed>0.3</speed>
<course>167.4</course>
<desc>Speed 0.3 km/h Distance 43.05 km</desc>
<time>2010-06-13T09:52:08.73</time>
<name>11375</name>
</trkpt>
<trkpt lat="49.179708" lon="11.828717">
<ele>592.0</ele>
<speed>0.1</speed>
<course>167.4</course>
<desc>Speed 0.1 km/h Distance 43.05 km</desc>
<time>2010-06-13T09:52:09.74</time>
<name>11376</name>
</trkpt>
<trkpt lat="49.179708" lon="11.828717">
<ele>592.0</ele>
<speed>0.2</speed>
<course>341.0</course>
<desc>Speed 0.2 km/h Distance 43.05 km</desc>
<time>2010-06-13T09:52:10.76</time>
<name>11377</name>
</trkpt>
<trkpt lat="49.179772" lon="11.828683">
<ele>605.5</ele>
<speed>0.1</speed>
<course>90.0</course>
<desc>Speed 0.1 km/h Distance 43.05 km</desc>
<time>2010-06-13T09:52:17.26</time>
<name>11378</name>
</trkpt>
<trkpt lat="49.179772" lon="11.828687">
<ele>605.1</ele>
<speed>0.1</speed>
<course>90.0</course>
<desc>Speed 0.1 km/h Distance 43.05 km</desc>
<time>2010-06-13T09:52:18.09</time>
<name>11379</name>
</trkpt>
<trkpt lat="49.179772" lon="11.828688">
<ele>605.0</ele>
<speed>1.1</speed>
<course>167.4</course>
<desc>Speed 1.1 km/h Distance 43.05 km</desc>
<time>2010-06-13T09:52:19.09</time>
<name>11380</name>
</trkpt>
<trkpt lat="49.179770" lon="11.828688">
<ele>604.7</ele>
<speed>0.2</speed>
<course>167.4</course>
<desc>Speed 0.2 km/h Distance 43.05 km</desc>
<time>2010-06-13T09:52:20.38</time>
<name>11381</name>
</trkpt>
<trkpt lat="49.179770" lon="11.828688">
<ele>604.5</ele>
<speed>0.1</speed>
<course>142.8</course>
<desc>Speed 0.1 km/h Distance 43.05 km</desc>
<time>2010-06-13T09:52:21.09</time>
<name>11382</name>
</trkpt>
<trkpt lat="49.179768" lon="11.828690">
<ele>604.2</ele>
<speed>0.3</speed>
<course>171.9</course>
<desc>Speed 0.3 km/h Distance 43.05 km</desc>
<time>2010-06-13T09:52:22.09</time>
<name>11383</name>
</trkpt>
<trkpt lat="49.179763" lon="11.828690">
<ele>604.2</ele>
<speed>0.3</speed>
<course>175.0</course>
<desc>Speed 0.3 km/h Distance 43.05 km</desc>
<time>2010-06-13T09:52:23.38</time>
<name>11384</name>
</trkpt>
<trkpt lat="49.179755" lon="11.828690">
<ele>603.3</ele>
<speed>0.1</speed>
<course>167.4</course>
<desc>Speed 0.1 km/h Distance 43.05 km</desc>
<time>2010-06-13T09:52:24.11</time>
<name>11385</name>
</trkpt>
<trkpt lat="49.179753" lon="11.828690">
<ele>603.1</ele>
<speed>0.4</speed>
<course>189.5</course>
<desc>Speed 0.4 km/h Distance 43.05 km</desc>
<time>2010-06-13T09:52:25.11</time>
<name>11386</name>
</trkpt>
<trkpt lat="49.179742" lon="11.828687">
<ele>602.1</ele>
<speed>0.5</speed>
<course>198.2</course>
<desc>Speed 0.5 km/h Distance 43.05 km</desc>
<time>2010-06-13T09:52:26.39</time>
<name>11387</name>
</trkpt>
<trkpt lat="49.179732" lon="11.828682">
<ele>601.0</ele>
<speed>0.2</speed>
<course>270.0</course>
<desc>Speed 0.2 km/h Distance 43.05 km</desc>
<time>2010-06-13T09:52:28.11</time>
<name>11388</name>
</trkpt>
<trkpt lat="49.179732" lon="11.828680">
<ele>600.4</ele>
<speed>0.3</speed>
<course>90.0</course>
<desc>Speed 0.3 km/h Distance 43.05 km</desc>
<time>2010-06-13T09:52:29.23</time>
<name>11389</name>
</trkpt>
<trkpt lat="49.179732" lon="11.828682">
<ele>600.2</ele>
<speed>0.6</speed>
<course>167.4</course>
<desc>Speed 0.6 km/h Distance 43.05 km</desc>
<time>2010-06-13T09:52:30.11</time>
<name>11390</name>
</trkpt>
<trkpt lat="49.179730" lon="11.828682">
<ele>600.2</ele>
<speed>0.3</speed>
<course>192.6</course>
<desc>Speed 0.3 km/h Distance 43.05 km</desc>
<time>2010-06-13T09:52:31.11</time>
<name>11391</name>
</trkpt>
<trkpt lat="49.179727" lon="11.828680">
<ele>600.2</ele>
<speed>0.4</speed>
<course>167.4</course>
<desc>Speed 0.4 km/h Distance 43.05 km</desc>
<time>2010-06-13T09:52:32.39</time>
<name>11392</name>
</trkpt>
<trkpt lat="49.179725" lon="11.828680">
<ele>600.2</ele>
<speed>0.3</speed>
<course>180.0</course>
<desc>Speed 0.3 km/h Distance 43.05 km</desc>
<time>2010-06-13T09:52:33.11</time>
<name>11393</name>
</trkpt>
<trkpt lat="49.179720" lon="11.828680">
<ele>600.1</ele>
<speed>1.0</speed>
<course>180.0</course>
<desc>Speed 1.0 km/h Distance 43.06 km</desc>
<time>2010-06-13T09:52:34.11</time>
<name>11394</name>
</trkpt>
<trkpt lat="49.179715" lon="11.828680">
<ele>600.0</ele>
<speed>0.9</speed>
<course>180.0</course>
<desc>Speed 0.9 km/h Distance 43.06 km</desc>
<time>2010-06-13T09:52:35.39</time>
<name>11395</name>
</trkpt>
<trkpt lat="49.179712" lon="11.828680">
<ele>600.0</ele>
<speed>0.1</speed>
<course>180.0</course>
<desc>Speed 0.1 km/h Distance 43.06 km</desc>
<time>2010-06-13T09:52:36.11</time>
<name>11396</name>
</trkpt>
<trkpt lat="49.179707" lon="11.828680">
<ele>599.9</ele>
<speed>0.6</speed>
<course>171.9</course>
<desc>Speed 0.6 km/h Distance 43.06 km</desc>
<time>2010-06-13T09:52:37.11</time>
<name>11397</name>
</trkpt>
<trkpt lat="49.179702" lon="11.828680">
<ele>599.9</ele>
<speed>0.5</speed>
<course>167.4</course>
<desc>Speed 0.5 km/h Distance 43.06 km</desc>
<time>2010-06-13T09:52:38.40</time>
<name>11398</name>
</trkpt>
<trkpt lat="49.179700" lon="11.828680">
<ele>600.0</ele>
<speed>0.2</speed>
<course>180.0</course>
<desc>Speed 0.2 km/h Distance 43.06 km</desc>
<time>2010-06-13T09:52:39.11</time>
<name>11399</name>
</trkpt>
<trkpt lat="49.179697" lon="11.828680">
<ele>600.1</ele>
<speed>0.4</speed>
<course>180.0</course>
<desc>Speed 0.4 km/h Distance 43.06 km</desc>
<time>2010-06-13T09:52:40.11</time>
<name>11400</name>
</trkpt>
<trkpt lat="49.179693" lon="11.828680">
<ele>600.2</ele>
<speed>0.3</speed>
<course>180.0</course>
<desc>Speed 0.3 km/h Distance 43.06 km</desc>
<time>2010-06-13T09:52:41.39</time>
<name>11401</name>
</trkpt>
<trkpt lat="49.179688" lon="11.828680">
<ele>600.3</ele>
<speed>0.6</speed>
<course>192.6</course>
<desc>Speed 0.6 km/h Distance 43.06 km</desc>
<time>2010-06-13T09:52:42.11</time>
<name>11402</name>
</trkpt>
<trkpt lat="49.179687" lon="11.828678">
<ele>600.5</ele>
<speed>0.1</speed>
<course>198.8</course>
<desc>Speed 0.1 km/h Distance 43.06 km</desc>
<time>2010-06-13T09:52:43.11</time>
<name>11403</name>
</trkpt>
<trkpt lat="49.179680" lon="11.828675">
<ele>600.2</ele>
<speed>0.8</speed>
<course>192.6</course>
<desc>Speed 0.8 km/h Distance 43.06 km</desc>
<time>2010-06-13T09:52:44.40</time>
<name>11404</name>
</trkpt>
<trkpt lat="49.179675" lon="11.828673">
<ele>599.9</ele>
<speed>0.6</speed>
<course>192.6</course>
<desc>Speed 0.6 km/h Distance 43.06 km</desc>
<time>2010-06-13T09:52:45.11</time>
<name>11405</name>
</trkpt>
<trkpt lat="49.179672" lon="11.828672">
<ele>599.6</ele>
<speed>0.0</speed>
<course>315.5</course>
<desc>Speed 0.0 km/h Distance 43.06 km</desc>
<time>2010-06-13T09:52:46.11</time>
<name>11406</name>
</trkpt>
<trkpt lat="49.179675" lon="11.828667">
<ele>600.5</ele>
<speed>0.1</speed>
<course>315.5</course>
<desc>Speed 0.1 km/h Distance 43.06 km</desc>
<time>2010-06-13T09:52:47.40</time>
<name>11407</name>
</trkpt>
<trkpt lat="49.179675" lon="11.828667">
<ele>600.7</ele>
<speed>0.3</speed>
<course>213.7</course>
<desc>Speed 0.3 km/h Distance 43.06 km</desc>
<time>2010-06-13T09:52:48.11</time>
<name>11408</name>
</trkpt>
<trkpt lat="49.179672" lon="11.828663">
<ele>600.5</ele>
<speed>0.5</speed>
<course>242.6</course>
<desc>Speed 0.5 km/h Distance 43.06 km</desc>
<time>2010-06-13T09:52:49.13</time>
<name>11409</name>
</trkpt>
<trkpt lat="49.179670" lon="11.828658">
<ele>601.0</ele>
<speed>0.3</speed>
<course>248.7</course>
<desc>Speed 0.3 km/h Distance 43.06 km</desc>
<time>2010-06-13T09:52:50.11</time>
<name>11410</name>
</trkpt>
<trkpt lat="49.179668" lon="11.828652">
<ele>602.2</ele>
<speed>0.2</speed>
<course>248.7</course>
<desc>Speed 0.2 km/h Distance 43.06 km</desc>
<time>2010-06-13T09:52:51.11</time>
<name>11411</name>
</trkpt>
<trkpt lat="49.179668" lon="11.828652">
<ele>602.9</ele>
<speed>0.4</speed>
<course>248.7</course>
<desc>Speed 0.4 km/h Distance 43.06 km</desc>
<time>2010-06-13T09:52:52.11</time>
<name>11412</name>
</trkpt>
<trkpt lat="49.179668" lon="11.828652">
<ele>602.9</ele>
<speed>0.4</speed>
<course>192.6</course>
<desc>Speed 0.4 km/h Distance 43.06 km</desc>
<time>2010-06-13T09:52:53.11</time>
<name>11413</name>
</trkpt>
<trkpt lat="49.179665" lon="11.828650">
<ele>602.8</ele>
<speed>0.3</speed>
<course>192.6</course>
<desc>Speed 0.3 km/h Distance 43.06 km</desc>
<time>2010-06-13T09:52:54.11</time>
<name>11414</name>
</trkpt>
<trkpt lat="49.179662" lon="11.828648">
<ele>602.4</ele>
<speed>0.4</speed>
<course>198.8</course>
<desc>Speed 0.4 km/h Distance 43.06 km</desc>
<time>2010-06-13T09:52:55.11</time>
<name>11415</name>
</trkpt>
<trkpt lat="49.179658" lon="11.828647">
<ele>602.0</ele>
<speed>0.3</speed>
<course>192.6</course>
<desc>Speed 0.3 km/h Distance 43.06 km</desc>
<time>2010-06-13T09:52:56.11</time>
<name>11416</name>
</trkpt>
<trkpt lat="49.179653" lon="11.828645">
<ele>601.5</ele>
<speed>0.5</speed>
<course>167.4</course>
<desc>Speed 0.5 km/h Distance 43.06 km</desc>
<time>2010-06-13T09:52:57.11</time>
<name>11417</name>
</trkpt>
<trkpt lat="49.179652" lon="11.828645">
<ele>601.2</ele>
<speed>0.2</speed>
<course>213.7</course>
<desc>Speed 0.2 km/h Distance 43.06 km</desc>
<time>2010-06-13T09:52:58.11</time>
<name>11418</name>
</trkpt>
<trkpt lat="49.179648" lon="11.828642">
<ele>601.4</ele>
<speed>0.4</speed>
<course>213.7</course>
<desc>Speed 0.4 km/h Distance 43.06 km</desc>
<time>2010-06-13T09:52:59.11</time>
<name>11419</name>
</trkpt>
<trkpt lat="49.179645" lon="11.828638">
<ele>602.0</ele>
<speed>0.8</speed>
<course>231.9</course>
<desc>Speed 0.8 km/h Distance 43.07 km</desc>
<time>2010-06-13T09:53:00.11</time>
<name>11420</name>
</trkpt>
<trkpt lat="49.179643" lon="11.828635">
<ele>602.5</ele>
<speed>0.2</speed>
<course>192.6</course>
<desc>Speed 0.2 km/h Distance 43.07 km</desc>
<time>2010-06-13T09:53:01.11</time>
<name>11421</name>
</trkpt>
<trkpt lat="49.179642" lon="11.828633">
<ele>602.7</ele>
<speed>0.1</speed>
<course>209.2</course>
<desc>Speed 0.1 km/h Distance 43.07 km</desc>
<time>2010-06-13T09:53:02.11</time>
<name>11422</name>
</trkpt>
<trkpt lat="49.179640" lon="11.828632">
<ele>602.9</ele>
<speed>0.1</speed>
<course>209.2</course>
<desc>Speed 0.1 km/h Distance 43.07 km</desc>
<time>2010-06-13T09:53:03.11</time>
<name>11423</name>
</trkpt>
<trkpt lat="49.179638" lon="11.828630">
<ele>603.3</ele>
<speed>0.2</speed>
<course>167.4</course>
<desc>Speed 0.2 km/h Distance 43.07 km</desc>
<time>2010-06-13T09:53:04.11</time>
<name>11424</name>
</trkpt>
<trkpt lat="49.179637" lon="11.828630">
<ele>603.4</ele>
<speed>0.1</speed>
<course>306.1</course>
<desc>Speed 0.1 km/h Distance 43.07 km</desc>
<time>2010-06-13T09:53:05.11</time>
<name>11425</name>
</trkpt>
<trkpt lat="49.179638" lon="11.828627">
<ele>603.6</ele>
<speed>0.6</speed>
<course>306.1</course>
<desc>Speed 0.6 km/h Distance 43.07 km</desc>
<time>2010-06-13T09:53:06.11</time>
<name>11426</name>
</trkpt>
<trkpt lat="49.179638" lon="11.828627">
<ele>603.6</ele>
<speed>0.3</speed>
<course>51.9</course>
<desc>Speed 0.3 km/h Distance 43.07 km</desc>
<time>2010-06-13T09:53:07.11</time>
<name>11427</name>
</trkpt>
<trkpt lat="49.179640" lon="11.828630">
<ele>603.9</ele>
<speed>1.0</speed>
<course>51.9</course>
<desc>Speed 1.0 km/h Distance 43.07 km</desc>
<time>2010-06-13T09:53:08.11</time>
<name>11428</name>
</trkpt>
<trkpt lat="49.179640" lon="11.828630">
<ele>604.0</ele>
<speed>0.4</speed>
<course>51.9</course>
<desc>Speed 0.4 km/h Distance 43.07 km</desc>
<time>2010-06-13T09:53:09.11</time>
<name>11429</name>
</trkpt>
<trkpt lat="49.179640" lon="11.828630">
<ele>604.3</ele>
<speed>0.1</speed>
<course>90.0</course>
<desc>Speed 0.1 km/h Distance 43.07 km</desc>
<time>2010-06-13T09:53:10.11</time>
<name>11430</name>
</trkpt>
<trkpt lat="49.179640" lon="11.828632">
<ele>604.6</ele>
<speed>0.2</speed>
<course>90.0</course>
<desc>Speed 0.2 km/h Distance 43.07 km</desc>
<time>2010-06-13T09:53:11.11</time>
<name>11431</name>
</trkpt>
<trkpt lat="49.179640" lon="11.828632">
<ele>604.7</ele>
<speed>0.2</speed>
<course>90.0</course>
<desc>Speed 0.2 km/h Distance 43.07 km</desc>
<time>2010-06-13T09:53:12.11</time>
<name>11432</name>
</trkpt>
<trkpt lat="49.179640" lon="11.828633">
<ele>604.7</ele>
<speed>0.1</speed>
<course>90.0</course>
<desc>Speed 0.1 km/h Distance 43.07 km</desc>
<time>2010-06-13T09:53:13.11</time>
<name>11433</name>
</trkpt>
<trkpt lat="49.179640" lon="11.828633">
<ele>604.6</ele>
<speed>0.4</speed>
<course>354.7</course>
<desc>Speed 0.4 km/h Distance 43.07 km</desc>
<time>2010-06-13T09:53:14.11</time>
<name>11434</name>
</trkpt>
<trkpt lat="49.179653" lon="11.828632">
<ele>605.6</ele>
<speed>0.3</speed>
<course>326.8</course>
<desc>Speed 0.3 km/h Distance 43.07 km</desc>
<time>2010-06-13T09:53:15.11</time>
<name>11435</name>
</trkpt>
<trkpt lat="49.179658" lon="11.828627">
<ele>604.7</ele>
<speed>0.3</speed>
<course>18.8</course>
<desc>Speed 0.3 km/h Distance 43.07 km</desc>
<time>2010-06-13T09:53:16.11</time>
<name>11436</name>
</trkpt>
<trkpt lat="49.179665" lon="11.828630">
<ele>605.0</ele>
<speed>0.5</speed>
<course>8.1</course>
<desc>Speed 0.5 km/h Distance 43.07 km</desc>
<time>2010-06-13T09:53:17.11</time>
<name>11437</name>
</trkpt>
<trkpt lat="49.179670" lon="11.828632">
<ele>605.3</ele>
<speed>0.3</speed>
<course>8.1</course>
<desc>Speed 0.3 km/h Distance 43.07 km</desc>
<time>2010-06-13T09:53:18.11</time>
<name>11438</name>
</trkpt>
<trkpt lat="49.179675" lon="11.828633">
<ele>605.6</ele>
<speed>0.1</speed>
<course>12.6</course>
<desc>Speed 0.1 km/h Distance 43.07 km</desc>
<time>2010-06-13T09:53:19.11</time>
<name>11439</name>
</trkpt>
<trkpt lat="49.179680" lon="11.828635">
<ele>605.8</ele>
<speed>0.1</speed>
<course>23.0</course>
<desc>Speed 0.1 km/h Distance 43.07 km</desc>
<time>2010-06-13T09:53:20.11</time>
<name>11440</name>
</trkpt>
<trkpt lat="49.179683" lon="11.828637">
<ele>605.8</ele>
<speed>0.4</speed>
<course>0.0</course>
<desc>Speed 0.4 km/h Distance 43.07 km</desc>
<time>2010-06-13T09:53:21.11</time>
<name>11441</name>
</trkpt>
<trkpt lat="49.179688" lon="11.828637">
<ele>605.8</ele>
<speed>0.2</speed>
<course>29.2</course>
<desc>Speed 0.2 km/h Distance 43.07 km</desc>
<time>2010-06-13T09:53:22.11</time>
<name>11442</name>
</trkpt>
<trkpt lat="49.179690" lon="11.828638">
<ele>605.8</ele>
<speed>0.1</speed>
<course>12.6</course>
<desc>Speed 0.1 km/h Distance 43.07 km</desc>
<time>2010-06-13T09:53:23.11</time>
<name>11443</name>
</trkpt>
<trkpt lat="49.179693" lon="11.828640">
<ele>605.8</ele>
<speed>0.2</speed>
<course>0.0</course>
<desc>Speed 0.2 km/h Distance 43.07 km</desc>
<time>2010-06-13T09:53:24.11</time>
<name>11444</name>
</trkpt>
<trkpt lat="49.179695" lon="11.828640">
<ele>605.9</ele>
<speed>0.4</speed>
<course>12.6</course>
<desc>Speed 0.4 km/h Distance 43.07 km</desc>
<time>2010-06-13T09:53:25.11</time>
<name>11445</name>
</trkpt>
<trkpt lat="49.179698" lon="11.828642">
<ele>605.9</ele>
<speed>0.2</speed>
<course>18.8</course>
<desc>Speed 0.2 km/h Distance 43.07 km</desc>
<time>2010-06-13T09:53:26.11</time>
<name>11446</name>
</trkpt>
<trkpt lat="49.179702" lon="11.828643">
<ele>605.8</ele>
<speed>0.2</speed>
<course>37.2</course>
<desc>Speed 0.2 km/h Distance 43.07 km</desc>
<time>2010-06-13T09:53:27.11</time>
<name>11447</name>
</trkpt>
<trkpt lat="49.179703" lon="11.828645">
<ele>605.7</ele>
<speed>0.2</speed>
<course>22.2</course>
<desc>Speed 0.2 km/h Distance 43.07 km</desc>
<time>2010-06-13T09:53:28.11</time>
<name>11448</name>
</trkpt>
<trkpt lat="49.179708" lon="11.828648">
<ele>605.5</ele>
<speed>0.1</speed>
<course>8.1</course>
<desc>Speed 0.1 km/h Distance 43.08 km</desc>
<time>2010-06-13T09:53:29.11</time>
<name>11449</name>
</trkpt>
<trkpt lat="49.179713" lon="11.828648">
<ele>605.5</ele>
<speed>0.4</speed>
<course>33.7</course>
<desc>Speed 0.4 km/h Distance 43.08 km</desc>
<time>2010-06-13T09:53:30.11</time>
<name>11450</name>
</trkpt>
<trkpt lat="49.179717" lon="11.828652">
<ele>605.4</ele>
<speed>0.6</speed>
<course>12.6</course>
<desc>Speed 0.6 km/h Distance 43.08 km</desc>
<time>2010-06-13T09:53:31.11</time>
<name>11451</name>
</trkpt>
<trkpt lat="49.179722" lon="11.828653">
<ele>605.2</ele>
<speed>0.9</speed>
<course>23.0</course>
<desc>Speed 0.9 km/h Distance 43.08 km</desc>
<time>2010-06-13T09:53:32.11</time>
<name>11452</name>
</trkpt>
<trkpt lat="49.179725" lon="11.828655">
<ele>605.2</ele>
<speed>0.2</speed>
<course>12.6</course>
<desc>Speed 0.2 km/h Distance 43.08 km</desc>
<time>2010-06-13T09:53:33.11</time>
<name>11453</name>
</trkpt>
<trkpt lat="49.179728" lon="11.828655">
<ele>605.2</ele>
<speed>0.1</speed>
<course>31.6</course>
<desc>Speed 0.1 km/h Distance 43.08 km</desc>
<time>2010-06-13T09:53:34.11</time>
<name>11454</name>
</trkpt>
<trkpt lat="49.179732" lon="11.828658">
<ele>605.0</ele>
<speed>0.6</speed>
<course>12.6</course>
<desc>Speed 0.6 km/h Distance 43.08 km</desc>
<time>2010-06-13T09:53:35.11</time>
<name>11455</name>
</trkpt>
<trkpt lat="49.179735" lon="11.828658">
<ele>605.1</ele>
<speed>0.0</speed>
<course>33.7</course>
<desc>Speed 0.0 km/h Distance 43.08 km</desc>
<time>2010-06-13T09:53:36.11</time>
<name>11456</name>
</trkpt>
<trkpt lat="49.179738" lon="11.828662">
<ele>605.0</ele>
<speed>0.2</speed>
<course>29.2</course>
<desc>Speed 0.2 km/h Distance 43.08 km</desc>
<time>2010-06-13T09:53:37.11</time>
<name>11457</name>
</trkpt>
<trkpt lat="49.179740" lon="11.828663">
<ele>604.9</ele>
<speed>0.4</speed>
<course>0.0</course>
<desc>Speed 0.4 km/h Distance 43.08 km</desc>
<time>2010-06-13T09:53:38.11</time>
<name>11458</name>
</trkpt>
<trkpt lat="49.179742" lon="11.828663">
<ele>604.8</ele>
<speed>0.2</speed>
<course>0.0</course>
<desc>Speed 0.2 km/h Distance 43.08 km</desc>
<time>2010-06-13T09:53:39.11</time>
<name>11459</name>
</trkpt>
<trkpt lat="49.179742" lon="11.828663">
<ele>605.1</ele>
<speed>0.4</speed>
<course>192.6</course>
<desc>Speed 0.4 km/h Distance 43.08 km</desc>
<time>2010-06-13T09:53:40.11</time>
<name>11460</name>
</trkpt>
<trkpt lat="49.179738" lon="11.828662">
<ele>605.7</ele>
<speed>0.4</speed>
<course>231.9</course>
<desc>Speed 0.4 km/h Distance 43.08 km</desc>
<time>2010-06-13T09:53:41.11</time>
<name>11461</name>
</trkpt>
<trkpt lat="49.179737" lon="11.828658">
<ele>605.5</ele>
<speed>1.3</speed>
<course>167.4</course>
<desc>Speed 1.3 km/h Distance 43.08 km</desc>
<time>2010-06-13T09:53:42.11</time>
<name>11462</name>
</trkpt>
<trkpt lat="49.179735" lon="11.828658">
<ele>605.2</ele>
<speed>1.0</speed>
<course>180.0</course>
<desc>Speed 1.0 km/h Distance 43.08 km</desc>
<time>2010-06-13T09:53:43.11</time>
<name>11463</name>
</trkpt>
<trkpt lat="49.179727" lon="11.828658">
<ele>605.7</ele>
<speed>0.8</speed>
<course>162.5</course>
<desc>Speed 0.8 km/h Distance 43.08 km</desc>
<time>2010-06-13T09:53:44.11</time>
<name>11464</name>
</trkpt>
<trkpt lat="49.179720" lon="11.828662">
<ele>606.3</ele>
<speed>0.5</speed>
<course>43.5</course>
<desc>Speed 0.5 km/h Distance 43.08 km</desc>
<time>2010-06-13T09:53:45.11</time>
<name>11465</name>
</trkpt>
<trkpt lat="49.179723" lon="11.828667">
<ele>606.4</ele>
<speed>1.3</speed>
<course>52.4</course>
<desc>Speed 1.3 km/h Distance 43.08 km</desc>
<time>2010-06-13T09:53:46.11</time>
<name>11466</name>
</trkpt>
<trkpt lat="49.179727" lon="11.828673">
<ele>606.3</ele>
<speed>1.4</speed>
<course>52.4</course>
<desc>Speed 1.4 km/h Distance 43.08 km</desc>
<time>2010-06-13T09:53:47.11</time>
<name>11467</name>
</trkpt>
<trkpt lat="49.179727" lon="11.828672">
<ele>606.0</ele>
<speed>1.2</speed>
<course>280.2</course>
<desc>Speed 1.2 km/h Distance 43.08 km</desc>
<time>2010-06-13T09:53:48.11</time>
<name>11468</name>
</trkpt>
<trkpt lat="49.179730" lon="11.828643">
<ele>606.2</ele>
<speed>6.5</speed>
<course>288.8</course>
<desc>Speed 6.5 km/h Distance 43.09 km</desc>
<time>2010-06-13T09:53:49.11</time>
<name>11469</name>
</trkpt>
<trkpt lat="49.179737" lon="11.828613">
<ele>604.8</ele>
<speed>9.7</speed>
<course>314.2</course>
<desc>Speed 9.7 km/h Distance 43.09 km</desc>
<time>2010-06-13T09:53:50.11</time>
<name>11470</name>
</trkpt>
<trkpt lat="49.179760" lon="11.828577">
<ele>602.6</ele>
<speed>13.9</speed>
<course>317.1</course>
<desc>Speed 13.9 km/h Distance 43.09 km</desc>
<time>2010-06-13T09:53:51.11</time>
<name>11471</name>
</trkpt>
<trkpt lat="49.179792" lon="11.828532">
<ele>601.4</ele>
<speed>16.8</speed>
<course>311.2</course>
<desc>Speed 16.8 km/h Distance 43.10 km</desc>
<time>2010-06-13T09:53:52.11</time>
<name>11472</name>
</trkpt>
<trkpt lat="49.179825" lon="11.828473">
<ele>599.7</ele>
<speed>20.8</speed>
<course>303.6</course>
<desc>Speed 20.8 km/h Distance 43.10 km</desc>
<time>2010-06-13T09:53:53.11</time>
<name>11473</name>
</trkpt>
<trkpt lat="49.179858" lon="11.828397">
<ele>598.4</ele>
<speed>23.5</speed>
<course>304.4</course>
<desc>Speed 23.5 km/h Distance 43.11 km</desc>
<time>2010-06-13T09:53:54.11</time>
<name>11474</name>
</trkpt>
<trkpt lat="49.179893" lon="11.828318">
<ele>597.1</ele>
<speed>25.4</speed>
<course>302.2</course>
<desc>Speed 25.4 km/h Distance 43.12 km</desc>
<time>2010-06-13T09:53:55.11</time>
<name>11475</name>
</trkpt>
<trkpt lat="49.179928" lon="11.828233">
<ele>595.7</ele>
<speed>27.5</speed>
<course>305.3</course>
<desc>Speed 27.5 km/h Distance 43.12 km</desc>
<time>2010-06-13T09:53:56.11</time>
<name>11476</name>
</trkpt>
<trkpt lat="49.179970" lon="11.828143">
<ele>593.7</ele>
<speed>31.2</speed>
<course>303.4</course>
<desc>Speed 31.2 km/h Distance 43.13 km</desc>
<time>2010-06-13T09:53:57.11</time>
<name>11477</name>
</trkpt>
<trkpt lat="49.180017" lon="11.828035">
<ele>593.1</ele>
<speed>33.5</speed>
<course>304.5</course>
<desc>Speed 33.5 km/h Distance 43.14 km</desc>
<time>2010-06-13T09:53:58.11</time>
<name>11478</name>
</trkpt>
<trkpt lat="49.180068" lon="11.827920">
<ele>592.5</ele>
<speed>36.0</speed>
<course>305.0</course>
<desc>Speed 36.0 km/h Distance 43.15 km</desc>
<time>2010-06-13T09:53:59.11</time>
<name>11479</name>
</trkpt>
<trkpt lat="49.180122" lon="11.827803">
<ele>591.7</ele>
<speed>36.8</speed>
<course>306.2</course>
<desc>Speed 36.8 km/h Distance 43.16 km</desc>
<time>2010-06-13T09:54:00.13</time>
<name>11480</name>
</trkpt>
<trkpt lat="49.180177" lon="11.827688">
<ele>590.5</ele>
<speed>36.3</speed>
<course>304.4</course>
<desc>Speed 36.3 km/h Distance 43.17 km</desc>
<time>2010-06-13T09:54:01.13</time>
<name>11481</name>
</trkpt>
<trkpt lat="49.180227" lon="11.827577">
<ele>589.4</ele>
<speed>34.8</speed>
<course>305.2</course>
<desc>Speed 34.8 km/h Distance 43.18 km</desc>
<time>2010-06-13T09:54:02.13</time>
<name>11482</name>
</trkpt>
<trkpt lat="49.180277" lon="11.827468">
<ele>588.3</ele>
<speed>34.5</speed>
<course>304.3</course>
<desc>Speed 34.5 km/h Distance 43.19 km</desc>
<time>2010-06-13T09:54:03.13</time>
<name>11483</name>
</trkpt>
<trkpt lat="49.180325" lon="11.827360">
<ele>587.0</ele>
<speed>33.7</speed>
<course>303.7</course>
<desc>Speed 33.7 km/h Distance 43.20 km</desc>
<time>2010-06-13T09:54:04.13</time>
<name>11484</name>
</trkpt>
<trkpt lat="49.180370" lon="11.827257">
<ele>586.0</ele>
<speed>32.8</speed>
<course>304.6</course>
<desc>Speed 32.8 km/h Distance 43.21 km</desc>
<time>2010-06-13T09:54:05.13</time>
<name>11485</name>
</trkpt>
<trkpt lat="49.180417" lon="11.827153">
<ele>585.0</ele>
<speed>33.5</speed>
<course>306.1</course>
<desc>Speed 33.5 km/h Distance 43.22 km</desc>
<time>2010-06-13T09:54:06.13</time>
<name>11486</name>
</trkpt>
<trkpt lat="49.180467" lon="11.827048">
<ele>584.0</ele>
<speed>34.1</speed>
<course>304.3</course>
<desc>Speed 34.1 km/h Distance 43.23 km</desc>
<time>2010-06-13T09:54:07.13</time>
<name>11487</name>
</trkpt>
<trkpt lat="49.180515" lon="11.826940">
<ele>582.8</ele>
<speed>34.7</speed>
<course>293.1</course>
<desc>Speed 34.7 km/h Distance 43.24 km</desc>
<time>2010-06-13T09:54:08.13</time>
<name>11488</name>
</trkpt>
<trkpt lat="49.180547" lon="11.826827">
<ele>580.6</ele>
<speed>35.8</speed>
<course>289.1</course>
<desc>Speed 35.8 km/h Distance 43.25 km</desc>
<time>2010-06-13T09:54:09.13</time>
<name>11489</name>
</trkpt>
<trkpt lat="49.180575" lon="11.826702">
<ele>578.9</ele>
<speed>36.1</speed>
<course>284.6</course>
<desc>Speed 36.1 km/h Distance 43.26 km</desc>
<time>2010-06-13T09:54:10.13</time>
<name>11490</name>
</trkpt>
<trkpt lat="49.180598" lon="11.826565">
<ele>577.8</ele>
<speed>36.6</speed>
<course>275.2</course>
<desc>Speed 36.6 km/h Distance 43.27 km</desc>
<time>2010-06-13T09:54:11.13</time>
<name>11491</name>
</trkpt>
<trkpt lat="49.180607" lon="11.826425">
<ele>577.0</ele>
<speed>37.2</speed>
<course>270.0</course>
<desc>Speed 37.2 km/h Distance 43.28 km</desc>
<time>2010-06-13T09:54:12.13</time>
<name>11492</name>
</trkpt>
<trkpt lat="49.180607" lon="11.826277">
<ele>576.3</ele>
<speed>37.8</speed>
<course>264.9</course>
<desc>Speed 37.8 km/h Distance 43.29 km</desc>
<time>2010-06-13T09:54:13.13</time>
<name>11493</name>
</trkpt>
<trkpt lat="49.180598" lon="11.826133">
<ele>575.6</ele>
<speed>37.9</speed>
<course>262.1</course>
<desc>Speed 37.9 km/h Distance 43.30 km</desc>
<time>2010-06-13T09:54:14.13</time>
<name>11494</name>
</trkpt>
<trkpt lat="49.180585" lon="11.825987">
<ele>574.9</ele>
<speed>37.8</speed>
<course>262.1</course>
<desc>Speed 37.8 km/h Distance 43.31 km</desc>
<time>2010-06-13T09:54:15.13</time>
<name>11495</name>
</trkpt>
<trkpt lat="49.180572" lon="11.825840">
<ele>574.1</ele>
<speed>38.2</speed>
<course>263.1</course>
<desc>Speed 38.2 km/h Distance 43.32 km</desc>
<time>2010-06-13T09:54:16.13</time>
<name>11496</name>
</trkpt>
<trkpt lat="49.180560" lon="11.825693">
<ele>573.3</ele>
<speed>38.2</speed>
<course>262.0</course>
<desc>Speed 38.2 km/h Distance 43.33 km</desc>
<time>2010-06-13T09:54:17.13</time>
<name>11497</name>
</trkpt>
<trkpt lat="49.180547" lon="11.825548">
<ele>572.7</ele>
<speed>37.7</speed>
<course>260.9</course>
<desc>Speed 37.7 km/h Distance 43.34 km</desc>
<time>2010-06-13T09:54:18.13</time>
<name>11498</name>
</trkpt>
<trkpt lat="49.180532" lon="11.825405">
<ele>572.2</ele>
<speed>37.0</speed>
<course>261.7</course>
<desc>Speed 37.0 km/h Distance 43.35 km</desc>
<time>2010-06-13T09:54:19.13</time>
<name>11499</name>
</trkpt>
<trkpt lat="49.180518" lon="11.825265">
<ele>571.8</ele>
<speed>36.3</speed>
<course>261.6</course>
<desc>Speed 36.3 km/h Distance 43.36 km</desc>
<time>2010-06-13T09:54:20.13</time>
<name>11500</name>
</trkpt>
<trkpt lat="49.180505" lon="11.825127">
<ele>571.5</ele>
<speed>35.9</speed>
<course>261.6</course>
<desc>Speed 35.9 km/h Distance 43.37 km</desc>
<time>2010-06-13T09:54:21.13</time>
<name>11501</name>
</trkpt>
<trkpt lat="49.180492" lon="11.824988">
<ele>571.3</ele>
<speed>35.5</speed>
<course>260.4</course>
<desc>Speed 35.5 km/h Distance 43.38 km</desc>
<time>2010-06-13T09:54:22.13</time>
<name>11502</name>
</trkpt>
<trkpt lat="49.180477" lon="11.824853">
<ele>571.0</ele>
<speed>34.9</speed>
<course>261.1</course>
<desc>Speed 34.9 km/h Distance 43.39 km</desc>
<time>2010-06-13T09:54:23.13</time>
<name>11503</name>
</trkpt>
<trkpt lat="49.180463" lon="11.824723">
<ele>570.8</ele>
<speed>33.7</speed>
<course>260.7</course>
<desc>Speed 33.7 km/h Distance 43.40 km</desc>
<time>2010-06-13T09:54:24.13</time>
<name>11504</name>
</trkpt>
<trkpt lat="49.180450" lon="11.824598">
<ele>570.5</ele>
<speed>32.3</speed>
<course>260.5</course>
<desc>Speed 32.3 km/h Distance 43.41 km</desc>
<time>2010-06-13T09:54:25.13</time>
<name>11505</name>
</trkpt>
<trkpt lat="49.180437" lon="11.824477">
<ele>570.2</ele>
<speed>31.6</speed>
<course>258.9</course>
<desc>Speed 31.6 km/h Distance 43.42 km</desc>
<time>2010-06-13T09:54:26.13</time>
<name>11506</name>
</trkpt>
<trkpt lat="49.180422" lon="11.824360">
<ele>569.9</ele>
<speed>30.7</speed>
<course>260.1</course>
<desc>Speed 30.7 km/h Distance 43.43 km</desc>
<time>2010-06-13T09:54:27.13</time>
<name>11507</name>
</trkpt>
<trkpt lat="49.180408" lon="11.824243">
<ele>569.6</ele>
<speed>29.9</speed>
<course>258.2</course>
<desc>Speed 29.9 km/h Distance 43.44 km</desc>
<time>2010-06-13T09:54:28.13</time>
<name>11508</name>
</trkpt>
<trkpt lat="49.180393" lon="11.824133">
<ele>569.2</ele>
<speed>29.4</speed>
<course>262.0</course>
<desc>Speed 29.4 km/h Distance 43.45 km</desc>
<time>2010-06-13T09:54:29.13</time>
<name>11509</name>
</trkpt>
<trkpt lat="49.180383" lon="11.824025">
<ele>568.9</ele>
<speed>28.5</speed>
<course>259.0</course>
<desc>Speed 28.5 km/h Distance 43.45 km</desc>
<time>2010-06-13T09:54:30.13</time>
<name>11510</name>
</trkpt>
<trkpt lat="49.180370" lon="11.823920">
<ele>568.7</ele>
<speed>28.0</speed>
<course>262.0</course>
<desc>Speed 28.0 km/h Distance 43.46 km</desc>
<time>2010-06-13T09:54:31.13</time>
<name>11511</name>
</trkpt>
<trkpt lat="49.180360" lon="11.823812">
<ele>568.6</ele>
<speed>28.8</speed>
<course>263.4</course>
<desc>Speed 28.8 km/h Distance 43.47 km</desc>
<time>2010-06-13T09:54:32.13</time>
<name>11512</name>
</trkpt>
<trkpt lat="49.180352" lon="11.823702">
<ele>568.5</ele>
<speed>28.9</speed>
<course>266.0</course>
<desc>Speed 28.9 km/h Distance 43.48 km</desc>
<time>2010-06-13T09:54:33.13</time>
<name>11513</name>
</trkpt>
<trkpt lat="49.180347" lon="11.823593">
<ele>568.4</ele>
<speed>29.4</speed>
<course>271.3</course>
<desc>Speed 29.4 km/h Distance 43.48 km</desc>
<time>2010-06-13T09:54:34.13</time>
<name>11514</name>
</trkpt>
<trkpt lat="49.180348" lon="11.823480">
<ele>568.2</ele>
<speed>29.7</speed>
<course>276.4</course>
<desc>Speed 29.7 km/h Distance 43.49 km</desc>
<time>2010-06-13T09:54:35.13</time>
<name>11515</name>
</trkpt>
<trkpt lat="49.180357" lon="11.823367">
<ele>568.1</ele>
<speed>29.6</speed>
<course>280.4</course>
<desc>Speed 29.6 km/h Distance 43.50 km</desc>
<time>2010-06-13T09:54:36.13</time>
<name>11516</name>
</trkpt>
<trkpt lat="49.180370" lon="11.823255">
<ele>568.0</ele>
<speed>29.8</speed>
<course>283.2</course>
<desc>Speed 29.8 km/h Distance 43.51 km</desc>
<time>2010-06-13T09:54:37.13</time>
<name>11517</name>
</trkpt>
<trkpt lat="49.180387" lon="11.823147">
<ele>568.1</ele>
<speed>28.8</speed>
<course>292.2</course>
<desc>Speed 28.8 km/h Distance 43.52 km</desc>
<time>2010-06-13T09:54:38.13</time>
<name>11518</name>
</trkpt>
<trkpt lat="49.180413" lon="11.823047">
<ele>568.3</ele>
<speed>27.8</speed>
<course>295.3</course>
<desc>Speed 27.8 km/h Distance 43.53 km</desc>
<time>2010-06-13T09:54:39.13</time>
<name>11519</name>
</trkpt>
<trkpt lat="49.180442" lon="11.822955">
<ele>569.0</ele>
<speed>26.9</speed>
<course>298.3</course>
<desc>Speed 26.9 km/h Distance 43.53 km</desc>
<time>2010-06-13T09:54:40.13</time>
<name>11520</name>
</trkpt>
<trkpt lat="49.180473" lon="11.822865">
<ele>569.6</ele>
<speed>26.9</speed>
<course>300.5</course>
<desc>Speed 26.9 km/h Distance 43.54 km</desc>
<time>2010-06-13T09:54:41.13</time>
<name>11521</name>
</trkpt>
<trkpt lat="49.180507" lon="11.822778">
<ele>570.2</ele>
<speed>26.4</speed>
<course>301.0</course>
<desc>Speed 26.4 km/h Distance 43.55 km</desc>
<time>2010-06-13T09:54:42.13</time>
<name>11522</name>
</trkpt>
<trkpt lat="49.180540" lon="11.822693">
<ele>570.7</ele>
<speed>26.1</speed>
<course>301.5</course>
<desc>Speed 26.1 km/h Distance 43.55 km</desc>
<time>2010-06-13T09:54:43.13</time>
<name>11523</name>
</trkpt>
<trkpt lat="49.180573" lon="11.822610">
<ele>571.3</ele>
<speed>25.2</speed>
<course>302.5</course>
<desc>Speed 25.2 km/h Distance 43.56 km</desc>
<time>2010-06-13T09:54:44.13</time>
<name>11524</name>
</trkpt>
<trkpt lat="49.180607" lon="11.822530">
<ele>572.0</ele>
<speed>24.9</speed>
<course>301.2</course>
<desc>Speed 24.9 km/h Distance 43.57 km</desc>
<time>2010-06-13T09:54:45.13</time>
<name>11525</name>
</trkpt>
<trkpt lat="49.180638" lon="11.822450">
<ele>572.6</ele>
<speed>24.6</speed>
<course>301.7</course>
<desc>Speed 24.6 km/h Distance 43.58 km</desc>
<time>2010-06-13T09:54:46.13</time>
<name>11526</name>
</trkpt>
<trkpt lat="49.180670" lon="11.822372">
<ele>572.9</ele>
<speed>23.8</speed>
<course>299.5</course>
<desc>Speed 23.8 km/h Distance 43.58 km</desc>
<time>2010-06-13T09:54:47.13</time>
<name>11527</name>
</trkpt>
<trkpt lat="49.180698" lon="11.822295">
<ele>573.4</ele>
<speed>23.2</speed>
<course>300.0</course>
<desc>Speed 23.2 km/h Distance 43.59 km</desc>
<time>2010-06-13T09:54:48.14</time>
<name>11528</name>
</trkpt>
<trkpt lat="49.180727" lon="11.822220">
<ele>573.9</ele>
<speed>22.3</speed>
<course>300.6</course>
<desc>Speed 22.3 km/h Distance 43.60 km</desc>
<time>2010-06-13T09:54:49.14</time>
<name>11529</name>
</trkpt>
<trkpt lat="49.180755" lon="11.822147">
<ele>574.5</ele>
<speed>21.6</speed>
<course>303.0</course>
<desc>Speed 21.6 km/h Distance 43.60 km</desc>
<time>2010-06-13T09:54:50.14</time>
<name>11530</name>
</trkpt>
<trkpt lat="49.180783" lon="11.822080">
<ele>575.1</ele>
<speed>21.2</speed>
<course>304.5</course>
<desc>Speed 21.2 km/h Distance 43.61 km</desc>
<time>2010-06-13T09:54:51.14</time>
<name>11531</name>
</trkpt>
<trkpt lat="49.180813" lon="11.822013">
<ele>574.7</ele>
<speed>20.9</speed>
<course>301.5</course>
<desc>Speed 20.9 km/h Distance 43.61 km</desc>
<time>2010-06-13T09:54:52.14</time>
<name>11532</name>
</trkpt>
<trkpt lat="49.180840" lon="11.821947">
<ele>574.7</ele>
<speed>20.0</speed>
<course>301.8</course>
<desc>Speed 20.0 km/h Distance 43.62 km</desc>
<time>2010-06-13T09:54:53.14</time>
<name>11533</name>
</trkpt>
<trkpt lat="49.180865" lon="11.821885">
<ele>574.7</ele>
<speed>18.6</speed>
<course>302.5</course>
<desc>Speed 18.6 km/h Distance 43.62 km</desc>
<time>2010-06-13T09:54:54.14</time>
<name>11534</name>
</trkpt>
<trkpt lat="49.180890" lon="11.821825">
<ele>574.7</ele>
<speed>18.2</speed>
<course>295.7</course>
<desc>Speed 18.2 km/h Distance 43.63 km</desc>
<time>2010-06-13T09:54:55.14</time>
<name>11535</name>
</trkpt>
<trkpt lat="49.180908" lon="11.821767">
<ele>575.3</ele>
<speed>17.0</speed>
<course>300.6</course>
<desc>Speed 17.0 km/h Distance 43.63 km</desc>
<time>2010-06-13T09:54:56.14</time>
<name>11536</name>
</trkpt>
<trkpt lat="49.180928" lon="11.821715">
<ele>575.3</ele>
<speed>16.3</speed>
<course>310.0</course>
<desc>Speed 16.3 km/h Distance 43.64 km</desc>
<time>2010-06-13T09:54:57.14</time>
<name>11537</name>
</trkpt>
<trkpt lat="49.180957" lon="11.821663">
<ele>576.4</ele>
<speed>16.2</speed>
<course>308.5</course>
<desc>Speed 16.2 km/h Distance 43.64 km</desc>
<time>2010-06-13T09:54:58.14</time>
<name>11538</name>
</trkpt>
<trkpt lat="49.180978" lon="11.821622">
<ele>575.8</ele>
<speed>14.2</speed>
<course>313.0</course>
<desc>Speed 14.2 km/h Distance 43.65 km</desc>
<time>2010-06-13T09:54:59.14</time>
<name>11539</name>
</trkpt>
<trkpt lat="49.181002" lon="11.821583">
<ele>575.3</ele>
<speed>14.0</speed>
<course>325.5</course>
<desc>Speed 14.0 km/h Distance 43.65 km</desc>
<time>2010-06-13T09:55:00.14</time>
<name>11540</name>
</trkpt>
<trkpt lat="49.181033" lon="11.821550">
<ele>576.3</ele>
<speed>14.1</speed>
<course>326.8</course>
<desc>Speed 14.1 km/h Distance 43.66 km</desc>
<time>2010-06-13T09:55:01.14</time>
<name>11541</name>
</trkpt>
<trkpt lat="49.181067" lon="11.821517">
<ele>577.0</ele>
<speed>14.3</speed>
<course>326.8</course>
<desc>Speed 14.3 km/h Distance 43.66 km</desc>
<time>2010-06-13T09:55:02.14</time>
<name>11542</name>
</trkpt>
<trkpt lat="49.181100" lon="11.821483">
<ele>577.8</ele>
<speed>14.1</speed>
<course>329.5</course>
<desc>Speed 14.1 km/h Distance 43.66 km</desc>
<time>2010-06-13T09:55:03.14</time>
<name>11543</name>
</trkpt>
<trkpt lat="49.181133" lon="11.821453">
<ele>578.2</ele>
<speed>13.3</speed>
<course>330.2</course>
<desc>Speed 13.3 km/h Distance 43.67 km</desc>
<time>2010-06-13T09:55:04.14</time>
<name>11544</name>
</trkpt>
<trkpt lat="49.181160" lon="11.821430">
<ele>578.6</ele>
<speed>13.4</speed>
<course>335.9</course>
<desc>Speed 13.4 km/h Distance 43.67 km</desc>
<time>2010-06-13T09:55:05.14</time>
<name>11545</name>
</trkpt>
<trkpt lat="49.181192" lon="11.821408">
<ele>578.5</ele>
<speed>12.7</speed>
<course>337.1</course>
<desc>Speed 12.7 km/h Distance 43.68 km</desc>
<time>2010-06-13T09:55:06.14</time>
<name>11546</name>
</trkpt>
<trkpt lat="49.181220" lon="11.821390">
<ele>579.5</ele>
<speed>11.3</speed>
<course>337.6</course>
<desc>Speed 11.3 km/h Distance 43.68 km</desc>
<time>2010-06-13T09:55:07.14</time>
<name>11547</name>
</trkpt>
<trkpt lat="49.181252" lon="11.821370">
<ele>578.8</ele>
<speed>12.1</speed>
<course>344.5</course>
<desc>Speed 12.1 km/h Distance 43.68 km</desc>
<time>2010-06-13T09:55:08.14</time>
<name>11548</name>
</trkpt>
<trkpt lat="49.181283" lon="11.821357">
<ele>577.2</ele>
<speed>12.2</speed>
<course>333.5</course>
<desc>Speed 12.2 km/h Distance 43.69 km</desc>
<time>2010-06-13T09:55:09.14</time>
<name>11549</name>
</trkpt>
<trkpt lat="49.181312" lon="11.821335">
<ele>576.7</ele>
<speed>11.8</speed>
<course>340.9</course>
<desc>Speed 11.8 km/h Distance 43.69 km</desc>
<time>2010-06-13T09:55:10.14</time>
<name>11550</name>
</trkpt>
<trkpt lat="49.181340" lon="11.821320">
<ele>575.9</ele>
<speed>11.8</speed>
<course>335.2</course>
<desc>Speed 11.8 km/h Distance 43.69 km</desc>
<time>2010-06-13T09:55:11.14</time>
<name>11551</name>
</trkpt>
<trkpt lat="49.181368" lon="11.821300">
<ele>575.7</ele>
<speed>12.2</speed>
<course>333.0</course>
<desc>Speed 12.2 km/h Distance 43.70 km</desc>
<time>2010-06-13T09:55:12.14</time>
<name>11552</name>
</trkpt>
<trkpt lat="49.181398" lon="11.821277">
<ele>576.0</ele>
<speed>12.6</speed>
<course>342.8</course>
<desc>Speed 12.6 km/h Distance 43.70 km</desc>
<time>2010-06-13T09:55:13.14</time>
<name>11553</name>
</trkpt>
<trkpt lat="49.181433" lon="11.821260">
<ele>576.6</ele>
<speed>12.5</speed>
<course>339.0</course>
<desc>Speed 12.5 km/h Distance 43.70 km</desc>
<time>2010-06-13T09:55:14.14</time>
<name>11554</name>
</trkpt>
<trkpt lat="49.181462" lon="11.821243">
<ele>577.4</ele>
<speed>12.6</speed>
<course>337.1</course>
<desc>Speed 12.6 km/h Distance 43.71 km</desc>
<time>2010-06-13T09:55:15.14</time>
<name>11555</name>
</trkpt>
<trkpt lat="49.181490" lon="11.821225">
<ele>577.3</ele>
<speed>13.0</speed>
<course>335.0</course>
<desc>Speed 13.0 km/h Distance 43.71 km</desc>
<time>2010-06-13T09:55:16.14</time>
<name>11556</name>
</trkpt>
<trkpt lat="49.181513" lon="11.821208">
<ele>577.2</ele>
<speed>11.4</speed>
<course>340.4</course>
<desc>Speed 11.4 km/h Distance 43.71 km</desc>
<time>2010-06-13T09:55:17.14</time>
<name>11557</name>
</trkpt>
<trkpt lat="49.181550" lon="11.821188">
<ele>578.0</ele>
<speed>12.2</speed>
<course>340.0</course>
<desc>Speed 12.2 km/h Distance 43.72 km</desc>
<time>2010-06-13T09:55:18.14</time>
<name>11558</name>
</trkpt>
<trkpt lat="49.181580" lon="11.821172">
<ele>578.3</ele>
<speed>12.3</speed>
<course>334.7</course>
<desc>Speed 12.3 km/h Distance 43.72 km</desc>
<time>2010-06-13T09:55:19.14</time>
<name>11559</name>
</trkpt>
<trkpt lat="49.181610" lon="11.821150">
<ele>578.5</ele>
<speed>12.2</speed>
<course>334.3</course>
<desc>Speed 12.2 km/h Distance 43.73 km</desc>
<time>2010-06-13T09:55:20.14</time>
<name>11560</name>
</trkpt>
<trkpt lat="49.181642" lon="11.821127">
<ele>580.1</ele>
<speed>12.2</speed>
<course>341.0</course>
<desc>Speed 12.2 km/h Distance 43.73 km</desc>
<time>2010-06-13T09:55:21.14</time>
<name>11561</name>
</trkpt>
<trkpt lat="49.181673" lon="11.821110">
<ele>580.3</ele>
<speed>13.0</speed>
<course>340.2</course>
<desc>Speed 13.0 km/h Distance 43.73 km</desc>
<time>2010-06-13T09:55:22.14</time>
<name>11562</name>
</trkpt>
<trkpt lat="49.181707" lon="11.821092">
<ele>581.7</ele>
<speed>13.1</speed>
<course>342.7</course>
<desc>Speed 13.1 km/h Distance 43.74 km</desc>
<time>2010-06-13T09:55:23.14</time>
<name>11563</name>
</trkpt>
<trkpt lat="49.181742" lon="11.821075">
<ele>582.0</ele>
<speed>13.5</speed>
<course>346.1</course>
<desc>Speed 13.5 km/h Distance 43.74 km</desc>
<time>2010-06-13T09:55:24.14</time>
<name>11564</name>
</trkpt>
<trkpt lat="49.181777" lon="11.821062">
<ele>582.0</ele>
<speed>12.1</speed>
<course>349.1</course>
<desc>Speed 12.1 km/h Distance 43.75 km</desc>
<time>2010-06-13T09:55:25.14</time>
<name>11565</name>
</trkpt>
<trkpt lat="49.181805" lon="11.821053">
<ele>582.8</ele>
<speed>12.1</speed>
<course>337.2</course>
<desc>Speed 12.1 km/h Distance 43.75 km</desc>
<time>2010-06-13T09:55:26.14</time>
<name>11566</name>
</trkpt>
<trkpt lat="49.181828" lon="11.821038">
<ele>583.2</ele>
<speed>12.1</speed>
<course>337.1</course>
<desc>Speed 12.1 km/h Distance 43.75 km</desc>
<time>2010-06-13T09:55:27.14</time>
<name>11567</name>
</trkpt>
<trkpt lat="49.181857" lon="11.821020">
<ele>584.3</ele>
<speed>12.1</speed>
<course>332.4</course>
<desc>Speed 12.1 km/h Distance 43.75 km</desc>
<time>2010-06-13T09:55:28.14</time>
<name>11568</name>
</trkpt>
<trkpt lat="49.181882" lon="11.821000">
<ele>584.4</ele>
<speed>12.0</speed>
<course>331.7</course>
<desc>Speed 12.0 km/h Distance 43.76 km</desc>
<time>2010-06-13T09:55:29.14</time>
<name>11569</name>
</trkpt>
<trkpt lat="49.181910" lon="11.820977">
<ele>584.5</ele>
<speed>13.1</speed>
<course>322.5</course>
<desc>Speed 13.1 km/h Distance 43.76 km</desc>
<time>2010-06-13T09:55:30.14</time>
<name>11570</name>
</trkpt>
<trkpt lat="49.181938" lon="11.820943">
<ele>584.7</ele>
<speed>12.3</speed>
<course>328.4</course>
<desc>Speed 12.3 km/h Distance 43.77 km</desc>
<time>2010-06-13T09:55:31.14</time>
<name>11571</name>
</trkpt>
<trkpt lat="49.181967" lon="11.820917">
<ele>585.2</ele>
<speed>13.0</speed>
<course>322.5</course>
<desc>Speed 13.0 km/h Distance 43.77 km</desc>
<time>2010-06-13T09:55:32.14</time>
<name>11572</name>
</trkpt>
<trkpt lat="49.181995" lon="11.820883">
<ele>586.1</ele>
<speed>13.4</speed>
<course>328.7</course>
<desc>Speed 13.4 km/h Distance 43.77 km</desc>
<time>2010-06-13T09:55:33.14</time>
<name>11573</name>
</trkpt>
<trkpt lat="49.182018" lon="11.820862">
<ele>585.7</ele>
<speed>12.1</speed>
<course>332.4</course>
<desc>Speed 12.1 km/h Distance 43.78 km</desc>
<time>2010-06-13T09:55:34.14</time>
<name>11574</name>
</trkpt>
<trkpt lat="49.182043" lon="11.820842">
<ele>586.0</ele>
<speed>11.2</speed>
<course>355.4</course>
<desc>Speed 11.2 km/h Distance 43.78 km</desc>
<time>2010-06-13T09:55:35.14</time>
<name>11575</name>
</trkpt>
<trkpt lat="49.182068" lon="11.820838">
<ele>587.0</ele>
<speed>11.5</speed>
<course>349.8</course>
<desc>Speed 11.5 km/h Distance 43.78 km</desc>
<time>2010-06-13T09:55:36.14</time>
<name>11576</name>
</trkpt>
<trkpt lat="49.182098" lon="11.820830">
<ele>587.0</ele>
<speed>12.4</speed>
<course>357.0</course>
<desc>Speed 12.4 km/h Distance 43.79 km</desc>
<time>2010-06-13T09:55:37.14</time>
<name>11577</name>
</trkpt>
<trkpt lat="49.182122" lon="11.820828">
<ele>588.0</ele>
<speed>11.6</speed>
<course>351.7</course>
<desc>Speed 11.6 km/h Distance 43.79 km</desc>
<time>2010-06-13T09:55:38.14</time>
<name>11578</name>
</trkpt>
<trkpt lat="49.182152" lon="11.820822">
<ele>587.7</ele>
<speed>11.2</speed>
<course>353.1</course>
<desc>Speed 11.2 km/h Distance 43.79 km</desc>
<time>2010-06-13T09:55:39.14</time>
<name>11579</name>
</trkpt>
<trkpt lat="49.182178" lon="11.820817">
<ele>587.4</ele>
<speed>10.4</speed>
<course>355.9</course>
<desc>Speed 10.4 km/h Distance 43.79 km</desc>
<time>2010-06-13T09:55:40.14</time>
<name>11580</name>
</trkpt>
<trkpt lat="49.182208" lon="11.820813">
<ele>587.9</ele>
<speed>10.7</speed>
<course>355.4</course>
<desc>Speed 10.7 km/h Distance 43.80 km</desc>
<time>2010-06-13T09:55:41.14</time>
<name>11581</name>
</trkpt>
<trkpt lat="49.182235" lon="11.820810">
<ele>589.6</ele>
<speed>10.6</speed>
<course>11.0</course>
<desc>Speed 10.6 km/h Distance 43.80 km</desc>
<time>2010-06-13T09:55:42.14</time>
<name>11582</name>
</trkpt>
<trkpt lat="49.182268" lon="11.820820">
<ele>589.0</ele>
<speed>13.1</speed>
<course>356.2</course>
<desc>Speed 13.1 km/h Distance 43.80 km</desc>
<time>2010-06-13T09:55:43.14</time>
<name>11583</name>
</trkpt>
<trkpt lat="49.182302" lon="11.820817">
<ele>589.3</ele>
<speed>14.1</speed>
<course>7.7</course>
<desc>Speed 14.1 km/h Distance 43.81 km</desc>
<time>2010-06-13T09:55:44.14</time>
<name>11584</name>
</trkpt>
<trkpt lat="49.182335" lon="11.820823">
<ele>590.6</ele>
<speed>15.4</speed>
<course>9.7</course>
<desc>Speed 15.4 km/h Distance 43.81 km</desc>
<time>2010-06-13T09:55:45.14</time>
<name>11585</name>
</trkpt>
<trkpt lat="49.182367" lon="11.820832">
<ele>592.3</ele>
<speed>15.3</speed>
<course>12.3</course>
<desc>Speed 15.3 km/h Distance 43.82 km</desc>
<time>2010-06-13T09:55:46.14</time>
<name>11586</name>
</trkpt>
<trkpt lat="49.182407" lon="11.820845">
<ele>590.9</ele>
<speed>15.5</speed>
<course>5.7</course>
<desc>Speed 15.5 km/h Distance 43.82 km</desc>
<time>2010-06-13T09:55:47.14</time>
<name>11587</name>
</trkpt>
<trkpt lat="49.182450" lon="11.820852">
<ele>591.2</ele>
<speed>16.0</speed>
<course>5.7</course>
<desc>Speed 16.0 km/h Distance 43.83 km</desc>
<time>2010-06-13T09:55:48.14</time>
<name>11588</name>
</trkpt>
<trkpt lat="49.182493" lon="11.820858">
<ele>590.3</ele>
<speed>16.0</speed>
<course>357.3</course>
<desc>Speed 16.0 km/h Distance 43.83 km</desc>
<time>2010-06-13T09:55:49.14</time>
<name>11589</name>
</trkpt>
<trkpt lat="49.182537" lon="11.820855">
<ele>589.2</ele>
<speed>15.9</speed>
<course>7.7</course>
<desc>Speed 15.9 km/h Distance 43.83 km</desc>
<time>2010-06-13T09:55:50.14</time>
<name>11590</name>
</trkpt>
<trkpt lat="49.182585" lon="11.820865">
<ele>587.5</ele>
<speed>17.2</speed>
<course>2.7</course>
<desc>Speed 17.2 km/h Distance 43.84 km</desc>
<time>2010-06-13T09:55:51.14</time>
<name>11591</name>
</trkpt>
<trkpt lat="49.182630" lon="11.820868">
<ele>586.3</ele>
<speed>17.4</speed>
<course>3.7</course>
<desc>Speed 17.4 km/h Distance 43.85 km</desc>
<time>2010-06-13T09:55:52.14</time>
<name>11592</name>
</trkpt>
<trkpt lat="49.182680" lon="11.820873">
<ele>586.2</ele>
<speed>17.4</speed>
<course>6.2</course>
<desc>Speed 17.4 km/h Distance 43.85 km</desc>
<time>2010-06-13T09:55:53.14</time>
<name>11593</name>
</trkpt>
<trkpt lat="49.182730" lon="11.820882">
<ele>586.5</ele>
<speed>18.0</speed>
<course>0.2</course>
<desc>Speed 18.0 km/h Distance 43.86 km</desc>
<time>2010-06-13T09:55:54.14</time>
<name>11594</name>
</trkpt>
<trkpt lat="49.182785" lon="11.820882">
<ele>586.3</ele>
<speed>21.0</speed>
<course>0.0</course>
<desc>Speed 21.0 km/h Distance 43.86 km</desc>
<time>2010-06-13T09:55:55.14</time>
<name>11595</name>
</trkpt>
<trkpt lat="49.182845" lon="11.820882">
<ele>586.2</ele>
<speed>23.6</speed>
<course>352.6</course>
<desc>Speed 23.6 km/h Distance 43.87 km</desc>
<time>2010-06-13T09:55:56.14</time>
<name>11596</name>
</trkpt>
<trkpt lat="49.182912" lon="11.820868">
<ele>583.3</ele>
<speed>23.7</speed>
<course>357.1</course>
<desc>Speed 23.7 km/h Distance 43.88 km</desc>
<time>2010-06-13T09:55:57.14</time>
<name>11597</name>
</trkpt>
<trkpt lat="49.182975" lon="11.820863">
<ele>582.9</ele>
<speed>24.4</speed>
<course>0.9</course>
<desc>Speed 24.4 km/h Distance 43.88 km</desc>
<time>2010-06-13T09:55:58.14</time>
<name>11598</name>
</trkpt>
<trkpt lat="49.183047" lon="11.820865">
<ele>584.8</ele>
<speed>24.7</speed>
<course>353.9</course>
<desc>Speed 24.7 km/h Distance 43.89 km</desc>
<time>2010-06-13T09:55:59.14</time>
<name>11599</name>
</trkpt>
<trkpt lat="49.183108" lon="11.820855">
<ele>584.4</ele>
<speed>24.4</speed>
<course>344.9</course>
<desc>Speed 24.4 km/h Distance 43.90 km</desc>
<time>2010-06-13T09:56:00.14</time>
<name>11600</name>
</trkpt>
<trkpt lat="49.183165" lon="11.820832">
<ele>583.4</ele>
<speed>22.4</speed>
<course>332.4</course>
<desc>Speed 22.4 km/h Distance 43.91 km</desc>
<time>2010-06-13T09:56:01.14</time>
<name>11601</name>
</trkpt>
<trkpt lat="49.183215" lon="11.820792">
<ele>583.0</ele>
<speed>21.3</speed>
<course>311.8</course>
<desc>Speed 21.3 km/h Distance 43.91 km</desc>
<time>2010-06-13T09:56:02.14</time>
<name>11602</name>
</trkpt>
<trkpt lat="49.183250" lon="11.820732">
<ele>582.1</ele>
<speed>21.3</speed>
<course>308.8</course>
<desc>Speed 21.3 km/h Distance 43.92 km</desc>
<time>2010-06-13T09:56:03.14</time>
<name>11603</name>
</trkpt>
<trkpt lat="49.183283" lon="11.820668">
<ele>581.5</ele>
<speed>20.1</speed>
<course>301.8</course>
<desc>Speed 20.1 km/h Distance 43.92 km</desc>
<time>2010-06-13T09:56:04.14</time>
<name>11604</name>
</trkpt>
<trkpt lat="49.183312" lon="11.820598">
<ele>580.9</ele>
<speed>19.6</speed>
<course>276.7</course>
<desc>Speed 19.6 km/h Distance 43.93 km</desc>
<time>2010-06-13T09:56:05.14</time>
<name>11605</name>
</trkpt>
<trkpt lat="49.183317" lon="11.820533">
<ele>581.9</ele>
<speed>18.6</speed>
<course>265.6</course>
<desc>Speed 18.6 km/h Distance 43.93 km</desc>
<time>2010-06-13T09:56:06.14</time>
<name>11606</name>
</trkpt>
<trkpt lat="49.183313" lon="11.820467">
<ele>582.9</ele>
<speed>17.4</speed>
<course>272.2</course>
<desc>Speed 17.4 km/h Distance 43.94 km</desc>
<time>2010-06-13T09:56:07.14</time>
<name>11607</name>
</trkpt>
<trkpt lat="49.183315" lon="11.820402">
<ele>582.6</ele>
<speed>15.2</speed>
<course>289.6</course>
<desc>Speed 15.2 km/h Distance 43.94 km</desc>
<time>2010-06-13T09:56:08.14</time>
<name>11608</name>
</trkpt>
<trkpt lat="49.183327" lon="11.820352">
<ele>582.9</ele>
<speed>13.2</speed>
<course>278.2</course>
<desc>Speed 13.2 km/h Distance 43.95 km</desc>
<time>2010-06-13T09:56:09.14</time>
<name>11609</name>
</trkpt>
<trkpt lat="49.183332" lon="11.820298">
<ele>584.3</ele>
<speed>12.5</speed>
<course>281.9</course>
<desc>Speed 12.5 km/h Distance 43.95 km</desc>
<time>2010-06-13T09:56:10.14</time>
<name>11610</name>
</trkpt>
<trkpt lat="49.183338" lon="11.820250">
<ele>584.9</ele>
<speed>12.3</speed>
<course>279.3</course>
<desc>Speed 12.3 km/h Distance 43.96 km</desc>
<time>2010-06-13T09:56:11.14</time>
<name>11611</name>
</trkpt>
<trkpt lat="49.183343" lon="11.820203">
<ele>585.5</ele>
<speed>12.1</speed>
<course>279.3</course>
<desc>Speed 12.1 km/h Distance 43.96 km</desc>
<time>2010-06-13T09:56:12.14</time>
<name>11612</name>
</trkpt>
<trkpt lat="49.183348" lon="11.820157">
<ele>585.7</ele>
<speed>11.8</speed>
<course>270.0</course>
<desc>Speed 11.8 km/h Distance 43.96 km</desc>
<time>2010-06-13T09:56:13.14</time>
<name>11613</name>
</trkpt>
<trkpt lat="49.183348" lon="11.820108">
<ele>586.2</ele>
<speed>12.2</speed>
<course>275.8</course>
<desc>Speed 12.2 km/h Distance 43.97 km</desc>
<time>2010-06-13T09:56:14.14</time>
<name>11614</name>
</trkpt>
<trkpt lat="49.183352" lon="11.820058">
<ele>586.1</ele>
<speed>12.7</speed>
<course>270.0</course>
<desc>Speed 12.7 km/h Distance 43.97 km</desc>
<time>2010-06-13T09:56:15.14</time>
<name>11615</name>
</trkpt>
<trkpt lat="49.183352" lon="11.820007">
<ele>586.3</ele>
<speed>12.5</speed>
<course>264.4</course>
<desc>Speed 12.5 km/h Distance 43.97 km</desc>
<time>2010-06-13T09:56:16.14</time>
<name>11616</name>
</trkpt>
<trkpt lat="49.183348" lon="11.819955">
<ele>586.2</ele>
<speed>12.6</speed>
<course>270.0</course>
<desc>Speed 12.6 km/h Distance 43.98 km</desc>
<time>2010-06-13T09:56:17.14</time>
<name>11617</name>
</trkpt>
<trkpt lat="49.183348" lon="11.819907">
<ele>586.3</ele>
<speed>12.2</speed>
<course>278.7</course>
<desc>Speed 12.2 km/h Distance 43.98 km</desc>
<time>2010-06-13T09:56:18.14</time>
<name>11618</name>
</trkpt>
<trkpt lat="49.183353" lon="11.819857">
<ele>585.9</ele>
<speed>12.3</speed>
<course>270.0</course>
<desc>Speed 12.3 km/h Distance 43.98 km</desc>
<time>2010-06-13T09:56:19.14</time>
<name>11619</name>
</trkpt>
<trkpt lat="49.183353" lon="11.819813">
<ele>585.2</ele>
<speed>11.9</speed>
<course>273.4</course>
<desc>Speed 11.9 km/h Distance 43.99 km</desc>
<time>2010-06-13T09:56:20.14</time>
<name>11620</name>
</trkpt>
<trkpt lat="49.183355" lon="11.819770">
<ele>584.6</ele>
<speed>11.9</speed>
<course>270.0</course>
<desc>Speed 11.9 km/h Distance 43.99 km</desc>
<time>2010-06-13T09:56:21.14</time>
<name>11621</name>
</trkpt>
<trkpt lat="49.183355" lon="11.819725">
<ele>584.2</ele>
<speed>12.0</speed>
<course>266.8</course>
<desc>Speed 12.0 km/h Distance 43.99 km</desc>
<time>2010-06-13T09:56:22.14</time>
<name>11622</name>
</trkpt>
<trkpt lat="49.183353" lon="11.819680">
<ele>583.9</ele>
<speed>11.4</speed>
<course>270.0</course>
<desc>Speed 11.4 km/h Distance 44.00 km</desc>
<time>2010-06-13T09:56:23.14</time>
<name>11623</name>
</trkpt>
<trkpt lat="49.183353" lon="11.819638">
<ele>584.5</ele>
<speed>11.7</speed>
<course>260.0</course>
<desc>Speed 11.7 km/h Distance 44.00 km</desc>
<time>2010-06-13T09:56:24.14</time>
<name>11624</name>
</trkpt>
<trkpt lat="49.183348" lon="11.819595">
<ele>585.8</ele>
<speed>11.7</speed>
<course>270.0</course>
<desc>Speed 11.7 km/h Distance 44.00 km</desc>
<time>2010-06-13T09:56:25.14</time>
<name>11625</name>
</trkpt>
<trkpt lat="49.183348" lon="11.819555">
<ele>587.6</ele>
<speed>11.5</speed>
<course>276.7</course>
<desc>Speed 11.5 km/h Distance 44.01 km</desc>
<time>2010-06-13T09:56:26.14</time>
<name>11626</name>
</trkpt>
<trkpt lat="49.183352" lon="11.819512">
<ele>588.2</ele>
<speed>11.1</speed>
<course>262.4</course>
<desc>Speed 11.1 km/h Distance 44.01 km</desc>
<time>2010-06-13T09:56:27.14</time>
<name>11627</name>
</trkpt>
<trkpt lat="49.183348" lon="11.819473">
<ele>588.4</ele>
<speed>9.4</speed>
<course>228.8</course>
<desc>Speed 9.4 km/h Distance 44.01 km</desc>
<time>2010-06-13T09:56:28.14</time>
<name>11628</name>
</trkpt>
<trkpt lat="49.183335" lon="11.819450">
<ele>589.5</ele>
<speed>7.8</speed>
<course>223.4</course>
<desc>Speed 7.8 km/h Distance 44.01 km</desc>
<time>2010-06-13T09:56:29.14</time>
<name>11629</name>
</trkpt>
<trkpt lat="49.183320" lon="11.819428">
<ele>590.8</ele>
<speed>7.1</speed>
<course>234.2</course>
<desc>Speed 7.1 km/h Distance 44.02 km</desc>
<time>2010-06-13T09:56:30.14</time>
<name>11630</name>
</trkpt>
<trkpt lat="49.183307" lon="11.819400">
<ele>590.1</ele>
<speed>8.0</speed>
<course>252.2</course>
<desc>Speed 8.0 km/h Distance 44.02 km</desc>
<time>2010-06-13T09:56:31.14</time>
<name>11631</name>
</trkpt>
<trkpt lat="49.183300" lon="11.819368">
<ele>590.4</ele>
<speed>7.9</speed>
<course>265.4</course>
<desc>Speed 7.9 km/h Distance 44.02 km</desc>
<time>2010-06-13T09:56:32.14</time>
<name>11632</name>
</trkpt>
<trkpt lat="49.183298" lon="11.819337">
<ele>590.3</ele>
<speed>7.3</speed>
<course>270.0</course>
<desc>Speed 7.3 km/h Distance 44.02 km</desc>
<time>2010-06-13T09:56:33.14</time>
<name>11633</name>
</trkpt>
<trkpt lat="49.183298" lon="11.819312">
<ele>590.9</ele>
<speed>8.0</speed>
<course>270.0</course>
<desc>Speed 8.0 km/h Distance 44.03 km</desc>
<time>2010-06-13T09:56:34.14</time>
<name>11634</name>
</trkpt>
<trkpt lat="49.183298" lon="11.819278">
<ele>591.4</ele>
<speed>8.5</speed>
<course>265.6</course>
<desc>Speed 8.5 km/h Distance 44.03 km</desc>
<time>2010-06-13T09:56:35.14</time>
<name>11635</name>
</trkpt>
<trkpt lat="49.183297" lon="11.819245">
<ele>591.0</ele>
<speed>8.3</speed>
<course>254.9</course>
<desc>Speed 8.3 km/h Distance 44.03 km</desc>
<time>2010-06-13T09:56:36.14</time>
<name>11636</name>
</trkpt>
<trkpt lat="49.183292" lon="11.819217">
<ele>591.0</ele>
<speed>6.5</speed>
<course>255.7</course>
<desc>Speed 6.5 km/h Distance 44.03 km</desc>
<time>2010-06-13T09:56:37.14</time>
<name>11637</name>
</trkpt>
<trkpt lat="49.183287" lon="11.819187">
<ele>591.1</ele>
<speed>5.2</speed>
<course>240.1</course>
<desc>Speed 5.2 km/h Distance 44.03 km</desc>
<time>2010-06-13T09:56:38.14</time>
<name>11638</name>
</trkpt>
<trkpt lat="49.183282" lon="11.819173">
<ele>591.5</ele>
<speed>1.7</speed>
<course>238.6</course>
<desc>Speed 1.7 km/h Distance 44.04 km</desc>
<time>2010-06-13T09:56:39.14</time>
<name>11639</name>
</trkpt>
<trkpt lat="49.183278" lon="11.819165">
<ele>591.6</ele>
<speed>0.7</speed>
<course>238.6</course>
<desc>Speed 0.7 km/h Distance 44.04 km</desc>
<time>2010-06-13T09:56:40.14</time>
<name>11640</name>
</trkpt>
<trkpt lat="49.183278" lon="11.819165">
<ele>590.7</ele>
<speed>1.0</speed>
<course>180.0</course>
<desc>Speed 1.0 km/h Distance 44.04 km</desc>
<time>2010-06-13T09:56:41.14</time>
<name>11641</name>
</trkpt>
<trkpt lat="49.183277" lon="11.819165">
<ele>590.4</ele>
<speed>1.5</speed>
<course>224.5</course>
<desc>Speed 1.5 km/h Distance 44.04 km</desc>
<time>2010-06-13T09:56:42.14</time>
<name>11642</name>
</trkpt>
<trkpt lat="49.183273" lon="11.819160">
<ele>591.1</ele>
<speed>2.5</speed>
<course>233.9</course>
<desc>Speed 2.5 km/h Distance 44.04 km</desc>
<time>2010-06-13T09:56:43.14</time>
<name>11643</name>
</trkpt>
<trkpt lat="49.183272" lon="11.819157">
<ele>591.8</ele>
<speed>1.3</speed>
<course>167.4</course>
<desc>Speed 1.3 km/h Distance 44.04 km</desc>
<time>2010-06-13T09:56:44.14</time>
<name>11644</name>
</trkpt>
<trkpt lat="49.183268" lon="11.819157">
<ele>591.2</ele>
<speed>0.7</speed>
<course>139.1</course>
<desc>Speed 0.7 km/h Distance 44.04 km</desc>
<time>2010-06-13T09:56:45.14</time>
<name>11645</name>
</trkpt>
<trkpt lat="49.183263" lon="11.819163">
<ele>591.2</ele>
<speed>1.2</speed>
<course>146.8</course>
<desc>Speed 1.2 km/h Distance 44.04 km</desc>
<time>2010-06-13T09:56:46.14</time>
<name>11646</name>
</trkpt>
<trkpt lat="49.183258" lon="11.819168">
<ele>590.3</ele>
<speed>1.2</speed>
<course>326.8</course>
<desc>Speed 1.2 km/h Distance 44.04 km</desc>
<time>2010-06-13T09:56:47.14</time>
<name>11647</name>
</trkpt>
<trkpt lat="49.183263" lon="11.819163">
<ele>590.9</ele>
<speed>0.3</speed>
<course>198.8</course>
<desc>Speed 0.3 km/h Distance 44.04 km</desc>
<time>2010-06-13T09:56:48.14</time>
<name>11648</name>
</trkpt>
<trkpt lat="49.183257" lon="11.819160">
<ele>589.8</ele>
<speed>0.3</speed>
<course>12.6</course>
<desc>Speed 0.3 km/h Distance 44.04 km</desc>
<time>2010-06-13T09:56:49.14</time>
<name>11649</name>
</trkpt>
<trkpt lat="49.183258" lon="11.819160">
<ele>589.7</ele>
<speed>0.9</speed>
<course>167.4</course>
<desc>Speed 0.9 km/h Distance 44.04 km</desc>
<time>2010-06-13T09:56:50.14</time>
<name>11650</name>
</trkpt>
<trkpt lat="49.183257" lon="11.819160">
<ele>589.4</ele>
<speed>0.6</speed>
<course>53.9</course>
<desc>Speed 0.6 km/h Distance 44.04 km</desc>
<time>2010-06-13T09:56:51.14</time>
<name>11651</name>
</trkpt>
<trkpt lat="49.183258" lon="11.819163">
<ele>589.2</ele>
<speed>0.5</speed>
<course>142.8</course>
<desc>Speed 0.5 km/h Distance 44.04 km</desc>
<time>2010-06-13T09:56:52.14</time>
<name>11652</name>
</trkpt>
<trkpt lat="49.183257" lon="11.819165">
<ele>588.7</ele>
<speed>0.4</speed>
<course>146.3</course>
<desc>Speed 0.4 km/h Distance 44.04 km</desc>
<time>2010-06-13T09:56:53.14</time>
<name>11653</name>
</trkpt>
<trkpt lat="49.183253" lon="11.819168">
<ele>588.5</ele>
<speed>0.6</speed>
<course>90.0</course>
<desc>Speed 0.6 km/h Distance 44.04 km</desc>
<time>2010-06-13T09:56:54.14</time>
<name>11654</name>
</trkpt>
<trkpt lat="49.183253" lon="11.819170">
<ele>588.4</ele>
<speed>0.1</speed>
<course>146.3</course>
<desc>Speed 0.1 km/h Distance 44.04 km</desc>
<time>2010-06-13T09:56:55.14</time>
<name>11655</name>
</trkpt>
<trkpt lat="49.183250" lon="11.819173">
<ele>588.2</ele>
<speed>0.4</speed>
<course>90.0</course>
<desc>Speed 0.4 km/h Distance 44.04 km</desc>
<time>2010-06-13T09:56:56.14</time>
<name>11656</name>
</trkpt>
<trkpt lat="49.183250" lon="11.819177">
<ele>588.1</ele>
<speed>0.5</speed>
<course>90.0</course>
<desc>Speed 0.5 km/h Distance 44.04 km</desc>
<time>2010-06-13T09:56:57.45</time>
<name>11657</name>
</trkpt>
<trkpt lat="49.183250" lon="11.819180">
<ele>587.9</ele>
<speed>0.1</speed>
<course>146.3</course>
<desc>Speed 0.1 km/h Distance 44.04 km</desc>
<time>2010-06-13T09:56:58.20</time>
<name>11658</name>
</trkpt>
<trkpt lat="49.183247" lon="11.819183">
<ele>587.5</ele>
<speed>0.8</speed>
<course>60.9</course>
<desc>Speed 0.8 km/h Distance 44.04 km</desc>
<time>2010-06-13T09:56:59.16</time>
<name>11659</name>
</trkpt>
<trkpt lat="49.183267" lon="11.819238">
<ele>595.3</ele>
<speed>0.1</speed>
<course>135.5</course>
<desc>Speed 0.1 km/h Distance 44.04 km</desc>
<time>2010-06-13T09:57:03.81</time>
<name>11660</name>
</trkpt>
<trkpt lat="49.183263" lon="11.819243">
<ele>595.8</ele>
<speed>0.1</speed>
<course>90.0</course>
<desc>Speed 0.1 km/h Distance 44.04 km</desc>
<time>2010-06-13T09:57:05.21</time>
<name>11661</name>
</trkpt>
<trkpt lat="49.183263" lon="11.819245">
<ele>596.0</ele>
<speed>0.1</speed>
<course>142.8</course>
<desc>Speed 0.1 km/h Distance 44.04 km</desc>
<time>2010-06-13T09:57:05.89</time>
<name>11662</name>
</trkpt>
<trkpt lat="49.183262" lon="11.819247">
<ele>596.2</ele>
<speed>0.1</speed>
<course>150.8</course>
<desc>Speed 0.1 km/h Distance 44.04 km</desc>
<time>2010-06-13T09:57:06.89</time>
<name>11663</name>
</trkpt>
<trkpt lat="49.183260" lon="11.819248">
<ele>596.4</ele>
<speed>0.2</speed>
<course>142.8</course>
<desc>Speed 0.2 km/h Distance 44.04 km</desc>
<time>2010-06-13T09:57:08.08</time>
<name>11664</name>
</trkpt>
<trkpt lat="49.183258" lon="11.819250">
<ele>596.5</ele>
<speed>0.1</speed>
<course>142.8</course>
<desc>Speed 0.1 km/h Distance 44.04 km</desc>
<time>2010-06-13T09:57:08.89</time>
<name>11665</name>
</trkpt>
<trkpt lat="49.183258" lon="11.819252">
<ele>596.7</ele>
<speed>0.2</speed>
<course>167.4</course>
<desc>Speed 0.2 km/h Distance 44.05 km</desc>
<time>2010-06-13T09:57:09.89</time>
<name>11666</name>
</trkpt>
<trkpt lat="49.183257" lon="11.819252">
<ele>596.8</ele>
<speed>0.1</speed>
<course>90.0</course>
<desc>Speed 0.1 km/h Distance 44.05 km</desc>
<time>2010-06-13T09:57:11.08</time>
<name>11667</name>
</trkpt>
<trkpt lat="49.183257" lon="11.819253">
<ele>597.0</ele>
<speed>0.2</speed>
<course>142.8</course>
<desc>Speed 0.2 km/h Distance 44.05 km</desc>
<time>2010-06-13T09:57:11.89</time>
<name>11668</name>
</trkpt>
<trkpt lat="49.183255" lon="11.819255">
<ele>597.2</ele>
<speed>0.1</speed>
<course>142.8</course>
<desc>Speed 0.1 km/h Distance 44.05 km</desc>
<time>2010-06-13T09:57:12.89</time>
<name>11669</name>
</trkpt>
<trkpt lat="49.183255" lon="11.819255">
<ele>597.4</ele>
<speed>0.1</speed>
<course>142.8</course>
<desc>Speed 0.1 km/h Distance 44.05 km</desc>
<time>2010-06-13T09:57:14.10</time>
<name>11670</name>
</trkpt>
<trkpt lat="49.183255" lon="11.819255">
<ele>597.3</ele>
<speed>0.4</speed>
<course>167.4</course>
<desc>Speed 0.4 km/h Distance 44.05 km</desc>
<time>2010-06-13T09:57:14.89</time>
<name>11671</name>
</trkpt>
<trkpt lat="49.183253" lon="11.819255">
<ele>597.2</ele>
<speed>0.4</speed>
<course>167.4</course>
<desc>Speed 0.4 km/h Distance 44.05 km</desc>
<time>2010-06-13T09:57:15.89</time>
<name>11672</name>
</trkpt>
<trkpt lat="49.183253" lon="11.819255">
<ele>597.1</ele>
<speed>0.4</speed>
<course>167.4</course>
<desc>Speed 0.4 km/h Distance 44.05 km</desc>
<time>2010-06-13T09:57:17.10</time>
<name>11673</name>
</trkpt>
<trkpt lat="49.183253" lon="11.819255">
<ele>597.0</ele>
<speed>0.5</speed>
<course>167.4</course>
<desc>Speed 0.5 km/h Distance 44.05 km</desc>
<time>2010-06-13T09:57:17.89</time>
<name>11674</name>
</trkpt>
<trkpt lat="49.183253" lon="11.819255">
<ele>597.0</ele>
<speed>0.1</speed>
<course>167.4</course>
<desc>Speed 0.1 km/h Distance 44.05 km</desc>
<time>2010-06-13T09:57:18.89</time>
<name>11675</name>
</trkpt>
<trkpt lat="49.183253" lon="11.819255">
<ele>596.9</ele>
<speed>0.1</speed>
<course>167.4</course>
<desc>Speed 0.1 km/h Distance 44.05 km</desc>
<time>2010-06-13T09:57:20.10</time>
<name>11676</name>
</trkpt>
<trkpt lat="49.183250" lon="11.819255">
<ele>596.9</ele>
<speed>0.5</speed>
<course>90.0</course>
<desc>Speed 0.5 km/h Distance 44.05 km</desc>
<time>2010-06-13T09:57:20.89</time>
<name>11677</name>
</trkpt>
<trkpt lat="49.183250" lon="11.819258">
<ele>596.8</ele>
<speed>0.4</speed>
<course>150.8</course>
<desc>Speed 0.4 km/h Distance 44.05 km</desc>
<time>2010-06-13T09:57:21.89</time>
<name>11678</name>
</trkpt>
<trkpt lat="49.183248" lon="11.819260">
<ele>596.8</ele>
<speed>0.5</speed>
<course>128.1</course>
<desc>Speed 0.5 km/h Distance 44.05 km</desc>
<time>2010-06-13T09:57:23.10</time>
<name>11679</name>
</trkpt>
<trkpt lat="49.183247" lon="11.819263">
<ele>596.5</ele>
<speed>0.8</speed>
<course>90.0</course>
<desc>Speed 0.8 km/h Distance 44.05 km</desc>
<time>2010-06-13T09:57:23.89</time>
<name>11680</name>
</trkpt>
<trkpt lat="49.183247" lon="11.819265">
<ele>596.0</ele>
<speed>0.4</speed>
<course>142.8</course>
<desc>Speed 0.4 km/h Distance 44.05 km</desc>
<time>2010-06-13T09:57:24.89</time>
<name>11681</name>
</trkpt>
<trkpt lat="49.183245" lon="11.819267">
<ele>595.5</ele>
<speed>0.3</speed>
<course>326.3</course>
<desc>Speed 0.3 km/h Distance 44.05 km</desc>
<time>2010-06-13T09:57:26.10</time>
<name>11682</name>
</trkpt>
<trkpt lat="49.183248" lon="11.819263">
<ele>595.3</ele>
<speed>0.7</speed>
<course>146.3</course>
<desc>Speed 0.7 km/h Distance 44.05 km</desc>
<time>2010-06-13T09:57:26.89</time>
<name>11683</name>
</trkpt>
<trkpt lat="49.183245" lon="11.819267">
<ele>594.9</ele>
<speed>0.4</speed>
<course>90.0</course>
<desc>Speed 0.4 km/h Distance 44.05 km</desc>
<time>2010-06-13T09:57:27.89</time>
<name>11684</name>
</trkpt>
<trkpt lat="49.183245" lon="11.819268">
<ele>594.5</ele>
<speed>0.5</speed>
<course>142.8</course>
<desc>Speed 0.5 km/h Distance 44.05 km</desc>
<time>2010-06-13T09:57:29.10</time>
<name>11685</name>
</trkpt>
<trkpt lat="49.183243" lon="11.819270">
<ele>594.2</ele>
<speed>0.1</speed>
<course>142.8</course>
<desc>Speed 0.1 km/h Distance 44.05 km</desc>
<time>2010-06-13T09:57:29.89</time>
<name>11686</name>
</trkpt>
<trkpt lat="49.183243" lon="11.819270">
<ele>593.8</ele>
<speed>0.5</speed>
<course>90.0</course>
<desc>Speed 0.5 km/h Distance 44.05 km</desc>
<time>2010-06-13T09:57:30.89</time>
<name>11687</name>
</trkpt>
<trkpt lat="49.183243" lon="11.819273">
<ele>593.5</ele>
<speed>0.6</speed>
<course>127.0</course>
<desc>Speed 0.6 km/h Distance 44.05 km</desc>
<time>2010-06-13T09:57:32.10</time>
<name>11688</name>
</trkpt>
<trkpt lat="49.183240" lon="11.819280">
<ele>593.4</ele>
<speed>0.5</speed>
<course>104.1</course>
<desc>Speed 0.5 km/h Distance 44.05 km</desc>
<time>2010-06-13T09:57:32.89</time>
<name>11689</name>
</trkpt>
<trkpt lat="49.183238" lon="11.819290">
<ele>593.4</ele>
<speed>2.0</speed>
<course>69.5</course>
<desc>Speed 2.0 km/h Distance 44.05 km</desc>
<time>2010-06-13T09:57:33.89</time>
<name>11690</name>
</trkpt>
<trkpt lat="49.183240" lon="11.819297">
<ele>593.2</ele>
<speed>2.1</speed>
<course>12.6</course>
<desc>Speed 2.1 km/h Distance 44.05 km</desc>
<time>2010-06-13T09:57:35.25</time>
<name>11691</name>
</trkpt>
<trkpt lat="49.183250" lon="11.819300">
<ele>593.3</ele>
<speed>3.9</speed>
<course>46.2</course>
<desc>Speed 3.9 km/h Distance 44.05 km</desc>
<time>2010-06-13T09:57:35.89</time>
<name>11692</name>
</trkpt>
<trkpt lat="49.183258" lon="11.819313">
<ele>592.9</ele>
<speed>5.0</speed>
<course>358.8</course>
<desc>Speed 5.0 km/h Distance 44.05 km</desc>
<time>2010-06-13T09:57:36.89</time>
<name>11693</name>
</trkpt>
<trkpt lat="49.183278" lon="11.819312">
<ele>591.5</ele>
<speed>5.9</speed>
<course>356.8</course>
<desc>Speed 5.9 km/h Distance 44.06 km</desc>
<time>2010-06-13T09:57:37.89</time>
<name>11694</name>
</trkpt>
<trkpt lat="49.183300" lon="11.819310">
<ele>590.6</ele>
<speed>6.1</speed>
<course>338.5</course>
<desc>Speed 6.1 km/h Distance 44.06 km</desc>
<time>2010-06-13T09:57:38.89</time>
<name>11695</name>
</trkpt>
<trkpt lat="49.183325" lon="11.819295">
<ele>590.2</ele>
<speed>8.7</speed>
<course>320.8</course>
<desc>Speed 8.7 km/h Distance 44.06 km</desc>
<time>2010-06-13T09:57:39.89</time>
<name>11696</name>
</trkpt>
<trkpt lat="49.183345" lon="11.819270">
<ele>590.2</ele>
<speed>9.6</speed>
<course>301.5</course>
<desc>Speed 9.6 km/h Distance 44.06 km</desc>
<time>2010-06-13T09:57:40.89</time>
<name>11697</name>
</trkpt>
<trkpt lat="49.183358" lon="11.819237">
<ele>590.3</ele>
<speed>9.0</speed>
<course>262.7</course>
<desc>Speed 9.0 km/h Distance 44.07 km</desc>
<time>2010-06-13T09:57:41.89</time>
<name>11698</name>
</trkpt>
<trkpt lat="49.183355" lon="11.819197">
<ele>588.1</ele>
<speed>9.4</speed>
<course>288.4</course>
<desc>Speed 9.4 km/h Distance 44.07 km</desc>
<time>2010-06-13T09:57:42.89</time>
<name>11699</name>
</trkpt>
<trkpt lat="49.183363" lon="11.819158">
<ele>588.1</ele>
<speed>9.7</speed>
<course>280.8</course>
<desc>Speed 9.7 km/h Distance 44.07 km</desc>
<time>2010-06-13T09:57:43.89</time>
<name>11700</name>
</trkpt>
<trkpt lat="49.183368" lon="11.819118">
<ele>587.9</ele>
<speed>10.0</speed>
<course>277.3</course>
<desc>Speed 10.0 km/h Distance 44.08 km</desc>
<time>2010-06-13T09:57:44.89</time>
<name>11701</name>
</trkpt>
<trkpt lat="49.183372" lon="11.819078">
<ele>587.7</ele>
<speed>10.3</speed>
<course>280.8</course>
<desc>Speed 10.3 km/h Distance 44.08 km</desc>
<time>2010-06-13T09:57:45.89</time>
<name>11702</name>
</trkpt>
<trkpt lat="49.183377" lon="11.819038">
<ele>587.4</ele>
<speed>10.5</speed>
<course>287.0</course>
<desc>Speed 10.5 km/h Distance 44.08 km</desc>
<time>2010-06-13T09:57:46.89</time>
<name>11703</name>
</trkpt>
<trkpt lat="49.183385" lon="11.818997">
<ele>587.1</ele>
<speed>10.7</speed>
<course>287.7</course>
<desc>Speed 10.7 km/h Distance 44.08 km</desc>
<time>2010-06-13T09:57:47.89</time>
<name>11704</name>
</trkpt>
<trkpt lat="49.183393" lon="11.818957">
<ele>586.3</ele>
<speed>10.7</speed>
<course>295.2</course>
<desc>Speed 10.7 km/h Distance 44.09 km</desc>
<time>2010-06-13T09:57:48.89</time>
<name>11705</name>
</trkpt>
<trkpt lat="49.183407" lon="11.818913">
<ele>584.4</ele>
<speed>10.7</speed>
<course>288.4</course>
<desc>Speed 10.7 km/h Distance 44.09 km</desc>
<time>2010-06-13T09:57:49.89</time>
<name>11706</name>
</trkpt>
<trkpt lat="49.183415" lon="11.818875">
<ele>583.8</ele>
<speed>10.3</speed>
<course>295.0</course>
<desc>Speed 10.3 km/h Distance 44.09 km</desc>
<time>2010-06-13T09:57:50.89</time>
<name>11707</name>
</trkpt>
<trkpt lat="49.183427" lon="11.818837">
<ele>583.4</ele>
<speed>10.7</speed>
<course>305.1</course>
<desc>Speed 10.7 km/h Distance 44.10 km</desc>
<time>2010-06-13T09:57:51.89</time>
<name>11708</name>
</trkpt>
<trkpt lat="49.183445" lon="11.818797">
<ele>582.0</ele>
<speed>10.5</speed>
<course>307.4</course>
<desc>Speed 10.5 km/h Distance 44.10 km</desc>
<time>2010-06-13T09:57:52.89</time>
<name>11709</name>
</trkpt>
<trkpt lat="49.183462" lon="11.818763">
<ele>581.6</ele>
<speed>10.5</speed>
<course>317.2</course>
<desc>Speed 10.5 km/h Distance 44.10 km</desc>
<time>2010-06-13T09:57:53.89</time>
<name>11710</name>
</trkpt>
<trkpt lat="49.183482" lon="11.818735">
<ele>581.1</ele>
<speed>10.8</speed>
<course>330.5</course>
<desc>Speed 10.8 km/h Distance 44.11 km</desc>
<time>2010-06-13T09:57:54.89</time>
<name>11711</name>
</trkpt>
<trkpt lat="49.183507" lon="11.818713">
<ele>580.8</ele>
<speed>11.3</speed>
<course>344.6</course>
<desc>Speed 11.3 km/h Distance 44.11 km</desc>
<time>2010-06-13T09:57:55.89</time>
<name>11712</name>
</trkpt>
<trkpt lat="49.183538" lon="11.818700">
<ele>580.5</ele>
<speed>12.0</speed>
<course>354.2</course>
<desc>Speed 12.0 km/h Distance 44.11 km</desc>
<time>2010-06-13T09:57:56.89</time>
<name>11713</name>
</trkpt>
<trkpt lat="49.183570" lon="11.818695">
<ele>580.4</ele>
<speed>12.5</speed>
<course>0.9</course>
<desc>Speed 12.5 km/h Distance 44.12 km</desc>
<time>2010-06-13T09:57:57.89</time>
<name>11714</name>
</trkpt>
<trkpt lat="49.183602" lon="11.818695">
<ele>580.0</ele>
<speed>13.6</speed>
<course>0.4</course>
<desc>Speed 13.6 km/h Distance 44.12 km</desc>
<time>2010-06-13T09:57:58.89</time>
<name>11715</name>
</trkpt>
<trkpt lat="49.183640" lon="11.818695">
<ele>580.1</ele>
<speed>14.2</speed>
<course>356.6</course>
<desc>Speed 14.2 km/h Distance 44.12 km</desc>
<time>2010-06-13T09:57:59.89</time>
<name>11716</name>
</trkpt>
<trkpt lat="49.183677" lon="11.818692">
<ele>580.1</ele>
<speed>14.2</speed>
<course>346.0</course>
<desc>Speed 14.2 km/h Distance 44.13 km</desc>
<time>2010-06-13T09:58:00.89</time>
<name>11717</name>
</trkpt>
<trkpt lat="49.183712" lon="11.818678">
<ele>580.2</ele>
<speed>14.3</speed>
<course>333.9</course>
<desc>Speed 14.3 km/h Distance 44.13 km</desc>
<time>2010-06-13T09:58:01.89</time>
<name>11718</name>
</trkpt>
<trkpt lat="49.183745" lon="11.818653">
<ele>580.3</ele>
<speed>14.5</speed>
<course>319.8</course>
<desc>Speed 14.5 km/h Distance 44.14 km</desc>
<time>2010-06-13T09:58:02.89</time>
<name>11719</name>
</trkpt>
<trkpt lat="49.183773" lon="11.818617">
<ele>580.4</ele>
<speed>14.6</speed>
<course>312.9</course>
<desc>Speed 14.6 km/h Distance 44.14 km</desc>
<time>2010-06-13T09:58:03.89</time>
<name>11720</name>
</trkpt>
<trkpt lat="49.183802" lon="11.818570">
<ele>581.1</ele>
<speed>15.1</speed>
<course>301.9</course>
<desc>Speed 15.1 km/h Distance 44.15 km</desc>
<time>2010-06-13T09:58:04.89</time>
<name>11721</name>
</trkpt>
<trkpt lat="49.183823" lon="11.818517">
<ele>581.6</ele>
<speed>15.0</speed>
<course>292.0</course>
<desc>Speed 15.0 km/h Distance 44.15 km</desc>
<time>2010-06-13T09:58:05.89</time>
<name>11722</name>
</trkpt>
<trkpt lat="49.183838" lon="11.818460">
<ele>581.7</ele>
<speed>15.0</speed>
<course>277.5</course>
<desc>Speed 15.0 km/h Distance 44.15 km</desc>
<time>2010-06-13T09:58:06.89</time>
<name>11723</name>
</trkpt>
<trkpt lat="49.183843" lon="11.818402">
<ele>582.0</ele>
<speed>15.1</speed>
<course>264.9</course>
<desc>Speed 15.1 km/h Distance 44.16 km</desc>
<time>2010-06-13T09:58:07.89</time>
<name>11724</name>
</trkpt>
<trkpt lat="49.183840" lon="11.818345">
<ele>582.3</ele>
<speed>15.0</speed>
<course>249.1</course>
<desc>Speed 15.0 km/h Distance 44.16 km</desc>
<time>2010-06-13T09:58:08.89</time>
<name>11725</name>
</trkpt>
<trkpt lat="49.183827" lon="11.818292">
<ele>582.5</ele>
<speed>15.4</speed>
<course>236.5</course>
<desc>Speed 15.4 km/h Distance 44.17 km</desc>
<time>2010-06-13T09:58:09.89</time>
<name>11726</name>
</trkpt>
<trkpt lat="49.183805" lon="11.818242">
<ele>582.9</ele>
<speed>15.0</speed>
<course>220.2</course>
<desc>Speed 15.0 km/h Distance 44.17 km</desc>
<time>2010-06-13T09:58:10.89</time>
<name>11727</name>
</trkpt>
<trkpt lat="49.183777" lon="11.818205">
<ele>582.9</ele>
<speed>15.1</speed>
<course>209.3</course>
<desc>Speed 15.1 km/h Distance 44.18 km</desc>
<time>2010-06-13T09:58:11.89</time>
<name>11728</name>
</trkpt>
<trkpt lat="49.183742" lon="11.818175">
<ele>582.9</ele>
<speed>15.8</speed>
<course>196.1</course>
<desc>Speed 15.8 km/h Distance 44.18 km</desc>
<time>2010-06-13T09:58:12.89</time>
<name>11729</name>
</trkpt>
<trkpt lat="49.183700" lon="11.818157">
<ele>582.9</ele>
<speed>16.9</speed>
<course>182.9</course>
<desc>Speed 16.9 km/h Distance 44.19 km</desc>
<time>2010-06-13T09:58:13.89</time>
<name>11730</name>
</trkpt>
<trkpt lat="49.183658" lon="11.818153">
<ele>583.1</ele>
<speed>17.9</speed>
<course>172.0</course>
<desc>Speed 17.9 km/h Distance 44.19 km</desc>
<time>2010-06-13T09:58:14.89</time>
<name>11731</name>
</trkpt>
<trkpt lat="49.183612" lon="11.818163">
<ele>583.2</ele>
<speed>19.0</speed>
<course>155.3</course>
<desc>Speed 19.0 km/h Distance 44.19 km</desc>
<time>2010-06-13T09:58:15.89</time>
<name>11732</name>
</trkpt>
<trkpt lat="49.183567" lon="11.818195">
<ele>583.4</ele>
<speed>20.7</speed>
<course>147.8</course>
<desc>Speed 20.7 km/h Distance 44.20 km</desc>
<time>2010-06-13T09:58:16.89</time>
<name>11733</name>
</trkpt>
<trkpt lat="49.183522" lon="11.818238">
<ele>583.4</ele>
<speed>22.0</speed>
<course>145.0</course>
<desc>Speed 22.0 km/h Distance 44.21 km</desc>
<time>2010-06-13T09:58:17.89</time>
<name>11734</name>
</trkpt>
<trkpt lat="49.183475" lon="11.818288">
<ele>583.5</ele>
<speed>22.3</speed>
<course>152.4</course>
<desc>Speed 22.3 km/h Distance 44.21 km</desc>
<time>2010-06-13T09:58:18.89</time>
<name>11735</name>
</trkpt>
<trkpt lat="49.183425" lon="11.818328">
<ele>583.6</ele>
<speed>22.9</speed>
<course>163.5</course>
<desc>Speed 22.9 km/h Distance 44.22 km</desc>
<time>2010-06-13T09:58:19.89</time>
<name>11736</name>
</trkpt>
<trkpt lat="49.183370" lon="11.818353">
<ele>583.7</ele>
<speed>22.8</speed>
<course>174.2</course>
<desc>Speed 22.8 km/h Distance 44.23 km</desc>
<time>2010-06-13T09:58:20.89</time>
<name>11737</name>
</trkpt>
<trkpt lat="49.183315" lon="11.818362">
<ele>583.7</ele>
<speed>22.8</speed>
<course>179.1</course>
<desc>Speed 22.8 km/h Distance 44.23 km</desc>
<time>2010-06-13T09:58:21.89</time>
<name>11738</name>
</trkpt>
<trkpt lat="49.183255" lon="11.818362">
<ele>583.6</ele>
<speed>23.4</speed>
<course>181.1</course>
<desc>Speed 23.4 km/h Distance 44.24 km</desc>
<time>2010-06-13T09:58:22.89</time>
<name>11739</name>
</trkpt>
<trkpt lat="49.183197" lon="11.818360">
<ele>583.7</ele>
<speed>23.2</speed>
<course>181.1</course>
<desc>Speed 23.2 km/h Distance 44.24 km</desc>
<time>2010-06-13T09:58:23.89</time>
<name>11740</name>
</trkpt>
<trkpt lat="49.183138" lon="11.818358">
<ele>584.0</ele>
<speed>23.6</speed>
<course>179.8</course>
<desc>Speed 23.6 km/h Distance 44.25 km</desc>
<time>2010-06-13T09:58:24.89</time>
<name>11741</name>
</trkpt>
<trkpt lat="49.183077" lon="11.818358">
<ele>584.0</ele>
<speed>24.3</speed>
<course>182.0</course>
<desc>Speed 24.3 km/h Distance 44.26 km</desc>
<time>2010-06-13T09:58:25.89</time>
<name>11742</name>
</trkpt>
<trkpt lat="49.183015" lon="11.818355">
<ele>583.8</ele>
<speed>24.7</speed>
<course>181.8</course>
<desc>Speed 24.7 km/h Distance 44.26 km</desc>
<time>2010-06-13T09:58:26.89</time>
<name>11743</name>
</trkpt>
<trkpt lat="49.182952" lon="11.818352">
<ele>583.7</ele>
<speed>25.8</speed>
<course>181.8</course>
<desc>Speed 25.8 km/h Distance 44.27 km</desc>
<time>2010-06-13T09:58:27.89</time>
<name>11744</name>
</trkpt>
<trkpt lat="49.182887" lon="11.818348">
<ele>583.8</ele>
<speed>26.0</speed>
<course>181.8</course>
<desc>Speed 26.0 km/h Distance 44.28 km</desc>
<time>2010-06-13T09:58:28.89</time>
<name>11745</name>
</trkpt>
<trkpt lat="49.182822" lon="11.818345">
<ele>583.6</ele>
<speed>25.1</speed>
<course>180.9</course>
<desc>Speed 25.1 km/h Distance 44.29 km</desc>
<time>2010-06-13T09:58:29.89</time>
<name>11746</name>
</trkpt>
<trkpt lat="49.182758" lon="11.818343">
<ele>583.6</ele>
<speed>25.2</speed>
<course>180.9</course>
<desc>Speed 25.2 km/h Distance 44.29 km</desc>
<time>2010-06-13T09:58:30.89</time>
<name>11747</name>
</trkpt>
<trkpt lat="49.182695" lon="11.818342">
<ele>583.4</ele>
<speed>25.7</speed>
<course>180.6</course>
<desc>Speed 25.7 km/h Distance 44.30 km</desc>
<time>2010-06-13T09:58:31.89</time>
<name>11748</name>
</trkpt>
<trkpt lat="49.182628" lon="11.818340">
<ele>583.4</ele>
<speed>27.0</speed>
<course>181.8</course>
<desc>Speed 27.0 km/h Distance 44.31 km</desc>
<time>2010-06-13T09:58:32.89</time>
<name>11749</name>
</trkpt>
<trkpt lat="49.182560" lon="11.818337">
<ele>583.2</ele>
<speed>27.4</speed>
<course>181.7</course>
<desc>Speed 27.4 km/h Distance 44.32 km</desc>
<time>2010-06-13T09:58:33.89</time>
<name>11750</name>
</trkpt>
<trkpt lat="49.182490" lon="11.818333">
<ele>583.1</ele>
<speed>28.0</speed>
<course>178.2</course>
<desc>Speed 28.0 km/h Distance 44.32 km</desc>
<time>2010-06-13T09:58:34.89</time>
<name>11751</name>
</trkpt>
<trkpt lat="49.182420" lon="11.818337">
<ele>582.8</ele>
<speed>28.3</speed>
<course>178.2</course>
<desc>Speed 28.3 km/h Distance 44.33 km</desc>
<time>2010-06-13T09:58:35.89</time>
<name>11752</name>
</trkpt>
<trkpt lat="49.182348" lon="11.818340">
<ele>582.5</ele>
<speed>28.6</speed>
<course>177.5</course>
<desc>Speed 28.6 km/h Distance 44.34 km</desc>
<time>2010-06-13T09:58:36.89</time>
<name>11753</name>
</trkpt>
<trkpt lat="49.182275" lon="11.818345">
<ele>582.1</ele>
<speed>29.6</speed>
<course>176.7</course>
<desc>Speed 29.6 km/h Distance 44.35 km</desc>
<time>2010-06-13T09:58:37.89</time>
<name>11754</name>
</trkpt>
<trkpt lat="49.182200" lon="11.818352">
<ele>581.6</ele>
<speed>30.7</speed>
<course>176.9</course>
<desc>Speed 30.7 km/h Distance 44.36 km</desc>
<time>2010-06-13T09:58:38.89</time>
<name>11755</name>
</trkpt>
<trkpt lat="49.182120" lon="11.818358">
<ele>581.0</ele>
<speed>31.8</speed>
<course>175.3</course>
<desc>Speed 31.8 km/h Distance 44.36 km</desc>
<time>2010-06-13T09:58:39.89</time>
<name>11756</name>
</trkpt>
<trkpt lat="49.182040" lon="11.818368">
<ele>580.7</ele>
<speed>33.1</speed>
<course>174.9</course>
<desc>Speed 33.1 km/h Distance 44.37 km</desc>
<time>2010-06-13T09:58:40.89</time>
<name>11757</name>
</trkpt>
<trkpt lat="49.181955" lon="11.818380">
<ele>580.3</ele>
<speed>33.8</speed>
<course>174.9</course>
<desc>Speed 33.8 km/h Distance 44.38 km</desc>
<time>2010-06-13T09:58:41.89</time>
<name>11758</name>
</trkpt>
<trkpt lat="49.181870" lon="11.818392">
<ele>580.2</ele>
<speed>34.5</speed>
<course>173.4</course>
<desc>Speed 34.5 km/h Distance 44.39 km</desc>
<time>2010-06-13T09:58:42.89</time>
<name>11759</name>
</trkpt>
<trkpt lat="49.181785" lon="11.818407">
<ele>580.3</ele>
<speed>34.7</speed>
<course>171.3</course>
<desc>Speed 34.7 km/h Distance 44.40 km</desc>
<time>2010-06-13T09:58:43.89</time>
<name>11760</name>
</trkpt>
<trkpt lat="49.181700" lon="11.818427">
<ele>580.2</ele>
<speed>34.7</speed>
<course>169.1</course>
<desc>Speed 34.7 km/h Distance 44.41 km</desc>
<time>2010-06-13T09:58:44.89</time>
<name>11761</name>
</trkpt>
<trkpt lat="49.181615" lon="11.818452">
<ele>580.4</ele>
<speed>35.0</speed>
<course>167.0</course>
<desc>Speed 35.0 km/h Distance 44.42 km</desc>
<time>2010-06-13T09:58:45.89</time>
<name>11762</name>
</trkpt>
<trkpt lat="49.181530" lon="11.818482">
<ele>580.3</ele>
<speed>35.2</speed>
<course>164.9</course>
<desc>Speed 35.2 km/h Distance 44.43 km</desc>
<time>2010-06-13T09:58:46.89</time>
<name>11763</name>
</trkpt>
<trkpt lat="49.181445" lon="11.818517">
<ele>579.8</ele>
<speed>35.5</speed>
<course>163.9</course>
<desc>Speed 35.5 km/h Distance 44.44 km</desc>
<time>2010-06-13T09:58:47.89</time>
<name>11764</name>
</trkpt>
<trkpt lat="49.181358" lon="11.818555">
<ele>579.2</ele>
<speed>36.1</speed>
<course>163.5</course>
<desc>Speed 36.1 km/h Distance 44.45 km</desc>
<time>2010-06-13T09:58:48.89</time>
<name>11765</name>
</trkpt>
<trkpt lat="49.181270" lon="11.818595">
<ele>578.9</ele>
<speed>37.0</speed>
<course>162.2</course>
<desc>Speed 37.0 km/h Distance 44.46 km</desc>
<time>2010-06-13T09:58:49.89</time>
<name>11766</name>
</trkpt>
<trkpt lat="49.181182" lon="11.818638">
<ele>578.6</ele>
<speed>37.5</speed>
<course>161.3</course>
<desc>Speed 37.5 km/h Distance 44.47 km</desc>
<time>2010-06-13T09:58:50.89</time>
<name>11767</name>
</trkpt>
<trkpt lat="49.181092" lon="11.818685">
<ele>578.2</ele>
<speed>38.1</speed>
<course>159.1</course>
<desc>Speed 38.1 km/h Distance 44.48 km</desc>
<time>2010-06-13T09:58:51.89</time>
<name>11768</name>
</trkpt>
<trkpt lat="49.181003" lon="11.818737">
<ele>578.0</ele>
<speed>38.4</speed>
<course>158.8</course>
<desc>Speed 38.4 km/h Distance 44.49 km</desc>
<time>2010-06-13T09:58:52.89</time>
<name>11769</name>
</trkpt>
<trkpt lat="49.180913" lon="11.818790">
<ele>577.8</ele>
<speed>38.8</speed>
<course>157.4</course>
<desc>Speed 38.8 km/h Distance 44.50 km</desc>
<time>2010-06-13T09:58:53.89</time>
<name>11770</name>
</trkpt>
<trkpt lat="49.180822" lon="11.818848">
<ele>577.5</ele>
<speed>39.3</speed>
<course>154.3</course>
<desc>Speed 39.3 km/h Distance 44.51 km</desc>
<time>2010-06-13T09:58:54.89</time>
<name>11771</name>
</trkpt>
<trkpt lat="49.180733" lon="11.818913">
<ele>577.3</ele>
<speed>39.6</speed>
<course>153.2</course>
<desc>Speed 39.6 km/h Distance 44.53 km</desc>
<time>2010-06-13T09:58:55.89</time>
<name>11772</name>
</trkpt>
<trkpt lat="49.180645" lon="11.818982">
<ele>577.1</ele>
<speed>39.3</speed>
<course>151.1</course>
<desc>Speed 39.3 km/h Distance 44.54 km</desc>
<time>2010-06-13T09:58:56.89</time>
<name>11773</name>
</trkpt>
<trkpt lat="49.180558" lon="11.819055">
<ele>576.9</ele>
<speed>39.3</speed>
<course>149.0</course>
<desc>Speed 39.3 km/h Distance 44.55 km</desc>
<time>2010-06-13T09:58:57.89</time>
<name>11774</name>
</trkpt>
<trkpt lat="49.180475" lon="11.819132">
<ele>576.7</ele>
<speed>39.0</speed>
<course>147.4</course>
<desc>Speed 39.0 km/h Distance 44.56 km</desc>
<time>2010-06-13T09:58:58.89</time>
<name>11775</name>
</trkpt>
<trkpt lat="49.180392" lon="11.819213">
<ele>576.5</ele>
<speed>38.9</speed>
<course>145.2</course>
<desc>Speed 38.9 km/h Distance 44.57 km</desc>
<time>2010-06-13T09:58:59.89</time>
<name>11776</name>
</trkpt>
<trkpt lat="49.180312" lon="11.819298">
<ele>576.4</ele>
<speed>39.7</speed>
<course>144.2</course>
<desc>Speed 39.7 km/h Distance 44.58 km</desc>
<time>2010-06-13T09:59:00.89</time>
<name>11777</name>
</trkpt>
<trkpt lat="49.180230" lon="11.819388">
<ele>576.2</ele>
<speed>40.2</speed>
<course>141.6</course>
<desc>Speed 40.2 km/h Distance 44.59 km</desc>
<time>2010-06-13T09:59:01.89</time>
<name>11778</name>
</trkpt>
<trkpt lat="49.180152" lon="11.819483">
<ele>576.4</ele>
<speed>40.1</speed>
<course>141.6</course>
<desc>Speed 40.1 km/h Distance 44.60 km</desc>
<time>2010-06-13T09:59:02.89</time>
<name>11779</name>
</trkpt>
<trkpt lat="49.180073" lon="11.819578">
<ele>576.7</ele>
<speed>40.1</speed>
<course>140.0</course>
<desc>Speed 40.1 km/h Distance 44.61 km</desc>
<time>2010-06-13T09:59:03.89</time>
<name>11780</name>
</trkpt>
<trkpt lat="49.179997" lon="11.819677">
<ele>576.7</ele>
<speed>40.1</speed>
<course>138.5</course>
<desc>Speed 40.1 km/h Distance 44.62 km</desc>
<time>2010-06-13T09:59:04.89</time>
<name>11781</name>
</trkpt>
<trkpt lat="49.179922" lon="11.819778">
<ele>576.8</ele>
<speed>39.4</speed>
<course>136.0</course>
<desc>Speed 39.4 km/h Distance 44.64 km</desc>
<time>2010-06-13T09:59:05.89</time>
<name>11782</name>
</trkpt>
<trkpt lat="49.179852" lon="11.819882">
<ele>577.0</ele>
<speed>39.0</speed>
<course>137.6</course>
<desc>Speed 39.0 km/h Distance 44.65 km</desc>
<time>2010-06-13T09:59:06.89</time>
<name>11783</name>
</trkpt>
<trkpt lat="49.179780" lon="11.819982">
<ele>577.0</ele>
<speed>38.3</speed>
<course>137.4</course>
<desc>Speed 38.3 km/h Distance 44.66 km</desc>
<time>2010-06-13T09:59:07.89</time>
<name>11784</name>
</trkpt>
<trkpt lat="49.179710" lon="11.820080">
<ele>577.2</ele>
<speed>38.1</speed>
<course>137.9</course>
<desc>Speed 38.1 km/h Distance 44.67 km</desc>
<time>2010-06-13T09:59:08.89</time>
<name>11785</name>
</trkpt>
<trkpt lat="49.179640" lon="11.820177">
<ele>577.4</ele>
<speed>37.8</speed>
<course>136.3</course>
<desc>Speed 37.8 km/h Distance 44.68 km</desc>
<time>2010-06-13T09:59:09.89</time>
<name>11786</name>
</trkpt>
<trkpt lat="49.179572" lon="11.820277">
<ele>577.5</ele>
<speed>36.6</speed>
<course>135.8</course>
<desc>Speed 36.6 km/h Distance 44.69 km</desc>
<time>2010-06-13T09:59:10.89</time>
<name>11787</name>
</trkpt>
<trkpt lat="49.179507" lon="11.820373">
<ele>577.6</ele>
<speed>36.7</speed>
<course>135.3</course>
<desc>Speed 36.7 km/h Distance 44.70 km</desc>
<time>2010-06-13T09:59:11.89</time>
<name>11788</name>
</trkpt>
<trkpt lat="49.179442" lon="11.820472">
<ele>577.8</ele>
<speed>36.1</speed>
<course>135.1</course>
<desc>Speed 36.1 km/h Distance 44.71 km</desc>
<time>2010-06-13T09:59:12.89</time>
<name>11789</name>
</trkpt>
<trkpt lat="49.179378" lon="11.820568">
<ele>578.1</ele>
<speed>35.2</speed>
<course>135.3</course>
<desc>Speed 35.2 km/h Distance 44.72 km</desc>
<time>2010-06-13T09:59:13.89</time>
<name>11790</name>
</trkpt>
<trkpt lat="49.179317" lon="11.820662">
<ele>578.3</ele>
<speed>34.3</speed>
<course>134.5</course>
<desc>Speed 34.3 km/h Distance 44.73 km</desc>
<time>2010-06-13T09:59:14.89</time>
<name>11791</name>
</trkpt>
<trkpt lat="49.179257" lon="11.820755">
<ele>578.5</ele>
<speed>34.2</speed>
<course>134.8</course>
<desc>Speed 34.2 km/h Distance 44.74 km</desc>
<time>2010-06-13T09:59:15.89</time>
<name>11792</name>
</trkpt>
<trkpt lat="49.179198" lon="11.820845">
<ele>578.6</ele>
<speed>33.1</speed>
<course>133.4</course>
<desc>Speed 33.1 km/h Distance 44.75 km</desc>
<time>2010-06-13T09:59:16.89</time>
<name>11793</name>
</trkpt>
<trkpt lat="49.179142" lon="11.820937">
<ele>578.6</ele>
<speed>32.6</speed>
<course>134.5</course>
<desc>Speed 32.6 km/h Distance 44.76 km</desc>
<time>2010-06-13T09:59:17.89</time>
<name>11794</name>
</trkpt>
<trkpt lat="49.179085" lon="11.821025">
<ele>578.6</ele>
<speed>32.5</speed>
<course>135.6</course>
<desc>Speed 32.5 km/h Distance 44.77 km</desc>
<time>2010-06-13T09:59:18.89</time>
<name>11795</name>
</trkpt>
<trkpt lat="49.179028" lon="11.821110">
<ele>578.6</ele>
<speed>31.6</speed>
<course>138.1</course>
<desc>Speed 31.6 km/h Distance 44.77 km</desc>
<time>2010-06-13T09:59:19.89</time>
<name>11796</name>
</trkpt>
<trkpt lat="49.178970" lon="11.821190">
<ele>578.6</ele>
<speed>31.2</speed>
<course>139.5</course>
<desc>Speed 31.2 km/h Distance 44.78 km</desc>
<time>2010-06-13T09:59:20.89</time>
<name>11797</name>
</trkpt>
<trkpt lat="49.178910" lon="11.821268">
<ele>578.6</ele>
<speed>31.1</speed>
<course>140.0</course>
<desc>Speed 31.1 km/h Distance 44.79 km</desc>
<time>2010-06-13T09:59:21.89</time>
<name>11798</name>
</trkpt>
<trkpt lat="49.178852" lon="11.821343">
<ele>578.6</ele>
<speed>31.1</speed>
<course>143.4</course>
<desc>Speed 31.1 km/h Distance 44.80 km</desc>
<time>2010-06-13T09:59:22.89</time>
<name>11799</name>
</trkpt>
<trkpt lat="49.178790" lon="11.821413">
<ele>578.5</ele>
<speed>30.0</speed>
<course>145.4</course>
<desc>Speed 30.0 km/h Distance 44.81 km</desc>
<time>2010-06-13T09:59:23.89</time>
<name>11800</name>
</trkpt>
<trkpt lat="49.178728" lon="11.821478">
<ele>578.4</ele>
<speed>29.9</speed>
<course>146.8</course>
<desc>Speed 29.9 km/h Distance 44.82 km</desc>
<time>2010-06-13T09:59:24.89</time>
<name>11801</name>
</trkpt>
<trkpt lat="49.178667" lon="11.821540">
<ele>578.2</ele>
<speed>29.9</speed>
<course>149.0</course>
<desc>Speed 29.9 km/h Distance 44.83 km</desc>
<time>2010-06-13T09:59:25.89</time>
<name>11802</name>
</trkpt>
<trkpt lat="49.178603" lon="11.821598">
<ele>577.9</ele>
<speed>29.5</speed>
<course>151.1</course>
<desc>Speed 29.5 km/h Distance 44.83 km</desc>
<time>2010-06-13T09:59:26.89</time>
<name>11803</name>
</trkpt>
<trkpt lat="49.178538" lon="11.821653">
<ele>577.8</ele>
<speed>29.3</speed>
<course>152.6</course>
<desc>Speed 29.3 km/h Distance 44.84 km</desc>
<time>2010-06-13T09:59:27.89</time>
<name>11804</name>
</trkpt>
<trkpt lat="49.178473" lon="11.821705">
<ele>577.6</ele>
<speed>29.4</speed>
<course>153.1</course>
<desc>Speed 29.4 km/h Distance 44.85 km</desc>
<time>2010-06-13T09:59:28.89</time>
<name>11805</name>
</trkpt>
<trkpt lat="49.178407" lon="11.821757">
<ele>577.5</ele>
<speed>29.8</speed>
<course>154.6</course>
<desc>Speed 29.8 km/h Distance 44.86 km</desc>
<time>2010-06-13T09:59:29.89</time>
<name>11806</name>
</trkpt>
<trkpt lat="49.178340" lon="11.821805">
<ele>577.4</ele>
<speed>29.5</speed>
<course>154.6</course>
<desc>Speed 29.5 km/h Distance 44.87 km</desc>
<time>2010-06-13T09:59:30.89</time>
<name>11807</name>
</trkpt>
<trkpt lat="49.178273" lon="11.821853">
<ele>577.3</ele>
<speed>30.2</speed>
<course>158.0</course>
<desc>Speed 30.2 km/h Distance 44.88 km</desc>
<time>2010-06-13T09:59:31.89</time>
<name>11808</name>
</trkpt>
<trkpt lat="49.178203" lon="11.821897">
<ele>577.3</ele>
<speed>30.1</speed>
<course>160.7</course>
<desc>Speed 30.1 km/h Distance 44.88 km</desc>
<time>2010-06-13T09:59:32.89</time>
<name>11809</name>
</trkpt>
<trkpt lat="49.178132" lon="11.821935">
<ele>577.3</ele>
<speed>30.4</speed>
<course>163.4</course>
<desc>Speed 30.4 km/h Distance 44.89 km</desc>
<time>2010-06-13T09:59:33.89</time>
<name>11810</name>
</trkpt>
<trkpt lat="49.178058" lon="11.821968">
<ele>576.8</ele>
<speed>30.2</speed>
<course>164.2</course>
<desc>Speed 30.2 km/h Distance 44.90 km</desc>
<time>2010-06-13T09:59:34.89</time>
<name>11811</name>
</trkpt>
<trkpt lat="49.177985" lon="11.822000">
<ele>576.5</ele>
<speed>30.8</speed>
<course>166.4</course>
<desc>Speed 30.8 km/h Distance 44.91 km</desc>
<time>2010-06-13T09:59:35.89</time>
<name>11812</name>
</trkpt>
<trkpt lat="49.177908" lon="11.822028">
<ele>576.1</ele>
<speed>30.8</speed>
<course>166.7</course>
<desc>Speed 30.8 km/h Distance 44.92 km</desc>
<time>2010-06-13T09:59:36.89</time>
<name>11813</name>
</trkpt>
<trkpt lat="49.177830" lon="11.822057">
<ele>575.8</ele>
<speed>32.3</speed>
<course>167.5</course>
<desc>Speed 32.3 km/h Distance 44.93 km</desc>
<time>2010-06-13T09:59:37.89</time>
<name>11814</name>
</trkpt>
<trkpt lat="49.177752" lon="11.822083">
<ele>575.3</ele>
<speed>32.4</speed>
<course>167.2</course>
<desc>Speed 32.4 km/h Distance 44.94 km</desc>
<time>2010-06-13T09:59:38.89</time>
<name>11815</name>
</trkpt>
<trkpt lat="49.177670" lon="11.822112">
<ele>574.9</ele>
<speed>32.9</speed>
<course>172.4</course>
<desc>Speed 32.9 km/h Distance 44.94 km</desc>
<time>2010-06-13T09:59:39.89</time>
<name>11816</name>
</trkpt>
<trkpt lat="49.177597" lon="11.822127">
<ele>574.8</ele>
<speed>28.5</speed>
<course>174.9</course>
<desc>Speed 28.5 km/h Distance 44.95 km</desc>
<time>2010-06-13T09:59:40.89</time>
<name>11817</name>
</trkpt>
<trkpt lat="49.177537" lon="11.822135">
<ele>574.1</ele>
<speed>22.5</speed>
<course>210.9</course>
<desc>Speed 22.5 km/h Distance 44.96 km</desc>
<time>2010-06-13T09:59:41.89</time>
<name>11818</name>
</trkpt>
<trkpt lat="49.177497" lon="11.822098">
<ele>572.5</ele>
<speed>6.1</speed>
<course>280.2</course>
<desc>Speed 6.1 km/h Distance 44.97 km</desc>
<time>2010-06-13T09:59:44.89</time>
<name>11819</name>
</trkpt>
<trkpt lat="49.177500" lon="11.822070">
<ele>572.3</ele>
<speed>6.1</speed>
<course>318.3</course>
<desc>Speed 6.1 km/h Distance 44.97 km</desc>
<time>2010-06-13T09:59:45.89</time>
<name>11820</name>
</trkpt>
<trkpt lat="49.177518" lon="11.822045">
<ele>572.5</ele>
<speed>8.5</speed>
<course>292.7</course>
<desc>Speed 8.5 km/h Distance 44.97 km</desc>
<time>2010-06-13T09:59:46.89</time>
<name>11821</name>
</trkpt>
<trkpt lat="49.177528" lon="11.822008">
<ele>572.8</ele>
<speed>10.7</speed>
<course>273.1</course>
<desc>Speed 10.7 km/h Distance 44.97 km</desc>
<time>2010-06-13T09:59:47.89</time>
<name>11822</name>
</trkpt>
<trkpt lat="49.177530" lon="11.821962">
<ele>572.3</ele>
<speed>12.6</speed>
<course>264.2</course>
<desc>Speed 12.6 km/h Distance 44.98 km</desc>
<time>2010-06-13T09:59:48.89</time>
<name>11823</name>
</trkpt>
<trkpt lat="49.177527" lon="11.821912">
<ele>572.1</ele>
<speed>13.0</speed>
<course>267.1</course>
<desc>Speed 13.0 km/h Distance 44.98 km</desc>
<time>2010-06-13T09:59:49.89</time>
<name>11824</name>
</trkpt>
<trkpt lat="49.177525" lon="11.821862">
<ele>571.9</ele>
<speed>13.1</speed>
<course>270.0</course>
<desc>Speed 13.1 km/h Distance 44.98 km</desc>
<time>2010-06-13T09:59:50.89</time>
<name>11825</name>
</trkpt>
<trkpt lat="49.177525" lon="11.821808">
<ele>571.7</ele>
<speed>13.5</speed>
<course>272.8</course>
<desc>Speed 13.5 km/h Distance 44.99 km</desc>
<time>2010-06-13T09:59:51.89</time>
<name>11826</name>
</trkpt>
<trkpt lat="49.177527" lon="11.821757">
<ele>571.3</ele>
<speed>14.0</speed>
<course>275.5</course>
<desc>Speed 14.0 km/h Distance 44.99 km</desc>
<time>2010-06-13T09:59:52.89</time>
<name>11827</name>
</trkpt>
<trkpt lat="49.177530" lon="11.821703">
<ele>571.0</ele>
<speed>13.6</speed>
<course>275.5</course>
<desc>Speed 13.6 km/h Distance 45.00 km</desc>
<time>2010-06-13T09:59:53.89</time>
<name>11828</name>
</trkpt>
<trkpt lat="49.177533" lon="11.821650">
<ele>570.8</ele>
<speed>13.9</speed>
<course>272.7</course>
<desc>Speed 13.9 km/h Distance 45.00 km</desc>
<time>2010-06-13T09:59:54.89</time>
<name>11829</name>
</trkpt>
<trkpt lat="49.177535" lon="11.821595">
<ele>570.6</ele>
<speed>14.5</speed>
<course>272.5</course>
<desc>Speed 14.5 km/h Distance 45.00 km</desc>
<time>2010-06-13T09:59:55.89</time>
<name>11830</name>
</trkpt>
<trkpt lat="49.177537" lon="11.821537">
<ele>570.4</ele>
<speed>14.8</speed>
<course>270.0</course>
<desc>Speed 14.8 km/h Distance 45.01 km</desc>
<time>2010-06-13T09:59:56.89</time>
<name>11831</name>
</trkpt>
<trkpt lat="49.177537" lon="11.821477">
<ele>570.2</ele>
<speed>15.7</speed>
<course>270.0</course>
<desc>Speed 15.7 km/h Distance 45.01 km</desc>
<time>2010-06-13T09:59:57.89</time>
<name>11832</name>
</trkpt>
<trkpt lat="49.177537" lon="11.821415">
<ele>569.9</ele>
<speed>16.8</speed>
<course>270.0</course>
<desc>Speed 16.8 km/h Distance 45.02 km</desc>
<time>2010-06-13T09:59:58.89</time>
<name>11833</name>
</trkpt>
<trkpt lat="49.177537" lon="11.821348">
<ele>569.7</ele>
<speed>17.2</speed>
<course>274.3</course>
<desc>Speed 17.2 km/h Distance 45.02 km</desc>
<time>2010-06-13T09:59:59.89</time>
<name>11834</name>
</trkpt>
<trkpt lat="49.177540" lon="11.821280">
<ele>569.6</ele>
<speed>17.4</speed>
<course>274.5</course>
<desc>Speed 17.4 km/h Distance 45.03 km</desc>
<time>2010-06-13T10:00:00.89</time>
<name>11835</name>
</trkpt>
<trkpt lat="49.177543" lon="11.821215">
<ele>569.7</ele>
<speed>16.7</speed>
<course>272.3</course>
<desc>Speed 16.7 km/h Distance 45.03 km</desc>
<time>2010-06-13T10:00:01.89</time>
<name>11836</name>
</trkpt>
<trkpt lat="49.177545" lon="11.821152">
<ele>569.5</ele>
<speed>16.2</speed>
<course>272.3</course>
<desc>Speed 16.2 km/h Distance 45.04 km</desc>
<time>2010-06-13T10:00:02.89</time>
<name>11837</name>
</trkpt>
<trkpt lat="49.177547" lon="11.821088">
<ele>569.4</ele>
<speed>16.6</speed>
<course>272.2</course>
<desc>Speed 16.6 km/h Distance 45.04 km</desc>
<time>2010-06-13T10:00:03.89</time>
<name>11838</name>
</trkpt>
<trkpt lat="49.177548" lon="11.821022">
<ele>569.1</ele>
<speed>17.5</speed>
<course>272.1</course>
<desc>Speed 17.5 km/h Distance 45.04 km</desc>
<time>2010-06-13T10:00:04.89</time>
<name>11839</name>
</trkpt>
<trkpt lat="49.177550" lon="11.820953">
<ele>569.1</ele>
<speed>17.9</speed>
<course>274.2</course>
<desc>Speed 17.9 km/h Distance 45.05 km</desc>
<time>2010-06-13T10:00:05.89</time>
<name>11840</name>
</trkpt>
<trkpt lat="49.177553" lon="11.820883">
<ele>569.0</ele>
<speed>17.6</speed>
<course>276.5</course>
<desc>Speed 17.6 km/h Distance 45.05 km</desc>
<time>2010-06-13T10:00:06.89</time>
<name>11841</name>
</trkpt>
<trkpt lat="49.177558" lon="11.820817">
<ele>568.9</ele>
<speed>17.6</speed>
<course>272.1</course>
<desc>Speed 17.6 km/h Distance 45.06 km</desc>
<time>2010-06-13T10:00:07.89</time>
<name>11842</name>
</trkpt>
<trkpt lat="49.177560" lon="11.820747">
<ele>568.7</ele>
<speed>18.2</speed>
<course>272.1</course>
<desc>Speed 18.2 km/h Distance 45.06 km</desc>
<time>2010-06-13T10:00:08.89</time>
<name>11843</name>
</trkpt>
<trkpt lat="49.177562" lon="11.820677">
<ele>568.6</ele>
<speed>18.1</speed>
<course>270.0</course>
<desc>Speed 18.1 km/h Distance 45.07 km</desc>
<time>2010-06-13T10:00:09.89</time>
<name>11844</name>
</trkpt>
<trkpt lat="49.177562" lon="11.820607">
<ele>568.6</ele>
<speed>18.2</speed>
<course>272.0</course>
<desc>Speed 18.2 km/h Distance 45.07 km</desc>
<time>2010-06-13T10:00:10.89</time>
<name>11845</name>
</trkpt>
<trkpt lat="49.177563" lon="11.820535">
<ele>568.5</ele>
<speed>18.6</speed>
<course>272.0</course>
<desc>Speed 18.6 km/h Distance 45.08 km</desc>
<time>2010-06-13T10:00:11.89</time>
<name>11846</name>
</trkpt>
<trkpt lat="49.177565" lon="11.820462">
<ele>568.5</ele>
<speed>18.7</speed>
<course>276.2</course>
<desc>Speed 18.7 km/h Distance 45.09 km</desc>
<time>2010-06-13T10:00:12.89</time>
<name>11847</name>
</trkpt>
<trkpt lat="49.177570" lon="11.820392">
<ele>568.6</ele>
<speed>18.4</speed>
<course>274.1</course>
<desc>Speed 18.4 km/h Distance 45.09 km</desc>
<time>2010-06-13T10:00:13.89</time>
<name>11848</name>
</trkpt>
<trkpt lat="49.177573" lon="11.820320">
<ele>568.6</ele>
<speed>18.2</speed>
<course>272.0</course>
<desc>Speed 18.2 km/h Distance 45.10 km</desc>
<time>2010-06-13T10:00:14.89</time>
<name>11849</name>
</trkpt>
<trkpt lat="49.177575" lon="11.820248">
<ele>568.7</ele>
<speed>18.7</speed>
<course>274.0</course>
<desc>Speed 18.7 km/h Distance 45.10 km</desc>
<time>2010-06-13T10:00:15.89</time>
<name>11850</name>
</trkpt>
<trkpt lat="49.177578" lon="11.820175">
<ele>568.7</ele>
<speed>19.1</speed>
<course>276.0</course>
<desc>Speed 19.1 km/h Distance 45.11 km</desc>
<time>2010-06-13T10:00:16.89</time>
<name>11851</name>
</trkpt>
<trkpt lat="49.177583" lon="11.820102">
<ele>568.9</ele>
<speed>18.9</speed>
<course>275.8</course>
<desc>Speed 18.9 km/h Distance 45.11 km</desc>
<time>2010-06-13T10:00:17.89</time>
<name>11852</name>
</trkpt>
<trkpt lat="49.177588" lon="11.820027">
<ele>568.9</ele>
<speed>19.3</speed>
<course>272.0</course>
<desc>Speed 19.3 km/h Distance 45.12 km</desc>
<time>2010-06-13T10:00:18.89</time>
<name>11853</name>
</trkpt>
<trkpt lat="49.177590" lon="11.819953">
<ele>568.9</ele>
<speed>19.0</speed>
<course>273.9</course>
<desc>Speed 19.0 km/h Distance 45.12 km</desc>
<time>2010-06-13T10:00:19.89</time>
<name>11854</name>
</trkpt>
<trkpt lat="49.177593" lon="11.819878">
<ele>568.8</ele>
<speed>19.4</speed>
<course>270.0</course>
<desc>Speed 19.4 km/h Distance 45.13 km</desc>
<time>2010-06-13T10:00:20.89</time>
<name>11855</name>
</trkpt>
<trkpt lat="49.177593" lon="11.819803">
<ele>568.7</ele>
<speed>19.3</speed>
<course>275.7</course>
<desc>Speed 19.3 km/h Distance 45.13 km</desc>
<time>2010-06-13T10:00:21.89</time>
<name>11856</name>
</trkpt>
<trkpt lat="49.177598" lon="11.819727">
<ele>568.8</ele>
<speed>19.5</speed>
<course>271.9</course>
<desc>Speed 19.5 km/h Distance 45.14 km</desc>
<time>2010-06-13T10:00:22.89</time>
<name>11857</name>
</trkpt>
<trkpt lat="49.177600" lon="11.819650">
<ele>568.8</ele>
<speed>20.1</speed>
<course>273.7</course>
<desc>Speed 20.1 km/h Distance 45.14 km</desc>
<time>2010-06-13T10:00:23.89</time>
<name>11858</name>
</trkpt>
<trkpt lat="49.177603" lon="11.819572">
<ele>568.7</ele>
<speed>20.3</speed>
<course>273.6</course>
<desc>Speed 20.3 km/h Distance 45.15 km</desc>
<time>2010-06-13T10:00:24.89</time>
<name>11859</name>
</trkpt>
<trkpt lat="49.177607" lon="11.819492">
<ele>568.8</ele>
<speed>20.2</speed>
<course>273.7</course>
<desc>Speed 20.2 km/h Distance 45.16 km</desc>
<time>2010-06-13T10:00:25.89</time>
<name>11860</name>
</trkpt>
<trkpt lat="49.177610" lon="11.819413">
<ele>568.8</ele>
<speed>20.3</speed>
<course>275.7</course>
<desc>Speed 20.3 km/h Distance 45.16 km</desc>
<time>2010-06-13T10:00:26.89</time>
<name>11861</name>
</trkpt>
<trkpt lat="49.177615" lon="11.819337">
<ele>568.8</ele>
<speed>19.7</speed>
<course>271.9</course>
<desc>Speed 19.7 km/h Distance 45.17 km</desc>
<time>2010-06-13T10:00:27.89</time>
<name>11862</name>
</trkpt>
<trkpt lat="49.177617" lon="11.819260">
<ele>568.8</ele>
<speed>19.9</speed>
<course>273.6</course>
<desc>Speed 19.9 km/h Distance 45.17 km</desc>
<time>2010-06-13T10:00:28.89</time>
<name>11863</name>
</trkpt>
<trkpt lat="49.177620" lon="11.819180">
<ele>568.8</ele>
<speed>20.7</speed>
<course>271.9</course>
<desc>Speed 20.7 km/h Distance 45.18 km</desc>
<time>2010-06-13T10:00:29.89</time>
<name>11864</name>
</trkpt>
<trkpt lat="49.177622" lon="11.819102">
<ele>568.9</ele>
<speed>20.1</speed>
<course>273.8</course>
<desc>Speed 20.1 km/h Distance 45.18 km</desc>
<time>2010-06-13T10:00:30.89</time>
<name>11865</name>
</trkpt>
<trkpt lat="49.177625" lon="11.819025">
<ele>568.8</ele>
<speed>19.4</speed>
<course>273.9</course>
<desc>Speed 19.4 km/h Distance 45.19 km</desc>
<time>2010-06-13T10:00:31.89</time>
<name>11866</name>
</trkpt>
<trkpt lat="49.177628" lon="11.818950">
<ele>569.0</ele>
<speed>19.7</speed>
<course>273.7</course>
<desc>Speed 19.7 km/h Distance 45.20 km</desc>
<time>2010-06-13T10:00:32.89</time>
<name>11867</name>
</trkpt>
<trkpt lat="49.177632" lon="11.818872">
<ele>569.0</ele>
<speed>19.5</speed>
<course>272.0</course>
<desc>Speed 19.5 km/h Distance 45.20 km</desc>
<time>2010-06-13T10:00:33.89</time>
<name>11868</name>
</trkpt>
<trkpt lat="49.177633" lon="11.818800">
<ele>569.0</ele>
<speed>18.8</speed>
<course>272.0</course>
<desc>Speed 18.8 km/h Distance 45.21 km</desc>
<time>2010-06-13T10:00:34.89</time>
<name>11869</name>
</trkpt>
<trkpt lat="49.177635" lon="11.818728">
<ele>569.1</ele>
<speed>18.5</speed>
<course>274.1</course>
<desc>Speed 18.5 km/h Distance 45.21 km</desc>
<time>2010-06-13T10:00:35.89</time>
<name>11870</name>
</trkpt>
<trkpt lat="49.177638" lon="11.818657">
<ele>569.3</ele>
<speed>18.1</speed>
<course>274.2</course>
<desc>Speed 18.1 km/h Distance 45.22 km</desc>
<time>2010-06-13T10:00:36.89</time>
<name>11871</name>
</trkpt>
<trkpt lat="49.177642" lon="11.818587">
<ele>569.3</ele>
<speed>18.1</speed>
<course>274.1</course>
<desc>Speed 18.1 km/h Distance 45.22 km</desc>
<time>2010-06-13T10:00:37.89</time>
<name>11872</name>
</trkpt>
<trkpt lat="49.177645" lon="11.818515">
<ele>569.7</ele>
<speed>18.0</speed>
<course>272.1</course>
<desc>Speed 18.0 km/h Distance 45.23 km</desc>
<time>2010-06-13T10:00:38.89</time>
<name>11873</name>
</trkpt>
<trkpt lat="49.177647" lon="11.818447">
<ele>569.7</ele>
<speed>17.1</speed>
<course>272.2</course>
<desc>Speed 17.1 km/h Distance 45.23 km</desc>
<time>2010-06-13T10:00:39.89</time>
<name>11874</name>
</trkpt>
<trkpt lat="49.177648" lon="11.818382">
<ele>569.7</ele>
<speed>16.9</speed>
<course>274.7</course>
<desc>Speed 16.9 km/h Distance 45.24 km</desc>
<time>2010-06-13T10:00:40.89</time>
<name>11875</name>
</trkpt>
<trkpt lat="49.177652" lon="11.818320">
<ele>569.8</ele>
<speed>16.0</speed>
<course>270.0</course>
<desc>Speed 16.0 km/h Distance 45.24 km</desc>
<time>2010-06-13T10:00:41.89</time>
<name>11876</name>
</trkpt>
<trkpt lat="49.177652" lon="11.818258">
<ele>569.9</ele>
<speed>15.9</speed>
<course>270.0</course>
<desc>Speed 15.9 km/h Distance 45.25 km</desc>
<time>2010-06-13T10:00:42.89</time>
<name>11877</name>
</trkpt>
<trkpt lat="49.177652" lon="11.818202">
<ele>569.9</ele>
<speed>14.7</speed>
<course>276.2</course>
<desc>Speed 14.7 km/h Distance 45.25 km</desc>
<time>2010-06-13T10:00:43.89</time>
<name>11878</name>
</trkpt>
<trkpt lat="49.177655" lon="11.818155">
<ele>570.1</ele>
<speed>14.0</speed>
<course>279.3</course>
<desc>Speed 14.0 km/h Distance 45.25 km</desc>
<time>2010-06-13T10:00:44.89</time>
<name>11879</name>
</trkpt>
<trkpt lat="49.177660" lon="11.818108">
<ele>570.3</ele>
<speed>12.7</speed>
<course>273.5</course>
<desc>Speed 12.7 km/h Distance 45.26 km</desc>
<time>2010-06-13T10:00:45.89</time>
<name>11880</name>
</trkpt>
<trkpt lat="49.177662" lon="11.818067">
<ele>570.4</ele>
<speed>11.7</speed>
<course>273.8</course>
<desc>Speed 11.7 km/h Distance 45.26 km</desc>
<time>2010-06-13T10:00:46.89</time>
<name>11881</name>
</trkpt>
<trkpt lat="49.177663" lon="11.818028">
<ele>570.6</ele>
<speed>10.4</speed>
<course>278.3</course>
<desc>Speed 10.4 km/h Distance 45.26 km</desc>
<time>2010-06-13T10:00:47.89</time>
<name>11882</name>
</trkpt>
<trkpt lat="49.177667" lon="11.817993">
<ele>570.8</ele>
<speed>10.2</speed>
<course>274.0</course>
<desc>Speed 10.2 km/h Distance 45.27 km</desc>
<time>2010-06-13T10:00:48.89</time>
<name>11883</name>
</trkpt>
<trkpt lat="49.177668" lon="11.817957">
<ele>571.0</ele>
<speed>9.9</speed>
<course>278.3</course>
<desc>Speed 9.9 km/h Distance 45.27 km</desc>
<time>2010-06-13T10:00:49.89</time>
<name>11884</name>
</trkpt>
<trkpt lat="49.177672" lon="11.817922">
<ele>571.1</ele>
<speed>8.8</speed>
<course>270.0</course>
<desc>Speed 8.8 km/h Distance 45.27 km</desc>
<time>2010-06-13T10:00:50.89</time>
<name>11885</name>
</trkpt>
<trkpt lat="49.177672" lon="11.817890">
<ele>571.1</ele>
<speed>9.0</speed>
<course>270.0</course>
<desc>Speed 9.0 km/h Distance 45.27 km</desc>
<time>2010-06-13T10:00:51.89</time>
<name>11886</name>
</trkpt>
<trkpt lat="49.177672" lon="11.817858">
<ele>571.1</ele>
<speed>8.9</speed>
<course>274.6</course>
<desc>Speed 8.9 km/h Distance 45.28 km</desc>
<time>2010-06-13T10:00:52.89</time>
<name>11887</name>
</trkpt>
<trkpt lat="49.177673" lon="11.817827">
<ele>571.2</ele>
<speed>8.2</speed>
<course>275.1</course>
<desc>Speed 8.2 km/h Distance 45.28 km</desc>
<time>2010-06-13T10:00:53.89</time>
<name>11888</name>
</trkpt>
<trkpt lat="49.177675" lon="11.817798">
<ele>571.4</ele>
<speed>7.3</speed>
<course>290.9</course>
<desc>Speed 7.3 km/h Distance 45.28 km</desc>
<time>2010-06-13T10:00:54.89</time>
<name>11889</name>
</trkpt>
<trkpt lat="49.177682" lon="11.817772">
<ele>571.4</ele>
<speed>7.0</speed>
<course>303.3</course>
<desc>Speed 7.0 km/h Distance 45.28 km</desc>
<time>2010-06-13T10:00:55.89</time>
<name>11890</name>
</trkpt>
<trkpt lat="49.177692" lon="11.817748">
<ele>571.5</ele>
<speed>7.2</speed>
<course>313.7</course>
<desc>Speed 7.2 km/h Distance 45.28 km</desc>
<time>2010-06-13T10:00:56.89</time>
<name>11891</name>
</trkpt>
<trkpt lat="49.177708" lon="11.817722">
<ele>572.6</ele>
<speed>6.9</speed>
<course>321.4</course>
<desc>Speed 6.9 km/h Distance 45.29 km</desc>
<time>2010-06-13T10:00:57.89</time>
<name>11892</name>
</trkpt>
<trkpt lat="49.177723" lon="11.817703">
<ele>573.1</ele>
<speed>7.2</speed>
<course>334.7</course>
<desc>Speed 7.2 km/h Distance 45.29 km</desc>
<time>2010-06-13T10:00:58.89</time>
<name>11893</name>
</trkpt>
<trkpt lat="49.177742" lon="11.817690">
<ele>573.5</ele>
<speed>7.2</speed>
<course>13.3</course>
<desc>Speed 7.2 km/h Distance 45.29 km</desc>
<time>2010-06-13T10:00:59.89</time>
<name>11894</name>
</trkpt>
<trkpt lat="49.177760" lon="11.817697">
<ele>574.1</ele>
<speed>7.2</speed>
<course>339.2</course>
<desc>Speed 7.2 km/h Distance 45.29 km</desc>
<time>2010-06-13T10:01:00.89</time>
<name>11895</name>
</trkpt>
<trkpt lat="49.177780" lon="11.817685">
<ele>574.1</ele>
<speed>7.1</speed>
<course>338.5</course>
<desc>Speed 7.1 km/h Distance 45.30 km</desc>
<time>2010-06-13T10:01:01.89</time>
<name>11896</name>
</trkpt>
<trkpt lat="49.177797" lon="11.817675">
<ele>573.4</ele>
<speed>6.8</speed>
<course>289.5</course>
<desc>Speed 6.8 km/h Distance 45.30 km</desc>
<time>2010-06-13T10:01:02.89</time>
<name>11897</name>
</trkpt>
<trkpt lat="49.177802" lon="11.817653">
<ele>572.9</ele>
<speed>6.7</speed>
<course>330.2</course>
<desc>Speed 6.7 km/h Distance 45.30 km</desc>
<time>2010-06-13T10:01:03.89</time>
<name>11898</name>
</trkpt>
<trkpt lat="49.177815" lon="11.817642">
<ele>574.0</ele>
<speed>5.9</speed>
<course>334.4</course>
<desc>Speed 5.9 km/h Distance 45.30 km</desc>
<time>2010-06-13T10:01:04.89</time>
<name>11899</name>
</trkpt>
<trkpt lat="49.177822" lon="11.817637">
<ele>575.1</ele>
<speed>4.9</speed>
<course>315.7</course>
<desc>Speed 4.9 km/h Distance 45.30 km</desc>
<time>2010-06-13T10:01:05.89</time>
<name>11900</name>
</trkpt>
<trkpt lat="49.177828" lon="11.817627">
<ele>576.6</ele>
<speed>5.7</speed>
<course>297.0</course>
<desc>Speed 5.7 km/h Distance 45.30 km</desc>
<time>2010-06-13T10:01:06.89</time>
<name>11901</name>
</trkpt>
<trkpt lat="49.177832" lon="11.817617">
<ele>577.4</ele>
<speed>5.3</speed>
<course>297.0</course>
<desc>Speed 5.3 km/h Distance 45.30 km</desc>
<time>2010-06-13T10:01:07.89</time>
<name>11902</name>
</trkpt>
<trkpt lat="49.177838" lon="11.817597">
<ele>578.4</ele>
<speed>5.9</speed>
<course>282.3</course>
<desc>Speed 5.9 km/h Distance 45.31 km</desc>
<time>2010-06-13T10:01:08.89</time>
<name>11903</name>
</trkpt>
<trkpt lat="49.177842" lon="11.817573">
<ele>579.1</ele>
<speed>5.7</speed>
<course>277.2</course>
<desc>Speed 5.7 km/h Distance 45.31 km</desc>
<time>2010-06-13T10:01:09.89</time>
<name>11904</name>
</trkpt>
<trkpt lat="49.177843" lon="11.817553">
<ele>579.0</ele>
<speed>5.7</speed>
<course>299.8</course>
<desc>Speed 5.7 km/h Distance 45.31 km</desc>
<time>2010-06-13T10:01:10.89</time>
<name>11905</name>
</trkpt>
<trkpt lat="49.177853" lon="11.817527">
<ele>580.2</ele>
<speed>5.4</speed>
<course>320.0</course>
<desc>Speed 5.4 km/h Distance 45.31 km</desc>
<time>2010-06-13T10:01:11.89</time>
<name>11906</name>
</trkpt>
<trkpt lat="49.177865" lon="11.817512">
<ele>581.3</ele>
<speed>5.2</speed>
<course>254.0</course>
<desc>Speed 5.2 km/h Distance 45.31 km</desc>
<time>2010-06-13T10:01:12.89</time>
<name>11907</name>
</trkpt>
<trkpt lat="49.177860" lon="11.817485">
<ele>581.6</ele>
<speed>4.7</speed>
<course>300.5</course>
<desc>Speed 4.7 km/h Distance 45.31 km</desc>
<time>2010-06-13T10:01:13.89</time>
<name>11908</name>
</trkpt>
<trkpt lat="49.177868" lon="11.817463">
<ele>583.2</ele>
<speed>5.5</speed>
<course>285.1</course>
<desc>Speed 5.5 km/h Distance 45.32 km</desc>
<time>2010-06-13T10:01:14.89</time>
<name>11909</name>
</trkpt>
<trkpt lat="49.177873" lon="11.817435">
<ele>583.3</ele>
<speed>5.6</speed>
<course>278.7</course>
<desc>Speed 5.6 km/h Distance 45.32 km</desc>
<time>2010-06-13T10:01:15.89</time>
<name>11910</name>
</trkpt>
<trkpt lat="49.177877" lon="11.817402">
<ele>583.1</ele>
<speed>5.6</speed>
<course>263.8</course>
<desc>Speed 5.6 km/h Distance 45.32 km</desc>
<time>2010-06-13T10:01:16.89</time>
<name>11911</name>
</trkpt>
<trkpt lat="49.177875" lon="11.817378">
<ele>583.5</ele>
<speed>4.5</speed>
<course>240.9</course>
<desc>Speed 4.5 km/h Distance 45.32 km</desc>
<time>2010-06-13T10:01:17.89</time>
<name>11912</name>
</trkpt>
<trkpt lat="49.177868" lon="11.817360">
<ele>584.9</ele>
<speed>4.5</speed>
<course>232.5</course>
<desc>Speed 4.5 km/h Distance 45.32 km</desc>
<time>2010-06-13T10:01:18.89</time>
<name>11913</name>
</trkpt>
<trkpt lat="49.177858" lon="11.817340">
<ele>585.6</ele>
<speed>4.0</speed>
<course>261.3</course>
<desc>Speed 4.0 km/h Distance 45.33 km</desc>
<time>2010-06-13T10:01:19.89</time>
<name>11914</name>
</trkpt>
<trkpt lat="49.177857" lon="11.817323">
<ele>587.2</ele>
<speed>4.0</speed>
<course>250.6</course>
<desc>Speed 4.0 km/h Distance 45.33 km</desc>
<time>2010-06-13T10:01:20.89</time>
<name>11915</name>
</trkpt>
<trkpt lat="49.177852" lon="11.817302">
<ele>586.6</ele>
<speed>4.5</speed>
<course>270.0</course>
<desc>Speed 4.5 km/h Distance 45.33 km</desc>
<time>2010-06-13T10:01:21.89</time>
<name>11916</name>
</trkpt>
<trkpt lat="49.177852" lon="11.817277">
<ele>586.4</ele>
<speed>4.1</speed>
<course>293.5</course>
<desc>Speed 4.1 km/h Distance 45.33 km</desc>
<time>2010-06-13T10:01:22.89</time>
<name>11917</name>
</trkpt>
<trkpt lat="49.177855" lon="11.817265">
<ele>588.6</ele>
<speed>4.9</speed>
<course>288.1</course>
<desc>Speed 4.9 km/h Distance 45.33 km</desc>
<time>2010-06-13T10:01:23.89</time>
<name>11918</name>
</trkpt>
<trkpt lat="49.177860" lon="11.817242">
<ele>589.6</ele>
<speed>4.4</speed>
<course>270.0</course>
<desc>Speed 4.4 km/h Distance 45.33 km</desc>
<time>2010-06-13T10:01:24.90</time>
<name>11919</name>
</trkpt>
<trkpt lat="49.177860" lon="11.817232">
<ele>591.7</ele>
<speed>3.9</speed>
<course>319.0</course>
<desc>Speed 3.9 km/h Distance 45.33 km</desc>
<time>2010-06-13T10:01:25.91</time>
<name>11920</name>
</trkpt>
<trkpt lat="49.177870" lon="11.817218">
<ele>593.4</ele>
<speed>2.6</speed>
<course>277.9</course>
<desc>Speed 2.6 km/h Distance 45.34 km</desc>
<time>2010-06-13T10:01:26.91</time>
<name>11921</name>
</trkpt>
<trkpt lat="49.177872" lon="11.817200">
<ele>593.6</ele>
<speed>3.6</speed>
<course>276.7</course>
<desc>Speed 3.6 km/h Distance 45.34 km</desc>
<time>2010-06-13T10:01:27.91</time>
<name>11922</name>
</trkpt>
<trkpt lat="49.177873" lon="11.817178">
<ele>595.0</ele>
<speed>4.6</speed>
<course>281.5</course>
<desc>Speed 4.6 km/h Distance 45.34 km</desc>
<time>2010-06-13T10:01:28.91</time>
<name>11923</name>
</trkpt>
<trkpt lat="49.177877" lon="11.817153">
<ele>594.9</ele>
<speed>3.1</speed>
<course>312.6</course>
<desc>Speed 3.1 km/h Distance 45.34 km</desc>
<time>2010-06-13T10:01:29.91</time>
<name>11924</name>
</trkpt>
<trkpt lat="49.177882" lon="11.817145">
<ele>596.3</ele>
<speed>0.3</speed>
<course>52.7</course>
<desc>Speed 0.3 km/h Distance 45.34 km</desc>
<time>2010-06-13T10:01:30.91</time>
<name>11925</name>
</trkpt>
<trkpt lat="49.177888" lon="11.817158">
<ele>598.3</ele>
<speed>1.0</speed>
<course>69.1</course>
<desc>Speed 1.0 km/h Distance 45.34 km</desc>
<time>2010-06-13T10:01:31.91</time>
<name>11926</name>
</trkpt>
<trkpt lat="49.177892" lon="11.817172">
<ele>600.1</ele>
<speed>0.9</speed>
<course>270.0</course>
<desc>Speed 0.9 km/h Distance 45.34 km</desc>
<time>2010-06-13T10:01:32.91</time>
<name>11927</name>
</trkpt>
<trkpt lat="49.177892" lon="11.817153">
<ele>600.4</ele>
<speed>1.0</speed>
<course>193.6</course>
<desc>Speed 1.0 km/h Distance 45.34 km</desc>
<time>2010-06-13T10:01:33.91</time>
<name>11928</name>
</trkpt>
<trkpt lat="49.177873" lon="11.817147">
<ele>599.4</ele>
<speed>2.6</speed>
<course>270.0</course>
<desc>Speed 2.6 km/h Distance 45.35 km</desc>
<time>2010-06-13T10:01:34.91</time>
<name>11929</name>
</trkpt>
<trkpt lat="49.177873" lon="11.817133">
<ele>600.2</ele>
<speed>3.4</speed>
<course>262.8</course>
<desc>Speed 3.4 km/h Distance 45.35 km</desc>
<time>2010-06-13T10:01:35.91</time>
<name>11930</name>
</trkpt>
<trkpt lat="49.177872" lon="11.817113">
<ele>600.3</ele>
<speed>4.4</speed>
<course>244.5</course>
<desc>Speed 4.4 km/h Distance 45.35 km</desc>
<time>2010-06-13T10:01:36.91</time>
<name>11931</name>
</trkpt>
<trkpt lat="49.177863" lon="11.817087">
<ele>600.4</ele>
<speed>5.8</speed>
<course>284.9</course>
<desc>Speed 5.8 km/h Distance 45.35 km</desc>
<time>2010-06-13T10:01:37.91</time>
<name>11932</name>
</trkpt>
<trkpt lat="49.177870" lon="11.817048">
<ele>600.4</ele>
<speed>4.7</speed>
<course>248.7</course>
<desc>Speed 4.7 km/h Distance 45.35 km</desc>
<time>2010-06-13T10:01:38.91</time>
<name>11933</name>
</trkpt>
<trkpt lat="49.177868" lon="11.817042">
<ele>601.0</ele>
<speed>2.3</speed>
<course>246.5</course>
<desc>Speed 2.3 km/h Distance 45.35 km</desc>
<time>2010-06-13T10:01:39.91</time>
<name>11934</name>
</trkpt>
<trkpt lat="49.177865" lon="11.817030">
<ele>600.6</ele>
<speed>2.2</speed>
<course>249.0</course>
<desc>Speed 2.2 km/h Distance 45.36 km</desc>
<time>2010-06-13T10:01:40.91</time>
<name>11935</name>
</trkpt>
<trkpt lat="49.177860" lon="11.817010">
<ele>600.0</ele>
<speed>4.5</speed>
<course>270.0</course>
<desc>Speed 4.5 km/h Distance 45.36 km</desc>
<time>2010-06-13T10:01:41.91</time>
<name>11936</name>
</trkpt>
<trkpt lat="49.177860" lon="11.816982">
<ele>601.5</ele>
<speed>2.9</speed>
<course>254.9</course>
<desc>Speed 2.9 km/h Distance 45.36 km</desc>
<time>2010-06-13T10:01:42.91</time>
<name>11937</name>
</trkpt>
<trkpt lat="49.177855" lon="11.816953">
<ele>602.7</ele>
<speed>3.4</speed>
<course>226.4</course>
<desc>Speed 3.4 km/h Distance 45.36 km</desc>
<time>2010-06-13T10:01:43.91</time>
<name>11938</name>
</trkpt>
<trkpt lat="49.177847" lon="11.816940">
<ele>602.6</ele>
<speed>2.2</speed>
<course>270.0</course>
<desc>Speed 2.2 km/h Distance 45.36 km</desc>
<time>2010-06-13T10:01:44.91</time>
<name>11939</name>
</trkpt>
<trkpt lat="49.177847" lon="11.816930">
<ele>604.1</ele>
<speed>2.3</speed>
<course>270.0</course>
<desc>Speed 2.3 km/h Distance 45.36 km</desc>
<time>2010-06-13T10:01:45.91</time>
<name>11940</name>
</trkpt>
<trkpt lat="49.177847" lon="11.816922">
<ele>605.5</ele>
<speed>2.3</speed>
<course>307.6</course>
<desc>Speed 2.3 km/h Distance 45.36 km</desc>
<time>2010-06-13T10:01:46.91</time>
<name>11941</name>
</trkpt>
<trkpt lat="49.177850" lon="11.816915">
<ele>607.6</ele>
<speed>1.2</speed>
<course>292.6</course>
<desc>Speed 1.2 km/h Distance 45.36 km</desc>
<time>2010-06-13T10:01:47.91</time>
<name>11942</name>
</trkpt>
<trkpt lat="49.177855" lon="11.816897">
<ele>608.4</ele>
<speed>1.7</speed>
<course>293.5</course>
<desc>Speed 1.7 km/h Distance 45.37 km</desc>
<time>2010-06-13T10:01:48.91</time>
<name>11943</name>
</trkpt>
<trkpt lat="49.177858" lon="11.816885">
<ele>608.6</ele>
<speed>2.3</speed>
<course>270.0</course>
<desc>Speed 2.3 km/h Distance 45.37 km</desc>
<time>2010-06-13T10:01:49.91</time>
<name>11944</name>
</trkpt>
<trkpt lat="49.177858" lon="11.816868">
<ele>607.7</ele>
<speed>3.2</speed>
<course>243.0</course>
<desc>Speed 3.2 km/h Distance 45.37 km</desc>
<time>2010-06-13T10:01:50.91</time>
<name>11945</name>
</trkpt>
<trkpt lat="49.177853" lon="11.816853">
<ele>605.4</ele>
<speed>3.2</speed>
<course>228.7</course>
<desc>Speed 3.2 km/h Distance 45.37 km</desc>
<time>2010-06-13T10:01:51.91</time>
<name>11946</name>
</trkpt>
<trkpt lat="49.177847" lon="11.816842">
<ele>604.3</ele>
<speed>3.0</speed>
<course>203.3</course>
<desc>Speed 3.0 km/h Distance 45.37 km</desc>
<time>2010-06-13T10:01:52.91</time>
<name>11947</name>
</trkpt>
<trkpt lat="49.177832" lon="11.816832">
<ele>601.8</ele>
<speed>3.0</speed>
<course>253.0</course>
<desc>Speed 3.0 km/h Distance 45.37 km</desc>
<time>2010-06-13T10:01:53.91</time>
<name>11948</name>
</trkpt>
<trkpt lat="49.177827" lon="11.816807">
<ele>600.3</ele>
<speed>2.9</speed>
<course>246.5</course>
<desc>Speed 2.9 km/h Distance 45.37 km</desc>
<time>2010-06-13T10:01:54.91</time>
<name>11949</name>
</trkpt>
<trkpt lat="49.177823" lon="11.816795">
<ele>599.7</ele>
<speed>4.2</speed>
<course>261.3</course>
<desc>Speed 4.2 km/h Distance 45.38 km</desc>
<time>2010-06-13T10:01:55.91</time>
<name>11950</name>
</trkpt>
<trkpt lat="49.177822" lon="11.816778">
<ele>599.0</ele>
<speed>3.4</speed>
<course>280.8</course>
<desc>Speed 3.4 km/h Distance 45.38 km</desc>
<time>2010-06-13T10:01:56.91</time>
<name>11951</name>
</trkpt>
<trkpt lat="49.177823" lon="11.816765">
<ele>599.1</ele>
<speed>3.6</speed>
<course>287.0</course>
<desc>Speed 3.6 km/h Distance 45.38 km</desc>
<time>2010-06-13T10:01:57.91</time>
<name>11952</name>
</trkpt>
<trkpt lat="49.177827" lon="11.816748">
<ele>597.9</ele>
<speed>3.5</speed>
<course>232.6</course>
<desc>Speed 3.5 km/h Distance 45.38 km</desc>
<time>2010-06-13T10:01:58.91</time>
<name>11953</name>
</trkpt>
<trkpt lat="49.177822" lon="11.816738">
<ele>597.7</ele>
<speed>3.2</speed>
<course>276.7</course>
<desc>Speed 3.2 km/h Distance 45.38 km</desc>
<time>2010-06-13T10:01:59.91</time>
<name>11954</name>
</trkpt>
<trkpt lat="49.177823" lon="11.816717">
<ele>599.5</ele>
<speed>3.3</speed>
<course>270.0</course>
<desc>Speed 3.3 km/h Distance 45.38 km</desc>
<time>2010-06-13T10:02:00.91</time>
<name>11955</name>
</trkpt>
<trkpt lat="49.177823" lon="11.816700">
<ele>600.9</ele>
<speed>3.5</speed>
<course>280.8</course>
<desc>Speed 3.5 km/h Distance 45.38 km</desc>
<time>2010-06-13T10:02:01.91</time>
<name>11956</name>
</trkpt>
<trkpt lat="49.177825" lon="11.816687">
<ele>601.1</ele>
<speed>3.6</speed>
<course>261.3</course>
<desc>Speed 3.6 km/h Distance 45.38 km</desc>
<time>2010-06-13T10:02:02.91</time>
<name>11957</name>
</trkpt>
<trkpt lat="49.177823" lon="11.816670">
<ele>600.4</ele>
<speed>3.5</speed>
<course>238.5</course>
<desc>Speed 3.5 km/h Distance 45.38 km</desc>
<time>2010-06-13T10:02:03.91</time>
<name>11958</name>
</trkpt>
<trkpt lat="49.177813" lon="11.816645">
<ele>599.3</ele>
<speed>3.7</speed>
<course>280.8</course>
<desc>Speed 3.7 km/h Distance 45.39 km</desc>
<time>2010-06-13T10:02:04.91</time>
<name>11959</name>
</trkpt>
<trkpt lat="49.177815" lon="11.816632">
<ele>599.5</ele>
<speed>3.7</speed>
<course>293.0</course>
<desc>Speed 3.7 km/h Distance 45.39 km</desc>
<time>2010-06-13T10:02:05.91</time>
<name>11960</name>
</trkpt>
<trkpt lat="49.177823" lon="11.816602">
<ele>600.5</ele>
<speed>3.9</speed>
<course>304.8</course>
<desc>Speed 3.9 km/h Distance 45.39 km</desc>
<time>2010-06-13T10:02:06.91</time>
<name>11961</name>
</trkpt>
<trkpt lat="49.177832" lon="11.816583">
<ele>599.7</ele>
<speed>3.8</speed>
<course>311.1</course>
<desc>Speed 3.8 km/h Distance 45.39 km</desc>
<time>2010-06-13T10:02:07.91</time>
<name>11962</name>
</trkpt>
<trkpt lat="49.177838" lon="11.816572">
<ele>598.4</ele>
<speed>3.4</speed>
<course>282.3</course>
<desc>Speed 3.4 km/h Distance 45.39 km</desc>
<time>2010-06-13T10:02:08.91</time>
<name>11963</name>
</trkpt>
<trkpt lat="49.177840" lon="11.816560">
<ele>598.0</ele>
<speed>3.6</speed>
<course>290.9</course>
<desc>Speed 3.6 km/h Distance 45.39 km</desc>
<time>2010-06-13T10:02:09.91</time>
<name>11964</name>
</trkpt>
<trkpt lat="49.177843" lon="11.816547">
<ele>597.4</ele>
<speed>3.2</speed>
<course>277.9</course>
<desc>Speed 3.2 km/h Distance 45.39 km</desc>
<time>2010-06-13T10:02:10.91</time>
<name>11965</name>
</trkpt>
<trkpt lat="49.177845" lon="11.816528">
<ele>597.1</ele>
<speed>4.0</speed>
<course>270.0</course>
<desc>Speed 4.0 km/h Distance 45.40 km</desc>
<time>2010-06-13T10:02:11.91</time>
<name>11966</name>
</trkpt>
<trkpt lat="49.177845" lon="11.816510">
<ele>595.8</ele>
<speed>3.9</speed>
<course>270.0</course>
<desc>Speed 3.9 km/h Distance 45.40 km</desc>
<time>2010-06-13T10:02:12.91</time>
<name>11967</name>
</trkpt>
<trkpt lat="49.177845" lon="11.816497">
<ele>595.4</ele>
<speed>3.3</speed>
<course>299.1</course>
<desc>Speed 3.3 km/h Distance 45.40 km</desc>
<time>2010-06-13T10:02:13.91</time>
<name>11968</name>
</trkpt>
<trkpt lat="49.177852" lon="11.816478">
<ele>594.9</ele>
<speed>4.2</speed>
<course>217.5</course>
<desc>Speed 4.2 km/h Distance 45.40 km</desc>
<time>2010-06-13T10:02:14.91</time>
<name>11969</name>
</trkpt>
<trkpt lat="49.177842" lon="11.816467">
<ele>594.7</ele>
<speed>4.3</speed>
<course>249.1</course>
<desc>Speed 4.3 km/h Distance 45.40 km</desc>
<time>2010-06-13T10:02:15.91</time>
<name>11970</name>
</trkpt>
<trkpt lat="49.177838" lon="11.816453">
<ele>593.7</ele>
<speed>3.7</speed>
<course>291.0</course>
<desc>Speed 3.7 km/h Distance 45.40 km</desc>
<time>2010-06-13T10:02:16.91</time>
<name>11971</name>
</trkpt>
<trkpt lat="49.177843" lon="11.816433">
<ele>592.2</ele>
<speed>4.2</speed>
<course>249.1</course>
<desc>Speed 4.2 km/h Distance 45.40 km</desc>
<time>2010-06-13T10:02:17.91</time>
<name>11972</name>
</trkpt>
<trkpt lat="49.177840" lon="11.816420">
<ele>592.1</ele>
<speed>2.1</speed>
<course>277.9</course>
<desc>Speed 2.1 km/h Distance 45.41 km</desc>
<time>2010-06-13T10:02:18.91</time>
<name>11973</name>
</trkpt>
<trkpt lat="49.177842" lon="11.816402">
<ele>592.0</ele>
<speed>4.2</speed>
<course>251.2</course>
<desc>Speed 4.2 km/h Distance 45.41 km</desc>
<time>2010-06-13T10:02:19.91</time>
<name>11974</name>
</trkpt>
<trkpt lat="49.177838" lon="11.816387">
<ele>592.5</ele>
<speed>4.1</speed>
<course>284.3</course>
<desc>Speed 4.1 km/h Distance 45.41 km</desc>
<time>2010-06-13T10:02:20.91</time>
<name>11975</name>
</trkpt>
<trkpt lat="49.177842" lon="11.816367">
<ele>591.8</ele>
<speed>4.4</speed>
<course>277.9</course>
<desc>Speed 4.4 km/h Distance 45.41 km</desc>
<time>2010-06-13T10:02:21.91</time>
<name>11976</name>
</trkpt>
<trkpt lat="49.177843" lon="11.816348">
<ele>591.6</ele>
<speed>4.2</speed>
<course>270.0</course>
<desc>Speed 4.2 km/h Distance 45.41 km</desc>
<time>2010-06-13T10:02:22.91</time>
<name>11977</name>
</trkpt>
<trkpt lat="49.177843" lon="11.816332">
<ele>591.4</ele>
<speed>3.8</speed>
<course>304.1</course>
<desc>Speed 3.8 km/h Distance 45.41 km</desc>
<time>2010-06-13T10:02:23.91</time>
<name>11978</name>
</trkpt>
<trkpt lat="49.177850" lon="11.816317">
<ele>591.3</ele>
<speed>3.6</speed>
<course>301.4</course>
<desc>Speed 3.6 km/h Distance 45.41 km</desc>
<time>2010-06-13T10:02:24.91</time>
<name>11979</name>
</trkpt>
<trkpt lat="49.177857" lon="11.816300">
<ele>591.4</ele>
<speed>4.0</speed>
<course>276.7</course>
<desc>Speed 4.0 km/h Distance 45.41 km</desc>
<time>2010-06-13T10:02:25.91</time>
<name>11980</name>
</trkpt>
<trkpt lat="49.177858" lon="11.816278">
<ele>590.5</ele>
<speed>3.9</speed>
<course>260.3</course>
<desc>Speed 3.9 km/h Distance 45.42 km</desc>
<time>2010-06-13T10:02:26.91</time>
<name>11981</name>
</trkpt>
<trkpt lat="49.177857" lon="11.816263">
<ele>589.7</ele>
<speed>3.7</speed>
<course>260.4</course>
<desc>Speed 3.7 km/h Distance 45.42 km</desc>
<time>2010-06-13T10:02:27.91</time>
<name>11982</name>
</trkpt>
<trkpt lat="49.177855" lon="11.816248">
<ele>589.1</ele>
<speed>3.5</speed>
<course>278.7</course>
<desc>Speed 3.5 km/h Distance 45.42 km</desc>
<time>2010-06-13T10:02:28.91</time>
<name>11983</name>
</trkpt>
<trkpt lat="49.177857" lon="11.816232">
<ele>588.3</ele>
<speed>3.5</speed>
<course>310.3</course>
<desc>Speed 3.5 km/h Distance 45.42 km</desc>
<time>2010-06-13T10:02:29.91</time>
<name>11984</name>
</trkpt>
<trkpt lat="49.177865" lon="11.816217">
<ele>589.0</ele>
<speed>3.7</speed>
<course>290.9</course>
<desc>Speed 3.7 km/h Distance 45.42 km</desc>
<time>2010-06-13T10:02:30.91</time>
<name>11985</name>
</trkpt>
<trkpt lat="49.177868" lon="11.816203">
<ele>590.2</ele>
<speed>3.6</speed>
<course>278.7</course>
<desc>Speed 3.6 km/h Distance 45.42 km</desc>
<time>2010-06-13T10:02:31.91</time>
<name>11986</name>
</trkpt>
<trkpt lat="49.177870" lon="11.816187">
<ele>591.3</ele>
<speed>3.2</speed>
<course>277.9</course>
<desc>Speed 3.2 km/h Distance 45.42 km</desc>
<time>2010-06-13T10:02:32.91</time>
<name>11987</name>
</trkpt>
<trkpt lat="49.177872" lon="11.816168">
<ele>591.7</ele>
<speed>3.6</speed>
<course>277.9</course>
<desc>Speed 3.6 km/h Distance 45.42 km</desc>
<time>2010-06-13T10:02:33.91</time>
<name>11988</name>
</trkpt>
<trkpt lat="49.177875" lon="11.816132">
<ele>592.2</ele>
<speed>5.8</speed>
<course>275.8</course>
<desc>Speed 5.8 km/h Distance 45.43 km</desc>
<time>2010-06-13T10:02:34.91</time>
<name>11989</name>
</trkpt>
<trkpt lat="49.177877" lon="11.816107">
<ele>592.5</ele>
<speed>4.6</speed>
<course>283.3</course>
<desc>Speed 4.6 km/h Distance 45.43 km</desc>
<time>2010-06-13T10:02:35.91</time>
<name>11990</name>
</trkpt>
<trkpt lat="49.177880" lon="11.816085">
<ele>593.2</ele>
<speed>3.0</speed>
<course>264.2</course>
<desc>Speed 3.0 km/h Distance 45.43 km</desc>
<time>2010-06-13T10:02:36.91</time>
<name>11991</name>
</trkpt>
<trkpt lat="49.177878" lon="11.816060">
<ele>595.1</ele>
<speed>3.9</speed>
<course>251.3</course>
<desc>Speed 3.9 km/h Distance 45.43 km</desc>
<time>2010-06-13T10:02:37.91</time>
<name>11992</name>
</trkpt>
<trkpt lat="49.177875" lon="11.816045">
<ele>595.3</ele>
<speed>3.2</speed>
<course>257.7</course>
<desc>Speed 3.2 km/h Distance 45.43 km</desc>
<time>2010-06-13T10:02:38.91</time>
<name>11993</name>
</trkpt>
<trkpt lat="49.177873" lon="11.816033">
<ele>595.6</ele>
<speed>2.1</speed>
<course>257.8</course>
<desc>Speed 2.1 km/h Distance 45.43 km</desc>
<time>2010-06-13T10:02:39.91</time>
<name>11994</name>
</trkpt>
<trkpt lat="49.177872" lon="11.816022">
<ele>595.1</ele>
<speed>2.4</speed>
<course>245.4</course>
<desc>Speed 2.4 km/h Distance 45.44 km</desc>
<time>2010-06-13T10:02:40.91</time>
<name>11995</name>
</trkpt>
<trkpt lat="49.177867" lon="11.816005">
<ele>596.5</ele>
<speed>2.8</speed>
<course>270.0</course>
<desc>Speed 2.8 km/h Distance 45.44 km</desc>
<time>2010-06-13T10:02:41.91</time>
<name>11996</name>
</trkpt>
<trkpt lat="49.177867" lon="11.815987">
<ele>596.6</ele>
<speed>2.4</speed>
<course>287.0</course>
<desc>Speed 2.4 km/h Distance 45.44 km</desc>
<time>2010-06-13T10:02:42.91</time>
<name>11997</name>
</trkpt>
<trkpt lat="49.177870" lon="11.815970">
<ele>596.3</ele>
<speed>2.2</speed>
<course>270.0</course>
<desc>Speed 2.2 km/h Distance 45.44 km</desc>
<time>2010-06-13T10:02:43.91</time>
<name>11998</name>
</trkpt>
<trkpt lat="49.177870" lon="11.815952">
<ele>596.9</ele>
<speed>2.4</speed>
<course>192.6</course>
<desc>Speed 2.4 km/h Distance 45.44 km</desc>
<time>2010-06-13T10:02:44.91</time>
<name>11999</name>
</trkpt>
<trkpt lat="49.177865" lon="11.815950">
<ele>599.1</ele>
<speed>3.1</speed>
<course>307.3</course>
<desc>Speed 3.1 km/h Distance 45.44 km</desc>
<time>2010-06-13T10:02:45.91</time>
<name>12000</name>
</trkpt>
<trkpt lat="49.177872" lon="11.815937">
<ele>598.9</ele>
<speed>3.6</speed>
<course>326.8</course>
<desc>Speed 3.6 km/h Distance 45.44 km</desc>
<time>2010-06-13T10:02:46.91</time>
<name>12001</name>
</trkpt>
<trkpt lat="49.177882" lon="11.815927">
<ele>599.3</ele>
<speed>3.2</speed>
<course>326.8</course>
<desc>Speed 3.2 km/h Distance 45.44 km</desc>
<time>2010-06-13T10:02:47.91</time>
<name>12002</name>
</trkpt>
<trkpt lat="49.177892" lon="11.815917">
<ele>600.2</ele>
<speed>2.7</speed>
<course>310.4</course>
<desc>Speed 2.7 km/h Distance 45.45 km</desc>
<time>2010-06-13T10:02:48.91</time>
<name>12003</name>
</trkpt>
<trkpt lat="49.177900" lon="11.815902">
<ele>601.1</ele>
<speed>4.5</speed>
<course>311.7</course>
<desc>Speed 4.5 km/h Distance 45.45 km</desc>
<time>2010-06-13T10:02:49.91</time>
<name>12004</name>
</trkpt>
<trkpt lat="49.177912" lon="11.815882">
<ele>599.9</ele>
<speed>3.8</speed>
<course>296.9</course>
<desc>Speed 3.8 km/h Distance 45.45 km</desc>
<time>2010-06-13T10:02:50.91</time>
<name>12005</name>
</trkpt>
<trkpt lat="49.177917" lon="11.815867">
<ele>599.1</ele>
<speed>1.5</speed>
<course>270.0</course>
<desc>Speed 1.5 km/h Distance 45.45 km</desc>
<time>2010-06-13T10:02:51.91</time>
<name>12006</name>
</trkpt>
<trkpt lat="49.177917" lon="11.815857">
<ele>599.1</ele>
<speed>1.2</speed>
<course>310.9</course>
<desc>Speed 1.2 km/h Distance 45.45 km</desc>
<time>2010-06-13T10:02:52.91</time>
<name>12007</name>
</trkpt>
<trkpt lat="49.177923" lon="11.815845">
<ele>598.6</ele>
<speed>1.6</speed>
<course>12.6</course>
<desc>Speed 1.6 km/h Distance 45.45 km</desc>
<time>2010-06-13T10:02:53.91</time>
<name>12008</name>
</trkpt>
<trkpt lat="49.177928" lon="11.815847">
<ele>597.0</ele>
<speed>1.9</speed>
<course>341.8</course>
<desc>Speed 1.9 km/h Distance 45.45 km</desc>
<time>2010-06-13T10:02:54.91</time>
<name>12009</name>
</trkpt>
<trkpt lat="49.177948" lon="11.815837">
<ele>596.9</ele>
<speed>2.5</speed>
<course>301.4</course>
<desc>Speed 2.5 km/h Distance 45.45 km</desc>
<time>2010-06-13T10:02:55.91</time>
<name>12010</name>
</trkpt>
<trkpt lat="49.177955" lon="11.815820">
<ele>598.4</ele>
<speed>1.9</speed>
<course>309.9</course>
<desc>Speed 1.9 km/h Distance 45.46 km</desc>
<time>2010-06-13T10:02:56.91</time>
<name>12011</name>
</trkpt>
<trkpt lat="49.177965" lon="11.815802">
<ele>599.1</ele>
<speed>3.0</speed>
<course>270.0</course>
<desc>Speed 3.0 km/h Distance 45.46 km</desc>
<time>2010-06-13T10:02:57.91</time>
<name>12012</name>
</trkpt>
<trkpt lat="49.177965" lon="11.815793">
<ele>599.3</ele>
<speed>2.4</speed>
<course>262.7</course>
<desc>Speed 2.4 km/h Distance 45.46 km</desc>
<time>2010-06-13T10:02:58.91</time>
<name>12013</name>
</trkpt>
<trkpt lat="49.177963" lon="11.815773">
<ele>601.1</ele>
<speed>3.4</speed>
<course>239.6</course>
<desc>Speed 3.4 km/h Distance 45.46 km</desc>
<time>2010-06-13T10:02:59.91</time>
<name>12014</name>
</trkpt>
<trkpt lat="49.177955" lon="11.815752">
<ele>602.2</ele>
<speed>1.5</speed>
<course>264.2</course>
<desc>Speed 1.5 km/h Distance 45.46 km</desc>
<time>2010-06-13T10:03:00.91</time>
<name>12015</name>
</trkpt>
<trkpt lat="49.177953" lon="11.815727">
<ele>603.6</ele>
<speed>2.3</speed>
<course>276.7</course>
<desc>Speed 2.3 km/h Distance 45.46 km</desc>
<time>2010-06-13T10:03:01.91</time>
<name>12016</name>
</trkpt>
<trkpt lat="49.177955" lon="11.815705">
<ele>604.3</ele>
<speed>1.9</speed>
<course>257.1</course>
<desc>Speed 1.9 km/h Distance 45.46 km</desc>
<time>2010-06-13T10:03:02.91</time>
<name>12017</name>
</trkpt>
<trkpt lat="49.177950" lon="11.815672">
<ele>605.2</ele>
<speed>4.3</speed>
<course>245.9</course>
<desc>Speed 4.3 km/h Distance 45.47 km</desc>
<time>2010-06-13T10:03:03.91</time>
<name>12018</name>
</trkpt>
<trkpt lat="49.177938" lon="11.815632">
<ele>608.1</ele>
<speed>4.9</speed>
<course>249.1</course>
<desc>Speed 4.9 km/h Distance 45.47 km</desc>
<time>2010-06-13T10:03:04.91</time>
<name>12019</name>
</trkpt>
<trkpt lat="49.177917" lon="11.815545">
<ele>610.3</ele>
<speed>6.0</speed>
<course>232.6</course>
<desc>Speed 6.0 km/h Distance 45.48 km</desc>
<time>2010-06-13T10:03:06.91</time>
<name>12020</name>
</trkpt>
<trkpt lat="49.177898" lon="11.815508">
<ele>610.9</ele>
<speed>6.2</speed>
<course>245.9</course>
<desc>Speed 6.2 km/h Distance 45.48 km</desc>
<time>2010-06-13T10:03:07.91</time>
<name>12021</name>
</trkpt>
<trkpt lat="49.177887" lon="11.815468">
<ele>613.4</ele>
<speed>8.0</speed>
<course>254.9</course>
<desc>Speed 8.0 km/h Distance 45.48 km</desc>
<time>2010-06-13T10:03:08.91</time>
<name>12022</name>
</trkpt>
<trkpt lat="49.177882" lon="11.815440">
<ele>613.1</ele>
<speed>7.7</speed>
<course>254.1</course>
<desc>Speed 7.7 km/h Distance 45.49 km</desc>
<time>2010-06-13T10:03:09.91</time>
<name>12023</name>
</trkpt>
<trkpt lat="49.177860" lon="11.815323">
<ele>614.0</ele>
<speed>8.2</speed>
<course>285.3</course>
<desc>Speed 8.2 km/h Distance 45.49 km</desc>
<time>2010-06-13T10:03:11.91</time>
<name>12024</name>
</trkpt>
<trkpt lat="49.177868" lon="11.815277">
<ele>614.3</ele>
<speed>7.1</speed>
<course>258.5</course>
<desc>Speed 7.1 km/h Distance 45.50 km</desc>
<time>2010-06-13T10:03:12.91</time>
<name>12025</name>
</trkpt>
<trkpt lat="49.177865" lon="11.815252">
<ele>613.4</ele>
<speed>6.1</speed>
<course>234.8</course>
<desc>Speed 6.1 km/h Distance 45.50 km</desc>
<time>2010-06-13T10:03:13.91</time>
<name>12026</name>
</trkpt>
<trkpt lat="49.177825" lon="11.815165">
<ele>617.3</ele>
<speed>6.9</speed>
<course>239.8</course>
<desc>Speed 6.9 km/h Distance 45.51 km</desc>
<time>2010-06-13T10:03:15.91</time>
<name>12027</name>
</trkpt>
<trkpt lat="49.177812" lon="11.815130">
<ele>619.1</ele>
<speed>5.3</speed>
<course>235.4</course>
<desc>Speed 5.3 km/h Distance 45.51 km</desc>
<time>2010-06-13T10:03:16.91</time>
<name>12028</name>
</trkpt>
<trkpt lat="49.177773" lon="11.815045">
<ele>622.5</ele>
<speed>5.8</speed>
<course>261.0</course>
<desc>Speed 5.8 km/h Distance 45.52 km</desc>
<time>2010-06-13T10:03:18.91</time>
<name>12029</name>
</trkpt>
<trkpt lat="49.177768" lon="11.814997">
<ele>624.2</ele>
<speed>6.4</speed>
<course>287.6</course>
<desc>Speed 6.4 km/h Distance 45.52 km</desc>
<time>2010-06-13T10:03:19.91</time>
<name>12030</name>
</trkpt>
<trkpt lat="49.177778" lon="11.814948">
<ele>627.9</ele>
<speed>6.3</speed>
<course>260.3</course>
<desc>Speed 6.3 km/h Distance 45.53 km</desc>
<time>2010-06-13T10:03:20.91</time>
<name>12031</name>
</trkpt>
<trkpt lat="49.177775" lon="11.814918">
<ele>627.7</ele>
<speed>4.6</speed>
<course>268.5</course>
<desc>Speed 4.6 km/h Distance 45.53 km</desc>
<time>2010-06-13T10:03:21.91</time>
<name>12032</name>
</trkpt>
<trkpt lat="49.177773" lon="11.814818">
<ele>626.7</ele>
<speed>7.4</speed>
<course>287.0</course>
<desc>Speed 7.4 km/h Distance 45.54 km</desc>
<time>2010-06-13T10:03:23.91</time>
<name>12033</name>
</trkpt>
<trkpt lat="49.177780" lon="11.814785">
<ele>623.9</ele>
<speed>6.9</speed>
<course>280.2</course>
<desc>Speed 6.9 km/h Distance 45.54 km</desc>
<time>2010-06-13T10:03:24.91</time>
<name>12034</name>
</trkpt>
<trkpt lat="49.177783" lon="11.814757">
<ele>620.6</ele>
<speed>5.5</speed>
<course>277.3</course>
<desc>Speed 5.5 km/h Distance 45.54 km</desc>
<time>2010-06-13T10:03:25.91</time>
<name>12035</name>
</trkpt>
<trkpt lat="49.177787" lon="11.814717">
<ele>617.2</ele>
<speed>5.8</speed>
<course>275.8</course>
<desc>Speed 5.8 km/h Distance 45.54 km</desc>
<time>2010-06-13T10:03:26.91</time>
<name>12036</name>
</trkpt>
<trkpt lat="49.177788" lon="11.814692">
<ele>615.2</ele>
<speed>5.8</speed>
<course>257.7</course>
<desc>Speed 5.8 km/h Distance 45.54 km</desc>
<time>2010-06-13T10:03:27.91</time>
<name>12037</name>
</trkpt>
<trkpt lat="49.177783" lon="11.814657">
<ele>613.5</ele>
<speed>6.3</speed>
<course>249.8</course>
<desc>Speed 6.3 km/h Distance 45.55 km</desc>
<time>2010-06-13T10:03:28.91</time>
<name>12038</name>
</trkpt>
<trkpt lat="49.177773" lon="11.814615">
<ele>613.8</ele>
<speed>6.4</speed>
<course>257.2</course>
<desc>Speed 6.4 km/h Distance 45.55 km</desc>
<time>2010-06-13T10:03:29.91</time>
<name>12039</name>
</trkpt>
<trkpt lat="49.177762" lon="11.814537">
<ele>613.1</ele>
<speed>6.0</speed>
<course>299.4</course>
<desc>Speed 6.0 km/h Distance 45.56 km</desc>
<time>2010-06-13T10:03:31.91</time>
<name>12040</name>
</trkpt>
<trkpt lat="49.177773" lon="11.814505">
<ele>614.6</ele>
<speed>5.4</speed>
<course>270.0</course>
<desc>Speed 5.4 km/h Distance 45.56 km</desc>
<time>2010-06-13T10:03:32.91</time>
<name>12041</name>
</trkpt>
<trkpt lat="49.177773" lon="11.814477">
<ele>612.3</ele>
<speed>4.8</speed>
<course>284.3</course>
<desc>Speed 4.8 km/h Distance 45.56 km</desc>
<time>2010-06-13T10:03:33.91</time>
<name>12042</name>
</trkpt>
<trkpt lat="49.177777" lon="11.814457">
<ele>612.0</ele>
<speed>4.0</speed>
<course>247.5</course>
<desc>Speed 4.0 km/h Distance 45.56 km</desc>
<time>2010-06-13T10:03:34.91</time>
<name>12043</name>
</trkpt>
<trkpt lat="49.177750" lon="11.814358">
<ele>611.5</ele>
<speed>6.0</speed>
<course>213.2</course>
<desc>Speed 6.0 km/h Distance 45.57 km</desc>
<time>2010-06-13T10:03:36.91</time>
<name>12044</name>
</trkpt>
<trkpt lat="49.177732" lon="11.814340">
<ele>610.6</ele>
<speed>5.9</speed>
<course>185.2</course>
<desc>Speed 5.9 km/h Distance 45.57 km</desc>
<time>2010-06-13T10:03:37.91</time>
<name>12045</name>
</trkpt>
<trkpt lat="49.177660" lon="11.814330">
<ele>611.8</ele>
<speed>14.0</speed>
<course>185.0</course>
<desc>Speed 14.0 km/h Distance 45.58 km</desc>
<time>2010-06-13T10:03:39.91</time>
<name>12046</name>
</trkpt>
<trkpt lat="49.177635" lon="11.814327">
<ele>608.8</ele>
<speed>14.9</speed>
<course>182.5</course>
<desc>Speed 14.9 km/h Distance 45.58 km</desc>
<time>2010-06-13T10:03:40.91</time>
<name>12047</name>
</trkpt>
<trkpt lat="49.177610" lon="11.814325">
<ele>606.5</ele>
<speed>15.2</speed>
<course>175.8</course>
<desc>Speed 15.2 km/h Distance 45.59 km</desc>
<time>2010-06-13T10:03:41.91</time>
<name>12048</name>
</trkpt>
<trkpt lat="49.177578" lon="11.814328">
<ele>604.4</ele>
<speed>14.8</speed>
<course>179.1</course>
<desc>Speed 14.8 km/h Distance 45.59 km</desc>
<time>2010-06-13T10:03:42.91</time>
<name>12049</name>
</trkpt>
<trkpt lat="49.177543" lon="11.814330">
<ele>602.6</ele>
<speed>14.6</speed>
<course>180.0</course>
<desc>Speed 14.6 km/h Distance 45.59 km</desc>
<time>2010-06-13T10:03:43.91</time>
<name>12050</name>
</trkpt>
<trkpt lat="49.177507" lon="11.814330">
<ele>601.1</ele>
<speed>15.0</speed>
<course>181.2</course>
<desc>Speed 15.0 km/h Distance 45.60 km</desc>
<time>2010-06-13T10:03:44.91</time>
<name>12051</name>
</trkpt>
<trkpt lat="49.177473" lon="11.814328">
<ele>599.8</ele>
<speed>15.0</speed>
<course>180.0</course>
<desc>Speed 15.0 km/h Distance 45.60 km</desc>
<time>2010-06-13T10:03:45.91</time>
<name>12052</name>
</trkpt>
<trkpt lat="49.177437" lon="11.814328">
<ele>598.8</ele>
<speed>14.5</speed>
<course>170.6</course>
<desc>Speed 14.5 km/h Distance 45.61 km</desc>
<time>2010-06-13T10:03:46.91</time>
<name>12053</name>
</trkpt>
<trkpt lat="49.177403" lon="11.814337">
<ele>598.2</ele>
<speed>13.4</speed>
<course>174.6</course>
<desc>Speed 13.4 km/h Distance 45.61 km</desc>
<time>2010-06-13T10:03:47.91</time>
<name>12054</name>
</trkpt>
<trkpt lat="49.177370" lon="11.814342">
<ele>597.2</ele>
<speed>14.1</speed>
<course>167.1</course>
<desc>Speed 14.1 km/h Distance 45.61 km</desc>
<time>2010-06-13T10:03:48.91</time>
<name>12055</name>
</trkpt>
<trkpt lat="49.177337" lon="11.814353">
<ele>595.7</ele>
<speed>14.7</speed>
<course>181.9</course>
<desc>Speed 14.7 km/h Distance 45.62 km</desc>
<time>2010-06-13T10:03:49.91</time>
<name>12056</name>
</trkpt>
<trkpt lat="49.177298" lon="11.814352">
<ele>594.6</ele>
<speed>15.2</speed>
<course>172.0</course>
<desc>Speed 15.2 km/h Distance 45.62 km</desc>
<time>2010-06-13T10:03:50.91</time>
<name>12057</name>
</trkpt>
<trkpt lat="49.177260" lon="11.814360">
<ele>594.0</ele>
<speed>15.8</speed>
<course>173.9</course>
<desc>Speed 15.8 km/h Distance 45.63 km</desc>
<time>2010-06-13T10:03:51.91</time>
<name>12058</name>
</trkpt>
<trkpt lat="49.177220" lon="11.814367">
<ele>592.8</ele>
<speed>15.9</speed>
<course>167.2</course>
<desc>Speed 15.9 km/h Distance 45.63 km</desc>
<time>2010-06-13T10:03:52.91</time>
<name>12059</name>
</trkpt>
<trkpt lat="49.177182" lon="11.814380">
<ele>592.3</ele>
<speed>14.5</speed>
<course>162.7</course>
<desc>Speed 14.5 km/h Distance 45.63 km</desc>
<time>2010-06-13T10:03:53.91</time>
<name>12060</name>
</trkpt>
<trkpt lat="49.177147" lon="11.814397">
<ele>591.7</ele>
<speed>13.1</speed>
<course>165.8</course>
<desc>Speed 13.1 km/h Distance 45.64 km</desc>
<time>2010-06-13T10:03:54.91</time>
<name>12061</name>
</trkpt>
<trkpt lat="49.177117" lon="11.814408">
<ele>591.8</ele>
<speed>12.6</speed>
<course>161.9</course>
<desc>Speed 12.6 km/h Distance 45.64 km</desc>
<time>2010-06-13T10:03:55.91</time>
<name>12062</name>
</trkpt>
<trkpt lat="49.177087" lon="11.814423">
<ele>591.9</ele>
<speed>11.8</speed>
<course>181.9</course>
<desc>Speed 11.8 km/h Distance 45.65 km</desc>
<time>2010-06-13T10:03:56.91</time>
<name>12063</name>
</trkpt>
<trkpt lat="49.177057" lon="11.814422">
<ele>592.5</ele>
<speed>12.3</speed>
<course>183.6</course>
<desc>Speed 12.3 km/h Distance 45.65 km</desc>
<time>2010-06-13T10:03:57.91</time>
<name>12064</name>
</trkpt>
<trkpt lat="49.177025" lon="11.814418">
<ele>593.2</ele>
<speed>12.6</speed>
<course>195.6</course>
<desc>Speed 12.6 km/h Distance 45.65 km</desc>
<time>2010-06-13T10:03:58.91</time>
<name>12065</name>
</trkpt>
<trkpt lat="49.176990" lon="11.814403">
<ele>594.6</ele>
<speed>11.6</speed>
<course>180.0</course>
<desc>Speed 11.6 km/h Distance 45.66 km</desc>
<time>2010-06-13T10:03:59.91</time>
<name>12066</name>
</trkpt>
<trkpt lat="49.176972" lon="11.814403">
<ele>593.8</ele>
<speed>8.6</speed>
<course>233.7</course>
<desc>Speed 8.6 km/h Distance 45.66 km</desc>
<time>2010-06-13T10:04:00.91</time>
<name>12067</name>
</trkpt>
<trkpt lat="49.176952" lon="11.814362">
<ele>594.3</ele>
<speed>8.0</speed>
<course>232.6</course>
<desc>Speed 8.0 km/h Distance 45.66 km</desc>
<time>2010-06-13T10:04:01.91</time>
<name>12068</name>
</trkpt>
<trkpt lat="49.176935" lon="11.814328">
<ele>595.1</ele>
<speed>7.1</speed>
<course>230.8</course>
<desc>Speed 7.1 km/h Distance 45.67 km</desc>
<time>2010-06-13T10:04:02.91</time>
<name>12069</name>
</trkpt>
<trkpt lat="49.176922" lon="11.814303">
<ele>595.8</ele>
<speed>6.4</speed>
<course>226.7</course>
<desc>Speed 6.4 km/h Distance 45.67 km</desc>
<time>2010-06-13T10:04:03.91</time>
<name>12070</name>
</trkpt>
<trkpt lat="49.176908" lon="11.814282">
<ele>595.5</ele>
<speed>5.3</speed>
<course>236.7</course>
<desc>Speed 5.3 km/h Distance 45.67 km</desc>
<time>2010-06-13T10:04:04.91</time>
<name>12071</name>
</trkpt>
<trkpt lat="49.176898" lon="11.814258">
<ele>595.4</ele>
<speed>5.6</speed>
<course>213.2</course>
<desc>Speed 5.6 km/h Distance 45.67 km</desc>
<time>2010-06-13T10:04:05.91</time>
<name>12072</name>
</trkpt>
<trkpt lat="49.176875" lon="11.814235">
<ele>594.8</ele>
<speed>6.8</speed>
<course>230.4</course>
<desc>Speed 6.8 km/h Distance 45.67 km</desc>
<time>2010-06-13T10:04:06.91</time>
<name>12073</name>
</trkpt>
<trkpt lat="49.176853" lon="11.814195">
<ele>596.4</ele>
<speed>8.6</speed>
<course>215.0</course>
<desc>Speed 8.6 km/h Distance 45.68 km</desc>
<time>2010-06-13T10:04:07.91</time>
<name>12074</name>
</trkpt>
<trkpt lat="49.176830" lon="11.814170">
<ele>598.9</ele>
<speed>8.7</speed>
<course>199.1</course>
<desc>Speed 8.7 km/h Distance 45.68 km</desc>
<time>2010-06-13T10:04:08.91</time>
<name>12075</name>
</trkpt>
<trkpt lat="49.176802" lon="11.814155">
<ele>600.4</ele>
<speed>6.5</speed>
<course>224.4</course>
<desc>Speed 6.5 km/h Distance 45.69 km</desc>
<time>2010-06-13T10:04:09.91</time>
<name>12076</name>
</trkpt>
<trkpt lat="49.176792" lon="11.814140">
<ele>601.1</ele>
<speed>6.1</speed>
<course>213.1</course>
<desc>Speed 6.1 km/h Distance 45.69 km</desc>
<time>2010-06-13T10:04:10.91</time>
<name>12077</name>
</trkpt>
<trkpt lat="49.176777" lon="11.814125">
<ele>602.2</ele>
<speed>5.3</speed>
<course>199.7</course>
<desc>Speed 5.3 km/h Distance 45.69 km</desc>
<time>2010-06-13T10:04:11.91</time>
<name>12078</name>
</trkpt>
<trkpt lat="49.176758" lon="11.814115">
<ele>603.3</ele>
<speed>5.7</speed>
<course>203.7</course>
<desc>Speed 5.7 km/h Distance 45.69 km</desc>
<time>2010-06-13T10:04:12.91</time>
<name>12079</name>
</trkpt>
<trkpt lat="49.176743" lon="11.814105">
<ele>603.1</ele>
<speed>4.6</speed>
<course>216.9</course>
<desc>Speed 4.6 km/h Distance 45.69 km</desc>
<time>2010-06-13T10:04:13.91</time>
<name>12080</name>
</trkpt>
<trkpt lat="49.176732" lon="11.814092">
<ele>602.2</ele>
<speed>5.6</speed>
<course>236.2</course>
<desc>Speed 5.6 km/h Distance 45.69 km</desc>
<time>2010-06-13T10:04:14.91</time>
<name>12081</name>
</trkpt>
<trkpt lat="49.176720" lon="11.814065">
<ele>601.2</ele>
<speed>6.1</speed>
<course>232.6</course>
<desc>Speed 6.1 km/h Distance 45.70 km</desc>
<time>2010-06-13T10:04:15.91</time>
<name>12082</name>
</trkpt>
<trkpt lat="49.176703" lon="11.814032">
<ele>600.9</ele>
<speed>7.1</speed>
<course>217.3</course>
<desc>Speed 7.1 km/h Distance 45.70 km</desc>
<time>2010-06-13T10:04:16.91</time>
<name>12083</name>
</trkpt>
<trkpt lat="49.176683" lon="11.814008">
<ele>598.6</ele>
<speed>6.7</speed>
<course>217.7</course>
<desc>Speed 6.7 km/h Distance 45.70 km</desc>
<time>2010-06-13T10:04:17.91</time>
<name>12084</name>
</trkpt>
<trkpt lat="49.176665" lon="11.813987">
<ele>597.1</ele>
<speed>6.2</speed>
<course>238.6</course>
<desc>Speed 6.2 km/h Distance 45.70 km</desc>
<time>2010-06-13T10:04:18.91</time>
<name>12085</name>
</trkpt>
<trkpt lat="49.176658" lon="11.813970">
<ele>596.3</ele>
<speed>4.3</speed>
<course>234.8</course>
<desc>Speed 4.3 km/h Distance 45.71 km</desc>
<time>2010-06-13T10:04:19.91</time>
<name>12086</name>
</trkpt>
<trkpt lat="49.176648" lon="11.813948">
<ele>594.2</ele>
<speed>4.4</speed>
<course>212.2</course>
<desc>Speed 4.4 km/h Distance 45.71 km</desc>
<time>2010-06-13T10:04:20.91</time>
<name>12087</name>
</trkpt>
<trkpt lat="49.176605" lon="11.813907">
<ele>592.4</ele>
<speed>4.5</speed>
<course>245.3</course>
<desc>Speed 4.5 km/h Distance 45.71 km</desc>
<time>2010-06-13T10:04:22.91</time>
<name>12088</name>
</trkpt>
<trkpt lat="49.176595" lon="11.813873">
<ele>592.7</ele>
<speed>4.1</speed>
<course>245.8</course>
<desc>Speed 4.1 km/h Distance 45.72 km</desc>
<time>2010-06-13T10:04:23.91</time>
<name>12089</name>
</trkpt>
<trkpt lat="49.176587" lon="11.813845">
<ele>595.3</ele>
<speed>5.1</speed>
<course>234.1</course>
<desc>Speed 5.1 km/h Distance 45.72 km</desc>
<time>2010-06-13T10:04:24.91</time>
<name>12090</name>
</trkpt>
<trkpt lat="49.176572" lon="11.813813">
<ele>594.1</ele>
<speed>5.1</speed>
<course>220.1</course>
<desc>Speed 5.1 km/h Distance 45.72 km</desc>
<time>2010-06-13T10:04:25.91</time>
<name>12091</name>
</trkpt>
<trkpt lat="49.176548" lon="11.813783">
<ele>592.8</ele>
<speed>6.8</speed>
<course>232.6</course>
<desc>Speed 6.8 km/h Distance 45.73 km</desc>
<time>2010-06-13T10:04:26.91</time>
<name>12092</name>
</trkpt>
<trkpt lat="49.176537" lon="11.813760">
<ele>591.7</ele>
<speed>6.5</speed>
<course>242.0</course>
<desc>Speed 6.5 km/h Distance 45.73 km</desc>
<time>2010-06-13T10:04:27.91</time>
<name>12093</name>
</trkpt>
<trkpt lat="49.176523" lon="11.813722">
<ele>592.8</ele>
<speed>8.3</speed>
<course>246.8</course>
<desc>Speed 8.3 km/h Distance 45.73 km</desc>
<time>2010-06-13T10:04:28.91</time>
<name>12094</name>
</trkpt>
<trkpt lat="49.176512" lon="11.813680">
<ele>593.6</ele>
<speed>7.8</speed>
<course>246.8</course>
<desc>Speed 7.8 km/h Distance 45.73 km</desc>
<time>2010-06-13T10:04:29.91</time>
<name>12095</name>
</trkpt>
<trkpt lat="49.176500" lon="11.813638">
<ele>595.1</ele>
<speed>8.2</speed>
<course>243.0</course>
<desc>Speed 8.2 km/h Distance 45.74 km</desc>
<time>2010-06-13T10:04:30.91</time>
<name>12096</name>
</trkpt>
<trkpt lat="49.176487" lon="11.813598">
<ele>595.9</ele>
<speed>7.5</speed>
<course>238.5</course>
<desc>Speed 7.5 km/h Distance 45.74 km</desc>
<time>2010-06-13T10:04:31.91</time>
<name>12097</name>
</trkpt>
<trkpt lat="49.176473" lon="11.813565">
<ele>595.5</ele>
<speed>5.7</speed>
<course>232.6</course>
<desc>Speed 5.7 km/h Distance 45.74 km</desc>
<time>2010-06-13T10:04:32.91</time>
<name>12098</name>
</trkpt>
<trkpt lat="49.176463" lon="11.813545">
<ele>595.6</ele>
<speed>6.2</speed>
<course>210.1</course>
<desc>Speed 6.2 km/h Distance 45.75 km</desc>
<time>2010-06-13T10:04:33.91</time>
<name>12099</name>
</trkpt>
<trkpt lat="49.176448" lon="11.813532">
<ele>595.0</ele>
<speed>6.2</speed>
<course>176.2</course>
<desc>Speed 6.2 km/h Distance 45.75 km</desc>
<time>2010-06-13T10:04:34.91</time>
<name>12100</name>
</trkpt>
<trkpt lat="49.176433" lon="11.813533">
<ele>594.1</ele>
<speed>5.0</speed>
<course>208.1</course>
<desc>Speed 5.0 km/h Distance 45.75 km</desc>
<time>2010-06-13T10:04:35.91</time>
<name>12101</name>
</trkpt>
<trkpt lat="49.176415" lon="11.813518">
<ele>594.7</ele>
<speed>5.2</speed>
<course>226.7</course>
<desc>Speed 5.2 km/h Distance 45.75 km</desc>
<time>2010-06-13T10:04:36.91</time>
<name>12102</name>
</trkpt>
<trkpt lat="49.176402" lon="11.813497">
<ele>593.8</ele>
<speed>7.1</speed>
<course>226.3</course>
<desc>Speed 7.1 km/h Distance 45.75 km</desc>
<time>2010-06-13T10:04:37.91</time>
<name>12103</name>
</trkpt>
<trkpt lat="49.176385" lon="11.813470">
<ele>594.1</ele>
<speed>7.0</speed>
<course>243.0</course>
<desc>Speed 7.0 km/h Distance 45.76 km</desc>
<time>2010-06-13T10:04:38.91</time>
<name>12104</name>
</trkpt>
<trkpt lat="49.176373" lon="11.813435">
<ele>595.0</ele>
<speed>8.2</speed>
<course>249.7</course>
<desc>Speed 8.2 km/h Distance 45.76 km</desc>
<time>2010-06-13T10:04:39.91</time>
<name>12105</name>
</trkpt>
<trkpt lat="49.176362" lon="11.813387">
<ele>596.8</ele>
<speed>8.6</speed>
<course>239.8</course>
<desc>Speed 8.6 km/h Distance 45.76 km</desc>
<time>2010-06-13T10:04:40.91</time>
<name>12106</name>
</trkpt>
<trkpt lat="49.176348" lon="11.813352">
<ele>597.6</ele>
<speed>7.6</speed>
<course>233.8</course>
<desc>Speed 7.6 km/h Distance 45.77 km</desc>
<time>2010-06-13T10:04:41.91</time>
<name>12107</name>
</trkpt>
<trkpt lat="49.176330" lon="11.813313">
<ele>598.7</ele>
<speed>8.1</speed>
<course>231.5</course>
<desc>Speed 8.1 km/h Distance 45.77 km</desc>
<time>2010-06-13T10:04:42.91</time>
<name>12108</name>
</trkpt>
<trkpt lat="49.176308" lon="11.813272">
<ele>598.6</ele>
<speed>8.9</speed>
<course>232.6</course>
<desc>Speed 8.9 km/h Distance 45.77 km</desc>
<time>2010-06-13T10:04:43.91</time>
<name>12109</name>
</trkpt>
<trkpt lat="49.176287" lon="11.813228">
<ele>598.0</ele>
<speed>10.1</speed>
<course>226.9</course>
<desc>Speed 10.1 km/h Distance 45.78 km</desc>
<time>2010-06-13T10:04:44.91</time>
<name>12110</name>
</trkpt>
<trkpt lat="49.176268" lon="11.813198">
<ele>596.6</ele>
<speed>8.7</speed>
<course>236.8</course>
<desc>Speed 8.7 km/h Distance 45.78 km</desc>
<time>2010-06-13T10:04:45.91</time>
<name>12111</name>
</trkpt>
<trkpt lat="49.176253" lon="11.813163">
<ele>595.4</ele>
<speed>7.6</speed>
<course>225.5</course>
<desc>Speed 7.6 km/h Distance 45.78 km</desc>
<time>2010-06-13T10:04:46.91</time>
<name>12112</name>
</trkpt>
<trkpt lat="49.176238" lon="11.813140">
<ele>595.2</ele>
<speed>6.6</speed>
<course>234.3</course>
<desc>Speed 6.6 km/h Distance 45.79 km</desc>
<time>2010-06-13T10:04:47.91</time>
<name>12113</name>
</trkpt>
<trkpt lat="49.176225" lon="11.813112">
<ele>595.7</ele>
<speed>5.6</speed>
<course>225.3</course>
<desc>Speed 5.6 km/h Distance 45.79 km</desc>
<time>2010-06-13T10:04:48.91</time>
<name>12114</name>
</trkpt>
<trkpt lat="49.176207" lon="11.813083">
<ele>595.3</ele>
<speed>6.5</speed>
<course>197.1</course>
<desc>Speed 6.5 km/h Distance 45.79 km</desc>
<time>2010-06-13T10:04:49.91</time>
<name>12115</name>
</trkpt>
<trkpt lat="49.176178" lon="11.813070">
<ele>594.6</ele>
<speed>7.6</speed>
<course>188.1</course>
<desc>Speed 7.6 km/h Distance 45.79 km</desc>
<time>2010-06-13T10:04:50.91</time>
<name>12116</name>
</trkpt>
<trkpt lat="49.176155" lon="11.813065">
<ele>593.6</ele>
<speed>8.2</speed>
<course>195.0</course>
<desc>Speed 8.2 km/h Distance 45.80 km</desc>
<time>2010-06-13T10:04:51.91</time>
<name>12117</name>
</trkpt>
<trkpt lat="49.176135" lon="11.813057">
<ele>592.5</ele>
<speed>6.5</speed>
<course>213.2</course>
<desc>Speed 6.5 km/h Distance 45.80 km</desc>
<time>2010-06-13T10:04:52.91</time>
<name>12118</name>
</trkpt>
<trkpt lat="49.176118" lon="11.813040">
<ele>591.7</ele>
<speed>5.5</speed>
<course>228.5</course>
<desc>Speed 5.5 km/h Distance 45.80 km</desc>
<time>2010-06-13T10:04:53.91</time>
<name>12119</name>
</trkpt>
<trkpt lat="49.176100" lon="11.813008">
<ele>592.5</ele>
<speed>4.7</speed>
<course>189.5</course>
<desc>Speed 4.7 km/h Distance 45.80 km</desc>
<time>2010-06-13T10:04:54.91</time>
<name>12120</name>
</trkpt>
<trkpt lat="49.176080" lon="11.813003">
<ele>591.6</ele>
<speed>5.3</speed>
<course>178.6</course>
<desc>Speed 5.3 km/h Distance 45.81 km</desc>
<time>2010-06-13T10:04:55.91</time>
<name>12121</name>
</trkpt>
<trkpt lat="49.176052" lon="11.813005">
<ele>590.2</ele>
<speed>8.8</speed>
<course>185.3</course>
<desc>Speed 8.8 km/h Distance 45.81 km</desc>
<time>2010-06-13T10:04:56.91</time>
<name>12122</name>
</trkpt>
<trkpt lat="49.176017" lon="11.813000">
<ele>589.1</ele>
<speed>10.5</speed>
<course>205.1</course>
<desc>Speed 10.5 km/h Distance 45.81 km</desc>
<time>2010-06-13T10:04:57.91</time>
<name>12123</name>
</trkpt>
<trkpt lat="49.175940" lon="11.812945">
<ele>591.0</ele>
<speed>10.1</speed>
<course>205.8</course>
<desc>Speed 10.1 km/h Distance 45.82 km</desc>
<time>2010-06-13T10:04:59.91</time>
<name>12124</name>
</trkpt>
<trkpt lat="49.175902" lon="11.812917">
<ele>592.1</ele>
<speed>10.5</speed>
<course>200.7</course>
<desc>Speed 10.5 km/h Distance 45.83 km</desc>
<time>2010-06-13T10:05:00.91</time>
<name>12125</name>
</trkpt>
<trkpt lat="49.175870" lon="11.812898">
<ele>592.4</ele>
<speed>10.6</speed>
<course>198.1</course>
<desc>Speed 10.6 km/h Distance 45.83 km</desc>
<time>2010-06-13T10:05:01.91</time>
<name>12126</name>
</trkpt>
<trkpt lat="49.175790" lon="11.812858">
<ele>592.3</ele>
<speed>11.5</speed>
<course>188.9</course>
<desc>Speed 11.5 km/h Distance 45.84 km</desc>
<time>2010-06-13T10:05:03.91</time>
<name>12127</name>
</trkpt>
<trkpt lat="49.175748" lon="11.812848">
<ele>592.8</ele>
<speed>12.0</speed>
<course>205.0</course>
<desc>Speed 12.0 km/h Distance 45.85 km</desc>
<time>2010-06-13T10:05:04.91</time>
<name>12128</name>
</trkpt>
<trkpt lat="49.175713" lon="11.812823">
<ele>592.4</ele>
<speed>9.9</speed>
<course>227.5</course>
<desc>Speed 9.9 km/h Distance 45.85 km</desc>
<time>2010-06-13T10:05:05.91</time>
<name>12129</name>
</trkpt>
<trkpt lat="49.175693" lon="11.812790">
<ele>591.9</ele>
<speed>10.2</speed>
<course>243.0</course>
<desc>Speed 10.2 km/h Distance 45.85 km</desc>
<time>2010-06-13T10:05:06.91</time>
<name>12130</name>
</trkpt>
<trkpt lat="49.175677" lon="11.812740">
<ele>590.4</ele>
<speed>10.6</speed>
<course>249.1</course>
<desc>Speed 10.6 km/h Distance 45.86 km</desc>
<time>2010-06-13T10:05:07.91</time>
<name>12131</name>
</trkpt>
<trkpt lat="49.175665" lon="11.812693">
<ele>589.7</ele>
<speed>9.4</speed>
<course>270.0</course>
<desc>Speed 9.4 km/h Distance 45.86 km</desc>
<time>2010-06-13T10:05:08.91</time>
<name>12132</name>
</trkpt>
<trkpt lat="49.175665" lon="11.812527">
<ele>585.2</ele>
<speed>14.7</speed>
<course>276.1</course>
<desc>Speed 14.7 km/h Distance 45.87 km</desc>
<time>2010-06-13T10:05:10.91</time>
<name>12133</name>
</trkpt>
<trkpt lat="49.175670" lon="11.812455">
<ele>584.1</ele>
<speed>13.2</speed>
<course>257.1</course>
<desc>Speed 13.2 km/h Distance 45.88 km</desc>
<time>2010-06-13T10:05:11.91</time>
<name>12134</name>
</trkpt>
<trkpt lat="49.175660" lon="11.812388">
<ele>586.8</ele>
<speed>12.3</speed>
<course>281.4</course>
<desc>Speed 12.3 km/h Distance 45.88 km</desc>
<time>2010-06-13T10:05:12.91</time>
<name>12135</name>
</trkpt>
<trkpt lat="49.175668" lon="11.812325">
<ele>585.8</ele>
<speed>11.6</speed>
<course>275.3</course>
<desc>Speed 11.6 km/h Distance 45.89 km</desc>
<time>2010-06-13T10:05:13.91</time>
<name>12136</name>
</trkpt>
<trkpt lat="49.175672" lon="11.812270">
<ele>585.5</ele>
<speed>10.7</speed>
<course>278.4</course>
<desc>Speed 10.7 km/h Distance 45.89 km</desc>
<time>2010-06-13T10:05:14.91</time>
<name>12137</name>
</trkpt>
<trkpt lat="49.175687" lon="11.812115">
<ele>588.7</ele>
<speed>11.2</speed>
<course>302.3</course>
<desc>Speed 11.2 km/h Distance 45.90 km</desc>
<time>2010-06-13T10:05:16.91</time>
<name>12138</name>
</trkpt>
<trkpt lat="49.175707" lon="11.812067">
<ele>590.2</ele>
<speed>11.1</speed>
<course>301.1</course>
<desc>Speed 11.1 km/h Distance 45.91 km</desc>
<time>2010-06-13T10:05:17.91</time>
<name>12139</name>
</trkpt>
<trkpt lat="49.175728" lon="11.812012">
<ele>593.7</ele>
<speed>10.3</speed>
<course>316.8</course>
<desc>Speed 10.3 km/h Distance 45.91 km</desc>
<time>2010-06-13T10:05:18.91</time>
<name>12140</name>
</trkpt>
<trkpt lat="49.175797" lon="11.811913">
<ele>595.6</ele>
<speed>16.5</speed>
<course>320.5</course>
<desc>Speed 16.5 km/h Distance 45.92 km</desc>
<time>2010-06-13T10:05:20.91</time>
<name>12141</name>
</trkpt>
<trkpt lat="49.175835" lon="11.811865">
<ele>594.7</ele>
<speed>16.4</speed>
<course>305.9</course>
<desc>Speed 16.4 km/h Distance 45.93 km</desc>
<time>2010-06-13T10:05:21.91</time>
<name>12142</name>
</trkpt>
<trkpt lat="49.175865" lon="11.811802">
<ele>593.2</ele>
<speed>12.7</speed>
<course>267.5</course>
<desc>Speed 12.7 km/h Distance 45.93 km</desc>
<time>2010-06-13T10:05:23.91</time>
<name>12143</name>
</trkpt>
<trkpt lat="49.175863" lon="11.811743">
<ele>591.9</ele>
<speed>13.2</speed>
<course>234.6</course>
<desc>Speed 13.2 km/h Distance 45.94 km</desc>
<time>2010-06-13T10:05:24.91</time>
<name>12144</name>
</trkpt>
<trkpt lat="49.175798" lon="11.811603">
<ele>586.0</ele>
<speed>18.9</speed>
<course>235.1</course>
<desc>Speed 18.9 km/h Distance 45.95 km</desc>
<time>2010-06-13T10:05:26.91</time>
<name>12145</name>
</trkpt>
<trkpt lat="49.175763" lon="11.811527">
<ele>585.2</ele>
<speed>20.3</speed>
<course>236.9</course>
<desc>Speed 20.3 km/h Distance 45.96 km</desc>
<time>2010-06-13T10:05:27.91</time>
<name>12146</name>
</trkpt>
<trkpt lat="49.175730" lon="11.811448">
<ele>585.4</ele>
<speed>21.1</speed>
<course>236.4</course>
<desc>Speed 21.1 km/h Distance 45.96 km</desc>
<time>2010-06-13T10:05:28.91</time>
<name>12147</name>
</trkpt>
<trkpt lat="49.175697" lon="11.811372">
<ele>585.2</ele>
<speed>21.1</speed>
<course>237.1</course>
<desc>Speed 21.1 km/h Distance 45.97 km</desc>
<time>2010-06-13T10:05:29.91</time>
<name>12148</name>
</trkpt>
<trkpt lat="49.175665" lon="11.811297">
<ele>585.0</ele>
<speed>21.0</speed>
<course>241.6</course>
<desc>Speed 21.0 km/h Distance 45.98 km</desc>
<time>2010-06-13T10:05:30.91</time>
<name>12149</name>
</trkpt>
<trkpt lat="49.175637" lon="11.811217">
<ele>584.9</ele>
<speed>21.4</speed>
<course>241.0</course>
<desc>Speed 21.4 km/h Distance 45.98 km</desc>
<time>2010-06-13T10:05:31.91</time>
<name>12150</name>
</trkpt>
<trkpt lat="49.175608" lon="11.811138">
<ele>584.6</ele>
<speed>22.3</speed>
<course>240.2</course>
<desc>Speed 22.3 km/h Distance 45.99 km</desc>
<time>2010-06-13T10:05:32.91</time>
<name>12151</name>
</trkpt>
<trkpt lat="49.175578" lon="11.811058">
<ele>584.1</ele>
<speed>22.7</speed>
<course>238.0</course>
<desc>Speed 22.7 km/h Distance 46.00 km</desc>
<time>2010-06-13T10:05:33.91</time>
<name>12152</name>
</trkpt>
<trkpt lat="49.175545" lon="11.810977">
<ele>583.8</ele>
<speed>24.0</speed>
<course>235.5</course>
<desc>Speed 24.0 km/h Distance 46.00 km</desc>
<time>2010-06-13T10:05:34.91</time>
<name>12153</name>
</trkpt>
<trkpt lat="49.175508" lon="11.810895">
<ele>583.2</ele>
<speed>25.3</speed>
<course>233.7</course>
<desc>Speed 25.3 km/h Distance 46.01 km</desc>
<time>2010-06-13T10:05:35.91</time>
<name>12154</name>
</trkpt>
<trkpt lat="49.175467" lon="11.810808">
<ele>582.3</ele>
<speed>27.1</speed>
<course>236.4</course>
<desc>Speed 27.1 km/h Distance 46.02 km</desc>
<time>2010-06-13T10:05:36.91</time>
<name>12155</name>
</trkpt>
<trkpt lat="49.175428" lon="11.810720">
<ele>582.2</ele>
<speed>26.4</speed>
<course>235.0</course>
<desc>Speed 26.4 km/h Distance 46.03 km</desc>
<time>2010-06-13T10:05:37.91</time>
<name>12156</name>
</trkpt>
<trkpt lat="49.175392" lon="11.810640">
<ele>581.2</ele>
<speed>24.3</speed>
<course>236.8</course>
<desc>Speed 24.3 km/h Distance 46.03 km</desc>
<time>2010-06-13T10:05:38.91</time>
<name>12157</name>
</trkpt>
<trkpt lat="49.175362" lon="11.810570">
<ele>581.0</ele>
<speed>19.9</speed>
<course>236.5</course>
<desc>Speed 19.9 km/h Distance 46.04 km</desc>
<time>2010-06-13T10:05:39.91</time>
<name>12158</name>
</trkpt>
<trkpt lat="49.175340" lon="11.810520">
<ele>580.4</ele>
<speed>13.6</speed>
<course>244.4</course>
<desc>Speed 13.6 km/h Distance 46.04 km</desc>
<time>2010-06-13T10:05:40.91</time>
<name>12159</name>
</trkpt>
<trkpt lat="49.175332" lon="11.810493">
<ele>579.3</ele>
<speed>8.8</speed>
<course>301.4</course>
<desc>Speed 8.8 km/h Distance 46.05 km</desc>
<time>2010-06-13T10:05:41.91</time>
<name>12160</name>
</trkpt>
<trkpt lat="49.175342" lon="11.810468">
<ele>578.2</ele>
<speed>8.8</speed>
<course>330.8</course>
<desc>Speed 8.8 km/h Distance 46.05 km</desc>
<time>2010-06-13T10:05:42.91</time>
<name>12161</name>
</trkpt>
<trkpt lat="49.175365" lon="11.810448">
<ele>578.5</ele>
<speed>12.2</speed>
<course>342.8</course>
<desc>Speed 12.2 km/h Distance 46.05 km</desc>
<time>2010-06-13T10:05:43.91</time>
<name>12162</name>
</trkpt>
<trkpt lat="49.175397" lon="11.810433">
<ele>578.9</ele>
<speed>13.0</speed>
<course>348.7</course>
<desc>Speed 13.0 km/h Distance 46.06 km</desc>
<time>2010-06-13T10:05:44.91</time>
<name>12163</name>
</trkpt>
<trkpt lat="49.175435" lon="11.810422">
<ele>579.5</ele>
<speed>12.9</speed>
<course>345.4</course>
<desc>Speed 12.9 km/h Distance 46.06 km</desc>
<time>2010-06-13T10:05:45.91</time>
<name>12164</name>
</trkpt>
<trkpt lat="49.175468" lon="11.810408">
<ele>579.8</ele>
<speed>13.7</speed>
<course>337.6</course>
<desc>Speed 13.7 km/h Distance 46.06 km</desc>
<time>2010-06-13T10:05:46.91</time>
<name>12165</name>
</trkpt>
<trkpt lat="49.175500" lon="11.810388">
<ele>580.1</ele>
<speed>13.3</speed>
<course>337.6</course>
<desc>Speed 13.3 km/h Distance 46.07 km</desc>
<time>2010-06-13T10:05:47.91</time>
<name>12166</name>
</trkpt>
<trkpt lat="49.175532" lon="11.810368">
<ele>580.5</ele>
<speed>13.9</speed>
<course>341.9</course>
<desc>Speed 13.9 km/h Distance 46.07 km</desc>
<time>2010-06-13T10:05:48.91</time>
<name>12167</name>
</trkpt>
<trkpt lat="49.175565" lon="11.810352">
<ele>580.9</ele>
<speed>13.8</speed>
<course>341.9</course>
<desc>Speed 13.8 km/h Distance 46.08 km</desc>
<time>2010-06-13T10:05:49.91</time>
<name>12168</name>
</trkpt>
<trkpt lat="49.175598" lon="11.810335">
<ele>581.1</ele>
<speed>13.2</speed>
<course>343.6</course>
<desc>Speed 13.2 km/h Distance 46.08 km</desc>
<time>2010-06-13T10:05:50.91</time>
<name>12169</name>
</trkpt>
<trkpt lat="49.175632" lon="11.810320">
<ele>581.8</ele>
<speed>14.1</speed>
<course>341.1</course>
<desc>Speed 14.1 km/h Distance 46.08 km</desc>
<time>2010-06-13T10:05:51.91</time>
<name>12170</name>
</trkpt>
<trkpt lat="49.175670" lon="11.810300">
<ele>582.2</ele>
<speed>14.8</speed>
<course>337.0</course>
<desc>Speed 14.8 km/h Distance 46.09 km</desc>
<time>2010-06-13T10:05:52.91</time>
<name>12171</name>
</trkpt>
<trkpt lat="49.175703" lon="11.810278">
<ele>582.2</ele>
<speed>14.4</speed>
<course>339.5</course>
<desc>Speed 14.4 km/h Distance 46.09 km</desc>
<time>2010-06-13T10:05:53.91</time>
<name>12172</name>
</trkpt>
<trkpt lat="49.175738" lon="11.810258">
<ele>582.2</ele>
<speed>14.7</speed>
<course>342.7</course>
<desc>Speed 14.7 km/h Distance 46.10 km</desc>
<time>2010-06-13T10:05:54.91</time>
<name>12173</name>
</trkpt>
<trkpt lat="49.175773" lon="11.810242">
<ele>582.4</ele>
<speed>15.3</speed>
<course>343.5</course>
<desc>Speed 15.3 km/h Distance 46.10 km</desc>
<time>2010-06-13T10:05:55.91</time>
<name>12174</name>
</trkpt>
<trkpt lat="49.175810" lon="11.810225">
<ele>582.5</ele>
<speed>15.1</speed>
<course>340.4</course>
<desc>Speed 15.1 km/h Distance 46.10 km</desc>
<time>2010-06-13T10:05:56.91</time>
<name>12175</name>
</trkpt>
<trkpt lat="49.175847" lon="11.810205">
<ele>582.6</ele>
<speed>15.2</speed>
<course>339.6</course>
<desc>Speed 15.2 km/h Distance 46.11 km</desc>
<time>2010-06-13T10:05:57.91</time>
<name>12176</name>
</trkpt>
<trkpt lat="49.175882" lon="11.810185">
<ele>582.9</ele>
<speed>15.4</speed>
<course>341.9</course>
<desc>Speed 15.4 km/h Distance 46.11 km</desc>
<time>2010-06-13T10:05:58.91</time>
<name>12177</name>
</trkpt>
<trkpt lat="49.175918" lon="11.810167">
<ele>583.2</ele>
<speed>15.8</speed>
<course>344.8</course>
<desc>Speed 15.8 km/h Distance 46.12 km</desc>
<time>2010-06-13T10:05:59.91</time>
<name>12178</name>
</trkpt>
<trkpt lat="49.175958" lon="11.810150">
<ele>583.5</ele>
<speed>15.2</speed>
<course>341.9</course>
<desc>Speed 15.2 km/h Distance 46.12 km</desc>
<time>2010-06-13T10:06:00.91</time>
<name>12179</name>
</trkpt>
<trkpt lat="49.175995" lon="11.810132">
<ele>583.8</ele>
<speed>14.9</speed>
<course>340.2</course>
<desc>Speed 14.9 km/h Distance 46.13 km</desc>
<time>2010-06-13T10:06:01.91</time>
<name>12180</name>
</trkpt>
<trkpt lat="49.176028" lon="11.810113">
<ele>584.1</ele>
<speed>14.2</speed>
<course>337.0</course>
<desc>Speed 14.2 km/h Distance 46.13 km</desc>
<time>2010-06-13T10:06:02.91</time>
<name>12181</name>
</trkpt>
<trkpt lat="49.176062" lon="11.810092">
<ele>584.3</ele>
<speed>13.8</speed>
<course>339.3</course>
<desc>Speed 13.8 km/h Distance 46.13 km</desc>
<time>2010-06-13T10:06:03.91</time>
<name>12182</name>
</trkpt>
<trkpt lat="49.176093" lon="11.810073">
<ele>584.6</ele>
<speed>13.0</speed>
<course>340.0</course>
<desc>Speed 13.0 km/h Distance 46.14 km</desc>
<time>2010-06-13T10:06:04.91</time>
<name>12183</name>
</trkpt>
<trkpt lat="49.176123" lon="11.810057">
<ele>584.9</ele>
<speed>12.8</speed>
<course>341.9</course>
<desc>Speed 12.8 km/h Distance 46.14 km</desc>
<time>2010-06-13T10:06:05.91</time>
<name>12184</name>
</trkpt>
<trkpt lat="49.176153" lon="11.810042">
<ele>585.3</ele>
<speed>12.5</speed>
<course>342.9</course>
<desc>Speed 12.5 km/h Distance 46.14 km</desc>
<time>2010-06-13T10:06:06.91</time>
<name>12185</name>
</trkpt>
<trkpt lat="49.176182" lon="11.810028">
<ele>585.5</ele>
<speed>11.4</speed>
<course>344.9</course>
<desc>Speed 11.4 km/h Distance 46.15 km</desc>
<time>2010-06-13T10:06:07.91</time>
<name>12186</name>
</trkpt>
<trkpt lat="49.176210" lon="11.810017">
<ele>585.8</ele>
<speed>11.3</speed>
<course>344.9</course>
<desc>Speed 11.3 km/h Distance 46.15 km</desc>
<time>2010-06-13T10:06:08.91</time>
<name>12187</name>
</trkpt>
<trkpt lat="49.176238" lon="11.810005">
<ele>586.3</ele>
<speed>11.7</speed>
<course>342.9</course>
<desc>Speed 11.7 km/h Distance 46.15 km</desc>
<time>2010-06-13T10:06:09.91</time>
<name>12188</name>
</trkpt>
<trkpt lat="49.176267" lon="11.809992">
<ele>586.7</ele>
<speed>11.7</speed>
<course>340.9</course>
<desc>Speed 11.7 km/h Distance 46.16 km</desc>
<time>2010-06-13T10:06:10.91</time>
<name>12189</name>
</trkpt>
<trkpt lat="49.176295" lon="11.809977">
<ele>587.1</ele>
<speed>11.6</speed>
<course>341.9</course>
<desc>Speed 11.6 km/h Distance 46.16 km</desc>
<time>2010-06-13T10:06:11.91</time>
<name>12190</name>
</trkpt>
<trkpt lat="49.176322" lon="11.809963">
<ele>587.4</ele>
<speed>10.9</speed>
<course>344.2</course>
<desc>Speed 10.9 km/h Distance 46.16 km</desc>
<time>2010-06-13T10:06:12.91</time>
<name>12191</name>
</trkpt>
<trkpt lat="49.176348" lon="11.809952">
<ele>587.8</ele>
<speed>11.0</speed>
<course>344.2</course>
<desc>Speed 11.0 km/h Distance 46.17 km</desc>
<time>2010-06-13T10:06:13.91</time>
<name>12192</name>
</trkpt>
<trkpt lat="49.176375" lon="11.809940">
<ele>588.1</ele>
<speed>11.1</speed>
<course>344.0</course>
<desc>Speed 11.1 km/h Distance 46.17 km</desc>
<time>2010-06-13T10:06:14.91</time>
<name>12193</name>
</trkpt>
<trkpt lat="49.176402" lon="11.809928">
<ele>588.6</ele>
<speed>11.2</speed>
<course>342.9</course>
<desc>Speed 11.2 km/h Distance 46.17 km</desc>
<time>2010-06-13T10:06:15.91</time>
<name>12194</name>
</trkpt>
<trkpt lat="49.176430" lon="11.809915">
<ele>588.9</ele>
<speed>10.8</speed>
<course>339.4</course>
<desc>Speed 10.8 km/h Distance 46.18 km</desc>
<time>2010-06-13T10:06:16.91</time>
<name>12195</name>
</trkpt>
<trkpt lat="49.176453" lon="11.809902">
<ele>589.4</ele>
<speed>11.2</speed>
<course>342.9</course>
<desc>Speed 11.2 km/h Distance 46.18 km</desc>
<time>2010-06-13T10:06:17.91</time>
<name>12196</name>
</trkpt>
<trkpt lat="49.176482" lon="11.809888">
<ele>589.8</ele>
<speed>10.8</speed>
<course>339.4</course>
<desc>Speed 10.8 km/h Distance 46.18 km</desc>
<time>2010-06-13T10:06:18.91</time>
<name>12197</name>
</trkpt>
<trkpt lat="49.176505" lon="11.809875">
<ele>590.1</ele>
<speed>10.5</speed>
<course>343.0</course>
<desc>Speed 10.5 km/h Distance 46.19 km</desc>
<time>2010-06-13T10:06:19.91</time>
<name>12198</name>
</trkpt>
<trkpt lat="49.176530" lon="11.809863">
<ele>590.3</ele>
<speed>9.8</speed>
<course>340.6</course>
<desc>Speed 9.8 km/h Distance 46.19 km</desc>
<time>2010-06-13T10:06:20.91</time>
<name>12199</name>
</trkpt>
<trkpt lat="49.176552" lon="11.809852">
<ele>590.5</ele>
<speed>8.0</speed>
<course>337.9</course>
<desc>Speed 8.0 km/h Distance 46.19 km</desc>
<time>2010-06-13T10:06:21.91</time>
<name>12200</name>
</trkpt>
<trkpt lat="49.176565" lon="11.809843">
<ele>590.9</ele>
<speed>4.5</speed>
<course>341.2</course>
<desc>Speed 4.5 km/h Distance 46.19 km</desc>
<time>2010-06-13T10:06:22.91</time>
<name>12201</name>
</trkpt>
<trkpt lat="49.176572" lon="11.809840">
<ele>591.4</ele>
<speed>1.2</speed>
<course>270.0</course>
<desc>Speed 1.2 km/h Distance 46.19 km</desc>
<time>2010-06-13T10:06:23.91</time>
<name>12202</name>
</trkpt>
<trkpt lat="49.176572" lon="11.809838">
<ele>591.2</ele>
<speed>0.8</speed>
<course>270.0</course>
<desc>Speed 0.8 km/h Distance 46.19 km</desc>
<time>2010-06-13T10:06:24.91</time>
<name>12203</name>
</trkpt>
<trkpt lat="49.176572" lon="11.809837">
<ele>591.4</ele>
<speed>0.6</speed>
<course>192.6</course>
<desc>Speed 0.6 km/h Distance 46.19 km</desc>
<time>2010-06-13T10:06:25.91</time>
<name>12204</name>
</trkpt>
<trkpt lat="49.176567" lon="11.809835">
<ele>591.2</ele>
<speed>0.1</speed>
<course>167.4</course>
<desc>Speed 0.1 km/h Distance 46.19 km</desc>
<time>2010-06-13T10:06:26.91</time>
<name>12205</name>
</trkpt>
<trkpt lat="49.176565" lon="11.809835">
<ele>591.0</ele>
<speed>0.1</speed>
<course>167.4</course>
<desc>Speed 0.1 km/h Distance 46.19 km</desc>
<time>2010-06-13T10:06:27.91</time>
<name>12206</name>
</trkpt>
<trkpt lat="49.176563" lon="11.809835">
<ele>590.9</ele>
<speed>0.1</speed>
<course>167.4</course>
<desc>Speed 0.1 km/h Distance 46.19 km</desc>
<time>2010-06-13T10:06:28.91</time>
<name>12207</name>
</trkpt>
<trkpt lat="49.176563" lon="11.809835">
<ele>590.8</ele>
<speed>0.1</speed>
<course>167.4</course>
<desc>Speed 0.1 km/h Distance 46.19 km</desc>
<time>2010-06-13T10:06:29.91</time>
<name>12208</name>
</trkpt>
<trkpt lat="49.176562" lon="11.809835">
<ele>590.6</ele>
<speed>0.2</speed>
<course>37.2</course>
<desc>Speed 0.2 km/h Distance 46.19 km</desc>
<time>2010-06-13T10:06:30.91</time>
<name>12209</name>
</trkpt>
<trkpt lat="49.176563" lon="11.809837">
<ele>590.8</ele>
<speed>0.1</speed>
<course>37.2</course>
<desc>Speed 0.1 km/h Distance 46.19 km</desc>
<time>2010-06-13T10:06:31.91</time>
<name>12210</name>
</trkpt>
<trkpt lat="49.176563" lon="11.809837">
<ele>591.0</ele>
<speed>0.0</speed>
<course>144.5</course>
<desc>Speed 0.0 km/h Distance 46.19 km</desc>
<time>2010-06-13T10:06:32.91</time>
<name>12211</name>
</trkpt>
<trkpt lat="49.176560" lon="11.809840">
<ele>591.4</ele>
<speed>0.2</speed>
<course>116.6</course>
<desc>Speed 0.2 km/h Distance 46.20 km</desc>
<time>2010-06-13T10:06:33.91</time>
<name>12212</name>
</trkpt>
<trkpt lat="49.176558" lon="11.809845">
<ele>591.7</ele>
<speed>1.4</speed>
<course>63.4</course>
<desc>Speed 1.4 km/h Distance 46.20 km</desc>
<time>2010-06-13T10:06:34.91</time>
<name>12213</name>
</trkpt>
<trkpt lat="49.176560" lon="11.809850">
<ele>591.9</ele>
<speed>0.8</speed>
<course>90.0</course>
<desc>Speed 0.8 km/h Distance 46.20 km</desc>
<time>2010-06-13T10:06:35.91</time>
<name>12214</name>
</trkpt>
<trkpt lat="49.176560" lon="11.809852">
<ele>592.1</ele>
<speed>0.9</speed>
<course>12.6</course>
<desc>Speed 0.9 km/h Distance 46.20 km</desc>
<time>2010-06-13T10:06:36.91</time>
<name>12215</name>
</trkpt>
<trkpt lat="49.176562" lon="11.809852">
<ele>592.3</ele>
<speed>0.6</speed>
<course>347.4</course>
<desc>Speed 0.6 km/h Distance 46.20 km</desc>
<time>2010-06-13T10:06:37.91</time>
<name>12216</name>
</trkpt>
<trkpt lat="49.176567" lon="11.809850">
<ele>592.4</ele>
<speed>3.7</speed>
<course>336.6</course>
<desc>Speed 3.7 km/h Distance 46.20 km</desc>
<time>2010-06-13T10:06:38.91</time>
<name>12217</name>
</trkpt>
<trkpt lat="49.176577" lon="11.809843">
<ele>592.5</ele>
<speed>4.5</speed>
<course>348.3</course>
<desc>Speed 4.5 km/h Distance 46.20 km</desc>
<time>2010-06-13T10:06:39.91</time>
<name>12218</name>
</trkpt>
<trkpt lat="49.176592" lon="11.809838">
<ele>592.7</ele>
<speed>6.6</speed>
<course>342.1</course>
<desc>Speed 6.6 km/h Distance 46.20 km</desc>
<time>2010-06-13T10:06:40.91</time>
<name>12219</name>
</trkpt>
<trkpt lat="49.176612" lon="11.809828">
<ele>592.8</ele>
<speed>9.1</speed>
<course>340.7</course>
<desc>Speed 9.1 km/h Distance 46.20 km</desc>
<time>2010-06-13T10:06:41.91</time>
<name>12220</name>
</trkpt>
<trkpt lat="49.176637" lon="11.809815">
<ele>593.0</ele>
<speed>10.5</speed>
<course>339.8</course>
<desc>Speed 10.5 km/h Distance 46.21 km</desc>
<time>2010-06-13T10:06:42.91</time>
<name>12221</name>
</trkpt>
<trkpt lat="49.176663" lon="11.809800">
<ele>593.2</ele>
<speed>11.4</speed>
<course>342.9</course>
<desc>Speed 11.4 km/h Distance 46.21 km</desc>
<time>2010-06-13T10:06:43.91</time>
<name>12222</name>
</trkpt>
<trkpt lat="49.176692" lon="11.809787">
<ele>593.4</ele>
<speed>11.4</speed>
<course>340.9</course>
<desc>Speed 11.4 km/h Distance 46.21 km</desc>
<time>2010-06-13T10:06:44.91</time>
<name>12223</name>
</trkpt>
<trkpt lat="49.176720" lon="11.809772">
<ele>593.6</ele>
<speed>11.6</speed>
<course>340.9</course>
<desc>Speed 11.6 km/h Distance 46.21 km</desc>
<time>2010-06-13T10:06:45.91</time>
<name>12224</name>
</trkpt>
<trkpt lat="49.176748" lon="11.809757">
<ele>593.7</ele>
<speed>11.4</speed>
<course>342.9</course>
<desc>Speed 11.4 km/h Distance 46.22 km</desc>
<time>2010-06-13T10:06:46.91</time>
<name>12225</name>
</trkpt>
<trkpt lat="49.176777" lon="11.809743">
<ele>594.0</ele>
<speed>11.4</speed>
<course>340.9</course>
<desc>Speed 11.4 km/h Distance 46.22 km</desc>
<time>2010-06-13T10:06:47.91</time>
<name>12226</name>
</trkpt>
<trkpt lat="49.176805" lon="11.809728">
<ele>594.2</ele>
<speed>11.5</speed>
<course>339.0</course>
<desc>Speed 11.5 km/h Distance 46.22 km</desc>
<time>2010-06-13T10:06:48.91</time>
<name>12227</name>
</trkpt>
<trkpt lat="49.176833" lon="11.809712">
<ele>594.3</ele>
<speed>11.6</speed>
<course>340.9</course>
<desc>Speed 11.6 km/h Distance 46.23 km</desc>
<time>2010-06-13T10:06:49.91</time>
<name>12228</name>
</trkpt>
<trkpt lat="49.176862" lon="11.809697">
<ele>594.5</ele>
<speed>11.6</speed>
<course>342.9</course>
<desc>Speed 11.6 km/h Distance 46.23 km</desc>
<time>2010-06-13T10:06:50.91</time>
<name>12229</name>
</trkpt>
<trkpt lat="49.176890" lon="11.809683">
<ele>594.7</ele>
<speed>11.8</speed>
<course>340.9</course>
<desc>Speed 11.8 km/h Distance 46.23 km</desc>
<time>2010-06-13T10:06:51.91</time>
<name>12230</name>
</trkpt>
<trkpt lat="49.176918" lon="11.809668">
<ele>594.9</ele>
<speed>11.8</speed>
<course>339.0</course>
<desc>Speed 11.8 km/h Distance 46.24 km</desc>
<time>2010-06-13T10:06:52.91</time>
<name>12231</name>
</trkpt>
<trkpt lat="49.176947" lon="11.809652">
<ele>595.0</ele>
<speed>11.6</speed>
<course>340.9</course>
<desc>Speed 11.6 km/h Distance 46.24 km</desc>
<time>2010-06-13T10:06:53.91</time>
<name>12232</name>
</trkpt>
<trkpt lat="49.176975" lon="11.809637">
<ele>595.1</ele>
<speed>11.4</speed>
<course>335.8</course>
<desc>Speed 11.4 km/h Distance 46.25 km</desc>
<time>2010-06-13T10:06:54.91</time>
<name>12233</name>
</trkpt>
<trkpt lat="49.177002" lon="11.809618">
<ele>595.2</ele>
<speed>11.7</speed>
<course>335.2</course>
<desc>Speed 11.7 km/h Distance 46.25 km</desc>
<time>2010-06-13T10:06:55.91</time>
<name>12234</name>
</trkpt>
<trkpt lat="49.177030" lon="11.809598">
<ele>595.3</ele>
<speed>11.9</speed>
<course>335.2</course>
<desc>Speed 11.9 km/h Distance 46.25 km</desc>
<time>2010-06-13T10:06:56.91</time>
<name>12235</name>
</trkpt>
<trkpt lat="49.177058" lon="11.809578">
<ele>595.3</ele>
<speed>12.0</speed>
<course>337.1</course>
<desc>Speed 12.0 km/h Distance 46.26 km</desc>
<time>2010-06-13T10:06:57.91</time>
<name>12236</name>
</trkpt>
<trkpt lat="49.177087" lon="11.809560">
<ele>595.4</ele>
<speed>12.3</speed>
<course>337.1</course>
<desc>Speed 12.3 km/h Distance 46.26 km</desc>
<time>2010-06-13T10:06:58.91</time>
<name>12237</name>
</trkpt>
<trkpt lat="49.177115" lon="11.809542">
<ele>595.3</ele>
<speed>13.0</speed>
<course>340.2</course>
<desc>Speed 13.0 km/h Distance 46.26 km</desc>
<time>2010-06-13T10:06:59.91</time>
<name>12238</name>
</trkpt>
<trkpt lat="49.177148" lon="11.809523">
<ele>595.5</ele>
<speed>13.9</speed>
<course>331.4</course>
<desc>Speed 13.9 km/h Distance 46.27 km</desc>
<time>2010-06-13T10:07:00.91</time>
<name>12239</name>
</trkpt>
<trkpt lat="49.177178" lon="11.809498">
<ele>595.7</ele>
<speed>13.2</speed>
<course>331.4</course>
<desc>Speed 13.2 km/h Distance 46.27 km</desc>
<time>2010-06-13T10:07:01.91</time>
<name>12240</name>
</trkpt>
<trkpt lat="49.177208" lon="11.809473">
<ele>595.9</ele>
<speed>12.7</speed>
<course>328.5</course>
<desc>Speed 12.7 km/h Distance 46.27 km</desc>
<time>2010-06-13T10:07:02.91</time>
<name>12241</name>
</trkpt>
<trkpt lat="49.177235" lon="11.809448">
<ele>596.1</ele>
<speed>12.3</speed>
<course>326.8</course>
<desc>Speed 12.3 km/h Distance 46.28 km</desc>
<time>2010-06-13T10:07:03.91</time>
<name>12242</name>
</trkpt>
<trkpt lat="49.177262" lon="11.809422">
<ele>596.3</ele>
<speed>12.2</speed>
<course>326.8</course>
<desc>Speed 12.2 km/h Distance 46.28 km</desc>
<time>2010-06-13T10:07:04.91</time>
<name>12243</name>
</trkpt>
<trkpt lat="49.177288" lon="11.809395">
<ele>596.5</ele>
<speed>12.2</speed>
<course>328.5</course>
<desc>Speed 12.2 km/h Distance 46.28 km</desc>
<time>2010-06-13T10:07:05.91</time>
<name>12244</name>
</trkpt>
<trkpt lat="49.177315" lon="11.809370">
<ele>596.7</ele>
<speed>12.3</speed>
<course>326.9</course>
<desc>Speed 12.3 km/h Distance 46.29 km</desc>
<time>2010-06-13T10:07:06.91</time>
<name>12245</name>
</trkpt>
<trkpt lat="49.177340" lon="11.809345">
<ele>596.8</ele>
<speed>12.3</speed>
<course>328.5</course>
<desc>Speed 12.3 km/h Distance 46.29 km</desc>
<time>2010-06-13T10:07:07.91</time>
<name>12246</name>
</trkpt>
<trkpt lat="49.177367" lon="11.809320">
<ele>597.0</ele>
<speed>12.0</speed>
<course>330.3</course>
<desc>Speed 12.0 km/h Distance 46.29 km</desc>
<time>2010-06-13T10:07:08.91</time>
<name>12247</name>
</trkpt>
<trkpt lat="49.177393" lon="11.809297">
<ele>597.1</ele>
<speed>12.0</speed>
<course>328.5</course>
<desc>Speed 12.0 km/h Distance 46.30 km</desc>
<time>2010-06-13T10:07:09.91</time>
<name>12248</name>
</trkpt>
<trkpt lat="49.177420" lon="11.809272">
<ele>597.3</ele>
<speed>12.1</speed>
<course>328.5</course>
<desc>Speed 12.1 km/h Distance 46.30 km</desc>
<time>2010-06-13T10:07:10.91</time>
<name>12249</name>
</trkpt>
<trkpt lat="49.177447" lon="11.809247">
<ele>597.5</ele>
<speed>12.1</speed>
<course>330.3</course>
<desc>Speed 12.1 km/h Distance 46.30 km</desc>
<time>2010-06-13T10:07:11.91</time>
<name>12250</name>
</trkpt>
<trkpt lat="49.177473" lon="11.809223">
<ele>597.6</ele>
<speed>12.1</speed>
<course>326.8</course>
<desc>Speed 12.1 km/h Distance 46.31 km</desc>
<time>2010-06-13T10:07:12.91</time>
<name>12251</name>
</trkpt>
<trkpt lat="49.177498" lon="11.809198">
<ele>597.8</ele>
<speed>12.0</speed>
<course>323.5</course>
<desc>Speed 12.0 km/h Distance 46.31 km</desc>
<time>2010-06-13T10:07:13.91</time>
<name>12252</name>
</trkpt>
<trkpt lat="49.177523" lon="11.809170">
<ele>597.9</ele>
<speed>12.1</speed>
<course>328.6</course>
<desc>Speed 12.1 km/h Distance 46.32 km</desc>
<time>2010-06-13T10:07:14.91</time>
<name>12253</name>
</trkpt>
<trkpt lat="49.177548" lon="11.809147">
<ele>598.1</ele>
<speed>11.5</speed>
<course>330.5</course>
<desc>Speed 11.5 km/h Distance 46.32 km</desc>
<time>2010-06-13T10:07:15.91</time>
<name>12254</name>
</trkpt>
<trkpt lat="49.177573" lon="11.809125">
<ele>598.2</ele>
<speed>11.2</speed>
<course>326.8</course>
<desc>Speed 11.2 km/h Distance 46.32 km</desc>
<time>2010-06-13T10:07:16.91</time>
<name>12255</name>
</trkpt>
<trkpt lat="49.177597" lon="11.809102">
<ele>598.3</ele>
<speed>10.7</speed>
<course>326.8</course>
<desc>Speed 10.7 km/h Distance 46.32 km</desc>
<time>2010-06-13T10:07:17.91</time>
<name>12256</name>
</trkpt>
<trkpt lat="49.177620" lon="11.809078">
<ele>598.4</ele>
<speed>11.0</speed>
<course>328.7</course>
<desc>Speed 11.0 km/h Distance 46.33 km</desc>
<time>2010-06-13T10:07:18.91</time>
<name>12257</name>
</trkpt>
<trkpt lat="49.177643" lon="11.809057">
<ele>598.6</ele>
<speed>10.7</speed>
<course>326.8</course>
<desc>Speed 10.7 km/h Distance 46.33 km</desc>
<time>2010-06-13T10:07:19.91</time>
<name>12258</name>
</trkpt>
<trkpt lat="49.177667" lon="11.809033">
<ele>598.6</ele>
<speed>10.8</speed>
<course>324.9</course>
<desc>Speed 10.8 km/h Distance 46.33 km</desc>
<time>2010-06-13T10:07:20.91</time>
<name>12259</name>
</trkpt>
<trkpt lat="49.177688" lon="11.809010">
<ele>598.8</ele>
<speed>10.8</speed>
<course>326.9</course>
<desc>Speed 10.8 km/h Distance 46.34 km</desc>
<time>2010-06-13T10:07:21.91</time>
<name>12260</name>
</trkpt>
<trkpt lat="49.177712" lon="11.808987">
<ele>598.9</ele>
<speed>10.5</speed>
<course>326.9</course>
<desc>Speed 10.5 km/h Distance 46.34 km</desc>
<time>2010-06-13T10:07:22.91</time>
<name>12261</name>
</trkpt>
<trkpt lat="49.177733" lon="11.808965">
<ele>598.9</ele>
<speed>10.4</speed>
<course>328.7</course>
<desc>Speed 10.4 km/h Distance 46.34 km</desc>
<time>2010-06-13T10:07:23.91</time>
<name>12262</name>
</trkpt>
<trkpt lat="49.177757" lon="11.808943">
<ele>599.1</ele>
<speed>10.5</speed>
<course>324.9</course>
<desc>Speed 10.5 km/h Distance 46.35 km</desc>
<time>2010-06-13T10:07:24.91</time>
<name>12263</name>
</trkpt>
<trkpt lat="49.177778" lon="11.808920">
<ele>599.2</ele>
<speed>10.4</speed>
<course>326.8</course>
<desc>Speed 10.4 km/h Distance 46.35 km</desc>
<time>2010-06-13T10:07:25.91</time>
<name>12264</name>
</trkpt>
<trkpt lat="49.177800" lon="11.808898">
<ele>599.3</ele>
<speed>10.4</speed>
<course>330.7</course>
<desc>Speed 10.4 km/h Distance 46.35 km</desc>
<time>2010-06-13T10:07:26.91</time>
<name>12265</name>
</trkpt>
<trkpt lat="49.177823" lon="11.808878">
<ele>599.4</ele>
<speed>10.3</speed>
<course>330.8</course>
<desc>Speed 10.3 km/h Distance 46.35 km</desc>
<time>2010-06-13T10:07:27.91</time>
<name>12266</name>
</trkpt>
<trkpt lat="49.177847" lon="11.808858">
<ele>599.6</ele>
<speed>10.4</speed>
<course>328.9</course>
<desc>Speed 10.4 km/h Distance 46.36 km</desc>
<time>2010-06-13T10:07:28.91</time>
<name>12267</name>
</trkpt>
<trkpt lat="49.177868" lon="11.808838">
<ele>599.7</ele>
<speed>10.2</speed>
<course>326.8</course>
<desc>Speed 10.2 km/h Distance 46.36 km</desc>
<time>2010-06-13T10:07:29.91</time>
<name>12268</name>
</trkpt>
<trkpt lat="49.177888" lon="11.808818">
<ele>599.8</ele>
<speed>9.8</speed>
<course>328.7</course>
<desc>Speed 9.8 km/h Distance 46.36 km</desc>
<time>2010-06-13T10:07:30.91</time>
<name>12269</name>
</trkpt>
<trkpt lat="49.177912" lon="11.808797">
<ele>599.9</ele>
<speed>10.2</speed>
<course>324.7</course>
<desc>Speed 10.2 km/h Distance 46.37 km</desc>
<time>2010-06-13T10:07:31.91</time>
<name>12270</name>
</trkpt>
<trkpt lat="49.177932" lon="11.808775">
<ele>600.0</ele>
<speed>10.0</speed>
<course>328.9</course>
<desc>Speed 10.0 km/h Distance 46.37 km</desc>
<time>2010-06-13T10:07:32.91</time>
<name>12271</name>
</trkpt>
<trkpt lat="49.177953" lon="11.808755">
<ele>600.1</ele>
<speed>10.2</speed>
<course>326.9</course>
<desc>Speed 10.2 km/h Distance 46.37 km</desc>
<time>2010-06-13T10:07:33.91</time>
<name>12272</name>
</trkpt>
<trkpt lat="49.177975" lon="11.808733">
<ele>600.3</ele>
<speed>10.3</speed>
<course>326.8</course>
<desc>Speed 10.3 km/h Distance 46.37 km</desc>
<time>2010-06-13T10:07:34.91</time>
<name>12273</name>
</trkpt>
<trkpt lat="49.177997" lon="11.808712">
<ele>600.0</ele>
<speed>10.4</speed>
<course>332.8</course>
<desc>Speed 10.4 km/h Distance 46.38 km</desc>
<time>2010-06-13T10:07:35.91</time>
<name>12274</name>
</trkpt>
<trkpt lat="49.178020" lon="11.808693">
<ele>600.1</ele>
<speed>10.5</speed>
<course>328.9</course>
<desc>Speed 10.5 km/h Distance 46.38 km</desc>
<time>2010-06-13T10:07:36.91</time>
<name>12275</name>
</trkpt>
<trkpt lat="49.178042" lon="11.808673">
<ele>600.2</ele>
<speed>10.4</speed>
<course>328.7</course>
<desc>Speed 10.4 km/h Distance 46.38 km</desc>
<time>2010-06-13T10:07:37.91</time>
<name>12276</name>
</trkpt>
<trkpt lat="49.178065" lon="11.808652">
<ele>600.4</ele>
<speed>10.4</speed>
<course>326.8</course>
<desc>Speed 10.4 km/h Distance 46.39 km</desc>
<time>2010-06-13T10:07:38.91</time>
<name>12277</name>
</trkpt>
<trkpt lat="49.178087" lon="11.808630">
<ele>600.5</ele>
<speed>10.4</speed>
<course>326.8</course>
<desc>Speed 10.4 km/h Distance 46.39 km</desc>
<time>2010-06-13T10:07:39.91</time>
<name>12278</name>
</trkpt>
<trkpt lat="49.178108" lon="11.808608">
<ele>600.6</ele>
<speed>10.5</speed>
<course>328.7</course>
<desc>Speed 10.5 km/h Distance 46.39 km</desc>
<time>2010-06-13T10:07:40.91</time>
<name>12279</name>
</trkpt>
<trkpt lat="49.178132" lon="11.808587">
<ele>600.7</ele>
<speed>10.5</speed>
<course>324.8</course>
<desc>Speed 10.5 km/h Distance 46.40 km</desc>
<time>2010-06-13T10:07:41.91</time>
<name>12280</name>
</trkpt>
<trkpt lat="49.178153" lon="11.808563">
<ele>600.8</ele>
<speed>10.7</speed>
<course>328.7</course>
<desc>Speed 10.7 km/h Distance 46.40 km</desc>
<time>2010-06-13T10:07:42.91</time>
<name>12281</name>
</trkpt>
<trkpt lat="49.178177" lon="11.808542">
<ele>601.0</ele>
<speed>10.8</speed>
<course>326.8</course>
<desc>Speed 10.8 km/h Distance 46.40 km</desc>
<time>2010-06-13T10:07:43.91</time>
<name>12282</name>
</trkpt>
<trkpt lat="49.178198" lon="11.808520">
<ele>601.1</ele>
<speed>11.0</speed>
<course>328.6</course>
<desc>Speed 11.0 km/h Distance 46.40 km</desc>
<time>2010-06-13T10:07:44.91</time>
<name>12283</name>
</trkpt>
<trkpt lat="49.178223" lon="11.808497">
<ele>601.1</ele>
<speed>11.1</speed>
<course>326.8</course>
<desc>Speed 11.1 km/h Distance 46.41 km</desc>
<time>2010-06-13T10:07:45.91</time>
<name>12284</name>
</trkpt>
<trkpt lat="49.178247" lon="11.808473">
<ele>601.2</ele>
<speed>11.2</speed>
<course>328.6</course>
<desc>Speed 11.2 km/h Distance 46.41 km</desc>
<time>2010-06-13T10:07:46.91</time>
<name>12285</name>
</trkpt>
<trkpt lat="49.178272" lon="11.808450">
<ele>601.3</ele>
<speed>11.6</speed>
<course>330.5</course>
<desc>Speed 11.6 km/h Distance 46.41 km</desc>
<time>2010-06-13T10:07:47.91</time>
<name>12286</name>
</trkpt>
<trkpt lat="49.178297" lon="11.808428">
<ele>601.4</ele>
<speed>12.3</speed>
<course>333.4</course>
<desc>Speed 12.3 km/h Distance 46.42 km</desc>
<time>2010-06-13T10:07:48.91</time>
<name>12287</name>
</trkpt>
<trkpt lat="49.178325" lon="11.808407">
<ele>601.5</ele>
<speed>12.0</speed>
<course>335.2</course>
<desc>Speed 12.0 km/h Distance 46.42 km</desc>
<time>2010-06-13T10:07:49.91</time>
<name>12288</name>
</trkpt>
<trkpt lat="49.178353" lon="11.808387">
<ele>601.6</ele>
<speed>12.2</speed>
<course>333.9</course>
<desc>Speed 12.2 km/h Distance 46.42 km</desc>
<time>2010-06-13T10:07:50.91</time>
<name>12289</name>
</trkpt>
<trkpt lat="49.178380" lon="11.808367">
<ele>601.6</ele>
<speed>12.0</speed>
<course>333.5</course>
<desc>Speed 12.0 km/h Distance 46.43 km</desc>
<time>2010-06-13T10:07:51.91</time>
<name>12290</name>
</trkpt>
<trkpt lat="49.178408" lon="11.808345">
<ele>601.7</ele>
<speed>12.6</speed>
<course>323.5</course>
<desc>Speed 12.6 km/h Distance 46.43 km</desc>
<time>2010-06-13T10:07:52.91</time>
<name>12291</name>
</trkpt>
<trkpt lat="49.178433" lon="11.808317">
<ele>601.6</ele>
<speed>12.7</speed>
<course>320.7</course>
<desc>Speed 12.7 km/h Distance 46.43 km</desc>
<time>2010-06-13T10:07:53.91</time>
<name>12292</name>
</trkpt>
<trkpt lat="49.178460" lon="11.808283">
<ele>601.6</ele>
<speed>14.0</speed>
<course>316.8</course>
<desc>Speed 14.0 km/h Distance 46.44 km</desc>
<time>2010-06-13T10:07:54.91</time>
<name>12293</name>
</trkpt>
<trkpt lat="49.178487" lon="11.808245">
<ele>601.5</ele>
<speed>14.6</speed>
<course>316.8</course>
<desc>Speed 14.6 km/h Distance 46.44 km</desc>
<time>2010-06-13T10:07:55.91</time>
<name>12294</name>
</trkpt>
<trkpt lat="49.178513" lon="11.808207">
<ele>601.4</ele>
<speed>15.1</speed>
<course>317.3</course>
<desc>Speed 15.1 km/h Distance 46.45 km</desc>
<time>2010-06-13T10:07:56.91</time>
<name>12295</name>
</trkpt>
<trkpt lat="49.178542" lon="11.808167">
<ele>601.3</ele>
<speed>14.7</speed>
<course>311.8</course>
<desc>Speed 14.7 km/h Distance 46.45 km</desc>
<time>2010-06-13T10:07:57.91</time>
<name>12296</name>
</trkpt>
<trkpt lat="49.178565" lon="11.808127">
<ele>601.2</ele>
<speed>13.6</speed>
<course>302.9</course>
<desc>Speed 13.6 km/h Distance 46.45 km</desc>
<time>2010-06-13T10:07:58.91</time>
<name>12297</name>
</trkpt>
<trkpt lat="49.178583" lon="11.808083">
<ele>601.0</ele>
<speed>12.9</speed>
<course>281.9</course>
<desc>Speed 12.9 km/h Distance 46.46 km</desc>
<time>2010-06-13T10:07:59.91</time>
<name>12298</name>
</trkpt>
<trkpt lat="49.178590" lon="11.808035">
<ele>600.7</ele>
<speed>13.4</speed>
<course>249.7</course>
<desc>Speed 13.4 km/h Distance 46.46 km</desc>
<time>2010-06-13T10:08:00.91</time>
<name>12299</name>
</trkpt>
<trkpt lat="49.178578" lon="11.807987">
<ele>600.2</ele>
<speed>14.3</speed>
<course>232.6</course>
<desc>Speed 14.3 km/h Distance 46.47 km</desc>
<time>2010-06-13T10:08:01.91</time>
<name>12300</name>
</trkpt>
<trkpt lat="49.178555" lon="11.807940">
<ele>599.9</ele>
<speed>15.5</speed>
<course>224.4</course>
<desc>Speed 15.5 km/h Distance 46.47 km</desc>
<time>2010-06-13T10:08:02.91</time>
<name>12301</name>
</trkpt>
<trkpt lat="49.178525" lon="11.807895">
<ele>599.4</ele>
<speed>17.3</speed>
<course>226.9</course>
<desc>Speed 17.3 km/h Distance 46.47 km</desc>
<time>2010-06-13T10:08:03.91</time>
<name>12302</name>
</trkpt>
<trkpt lat="49.178493" lon="11.807843">
<ele>598.9</ele>
<speed>18.8</speed>
<course>228.0</course>
<desc>Speed 18.8 km/h Distance 46.48 km</desc>
<time>2010-06-13T10:08:04.91</time>
<name>12303</name>
</trkpt>
<trkpt lat="49.178460" lon="11.807787">
<ele>598.4</ele>
<speed>20.3</speed>
<course>224.0</course>
<desc>Speed 20.3 km/h Distance 46.48 km</desc>
<time>2010-06-13T10:08:05.91</time>
<name>12304</name>
</trkpt>
<trkpt lat="49.178422" lon="11.807730">
<ele>597.8</ele>
<speed>21.9</speed>
<course>227.2</course>
<desc>Speed 21.9 km/h Distance 46.49 km</desc>
<time>2010-06-13T10:08:06.91</time>
<name>12305</name>
</trkpt>
<trkpt lat="49.178383" lon="11.807667">
<ele>597.3</ele>
<speed>23.0</speed>
<course>225.6</course>
<desc>Speed 23.0 km/h Distance 46.50 km</desc>
<time>2010-06-13T10:08:07.91</time>
<name>12306</name>
</trkpt>
<trkpt lat="49.178342" lon="11.807602">
<ele>596.8</ele>
<speed>23.9</speed>
<course>224.8</course>
<desc>Speed 23.9 km/h Distance 46.50 km</desc>
<time>2010-06-13T10:08:08.91</time>
<name>12307</name>
</trkpt>
<trkpt lat="49.178297" lon="11.807533">
<ele>596.1</ele>
<speed>25.4</speed>
<course>227.5</course>
<desc>Speed 25.4 km/h Distance 46.51 km</desc>
<time>2010-06-13T10:08:09.91</time>
<name>12308</name>
</trkpt>
<trkpt lat="49.178257" lon="11.807467">
<ele>595.6</ele>
<speed>21.8</speed>
<course>226.3</course>
<desc>Speed 21.8 km/h Distance 46.52 km</desc>
<time>2010-06-13T10:08:10.91</time>
<name>12309</name>
</trkpt>
<trkpt lat="49.178223" lon="11.807413">
<ele>595.2</ele>
<speed>16.8</speed>
<course>225.1</course>
<desc>Speed 16.8 km/h Distance 46.52 km</desc>
<time>2010-06-13T10:08:11.91</time>
<name>12310</name>
</trkpt>
<trkpt lat="49.178198" lon="11.807375">
<ele>594.8</ele>
<speed>11.5</speed>
<course>224.4</course>
<desc>Speed 11.5 km/h Distance 46.53 km</desc>
<time>2010-06-13T10:08:12.91</time>
<name>12311</name>
</trkpt>
<trkpt lat="49.178182" lon="11.807350">
<ele>594.5</ele>
<speed>7.6</speed>
<course>220.0</course>
<desc>Speed 7.6 km/h Distance 46.53 km</desc>
<time>2010-06-13T10:08:13.91</time>
<name>12312</name>
</trkpt>
<trkpt lat="49.178170" lon="11.807335">
<ele>594.4</ele>
<speed>2.8</speed>
<course>270.0</course>
<desc>Speed 2.8 km/h Distance 46.53 km</desc>
<time>2010-06-13T10:08:14.91</time>
<name>12313</name>
</trkpt>
<trkpt lat="49.178170" lon="11.807332">
<ele>594.3</ele>
<speed>0.5</speed>
<course>270.0</course>
<desc>Speed 0.5 km/h Distance 46.53 km</desc>
<time>2010-06-13T10:08:15.91</time>
<name>12314</name>
</trkpt>
<trkpt lat="49.178170" lon="11.807330">
<ele>594.4</ele>
<speed>0.2</speed>
<course>270.0</course>
<desc>Speed 0.2 km/h Distance 46.53 km</desc>
<time>2010-06-13T10:08:16.91</time>
<name>12315</name>
</trkpt>
<trkpt lat="49.178170" lon="11.807330">
<ele>594.5</ele>
<speed>0.1</speed>
<course>270.0</course>
<desc>Speed 0.1 km/h Distance 46.53 km</desc>
<time>2010-06-13T10:08:17.91</time>
<name>12316</name>
</trkpt>
<trkpt lat="49.178170" lon="11.807328">
<ele>594.5</ele>
<speed>0.4</speed>
<course>167.4</course>
<desc>Speed 0.4 km/h Distance 46.53 km</desc>
<time>2010-06-13T10:08:18.91</time>
<name>12317</name>
</trkpt>
<trkpt lat="49.178168" lon="11.807328">
<ele>594.5</ele>
<speed>0.4</speed>
<course>167.4</course>
<desc>Speed 0.4 km/h Distance 46.53 km</desc>
<time>2010-06-13T10:08:19.91</time>
<name>12318</name>
</trkpt>
<trkpt lat="49.178168" lon="11.807330">
<ele>594.3</ele>
<speed>0.6</speed>
<course>167.4</course>
<desc>Speed 0.6 km/h Distance 46.53 km</desc>
<time>2010-06-13T10:08:20.91</time>
<name>12319</name>
</trkpt>
<trkpt lat="49.178168" lon="11.807332">
<ele>594.1</ele>
<speed>0.7</speed>
<course>29.2</course>
<desc>Speed 0.7 km/h Distance 46.53 km</desc>
<time>2010-06-13T10:08:21.91</time>
<name>12320</name>
</trkpt>
<trkpt lat="49.178170" lon="11.807333">
<ele>594.3</ele>
<speed>0.9</speed>
<course>222.5</course>
<desc>Speed 0.9 km/h Distance 46.53 km</desc>
<time>2010-06-13T10:08:22.91</time>
<name>12321</name>
</trkpt>
<trkpt lat="49.178167" lon="11.807328">
<ele>594.1</ele>
<speed>2.2</speed>
<course>229.5</course>
<desc>Speed 2.2 km/h Distance 46.53 km</desc>
<time>2010-06-13T10:08:23.91</time>
<name>12322</name>
</trkpt>
<trkpt lat="49.178158" lon="11.807313">
<ele>594.0</ele>
<speed>5.7</speed>
<course>224.4</course>
<desc>Speed 5.7 km/h Distance 46.53 km</desc>
<time>2010-06-13T10:08:24.91</time>
<name>12323</name>
</trkpt>
<trkpt lat="49.178142" lon="11.807288">
<ele>594.0</ele>
<speed>9.2</speed>
<course>228.5</course>
<desc>Speed 9.2 km/h Distance 46.54 km</desc>
<time>2010-06-13T10:08:25.91</time>
<name>12324</name>
</trkpt>
<trkpt lat="49.178123" lon="11.807257">
<ele>594.1</ele>
<speed>12.3</speed>
<course>225.0</course>
<desc>Speed 12.3 km/h Distance 46.54 km</desc>
<time>2010-06-13T10:08:26.91</time>
<name>12325</name>
</trkpt>
<trkpt lat="49.178095" lon="11.807213">
<ele>593.5</ele>
<speed>15.1</speed>
<course>221.8</course>
<desc>Speed 15.1 km/h Distance 46.54 km</desc>
<time>2010-06-13T10:08:27.91</time>
<name>12326</name>
</trkpt>
<trkpt lat="49.178063" lon="11.807170">
<ele>592.9</ele>
<speed>17.5</speed>
<course>225.4</course>
<desc>Speed 17.5 km/h Distance 46.55 km</desc>
<time>2010-06-13T10:08:28.91</time>
<name>12327</name>
</trkpt>
<trkpt lat="49.178030" lon="11.807118">
<ele>592.1</ele>
<speed>19.0</speed>
<course>224.0</course>
<desc>Speed 19.0 km/h Distance 46.55 km</desc>
<time>2010-06-13T10:08:29.91</time>
<name>12328</name>
</trkpt>
<trkpt lat="49.177992" lon="11.807062">
<ele>591.6</ele>
<speed>21.5</speed>
<course>225.2</course>
<desc>Speed 21.5 km/h Distance 46.56 km</desc>
<time>2010-06-13T10:08:30.91</time>
<name>12329</name>
</trkpt>
<trkpt lat="49.177952" lon="11.807000">
<ele>591.1</ele>
<speed>22.3</speed>
<course>226.3</course>
<desc>Speed 22.3 km/h Distance 46.57 km</desc>
<time>2010-06-13T10:08:31.91</time>
<name>12330</name>
</trkpt>
<trkpt lat="49.177910" lon="11.806933">
<ele>590.9</ele>
<speed>23.0</speed>
<course>226.0</course>
<desc>Speed 23.0 km/h Distance 46.57 km</desc>
<time>2010-06-13T10:08:32.91</time>
<name>12331</name>
</trkpt>
<trkpt lat="49.177870" lon="11.806870">
<ele>590.3</ele>
<speed>22.7</speed>
<course>227.0</course>
<desc>Speed 22.7 km/h Distance 46.58 km</desc>
<time>2010-06-13T10:08:33.91</time>
<name>12332</name>
</trkpt>
<trkpt lat="49.177828" lon="11.806802">
<ele>590.1</ele>
<speed>23.7</speed>
<course>226.7</course>
<desc>Speed 23.7 km/h Distance 46.59 km</desc>
<time>2010-06-13T10:08:34.91</time>
<name>12333</name>
</trkpt>
<trkpt lat="49.177788" lon="11.806737">
<ele>589.7</ele>
<speed>22.8</speed>
<course>225.2</course>
<desc>Speed 22.8 km/h Distance 46.59 km</desc>
<time>2010-06-13T10:08:35.91</time>
<name>12334</name>
</trkpt>
<trkpt lat="49.177748" lon="11.806675">
<ele>589.2</ele>
<speed>22.0</speed>
<course>228.3</course>
<desc>Speed 22.0 km/h Distance 46.60 km</desc>
<time>2010-06-13T10:08:36.91</time>
<name>12335</name>
</trkpt>
<trkpt lat="49.177713" lon="11.806615">
<ele>589.9</ele>
<speed>21.3</speed>
<course>224.9</course>
<desc>Speed 21.3 km/h Distance 46.61 km</desc>
<time>2010-06-13T10:08:37.91</time>
<name>12336</name>
</trkpt>
<trkpt lat="49.177675" lon="11.806557">
<ele>589.4</ele>
<speed>20.7</speed>
<course>227.7</course>
<desc>Speed 20.7 km/h Distance 46.61 km</desc>
<time>2010-06-13T10:08:38.91</time>
<name>12337</name>
</trkpt>
<trkpt lat="49.177638" lon="11.806495">
<ele>589.1</ele>
<speed>21.6</speed>
<course>226.1</course>
<desc>Speed 21.6 km/h Distance 46.62 km</desc>
<time>2010-06-13T10:08:39.91</time>
<name>12338</name>
</trkpt>
<trkpt lat="49.177602" lon="11.806437">
<ele>588.7</ele>
<speed>20.2</speed>
<course>226.1</course>
<desc>Speed 20.2 km/h Distance 46.62 km</desc>
<time>2010-06-13T10:08:40.91</time>
<name>12339</name>
</trkpt>
<trkpt lat="49.177565" lon="11.806378">
<ele>587.9</ele>
<speed>21.1</speed>
<course>227.7</course>
<desc>Speed 21.1 km/h Distance 46.63 km</desc>
<time>2010-06-13T10:08:41.91</time>
<name>12340</name>
</trkpt>
<trkpt lat="49.177528" lon="11.806317">
<ele>587.6</ele>
<speed>21.6</speed>
<course>227.9</course>
<desc>Speed 21.6 km/h Distance 46.64 km</desc>
<time>2010-06-13T10:08:42.91</time>
<name>12341</name>
</trkpt>
<trkpt lat="49.177490" lon="11.806252">
<ele>586.5</ele>
<speed>22.5</speed>
<course>233.3</course>
<desc>Speed 22.5 km/h Distance 46.64 km</desc>
<time>2010-06-13T10:08:43.91</time>
<name>12342</name>
</trkpt>
<trkpt lat="49.177458" lon="11.806187">
<ele>586.7</ele>
<speed>20.2</speed>
<course>229.6</course>
<desc>Speed 20.2 km/h Distance 46.65 km</desc>
<time>2010-06-13T10:08:44.91</time>
<name>12343</name>
</trkpt>
<trkpt lat="49.177425" lon="11.806127">
<ele>587.5</ele>
<speed>18.2</speed>
<course>213.2</course>
<desc>Speed 18.2 km/h Distance 46.65 km</desc>
<time>2010-06-13T10:08:45.91</time>
<name>12344</name>
</trkpt>
<trkpt lat="49.177390" lon="11.806092">
<ele>587.5</ele>
<speed>16.0</speed>
<course>176.2</course>
<desc>Speed 16.0 km/h Distance 46.66 km</desc>
<time>2010-06-13T10:08:46.91</time>
<name>12345</name>
</trkpt>
<trkpt lat="49.177355" lon="11.806095">
<ele>586.7</ele>
<speed>15.4</speed>
<course>168.2</course>
<desc>Speed 15.4 km/h Distance 46.66 km</desc>
<time>2010-06-13T10:08:47.91</time>
<name>12346</name>
</trkpt>
<trkpt lat="49.177318" lon="11.806107">
<ele>586.4</ele>
<speed>15.3</speed>
<course>184.4</course>
<desc>Speed 15.3 km/h Distance 46.67 km</desc>
<time>2010-06-13T10:08:48.91</time>
<name>12347</name>
</trkpt>
<trkpt lat="49.177277" lon="11.806102">
<ele>587.5</ele>
<speed>14.7</speed>
<course>198.1</course>
<desc>Speed 14.7 km/h Distance 46.67 km</desc>
<time>2010-06-13T10:08:49.91</time>
<name>12348</name>
</trkpt>
<trkpt lat="49.177240" lon="11.806083">
<ele>588.4</ele>
<speed>14.0</speed>
<course>213.2</course>
<desc>Speed 14.0 km/h Distance 46.67 km</desc>
<time>2010-06-13T10:08:50.91</time>
<name>12349</name>
</trkpt>
<trkpt lat="49.177212" lon="11.806055">
<ele>588.2</ele>
<speed>14.3</speed>
<course>229.8</course>
<desc>Speed 14.3 km/h Distance 46.68 km</desc>
<time>2010-06-13T10:08:51.91</time>
<name>12350</name>
</trkpt>
<trkpt lat="49.177185" lon="11.806007">
<ele>588.2</ele>
<speed>15.8</speed>
<course>236.5</course>
<desc>Speed 15.8 km/h Distance 46.68 km</desc>
<time>2010-06-13T10:08:52.91</time>
<name>12351</name>
</trkpt>
<trkpt lat="49.177163" lon="11.805957">
<ele>588.3</ele>
<speed>17.9</speed>
<course>234.2</course>
<desc>Speed 17.9 km/h Distance 46.69 km</desc>
<time>2010-06-13T10:08:53.91</time>
<name>12352</name>
</trkpt>
<trkpt lat="49.177137" lon="11.805900">
<ele>588.8</ele>
<speed>19.3</speed>
<course>232.6</course>
<desc>Speed 19.3 km/h Distance 46.69 km</desc>
<time>2010-06-13T10:08:54.91</time>
<name>12353</name>
</trkpt>
<trkpt lat="49.177107" lon="11.805840">
<ele>589.1</ele>
<speed>20.0</speed>
<course>229.0</course>
<desc>Speed 20.0 km/h Distance 46.70 km</desc>
<time>2010-06-13T10:08:55.91</time>
<name>12354</name>
</trkpt>
<trkpt lat="49.177072" lon="11.805778">
<ele>589.6</ele>
<speed>20.7</speed>
<course>228.5</course>
<desc>Speed 20.7 km/h Distance 46.70 km</desc>
<time>2010-06-13T10:08:56.91</time>
<name>12355</name>
</trkpt>
<trkpt lat="49.177035" lon="11.805715">
<ele>591.0</ele>
<speed>22.1</speed>
<course>227.2</course>
<desc>Speed 22.1 km/h Distance 46.71 km</desc>
<time>2010-06-13T10:08:57.91</time>
<name>12356</name>
</trkpt>
<trkpt lat="49.176997" lon="11.805652">
<ele>591.4</ele>
<speed>22.0</speed>
<course>230.7</course>
<desc>Speed 22.0 km/h Distance 46.72 km</desc>
<time>2010-06-13T10:08:58.91</time>
<name>12357</name>
</trkpt>
<trkpt lat="49.176958" lon="11.805580">
<ele>592.8</ele>
<speed>21.3</speed>
<course>229.8</course>
<desc>Speed 21.3 km/h Distance 46.72 km</desc>
<time>2010-06-13T10:08:59.91</time>
<name>12358</name>
</trkpt>
<trkpt lat="49.176923" lon="11.805517">
<ele>593.7</ele>
<speed>20.7</speed>
<course>228.3</course>
<desc>Speed 20.7 km/h Distance 46.73 km</desc>
<time>2010-06-13T10:09:00.91</time>
<name>12359</name>
</trkpt>
<trkpt lat="49.176888" lon="11.805457">
<ele>594.1</ele>
<speed>20.3</speed>
<course>229.8</course>
<desc>Speed 20.3 km/h Distance 46.74 km</desc>
<time>2010-06-13T10:09:01.91</time>
<name>12360</name>
</trkpt>
<trkpt lat="49.176853" lon="11.805393">
<ele>594.8</ele>
<speed>20.5</speed>
<course>229.0</course>
<desc>Speed 20.5 km/h Distance 46.74 km</desc>
<time>2010-06-13T10:09:02.91</time>
<name>12361</name>
</trkpt>
<trkpt lat="49.176818" lon="11.805332">
<ele>595.7</ele>
<speed>19.4</speed>
<course>229.6</course>
<desc>Speed 19.4 km/h Distance 46.75 km</desc>
<time>2010-06-13T10:09:03.91</time>
<name>12362</name>
</trkpt>
<trkpt lat="49.176785" lon="11.805272">
<ele>596.4</ele>
<speed>19.7</speed>
<course>227.7</course>
<desc>Speed 19.7 km/h Distance 46.75 km</desc>
<time>2010-06-13T10:09:04.91</time>
<name>12363</name>
</trkpt>
<trkpt lat="49.176748" lon="11.805210">
<ele>597.1</ele>
<speed>20.6</speed>
<course>226.6</course>
<desc>Speed 20.6 km/h Distance 46.76 km</desc>
<time>2010-06-13T10:09:05.91</time>
<name>12364</name>
</trkpt>
<trkpt lat="49.176713" lon="11.805153">
<ele>597.0</ele>
<speed>20.5</speed>
<course>227.7</course>
<desc>Speed 20.5 km/h Distance 46.76 km</desc>
<time>2010-06-13T10:09:06.91</time>
<name>12365</name>
</trkpt>
<trkpt lat="49.176677" lon="11.805092">
<ele>598.0</ele>
<speed>20.2</speed>
<course>228.3</course>
<desc>Speed 20.2 km/h Distance 46.77 km</desc>
<time>2010-06-13T10:09:07.91</time>
<name>12366</name>
</trkpt>
<trkpt lat="49.176642" lon="11.805032">
<ele>599.0</ele>
<speed>20.6</speed>
<course>226.6</course>
<desc>Speed 20.6 km/h Distance 46.78 km</desc>
<time>2010-06-13T10:09:08.91</time>
<name>12367</name>
</trkpt>
<trkpt lat="49.176607" lon="11.804975">
<ele>599.4</ele>
<speed>20.7</speed>
<course>224.9</course>
<desc>Speed 20.7 km/h Distance 46.78 km</desc>
<time>2010-06-13T10:09:09.91</time>
<name>12368</name>
</trkpt>
<trkpt lat="49.176572" lon="11.804922">
<ele>599.4</ele>
<speed>20.7</speed>
<course>222.7</course>
<desc>Speed 20.7 km/h Distance 46.79 km</desc>
<time>2010-06-13T10:09:10.91</time>
<name>12369</name>
</trkpt>
<trkpt lat="49.176535" lon="11.804870">
<ele>599.2</ele>
<speed>19.7</speed>
<course>223.9</course>
<desc>Speed 19.7 km/h Distance 46.79 km</desc>
<time>2010-06-13T10:09:11.91</time>
<name>12370</name>
</trkpt>
<trkpt lat="49.176503" lon="11.804823">
<ele>598.6</ele>
<speed>19.0</speed>
<course>226.8</course>
<desc>Speed 19.0 km/h Distance 46.80 km</desc>
<time>2010-06-13T10:09:12.91</time>
<name>12371</name>
</trkpt>
<trkpt lat="49.176472" lon="11.804772">
<ele>598.8</ele>
<speed>17.9</speed>
<course>227.5</course>
<desc>Speed 17.9 km/h Distance 46.80 km</desc>
<time>2010-06-13T10:09:13.91</time>
<name>12372</name>
</trkpt>
<trkpt lat="49.176447" lon="11.804730">
<ele>599.0</ele>
<speed>15.2</speed>
<course>225.8</course>
<desc>Speed 15.2 km/h Distance 46.81 km</desc>
<time>2010-06-13T10:09:14.91</time>
<name>12373</name>
</trkpt>
<trkpt lat="49.176423" lon="11.804693">
<ele>599.1</ele>
<speed>14.3</speed>
<course>230.5</course>
<desc>Speed 14.3 km/h Distance 46.81 km</desc>
<time>2010-06-13T10:09:15.91</time>
<name>12374</name>
</trkpt>
<trkpt lat="49.176400" lon="11.804650">
<ele>599.1</ele>
<speed>15.3</speed>
<course>228.8</course>
<desc>Speed 15.3 km/h Distance 46.82 km</desc>
<time>2010-06-13T10:09:16.91</time>
<name>12375</name>
</trkpt>
<trkpt lat="49.176373" lon="11.804603">
<ele>599.1</ele>
<speed>15.3</speed>
<course>230.5</course>
<desc>Speed 15.3 km/h Distance 46.82 km</desc>
<time>2010-06-13T10:09:17.91</time>
<name>12376</name>
</trkpt>
<trkpt lat="49.176350" lon="11.804560">
<ele>599.9</ele>
<speed>14.0</speed>
<course>231.7</course>
<desc>Speed 14.0 km/h Distance 46.82 km</desc>
<time>2010-06-13T10:09:18.91</time>
<name>12377</name>
</trkpt>
<trkpt lat="49.176325" lon="11.804512">
<ele>600.2</ele>
<speed>14.4</speed>
<course>229.8</course>
<desc>Speed 14.4 km/h Distance 46.83 km</desc>
<time>2010-06-13T10:09:19.91</time>
<name>12378</name>
</trkpt>
<trkpt lat="49.176298" lon="11.804463">
<ele>600.5</ele>
<speed>14.9</speed>
<course>232.6</course>
<desc>Speed 14.9 km/h Distance 46.83 km</desc>
<time>2010-06-13T10:09:20.91</time>
<name>12379</name>
</trkpt>
<trkpt lat="49.176280" lon="11.804427">
<ele>600.3</ele>
<speed>12.7</speed>
<course>228.9</course>
<desc>Speed 12.7 km/h Distance 46.84 km</desc>
<time>2010-06-13T10:09:21.91</time>
<name>12380</name>
</trkpt>
<trkpt lat="49.176260" lon="11.804392">
<ele>600.3</ele>
<speed>12.4</speed>
<course>229.9</course>
<desc>Speed 12.4 km/h Distance 46.84 km</desc>
<time>2010-06-13T10:09:22.91</time>
<name>12381</name>
</trkpt>
<trkpt lat="49.176242" lon="11.804358">
<ele>600.5</ele>
<speed>12.1</speed>
<course>225.3</course>
<desc>Speed 12.1 km/h Distance 46.84 km</desc>
<time>2010-06-13T10:09:23.91</time>
<name>12382</name>
</trkpt>
<trkpt lat="49.176223" lon="11.804330">
<ele>600.5</ele>
<speed>10.3</speed>
<course>221.0</course>
<desc>Speed 10.3 km/h Distance 46.85 km</desc>
<time>2010-06-13T10:09:24.91</time>
<name>12383</name>
</trkpt>
<trkpt lat="49.176208" lon="11.804310">
<ele>600.9</ele>
<speed>9.1</speed>
<course>223.4</course>
<desc>Speed 9.1 km/h Distance 46.85 km</desc>
<time>2010-06-13T10:09:25.91</time>
<name>12384</name>
</trkpt>
<trkpt lat="49.176193" lon="11.804288">
<ele>601.5</ele>
<speed>8.4</speed>
<course>218.1</course>
<desc>Speed 8.4 km/h Distance 46.85 km</desc>
<time>2010-06-13T10:09:26.91</time>
<name>12385</name>
</trkpt>
<trkpt lat="49.176177" lon="11.804268">
<ele>601.5</ele>
<speed>8.4</speed>
<course>215.3</course>
<desc>Speed 8.4 km/h Distance 46.85 km</desc>
<time>2010-06-13T10:09:27.91</time>
<name>12386</name>
</trkpt>
<trkpt lat="49.176157" lon="11.804247">
<ele>601.7</ele>
<speed>9.9</speed>
<course>217.0</course>
<desc>Speed 9.9 km/h Distance 46.86 km</desc>
<time>2010-06-13T10:09:28.91</time>
<name>12387</name>
</trkpt>
<trkpt lat="49.176135" lon="11.804222">
<ele>601.9</ele>
<speed>9.0</speed>
<course>199.4</course>
<desc>Speed 9.0 km/h Distance 46.86 km</desc>
<time>2010-06-13T10:09:29.91</time>
<name>12388</name>
</trkpt>
<trkpt lat="49.176113" lon="11.804210">
<ele>602.3</ele>
<speed>8.9</speed>
<course>201.5</course>
<desc>Speed 8.9 km/h Distance 46.86 km</desc>
<time>2010-06-13T10:09:30.91</time>
<name>12389</name>
</trkpt>
<trkpt lat="49.176088" lon="11.804195">
<ele>602.3</ele>
<speed>9.9</speed>
<course>186.9</course>
<desc>Speed 9.9 km/h Distance 46.86 km</desc>
<time>2010-06-13T10:09:31.91</time>
<name>12390</name>
</trkpt>
<trkpt lat="49.176062" lon="11.804190">
<ele>602.1</ele>
<speed>10.6</speed>
<course>178.6</course>
<desc>Speed 10.6 km/h Distance 46.87 km</desc>
<time>2010-06-13T10:09:32.91</time>
<name>12391</name>
</trkpt>
<trkpt lat="49.176033" lon="11.804192">
<ele>602.1</ele>
<speed>10.6</speed>
<course>175.5</course>
<desc>Speed 10.6 km/h Distance 46.87 km</desc>
<time>2010-06-13T10:09:33.91</time>
<name>12392</name>
</trkpt>
<trkpt lat="49.176005" lon="11.804195">
<ele>601.9</ele>
<speed>10.8</speed>
<course>170.8</course>
<desc>Speed 10.8 km/h Distance 46.87 km</desc>
<time>2010-06-13T10:09:34.91</time>
<name>12393</name>
</trkpt>
<trkpt lat="49.175978" lon="11.804202">
<ele>601.8</ele>
<speed>11.0</speed>
<course>177.7</course>
<desc>Speed 11.0 km/h Distance 46.88 km</desc>
<time>2010-06-13T10:09:35.91</time>
<name>12394</name>
</trkpt>
<trkpt lat="49.175947" lon="11.804203">
<ele>601.9</ele>
<speed>11.3</speed>
<course>175.5</course>
<desc>Speed 11.3 km/h Distance 46.88 km</desc>
<time>2010-06-13T10:09:36.91</time>
<name>12395</name>
</trkpt>
<trkpt lat="49.175918" lon="11.804207">
<ele>601.8</ele>
<speed>11.3</speed>
<course>138.9</course>
<desc>Speed 11.3 km/h Distance 46.88 km</desc>
<time>2010-06-13T10:09:37.91</time>
<name>12396</name>
</trkpt>
<trkpt lat="49.175898" lon="11.804233">
<ele>599.7</ele>
<speed>11.1</speed>
<course>160.7</course>
<desc>Speed 11.1 km/h Distance 46.89 km</desc>
<time>2010-06-13T10:09:38.91</time>
<name>12397</name>
</trkpt>
<trkpt lat="49.175873" lon="11.804247">
<ele>598.4</ele>
<speed>11.0</speed>
<course>199.0</course>
<desc>Speed 11.0 km/h Distance 46.89 km</desc>
<time>2010-06-13T10:09:39.91</time>
<name>12398</name>
</trkpt>
<trkpt lat="49.175842" lon="11.804230">
<ele>598.1</ele>
<speed>11.7</speed>
<course>148.2</course>
<desc>Speed 11.7 km/h Distance 46.89 km</desc>
<time>2010-06-13T10:09:40.91</time>
<name>12399</name>
</trkpt>
<trkpt lat="49.175808" lon="11.804262">
<ele>597.0</ele>
<speed>12.4</speed>
<course>172.3</course>
<desc>Speed 12.4 km/h Distance 46.90 km</desc>
<time>2010-06-13T10:09:41.91</time>
<name>12400</name>
</trkpt>
<trkpt lat="49.175760" lon="11.804272">
<ele>598.0</ele>
<speed>15.0</speed>
<course>181.7</course>
<desc>Speed 15.0 km/h Distance 46.90 km</desc>
<time>2010-06-13T10:09:42.91</time>
<name>12401</name>
</trkpt>
<trkpt lat="49.175725" lon="11.804270">
<ele>598.8</ele>
<speed>14.2</speed>
<course>152.2</course>
<desc>Speed 14.2 km/h Distance 46.91 km</desc>
<time>2010-06-13T10:09:43.91</time>
<name>12402</name>
</trkpt>
<trkpt lat="49.175682" lon="11.804305">
<ele>596.9</ele>
<speed>16.2</speed>
<course>144.7</course>
<desc>Speed 16.2 km/h Distance 46.91 km</desc>
<time>2010-06-13T10:09:44.91</time>
<name>12403</name>
</trkpt>
<trkpt lat="49.175662" lon="11.804327">
<ele>596.5</ele>
<speed>16.2</speed>
<course>151.4</course>
<desc>Speed 16.2 km/h Distance 46.91 km</desc>
<time>2010-06-13T10:09:45.91</time>
<name>12404</name>
</trkpt>
<trkpt lat="49.175652" lon="11.804335">
<ele>595.4</ele>
<speed>11.7</speed>
<course>166.4</course>
<desc>Speed 11.7 km/h Distance 46.92 km</desc>
<time>2010-06-13T10:09:47.91</time>
<name>12405</name>
</trkpt>
<trkpt lat="49.175620" lon="11.804347">
<ele>595.6</ele>
<speed>11.4</speed>
<course>172.7</course>
<desc>Speed 11.4 km/h Distance 46.92 km</desc>
<time>2010-06-13T10:09:48.91</time>
<name>12406</name>
</trkpt>
<trkpt lat="49.175585" lon="11.804353">
<ele>595.8</ele>
<speed>11.2</speed>
<course>173.0</course>
<desc>Speed 11.2 km/h Distance 46.92 km</desc>
<time>2010-06-13T10:09:49.91</time>
<name>12407</name>
</trkpt>
<trkpt lat="49.175505" lon="11.804368">
<ele>595.8</ele>
<speed>12.2</speed>
<course>169.4</course>
<desc>Speed 12.2 km/h Distance 46.93 km</desc>
<time>2010-06-13T10:09:51.91</time>
<name>12408</name>
</trkpt>
<trkpt lat="49.175482" lon="11.804375">
<ele>595.1</ele>
<speed>11.7</speed>
<course>169.1</course>
<desc>Speed 11.7 km/h Distance 46.93 km</desc>
<time>2010-06-13T10:09:52.91</time>
<name>12409</name>
</trkpt>
<trkpt lat="49.175453" lon="11.804383">
<ele>595.6</ele>
<speed>12.5</speed>
<course>165.8</course>
<desc>Speed 12.5 km/h Distance 46.94 km</desc>
<time>2010-06-13T10:09:53.91</time>
<name>12410</name>
</trkpt>
<trkpt lat="49.175432" lon="11.804392">
<ele>595.4</ele>
<speed>10.8</speed>
<course>157.9</course>
<desc>Speed 10.8 km/h Distance 46.94 km</desc>
<time>2010-06-13T10:09:54.91</time>
<name>12411</name>
</trkpt>
<trkpt lat="49.175410" lon="11.804405">
<ele>595.3</ele>
<speed>10.4</speed>
<course>173.4</course>
<desc>Speed 10.4 km/h Distance 46.94 km</desc>
<time>2010-06-13T10:09:55.91</time>
<name>12412</name>
</trkpt>
<trkpt lat="49.175382" lon="11.804410">
<ele>595.2</ele>
<speed>9.5</speed>
<course>135.5</course>
<desc>Speed 9.5 km/h Distance 46.95 km</desc>
<time>2010-06-13T10:09:56.91</time>
<name>12413</name>
</trkpt>
<trkpt lat="49.175362" lon="11.804440">
<ele>593.4</ele>
<speed>7.9</speed>
<course>182.2</course>
<desc>Speed 7.9 km/h Distance 46.95 km</desc>
<time>2010-06-13T10:09:57.91</time>
<name>12414</name>
</trkpt>
<trkpt lat="49.175338" lon="11.804438">
<ele>594.6</ele>
<speed>9.2</speed>
<course>154.4</course>
<desc>Speed 9.2 km/h Distance 46.95 km</desc>
<time>2010-06-13T10:09:58.91</time>
<name>12415</name>
</trkpt>
<trkpt lat="49.175313" lon="11.804457">
<ele>595.2</ele>
<speed>9.8</speed>
<course>155.1</course>
<desc>Speed 9.8 km/h Distance 46.96 km</desc>
<time>2010-06-13T10:09:59.91</time>
<name>12416</name>
</trkpt>
<trkpt lat="49.175302" lon="11.804465">
<ele>595.4</ele>
<speed>8.7</speed>
<course>189.5</course>
<desc>Speed 8.7 km/h Distance 46.96 km</desc>
<time>2010-06-13T10:10:00.91</time>
<name>12417</name>
</trkpt>
<trkpt lat="49.175282" lon="11.804460">
<ele>596.0</ele>
<speed>8.5</speed>
<course>200.1</course>
<desc>Speed 8.5 km/h Distance 46.96 km</desc>
<time>2010-06-13T10:10:01.91</time>
<name>12418</name>
</trkpt>
<trkpt lat="49.175267" lon="11.804452">
<ele>596.0</ele>
<speed>8.8</speed>
<course>177.8</course>
<desc>Speed 8.8 km/h Distance 46.96 km</desc>
<time>2010-06-13T10:10:02.91</time>
<name>12419</name>
</trkpt>
<trkpt lat="49.175243" lon="11.804453">
<ele>594.7</ele>
<speed>8.5</speed>
<course>187.4</course>
<desc>Speed 8.5 km/h Distance 46.96 km</desc>
<time>2010-06-13T10:10:03.91</time>
<name>12420</name>
</trkpt>
<trkpt lat="49.175218" lon="11.804448">
<ele>594.7</ele>
<speed>8.7</speed>
<course>180.0</course>
<desc>Speed 8.7 km/h Distance 46.97 km</desc>
<time>2010-06-13T10:10:04.91</time>
<name>12421</name>
</trkpt>
<trkpt lat="49.175197" lon="11.804448">
<ele>595.5</ele>
<speed>7.7</speed>
<course>193.0</course>
<desc>Speed 7.7 km/h Distance 46.97 km</desc>
<time>2010-06-13T10:10:05.91</time>
<name>12422</name>
</trkpt>
<trkpt lat="49.175168" lon="11.804438">
<ele>595.5</ele>
<speed>7.7</speed>
<course>184.6</course>
<desc>Speed 7.7 km/h Distance 46.97 km</desc>
<time>2010-06-13T10:10:06.91</time>
<name>12423</name>
</trkpt>
<trkpt lat="49.175142" lon="11.804435">
<ele>596.6</ele>
<speed>8.9</speed>
<course>180.0</course>
<desc>Speed 8.9 km/h Distance 46.97 km</desc>
<time>2010-06-13T10:10:07.91</time>
<name>12424</name>
</trkpt>
<trkpt lat="49.175120" lon="11.804435">
<ele>597.9</ele>
<speed>9.7</speed>
<course>191.5</course>
<desc>Speed 9.7 km/h Distance 46.98 km</desc>
<time>2010-06-13T10:10:08.91</time>
<name>12425</name>
</trkpt>
<trkpt lat="49.175093" lon="11.804427">
<ele>598.2</ele>
<speed>9.9</speed>
<course>181.9</course>
<desc>Speed 9.9 km/h Distance 46.98 km</desc>
<time>2010-06-13T10:10:09.91</time>
<name>12426</name>
</trkpt>
<trkpt lat="49.175060" lon="11.804425">
<ele>598.6</ele>
<speed>9.4</speed>
<course>185.6</course>
<desc>Speed 9.4 km/h Distance 46.98 km</desc>
<time>2010-06-13T10:10:10.91</time>
<name>12427</name>
</trkpt>
<trkpt lat="49.175037" lon="11.804422">
<ele>598.8</ele>
<speed>9.3</speed>
<course>187.8</course>
<desc>Speed 9.3 km/h Distance 46.99 km</desc>
<time>2010-06-13T10:10:11.91</time>
<name>12428</name>
</trkpt>
<trkpt lat="49.175013" lon="11.804417">
<ele>598.5</ele>
<speed>9.0</speed>
<course>209.5</course>
<desc>Speed 9.0 km/h Distance 46.99 km</desc>
<time>2010-06-13T10:10:12.91</time>
<name>12429</name>
</trkpt>
<trkpt lat="49.174988" lon="11.804395">
<ele>598.6</ele>
<speed>9.4</speed>
<course>216.8</course>
<desc>Speed 9.4 km/h Distance 46.99 km</desc>
<time>2010-06-13T10:10:13.91</time>
<name>12430</name>
</trkpt>
<trkpt lat="49.174965" lon="11.804368">
<ele>597.6</ele>
<speed>9.7</speed>
<course>221.6</course>
<desc>Speed 9.7 km/h Distance 47.00 km</desc>
<time>2010-06-13T10:10:14.91</time>
<name>12431</name>
</trkpt>
<trkpt lat="49.174942" lon="11.804337">
<ele>595.8</ele>
<speed>10.0</speed>
<course>231.3</course>
<desc>Speed 10.0 km/h Distance 47.00 km</desc>
<time>2010-06-13T10:10:15.91</time>
<name>12432</name>
</trkpt>
<trkpt lat="49.174923" lon="11.804302">
<ele>594.9</ele>
<speed>10.7</speed>
<course>235.0</course>
<desc>Speed 10.7 km/h Distance 47.00 km</desc>
<time>2010-06-13T10:10:16.91</time>
<name>12433</name>
</trkpt>
<trkpt lat="49.174905" lon="11.804262">
<ele>595.5</ele>
<speed>10.5</speed>
<course>238.0</course>
<desc>Speed 10.5 km/h Distance 47.01 km</desc>
<time>2010-06-13T10:10:17.91</time>
<name>12434</name>
</trkpt>
<trkpt lat="49.174890" lon="11.804225">
<ele>594.0</ele>
<speed>9.8</speed>
<course>244.2</course>
<desc>Speed 9.8 km/h Distance 47.01 km</desc>
<time>2010-06-13T10:10:18.91</time>
<name>12435</name>
</trkpt>
<trkpt lat="49.174880" lon="11.804193">
<ele>593.2</ele>
<speed>9.3</speed>
<course>216.8</course>
<desc>Speed 9.3 km/h Distance 47.01 km</desc>
<time>2010-06-13T10:10:19.91</time>
<name>12436</name>
</trkpt>
<trkpt lat="49.174857" lon="11.804167">
<ele>593.4</ele>
<speed>9.4</speed>
<course>229.3</course>
<desc>Speed 9.4 km/h Distance 47.01 km</desc>
<time>2010-06-13T10:10:20.91</time>
<name>12437</name>
</trkpt>
<trkpt lat="49.174842" lon="11.804140">
<ele>593.1</ele>
<speed>10.5</speed>
<course>228.5</course>
<desc>Speed 10.5 km/h Distance 47.02 km</desc>
<time>2010-06-13T10:10:21.91</time>
<name>12438</name>
</trkpt>
<trkpt lat="49.174823" lon="11.804108">
<ele>592.7</ele>
<speed>10.5</speed>
<course>219.3</course>
<desc>Speed 10.5 km/h Distance 47.02 km</desc>
<time>2010-06-13T10:10:22.91</time>
<name>12439</name>
</trkpt>
<trkpt lat="49.174803" lon="11.804083">
<ele>592.2</ele>
<speed>10.0</speed>
<course>223.5</course>
<desc>Speed 10.0 km/h Distance 47.02 km</desc>
<time>2010-06-13T10:10:23.91</time>
<name>12440</name>
</trkpt>
<trkpt lat="49.174785" lon="11.804057">
<ele>591.6</ele>
<speed>9.5</speed>
<course>215.1</course>
<desc>Speed 9.5 km/h Distance 47.03 km</desc>
<time>2010-06-13T10:10:24.91</time>
<name>12441</name>
</trkpt>
<trkpt lat="49.174763" lon="11.804033">
<ele>591.1</ele>
<speed>10.3</speed>
<course>225.0</course>
<desc>Speed 10.3 km/h Distance 47.03 km</desc>
<time>2010-06-13T10:10:25.91</time>
<name>12442</name>
</trkpt>
<trkpt lat="49.174735" lon="11.803990">
<ele>592.4</ele>
<speed>10.7</speed>
<course>225.0</course>
<desc>Speed 10.7 km/h Distance 47.03 km</desc>
<time>2010-06-13T10:10:26.91</time>
<name>12443</name>
</trkpt>
<trkpt lat="49.174707" lon="11.803947">
<ele>594.1</ele>
<speed>10.2</speed>
<course>217.8</course>
<desc>Speed 10.2 km/h Distance 47.04 km</desc>
<time>2010-06-13T10:10:27.91</time>
<name>12444</name>
</trkpt>
<trkpt lat="49.174680" lon="11.803915">
<ele>595.1</ele>
<speed>10.0</speed>
<course>210.0</course>
<desc>Speed 10.0 km/h Distance 47.04 km</desc>
<time>2010-06-13T10:10:28.91</time>
<name>12445</name>
</trkpt>
<trkpt lat="49.174652" lon="11.803890">
<ele>595.7</ele>
<speed>10.7</speed>
<course>211.6</course>
<desc>Speed 10.7 km/h Distance 47.05 km</desc>
<time>2010-06-13T10:10:29.91</time>
<name>12446</name>
</trkpt>
<trkpt lat="49.174623" lon="11.803863">
<ele>596.8</ele>
<speed>11.0</speed>
<course>211.4</course>
<desc>Speed 11.0 km/h Distance 47.05 km</desc>
<time>2010-06-13T10:10:30.91</time>
<name>12447</name>
</trkpt>
<trkpt lat="49.174598" lon="11.803840">
<ele>596.6</ele>
<speed>10.1</speed>
<course>209.0</course>
<desc>Speed 10.1 km/h Distance 47.05 km</desc>
<time>2010-06-13T10:10:31.91</time>
<name>12448</name>
</trkpt>
<trkpt lat="49.174577" lon="11.803822">
<ele>597.3</ele>
<speed>9.9</speed>
<course>197.0</course>
<desc>Speed 9.9 km/h Distance 47.05 km</desc>
<time>2010-06-13T10:10:32.91</time>
<name>12449</name>
</trkpt>
<trkpt lat="49.174552" lon="11.803810">
<ele>597.2</ele>
<speed>11.2</speed>
<course>194.6</course>
<desc>Speed 11.2 km/h Distance 47.06 km</desc>
<time>2010-06-13T10:10:33.91</time>
<name>12450</name>
</trkpt>
<trkpt lat="49.174518" lon="11.803797">
<ele>597.6</ele>
<speed>13.0</speed>
<course>200.7</course>
<desc>Speed 13.0 km/h Distance 47.06 km</desc>
<time>2010-06-13T10:10:34.91</time>
<name>12451</name>
</trkpt>
<trkpt lat="49.174487" lon="11.803778">
<ele>598.4</ele>
<speed>12.6</speed>
<course>213.2</course>
<desc>Speed 12.6 km/h Distance 47.07 km</desc>
<time>2010-06-13T10:10:35.91</time>
<name>12452</name>
</trkpt>
<trkpt lat="49.174455" lon="11.803747">
<ele>600.3</ele>
<speed>10.5</speed>
<course>214.9</course>
<desc>Speed 10.5 km/h Distance 47.07 km</desc>
<time>2010-06-13T10:10:36.91</time>
<name>12453</name>
</trkpt>
<trkpt lat="49.174430" lon="11.803720">
<ele>601.0</ele>
<speed>10.7</speed>
<course>225.8</course>
<desc>Speed 10.7 km/h Distance 47.07 km</desc>
<time>2010-06-13T10:10:37.91</time>
<name>12454</name>
</trkpt>
<trkpt lat="49.174407" lon="11.803683">
<ele>602.1</ele>
<speed>10.4</speed>
<course>245.0</course>
<desc>Speed 10.4 km/h Distance 47.08 km</desc>
<time>2010-06-13T10:10:38.91</time>
<name>12455</name>
</trkpt>
<trkpt lat="49.174395" lon="11.803645">
<ele>602.2</ele>
<speed>9.8</speed>
<course>242.0</course>
<desc>Speed 9.8 km/h Distance 47.08 km</desc>
<time>2010-06-13T10:10:39.91</time>
<name>12456</name>
</trkpt>
<trkpt lat="49.174382" lon="11.803607">
<ele>602.0</ele>
<speed>10.2</speed>
<course>253.0</course>
<desc>Speed 10.2 km/h Distance 47.08 km</desc>
<time>2010-06-13T10:10:40.91</time>
<name>12457</name>
</trkpt>
<trkpt lat="49.174373" lon="11.803565">
<ele>601.3</ele>
<speed>10.7</speed>
<course>263.8</course>
<desc>Speed 10.7 km/h Distance 47.09 km</desc>
<time>2010-06-13T10:10:41.91</time>
<name>12458</name>
</trkpt>
<trkpt lat="49.174370" lon="11.803518">
<ele>601.3</ele>
<speed>11.5</speed>
<course>266.9</course>
<desc>Speed 11.5 km/h Distance 47.09 km</desc>
<time>2010-06-13T10:10:42.91</time>
<name>12459</name>
</trkpt>
<trkpt lat="49.174368" lon="11.803472">
<ele>600.7</ele>
<speed>11.8</speed>
<course>282.3</course>
<desc>Speed 11.8 km/h Distance 47.09 km</desc>
<time>2010-06-13T10:10:43.91</time>
<name>12460</name>
</trkpt>
<trkpt lat="49.174375" lon="11.803425">
<ele>600.6</ele>
<speed>11.7</speed>
<course>278.7</course>
<desc>Speed 11.7 km/h Distance 47.10 km</desc>
<time>2010-06-13T10:10:44.91</time>
<name>12461</name>
</trkpt>
<trkpt lat="49.174380" lon="11.803375">
<ele>600.9</ele>
<speed>11.3</speed>
<course>286.4</course>
<desc>Speed 11.3 km/h Distance 47.10 km</desc>
<time>2010-06-13T10:10:45.91</time>
<name>12462</name>
</trkpt>
<trkpt lat="49.174388" lon="11.803332">
<ele>600.9</ele>
<speed>11.3</speed>
<course>305.9</course>
<desc>Speed 11.3 km/h Distance 47.10 km</desc>
<time>2010-06-13T10:10:46.91</time>
<name>12463</name>
</trkpt>
<trkpt lat="49.174403" lon="11.803300">
<ele>600.9</ele>
<speed>10.4</speed>
<course>326.8</course>
<desc>Speed 10.4 km/h Distance 47.11 km</desc>
<time>2010-06-13T10:10:47.91</time>
<name>12464</name>
</trkpt>
<trkpt lat="49.174427" lon="11.803277">
<ele>600.7</ele>
<speed>9.8</speed>
<course>346.2</course>
<desc>Speed 9.8 km/h Distance 47.11 km</desc>
<time>2010-06-13T10:10:48.91</time>
<name>12465</name>
</trkpt>
<trkpt lat="49.174453" lon="11.803267">
<ele>600.7</ele>
<speed>8.8</speed>
<course>350.8</course>
<desc>Speed 8.8 km/h Distance 47.11 km</desc>
<time>2010-06-13T10:10:49.91</time>
<name>12466</name>
</trkpt>
<trkpt lat="49.174480" lon="11.803260">
<ele>600.8</ele>
<speed>9.4</speed>
<course>355.6</course>
<desc>Speed 9.4 km/h Distance 47.12 km</desc>
<time>2010-06-13T10:10:50.91</time>
<name>12467</name>
</trkpt>
<trkpt lat="49.174510" lon="11.803257">
<ele>600.6</ele>
<speed>9.1</speed>
<course>3.0</course>
<desc>Speed 9.1 km/h Distance 47.12 km</desc>
<time>2010-06-13T10:10:51.91</time>
<name>12468</name>
</trkpt>
<trkpt lat="49.174533" lon="11.803258">
<ele>601.6</ele>
<speed>9.3</speed>
<course>350.0</course>
<desc>Speed 9.3 km/h Distance 47.12 km</desc>
<time>2010-06-13T10:10:52.91</time>
<name>12469</name>
</trkpt>
<trkpt lat="49.174558" lon="11.803252">
<ele>602.4</ele>
<speed>8.8</speed>
<course>2.2</course>
<desc>Speed 8.8 km/h Distance 47.12 km</desc>
<time>2010-06-13T10:10:53.91</time>
<name>12470</name>
</trkpt>
<trkpt lat="49.174582" lon="11.803252">
<ele>601.8</ele>
<speed>8.0</speed>
<course>335.4</course>
<desc>Speed 8.0 km/h Distance 47.13 km</desc>
<time>2010-06-13T10:10:54.91</time>
<name>12471</name>
</trkpt>
<trkpt lat="49.174598" lon="11.803240">
<ele>601.3</ele>
<speed>8.2</speed>
<course>341.8</course>
<desc>Speed 8.2 km/h Distance 47.13 km</desc>
<time>2010-06-13T10:10:55.91</time>
<name>12472</name>
</trkpt>
<trkpt lat="49.174618" lon="11.803230">
<ele>600.9</ele>
<speed>8.1</speed>
<course>331.4</course>
<desc>Speed 8.1 km/h Distance 47.13 km</desc>
<time>2010-06-13T10:10:56.91</time>
<name>12473</name>
</trkpt>
<trkpt lat="49.174638" lon="11.803213">
<ele>601.9</ele>
<speed>8.6</speed>
<course>331.0</course>
<desc>Speed 8.6 km/h Distance 47.13 km</desc>
<time>2010-06-13T10:10:57.91</time>
<name>12474</name>
</trkpt>
<trkpt lat="49.174660" lon="11.803195">
<ele>602.4</ele>
<speed>9.0</speed>
<course>320.2</course>
<desc>Speed 9.0 km/h Distance 47.14 km</desc>
<time>2010-06-13T10:10:58.91</time>
<name>12475</name>
</trkpt>
<trkpt lat="49.174678" lon="11.803172">
<ele>602.4</ele>
<speed>8.8</speed>
<course>313.7</course>
<desc>Speed 8.8 km/h Distance 47.14 km</desc>
<time>2010-06-13T10:10:59.91</time>
<name>12476</name>
</trkpt>
<trkpt lat="49.174695" lon="11.803145">
<ele>602.9</ele>
<speed>9.3</speed>
<course>310.4</course>
<desc>Speed 9.3 km/h Distance 47.14 km</desc>
<time>2010-06-13T10:11:00.91</time>
<name>12477</name>
</trkpt>
<trkpt lat="49.174712" lon="11.803115">
<ele>602.9</ele>
<speed>8.9</speed>
<course>310.7</course>
<desc>Speed 8.9 km/h Distance 47.14 km</desc>
<time>2010-06-13T10:11:01.91</time>
<name>12478</name>
</trkpt>
<trkpt lat="49.174727" lon="11.803088">
<ele>602.9</ele>
<speed>8.7</speed>
<course>313.7</course>
<desc>Speed 8.7 km/h Distance 47.15 km</desc>
<time>2010-06-13T10:11:02.91</time>
<name>12479</name>
</trkpt>
<trkpt lat="49.174743" lon="11.803062">
<ele>602.9</ele>
<speed>9.0</speed>
<course>305.8</course>
<desc>Speed 9.0 km/h Distance 47.15 km</desc>
<time>2010-06-13T10:11:03.91</time>
<name>12480</name>
</trkpt>
<trkpt lat="49.174757" lon="11.803033">
<ele>603.0</ele>
<speed>9.0</speed>
<course>295.6</course>
<desc>Speed 9.0 km/h Distance 47.15 km</desc>
<time>2010-06-13T10:11:04.91</time>
<name>12481</name>
</trkpt>
<trkpt lat="49.174765" lon="11.803007">
<ele>603.4</ele>
<speed>9.3</speed>
<course>298.4</course>
<desc>Speed 9.3 km/h Distance 47.15 km</desc>
<time>2010-06-13T10:11:05.91</time>
<name>12482</name>
</trkpt>
<trkpt lat="49.174775" lon="11.802978">
<ele>603.7</ele>
<speed>9.0</speed>
<course>279.2</course>
<desc>Speed 9.0 km/h Distance 47.16 km</desc>
<time>2010-06-13T10:11:06.91</time>
<name>12483</name>
</trkpt>
<trkpt lat="49.174778" lon="11.802947">
<ele>604.1</ele>
<speed>8.1</speed>
<course>283.6</course>
<desc>Speed 8.1 km/h Distance 47.16 km</desc>
<time>2010-06-13T10:11:07.91</time>
<name>12484</name>
</trkpt>
<trkpt lat="49.174783" lon="11.802915">
<ele>604.4</ele>
<speed>7.7</speed>
<course>274.9</course>
<desc>Speed 7.7 km/h Distance 47.16 km</desc>
<time>2010-06-13T10:11:08.91</time>
<name>12485</name>
</trkpt>
<trkpt lat="49.174785" lon="11.802885">
<ele>604.4</ele>
<speed>7.7</speed>
<course>274.6</course>
<desc>Speed 7.7 km/h Distance 47.16 km</desc>
<time>2010-06-13T10:11:09.91</time>
<name>12486</name>
</trkpt>
<trkpt lat="49.174787" lon="11.802853">
<ele>604.7</ele>
<speed>8.1</speed>
<course>279.2</course>
<desc>Speed 8.1 km/h Distance 47.17 km</desc>
<time>2010-06-13T10:11:10.91</time>
<name>12487</name>
</trkpt>
<trkpt lat="49.174790" lon="11.802822">
<ele>604.5</ele>
<speed>8.3</speed>
<course>274.0</course>
<desc>Speed 8.3 km/h Distance 47.17 km</desc>
<time>2010-06-13T10:11:11.91</time>
<name>12488</name>
</trkpt>
<trkpt lat="49.174792" lon="11.802785">
<ele>604.5</ele>
<speed>9.2</speed>
<course>270.0</course>
<desc>Speed 9.2 km/h Distance 47.17 km</desc>
<time>2010-06-13T10:11:12.91</time>
<name>12489</name>
</trkpt>
<trkpt lat="49.174792" lon="11.802745">
<ele>604.6</ele>
<speed>8.9</speed>
<course>287.0</course>
<desc>Speed 8.9 km/h Distance 47.17 km</desc>
<time>2010-06-13T10:11:13.91</time>
<name>12490</name>
</trkpt>
<trkpt lat="49.174798" lon="11.802712">
<ele>604.9</ele>
<speed>8.6</speed>
<course>274.2</course>
<desc>Speed 8.6 km/h Distance 47.18 km</desc>
<time>2010-06-13T10:11:14.91</time>
<name>12491</name>
</trkpt>
<trkpt lat="49.174800" lon="11.802677">
<ele>603.7</ele>
<speed>8.1</speed>
<course>256.4</course>
<desc>Speed 8.1 km/h Distance 47.18 km</desc>
<time>2010-06-13T10:11:15.91</time>
<name>12492</name>
</trkpt>
<trkpt lat="49.174795" lon="11.802645">
<ele>604.0</ele>
<speed>7.9</speed>
<course>258.2</course>
<desc>Speed 7.9 km/h Distance 47.18 km</desc>
<time>2010-06-13T10:11:16.91</time>
<name>12493</name>
</trkpt>
<trkpt lat="49.174790" lon="11.802608">
<ele>604.5</ele>
<speed>8.9</speed>
<course>261.7</course>
<desc>Speed 8.9 km/h Distance 47.18 km</desc>
<time>2010-06-13T10:11:17.91</time>
<name>12494</name>
</trkpt>
<trkpt lat="49.174787" lon="11.802573">
<ele>605.2</ele>
<speed>9.1</speed>
<course>250.8</course>
<desc>Speed 9.1 km/h Distance 47.19 km</desc>
<time>2010-06-13T10:11:18.91</time>
<name>12495</name>
</trkpt>
<trkpt lat="49.174778" lon="11.802537">
<ele>604.7</ele>
<speed>9.1</speed>
<course>250.8</course>
<desc>Speed 9.1 km/h Distance 47.19 km</desc>
<time>2010-06-13T10:11:19.91</time>
<name>12496</name>
</trkpt>
<trkpt lat="49.174770" lon="11.802500">
<ele>604.7</ele>
<speed>9.6</speed>
<course>256.2</course>
<desc>Speed 9.6 km/h Distance 47.19 km</desc>
<time>2010-06-13T10:11:20.91</time>
<name>12497</name>
</trkpt>
<trkpt lat="49.174763" lon="11.802458">
<ele>604.7</ele>
<speed>9.1</speed>
<course>258.2</course>
<desc>Speed 9.1 km/h Distance 47.20 km</desc>
<time>2010-06-13T10:11:21.91</time>
<name>12498</name>
</trkpt>
<trkpt lat="49.174758" lon="11.802422">
<ele>604.5</ele>
<speed>8.3</speed>
<course>250.0</course>
<desc>Speed 8.3 km/h Distance 47.20 km</desc>
<time>2010-06-13T10:11:22.91</time>
<name>12499</name>
</trkpt>
<trkpt lat="49.174750" lon="11.802387">
<ele>604.0</ele>
<speed>8.3</speed>
<course>247.3</course>
<desc>Speed 8.3 km/h Distance 47.20 km</desc>
<time>2010-06-13T10:11:23.91</time>
<name>12500</name>
</trkpt>
<trkpt lat="49.174740" lon="11.802350">
<ele>605.0</ele>
<speed>8.9</speed>
<course>251.2</course>
<desc>Speed 8.9 km/h Distance 47.20 km</desc>
<time>2010-06-13T10:11:24.91</time>
<name>12501</name>
</trkpt>
<trkpt lat="49.174730" lon="11.802305">
<ele>606.3</ele>
<speed>9.4</speed>
<course>260.4</course>
<desc>Speed 9.4 km/h Distance 47.21 km</desc>
<time>2010-06-13T10:11:25.91</time>
<name>12502</name>
</trkpt>
<trkpt lat="49.174725" lon="11.802260">
<ele>607.0</ele>
<speed>10.0</speed>
<course>263.3</course>
<desc>Speed 10.0 km/h Distance 47.21 km</desc>
<time>2010-06-13T10:11:26.91</time>
<name>12503</name>
</trkpt>
<trkpt lat="49.174722" lon="11.802217">
<ele>606.7</ele>
<speed>9.8</speed>
<course>279.6</course>
<desc>Speed 9.8 km/h Distance 47.21 km</desc>
<time>2010-06-13T10:11:27.91</time>
<name>12504</name>
</trkpt>
<trkpt lat="49.174725" lon="11.802187">
<ele>606.1</ele>
<speed>8.3</speed>
<course>250.0</course>
<desc>Speed 8.3 km/h Distance 47.22 km</desc>
<time>2010-06-13T10:11:28.91</time>
<name>12505</name>
</trkpt>
<trkpt lat="49.174717" lon="11.802152">
<ele>606.0</ele>
<speed>8.3</speed>
<course>250.0</course>
<desc>Speed 8.3 km/h Distance 47.22 km</desc>
<time>2010-06-13T10:11:29.91</time>
<name>12506</name>
</trkpt>
<trkpt lat="49.174708" lon="11.802117">
<ele>606.6</ele>
<speed>8.3</speed>
<course>247.3</course>
<desc>Speed 8.3 km/h Distance 47.22 km</desc>
<time>2010-06-13T10:11:30.91</time>
<name>12507</name>
</trkpt>
<trkpt lat="49.174698" lon="11.802080">
<ele>607.0</ele>
<speed>8.2</speed>
<course>253.8</course>
<desc>Speed 8.2 km/h Distance 47.22 km</desc>
<time>2010-06-13T10:11:31.91</time>
<name>12508</name>
</trkpt>
<trkpt lat="49.174692" lon="11.802045">
<ele>607.2</ele>
<speed>9.4</speed>
<course>259.6</course>
<desc>Speed 9.4 km/h Distance 47.23 km</desc>
<time>2010-06-13T10:11:32.91</time>
<name>12509</name>
</trkpt>
<trkpt lat="49.174687" lon="11.802003">
<ele>607.6</ele>
<speed>10.1</speed>
<course>256.2</course>
<desc>Speed 10.1 km/h Distance 47.23 km</desc>
<time>2010-06-13T10:11:33.91</time>
<name>12510</name>
</trkpt>
<trkpt lat="49.174680" lon="11.801962">
<ele>607.9</ele>
<speed>9.4</speed>
<course>266.6</course>
<desc>Speed 9.4 km/h Distance 47.23 km</desc>
<time>2010-06-13T10:11:34.91</time>
<name>12511</name>
</trkpt>
<trkpt lat="49.174678" lon="11.801918">
<ele>608.9</ele>
<speed>9.5</speed>
<course>256.3</course>
<desc>Speed 9.5 km/h Distance 47.24 km</desc>
<time>2010-06-13T10:11:35.91</time>
<name>12512</name>
</trkpt>
<trkpt lat="49.174672" lon="11.801877">
<ele>609.1</ele>
<speed>9.1</speed>
<course>256.3</course>
<desc>Speed 9.1 km/h Distance 47.24 km</desc>
<time>2010-06-13T10:11:36.91</time>
<name>12513</name>
</trkpt>
<trkpt lat="49.174665" lon="11.801835">
<ele>609.8</ele>
<speed>9.9</speed>
<course>260.4</course>
<desc>Speed 9.9 km/h Distance 47.24 km</desc>
<time>2010-06-13T10:11:37.91</time>
<name>12514</name>
</trkpt>
<trkpt lat="49.174660" lon="11.801790">
<ele>610.5</ele>
<speed>9.7</speed>
<course>259.2</course>
<desc>Speed 9.7 km/h Distance 47.25 km</desc>
<time>2010-06-13T10:11:38.91</time>
<name>12515</name>
</trkpt>
<trkpt lat="49.174655" lon="11.801750">
<ele>610.4</ele>
<speed>9.3</speed>
<course>254.7</course>
<desc>Speed 9.3 km/h Distance 47.25 km</desc>
<time>2010-06-13T10:11:39.91</time>
<name>12516</name>
</trkpt>
<trkpt lat="49.174647" lon="11.801703">
<ele>610.8</ele>
<speed>11.4</speed>
<course>249.7</course>
<desc>Speed 11.4 km/h Distance 47.25 km</desc>
<time>2010-06-13T10:11:40.91</time>
<name>12517</name>
</trkpt>
<trkpt lat="49.174635" lon="11.801655">
<ele>611.4</ele>
<speed>11.4</speed>
<course>252.4</course>
<desc>Speed 11.4 km/h Distance 47.26 km</desc>
<time>2010-06-13T10:11:41.91</time>
<name>12518</name>
</trkpt>
<trkpt lat="49.174625" lon="11.801607">
<ele>611.9</ele>
<speed>11.6</speed>
<course>250.4</course>
<desc>Speed 11.6 km/h Distance 47.26 km</desc>
<time>2010-06-13T10:11:42.91</time>
<name>12519</name>
</trkpt>
<trkpt lat="49.174613" lon="11.801557">
<ele>611.7</ele>
<speed>11.3</speed>
<course>270.0</course>
<desc>Speed 11.3 km/h Distance 47.26 km</desc>
<time>2010-06-13T10:11:43.91</time>
<name>12520</name>
</trkpt>
<trkpt lat="49.174613" lon="11.801515">
<ele>612.4</ele>
<speed>11.6</speed>
<course>257.2</course>
<desc>Speed 11.6 km/h Distance 47.27 km</desc>
<time>2010-06-13T10:11:44.91</time>
<name>12521</name>
</trkpt>
<trkpt lat="49.174607" lon="11.801470">
<ele>613.2</ele>
<speed>11.4</speed>
<course>290.2</course>
<desc>Speed 11.4 km/h Distance 47.27 km</desc>
<time>2010-06-13T10:11:45.91</time>
<name>12522</name>
</trkpt>
<trkpt lat="49.174617" lon="11.801428">
<ele>613.0</ele>
<speed>11.2</speed>
<course>284.3</course>
<desc>Speed 11.2 km/h Distance 47.27 km</desc>
<time>2010-06-13T10:11:46.91</time>
<name>12523</name>
</trkpt>
<trkpt lat="49.174622" lon="11.801398">
<ele>611.8</ele>
<speed>11.2</speed>
<course>292.7</course>
<desc>Speed 11.2 km/h Distance 47.28 km</desc>
<time>2010-06-13T10:11:47.91</time>
<name>12524</name>
</trkpt>
<trkpt lat="49.174632" lon="11.801362">
<ele>611.1</ele>
<speed>12.0</speed>
<course>293.6</course>
<desc>Speed 12.0 km/h Distance 47.28 km</desc>
<time>2010-06-13T10:11:48.91</time>
<name>12525</name>
</trkpt>
<trkpt lat="49.174642" lon="11.801327">
<ele>610.4</ele>
<speed>11.0</speed>
<course>290.9</course>
<desc>Speed 11.0 km/h Distance 47.28 km</desc>
<time>2010-06-13T10:11:49.91</time>
<name>12526</name>
</trkpt>
<trkpt lat="49.174652" lon="11.801287">
<ele>610.6</ele>
<speed>11.0</speed>
<course>300.2</course>
<desc>Speed 11.0 km/h Distance 47.28 km</desc>
<time>2010-06-13T10:11:50.91</time>
<name>12527</name>
</trkpt>
<trkpt lat="49.174665" lon="11.801252">
<ele>610.6</ele>
<speed>10.8</speed>
<course>316.4</course>
<desc>Speed 10.8 km/h Distance 47.29 km</desc>
<time>2010-06-13T10:11:51.91</time>
<name>12528</name>
</trkpt>
<trkpt lat="49.174683" lon="11.801225">
<ele>609.9</ele>
<speed>10.9</speed>
<course>304.5</course>
<desc>Speed 10.9 km/h Distance 47.29 km</desc>
<time>2010-06-13T10:11:52.91</time>
<name>12529</name>
</trkpt>
<trkpt lat="49.174698" lon="11.801192">
<ele>610.0</ele>
<speed>11.3</speed>
<course>306.1</course>
<desc>Speed 11.3 km/h Distance 47.29 km</desc>
<time>2010-06-13T10:11:53.91</time>
<name>12530</name>
</trkpt>
<trkpt lat="49.174715" lon="11.801157">
<ele>610.4</ele>
<speed>11.5</speed>
<course>306.1</course>
<desc>Speed 11.5 km/h Distance 47.30 km</desc>
<time>2010-06-13T10:11:54.91</time>
<name>12531</name>
</trkpt>
<trkpt lat="49.174732" lon="11.801122">
<ele>610.9</ele>
<speed>11.2</speed>
<course>307.4</course>
<desc>Speed 11.2 km/h Distance 47.30 km</desc>
<time>2010-06-13T10:11:55.91</time>
<name>12532</name>
</trkpt>
<trkpt lat="49.174748" lon="11.801088">
<ele>611.3</ele>
<speed>10.4</speed>
<course>304.2</course>
<desc>Speed 10.4 km/h Distance 47.30 km</desc>
<time>2010-06-13T10:11:56.91</time>
<name>12533</name>
</trkpt>
<trkpt lat="49.174762" lon="11.801058">
<ele>611.7</ele>
<speed>9.7</speed>
<course>307.4</course>
<desc>Speed 9.7 km/h Distance 47.31 km</desc>
<time>2010-06-13T10:11:57.91</time>
<name>12534</name>
</trkpt>
<trkpt lat="49.174777" lon="11.801028">
<ele>612.0</ele>
<speed>9.7</speed>
<course>309.0</course>
<desc>Speed 9.7 km/h Distance 47.31 km</desc>
<time>2010-06-13T10:11:58.91</time>
<name>12535</name>
</trkpt>
<trkpt lat="49.174792" lon="11.801000">
<ele>612.4</ele>
<speed>9.9</speed>
<course>309.0</course>
<desc>Speed 9.9 km/h Distance 47.31 km</desc>
<time>2010-06-13T10:11:59.91</time>
<name>12536</name>
</trkpt>
<trkpt lat="49.174807" lon="11.800972">
<ele>612.9</ele>
<speed>9.9</speed>
<course>310.3</course>
<desc>Speed 9.9 km/h Distance 47.31 km</desc>
<time>2010-06-13T10:12:00.91</time>
<name>12537</name>
</trkpt>
<trkpt lat="49.174823" lon="11.800942">
<ele>613.3</ele>
<speed>10.0</speed>
<course>309.0</course>
<desc>Speed 10.0 km/h Distance 47.32 km</desc>
<time>2010-06-13T10:12:01.91</time>
<name>12538</name>
</trkpt>
<trkpt lat="49.174838" lon="11.800913">
<ele>613.8</ele>
<speed>9.2</speed>
<course>312.5</course>
<desc>Speed 9.2 km/h Distance 47.32 km</desc>
<time>2010-06-13T10:12:02.91</time>
<name>12539</name>
</trkpt>
<trkpt lat="49.174853" lon="11.800888">
<ele>614.2</ele>
<speed>8.1</speed>
<course>316.7</course>
<desc>Speed 8.1 km/h Distance 47.32 km</desc>
<time>2010-06-13T10:12:03.91</time>
<name>12540</name>
</trkpt>
<trkpt lat="49.174868" lon="11.800867">
<ele>614.2</ele>
<speed>8.5</speed>
<course>311.1</course>
<desc>Speed 8.5 km/h Distance 47.32 km</desc>
<time>2010-06-13T10:12:04.91</time>
<name>12541</name>
</trkpt>
<trkpt lat="49.174882" lon="11.800843">
<ele>614.3</ele>
<speed>7.6</speed>
<course>305.2</course>
<desc>Speed 7.6 km/h Distance 47.33 km</desc>
<time>2010-06-13T10:12:05.91</time>
<name>12542</name>
</trkpt>
<trkpt lat="49.174892" lon="11.800822">
<ele>614.1</ele>
<speed>7.2</speed>
<course>301.4</course>
<desc>Speed 7.2 km/h Distance 47.33 km</desc>
<time>2010-06-13T10:12:06.91</time>
<name>12543</name>
</trkpt>
<trkpt lat="49.174902" lon="11.800797">
<ele>613.9</ele>
<speed>7.5</speed>
<course>300.5</course>
<desc>Speed 7.5 km/h Distance 47.33 km</desc>
<time>2010-06-13T10:12:07.91</time>
<name>12544</name>
</trkpt>
<trkpt lat="49.174910" lon="11.800775">
<ele>614.0</ele>
<speed>7.0</speed>
<course>298.7</course>
<desc>Speed 7.0 km/h Distance 47.33 km</desc>
<time>2010-06-13T10:12:08.91</time>
<name>12545</name>
</trkpt>
<trkpt lat="49.174918" lon="11.800752">
<ele>613.5</ele>
<speed>7.2</speed>
<course>303.3</course>
<desc>Speed 7.2 km/h Distance 47.33 km</desc>
<time>2010-06-13T10:12:09.91</time>
<name>12546</name>
</trkpt>
<trkpt lat="49.174928" lon="11.800728">
<ele>613.1</ele>
<speed>7.4</speed>
<course>298.6</course>
<desc>Speed 7.4 km/h Distance 47.34 km</desc>
<time>2010-06-13T10:12:10.91</time>
<name>12547</name>
</trkpt>
<trkpt lat="49.174937" lon="11.800705">
<ele>612.7</ele>
<speed>7.2</speed>
<course>298.4</course>
<desc>Speed 7.2 km/h Distance 47.34 km</desc>
<time>2010-06-13T10:12:11.91</time>
<name>12548</name>
</trkpt>
<trkpt lat="49.174947" lon="11.800677">
<ele>612.7</ele>
<speed>7.5</speed>
<course>293.6</course>
<desc>Speed 7.5 km/h Distance 47.34 km</desc>
<time>2010-06-13T10:12:12.91</time>
<name>12549</name>
</trkpt>
<trkpt lat="49.174953" lon="11.800653">
<ele>612.8</ele>
<speed>7.3</speed>
<course>303.8</course>
<desc>Speed 7.3 km/h Distance 47.34 km</desc>
<time>2010-06-13T10:12:13.91</time>
<name>12550</name>
</trkpt>
<trkpt lat="49.174965" lon="11.800627">
<ele>613.4</ele>
<speed>7.3</speed>
<course>305.5</course>
<desc>Speed 7.3 km/h Distance 47.34 km</desc>
<time>2010-06-13T10:12:14.91</time>
<name>12551</name>
</trkpt>
<trkpt lat="49.174977" lon="11.800602">
<ele>613.9</ele>
<speed>8.0</speed>
<course>299.8</course>
<desc>Speed 8.0 km/h Distance 47.35 km</desc>
<time>2010-06-13T10:12:15.91</time>
<name>12552</name>
</trkpt>
<trkpt lat="49.174987" lon="11.800575">
<ele>614.2</ele>
<speed>7.7</speed>
<course>301.5</course>
<desc>Speed 7.7 km/h Distance 47.35 km</desc>
<time>2010-06-13T10:12:16.91</time>
<name>12553</name>
</trkpt>
<trkpt lat="49.174997" lon="11.800550">
<ele>614.6</ele>
<speed>7.9</speed>
<course>303.8</course>
<desc>Speed 7.9 km/h Distance 47.35 km</desc>
<time>2010-06-13T10:12:17.91</time>
<name>12554</name>
</trkpt>
<trkpt lat="49.175008" lon="11.800523">
<ele>615.2</ele>
<speed>7.8</speed>
<course>307.4</course>
<desc>Speed 7.8 km/h Distance 47.35 km</desc>
<time>2010-06-13T10:12:18.91</time>
<name>12555</name>
</trkpt>
<trkpt lat="49.175020" lon="11.800500">
<ele>615.6</ele>
<speed>7.8</speed>
<course>307.4</course>
<desc>Speed 7.8 km/h Distance 47.36 km</desc>
<time>2010-06-13T10:12:19.91</time>
<name>12556</name>
</trkpt>
<trkpt lat="49.175032" lon="11.800477">
<ele>616.1</ele>
<speed>7.9</speed>
<course>316.6</course>
<desc>Speed 7.9 km/h Distance 47.36 km</desc>
<time>2010-06-13T10:12:20.91</time>
<name>12557</name>
</trkpt>
<trkpt lat="49.175047" lon="11.800455">
<ele>616.6</ele>
<speed>8.1</speed>
<course>307.4</course>
<desc>Speed 8.1 km/h Distance 47.36 km</desc>
<time>2010-06-13T10:12:21.91</time>
<name>12558</name>
</trkpt>
<trkpt lat="49.175058" lon="11.800432">
<ele>617.2</ele>
<speed>8.1</speed>
<course>305.5</course>
<desc>Speed 8.1 km/h Distance 47.36 km</desc>
<time>2010-06-13T10:12:22.91</time>
<name>12559</name>
</trkpt>
<trkpt lat="49.175070" lon="11.800407">
<ele>617.7</ele>
<speed>8.0</speed>
<course>305.5</course>
<desc>Speed 8.0 km/h Distance 47.36 km</desc>
<time>2010-06-13T10:12:23.91</time>
<name>12560</name>
</trkpt>
<trkpt lat="49.175082" lon="11.800382">
<ele>618.2</ele>
<speed>8.0</speed>
<course>305.5</course>
<desc>Speed 8.0 km/h Distance 47.37 km</desc>
<time>2010-06-13T10:12:24.91</time>
<name>12561</name>
</trkpt>
<trkpt lat="49.175093" lon="11.800357">
<ele>618.7</ele>
<speed>8.0</speed>
<course>305.5</course>
<desc>Speed 8.0 km/h Distance 47.37 km</desc>
<time>2010-06-13T10:12:25.91</time>
<name>12562</name>
</trkpt>
<trkpt lat="49.175105" lon="11.800332">
<ele>619.1</ele>
<speed>8.1</speed>
<course>305.5</course>
<desc>Speed 8.1 km/h Distance 47.37 km</desc>
<time>2010-06-13T10:12:26.91</time>
<name>12563</name>
</trkpt>
<trkpt lat="49.175117" lon="11.800307">
<ele>619.6</ele>
<speed>8.0</speed>
<course>305.5</course>
<desc>Speed 8.0 km/h Distance 47.37 km</desc>
<time>2010-06-13T10:12:27.91</time>
<name>12564</name>
</trkpt>
<trkpt lat="49.175128" lon="11.800282">
<ele>620.0</ele>
<speed>7.9</speed>
<course>303.8</course>
<desc>Speed 7.9 km/h Distance 47.38 km</desc>
<time>2010-06-13T10:12:28.91</time>
<name>12565</name>
</trkpt>
<trkpt lat="49.175140" lon="11.800255">
<ele>620.3</ele>
<speed>7.9</speed>
<course>307.4</course>
<desc>Speed 7.9 km/h Distance 47.38 km</desc>
<time>2010-06-13T10:12:29.91</time>
<name>12566</name>
</trkpt>
<trkpt lat="49.175152" lon="11.800232">
<ele>620.7</ele>
<speed>7.8</speed>
<course>299.8</course>
<desc>Speed 7.8 km/h Distance 47.38 km</desc>
<time>2010-06-13T10:12:30.91</time>
<name>12567</name>
</trkpt>
<trkpt lat="49.175162" lon="11.800205">
<ele>621.0</ele>
<speed>7.8</speed>
<course>301.4</course>
<desc>Speed 7.8 km/h Distance 47.38 km</desc>
<time>2010-06-13T10:12:31.91</time>
<name>12568</name>
</trkpt>
<trkpt lat="49.175172" lon="11.800180">
<ele>621.3</ele>
<speed>7.8</speed>
<course>301.4</course>
<desc>Speed 7.8 km/h Distance 47.38 km</desc>
<time>2010-06-13T10:12:32.91</time>
<name>12569</name>
</trkpt>
<trkpt lat="49.175182" lon="11.800155">
<ele>621.5</ele>
<speed>7.7</speed>
<course>299.8</course>
<desc>Speed 7.7 km/h Distance 47.39 km</desc>
<time>2010-06-13T10:12:33.91</time>
<name>12570</name>
</trkpt>
<trkpt lat="49.175192" lon="11.800128">
<ele>621.6</ele>
<speed>7.6</speed>
<course>307.4</course>
<desc>Speed 7.6 km/h Distance 47.39 km</desc>
<time>2010-06-13T10:12:34.91</time>
<name>12571</name>
</trkpt>
<trkpt lat="49.175203" lon="11.800105">
<ele>621.7</ele>
<speed>8.0</speed>
<course>301.4</course>
<desc>Speed 8.0 km/h Distance 47.39 km</desc>
<time>2010-06-13T10:12:35.91</time>
<name>12572</name>
</trkpt>
<trkpt lat="49.175213" lon="11.800080">
<ele>621.7</ele>
<speed>7.8</speed>
<course>301.4</course>
<desc>Speed 7.8 km/h Distance 47.39 km</desc>
<time>2010-06-13T10:12:36.91</time>
<name>12573</name>
</trkpt>
<trkpt lat="49.175223" lon="11.800055">
<ele>621.7</ele>
<speed>7.6</speed>
<course>307.4</course>
<desc>Speed 7.6 km/h Distance 47.39 km</desc>
<time>2010-06-13T10:12:37.91</time>
<name>12574</name>
</trkpt>
<trkpt lat="49.175235" lon="11.800032">
<ele>621.6</ele>
<speed>7.9</speed>
<course>312.6</course>
<desc>Speed 7.9 km/h Distance 47.40 km</desc>
<time>2010-06-13T10:12:38.91</time>
<name>12575</name>
</trkpt>
<trkpt lat="49.175250" lon="11.800007">
<ele>622.0</ele>
<speed>8.0</speed>
<course>311.2</course>
<desc>Speed 8.0 km/h Distance 47.40 km</desc>
<time>2010-06-13T10:12:39.91</time>
<name>12576</name>
</trkpt>
<trkpt lat="49.175263" lon="11.799983">
<ele>622.2</ele>
<speed>8.1</speed>
<course>294.2</course>
<desc>Speed 8.1 km/h Distance 47.40 km</desc>
<time>2010-06-13T10:12:40.91</time>
<name>12577</name>
</trkpt>
<trkpt lat="49.175272" lon="11.799955">
<ele>621.6</ele>
<speed>7.6</speed>
<course>294.2</course>
<desc>Speed 7.6 km/h Distance 47.40 km</desc>
<time>2010-06-13T10:12:41.91</time>
<name>12578</name>
</trkpt>
<trkpt lat="49.175280" lon="11.799927">
<ele>621.4</ele>
<speed>7.5</speed>
<course>284.3</course>
<desc>Speed 7.5 km/h Distance 47.41 km</desc>
<time>2010-06-13T10:12:42.91</time>
<name>12579</name>
</trkpt>
<trkpt lat="49.175285" lon="11.799897">
<ele>621.5</ele>
<speed>8.2</speed>
<course>295.8</course>
<desc>Speed 8.2 km/h Distance 47.41 km</desc>
<time>2010-06-13T10:12:43.91</time>
<name>12580</name>
</trkpt>
<trkpt lat="49.175295" lon="11.799865">
<ele>621.2</ele>
<speed>8.4</speed>
<course>298.4</course>
<desc>Speed 8.4 km/h Distance 47.41 km</desc>
<time>2010-06-13T10:12:44.91</time>
<name>12581</name>
</trkpt>
<trkpt lat="49.175305" lon="11.799837">
<ele>621.3</ele>
<speed>7.9</speed>
<course>297.0</course>
<desc>Speed 7.9 km/h Distance 47.41 km</desc>
<time>2010-06-13T10:12:45.91</time>
<name>12582</name>
</trkpt>
<trkpt lat="49.175313" lon="11.799812">
<ele>621.3</ele>
<speed>6.9</speed>
<course>303.2</course>
<desc>Speed 6.9 km/h Distance 47.42 km</desc>
<time>2010-06-13T10:12:46.91</time>
<name>12583</name>
</trkpt>
<trkpt lat="49.175323" lon="11.799788">
<ele>621.6</ele>
<speed>7.2</speed>
<course>297.0</course>
<desc>Speed 7.2 km/h Distance 47.42 km</desc>
<time>2010-06-13T10:12:47.91</time>
<name>12584</name>
</trkpt>
<trkpt lat="49.175332" lon="11.799763">
<ele>621.7</ele>
<speed>6.7</speed>
<course>293.6</course>
<desc>Speed 6.7 km/h Distance 47.42 km</desc>
<time>2010-06-13T10:12:48.91</time>
<name>12585</name>
</trkpt>
<trkpt lat="49.175338" lon="11.799740">
<ele>621.4</ele>
<speed>5.8</speed>
<course>315.6</course>
<desc>Speed 5.8 km/h Distance 47.42 km</desc>
<time>2010-06-13T10:12:49.91</time>
<name>12586</name>
</trkpt>
<trkpt lat="49.175348" lon="11.799725">
<ele>621.5</ele>
<speed>5.5</speed>
<course>312.6</course>
<desc>Speed 5.5 km/h Distance 47.42 km</desc>
<time>2010-06-13T10:12:50.91</time>
<name>12587</name>
</trkpt>
<trkpt lat="49.175358" lon="11.799708">
<ele>621.2</ele>
<speed>5.6</speed>
<course>312.6</course>
<desc>Speed 5.6 km/h Distance 47.42 km</desc>
<time>2010-06-13T10:12:51.91</time>
<name>12588</name>
</trkpt>
<trkpt lat="49.175368" lon="11.799692">
<ele>621.0</ele>
<speed>6.2</speed>
<course>295.2</course>
<desc>Speed 6.2 km/h Distance 47.43 km</desc>
<time>2010-06-13T10:12:52.91</time>
<name>12589</name>
</trkpt>
<trkpt lat="49.175375" lon="11.799670">
<ele>620.6</ele>
<speed>5.5</speed>
<course>299.9</course>
<desc>Speed 5.5 km/h Distance 47.43 km</desc>
<time>2010-06-13T10:12:53.91</time>
<name>12590</name>
</trkpt>
<trkpt lat="49.175380" lon="11.799657">
<ele>620.4</ele>
<speed>4.4</speed>
<course>293.5</course>
<desc>Speed 4.4 km/h Distance 47.43 km</desc>
<time>2010-06-13T10:12:54.91</time>
<name>12591</name>
</trkpt>
<trkpt lat="49.175383" lon="11.799645">
<ele>621.7</ele>
<speed>3.9</speed>
<course>310.9</course>
<desc>Speed 3.9 km/h Distance 47.43 km</desc>
<time>2010-06-13T10:12:55.91</time>
<name>12592</name>
</trkpt>
<trkpt lat="49.175390" lon="11.799633">
<ele>624.2</ele>
<speed>1.7</speed>
<course>13.5</course>
<desc>Speed 1.7 km/h Distance 47.43 km</desc>
<time>2010-06-13T10:12:56.91</time>
<name>12593</name>
</trkpt>
<trkpt lat="49.175403" lon="11.799638">
<ele>624.5</ele>
<speed>1.1</speed>
<course>4.7</course>
<desc>Speed 1.1 km/h Distance 47.43 km</desc>
<time>2010-06-13T10:12:57.91</time>
<name>12594</name>
</trkpt>
<trkpt lat="49.175415" lon="11.799640">
<ele>625.7</ele>
<speed>1.8</speed>
<course>334.0</course>
<desc>Speed 1.8 km/h Distance 47.43 km</desc>
<time>2010-06-13T10:12:58.91</time>
<name>12595</name>
</trkpt>
<trkpt lat="49.175428" lon="11.799630">
<ele>627.4</ele>
<speed>2.3</speed>
<course>350.5</course>
<desc>Speed 2.3 km/h Distance 47.44 km</desc>
<time>2010-06-13T10:12:59.91</time>
<name>12596</name>
</trkpt>
<trkpt lat="49.175448" lon="11.799625">
<ele>627.9</ele>
<speed>3.1</speed>
<course>75.8</course>
<desc>Speed 3.1 km/h Distance 47.44 km</desc>
<time>2010-06-13T10:13:00.91</time>
<name>12597</name>
</trkpt>
<trkpt lat="49.175450" lon="11.799635">
<ele>629.8</ele>
<speed>1.4</speed>
<course>90.0</course>
<desc>Speed 1.4 km/h Distance 47.44 km</desc>
<time>2010-06-13T10:13:01.91</time>
<name>12598</name>
</trkpt>
<trkpt lat="49.175450" lon="11.799640">
<ele>631.4</ele>
<speed>0.9</speed>
<course>345.1</course>
<desc>Speed 0.9 km/h Distance 47.44 km</desc>
<time>2010-06-13T10:13:02.91</time>
<name>12599</name>
</trkpt>
<trkpt lat="49.175495" lon="11.799622">
<ele>631.9</ele>
<speed>5.8</speed>
<course>354.1</course>
<desc>Speed 5.8 km/h Distance 47.44 km</desc>
<time>2010-06-13T10:13:04.91</time>
<name>12600</name>
</trkpt>
<trkpt lat="49.175517" lon="11.799618">
<ele>632.4</ele>
<speed>4.6</speed>
<course>335.1</course>
<desc>Speed 4.6 km/h Distance 47.45 km</desc>
<time>2010-06-13T10:13:05.91</time>
<name>12601</name>
</trkpt>
<trkpt lat="49.175528" lon="11.799610">
<ele>633.2</ele>
<speed>2.9</speed>
<course>0.0</course>
<desc>Speed 2.9 km/h Distance 47.45 km</desc>
<time>2010-06-13T10:13:06.91</time>
<name>12602</name>
</trkpt>
<trkpt lat="49.175547" lon="11.799610">
<ele>633.9</ele>
<speed>2.6</speed>
<course>14.6</course>
<desc>Speed 2.6 km/h Distance 47.45 km</desc>
<time>2010-06-13T10:13:07.91</time>
<name>12603</name>
</trkpt>
<trkpt lat="49.175563" lon="11.799617">
<ele>634.7</ele>
<speed>1.7</speed>
<course>349.6</course>
<desc>Speed 1.7 km/h Distance 47.45 km</desc>
<time>2010-06-13T10:13:08.91</time>
<name>12604</name>
</trkpt>
<trkpt lat="49.175575" lon="11.799613">
<ele>634.4</ele>
<speed>1.3</speed>
<course>13.8</course>
<desc>Speed 1.3 km/h Distance 47.45 km</desc>
<time>2010-06-13T10:13:09.91</time>
<name>12605</name>
</trkpt>
<trkpt lat="49.175583" lon="11.799617">
<ele>635.7</ele>
<speed>1.5</speed>
<course>270.0</course>
<desc>Speed 1.5 km/h Distance 47.45 km</desc>
<time>2010-06-13T10:13:10.91</time>
<name>12606</name>
</trkpt>
<trkpt lat="49.175583" lon="11.799610">
<ele>634.9</ele>
<speed>1.7</speed>
<course>327.1</course>
<desc>Speed 1.7 km/h Distance 47.45 km</desc>
<time>2010-06-13T10:13:11.91</time>
<name>12607</name>
</trkpt>
<trkpt lat="49.175592" lon="11.799602">
<ele>636.0</ele>
<speed>2.6</speed>
<course>301.4</course>
<desc>Speed 2.6 km/h Distance 47.46 km</desc>
<time>2010-06-13T10:13:12.91</time>
<name>12608</name>
</trkpt>
<trkpt lat="49.175595" lon="11.799593">
<ele>636.8</ele>
<speed>3.5</speed>
<course>311.3</course>
<desc>Speed 3.5 km/h Distance 47.46 km</desc>
<time>2010-06-13T10:13:13.91</time>
<name>12609</name>
</trkpt>
<trkpt lat="49.175602" lon="11.799582">
<ele>637.1</ele>
<speed>3.9</speed>
<course>290.9</course>
<desc>Speed 3.9 km/h Distance 47.46 km</desc>
<time>2010-06-13T10:13:14.91</time>
<name>12610</name>
</trkpt>
<trkpt lat="49.175605" lon="11.799568">
<ele>637.1</ele>
<speed>3.5</speed>
<course>213.0</course>
<desc>Speed 3.5 km/h Distance 47.46 km</desc>
<time>2010-06-13T10:13:15.91</time>
<name>12611</name>
</trkpt>
<trkpt lat="49.175595" lon="11.799558">
<ele>636.0</ele>
<speed>1.9</speed>
<course>236.7</course>
<desc>Speed 1.9 km/h Distance 47.46 km</desc>
<time>2010-06-13T10:13:16.91</time>
<name>12612</name>
</trkpt>
<trkpt lat="49.175590" lon="11.799547">
<ele>635.9</ele>
<speed>2.3</speed>
<course>219.0</course>
<desc>Speed 2.3 km/h Distance 47.46 km</desc>
<time>2010-06-13T10:13:17.91</time>
<name>12613</name>
</trkpt>
<trkpt lat="49.175583" lon="11.799538">
<ele>635.5</ele>
<speed>2.6</speed>
<course>270.0</course>
<desc>Speed 2.6 km/h Distance 47.46 km</desc>
<time>2010-06-13T10:13:18.91</time>
<name>12614</name>
</trkpt>
<trkpt lat="49.175583" lon="11.799520">
<ele>636.7</ele>
<speed>2.3</speed>
<course>315.5</course>
<desc>Speed 2.3 km/h Distance 47.46 km</desc>
<time>2010-06-13T10:13:19.91</time>
<name>12615</name>
</trkpt>
<trkpt lat="49.175587" lon="11.799515">
<ele>637.7</ele>
<speed>1.8</speed>
<course>0.0</course>
<desc>Speed 1.8 km/h Distance 47.46 km</desc>
<time>2010-06-13T10:13:20.91</time>
<name>12616</name>
</trkpt>
<trkpt lat="49.175595" lon="11.799515">
<ele>639.4</ele>
<speed>1.3</speed>
<course>270.0</course>
<desc>Speed 1.3 km/h Distance 47.46 km</desc>
<time>2010-06-13T10:13:21.91</time>
<name>12617</name>
</trkpt>
<trkpt lat="49.175595" lon="11.799512">
<ele>640.2</ele>
<speed>1.4</speed>
<course>257.7</course>
<desc>Speed 1.4 km/h Distance 47.46 km</desc>
<time>2010-06-13T10:13:22.91</time>
<name>12618</name>
</trkpt>
<trkpt lat="49.175592" lon="11.799488">
<ele>640.0</ele>
<speed>2.3</speed>
<course>247.8</course>
<desc>Speed 2.3 km/h Distance 47.47 km</desc>
<time>2010-06-13T10:13:23.91</time>
<name>12619</name>
</trkpt>
<trkpt lat="49.175585" lon="11.799463">
<ele>639.4</ele>
<speed>3.1</speed>
<course>216.9</course>
<desc>Speed 3.1 km/h Distance 47.47 km</desc>
<time>2010-06-13T10:13:24.91</time>
<name>12620</name>
</trkpt>
<trkpt lat="49.175573" lon="11.799450">
<ele>638.4</ele>
<speed>3.1</speed>
<course>244.5</course>
<desc>Speed 3.1 km/h Distance 47.47 km</desc>
<time>2010-06-13T10:13:25.91</time>
<name>12621</name>
</trkpt>
<trkpt lat="49.175565" lon="11.799423">
<ele>638.8</ele>
<speed>3.1</speed>
<course>295.2</course>
<desc>Speed 3.1 km/h Distance 47.47 km</desc>
<time>2010-06-13T10:13:26.91</time>
<name>12622</name>
</trkpt>
<trkpt lat="49.175572" lon="11.799402">
<ele>637.4</ele>
<speed>2.5</speed>
<course>279.6</course>
<desc>Speed 2.5 km/h Distance 47.47 km</desc>
<time>2010-06-13T10:13:27.91</time>
<name>12623</name>
</trkpt>
<trkpt lat="49.175573" lon="11.799387">
<ele>637.4</ele>
<speed>0.9</speed>
<course>297.0</course>
<desc>Speed 0.9 km/h Distance 47.48 km</desc>
<time>2010-06-13T10:13:28.91</time>
<name>12624</name>
</trkpt>
<trkpt lat="49.175578" lon="11.799372">
<ele>637.6</ele>
<speed>0.5</speed>
<course>270.0</course>
<desc>Speed 0.5 km/h Distance 47.48 km</desc>
<time>2010-06-13T10:13:29.91</time>
<name>12625</name>
</trkpt>
<trkpt lat="49.175578" lon="11.799353">
<ele>636.5</ele>
<speed>1.2</speed>
<course>274.9</course>
<desc>Speed 1.2 km/h Distance 47.48 km</desc>
<time>2010-06-13T10:13:30.91</time>
<name>12626</name>
</trkpt>
<trkpt lat="49.175580" lon="11.799323">
<ele>635.7</ele>
<speed>3.3</speed>
<course>244.8</course>
<desc>Speed 3.3 km/h Distance 47.48 km</desc>
<time>2010-06-13T10:13:31.91</time>
<name>12627</name>
</trkpt>
<trkpt lat="49.175573" lon="11.799302">
<ele>636.5</ele>
<speed>2.9</speed>
<course>270.0</course>
<desc>Speed 2.9 km/h Distance 47.48 km</desc>
<time>2010-06-13T10:13:32.91</time>
<name>12628</name>
</trkpt>
<trkpt lat="49.175573" lon="11.799297">
<ele>636.7</ele>
<speed>3.7</speed>
<course>249.1</course>
<desc>Speed 3.7 km/h Distance 47.48 km</desc>
<time>2010-06-13T10:13:33.91</time>
<name>12629</name>
</trkpt>
<trkpt lat="49.175567" lon="11.799270">
<ele>637.3</ele>
<speed>4.2</speed>
<course>285.6</course>
<desc>Speed 4.2 km/h Distance 47.48 km</desc>
<time>2010-06-13T10:13:34.91</time>
<name>12630</name>
</trkpt>
<trkpt lat="49.175570" lon="11.799252">
<ele>634.7</ele>
<speed>4.4</speed>
<course>270.0</course>
<desc>Speed 4.4 km/h Distance 47.49 km</desc>
<time>2010-06-13T10:13:35.91</time>
<name>12631</name>
</trkpt>
<trkpt lat="49.175570" lon="11.799228">
<ele>635.7</ele>
<speed>3.7</speed>
<course>270.0</course>
<desc>Speed 3.7 km/h Distance 47.49 km</desc>
<time>2010-06-13T10:13:36.91</time>
<name>12632</name>
</trkpt>
<trkpt lat="49.175570" lon="11.799205">
<ele>633.3</ele>
<speed>6.0</speed>
<course>261.3</course>
<desc>Speed 6.0 km/h Distance 47.49 km</desc>
<time>2010-06-13T10:13:37.91</time>
<name>12633</name>
</trkpt>
<trkpt lat="49.175567" lon="11.799172">
<ele>633.4</ele>
<speed>5.2</speed>
<course>317.8</course>
<desc>Speed 5.2 km/h Distance 47.49 km</desc>
<time>2010-06-13T10:13:38.91</time>
<name>12634</name>
</trkpt>
<trkpt lat="49.175588" lon="11.799142">
<ele>632.2</ele>
<speed>5.6</speed>
<course>284.3</course>
<desc>Speed 5.6 km/h Distance 47.49 km</desc>
<time>2010-06-13T10:13:39.91</time>
<name>12635</name>
</trkpt>
<trkpt lat="49.175595" lon="11.799102">
<ele>632.9</ele>
<speed>5.3</speed>
<course>270.0</course>
<desc>Speed 5.3 km/h Distance 47.50 km</desc>
<time>2010-06-13T10:13:40.91</time>
<name>12636</name>
</trkpt>
<trkpt lat="49.175595" lon="11.799072">
<ele>632.4</ele>
<speed>5.9</speed>
<course>250.2</course>
<desc>Speed 5.9 km/h Distance 47.50 km</desc>
<time>2010-06-13T10:13:41.91</time>
<name>12637</name>
</trkpt>
<trkpt lat="49.175588" lon="11.799043">
<ele>629.9</ele>
<speed>6.1</speed>
<course>248.3</course>
<desc>Speed 6.1 km/h Distance 47.50 km</desc>
<time>2010-06-13T10:13:42.91</time>
<name>12638</name>
</trkpt>
<trkpt lat="49.175578" lon="11.799005">
<ele>630.6</ele>
<speed>6.8</speed>
<course>255.1</course>
<desc>Speed 6.8 km/h Distance 47.51 km</desc>
<time>2010-06-13T10:13:43.91</time>
<name>12639</name>
</trkpt>
<trkpt lat="49.175572" lon="11.798967">
<ele>628.8</ele>
<speed>6.7</speed>
<course>265.6</course>
<desc>Speed 6.7 km/h Distance 47.51 km</desc>
<time>2010-06-13T10:13:44.91</time>
<name>12640</name>
</trkpt>
<trkpt lat="49.175570" lon="11.798933">
<ele>627.0</ele>
<speed>6.2</speed>
<course>235.8</course>
<desc>Speed 6.2 km/h Distance 47.51 km</desc>
<time>2010-06-13T10:13:45.91</time>
<name>12641</name>
</trkpt>
<trkpt lat="49.175557" lon="11.798903">
<ele>625.4</ele>
<speed>6.4</speed>
<course>243.0</course>
<desc>Speed 6.4 km/h Distance 47.51 km</desc>
<time>2010-06-13T10:13:46.91</time>
<name>12642</name>
</trkpt>
<trkpt lat="49.175545" lon="11.798868">
<ele>624.0</ele>
<speed>6.2</speed>
<course>297.0</course>
<desc>Speed 6.2 km/h Distance 47.52 km</desc>
<time>2010-06-13T10:13:47.91</time>
<name>12643</name>
</trkpt>
<trkpt lat="49.175555" lon="11.798838">
<ele>623.0</ele>
<speed>5.8</speed>
<course>270.0</course>
<desc>Speed 5.8 km/h Distance 47.52 km</desc>
<time>2010-06-13T10:13:48.91</time>
<name>12644</name>
</trkpt>
<trkpt lat="49.175555" lon="11.798807">
<ele>621.7</ele>
<speed>6.0</speed>
<course>250.5</course>
<desc>Speed 6.0 km/h Distance 47.52 km</desc>
<time>2010-06-13T10:13:49.91</time>
<name>12645</name>
</trkpt>
<trkpt lat="49.175550" lon="11.798785">
<ele>620.0</ele>
<speed>3.9</speed>
<course>270.0</course>
<desc>Speed 3.9 km/h Distance 47.52 km</desc>
<time>2010-06-13T10:13:50.91</time>
<name>12646</name>
</trkpt>
<trkpt lat="49.175550" lon="11.798758">
<ele>619.3</ele>
<speed>4.4</speed>
<course>254.0</course>
<desc>Speed 4.4 km/h Distance 47.52 km</desc>
<time>2010-06-13T10:13:51.91</time>
<name>12647</name>
</trkpt>
<trkpt lat="49.175545" lon="11.798732">
<ele>619.8</ele>
<speed>6.5</speed>
<course>271.4</course>
<desc>Speed 6.5 km/h Distance 47.53 km</desc>
<time>2010-06-13T10:13:52.91</time>
<name>12648</name>
</trkpt>
<trkpt lat="49.175547" lon="11.798625">
<ele>616.0</ele>
<speed>8.1</speed>
<course>275.6</course>
<desc>Speed 8.1 km/h Distance 47.53 km</desc>
<time>2010-06-13T10:13:54.91</time>
<name>12649</name>
</trkpt>
<trkpt lat="49.175550" lon="11.798573">
<ele>614.9</ele>
<speed>8.8</speed>
<course>288.1</course>
<desc>Speed 8.8 km/h Distance 47.54 km</desc>
<time>2010-06-13T10:13:55.91</time>
<name>12650</name>
</trkpt>
<trkpt lat="49.175575" lon="11.798457">
<ele>612.1</ele>
<speed>11.9</speed>
<course>279.9</course>
<desc>Speed 11.9 km/h Distance 47.55 km</desc>
<time>2010-06-13T10:13:57.91</time>
<name>12651</name>
</trkpt>
<trkpt lat="49.175582" lon="11.798398">
<ele>610.8</ele>
<speed>12.5</speed>
<course>280.2</course>
<desc>Speed 12.5 km/h Distance 47.55 km</desc>
<time>2010-06-13T10:13:58.91</time>
<name>12652</name>
</trkpt>
<trkpt lat="49.175588" lon="11.798342">
<ele>607.5</ele>
<speed>12.5</speed>
<course>254.0</course>
<desc>Speed 12.5 km/h Distance 47.56 km</desc>
<time>2010-06-13T10:13:59.91</time>
<name>12653</name>
</trkpt>
<trkpt lat="49.175578" lon="11.798288">
<ele>608.0</ele>
<speed>12.6</speed>
<course>258.6</course>
<desc>Speed 12.6 km/h Distance 47.56 km</desc>
<time>2010-06-13T10:14:00.91</time>
<name>12654</name>
</trkpt>
<trkpt lat="49.175570" lon="11.798225">
<ele>607.6</ele>
<speed>13.4</speed>
<course>235.6</course>
<desc>Speed 13.4 km/h Distance 47.56 km</desc>
<time>2010-06-13T10:14:01.91</time>
<name>12655</name>
</trkpt>
<trkpt lat="49.175548" lon="11.798177">
<ele>608.0</ele>
<speed>10.9</speed>
<course>248.1</course>
<desc>Speed 10.9 km/h Distance 47.57 km</desc>
<time>2010-06-13T10:14:02.91</time>
<name>12656</name>
</trkpt>
<trkpt lat="49.175532" lon="11.798113">
<ele>607.5</ele>
<speed>10.3</speed>
<course>253.0</course>
<desc>Speed 10.3 km/h Distance 47.57 km</desc>
<time>2010-06-13T10:14:03.91</time>
<name>12657</name>
</trkpt>
<trkpt lat="49.175522" lon="11.798063">
<ele>607.2</ele>
<speed>9.0</speed>
<course>250.4</course>
<desc>Speed 9.0 km/h Distance 47.58 km</desc>
<time>2010-06-13T10:14:04.91</time>
<name>12658</name>
</trkpt>
<trkpt lat="49.175510" lon="11.798013">
<ele>608.4</ele>
<speed>9.0</speed>
<course>258.8</course>
<desc>Speed 9.0 km/h Distance 47.58 km</desc>
<time>2010-06-13T10:14:05.91</time>
<name>12659</name>
</trkpt>
<trkpt lat="49.175503" lon="11.797962">
<ele>609.1</ele>
<speed>7.6</speed>
<course>267.1</course>
<desc>Speed 7.6 km/h Distance 47.58 km</desc>
<time>2010-06-13T10:14:06.91</time>
<name>12660</name>
</trkpt>
<trkpt lat="49.175500" lon="11.797860">
<ele>611.2</ele>
<speed>6.9</speed>
<course>251.9</course>
<desc>Speed 6.9 km/h Distance 47.59 km</desc>
<time>2010-06-13T10:14:08.91</time>
<name>12661</name>
</trkpt>
<trkpt lat="49.175490" lon="11.797813">
<ele>613.0</ele>
<speed>6.9</speed>
<course>263.3</course>
<desc>Speed 6.9 km/h Distance 47.60 km</desc>
<time>2010-06-13T10:14:09.91</time>
<name>12662</name>
</trkpt>
<trkpt lat="49.175487" lon="11.797770">
<ele>614.1</ele>
<speed>5.9</speed>
<course>257.9</course>
<desc>Speed 5.9 km/h Distance 47.60 km</desc>
<time>2010-06-13T10:14:10.91</time>
<name>12663</name>
</trkpt>
<trkpt lat="49.175475" lon="11.797687">
<ele>619.4</ele>
<speed>5.3</speed>
<course>271.7</course>
<desc>Speed 5.3 km/h Distance 47.61 km</desc>
<time>2010-06-13T10:14:12.91</time>
<name>12664</name>
</trkpt>
<trkpt lat="49.175477" lon="11.797602">
<ele>623.9</ele>
<speed>10.2</speed>
<course>276.9</course>
<desc>Speed 10.2 km/h Distance 47.61 km</desc>
<time>2010-06-13T10:14:14.91</time>
<name>12665</name>
</trkpt>
<trkpt lat="49.175482" lon="11.797538">
<ele>625.5</ele>
<speed>11.3</speed>
<course>290.3</course>
<desc>Speed 11.3 km/h Distance 47.62 km</desc>
<time>2010-06-13T10:14:15.91</time>
<name>12666</name>
</trkpt>
<trkpt lat="49.175493" lon="11.797490">
<ele>625.1</ele>
<speed>11.4</speed>
<course>267.7</course>
<desc>Speed 11.4 km/h Distance 47.62 km</desc>
<time>2010-06-13T10:14:16.91</time>
<name>12667</name>
</trkpt>
<trkpt lat="49.175492" lon="11.797427">
<ele>626.6</ele>
<speed>13.1</speed>
<course>273.9</course>
<desc>Speed 13.1 km/h Distance 47.62 km</desc>
<time>2010-06-13T10:14:17.91</time>
<name>12668</name>
</trkpt>
<trkpt lat="49.175495" lon="11.797352">
<ele>628.3</ele>
<speed>14.4</speed>
<course>272.4</course>
<desc>Speed 14.4 km/h Distance 47.63 km</desc>
<time>2010-06-13T10:14:18.91</time>
<name>12669</name>
</trkpt>
<trkpt lat="49.175497" lon="11.797290">
<ele>629.9</ele>
<speed>13.1</speed>
<course>273.8</course>
<desc>Speed 13.1 km/h Distance 47.63 km</desc>
<time>2010-06-13T10:14:19.91</time>
<name>12670</name>
</trkpt>
<trkpt lat="49.175500" lon="11.797213">
<ele>631.8</ele>
<speed>15.0</speed>
<course>280.8</course>
<desc>Speed 15.0 km/h Distance 47.64 km</desc>
<time>2010-06-13T10:14:20.91</time>
<name>12671</name>
</trkpt>
<trkpt lat="49.175508" lon="11.797147">
<ele>632.8</ele>
<speed>13.2</speed>
<course>282.5</course>
<desc>Speed 13.2 km/h Distance 47.64 km</desc>
<time>2010-06-13T10:14:21.91</time>
<name>12672</name>
</trkpt>
<trkpt lat="49.175527" lon="11.797020">
<ele>636.0</ele>
<speed>12.2</speed>
<course>291.5</course>
<desc>Speed 12.2 km/h Distance 47.65 km</desc>
<time>2010-06-13T10:14:23.91</time>
<name>12673</name>
</trkpt>
<trkpt lat="49.175542" lon="11.796962">
<ele>638.0</ele>
<speed>11.5</speed>
<course>268.3</course>
<desc>Speed 11.5 km/h Distance 47.66 km</desc>
<time>2010-06-13T10:14:24.91</time>
<name>12674</name>
</trkpt>
<trkpt lat="49.175538" lon="11.796793">
<ele>644.0</ele>
<speed>15.8</speed>
<course>264.7</course>
<desc>Speed 15.8 km/h Distance 47.67 km</desc>
<time>2010-06-13T10:14:26.91</time>
<name>12675</name>
</trkpt>
<trkpt lat="49.175535" lon="11.796738">
<ele>644.9</ele>
<speed>13.6</speed>
<course>243.0</course>
<desc>Speed 13.6 km/h Distance 47.68 km</desc>
<time>2010-06-13T10:14:27.91</time>
<name>12676</name>
</trkpt>
<trkpt lat="49.175517" lon="11.796683">
<ele>645.5</ele>
<speed>12.3</speed>
<course>245.2</course>
<desc>Speed 12.3 km/h Distance 47.68 km</desc>
<time>2010-06-13T10:14:28.91</time>
<name>12677</name>
</trkpt>
<trkpt lat="49.175478" lon="11.796557">
<ele>647.3</ele>
<speed>14.5</speed>
<course>267.5</course>
<desc>Speed 14.5 km/h Distance 47.69 km</desc>
<time>2010-06-13T10:14:30.91</time>
<name>12678</name>
</trkpt>
<trkpt lat="49.175477" lon="11.796498">
<ele>646.5</ele>
<speed>13.8</speed>
<course>264.0</course>
<desc>Speed 13.8 km/h Distance 47.69 km</desc>
<time>2010-06-13T10:14:31.91</time>
<name>12679</name>
</trkpt>
<trkpt lat="49.175473" lon="11.796450">
<ele>645.5</ele>
<speed>13.4</speed>
<course>277.5</course>
<desc>Speed 13.4 km/h Distance 47.70 km</desc>
<time>2010-06-13T10:14:32.91</time>
<name>12680</name>
</trkpt>
<trkpt lat="49.175478" lon="11.796392">
<ele>647.4</ele>
<speed>12.1</speed>
<course>264.0</course>
<desc>Speed 12.1 km/h Distance 47.70 km</desc>
<time>2010-06-13T10:14:33.91</time>
<name>12681</name>
</trkpt>
<trkpt lat="49.175468" lon="11.796247">
<ele>650.7</ele>
<speed>14.8</speed>
<course>266.0</course>
<desc>Speed 14.8 km/h Distance 47.71 km</desc>
<time>2010-06-13T10:14:35.91</time>
<name>12682</name>
</trkpt>
<trkpt lat="49.175465" lon="11.796173">
<ele>652.1</ele>
<speed>14.1</speed>
<course>275.0</course>
<desc>Speed 14.1 km/h Distance 47.72 km</desc>
<time>2010-06-13T10:14:36.91</time>
<name>12683</name>
</trkpt>
<trkpt lat="49.175468" lon="11.796115">
<ele>651.5</ele>
<speed>14.3</speed>
<course>268.1</course>
<desc>Speed 14.3 km/h Distance 47.72 km</desc>
<time>2010-06-13T10:14:37.91</time>
<name>12684</name>
</trkpt>
<trkpt lat="49.175467" lon="11.796037">
<ele>650.8</ele>
<speed>15.3</speed>
<course>252.4</course>
<desc>Speed 15.3 km/h Distance 47.73 km</desc>
<time>2010-06-13T10:14:38.91</time>
<name>12685</name>
</trkpt>
<trkpt lat="49.175457" lon="11.795988">
<ele>650.4</ele>
<speed>12.7</speed>
<course>253.0</course>
<desc>Speed 12.7 km/h Distance 47.73 km</desc>
<time>2010-06-13T10:14:39.91</time>
<name>12686</name>
</trkpt>
<trkpt lat="49.175445" lon="11.795930">
<ele>651.1</ele>
<speed>12.7</speed>
<course>232.6</course>
<desc>Speed 12.7 km/h Distance 47.74 km</desc>
<time>2010-06-13T10:14:40.91</time>
<name>12687</name>
</trkpt>
<trkpt lat="49.175425" lon="11.795890">
<ele>651.9</ele>
<speed>12.0</speed>
<course>230.8</course>
<desc>Speed 12.0 km/h Distance 47.74 km</desc>
<time>2010-06-13T10:14:41.91</time>
<name>12688</name>
</trkpt>
<trkpt lat="49.175398" lon="11.795840">
<ele>654.2</ele>
<speed>12.3</speed>
<course>250.6</course>
<desc>Speed 12.3 km/h Distance 47.74 km</desc>
<time>2010-06-13T10:14:42.91</time>
<name>12689</name>
</trkpt>
<trkpt lat="49.175383" lon="11.795775">
<ele>656.0</ele>
<speed>12.8</speed>
<course>261.8</course>
<desc>Speed 12.8 km/h Distance 47.75 km</desc>
<time>2010-06-13T10:14:43.91</time>
<name>12690</name>
</trkpt>
<trkpt lat="49.175378" lon="11.795722">
<ele>656.7</ele>
<speed>11.5</speed>
<course>227.0</course>
<desc>Speed 11.5 km/h Distance 47.75 km</desc>
<time>2010-06-13T10:14:44.91</time>
<name>12691</name>
</trkpt>
<trkpt lat="49.175360" lon="11.795692">
<ele>656.2</ele>
<speed>9.5</speed>
<course>239.1</course>
<desc>Speed 9.5 km/h Distance 47.76 km</desc>
<time>2010-06-13T10:14:45.91</time>
<name>12692</name>
</trkpt>
<trkpt lat="49.175345" lon="11.795653">
<ele>655.8</ele>
<speed>8.2</speed>
<course>275.1</course>
<desc>Speed 8.2 km/h Distance 47.76 km</desc>
<time>2010-06-13T10:14:46.91</time>
<name>12693</name>
</trkpt>
<trkpt lat="49.175347" lon="11.795625">
<ele>653.9</ele>
<speed>6.7</speed>
<course>270.0</course>
<desc>Speed 6.7 km/h Distance 47.76 km</desc>
<time>2010-06-13T10:14:47.91</time>
<name>12694</name>
</trkpt>
<trkpt lat="49.175347" lon="11.795600">
<ele>652.1</ele>
<speed>7.8</speed>
<course>290.2</course>
<desc>Speed 7.8 km/h Distance 47.76 km</desc>
<time>2010-06-13T10:14:48.91</time>
<name>12695</name>
</trkpt>
<trkpt lat="49.175357" lon="11.795558">
<ele>650.6</ele>
<speed>8.2</speed>
<course>260.4</course>
<desc>Speed 8.2 km/h Distance 47.77 km</desc>
<time>2010-06-13T10:14:49.91</time>
<name>12696</name>
</trkpt>
<trkpt lat="49.175352" lon="11.795513">
<ele>652.2</ele>
<speed>7.5</speed>
<course>301.5</course>
<desc>Speed 7.5 km/h Distance 47.77 km</desc>
<time>2010-06-13T10:14:50.91</time>
<name>12697</name>
</trkpt>
<trkpt lat="49.175365" lon="11.795480">
<ele>650.8</ele>
<speed>8.0</speed>
<course>265.8</course>
<desc>Speed 8.0 km/h Distance 47.77 km</desc>
<time>2010-06-13T10:14:51.91</time>
<name>12698</name>
</trkpt>
<trkpt lat="49.175363" lon="11.795445">
<ele>652.8</ele>
<speed>6.3</speed>
<course>273.6</course>
<desc>Speed 6.3 km/h Distance 47.78 km</desc>
<time>2010-06-13T10:14:52.91</time>
<name>12699</name>
</trkpt>
<trkpt lat="49.175365" lon="11.795405">
<ele>652.5</ele>
<speed>7.1</speed>
<course>288.1</course>
<desc>Speed 7.1 km/h Distance 47.78 km</desc>
<time>2010-06-13T10:14:53.91</time>
<name>12700</name>
</trkpt>
<trkpt lat="49.175370" lon="11.795382">
<ele>650.5</ele>
<speed>5.8</speed>
<course>283.6</course>
<desc>Speed 5.8 km/h Distance 47.78 km</desc>
<time>2010-06-13T10:14:54.91</time>
<name>12701</name>
</trkpt>
<trkpt lat="49.175375" lon="11.795350">
<ele>648.8</ele>
<speed>4.2</speed>
<course>262.7</course>
<desc>Speed 4.2 km/h Distance 47.78 km</desc>
<time>2010-06-13T10:14:55.91</time>
<name>12702</name>
</trkpt>
<trkpt lat="49.175373" lon="11.795330">
<ele>647.2</ele>
<speed>4.5</speed>
<course>231.2</course>
<desc>Speed 4.5 km/h Distance 47.78 km</desc>
<time>2010-06-13T10:14:56.91</time>
<name>12703</name>
</trkpt>
<trkpt lat="49.175357" lon="11.795298">
<ele>646.7</ele>
<speed>4.7</speed>
<course>243.4</course>
<desc>Speed 4.7 km/h Distance 47.79 km</desc>
<time>2010-06-13T10:14:57.91</time>
<name>12704</name>
</trkpt>
<trkpt lat="49.175355" lon="11.795293">
<ele>647.1</ele>
<speed>3.4</speed>
<course>315.6</course>
<desc>Speed 3.4 km/h Distance 47.79 km</desc>
<time>2010-06-13T10:14:58.91</time>
<name>12705</name>
</trkpt>
<trkpt lat="49.175365" lon="11.795278">
<ele>645.5</ele>
<speed>2.3</speed>
<course>326.9</course>
<desc>Speed 2.3 km/h Distance 47.79 km</desc>
<time>2010-06-13T10:14:59.91</time>
<name>12706</name>
</trkpt>
<trkpt lat="49.175377" lon="11.795267">
<ele>645.2</ele>
<speed>2.1</speed>
<course>299.1</course>
<desc>Speed 2.1 km/h Distance 47.79 km</desc>
<time>2010-06-13T10:15:00.91</time>
<name>12707</name>
</trkpt>
<trkpt lat="49.175383" lon="11.795248">
<ele>644.8</ele>
<speed>3.3</speed>
<course>277.9</course>
<desc>Speed 3.3 km/h Distance 47.79 km</desc>
<time>2010-06-13T10:15:01.91</time>
<name>12708</name>
</trkpt>
<trkpt lat="49.175385" lon="11.795230">
<ele>644.4</ele>
<speed>3.6</speed>
<course>330.2</course>
<desc>Speed 3.6 km/h Distance 47.79 km</desc>
<time>2010-06-13T10:15:02.91</time>
<name>12709</name>
</trkpt>
<trkpt lat="49.175398" lon="11.795218">
<ele>641.8</ele>
<speed>3.7</speed>
<course>289.8</course>
<desc>Speed 3.7 km/h Distance 47.79 km</desc>
<time>2010-06-13T10:15:03.91</time>
<name>12710</name>
</trkpt>
<trkpt lat="49.175405" lon="11.795190">
<ele>641.7</ele>
<speed>4.5</speed>
<course>237.5</course>
<desc>Speed 4.5 km/h Distance 47.80 km</desc>
<time>2010-06-13T10:15:04.91</time>
<name>12711</name>
</trkpt>
<trkpt lat="49.175397" lon="11.795170">
<ele>641.5</ele>
<speed>5.6</speed>
<course>265.1</course>
<desc>Speed 5.6 km/h Distance 47.80 km</desc>
<time>2010-06-13T10:15:05.91</time>
<name>12712</name>
</trkpt>
<trkpt lat="49.175395" lon="11.795140">
<ele>642.1</ele>
<speed>5.3</speed>
<course>270.0</course>
<desc>Speed 5.3 km/h Distance 47.80 km</desc>
<time>2010-06-13T10:15:06.91</time>
<name>12713</name>
</trkpt>
<trkpt lat="49.175395" lon="11.795108">
<ele>643.7</ele>
<speed>4.1</speed>
<course>249.1</course>
<desc>Speed 4.1 km/h Distance 47.80 km</desc>
<time>2010-06-13T10:15:07.91</time>
<name>12714</name>
</trkpt>
<trkpt lat="49.175392" lon="11.795095">
<ele>641.7</ele>
<speed>2.3</speed>
<course>247.4</course>
<desc>Speed 2.3 km/h Distance 47.80 km</desc>
<time>2010-06-13T10:15:08.91</time>
<name>12715</name>
</trkpt>
<trkpt lat="49.175387" lon="11.795077">
<ele>641.5</ele>
<speed>1.8</speed>
<course>232.7</course>
<desc>Speed 1.8 km/h Distance 47.81 km</desc>
<time>2010-06-13T10:15:09.91</time>
<name>12716</name>
</trkpt>
<trkpt lat="49.175377" lon="11.795057">
<ele>641.6</ele>
<speed>3.1</speed>
<course>252.9</course>
<desc>Speed 3.1 km/h Distance 47.81 km</desc>
<time>2010-06-13T10:15:10.91</time>
<name>12717</name>
</trkpt>
<trkpt lat="49.175375" lon="11.795048">
<ele>641.5</ele>
<speed>2.7</speed>
<course>247.8</course>
<desc>Speed 2.7 km/h Distance 47.81 km</desc>
<time>2010-06-13T10:15:11.91</time>
<name>12718</name>
</trkpt>
<trkpt lat="49.175368" lon="11.795023">
<ele>640.2</ele>
<speed>2.8</speed>
<course>260.4</course>
<desc>Speed 2.8 km/h Distance 47.81 km</desc>
<time>2010-06-13T10:15:12.91</time>
<name>12719</name>
</trkpt>
<trkpt lat="49.175367" lon="11.795008">
<ele>638.0</ele>
<speed>1.5</speed>
<course>298.4</course>
<desc>Speed 1.5 km/h Distance 47.81 km</desc>
<time>2010-06-13T10:15:13.91</time>
<name>12720</name>
</trkpt>
<trkpt lat="49.175377" lon="11.794980">
<ele>638.9</ele>
<speed>3.2</speed>
<course>275.8</course>
<desc>Speed 3.2 km/h Distance 47.81 km</desc>
<time>2010-06-13T10:15:14.91</time>
<name>12721</name>
</trkpt>
<trkpt lat="49.175378" lon="11.794955">
<ele>640.3</ele>
<speed>4.5</speed>
<course>304.2</course>
<desc>Speed 4.5 km/h Distance 47.82 km</desc>
<time>2010-06-13T10:15:15.91</time>
<name>12722</name>
</trkpt>
<trkpt lat="49.175392" lon="11.794925">
<ele>640.0</ele>
<speed>4.8</speed>
<course>252.2</course>
<desc>Speed 4.8 km/h Distance 47.82 km</desc>
<time>2010-06-13T10:15:16.91</time>
<name>12723</name>
</trkpt>
<trkpt lat="49.175385" lon="11.794893">
<ele>640.2</ele>
<speed>4.0</speed>
<course>287.8</course>
<desc>Speed 4.0 km/h Distance 47.82 km</desc>
<time>2010-06-13T10:15:17.91</time>
<name>12724</name>
</trkpt>
<trkpt lat="49.175392" lon="11.794862">
<ele>641.2</ele>
<speed>3.6</speed>
<course>259.2</course>
<desc>Speed 3.6 km/h Distance 47.82 km</desc>
<time>2010-06-13T10:15:18.91</time>
<name>12725</name>
</trkpt>
<trkpt lat="49.175388" lon="11.794835">
<ele>641.2</ele>
<speed>3.7</speed>
<course>292.6</course>
<desc>Speed 3.7 km/h Distance 47.82 km</desc>
<time>2010-06-13T10:15:19.91</time>
<name>12726</name>
</trkpt>
<trkpt lat="49.175393" lon="11.794817">
<ele>641.6</ele>
<speed>3.6</speed>
<course>264.2</course>
<desc>Speed 3.6 km/h Distance 47.83 km</desc>
<time>2010-06-13T10:15:20.91</time>
<name>12727</name>
</trkpt>
<trkpt lat="49.175392" lon="11.794792">
<ele>641.7</ele>
<speed>4.0</speed>
<course>299.1</course>
<desc>Speed 4.0 km/h Distance 47.83 km</desc>
<time>2010-06-13T10:15:21.91</time>
<name>12728</name>
</trkpt>
<trkpt lat="49.175398" lon="11.794773">
<ele>641.1</ele>
<speed>4.1</speed>
<course>279.1</course>
<desc>Speed 4.1 km/h Distance 47.83 km</desc>
<time>2010-06-13T10:15:22.91</time>
<name>12729</name>
</trkpt>
<trkpt lat="49.175402" lon="11.794742">
<ele>640.6</ele>
<speed>4.6</speed>
<course>237.5</course>
<desc>Speed 4.6 km/h Distance 47.83 km</desc>
<time>2010-06-13T10:15:23.91</time>
<name>12730</name>
</trkpt>
<trkpt lat="49.175393" lon="11.794722">
<ele>639.4</ele>
<speed>3.6</speed>
<course>249.1</course>
<desc>Speed 3.6 km/h Distance 47.83 km</desc>
<time>2010-06-13T10:15:24.91</time>
<name>12731</name>
</trkpt>
<trkpt lat="49.175388" lon="11.794702">
<ele>639.0</ele>
<speed>3.3</speed>
<course>257.7</course>
<desc>Speed 3.3 km/h Distance 47.84 km</desc>
<time>2010-06-13T10:15:25.91</time>
<name>12732</name>
</trkpt>
<trkpt lat="49.175385" lon="11.794678">
<ele>638.5</ele>
<speed>2.6</speed>
<course>247.8</course>
<desc>Speed 2.6 km/h Distance 47.84 km</desc>
<time>2010-06-13T10:15:26.91</time>
<name>12733</name>
</trkpt>
<trkpt lat="49.175378" lon="11.794653">
<ele>637.1</ele>
<speed>3.4</speed>
<course>236.7</course>
<desc>Speed 3.4 km/h Distance 47.84 km</desc>
<time>2010-06-13T10:15:27.91</time>
<name>12734</name>
</trkpt>
<trkpt lat="49.175373" lon="11.794642">
<ele>635.4</ele>
<speed>3.0</speed>
<course>270.0</course>
<desc>Speed 3.0 km/h Distance 47.84 km</desc>
<time>2010-06-13T10:15:28.91</time>
<name>12735</name>
</trkpt>
<trkpt lat="49.175373" lon="11.794627">
<ele>634.9</ele>
<speed>1.9</speed>
<course>301.4</course>
<desc>Speed 1.9 km/h Distance 47.84 km</desc>
<time>2010-06-13T10:15:29.91</time>
<name>12736</name>
</trkpt>
<trkpt lat="49.175380" lon="11.794610">
<ele>632.8</ele>
<speed>1.7</speed>
<course>262.1</course>
<desc>Speed 1.7 km/h Distance 47.84 km</desc>
<time>2010-06-13T10:15:30.91</time>
<name>12737</name>
</trkpt>
<trkpt lat="49.175378" lon="11.794592">
<ele>632.3</ele>
<speed>1.7</speed>
<course>261.3</course>
<desc>Speed 1.7 km/h Distance 47.84 km</desc>
<time>2010-06-13T10:15:31.91</time>
<name>12738</name>
</trkpt>
<trkpt lat="49.175377" lon="11.794575">
<ele>629.7</ele>
<speed>1.3</speed>
<course>276.2</course>
<desc>Speed 1.3 km/h Distance 47.85 km</desc>
<time>2010-06-13T10:15:32.91</time>
<name>12739</name>
</trkpt>
<trkpt lat="49.175378" lon="11.794552">
<ele>628.9</ele>
<speed>3.7</speed>
<course>321.4</course>
<desc>Speed 3.7 km/h Distance 47.85 km</desc>
<time>2010-06-13T10:15:33.91</time>
<name>12740</name>
</trkpt>
<trkpt lat="49.175393" lon="11.794533">
<ele>629.5</ele>
<speed>2.7</speed>
<course>262.1</course>
<desc>Speed 2.7 km/h Distance 47.85 km</desc>
<time>2010-06-13T10:15:34.91</time>
<name>12741</name>
</trkpt>
<trkpt lat="49.175392" lon="11.794515">
<ele>629.8</ele>
<speed>3.4</speed>
<course>297.0</course>
<desc>Speed 3.4 km/h Distance 47.85 km</desc>
<time>2010-06-13T10:15:35.91</time>
<name>12742</name>
</trkpt>
<trkpt lat="49.175402" lon="11.794485">
<ele>628.4</ele>
<speed>4.2</speed>
<course>244.0</course>
<desc>Speed 4.2 km/h Distance 47.85 km</desc>
<time>2010-06-13T10:15:36.91</time>
<name>12743</name>
</trkpt>
<trkpt lat="49.175390" lon="11.794448">
<ele>627.5</ele>
<speed>4.6</speed>
<course>254.0</course>
<desc>Speed 4.6 km/h Distance 47.86 km</desc>
<time>2010-06-13T10:15:37.91</time>
<name>12744</name>
</trkpt>
<trkpt lat="49.175385" lon="11.794422">
<ele>626.4</ele>
<speed>3.2</speed>
<course>253.0</course>
<desc>Speed 3.2 km/h Distance 47.86 km</desc>
<time>2010-06-13T10:15:38.91</time>
<name>12745</name>
</trkpt>
<trkpt lat="49.175382" lon="11.794405">
<ele>626.3</ele>
<speed>2.3</speed>
<course>270.0</course>
<desc>Speed 2.3 km/h Distance 47.86 km</desc>
<time>2010-06-13T10:15:39.91</time>
<name>12746</name>
</trkpt>
<trkpt lat="49.175382" lon="11.794388">
<ele>624.0</ele>
<speed>2.1</speed>
<course>275.8</course>
<desc>Speed 2.1 km/h Distance 47.86 km</desc>
<time>2010-06-13T10:15:40.91</time>
<name>12747</name>
</trkpt>
<trkpt lat="49.175383" lon="11.794363">
<ele>624.2</ele>
<speed>2.5</speed>
<course>249.1</course>
<desc>Speed 2.5 km/h Distance 47.86 km</desc>
<time>2010-06-13T10:15:41.91</time>
<name>12748</name>
</trkpt>
<trkpt lat="49.175380" lon="11.794350">
<ele>623.1</ele>
<speed>3.0</speed>
<course>254.4</course>
<desc>Speed 3.0 km/h Distance 47.86 km</desc>
<time>2010-06-13T10:15:42.91</time>
<name>12749</name>
</trkpt>
<trkpt lat="49.175377" lon="11.794332">
<ele>622.9</ele>
<speed>4.5</speed>
<course>270.0</course>
<desc>Speed 4.5 km/h Distance 47.86 km</desc>
<time>2010-06-13T10:15:43.91</time>
<name>12750</name>
</trkpt>
<trkpt lat="49.175377" lon="11.794303">
<ele>623.5</ele>
<speed>3.8</speed>
<course>279.6</course>
<desc>Speed 3.8 km/h Distance 47.87 km</desc>
<time>2010-06-13T10:15:44.91</time>
<name>12751</name>
</trkpt>
<trkpt lat="49.175380" lon="11.794273">
<ele>624.8</ele>
<speed>3.8</speed>
<course>290.9</course>
<desc>Speed 3.8 km/h Distance 47.87 km</desc>
<time>2010-06-13T10:15:45.91</time>
<name>12752</name>
</trkpt>
<trkpt lat="49.175385" lon="11.794253">
<ele>624.6</ele>
<speed>4.0</speed>
<course>297.0</course>
<desc>Speed 4.0 km/h Distance 47.87 km</desc>
<time>2010-06-13T10:15:46.91</time>
<name>12753</name>
</trkpt>
<trkpt lat="49.175397" lon="11.794218">
<ele>624.3</ele>
<speed>5.4</speed>
<course>320.3</course>
<desc>Speed 5.4 km/h Distance 47.87 km</desc>
<time>2010-06-13T10:15:47.93</time>
<name>12754</name>
</trkpt>
<trkpt lat="49.175415" lon="11.794195">
<ele>623.4</ele>
<speed>5.7</speed>
<course>304.8</course>
<desc>Speed 5.7 km/h Distance 47.88 km</desc>
<time>2010-06-13T10:15:48.93</time>
<name>12755</name>
</trkpt>
<trkpt lat="49.175432" lon="11.794158">
<ele>622.5</ele>
<speed>5.6</speed>
<course>293.0</course>
<desc>Speed 5.6 km/h Distance 47.88 km</desc>
<time>2010-06-13T10:15:49.93</time>
<name>12756</name>
</trkpt>
<trkpt lat="49.175440" lon="11.794128">
<ele>622.4</ele>
<speed>4.4</speed>
<course>270.0</course>
<desc>Speed 4.4 km/h Distance 47.88 km</desc>
<time>2010-06-13T10:15:50.93</time>
<name>12757</name>
</trkpt>
<trkpt lat="49.175440" lon="11.794100">
<ele>623.1</ele>
<speed>4.5</speed>
<course>249.0</course>
<desc>Speed 4.5 km/h Distance 47.88 km</desc>
<time>2010-06-13T10:15:51.93</time>
<name>12758</name>
</trkpt>
<trkpt lat="49.175435" lon="11.794080">
<ele>622.5</ele>
<speed>3.3</speed>
<course>298.2</course>
<desc>Speed 3.3 km/h Distance 47.89 km</desc>
<time>2010-06-13T10:15:52.93</time>
<name>12759</name>
</trkpt>
<trkpt lat="49.175447" lon="11.794047">
<ele>623.5</ele>
<speed>5.8</speed>
<course>294.0</course>
<desc>Speed 5.8 km/h Distance 47.89 km</desc>
<time>2010-06-13T10:15:53.93</time>
<name>12760</name>
</trkpt>
<trkpt lat="49.175458" lon="11.794007">
<ele>624.2</ele>
<speed>6.0</speed>
<course>280.5</course>
<desc>Speed 6.0 km/h Distance 47.89 km</desc>
<time>2010-06-13T10:15:54.93</time>
<name>12761</name>
</trkpt>
<trkpt lat="49.175472" lon="11.793897">
<ele>625.8</ele>
<speed>10.0</speed>
<course>284.7</course>
<desc>Speed 10.0 km/h Distance 47.90 km</desc>
<time>2010-06-13T10:15:56.93</time>
<name>12762</name>
</trkpt>
<trkpt lat="49.175482" lon="11.793838">
<ele>627.6</ele>
<speed>9.1</speed>
<course>295.2</course>
<desc>Speed 9.1 km/h Distance 47.90 km</desc>
<time>2010-06-13T10:15:57.93</time>
<name>12763</name>
</trkpt>
<trkpt lat="49.175495" lon="11.793795">
<ele>630.1</ele>
<speed>8.8</speed>
<course>289.4</course>
<desc>Speed 8.8 km/h Distance 47.91 km</desc>
<time>2010-06-13T10:15:58.93</time>
<name>12764</name>
</trkpt>
<trkpt lat="49.175523" lon="11.793672">
<ele>633.2</ele>
<speed>10.9</speed>
<course>260.6</course>
<desc>Speed 10.9 km/h Distance 47.92 km</desc>
<time>2010-06-13T10:16:00.93</time>
<name>12765</name>
</trkpt>
<trkpt lat="49.175510" lon="11.793548">
<ele>635.2</ele>
<speed>10.1</speed>
<course>275.0</course>
<desc>Speed 10.1 km/h Distance 47.93 km</desc>
<time>2010-06-13T10:16:02.93</time>
<name>12766</name>
</trkpt>
<trkpt lat="49.175517" lon="11.793432">
<ele>637.0</ele>
<speed>9.9</speed>
<course>281.5</course>
<desc>Speed 9.9 km/h Distance 47.93 km</desc>
<time>2010-06-13T10:16:04.93</time>
<name>12767</name>
</trkpt>
<trkpt lat="49.175523" lon="11.793382">
<ele>637.9</ele>
<speed>10.1</speed>
<course>265.9</course>
<desc>Speed 10.1 km/h Distance 47.94 km</desc>
<time>2010-06-13T10:16:05.93</time>
<name>12768</name>
</trkpt>
<trkpt lat="49.175515" lon="11.793202">
<ele>637.7</ele>
<speed>14.1</speed>
<course>271.9</course>
<desc>Speed 14.1 km/h Distance 47.95 km</desc>
<time>2010-06-13T10:16:07.93</time>
<name>12769</name>
</trkpt>
<trkpt lat="49.175517" lon="11.793123">
<ele>638.2</ele>
<speed>15.0</speed>
<course>266.8</course>
<desc>Speed 15.0 km/h Distance 47.96 km</desc>
<time>2010-06-13T10:16:08.93</time>
<name>12770</name>
</trkpt>
<trkpt lat="49.175510" lon="11.792940">
<ele>644.1</ele>
<speed>14.0</speed>
<course>278.3</course>
<desc>Speed 14.0 km/h Distance 47.97 km</desc>
<time>2010-06-13T10:16:10.93</time>
<name>12771</name>
</trkpt>
<trkpt lat="49.175528" lon="11.792747">
<ele>647.2</ele>
<speed>14.6</speed>
<course>279.9</course>
<desc>Speed 14.6 km/h Distance 47.98 km</desc>
<time>2010-06-13T10:16:12.93</time>
<name>12772</name>
</trkpt>
<trkpt lat="49.175535" lon="11.792688">
<ele>646.2</ele>
<speed>12.3</speed>
<course>287.5</course>
<desc>Speed 12.3 km/h Distance 47.99 km</desc>
<time>2010-06-13T10:16:13.93</time>
<name>12773</name>
</trkpt>
<trkpt lat="49.175547" lon="11.792632">
<ele>645.9</ele>
<speed>11.5</speed>
<course>282.0</course>
<desc>Speed 11.5 km/h Distance 47.99 km</desc>
<time>2010-06-13T10:16:14.93</time>
<name>12774</name>
</trkpt>
<trkpt lat="49.175567" lon="11.792488">
<ele>646.3</ele>
<speed>14.7</speed>
<course>280.6</course>
<desc>Speed 14.7 km/h Distance 48.00 km</desc>
<time>2010-06-13T10:16:16.93</time>
<name>12775</name>
</trkpt>
<trkpt lat="49.175575" lon="11.792420">
<ele>644.1</ele>
<speed>15.3</speed>
<course>273.4</course>
<desc>Speed 15.3 km/h Distance 48.01 km</desc>
<time>2010-06-13T10:16:17.93</time>
<name>12776</name>
</trkpt>
<trkpt lat="49.175582" lon="11.792247">
<ele>641.8</ele>
<speed>18.1</speed>
<course>266.4</course>
<desc>Speed 18.1 km/h Distance 48.02 km</desc>
<time>2010-06-13T10:16:19.94</time>
<name>12777</name>
</trkpt>
<trkpt lat="49.175578" lon="11.792165">
<ele>641.9</ele>
<speed>19.8</speed>
<course>270.0</course>
<desc>Speed 19.8 km/h Distance 48.03 km</desc>
<time>2010-06-13T10:16:20.94</time>
<name>12778</name>
</trkpt>
<trkpt lat="49.175578" lon="11.792078">
<ele>643.8</ele>
<speed>18.6</speed>
<course>262.5</course>
<desc>Speed 18.6 km/h Distance 48.03 km</desc>
<time>2010-06-13T10:16:21.94</time>
<name>12779</name>
</trkpt>
<trkpt lat="49.175570" lon="11.791982">
<ele>644.7</ele>
<speed>18.4</speed>
<course>259.5</course>
<desc>Speed 18.4 km/h Distance 48.04 km</desc>
<time>2010-06-13T10:16:22.94</time>
<name>12780</name>
</trkpt>
<trkpt lat="49.175548" lon="11.791803">
<ele>646.9</ele>
<speed>16.6</speed>
<course>275.8</course>
<desc>Speed 16.6 km/h Distance 48.05 km</desc>
<time>2010-06-13T10:16:24.94</time>
<name>12781</name>
</trkpt>
<trkpt lat="49.175553" lon="11.791728">
<ele>647.5</ele>
<speed>14.9</speed>
<course>297.0</course>
<desc>Speed 14.9 km/h Distance 48.06 km</desc>
<time>2010-06-13T10:16:25.94</time>
<name>12782</name>
</trkpt>
<trkpt lat="49.175572" lon="11.791673">
<ele>646.7</ele>
<speed>12.7</speed>
<course>326.9</course>
<desc>Speed 12.7 km/h Distance 48.06 km</desc>
<time>2010-06-13T10:16:26.94</time>
<name>12783</name>
</trkpt>
<trkpt lat="49.175593" lon="11.791652">
<ele>645.7</ele>
<speed>11.0</speed>
<course>337.7</course>
<desc>Speed 11.0 km/h Distance 48.07 km</desc>
<time>2010-06-13T10:16:27.94</time>
<name>12784</name>
</trkpt>
<trkpt lat="49.175665" lon="11.791607">
<ele>639.0</ele>
<speed>11.2</speed>
<course>316.9</course>
<desc>Speed 11.2 km/h Distance 48.08 km</desc>
<time>2010-06-13T10:16:29.94</time>
<name>12785</name>
</trkpt>
<trkpt lat="49.175688" lon="11.791573">
<ele>638.1</ele>
<speed>10.4</speed>
<course>322.2</course>
<desc>Speed 10.4 km/h Distance 48.08 km</desc>
<time>2010-06-13T10:16:30.94</time>
<name>12786</name>
</trkpt>
<trkpt lat="49.175715" lon="11.791542">
<ele>635.2</ele>
<speed>9.8</speed>
<course>331.2</course>
<desc>Speed 9.8 km/h Distance 48.08 km</desc>
<time>2010-06-13T10:16:31.94</time>
<name>12787</name>
</trkpt>
<trkpt lat="49.175747" lon="11.791515">
<ele>632.5</ele>
<speed>9.8</speed>
<course>314.5</course>
<desc>Speed 9.8 km/h Distance 48.09 km</desc>
<time>2010-06-13T10:16:32.94</time>
<name>12788</name>
</trkpt>
<trkpt lat="49.175762" lon="11.791492">
<ele>631.1</ele>
<speed>7.9</speed>
<course>305.2</course>
<desc>Speed 7.9 km/h Distance 48.09 km</desc>
<time>2010-06-13T10:16:33.94</time>
<name>12789</name>
</trkpt>
<trkpt lat="49.175772" lon="11.791470">
<ele>629.2</ele>
<speed>7.5</speed>
<course>297.0</course>
<desc>Speed 7.5 km/h Distance 48.09 km</desc>
<time>2010-06-13T10:16:34.94</time>
<name>12790</name>
</trkpt>
<trkpt lat="49.175787" lon="11.791425">
<ele>627.1</ele>
<speed>10.4</speed>
<course>277.4</course>
<desc>Speed 10.4 km/h Distance 48.09 km</desc>
<time>2010-06-13T10:16:35.94</time>
<name>12791</name>
</trkpt>
<trkpt lat="49.175798" lon="11.791287">
<ele>623.8</ele>
<speed>13.2</speed>
<course>280.0</course>
<desc>Speed 13.2 km/h Distance 48.10 km</desc>
<time>2010-06-13T10:16:37.94</time>
<name>12792</name>
</trkpt>
<trkpt lat="49.175815" lon="11.791142">
<ele>621.6</ele>
<speed>13.5</speed>
<course>270.0</course>
<desc>Speed 13.5 km/h Distance 48.12 km</desc>
<time>2010-06-13T10:16:39.94</time>
<name>12793</name>
</trkpt>
<trkpt lat="49.175815" lon="11.791093">
<ele>619.9</ele>
<speed>12.3</speed>
<course>297.0</course>
<desc>Speed 12.3 km/h Distance 48.12 km</desc>
<time>2010-06-13T10:16:40.94</time>
<name>12794</name>
</trkpt>
<trkpt lat="49.175830" lon="11.791048">
<ele>617.7</ele>
<speed>10.5</speed>
<course>303.4</course>
<desc>Speed 10.5 km/h Distance 48.12 km</desc>
<time>2010-06-13T10:16:41.94</time>
<name>12795</name>
</trkpt>
<trkpt lat="49.175882" lon="11.790928">
<ele>614.4</ele>
<speed>11.4</speed>
<course>306.2</course>
<desc>Speed 11.4 km/h Distance 48.13 km</desc>
<time>2010-06-13T10:16:43.94</time>
<name>12796</name>
</trkpt>
<trkpt lat="49.175935" lon="11.790817">
<ele>612.8</ele>
<speed>12.0</speed>
<course>309.6</course>
<desc>Speed 12.0 km/h Distance 48.14 km</desc>
<time>2010-06-13T10:16:45.94</time>
<name>12797</name>
</trkpt>
<trkpt lat="49.175957" lon="11.790777">
<ele>611.9</ele>
<speed>12.7</speed>
<course>310.2</course>
<desc>Speed 12.7 km/h Distance 48.15 km</desc>
<time>2010-06-13T10:16:46.94</time>
<name>12798</name>
</trkpt>
<trkpt lat="49.175983" lon="11.790728">
<ele>609.8</ele>
<speed>11.2</speed>
<course>325.5</course>
<desc>Speed 11.2 km/h Distance 48.15 km</desc>
<time>2010-06-13T10:16:47.94</time>
<name>12799</name>
</trkpt>
<trkpt lat="49.176017" lon="11.790693">
<ele>608.0</ele>
<speed>12.0</speed>
<course>318.2</course>
<desc>Speed 12.0 km/h Distance 48.16 km</desc>
<time>2010-06-13T10:16:48.94</time>
<name>12800</name>
</trkpt>
<trkpt lat="49.176048" lon="11.790650">
<ele>607.8</ele>
<speed>12.7</speed>
<course>306.3</course>
<desc>Speed 12.7 km/h Distance 48.16 km</desc>
<time>2010-06-13T10:16:49.94</time>
<name>12801</name>
</trkpt>
<trkpt lat="49.176068" lon="11.790608">
<ele>608.1</ele>
<speed>11.5</speed>
<course>330.9</course>
<desc>Speed 11.5 km/h Distance 48.16 km</desc>
<time>2010-06-13T10:16:50.94</time>
<name>12802</name>
</trkpt>
<trkpt lat="49.176102" lon="11.790580">
<ele>606.4</ele>
<speed>11.2</speed>
<course>311.2</course>
<desc>Speed 11.2 km/h Distance 48.17 km</desc>
<time>2010-06-13T10:16:51.94</time>
<name>12803</name>
</trkpt>
<trkpt lat="49.176128" lon="11.790533">
<ele>604.9</ele>
<speed>12.2</speed>
<course>294.7</course>
<desc>Speed 12.2 km/h Distance 48.17 km</desc>
<time>2010-06-13T10:16:52.94</time>
<name>12804</name>
</trkpt>
<trkpt lat="49.176143" lon="11.790483">
<ele>603.4</ele>
<speed>11.9</speed>
<course>316.2</course>
<desc>Speed 11.9 km/h Distance 48.18 km</desc>
<time>2010-06-13T10:16:53.94</time>
<name>12805</name>
</trkpt>
<trkpt lat="49.176168" lon="11.790447">
<ele>602.1</ele>
<speed>10.3</speed>
<course>299.3</course>
<desc>Speed 10.3 km/h Distance 48.18 km</desc>
<time>2010-06-13T10:16:54.94</time>
<name>12806</name>
</trkpt>
<trkpt lat="49.176187" lon="11.790397">
<ele>601.2</ele>
<speed>12.3</speed>
<course>290.4</course>
<desc>Speed 12.3 km/h Distance 48.19 km</desc>
<time>2010-06-13T10:16:55.94</time>
<name>12807</name>
</trkpt>
<trkpt lat="49.176200" lon="11.790342">
<ele>600.9</ele>
<speed>12.1</speed>
<course>289.9</course>
<desc>Speed 12.1 km/h Distance 48.19 km</desc>
<time>2010-06-13T10:16:56.94</time>
<name>12808</name>
</trkpt>
<trkpt lat="49.176215" lon="11.790278">
<ele>601.2</ele>
<speed>11.9</speed>
<course>299.3</course>
<desc>Speed 11.9 km/h Distance 48.19 km</desc>
<time>2010-06-13T10:16:57.94</time>
<name>12809</name>
</trkpt>
<trkpt lat="49.176233" lon="11.790228">
<ele>601.3</ele>
<speed>10.4</speed>
<course>298.5</course>
<desc>Speed 10.4 km/h Distance 48.20 km</desc>
<time>2010-06-13T10:16:58.94</time>
<name>12810</name>
</trkpt>
<trkpt lat="49.176252" lon="11.790177">
<ele>600.6</ele>
<speed>10.7</speed>
<course>295.1</course>
<desc>Speed 10.7 km/h Distance 48.20 km</desc>
<time>2010-06-13T10:16:59.94</time>
<name>12811</name>
</trkpt>
<trkpt lat="49.176270" lon="11.790117">
<ele>597.9</ele>
<speed>11.0</speed>
<course>296.2</course>
<desc>Speed 11.0 km/h Distance 48.21 km</desc>
<time>2010-06-13T10:17:00.94</time>
<name>12812</name>
</trkpt>
<trkpt lat="49.176285" lon="11.790070">
<ele>595.5</ele>
<speed>11.1</speed>
<course>292.2</course>
<desc>Speed 11.1 km/h Distance 48.21 km</desc>
<time>2010-06-13T10:17:01.94</time>
<name>12813</name>
</trkpt>
<trkpt lat="49.176298" lon="11.790020">
<ele>593.1</ele>
<speed>12.0</speed>
<course>267.2</course>
<desc>Speed 12.0 km/h Distance 48.22 km</desc>
<time>2010-06-13T10:17:02.94</time>
<name>12814</name>
</trkpt>
<trkpt lat="49.176297" lon="11.789968">
<ele>592.9</ele>
<speed>12.0</speed>
<course>260.6</course>
<desc>Speed 12.0 km/h Distance 48.22 km</desc>
<time>2010-06-13T10:17:03.94</time>
<name>12815</name>
</trkpt>
<trkpt lat="49.176290" lon="11.789907">
<ele>593.7</ele>
<speed>12.8</speed>
<course>280.5</course>
<desc>Speed 12.8 km/h Distance 48.22 km</desc>
<time>2010-06-13T10:17:04.94</time>
<name>12816</name>
</trkpt>
<trkpt lat="49.176297" lon="11.789852">
<ele>593.6</ele>
<speed>13.1</speed>
<course>292.3</course>
<desc>Speed 13.1 km/h Distance 48.23 km</desc>
<time>2010-06-13T10:17:05.94</time>
<name>12817</name>
</trkpt>
<trkpt lat="49.176315" lon="11.789783">
<ele>591.4</ele>
<speed>12.9</speed>
<course>272.4</course>
<desc>Speed 12.9 km/h Distance 48.23 km</desc>
<time>2010-06-13T10:17:06.94</time>
<name>12818</name>
</trkpt>
<trkpt lat="49.176317" lon="11.789722">
<ele>591.3</ele>
<speed>11.8</speed>
<course>270.0</course>
<desc>Speed 11.8 km/h Distance 48.24 km</desc>
<time>2010-06-13T10:17:07.94</time>
<name>12819</name>
</trkpt>
<trkpt lat="49.176317" lon="11.789653">
<ele>591.0</ele>
<speed>13.0</speed>
<course>265.9</course>
<desc>Speed 13.0 km/h Distance 48.24 km</desc>
<time>2010-06-13T10:17:08.94</time>
<name>12820</name>
</trkpt>
<trkpt lat="49.176313" lon="11.789582">
<ele>590.6</ele>
<speed>15.3</speed>
<course>261.9</course>
<desc>Speed 15.3 km/h Distance 48.25 km</desc>
<time>2010-06-13T10:17:09.94</time>
<name>12821</name>
</trkpt>
<trkpt lat="49.176307" lon="11.789510">
<ele>590.5</ele>
<speed>15.3</speed>
<course>273.5</course>
<desc>Speed 15.3 km/h Distance 48.25 km</desc>
<time>2010-06-13T10:17:10.94</time>
<name>12822</name>
</trkpt>
<trkpt lat="49.176313" lon="11.789342">
<ele>590.8</ele>
<speed>16.6</speed>
<course>264.9</course>
<desc>Speed 16.6 km/h Distance 48.27 km</desc>
<time>2010-06-13T10:17:12.94</time>
<name>12823</name>
</trkpt>
<trkpt lat="49.176303" lon="11.789170">
<ele>592.8</ele>
<speed>15.5</speed>
<course>282.3</course>
<desc>Speed 15.5 km/h Distance 48.28 km</desc>
<time>2010-06-13T10:17:14.94</time>
<name>12824</name>
</trkpt>
<trkpt lat="49.176315" lon="11.789088">
<ele>592.9</ele>
<speed>14.8</speed>
<course>270.0</course>
<desc>Speed 14.8 km/h Distance 48.28 km</desc>
<time>2010-06-13T10:17:15.94</time>
<name>12825</name>
</trkpt>
<trkpt lat="49.176315" lon="11.789007">
<ele>592.4</ele>
<speed>15.8</speed>
<course>261.2</course>
<desc>Speed 15.8 km/h Distance 48.29 km</desc>
<time>2010-06-13T10:17:16.94</time>
<name>12826</name>
</trkpt>
<trkpt lat="49.176295" lon="11.788810">
<ele>591.6</ele>
<speed>20.9</speed>
<course>263.2</course>
<desc>Speed 20.9 km/h Distance 48.30 km</desc>
<time>2010-06-13T10:17:18.94</time>
<name>12827</name>
</trkpt>
<trkpt lat="49.176278" lon="11.788597">
<ele>590.2</ele>
<speed>21.6</speed>
<course>255.9</course>
<desc>Speed 21.6 km/h Distance 48.32 km</desc>
<time>2010-06-13T10:17:20.94</time>
<name>12828</name>
</trkpt>
<trkpt lat="49.176263" lon="11.788505">
<ele>590.0</ele>
<speed>19.7</speed>
<course>267.0</course>
<desc>Speed 19.7 km/h Distance 48.33 km</desc>
<time>2010-06-13T10:17:21.94</time>
<name>12829</name>
</trkpt>
<trkpt lat="49.176260" lon="11.788407">
<ele>591.1</ele>
<speed>19.3</speed>
<course>271.7</course>
<desc>Speed 19.3 km/h Distance 48.33 km</desc>
<time>2010-06-13T10:17:22.94</time>
<name>12830</name>
</trkpt>
<trkpt lat="49.176262" lon="11.788320">
<ele>592.1</ele>
<speed>17.8</speed>
<course>272.2</course>
<desc>Speed 17.8 km/h Distance 48.34 km</desc>
<time>2010-06-13T10:17:23.94</time>
<name>12831</name>
</trkpt>
<trkpt lat="49.176263" lon="11.788253">
<ele>592.4</ele>
<speed>16.1</speed>
<course>262.9</course>
<desc>Speed 16.1 km/h Distance 48.35 km</desc>
<time>2010-06-13T10:17:24.94</time>
<name>12832</name>
</trkpt>
<trkpt lat="49.176257" lon="11.788172">
<ele>591.2</ele>
<speed>18.2</speed>
<course>263.9</course>
<desc>Speed 18.2 km/h Distance 48.35 km</desc>
<time>2010-06-13T10:17:25.94</time>
<name>12833</name>
</trkpt>
<trkpt lat="49.176250" lon="11.788077">
<ele>591.8</ele>
<speed>18.5</speed>
<course>267.0</course>
<desc>Speed 18.5 km/h Distance 48.36 km</desc>
<time>2010-06-13T10:17:26.94</time>
<name>12834</name>
</trkpt>
<trkpt lat="49.176247" lon="11.787980">
<ele>593.0</ele>
<speed>18.6</speed>
<course>262.7</course>
<desc>Speed 18.6 km/h Distance 48.37 km</desc>
<time>2010-06-13T10:17:27.94</time>
<name>12835</name>
</trkpt>
<trkpt lat="49.176240" lon="11.787900">
<ele>593.5</ele>
<speed>17.1</speed>
<course>256.3</course>
<desc>Speed 17.1 km/h Distance 48.37 km</desc>
<time>2010-06-13T10:17:28.94</time>
<name>12836</name>
</trkpt>
<trkpt lat="49.176228" lon="11.787827">
<ele>593.9</ele>
<speed>15.9</speed>
<course>266.3</course>
<desc>Speed 15.9 km/h Distance 48.38 km</desc>
<time>2010-06-13T10:17:29.94</time>
<name>12837</name>
</trkpt>
<trkpt lat="49.176225" lon="11.787748">
<ele>595.1</ele>
<speed>14.7</speed>
<course>272.9</course>
<desc>Speed 14.7 km/h Distance 48.38 km</desc>
<time>2010-06-13T10:17:30.94</time>
<name>12838</name>
</trkpt>
<trkpt lat="49.176227" lon="11.787698">
<ele>594.8</ele>
<speed>14.1</speed>
<course>261.0</course>
<desc>Speed 14.1 km/h Distance 48.39 km</desc>
<time>2010-06-13T10:17:31.94</time>
<name>12839</name>
</trkpt>
<trkpt lat="49.176222" lon="11.787650">
<ele>594.6</ele>
<speed>11.4</speed>
<course>278.3</course>
<desc>Speed 11.4 km/h Distance 48.39 km</desc>
<time>2010-06-13T10:17:32.94</time>
<name>12840</name>
</trkpt>
<trkpt lat="49.176225" lon="11.787615">
<ele>593.9</ele>
<speed>11.9</speed>
<course>277.9</course>
<desc>Speed 11.9 km/h Distance 48.39 km</desc>
<time>2010-06-13T10:17:33.94</time>
<name>12841</name>
</trkpt>
<trkpt lat="49.176228" lon="11.787578">
<ele>593.0</ele>
<speed>10.6</speed>
<course>267.7</course>
<desc>Speed 10.6 km/h Distance 48.39 km</desc>
<time>2010-06-13T10:17:34.94</time>
<name>12842</name>
</trkpt>
<trkpt lat="49.176227" lon="11.787515">
<ele>593.5</ele>
<speed>12.6</speed>
<course>276.5</course>
<desc>Speed 12.6 km/h Distance 48.40 km</desc>
<time>2010-06-13T10:17:35.94</time>
<name>12843</name>
</trkpt>
<trkpt lat="49.176232" lon="11.787448">
<ele>593.9</ele>
<speed>14.9</speed>
<course>280.3</course>
<desc>Speed 14.9 km/h Distance 48.40 km</desc>
<time>2010-06-13T10:17:36.94</time>
<name>12844</name>
</trkpt>
<trkpt lat="49.176240" lon="11.787378">
<ele>594.1</ele>
<speed>15.8</speed>
<course>276.1</course>
<desc>Speed 15.8 km/h Distance 48.41 km</desc>
<time>2010-06-13T10:17:37.94</time>
<name>12845</name>
</trkpt>
<trkpt lat="49.176245" lon="11.787307">
<ele>595.3</ele>
<speed>14.3</speed>
<course>269.1</course>
<desc>Speed 14.3 km/h Distance 48.41 km</desc>
<time>2010-06-13T10:17:38.94</time>
<name>12846</name>
</trkpt>
<trkpt lat="49.176243" lon="11.787150">
<ele>593.9</ele>
<speed>13.6</speed>
<course>255.0</course>
<desc>Speed 13.6 km/h Distance 48.43 km</desc>
<time>2010-06-13T10:17:40.94</time>
<name>12847</name>
</trkpt>
<trkpt lat="49.176232" lon="11.787083">
<ele>594.3</ele>
<speed>11.8</speed>
<course>235.2</course>
<desc>Speed 11.8 km/h Distance 48.43 km</desc>
<time>2010-06-13T10:17:41.94</time>
<name>12848</name>
</trkpt>
<trkpt lat="49.176207" lon="11.787028">
<ele>594.5</ele>
<speed>10.9</speed>
<course>214.4</course>
<desc>Speed 10.9 km/h Distance 48.44 km</desc>
<time>2010-06-13T10:17:42.94</time>
<name>12849</name>
</trkpt>
<trkpt lat="49.176172" lon="11.786992">
<ele>591.3</ele>
<speed>12.2</speed>
<course>228.3</course>
<desc>Speed 12.2 km/h Distance 48.44 km</desc>
<time>2010-06-13T10:17:43.94</time>
<name>12850</name>
</trkpt>
<trkpt lat="49.176107" lon="11.786880">
<ele>591.6</ele>
<speed>13.0</speed>
<course>238.1</course>
<desc>Speed 13.0 km/h Distance 48.45 km</desc>
<time>2010-06-13T10:17:45.94</time>
<name>12851</name>
</trkpt>
<trkpt lat="49.176085" lon="11.786827">
<ele>592.6</ele>
<speed>12.7</speed>
<course>238.0</course>
<desc>Speed 12.7 km/h Distance 48.46 km</desc>
<time>2010-06-13T10:17:46.94</time>
<name>12852</name>
</trkpt>
<trkpt lat="49.176070" lon="11.786790">
<ele>592.7</ele>
<speed>11.0</speed>
<course>244.5</course>
<desc>Speed 11.0 km/h Distance 48.46 km</desc>
<time>2010-06-13T10:17:47.94</time>
<name>12853</name>
</trkpt>
<trkpt lat="49.176053" lon="11.786737">
<ele>594.0</ele>
<speed>10.1</speed>
<course>220.0</course>
<desc>Speed 10.1 km/h Distance 48.46 km</desc>
<time>2010-06-13T10:17:48.94</time>
<name>12854</name>
</trkpt>
<trkpt lat="49.176030" lon="11.786707">
<ele>593.2</ele>
<speed>8.3</speed>
<course>223.2</course>
<desc>Speed 8.3 km/h Distance 48.47 km</desc>
<time>2010-06-13T10:17:49.94</time>
<name>12855</name>
</trkpt>
<trkpt lat="49.176003" lon="11.786668">
<ele>595.2</ele>
<speed>10.0</speed>
<course>231.0</course>
<desc>Speed 10.0 km/h Distance 48.47 km</desc>
<time>2010-06-13T10:17:50.94</time>
<name>12856</name>
</trkpt>
<trkpt lat="49.175988" lon="11.786640">
<ele>595.9</ele>
<speed>7.8</speed>
<course>216.5</course>
<desc>Speed 7.8 km/h Distance 48.47 km</desc>
<time>2010-06-13T10:17:51.94</time>
<name>12857</name>
</trkpt>
<trkpt lat="49.175963" lon="11.786612">
<ele>596.3</ele>
<speed>8.4</speed>
<course>222.8</course>
<desc>Speed 8.4 km/h Distance 48.48 km</desc>
<time>2010-06-13T10:17:52.94</time>
<name>12858</name>
</trkpt>
<trkpt lat="49.175915" lon="11.786543">
<ele>594.4</ele>
<speed>7.2</speed>
<course>226.3</course>
<desc>Speed 7.2 km/h Distance 48.48 km</desc>
<time>2010-06-13T10:17:54.94</time>
<name>12859</name>
</trkpt>
<trkpt lat="49.175898" lon="11.786517">
<ele>594.5</ele>
<speed>7.5</speed>
<course>237.9</course>
<desc>Speed 7.5 km/h Distance 48.49 km</desc>
<time>2010-06-13T10:17:55.94</time>
<name>12860</name>
</trkpt>
<trkpt lat="49.175883" lon="11.786480">
<ele>595.2</ele>
<speed>7.4</speed>
<course>254.2</course>
<desc>Speed 7.4 km/h Distance 48.49 km</desc>
<time>2010-06-13T10:17:56.94</time>
<name>12861</name>
</trkpt>
<trkpt lat="49.175875" lon="11.786435">
<ele>595.4</ele>
<speed>9.1</speed>
<course>247.1</course>
<desc>Speed 9.1 km/h Distance 48.49 km</desc>
<time>2010-06-13T10:17:57.94</time>
<name>12862</name>
</trkpt>
<trkpt lat="49.175862" lon="11.786387">
<ele>594.5</ele>
<speed>9.4</speed>
<course>257.2</course>
<desc>Speed 9.4 km/h Distance 48.50 km</desc>
<time>2010-06-13T10:17:58.94</time>
<name>12863</name>
</trkpt>
<trkpt lat="49.175855" lon="11.786342">
<ele>593.8</ele>
<speed>8.8</speed>
<course>283.8</course>
<desc>Speed 8.8 km/h Distance 48.50 km</desc>
<time>2010-06-13T10:17:59.94</time>
<name>12864</name>
</trkpt>
<trkpt lat="49.175862" lon="11.786300">
<ele>592.8</ele>
<speed>8.2</speed>
<course>266.9</course>
<desc>Speed 8.2 km/h Distance 48.50 km</desc>
<time>2010-06-13T10:18:00.94</time>
<name>12865</name>
</trkpt>
<trkpt lat="49.175860" lon="11.786253">
<ele>594.5</ele>
<speed>10.3</speed>
<course>259.9</course>
<desc>Speed 10.3 km/h Distance 48.51 km</desc>
<time>2010-06-13T10:18:01.94</time>
<name>12866</name>
</trkpt>
<trkpt lat="49.175843" lon="11.786110">
<ele>598.2</ele>
<speed>12.4</speed>
<course>267.8</course>
<desc>Speed 12.4 km/h Distance 48.52 km</desc>
<time>2010-06-13T10:18:03.94</time>
<name>12867</name>
</trkpt>
<trkpt lat="49.175840" lon="11.785980">
<ele>601.7</ele>
<speed>12.2</speed>
<course>278.7</course>
<desc>Speed 12.2 km/h Distance 48.53 km</desc>
<time>2010-06-13T10:18:05.94</time>
<name>12868</name>
</trkpt>
<trkpt lat="49.175847" lon="11.785913">
<ele>601.9</ele>
<speed>11.9</speed>
<course>292.2</course>
<desc>Speed 11.9 km/h Distance 48.53 km</desc>
<time>2010-06-13T10:18:06.94</time>
<name>12869</name>
</trkpt>
<trkpt lat="49.175860" lon="11.785863">
<ele>600.6</ele>
<speed>9.7</speed>
<course>270.0</course>
<desc>Speed 9.7 km/h Distance 48.54 km</desc>
<time>2010-06-13T10:18:07.94</time>
<name>12870</name>
</trkpt>
<trkpt lat="49.175860" lon="11.785820">
<ele>601.0</ele>
<speed>9.2</speed>
<course>305.8</course>
<desc>Speed 9.2 km/h Distance 48.54 km</desc>
<time>2010-06-13T10:18:08.94</time>
<name>12871</name>
</trkpt>
<trkpt lat="49.175873" lon="11.785792">
<ele>600.3</ele>
<speed>8.2</speed>
<course>259.8</course>
<desc>Speed 8.2 km/h Distance 48.54 km</desc>
<time>2010-06-13T10:18:09.94</time>
<name>12872</name>
</trkpt>
<trkpt lat="49.175870" lon="11.785763">
<ele>601.2</ele>
<speed>6.2</speed>
<course>284.3</course>
<desc>Speed 6.2 km/h Distance 48.54 km</desc>
<time>2010-06-13T10:18:10.94</time>
<name>12873</name>
</trkpt>
<trkpt lat="49.175877" lon="11.785723">
<ele>600.4</ele>
<speed>6.8</speed>
<course>295.0</course>
<desc>Speed 6.8 km/h Distance 48.55 km</desc>
<time>2010-06-13T10:18:11.94</time>
<name>12874</name>
</trkpt>
<trkpt lat="49.175888" lon="11.785685">
<ele>598.2</ele>
<speed>7.6</speed>
<course>264.4</course>
<desc>Speed 7.6 km/h Distance 48.55 km</desc>
<time>2010-06-13T10:18:12.94</time>
<name>12875</name>
</trkpt>
<trkpt lat="49.175885" lon="11.785633">
<ele>598.5</ele>
<speed>7.5</speed>
<course>272.7</course>
<desc>Speed 7.5 km/h Distance 48.55 km</desc>
<time>2010-06-13T10:18:13.94</time>
<name>12876</name>
</trkpt>
<trkpt lat="49.175887" lon="11.785578">
<ele>599.4</ele>
<speed>8.9</speed>
<course>265.8</course>
<desc>Speed 8.9 km/h Distance 48.56 km</desc>
<time>2010-06-13T10:18:14.94</time>
<name>12877</name>
</trkpt>
<trkpt lat="49.175885" lon="11.785543">
<ele>599.8</ele>
<speed>8.5</speed>
<course>267.0</course>
<desc>Speed 8.5 km/h Distance 48.56 km</desc>
<time>2010-06-13T10:18:15.94</time>
<name>12878</name>
</trkpt>
<trkpt lat="49.175883" lon="11.785495">
<ele>599.5</ele>
<speed>8.6</speed>
<course>270.0</course>
<desc>Speed 8.6 km/h Distance 48.56 km</desc>
<time>2010-06-13T10:18:16.94</time>
<name>12879</name>
</trkpt>
<trkpt lat="49.175883" lon="11.785443">
<ele>598.4</ele>
<speed>8.7</speed>
<course>306.2</course>
<desc>Speed 8.7 km/h Distance 48.57 km</desc>
<time>2010-06-13T10:18:17.94</time>
<name>12880</name>
</trkpt>
<trkpt lat="49.175938" lon="11.785328">
<ele>592.8</ele>
<speed>12.6</speed>
<course>315.1</course>
<desc>Speed 12.6 km/h Distance 48.58 km</desc>
<time>2010-06-13T10:18:19.94</time>
<name>12881</name>
</trkpt>
<trkpt lat="49.175970" lon="11.785280">
<ele>590.9</ele>
<speed>12.7</speed>
<course>312.2</course>
<desc>Speed 12.7 km/h Distance 48.58 km</desc>
<time>2010-06-13T10:18:20.94</time>
<name>12882</name>
</trkpt>
<trkpt lat="49.175997" lon="11.785235">
<ele>590.0</ele>
<speed>12.3</speed>
<course>304.6</course>
<desc>Speed 12.3 km/h Distance 48.59 km</desc>
<time>2010-06-13T10:18:21.94</time>
<name>12883</name>
</trkpt>
<trkpt lat="49.176020" lon="11.785183">
<ele>589.0</ele>
<speed>14.1</speed>
<course>301.8</course>
<desc>Speed 14.1 km/h Distance 48.59 km</desc>
<time>2010-06-13T10:18:22.94</time>
<name>12884</name>
</trkpt>
<trkpt lat="49.176067" lon="11.785068">
<ele>588.0</ele>
<speed>13.1</speed>
<course>290.0</course>
<desc>Speed 13.1 km/h Distance 48.60 km</desc>
<time>2010-06-13T10:18:24.94</time>
<name>12885</name>
</trkpt>
<trkpt lat="49.176083" lon="11.784998">
<ele>586.4</ele>
<speed>14.5</speed>
<course>315.1</course>
<desc>Speed 14.5 km/h Distance 48.61 km</desc>
<time>2010-06-13T10:18:25.94</time>
<name>12886</name>
</trkpt>
<trkpt lat="49.176118" lon="11.784945">
<ele>585.1</ele>
<speed>14.2</speed>
<course>311.2</course>
<desc>Speed 14.2 km/h Distance 48.61 km</desc>
<time>2010-06-13T10:18:26.94</time>
<name>12887</name>
</trkpt>
<trkpt lat="49.176152" lon="11.784887">
<ele>583.4</ele>
<speed>13.2</speed>
<course>308.3</course>
<desc>Speed 13.2 km/h Distance 48.62 km</desc>
<time>2010-06-13T10:18:27.94</time>
<name>12888</name>
</trkpt>
<trkpt lat="49.176178" lon="11.784835">
<ele>583.2</ele>
<speed>13.6</speed>
<course>289.1</course>
<desc>Speed 13.6 km/h Distance 48.62 km</desc>
<time>2010-06-13T10:18:28.94</time>
<name>12889</name>
</trkpt>
<trkpt lat="49.176190" lon="11.784783">
<ele>580.4</ele>
<speed>12.1</speed>
<course>281.5</course>
<desc>Speed 12.1 km/h Distance 48.63 km</desc>
<time>2010-06-13T10:18:29.94</time>
<name>12890</name>
</trkpt>
<trkpt lat="49.176197" lon="11.784733">
<ele>578.4</ele>
<speed>12.0</speed>
<course>291.5</course>
<desc>Speed 12.0 km/h Distance 48.63 km</desc>
<time>2010-06-13T10:18:30.94</time>
<name>12891</name>
</trkpt>
<trkpt lat="49.176212" lon="11.784675">
<ele>579.1</ele>
<speed>11.0</speed>
<course>292.2</course>
<desc>Speed 11.0 km/h Distance 48.64 km</desc>
<time>2010-06-13T10:18:31.94</time>
<name>12892</name>
</trkpt>
<trkpt lat="49.176225" lon="11.784625">
<ele>577.4</ele>
<speed>10.7</speed>
<course>314.4</course>
<desc>Speed 10.7 km/h Distance 48.64 km</desc>
<time>2010-06-13T10:18:32.94</time>
<name>12893</name>
</trkpt>
<trkpt lat="49.176252" lon="11.784583">
<ele>575.5</ele>
<speed>11.1</speed>
<course>310.9</course>
<desc>Speed 11.1 km/h Distance 48.64 km</desc>
<time>2010-06-13T10:18:33.94</time>
<name>12894</name>
</trkpt>
<trkpt lat="49.176280" lon="11.784533">
<ele>573.2</ele>
<speed>12.6</speed>
<course>301.1</course>
<desc>Speed 12.6 km/h Distance 48.65 km</desc>
<time>2010-06-13T10:18:34.94</time>
<name>12895</name>
</trkpt>
<trkpt lat="49.176305" lon="11.784470">
<ele>571.9</ele>
<speed>13.4</speed>
<course>280.8</course>
<desc>Speed 13.4 km/h Distance 48.65 km</desc>
<time>2010-06-13T10:18:35.94</time>
<name>12896</name>
</trkpt>
<trkpt lat="49.176313" lon="11.784403">
<ele>569.0</ele>
<speed>13.8</speed>
<course>278.5</course>
<desc>Speed 13.8 km/h Distance 48.66 km</desc>
<time>2010-06-13T10:18:36.94</time>
<name>12897</name>
</trkpt>
<trkpt lat="49.176320" lon="11.784335">
<ele>566.7</ele>
<speed>13.3</speed>
<course>274.6</course>
<desc>Speed 13.3 km/h Distance 48.66 km</desc>
<time>2010-06-13T10:18:37.94</time>
<name>12898</name>
</trkpt>
<trkpt lat="49.176323" lon="11.784272">
<ele>566.1</ele>
<speed>14.5</speed>
<course>288.3</course>
<desc>Speed 14.5 km/h Distance 48.67 km</desc>
<time>2010-06-13T10:18:38.94</time>
<name>12899</name>
</trkpt>
<trkpt lat="49.176337" lon="11.784210">
<ele>564.9</ele>
<speed>14.1</speed>
<course>293.6</course>
<desc>Speed 14.1 km/h Distance 48.67 km</desc>
<time>2010-06-13T10:18:39.94</time>
<name>12900</name>
</trkpt>
<trkpt lat="49.176353" lon="11.784152">
<ele>564.1</ele>
<speed>15.0</speed>
<course>283.9</course>
<desc>Speed 15.0 km/h Distance 48.68 km</desc>
<time>2010-06-13T10:18:40.94</time>
<name>12901</name>
</trkpt>
<trkpt lat="49.176363" lon="11.784090">
<ele>562.2</ele>
<speed>13.9</speed>
<course>297.6</course>
<desc>Speed 13.9 km/h Distance 48.68 km</desc>
<time>2010-06-13T10:18:41.94</time>
<name>12902</name>
</trkpt>
<trkpt lat="49.176385" lon="11.784027">
<ele>559.9</ele>
<speed>13.9</speed>
<course>296.5</course>
<desc>Speed 13.9 km/h Distance 48.69 km</desc>
<time>2010-06-13T10:18:42.94</time>
<name>12903</name>
</trkpt>
<trkpt lat="49.176433" lon="11.783878">
<ele>554.7</ele>
<speed>16.6</speed>
<course>301.9</course>
<desc>Speed 16.6 km/h Distance 48.70 km</desc>
<time>2010-06-13T10:18:44.94</time>
<name>12904</name>
</trkpt>
<trkpt lat="49.176492" lon="11.783735">
<ele>547.7</ele>
<speed>16.1</speed>
<course>312.3</course>
<desc>Speed 16.1 km/h Distance 48.71 km</desc>
<time>2010-06-13T10:18:46.94</time>
<name>12905</name>
</trkpt>
<trkpt lat="49.176523" lon="11.783682">
<ele>546.1</ele>
<speed>14.1</speed>
<course>297.7</course>
<desc>Speed 14.1 km/h Distance 48.72 km</desc>
<time>2010-06-13T10:18:47.94</time>
<name>12906</name>
</trkpt>
<trkpt lat="49.176543" lon="11.783623">
<ele>544.1</ele>
<speed>12.5</speed>
<course>282.3</course>
<desc>Speed 12.5 km/h Distance 48.72 km</desc>
<time>2010-06-13T10:18:48.94</time>
<name>12907</name>
</trkpt>
<trkpt lat="49.176552" lon="11.783565">
<ele>543.4</ele>
<speed>11.0</speed>
<course>285.8</course>
<desc>Speed 11.0 km/h Distance 48.73 km</desc>
<time>2010-06-13T10:18:49.94</time>
<name>12908</name>
</trkpt>
<trkpt lat="49.176560" lon="11.783520">
<ele>544.6</ele>
<speed>10.4</speed>
<course>283.9</course>
<desc>Speed 10.4 km/h Distance 48.73 km</desc>
<time>2010-06-13T10:18:50.94</time>
<name>12909</name>
</trkpt>
<trkpt lat="49.176568" lon="11.783468">
<ele>543.9</ele>
<speed>9.4</speed>
<course>279.1</course>
<desc>Speed 9.4 km/h Distance 48.73 km</desc>
<time>2010-06-13T10:18:51.94</time>
<name>12910</name>
</trkpt>
<trkpt lat="49.176572" lon="11.783437">
<ele>543.8</ele>
<speed>7.4</speed>
<course>244.8</course>
<desc>Speed 7.4 km/h Distance 48.74 km</desc>
<time>2010-06-13T10:18:52.94</time>
<name>12911</name>
</trkpt>
<trkpt lat="49.176565" lon="11.783415">
<ele>543.2</ele>
<speed>3.3</speed>
<course>195.7</course>
<desc>Speed 3.3 km/h Distance 48.74 km</desc>
<time>2010-06-13T10:18:53.94</time>
<name>12912</name>
</trkpt>
<trkpt lat="49.176542" lon="11.783405">
<ele>544.1</ele>
<speed>4.4</speed>
<course>188.4</course>
<desc>Speed 4.4 km/h Distance 48.74 km</desc>
<time>2010-06-13T10:18:54.94</time>
<name>12913</name>
</trkpt>
<trkpt lat="49.176520" lon="11.783400">
<ele>544.5</ele>
<speed>7.3</speed>
<course>180.0</course>
<desc>Speed 7.3 km/h Distance 48.74 km</desc>
<time>2010-06-13T10:18:55.94</time>
<name>12914</name>
</trkpt>
<trkpt lat="49.176490" lon="11.783400">
<ele>543.1</ele>
<speed>8.6</speed>
<course>203.0</course>
<desc>Speed 8.6 km/h Distance 48.75 km</desc>
<time>2010-06-13T10:18:56.94</time>
<name>12915</name>
</trkpt>
<trkpt lat="49.176428" lon="11.783360">
<ele>544.8</ele>
<speed>8.7</speed>
<course>195.0</course>
<desc>Speed 8.7 km/h Distance 48.75 km</desc>
<time>2010-06-13T10:18:58.94</time>
<name>12916</name>
</trkpt>
<trkpt lat="49.176392" lon="11.783345">
<ele>545.3</ele>
<speed>9.9</speed>
<course>220.7</course>
<desc>Speed 9.9 km/h Distance 48.76 km</desc>
<time>2010-06-13T10:18:59.94</time>
<name>12917</name>
</trkpt>
<trkpt lat="49.176365" lon="11.783310">
<ele>547.1</ele>
<speed>9.0</speed>
<course>209.1</course>
<desc>Speed 9.0 km/h Distance 48.76 km</desc>
<time>2010-06-13T10:19:00.94</time>
<name>12918</name>
</trkpt>
<trkpt lat="49.176332" lon="11.783282">
<ele>547.9</ele>
<speed>8.6</speed>
<course>205.6</course>
<desc>Speed 8.6 km/h Distance 48.77 km</desc>
<time>2010-06-13T10:19:01.94</time>
<name>12919</name>
</trkpt>
<trkpt lat="49.176307" lon="11.783263">
<ele>548.0</ele>
<speed>8.0</speed>
<course>221.1</course>
<desc>Speed 8.0 km/h Distance 48.77 km</desc>
<time>2010-06-13T10:19:02.94</time>
<name>12920</name>
</trkpt>
<trkpt lat="49.176282" lon="11.783230">
<ele>548.2</ele>
<speed>8.1</speed>
<course>210.3</course>
<desc>Speed 8.1 km/h Distance 48.77 km</desc>
<time>2010-06-13T10:19:03.94</time>
<name>12921</name>
</trkpt>
<trkpt lat="49.176203" lon="11.783160">
<ele>551.0</ele>
<speed>11.7</speed>
<course>210.8</course>
<desc>Speed 11.7 km/h Distance 48.78 km</desc>
<time>2010-06-13T10:19:05.94</time>
<name>12922</name>
</trkpt>
<trkpt lat="49.176165" lon="11.783125">
<ele>552.2</ele>
<speed>10.8</speed>
<course>224.4</course>
<desc>Speed 10.8 km/h Distance 48.79 km</desc>
<time>2010-06-13T10:19:06.94</time>
<name>12923</name>
</trkpt>
<trkpt lat="49.176135" lon="11.783080">
<ele>554.2</ele>
<speed>10.5</speed>
<course>228.8</course>
<desc>Speed 10.5 km/h Distance 48.79 km</desc>
<time>2010-06-13T10:19:07.94</time>
<name>12924</name>
</trkpt>
<trkpt lat="49.176115" lon="11.783045">
<ele>554.4</ele>
<speed>8.5</speed>
<course>244.5</course>
<desc>Speed 8.5 km/h Distance 48.80 km</desc>
<time>2010-06-13T10:19:08.94</time>
<name>12925</name>
</trkpt>
<trkpt lat="49.176083" lon="11.782943">
<ele>556.5</ele>
<speed>8.1</speed>
<course>275.8</course>
<desc>Speed 8.1 km/h Distance 48.80 km</desc>
<time>2010-06-13T10:19:10.94</time>
<name>12926</name>
</trkpt>
<trkpt lat="49.176085" lon="11.782918">
<ele>559.1</ele>
<speed>6.2</speed>
<course>237.4</course>
<desc>Speed 6.2 km/h Distance 48.81 km</desc>
<time>2010-06-13T10:19:11.94</time>
<name>12927</name>
</trkpt>
<trkpt lat="49.176038" lon="11.782807">
<ele>562.2</ele>
<speed>7.8</speed>
<course>222.5</course>
<desc>Speed 7.8 km/h Distance 48.82 km</desc>
<time>2010-06-13T10:19:13.94</time>
<name>12928</name>
</trkpt>
<trkpt lat="49.175902" lon="11.782615">
<ele>570.4</ele>
<speed>14.6</speed>
<course>228.1</course>
<desc>Speed 14.6 km/h Distance 48.84 km</desc>
<time>2010-06-13T10:19:16.94</time>
<name>12929</name>
</trkpt>
<trkpt lat="49.175873" lon="11.782567">
<ele>570.8</ele>
<speed>14.9</speed>
<course>212.7</course>
<desc>Speed 14.9 km/h Distance 48.84 km</desc>
<time>2010-06-13T10:19:17.94</time>
<name>12930</name>
</trkpt>
<trkpt lat="49.175782" lon="11.782477">
<ele>571.3</ele>
<speed>15.3</speed>
<course>192.8</course>
<desc>Speed 15.3 km/h Distance 48.85 km</desc>
<time>2010-06-13T10:19:19.94</time>
<name>12931</name>
</trkpt>
<trkpt lat="49.175743" lon="11.782463">
<ele>571.2</ele>
<speed>12.5</speed>
<course>179.1</course>
<desc>Speed 12.5 km/h Distance 48.86 km</desc>
<time>2010-06-13T10:19:20.94</time>
<name>12932</name>
</trkpt>
<trkpt lat="49.175708" lon="11.782463">
<ele>569.4</ele>
<speed>13.6</speed>
<course>186.2</course>
<desc>Speed 13.6 km/h Distance 48.86 km</desc>
<time>2010-06-13T10:19:21.94</time>
<name>12933</name>
</trkpt>
<trkpt lat="49.175668" lon="11.782457">
<ele>569.0</ele>
<speed>12.5</speed>
<course>187.8</course>
<desc>Speed 12.5 km/h Distance 48.87 km</desc>
<time>2010-06-13T10:19:22.94</time>
<name>12934</name>
</trkpt>
<trkpt lat="49.175628" lon="11.782448">
<ele>568.4</ele>
<speed>11.0</speed>
<course>189.8</course>
<desc>Speed 11.0 km/h Distance 48.87 km</desc>
<time>2010-06-13T10:19:23.94</time>
<name>12935</name>
</trkpt>
<trkpt lat="49.175590" lon="11.782438">
<ele>569.6</ele>
<speed>10.3</speed>
<course>179.1</course>
<desc>Speed 10.3 km/h Distance 48.88 km</desc>
<time>2010-06-13T10:19:24.94</time>
<name>12936</name>
</trkpt>
<trkpt lat="49.175558" lon="11.782438">
<ele>569.3</ele>
<speed>8.2</speed>
<course>173.3</course>
<desc>Speed 8.2 km/h Distance 48.88 km</desc>
<time>2010-06-13T10:19:25.94</time>
<name>12937</name>
</trkpt>
<trkpt lat="49.175522" lon="11.782445">
<ele>570.0</ele>
<speed>8.0</speed>
<course>160.5</course>
<desc>Speed 8.0 km/h Distance 48.88 km</desc>
<time>2010-06-13T10:19:26.94</time>
<name>12938</name>
</trkpt>
<trkpt lat="49.175500" lon="11.782457">
<ele>569.6</ele>
<speed>7.2</speed>
<course>153.0</course>
<desc>Speed 7.2 km/h Distance 48.89 km</desc>
<time>2010-06-13T10:19:27.94</time>
<name>12939</name>
</trkpt>
<trkpt lat="49.175485" lon="11.782468">
<ele>569.6</ele>
<speed>6.3</speed>
<course>196.0</course>
<desc>Speed 6.3 km/h Distance 48.89 km</desc>
<time>2010-06-13T10:19:28.94</time>
<name>12940</name>
</trkpt>
<trkpt lat="49.175458" lon="11.782457">
<ele>572.0</ele>
<speed>6.2</speed>
<course>213.2</course>
<desc>Speed 6.2 km/h Distance 48.89 km</desc>
<time>2010-06-13T10:19:29.94</time>
<name>12941</name>
</trkpt>
<trkpt lat="49.175440" lon="11.782438">
<ele>573.9</ele>
<speed>6.0</speed>
<course>194.0</course>
<desc>Speed 6.0 km/h Distance 48.89 km</desc>
<time>2010-06-13T10:19:30.94</time>
<name>12942</name>
</trkpt>
<trkpt lat="49.175418" lon="11.782430">
<ele>574.1</ele>
<speed>6.0</speed>
<course>173.5</course>
<desc>Speed 6.0 km/h Distance 48.90 km</desc>
<time>2010-06-13T10:19:31.94</time>
<name>12943</name>
</trkpt>
<trkpt lat="49.175400" lon="11.782433">
<ele>572.6</ele>
<speed>7.1</speed>
<course>185.5</course>
<desc>Speed 7.1 km/h Distance 48.90 km</desc>
<time>2010-06-13T10:19:32.94</time>
<name>12944</name>
</trkpt>
<trkpt lat="49.175378" lon="11.782430">
<ele>573.3</ele>
<speed>8.1</speed>
<course>183.2</course>
<desc>Speed 8.1 km/h Distance 48.90 km</desc>
<time>2010-06-13T10:19:33.94</time>
<name>12945</name>
</trkpt>
<trkpt lat="49.175357" lon="11.782428">
<ele>572.9</ele>
<speed>6.0</speed>
<course>166.0</course>
<desc>Speed 6.0 km/h Distance 48.90 km</desc>
<time>2010-06-13T10:19:34.94</time>
<name>12946</name>
</trkpt>
<trkpt lat="49.175335" lon="11.782437">
<ele>573.8</ele>
<speed>4.6</speed>
<course>185.5</course>
<desc>Speed 4.6 km/h Distance 48.90 km</desc>
<time>2010-06-13T10:19:35.94</time>
<name>12947</name>
</trkpt>
<trkpt lat="49.175313" lon="11.782433">
<ele>574.9</ele>
<speed>2.9</speed>
<course>147.7</course>
<desc>Speed 2.9 km/h Distance 48.91 km</desc>
<time>2010-06-13T10:19:36.94</time>
<name>12948</name>
</trkpt>
<trkpt lat="49.175308" lon="11.782438">
<ele>573.9</ele>
<speed>2.2</speed>
<course>197.6</course>
<desc>Speed 2.2 km/h Distance 48.91 km</desc>
<time>2010-06-13T10:19:37.94</time>
<name>12949</name>
</trkpt>
<trkpt lat="49.175298" lon="11.782433">
<ele>575.3</ele>
<speed>2.8</speed>
<course>173.3</course>
<desc>Speed 2.8 km/h Distance 48.91 km</desc>
<time>2010-06-13T10:19:38.94</time>
<name>12950</name>
</trkpt>
<trkpt lat="49.175243" lon="11.782443">
<ele>574.2</ele>
<speed>5.5</speed>
<course>167.4</course>
<desc>Speed 5.5 km/h Distance 48.91 km</desc>
<time>2010-06-13T10:19:40.94</time>
<name>12951</name>
</trkpt>
<trkpt lat="49.175233" lon="11.782447">
<ele>574.9</ele>
<speed>3.6</speed>
<course>175.6</course>
<desc>Speed 3.6 km/h Distance 48.92 km</desc>
<time>2010-06-13T10:19:41.94</time>
<name>12952</name>
</trkpt>
<trkpt lat="49.175223" lon="11.782447">
<ele>576.4</ele>
<speed>4.3</speed>
<course>177.5</course>
<desc>Speed 4.3 km/h Distance 48.92 km</desc>
<time>2010-06-13T10:19:42.94</time>
<name>12953</name>
</trkpt>
<trkpt lat="49.175205" lon="11.782448">
<ele>577.2</ele>
<speed>4.2</speed>
<course>188.8</course>
<desc>Speed 4.2 km/h Distance 48.92 km</desc>
<time>2010-06-13T10:19:43.94</time>
<name>12954</name>
</trkpt>
<trkpt lat="49.175185" lon="11.782443">
<ele>578.6</ele>
<speed>4.5</speed>
<course>187.7</course>
<desc>Speed 4.5 km/h Distance 48.92 km</desc>
<time>2010-06-13T10:19:44.94</time>
<name>12955</name>
</trkpt>
<trkpt lat="49.175168" lon="11.782440">
<ele>578.4</ele>
<speed>3.5</speed>
<course>193.2</course>
<desc>Speed 3.5 km/h Distance 48.92 km</desc>
<time>2010-06-13T10:19:45.94</time>
<name>12956</name>
</trkpt>
<trkpt lat="49.175145" lon="11.782432">
<ele>578.2</ele>
<speed>4.6</speed>
<course>158.0</course>
<desc>Speed 4.6 km/h Distance 48.93 km</desc>
<time>2010-06-13T10:19:46.94</time>
<name>12957</name>
</trkpt>
<trkpt lat="49.175123" lon="11.782445">
<ele>576.9</ele>
<speed>3.7</speed>
<course>184.7</course>
<desc>Speed 3.7 km/h Distance 48.93 km</desc>
<time>2010-06-13T10:19:47.94</time>
<name>12958</name>
</trkpt>
<trkpt lat="49.175057" lon="11.782437">
<ele>578.4</ele>
<speed>5.1</speed>
<course>167.6</course>
<desc>Speed 5.1 km/h Distance 48.94 km</desc>
<time>2010-06-13T10:19:49.94</time>
<name>12959</name>
</trkpt>
<trkpt lat="49.175027" lon="11.782447">
<ele>579.7</ele>
<speed>6.0</speed>
<course>213.2</course>
<desc>Speed 6.0 km/h Distance 48.94 km</desc>
<time>2010-06-13T10:19:50.94</time>
<name>12960</name>
</trkpt>
<trkpt lat="49.175008" lon="11.782428">
<ele>582.6</ele>
<speed>5.9</speed>
<course>215.9</course>
<desc>Speed 5.9 km/h Distance 48.94 km</desc>
<time>2010-06-13T10:19:51.94</time>
<name>12961</name>
</trkpt>
<trkpt lat="49.174993" lon="11.782412">
<ele>581.9</ele>
<speed>6.4</speed>
<course>205.6</course>
<desc>Speed 6.4 km/h Distance 48.94 km</desc>
<time>2010-06-13T10:19:52.94</time>
<name>12962</name>
</trkpt>
<trkpt lat="49.174968" lon="11.782393">
<ele>582.1</ele>
<speed>5.6</speed>
<course>171.2</course>
<desc>Speed 5.6 km/h Distance 48.95 km</desc>
<time>2010-06-13T10:19:53.94</time>
<name>12963</name>
</trkpt>
<trkpt lat="49.174953" lon="11.782397">
<ele>581.1</ele>
<speed>5.6</speed>
<course>178.8</course>
<desc>Speed 5.6 km/h Distance 48.95 km</desc>
<time>2010-06-13T10:19:54.94</time>
<name>12964</name>
</trkpt>
<trkpt lat="49.174940" lon="11.782397">
<ele>580.5</ele>
<speed>3.9</speed>
<course>188.1</course>
<desc>Speed 3.9 km/h Distance 48.95 km</desc>
<time>2010-06-13T10:19:55.94</time>
<name>12965</name>
</trkpt>
<trkpt lat="49.174925" lon="11.782393">
<ele>580.4</ele>
<speed>6.4</speed>
<course>210.9</course>
<desc>Speed 6.4 km/h Distance 48.95 km</desc>
<time>2010-06-13T10:19:56.94</time>
<name>12966</name>
</trkpt>
<trkpt lat="49.174905" lon="11.782375">
<ele>581.1</ele>
<speed>7.0</speed>
<course>199.4</course>
<desc>Speed 7.0 km/h Distance 48.95 km</desc>
<time>2010-06-13T10:19:57.94</time>
<name>12967</name>
</trkpt>
<trkpt lat="49.174883" lon="11.782363">
<ele>581.2</ele>
<speed>6.9</speed>
<course>188.5</course>
<desc>Speed 6.9 km/h Distance 48.96 km</desc>
<time>2010-06-13T10:19:58.94</time>
<name>12968</name>
</trkpt>
<trkpt lat="49.174855" lon="11.782357">
<ele>581.0</ele>
<speed>8.1</speed>
<course>155.9</course>
<desc>Speed 8.1 km/h Distance 48.96 km</desc>
<time>2010-06-13T10:19:59.94</time>
<name>12969</name>
</trkpt>
<trkpt lat="49.174823" lon="11.782378">
<ele>579.3</ele>
<speed>9.5</speed>
<course>158.2</course>
<desc>Speed 9.5 km/h Distance 48.96 km</desc>
<time>2010-06-13T10:20:00.94</time>
<name>12970</name>
</trkpt>
<trkpt lat="49.174793" lon="11.782397">
<ele>579.5</ele>
<speed>7.8</speed>
<course>115.8</course>
<desc>Speed 7.8 km/h Distance 48.97 km</desc>
<time>2010-06-13T10:20:01.94</time>
<name>12971</name>
</trkpt>
<trkpt lat="49.174783" lon="11.782428">
<ele>576.2</ele>
<speed>6.2</speed>
<course>148.7</course>
<desc>Speed 6.2 km/h Distance 48.97 km</desc>
<time>2010-06-13T10:20:02.94</time>
<name>12972</name>
</trkpt>
<trkpt lat="49.174760" lon="11.782450">
<ele>576.2</ele>
<speed>6.0</speed>
<course>174.1</course>
<desc>Speed 6.0 km/h Distance 48.97 km</desc>
<time>2010-06-13T10:20:03.94</time>
<name>12973</name>
</trkpt>
<trkpt lat="49.174742" lon="11.782453">
<ele>574.6</ele>
<speed>4.1</speed>
<course>166.9</course>
<desc>Speed 4.1 km/h Distance 48.98 km</desc>
<time>2010-06-13T10:20:04.94</time>
<name>12974</name>
</trkpt>
<trkpt lat="49.174723" lon="11.782460">
<ele>573.0</ele>
<speed>5.4</speed>
<course>160.3</course>
<desc>Speed 5.4 km/h Distance 48.98 km</desc>
<time>2010-06-13T10:20:05.94</time>
<name>12975</name>
</trkpt>
<trkpt lat="49.174705" lon="11.782470">
<ele>571.9</ele>
<speed>6.1</speed>
<course>154.0</course>
<desc>Speed 6.1 km/h Distance 48.98 km</desc>
<time>2010-06-13T10:20:06.94</time>
<name>12976</name>
</trkpt>
<trkpt lat="49.174692" lon="11.782480">
<ele>571.8</ele>
<speed>4.2</speed>
<course>168.5</course>
<desc>Speed 4.2 km/h Distance 48.98 km</desc>
<time>2010-06-13T10:20:07.94</time>
<name>12977</name>
</trkpt>
<trkpt lat="49.174665" lon="11.782488">
<ele>570.7</ele>
<speed>5.2</speed>
<course>168.5</course>
<desc>Speed 5.2 km/h Distance 48.98 km</desc>
<time>2010-06-13T10:20:08.94</time>
<name>12978</name>
</trkpt>
<trkpt lat="49.174638" lon="11.782497">
<ele>570.2</ele>
<speed>4.4</speed>
<course>155.0</course>
<desc>Speed 4.4 km/h Distance 48.99 km</desc>
<time>2010-06-13T10:20:09.94</time>
<name>12979</name>
</trkpt>
<trkpt lat="49.174615" lon="11.782513">
<ele>569.8</ele>
<speed>3.7</speed>
<course>154.5</course>
<desc>Speed 3.7 km/h Distance 48.99 km</desc>
<time>2010-06-13T10:20:10.94</time>
<name>12980</name>
</trkpt>
<trkpt lat="49.174572" lon="11.782545">
<ele>566.4</ele>
<speed>5.6</speed>
<course>146.9</course>
<desc>Speed 5.6 km/h Distance 49.00 km</desc>
<time>2010-06-13T10:20:12.94</time>
<name>12981</name>
</trkpt>
<trkpt lat="49.174557" lon="11.782560">
<ele>566.1</ele>
<speed>6.2</speed>
<course>135.5</course>
<desc>Speed 6.2 km/h Distance 49.00 km</desc>
<time>2010-06-13T10:20:13.94</time>
<name>12982</name>
</trkpt>
<trkpt lat="49.174540" lon="11.782585">
<ele>565.4</ele>
<speed>6.3</speed>
<course>151.5</course>
<desc>Speed 6.3 km/h Distance 49.00 km</desc>
<time>2010-06-13T10:20:14.94</time>
<name>12983</name>
</trkpt>
<trkpt lat="49.174520" lon="11.782602">
<ele>565.2</ele>
<speed>5.7</speed>
<course>118.2</course>
<desc>Speed 5.7 km/h Distance 49.00 km</desc>
<time>2010-06-13T10:20:15.94</time>
<name>12984</name>
</trkpt>
<trkpt lat="49.174508" lon="11.782635">
<ele>564.5</ele>
<speed>5.9</speed>
<course>135.6</course>
<desc>Speed 5.9 km/h Distance 49.01 km</desc>
<time>2010-06-13T10:20:16.94</time>
<name>12985</name>
</trkpt>
<trkpt lat="49.174495" lon="11.782655">
<ele>564.4</ele>
<speed>4.8</speed>
<course>125.5</course>
<desc>Speed 4.8 km/h Distance 49.01 km</desc>
<time>2010-06-13T10:20:17.94</time>
<name>12986</name>
</trkpt>
<trkpt lat="49.174483" lon="11.782680">
<ele>564.6</ele>
<speed>4.3</speed>
<course>135.3</course>
<desc>Speed 4.3 km/h Distance 49.01 km</desc>
<time>2010-06-13T10:20:18.94</time>
<name>12987</name>
</trkpt>
<trkpt lat="49.174422" lon="11.782773">
<ele>564.7</ele>
<speed>9.6</speed>
<course>149.2</course>
<desc>Speed 9.6 km/h Distance 49.02 km</desc>
<time>2010-06-13T10:20:20.94</time>
<name>12988</name>
</trkpt>
<trkpt lat="49.174345" lon="11.782843">
<ele>563.3</ele>
<speed>11.6</speed>
<course>162.7</course>
<desc>Speed 11.6 km/h Distance 49.03 km</desc>
<time>2010-06-13T10:20:22.94</time>
<name>12989</name>
</trkpt>
<trkpt lat="49.174310" lon="11.782860">
<ele>563.2</ele>
<speed>14.5</speed>
<course>159.9</course>
<desc>Speed 14.5 km/h Distance 49.03 km</desc>
<time>2010-06-13T10:20:23.94</time>
<name>12990</name>
</trkpt>
<trkpt lat="49.174268" lon="11.782883">
<ele>563.1</ele>
<speed>13.0</speed>
<course>117.0</course>
<desc>Speed 13.0 km/h Distance 49.04 km</desc>
<time>2010-06-13T10:20:24.94</time>
<name>12991</name>
</trkpt>
<trkpt lat="49.174255" lon="11.782923">
<ele>561.9</ele>
<speed>12.7</speed>
<course>133.5</course>
<desc>Speed 12.7 km/h Distance 49.04 km</desc>
<time>2010-06-13T10:20:25.94</time>
<name>12992</name>
</trkpt>
<trkpt lat="49.174225" lon="11.782972">
<ele>561.9</ele>
<speed>12.3</speed>
<course>124.2</course>
<desc>Speed 12.3 km/h Distance 49.05 km</desc>
<time>2010-06-13T10:20:26.94</time>
<name>12993</name>
</trkpt>
<trkpt lat="49.174205" lon="11.783017">
<ele>561.5</ele>
<speed>12.1</speed>
<course>131.4</course>
<desc>Speed 12.1 km/h Distance 49.05 km</desc>
<time>2010-06-13T10:20:27.94</time>
<name>12994</name>
</trkpt>
<trkpt lat="49.174173" lon="11.783072">
<ele>561.1</ele>
<speed>11.4</speed>
<course>131.1</course>
<desc>Speed 11.4 km/h Distance 49.06 km</desc>
<time>2010-06-13T10:20:28.94</time>
<name>12995</name>
</trkpt>
<trkpt lat="49.174147" lon="11.783118">
<ele>559.9</ele>
<speed>11.5</speed>
<course>123.2</course>
<desc>Speed 11.5 km/h Distance 49.06 km</desc>
<time>2010-06-13T10:20:29.94</time>
<name>12996</name>
</trkpt>
<trkpt lat="49.174132" lon="11.783153">
<ele>560.0</ele>
<speed>9.0</speed>
<course>119.8</course>
<desc>Speed 9.0 km/h Distance 49.06 km</desc>
<time>2010-06-13T10:20:30.94</time>
<name>12997</name>
</trkpt>
<trkpt lat="49.174112" lon="11.783207">
<ele>560.3</ele>
<speed>9.5</speed>
<course>140.7</course>
<desc>Speed 9.5 km/h Distance 49.07 km</desc>
<time>2010-06-13T10:20:31.94</time>
<name>12998</name>
</trkpt>
<trkpt lat="49.174085" lon="11.783240">
<ele>561.4</ele>
<speed>9.4</speed>
<course>155.1</course>
<desc>Speed 9.4 km/h Distance 49.07 km</desc>
<time>2010-06-13T10:20:32.94</time>
<name>12999</name>
</trkpt>
<trkpt lat="49.174073" lon="11.783248">
<ele>560.8</ele>
<speed>7.6</speed>
<course>152.8</course>
<desc>Speed 7.6 km/h Distance 49.07 km</desc>
<time>2010-06-13T10:20:33.94</time>
<name>13000</name>
</trkpt>
<trkpt lat="49.174050" lon="11.783267">
<ele>558.1</ele>
<speed>9.2</speed>
<course>164.5</course>
<desc>Speed 9.2 km/h Distance 49.08 km</desc>
<time>2010-06-13T10:20:34.94</time>
<name>13001</name>
</trkpt>
<trkpt lat="49.174027" lon="11.783277">
<ele>556.7</ele>
<speed>7.2</speed>
<course>151.4</course>
<desc>Speed 7.2 km/h Distance 49.08 km</desc>
<time>2010-06-13T10:20:35.94</time>
<name>13002</name>
</trkpt>
<trkpt lat="49.173937" lon="11.783352">
<ele>557.5</ele>
<speed>11.5</speed>
<course>141.0</course>
<desc>Speed 11.5 km/h Distance 49.09 km</desc>
<time>2010-06-13T10:20:37.94</time>
<name>13003</name>
</trkpt>
<trkpt lat="49.173902" lon="11.783395">
<ele>557.8</ele>
<speed>10.5</speed>
<course>144.1</course>
<desc>Speed 10.5 km/h Distance 49.10 km</desc>
<time>2010-06-13T10:20:38.94</time>
<name>13004</name>
</trkpt>
<trkpt lat="49.173870" lon="11.783430">
<ele>558.3</ele>
<speed>9.8</speed>
<course>125.5</course>
<desc>Speed 9.8 km/h Distance 49.10 km</desc>
<time>2010-06-13T10:20:39.94</time>
<name>13005</name>
</trkpt>
<trkpt lat="49.173847" lon="11.783480">
<ele>557.6</ele>
<speed>8.6</speed>
<course>124.2</course>
<desc>Speed 8.6 km/h Distance 49.10 km</desc>
<time>2010-06-13T10:20:40.94</time>
<name>13006</name>
</trkpt>
<trkpt lat="49.173833" lon="11.783510">
<ele>558.0</ele>
<speed>7.8</speed>
<course>125.2</course>
<desc>Speed 7.8 km/h Distance 49.11 km</desc>
<time>2010-06-13T10:20:41.94</time>
<name>13007</name>
</trkpt>
<trkpt lat="49.173813" lon="11.783553">
<ele>557.4</ele>
<speed>8.4</speed>
<course>139.7</course>
<desc>Speed 8.4 km/h Distance 49.11 km</desc>
<time>2010-06-13T10:20:42.94</time>
<name>13008</name>
</trkpt>
<trkpt lat="49.173797" lon="11.783575">
<ele>559.1</ele>
<speed>5.3</speed>
<course>113.2</course>
<desc>Speed 5.3 km/h Distance 49.11 km</desc>
<time>2010-06-13T10:20:43.94</time>
<name>13009</name>
</trkpt>
<trkpt lat="49.173785" lon="11.783617">
<ele>559.6</ele>
<speed>6.6</speed>
<course>141.2</course>
<desc>Speed 6.6 km/h Distance 49.12 km</desc>
<time>2010-06-13T10:20:44.94</time>
<name>13010</name>
</trkpt>
<trkpt lat="49.173742" lon="11.783670">
<ele>560.9</ele>
<speed>5.6</speed>
<course>162.3</course>
<desc>Speed 5.6 km/h Distance 49.12 km</desc>
<time>2010-06-13T10:20:46.94</time>
<name>13011</name>
</trkpt>
<trkpt lat="49.173673" lon="11.783703">
<ele>562.7</ele>
<speed>8.5</speed>
<course>167.4</course>
<desc>Speed 8.5 km/h Distance 49.13 km</desc>
<time>2010-06-13T10:20:48.94</time>
<name>13012</name>
</trkpt>
<trkpt lat="49.173610" lon="11.783725">
<ele>563.2</ele>
<speed>11.4</speed>
<course>177.8</course>
<desc>Speed 11.4 km/h Distance 49.14 km</desc>
<time>2010-06-13T10:20:50.94</time>
<name>13013</name>
</trkpt>
<trkpt lat="49.173583" lon="11.783727">
<ele>564.2</ele>
<speed>12.1</speed>
<course>176.5</course>
<desc>Speed 12.1 km/h Distance 49.14 km</desc>
<time>2010-06-13T10:20:51.94</time>
<name>13014</name>
</trkpt>
<trkpt lat="49.173550" lon="11.783730">
<ele>565.8</ele>
<speed>13.0</speed>
<course>178.9</course>
<desc>Speed 13.0 km/h Distance 49.14 km</desc>
<time>2010-06-13T10:20:52.94</time>
<name>13015</name>
</trkpt>
<trkpt lat="49.173505" lon="11.783732">
<ele>565.9</ele>
<speed>14.6</speed>
<course>186.5</course>
<desc>Speed 14.6 km/h Distance 49.15 km</desc>
<time>2010-06-13T10:20:53.94</time>
<name>13016</name>
</trkpt>
<trkpt lat="49.173457" lon="11.783723">
<ele>566.9</ele>
<speed>16.0</speed>
<course>185.0</course>
<desc>Speed 16.0 km/h Distance 49.15 km</desc>
<time>2010-06-13T10:20:54.94</time>
<name>13017</name>
</trkpt>
<trkpt lat="49.173407" lon="11.783717">
<ele>567.8</ele>
<speed>15.3</speed>
<course>189.3</course>
<desc>Speed 15.3 km/h Distance 49.16 km</desc>
<time>2010-06-13T10:20:55.94</time>
<name>13018</name>
</trkpt>
<trkpt lat="49.173353" lon="11.783703">
<ele>568.9</ele>
<speed>16.6</speed>
<course>186.6</course>
<desc>Speed 16.6 km/h Distance 49.17 km</desc>
<time>2010-06-13T10:20:56.94</time>
<name>13019</name>
</trkpt>
<trkpt lat="49.173297" lon="11.783693">
<ele>569.2</ele>
<speed>16.7</speed>
<course>177.6</course>
<desc>Speed 16.7 km/h Distance 49.17 km</desc>
<time>2010-06-13T10:20:57.94</time>
<name>13020</name>
</trkpt>
<trkpt lat="49.173243" lon="11.783697">
<ele>568.7</ele>
<speed>15.0</speed>
<course>168.6</course>
<desc>Speed 15.0 km/h Distance 49.18 km</desc>
<time>2010-06-13T10:20:58.94</time>
<name>13021</name>
</trkpt>
<trkpt lat="49.173200" lon="11.783710">
<ele>567.9</ele>
<speed>12.9</speed>
<course>187.6</course>
<desc>Speed 12.9 km/h Distance 49.18 km</desc>
<time>2010-06-13T10:20:59.94</time>
<name>13022</name>
</trkpt>
<trkpt lat="49.173158" lon="11.783702">
<ele>568.3</ele>
<speed>12.8</speed>
<course>175.3</course>
<desc>Speed 12.8 km/h Distance 49.19 km</desc>
<time>2010-06-13T10:21:00.94</time>
<name>13023</name>
</trkpt>
<trkpt lat="49.173118" lon="11.783707">
<ele>568.2</ele>
<speed>13.2</speed>
<course>202.0</course>
<desc>Speed 13.2 km/h Distance 49.19 km</desc>
<time>2010-06-13T10:21:01.94</time>
<name>13024</name>
</trkpt>
<trkpt lat="49.173083" lon="11.783685">
<ele>569.5</ele>
<speed>10.8</speed>
<course>204.0</course>
<desc>Speed 10.8 km/h Distance 49.20 km</desc>
<time>2010-06-13T10:21:02.94</time>
<name>13025</name>
</trkpt>
<trkpt lat="49.173010" lon="11.783635">
<ele>570.5</ele>
<speed>9.4</speed>
<course>211.6</course>
<desc>Speed 9.4 km/h Distance 49.21 km</desc>
<time>2010-06-13T10:21:04.94</time>
<name>13026</name>
</trkpt>
<trkpt lat="49.172982" lon="11.783608">
<ele>570.3</ele>
<speed>8.1</speed>
<course>217.8</course>
<desc>Speed 8.1 km/h Distance 49.21 km</desc>
<time>2010-06-13T10:21:05.94</time>
<name>13027</name>
</trkpt>
<trkpt lat="49.172955" lon="11.783577">
<ele>569.1</ele>
<speed>10.2</speed>
<course>228.6</course>
<desc>Speed 10.2 km/h Distance 49.21 km</desc>
<time>2010-06-13T10:21:06.94</time>
<name>13028</name>
</trkpt>
<trkpt lat="49.172930" lon="11.783533">
<ele>568.5</ele>
<speed>10.2</speed>
<course>239.1</course>
<desc>Speed 10.2 km/h Distance 49.22 km</desc>
<time>2010-06-13T10:21:07.94</time>
<name>13029</name>
</trkpt>
<trkpt lat="49.172882" lon="11.783410">
<ele>563.0</ele>
<speed>10.7</speed>
<course>215.4</course>
<desc>Speed 10.7 km/h Distance 49.23 km</desc>
<time>2010-06-13T10:21:09.94</time>
<name>13030</name>
</trkpt>
<trkpt lat="49.172805" lon="11.783327">
<ele>556.4</ele>
<speed>16.8</speed>
<course>207.8</course>
<desc>Speed 16.8 km/h Distance 49.24 km</desc>
<time>2010-06-13T10:21:11.94</time>
<name>13031</name>
</trkpt>
<trkpt lat="49.172762" lon="11.783292">
<ele>553.9</ele>
<speed>17.7</speed>
<course>202.4</course>
<desc>Speed 17.7 km/h Distance 49.24 km</desc>
<time>2010-06-13T10:21:12.94</time>
<name>13032</name>
</trkpt>
<trkpt lat="49.172717" lon="11.783263">
<ele>552.3</ele>
<speed>18.9</speed>
<course>207.0</course>
<desc>Speed 18.9 km/h Distance 49.25 km</desc>
<time>2010-06-13T10:21:13.94</time>
<name>13033</name>
</trkpt>
<trkpt lat="49.172672" lon="11.783228">
<ele>550.5</ele>
<speed>19.4</speed>
<course>213.2</course>
<desc>Speed 19.4 km/h Distance 49.25 km</desc>
<time>2010-06-13T10:21:14.94</time>
<name>13034</name>
</trkpt>
<trkpt lat="49.172630" lon="11.783187">
<ele>548.7</ele>
<speed>18.7</speed>
<course>225.2</course>
<desc>Speed 18.7 km/h Distance 49.26 km</desc>
<time>2010-06-13T10:21:15.94</time>
<name>13035</name>
</trkpt>
<trkpt lat="49.172590" lon="11.783125">
<ele>547.8</ele>
<speed>21.8</speed>
<course>226.4</course>
<desc>Speed 21.8 km/h Distance 49.27 km</desc>
<time>2010-06-13T10:21:16.94</time>
<name>13036</name>
</trkpt>
<trkpt lat="49.172552" lon="11.783063">
<ele>546.6</ele>
<speed>21.3</speed>
<course>225.7</course>
<desc>Speed 21.3 km/h Distance 49.27 km</desc>
<time>2010-06-13T10:21:17.94</time>
<name>13037</name>
</trkpt>
<trkpt lat="49.172513" lon="11.783003">
<ele>545.5</ele>
<speed>21.2</speed>
<course>223.2</course>
<desc>Speed 21.2 km/h Distance 49.28 km</desc>
<time>2010-06-13T10:21:18.94</time>
<name>13038</name>
</trkpt>
<trkpt lat="49.172475" lon="11.782948">
<ele>543.7</ele>
<speed>20.1</speed>
<course>224.0</course>
<desc>Speed 20.1 km/h Distance 49.28 km</desc>
<time>2010-06-13T10:21:19.94</time>
<name>13039</name>
</trkpt>
<trkpt lat="49.172437" lon="11.782892">
<ele>542.1</ele>
<speed>17.9</speed>
<course>216.8</course>
<desc>Speed 17.9 km/h Distance 49.29 km</desc>
<time>2010-06-13T10:21:20.94</time>
<name>13040</name>
</trkpt>
<trkpt lat="49.172402" lon="11.782852">
<ele>540.6</ele>
<speed>16.2</speed>
<course>219.6</course>
<desc>Speed 16.2 km/h Distance 49.30 km</desc>
<time>2010-06-13T10:21:21.94</time>
<name>13041</name>
</trkpt>
<trkpt lat="49.172370" lon="11.782812">
<ele>539.7</ele>
<speed>15.0</speed>
<course>231.6</course>
<desc>Speed 15.0 km/h Distance 49.30 km</desc>
<time>2010-06-13T10:21:22.94</time>
<name>13042</name>
</trkpt>
<trkpt lat="49.172347" lon="11.782767">
<ele>539.8</ele>
<speed>14.3</speed>
<course>238.5</course>
<desc>Speed 14.3 km/h Distance 49.30 km</desc>
<time>2010-06-13T10:21:23.94</time>
<name>13043</name>
</trkpt>
<trkpt lat="49.172330" lon="11.782725">
<ele>539.8</ele>
<speed>14.2</speed>
<course>248.5</course>
<desc>Speed 14.2 km/h Distance 49.31 km</desc>
<time>2010-06-13T10:21:24.94</time>
<name>13044</name>
</trkpt>
<trkpt lat="49.172317" lon="11.782673">
<ele>539.2</ele>
<speed>13.3</speed>
<course>250.9</course>
<desc>Speed 13.3 km/h Distance 49.31 km</desc>
<time>2010-06-13T10:21:25.94</time>
<name>13045</name>
</trkpt>
<trkpt lat="49.172305" lon="11.782622">
<ele>538.9</ele>
<speed>13.9</speed>
<course>258.0</course>
<desc>Speed 13.9 km/h Distance 49.32 km</desc>
<time>2010-06-13T10:21:26.94</time>
<name>13046</name>
</trkpt>
<trkpt lat="49.172295" lon="11.782550">
<ele>539.6</ele>
<speed>15.4</speed>
<course>270.0</course>
<desc>Speed 15.4 km/h Distance 49.32 km</desc>
<time>2010-06-13T10:21:27.94</time>
<name>13047</name>
</trkpt>
<trkpt lat="49.172295" lon="11.782492">
<ele>538.3</ele>
<speed>15.4</speed>
<course>276.7</course>
<desc>Speed 15.4 km/h Distance 49.33 km</desc>
<time>2010-06-13T10:21:28.94</time>
<name>13048</name>
</trkpt>
<trkpt lat="49.172300" lon="11.782427">
<ele>537.9</ele>
<speed>16.2</speed>
<course>277.4</course>
<desc>Speed 16.2 km/h Distance 49.33 km</desc>
<time>2010-06-13T10:21:29.94</time>
<name>13049</name>
</trkpt>
<trkpt lat="49.172313" lon="11.782270">
<ele>539.6</ele>
<speed>17.9</speed>
<course>282.8</course>
<desc>Speed 17.9 km/h Distance 49.34 km</desc>
<time>2010-06-13T10:21:31.94</time>
<name>13050</name>
</trkpt>
<trkpt lat="49.172325" lon="11.782192">
<ele>539.1</ele>
<speed>18.9</speed>
<course>302.1</course>
<desc>Speed 18.9 km/h Distance 49.35 km</desc>
<time>2010-06-13T10:21:32.94</time>
<name>13051</name>
</trkpt>
<trkpt lat="49.172352" lon="11.782127">
<ele>539.3</ele>
<speed>17.8</speed>
<course>295.8</course>
<desc>Speed 17.8 km/h Distance 49.35 km</desc>
<time>2010-06-13T10:21:33.94</time>
<name>13052</name>
</trkpt>
<trkpt lat="49.172403" lon="11.781963">
<ele>536.5</ele>
<speed>19.0</speed>
<course>276.9</course>
<desc>Speed 19.0 km/h Distance 49.37 km</desc>
<time>2010-06-13T10:21:35.94</time>
<name>13053</name>
</trkpt>
<trkpt lat="49.172408" lon="11.781900">
<ele>535.5</ele>
<speed>19.1</speed>
<course>264.3</course>
<desc>Speed 19.1 km/h Distance 49.37 km</desc>
<time>2010-06-13T10:21:36.94</time>
<name>13054</name>
</trkpt>
<trkpt lat="49.172403" lon="11.781823">
<ele>537.3</ele>
<speed>19.7</speed>
<course>293.6</course>
<desc>Speed 19.7 km/h Distance 49.38 km</desc>
<time>2010-06-13T10:21:37.94</time>
<name>13055</name>
</trkpt>
<trkpt lat="49.172420" lon="11.781765">
<ele>538.3</ele>
<speed>17.3</speed>
<course>289.8</course>
<desc>Speed 17.3 km/h Distance 49.38 km</desc>
<time>2010-06-13T10:21:38.94</time>
<name>13056</name>
</trkpt>
<trkpt lat="49.172433" lon="11.781708">
<ele>537.5</ele>
<speed>17.1</speed>
<course>271.8</course>
<desc>Speed 17.1 km/h Distance 49.39 km</desc>
<time>2010-06-13T10:21:39.94</time>
<name>13057</name>
</trkpt>
<trkpt lat="49.172435" lon="11.781628">
<ele>536.9</ele>
<speed>18.0</speed>
<course>275.7</course>
<desc>Speed 18.0 km/h Distance 49.39 km</desc>
<time>2010-06-13T10:21:40.94</time>
<name>13058</name>
</trkpt>
<trkpt lat="49.172440" lon="11.781552">
<ele>536.9</ele>
<speed>18.5</speed>
<course>282.3</course>
<desc>Speed 18.5 km/h Distance 49.40 km</desc>
<time>2010-06-13T10:21:41.94</time>
<name>13059</name>
</trkpt>
<trkpt lat="49.172448" lon="11.781493">
<ele>538.0</ele>
<speed>18.0</speed>
<course>286.2</course>
<desc>Speed 18.0 km/h Distance 49.40 km</desc>
<time>2010-06-13T10:21:42.94</time>
<name>13060</name>
</trkpt>
<trkpt lat="49.172462" lon="11.781423">
<ele>539.2</ele>
<speed>20.0</speed>
<course>284.2</course>
<desc>Speed 20.0 km/h Distance 49.41 km</desc>
<time>2010-06-13T10:21:43.94</time>
<name>13061</name>
</trkpt>
<trkpt lat="49.172490" lon="11.781252">
<ele>540.4</ele>
<speed>21.6</speed>
<course>276.7</course>
<desc>Speed 21.6 km/h Distance 49.42 km</desc>
<time>2010-06-13T10:21:45.94</time>
<name>13062</name>
</trkpt>
<trkpt lat="49.172497" lon="11.781165">
<ele>540.2</ele>
<speed>21.9</speed>
<course>280.4</course>
<desc>Speed 21.9 km/h Distance 49.43 km</desc>
<time>2010-06-13T10:21:46.94</time>
<name>13063</name>
</trkpt>
<trkpt lat="49.172507" lon="11.781082">
<ele>541.2</ele>
<speed>22.1</speed>
<course>281.9</course>
<desc>Speed 22.1 km/h Distance 49.43 km</desc>
<time>2010-06-13T10:21:47.94</time>
<name>13064</name>
</trkpt>
<trkpt lat="49.172518" lon="11.780997">
<ele>541.5</ele>
<speed>22.3</speed>
<course>281.2</course>
<desc>Speed 22.3 km/h Distance 49.44 km</desc>
<time>2010-06-13T10:21:48.94</time>
<name>13065</name>
</trkpt>
<trkpt lat="49.172530" lon="11.780907">
<ele>541.7</ele>
<speed>22.4</speed>
<course>281.4</course>
<desc>Speed 22.4 km/h Distance 49.45 km</desc>
<time>2010-06-13T10:21:49.95</time>
<name>13066</name>
</trkpt>
<trkpt lat="49.172542" lon="11.780818">
<ele>542.4</ele>
<speed>23.4</speed>
<course>280.6</course>
<desc>Speed 23.4 km/h Distance 49.45 km</desc>
<time>2010-06-13T10:21:50.96</time>
<name>13067</name>
</trkpt>
<trkpt lat="49.172553" lon="11.780723">
<ele>542.7</ele>
<speed>24.1</speed>
<course>278.6</course>
<desc>Speed 24.1 km/h Distance 49.46 km</desc>
<time>2010-06-13T10:21:51.96</time>
<name>13068</name>
</trkpt>
<trkpt lat="49.172563" lon="11.780622">
<ele>543.0</ele>
<speed>23.7</speed>
<course>279.5</course>
<desc>Speed 23.7 km/h Distance 49.47 km</desc>
<time>2010-06-13T10:21:52.96</time>
<name>13069</name>
</trkpt>
<trkpt lat="49.172573" lon="11.780530">
<ele>542.8</ele>
<speed>23.6</speed>
<course>279.5</course>
<desc>Speed 23.6 km/h Distance 49.47 km</desc>
<time>2010-06-13T10:21:53.96</time>
<name>13070</name>
</trkpt>
<trkpt lat="49.172583" lon="11.780438">
<ele>543.0</ele>
<speed>24.1</speed>
<course>284.3</course>
<desc>Speed 24.1 km/h Distance 49.48 km</desc>
<time>2010-06-13T10:21:54.96</time>
<name>13071</name>
</trkpt>
<trkpt lat="49.172598" lon="11.780348">
<ele>542.0</ele>
<speed>24.9</speed>
<course>281.2</course>
<desc>Speed 24.9 km/h Distance 49.49 km</desc>
<time>2010-06-13T10:21:55.96</time>
<name>13072</name>
</trkpt>
<trkpt lat="49.172610" lon="11.780258">
<ele>542.1</ele>
<speed>24.8</speed>
<course>279.1</course>
<desc>Speed 24.8 km/h Distance 49.49 km</desc>
<time>2010-06-13T10:21:56.96</time>
<name>13073</name>
</trkpt>
<trkpt lat="49.172620" lon="11.780163">
<ele>542.1</ele>
<speed>24.8</speed>
<course>280.5</course>
<desc>Speed 24.8 km/h Distance 49.50 km</desc>
<time>2010-06-13T10:21:57.96</time>
<name>13074</name>
</trkpt>
<trkpt lat="49.172632" lon="11.780067">
<ele>542.2</ele>
<speed>25.4</speed>
<course>281.9</course>
<desc>Speed 25.4 km/h Distance 49.51 km</desc>
<time>2010-06-13T10:21:58.96</time>
<name>13075</name>
</trkpt>
<trkpt lat="49.172645" lon="11.779970">
<ele>542.2</ele>
<speed>26.3</speed>
<course>280.1</course>
<desc>Speed 26.3 km/h Distance 49.51 km</desc>
<time>2010-06-13T10:21:59.96</time>
<name>13076</name>
</trkpt>
<trkpt lat="49.172657" lon="11.779870">
<ele>542.0</ele>
<speed>27.1</speed>
<course>279.8</course>
<desc>Speed 27.1 km/h Distance 49.52 km</desc>
<time>2010-06-13T10:22:00.96</time>
<name>13077</name>
</trkpt>
<trkpt lat="49.172668" lon="11.779767">
<ele>541.9</ele>
<speed>27.2</speed>
<course>279.6</course>
<desc>Speed 27.2 km/h Distance 49.53 km</desc>
<time>2010-06-13T10:22:01.96</time>
<name>13078</name>
</trkpt>
<trkpt lat="49.172680" lon="11.779662">
<ele>541.7</ele>
<speed>27.7</speed>
<course>279.5</course>
<desc>Speed 27.7 km/h Distance 49.54 km</desc>
<time>2010-06-13T10:22:02.96</time>
<name>13079</name>
</trkpt>
<trkpt lat="49.172692" lon="11.779555">
<ele>541.5</ele>
<speed>28.1</speed>
<course>279.4</course>
<desc>Speed 28.1 km/h Distance 49.55 km</desc>
<time>2010-06-13T10:22:03.96</time>
<name>13080</name>
</trkpt>
<trkpt lat="49.172703" lon="11.779447">
<ele>541.5</ele>
<speed>27.8</speed>
<course>281.2</course>
<desc>Speed 27.8 km/h Distance 49.55 km</desc>
<time>2010-06-13T10:22:04.96</time>
<name>13081</name>
</trkpt>
<trkpt lat="49.172717" lon="11.779343">
<ele>541.5</ele>
<speed>27.5</speed>
<course>281.0</course>
<desc>Speed 27.5 km/h Distance 49.56 km</desc>
<time>2010-06-13T10:22:05.96</time>
<name>13082</name>
</trkpt>
<trkpt lat="49.172730" lon="11.779238">
<ele>541.5</ele>
<speed>27.6</speed>
<course>280.8</course>
<desc>Speed 27.6 km/h Distance 49.57 km</desc>
<time>2010-06-13T10:22:06.96</time>
<name>13083</name>
</trkpt>
<trkpt lat="49.172743" lon="11.779132">
<ele>541.4</ele>
<speed>28.4</speed>
<course>280.7</course>
<desc>Speed 28.4 km/h Distance 49.58 km</desc>
<time>2010-06-13T10:22:07.96</time>
<name>13084</name>
</trkpt>
<trkpt lat="49.172757" lon="11.779023">
<ele>541.1</ele>
<speed>29.0</speed>
<course>281.8</course>
<desc>Speed 29.0 km/h Distance 49.58 km</desc>
<time>2010-06-13T10:22:08.96</time>
<name>13085</name>
</trkpt>
<trkpt lat="49.172772" lon="11.778913">
<ele>540.9</ele>
<speed>28.9</speed>
<course>280.5</course>
<desc>Speed 28.9 km/h Distance 49.59 km</desc>
<time>2010-06-13T10:22:09.96</time>
<name>13086</name>
</trkpt>
<trkpt lat="49.172785" lon="11.778803">
<ele>540.9</ele>
<speed>29.3</speed>
<course>280.5</course>
<desc>Speed 29.3 km/h Distance 49.60 km</desc>
<time>2010-06-13T10:22:10.96</time>
<name>13087</name>
</trkpt>
<trkpt lat="49.172798" lon="11.778693">
<ele>540.6</ele>
<speed>28.9</speed>
<course>280.4</course>
<desc>Speed 28.9 km/h Distance 49.61 km</desc>
<time>2010-06-13T10:22:11.96</time>
<name>13088</name>
</trkpt>
<trkpt lat="49.172812" lon="11.778582">
<ele>540.4</ele>
<speed>29.7</speed>
<course>280.2</course>
<desc>Speed 29.7 km/h Distance 49.62 km</desc>
<time>2010-06-13T10:22:12.96</time>
<name>13089</name>
</trkpt>
<trkpt lat="49.172825" lon="11.778468">
<ele>540.1</ele>
<speed>30.4</speed>
<course>278.7</course>
<desc>Speed 30.4 km/h Distance 49.63 km</desc>
<time>2010-06-13T10:22:13.96</time>
<name>13090</name>
</trkpt>
<trkpt lat="49.172837" lon="11.778352">
<ele>539.9</ele>
<speed>31.0</speed>
<course>280.8</course>
<desc>Speed 31.0 km/h Distance 49.63 km</desc>
<time>2010-06-13T10:22:14.96</time>
<name>13091</name>
</trkpt>
<trkpt lat="49.172852" lon="11.778232">
<ele>539.3</ele>
<speed>31.4</speed>
<course>279.5</course>
<desc>Speed 31.4 km/h Distance 49.64 km</desc>
<time>2010-06-13T10:22:15.96</time>
<name>13092</name>
</trkpt>
<trkpt lat="49.172865" lon="11.778110">
<ele>538.7</ele>
<speed>32.3</speed>
<course>283.0</course>
<desc>Speed 32.3 km/h Distance 49.65 km</desc>
<time>2010-06-13T10:22:16.96</time>
<name>13093</name>
</trkpt>
<trkpt lat="49.172883" lon="11.777988">
<ele>538.2</ele>
<speed>32.5</speed>
<course>280.5</course>
<desc>Speed 32.5 km/h Distance 49.66 km</desc>
<time>2010-06-13T10:22:17.96</time>
<name>13094</name>
</trkpt>
<trkpt lat="49.172898" lon="11.777865">
<ele>537.7</ele>
<speed>32.7</speed>
<course>280.7</course>
<desc>Speed 32.7 km/h Distance 49.67 km</desc>
<time>2010-06-13T10:22:18.96</time>
<name>13095</name>
</trkpt>
<trkpt lat="49.172913" lon="11.777743">
<ele>537.3</ele>
<speed>32.2</speed>
<course>281.1</course>
<desc>Speed 32.2 km/h Distance 49.68 km</desc>
<time>2010-06-13T10:22:19.96</time>
<name>13096</name>
</trkpt>
<trkpt lat="49.172928" lon="11.777627">
<ele>536.8</ele>
<speed>30.1</speed>
<course>281.6</course>
<desc>Speed 30.1 km/h Distance 49.69 km</desc>
<time>2010-06-13T10:22:20.96</time>
<name>13097</name>
</trkpt>
<trkpt lat="49.172943" lon="11.777515">
<ele>536.5</ele>
<speed>29.0</speed>
<course>281.8</course>
<desc>Speed 29.0 km/h Distance 49.70 km</desc>
<time>2010-06-13T10:22:21.96</time>
<name>13098</name>
</trkpt>
<trkpt lat="49.172958" lon="11.777405">
<ele>536.2</ele>
<speed>29.5</speed>
<course>281.8</course>
<desc>Speed 29.5 km/h Distance 49.70 km</desc>
<time>2010-06-13T10:22:22.96</time>
<name>13099</name>
</trkpt>
<trkpt lat="49.172973" lon="11.777295">
<ele>535.9</ele>
<speed>29.0</speed>
<course>282.5</course>
<desc>Speed 29.0 km/h Distance 49.71 km</desc>
<time>2010-06-13T10:22:23.96</time>
<name>13100</name>
</trkpt>
<trkpt lat="49.172988" lon="11.777192">
<ele>535.4</ele>
<speed>26.9</speed>
<course>285.0</course>
<desc>Speed 26.9 km/h Distance 49.72 km</desc>
<time>2010-06-13T10:22:24.96</time>
<name>13101</name>
</trkpt>
<trkpt lat="49.173005" lon="11.777097">
<ele>535.1</ele>
<speed>25.0</speed>
<course>282.1</course>
<desc>Speed 25.0 km/h Distance 49.73 km</desc>
<time>2010-06-13T10:22:25.96</time>
<name>13102</name>
</trkpt>
<trkpt lat="49.173017" lon="11.777013">
<ele>534.7</ele>
<speed>20.6</speed>
<course>278.7</course>
<desc>Speed 20.6 km/h Distance 49.73 km</desc>
<time>2010-06-13T10:22:26.96</time>
<name>13103</name>
</trkpt>
<trkpt lat="49.173023" lon="11.776947">
<ele>534.1</ele>
<speed>16.7</speed>
<course>264.5</course>
<desc>Speed 16.7 km/h Distance 49.74 km</desc>
<time>2010-06-13T10:22:27.96</time>
<name>13104</name>
</trkpt>
<trkpt lat="49.173020" lon="11.776893">
<ele>534.0</ele>
<speed>13.9</speed>
<course>246.4</course>
<desc>Speed 13.9 km/h Distance 49.74 km</desc>
<time>2010-06-13T10:22:28.96</time>
<name>13105</name>
</trkpt>
<trkpt lat="49.173007" lon="11.776847">
<ele>533.5</ele>
<speed>12.7</speed>
<course>201.0</course>
<desc>Speed 12.7 km/h Distance 49.75 km</desc>
<time>2010-06-13T10:22:29.96</time>
<name>13106</name>
</trkpt>
<trkpt lat="49.172978" lon="11.776830">
<ele>532.9</ele>
<speed>13.0</speed>
<course>169.8</course>
<desc>Speed 13.0 km/h Distance 49.75 km</desc>
<time>2010-06-13T10:22:30.96</time>
<name>13107</name>
</trkpt>
<trkpt lat="49.172942" lon="11.776840">
<ele>532.3</ele>
<speed>14.9</speed>
<course>155.1</course>
<desc>Speed 14.9 km/h Distance 49.75 km</desc>
<time>2010-06-13T10:22:31.96</time>
<name>13108</name>
</trkpt>
<trkpt lat="49.172902" lon="11.776868">
<ele>531.7</ele>
<speed>14.4</speed>
<course>166.3</course>
<desc>Speed 14.4 km/h Distance 49.76 km</desc>
<time>2010-06-13T10:22:32.96</time>
<name>13109</name>
</trkpt>
<trkpt lat="49.172857" lon="11.776885">
<ele>531.2</ele>
<speed>17.5</speed>
<course>172.6</course>
<desc>Speed 17.5 km/h Distance 49.76 km</desc>
<time>2010-06-13T10:22:33.96</time>
<name>13110</name>
</trkpt>
<trkpt lat="49.172807" lon="11.776895">
<ele>530.9</ele>
<speed>18.8</speed>
<course>173.8</course>
<desc>Speed 18.8 km/h Distance 49.77 km</desc>
<time>2010-06-13T10:22:34.96</time>
<name>13111</name>
</trkpt>
<trkpt lat="49.172757" lon="11.776903">
<ele>530.3</ele>
<speed>19.1</speed>
<course>174.4</course>
<desc>Speed 19.1 km/h Distance 49.78 km</desc>
<time>2010-06-13T10:22:35.96</time>
<name>13112</name>
</trkpt>
<trkpt lat="49.172702" lon="11.776912">
<ele>529.9</ele>
<speed>20.6</speed>
<course>173.1</course>
<desc>Speed 20.6 km/h Distance 49.78 km</desc>
<time>2010-06-13T10:22:36.96</time>
<name>13113</name>
</trkpt>
<trkpt lat="49.172648" lon="11.776922">
<ele>529.4</ele>
<speed>21.6</speed>
<course>169.6</course>
<desc>Speed 21.6 km/h Distance 49.79 km</desc>
<time>2010-06-13T10:22:37.96</time>
<name>13114</name>
</trkpt>
<trkpt lat="49.172583" lon="11.776940">
<ele>528.7</ele>
<speed>22.0</speed>
<course>167.7</course>
<desc>Speed 22.0 km/h Distance 49.79 km</desc>
<time>2010-06-13T10:22:38.96</time>
<name>13115</name>
</trkpt>
<trkpt lat="49.172518" lon="11.776962">
<ele>527.8</ele>
<speed>21.6</speed>
<course>174.0</course>
<desc>Speed 21.6 km/h Distance 49.80 km</desc>
<time>2010-06-13T10:22:39.96</time>
<name>13116</name>
</trkpt>
<trkpt lat="49.172457" lon="11.776972">
<ele>527.4</ele>
<speed>22.6</speed>
<course>168.6</course>
<desc>Speed 22.6 km/h Distance 49.81 km</desc>
<time>2010-06-13T10:22:40.96</time>
<name>13117</name>
</trkpt>
<trkpt lat="49.172408" lon="11.776987">
<ele>526.4</ele>
<speed>22.4</speed>
<course>177.8</course>
<desc>Speed 22.4 km/h Distance 49.81 km</desc>
<time>2010-06-13T10:22:41.96</time>
<name>13118</name>
</trkpt>
<trkpt lat="49.172350" lon="11.776990">
<ele>526.2</ele>
<speed>22.2</speed>
<course>174.0</course>
<desc>Speed 22.2 km/h Distance 49.82 km</desc>
<time>2010-06-13T10:22:42.96</time>
<name>13119</name>
</trkpt>
<trkpt lat="49.172308" lon="11.776997">
<ele>525.7</ele>
<speed>19.2</speed>
<course>178.3</course>
<desc>Speed 19.2 km/h Distance 49.83 km</desc>
<time>2010-06-13T10:22:43.96</time>
<name>13120</name>
</trkpt>
<trkpt lat="49.172273" lon="11.776997">
<ele>525.6</ele>
<speed>17.4</speed>
<course>169.3</course>
<desc>Speed 17.4 km/h Distance 49.83 km</desc>
<time>2010-06-13T10:22:44.96</time>
<name>13121</name>
</trkpt>
<trkpt lat="49.172222" lon="11.777012">
<ele>525.6</ele>
<speed>17.4</speed>
<course>180.0</course>
<desc>Speed 17.4 km/h Distance 49.84 km</desc>
<time>2010-06-13T10:22:45.96</time>
<name>13122</name>
</trkpt>
<trkpt lat="49.172177" lon="11.777012">
<ele>526.6</ele>
<speed>19.1</speed>
<course>181.1</course>
<desc>Speed 19.1 km/h Distance 49.84 km</desc>
<time>2010-06-13T10:22:46.96</time>
<name>13123</name>
</trkpt>
<trkpt lat="49.172127" lon="11.777010">
<ele>526.3</ele>
<speed>20.1</speed>
<course>174.0</course>
<desc>Speed 20.1 km/h Distance 49.85 km</desc>
<time>2010-06-13T10:22:47.96</time>
<name>13124</name>
</trkpt>
<trkpt lat="49.172075" lon="11.777018">
<ele>525.5</ele>
<speed>22.0</speed>
<course>172.1</course>
<desc>Speed 22.0 km/h Distance 49.85 km</desc>
<time>2010-06-13T10:22:48.96</time>
<name>13125</name>
</trkpt>
<trkpt lat="49.172020" lon="11.777030">
<ele>524.6</ele>
<speed>23.3</speed>
<course>172.6</course>
<desc>Speed 23.3 km/h Distance 49.86 km</desc>
<time>2010-06-13T10:22:49.96</time>
<name>13126</name>
</trkpt>
<trkpt lat="49.171962" lon="11.777042">
<ele>523.8</ele>
<speed>24.7</speed>
<course>170.7</course>
<desc>Speed 24.7 km/h Distance 49.86 km</desc>
<time>2010-06-13T10:22:50.96</time>
<name>13127</name>
</trkpt>
<trkpt lat="49.171902" lon="11.777057">
<ele>522.4</ele>
<speed>25.2</speed>
<course>177.0</course>
<desc>Speed 25.2 km/h Distance 49.87 km</desc>
<time>2010-06-13T10:22:51.96</time>
<name>13128</name>
</trkpt>
<trkpt lat="49.171838" lon="11.777062">
<ele>522.1</ele>
<speed>25.5</speed>
<course>176.1</course>
<desc>Speed 25.5 km/h Distance 49.88 km</desc>
<time>2010-06-13T10:22:52.96</time>
<name>13129</name>
</trkpt>
<trkpt lat="49.171773" lon="11.777068">
<ele>521.8</ele>
<speed>26.6</speed>
<course>172.3</course>
<desc>Speed 26.6 km/h Distance 49.89 km</desc>
<time>2010-06-13T10:22:53.96</time>
<name>13130</name>
</trkpt>
<trkpt lat="49.171708" lon="11.777082">
<ele>520.6</ele>
<speed>27.0</speed>
<course>175.5</course>
<desc>Speed 27.0 km/h Distance 49.89 km</desc>
<time>2010-06-13T10:22:54.96</time>
<name>13131</name>
</trkpt>
<trkpt lat="49.171640" lon="11.777090">
<ele>519.8</ele>
<speed>27.9</speed>
<course>176.5</course>
<desc>Speed 27.9 km/h Distance 49.90 km</desc>
<time>2010-06-13T10:22:55.96</time>
<name>13132</name>
</trkpt>
<trkpt lat="49.171570" lon="11.777097">
<ele>519.0</ele>
<speed>28.4</speed>
<course>179.4</course>
<desc>Speed 28.4 km/h Distance 49.91 km</desc>
<time>2010-06-13T10:22:56.96</time>
<name>13133</name>
</trkpt>
<trkpt lat="49.171498" lon="11.777098">
<ele>518.5</ele>
<speed>28.6</speed>
<course>179.6</course>
<desc>Speed 28.6 km/h Distance 49.92 km</desc>
<time>2010-06-13T10:22:57.96</time>
<name>13134</name>
</trkpt>
<trkpt lat="49.171425" lon="11.777098">
<ele>518.1</ele>
<speed>29.3</speed>
<course>176.7</course>
<desc>Speed 29.3 km/h Distance 49.92 km</desc>
<time>2010-06-13T10:22:58.96</time>
<name>13135</name>
</trkpt>
<trkpt lat="49.171350" lon="11.777105">
<ele>517.2</ele>
<speed>30.2</speed>
<course>179.9</course>
<desc>Speed 30.2 km/h Distance 49.93 km</desc>
<time>2010-06-13T10:22:59.96</time>
<name>13136</name>
</trkpt>
<trkpt lat="49.171272" lon="11.777105">
<ele>516.9</ele>
<speed>31.2</speed>
<course>181.5</course>
<desc>Speed 31.2 km/h Distance 49.94 km</desc>
<time>2010-06-13T10:23:00.96</time>
<name>13137</name>
</trkpt>
<trkpt lat="49.171190" lon="11.777102">
<ele>516.6</ele>
<speed>32.0</speed>
<course>179.1</course>
<desc>Speed 32.0 km/h Distance 49.95 km</desc>
<time>2010-06-13T10:23:01.96</time>
<name>13138</name>
</trkpt>
<trkpt lat="49.171110" lon="11.777103">
<ele>515.7</ele>
<speed>32.7</speed>
<course>182.3</course>
<desc>Speed 32.7 km/h Distance 49.96 km</desc>
<time>2010-06-13T10:23:02.96</time>
<name>13139</name>
</trkpt>
<trkpt lat="49.171027" lon="11.777098">
<ele>515.8</ele>
<speed>32.8</speed>
<course>179.9</course>
<desc>Speed 32.8 km/h Distance 49.97 km</desc>
<time>2010-06-13T10:23:03.96</time>
<name>13140</name>
</trkpt>
<trkpt lat="49.170948" lon="11.777098">
<ele>515.3</ele>
<speed>30.3</speed>
<course>169.8</course>
<desc>Speed 30.3 km/h Distance 49.98 km</desc>
<time>2010-06-13T10:23:04.96</time>
<name>13141</name>
</trkpt>
<trkpt lat="49.170882" lon="11.777117">
<ele>513.8</ele>
<speed>26.4</speed>
<course>169.1</course>
<desc>Speed 26.4 km/h Distance 49.99 km</desc>
<time>2010-06-13T10:23:05.96</time>
<name>13142</name>
</trkpt>
<trkpt lat="49.170825" lon="11.777133">
<ele>513.6</ele>
<speed>23.0</speed>
<course>163.2</course>
<desc>Speed 23.0 km/h Distance 49.99 km</desc>
<time>2010-06-13T10:23:06.96</time>
<name>13143</name>
</trkpt>
<trkpt lat="49.170782" lon="11.777153">
<ele>513.7</ele>
<speed>21.1</speed>
<course>179.8</course>
<desc>Speed 21.1 km/h Distance 50.00 km</desc>
<time>2010-06-13T10:23:07.96</time>
<name>13144</name>
</trkpt>
<trkpt lat="49.170727" lon="11.777153">
<ele>515.3</ele>
<speed>21.4</speed>
<course>182.2</course>
<desc>Speed 21.4 km/h Distance 50.00 km</desc>
<time>2010-06-13T10:23:08.96</time>
<name>13145</name>
</trkpt>
<trkpt lat="49.170670" lon="11.777150">
<ele>515.1</ele>
<speed>23.0</speed>
<course>183.1</course>
<desc>Speed 23.0 km/h Distance 50.01 km</desc>
<time>2010-06-13T10:23:09.96</time>
<name>13146</name>
</trkpt>
<trkpt lat="49.170612" lon="11.777145">
<ele>515.1</ele>
<speed>24.2</speed>
<course>184.1</course>
<desc>Speed 24.2 km/h Distance 50.02 km</desc>
<time>2010-06-13T10:23:10.96</time>
<name>13147</name>
</trkpt>
<trkpt lat="49.170535" lon="11.777137">
<ele>516.0</ele>
<speed>26.4</speed>
<course>187.3</course>
<desc>Speed 26.4 km/h Distance 50.02 km</desc>
<time>2010-06-13T10:23:11.96</time>
<name>13148</name>
</trkpt>
<trkpt lat="49.170467" lon="11.777123">
<ele>515.8</ele>
<speed>27.9</speed>
<course>193.5</course>
<desc>Speed 27.9 km/h Distance 50.03 km</desc>
<time>2010-06-13T10:23:12.96</time>
<name>13149</name>
</trkpt>
<trkpt lat="49.170385" lon="11.777093">
<ele>515.0</ele>
<speed>27.2</speed>
<course>196.1</course>
<desc>Speed 27.2 km/h Distance 50.04 km</desc>
<time>2010-06-13T10:23:13.96</time>
<name>13150</name>
</trkpt>
<trkpt lat="49.170313" lon="11.777062">
<ele>515.2</ele>
<speed>26.2</speed>
<course>200.1</course>
<desc>Speed 26.2 km/h Distance 50.05 km</desc>
<time>2010-06-13T10:23:14.96</time>
<name>13151</name>
</trkpt>
<trkpt lat="49.170242" lon="11.777022">
<ele>515.7</ele>
<speed>25.7</speed>
<course>201.1</course>
<desc>Speed 25.7 km/h Distance 50.06 km</desc>
<time>2010-06-13T10:23:15.96</time>
<name>13152</name>
</trkpt>
<trkpt lat="49.170177" lon="11.776983">
<ele>515.7</ele>
<speed>25.0</speed>
<course>199.9</course>
<desc>Speed 25.0 km/h Distance 50.07 km</desc>
<time>2010-06-13T10:23:16.96</time>
<name>13153</name>
</trkpt>
<trkpt lat="49.170113" lon="11.776948">
<ele>516.4</ele>
<speed>23.5</speed>
<course>200.5</course>
<desc>Speed 23.5 km/h Distance 50.07 km</desc>
<time>2010-06-13T10:23:17.96</time>
<name>13154</name>
</trkpt>
<trkpt lat="49.170055" lon="11.776915">
<ele>517.9</ele>
<speed>22.8</speed>
<course>202.1</course>
<desc>Speed 22.8 km/h Distance 50.08 km</desc>
<time>2010-06-13T10:23:18.96</time>
<name>13155</name>
</trkpt>
<trkpt lat="49.170007" lon="11.776885">
<ele>519.0</ele>
<speed>21.5</speed>
<course>199.6</course>
<desc>Speed 21.5 km/h Distance 50.09 km</desc>
<time>2010-06-13T10:23:19.96</time>
<name>13156</name>
</trkpt>
<trkpt lat="49.169952" lon="11.776855">
<ele>520.4</ele>
<speed>20.7</speed>
<course>202.6</course>
<desc>Speed 20.7 km/h Distance 50.09 km</desc>
<time>2010-06-13T10:23:20.96</time>
<name>13157</name>
</trkpt>
<trkpt lat="49.169897" lon="11.776820">
<ele>523.3</ele>
<speed>21.6</speed>
<course>207.2</course>
<desc>Speed 21.6 km/h Distance 50.10 km</desc>
<time>2010-06-13T10:23:21.96</time>
<name>13158</name>
</trkpt>
<trkpt lat="49.169842" lon="11.776777">
<ele>524.5</ele>
<speed>22.5</speed>
<course>205.9</course>
<desc>Speed 22.5 km/h Distance 50.11 km</desc>
<time>2010-06-13T10:23:22.96</time>
<name>13159</name>
</trkpt>
<trkpt lat="49.169783" lon="11.776733">
<ele>525.7</ele>
<speed>23.5</speed>
<course>209.1</course>
<desc>Speed 23.5 km/h Distance 50.11 km</desc>
<time>2010-06-13T10:23:23.96</time>
<name>13160</name>
</trkpt>
<trkpt lat="49.169727" lon="11.776685">
<ele>526.3</ele>
<speed>22.9</speed>
<course>208.4</course>
<desc>Speed 22.9 km/h Distance 50.12 km</desc>
<time>2010-06-13T10:23:24.96</time>
<name>13161</name>
</trkpt>
<trkpt lat="49.169678" lon="11.776645">
<ele>527.0</ele>
<speed>22.1</speed>
<course>197.6</course>
<desc>Speed 22.1 km/h Distance 50.13 km</desc>
<time>2010-06-13T10:23:25.96</time>
<name>13162</name>
</trkpt>
<trkpt lat="49.169620" lon="11.776617">
<ele>526.1</ele>
<speed>20.9</speed>
<course>202.5</course>
<desc>Speed 20.9 km/h Distance 50.13 km</desc>
<time>2010-06-13T10:23:26.96</time>
<name>13163</name>
</trkpt>
<trkpt lat="49.169570" lon="11.776585">
<ele>524.8</ele>
<speed>20.2</speed>
<course>209.1</course>
<desc>Speed 20.2 km/h Distance 50.14 km</desc>
<time>2010-06-13T10:23:27.96</time>
<name>13164</name>
</trkpt>
<trkpt lat="49.169525" lon="11.776547">
<ele>525.6</ele>
<speed>20.0</speed>
<course>205.5</course>
<desc>Speed 20.0 km/h Distance 50.14 km</desc>
<time>2010-06-13T10:23:28.96</time>
<name>13165</name>
</trkpt>
<trkpt lat="49.169482" lon="11.776515">
<ele>527.5</ele>
<speed>21.4</speed>
<course>215.7</course>
<desc>Speed 21.4 km/h Distance 50.15 km</desc>
<time>2010-06-13T10:23:29.96</time>
<name>13166</name>
</trkpt>
<trkpt lat="49.169432" lon="11.776460">
<ele>528.9</ele>
<speed>21.9</speed>
<course>206.9</course>
<desc>Speed 21.9 km/h Distance 50.16 km</desc>
<time>2010-06-13T10:23:30.96</time>
<name>13167</name>
</trkpt>
<trkpt lat="49.169380" lon="11.776420">
<ele>527.8</ele>
<speed>22.2</speed>
<course>209.9</course>
<desc>Speed 22.2 km/h Distance 50.16 km</desc>
<time>2010-06-13T10:23:31.96</time>
<name>13168</name>
</trkpt>
<trkpt lat="49.169325" lon="11.776372">
<ele>528.8</ele>
<speed>22.6</speed>
<course>201.0</course>
<desc>Speed 22.6 km/h Distance 50.17 km</desc>
<time>2010-06-13T10:23:32.96</time>
<name>13169</name>
</trkpt>
<trkpt lat="49.169268" lon="11.776338">
<ele>528.2</ele>
<speed>20.9</speed>
<course>205.6</course>
<desc>Speed 20.9 km/h Distance 50.18 km</desc>
<time>2010-06-13T10:23:33.96</time>
<name>13170</name>
</trkpt>
<trkpt lat="49.169218" lon="11.776302">
<ele>527.4</ele>
<speed>20.6</speed>
<course>197.5</course>
<desc>Speed 20.6 km/h Distance 50.18 km</desc>
<time>2010-06-13T10:23:34.96</time>
<name>13171</name>
</trkpt>
<trkpt lat="49.169173" lon="11.776280">
<ele>528.4</ele>
<speed>19.3</speed>
<course>203.6</course>
<desc>Speed 19.3 km/h Distance 50.19 km</desc>
<time>2010-06-13T10:23:35.96</time>
<name>13172</name>
</trkpt>
<trkpt lat="49.169128" lon="11.776250">
<ele>526.9</ele>
<speed>17.7</speed>
<course>186.3</course>
<desc>Speed 17.7 km/h Distance 50.19 km</desc>
<time>2010-06-13T10:23:36.96</time>
<name>13173</name>
</trkpt>
<trkpt lat="49.169080" lon="11.776242">
<ele>526.9</ele>
<speed>15.9</speed>
<course>178.1</course>
<desc>Speed 15.9 km/h Distance 50.20 km</desc>
<time>2010-06-13T10:23:37.96</time>
<name>13174</name>
</trkpt>
<trkpt lat="49.169047" lon="11.776243">
<ele>526.0</ele>
<speed>14.7</speed>
<course>178.8</course>
<desc>Speed 14.7 km/h Distance 50.20 km</desc>
<time>2010-06-13T10:23:38.96</time>
<name>13175</name>
</trkpt>
<trkpt lat="49.169007" lon="11.776243">
<ele>525.9</ele>
<speed>15.3</speed>
<course>165.4</course>
<desc>Speed 15.3 km/h Distance 50.21 km</desc>
<time>2010-06-13T10:23:39.96</time>
<name>13176</name>
</trkpt>
<trkpt lat="49.168973" lon="11.776257">
<ele>525.4</ele>
<speed>13.2</speed>
<course>171.9</course>
<desc>Speed 13.2 km/h Distance 50.21 km</desc>
<time>2010-06-13T10:23:40.96</time>
<name>13177</name>
</trkpt>
<trkpt lat="49.168943" lon="11.776263">
<ele>525.6</ele>
<speed>13.5</speed>
<course>196.0</course>
<desc>Speed 13.5 km/h Distance 50.22 km</desc>
<time>2010-06-13T10:23:41.96</time>
<name>13178</name>
</trkpt>
<trkpt lat="49.168917" lon="11.776252">
<ele>524.4</ele>
<speed>12.3</speed>
<course>185.1</course>
<desc>Speed 12.3 km/h Distance 50.22 km</desc>
<time>2010-06-13T10:23:42.96</time>
<name>13179</name>
</trkpt>
<trkpt lat="49.168868" lon="11.776245">
<ele>523.6</ele>
<speed>15.2</speed>
<course>182.1</course>
<desc>Speed 15.2 km/h Distance 50.22 km</desc>
<time>2010-06-13T10:23:43.96</time>
<name>13180</name>
</trkpt>
<trkpt lat="49.168750" lon="11.776238">
<ele>521.9</ele>
<speed>17.8</speed>
<course>179.5</course>
<desc>Speed 17.8 km/h Distance 50.24 km</desc>
<time>2010-06-13T10:23:45.96</time>
<name>13181</name>
</trkpt>
<trkpt lat="49.168700" lon="11.776238">
<ele>521.1</ele>
<speed>16.9</speed>
<course>177.5</course>
<desc>Speed 16.9 km/h Distance 50.24 km</desc>
<time>2010-06-13T10:23:46.96</time>
<name>13182</name>
</trkpt>
<trkpt lat="49.168577" lon="11.776247">
<ele>520.1</ele>
<speed>14.7</speed>
<course>174.0</course>
<desc>Speed 14.7 km/h Distance 50.26 km</desc>
<time>2010-06-13T10:23:48.96</time>
<name>13183</name>
</trkpt>
<trkpt lat="49.168535" lon="11.776253">
<ele>521.2</ele>
<speed>12.7</speed>
<course>168.8</course>
<desc>Speed 12.7 km/h Distance 50.26 km</desc>
<time>2010-06-13T10:23:49.96</time>
<name>13184</name>
</trkpt>
<trkpt lat="49.168497" lon="11.776265">
<ele>521.4</ele>
<speed>12.6</speed>
<course>172.0</course>
<desc>Speed 12.6 km/h Distance 50.27 km</desc>
<time>2010-06-13T10:23:50.96</time>
<name>13185</name>
</trkpt>
<trkpt lat="49.168450" lon="11.776275">
<ele>520.8</ele>
<speed>13.0</speed>
<course>180.0</course>
<desc>Speed 13.0 km/h Distance 50.27 km</desc>
<time>2010-06-13T10:23:51.96</time>
<name>13186</name>
</trkpt>
<trkpt lat="49.168402" lon="11.776275">
<ele>521.0</ele>
<speed>13.6</speed>
<course>194.4</course>
<desc>Speed 13.6 km/h Distance 50.28 km</desc>
<time>2010-06-13T10:23:52.96</time>
<name>13187</name>
</trkpt>
<trkpt lat="49.168355" lon="11.776257">
<ele>520.3</ele>
<speed>13.7</speed>
<course>184.7</course>
<desc>Speed 13.7 km/h Distance 50.28 km</desc>
<time>2010-06-13T10:23:53.96</time>
<name>13188</name>
</trkpt>
<trkpt lat="49.168315" lon="11.776252">
<ele>519.2</ele>
<speed>14.3</speed>
<course>182.9</course>
<desc>Speed 14.3 km/h Distance 50.29 km</desc>
<time>2010-06-13T10:23:54.96</time>
<name>13189</name>
</trkpt>
<trkpt lat="49.168273" lon="11.776248">
<ele>519.7</ele>
<speed>14.4</speed>
<course>158.9</course>
<desc>Speed 14.4 km/h Distance 50.29 km</desc>
<time>2010-06-13T10:23:55.96</time>
<name>13190</name>
</trkpt>
<trkpt lat="49.168237" lon="11.776270">
<ele>521.0</ele>
<speed>14.5</speed>
<course>146.8</course>
<desc>Speed 14.5 km/h Distance 50.29 km</desc>
<time>2010-06-13T10:23:56.96</time>
<name>13191</name>
</trkpt>
<trkpt lat="49.168193" lon="11.776313">
<ele>521.1</ele>
<speed>15.0</speed>
<course>155.6</course>
<desc>Speed 15.0 km/h Distance 50.30 km</desc>
<time>2010-06-13T10:23:57.96</time>
<name>13192</name>
</trkpt>
<trkpt lat="49.168150" lon="11.776343">
<ele>521.4</ele>
<speed>14.1</speed>
<course>163.2</course>
<desc>Speed 14.1 km/h Distance 50.31 km</desc>
<time>2010-06-13T10:23:58.96</time>
<name>13193</name>
</trkpt>
<trkpt lat="49.168107" lon="11.776363">
<ele>522.6</ele>
<speed>14.3</speed>
<course>149.4</course>
<desc>Speed 14.3 km/h Distance 50.31 km</desc>
<time>2010-06-13T10:23:59.96</time>
<name>13194</name>
</trkpt>
<trkpt lat="49.168072" lon="11.776395">
<ele>522.4</ele>
<speed>12.8</speed>
<course>155.2</course>
<desc>Speed 12.8 km/h Distance 50.32 km</desc>
<time>2010-06-13T10:24:00.96</time>
<name>13195</name>
</trkpt>
<trkpt lat="49.168032" lon="11.776423">
<ele>524.0</ele>
<speed>10.7</speed>
<course>133.4</course>
<desc>Speed 10.7 km/h Distance 50.32 km</desc>
<time>2010-06-13T10:24:01.96</time>
<name>13196</name>
</trkpt>
<trkpt lat="49.168010" lon="11.776458">
<ele>524.1</ele>
<speed>8.7</speed>
<course>116.2</course>
<desc>Speed 8.7 km/h Distance 50.32 km</desc>
<time>2010-06-13T10:24:02.96</time>
<name>13197</name>
</trkpt>
<trkpt lat="49.167995" lon="11.776505">
<ele>523.0</ele>
<speed>8.6</speed>
<course>116.3</course>
<desc>Speed 8.6 km/h Distance 50.33 km</desc>
<time>2010-06-13T10:24:03.96</time>
<name>13198</name>
</trkpt>
<trkpt lat="49.167962" lon="11.776608">
<ele>519.2</ele>
<speed>11.8</speed>
<course>136.2</course>
<desc>Speed 11.8 km/h Distance 50.34 km</desc>
<time>2010-06-13T10:24:05.96</time>
<name>13199</name>
</trkpt>
<trkpt lat="49.167937" lon="11.776645">
<ele>519.8</ele>
<speed>12.7</speed>
<course>136.6</course>
<desc>Speed 12.7 km/h Distance 50.34 km</desc>
<time>2010-06-13T10:24:06.96</time>
<name>13200</name>
</trkpt>
<trkpt lat="49.167907" lon="11.776688">
<ele>518.8</ele>
<speed>13.1</speed>
<course>143.2</course>
<desc>Speed 13.1 km/h Distance 50.34 km</desc>
<time>2010-06-13T10:24:07.96</time>
<name>13201</name>
</trkpt>
<trkpt lat="49.167872" lon="11.776728">
<ele>520.0</ele>
<speed>13.9</speed>
<course>146.8</course>
<desc>Speed 13.9 km/h Distance 50.35 km</desc>
<time>2010-06-13T10:24:08.96</time>
<name>13202</name>
</trkpt>
<trkpt lat="49.167842" lon="11.776758">
<ele>520.6</ele>
<speed>13.0</speed>
<course>131.9</course>
<desc>Speed 13.0 km/h Distance 50.35 km</desc>
<time>2010-06-13T10:24:09.96</time>
<name>13203</name>
</trkpt>
<trkpt lat="49.167813" lon="11.776807">
<ele>520.1</ele>
<speed>12.0</speed>
<course>135.1</course>
<desc>Speed 12.0 km/h Distance 50.36 km</desc>
<time>2010-06-13T10:24:10.96</time>
<name>13204</name>
</trkpt>
<trkpt lat="49.167782" lon="11.776855">
<ele>520.2</ele>
<speed>11.2</speed>
<course>136.6</course>
<desc>Speed 11.2 km/h Distance 50.36 km</desc>
<time>2010-06-13T10:24:11.96</time>
<name>13205</name>
</trkpt>
<trkpt lat="49.167752" lon="11.776898">
<ele>518.5</ele>
<speed>13.2</speed>
<course>155.6</course>
<desc>Speed 13.2 km/h Distance 50.37 km</desc>
<time>2010-06-13T10:24:12.96</time>
<name>13206</name>
</trkpt>
<trkpt lat="49.167708" lon="11.776928">
<ele>517.9</ele>
<speed>13.4</speed>
<course>160.6</course>
<desc>Speed 13.4 km/h Distance 50.37 km</desc>
<time>2010-06-13T10:24:13.96</time>
<name>13207</name>
</trkpt>
<trkpt lat="49.167690" lon="11.776938">
<ele>518.3</ele>
<speed>9.8</speed>
<course>151.7</course>
<desc>Speed 9.8 km/h Distance 50.37 km</desc>
<time>2010-06-13T10:24:14.96</time>
<name>13208</name>
</trkpt>
<trkpt lat="49.167662" lon="11.776962">
<ele>516.6</ele>
<speed>10.2</speed>
<course>138.9</course>
<desc>Speed 10.2 km/h Distance 50.38 km</desc>
<time>2010-06-13T10:24:15.96</time>
<name>13209</name>
</trkpt>
<trkpt lat="49.167637" lon="11.776995">
<ele>513.8</ele>
<speed>11.6</speed>
<course>143.3</course>
<desc>Speed 11.6 km/h Distance 50.38 km</desc>
<time>2010-06-13T10:24:16.96</time>
<name>13210</name>
</trkpt>
<trkpt lat="49.167565" lon="11.777077">
<ele>508.9</ele>
<speed>10.4</speed>
<course>142.9</course>
<desc>Speed 10.4 km/h Distance 50.39 km</desc>
<time>2010-06-13T10:24:18.96</time>
<name>13211</name>
</trkpt>
<trkpt lat="49.167480" lon="11.777175">
<ele>506.0</ele>
<speed>13.2</speed>
<course>133.5</course>
<desc>Speed 13.2 km/h Distance 50.40 km</desc>
<time>2010-06-13T10:24:20.96</time>
<name>13212</name>
</trkpt>
<trkpt lat="49.167450" lon="11.777223">
<ele>502.1</ele>
<speed>13.3</speed>
<course>163.1</course>
<desc>Speed 13.3 km/h Distance 50.41 km</desc>
<time>2010-06-13T10:24:21.96</time>
<name>13213</name>
</trkpt>
<trkpt lat="49.167332" lon="11.777278">
<ele>500.0</ele>
<speed>15.2</speed>
<course>178.9</course>
<desc>Speed 15.2 km/h Distance 50.42 km</desc>
<time>2010-06-13T10:24:23.97</time>
<name>13214</name>
</trkpt>
<trkpt lat="49.167222" lon="11.777282">
<ele>496.9</ele>
<speed>11.5</speed>
<course>176.0</course>
<desc>Speed 11.5 km/h Distance 50.43 km</desc>
<time>2010-06-13T10:24:25.97</time>
<name>13215</name>
</trkpt>
<trkpt lat="49.167128" lon="11.777292">
<ele>497.2</ele>
<speed>10.1</speed>
<course>187.4</course>
<desc>Speed 10.1 km/h Distance 50.45 km</desc>
<time>2010-06-13T10:24:27.97</time>
<name>13216</name>
</trkpt>
<trkpt lat="49.167087" lon="11.777283">
<ele>498.6</ele>
<speed>9.7</speed>
<course>197.9</course>
<desc>Speed 9.7 km/h Distance 50.45 km</desc>
<time>2010-06-13T10:24:28.97</time>
<name>13217</name>
</trkpt>
<trkpt lat="49.166915" lon="11.777198">
<ele>498.2</ele>
<speed>18.0</speed>
<course>210.3</course>
<desc>Speed 18.0 km/h Distance 50.47 km</desc>
<time>2010-06-13T10:24:31.97</time>
<name>13218</name>
</trkpt>
<trkpt lat="49.166868" lon="11.777157">
<ele>495.7</ele>
<speed>16.2</speed>
<course>203.6</course>
<desc>Speed 16.2 km/h Distance 50.48 km</desc>
<time>2010-06-13T10:24:32.97</time>
<name>13219</name>
</trkpt>
<trkpt lat="49.166818" lon="11.777123">
<ele>496.6</ele>
<speed>14.7</speed>
<course>208.2</course>
<desc>Speed 14.7 km/h Distance 50.48 km</desc>
<time>2010-06-13T10:24:33.97</time>
<name>13220</name>
</trkpt>
<trkpt lat="49.166772" lon="11.777085">
<ele>498.3</ele>
<speed>15.7</speed>
<course>214.2</course>
<desc>Speed 15.7 km/h Distance 50.49 km</desc>
<time>2010-06-13T10:24:34.97</time>
<name>13221</name>
</trkpt>
<trkpt lat="49.166730" lon="11.777042">
<ele>500.1</ele>
<speed>16.2</speed>
<course>210.0</course>
<desc>Speed 16.2 km/h Distance 50.49 km</desc>
<time>2010-06-13T10:24:35.97</time>
<name>13222</name>
</trkpt>
<trkpt lat="49.166687" lon="11.777003">
<ele>499.0</ele>
<speed>15.3</speed>
<course>218.1</course>
<desc>Speed 15.3 km/h Distance 50.50 km</desc>
<time>2010-06-13T10:24:36.97</time>
<name>13223</name>
</trkpt>
<trkpt lat="49.166662" lon="11.776973">
<ele>498.9</ele>
<speed>14.2</speed>
<course>219.8</course>
<desc>Speed 14.2 km/h Distance 50.50 km</desc>
<time>2010-06-13T10:24:37.97</time>
<name>13224</name>
</trkpt>
<trkpt lat="49.166625" lon="11.776927">
<ele>497.1</ele>
<speed>17.1</speed>
<course>212.0</course>
<desc>Speed 17.1 km/h Distance 50.51 km</desc>
<time>2010-06-13T10:24:38.97</time>
<name>13225</name>
</trkpt>
<trkpt lat="49.166588" lon="11.776892">
<ele>496.1</ele>
<speed>18.3</speed>
<course>215.8</course>
<desc>Speed 18.3 km/h Distance 50.51 km</desc>
<time>2010-06-13T10:24:39.97</time>
<name>13226</name>
</trkpt>
<trkpt lat="49.166540" lon="11.776838">
<ele>498.1</ele>
<speed>20.1</speed>
<course>224.6</course>
<desc>Speed 20.1 km/h Distance 50.52 km</desc>
<time>2010-06-13T10:24:40.97</time>
<name>13227</name>
</trkpt>
<trkpt lat="49.166448" lon="11.776700">
<ele>496.9</ele>
<speed>19.0</speed>
<course>221.6</course>
<desc>Speed 19.0 km/h Distance 50.53 km</desc>
<time>2010-06-13T10:24:42.97</time>
<name>13228</name>
</trkpt>
<trkpt lat="49.166402" lon="11.776637">
<ele>495.9</ele>
<speed>18.9</speed>
<course>214.1</course>
<desc>Speed 18.9 km/h Distance 50.54 km</desc>
<time>2010-06-13T10:24:43.97</time>
<name>13229</name>
</trkpt>
<trkpt lat="49.166353" lon="11.776587">
<ele>494.8</ele>
<speed>20.0</speed>
<course>213.6</course>
<desc>Speed 20.0 km/h Distance 50.55 km</desc>
<time>2010-06-13T10:24:44.97</time>
<name>13230</name>
</trkpt>
<trkpt lat="49.166255" lon="11.776487">
<ele>495.1</ele>
<speed>18.6</speed>
<course>227.0</course>
<desc>Speed 18.6 km/h Distance 50.56 km</desc>
<time>2010-06-13T10:24:46.97</time>
<name>13231</name>
</trkpt>
<trkpt lat="49.166213" lon="11.776418">
<ele>495.2</ele>
<speed>16.4</speed>
<course>209.3</course>
<desc>Speed 16.4 km/h Distance 50.57 km</desc>
<time>2010-06-13T10:24:47.97</time>
<name>13232</name>
</trkpt>
<trkpt lat="49.166167" lon="11.776378">
<ele>493.2</ele>
<speed>16.8</speed>
<course>218.6</course>
<desc>Speed 16.8 km/h Distance 50.57 km</desc>
<time>2010-06-13T10:24:48.97</time>
<name>13233</name>
</trkpt>
<trkpt lat="49.166122" lon="11.776323">
<ele>492.4</ele>
<speed>19.0</speed>
<course>220.5</course>
<desc>Speed 19.0 km/h Distance 50.58 km</desc>
<time>2010-06-13T10:24:49.97</time>
<name>13234</name>
</trkpt>
<trkpt lat="49.166078" lon="11.776267">
<ele>491.2</ele>
<speed>18.5</speed>
<course>220.7</course>
<desc>Speed 18.5 km/h Distance 50.59 km</desc>
<time>2010-06-13T10:24:50.97</time>
<name>13235</name>
</trkpt>
<trkpt lat="49.166047" lon="11.776225">
<ele>491.8</ele>
<speed>17.1</speed>
<course>230.8</course>
<desc>Speed 17.1 km/h Distance 50.59 km</desc>
<time>2010-06-13T10:24:51.97</time>
<name>13236</name>
</trkpt>
<trkpt lat="49.166020" lon="11.776175">
<ele>491.5</ele>
<speed>17.3</speed>
<course>213.2</course>
<desc>Speed 17.3 km/h Distance 50.60 km</desc>
<time>2010-06-13T10:24:52.97</time>
<name>13237</name>
</trkpt>
<trkpt lat="49.165985" lon="11.776140">
<ele>490.7</ele>
<speed>16.6</speed>
<course>223.2</course>
<desc>Speed 16.6 km/h Distance 50.60 km</desc>
<time>2010-06-13T10:24:53.97</time>
<name>13238</name>
</trkpt>
<trkpt lat="49.165958" lon="11.776102">
<ele>490.7</ele>
<speed>15.3</speed>
<course>237.9</course>
<desc>Speed 15.3 km/h Distance 50.60 km</desc>
<time>2010-06-13T10:24:54.97</time>
<name>13239</name>
</trkpt>
<trkpt lat="49.165932" lon="11.776037">
<ele>489.2</ele>
<speed>17.5</speed>
<course>236.1</course>
<desc>Speed 17.5 km/h Distance 50.61 km</desc>
<time>2010-06-13T10:24:55.97</time>
<name>13240</name>
</trkpt>
<trkpt lat="49.165902" lon="11.775968">
<ele>488.8</ele>
<speed>17.9</speed>
<course>234.1</course>
<desc>Speed 17.9 km/h Distance 50.62 km</desc>
<time>2010-06-13T10:24:56.97</time>
<name>13241</name>
</trkpt>
<trkpt lat="49.165872" lon="11.775905">
<ele>489.2</ele>
<speed>16.6</speed>
<course>225.0</course>
<desc>Speed 16.6 km/h Distance 50.62 km</desc>
<time>2010-06-13T10:24:57.97</time>
<name>13242</name>
</trkpt>
<trkpt lat="49.165843" lon="11.775862">
<ele>489.8</ele>
<speed>13.8</speed>
<course>231.6</course>
<desc>Speed 13.8 km/h Distance 50.63 km</desc>
<time>2010-06-13T10:24:58.97</time>
<name>13243</name>
</trkpt>
<trkpt lat="49.165770" lon="11.775720">
<ele>498.2</ele>
<speed>13.5</speed>
<course>159.1</course>
<desc>Speed 13.5 km/h Distance 50.64 km</desc>
<time>2010-06-13T10:25:00.97</time>
<name>13244</name>
</trkpt>
<trkpt lat="49.165730" lon="11.775743">
<ele>495.3</ele>
<speed>15.7</speed>
<course>140.2</course>
<desc>Speed 15.7 km/h Distance 50.64 km</desc>
<time>2010-06-13T10:25:01.97</time>
<name>13245</name>
</trkpt>
<trkpt lat="49.165693" lon="11.775790">
<ele>490.7</ele>
<speed>13.9</speed>
<course>142.4</course>
<desc>Speed 13.9 km/h Distance 50.65 km</desc>
<time>2010-06-13T10:25:03.97</time>
<name>13246</name>
</trkpt>
<trkpt lat="49.165665" lon="11.775823">
<ele>490.1</ele>
<speed>16.1</speed>
<course>140.1</course>
<desc>Speed 16.1 km/h Distance 50.65 km</desc>
<time>2010-06-13T10:25:04.97</time>
<name>13247</name>
</trkpt>
<trkpt lat="49.165635" lon="11.775862">
<ele>490.1</ele>
<speed>16.9</speed>
<course>98.2</course>
<desc>Speed 16.9 km/h Distance 50.66 km</desc>
<time>2010-06-13T10:25:05.97</time>
<name>13248</name>
</trkpt>
<trkpt lat="49.165627" lon="11.775950">
<ele>486.8</ele>
<speed>17.8</speed>
<course>91.9</course>
<desc>Speed 17.8 km/h Distance 50.66 km</desc>
<time>2010-06-13T10:25:06.97</time>
<name>13249</name>
</trkpt>
<trkpt lat="49.165625" lon="11.776027">
<ele>484.9</ele>
<speed>18.5</speed>
<course>69.9</course>
<desc>Speed 18.5 km/h Distance 50.67 km</desc>
<time>2010-06-13T10:25:07.97</time>
<name>13250</name>
</trkpt>
<trkpt lat="49.165643" lon="11.776103">
<ele>482.1</ele>
<speed>17.9</speed>
<course>120.4</course>
<desc>Speed 17.9 km/h Distance 50.68 km</desc>
<time>2010-06-13T10:25:08.97</time>
<name>13251</name>
</trkpt>
<trkpt lat="49.165613" lon="11.776182">
<ele>481.1</ele>
<speed>17.0</speed>
<course>96.5</course>
<desc>Speed 17.0 km/h Distance 50.68 km</desc>
<time>2010-06-13T10:25:09.97</time>
<name>13252</name>
</trkpt>
<trkpt lat="49.165608" lon="11.776248">
<ele>479.7</ele>
<speed>16.5</speed>
<course>96.4</course>
<desc>Speed 16.5 km/h Distance 50.69 km</desc>
<time>2010-06-13T10:25:10.97</time>
<name>13253</name>
</trkpt>
<trkpt lat="49.165603" lon="11.776317">
<ele>479.1</ele>
<speed>16.6</speed>
<course>119.8</course>
<desc>Speed 16.6 km/h Distance 50.69 km</desc>
<time>2010-06-13T10:25:11.97</time>
<name>13254</name>
</trkpt>
<trkpt lat="49.165543" lon="11.776477">
<ele>477.8</ele>
<speed>17.2</speed>
<course>118.6</course>
<desc>Speed 17.2 km/h Distance 50.71 km</desc>
<time>2010-06-13T10:25:13.97</time>
<name>13255</name>
</trkpt>
<trkpt lat="49.165518" lon="11.776547">
<ele>477.9</ele>
<speed>18.8</speed>
<course>129.6</course>
<desc>Speed 18.8 km/h Distance 50.71 km</desc>
<time>2010-06-13T10:25:14.97</time>
<name>13256</name>
</trkpt>
<trkpt lat="49.165485" lon="11.776608">
<ele>478.4</ele>
<speed>18.6</speed>
<course>152.4</course>
<desc>Speed 18.6 km/h Distance 50.72 km</desc>
<time>2010-06-13T10:25:15.97</time>
<name>13257</name>
</trkpt>
<trkpt lat="49.165443" lon="11.776642">
<ele>477.2</ele>
<speed>20.2</speed>
<course>170.4</course>
<desc>Speed 20.2 km/h Distance 50.72 km</desc>
<time>2010-06-13T10:25:16.97</time>
<name>13258</name>
</trkpt>
<trkpt lat="49.165315" lon="11.776675">
<ele>478.4</ele>
<speed>20.4</speed>
<course>173.0</course>
<desc>Speed 20.4 km/h Distance 50.74 km</desc>
<time>2010-06-13T10:25:18.97</time>
<name>13259</name>
</trkpt>
<trkpt lat="49.165253" lon="11.776687">
<ele>478.6</ele>
<speed>19.7</speed>
<course>199.6</course>
<desc>Speed 19.7 km/h Distance 50.74 km</desc>
<time>2010-06-13T10:25:19.97</time>
<name>13260</name>
</trkpt>
<trkpt lat="49.165198" lon="11.776657">
<ele>478.2</ele>
<speed>19.6</speed>
<course>217.8</course>
<desc>Speed 19.6 km/h Distance 50.75 km</desc>
<time>2010-06-13T10:25:20.97</time>
<name>13261</name>
</trkpt>
<trkpt lat="49.165153" lon="11.776603">
<ele>477.3</ele>
<speed>21.0</speed>
<course>211.6</course>
<desc>Speed 21.0 km/h Distance 50.76 km</desc>
<time>2010-06-13T10:25:21.97</time>
<name>13262</name>
</trkpt>
<trkpt lat="49.165098" lon="11.776552">
<ele>477.5</ele>
<speed>22.4</speed>
<course>220.0</course>
<desc>Speed 22.4 km/h Distance 50.76 km</desc>
<time>2010-06-13T10:25:22.97</time>
<name>13263</name>
</trkpt>
<trkpt lat="49.164980" lon="11.776400">
<ele>477.0</ele>
<speed>24.3</speed>
<course>219.8</course>
<desc>Speed 24.3 km/h Distance 50.78 km</desc>
<time>2010-06-13T10:25:24.97</time>
<name>13264</name>
</trkpt>
<trkpt lat="49.164925" lon="11.776330">
<ele>478.0</ele>
<speed>23.8</speed>
<course>215.5</course>
<desc>Speed 23.8 km/h Distance 50.79 km</desc>
<time>2010-06-13T10:25:25.97</time>
<name>13265</name>
</trkpt>
<trkpt lat="49.164870" lon="11.776270">
<ele>480.2</ele>
<speed>24.9</speed>
<course>204.8</course>
<desc>Speed 24.9 km/h Distance 50.80 km</desc>
<time>2010-06-13T10:25:26.97</time>
<name>13266</name>
</trkpt>
<trkpt lat="49.164813" lon="11.776230">
<ele>481.6</ele>
<speed>23.4</speed>
<course>198.1</course>
<desc>Speed 23.4 km/h Distance 50.80 km</desc>
<time>2010-06-13T10:25:27.97</time>
<name>13267</name>
</trkpt>
<trkpt lat="49.164753" lon="11.776200">
<ele>482.1</ele>
<speed>23.0</speed>
<course>199.6</course>
<desc>Speed 23.0 km/h Distance 50.81 km</desc>
<time>2010-06-13T10:25:28.97</time>
<name>13268</name>
</trkpt>
<trkpt lat="49.164695" lon="11.776168">
<ele>481.9</ele>
<speed>22.6</speed>
<course>197.2</course>
<desc>Speed 22.6 km/h Distance 50.82 km</desc>
<time>2010-06-13T10:25:29.97</time>
<name>13269</name>
</trkpt>
<trkpt lat="49.164632" lon="11.776138">
<ele>483.8</ele>
<speed>23.2</speed>
<course>199.6</course>
<desc>Speed 23.2 km/h Distance 50.82 km</desc>
<time>2010-06-13T10:25:30.97</time>
<name>13270</name>
</trkpt>
<trkpt lat="49.164573" lon="11.776107">
<ele>484.6</ele>
<speed>23.2</speed>
<course>210.8</course>
<desc>Speed 23.2 km/h Distance 50.83 km</desc>
<time>2010-06-13T10:25:31.97</time>
<name>13271</name>
</trkpt>
<trkpt lat="49.164517" lon="11.776055">
<ele>486.8</ele>
<speed>24.0</speed>
<course>203.6</course>
<desc>Speed 24.0 km/h Distance 50.84 km</desc>
<time>2010-06-13T10:25:32.97</time>
<name>13272</name>
</trkpt>
<trkpt lat="49.164467" lon="11.776022">
<ele>486.0</ele>
<speed>24.2</speed>
<course>209.5</course>
<desc>Speed 24.2 km/h Distance 50.84 km</desc>
<time>2010-06-13T10:25:33.97</time>
<name>13273</name>
</trkpt>
<trkpt lat="49.164417" lon="11.775978">
<ele>485.2</ele>
<speed>23.7</speed>
<course>203.3</course>
<desc>Speed 23.7 km/h Distance 50.85 km</desc>
<time>2010-06-13T10:25:34.97</time>
<name>13274</name>
</trkpt>
<trkpt lat="49.164358" lon="11.775940">
<ele>485.4</ele>
<speed>24.5</speed>
<course>203.3</course>
<desc>Speed 24.5 km/h Distance 50.86 km</desc>
<time>2010-06-13T10:25:35.97</time>
<name>13275</name>
</trkpt>
<trkpt lat="49.164300" lon="11.775902">
<ele>485.6</ele>
<speed>24.3</speed>
<course>204.2</course>
<desc>Speed 24.3 km/h Distance 50.87 km</desc>
<time>2010-06-13T10:25:36.97</time>
<name>13276</name>
</trkpt>
<trkpt lat="49.164242" lon="11.775862">
<ele>485.6</ele>
<speed>24.1</speed>
<course>209.3</course>
<desc>Speed 24.1 km/h Distance 50.87 km</desc>
<time>2010-06-13T10:25:37.97</time>
<name>13277</name>
</trkpt>
<trkpt lat="49.164183" lon="11.775812">
<ele>486.1</ele>
<speed>23.6</speed>
<course>209.3</course>
<desc>Speed 23.6 km/h Distance 50.88 km</desc>
<time>2010-06-13T10:25:38.97</time>
<name>13278</name>
</trkpt>
<trkpt lat="49.164137" lon="11.775772">
<ele>486.6</ele>
<speed>22.0</speed>
<course>217.9</course>
<desc>Speed 22.0 km/h Distance 50.89 km</desc>
<time>2010-06-13T10:25:39.97</time>
<name>13279</name>
</trkpt>
<trkpt lat="49.164093" lon="11.775720">
<ele>486.1</ele>
<speed>21.8</speed>
<course>225.2</course>
<desc>Speed 21.8 km/h Distance 50.89 km</desc>
<time>2010-06-13T10:25:40.97</time>
<name>13280</name>
</trkpt>
<trkpt lat="49.164053" lon="11.775658">
<ele>486.3</ele>
<speed>21.9</speed>
<course>236.1</course>
<desc>Speed 21.9 km/h Distance 50.90 km</desc>
<time>2010-06-13T10:25:41.97</time>
<name>13281</name>
</trkpt>
<trkpt lat="49.164023" lon="11.775590">
<ele>487.6</ele>
<speed>22.9</speed>
<course>230.6</course>
<desc>Speed 22.9 km/h Distance 50.90 km</desc>
<time>2010-06-13T10:25:42.97</time>
<name>13282</name>
</trkpt>
<trkpt lat="49.163987" lon="11.775522">
<ele>486.6</ele>
<speed>22.3</speed>
<course>233.3</course>
<desc>Speed 22.3 km/h Distance 50.91 km</desc>
<time>2010-06-13T10:25:43.97</time>
<name>13283</name>
</trkpt>
<trkpt lat="49.163953" lon="11.775453">
<ele>486.4</ele>
<speed>22.1</speed>
<course>226.7</course>
<desc>Speed 22.1 km/h Distance 50.92 km</desc>
<time>2010-06-13T10:25:44.97</time>
<name>13284</name>
</trkpt>
<trkpt lat="49.163913" lon="11.775388">
<ele>485.6</ele>
<speed>23.4</speed>
<course>221.9</course>
<desc>Speed 23.4 km/h Distance 50.92 km</desc>
<time>2010-06-13T10:25:45.97</time>
<name>13285</name>
</trkpt>
<trkpt lat="49.163868" lon="11.775327">
<ele>484.9</ele>
<speed>23.4</speed>
<course>216.3</course>
<desc>Speed 23.4 km/h Distance 50.93 km</desc>
<time>2010-06-13T10:25:46.97</time>
<name>13286</name>
</trkpt>
<trkpt lat="49.163815" lon="11.775267">
<ele>485.9</ele>
<speed>24.2</speed>
<course>200.6</course>
<desc>Speed 24.2 km/h Distance 50.94 km</desc>
<time>2010-06-13T10:25:47.97</time>
<name>13287</name>
</trkpt>
<trkpt lat="49.163760" lon="11.775235">
<ele>486.4</ele>
<speed>23.5</speed>
<course>195.5</course>
<desc>Speed 23.5 km/h Distance 50.94 km</desc>
<time>2010-06-13T10:25:48.97</time>
<name>13288</name>
</trkpt>
<trkpt lat="49.163705" lon="11.775212">
<ele>487.1</ele>
<speed>22.2</speed>
<course>197.0</course>
<desc>Speed 22.2 km/h Distance 50.95 km</desc>
<time>2010-06-13T10:25:49.97</time>
<name>13289</name>
</trkpt>
<trkpt lat="49.163652" lon="11.775187">
<ele>488.4</ele>
<speed>20.6</speed>
<course>195.7</course>
<desc>Speed 20.6 km/h Distance 50.96 km</desc>
<time>2010-06-13T10:25:50.97</time>
<name>13290</name>
</trkpt>
<trkpt lat="49.163605" lon="11.775167">
<ele>488.6</ele>
<speed>18.6</speed>
<course>196.1</course>
<desc>Speed 18.6 km/h Distance 50.96 km</desc>
<time>2010-06-13T10:25:51.97</time>
<name>13291</name>
</trkpt>
<trkpt lat="49.163563" lon="11.775148">
<ele>489.1</ele>
<speed>17.7</speed>
<course>194.9</course>
<desc>Speed 17.7 km/h Distance 50.97 km</desc>
<time>2010-06-13T10:25:52.97</time>
<name>13292</name>
</trkpt>
<trkpt lat="49.163518" lon="11.775130">
<ele>489.5</ele>
<speed>18.9</speed>
<course>191.5</course>
<desc>Speed 18.9 km/h Distance 50.97 km</desc>
<time>2010-06-13T10:25:53.97</time>
<name>13293</name>
</trkpt>
<trkpt lat="49.163470" lon="11.775115">
<ele>489.5</ele>
<speed>19.8</speed>
<course>179.1</course>
<desc>Speed 19.8 km/h Distance 50.98 km</desc>
<time>2010-06-13T10:25:54.97</time>
<name>13294</name>
</trkpt>
<trkpt lat="49.163418" lon="11.775115">
<ele>489.8</ele>
<speed>20.5</speed>
<course>179.2</course>
<desc>Speed 20.5 km/h Distance 50.98 km</desc>
<time>2010-06-13T10:25:55.97</time>
<name>13295</name>
</trkpt>
<trkpt lat="49.163362" lon="11.775117">
<ele>489.7</ele>
<speed>21.9</speed>
<course>180.9</course>
<desc>Speed 21.9 km/h Distance 50.99 km</desc>
<time>2010-06-13T10:25:56.97</time>
<name>13296</name>
</trkpt>
<trkpt lat="49.163302" lon="11.775115">
<ele>489.9</ele>
<speed>23.3</speed>
<course>178.9</course>
<desc>Speed 23.3 km/h Distance 51.00 km</desc>
<time>2010-06-13T10:25:57.97</time>
<name>13297</name>
</trkpt>
<trkpt lat="49.163245" lon="11.775117">
<ele>490.6</ele>
<speed>23.0</speed>
<course>150.2</course>
<desc>Speed 23.0 km/h Distance 51.00 km</desc>
<time>2010-06-13T10:25:58.97</time>
<name>13298</name>
</trkpt>
<trkpt lat="49.163205" lon="11.775152">
<ele>489.5</ele>
<speed>20.0</speed>
<course>154.5</course>
<desc>Speed 20.0 km/h Distance 51.01 km</desc>
<time>2010-06-13T10:25:59.97</time>
<name>13299</name>
</trkpt>
<trkpt lat="49.163162" lon="11.775183">
<ele>490.0</ele>
<speed>18.9</speed>
<course>152.1</course>
<desc>Speed 18.9 km/h Distance 51.01 km</desc>
<time>2010-06-13T10:26:00.97</time>
<name>13300</name>
</trkpt>
<trkpt lat="49.163127" lon="11.775212">
<ele>489.7</ele>
<speed>18.5</speed>
<course>152.4</course>
<desc>Speed 18.5 km/h Distance 51.02 km</desc>
<time>2010-06-13T10:26:01.97</time>
<name>13301</name>
</trkpt>
<trkpt lat="49.163085" lon="11.775245">
<ele>489.7</ele>
<speed>19.6</speed>
<course>135.6</course>
<desc>Speed 19.6 km/h Distance 51.02 km</desc>
<time>2010-06-13T10:26:02.97</time>
<name>13302</name>
</trkpt>
<trkpt lat="49.163048" lon="11.775300">
<ele>488.1</ele>
<speed>19.0</speed>
<course>144.7</course>
<desc>Speed 19.0 km/h Distance 51.03 km</desc>
<time>2010-06-13T10:26:03.97</time>
<name>13303</name>
</trkpt>
<trkpt lat="49.163008" lon="11.775343">
<ele>487.5</ele>
<speed>18.0</speed>
<course>149.1</course>
<desc>Speed 18.0 km/h Distance 51.03 km</desc>
<time>2010-06-13T10:26:04.97</time>
<name>13304</name>
</trkpt>
<trkpt lat="49.162968" lon="11.775380">
<ele>486.7</ele>
<speed>17.9</speed>
<course>139.2</course>
<desc>Speed 17.9 km/h Distance 51.04 km</desc>
<time>2010-06-13T10:26:05.97</time>
<name>13305</name>
</trkpt>
<trkpt lat="49.162927" lon="11.775435">
<ele>484.4</ele>
<speed>19.3</speed>
<course>155.0</course>
<desc>Speed 19.3 km/h Distance 51.05 km</desc>
<time>2010-06-13T10:26:06.97</time>
<name>13306</name>
</trkpt>
<trkpt lat="49.162880" lon="11.775468">
<ele>485.0</ele>
<speed>19.3</speed>
<course>150.9</course>
<desc>Speed 19.3 km/h Distance 51.05 km</desc>
<time>2010-06-13T10:26:07.97</time>
<name>13307</name>
</trkpt>
<trkpt lat="49.162835" lon="11.775507">
<ele>484.9</ele>
<speed>20.2</speed>
<course>156.5</course>
<desc>Speed 20.2 km/h Distance 51.06 km</desc>
<time>2010-06-13T10:26:08.97</time>
<name>13308</name>
</trkpt>
<trkpt lat="49.162780" lon="11.775543">
<ele>484.6</ele>
<speed>23.0</speed>
<course>155.0</course>
<desc>Speed 23.0 km/h Distance 51.06 km</desc>
<time>2010-06-13T10:26:09.97</time>
<name>13309</name>
</trkpt>
<trkpt lat="49.162733" lon="11.775577">
<ele>484.4</ele>
<speed>21.9</speed>
<course>162.4</course>
<desc>Speed 21.9 km/h Distance 51.07 km</desc>
<time>2010-06-13T10:26:10.97</time>
<name>13310</name>
</trkpt>
<trkpt lat="49.162675" lon="11.775605">
<ele>484.6</ele>
<speed>23.0</speed>
<course>163.9</course>
<desc>Speed 23.0 km/h Distance 51.08 km</desc>
<time>2010-06-13T10:26:11.97</time>
<name>13311</name>
</trkpt>
<trkpt lat="49.162618" lon="11.775630">
<ele>484.3</ele>
<speed>22.5</speed>
<course>167.7</course>
<desc>Speed 22.5 km/h Distance 51.08 km</desc>
<time>2010-06-13T10:26:12.97</time>
<name>13312</name>
</trkpt>
<trkpt lat="49.162558" lon="11.775650">
<ele>484.2</ele>
<speed>21.9</speed>
<course>183.0</course>
<desc>Speed 21.9 km/h Distance 51.09 km</desc>
<time>2010-06-13T10:26:13.97</time>
<name>13313</name>
</trkpt>
<trkpt lat="49.162495" lon="11.775645">
<ele>485.5</ele>
<speed>22.8</speed>
<course>178.1</course>
<desc>Speed 22.8 km/h Distance 51.10 km</desc>
<time>2010-06-13T10:26:14.97</time>
<name>13314</name>
</trkpt>
<trkpt lat="49.162427" lon="11.775648">
<ele>485.7</ele>
<speed>23.8</speed>
<course>174.5</course>
<desc>Speed 23.8 km/h Distance 51.10 km</desc>
<time>2010-06-13T10:26:15.97</time>
<name>13315</name>
</trkpt>
<trkpt lat="49.162358" lon="11.775658">
<ele>484.9</ele>
<speed>24.6</speed>
<course>171.4</course>
<desc>Speed 24.6 km/h Distance 51.11 km</desc>
<time>2010-06-13T10:26:16.97</time>
<name>13316</name>
</trkpt>
<trkpt lat="49.162293" lon="11.775673">
<ele>483.7</ele>
<speed>24.4</speed>
<course>175.8</course>
<desc>Speed 24.4 km/h Distance 51.12 km</desc>
<time>2010-06-13T10:26:17.97</time>
<name>13317</name>
</trkpt>
<trkpt lat="49.162233" lon="11.775680">
<ele>484.8</ele>
<speed>23.7</speed>
<course>174.9</course>
<desc>Speed 23.7 km/h Distance 51.13 km</desc>
<time>2010-06-13T10:26:18.97</time>
<name>13318</name>
</trkpt>
<trkpt lat="49.162172" lon="11.775688">
<ele>484.8</ele>
<speed>23.0</speed>
<course>176.6</course>
<desc>Speed 23.0 km/h Distance 51.13 km</desc>
<time>2010-06-13T10:26:19.97</time>
<name>13319</name>
</trkpt>
<trkpt lat="49.162115" lon="11.775693">
<ele>486.2</ele>
<speed>21.1</speed>
<course>186.5</course>
<desc>Speed 21.1 km/h Distance 51.14 km</desc>
<time>2010-06-13T10:26:20.97</time>
<name>13320</name>
</trkpt>
<trkpt lat="49.162057" lon="11.775683">
<ele>487.0</ele>
<speed>22.0</speed>
<course>195.6</course>
<desc>Speed 22.0 km/h Distance 51.15 km</desc>
<time>2010-06-13T10:26:21.97</time>
<name>13321</name>
</trkpt>
<trkpt lat="49.161998" lon="11.775658">
<ele>487.4</ele>
<speed>22.0</speed>
<course>201.6</course>
<desc>Speed 22.0 km/h Distance 51.15 km</desc>
<time>2010-06-13T10:26:22.97</time>
<name>13322</name>
</trkpt>
<trkpt lat="49.161943" lon="11.775625">
<ele>488.1</ele>
<speed>21.6</speed>
<course>219.4</course>
<desc>Speed 21.6 km/h Distance 51.16 km</desc>
<time>2010-06-13T10:26:23.97</time>
<name>13323</name>
</trkpt>
<trkpt lat="49.161892" lon="11.775560">
<ele>487.0</ele>
<speed>21.8</speed>
<course>242.6</course>
<desc>Speed 21.8 km/h Distance 51.17 km</desc>
<time>2010-06-13T10:26:24.97</time>
<name>13324</name>
</trkpt>
<trkpt lat="49.161860" lon="11.775467">
<ele>486.4</ele>
<speed>21.9</speed>
<course>265.1</course>
<desc>Speed 21.9 km/h Distance 51.17 km</desc>
<time>2010-06-13T10:26:25.97</time>
<name>13325</name>
</trkpt>
<trkpt lat="49.161855" lon="11.775377">
<ele>485.6</ele>
<speed>21.8</speed>
<course>280.1</course>
<desc>Speed 21.8 km/h Distance 51.18 km</desc>
<time>2010-06-13T10:26:26.97</time>
<name>13326</name>
</trkpt>
<trkpt lat="49.161867" lon="11.775277">
<ele>484.5</ele>
<speed>22.4</speed>
<course>284.3</course>
<desc>Speed 22.4 km/h Distance 51.19 km</desc>
<time>2010-06-13T10:26:27.97</time>
<name>13327</name>
</trkpt>
<trkpt lat="49.161883" lon="11.775177">
<ele>483.9</ele>
<speed>23.2</speed>
<course>282.8</course>
<desc>Speed 23.2 km/h Distance 51.20 km</desc>
<time>2010-06-13T10:26:28.97</time>
<name>13328</name>
</trkpt>
<trkpt lat="49.161897" lon="11.775087">
<ele>483.7</ele>
<speed>23.0</speed>
<course>282.3</course>
<desc>Speed 23.0 km/h Distance 51.20 km</desc>
<time>2010-06-13T10:26:29.97</time>
<name>13329</name>
</trkpt>
<trkpt lat="49.161910" lon="11.774993">
<ele>484.0</ele>
<speed>24.8</speed>
<course>289.2</course>
<desc>Speed 24.8 km/h Distance 51.21 km</desc>
<time>2010-06-13T10:26:30.97</time>
<name>13330</name>
</trkpt>
<trkpt lat="49.161932" lon="11.774898">
<ele>483.2</ele>
<speed>24.8</speed>
<course>288.6</course>
<desc>Speed 24.8 km/h Distance 51.22 km</desc>
<time>2010-06-13T10:26:31.97</time>
<name>13331</name>
</trkpt>
<trkpt lat="49.161953" lon="11.774800">
<ele>482.3</ele>
<speed>25.1</speed>
<course>287.6</course>
<desc>Speed 25.1 km/h Distance 51.22 km</desc>
<time>2010-06-13T10:26:32.97</time>
<name>13332</name>
</trkpt>
<trkpt lat="49.161973" lon="11.774703">
<ele>480.6</ele>
<speed>25.3</speed>
<course>287.6</course>
<desc>Speed 25.3 km/h Distance 51.23 km</desc>
<time>2010-06-13T10:26:33.97</time>
<name>13333</name>
</trkpt>
<trkpt lat="49.161993" lon="11.774607">
<ele>480.2</ele>
<speed>25.3</speed>
<course>285.4</course>
<desc>Speed 25.3 km/h Distance 51.24 km</desc>
<time>2010-06-13T10:26:34.97</time>
<name>13334</name>
</trkpt>
<trkpt lat="49.162012" lon="11.774505">
<ele>480.9</ele>
<speed>25.7</speed>
<course>283.9</course>
<desc>Speed 25.7 km/h Distance 51.25 km</desc>
<time>2010-06-13T10:26:35.97</time>
<name>13335</name>
</trkpt>
<trkpt lat="49.162028" lon="11.774402">
<ele>481.5</ele>
<speed>25.4</speed>
<course>280.5</course>
<desc>Speed 25.4 km/h Distance 51.25 km</desc>
<time>2010-06-13T10:26:36.97</time>
<name>13336</name>
</trkpt>
<trkpt lat="49.162042" lon="11.774292">
<ele>482.7</ele>
<speed>25.8</speed>
<course>281.0</course>
<desc>Speed 25.8 km/h Distance 51.26 km</desc>
<time>2010-06-13T10:26:37.97</time>
<name>13337</name>
</trkpt>
<trkpt lat="49.162055" lon="11.774187">
<ele>483.4</ele>
<speed>25.6</speed>
<course>276.0</course>
<desc>Speed 25.6 km/h Distance 51.27 km</desc>
<time>2010-06-13T10:26:38.97</time>
<name>13338</name>
</trkpt>
<trkpt lat="49.162062" lon="11.774090">
<ele>483.0</ele>
<speed>25.7</speed>
<course>273.0</course>
<desc>Speed 25.7 km/h Distance 51.28 km</desc>
<time>2010-06-13T10:26:39.97</time>
<name>13339</name>
</trkpt>
<trkpt lat="49.162065" lon="11.773992">
<ele>482.8</ele>
<speed>25.6</speed>
<course>270.0</course>
<desc>Speed 25.6 km/h Distance 51.28 km</desc>
<time>2010-06-13T10:26:40.97</time>
<name>13340</name>
</trkpt>
<trkpt lat="49.162065" lon="11.773892">
<ele>483.3</ele>
<speed>25.8</speed>
<course>267.0</course>
<desc>Speed 25.8 km/h Distance 51.29 km</desc>
<time>2010-06-13T10:26:41.97</time>
<name>13341</name>
</trkpt>
<trkpt lat="49.162062" lon="11.773793">
<ele>483.7</ele>
<speed>25.5</speed>
<course>266.9</course>
<desc>Speed 25.5 km/h Distance 51.30 km</desc>
<time>2010-06-13T10:26:42.97</time>
<name>13342</name>
</trkpt>
<trkpt lat="49.162058" lon="11.773698">
<ele>484.4</ele>
<speed>24.3</speed>
<course>263.8</course>
<desc>Speed 24.3 km/h Distance 51.31 km</desc>
<time>2010-06-13T10:26:43.97</time>
<name>13343</name>
</trkpt>
<trkpt lat="49.162052" lon="11.773605">
<ele>484.8</ele>
<speed>23.5</speed>
<course>257.9</course>
<desc>Speed 23.5 km/h Distance 51.31 km</desc>
<time>2010-06-13T10:26:44.97</time>
<name>13344</name>
</trkpt>
<trkpt lat="49.162038" lon="11.773510">
<ele>485.7</ele>
<speed>23.0</speed>
<course>250.1</course>
<desc>Speed 23.0 km/h Distance 51.32 km</desc>
<time>2010-06-13T10:26:45.97</time>
<name>13345</name>
</trkpt>
<trkpt lat="49.162017" lon="11.773418">
<ele>486.6</ele>
<speed>23.1</speed>
<course>242.5</course>
<desc>Speed 23.1 km/h Distance 51.33 km</desc>
<time>2010-06-13T10:26:46.97</time>
<name>13346</name>
</trkpt>
<trkpt lat="49.161990" lon="11.773340">
<ele>487.1</ele>
<speed>22.0</speed>
<course>236.6</course>
<desc>Speed 22.0 km/h Distance 51.33 km</desc>
<time>2010-06-13T10:26:47.97</time>
<name>13347</name>
</trkpt>
<trkpt lat="49.161958" lon="11.773267">
<ele>487.7</ele>
<speed>21.3</speed>
<course>231.8</course>
<desc>Speed 21.3 km/h Distance 51.34 km</desc>
<time>2010-06-13T10:26:48.97</time>
<name>13348</name>
</trkpt>
<trkpt lat="49.161930" lon="11.773212">
<ele>486.8</ele>
<speed>20.4</speed>
<course>234.2</course>
<desc>Speed 20.4 km/h Distance 51.34 km</desc>
<time>2010-06-13T10:26:49.97</time>
<name>13349</name>
</trkpt>
<trkpt lat="49.161902" lon="11.773152">
<ele>486.2</ele>
<speed>20.8</speed>
<course>250.8</course>
<desc>Speed 20.8 km/h Distance 51.35 km</desc>
<time>2010-06-13T10:26:50.97</time>
<name>13350</name>
</trkpt>
<trkpt lat="49.161885" lon="11.773078">
<ele>486.9</ele>
<speed>19.9</speed>
<course>254.1</course>
<desc>Speed 19.9 km/h Distance 51.36 km</desc>
<time>2010-06-13T10:26:51.97</time>
<name>13351</name>
</trkpt>
<trkpt lat="49.161872" lon="11.773007">
<ele>486.2</ele>
<speed>19.3</speed>
<course>260.6</course>
<desc>Speed 19.3 km/h Distance 51.36 km</desc>
<time>2010-06-13T10:26:52.97</time>
<name>13352</name>
</trkpt>
<trkpt lat="49.161863" lon="11.772930">
<ele>485.8</ele>
<speed>20.4</speed>
<course>264.5</course>
<desc>Speed 20.4 km/h Distance 51.37 km</desc>
<time>2010-06-13T10:26:53.97</time>
<name>13353</name>
</trkpt>
<trkpt lat="49.161858" lon="11.772850">
<ele>485.9</ele>
<speed>21.5</speed>
<course>261.9</course>
<desc>Speed 21.5 km/h Distance 51.37 km</desc>
<time>2010-06-13T10:26:54.97</time>
<name>13354</name>
</trkpt>
<trkpt lat="49.161850" lon="11.772760">
<ele>486.7</ele>
<speed>21.2</speed>
<course>258.2</course>
<desc>Speed 21.2 km/h Distance 51.38 km</desc>
<time>2010-06-13T10:26:55.97</time>
<name>13355</name>
</trkpt>
<trkpt lat="49.161840" lon="11.772687">
<ele>486.1</ele>
<speed>20.3</speed>
<course>247.0</course>
<desc>Speed 20.3 km/h Distance 51.38 km</desc>
<time>2010-06-13T10:26:56.97</time>
<name>13356</name>
</trkpt>
<trkpt lat="49.161823" lon="11.772627">
<ele>484.6</ele>
<speed>19.3</speed>
<course>241.6</course>
<desc>Speed 19.3 km/h Distance 51.39 km</desc>
<time>2010-06-13T10:26:57.97</time>
<name>13357</name>
</trkpt>
<trkpt lat="49.161803" lon="11.772570">
<ele>483.1</ele>
<speed>19.8</speed>
<course>238.5</course>
<desc>Speed 19.8 km/h Distance 51.39 km</desc>
<time>2010-06-13T10:26:58.97</time>
<name>13358</name>
</trkpt>
<trkpt lat="49.161777" lon="11.772503">
<ele>482.9</ele>
<speed>20.7</speed>
<course>238.2</course>
<desc>Speed 20.7 km/h Distance 51.40 km</desc>
<time>2010-06-13T10:26:59.97</time>
<name>13359</name>
</trkpt>
<trkpt lat="49.161748" lon="11.772433">
<ele>483.0</ele>
<speed>20.1</speed>
<course>234.2</course>
<desc>Speed 20.1 km/h Distance 51.41 km</desc>
<time>2010-06-13T10:27:00.97</time>
<name>13360</name>
</trkpt>
<trkpt lat="49.161720" lon="11.772373">
<ele>482.6</ele>
<speed>19.0</speed>
<course>239.9</course>
<desc>Speed 19.0 km/h Distance 51.41 km</desc>
<time>2010-06-13T10:27:01.97</time>
<name>13361</name>
</trkpt>
<trkpt lat="49.161697" lon="11.772312">
<ele>482.6</ele>
<speed>18.3</speed>
<course>237.9</course>
<desc>Speed 18.3 km/h Distance 51.42 km</desc>
<time>2010-06-13T10:27:02.97</time>
<name>13362</name>
</trkpt>
<trkpt lat="49.161670" lon="11.772247">
<ele>482.9</ele>
<speed>17.8</speed>
<course>241.8</course>
<desc>Speed 17.8 km/h Distance 51.42 km</desc>
<time>2010-06-13T10:27:03.97</time>
<name>13363</name>
</trkpt>
<trkpt lat="49.161648" lon="11.772185">
<ele>482.6</ele>
<speed>17.8</speed>
<course>245.4</course>
<desc>Speed 17.8 km/h Distance 51.43 km</desc>
<time>2010-06-13T10:27:04.97</time>
<name>13364</name>
</trkpt>
<trkpt lat="49.161628" lon="11.772118">
<ele>482.6</ele>
<speed>18.9</speed>
<course>250.0</course>
<desc>Speed 18.9 km/h Distance 51.43 km</desc>
<time>2010-06-13T10:27:05.97</time>
<name>13365</name>
</trkpt>
<trkpt lat="49.161612" lon="11.772048">
<ele>482.2</ele>
<speed>19.2</speed>
<course>252.3</course>
<desc>Speed 19.2 km/h Distance 51.44 km</desc>
<time>2010-06-13T10:27:06.97</time>
<name>13366</name>
</trkpt>
<trkpt lat="49.161597" lon="11.771977">
<ele>481.1</ele>
<speed>21.5</speed>
<course>256.3</course>
<desc>Speed 21.5 km/h Distance 51.44 km</desc>
<time>2010-06-13T10:27:07.97</time>
<name>13367</name>
</trkpt>
<trkpt lat="49.161583" lon="11.771893">
<ele>480.7</ele>
<speed>22.6</speed>
<course>261.9</course>
<desc>Speed 22.6 km/h Distance 51.45 km</desc>
<time>2010-06-13T10:27:08.97</time>
<name>13368</name>
</trkpt>
<trkpt lat="49.161575" lon="11.771803">
<ele>480.4</ele>
<speed>23.4</speed>
<course>267.1</course>
<desc>Speed 23.4 km/h Distance 51.46 km</desc>
<time>2010-06-13T10:27:09.97</time>
<name>13369</name>
</trkpt>
<trkpt lat="49.161572" lon="11.771702">
<ele>481.4</ele>
<speed>23.6</speed>
<course>271.6</course>
<desc>Speed 23.6 km/h Distance 51.46 km</desc>
<time>2010-06-13T10:27:10.97</time>
<name>13370</name>
</trkpt>
<trkpt lat="49.161573" lon="11.771608">
<ele>481.5</ele>
<speed>23.2</speed>
<course>274.9</course>
<desc>Speed 23.2 km/h Distance 51.47 km</desc>
<time>2010-06-13T10:27:11.97</time>
<name>13371</name>
</trkpt>
<trkpt lat="49.161578" lon="11.771518">
<ele>481.5</ele>
<speed>23.3</speed>
<course>279.1</course>
<desc>Speed 23.3 km/h Distance 51.48 km</desc>
<time>2010-06-13T10:27:12.97</time>
<name>13372</name>
</trkpt>
<trkpt lat="49.161587" lon="11.771438">
<ele>480.4</ele>
<speed>22.4</speed>
<course>280.0</course>
<desc>Speed 22.4 km/h Distance 51.48 km</desc>
<time>2010-06-13T10:27:13.97</time>
<name>13373</name>
</trkpt>
<trkpt lat="49.161597" lon="11.771352">
<ele>480.7</ele>
<speed>22.5</speed>
<course>283.2</course>
<desc>Speed 22.5 km/h Distance 51.49 km</desc>
<time>2010-06-13T10:27:14.97</time>
<name>13374</name>
</trkpt>
<trkpt lat="49.161610" lon="11.771265">
<ele>481.0</ele>
<speed>22.9</speed>
<course>281.9</course>
<desc>Speed 22.9 km/h Distance 51.50 km</desc>
<time>2010-06-13T10:27:15.97</time>
<name>13375</name>
</trkpt>
<trkpt lat="49.161622" lon="11.771180">
<ele>481.2</ele>
<speed>22.6</speed>
<course>288.9</course>
<desc>Speed 22.6 km/h Distance 51.50 km</desc>
<time>2010-06-13T10:27:16.97</time>
<name>13376</name>
</trkpt>
<trkpt lat="49.161640" lon="11.771098">
<ele>481.1</ele>
<speed>21.6</speed>
<course>287.3</course>
<desc>Speed 21.6 km/h Distance 51.51 km</desc>
<time>2010-06-13T10:27:17.97</time>
<name>13377</name>
</trkpt>
<trkpt lat="49.161657" lon="11.771017">
<ele>480.9</ele>
<speed>21.3</speed>
<course>286.0</course>
<desc>Speed 21.3 km/h Distance 51.51 km</desc>
<time>2010-06-13T10:27:18.97</time>
<name>13378</name>
</trkpt>
<trkpt lat="49.161672" lon="11.770937">
<ele>480.8</ele>
<speed>21.2</speed>
<course>281.9</course>
<desc>Speed 21.2 km/h Distance 51.52 km</desc>
<time>2010-06-13T10:27:19.97</time>
<name>13379</name>
</trkpt>
<trkpt lat="49.161683" lon="11.770852">
<ele>481.0</ele>
<speed>22.0</speed>
<course>282.1</course>
<desc>Speed 22.0 km/h Distance 51.53 km</desc>
<time>2010-06-13T10:27:20.97</time>
<name>13380</name>
</trkpt>
<trkpt lat="49.161695" lon="11.770768">
<ele>480.8</ele>
<speed>22.2</speed>
<course>290.1</course>
<desc>Speed 22.2 km/h Distance 51.53 km</desc>
<time>2010-06-13T10:27:21.97</time>
<name>13381</name>
</trkpt>
<trkpt lat="49.161713" lon="11.770692">
<ele>480.5</ele>
<speed>21.6</speed>
<course>293.6</course>
<desc>Speed 21.6 km/h Distance 51.54 km</desc>
<time>2010-06-13T10:27:22.97</time>
<name>13382</name>
</trkpt>
<trkpt lat="49.161733" lon="11.770622">
<ele>480.8</ele>
<speed>21.3</speed>
<course>292.5</course>
<desc>Speed 21.3 km/h Distance 51.54 km</desc>
<time>2010-06-13T10:27:23.97</time>
<name>13383</name>
</trkpt>
<trkpt lat="49.161755" lon="11.770542">
<ele>481.0</ele>
<speed>21.6</speed>
<course>292.9</course>
<desc>Speed 21.6 km/h Distance 51.55 km</desc>
<time>2010-06-13T10:27:24.97</time>
<name>13384</name>
</trkpt>
<trkpt lat="49.161777" lon="11.770463">
<ele>481.1</ele>
<speed>22.1</speed>
<course>291.3</course>
<desc>Speed 22.1 km/h Distance 51.56 km</desc>
<time>2010-06-13T10:27:25.97</time>
<name>13385</name>
</trkpt>
<trkpt lat="49.161797" lon="11.770385">
<ele>481.1</ele>
<speed>21.7</speed>
<course>279.1</course>
<desc>Speed 21.7 km/h Distance 51.56 km</desc>
<time>2010-06-13T10:27:26.97</time>
<name>13386</name>
</trkpt>
<trkpt lat="49.161805" lon="11.770305">
<ele>480.8</ele>
<speed>22.1</speed>
<course>289.6</course>
<desc>Speed 22.1 km/h Distance 51.57 km</desc>
<time>2010-06-13T10:27:27.97</time>
<name>13387</name>
</trkpt>
<trkpt lat="49.161822" lon="11.770233">
<ele>481.6</ele>
<speed>22.1</speed>
<course>270.0</course>
<desc>Speed 22.1 km/h Distance 51.57 km</desc>
<time>2010-06-13T10:27:28.97</time>
<name>13388</name>
</trkpt>
<trkpt lat="49.161822" lon="11.770138">
<ele>480.4</ele>
<speed>22.2</speed>
<course>271.5</course>
<desc>Speed 22.2 km/h Distance 51.58 km</desc>
<time>2010-06-13T10:27:29.97</time>
<name>13389</name>
</trkpt>
<trkpt lat="49.161823" lon="11.770040">
<ele>480.4</ele>
<speed>24.0</speed>
<course>276.3</course>
<desc>Speed 24.0 km/h Distance 51.59 km</desc>
<time>2010-06-13T10:27:30.97</time>
<name>13390</name>
</trkpt>
<trkpt lat="49.161830" lon="11.769948">
<ele>480.7</ele>
<speed>24.1</speed>
<course>277.9</course>
<desc>Speed 24.1 km/h Distance 51.60 km</desc>
<time>2010-06-13T10:27:31.97</time>
<name>13391</name>
</trkpt>
<trkpt lat="49.161838" lon="11.769857">
<ele>481.2</ele>
<speed>23.5</speed>
<course>285.4</course>
<desc>Speed 23.5 km/h Distance 51.60 km</desc>
<time>2010-06-13T10:27:32.97</time>
<name>13392</name>
</trkpt>
<trkpt lat="49.161853" lon="11.769773">
<ele>480.1</ele>
<speed>23.1</speed>
<course>281.6</course>
<desc>Speed 23.1 km/h Distance 51.61 km</desc>
<time>2010-06-13T10:27:33.97</time>
<name>13393</name>
</trkpt>
<trkpt lat="49.161865" lon="11.769687">
<ele>478.4</ele>
<speed>22.8</speed>
<course>295.5</course>
<desc>Speed 22.8 km/h Distance 51.61 km</desc>
<time>2010-06-13T10:27:34.97</time>
<name>13394</name>
</trkpt>
<trkpt lat="49.161890" lon="11.769607">
<ele>478.2</ele>
<speed>21.3</speed>
<course>303.9</course>
<desc>Speed 21.3 km/h Distance 51.62 km</desc>
<time>2010-06-13T10:27:35.97</time>
<name>13395</name>
</trkpt>
<trkpt lat="49.161920" lon="11.769538">
<ele>478.9</ele>
<speed>22.0</speed>
<course>306.1</course>
<desc>Speed 22.0 km/h Distance 51.63 km</desc>
<time>2010-06-13T10:27:36.97</time>
<name>13396</name>
</trkpt>
<trkpt lat="49.161953" lon="11.769468">
<ele>478.5</ele>
<speed>22.0</speed>
<course>306.1</course>
<desc>Speed 22.0 km/h Distance 51.63 km</desc>
<time>2010-06-13T10:27:37.97</time>
<name>13397</name>
</trkpt>
<trkpt lat="49.161987" lon="11.769398">
<ele>478.8</ele>
<speed>21.9</speed>
<course>303.7</course>
<desc>Speed 21.9 km/h Distance 51.64 km</desc>
<time>2010-06-13T10:27:38.97</time>
<name>13398</name>
</trkpt>
<trkpt lat="49.162015" lon="11.769333">
<ele>479.5</ele>
<speed>22.1</speed>
<course>308.1</course>
<desc>Speed 22.1 km/h Distance 51.65 km</desc>
<time>2010-06-13T10:27:39.97</time>
<name>13399</name>
</trkpt>
<trkpt lat="49.162048" lon="11.769268">
<ele>480.3</ele>
<speed>22.0</speed>
<course>303.7</course>
<desc>Speed 22.0 km/h Distance 51.65 km</desc>
<time>2010-06-13T10:27:40.97</time>
<name>13400</name>
</trkpt>
<trkpt lat="49.162077" lon="11.769203">
<ele>480.3</ele>
<speed>21.8</speed>
<course>318.4</course>
<desc>Speed 21.8 km/h Distance 51.66 km</desc>
<time>2010-06-13T10:27:41.97</time>
<name>13401</name>
</trkpt>
<trkpt lat="49.162118" lon="11.769147">
<ele>481.6</ele>
<speed>20.8</speed>
<course>316.0</course>
<desc>Speed 20.8 km/h Distance 51.66 km</desc>
<time>2010-06-13T10:27:42.97</time>
<name>13402</name>
</trkpt>
<trkpt lat="49.162157" lon="11.769090">
<ele>482.2</ele>
<speed>20.7</speed>
<course>313.1</course>
<desc>Speed 20.7 km/h Distance 51.67 km</desc>
<time>2010-06-13T10:27:43.97</time>
<name>13403</name>
</trkpt>
<trkpt lat="49.162193" lon="11.769030">
<ele>483.2</ele>
<speed>20.9</speed>
<course>312.0</course>
<desc>Speed 20.9 km/h Distance 51.68 km</desc>
<time>2010-06-13T10:27:44.97</time>
<name>13404</name>
</trkpt>
<trkpt lat="49.162227" lon="11.768973">
<ele>483.4</ele>
<speed>19.7</speed>
<course>312.0</course>
<desc>Speed 19.7 km/h Distance 51.68 km</desc>
<time>2010-06-13T10:27:45.97</time>
<name>13405</name>
</trkpt>
<trkpt lat="49.162260" lon="11.768917">
<ele>483.5</ele>
<speed>19.5</speed>
<course>311.2</course>
<desc>Speed 19.5 km/h Distance 51.69 km</desc>
<time>2010-06-13T10:27:46.97</time>
<name>13406</name>
</trkpt>
<trkpt lat="49.162293" lon="11.768858">
<ele>483.5</ele>
<speed>20.0</speed>
<course>308.2</course>
<desc>Speed 20.0 km/h Distance 51.69 km</desc>
<time>2010-06-13T10:27:47.97</time>
<name>13407</name>
</trkpt>
<trkpt lat="49.162323" lon="11.768800">
<ele>483.4</ele>
<speed>20.2</speed>
<course>301.8</course>
<desc>Speed 20.2 km/h Distance 51.70 km</desc>
<time>2010-06-13T10:27:48.97</time>
<name>13408</name>
</trkpt>
<trkpt lat="49.162352" lon="11.768730">
<ele>483.5</ele>
<speed>21.2</speed>
<course>295.9</course>
<desc>Speed 21.2 km/h Distance 51.70 km</desc>
<time>2010-06-13T10:27:49.97</time>
<name>13409</name>
</trkpt>
<trkpt lat="49.162375" lon="11.768657">
<ele>484.2</ele>
<speed>20.3</speed>
<course>308.1</course>
<desc>Speed 20.3 km/h Distance 51.71 km</desc>
<time>2010-06-13T10:27:50.97</time>
<name>13410</name>
</trkpt>
<trkpt lat="49.162410" lon="11.768588">
<ele>483.2</ele>
<speed>21.2</speed>
<course>296.0</course>
<desc>Speed 21.2 km/h Distance 51.72 km</desc>
<time>2010-06-13T10:27:51.97</time>
<name>13411</name>
</trkpt>
<trkpt lat="49.162435" lon="11.768510">
<ele>483.0</ele>
<speed>20.3</speed>
<course>302.4</course>
<desc>Speed 20.3 km/h Distance 51.72 km</desc>
<time>2010-06-13T10:27:52.97</time>
<name>13412</name>
</trkpt>
<trkpt lat="49.162463" lon="11.768442">
<ele>482.2</ele>
<speed>19.2</speed>
<course>303.0</course>
<desc>Speed 19.2 km/h Distance 51.73 km</desc>
<time>2010-06-13T10:27:53.97</time>
<name>13413</name>
</trkpt>
<trkpt lat="49.162492" lon="11.768375">
<ele>481.6</ele>
<speed>19.8</speed>
<course>307.4</course>
<desc>Speed 19.8 km/h Distance 51.73 km</desc>
<time>2010-06-13T10:27:54.97</time>
<name>13414</name>
</trkpt>
<trkpt lat="49.162528" lon="11.768302">
<ele>480.6</ele>
<speed>20.3</speed>
<course>301.8</course>
<desc>Speed 20.3 km/h Distance 51.74 km</desc>
<time>2010-06-13T10:27:55.97</time>
<name>13415</name>
</trkpt>
<trkpt lat="49.162557" lon="11.768232">
<ele>479.9</ele>
<speed>19.8</speed>
<course>304.8</course>
<desc>Speed 19.8 km/h Distance 51.75 km</desc>
<time>2010-06-13T10:27:56.97</time>
<name>13416</name>
</trkpt>
<trkpt lat="49.162590" lon="11.768158">
<ele>480.9</ele>
<speed>20.4</speed>
<course>293.1</course>
<desc>Speed 20.4 km/h Distance 51.75 km</desc>
<time>2010-06-13T10:27:57.97</time>
<name>13417</name>
</trkpt>
<trkpt lat="49.162610" lon="11.768087">
<ele>481.5</ele>
<speed>19.7</speed>
<course>295.4</course>
<desc>Speed 19.7 km/h Distance 51.76 km</desc>
<time>2010-06-13T10:27:58.97</time>
<name>13418</name>
</trkpt>
<trkpt lat="49.162633" lon="11.768012">
<ele>481.0</ele>
<speed>19.6</speed>
<course>298.2</course>
<desc>Speed 19.6 km/h Distance 51.76 km</desc>
<time>2010-06-13T10:27:59.97</time>
<name>13419</name>
</trkpt>
<trkpt lat="49.162655" lon="11.767950">
<ele>480.1</ele>
<speed>18.3</speed>
<course>286.1</course>
<desc>Speed 18.3 km/h Distance 51.77 km</desc>
<time>2010-06-13T10:28:00.97</time>
<name>13420</name>
</trkpt>
<trkpt lat="49.162667" lon="11.767888">
<ele>478.7</ele>
<speed>17.2</speed>
<course>293.3</course>
<desc>Speed 17.2 km/h Distance 51.77 km</desc>
<time>2010-06-13T10:28:01.97</time>
<name>13421</name>
</trkpt>
<trkpt lat="49.162685" lon="11.767823">
<ele>479.1</ele>
<speed>17.0</speed>
<course>290.0</course>
<desc>Speed 17.0 km/h Distance 51.78 km</desc>
<time>2010-06-13T10:28:02.97</time>
<name>13422</name>
</trkpt>
<trkpt lat="49.162702" lon="11.767753">
<ele>480.0</ele>
<speed>16.0</speed>
<course>295.5</course>
<desc>Speed 16.0 km/h Distance 51.78 km</desc>
<time>2010-06-13T10:28:03.97</time>
<name>13423</name>
</trkpt>
<trkpt lat="49.162718" lon="11.767700">
<ele>480.5</ele>
<speed>14.9</speed>
<course>298.5</course>
<desc>Speed 14.9 km/h Distance 51.79 km</desc>
<time>2010-06-13T10:28:04.97</time>
<name>13424</name>
</trkpt>
<trkpt lat="49.162737" lon="11.767648">
<ele>482.7</ele>
<speed>13.6</speed>
<course>287.0</course>
<desc>Speed 13.6 km/h Distance 51.79 km</desc>
<time>2010-06-13T10:28:05.97</time>
<name>13425</name>
</trkpt>
<trkpt lat="49.162748" lon="11.767590">
<ele>483.7</ele>
<speed>14.8</speed>
<course>283.4</course>
<desc>Speed 14.8 km/h Distance 51.80 km</desc>
<time>2010-06-13T10:28:06.97</time>
<name>13426</name>
</trkpt>
<trkpt lat="49.162757" lon="11.767537">
<ele>484.3</ele>
<speed>14.3</speed>
<course>286.0</course>
<desc>Speed 14.3 km/h Distance 51.80 km</desc>
<time>2010-06-13T10:28:07.97</time>
<name>13427</name>
</trkpt>
<trkpt lat="49.162767" lon="11.767483">
<ele>484.7</ele>
<speed>14.6</speed>
<course>280.2</course>
<desc>Speed 14.6 km/h Distance 51.81 km</desc>
<time>2010-06-13T10:28:08.97</time>
<name>13428</name>
</trkpt>
<trkpt lat="49.162773" lon="11.767427">
<ele>484.7</ele>
<speed>15.0</speed>
<course>284.7</course>
<desc>Speed 15.0 km/h Distance 51.81 km</desc>
<time>2010-06-13T10:28:09.97</time>
<name>13429</name>
</trkpt>
<trkpt lat="49.162783" lon="11.767368">
<ele>485.5</ele>
<speed>15.9</speed>
<course>288.0</course>
<desc>Speed 15.9 km/h Distance 51.81 km</desc>
<time>2010-06-13T10:28:10.97</time>
<name>13430</name>
</trkpt>
<trkpt lat="49.162795" lon="11.767313">
<ele>485.9</ele>
<speed>15.9</speed>
<course>292.0</course>
<desc>Speed 15.9 km/h Distance 51.82 km</desc>
<time>2010-06-13T10:28:11.97</time>
<name>13431</name>
</trkpt>
<trkpt lat="49.162810" lon="11.767257">
<ele>486.8</ele>
<speed>15.9</speed>
<course>294.9</course>
<desc>Speed 15.9 km/h Distance 51.82 km</desc>
<time>2010-06-13T10:28:12.97</time>
<name>13432</name>
</trkpt>
<trkpt lat="49.162827" lon="11.767202">
<ele>486.4</ele>
<speed>15.8</speed>
<course>300.6</course>
<desc>Speed 15.8 km/h Distance 51.83 km</desc>
<time>2010-06-13T10:28:13.97</time>
<name>13433</name>
</trkpt>
<trkpt lat="49.162847" lon="11.767150">
<ele>486.5</ele>
<speed>15.8</speed>
<course>294.4</course>
<desc>Speed 15.8 km/h Distance 51.83 km</desc>
<time>2010-06-13T10:28:14.97</time>
<name>13434</name>
</trkpt>
<trkpt lat="49.162865" lon="11.767088">
<ele>487.0</ele>
<speed>16.6</speed>
<course>303.0</course>
<desc>Speed 16.6 km/h Distance 51.84 km</desc>
<time>2010-06-13T10:28:15.97</time>
<name>13435</name>
</trkpt>
<trkpt lat="49.162888" lon="11.767033">
<ele>487.3</ele>
<speed>16.2</speed>
<course>278.2</course>
<desc>Speed 16.2 km/h Distance 51.84 km</desc>
<time>2010-06-13T10:28:16.97</time>
<name>13436</name>
</trkpt>
<trkpt lat="49.162893" lon="11.766980">
<ele>488.6</ele>
<speed>15.6</speed>
<course>289.4</course>
<desc>Speed 15.6 km/h Distance 51.85 km</desc>
<time>2010-06-13T10:28:17.97</time>
<name>13437</name>
</trkpt>
<trkpt lat="49.162903" lon="11.766937">
<ele>487.5</ele>
<speed>15.3</speed>
<course>277.9</course>
<desc>Speed 15.3 km/h Distance 51.85 km</desc>
<time>2010-06-13T10:28:18.97</time>
<name>13438</name>
</trkpt>
<trkpt lat="49.162910" lon="11.766863">
<ele>488.7</ele>
<speed>16.8</speed>
<course>281.8</course>
<desc>Speed 16.8 km/h Distance 51.85 km</desc>
<time>2010-06-13T10:28:19.97</time>
<name>13439</name>
</trkpt>
<trkpt lat="49.162920" lon="11.766790">
<ele>490.4</ele>
<speed>16.3</speed>
<course>288.8</course>
<desc>Speed 16.3 km/h Distance 51.86 km</desc>
<time>2010-06-13T10:28:20.97</time>
<name>13440</name>
</trkpt>
<trkpt lat="49.162933" lon="11.766730">
<ele>490.8</ele>
<speed>15.2</speed>
<course>278.5</course>
<desc>Speed 15.2 km/h Distance 51.86 km</desc>
<time>2010-06-13T10:28:21.97</time>
<name>13441</name>
</trkpt>
<trkpt lat="49.162940" lon="11.766662">
<ele>491.5</ele>
<speed>14.9</speed>
<course>277.9</course>
<desc>Speed 14.9 km/h Distance 51.87 km</desc>
<time>2010-06-13T10:28:22.97</time>
<name>13442</name>
</trkpt>
<trkpt lat="49.162945" lon="11.766607">
<ele>491.6</ele>
<speed>13.1</speed>
<course>276.5</course>
<desc>Speed 13.1 km/h Distance 51.87 km</desc>
<time>2010-06-13T10:28:23.97</time>
<name>13443</name>
</trkpt>
<trkpt lat="49.162948" lon="11.766562">
<ele>491.4</ele>
<speed>10.9</speed>
<course>279.1</course>
<desc>Speed 10.9 km/h Distance 51.88 km</desc>
<time>2010-06-13T10:28:24.97</time>
<name>13444</name>
</trkpt>
<trkpt lat="49.162952" lon="11.766530">
<ele>492.2</ele>
<speed>8.2</speed>
<course>297.0</course>
<desc>Speed 8.2 km/h Distance 51.88 km</desc>
<time>2010-06-13T10:28:25.97</time>
<name>13445</name>
</trkpt>
<trkpt lat="49.162958" lon="11.766510">
<ele>492.9</ele>
<speed>4.9</speed>
<course>349.6</course>
<desc>Speed 4.9 km/h Distance 51.88 km</desc>
<time>2010-06-13T10:28:26.97</time>
<name>13446</name>
</trkpt>
<trkpt lat="49.162970" lon="11.766507">
<ele>493.0</ele>
<speed>1.3</speed>
<course>12.6</course>
<desc>Speed 1.3 km/h Distance 51.88 km</desc>
<time>2010-06-13T10:28:27.97</time>
<name>13447</name>
</trkpt>
<trkpt lat="49.162980" lon="11.766510">
<ele>492.4</ele>
<speed>0.9</speed>
<course>26.4</course>
<desc>Speed 0.9 km/h Distance 51.88 km</desc>
<time>2010-06-13T10:28:28.97</time>
<name>13448</name>
</trkpt>
<trkpt lat="49.162987" lon="11.766515">
<ele>492.2</ele>
<speed>0.3</speed>
<course>33.2</course>
<desc>Speed 0.3 km/h Distance 51.88 km</desc>
<time>2010-06-13T10:28:29.97</time>
<name>13449</name>
</trkpt>
<trkpt lat="49.162993" lon="11.766522">
<ele>491.6</ele>
<speed>0.6</speed>
<course>12.6</course>
<desc>Speed 0.6 km/h Distance 51.88 km</desc>
<time>2010-06-13T10:28:30.97</time>
<name>13450</name>
</trkpt>
<trkpt lat="49.162995" lon="11.766522">
<ele>492.0</ele>
<speed>0.9</speed>
<course>232.4</course>
<desc>Speed 0.9 km/h Distance 51.89 km</desc>
<time>2010-06-13T10:28:31.97</time>
<name>13451</name>
</trkpt>
<trkpt lat="49.162992" lon="11.766515">
<ele>492.0</ele>
<speed>0.3</speed>
<course>232.4</course>
<desc>Speed 0.3 km/h Distance 51.89 km</desc>
<time>2010-06-13T10:28:33.49</time>
<name>13452</name>
</trkpt>
<trkpt lat="49.162992" lon="11.766515">
<ele>492.0</ele>
<speed>0.3</speed>
<course>355.6</course>
<desc>Speed 0.3 km/h Distance 51.89 km</desc>
<time>2010-06-13T10:28:33.97</time>
<name>13453</name>
</trkpt>
<trkpt lat="49.163048" lon="11.766508">
<ele>495.5</ele>
<speed>5.4</speed>
<course>277.9</course>
<desc>Speed 5.4 km/h Distance 51.89 km</desc>
<time>2010-06-13T10:28:35.97</time>
<name>13454</name>
</trkpt>
<trkpt lat="49.163055" lon="11.766435">
<ele>493.6</ele>
<speed>10.3</speed>
<course>286.4</course>
<desc>Speed 10.3 km/h Distance 51.90 km</desc>
<time>2010-06-13T10:28:37.50</time>
<name>13455</name>
</trkpt>
<trkpt lat="49.163063" lon="11.766392">
<ele>492.5</ele>
<speed>11.7</speed>
<course>266.6</course>
<desc>Speed 11.7 km/h Distance 51.90 km</desc>
<time>2010-06-13T10:28:38.97</time>
<name>13456</name>
</trkpt>
<trkpt lat="49.163062" lon="11.766348">
<ele>490.9</ele>
<speed>12.6</speed>
<course>270.0</course>
<desc>Speed 12.6 km/h Distance 51.90 km</desc>
<time>2010-06-13T10:28:39.97</time>
<name>13457</name>
</trkpt>
<trkpt lat="49.163062" lon="11.766288">
<ele>488.6</ele>
<speed>13.9</speed>
<course>277.1</course>
<desc>Speed 13.9 km/h Distance 51.91 km</desc>
<time>2010-06-13T10:28:40.97</time>
<name>13458</name>
</trkpt>
<trkpt lat="49.163067" lon="11.766227">
<ele>488.6</ele>
<speed>14.8</speed>
<course>283.9</course>
<desc>Speed 14.8 km/h Distance 51.91 km</desc>
<time>2010-06-13T10:28:41.97</time>
<name>13459</name>
</trkpt>
<trkpt lat="49.163077" lon="11.766165">
<ele>489.1</ele>
<speed>16.4</speed>
<course>275.5</course>
<desc>Speed 16.4 km/h Distance 51.92 km</desc>
<time>2010-06-13T10:28:42.97</time>
<name>13460</name>
</trkpt>
<trkpt lat="49.163082" lon="11.766085">
<ele>488.7</ele>
<speed>19.3</speed>
<course>279.9</course>
<desc>Speed 19.3 km/h Distance 51.92 km</desc>
<time>2010-06-13T10:28:43.97</time>
<name>13461</name>
</trkpt>
<trkpt lat="49.163090" lon="11.766012">
<ele>488.1</ele>
<speed>19.4</speed>
<course>283.4</course>
<desc>Speed 19.4 km/h Distance 51.93 km</desc>
<time>2010-06-13T10:28:44.97</time>
<name>13462</name>
</trkpt>
<trkpt lat="49.163102" lon="11.765937">
<ele>488.0</ele>
<speed>19.4</speed>
<course>285.3</course>
<desc>Speed 19.4 km/h Distance 51.93 km</desc>
<time>2010-06-13T10:28:45.97</time>
<name>13463</name>
</trkpt>
<trkpt lat="49.163113" lon="11.765872">
<ele>486.8</ele>
<speed>19.4</speed>
<course>283.2</course>
<desc>Speed 19.4 km/h Distance 51.94 km</desc>
<time>2010-06-13T10:28:46.97</time>
<name>13464</name>
</trkpt>
<trkpt lat="49.163123" lon="11.765807">
<ele>485.7</ele>
<speed>19.8</speed>
<course>282.9</course>
<desc>Speed 19.8 km/h Distance 51.94 km</desc>
<time>2010-06-13T10:28:47.97</time>
<name>13465</name>
</trkpt>
<trkpt lat="49.163133" lon="11.765740">
<ele>484.4</ele>
<speed>19.1</speed>
<course>277.6</course>
<desc>Speed 19.1 km/h Distance 51.95 km</desc>
<time>2010-06-13T10:28:48.97</time>
<name>13466</name>
</trkpt>
<trkpt lat="49.163140" lon="11.765663">
<ele>484.5</ele>
<speed>19.4</speed>
<course>280.3</course>
<desc>Speed 19.4 km/h Distance 51.95 km</desc>
<time>2010-06-13T10:28:49.97</time>
<name>13467</name>
</trkpt>
<trkpt lat="49.163148" lon="11.765593">
<ele>483.7</ele>
<speed>18.6</speed>
<course>279.4</course>
<desc>Speed 18.6 km/h Distance 51.96 km</desc>
<time>2010-06-13T10:28:50.97</time>
<name>13468</name>
</trkpt>
<trkpt lat="49.163157" lon="11.765517">
<ele>484.1</ele>
<speed>18.7</speed>
<course>285.2</course>
<desc>Speed 18.7 km/h Distance 51.97 km</desc>
<time>2010-06-13T10:28:51.97</time>
<name>13469</name>
</trkpt>
<trkpt lat="49.163170" lon="11.765442">
<ele>484.0</ele>
<speed>19.3</speed>
<course>284.0</course>
<desc>Speed 19.3 km/h Distance 51.97 km</desc>
<time>2010-06-13T10:28:52.97</time>
<name>13470</name>
</trkpt>
<trkpt lat="49.163182" lon="11.765370">
<ele>483.7</ele>
<speed>20.0</speed>
<course>280.3</course>
<desc>Speed 20.0 km/h Distance 51.98 km</desc>
<time>2010-06-13T10:28:53.97</time>
<name>13471</name>
</trkpt>
<trkpt lat="49.163190" lon="11.765300">
<ele>483.4</ele>
<speed>19.0</speed>
<course>281.8</course>
<desc>Speed 19.0 km/h Distance 51.98 km</desc>
<time>2010-06-13T10:28:54.97</time>
<name>13472</name>
</trkpt>
<trkpt lat="49.163200" lon="11.765227">
<ele>483.1</ele>
<speed>18.6</speed>
<course>263.9</course>
<desc>Speed 18.6 km/h Distance 51.99 km</desc>
<time>2010-06-13T10:28:55.97</time>
<name>13473</name>
</trkpt>
<trkpt lat="49.163195" lon="11.765155">
<ele>482.7</ele>
<speed>18.7</speed>
<course>249.5</course>
<desc>Speed 18.7 km/h Distance 51.99 km</desc>
<time>2010-06-13T10:28:56.97</time>
<name>13474</name>
</trkpt>
<trkpt lat="49.163178" lon="11.765087">
<ele>482.6</ele>
<speed>17.9</speed>
<course>235.3</course>
<desc>Speed 17.9 km/h Distance 52.00 km</desc>
<time>2010-06-13T10:28:57.97</time>
<name>13475</name>
</trkpt>
<trkpt lat="49.163147" lon="11.765017">
<ele>483.7</ele>
<speed>18.5</speed>
<course>218.8</course>
<desc>Speed 18.5 km/h Distance 52.00 km</desc>
<time>2010-06-13T10:28:58.97</time>
<name>13476</name>
</trkpt>
<trkpt lat="49.163103" lon="11.764963">
<ele>484.3</ele>
<speed>19.8</speed>
<course>207.8</course>
<desc>Speed 19.8 km/h Distance 52.01 km</desc>
<time>2010-06-13T10:28:59.97</time>
<name>13477</name>
</trkpt>
<trkpt lat="49.163060" lon="11.764928">
<ele>484.6</ele>
<speed>20.6</speed>
<course>213.2</course>
<desc>Speed 20.6 km/h Distance 52.02 km</desc>
<time>2010-06-13T10:29:00.97</time>
<name>13478</name>
</trkpt>
<trkpt lat="49.163013" lon="11.764882">
<ele>485.6</ele>
<speed>21.0</speed>
<course>211.3</course>
<desc>Speed 21.0 km/h Distance 52.02 km</desc>
<time>2010-06-13T10:29:01.97</time>
<name>13479</name>
</trkpt>
<trkpt lat="49.162967" lon="11.764838">
<ele>486.6</ele>
<speed>20.1</speed>
<course>217.0</course>
<desc>Speed 20.1 km/h Distance 52.03 km</desc>
<time>2010-06-13T10:29:02.97</time>
<name>13480</name>
</trkpt>
<trkpt lat="49.162923" lon="11.764788">
<ele>488.3</ele>
<speed>18.4</speed>
<course>219.5</course>
<desc>Speed 18.4 km/h Distance 52.03 km</desc>
<time>2010-06-13T10:29:03.97</time>
<name>13481</name>
</trkpt>
<trkpt lat="49.162885" lon="11.764740">
<ele>488.9</ele>
<speed>18.3</speed>
<course>227.5</course>
<desc>Speed 18.3 km/h Distance 52.04 km</desc>
<time>2010-06-13T10:29:04.97</time>
<name>13482</name>
</trkpt>
<trkpt lat="49.162850" lon="11.764682">
<ele>489.4</ele>
<speed>17.4</speed>
<course>229.5</course>
<desc>Speed 17.4 km/h Distance 52.05 km</desc>
<time>2010-06-13T10:29:05.97</time>
<name>13483</name>
</trkpt>
<trkpt lat="49.162818" lon="11.764625">
<ele>489.3</ele>
<speed>15.6</speed>
<course>242.2</course>
<desc>Speed 15.6 km/h Distance 52.05 km</desc>
<time>2010-06-13T10:29:06.97</time>
<name>13484</name>
</trkpt>
<trkpt lat="49.162802" lon="11.764577">
<ele>488.5</ele>
<speed>13.0</speed>
<course>257.7</course>
<desc>Speed 13.0 km/h Distance 52.05 km</desc>
<time>2010-06-13T10:29:07.97</time>
<name>13485</name>
</trkpt>
<trkpt lat="49.162793" lon="11.764518">
<ele>487.4</ele>
<speed>12.5</speed>
<course>272.0</course>
<desc>Speed 12.5 km/h Distance 52.06 km</desc>
<time>2010-06-13T10:29:08.97</time>
<name>13486</name>
</trkpt>
<trkpt lat="49.162795" lon="11.764447">
<ele>486.3</ele>
<speed>16.2</speed>
<course>282.8</course>
<desc>Speed 16.2 km/h Distance 52.06 km</desc>
<time>2010-06-13T10:29:09.97</time>
<name>13487</name>
</trkpt>
<trkpt lat="49.162807" lon="11.764368">
<ele>485.7</ele>
<speed>19.5</speed>
<course>306.7</course>
<desc>Speed 19.5 km/h Distance 52.07 km</desc>
<time>2010-06-13T10:29:10.97</time>
<name>13488</name>
</trkpt>
<trkpt lat="49.162840" lon="11.764300">
<ele>487.5</ele>
<speed>19.5</speed>
<course>309.5</course>
<desc>Speed 19.5 km/h Distance 52.08 km</desc>
<time>2010-06-13T10:29:11.97</time>
<name>13489</name>
</trkpt>
<trkpt lat="49.162875" lon="11.764235">
<ele>487.0</ele>
<speed>20.4</speed>
<course>294.8</course>
<desc>Speed 20.4 km/h Distance 52.08 km</desc>
<time>2010-06-13T10:29:12.97</time>
<name>13490</name>
</trkpt>
<trkpt lat="49.162897" lon="11.764163">
<ele>486.4</ele>
<speed>20.2</speed>
<course>292.2</course>
<desc>Speed 20.2 km/h Distance 52.09 km</desc>
<time>2010-06-13T10:29:13.97</time>
<name>13491</name>
</trkpt>
<trkpt lat="49.162917" lon="11.764088">
<ele>486.0</ele>
<speed>20.0</speed>
<course>304.1</course>
<desc>Speed 20.0 km/h Distance 52.09 km</desc>
<time>2010-06-13T10:29:14.97</time>
<name>13492</name>
</trkpt>
<trkpt lat="49.162948" lon="11.764017">
<ele>486.5</ele>
<speed>19.0</speed>
<course>310.4</course>
<desc>Speed 19.0 km/h Distance 52.10 km</desc>
<time>2010-06-13T10:29:15.97</time>
<name>13493</name>
</trkpt>
<trkpt lat="49.162982" lon="11.763957">
<ele>487.8</ele>
<speed>18.0</speed>
<course>312.0</course>
<desc>Speed 18.0 km/h Distance 52.11 km</desc>
<time>2010-06-13T10:29:16.97</time>
<name>13494</name>
</trkpt>
<trkpt lat="49.163015" lon="11.763900">
<ele>487.6</ele>
<speed>17.4</speed>
<course>296.5</course>
<desc>Speed 17.4 km/h Distance 52.11 km</desc>
<time>2010-06-13T10:29:17.97</time>
<name>13495</name>
</trkpt>
<trkpt lat="49.163040" lon="11.763823">
<ele>486.3</ele>
<speed>18.1</speed>
<course>296.5</course>
<desc>Speed 18.1 km/h Distance 52.12 km</desc>
<time>2010-06-13T10:29:18.97</time>
<name>13496</name>
</trkpt>
<trkpt lat="49.163065" lon="11.763747">
<ele>486.4</ele>
<speed>17.7</speed>
<course>298.4</course>
<desc>Speed 17.7 km/h Distance 52.12 km</desc>
<time>2010-06-13T10:29:19.97</time>
<name>13497</name>
</trkpt>
<trkpt lat="49.163085" lon="11.763690">
<ele>487.7</ele>
<speed>16.0</speed>
<course>288.6</course>
<desc>Speed 16.0 km/h Distance 52.13 km</desc>
<time>2010-06-13T10:29:20.99</time>
<name>13498</name>
</trkpt>
<trkpt lat="49.163110" lon="11.763577">
<ele>487.2</ele>
<speed>13.7</speed>
<course>275.8</course>
<desc>Speed 13.7 km/h Distance 52.14 km</desc>
<time>2010-06-13T10:29:22.49</time>
<name>13499</name>
</trkpt>
<trkpt lat="49.163113" lon="11.763527">
<ele>487.7</ele>
<speed>11.7</speed>
<course>295.3</course>
<desc>Speed 11.7 km/h Distance 52.14 km</desc>
<time>2010-06-13T10:29:23.49</time>
<name>13500</name>
</trkpt>
<trkpt lat="49.163135" lon="11.763457">
<ele>488.1</ele>
<speed>10.0</speed>
<course>259.2</course>
<desc>Speed 10.0 km/h Distance 52.15 km</desc>
<time>2010-06-13T10:29:25.49</time>
<name>13501</name>
</trkpt>
<trkpt lat="49.163130" lon="11.763417">
<ele>488.0</ele>
<speed>9.8</speed>
<course>248.0</course>
<desc>Speed 9.8 km/h Distance 52.15 km</desc>
<time>2010-06-13T10:29:26.49</time>
<name>13502</name>
</trkpt>
<trkpt lat="49.163107" lon="11.763328">
<ele>487.2</ele>
<speed>7.1</speed>
<course>249.1</course>
<desc>Speed 7.1 km/h Distance 52.16 km</desc>
<time>2010-06-13T10:29:28.49</time>
<name>13503</name>
</trkpt>
<trkpt lat="49.163095" lon="11.763282">
<ele>488.0</ele>
<speed>5.5</speed>
<course>229.3</course>
<desc>Speed 5.5 km/h Distance 52.16 km</desc>
<time>2010-06-13T10:29:30.49</time>
<name>13504</name>
</trkpt>
<trkpt lat="49.163080" lon="11.763255">
<ele>489.1</ele>
<speed>5.1</speed>
<course>326.8</course>
<desc>Speed 5.1 km/h Distance 52.16 km</desc>
<time>2010-06-13T10:29:31.49</time>
<name>13505</name>
</trkpt>
<trkpt lat="49.163085" lon="11.763250">
<ele>490.2</ele>
<speed>4.0</speed>
<course>240.2</course>
<desc>Speed 4.0 km/h Distance 52.16 km</desc>
<time>2010-06-13T10:29:32.99</time>
<name>13506</name>
</trkpt>
<trkpt lat="49.163075" lon="11.763223">
<ele>491.0</ele>
<speed>4.3</speed>
<course>316.3</course>
<desc>Speed 4.3 km/h Distance 52.17 km</desc>
<time>2010-06-13T10:29:34.50</time>
<name>13507</name>
</trkpt>
<trkpt lat="49.163097" lon="11.763192">
<ele>492.4</ele>
<speed>3.6</speed>
<course>276.7</course>
<desc>Speed 3.6 km/h Distance 52.17 km</desc>
<time>2010-06-13T10:29:36.49</time>
<name>13508</name>
</trkpt>
<trkpt lat="49.163098" lon="11.763170">
<ele>492.2</ele>
<speed>3.1</speed>
<course>351.9</course>
<desc>Speed 3.1 km/h Distance 52.17 km</desc>
<time>2010-06-13T10:29:37.48</time>
<name>13509</name>
</trkpt>
<trkpt lat="49.163122" lon="11.763165">
<ele>494.0</ele>
<speed>3.6</speed>
<course>347.7</course>
<desc>Speed 3.6 km/h Distance 52.17 km</desc>
<time>2010-06-13T10:29:38.48</time>
<name>13510</name>
</trkpt>
<trkpt lat="49.163147" lon="11.763157">
<ele>495.4</ele>
<speed>4.4</speed>
<course>161.8</course>
<desc>Speed 4.4 km/h Distance 52.18 km</desc>
<time>2010-06-13T10:29:39.49</time>
<name>13511</name>
</trkpt>
<trkpt lat="49.163137" lon="11.763162">
<ele>498.1</ele>
<speed>2.0</speed>
<course>33.7</course>
<desc>Speed 2.0 km/h Distance 52.18 km</desc>
<time>2010-06-13T10:29:40.49</time>
<name>13512</name>
</trkpt>
<trkpt lat="49.163140" lon="11.763165">
<ele>502.0</ele>
<speed>1.8</speed>
<course>33.7</course>
<desc>Speed 1.8 km/h Distance 52.18 km</desc>
<time>2010-06-13T10:29:41.49</time>
<name>13513</name>
</trkpt>
<trkpt lat="49.163140" lon="11.763165">
<ele>502.0</ele>
<speed>1.8</speed>
<course>303.8</course>
<desc>Speed 1.8 km/h Distance 52.18 km</desc>
<time>2010-06-13T10:29:41.99</time>
<name>13514</name>
</trkpt>
<trkpt lat="49.163152" lon="11.763138">
<ele>504.6</ele>
<speed>6.1</speed>
<course>310.6</course>
<desc>Speed 6.1 km/h Distance 52.18 km</desc>
<time>2010-06-13T10:29:43.49</time>
<name>13515</name>
</trkpt>
<trkpt lat="49.163167" lon="11.763112">
<ele>505.7</ele>
<speed>5.8</speed>
<course>317.8</course>
<desc>Speed 5.8 km/h Distance 52.18 km</desc>
<time>2010-06-13T10:29:44.99</time>
<name>13516</name>
</trkpt>
<trkpt lat="49.163188" lon="11.763082">
<ele>506.8</ele>
<speed>5.7</speed>
<course>318.4</course>
<desc>Speed 5.7 km/h Distance 52.19 km</desc>
<time>2010-06-13T10:29:45.99</time>
<name>13517</name>
</trkpt>
<trkpt lat="49.163212" lon="11.763050">
<ele>509.3</ele>
<speed>2.7</speed>
<course>318.4</course>
<desc>Speed 2.7 km/h Distance 52.19 km</desc>
<time>2010-06-13T10:29:47.49</time>
<name>13518</name>
</trkpt>
<trkpt lat="49.163212" lon="11.763050">
<ele>509.3</ele>
<speed>2.7</speed>
<course>347.4</course>
<desc>Speed 2.7 km/h Distance 52.19 km</desc>
<time>2010-06-13T10:29:47.99</time>
<name>13519</name>
</trkpt>
<trkpt lat="49.163217" lon="11.763048">
<ele>511.8</ele>
<speed>0.7</speed>
<course>308.1</course>
<desc>Speed 0.7 km/h Distance 52.19 km</desc>
<time>2010-06-13T10:29:49.49</time>
<name>13520</name>
</trkpt>
<trkpt lat="49.163218" lon="11.763045">
<ele>512.4</ele>
<speed>1.2</speed>
<course>308.1</course>
<desc>Speed 1.2 km/h Distance 52.19 km</desc>
<time>2010-06-13T10:29:50.49</time>
<name>13521</name>
</trkpt>
<trkpt lat="49.163218" lon="11.763045">
<ele>512.4</ele>
<speed>1.2</speed>
<course>252.9</course>
<desc>Speed 1.2 km/h Distance 52.19 km</desc>
<time>2010-06-13T10:29:50.99</time>
<name>13522</name>
</trkpt>
<trkpt lat="49.163217" lon="11.763037">
<ele>513.2</ele>
<speed>3.8</speed>
<course>230.7</course>
<desc>Speed 3.8 km/h Distance 52.19 km</desc>
<time>2010-06-13T10:29:51.99</time>
<name>13523</name>
</trkpt>
<trkpt lat="49.163192" lon="11.762990">
<ele>513.2</ele>
<speed>4.5</speed>
<course>287.1</course>
<desc>Speed 4.5 km/h Distance 52.20 km</desc>
<time>2010-06-13T10:29:53.50</time>
<name>13524</name>
</trkpt>
<trkpt lat="49.163193" lon="11.762982">
<ele>513.0</ele>
<speed>2.8</speed>
<course>319.5</course>
<desc>Speed 2.8 km/h Distance 52.20 km</desc>
<time>2010-06-13T10:29:54.99</time>
<name>13525</name>
</trkpt>
<trkpt lat="49.163215" lon="11.762953">
<ele>513.8</ele>
<speed>3.2</speed>
<course>319.5</course>
<desc>Speed 3.2 km/h Distance 52.20 km</desc>
<time>2010-06-13T10:29:56.50</time>
<name>13526</name>
</trkpt>
<trkpt lat="49.163215" lon="11.762953">
<ele>513.8</ele>
<speed>3.2</speed>
<course>231.4</course>
<desc>Speed 3.2 km/h Distance 52.20 km</desc>
<time>2010-06-13T10:29:56.99</time>
<name>13527</name>
</trkpt>
<trkpt lat="49.163195" lon="11.762915">
<ele>511.7</ele>
<speed>4.1</speed>
<course>229.7</course>
<desc>Speed 4.1 km/h Distance 52.20 km</desc>
<time>2010-06-13T10:29:58.48</time>
<name>13528</name>
</trkpt>
<trkpt lat="49.163187" lon="11.762900">
<ele>510.1</ele>
<speed>3.8</speed>
<course>318.1</course>
<desc>Speed 3.8 km/h Distance 52.20 km</desc>
<time>2010-06-13T10:29:59.50</time>
<name>13529</name>
</trkpt>
<trkpt lat="49.163200" lon="11.762882">
<ele>509.2</ele>
<speed>3.8</speed>
<course>257.1</course>
<desc>Speed 3.8 km/h Distance 52.21 km</desc>
<time>2010-06-13T10:30:01.49</time>
<name>13530</name>
</trkpt>
<trkpt lat="49.163195" lon="11.762848">
<ele>508.0</ele>
<speed>5.2</speed>
<course>234.5</course>
<desc>Speed 5.2 km/h Distance 52.21 km</desc>
<time>2010-06-13T10:30:03.49</time>
<name>13531</name>
</trkpt>
<trkpt lat="49.163183" lon="11.762823">
<ele>507.1</ele>
<speed>5.3</speed>
<course>218.1</course>
<desc>Speed 5.3 km/h Distance 52.21 km</desc>
<time>2010-06-13T10:30:04.48</time>
<name>13532</name>
</trkpt>
<trkpt lat="49.163167" lon="11.762803">
<ele>505.8</ele>
<speed>4.9</speed>
<course>239.6</course>
<desc>Speed 4.9 km/h Distance 52.21 km</desc>
<time>2010-06-13T10:30:05.50</time>
<name>13533</name>
</trkpt>
<trkpt lat="49.163150" lon="11.762760">
<ele>505.9</ele>
<speed>4.0</speed>
<course>258.2</course>
<desc>Speed 4.0 km/h Distance 52.22 km</desc>
<time>2010-06-13T10:30:07.48</time>
<name>13534</name>
</trkpt>
<trkpt lat="49.163145" lon="11.762723">
<ele>506.2</ele>
<speed>4.1</speed>
<course>243.0</course>
<desc>Speed 4.1 km/h Distance 52.22 km</desc>
<time>2010-06-13T10:30:08.49</time>
<name>13535</name>
</trkpt>
<trkpt lat="49.163127" lon="11.762668">
<ele>505.9</ele>
<speed>5.2</speed>
<course>229.3</course>
<desc>Speed 5.2 km/h Distance 52.22 km</desc>
<time>2010-06-13T10:30:10.49</time>
<name>13536</name>
</trkpt>
<trkpt lat="49.163112" lon="11.762642">
<ele>504.9</ele>
<speed>4.4</speed>
<course>262.1</course>
<desc>Speed 4.4 km/h Distance 52.23 km</desc>
<time>2010-06-13T10:30:11.99</time>
<name>13537</name>
</trkpt>
<trkpt lat="49.163110" lon="11.762623">
<ele>504.4</ele>
<speed>4.8</speed>
<course>277.9</course>
<desc>Speed 4.8 km/h Distance 52.23 km</desc>
<time>2010-06-13T10:30:12.99</time>
<name>13538</name>
</trkpt>
<trkpt lat="49.163112" lon="11.762605">
<ele>504.0</ele>
<speed>4.5</speed>
<course>282.9</course>
<desc>Speed 4.5 km/h Distance 52.23 km</desc>
<time>2010-06-13T10:30:13.99</time>
<name>13539</name>
</trkpt>
<trkpt lat="49.163117" lon="11.762572">
<ele>503.3</ele>
<speed>5.1</speed>
<course>247.4</course>
<desc>Speed 5.1 km/h Distance 52.23 km</desc>
<time>2010-06-13T10:30:15.49</time>
<name>13540</name>
</trkpt>
<trkpt lat="49.163112" lon="11.762553">
<ele>502.8</ele>
<speed>5.4</speed>
<course>274.4</course>
<desc>Speed 5.4 km/h Distance 52.23 km</desc>
<time>2010-06-13T10:30:16.99</time>
<name>13541</name>
</trkpt>
<trkpt lat="49.163113" lon="11.762520">
<ele>502.3</ele>
<speed>5.7</speed>
<course>301.5</course>
<desc>Speed 5.7 km/h Distance 52.24 km</desc>
<time>2010-06-13T10:30:18.49</time>
<name>13542</name>
</trkpt>
<trkpt lat="49.163120" lon="11.762503">
<ele>502.2</ele>
<speed>5.5</speed>
<course>237.8</course>
<desc>Speed 5.5 km/h Distance 52.24 km</desc>
<time>2010-06-13T10:30:19.49</time>
<name>13543</name>
</trkpt>
<trkpt lat="49.163108" lon="11.762475">
<ele>501.2</ele>
<speed>5.4</speed>
<course>245.9</course>
<desc>Speed 5.4 km/h Distance 52.24 km</desc>
<time>2010-06-13T10:30:20.50</time>
<name>13544</name>
</trkpt>
<trkpt lat="49.163097" lon="11.762435">
<ele>499.7</ele>
<speed>5.5</speed>
<course>240.9</course>
<desc>Speed 5.5 km/h Distance 52.24 km</desc>
<time>2010-06-13T10:30:22.48</time>
<name>13545</name>
</trkpt>
<trkpt lat="49.163090" lon="11.762417">
<ele>499.0</ele>
<speed>4.5</speed>
<course>236.7</course>
<desc>Speed 4.5 km/h Distance 52.24 km</desc>
<time>2010-06-13T10:30:23.49</time>
<name>13546</name>
</trkpt>
<trkpt lat="49.163075" lon="11.762382">
<ele>497.7</ele>
<speed>4.1</speed>
<course>247.3</course>
<desc>Speed 4.1 km/h Distance 52.25 km</desc>
<time>2010-06-13T10:30:25.49</time>
<name>13547</name>
</trkpt>
<trkpt lat="49.163070" lon="11.762363">
<ele>497.3</ele>
<speed>4.8</speed>
<course>287.0</course>
<desc>Speed 4.8 km/h Distance 52.25 km</desc>
<time>2010-06-13T10:30:26.48</time>
<name>13548</name>
</trkpt>
<trkpt lat="49.163073" lon="11.762347">
<ele>497.0</ele>
<speed>4.5</speed>
<course>249.1</course>
<desc>Speed 4.5 km/h Distance 52.25 km</desc>
<time>2010-06-13T10:30:27.48</time>
<name>13549</name>
</trkpt>
<trkpt lat="49.163070" lon="11.762333">
<ele>496.3</ele>
<speed>4.8</speed>
<course>256.7</course>
<desc>Speed 4.8 km/h Distance 52.25 km</desc>
<time>2010-06-13T10:30:28.49</time>
<name>13550</name>
</trkpt>
<trkpt lat="49.163067" lon="11.762312">
<ele>496.3</ele>
<speed>4.7</speed>
<course>250.6</course>
<desc>Speed 4.7 km/h Distance 52.25 km</desc>
<time>2010-06-13T10:30:29.48</time>
<name>13551</name>
</trkpt>
<trkpt lat="49.163062" lon="11.762290">
<ele>496.0</ele>
<speed>4.7</speed>
<course>246.0</course>
<desc>Speed 4.7 km/h Distance 52.25 km</desc>
<time>2010-06-13T10:30:30.49</time>
<name>13552</name>
</trkpt>
<trkpt lat="49.163050" lon="11.762250">
<ele>495.1</ele>
<speed>4.6</speed>
<course>288.1</course>
<desc>Speed 4.6 km/h Distance 52.26 km</desc>
<time>2010-06-13T10:30:32.47</time>
<name>13553</name>
</trkpt>
<trkpt lat="49.163055" lon="11.762227">
<ele>495.8</ele>
<speed>5.5</speed>
<course>259.2</course>
<desc>Speed 5.5 km/h Distance 52.26 km</desc>
<time>2010-06-13T10:30:33.48</time>
<name>13554</name>
</trkpt>
<trkpt lat="49.163053" lon="11.762213">
<ele>495.1</ele>
<speed>5.4</speed>
<course>247.4</course>
<desc>Speed 5.4 km/h Distance 52.26 km</desc>
<time>2010-06-13T10:30:34.49</time>
<name>13555</name>
</trkpt>
<trkpt lat="49.163048" lon="11.762195">
<ele>494.7</ele>
<speed>4.4</speed>
<course>277.3</course>
<desc>Speed 4.4 km/h Distance 52.26 km</desc>
<time>2010-06-13T10:30:35.48</time>
<name>13556</name>
</trkpt>
<trkpt lat="49.163050" lon="11.762175">
<ele>494.7</ele>
<speed>3.7</speed>
<course>289.4</course>
<desc>Speed 3.7 km/h Distance 52.26 km</desc>
<time>2010-06-13T10:30:36.49</time>
<name>13557</name>
</trkpt>
<trkpt lat="49.163055" lon="11.762153">
<ele>494.4</ele>
<speed>4.4</speed>
<course>283.2</course>
<desc>Speed 4.4 km/h Distance 52.26 km</desc>
<time>2010-06-13T10:30:37.49</time>
<name>13558</name>
</trkpt>
<trkpt lat="49.163058" lon="11.762132">
<ele>494.3</ele>
<speed>4.4</speed>
<course>235.9</course>
<desc>Speed 4.4 km/h Distance 52.27 km</desc>
<time>2010-06-13T10:30:38.48</time>
<name>13559</name>
</trkpt>
<trkpt lat="49.163052" lon="11.762117">
<ele>494.1</ele>
<speed>3.8</speed>
<course>262.8</course>
<desc>Speed 3.8 km/h Distance 52.27 km</desc>
<time>2010-06-13T10:30:39.48</time>
<name>13560</name>
</trkpt>
<trkpt lat="49.163050" lon="11.762097">
<ele>494.0</ele>
<speed>4.1</speed>
<course>217.6</course>
<desc>Speed 4.1 km/h Distance 52.27 km</desc>
<time>2010-06-13T10:30:40.49</time>
<name>13561</name>
</trkpt>
<trkpt lat="49.163022" lon="11.762063">
<ele>493.8</ele>
<speed>3.9</speed>
<course>213.4</course>
<desc>Speed 3.9 km/h Distance 52.27 km</desc>
<time>2010-06-13T10:30:42.48</time>
<name>13562</name>
</trkpt>
<trkpt lat="49.163008" lon="11.762050">
<ele>494.0</ele>
<speed>4.1</speed>
<course>215.8</course>
<desc>Speed 4.1 km/h Distance 52.28 km</desc>
<time>2010-06-13T10:30:43.49</time>
<name>13563</name>
</trkpt>
<trkpt lat="49.162992" lon="11.762032">
<ele>494.8</ele>
<speed>4.8</speed>
<course>273.1</course>
<desc>Speed 4.8 km/h Distance 52.28 km</desc>
<time>2010-06-13T10:30:44.99</time>
<name>13564</name>
</trkpt>
<trkpt lat="49.162993" lon="11.761985">
<ele>494.5</ele>
<speed>4.8</speed>
<course>275.8</course>
<desc>Speed 4.8 km/h Distance 52.28 km</desc>
<time>2010-06-13T10:30:46.50</time>
<name>13565</name>
</trkpt>
<trkpt lat="49.162995" lon="11.761960">
<ele>493.5</ele>
<speed>4.9</speed>
<course>270.0</course>
<desc>Speed 4.9 km/h Distance 52.28 km</desc>
<time>2010-06-13T10:30:47.99</time>
<name>13566</name>
</trkpt>
<trkpt lat="49.162995" lon="11.761917">
<ele>490.9</ele>
<speed>5.2</speed>
<course>275.8</course>
<desc>Speed 5.2 km/h Distance 52.29 km</desc>
<time>2010-06-13T10:30:49.48</time>
<name>13567</name>
</trkpt>
<trkpt lat="49.162997" lon="11.761892">
<ele>490.5</ele>
<speed>4.4</speed>
<course>262.7</course>
<desc>Speed 4.4 km/h Distance 52.29 km</desc>
<time>2010-06-13T10:30:50.50</time>
<name>13568</name>
</trkpt>
<trkpt lat="49.162995" lon="11.761872">
<ele>489.9</ele>
<speed>4.2</speed>
<course>254.7</course>
<desc>Speed 4.2 km/h Distance 52.29 km</desc>
<time>2010-06-13T10:30:51.99</time>
<name>13569</name>
</trkpt>
<trkpt lat="49.162987" lon="11.761825">
<ele>491.6</ele>
<speed>5.3</speed>
<course>263.0</course>
<desc>Speed 5.3 km/h Distance 52.29 km</desc>
<time>2010-06-13T10:30:53.50</time>
<name>13570</name>
</trkpt>
<trkpt lat="49.162983" lon="11.761783">
<ele>492.2</ele>
<speed>5.1</speed>
<course>256.8</course>
<desc>Speed 5.1 km/h Distance 52.30 km</desc>
<time>2010-06-13T10:30:55.48</time>
<name>13571</name>
</trkpt>
<trkpt lat="49.162980" lon="11.761762">
<ele>492.2</ele>
<speed>5.0</speed>
<course>261.3</course>
<desc>Speed 5.0 km/h Distance 52.30 km</desc>
<time>2010-06-13T10:30:56.48</time>
<name>13572</name>
</trkpt>
<trkpt lat="49.162978" lon="11.761745">
<ele>492.3</ele>
<speed>3.4</speed>
<course>260.3</course>
<desc>Speed 3.4 km/h Distance 52.30 km</desc>
<time>2010-06-13T10:30:57.47</time>
<name>13573</name>
</trkpt>
<trkpt lat="49.162977" lon="11.761730">
<ele>492.7</ele>
<speed>2.9</speed>
<course>297.4</course>
<desc>Speed 2.9 km/h Distance 52.30 km</desc>
<time>2010-06-13T10:30:58.49</time>
<name>13574</name>
</trkpt>
<trkpt lat="49.162978" lon="11.761725">
<ele>493.2</ele>
<speed>0.5</speed>
<course>297.4</course>
<desc>Speed 0.5 km/h Distance 52.30 km</desc>
<time>2010-06-13T10:30:59.48</time>
<name>13575</name>
</trkpt>
<trkpt lat="49.162978" lon="11.761725">
<ele>494.4</ele>
<speed>0.4</speed>
<course>315.5</course>
<desc>Speed 0.4 km/h Distance 52.30 km</desc>
<time>2010-06-13T10:31:00.49</time>
<name>13576</name>
</trkpt>
<trkpt lat="49.162982" lon="11.761720">
<ele>494.4</ele>
<speed>1.9</speed>
<course>307.6</course>
<desc>Speed 1.9 km/h Distance 52.30 km</desc>
<time>2010-06-13T10:31:01.48</time>
<name>13577</name>
</trkpt>
<trkpt lat="49.162987" lon="11.761710">
<ele>495.2</ele>
<speed>2.1</speed>
<course>215.3</course>
<desc>Speed 2.1 km/h Distance 52.30 km</desc>
<time>2010-06-13T10:31:02.47</time>
<name>13578</name>
</trkpt>
<trkpt lat="49.162967" lon="11.761688">
<ele>495.4</ele>
<speed>3.7</speed>
<course>237.1</course>
<desc>Speed 3.7 km/h Distance 52.30 km</desc>
<time>2010-06-13T10:31:03.99</time>
<name>13579</name>
</trkpt>
<trkpt lat="49.162948" lon="11.761645">
<ele>498.0</ele>
<speed>6.0</speed>
<course>219.8</course>
<desc>Speed 6.0 km/h Distance 52.31 km</desc>
<time>2010-06-13T10:31:05.49</time>
<name>13580</name>
</trkpt>
<trkpt lat="49.162930" lon="11.761622">
<ele>499.8</ele>
<speed>5.3</speed>
<course>270.0</course>
<desc>Speed 5.3 km/h Distance 52.31 km</desc>
<time>2010-06-13T10:31:06.49</time>
<name>13581</name>
</trkpt>
<trkpt lat="49.162930" lon="11.761600">
<ele>500.7</ele>
<speed>4.6</speed>
<course>281.5</course>
<desc>Speed 4.6 km/h Distance 52.31 km</desc>
<time>2010-06-13T10:31:07.48</time>
<name>13582</name>
</trkpt>
<trkpt lat="49.162933" lon="11.761575">
<ele>500.5</ele>
<speed>5.7</speed>
<course>289.2</course>
<desc>Speed 5.7 km/h Distance 52.31 km</desc>
<time>2010-06-13T10:31:08.49</time>
<name>13583</name>
</trkpt>
<trkpt lat="49.162942" lon="11.761538">
<ele>501.7</ele>
<speed>5.6</speed>
<course>267.9</course>
<desc>Speed 5.6 km/h Distance 52.32 km</desc>
<time>2010-06-13T10:31:09.99</time>
<name>13584</name>
</trkpt>
<trkpt lat="49.162940" lon="11.761468">
<ele>504.9</ele>
<speed>6.5</speed>
<course>283.6</course>
<desc>Speed 6.5 km/h Distance 52.32 km</desc>
<time>2010-06-13T10:31:11.48</time>
<name>13585</name>
</trkpt>
<trkpt lat="49.162945" lon="11.761437">
<ele>506.8</ele>
<speed>6.0</speed>
<course>274.9</course>
<desc>Speed 6.0 km/h Distance 52.32 km</desc>
<time>2010-06-13T10:31:12.48</time>
<name>13586</name>
</trkpt>
<trkpt lat="49.162947" lon="11.761407">
<ele>508.7</ele>
<speed>6.7</speed>
<course>254.4</course>
<desc>Speed 6.7 km/h Distance 52.33 km</desc>
<time>2010-06-13T10:31:13.48</time>
<name>13587</name>
</trkpt>
<trkpt lat="49.162943" lon="11.761388">
<ele>508.6</ele>
<speed>6.5</speed>
<course>244.8</course>
<desc>Speed 6.5 km/h Distance 52.33 km</desc>
<time>2010-06-13T10:31:14.48</time>
<name>13588</name>
</trkpt>
<trkpt lat="49.162937" lon="11.761367">
<ele>509.4</ele>
<speed>7.2</speed>
<course>244.5</course>
<desc>Speed 7.2 km/h Distance 52.33 km</desc>
<time>2010-06-13T10:31:15.48</time>
<name>13589</name>
</trkpt>
<trkpt lat="49.162928" lon="11.761340">
<ele>510.7</ele>
<speed>7.1</speed>
<course>253.0</course>
<desc>Speed 7.1 km/h Distance 52.33 km</desc>
<time>2010-06-13T10:31:16.48</time>
<name>13590</name>
</trkpt>
<trkpt lat="49.162923" lon="11.761315">
<ele>511.2</ele>
<speed>6.3</speed>
<course>263.8</course>
<desc>Speed 6.3 km/h Distance 52.33 km</desc>
<time>2010-06-13T10:31:17.48</time>
<name>13591</name>
</trkpt>
<trkpt lat="49.162922" lon="11.761292">
<ele>511.3</ele>
<speed>6.0</speed>
<course>262.7</course>
<desc>Speed 6.0 km/h Distance 52.34 km</desc>
<time>2010-06-13T10:31:18.50</time>
<name>13592</name>
</trkpt>
<trkpt lat="49.162920" lon="11.761272">
<ele>510.9</ele>
<speed>6.5</speed>
<course>258.1</course>
<desc>Speed 6.5 km/h Distance 52.34 km</desc>
<time>2010-06-13T10:31:19.99</time>
<name>13593</name>
</trkpt>
<trkpt lat="49.162913" lon="11.761223">
<ele>511.0</ele>
<speed>5.9</speed>
<course>246.4</course>
<desc>Speed 5.9 km/h Distance 52.34 km</desc>
<time>2010-06-13T10:31:21.50</time>
<name>13594</name>
</trkpt>
<trkpt lat="49.162900" lon="11.761177">
<ele>511.4</ele>
<speed>5.4</speed>
<course>249.1</course>
<desc>Speed 5.4 km/h Distance 52.34 km</desc>
<time>2010-06-13T10:31:23.48</time>
<name>13595</name>
</trkpt>
<trkpt lat="49.162893" lon="11.761150">
<ele>512.0</ele>
<speed>5.4</speed>
<course>251.9</course>
<desc>Speed 5.4 km/h Distance 52.35 km</desc>
<time>2010-06-13T10:31:24.48</time>
<name>13596</name>
</trkpt>
<trkpt lat="49.162888" lon="11.761127">
<ele>512.1</ele>
<speed>6.2</speed>
<course>256.7</course>
<desc>Speed 6.2 km/h Distance 52.35 km</desc>
<time>2010-06-13T10:31:25.49</time>
<name>13597</name>
</trkpt>
<trkpt lat="49.162885" lon="11.761105">
<ele>511.7</ele>
<speed>6.2</speed>
<course>263.3</course>
<desc>Speed 6.2 km/h Distance 52.35 km</desc>
<time>2010-06-13T10:31:26.48</time>
<name>13598</name>
</trkpt>
<trkpt lat="49.162883" lon="11.761083">
<ele>511.4</ele>
<speed>5.8</speed>
<course>262.1</course>
<desc>Speed 5.8 km/h Distance 52.35 km</desc>
<time>2010-06-13T10:31:27.49</time>
<name>13599</name>
</trkpt>
<trkpt lat="49.162882" lon="11.761065">
<ele>511.1</ele>
<speed>6.4</speed>
<course>257.7</course>
<desc>Speed 6.4 km/h Distance 52.35 km</desc>
<time>2010-06-13T10:31:28.49</time>
<name>13600</name>
</trkpt>
<trkpt lat="49.162878" lon="11.761042">
<ele>511.1</ele>
<speed>6.4</speed>
<course>253.0</course>
<desc>Speed 6.4 km/h Distance 52.35 km</desc>
<time>2010-06-13T10:31:29.49</time>
<name>13601</name>
</trkpt>
<trkpt lat="49.162872" lon="11.761008">
<ele>512.0</ele>
<speed>7.1</speed>
<course>259.2</course>
<desc>Speed 7.1 km/h Distance 52.36 km</desc>
<time>2010-06-13T10:31:30.99</time>
<name>13602</name>
</trkpt>
<trkpt lat="49.162868" lon="11.760982">
<ele>512.1</ele>
<speed>5.8</speed>
<course>256.1</course>
<desc>Speed 5.8 km/h Distance 52.36 km</desc>
<time>2010-06-13T10:31:31.99</time>
<name>13603</name>
</trkpt>
<trkpt lat="49.162860" lon="11.760930">
<ele>512.8</ele>
<speed>7.0</speed>
<course>251.2</course>
<desc>Speed 7.0 km/h Distance 52.36 km</desc>
<time>2010-06-13T10:31:33.49</time>
<name>13604</name>
</trkpt>
<trkpt lat="49.162850" lon="11.760885">
<ele>512.6</ele>
<speed>5.9</speed>
<course>224.0</course>
<desc>Speed 5.9 km/h Distance 52.37 km</desc>
<time>2010-06-13T10:31:35.49</time>
<name>13605</name>
</trkpt>
<trkpt lat="49.162843" lon="11.760875">
<ele>511.6</ele>
<speed>5.5</speed>
<course>246.0</course>
<desc>Speed 5.5 km/h Distance 52.37 km</desc>
<time>2010-06-13T10:31:36.99</time>
<name>13606</name>
</trkpt>
<trkpt lat="49.162832" lon="11.760835">
<ele>511.3</ele>
<speed>6.4</speed>
<course>255.7</course>
<desc>Speed 6.4 km/h Distance 52.37 km</desc>
<time>2010-06-13T10:31:38.50</time>
<name>13607</name>
</trkpt>
<trkpt lat="49.162827" lon="11.760805">
<ele>512.2</ele>
<speed>6.4</speed>
<course>250.4</course>
<desc>Speed 6.4 km/h Distance 52.37 km</desc>
<time>2010-06-13T10:31:39.99</time>
<name>13608</name>
</trkpt>
<trkpt lat="49.162815" lon="11.760755">
<ele>512.5</ele>
<speed>6.4</speed>
<course>251.6</course>
<desc>Speed 6.4 km/h Distance 52.38 km</desc>
<time>2010-06-13T10:31:41.47</time>
<name>13609</name>
</trkpt>
<trkpt lat="49.162807" lon="11.760717">
<ele>514.2</ele>
<speed>7.6</speed>
<course>244.7</course>
<desc>Speed 7.6 km/h Distance 52.38 km</desc>
<time>2010-06-13T10:31:42.50</time>
<name>13610</name>
</trkpt>
<trkpt lat="49.162785" lon="11.760647">
<ele>516.9</ele>
<speed>7.8</speed>
<course>252.4</course>
<desc>Speed 7.8 km/h Distance 52.39 km</desc>
<time>2010-06-13T10:31:44.49</time>
<name>13611</name>
</trkpt>
<trkpt lat="49.162775" lon="11.760598">
<ele>518.0</ele>
<speed>5.9</speed>
<course>240.9</course>
<desc>Speed 5.9 km/h Distance 52.39 km</desc>
<time>2010-06-13T10:31:46.49</time>
<name>13612</name>
</trkpt>
<trkpt lat="49.162768" lon="11.760580">
<ele>518.0</ele>
<speed>6.3</speed>
<course>243.0</course>
<desc>Speed 6.3 km/h Distance 52.39 km</desc>
<time>2010-06-13T10:31:47.48</time>
<name>13613</name>
</trkpt>
<trkpt lat="49.162758" lon="11.760550">
<ele>519.2</ele>
<speed>7.5</speed>
<course>237.2</course>
<desc>Speed 7.5 km/h Distance 52.39 km</desc>
<time>2010-06-13T10:31:48.50</time>
<name>13614</name>
</trkpt>
<trkpt lat="49.162745" lon="11.760518">
<ele>520.4</ele>
<speed>7.5</speed>
<course>230.5</course>
<desc>Speed 7.5 km/h Distance 52.40 km</desc>
<time>2010-06-13T10:31:49.99</time>
<name>13615</name>
</trkpt>
<trkpt lat="49.162733" lon="11.760497">
<ele>520.5</ele>
<speed>6.3</speed>
<course>243.0</course>
<desc>Speed 6.3 km/h Distance 52.40 km</desc>
<time>2010-06-13T10:31:50.99</time>
<name>13616</name>
</trkpt>
<trkpt lat="49.162725" lon="11.760472">
<ele>521.4</ele>
<speed>7.3</speed>
<course>232.6</course>
<desc>Speed 7.3 km/h Distance 52.40 km</desc>
<time>2010-06-13T10:31:51.99</time>
<name>13617</name>
</trkpt>
<trkpt lat="49.162717" lon="11.760455">
<ele>521.1</ele>
<speed>6.7</speed>
<course>219.4</course>
<desc>Speed 6.7 km/h Distance 52.40 km</desc>
<time>2010-06-13T10:31:52.99</time>
<name>13618</name>
</trkpt>
<trkpt lat="49.162710" lon="11.760447">
<ele>520.2</ele>
<speed>5.5</speed>
<course>236.8</course>
<desc>Speed 5.5 km/h Distance 52.40 km</desc>
<time>2010-06-13T10:31:53.99</time>
<name>13619</name>
</trkpt>
<trkpt lat="49.162695" lon="11.760412">
<ele>520.4</ele>
<speed>6.3</speed>
<course>230.2</course>
<desc>Speed 6.3 km/h Distance 52.41 km</desc>
<time>2010-06-13T10:31:55.49</time>
<name>13620</name>
</trkpt>
<trkpt lat="49.162685" lon="11.760393">
<ele>520.3</ele>
<speed>5.7</speed>
<course>213.7</course>
<desc>Speed 5.7 km/h Distance 52.41 km</desc>
<time>2010-06-13T10:31:56.49</time>
<name>13621</name>
</trkpt>
<trkpt lat="49.162678" lon="11.760387">
<ele>519.2</ele>
<speed>5.9</speed>
<course>223.1</course>
<desc>Speed 5.9 km/h Distance 52.41 km</desc>
<time>2010-06-13T10:31:57.99</time>
<name>13622</name>
</trkpt>
<trkpt lat="49.162667" lon="11.760370">
<ele>519.3</ele>
<speed>7.0</speed>
<course>162.3</course>
<desc>Speed 7.0 km/h Distance 52.41 km</desc>
<time>2010-06-13T10:31:58.99</time>
<name>13623</name>
</trkpt>
<trkpt lat="49.162650" lon="11.760378">
<ele>514.7</ele>
<speed>5.6</speed>
<course>180.0</course>
<desc>Speed 5.6 km/h Distance 52.41 km</desc>
<time>2010-06-13T10:32:00.48</time>
<name>13624</name>
</trkpt>
<trkpt lat="49.162642" lon="11.760378">
<ele>513.0</ele>
<speed>5.5</speed>
<course>186.6</course>
<desc>Speed 5.5 km/h Distance 52.41 km</desc>
<time>2010-06-13T10:32:01.48</time>
<name>13625</name>
</trkpt>
<trkpt lat="49.162632" lon="11.760377">
<ele>511.3</ele>
<speed>5.4</speed>
<course>200.9</course>
<desc>Speed 5.4 km/h Distance 52.41 km</desc>
<time>2010-06-13T10:32:02.49</time>
<name>13626</name>
</trkpt>
<trkpt lat="49.162620" lon="11.760370">
<ele>510.4</ele>
<speed>6.4</speed>
<course>210.0</course>
<desc>Speed 6.4 km/h Distance 52.41 km</desc>
<time>2010-06-13T10:32:03.49</time>
<name>13627</name>
</trkpt>
<trkpt lat="49.162592" lon="11.760345">
<ele>510.2</ele>
<speed>6.3</speed>
<course>207.0</course>
<desc>Speed 6.3 km/h Distance 52.42 km</desc>
<time>2010-06-13T10:32:05.49</time>
<name>13628</name>
</trkpt>
<trkpt lat="49.162577" lon="11.760333">
<ele>510.0</ele>
<speed>6.0</speed>
<course>210.3</course>
<desc>Speed 6.0 km/h Distance 52.42 km</desc>
<time>2010-06-13T10:32:06.99</time>
<name>13629</name>
</trkpt>
<trkpt lat="49.162562" lon="11.760320">
<ele>510.5</ele>
<speed>5.9</speed>
<course>200.1</course>
<desc>Speed 5.9 km/h Distance 52.42 km</desc>
<time>2010-06-13T10:32:07.99</time>
<name>13630</name>
</trkpt>
<trkpt lat="49.162547" lon="11.760312">
<ele>510.7</ele>
<speed>5.7</speed>
<course>204.9</course>
<desc>Speed 5.7 km/h Distance 52.42 km</desc>
<time>2010-06-13T10:32:08.99</time>
<name>13631</name>
</trkpt>
<trkpt lat="49.162535" lon="11.760303">
<ele>510.6</ele>
<speed>5.1</speed>
<course>190.1</course>
<desc>Speed 5.1 km/h Distance 52.43 km</desc>
<time>2010-06-13T10:32:09.99</time>
<name>13632</name>
</trkpt>
<trkpt lat="49.162505" lon="11.760295">
<ele>511.1</ele>
<speed>5.8</speed>
<course>176.2</course>
<desc>Speed 5.8 km/h Distance 52.43 km</desc>
<time>2010-06-13T10:32:11.49</time>
<name>13633</name>
</trkpt>
<trkpt lat="49.162490" lon="11.760297">
<ele>511.4</ele>
<speed>5.8</speed>
<course>175.6</course>
<desc>Speed 5.8 km/h Distance 52.43 km</desc>
<time>2010-06-13T10:32:12.99</time>
<name>13634</name>
</trkpt>
<trkpt lat="49.162460" lon="11.760300">
<ele>511.9</ele>
<speed>5.7</speed>
<course>183.8</course>
<desc>Speed 5.7 km/h Distance 52.43 km</desc>
<time>2010-06-13T10:32:14.49</time>
<name>13635</name>
</trkpt>
<trkpt lat="49.162445" lon="11.760298">
<ele>512.5</ele>
<speed>5.9</speed>
<course>178.6</course>
<desc>Speed 5.9 km/h Distance 52.44 km</desc>
<time>2010-06-13T10:32:15.49</time>
<name>13636</name>
</trkpt>
<trkpt lat="49.162417" lon="11.760300">
<ele>512.9</ele>
<speed>5.8</speed>
<course>176.2</course>
<desc>Speed 5.8 km/h Distance 52.44 km</desc>
<time>2010-06-13T10:32:17.48</time>
<name>13637</name>
</trkpt>
<trkpt lat="49.162402" lon="11.760302">
<ele>513.2</ele>
<speed>5.8</speed>
<course>175.0</course>
<desc>Speed 5.8 km/h Distance 52.44 km</desc>
<time>2010-06-13T10:32:18.49</time>
<name>13638</name>
</trkpt>
<trkpt lat="49.162387" lon="11.760303">
<ele>513.6</ele>
<speed>5.9</speed>
<course>175.6</course>
<desc>Speed 5.9 km/h Distance 52.44 km</desc>
<time>2010-06-13T10:32:19.99</time>
<name>13639</name>
</trkpt>
<trkpt lat="49.162357" lon="11.760307">
<ele>514.1</ele>
<speed>6.0</speed>
<course>176.2</course>
<desc>Speed 6.0 km/h Distance 52.45 km</desc>
<time>2010-06-13T10:32:21.48</time>
<name>13640</name>
</trkpt>
<trkpt lat="49.162342" lon="11.760308">
<ele>514.5</ele>
<speed>5.8</speed>
<course>168.8</course>
<desc>Speed 5.8 km/h Distance 52.45 km</desc>
<time>2010-06-13T10:32:22.49</time>
<name>13641</name>
</trkpt>
<trkpt lat="49.162325" lon="11.760313">
<ele>514.5</ele>
<speed>5.7</speed>
<course>166.5</course>
<desc>Speed 5.7 km/h Distance 52.45 km</desc>
<time>2010-06-13T10:32:23.99</time>
<name>13642</name>
</trkpt>
<trkpt lat="49.162312" lon="11.760318">
<ele>514.8</ele>
<speed>5.8</speed>
<course>174.7</course>
<desc>Speed 5.8 km/h Distance 52.45 km</desc>
<time>2010-06-13T10:32:24.99</time>
<name>13643</name>
</trkpt>
<trkpt lat="49.162298" lon="11.760320">
<ele>515.1</ele>
<speed>5.9</speed>
<course>171.2</course>
<desc>Speed 5.9 km/h Distance 52.45 km</desc>
<time>2010-06-13T10:32:25.99</time>
<name>13644</name>
</trkpt>
<trkpt lat="49.162283" lon="11.760323">
<ele>515.3</ele>
<speed>6.0</speed>
<course>171.2</course>
<desc>Speed 6.0 km/h Distance 52.45 km</desc>
<time>2010-06-13T10:32:26.99</time>
<name>13645</name>
</trkpt>
<trkpt lat="49.162255" lon="11.760330">
<ele>515.4</ele>
<speed>6.0</speed>
<course>177.2</course>
<desc>Speed 6.0 km/h Distance 52.46 km</desc>
<time>2010-06-13T10:32:28.49</time>
<name>13646</name>
</trkpt>
<trkpt lat="49.162238" lon="11.760330">
<ele>515.7</ele>
<speed>6.0</speed>
<course>176.2</course>
<desc>Speed 6.0 km/h Distance 52.46 km</desc>
<time>2010-06-13T10:32:29.49</time>
<name>13647</name>
</trkpt>
<trkpt lat="49.162223" lon="11.760332">
<ele>516.0</ele>
<speed>6.1</speed>
<course>171.2</course>
<desc>Speed 6.1 km/h Distance 52.46 km</desc>
<time>2010-06-13T10:32:30.99</time>
<name>13648</name>
</trkpt>
<trkpt lat="49.162208" lon="11.760335">
<ele>516.1</ele>
<speed>6.0</speed>
<course>166.5</course>
<desc>Speed 6.0 km/h Distance 52.46 km</desc>
<time>2010-06-13T10:32:31.99</time>
<name>13649</name>
</trkpt>
<trkpt lat="49.162195" lon="11.760340">
<ele>516.2</ele>
<speed>5.9</speed>
<course>169.6</course>
<desc>Speed 5.9 km/h Distance 52.46 km</desc>
<time>2010-06-13T10:32:32.99</time>
<name>13650</name>
</trkpt>
<trkpt lat="49.162165" lon="11.760348">
<ele>516.3</ele>
<speed>6.2</speed>
<course>161.6</course>
<desc>Speed 6.2 km/h Distance 52.47 km</desc>
<time>2010-06-13T10:32:34.48</time>
<name>13651</name>
</trkpt>
<trkpt lat="49.162152" lon="11.760355">
<ele>516.2</ele>
<speed>5.9</speed>
<course>172.5</course>
<desc>Speed 5.9 km/h Distance 52.47 km</desc>
<time>2010-06-13T10:32:35.49</time>
<name>13652</name>
</trkpt>
<trkpt lat="49.162137" lon="11.760358">
<ele>516.3</ele>
<speed>6.2</speed>
<course>174.1</course>
<desc>Speed 6.2 km/h Distance 52.47 km</desc>
<time>2010-06-13T10:32:36.99</time>
<name>13653</name>
</trkpt>
<trkpt lat="49.162107" lon="11.760363">
<ele>516.5</ele>
<speed>6.2</speed>
<course>176.2</course>
<desc>Speed 6.2 km/h Distance 52.47 km</desc>
<time>2010-06-13T10:32:38.50</time>
<name>13654</name>
</trkpt>
<trkpt lat="49.162092" lon="11.760365">
<ele>516.5</ele>
<speed>6.1</speed>
<course>134.2</course>
<desc>Speed 6.1 km/h Distance 52.48 km</desc>
<time>2010-06-13T10:32:39.99</time>
<name>13655</name>
</trkpt>
<trkpt lat="49.162080" lon="11.760383">
<ele>514.7</ele>
<speed>6.2</speed>
<course>128.5</course>
<desc>Speed 6.2 km/h Distance 52.48 km</desc>
<time>2010-06-13T10:32:40.99</time>
<name>13656</name>
</trkpt>
<trkpt lat="49.162058" lon="11.760425">
<ele>511.5</ele>
<speed>6.3</speed>
<course>169.1</course>
<desc>Speed 6.3 km/h Distance 52.48 km</desc>
<time>2010-06-13T10:32:42.49</time>
<name>13657</name>
</trkpt>
<trkpt lat="49.162030" lon="11.760433">
<ele>511.2</ele>
<speed>5.9</speed>
<course>175.9</course>
<desc>Speed 5.9 km/h Distance 52.48 km</desc>
<time>2010-06-13T10:32:44.49</time>
<name>13658</name>
</trkpt>
<trkpt lat="49.162000" lon="11.760437">
<ele>511.3</ele>
<speed>6.3</speed>
<course>164.0</course>
<desc>Speed 6.3 km/h Distance 52.49 km</desc>
<time>2010-06-13T10:32:46.48</time>
<name>13659</name>
</trkpt>
<trkpt lat="49.161985" lon="11.760443">
<ele>511.0</ele>
<speed>6.3</speed>
<course>171.0</course>
<desc>Speed 6.3 km/h Distance 52.49 km</desc>
<time>2010-06-13T10:32:47.48</time>
<name>13660</name>
</trkpt>
<trkpt lat="49.161972" lon="11.760447">
<ele>510.9</ele>
<speed>5.0</speed>
<course>171.0</course>
<desc>Speed 5.0 km/h Distance 52.49 km</desc>
<time>2010-06-13T10:32:48.48</time>
<name>13661</name>
</trkpt>
<trkpt lat="49.161958" lon="11.760450">
<ele>511.2</ele>
<speed>5.5</speed>
<course>171.0</course>
<desc>Speed 5.5 km/h Distance 52.49 km</desc>
<time>2010-06-13T10:32:49.48</time>
<name>13662</name>
</trkpt>
<trkpt lat="49.161945" lon="11.760453">
<ele>511.0</ele>
<speed>6.5</speed>
<course>174.1</course>
<desc>Speed 6.5 km/h Distance 52.49 km</desc>
<time>2010-06-13T10:32:50.47</time>
<name>13663</name>
</trkpt>
<trkpt lat="49.161927" lon="11.760457">
<ele>511.3</ele>
<speed>7.5</speed>
<course>171.9</course>
<desc>Speed 7.5 km/h Distance 52.50 km</desc>
<time>2010-06-13T10:32:51.50</time>
<name>13664</name>
</trkpt>
<trkpt lat="49.161903" lon="11.760462">
<ele>511.5</ele>
<speed>7.7</speed>
<course>173.5</course>
<desc>Speed 7.7 km/h Distance 52.50 km</desc>
<time>2010-06-13T10:32:52.99</time>
<name>13665</name>
</trkpt>
<trkpt lat="49.161865" lon="11.760468">
<ele>511.7</ele>
<speed>8.4</speed>
<course>173.0</course>
<desc>Speed 8.4 km/h Distance 52.50 km</desc>
<time>2010-06-13T10:32:54.48</time>
<name>13666</name>
</trkpt>
<trkpt lat="49.161847" lon="11.760472">
<ele>511.6</ele>
<speed>8.8</speed>
<course>168.6</course>
<desc>Speed 8.8 km/h Distance 52.50 km</desc>
<time>2010-06-13T10:32:55.48</time>
<name>13667</name>
</trkpt>
<trkpt lat="49.161825" lon="11.760478">
<ele>511.4</ele>
<speed>9.3</speed>
<course>151.4</course>
<desc>Speed 9.3 km/h Distance 52.51 km</desc>
<time>2010-06-13T10:32:56.49</time>
<name>13668</name>
</trkpt>
<trkpt lat="49.161805" lon="11.760495">
<ele>510.4</ele>
<speed>9.5</speed>
<course>165.7</course>
<desc>Speed 9.5 km/h Distance 52.51 km</desc>
<time>2010-06-13T10:32:57.49</time>
<name>13669</name>
</trkpt>
<trkpt lat="49.161788" lon="11.760502">
<ele>509.9</ele>
<speed>8.5</speed>
<course>174.1</course>
<desc>Speed 8.5 km/h Distance 52.51 km</desc>
<time>2010-06-13T10:32:58.48</time>
<name>13670</name>
</trkpt>
<trkpt lat="49.161767" lon="11.760505">
<ele>509.7</ele>
<speed>8.8</speed>
<course>189.3</course>
<desc>Speed 8.8 km/h Distance 52.51 km</desc>
<time>2010-06-13T10:32:59.50</time>
<name>13671</name>
</trkpt>
<trkpt lat="49.161720" lon="11.760493">
<ele>510.1</ele>
<speed>8.7</speed>
<course>230.5</course>
<desc>Speed 8.7 km/h Distance 52.52 km</desc>
<time>2010-06-13T10:33:01.49</time>
<name>13672</name>
</trkpt>
<trkpt lat="49.161685" lon="11.760428">
<ele>512.1</ele>
<speed>8.9</speed>
<course>253.8</course>
<desc>Speed 8.9 km/h Distance 52.53 km</desc>
<time>2010-06-13T10:33:03.48</time>
<name>13673</name>
</trkpt>
<trkpt lat="49.161678" lon="11.760393">
<ele>512.2</ele>
<speed>8.8</speed>
<course>266.8</course>
<desc>Speed 8.8 km/h Distance 52.53 km</desc>
<time>2010-06-13T10:33:04.48</time>
<name>13674</name>
</trkpt>
<trkpt lat="49.161677" lon="11.760348">
<ele>513.0</ele>
<speed>10.0</speed>
<course>272.9</course>
<desc>Speed 10.0 km/h Distance 52.53 km</desc>
<time>2010-06-13T10:33:05.49</time>
<name>13675</name>
</trkpt>
<trkpt lat="49.161678" lon="11.760298">
<ele>513.8</ele>
<speed>11.6</speed>
<course>270.0</course>
<desc>Speed 11.6 km/h Distance 52.54 km</desc>
<time>2010-06-13T10:33:06.99</time>
<name>13676</name>
</trkpt>
<trkpt lat="49.161678" lon="11.760250">
<ele>514.2</ele>
<speed>12.9</speed>
<course>264.5</course>
<desc>Speed 12.9 km/h Distance 52.54 km</desc>
<time>2010-06-13T10:33:07.99</time>
<name>13677</name>
</trkpt>
<trkpt lat="49.161675" lon="11.760197">
<ele>514.7</ele>
<speed>14.1</speed>
<course>262.3</course>
<desc>Speed 14.1 km/h Distance 52.54 km</desc>
<time>2010-06-13T10:33:08.99</time>
<name>13678</name>
</trkpt>
<trkpt lat="49.161670" lon="11.760140">
<ele>515.2</ele>
<speed>15.3</speed>
<course>262.5</course>
<desc>Speed 15.3 km/h Distance 52.55 km</desc>
<time>2010-06-13T10:33:09.99</time>
<name>13679</name>
</trkpt>
<trkpt lat="49.161660" lon="11.760023">
<ele>515.5</ele>
<speed>15.5</speed>
<course>260.6</course>
<desc>Speed 15.5 km/h Distance 52.56 km</desc>
<time>2010-06-13T10:33:11.48</time>
<name>13680</name>
</trkpt>
<trkpt lat="49.161653" lon="11.759962">
<ele>515.7</ele>
<speed>16.4</speed>
<course>261.8</course>
<desc>Speed 16.4 km/h Distance 52.56 km</desc>
<time>2010-06-13T10:33:12.51</time>
<name>13681</name>
</trkpt>
<trkpt lat="49.161642" lon="11.759838">
<ele>515.7</ele>
<speed>16.5</speed>
<course>260.6</course>
<desc>Speed 16.5 km/h Distance 52.57 km</desc>
<time>2010-06-13T10:33:14.49</time>
<name>13682</name>
</trkpt>
<trkpt lat="49.161635" lon="11.759777">
<ele>515.3</ele>
<speed>16.3</speed>
<course>265.3</course>
<desc>Speed 16.3 km/h Distance 52.57 km</desc>
<time>2010-06-13T10:33:15.48</time>
<name>13683</name>
</trkpt>
<trkpt lat="49.161632" lon="11.759715">
<ele>515.0</ele>
<speed>16.8</speed>
<course>265.6</course>
<desc>Speed 16.8 km/h Distance 52.58 km</desc>
<time>2010-06-13T10:33:16.49</time>
<name>13684</name>
</trkpt>
<trkpt lat="49.161628" lon="11.759648">
<ele>514.9</ele>
<speed>17.3</speed>
<course>261.3</course>
<desc>Speed 17.3 km/h Distance 52.58 km</desc>
<time>2010-06-13T10:33:17.99</time>
<name>13685</name>
</trkpt>
<trkpt lat="49.161622" lon="11.759582">
<ele>514.5</ele>
<speed>18.0</speed>
<course>263.9</course>
<desc>Speed 18.0 km/h Distance 52.59 km</desc>
<time>2010-06-13T10:33:18.99</time>
<name>13686</name>
</trkpt>
<trkpt lat="49.161612" lon="11.759438">
<ele>514.2</ele>
<speed>19.3</speed>
<course>264.3</course>
<desc>Speed 19.3 km/h Distance 52.60 km</desc>
<time>2010-06-13T10:33:20.47</time>
<name>13687</name>
</trkpt>
<trkpt lat="49.161607" lon="11.759362">
<ele>514.3</ele>
<speed>20.2</speed>
<course>264.5</course>
<desc>Speed 20.2 km/h Distance 52.60 km</desc>
<time>2010-06-13T10:33:21.47</time>
<name>13688</name>
</trkpt>
<trkpt lat="49.161602" lon="11.759282">
<ele>514.7</ele>
<speed>21.1</speed>
<course>264.7</course>
<desc>Speed 21.1 km/h Distance 52.61 km</desc>
<time>2010-06-13T10:33:22.49</time>
<name>13689</name>
</trkpt>
<trkpt lat="49.161597" lon="11.759200">
<ele>514.7</ele>
<speed>20.8</speed>
<course>266.4</course>
<desc>Speed 20.8 km/h Distance 52.62 km</desc>
<time>2010-06-13T10:33:23.99</time>
<name>13690</name>
</trkpt>
<trkpt lat="49.161593" lon="11.759120">
<ele>515.1</ele>
<speed>20.9</speed>
<course>266.5</course>
<desc>Speed 20.9 km/h Distance 52.62 km</desc>
<time>2010-06-13T10:33:24.99</time>
<name>13691</name>
</trkpt>
<trkpt lat="49.161587" lon="11.758955">
<ele>515.5</ele>
<speed>21.5</speed>
<course>262.7</course>
<desc>Speed 21.5 km/h Distance 52.63 km</desc>
<time>2010-06-13T10:33:26.48</time>
<name>13692</name>
</trkpt>
<trkpt lat="49.161580" lon="11.758875">
<ele>515.5</ele>
<speed>22.3</speed>
<course>262.9</course>
<desc>Speed 22.3 km/h Distance 52.64 km</desc>
<time>2010-06-13T10:33:27.48</time>
<name>13693</name>
</trkpt>
<trkpt lat="49.161573" lon="11.758793">
<ele>515.1</ele>
<speed>22.2</speed>
<course>261.5</course>
<desc>Speed 22.2 km/h Distance 52.65 km</desc>
<time>2010-06-13T10:33:28.48</time>
<name>13694</name>
</trkpt>
<trkpt lat="49.161565" lon="11.758708">
<ele>514.3</ele>
<speed>22.2</speed>
<course>266.0</course>
<desc>Speed 22.2 km/h Distance 52.65 km</desc>
<time>2010-06-13T10:33:29.49</time>
<name>13695</name>
</trkpt>
<trkpt lat="49.161557" lon="11.758527">
<ele>513.8</ele>
<speed>23.4</speed>
<course>264.3</course>
<desc>Speed 23.4 km/h Distance 52.66 km</desc>
<time>2010-06-13T10:33:31.49</time>
<name>13696</name>
</trkpt>
<trkpt lat="49.161545" lon="11.758348">
<ele>514.2</ele>
<speed>22.8</speed>
<course>266.6</course>
<desc>Speed 22.8 km/h Distance 52.68 km</desc>
<time>2010-06-13T10:33:33.49</time>
<name>13697</name>
</trkpt>
<trkpt lat="49.161538" lon="11.758178">
<ele>514.1</ele>
<speed>22.1</speed>
<course>264.9</course>
<desc>Speed 22.1 km/h Distance 52.69 km</desc>
<time>2010-06-13T10:33:35.49</time>
<name>13698</name>
</trkpt>
<trkpt lat="49.161533" lon="11.758093">
<ele>513.9</ele>
<speed>21.8</speed>
<course>264.1</course>
<desc>Speed 21.8 km/h Distance 52.70 km</desc>
<time>2010-06-13T10:33:36.49</time>
<name>13699</name>
</trkpt>
<trkpt lat="49.161522" lon="11.757922">
<ele>514.5</ele>
<speed>22.8</speed>
<course>262.9</course>
<desc>Speed 22.8 km/h Distance 52.71 km</desc>
<time>2010-06-13T10:33:38.49</time>
<name>13700</name>
</trkpt>
<trkpt lat="49.161515" lon="11.757840">
<ele>514.1</ele>
<speed>22.1</speed>
<course>262.7</course>
<desc>Speed 22.1 km/h Distance 52.72 km</desc>
<time>2010-06-13T10:33:39.99</time>
<name>13701</name>
</trkpt>
<trkpt lat="49.161502" lon="11.757682">
<ele>514.1</ele>
<speed>19.7</speed>
<course>259.6</course>
<desc>Speed 19.7 km/h Distance 52.73 km</desc>
<time>2010-06-13T10:33:41.48</time>
<name>13702</name>
</trkpt>
<trkpt lat="49.161492" lon="11.757598">
<ele>515.3</ele>
<speed>19.1</speed>
<course>261.1</course>
<desc>Speed 19.1 km/h Distance 52.73 km</desc>
<time>2010-06-13T10:33:42.49</time>
<name>13703</name>
</trkpt>
<trkpt lat="49.161483" lon="11.757517">
<ele>516.3</ele>
<speed>18.1</speed>
<course>262.7</course>
<desc>Speed 18.1 km/h Distance 52.74 km</desc>
<time>2010-06-13T10:33:43.99</time>
<name>13704</name>
</trkpt>
<trkpt lat="49.161477" lon="11.757437">
<ele>517.8</ele>
<speed>18.4</speed>
<course>263.4</course>
<desc>Speed 18.4 km/h Distance 52.74 km</desc>
<time>2010-06-13T10:33:44.99</time>
<name>13705</name>
</trkpt>
<trkpt lat="49.161467" lon="11.757305">
<ele>518.7</ele>
<speed>15.4</speed>
<course>260.2</course>
<desc>Speed 15.4 km/h Distance 52.75 km</desc>
<time>2010-06-13T10:33:46.49</time>
<name>13706</name>
</trkpt>
<trkpt lat="49.161453" lon="11.757187">
<ele>519.7</ele>
<speed>13.7</speed>
<course>270.0</course>
<desc>Speed 13.7 km/h Distance 52.76 km</desc>
<time>2010-06-13T10:33:48.49</time>
<name>13707</name>
</trkpt>
<trkpt lat="49.161453" lon="11.757135">
<ele>520.0</ele>
<speed>12.7</speed>
<course>267.0</course>
<desc>Speed 12.7 km/h Distance 52.77 km</desc>
<time>2010-06-13T10:33:49.48</time>
<name>13708</name>
</trkpt>
<trkpt lat="49.161452" lon="11.757087">
<ele>519.8</ele>
<speed>12.3</speed>
<course>267.0</course>
<desc>Speed 12.3 km/h Distance 52.77 km</desc>
<time>2010-06-13T10:33:50.49</time>
<name>13709</name>
</trkpt>
<trkpt lat="49.161450" lon="11.757038">
<ele>519.4</ele>
<speed>12.3</speed>
<course>267.0</course>
<desc>Speed 12.3 km/h Distance 52.77 km</desc>
<time>2010-06-13T10:33:51.49</time>
<name>13710</name>
</trkpt>
<trkpt lat="49.161448" lon="11.756990">
<ele>519.3</ele>
<speed>12.5</speed>
<course>270.0</course>
<desc>Speed 12.5 km/h Distance 52.78 km</desc>
<time>2010-06-13T10:33:52.99</time>
<name>13711</name>
</trkpt>
<trkpt lat="49.161448" lon="11.756890">
<ele>519.1</ele>
<speed>13.7</speed>
<course>255.5</course>
<desc>Speed 13.7 km/h Distance 52.78 km</desc>
<time>2010-06-13T10:33:54.49</time>
<name>13712</name>
</trkpt>
<trkpt lat="49.161432" lon="11.756792">
<ele>519.1</ele>
<speed>13.0</speed>
<course>261.6</course>
<desc>Speed 13.0 km/h Distance 52.79 km</desc>
<time>2010-06-13T10:33:56.49</time>
<name>13713</name>
</trkpt>
<trkpt lat="49.161423" lon="11.756705">
<ele>518.9</ele>
<speed>11.0</speed>
<course>270.0</course>
<desc>Speed 11.0 km/h Distance 52.80 km</desc>
<time>2010-06-13T10:33:58.48</time>
<name>13714</name>
</trkpt>
<trkpt lat="49.161423" lon="11.756660">
<ele>519.2</ele>
<speed>11.2</speed>
<course>266.9</course>
<desc>Speed 11.2 km/h Distance 52.80 km</desc>
<time>2010-06-13T10:33:59.48</time>
<name>13715</name>
</trkpt>
<trkpt lat="49.161422" lon="11.756613">
<ele>519.2</ele>
<speed>11.8</speed>
<course>262.9</course>
<desc>Speed 11.8 km/h Distance 52.81 km</desc>
<time>2010-06-13T10:34:00.49</time>
<name>13716</name>
</trkpt>
<trkpt lat="49.161417" lon="11.756552">
<ele>520.6</ele>
<speed>11.7</speed>
<course>257.5</course>
<desc>Speed 11.7 km/h Distance 52.81 km</desc>
<time>2010-06-13T10:34:01.99</time>
<name>13717</name>
</trkpt>
<trkpt lat="49.161402" lon="11.756448">
<ele>522.1</ele>
<speed>11.6</speed>
<course>260.5</course>
<desc>Speed 11.6 km/h Distance 52.82 km</desc>
<time>2010-06-13T10:34:03.49</time>
<name>13718</name>
</trkpt>
<trkpt lat="49.161392" lon="11.756357">
<ele>523.2</ele>
<speed>10.8</speed>
<course>260.0</course>
<desc>Speed 10.8 km/h Distance 52.82 km</desc>
<time>2010-06-13T10:34:05.49</time>
<name>13719</name>
</trkpt>
<trkpt lat="49.161387" lon="11.756313">
<ele>523.5</ele>
<speed>11.6</speed>
<course>262.4</course>
<desc>Speed 11.6 km/h Distance 52.83 km</desc>
<time>2010-06-13T10:34:06.48</time>
<name>13720</name>
</trkpt>
<trkpt lat="49.161383" lon="11.756275">
<ele>523.4</ele>
<speed>10.8</speed>
<course>263.5</course>
<desc>Speed 10.8 km/h Distance 52.83 km</desc>
<time>2010-06-13T10:34:07.48</time>
<name>13721</name>
</trkpt>
<trkpt lat="49.161380" lon="11.756230">
<ele>524.1</ele>
<speed>10.3</speed>
<course>264.5</course>
<desc>Speed 10.3 km/h Distance 52.83 km</desc>
<time>2010-06-13T10:34:08.50</time>
<name>13722</name>
</trkpt>
<trkpt lat="49.161375" lon="11.756150">
<ele>525.2</ele>
<speed>9.2</speed>
<course>264.5</course>
<desc>Speed 9.2 km/h Distance 52.84 km</desc>
<time>2010-06-13T10:34:10.49</time>
<name>13723</name>
</trkpt>
<trkpt lat="49.161373" lon="11.756123">
<ele>524.4</ele>
<speed>9.5</speed>
<course>257.1</course>
<desc>Speed 9.5 km/h Distance 52.84 km</desc>
<time>2010-06-13T10:34:11.49</time>
<name>13724</name>
</trkpt>
<trkpt lat="49.161368" lon="11.756090">
<ele>523.9</ele>
<speed>9.6</speed>
<course>265.6</course>
<desc>Speed 9.6 km/h Distance 52.84 km</desc>
<time>2010-06-13T10:34:12.49</time>
<name>13725</name>
</trkpt>
<trkpt lat="49.161367" lon="11.756057">
<ele>523.8</ele>
<speed>8.7</speed>
<course>265.6</course>
<desc>Speed 8.7 km/h Distance 52.85 km</desc>
<time>2010-06-13T10:34:13.48</time>
<name>13726</name>
</trkpt>
<trkpt lat="49.161365" lon="11.756023">
<ele>523.6</ele>
<speed>9.0</speed>
<course>263.0</course>
<desc>Speed 9.0 km/h Distance 52.85 km</desc>
<time>2010-06-13T10:34:14.47</time>
<name>13727</name>
</trkpt>
<trkpt lat="49.161362" lon="11.755982">
<ele>524.5</ele>
<speed>10.0</speed>
<course>266.8</course>
<desc>Speed 10.0 km/h Distance 52.85 km</desc>
<time>2010-06-13T10:34:15.49</time>
<name>13728</name>
</trkpt>
<trkpt lat="49.161360" lon="11.755937">
<ele>525.3</ele>
<speed>9.3</speed>
<course>275.0</course>
<desc>Speed 9.3 km/h Distance 52.86 km</desc>
<time>2010-06-13T10:34:16.99</time>
<name>13729</name>
</trkpt>
<trkpt lat="49.161363" lon="11.755878">
<ele>524.6</ele>
<speed>9.0</speed>
<course>261.7</course>
<desc>Speed 9.0 km/h Distance 52.86 km</desc>
<time>2010-06-13T10:34:18.49</time>
<name>13730</name>
</trkpt>
<trkpt lat="49.161360" lon="11.755843">
<ele>524.9</ele>
<speed>8.8</speed>
<course>258.2</course>
<desc>Speed 8.8 km/h Distance 52.86 km</desc>
<time>2010-06-13T10:34:19.48</time>
<name>13731</name>
</trkpt>
<trkpt lat="49.161355" lon="11.755807">
<ele>524.9</ele>
<speed>9.6</speed>
<course>257.7</course>
<desc>Speed 9.6 km/h Distance 52.86 km</desc>
<time>2010-06-13T10:34:20.48</time>
<name>13732</name>
</trkpt>
<trkpt lat="49.161350" lon="11.755772">
<ele>524.7</ele>
<speed>10.0</speed>
<course>270.0</course>
<desc>Speed 10.0 km/h Distance 52.87 km</desc>
<time>2010-06-13T10:34:21.48</time>
<name>13733</name>
</trkpt>
<trkpt lat="49.161350" lon="11.755732">
<ele>524.9</ele>
<speed>10.4</speed>
<course>266.2</course>
<desc>Speed 10.4 km/h Distance 52.87 km</desc>
<time>2010-06-13T10:34:22.50</time>
<name>13734</name>
</trkpt>
<trkpt lat="49.161347" lon="11.755655">
<ele>525.2</ele>
<speed>9.4</speed>
<course>261.3</course>
<desc>Speed 9.4 km/h Distance 52.88 km</desc>
<time>2010-06-13T10:34:24.49</time>
<name>13735</name>
</trkpt>
<trkpt lat="49.161343" lon="11.755622">
<ele>524.8</ele>
<speed>8.8</speed>
<course>261.3</course>
<desc>Speed 8.8 km/h Distance 52.88 km</desc>
<time>2010-06-13T10:34:25.48</time>
<name>13736</name>
</trkpt>
<trkpt lat="49.161340" lon="11.755588">
<ele>524.6</ele>
<speed>8.7</speed>
<course>265.4</course>
<desc>Speed 8.7 km/h Distance 52.88 km</desc>
<time>2010-06-13T10:34:26.49</time>
<name>13737</name>
</trkpt>
<trkpt lat="49.161338" lon="11.755557">
<ele>524.4</ele>
<speed>8.2</speed>
<course>265.8</course>
<desc>Speed 8.2 km/h Distance 52.88 km</desc>
<time>2010-06-13T10:34:27.48</time>
<name>13738</name>
</trkpt>
<trkpt lat="49.161337" lon="11.755522">
<ele>524.3</ele>
<speed>9.3</speed>
<course>266.0</course>
<desc>Speed 9.3 km/h Distance 52.89 km</desc>
<time>2010-06-13T10:34:28.48</time>
<name>13739</name>
</trkpt>
<trkpt lat="49.161335" lon="11.755485">
<ele>524.4</ele>
<speed>9.3</speed>
<course>262.1</course>
<desc>Speed 9.3 km/h Distance 52.89 km</desc>
<time>2010-06-13T10:34:29.49</time>
<name>13740</name>
</trkpt>
<trkpt lat="49.161332" lon="11.755448">
<ele>524.0</ele>
<speed>9.3</speed>
<course>257.1</course>
<desc>Speed 9.3 km/h Distance 52.89 km</desc>
<time>2010-06-13T10:34:30.49</time>
<name>13741</name>
</trkpt>
<trkpt lat="49.161327" lon="11.755415">
<ele>523.7</ele>
<speed>8.7</speed>
<course>270.0</course>
<desc>Speed 8.7 km/h Distance 52.89 km</desc>
<time>2010-06-13T10:34:31.49</time>
<name>13742</name>
</trkpt>
<trkpt lat="49.161327" lon="11.755343">
<ele>523.8</ele>
<speed>8.9</speed>
<course>270.0</course>
<desc>Speed 8.9 km/h Distance 52.90 km</desc>
<time>2010-06-13T10:34:33.48</time>
<name>13743</name>
</trkpt>
<trkpt lat="49.161327" lon="11.755307">
<ele>523.8</ele>
<speed>9.6</speed>
<course>266.4</course>
<desc>Speed 9.6 km/h Distance 52.90 km</desc>
<time>2010-06-13T10:34:34.48</time>
<name>13744</name>
</trkpt>
<trkpt lat="49.161325" lon="11.755267">
<ele>524.1</ele>
<speed>10.2</speed>
<course>260.8</course>
<desc>Speed 10.2 km/h Distance 52.90 km</desc>
<time>2010-06-13T10:34:35.49</time>
<name>13745</name>
</trkpt>
<trkpt lat="49.161317" lon="11.755188">
<ele>524.0</ele>
<speed>10.7</speed>
<course>262.4</course>
<desc>Speed 10.7 km/h Distance 52.91 km</desc>
<time>2010-06-13T10:34:37.48</time>
<name>13746</name>
</trkpt>
<trkpt lat="49.161313" lon="11.755150">
<ele>524.1</ele>
<speed>9.9</speed>
<course>266.0</course>
<desc>Speed 9.9 km/h Distance 52.91 km</desc>
<time>2010-06-13T10:34:38.49</time>
<name>13747</name>
</trkpt>
<trkpt lat="49.161310" lon="11.755077">
<ele>524.4</ele>
<speed>8.9</speed>
<course>261.3</course>
<desc>Speed 8.9 km/h Distance 52.92 km</desc>
<time>2010-06-13T10:34:40.48</time>
<name>13748</name>
</trkpt>
<trkpt lat="49.161307" lon="11.755043">
<ele>524.1</ele>
<speed>8.5</speed>
<course>270.0</course>
<desc>Speed 8.5 km/h Distance 52.92 km</desc>
<time>2010-06-13T10:34:41.49</time>
<name>13749</name>
</trkpt>
<trkpt lat="49.161307" lon="11.755008">
<ele>524.3</ele>
<speed>8.6</speed>
<course>270.0</course>
<desc>Speed 8.6 km/h Distance 52.92 km</desc>
<time>2010-06-13T10:34:42.49</time>
<name>13750</name>
</trkpt>
<trkpt lat="49.161307" lon="11.754932">
<ele>525.6</ele>
<speed>8.9</speed>
<course>265.8</course>
<desc>Speed 8.9 km/h Distance 52.93 km</desc>
<time>2010-06-13T10:34:44.47</time>
<name>13751</name>
</trkpt>
<trkpt lat="49.161305" lon="11.754897">
<ele>525.4</ele>
<speed>8.9</speed>
<course>253.0</course>
<desc>Speed 8.9 km/h Distance 52.93 km</desc>
<time>2010-06-13T10:34:45.47</time>
<name>13752</name>
</trkpt>
<trkpt lat="49.161298" lon="11.754863">
<ele>525.1</ele>
<speed>8.8</speed>
<course>270.0</course>
<desc>Speed 8.8 km/h Distance 52.93 km</desc>
<time>2010-06-13T10:34:46.49</time>
<name>13753</name>
</trkpt>
<trkpt lat="49.161298" lon="11.754828">
<ele>525.0</ele>
<speed>8.4</speed>
<course>266.2</course>
<desc>Speed 8.4 km/h Distance 52.94 km</desc>
<time>2010-06-13T10:34:47.48</time>
<name>13754</name>
</trkpt>
<trkpt lat="49.161297" lon="11.754790">
<ele>524.9</ele>
<speed>9.8</speed>
<course>270.0</course>
<desc>Speed 9.8 km/h Distance 52.94 km</desc>
<time>2010-06-13T10:34:48.49</time>
<name>13755</name>
</trkpt>
<trkpt lat="49.161297" lon="11.754753">
<ele>524.9</ele>
<speed>10.5</speed>
<course>262.1</course>
<desc>Speed 10.5 km/h Distance 52.94 km</desc>
<time>2010-06-13T10:34:49.48</time>
<name>13756</name>
</trkpt>
<trkpt lat="49.161292" lon="11.754698">
<ele>526.1</ele>
<speed>10.8</speed>
<course>263.0</course>
<desc>Speed 10.8 km/h Distance 52.95 km</desc>
<time>2010-06-13T10:34:50.48</time>
<name>13757</name>
</trkpt>
<trkpt lat="49.161288" lon="11.754657">
<ele>525.9</ele>
<speed>11.2</speed>
<course>263.3</course>
<desc>Speed 11.2 km/h Distance 52.95 km</desc>
<time>2010-06-13T10:34:51.47</time>
<name>13758</name>
</trkpt>
<trkpt lat="49.161285" lon="11.754613">
<ele>526.0</ele>
<speed>11.0</speed>
<course>270.0</course>
<desc>Speed 11.0 km/h Distance 52.95 km</desc>
<time>2010-06-13T10:34:52.47</time>
<name>13759</name>
</trkpt>
<trkpt lat="49.161285" lon="11.754567">
<ele>526.6</ele>
<speed>11.1</speed>
<course>266.8</course>
<desc>Speed 11.1 km/h Distance 52.96 km</desc>
<time>2010-06-13T10:34:53.47</time>
<name>13760</name>
</trkpt>
<trkpt lat="49.161283" lon="11.754522">
<ele>527.2</ele>
<speed>11.2</speed>
<course>266.8</course>
<desc>Speed 11.2 km/h Distance 52.96 km</desc>
<time>2010-06-13T10:34:54.48</time>
<name>13761</name>
</trkpt>
<trkpt lat="49.161282" lon="11.754477">
<ele>527.6</ele>
<speed>11.2</speed>
<course>256.8</course>
<desc>Speed 11.2 km/h Distance 52.96 km</desc>
<time>2010-06-13T10:34:55.48</time>
<name>13762</name>
</trkpt>
<trkpt lat="49.161275" lon="11.754433">
<ele>527.6</ele>
<speed>11.3</speed>
<course>263.7</course>
<desc>Speed 11.3 km/h Distance 52.97 km</desc>
<time>2010-06-13T10:34:56.49</time>
<name>13763</name>
</trkpt>
<trkpt lat="49.161268" lon="11.754342">
<ele>528.5</ele>
<speed>11.2</speed>
<course>260.4</course>
<desc>Speed 11.2 km/h Distance 52.97 km</desc>
<time>2010-06-13T10:34:58.47</time>
<name>13764</name>
</trkpt>
<trkpt lat="49.161263" lon="11.754297">
<ele>528.8</ele>
<speed>11.3</speed>
<course>262.1</course>
<desc>Speed 11.3 km/h Distance 52.98 km</desc>
<time>2010-06-13T10:34:59.48</time>
<name>13765</name>
</trkpt>
<trkpt lat="49.161258" lon="11.754242">
<ele>529.4</ele>
<speed>11.7</speed>
<course>268.3</course>
<desc>Speed 11.7 km/h Distance 52.98 km</desc>
<time>2010-06-13T10:35:00.47</time>
<name>13766</name>
</trkpt>
<trkpt lat="49.161257" lon="11.754157">
<ele>528.7</ele>
<speed>14.8</speed>
<course>234.5</course>
<desc>Speed 14.8 km/h Distance 52.99 km</desc>
<time>2010-06-13T10:35:02.49</time>
<name>13767</name>
</trkpt>
<trkpt lat="49.161245" lon="11.754132">
<ele>527.2</ele>
<speed>6.4</speed>
<course>198.1</course>
<desc>Speed 6.4 km/h Distance 52.99 km</desc>
<time>2010-06-13T10:35:04.47</time>
<name>13768</name>
</trkpt>
<trkpt lat="49.161232" lon="11.754125">
<ele>527.5</ele>
<speed>6.8</speed>
<course>238.6</course>
<desc>Speed 6.8 km/h Distance 52.99 km</desc>
<time>2010-06-13T10:35:05.47</time>
<name>13769</name>
</trkpt>
<trkpt lat="49.161225" lon="11.754108">
<ele>526.7</ele>
<speed>5.8</speed>
<course>240.9</course>
<desc>Speed 5.8 km/h Distance 52.99 km</desc>
<time>2010-06-13T10:35:06.49</time>
<name>13770</name>
</trkpt>
<trkpt lat="49.161218" lon="11.754090">
<ele>526.9</ele>
<speed>6.4</speed>
<course>219.6</course>
<desc>Speed 6.4 km/h Distance 52.99 km</desc>
<time>2010-06-13T10:35:07.49</time>
<name>13771</name>
</trkpt>
<trkpt lat="49.161193" lon="11.754058">
<ele>527.1</ele>
<speed>11.0</speed>
<course>186.4</course>
<desc>Speed 11.0 km/h Distance 53.00 km</desc>
<time>2010-06-13T10:35:09.47</time>
<name>13772</name>
</trkpt>
<trkpt lat="49.161163" lon="11.754053">
<ele>526.5</ele>
<speed>12.3</speed>
<course>174.6</course>
<desc>Speed 12.3 km/h Distance 53.00 km</desc>
<time>2010-06-13T10:35:10.48</time>
<name>13773</name>
</trkpt>
<trkpt lat="49.161138" lon="11.754057">
<ele>525.9</ele>
<speed>12.7</speed>
<course>167.4</course>
<desc>Speed 12.7 km/h Distance 53.00 km</desc>
<time>2010-06-13T10:35:11.49</time>
<name>13774</name>
</trkpt>
<trkpt lat="49.161065" lon="11.754082">
<ele>524.6</ele>
<speed>14.5</speed>
<course>168.7</course>
<desc>Speed 14.5 km/h Distance 53.01 km</desc>
<time>2010-06-13T10:35:13.47</time>
<name>13775</name>
</trkpt>
<trkpt lat="49.161027" lon="11.754093">
<ele>524.0</ele>
<speed>15.6</speed>
<course>172.6</course>
<desc>Speed 15.6 km/h Distance 53.01 km</desc>
<time>2010-06-13T10:35:14.48</time>
<name>13776</name>
</trkpt>
<trkpt lat="49.160993" lon="11.754100">
<ele>523.9</ele>
<speed>15.7</speed>
<course>170.0</course>
<desc>Speed 15.7 km/h Distance 53.02 km</desc>
<time>2010-06-13T10:35:15.48</time>
<name>13777</name>
</trkpt>
<trkpt lat="49.160957" lon="11.754110">
<ele>523.4</ele>
<speed>16.8</speed>
<course>170.4</course>
<desc>Speed 16.8 km/h Distance 53.02 km</desc>
<time>2010-06-13T10:35:16.47</time>
<name>13778</name>
</trkpt>
<trkpt lat="49.160918" lon="11.754120">
<ele>523.0</ele>
<speed>16.7</speed>
<course>170.8</course>
<desc>Speed 16.7 km/h Distance 53.03 km</desc>
<time>2010-06-13T10:35:17.49</time>
<name>13779</name>
</trkpt>
<trkpt lat="49.160878" lon="11.754130">
<ele>522.5</ele>
<speed>16.8</speed>
<course>172.8</course>
<desc>Speed 16.8 km/h Distance 53.03 km</desc>
<time>2010-06-13T10:35:18.99</time>
<name>13780</name>
</trkpt>
<trkpt lat="49.160792" lon="11.754147">
<ele>522.1</ele>
<speed>18.8</speed>
<course>170.6</course>
<desc>Speed 18.8 km/h Distance 53.04 km</desc>
<time>2010-06-13T10:35:20.50</time>
<name>13781</name>
</trkpt>
<trkpt lat="49.160693" lon="11.754172">
<ele>521.3</ele>
<speed>20.4</speed>
<course>169.7</course>
<desc>Speed 20.4 km/h Distance 53.05 km</desc>
<time>2010-06-13T10:35:22.49</time>
<name>13782</name>
</trkpt>
<trkpt lat="49.160592" lon="11.754200">
<ele>520.3</ele>
<speed>21.5</speed>
<course>171.0</course>
<desc>Speed 21.5 km/h Distance 53.06 km</desc>
<time>2010-06-13T10:35:24.47</time>
<name>13783</name>
</trkpt>
<trkpt lat="49.160537" lon="11.754213">
<ele>519.9</ele>
<speed>21.8</speed>
<course>169.9</course>
<desc>Speed 21.8 km/h Distance 53.07 km</desc>
<time>2010-06-13T10:35:25.48</time>
<name>13784</name>
</trkpt>
<trkpt lat="49.160482" lon="11.754228">
<ele>519.5</ele>
<speed>22.5</speed>
<course>163.6</course>
<desc>Speed 22.5 km/h Distance 53.08 km</desc>
<time>2010-06-13T10:35:26.48</time>
<name>13785</name>
</trkpt>
<trkpt lat="49.160430" lon="11.754252">
<ele>517.9</ele>
<speed>23.3</speed>
<course>171.2</course>
<desc>Speed 23.3 km/h Distance 53.08 km</desc>
<time>2010-06-13T10:35:27.48</time>
<name>13786</name>
</trkpt>
<trkpt lat="49.160373" lon="11.754265">
<ele>517.3</ele>
<speed>23.9</speed>
<course>174.1</course>
<desc>Speed 23.9 km/h Distance 53.09 km</desc>
<time>2010-06-13T10:35:28.47</time>
<name>13787</name>
</trkpt>
<trkpt lat="49.160310" lon="11.754275">
<ele>517.0</ele>
<speed>25.0</speed>
<course>172.1</course>
<desc>Speed 25.0 km/h Distance 53.10 km</desc>
<time>2010-06-13T10:35:29.48</time>
<name>13788</name>
</trkpt>
<trkpt lat="49.160247" lon="11.754288">
<ele>516.8</ele>
<speed>25.2</speed>
<course>171.4</course>
<desc>Speed 25.2 km/h Distance 53.10 km</desc>
<time>2010-06-13T10:35:30.48</time>
<name>13789</name>
</trkpt>
<trkpt lat="49.160182" lon="11.754303">
<ele>516.5</ele>
<speed>26.0</speed>
<course>168.0</course>
<desc>Speed 26.0 km/h Distance 53.11 km</desc>
<time>2010-06-13T10:35:31.48</time>
<name>13790</name>
</trkpt>
<trkpt lat="49.160115" lon="11.754325">
<ele>516.0</ele>
<speed>26.8</speed>
<course>168.9</course>
<desc>Speed 26.8 km/h Distance 53.12 km</desc>
<time>2010-06-13T10:35:32.48</time>
<name>13791</name>
</trkpt>
<trkpt lat="49.160048" lon="11.754345">
<ele>515.7</ele>
<speed>27.3</speed>
<course>169.4</course>
<desc>Speed 27.3 km/h Distance 53.13 km</desc>
<time>2010-06-13T10:35:33.48</time>
<name>13792</name>
</trkpt>
<trkpt lat="49.159978" lon="11.754365">
<ele>515.5</ele>
<speed>28.0</speed>
<course>169.9</course>
<desc>Speed 28.0 km/h Distance 53.13 km</desc>
<time>2010-06-13T10:35:34.47</time>
<name>13793</name>
</trkpt>
<trkpt lat="49.159905" lon="11.754385">
<ele>515.4</ele>
<speed>28.8</speed>
<course>168.5</course>
<desc>Speed 28.8 km/h Distance 53.14 km</desc>
<time>2010-06-13T10:35:35.48</time>
<name>13794</name>
</trkpt>
<trkpt lat="49.159830" lon="11.754408">
<ele>515.1</ele>
<speed>29.5</speed>
<course>170.9</course>
<desc>Speed 29.5 km/h Distance 53.15 km</desc>
<time>2010-06-13T10:35:36.47</time>
<name>13795</name>
</trkpt>
<trkpt lat="49.159755" lon="11.754427">
<ele>514.6</ele>
<speed>30.5</speed>
<course>172.7</course>
<desc>Speed 30.5 km/h Distance 53.16 km</desc>
<time>2010-06-13T10:35:37.47</time>
<name>13796</name>
</trkpt>
<trkpt lat="49.159678" lon="11.754442">
<ele>514.0</ele>
<speed>31.1</speed>
<course>172.1</course>
<desc>Speed 31.1 km/h Distance 53.17 km</desc>
<time>2010-06-13T10:35:38.48</time>
<name>13797</name>
</trkpt>
<trkpt lat="49.159600" lon="11.754458">
<ele>513.6</ele>
<speed>32.0</speed>
<course>173.0</course>
<desc>Speed 32.0 km/h Distance 53.18 km</desc>
<time>2010-06-13T10:35:39.48</time>
<name>13798</name>
</trkpt>
<trkpt lat="49.159520" lon="11.754473">
<ele>512.9</ele>
<speed>33.0</speed>
<course>171.1</course>
<desc>Speed 33.0 km/h Distance 53.18 km</desc>
<time>2010-06-13T10:35:40.48</time>
<name>13799</name>
</trkpt>
<trkpt lat="49.159437" lon="11.754493">
<ele>512.2</ele>
<speed>34.1</speed>
<course>168.7</course>
<desc>Speed 34.1 km/h Distance 53.19 km</desc>
<time>2010-06-13T10:35:41.47</time>
<name>13800</name>
</trkpt>
<trkpt lat="49.159355" lon="11.754518">
<ele>511.7</ele>
<speed>32.7</speed>
<course>170.7</course>
<desc>Speed 32.7 km/h Distance 53.20 km</desc>
<time>2010-06-13T10:35:42.48</time>
<name>13801</name>
</trkpt>
<trkpt lat="49.159282" lon="11.754537">
<ele>510.7</ele>
<speed>29.1</speed>
<course>171.0</course>
<desc>Speed 29.1 km/h Distance 53.21 km</desc>
<time>2010-06-13T10:35:43.48</time>
<name>13802</name>
</trkpt>
<trkpt lat="49.159220" lon="11.754552">
<ele>510.1</ele>
<speed>24.4</speed>
<course>176.4</course>
<desc>Speed 24.4 km/h Distance 53.22 km</desc>
<time>2010-06-13T10:35:44.48</time>
<name>13803</name>
</trkpt>
<trkpt lat="49.159168" lon="11.754557">
<ele>509.7</ele>
<speed>19.6</speed>
<course>184.1</course>
<desc>Speed 19.6 km/h Distance 53.22 km</desc>
<time>2010-06-13T10:35:45.47</time>
<name>13804</name>
</trkpt>
<trkpt lat="49.159123" lon="11.754552">
<ele>509.1</ele>
<speed>18.9</speed>
<course>200.7</course>
<desc>Speed 18.9 km/h Distance 53.23 km</desc>
<time>2010-06-13T10:35:46.48</time>
<name>13805</name>
</trkpt>
<trkpt lat="49.159080" lon="11.754527">
<ele>509.2</ele>
<speed>18.3</speed>
<course>225.0</course>
<desc>Speed 18.3 km/h Distance 53.23 km</desc>
<time>2010-06-13T10:35:47.47</time>
<name>13806</name>
</trkpt>
<trkpt lat="49.159052" lon="11.754483">
<ele>508.7</ele>
<speed>17.0</speed>
<course>229.6</course>
<desc>Speed 17.0 km/h Distance 53.24 km</desc>
<time>2010-06-13T10:35:48.47</time>
<name>13807</name>
</trkpt>
<trkpt lat="49.159018" lon="11.754423">
<ele>509.6</ele>
<speed>16.9</speed>
<course>224.9</course>
<desc>Speed 16.9 km/h Distance 53.24 km</desc>
<time>2010-06-13T10:35:49.49</time>
<name>13808</name>
</trkpt>
<trkpt lat="49.158987" lon="11.754375">
<ele>509.0</ele>
<speed>18.5</speed>
<course>232.6</course>
<desc>Speed 18.5 km/h Distance 53.25 km</desc>
<time>2010-06-13T10:35:50.49</time>
<name>13809</name>
</trkpt>
<trkpt lat="49.158955" lon="11.754312">
<ele>509.5</ele>
<speed>19.8</speed>
<course>231.9</course>
<desc>Speed 19.8 km/h Distance 53.26 km</desc>
<time>2010-06-13T10:35:51.47</time>
<name>13810</name>
</trkpt>
<trkpt lat="49.158920" lon="11.754243">
<ele>510.3</ele>
<speed>21.1</speed>
<course>235.1</course>
<desc>Speed 21.1 km/h Distance 53.26 km</desc>
<time>2010-06-13T10:35:52.50</time>
<name>13811</name>
</trkpt>
<trkpt lat="49.158858" lon="11.754108">
<ele>511.5</ele>
<speed>20.9</speed>
<course>231.1</course>
<desc>Speed 20.9 km/h Distance 53.27 km</desc>
<time>2010-06-13T10:35:54.48</time>
<name>13812</name>
</trkpt>
<trkpt lat="49.158827" lon="11.754048">
<ele>511.5</ele>
<speed>19.3</speed>
<course>237.0</course>
<desc>Speed 19.3 km/h Distance 53.28 km</desc>
<time>2010-06-13T10:35:55.48</time>
<name>13813</name>
</trkpt>
<trkpt lat="49.158803" lon="11.753993">
<ele>510.7</ele>
<speed>18.1</speed>
<course>236.5</course>
<desc>Speed 18.1 km/h Distance 53.28 km</desc>
<time>2010-06-13T10:35:56.47</time>
<name>13814</name>
</trkpt>
<trkpt lat="49.158777" lon="11.753932">
<ele>511.3</ele>
<speed>18.2</speed>
<course>234.3</course>
<desc>Speed 18.2 km/h Distance 53.29 km</desc>
<time>2010-06-13T10:35:57.48</time>
<name>13815</name>
</trkpt>
<trkpt lat="49.158750" lon="11.753875">
<ele>511.6</ele>
<speed>18.2</speed>
<course>234.9</course>
<desc>Speed 18.2 km/h Distance 53.29 km</desc>
<time>2010-06-13T10:35:58.47</time>
<name>13816</name>
</trkpt>
<trkpt lat="49.158722" lon="11.753813">
<ele>512.3</ele>
<speed>18.5</speed>
<course>228.4</course>
<desc>Speed 18.5 km/h Distance 53.30 km</desc>
<time>2010-06-13T10:35:59.48</time>
<name>13817</name>
</trkpt>
<trkpt lat="49.158692" lon="11.753762">
<ele>512.1</ele>
<speed>18.6</speed>
<course>232.6</course>
<desc>Speed 18.6 km/h Distance 53.31 km</desc>
<time>2010-06-13T10:36:00.48</time>
<name>13818</name>
</trkpt>
<trkpt lat="49.158663" lon="11.753705">
<ele>512.4</ele>
<speed>17.9</speed>
<course>235.3</course>
<desc>Speed 17.9 km/h Distance 53.31 km</desc>
<time>2010-06-13T10:36:01.49</time>
<name>13819</name>
</trkpt>
<trkpt lat="49.158608" lon="11.753583">
<ele>514.3</ele>
<speed>18.3</speed>
<course>232.6</course>
<desc>Speed 18.3 km/h Distance 53.32 km</desc>
<time>2010-06-13T10:36:03.48</time>
<name>13820</name>
</trkpt>
<trkpt lat="49.158580" lon="11.753527">
<ele>515.3</ele>
<speed>18.2</speed>
<course>233.4</course>
<desc>Speed 18.2 km/h Distance 53.33 km</desc>
<time>2010-06-13T10:36:04.48</time>
<name>13821</name>
</trkpt>
<trkpt lat="49.158552" lon="11.753468">
<ele>516.3</ele>
<speed>17.9</speed>
<course>231.0</course>
<desc>Speed 17.9 km/h Distance 53.33 km</desc>
<time>2010-06-13T10:36:05.47</time>
<name>13822</name>
</trkpt>
<trkpt lat="49.158522" lon="11.753412">
<ele>516.8</ele>
<speed>18.3</speed>
<course>230.9</course>
<desc>Speed 18.3 km/h Distance 53.34 km</desc>
<time>2010-06-13T10:36:06.48</time>
<name>13823</name>
</trkpt>
<trkpt lat="49.158493" lon="11.753358">
<ele>517.3</ele>
<speed>17.8</speed>
<course>230.0</course>
<desc>Speed 17.8 km/h Distance 53.34 km</desc>
<time>2010-06-13T10:36:07.47</time>
<name>13824</name>
</trkpt>
<trkpt lat="49.158465" lon="11.753307">
<ele>517.7</ele>
<speed>17.4</speed>
<course>233.4</course>
<desc>Speed 17.4 km/h Distance 53.35 km</desc>
<time>2010-06-13T10:36:08.48</time>
<name>13825</name>
</trkpt>
<trkpt lat="49.158438" lon="11.753252">
<ele>518.5</ele>
<speed>17.0</speed>
<course>232.6</course>
<desc>Speed 17.0 km/h Distance 53.35 km</desc>
<time>2010-06-13T10:36:09.47</time>
<name>13826</name>
</trkpt>
<trkpt lat="49.158413" lon="11.753202">
<ele>518.8</ele>
<speed>16.4</speed>
<course>228.1</course>
<desc>Speed 16.4 km/h Distance 53.36 km</desc>
<time>2010-06-13T10:36:10.47</time>
<name>13827</name>
</trkpt>
<trkpt lat="49.158385" lon="11.753153">
<ele>519.2</ele>
<speed>16.1</speed>
<course>233.6</course>
<desc>Speed 16.1 km/h Distance 53.36 km</desc>
<time>2010-06-13T10:36:11.47</time>
<name>13828</name>
</trkpt>
<trkpt lat="49.158362" lon="11.753105">
<ele>520.0</ele>
<speed>15.2</speed>
<course>229.7</course>
<desc>Speed 15.2 km/h Distance 53.37 km</desc>
<time>2010-06-13T10:36:12.47</time>
<name>13829</name>
</trkpt>
<trkpt lat="49.158337" lon="11.753060">
<ele>520.4</ele>
<speed>14.7</speed>
<course>227.5</course>
<desc>Speed 14.7 km/h Distance 53.37 km</desc>
<time>2010-06-13T10:36:13.48</time>
<name>13830</name>
</trkpt>
<trkpt lat="49.158312" lon="11.753018">
<ele>521.0</ele>
<speed>14.2</speed>
<course>230.4</course>
<desc>Speed 14.2 km/h Distance 53.37 km</desc>
<time>2010-06-13T10:36:14.48</time>
<name>13831</name>
</trkpt>
<trkpt lat="49.158290" lon="11.752978">
<ele>521.4</ele>
<speed>13.0</speed>
<course>230.4</course>
<desc>Speed 13.0 km/h Distance 53.38 km</desc>
<time>2010-06-13T10:36:15.47</time>
<name>13832</name>
</trkpt>
<trkpt lat="49.158268" lon="11.752938">
<ele>522.0</ele>
<speed>12.3</speed>
<course>232.6</course>
<desc>Speed 12.3 km/h Distance 53.38 km</desc>
<time>2010-06-13T10:36:16.48</time>
<name>13833</name>
</trkpt>
<trkpt lat="49.158248" lon="11.752898">
<ele>522.2</ele>
<speed>13.2</speed>
<course>230.5</course>
<desc>Speed 13.2 km/h Distance 53.39 km</desc>
<time>2010-06-13T10:36:17.49</time>
<name>13834</name>
</trkpt>
<trkpt lat="49.158225" lon="11.752855">
<ele>522.5</ele>
<speed>13.7</speed>
<course>232.6</course>
<desc>Speed 13.7 km/h Distance 53.39 km</desc>
<time>2010-06-13T10:36:18.48</time>
<name>13835</name>
</trkpt>
<trkpt lat="49.158203" lon="11.752812">
<ele>523.0</ele>
<speed>14.1</speed>
<course>229.7</course>
<desc>Speed 14.1 km/h Distance 53.39 km</desc>
<time>2010-06-13T10:36:19.46</time>
<name>13836</name>
</trkpt>
<trkpt lat="49.158178" lon="11.752767">
<ele>523.6</ele>
<speed>14.0</speed>
<course>233.6</course>
<desc>Speed 14.0 km/h Distance 53.40 km</desc>
<time>2010-06-13T10:36:20.47</time>
<name>13837</name>
</trkpt>
<trkpt lat="49.158157" lon="11.752722">
<ele>524.4</ele>
<speed>14.0</speed>
<course>241.4</course>
<desc>Speed 14.0 km/h Distance 53.40 km</desc>
<time>2010-06-13T10:36:21.47</time>
<name>13838</name>
</trkpt>
<trkpt lat="49.158140" lon="11.752675">
<ele>524.7</ele>
<speed>12.9</speed>
<course>233.6</course>
<desc>Speed 12.9 km/h Distance 53.41 km</desc>
<time>2010-06-13T10:36:22.48</time>
<name>13839</name>
</trkpt>
<trkpt lat="49.158118" lon="11.752630">
<ele>525.2</ele>
<speed>14.0</speed>
<course>232.6</course>
<desc>Speed 14.0 km/h Distance 53.41 km</desc>
<time>2010-06-13T10:36:23.48</time>
<name>13840</name>
</trkpt>
<trkpt lat="49.158097" lon="11.752587">
<ele>525.6</ele>
<speed>13.8</speed>
<course>231.4</course>
<desc>Speed 13.8 km/h Distance 53.41 km</desc>
<time>2010-06-13T10:36:24.48</time>
<name>13841</name>
</trkpt>
<trkpt lat="49.158077" lon="11.752548">
<ele>525.1</ele>
<speed>13.4</speed>
<course>232.6</course>
<desc>Speed 13.4 km/h Distance 53.42 km</desc>
<time>2010-06-13T10:36:25.47</time>
<name>13842</name>
</trkpt>
<trkpt lat="49.158057" lon="11.752508">
<ele>524.7</ele>
<speed>13.5</speed>
<course>231.6</course>
<desc>Speed 13.5 km/h Distance 53.42 km</desc>
<time>2010-06-13T10:36:26.48</time>
<name>13843</name>
</trkpt>
<trkpt lat="49.158033" lon="11.752463">
<ele>524.6</ele>
<speed>14.5</speed>
<course>236.1</course>
<desc>Speed 14.5 km/h Distance 53.43 km</desc>
<time>2010-06-13T10:36:27.46</time>
<name>13844</name>
</trkpt>
<trkpt lat="49.158015" lon="11.752422">
<ele>524.0</ele>
<speed>14.7</speed>
<course>234.5</course>
<desc>Speed 14.7 km/h Distance 53.43 km</desc>
<time>2010-06-13T10:36:28.48</time>
<name>13845</name>
</trkpt>
<trkpt lat="49.157992" lon="11.752372">
<ele>524.3</ele>
<speed>14.8</speed>
<course>240.7</course>
<desc>Speed 14.8 km/h Distance 53.43 km</desc>
<time>2010-06-13T10:36:29.48</time>
<name>13846</name>
</trkpt>
<trkpt lat="49.157973" lon="11.752322">
<ele>524.3</ele>
<speed>15.3</speed>
<course>237.3</course>
<desc>Speed 15.3 km/h Distance 53.44 km</desc>
<time>2010-06-13T10:36:30.47</time>
<name>13847</name>
</trkpt>
<trkpt lat="49.157952" lon="11.752270">
<ele>524.4</ele>
<speed>15.8</speed>
<course>237.3</course>
<desc>Speed 15.8 km/h Distance 53.44 km</desc>
<time>2010-06-13T10:36:31.48</time>
<name>13848</name>
</trkpt>
<trkpt lat="49.157930" lon="11.752218">
<ele>524.5</ele>
<speed>15.3</speed>
<course>233.6</course>
<desc>Speed 15.3 km/h Distance 53.45 km</desc>
<time>2010-06-13T10:36:32.47</time>
<name>13849</name>
</trkpt>
<trkpt lat="49.157907" lon="11.752170">
<ele>524.2</ele>
<speed>15.1</speed>
<course>235.6</course>
<desc>Speed 15.1 km/h Distance 53.45 km</desc>
<time>2010-06-13T10:36:33.48</time>
<name>13850</name>
</trkpt>
<trkpt lat="49.157885" lon="11.752122">
<ele>524.1</ele>
<speed>15.3</speed>
<course>236.5</course>
<desc>Speed 15.3 km/h Distance 53.46 km</desc>
<time>2010-06-13T10:36:34.48</time>
<name>13851</name>
</trkpt>
<trkpt lat="49.157863" lon="11.752072">
<ele>524.3</ele>
<speed>14.9</speed>
<course>239.9</course>
<desc>Speed 14.9 km/h Distance 53.46 km</desc>
<time>2010-06-13T10:36:35.48</time>
<name>13852</name>
</trkpt>
<trkpt lat="49.157845" lon="11.752023">
<ele>524.1</ele>
<speed>14.9</speed>
<course>238.6</course>
<desc>Speed 14.9 km/h Distance 53.46 km</desc>
<time>2010-06-13T10:36:36.46</time>
<name>13853</name>
</trkpt>
<trkpt lat="49.157825" lon="11.751973">
<ele>523.9</ele>
<speed>15.0</speed>
<course>243.7</course>
<desc>Speed 15.0 km/h Distance 53.47 km</desc>
<time>2010-06-13T10:36:37.47</time>
<name>13854</name>
</trkpt>
<trkpt lat="49.157808" lon="11.751922">
<ele>523.7</ele>
<speed>14.8</speed>
<course>236.8</course>
<desc>Speed 14.8 km/h Distance 53.47 km</desc>
<time>2010-06-13T10:36:38.47</time>
<name>13855</name>
</trkpt>
<trkpt lat="49.157788" lon="11.751875">
<ele>523.5</ele>
<speed>14.4</speed>
<course>246.7</course>
<desc>Speed 14.4 km/h Distance 53.48 km</desc>
<time>2010-06-13T10:36:39.46</time>
<name>13856</name>
</trkpt>
<trkpt lat="49.157773" lon="11.751822">
<ele>523.2</ele>
<speed>15.6</speed>
<course>255.3</course>
<desc>Speed 15.6 km/h Distance 53.48 km</desc>
<time>2010-06-13T10:36:40.48</time>
<name>13857</name>
</trkpt>
<trkpt lat="49.157763" lon="11.751763">
<ele>523.2</ele>
<speed>15.3</speed>
<course>253.5</course>
<desc>Speed 15.3 km/h Distance 53.48 km</desc>
<time>2010-06-13T10:36:41.47</time>
<name>13858</name>
</trkpt>
<trkpt lat="49.157753" lon="11.751712">
<ele>522.9</ele>
<speed>15.2</speed>
<course>244.6</course>
<desc>Speed 15.2 km/h Distance 53.49 km</desc>
<time>2010-06-13T10:36:42.47</time>
<name>13859</name>
</trkpt>
<trkpt lat="49.157738" lon="11.751663">
<ele>522.7</ele>
<speed>15.2</speed>
<course>256.1</course>
<desc>Speed 15.2 km/h Distance 53.49 km</desc>
<time>2010-06-13T10:36:43.48</time>
<name>13860</name>
</trkpt>
<trkpt lat="49.157730" lon="11.751612">
<ele>522.2</ele>
<speed>14.9</speed>
<course>274.7</course>
<desc>Speed 14.9 km/h Distance 53.50 km</desc>
<time>2010-06-13T10:36:44.47</time>
<name>13861</name>
</trkpt>
<trkpt lat="49.157733" lon="11.751550">
<ele>521.6</ele>
<speed>14.1</speed>
<course>277.9</course>
<desc>Speed 14.1 km/h Distance 53.50 km</desc>
<time>2010-06-13T10:36:45.49</time>
<name>13862</name>
</trkpt>
<trkpt lat="49.157738" lon="11.751495">
<ele>520.7</ele>
<speed>13.7</speed>
<course>270.0</course>
<desc>Speed 13.7 km/h Distance 53.50 km</desc>
<time>2010-06-13T10:36:46.47</time>
<name>13863</name>
</trkpt>
<trkpt lat="49.157738" lon="11.751447">
<ele>519.4</ele>
<speed>13.4</speed>
<course>249.7</course>
<desc>Speed 13.4 km/h Distance 53.51 km</desc>
<time>2010-06-13T10:36:47.47</time>
<name>13864</name>
</trkpt>
<trkpt lat="49.157727" lon="11.751398">
<ele>518.7</ele>
<speed>14.4</speed>
<course>249.1</course>
<desc>Speed 14.4 km/h Distance 53.51 km</desc>
<time>2010-06-13T10:36:48.47</time>
<name>13865</name>
</trkpt>
<trkpt lat="49.157713" lon="11.751345">
<ele>518.4</ele>
<speed>14.4</speed>
<course>240.2</course>
<desc>Speed 14.4 km/h Distance 53.52 km</desc>
<time>2010-06-13T10:36:49.46</time>
<name>13866</name>
</trkpt>
<trkpt lat="49.157693" lon="11.751292">
<ele>518.5</ele>
<speed>14.7</speed>
<course>240.5</course>
<desc>Speed 14.7 km/h Distance 53.52 km</desc>
<time>2010-06-13T10:36:50.47</time>
<name>13867</name>
</trkpt>
<trkpt lat="49.157677" lon="11.751247">
<ele>517.7</ele>
<speed>15.5</speed>
<course>255.7</course>
<desc>Speed 15.5 km/h Distance 53.52 km</desc>
<time>2010-06-13T10:36:51.47</time>
<name>13868</name>
</trkpt>
<trkpt lat="49.157668" lon="11.751197">
<ele>516.5</ele>
<speed>15.9</speed>
<course>253.9</course>
<desc>Speed 15.9 km/h Distance 53.53 km</desc>
<time>2010-06-13T10:36:52.48</time>
<name>13869</name>
</trkpt>
<trkpt lat="49.157657" lon="11.751135">
<ele>516.4</ele>
<speed>15.9</speed>
<course>244.2</course>
<desc>Speed 15.9 km/h Distance 53.53 km</desc>
<time>2010-06-13T10:36:53.47</time>
<name>13870</name>
</trkpt>
<trkpt lat="49.157637" lon="11.751072">
<ele>517.0</ele>
<speed>15.7</speed>
<course>245.8</course>
<desc>Speed 15.7 km/h Distance 53.54 km</desc>
<time>2010-06-13T10:36:54.46</time>
<name>13871</name>
</trkpt>
<trkpt lat="49.157620" lon="11.751015">
<ele>517.5</ele>
<speed>14.9</speed>
<course>235.8</course>
<desc>Speed 14.9 km/h Distance 53.54 km</desc>
<time>2010-06-13T10:36:55.47</time>
<name>13872</name>
</trkpt>
<trkpt lat="49.157600" lon="11.750970">
<ele>517.2</ele>
<speed>13.8</speed>
<course>234.6</course>
<desc>Speed 13.8 km/h Distance 53.55 km</desc>
<time>2010-06-13T10:36:56.47</time>
<name>13873</name>
</trkpt>
<trkpt lat="49.157578" lon="11.750923">
<ele>517.7</ele>
<speed>13.4</speed>
<course>235.8</course>
<desc>Speed 13.4 km/h Distance 53.55 km</desc>
<time>2010-06-13T10:36:57.47</time>
<name>13874</name>
</trkpt>
<trkpt lat="49.157558" lon="11.750878">
<ele>517.5</ele>
<speed>13.4</speed>
<course>247.8</course>
<desc>Speed 13.4 km/h Distance 53.55 km</desc>
<time>2010-06-13T10:36:58.47</time>
<name>13875</name>
</trkpt>
<trkpt lat="49.157545" lon="11.750828">
<ele>517.5</ele>
<speed>13.4</speed>
<course>247.4</course>
<desc>Speed 13.4 km/h Distance 53.56 km</desc>
<time>2010-06-13T10:36:59.47</time>
<name>13876</name>
</trkpt>
<trkpt lat="49.157530" lon="11.750773">
<ele>518.0</ele>
<speed>15.0</speed>
<course>244.5</course>
<desc>Speed 15.0 km/h Distance 53.56 km</desc>
<time>2010-06-13T10:37:00.48</time>
<name>13877</name>
</trkpt>
<trkpt lat="49.157513" lon="11.750720">
<ele>518.0</ele>
<speed>15.5</speed>
<course>243.6</course>
<desc>Speed 15.5 km/h Distance 53.57 km</desc>
<time>2010-06-13T10:37:01.47</time>
<name>13878</name>
</trkpt>
<trkpt lat="49.157493" lon="11.750658">
<ele>518.6</ele>
<speed>15.3</speed>
<course>244.8</course>
<desc>Speed 15.3 km/h Distance 53.57 km</desc>
<time>2010-06-13T10:37:02.48</time>
<name>13879</name>
</trkpt>
<trkpt lat="49.157473" lon="11.750593">
<ele>519.4</ele>
<speed>15.3</speed>
<course>234.3</course>
<desc>Speed 15.3 km/h Distance 53.58 km</desc>
<time>2010-06-13T10:37:03.47</time>
<name>13880</name>
</trkpt>
<trkpt lat="49.157447" lon="11.750537">
<ele>520.2</ele>
<speed>15.3</speed>
<course>238.9</course>
<desc>Speed 15.3 km/h Distance 53.58 km</desc>
<time>2010-06-13T10:37:04.48</time>
<name>13881</name>
</trkpt>
<trkpt lat="49.157425" lon="11.750482">
<ele>520.5</ele>
<speed>15.1</speed>
<course>240.4</course>
<desc>Speed 15.1 km/h Distance 53.59 km</desc>
<time>2010-06-13T10:37:05.47</time>
<name>13882</name>
</trkpt>
<trkpt lat="49.157403" lon="11.750423">
<ele>520.9</ele>
<speed>15.8</speed>
<course>244.3</course>
<desc>Speed 15.8 km/h Distance 53.59 km</desc>
<time>2010-06-13T10:37:06.47</time>
<name>13883</name>
</trkpt>
<trkpt lat="49.157385" lon="11.750365">
<ele>521.5</ele>
<speed>16.4</speed>
<course>250.2</course>
<desc>Speed 16.4 km/h Distance 53.60 km</desc>
<time>2010-06-13T10:37:07.46</time>
<name>13884</name>
</trkpt>
<trkpt lat="49.157372" lon="11.750308">
<ele>521.8</ele>
<speed>15.6</speed>
<course>251.2</course>
<desc>Speed 15.6 km/h Distance 53.60 km</desc>
<time>2010-06-13T10:37:08.48</time>
<name>13885</name>
</trkpt>
<trkpt lat="49.157358" lon="11.750248">
<ele>521.8</ele>
<speed>16.3</speed>
<course>245.8</course>
<desc>Speed 16.3 km/h Distance 53.61 km</desc>
<time>2010-06-13T10:37:09.47</time>
<name>13886</name>
</trkpt>
<trkpt lat="49.157342" lon="11.750192">
<ele>522.1</ele>
<speed>16.2</speed>
<course>244.8</course>
<desc>Speed 16.2 km/h Distance 53.61 km</desc>
<time>2010-06-13T10:37:10.48</time>
<name>13887</name>
</trkpt>
<trkpt lat="49.157322" lon="11.750127">
<ele>522.7</ele>
<speed>16.5</speed>
<course>245.9</course>
<desc>Speed 16.5 km/h Distance 53.62 km</desc>
<time>2010-06-13T10:37:11.46</time>
<name>13888</name>
</trkpt>
<trkpt lat="49.157302" lon="11.750058">
<ele>522.4</ele>
<speed>16.5</speed>
<course>237.0</course>
<desc>Speed 16.5 km/h Distance 53.62 km</desc>
<time>2010-06-13T10:37:12.47</time>
<name>13889</name>
</trkpt>
<trkpt lat="49.157278" lon="11.750003">
<ele>522.7</ele>
<speed>17.1</speed>
<course>228.6</course>
<desc>Speed 17.1 km/h Distance 53.63 km</desc>
<time>2010-06-13T10:37:13.48</time>
<name>13890</name>
</trkpt>
<trkpt lat="49.157247" lon="11.749948">
<ele>523.5</ele>
<speed>17.5</speed>
<course>231.0</course>
<desc>Speed 17.5 km/h Distance 53.63 km</desc>
<time>2010-06-13T10:37:14.47</time>
<name>13891</name>
</trkpt>
<trkpt lat="49.157217" lon="11.749892">
<ele>524.4</ele>
<speed>17.0</speed>
<course>246.4</course>
<desc>Speed 17.0 km/h Distance 53.64 km</desc>
<time>2010-06-13T10:37:15.48</time>
<name>13892</name>
</trkpt>
<trkpt lat="49.157200" lon="11.749833">
<ele>524.6</ele>
<speed>16.4</speed>
<course>251.9</course>
<desc>Speed 16.4 km/h Distance 53.64 km</desc>
<time>2010-06-13T10:37:16.47</time>
<name>13893</name>
</trkpt>
<trkpt lat="49.157185" lon="11.749763">
<ele>525.4</ele>
<speed>17.2</speed>
<course>243.7</course>
<desc>Speed 17.2 km/h Distance 53.65 km</desc>
<time>2010-06-13T10:37:17.47</time>
<name>13894</name>
</trkpt>
<trkpt lat="49.157167" lon="11.749707">
<ele>525.8</ele>
<speed>16.8</speed>
<course>263.3</course>
<desc>Speed 16.8 km/h Distance 53.65 km</desc>
<time>2010-06-13T10:37:18.47</time>
<name>13895</name>
</trkpt>
<trkpt lat="49.157162" lon="11.749642">
<ele>525.7</ele>
<speed>16.7</speed>
<course>249.6</course>
<desc>Speed 16.7 km/h Distance 53.66 km</desc>
<time>2010-06-13T10:37:19.46</time>
<name>13896</name>
</trkpt>
<trkpt lat="49.157147" lon="11.749580">
<ele>525.4</ele>
<speed>16.0</speed>
<course>249.7</course>
<desc>Speed 16.0 km/h Distance 53.66 km</desc>
<time>2010-06-13T10:37:20.47</time>
<name>13897</name>
</trkpt>
<trkpt lat="49.157133" lon="11.749525">
<ele>525.7</ele>
<speed>15.4</speed>
<course>249.1</course>
<desc>Speed 15.4 km/h Distance 53.66 km</desc>
<time>2010-06-13T10:37:21.47</time>
<name>13898</name>
</trkpt>
<trkpt lat="49.157120" lon="11.749472">
<ele>525.7</ele>
<speed>14.3</speed>
<course>254.0</course>
<desc>Speed 14.3 km/h Distance 53.67 km</desc>
<time>2010-06-13T10:37:22.46</time>
<name>13899</name>
</trkpt>
<trkpt lat="49.157110" lon="11.749418">
<ele>525.9</ele>
<speed>12.9</speed>
<course>249.7</course>
<desc>Speed 12.9 km/h Distance 53.67 km</desc>
<time>2010-06-13T10:37:23.46</time>
<name>13900</name>
</trkpt>
<trkpt lat="49.157098" lon="11.749370">
<ele>526.0</ele>
<speed>12.7</speed>
<course>254.7</course>
<desc>Speed 12.7 km/h Distance 53.68 km</desc>
<time>2010-06-13T10:37:24.48</time>
<name>13901</name>
</trkpt>
<trkpt lat="49.157090" lon="11.749323">
<ele>525.8</ele>
<speed>11.7</speed>
<course>278.7</course>
<desc>Speed 11.7 km/h Distance 53.68 km</desc>
<time>2010-06-13T10:37:25.47</time>
<name>13902</name>
</trkpt>
<trkpt lat="49.157093" lon="11.749290">
<ele>524.2</ele>
<speed>12.3</speed>
<course>284.7</course>
<desc>Speed 12.3 km/h Distance 53.68 km</desc>
<time>2010-06-13T10:37:26.47</time>
<name>13903</name>
</trkpt>
<trkpt lat="49.157103" lon="11.749232">
<ele>524.4</ele>
<speed>15.0</speed>
<course>284.3</course>
<desc>Speed 15.0 km/h Distance 53.69 km</desc>
<time>2010-06-13T10:37:27.47</time>
<name>13904</name>
</trkpt>
<trkpt lat="49.157113" lon="11.749172">
<ele>524.0</ele>
<speed>15.7</speed>
<course>287.0</course>
<desc>Speed 15.7 km/h Distance 53.69 km</desc>
<time>2010-06-13T10:37:28.46</time>
<name>13905</name>
</trkpt>
<trkpt lat="49.157125" lon="11.749113">
<ele>523.9</ele>
<speed>15.5</speed>
<course>287.0</course>
<desc>Speed 15.5 km/h Distance 53.70 km</desc>
<time>2010-06-13T10:37:29.46</time>
<name>13906</name>
</trkpt>
<trkpt lat="49.157137" lon="11.749055">
<ele>523.6</ele>
<speed>15.4</speed>
<course>288.5</course>
<desc>Speed 15.4 km/h Distance 53.70 km</desc>
<time>2010-06-13T10:37:30.47</time>
<name>13907</name>
</trkpt>
<trkpt lat="49.157148" lon="11.749002">
<ele>522.9</ele>
<speed>14.8</speed>
<course>288.0</course>
<desc>Speed 14.8 km/h Distance 53.70 km</desc>
<time>2010-06-13T10:37:31.46</time>
<name>13908</name>
</trkpt>
<trkpt lat="49.157160" lon="11.748947">
<ele>522.7</ele>
<speed>14.2</speed>
<course>284.7</course>
<desc>Speed 14.2 km/h Distance 53.71 km</desc>
<time>2010-06-13T10:37:32.47</time>
<name>13909</name>
</trkpt>
<trkpt lat="49.157170" lon="11.748888">
<ele>522.9</ele>
<speed>14.4</speed>
<course>276.4</course>
<desc>Speed 14.4 km/h Distance 53.71 km</desc>
<time>2010-06-13T10:37:33.47</time>
<name>13910</name>
</trkpt>
<trkpt lat="49.157175" lon="11.748820">
<ele>522.9</ele>
<speed>14.4</speed>
<course>284.7</course>
<desc>Speed 14.4 km/h Distance 53.72 km</desc>
<time>2010-06-13T10:37:34.48</time>
<name>13911</name>
</trkpt>
<trkpt lat="49.157185" lon="11.748762">
<ele>523.2</ele>
<speed>14.7</speed>
<course>291.6</course>
<desc>Speed 14.7 km/h Distance 53.72 km</desc>
<time>2010-06-13T10:37:35.48</time>
<name>13912</name>
</trkpt>
<trkpt lat="49.157197" lon="11.748717">
<ele>522.8</ele>
<speed>12.4</speed>
<course>282.3</course>
<desc>Speed 12.4 km/h Distance 53.73 km</desc>
<time>2010-06-13T10:37:36.46</time>
<name>13913</name>
</trkpt>
<trkpt lat="49.157203" lon="11.748670">
<ele>523.1</ele>
<speed>12.5</speed>
<course>292.4</course>
<desc>Speed 12.5 km/h Distance 53.73 km</desc>
<time>2010-06-13T10:37:37.48</time>
<name>13914</name>
</trkpt>
<trkpt lat="49.157215" lon="11.748627">
<ele>522.3</ele>
<speed>13.6</speed>
<course>287.6</course>
<desc>Speed 13.6 km/h Distance 53.73 km</desc>
<time>2010-06-13T10:37:38.46</time>
<name>13915</name>
</trkpt>
<trkpt lat="49.157225" lon="11.748578">
<ele>522.4</ele>
<speed>14.0</speed>
<course>290.9</course>
<desc>Speed 14.0 km/h Distance 53.74 km</desc>
<time>2010-06-13T10:37:39.47</time>
<name>13916</name>
</trkpt>
<trkpt lat="49.157237" lon="11.748532">
<ele>521.4</ele>
<speed>13.6</speed>
<course>289.1</course>
<desc>Speed 13.6 km/h Distance 53.74 km</desc>
<time>2010-06-13T10:37:40.46</time>
<name>13917</name>
</trkpt>
<trkpt lat="49.157248" lon="11.748480">
<ele>521.1</ele>
<speed>14.8</speed>
<course>286.0</course>
<desc>Speed 14.8 km/h Distance 53.74 km</desc>
<time>2010-06-13T10:37:41.47</time>
<name>13918</name>
</trkpt>
<trkpt lat="49.157258" lon="11.748427">
<ele>521.1</ele>
<speed>15.0</speed>
<course>260.1</course>
<desc>Speed 15.0 km/h Distance 53.75 km</desc>
<time>2010-06-13T10:37:42.46</time>
<name>13919</name>
</trkpt>
<trkpt lat="49.157252" lon="11.748368">
<ele>520.5</ele>
<speed>15.0</speed>
<course>233.7</course>
<desc>Speed 15.0 km/h Distance 53.75 km</desc>
<time>2010-06-13T10:37:43.46</time>
<name>13920</name>
</trkpt>
<trkpt lat="49.157232" lon="11.748327">
<ele>520.0</ele>
<speed>14.3</speed>
<course>206.8</course>
<desc>Speed 14.3 km/h Distance 53.76 km</desc>
<time>2010-06-13T10:37:44.47</time>
<name>13921</name>
</trkpt>
<trkpt lat="49.157195" lon="11.748298">
<ele>519.5</ele>
<speed>14.9</speed>
<course>190.3</course>
<desc>Speed 14.9 km/h Distance 53.76 km</desc>
<time>2010-06-13T10:37:45.47</time>
<name>13922</name>
</trkpt>
<trkpt lat="49.157153" lon="11.748287">
<ele>519.3</ele>
<speed>15.8</speed>
<course>181.5</course>
<desc>Speed 15.8 km/h Distance 53.77 km</desc>
<time>2010-06-13T10:37:46.47</time>
<name>13923</name>
</trkpt>
<trkpt lat="49.157108" lon="11.748285">
<ele>519.1</ele>
<speed>17.1</speed>
<course>179.4</course>
<desc>Speed 17.1 km/h Distance 53.77 km</desc>
<time>2010-06-13T10:37:47.46</time>
<name>13924</name>
</trkpt>
<trkpt lat="49.157062" lon="11.748285">
<ele>519.2</ele>
<speed>17.6</speed>
<course>177.4</course>
<desc>Speed 17.6 km/h Distance 53.78 km</desc>
<time>2010-06-13T10:37:48.48</time>
<name>13925</name>
</trkpt>
<trkpt lat="49.157015" lon="11.748288">
<ele>519.3</ele>
<speed>17.8</speed>
<course>175.1</course>
<desc>Speed 17.8 km/h Distance 53.78 km</desc>
<time>2010-06-13T10:37:49.46</time>
<name>13926</name>
</trkpt>
<trkpt lat="49.156965" lon="11.748295">
<ele>519.4</ele>
<speed>19.2</speed>
<course>167.8</course>
<desc>Speed 19.2 km/h Distance 53.79 km</desc>
<time>2010-06-13T10:37:50.46</time>
<name>13927</name>
</trkpt>
<trkpt lat="49.156920" lon="11.748310">
<ele>518.9</ele>
<speed>18.9</speed>
<course>161.3</course>
<desc>Speed 18.9 km/h Distance 53.79 km</desc>
<time>2010-06-13T10:37:51.48</time>
<name>13928</name>
</trkpt>
<trkpt lat="49.156875" lon="11.748333">
<ele>519.3</ele>
<speed>19.3</speed>
<course>138.9</course>
<desc>Speed 19.3 km/h Distance 53.80 km</desc>
<time>2010-06-13T10:37:52.47</time>
<name>13929</name>
</trkpt>
<trkpt lat="49.156845" lon="11.748373">
<ele>518.1</ele>
<speed>17.4</speed>
<course>146.8</course>
<desc>Speed 17.4 km/h Distance 53.80 km</desc>
<time>2010-06-13T10:37:53.47</time>
<name>13930</name>
</trkpt>
<trkpt lat="49.156810" lon="11.748408">
<ele>518.4</ele>
<speed>16.1</speed>
<course>118.8</course>
<desc>Speed 16.1 km/h Distance 53.81 km</desc>
<time>2010-06-13T10:37:54.46</time>
<name>13931</name>
</trkpt>
<trkpt lat="49.156795" lon="11.748450">
<ele>518.2</ele>
<speed>14.4</speed>
<course>127.4</course>
<desc>Speed 14.4 km/h Distance 53.81 km</desc>
<time>2010-06-13T10:37:55.47</time>
<name>13932</name>
</trkpt>
<trkpt lat="49.156772" lon="11.748497">
<ele>518.0</ele>
<speed>16.8</speed>
<course>133.1</course>
<desc>Speed 16.8 km/h Distance 53.81 km</desc>
<time>2010-06-13T10:37:56.47</time>
<name>13933</name>
</trkpt>
<trkpt lat="49.156740" lon="11.748548">
<ele>517.9</ele>
<speed>18.5</speed>
<course>137.1</course>
<desc>Speed 18.5 km/h Distance 53.82 km</desc>
<time>2010-06-13T10:37:57.46</time>
<name>13934</name>
</trkpt>
<trkpt lat="49.156645" lon="11.748683">
<ele>518.4</ele>
<speed>20.0</speed>
<course>134.3</course>
<desc>Speed 20.0 km/h Distance 53.83 km</desc>
<time>2010-06-13T10:37:59.46</time>
<name>13935</name>
</trkpt>
<trkpt lat="49.156607" lon="11.748743">
<ele>518.3</ele>
<speed>18.9</speed>
<course>132.8</course>
<desc>Speed 18.9 km/h Distance 53.84 km</desc>
<time>2010-06-13T10:38:00.48</time>
<name>13936</name>
</trkpt>
<trkpt lat="49.156568" lon="11.748807">
<ele>518.4</ele>
<speed>19.8</speed>
<course>132.5</course>
<desc>Speed 19.8 km/h Distance 53.85 km</desc>
<time>2010-06-13T10:38:01.46</time>
<name>13937</name>
</trkpt>
<trkpt lat="49.156538" lon="11.748857">
<ele>518.3</ele>
<speed>18.1</speed>
<course>136.6</course>
<desc>Speed 18.1 km/h Distance 53.85 km</desc>
<time>2010-06-13T10:38:02.48</time>
<name>13938</name>
</trkpt>
<trkpt lat="49.156508" lon="11.748900">
<ele>517.6</ele>
<speed>16.4</speed>
<course>138.5</course>
<desc>Speed 16.4 km/h Distance 53.86 km</desc>
<time>2010-06-13T10:38:03.46</time>
<name>13939</name>
</trkpt>
<trkpt lat="49.156480" lon="11.748938">
<ele>517.5</ele>
<speed>15.2</speed>
<course>144.5</course>
<desc>Speed 15.2 km/h Distance 53.86 km</desc>
<time>2010-06-13T10:38:04.46</time>
<name>13940</name>
</trkpt>
<trkpt lat="49.156443" lon="11.748978">
<ele>517.4</ele>
<speed>16.8</speed>
<course>149.0</course>
<desc>Speed 16.8 km/h Distance 53.86 km</desc>
<time>2010-06-13T10:38:05.46</time>
<name>13941</name>
</trkpt>
<trkpt lat="49.156402" lon="11.749017">
<ele>517.6</ele>
<speed>19.1</speed>
<course>147.9</course>
<desc>Speed 19.1 km/h Distance 53.87 km</desc>
<time>2010-06-13T10:38:06.46</time>
<name>13942</name>
</trkpt>
<trkpt lat="49.156362" lon="11.749055">
<ele>517.6</ele>
<speed>18.7</speed>
<course>151.9</course>
<desc>Speed 18.7 km/h Distance 53.88 km</desc>
<time>2010-06-13T10:38:07.46</time>
<name>13943</name>
</trkpt>
<trkpt lat="49.156317" lon="11.749092">
<ele>517.7</ele>
<speed>18.5</speed>
<course>154.8</course>
<desc>Speed 18.5 km/h Distance 53.88 km</desc>
<time>2010-06-13T10:38:08.47</time>
<name>13944</name>
</trkpt>
<trkpt lat="49.156275" lon="11.749122">
<ele>517.7</ele>
<speed>18.2</speed>
<course>157.0</course>
<desc>Speed 18.2 km/h Distance 53.89 km</desc>
<time>2010-06-13T10:38:09.48</time>
<name>13945</name>
</trkpt>
<trkpt lat="49.156242" lon="11.749143">
<ele>517.2</ele>
<speed>17.4</speed>
<course>158.6</course>
<desc>Speed 17.4 km/h Distance 53.89 km</desc>
<time>2010-06-13T10:38:10.46</time>
<name>13946</name>
</trkpt>
<trkpt lat="49.156200" lon="11.749168">
<ele>516.8</ele>
<speed>18.1</speed>
<course>158.0</course>
<desc>Speed 18.1 km/h Distance 53.90 km</desc>
<time>2010-06-13T10:38:11.46</time>
<name>13947</name>
</trkpt>
<trkpt lat="49.156165" lon="11.749190">
<ele>516.1</ele>
<speed>17.5</speed>
<course>162.6</course>
<desc>Speed 17.5 km/h Distance 53.90 km</desc>
<time>2010-06-13T10:38:12.47</time>
<name>13948</name>
</trkpt>
<trkpt lat="49.156123" lon="11.749210">
<ele>516.0</ele>
<speed>17.6</speed>
<course>161.2</course>
<desc>Speed 17.6 km/h Distance 53.90 km</desc>
<time>2010-06-13T10:38:13.46</time>
<name>13949</name>
</trkpt>
<trkpt lat="49.156082" lon="11.749232">
<ele>515.9</ele>
<speed>16.9</speed>
<course>160.1</course>
<desc>Speed 16.9 km/h Distance 53.91 km</desc>
<time>2010-06-13T10:38:14.46</time>
<name>13950</name>
</trkpt>
<trkpt lat="49.156037" lon="11.749257">
<ele>516.3</ele>
<speed>16.0</speed>
<course>158.1</course>
<desc>Speed 16.0 km/h Distance 53.91 km</desc>
<time>2010-06-13T10:38:15.47</time>
<name>13951</name>
</trkpt>
<trkpt lat="49.155993" lon="11.749283">
<ele>516.6</ele>
<speed>16.5</speed>
<course>159.7</course>
<desc>Speed 16.5 km/h Distance 53.92 km</desc>
<time>2010-06-13T10:38:16.46</time>
<name>13952</name>
</trkpt>
<trkpt lat="49.155955" lon="11.749305">
<ele>516.8</ele>
<speed>15.3</speed>
<course>161.2</course>
<desc>Speed 15.3 km/h Distance 53.92 km</desc>
<time>2010-06-13T10:38:17.48</time>
<name>13953</name>
</trkpt>
<trkpt lat="49.155917" lon="11.749325">
<ele>517.0</ele>
<speed>15.2</speed>
<course>161.9</course>
<desc>Speed 15.2 km/h Distance 53.93 km</desc>
<time>2010-06-13T10:38:18.47</time>
<name>13954</name>
</trkpt>
<trkpt lat="49.155883" lon="11.749342">
<ele>517.0</ele>
<speed>14.4</speed>
<course>163.7</course>
<desc>Speed 14.4 km/h Distance 53.93 km</desc>
<time>2010-06-13T10:38:19.47</time>
<name>13955</name>
</trkpt>
<trkpt lat="49.155853" lon="11.749355">
<ele>517.0</ele>
<speed>14.1</speed>
<course>165.0</course>
<desc>Speed 14.1 km/h Distance 53.94 km</desc>
<time>2010-06-13T10:38:20.46</time>
<name>13956</name>
</trkpt>
<trkpt lat="49.155817" lon="11.749370">
<ele>517.4</ele>
<speed>14.8</speed>
<course>167.7</course>
<desc>Speed 14.8 km/h Distance 53.94 km</desc>
<time>2010-06-13T10:38:21.47</time>
<name>13957</name>
</trkpt>
<trkpt lat="49.155787" lon="11.749380">
<ele>517.8</ele>
<speed>12.7</speed>
<course>168.9</course>
<desc>Speed 12.7 km/h Distance 53.94 km</desc>
<time>2010-06-13T10:38:22.47</time>
<name>13958</name>
</trkpt>
<trkpt lat="49.155753" lon="11.749390">
<ele>517.6</ele>
<speed>14.9</speed>
<course>162.7</course>
<desc>Speed 14.9 km/h Distance 53.95 km</desc>
<time>2010-06-13T10:38:23.48</time>
<name>13959</name>
</trkpt>
<trkpt lat="49.155718" lon="11.749407">
<ele>517.7</ele>
<speed>15.0</speed>
<course>164.4</course>
<desc>Speed 15.0 km/h Distance 53.95 km</desc>
<time>2010-06-13T10:38:24.46</time>
<name>13960</name>
</trkpt>
<trkpt lat="49.155683" lon="11.749422">
<ele>517.6</ele>
<speed>15.2</speed>
<course>161.1</course>
<desc>Speed 15.2 km/h Distance 53.96 km</desc>
<time>2010-06-13T10:38:25.46</time>
<name>13961</name>
</trkpt>
<trkpt lat="49.155648" lon="11.749440">
<ele>517.3</ele>
<speed>14.4</speed>
<course>171.6</course>
<desc>Speed 14.4 km/h Distance 53.96 km</desc>
<time>2010-06-13T10:38:26.46</time>
<name>13962</name>
</trkpt>
<trkpt lat="49.155612" lon="11.749448">
<ele>517.9</ele>
<speed>14.9</speed>
<course>167.2</course>
<desc>Speed 14.9 km/h Distance 53.96 km</desc>
<time>2010-06-13T10:38:27.47</time>
<name>13963</name>
</trkpt>
<trkpt lat="49.155568" lon="11.749463">
<ele>517.8</ele>
<speed>17.2</speed>
<course>172.2</course>
<desc>Speed 17.2 km/h Distance 53.97 km</desc>
<time>2010-06-13T10:38:28.47</time>
<name>13964</name>
</trkpt>
<trkpt lat="49.155528" lon="11.749472">
<ele>518.4</ele>
<speed>15.1</speed>
<course>171.6</course>
<desc>Speed 15.1 km/h Distance 53.97 km</desc>
<time>2010-06-13T10:38:29.46</time>
<name>13965</name>
</trkpt>
<trkpt lat="49.155492" lon="11.749480">
<ele>518.1</ele>
<speed>15.4</speed>
<course>172.0</course>
<desc>Speed 15.4 km/h Distance 53.98 km</desc>
<time>2010-06-13T10:38:30.47</time>
<name>13966</name>
</trkpt>
<trkpt lat="49.155453" lon="11.749488">
<ele>517.9</ele>
<speed>15.9</speed>
<course>173.8</course>
<desc>Speed 15.9 km/h Distance 53.98 km</desc>
<time>2010-06-13T10:38:31.48</time>
<name>13967</name>
</trkpt>
<trkpt lat="49.155413" lon="11.749495">
<ele>517.7</ele>
<speed>16.3</speed>
<course>172.6</course>
<desc>Speed 16.3 km/h Distance 53.99 km</desc>
<time>2010-06-13T10:38:32.48</time>
<name>13968</name>
</trkpt>
<trkpt lat="49.155372" lon="11.749503">
<ele>517.4</ele>
<speed>17.3</speed>
<course>175.9</course>
<desc>Speed 17.3 km/h Distance 53.99 km</desc>
<time>2010-06-13T10:38:33.46</time>
<name>13969</name>
</trkpt>
<trkpt lat="49.155325" lon="11.749508">
<ele>517.5</ele>
<speed>18.4</speed>
<course>173.4</course>
<desc>Speed 18.4 km/h Distance 54.00 km</desc>
<time>2010-06-13T10:38:34.46</time>
<name>13970</name>
</trkpt>
<trkpt lat="49.155278" lon="11.749517">
<ele>517.3</ele>
<speed>18.5</speed>
<course>170.7</course>
<desc>Speed 18.5 km/h Distance 54.00 km</desc>
<time>2010-06-13T10:38:35.47</time>
<name>13971</name>
</trkpt>
<trkpt lat="49.155232" lon="11.749528">
<ele>517.1</ele>
<speed>18.6</speed>
<course>176.5</course>
<desc>Speed 18.6 km/h Distance 54.01 km</desc>
<time>2010-06-13T10:38:36.46</time>
<name>13972</name>
</trkpt>
<trkpt lat="49.155180" lon="11.749533">
<ele>516.9</ele>
<speed>20.0</speed>
<course>175.4</course>
<desc>Speed 20.0 km/h Distance 54.01 km</desc>
<time>2010-06-13T10:38:37.46</time>
<name>13973</name>
</trkpt>
<trkpt lat="49.155127" lon="11.749540">
<ele>516.6</ele>
<speed>20.6</speed>
<course>176.6</course>
<desc>Speed 20.6 km/h Distance 54.02 km</desc>
<time>2010-06-13T10:38:38.46</time>
<name>13974</name>
</trkpt>
<trkpt lat="49.155073" lon="11.749545">
<ele>516.6</ele>
<speed>20.5</speed>
<course>177.4</course>
<desc>Speed 20.5 km/h Distance 54.02 km</desc>
<time>2010-06-13T10:38:39.46</time>
<name>13975</name>
</trkpt>
<trkpt lat="49.155020" lon="11.749548">
<ele>516.8</ele>
<speed>20.9</speed>
<course>174.2</course>
<desc>Speed 20.9 km/h Distance 54.03 km</desc>
<time>2010-06-13T10:38:40.46</time>
<name>13976</name>
</trkpt>
<trkpt lat="49.154965" lon="11.749557">
<ele>516.8</ele>
<speed>20.9</speed>
<course>169.9</course>
<desc>Speed 20.9 km/h Distance 54.04 km</desc>
<time>2010-06-13T10:38:41.46</time>
<name>13977</name>
</trkpt>
<trkpt lat="49.154910" lon="11.749572">
<ele>516.7</ele>
<speed>18.3</speed>
<course>174.3</course>
<desc>Speed 18.3 km/h Distance 54.04 km</desc>
<time>2010-06-13T10:38:42.47</time>
<name>13978</name>
</trkpt>
<trkpt lat="49.154867" lon="11.749578">
<ele>516.8</ele>
<speed>15.3</speed>
<course>180.0</course>
<desc>Speed 15.3 km/h Distance 54.05 km</desc>
<time>2010-06-13T10:38:43.46</time>
<name>13979</name>
</trkpt>
<trkpt lat="49.154825" lon="11.749578">
<ele>516.9</ele>
<speed>13.6</speed>
<course>188.8</course>
<desc>Speed 13.6 km/h Distance 54.05 km</desc>
<time>2010-06-13T10:38:44.47</time>
<name>13980</name>
</trkpt>
<trkpt lat="49.154790" lon="11.749570">
<ele>516.7</ele>
<speed>14.4</speed>
<course>202.7</course>
<desc>Speed 14.4 km/h Distance 54.06 km</desc>
<time>2010-06-13T10:38:45.47</time>
<name>13981</name>
</trkpt>
<trkpt lat="49.154748" lon="11.749543">
<ele>517.1</ele>
<speed>16.6</speed>
<course>202.7</course>
<desc>Speed 16.6 km/h Distance 54.06 km</desc>
<time>2010-06-13T10:38:46.45</time>
<name>13982</name>
</trkpt>
<trkpt lat="49.154707" lon="11.749517">
<ele>517.1</ele>
<speed>17.8</speed>
<course>200.5</course>
<desc>Speed 17.8 km/h Distance 54.07 km</desc>
<time>2010-06-13T10:38:47.46</time>
<name>13983</name>
</trkpt>
<trkpt lat="49.154660" lon="11.749490">
<ele>516.8</ele>
<speed>18.6</speed>
<course>196.9</course>
<desc>Speed 18.6 km/h Distance 54.07 km</desc>
<time>2010-06-13T10:38:48.45</time>
<name>13984</name>
</trkpt>
<trkpt lat="49.154613" lon="11.749468">
<ele>517.0</ele>
<speed>18.8</speed>
<course>191.1</course>
<desc>Speed 18.8 km/h Distance 54.08 km</desc>
<time>2010-06-13T10:38:49.47</time>
<name>13985</name>
</trkpt>
<trkpt lat="49.154563" lon="11.749453">
<ele>517.0</ele>
<speed>19.4</speed>
<course>186.2</course>
<desc>Speed 19.4 km/h Distance 54.08 km</desc>
<time>2010-06-13T10:38:50.46</time>
<name>13986</name>
</trkpt>
<trkpt lat="49.154513" lon="11.749445">
<ele>516.7</ele>
<speed>20.6</speed>
<course>179.1</course>
<desc>Speed 20.6 km/h Distance 54.09 km</desc>
<time>2010-06-13T10:38:51.47</time>
<name>13987</name>
</trkpt>
<trkpt lat="49.154458" lon="11.749447">
<ele>516.7</ele>
<speed>21.3</speed>
<course>175.5</course>
<desc>Speed 21.3 km/h Distance 54.09 km</desc>
<time>2010-06-13T10:38:52.47</time>
<name>13988</name>
</trkpt>
<trkpt lat="49.154403" lon="11.749453">
<ele>515.7</ele>
<speed>21.1</speed>
<course>176.9</course>
<desc>Speed 21.1 km/h Distance 54.10 km</desc>
<time>2010-06-13T10:38:53.48</time>
<name>13989</name>
</trkpt>
<trkpt lat="49.154347" lon="11.749458">
<ele>515.6</ele>
<speed>21.7</speed>
<course>184.6</course>
<desc>Speed 21.7 km/h Distance 54.11 km</desc>
<time>2010-06-13T10:38:54.46</time>
<name>13990</name>
</trkpt>
<trkpt lat="49.154293" lon="11.749452">
<ele>516.6</ele>
<speed>21.7</speed>
<course>178.9</course>
<desc>Speed 21.7 km/h Distance 54.11 km</desc>
<time>2010-06-13T10:38:55.46</time>
<name>13991</name>
</trkpt>
<trkpt lat="49.154235" lon="11.749453">
<ele>516.9</ele>
<speed>22.3</speed>
<course>179.8</course>
<desc>Speed 22.3 km/h Distance 54.12 km</desc>
<time>2010-06-13T10:38:56.47</time>
<name>13992</name>
</trkpt>
<trkpt lat="49.154173" lon="11.749453">
<ele>518.2</ele>
<speed>22.9</speed>
<course>174.6</course>
<desc>Speed 22.9 km/h Distance 54.13 km</desc>
<time>2010-06-13T10:38:57.46</time>
<name>13993</name>
</trkpt>
<trkpt lat="49.154115" lon="11.749462">
<ele>518.9</ele>
<speed>22.8</speed>
<course>183.3</course>
<desc>Speed 22.8 km/h Distance 54.13 km</desc>
<time>2010-06-13T10:38:58.46</time>
<name>13994</name>
</trkpt>
<trkpt lat="49.154058" lon="11.749457">
<ele>519.4</ele>
<speed>22.8</speed>
<course>185.7</course>
<desc>Speed 22.8 km/h Distance 54.14 km</desc>
<time>2010-06-13T10:38:59.46</time>
<name>13995</name>
</trkpt>
<trkpt lat="49.154003" lon="11.749448">
<ele>518.7</ele>
<speed>22.2</speed>
<course>179.8</course>
<desc>Speed 22.2 km/h Distance 54.15 km</desc>
<time>2010-06-13T10:39:00.45</time>
<name>13996</name>
</trkpt>
<trkpt lat="49.153948" lon="11.749448">
<ele>519.2</ele>
<speed>20.2</speed>
<course>163.8</course>
<desc>Speed 20.2 km/h Distance 54.15 km</desc>
<time>2010-06-13T10:39:01.47</time>
<name>13997</name>
</trkpt>
<trkpt lat="49.153903" lon="11.749468">
<ele>518.3</ele>
<speed>18.0</speed>
<course>141.6</course>
<desc>Speed 18.0 km/h Distance 54.16 km</desc>
<time>2010-06-13T10:39:02.47</time>
<name>13998</name>
</trkpt>
<trkpt lat="49.153872" lon="11.749507">
<ele>517.8</ele>
<speed>15.5</speed>
<course>118.6</course>
<desc>Speed 15.5 km/h Distance 54.16 km</desc>
<time>2010-06-13T10:39:03.47</time>
<name>13999</name>
</trkpt>
<trkpt lat="49.153855" lon="11.749553">
<ele>518.3</ele>
<speed>13.5</speed>
<course>83.6</course>
<desc>Speed 13.5 km/h Distance 54.17 km</desc>
<time>2010-06-13T10:39:04.46</time>
<name>14000</name>
</trkpt>
<trkpt lat="49.153860" lon="11.749622">
<ele>518.0</ele>
<speed>17.2</speed>
<course>81.5</course>
<desc>Speed 17.2 km/h Distance 54.17 km</desc>
<time>2010-06-13T10:39:05.45</time>
<name>14001</name>
</trkpt>
<trkpt lat="49.153868" lon="11.749707">
<ele>517.7</ele>
<speed>21.9</speed>
<course>77.7</course>
<desc>Speed 21.9 km/h Distance 54.18 km</desc>
<time>2010-06-13T10:39:06.46</time>
<name>14002</name>
</trkpt>
<trkpt lat="49.153882" lon="11.749800">
<ele>517.1</ele>
<speed>22.6</speed>
<course>80.5</course>
<desc>Speed 22.6 km/h Distance 54.18 km</desc>
<time>2010-06-13T10:39:07.46</time>
<name>14003</name>
</trkpt>
<trkpt lat="49.153892" lon="11.749892">
<ele>516.9</ele>
<speed>22.9</speed>
<course>91.4</course>
<desc>Speed 22.9 km/h Distance 54.19 km</desc>
<time>2010-06-13T10:39:08.46</time>
<name>14004</name>
</trkpt>
<trkpt lat="49.153890" lon="11.749995">
<ele>517.7</ele>
<speed>23.1</speed>
<course>90.0</course>
<desc>Speed 23.1 km/h Distance 54.20 km</desc>
<time>2010-06-13T10:39:09.47</time>
<name>14005</name>
</trkpt>
<trkpt lat="49.153890" lon="11.750095">
<ele>518.3</ele>
<speed>22.7</speed>
<course>85.1</course>
<desc>Speed 22.7 km/h Distance 54.20 km</desc>
<time>2010-06-13T10:39:10.47</time>
<name>14006</name>
</trkpt>
<trkpt lat="49.153895" lon="11.750185">
<ele>518.8</ele>
<speed>22.8</speed>
<course>80.4</course>
<desc>Speed 22.8 km/h Distance 54.21 km</desc>
<time>2010-06-13T10:39:11.46</time>
<name>14007</name>
</trkpt>
<trkpt lat="49.153905" lon="11.750275">
<ele>519.0</ele>
<speed>22.9</speed>
<course>81.6</course>
<desc>Speed 22.9 km/h Distance 54.22 km</desc>
<time>2010-06-13T10:39:12.46</time>
<name>14008</name>
</trkpt>
<trkpt lat="49.153913" lon="11.750362">
<ele>519.0</ele>
<speed>22.3</speed>
<course>79.6</course>
<desc>Speed 22.3 km/h Distance 54.22 km</desc>
<time>2010-06-13T10:39:13.47</time>
<name>14009</name>
</trkpt>
<trkpt lat="49.153923" lon="11.750445">
<ele>519.2</ele>
<speed>21.8</speed>
<course>79.4</course>
<desc>Speed 21.8 km/h Distance 54.23 km</desc>
<time>2010-06-13T10:39:14.45</time>
<name>14010</name>
</trkpt>
<trkpt lat="49.153933" lon="11.750527">
<ele>519.2</ele>
<speed>22.0</speed>
<course>83.0</course>
<desc>Speed 22.0 km/h Distance 54.24 km</desc>
<time>2010-06-13T10:39:15.47</time>
<name>14011</name>
</trkpt>
<trkpt lat="49.153940" lon="11.750610">
<ele>519.1</ele>
<speed>21.6</speed>
<course>82.9</course>
<desc>Speed 21.6 km/h Distance 54.24 km</desc>
<time>2010-06-13T10:39:16.46</time>
<name>14012</name>
</trkpt>
<trkpt lat="49.153947" lon="11.750692">
<ele>518.8</ele>
<speed>21.9</speed>
<course>83.2</course>
<desc>Speed 21.9 km/h Distance 54.25 km</desc>
<time>2010-06-13T10:39:17.47</time>
<name>14013</name>
</trkpt>
<trkpt lat="49.153953" lon="11.750777">
<ele>518.7</ele>
<speed>21.6</speed>
<course>84.3</course>
<desc>Speed 21.6 km/h Distance 54.25 km</desc>
<time>2010-06-13T10:39:18.46</time>
<name>14014</name>
</trkpt>
<trkpt lat="49.153958" lon="11.750853">
<ele>517.7</ele>
<speed>20.6</speed>
<course>81.0</course>
<desc>Speed 20.6 km/h Distance 54.26 km</desc>
<time>2010-06-13T10:39:19.46</time>
<name>14015</name>
</trkpt>
<trkpt lat="49.153967" lon="11.750933">
<ele>517.2</ele>
<speed>20.3</speed>
<course>76.9</course>
<desc>Speed 20.3 km/h Distance 54.27 km</desc>
<time>2010-06-13T10:39:20.45</time>
<name>14016</name>
</trkpt>
<trkpt lat="49.153978" lon="11.751010">
<ele>517.4</ele>
<speed>19.6</speed>
<course>71.4</course>
<desc>Speed 19.6 km/h Distance 54.27 km</desc>
<time>2010-06-13T10:39:21.46</time>
<name>14017</name>
</trkpt>
<trkpt lat="49.153993" lon="11.751078">
<ele>517.0</ele>
<speed>18.8</speed>
<course>79.7</course>
<desc>Speed 18.8 km/h Distance 54.28 km</desc>
<time>2010-06-13T10:39:22.46</time>
<name>14018</name>
</trkpt>
<trkpt lat="49.154002" lon="11.751148">
<ele>516.6</ele>
<speed>17.4</speed>
<course>70.7</course>
<desc>Speed 17.4 km/h Distance 54.28 km</desc>
<time>2010-06-13T10:39:23.46</time>
<name>14019</name>
</trkpt>
<trkpt lat="49.154015" lon="11.751207">
<ele>516.5</ele>
<speed>15.2</speed>
<course>81.6</course>
<desc>Speed 15.2 km/h Distance 54.29 km</desc>
<time>2010-06-13T10:39:24.47</time>
<name>14020</name>
</trkpt>
<trkpt lat="49.154020" lon="11.751258">
<ele>516.8</ele>
<speed>11.1</speed>
<course>72.2</course>
<desc>Speed 11.1 km/h Distance 54.29 km</desc>
<time>2010-06-13T10:39:25.46</time>
<name>14021</name>
</trkpt>
<trkpt lat="49.154027" lon="11.751290">
<ele>517.0</ele>
<speed>7.0</speed>
<course>65.4</course>
<desc>Speed 7.0 km/h Distance 54.29 km</desc>
<time>2010-06-13T10:39:26.45</time>
<name>14022</name>
</trkpt>
<trkpt lat="49.154032" lon="11.751307">
<ele>516.8</ele>
<speed>3.9</speed>
<course>18.8</course>
<desc>Speed 3.9 km/h Distance 54.29 km</desc>
<time>2010-06-13T10:39:27.48</time>
<name>14023</name>
</trkpt>
<trkpt lat="49.154038" lon="11.751310">
<ele>516.6</ele>
<speed>1.7</speed>
<course>90.0</course>
<desc>Speed 1.7 km/h Distance 54.30 km</desc>
<time>2010-06-13T10:39:28.47</time>
<name>14024</name>
</trkpt>
<trkpt lat="49.154038" lon="11.751313">
<ele>517.0</ele>
<speed>1.1</speed>
<course>326.3</course>
<desc>Speed 1.1 km/h Distance 54.30 km</desc>
<time>2010-06-13T10:39:29.47</time>
<name>14025</name>
</trkpt>
<trkpt lat="49.154042" lon="11.751310">
<ele>516.6</ele>
<speed>0.5</speed>
<course>326.3</course>
<desc>Speed 0.5 km/h Distance 54.30 km</desc>
<time>2010-06-13T10:39:30.47</time>
<name>14026</name>
</trkpt>
<trkpt lat="49.154048" lon="11.751303">
<ele>515.7</ele>
<speed>0.8</speed>
<course>270.0</course>
<desc>Speed 0.8 km/h Distance 54.30 km</desc>
<time>2010-06-13T10:39:31.47</time>
<name>14027</name>
</trkpt>
<trkpt lat="49.154048" lon="11.751297">
<ele>515.0</ele>
<speed>1.1</speed>
<course>192.6</course>
<desc>Speed 1.1 km/h Distance 54.30 km</desc>
<time>2010-06-13T10:39:32.46</time>
<name>14028</name>
</trkpt>
<trkpt lat="49.154045" lon="11.751295">
<ele>514.8</ele>
<speed>1.2</speed>
<course>173.7</course>
<desc>Speed 1.2 km/h Distance 54.30 km</desc>
<time>2010-06-13T10:39:33.46</time>
<name>14029</name>
</trkpt>
<trkpt lat="49.154033" lon="11.751297">
<ele>515.3</ele>
<speed>1.8</speed>
<course>4.4</course>
<desc>Speed 1.8 km/h Distance 54.30 km</desc>
<time>2010-06-13T10:39:34.47</time>
<name>14030</name>
</trkpt>
<trkpt lat="49.154043" lon="11.751297">
<ele>515.9</ele>
<speed>1.2</speed>
<course>198.8</course>
<desc>Speed 1.2 km/h Distance 54.30 km</desc>
<time>2010-06-13T10:39:35.47</time>
<name>14031</name>
</trkpt>
<trkpt lat="49.154040" lon="11.751295">
<ele>516.6</ele>
<speed>2.7</speed>
<course>150.6</course>
<desc>Speed 2.7 km/h Distance 54.30 km</desc>
<time>2010-06-13T10:39:36.47</time>
<name>14032</name>
</trkpt>
<trkpt lat="49.154028" lon="11.751305">
<ele>517.2</ele>
<speed>3.8</speed>
<course>177.5</course>
<desc>Speed 3.8 km/h Distance 54.30 km</desc>
<time>2010-06-13T10:39:37.46</time>
<name>14033</name>
</trkpt>
<trkpt lat="49.154010" lon="11.751305">
<ele>517.2</ele>
<speed>4.1</speed>
<course>38.1</course>
<desc>Speed 4.1 km/h Distance 54.30 km</desc>
<time>2010-06-13T10:39:39.45</time>
<name>14034</name>
</trkpt>
<trkpt lat="49.154018" lon="11.751315">
<ele>518.0</ele>
<speed>3.5</speed>
<course>23.8</course>
<desc>Speed 3.5 km/h Distance 54.31 km</desc>
<time>2010-06-13T10:39:40.46</time>
<name>14035</name>
</trkpt>
<trkpt lat="49.154023" lon="11.751318">
<ele>518.6</ele>
<speed>0.7</speed>
<course>338.9</course>
<desc>Speed 0.7 km/h Distance 54.31 km</desc>
<time>2010-06-13T10:39:41.46</time>
<name>14036</name>
</trkpt>
<trkpt lat="49.154060" lon="11.751297">
<ele>518.2</ele>
<speed>3.2</speed>
<course>352.6</course>
<desc>Speed 3.2 km/h Distance 54.31 km</desc>
<time>2010-06-13T10:39:43.46</time>
<name>14037</name>
</trkpt>
<trkpt lat="49.154067" lon="11.751295">
<ele>519.0</ele>
<speed>2.0</speed>
<course>175.3</course>
<desc>Speed 2.0 km/h Distance 54.31 km</desc>
<time>2010-06-13T10:39:44.47</time>
<name>14038</name>
</trkpt>
<trkpt lat="49.154055" lon="11.751297">
<ele>520.3</ele>
<speed>0.6</speed>
<course>198.8</course>
<desc>Speed 0.6 km/h Distance 54.31 km</desc>
<time>2010-06-13T10:39:45.46</time>
<name>14039</name>
</trkpt>
<trkpt lat="49.154052" lon="11.751295">
<ele>520.3</ele>
<speed>0.4</speed>
<course>270.0</course>
<desc>Speed 0.4 km/h Distance 54.31 km</desc>
<time>2010-06-13T10:39:46.44</time>
<name>14040</name>
</trkpt>
<trkpt lat="49.154052" lon="11.751288">
<ele>519.5</ele>
<speed>1.3</speed>
<course>20.3</course>
<desc>Speed 1.3 km/h Distance 54.31 km</desc>
<time>2010-06-13T10:39:47.45</time>
<name>14041</name>
</trkpt>
<trkpt lat="49.154090" lon="11.751310">
<ele>522.7</ele>
<speed>1.5</speed>
<course>90.0</course>
<desc>Speed 1.5 km/h Distance 54.32 km</desc>
<time>2010-06-13T10:39:49.45</time>
<name>14042</name>
</trkpt>
<trkpt lat="49.154090" lon="11.751318">
<ele>523.2</ele>
<speed>0.8</speed>
<course>27.5</course>
<desc>Speed 0.8 km/h Distance 54.32 km</desc>
<time>2010-06-13T10:39:50.46</time>
<name>14043</name>
</trkpt>
<trkpt lat="49.154098" lon="11.751325">
<ele>524.4</ele>
<speed>1.4</speed>
<course>7.7</course>
<desc>Speed 1.4 km/h Distance 54.32 km</desc>
<time>2010-06-13T10:39:51.45</time>
<name>14044</name>
</trkpt>
<trkpt lat="49.154115" lon="11.751328">
<ele>525.3</ele>
<speed>0.7</speed>
<course>297.0</course>
<desc>Speed 0.7 km/h Distance 54.32 km</desc>
<time>2010-06-13T10:39:52.46</time>
<name>14045</name>
</trkpt>
<trkpt lat="49.154118" lon="11.751318">
<ele>523.8</ele>
<speed>0.8</speed>
<course>8.1</course>
<desc>Speed 0.8 km/h Distance 54.32 km</desc>
<time>2010-06-13T10:39:53.45</time>
<name>14046</name>
</trkpt>
<trkpt lat="49.154128" lon="11.751320">
<ele>524.1</ele>
<speed>1.2</speed>
<course>8.8</course>
<desc>Speed 1.2 km/h Distance 54.32 km</desc>
<time>2010-06-13T10:39:54.46</time>
<name>14047</name>
</trkpt>
<trkpt lat="49.154143" lon="11.751323">
<ele>525.5</ele>
<speed>3.5</speed>
<course>326.3</course>
<desc>Speed 3.5 km/h Distance 54.33 km</desc>
<time>2010-06-13T10:39:55.46</time>
<name>14048</name>
</trkpt>
<trkpt lat="49.154150" lon="11.751317">
<ele>524.9</ele>
<speed>2.2</speed>
<course>179.4</course>
<desc>Speed 2.2 km/h Distance 54.33 km</desc>
<time>2010-06-13T10:39:56.45</time>
<name>14049</name>
</trkpt>
<trkpt lat="49.154127" lon="11.751317">
<ele>523.8</ele>
<speed>0.8</speed>
<course>193.5</course>
<desc>Speed 0.8 km/h Distance 54.33 km</desc>
<time>2010-06-13T10:39:57.45</time>
<name>14050</name>
</trkpt>
<trkpt lat="49.154113" lon="11.751312">
<ele>522.6</ele>
<speed>1.9</speed>
<course>130.9</course>
<desc>Speed 1.9 km/h Distance 54.33 km</desc>
<time>2010-06-13T10:39:58.46</time>
<name>14051</name>
</trkpt>
<trkpt lat="49.154107" lon="11.751323">
<ele>522.8</ele>
<speed>4.4</speed>
<course>41.7</course>
<desc>Speed 4.4 km/h Distance 54.33 km</desc>
<time>2010-06-13T10:39:59.45</time>
<name>14052</name>
</trkpt>
<trkpt lat="49.154125" lon="11.751348">
<ele>525.4</ele>
<speed>4.9</speed>
<course>357.2</course>
<desc>Speed 4.9 km/h Distance 54.33 km</desc>
<time>2010-06-13T10:40:00.47</time>
<name>14053</name>
</trkpt>
<trkpt lat="49.154142" lon="11.751347">
<ele>526.1</ele>
<speed>5.1</speed>
<course>338.5</course>
<desc>Speed 5.1 km/h Distance 54.34 km</desc>
<time>2010-06-13T10:40:01.46</time>
<name>14054</name>
</trkpt>
<trkpt lat="49.154158" lon="11.751337">
<ele>526.0</ele>
<speed>6.2</speed>
<course>297.0</course>
<desc>Speed 6.2 km/h Distance 54.34 km</desc>
<time>2010-06-13T10:40:02.47</time>
<name>14055</name>
</trkpt>
<trkpt lat="49.154167" lon="11.751312">
<ele>525.7</ele>
<speed>8.6</speed>
<course>312.6</course>
<desc>Speed 8.6 km/h Distance 54.34 km</desc>
<time>2010-06-13T10:40:03.47</time>
<name>14056</name>
</trkpt>
<trkpt lat="49.154172" lon="11.751303">
<ele>526.9</ele>
<speed>7.6</speed>
<course>352.0</course>
<desc>Speed 7.6 km/h Distance 54.34 km</desc>
<time>2010-06-13T10:40:04.46</time>
<name>14057</name>
</trkpt>
<trkpt lat="49.154265" lon="11.751283">
<ele>529.5</ele>
<speed>10.6</speed>
<course>343.6</course>
<desc>Speed 10.6 km/h Distance 54.35 km</desc>
<time>2010-06-13T10:40:06.45</time>
<name>14058</name>
</trkpt>
<trkpt lat="49.154298" lon="11.751268">
<ele>530.0</ele>
<speed>11.1</speed>
<course>344.1</course>
<desc>Speed 11.1 km/h Distance 54.35 km</desc>
<time>2010-06-13T10:40:07.46</time>
<name>14059</name>
</trkpt>
<trkpt lat="49.154337" lon="11.751252">
<ele>529.6</ele>
<speed>11.0</speed>
<course>347.7</course>
<desc>Speed 11.0 km/h Distance 54.36 km</desc>
<time>2010-06-13T10:40:08.47</time>
<name>14060</name>
</trkpt>
<trkpt lat="49.154372" lon="11.751240">
<ele>528.4</ele>
<speed>10.8</speed>
<course>348.4</course>
<desc>Speed 10.8 km/h Distance 54.36 km</desc>
<time>2010-06-13T10:40:09.46</time>
<name>14061</name>
</trkpt>
<trkpt lat="49.154398" lon="11.751232">
<ele>527.9</ele>
<speed>9.1</speed>
<course>348.6</course>
<desc>Speed 9.1 km/h Distance 54.37 km</desc>
<time>2010-06-13T10:40:10.46</time>
<name>14062</name>
</trkpt>
<trkpt lat="49.154420" lon="11.751225">
<ele>527.6</ele>
<speed>8.3</speed>
<course>349.1</course>
<desc>Speed 8.3 km/h Distance 54.37 km</desc>
<time>2010-06-13T10:40:11.46</time>
<name>14063</name>
</trkpt>
<trkpt lat="49.154488" lon="11.751205">
<ele>524.8</ele>
<speed>9.4</speed>
<course>347.7</course>
<desc>Speed 9.4 km/h Distance 54.38 km</desc>
<time>2010-06-13T10:40:13.46</time>
<name>14064</name>
</trkpt>
<trkpt lat="49.154513" lon="11.751197">
<ele>525.0</ele>
<speed>10.0</speed>
<course>353.1</course>
<desc>Speed 10.0 km/h Distance 54.38 km</desc>
<time>2010-06-13T10:40:14.45</time>
<name>14065</name>
</trkpt>
<trkpt lat="49.154540" lon="11.751192">
<ele>525.1</ele>
<speed>8.0</speed>
<course>354.8</course>
<desc>Speed 8.0 km/h Distance 54.38 km</desc>
<time>2010-06-13T10:40:15.46</time>
<name>14066</name>
</trkpt>
<trkpt lat="49.154563" lon="11.751188">
<ele>524.9</ele>
<speed>7.3</speed>
<course>351.2</course>
<desc>Speed 7.3 km/h Distance 54.39 km</desc>
<time>2010-06-13T10:40:16.47</time>
<name>14067</name>
</trkpt>
<trkpt lat="49.154583" lon="11.751183">
<ele>524.7</ele>
<speed>6.4</speed>
<course>4.6</course>
<desc>Speed 6.4 km/h Distance 54.39 km</desc>
<time>2010-06-13T10:40:17.47</time>
<name>14068</name>
</trkpt>
<trkpt lat="49.154610" lon="11.751187">
<ele>524.6</ele>
<speed>5.6</speed>
<course>357.5</course>
<desc>Speed 5.6 km/h Distance 54.39 km</desc>
<time>2010-06-13T10:40:18.46</time>
<name>14069</name>
</trkpt>
<trkpt lat="49.154628" lon="11.751185">
<ele>524.0</ele>
<speed>5.5</speed>
<course>349.2</course>
<desc>Speed 5.5 km/h Distance 54.39 km</desc>
<time>2010-06-13T10:40:19.46</time>
<name>14070</name>
</trkpt>
<trkpt lat="49.154645" lon="11.751180">
<ele>523.4</ele>
<speed>4.9</speed>
<course>355.3</course>
<desc>Speed 4.9 km/h Distance 54.39 km</desc>
<time>2010-06-13T10:40:20.46</time>
<name>14071</name>
</trkpt>
<trkpt lat="49.154657" lon="11.751178">
<ele>523.1</ele>
<speed>5.1</speed>
<course>312.9</course>
<desc>Speed 5.1 km/h Distance 54.40 km</desc>
<time>2010-06-13T10:40:21.46</time>
<name>14072</name>
</trkpt>
<trkpt lat="49.154662" lon="11.751170">
<ele>522.0</ele>
<speed>4.0</speed>
<course>0.0</course>
<desc>Speed 4.0 km/h Distance 54.40 km</desc>
<time>2010-06-13T10:40:22.45</time>
<name>14073</name>
</trkpt>
<trkpt lat="49.154672" lon="11.751170">
<ele>521.4</ele>
<speed>2.3</speed>
<course>0.0</course>
<desc>Speed 2.3 km/h Distance 54.40 km</desc>
<time>2010-06-13T10:40:23.47</time>
<name>14074</name>
</trkpt>
<trkpt lat="49.154678" lon="11.751170">
<ele>521.1</ele>
<speed>1.1</speed>
<course>0.0</course>
<desc>Speed 1.1 km/h Distance 54.40 km</desc>
<time>2010-06-13T10:40:24.45</time>
<name>14075</name>
</trkpt>
<trkpt lat="49.154688" lon="11.751170">
<ele>520.2</ele>
<speed>0.6</speed>
<course>90.0</course>
<desc>Speed 0.6 km/h Distance 54.40 km</desc>
<time>2010-06-13T10:40:25.46</time>
<name>14076</name>
</trkpt>
<trkpt lat="49.154688" lon="11.751173">
<ele>519.3</ele>
<speed>0.6</speed>
<course>205.4</course>
<desc>Speed 0.6 km/h Distance 54.40 km</desc>
<time>2010-06-13T10:40:26.46</time>
<name>14077</name>
</trkpt>
<trkpt lat="49.154683" lon="11.751170">
<ele>518.3</ele>
<speed>1.0</speed>
<course>167.4</course>
<desc>Speed 1.0 km/h Distance 54.40 km</desc>
<time>2010-06-13T10:40:27.46</time>
<name>14078</name>
</trkpt>
<trkpt lat="49.154680" lon="11.751170">
<ele>517.8</ele>
<speed>1.0</speed>
<course>337.0</course>
<desc>Speed 1.0 km/h Distance 54.40 km</desc>
<time>2010-06-13T10:40:28.47</time>
<name>14079</name>
</trkpt>
<trkpt lat="49.154683" lon="11.751168">
<ele>516.9</ele>
<speed>0.9</speed>
<course>220.9</course>
<desc>Speed 0.9 km/h Distance 54.40 km</desc>
<time>2010-06-13T10:40:29.45</time>
<name>14080</name>
</trkpt>
<trkpt lat="49.154678" lon="11.751162">
<ele>515.2</ele>
<speed>0.3</speed>
<course>187.5</course>
<desc>Speed 0.3 km/h Distance 54.40 km</desc>
<time>2010-06-13T10:40:30.47</time>
<name>14081</name>
</trkpt>
<trkpt lat="49.154663" lon="11.751158">
<ele>513.7</ele>
<speed>2.1</speed>
<course>192.6</course>
<desc>Speed 2.1 km/h Distance 54.40 km</desc>
<time>2010-06-13T10:40:31.46</time>
<name>14082</name>
</trkpt>
<trkpt lat="49.154653" lon="11.751155">
<ele>512.1</ele>
<speed>2.1</speed>
<course>166.5</course>
<desc>Speed 2.1 km/h Distance 54.40 km</desc>
<time>2010-06-13T10:40:32.45</time>
<name>14083</name>
</trkpt>
<trkpt lat="49.154640" lon="11.751160">
<ele>511.1</ele>
<speed>1.2</speed>
<course>213.7</course>
<desc>Speed 1.2 km/h Distance 54.41 km</desc>
<time>2010-06-13T10:40:33.45</time>
<name>14084</name>
</trkpt>
<trkpt lat="49.154637" lon="11.751157">
<ele>509.9</ele>
<speed>1.0</speed>
<course>270.0</course>
<desc>Speed 1.0 km/h Distance 54.41 km</desc>
<time>2010-06-13T10:40:34.45</time>
<name>14085</name>
</trkpt>
<trkpt lat="49.154637" lon="11.751155">
<ele>508.9</ele>
<speed>0.5</speed>
<course>170.5</course>
<desc>Speed 0.5 km/h Distance 54.41 km</desc>
<time>2010-06-13T10:40:35.46</time>
<name>14086</name>
</trkpt>
<trkpt lat="49.154625" lon="11.751158">
<ele>508.4</ele>
<speed>1.3</speed>
<course>191.6</course>
<desc>Speed 1.3 km/h Distance 54.41 km</desc>
<time>2010-06-13T10:40:36.45</time>
<name>14087</name>
</trkpt>
<trkpt lat="49.154615" lon="11.751155">
<ele>508.5</ele>
<speed>1.5</speed>
<course>217.2</course>
<desc>Speed 1.5 km/h Distance 54.41 km</desc>
<time>2010-06-13T10:40:37.45</time>
<name>14088</name>
</trkpt>
<trkpt lat="49.154613" lon="11.751153">
<ele>508.1</ele>
<speed>0.8</speed>
<course>167.8</course>
<desc>Speed 0.8 km/h Distance 54.41 km</desc>
<time>2010-06-13T10:40:38.45</time>
<name>14089</name>
</trkpt>
<trkpt lat="49.154598" lon="11.751158">
<ele>508.2</ele>
<speed>2.4</speed>
<course>23.8</course>
<desc>Speed 2.4 km/h Distance 54.41 km</desc>
<time>2010-06-13T10:40:39.45</time>
<name>14090</name>
</trkpt>
<trkpt lat="49.154603" lon="11.751162">
<ele>508.6</ele>
<speed>1.6</speed>
<course>290.9</course>
<desc>Speed 1.6 km/h Distance 54.41 km</desc>
<time>2010-06-13T10:40:40.47</time>
<name>14091</name>
</trkpt>
<trkpt lat="49.154605" lon="11.751155">
<ele>508.0</ele>
<speed>0.0</speed>
<course>290.9</course>
<desc>Speed 0.0 km/h Distance 54.41 km</desc>
<time>2010-06-13T10:40:41.45</time>
<name>14092</name>
</trkpt>
<trkpt lat="49.154607" lon="11.751148">
<ele>508.9</ele>
<speed>0.2</speed>
<course>218.1</course>
<desc>Speed 0.2 km/h Distance 54.41 km</desc>
<time>2010-06-13T10:40:42.45</time>
<name>14093</name>
</trkpt>
<trkpt lat="49.154598" lon="11.751138">
<ele>508.7</ele>
<speed>0.3</speed>
<course>180.0</course>
<desc>Speed 0.3 km/h Distance 54.41 km</desc>
<time>2010-06-13T10:40:43.47</time>
<name>14094</name>
</trkpt>
<trkpt lat="49.154582" lon="11.751138">
<ele>509.7</ele>
<speed>0.8</speed>
<course>203.8</course>
<desc>Speed 0.8 km/h Distance 54.42 km</desc>
<time>2010-06-13T10:40:44.46</time>
<name>14095</name>
</trkpt>
<trkpt lat="49.154577" lon="11.751135">
<ele>510.2</ele>
<speed>0.0</speed>
<course>167.4</course>
<desc>Speed 0.0 km/h Distance 54.42 km</desc>
<time>2010-06-13T10:40:45.45</time>
<name>14096</name>
</trkpt>
<trkpt lat="49.154572" lon="11.751137">
<ele>510.0</ele>
<speed>0.1</speed>
<course>218.7</course>
<desc>Speed 0.1 km/h Distance 54.42 km</desc>
<time>2010-06-13T10:40:46.45</time>
<name>14097</name>
</trkpt>
<trkpt lat="49.154565" lon="11.751128">
<ele>509.3</ele>
<speed>0.6</speed>
<course>297.4</course>
<desc>Speed 0.6 km/h Distance 54.42 km</desc>
<time>2010-06-13T10:40:47.46</time>
<name>14098</name>
</trkpt>
<trkpt lat="49.154567" lon="11.751123">
<ele>508.8</ele>
<speed>0.4</speed>
<course>347.4</course>
<desc>Speed 0.4 km/h Distance 54.42 km</desc>
<time>2010-06-13T10:40:48.46</time>
<name>14099</name>
</trkpt>
<trkpt lat="49.154570" lon="11.751122">
<ele>508.7</ele>
<speed>0.5</speed>
<course>202.2</course>
<desc>Speed 0.5 km/h Distance 54.42 km</desc>
<time>2010-06-13T10:40:49.45</time>
<name>14100</name>
</trkpt>
<trkpt lat="49.154565" lon="11.751118">
<ele>508.0</ele>
<speed>1.0</speed>
<course>219.4</course>
<desc>Speed 1.0 km/h Distance 54.42 km</desc>
<time>2010-06-13T10:40:50.44</time>
<name>14101</name>
</trkpt>
<trkpt lat="49.154558" lon="11.751110">
<ele>507.3</ele>
<speed>0.3</speed>
<course>126.1</course>
<desc>Speed 0.3 km/h Distance 54.42 km</desc>
<time>2010-06-13T10:40:51.44</time>
<name>14102</name>
</trkpt>
<trkpt lat="49.154557" lon="11.751113">
<ele>508.1</ele>
<speed>0.4</speed>
<course>156.2</course>
<desc>Speed 0.4 km/h Distance 54.42 km</desc>
<time>2010-06-13T10:40:52.47</time>
<name>14103</name>
</trkpt>
<trkpt lat="49.154552" lon="11.751117">
<ele>509.3</ele>
<speed>0.2</speed>
<course>117.4</course>
<desc>Speed 0.2 km/h Distance 54.42 km</desc>
<time>2010-06-13T10:40:53.46</time>
<name>14104</name>
</trkpt>
<trkpt lat="49.154550" lon="11.751122">
<ele>510.6</ele>
<speed>0.4</speed>
<course>157.8</course>
<desc>Speed 0.4 km/h Distance 54.42 km</desc>
<time>2010-06-13T10:40:54.46</time>
<name>14105</name>
</trkpt>
<trkpt lat="49.154545" lon="11.751125">
<ele>511.9</ele>
<speed>0.1</speed>
<course>270.0</course>
<desc>Speed 0.1 km/h Distance 54.42 km</desc>
<time>2010-06-13T10:40:55.46</time>
<name>14106</name>
</trkpt>
<trkpt lat="49.154545" lon="11.751122">
<ele>512.6</ele>
<speed>1.3</speed>
<course>180.0</course>
<desc>Speed 1.3 km/h Distance 54.42 km</desc>
<time>2010-06-13T10:40:56.45</time>
<name>14107</name>
</trkpt>
<trkpt lat="49.154542" lon="11.751122">
<ele>512.8</ele>
<speed>2.1</speed>
<course>12.6</course>
<desc>Speed 2.1 km/h Distance 54.42 km</desc>
<time>2010-06-13T10:40:57.47</time>
<name>14108</name>
</trkpt>
<trkpt lat="49.154543" lon="11.751122">
<ele>512.6</ele>
<speed>0.2</speed>
<course>12.6</course>
<desc>Speed 0.2 km/h Distance 54.42 km</desc>
<time>2010-06-13T10:40:58.46</time>
<name>14109</name>
</trkpt>
<trkpt lat="49.154543" lon="11.751122">
<ele>512.9</ele>
<speed>0.7</speed>
<course>326.8</course>
<desc>Speed 0.7 km/h Distance 54.42 km</desc>
<time>2010-06-13T10:40:59.46</time>
<name>14110</name>
</trkpt>
<trkpt lat="49.154548" lon="11.751117">
<ele>513.0</ele>
<speed>1.9</speed>
<course>315.5</course>
<desc>Speed 1.9 km/h Distance 54.42 km</desc>
<time>2010-06-13T10:41:00.45</time>
<name>14111</name>
</trkpt>
<trkpt lat="49.154555" lon="11.751107">
<ele>513.4</ele>
<speed>2.9</speed>
<course>338.5</course>
<desc>Speed 2.9 km/h Distance 54.42 km</desc>
<time>2010-06-13T10:41:01.46</time>
<name>14112</name>
</trkpt>
<trkpt lat="49.154563" lon="11.751102">
<ele>513.8</ele>
<speed>3.0</speed>
<course>333.0</course>
<desc>Speed 3.0 km/h Distance 54.43 km</desc>
<time>2010-06-13T10:41:02.45</time>
<name>14113</name>
</trkpt>
<trkpt lat="49.154572" lon="11.751095">
<ele>514.1</ele>
<speed>2.8</speed>
<course>333.0</course>
<desc>Speed 2.8 km/h Distance 54.43 km</desc>
<time>2010-06-13T10:41:03.47</time>
<name>14114</name>
</trkpt>
<trkpt lat="49.154580" lon="11.751088">
<ele>514.3</ele>
<speed>2.5</speed>
<course>332.5</course>
<desc>Speed 2.5 km/h Distance 54.43 km</desc>
<time>2010-06-13T10:41:04.45</time>
<name>14115</name>
</trkpt>
<trkpt lat="49.154588" lon="11.751082">
<ele>514.2</ele>
<speed>2.7</speed>
<course>326.8</course>
<desc>Speed 2.7 km/h Distance 54.43 km</desc>
<time>2010-06-13T10:41:05.45</time>
<name>14116</name>
</trkpt>
<trkpt lat="49.154597" lon="11.751073">
<ele>514.9</ele>
<speed>3.2</speed>
<course>322.7</course>
<desc>Speed 3.2 km/h Distance 54.43 km</desc>
<time>2010-06-13T10:41:06.45</time>
<name>14117</name>
</trkpt>
<trkpt lat="49.154607" lon="11.751062">
<ele>515.5</ele>
<speed>4.1</speed>
<course>317.5</course>
<desc>Speed 4.1 km/h Distance 54.43 km</desc>
<time>2010-06-13T10:41:07.46</time>
<name>14118</name>
</trkpt>
<trkpt lat="49.154615" lon="11.751050">
<ele>516.1</ele>
<speed>3.3</speed>
<course>303.3</course>
<desc>Speed 3.3 km/h Distance 54.43 km</desc>
<time>2010-06-13T10:41:08.47</time>
<name>14119</name>
</trkpt>
<trkpt lat="49.154620" lon="11.751038">
<ele>516.3</ele>
<speed>3.0</speed>
<course>326.6</course>
<desc>Speed 3.0 km/h Distance 54.43 km</desc>
<time>2010-06-13T10:41:09.45</time>
<name>14120</name>
</trkpt>
<trkpt lat="49.154632" lon="11.751027">
<ele>516.5</ele>
<speed>1.7</speed>
<course>157.8</course>
<desc>Speed 1.7 km/h Distance 54.44 km</desc>
<time>2010-06-13T10:41:10.45</time>
<name>14121</name>
</trkpt>
<trkpt lat="49.154627" lon="11.751030">
<ele>517.3</ele>
<speed>0.9</speed>
<course>180.0</course>
<desc>Speed 0.9 km/h Distance 54.44 km</desc>
<time>2010-06-13T10:41:11.46</time>
<name>14122</name>
</trkpt>
<trkpt lat="49.154623" lon="11.751030">
<ele>517.3</ele>
<speed>0.9</speed>
<course>227.4</course>
<desc>Speed 0.9 km/h Distance 54.44 km</desc>
<time>2010-06-13T10:41:12.48</time>
<name>14123</name>
</trkpt>
<trkpt lat="49.154618" lon="11.751022">
<ele>518.5</ele>
<speed>1.9</speed>
<course>307.4</course>
<desc>Speed 1.9 km/h Distance 54.44 km</desc>
<time>2010-06-13T10:41:13.45</time>
<name>14124</name>
</trkpt>
<trkpt lat="49.154623" lon="11.751012">
<ele>518.7</ele>
<speed>0.9</speed>
<course>303.3</course>
<desc>Speed 0.9 km/h Distance 54.44 km</desc>
<time>2010-06-13T10:41:14.47</time>
<name>14125</name>
</trkpt>
<trkpt lat="49.154628" lon="11.751000">
<ele>519.2</ele>
<speed>1.3</speed>
<course>270.0</course>
<desc>Speed 1.3 km/h Distance 54.44 km</desc>
<time>2010-06-13T10:41:15.47</time>
<name>14126</name>
</trkpt>
<trkpt lat="49.154628" lon="11.750995">
<ele>519.9</ele>
<speed>0.7</speed>
<course>249.1</course>
<desc>Speed 0.7 km/h Distance 54.44 km</desc>
<time>2010-06-13T10:41:16.45</time>
<name>14127</name>
</trkpt>
<trkpt lat="49.154627" lon="11.750988">
<ele>520.3</ele>
<speed>1.4</speed>
<course>287.1</course>
<desc>Speed 1.4 km/h Distance 54.44 km</desc>
<time>2010-06-13T10:41:17.46</time>
<name>14128</name>
</trkpt>
<trkpt lat="49.154628" lon="11.750980">
<ele>520.4</ele>
<speed>2.2</speed>
<course>326.8</course>
<desc>Speed 2.2 km/h Distance 54.44 km</desc>
<time>2010-06-13T10:41:18.45</time>
<name>14129</name>
</trkpt>
<trkpt lat="49.154633" lon="11.750975">
<ele>520.9</ele>
<speed>2.1</speed>
<course>270.0</course>
<desc>Speed 2.1 km/h Distance 54.44 km</desc>
<time>2010-06-13T10:41:19.45</time>
<name>14130</name>
</trkpt>
<trkpt lat="49.154633" lon="11.750967">
<ele>522.1</ele>
<speed>1.4</speed>
<course>255.6</course>
<desc>Speed 1.4 km/h Distance 54.44 km</desc>
<time>2010-06-13T10:41:20.44</time>
<name>14131</name>
</trkpt>
<trkpt lat="49.154632" lon="11.750957">
<ele>522.7</ele>
<speed>1.3</speed>
<course>236.7</course>
<desc>Speed 1.3 km/h Distance 54.44 km</desc>
<time>2010-06-13T10:41:21.47</time>
<name>14132</name>
</trkpt>
<trkpt lat="49.154627" lon="11.750945">
<ele>523.6</ele>
<speed>1.9</speed>
<course>248.7</course>
<desc>Speed 1.9 km/h Distance 54.44 km</desc>
<time>2010-06-13T10:41:22.46</time>
<name>14133</name>
</trkpt>
<trkpt lat="49.154625" lon="11.750938">
<ele>524.3</ele>
<speed>0.9</speed>
<course>248.7</course>
<desc>Speed 0.9 km/h Distance 54.44 km</desc>
<time>2010-06-13T10:41:23.45</time>
<name>14134</name>
</trkpt>
<trkpt lat="49.154623" lon="11.750932">
<ele>525.2</ele>
<speed>0.8</speed>
<course>248.7</course>
<desc>Speed 0.8 km/h Distance 54.44 km</desc>
<time>2010-06-13T10:41:24.50</time>
<name>14135</name>
</trkpt>
<trkpt lat="49.154623" lon="11.750932">
<ele>525.2</ele>
<speed>0.8</speed>
<course>270.0</course>
<desc>Speed 0.8 km/h Distance 54.44 km</desc>
<time>2010-06-13T10:41:24.99</time>
<name>14136</name>
</trkpt>
<trkpt lat="49.154623" lon="11.750925">
<ele>526.1</ele>
<speed>1.0</speed>
<course>347.4</course>
<desc>Speed 1.0 km/h Distance 54.44 km</desc>
<time>2010-06-13T10:41:25.99</time>
<name>14137</name>
</trkpt>
<trkpt lat="49.154627" lon="11.750923">
<ele>527.1</ele>
<speed>1.8</speed>
<course>22.2</course>
<desc>Speed 1.8 km/h Distance 54.45 km</desc>
<time>2010-06-13T10:41:27.04</time>
<name>14138</name>
</trkpt>
<trkpt lat="49.154632" lon="11.750927">
<ele>527.5</ele>
<speed>1.5</speed>
<course>69.1</course>
<desc>Speed 1.5 km/h Distance 54.45 km</desc>
<time>2010-06-13T10:41:27.99</time>
<name>14139</name>
</trkpt>
<trkpt lat="49.154633" lon="11.750933">
<ele>527.5</ele>
<speed>1.3</speed>
<course>107.8</course>
<desc>Speed 1.3 km/h Distance 54.45 km</desc>
<time>2010-06-13T10:41:31.44</time>
<name>14140</name>
</trkpt>
<trkpt lat="49.154627" lon="11.750965">
<ele>528.5</ele>
<speed>1.8</speed>
<course>107.8</course>
<desc>Speed 1.8 km/h Distance 54.45 km</desc>
<time>2010-06-13T10:41:32.98</time>
<name>14141</name>
</trkpt>
</trkseg>
</trk>
</gpx>
